<?xml version="1.0" encoding="UTF-8" standalone="no" ?>
<gpx xmlns="http://www.topografix.com/GPX/1/1" xmlns:xsi="http://www.w3.org/2001/XMLSchema-instance" xsi:schemaLocation="http://www.topografix.com/GPX/1/1 http://www.topografix.com/GPX/1/1/gpx.xsd" version="1.1" creator="VisuGPX - https://www.visugpx.com">
  <metadata>
    <name>WE morbihan</name>
    <desc><![CDATA[<p>Heure de départ: 11:59 27 mai 2021<br/>Heure d'arrivée: 17:40 27 mai 2021<br/>Distance: 57,4 km (05:40)<br/>Temps déplacement: 05:02<br/>Vitesse moyenne: 10,1 km/h<br/>Vitesse moyenne mouv.: 11,38 km/h<br/>Vitesse Max.: 33,89 km/h<br/>Altitude minimale: 6 m<br/>Altitude maximale: 79 m<br/>Vitesse de montée: 452,3 m/h<br/>Vitesse de descente: 719,6 m/h<br/>Gain d'altitude: 889 m<br/>Perte d'altitude: 827 m<br/>Temps de montée: 01:58<br/>Temps de descente: 01:08<br/></p><hr align="center" width="480" style="height: 2px; width: 517px"/>]]></desc>
  </metadata>
  <wpt lat="47.78196" lon="-1.85208">
    <ele>24.6</ele>
    <name><![CDATA[Etang Et Bois de Baron]]></name>
    <type><![CDATA[user]]></type>
  </wpt>
  <wpt lat="47.67922" lon="-2.23788">
    <ele>50.3</ele>
    <name><![CDATA[Moulin de La Vallée]]></name>
    <type><![CDATA[user]]></type>
  </wpt>
  <wpt lat="47.68392" lon="-2.21412">
    <ele>50.6</ele>
    <name><![CDATA[Parking]]></name>
    <type><![CDATA[user]]></type>
  </wpt>
  <wpt lat="47.77541" lon="-1.83879">
    <ele>4.7</ele>
    <name><![CDATA[pont de Boeuvre]]></name>
    <type><![CDATA[user]]></type>
  </wpt>
  <trk>
    <name><![CDATA[Aller StJct]]></name>
    <desc><![CDATA[<p>Heure de départ: 11:59 27 mai 2021<br/>Heure d'arrivée: 17:40 27 mai 2021<br/>Distance: 57,4 km (05:40)<br/>Temps déplacement: 05:02<br/>Vitesse moyenne: 10,1 km/h<br/>Vitesse moyenne mouv.: 11,38 km/h<br/>Vitesse Max.: 33,89 km/h<br/>Altitude minimale: 6 m<br/>Altitude maximale: 79 m<br/>Vitesse de montée: 452,3 m/h<br/>Vitesse de descente: 719,6 m/h<br/>Gain d'altitude: 889 m<br/>Perte d'altitude: 827 m<br/>Temps de montée: 01:58<br/>Temps de descente: 01:08<br/></p><hr align="center" width="480" style="height: 2px; width: 517px"/>]]></desc>
    <trkseg>
      <trkpt lat="47.68402" lon="-2.21399">
        <ele>51.2</ele>
        <time>2021-05-27T09:59:25Z</time>
      </trkpt>
      <trkpt lat="47.68402" lon="-2.21399">
        <ele>51.2</ele>
        <time>2021-05-27T09:59:26Z</time>
      </trkpt>
      <trkpt lat="47.68402" lon="-2.21399">
        <ele>51.2</ele>
        <time>2021-05-27T09:59:27Z</time>
      </trkpt>
      <trkpt lat="47.68402" lon="-2.21399">
        <ele>51.2</ele>
        <time>2021-05-27T09:59:28Z</time>
      </trkpt>
      <trkpt lat="47.68402" lon="-2.21399">
        <ele>51.2</ele>
        <time>2021-05-27T09:59:29Z</time>
      </trkpt>
      <trkpt lat="47.68402" lon="-2.21399">
        <ele>51.2</ele>
        <time>2021-05-27T09:59:30Z</time>
      </trkpt>
      <trkpt lat="47.68402" lon="-2.21399">
        <ele>51.2</ele>
        <time>2021-05-27T09:59:31Z</time>
      </trkpt>
      <trkpt lat="47.68402" lon="-2.21399">
        <ele>51.2</ele>
        <time>2021-05-27T09:59:32Z</time>
      </trkpt>
      <trkpt lat="47.68402" lon="-2.21399">
        <ele>51.2</ele>
        <time>2021-05-27T09:59:33Z</time>
      </trkpt>
      <trkpt lat="47.68402" lon="-2.21399">
        <ele>51.2</ele>
        <time>2021-05-27T09:59:34Z</time>
      </trkpt>
      <trkpt lat="47.68402" lon="-2.21399">
        <ele>51.2</ele>
        <time>2021-05-27T09:59:35Z</time>
      </trkpt>
      <trkpt lat="47.68402" lon="-2.21399">
        <ele>51.2</ele>
        <time>2021-05-27T09:59:36Z</time>
      </trkpt>
      <trkpt lat="47.68402" lon="-2.21399">
        <ele>51.2</ele>
        <time>2021-05-27T09:59:37Z</time>
      </trkpt>
      <trkpt lat="47.68402" lon="-2.21399">
        <ele>51.2</ele>
        <time>2021-05-27T09:59:38Z</time>
      </trkpt>
      <trkpt lat="47.68402" lon="-2.21399">
        <ele>51.2</ele>
        <time>2021-05-27T09:59:39Z</time>
      </trkpt>
      <trkpt lat="47.68402" lon="-2.21399">
        <ele>51.2</ele>
        <time>2021-05-27T09:59:40Z</time>
      </trkpt>
      <trkpt lat="47.68402" lon="-2.21399">
        <ele>51.2</ele>
        <time>2021-05-27T09:59:41Z</time>
      </trkpt>
      <trkpt lat="47.68402" lon="-2.21399">
        <ele>51.2</ele>
        <time>2021-05-27T09:59:42Z</time>
      </trkpt>
      <trkpt lat="47.68402" lon="-2.21399">
        <ele>51.2</ele>
        <time>2021-05-27T09:59:43Z</time>
      </trkpt>
      <trkpt lat="47.68402" lon="-2.21399">
        <ele>51.2</ele>
        <time>2021-05-27T09:59:44Z</time>
      </trkpt>
      <trkpt lat="47.68402" lon="-2.21399">
        <ele>51.2</ele>
        <time>2021-05-27T09:59:45Z</time>
      </trkpt>
      <trkpt lat="47.68402" lon="-2.21399">
        <ele>51.2</ele>
        <time>2021-05-27T09:59:46Z</time>
      </trkpt>
      <trkpt lat="47.68402" lon="-2.21399">
        <ele>51.2</ele>
        <time>2021-05-27T09:59:47Z</time>
      </trkpt>
      <trkpt lat="47.68398" lon="-2.21406">
        <ele>50.9</ele>
        <time>2021-05-27T09:59:48Z</time>
      </trkpt>
      <trkpt lat="47.68399" lon="-2.21409">
        <ele>50.8</ele>
        <time>2021-05-27T09:59:49Z</time>
      </trkpt>
      <trkpt lat="47.684" lon="-2.2141">
        <ele>50.8</ele>
        <time>2021-05-27T09:59:50Z</time>
      </trkpt>
      <trkpt lat="47.68402" lon="-2.21412">
        <ele>50.8</ele>
        <time>2021-05-27T09:59:51Z</time>
      </trkpt>
      <trkpt lat="47.68404" lon="-2.21412">
        <ele>50.8</ele>
        <time>2021-05-27T09:59:52Z</time>
      </trkpt>
      <trkpt lat="47.68407" lon="-2.21413">
        <ele>50.9</ele>
        <time>2021-05-27T09:59:53Z</time>
      </trkpt>
      <trkpt lat="47.68409" lon="-2.21414">
        <ele>50.9</ele>
        <time>2021-05-27T09:59:54Z</time>
      </trkpt>
      <trkpt lat="47.68411" lon="-2.21415">
        <ele>50.9</ele>
        <time>2021-05-27T09:59:55Z</time>
      </trkpt>
      <trkpt lat="47.68414" lon="-2.21417">
        <ele>50.9</ele>
        <time>2021-05-27T09:59:56Z</time>
      </trkpt>
      <trkpt lat="47.68416" lon="-2.21418">
        <ele>51</ele>
        <time>2021-05-27T09:59:57Z</time>
      </trkpt>
      <trkpt lat="47.68418" lon="-2.21419">
        <ele>51.1</ele>
        <time>2021-05-27T09:59:58Z</time>
      </trkpt>
      <trkpt lat="47.68421" lon="-2.21421">
        <ele>51.2</ele>
        <time>2021-05-27T09:59:59Z</time>
      </trkpt>
      <trkpt lat="47.68424" lon="-2.21423">
        <ele>51.3</ele>
        <time>2021-05-27T10:00:00Z</time>
      </trkpt>
      <trkpt lat="47.68427" lon="-2.21425">
        <ele>51.5</ele>
        <time>2021-05-27T10:00:01Z</time>
      </trkpt>
      <trkpt lat="47.6843" lon="-2.21428">
        <ele>51.6</ele>
        <time>2021-05-27T10:00:02Z</time>
      </trkpt>
      <trkpt lat="47.68432" lon="-2.21432">
        <ele>51.8</ele>
        <time>2021-05-27T10:00:03Z</time>
      </trkpt>
      <trkpt lat="47.68434" lon="-2.21437">
        <ele>51.9</ele>
        <time>2021-05-27T10:00:04Z</time>
      </trkpt>
      <trkpt lat="47.68436" lon="-2.21442">
        <ele>51.9</ele>
        <time>2021-05-27T10:00:05Z</time>
      </trkpt>
      <trkpt lat="47.68438" lon="-2.21448">
        <ele>52</ele>
        <time>2021-05-27T10:00:06Z</time>
      </trkpt>
      <trkpt lat="47.68439" lon="-2.21453">
        <ele>52.1</ele>
        <time>2021-05-27T10:00:07Z</time>
      </trkpt>
      <trkpt lat="47.6844" lon="-2.21458">
        <ele>52.1</ele>
        <time>2021-05-27T10:00:08Z</time>
      </trkpt>
      <trkpt lat="47.68441" lon="-2.21463">
        <ele>52.2</ele>
        <time>2021-05-27T10:00:09Z</time>
      </trkpt>
      <trkpt lat="47.68441" lon="-2.21468">
        <ele>52.2</ele>
        <time>2021-05-27T10:00:10Z</time>
      </trkpt>
      <trkpt lat="47.68441" lon="-2.21472">
        <ele>52.2</ele>
        <time>2021-05-27T10:00:11Z</time>
      </trkpt>
      <trkpt lat="47.68441" lon="-2.21477">
        <ele>52.2</ele>
        <time>2021-05-27T10:00:12Z</time>
      </trkpt>
      <trkpt lat="47.68442" lon="-2.21481">
        <ele>52.2</ele>
        <time>2021-05-27T10:00:13Z</time>
      </trkpt>
      <trkpt lat="47.68444" lon="-2.21485">
        <ele>52.3</ele>
        <time>2021-05-27T10:00:14Z</time>
      </trkpt>
      <trkpt lat="47.68446" lon="-2.2149">
        <ele>52.4</ele>
        <time>2021-05-27T10:00:15Z</time>
      </trkpt>
      <trkpt lat="47.68447" lon="-2.21494">
        <ele>52.4</ele>
        <time>2021-05-27T10:00:16Z</time>
      </trkpt>
      <trkpt lat="47.68448" lon="-2.21498">
        <ele>52.5</ele>
        <time>2021-05-27T10:00:17Z</time>
      </trkpt>
      <trkpt lat="47.68451" lon="-2.21502">
        <ele>52.6</ele>
        <time>2021-05-27T10:00:18Z</time>
      </trkpt>
      <trkpt lat="47.68453" lon="-2.21507">
        <ele>52.8</ele>
        <time>2021-05-27T10:00:19Z</time>
      </trkpt>
      <trkpt lat="47.68455" lon="-2.21513">
        <ele>52.9</ele>
        <time>2021-05-27T10:00:20Z</time>
      </trkpt>
      <trkpt lat="47.68458" lon="-2.21519">
        <ele>53.1</ele>
        <time>2021-05-27T10:00:21Z</time>
      </trkpt>
      <trkpt lat="47.68461" lon="-2.21525">
        <ele>53.3</ele>
        <time>2021-05-27T10:00:22Z</time>
      </trkpt>
      <trkpt lat="47.68464" lon="-2.21532">
        <ele>53.5</ele>
        <time>2021-05-27T10:00:23Z</time>
      </trkpt>
      <trkpt lat="47.68466" lon="-2.21538">
        <ele>53.6</ele>
        <time>2021-05-27T10:00:24Z</time>
      </trkpt>
      <trkpt lat="47.68466" lon="-2.21544">
        <ele>53.7</ele>
        <time>2021-05-27T10:00:25Z</time>
      </trkpt>
      <trkpt lat="47.68467" lon="-2.2155">
        <ele>53.8</ele>
        <time>2021-05-27T10:00:26Z</time>
      </trkpt>
      <trkpt lat="47.68467" lon="-2.21556">
        <ele>53.9</ele>
        <time>2021-05-27T10:00:27Z</time>
      </trkpt>
      <trkpt lat="47.68468" lon="-2.21562">
        <ele>53.9</ele>
        <time>2021-05-27T10:00:28Z</time>
      </trkpt>
      <trkpt lat="47.68469" lon="-2.21567">
        <ele>54</ele>
        <time>2021-05-27T10:00:29Z</time>
      </trkpt>
      <trkpt lat="47.68467" lon="-2.21574">
        <ele>53.9</ele>
        <time>2021-05-27T10:00:30Z</time>
      </trkpt>
      <trkpt lat="47.68467" lon="-2.2158">
        <ele>54</ele>
        <time>2021-05-27T10:00:31Z</time>
      </trkpt>
      <trkpt lat="47.68466" lon="-2.21586">
        <ele>53.9</ele>
        <time>2021-05-27T10:00:32Z</time>
      </trkpt>
      <trkpt lat="47.68465" lon="-2.21593">
        <ele>53.6</ele>
        <time>2021-05-27T10:00:33Z</time>
      </trkpt>
      <trkpt lat="47.68464" lon="-2.21599">
        <ele>53.4</ele>
        <time>2021-05-27T10:00:34Z</time>
      </trkpt>
      <trkpt lat="47.68463" lon="-2.21606">
        <ele>53.2</ele>
        <time>2021-05-27T10:00:35Z</time>
      </trkpt>
      <trkpt lat="47.68463" lon="-2.21612">
        <ele>53.1</ele>
        <time>2021-05-27T10:00:36Z</time>
      </trkpt>
      <trkpt lat="47.68463" lon="-2.21619">
        <ele>52.9</ele>
        <time>2021-05-27T10:00:37Z</time>
      </trkpt>
      <trkpt lat="47.68463" lon="-2.21625">
        <ele>52.8</ele>
        <time>2021-05-27T10:00:38Z</time>
      </trkpt>
      <trkpt lat="47.68463" lon="-2.21634">
        <ele>52.6</ele>
        <time>2021-05-27T10:00:39Z</time>
      </trkpt>
      <trkpt lat="47.68464" lon="-2.21641">
        <ele>52.5</ele>
        <time>2021-05-27T10:00:40Z</time>
      </trkpt>
      <trkpt lat="47.68464" lon="-2.21648">
        <ele>52.3</ele>
        <time>2021-05-27T10:00:41Z</time>
      </trkpt>
      <trkpt lat="47.68464" lon="-2.21656">
        <ele>52.1</ele>
        <time>2021-05-27T10:00:42Z</time>
      </trkpt>
      <trkpt lat="47.68464" lon="-2.21664">
        <ele>51.9</ele>
        <time>2021-05-27T10:00:43Z</time>
      </trkpt>
      <trkpt lat="47.68466" lon="-2.21673">
        <ele>51.9</ele>
        <time>2021-05-27T10:00:44Z</time>
      </trkpt>
      <trkpt lat="47.68467" lon="-2.21682">
        <ele>51.9</ele>
        <time>2021-05-27T10:00:45Z</time>
      </trkpt>
      <trkpt lat="47.68468" lon="-2.21691">
        <ele>51.8</ele>
        <time>2021-05-27T10:00:46Z</time>
      </trkpt>
      <trkpt lat="47.68468" lon="-2.217">
        <ele>51.7</ele>
        <time>2021-05-27T10:00:47Z</time>
      </trkpt>
      <trkpt lat="47.68469" lon="-2.21708">
        <ele>51.6</ele>
        <time>2021-05-27T10:00:48Z</time>
      </trkpt>
      <trkpt lat="47.68469" lon="-2.21717">
        <ele>51.6</ele>
        <time>2021-05-27T10:00:49Z</time>
      </trkpt>
      <trkpt lat="47.6847" lon="-2.21727">
        <ele>51.5</ele>
        <time>2021-05-27T10:00:50Z</time>
      </trkpt>
      <trkpt lat="47.68472" lon="-2.21736">
        <ele>51.5</ele>
        <time>2021-05-27T10:00:51Z</time>
      </trkpt>
      <trkpt lat="47.68473" lon="-2.21745">
        <ele>51.4</ele>
        <time>2021-05-27T10:00:52Z</time>
      </trkpt>
      <trkpt lat="47.68474" lon="-2.21754">
        <ele>51.3</ele>
        <time>2021-05-27T10:00:53Z</time>
      </trkpt>
      <trkpt lat="47.68474" lon="-2.21764">
        <ele>51.1</ele>
        <time>2021-05-27T10:00:54Z</time>
      </trkpt>
      <trkpt lat="47.68473" lon="-2.21773">
        <ele>50.9</ele>
        <time>2021-05-27T10:00:55Z</time>
      </trkpt>
      <trkpt lat="47.68473" lon="-2.21783">
        <ele>50.8</ele>
        <time>2021-05-27T10:00:56Z</time>
      </trkpt>
      <trkpt lat="47.68474" lon="-2.21792">
        <ele>50.6</ele>
        <time>2021-05-27T10:00:57Z</time>
      </trkpt>
      <trkpt lat="47.68475" lon="-2.21801">
        <ele>50.5</ele>
        <time>2021-05-27T10:00:58Z</time>
      </trkpt>
      <trkpt lat="47.68476" lon="-2.21809">
        <ele>50.4</ele>
        <time>2021-05-27T10:00:59Z</time>
      </trkpt>
      <trkpt lat="47.68476" lon="-2.21818">
        <ele>50.3</ele>
        <time>2021-05-27T10:01:00Z</time>
      </trkpt>
      <trkpt lat="47.68478" lon="-2.21827">
        <ele>50.3</ele>
        <time>2021-05-27T10:01:01Z</time>
      </trkpt>
      <trkpt lat="47.6848" lon="-2.21835">
        <ele>50.3</ele>
        <time>2021-05-27T10:01:02Z</time>
      </trkpt>
      <trkpt lat="47.68482" lon="-2.21844">
        <ele>50.2</ele>
        <time>2021-05-27T10:01:03Z</time>
      </trkpt>
      <trkpt lat="47.68483" lon="-2.21853">
        <ele>50.2</ele>
        <time>2021-05-27T10:01:04Z</time>
      </trkpt>
      <trkpt lat="47.68485" lon="-2.21862">
        <ele>50.1</ele>
        <time>2021-05-27T10:01:05Z</time>
      </trkpt>
      <trkpt lat="47.68487" lon="-2.21871">
        <ele>50.1</ele>
        <time>2021-05-27T10:01:06Z</time>
      </trkpt>
      <trkpt lat="47.68489" lon="-2.2188">
        <ele>50</ele>
        <time>2021-05-27T10:01:07Z</time>
      </trkpt>
      <trkpt lat="47.6849" lon="-2.2189">
        <ele>49.9</ele>
        <time>2021-05-27T10:01:08Z</time>
      </trkpt>
      <trkpt lat="47.68492" lon="-2.219">
        <ele>49.8</ele>
        <time>2021-05-27T10:01:09Z</time>
      </trkpt>
      <trkpt lat="47.68494" lon="-2.21909">
        <ele>49.7</ele>
        <time>2021-05-27T10:01:10Z</time>
      </trkpt>
      <trkpt lat="47.68496" lon="-2.21918">
        <ele>49.6</ele>
        <time>2021-05-27T10:01:11Z</time>
      </trkpt>
      <trkpt lat="47.68497" lon="-2.21927">
        <ele>49.4</ele>
        <time>2021-05-27T10:01:12Z</time>
      </trkpt>
      <trkpt lat="47.68498" lon="-2.21936">
        <ele>49.2</ele>
        <time>2021-05-27T10:01:13Z</time>
      </trkpt>
      <trkpt lat="47.685" lon="-2.21945">
        <ele>48.9</ele>
        <time>2021-05-27T10:01:14Z</time>
      </trkpt>
      <trkpt lat="47.68501" lon="-2.21954">
        <ele>48.7</ele>
        <time>2021-05-27T10:01:15Z</time>
      </trkpt>
      <trkpt lat="47.68503" lon="-2.21964">
        <ele>48.4</ele>
        <time>2021-05-27T10:01:16Z</time>
      </trkpt>
      <trkpt lat="47.68505" lon="-2.21973">
        <ele>48.2</ele>
        <time>2021-05-27T10:01:17Z</time>
      </trkpt>
      <trkpt lat="47.68506" lon="-2.21982">
        <ele>48</ele>
        <time>2021-05-27T10:01:18Z</time>
      </trkpt>
      <trkpt lat="47.68508" lon="-2.21991">
        <ele>47.7</ele>
        <time>2021-05-27T10:01:19Z</time>
      </trkpt>
      <trkpt lat="47.6851" lon="-2.22">
        <ele>47.5</ele>
        <time>2021-05-27T10:01:20Z</time>
      </trkpt>
      <trkpt lat="47.68512" lon="-2.22009">
        <ele>47.4</ele>
        <time>2021-05-27T10:01:21Z</time>
      </trkpt>
      <trkpt lat="47.68514" lon="-2.22019">
        <ele>47.3</ele>
        <time>2021-05-27T10:01:22Z</time>
      </trkpt>
      <trkpt lat="47.68516" lon="-2.22028">
        <ele>47.2</ele>
        <time>2021-05-27T10:01:23Z</time>
      </trkpt>
      <trkpt lat="47.68517" lon="-2.22037">
        <ele>47.1</ele>
        <time>2021-05-27T10:01:24Z</time>
      </trkpt>
      <trkpt lat="47.68519" lon="-2.22046">
        <ele>47</ele>
        <time>2021-05-27T10:01:25Z</time>
      </trkpt>
      <trkpt lat="47.6852" lon="-2.22054">
        <ele>47</ele>
        <time>2021-05-27T10:01:26Z</time>
      </trkpt>
      <trkpt lat="47.68522" lon="-2.22063">
        <ele>46.9</ele>
        <time>2021-05-27T10:01:27Z</time>
      </trkpt>
      <trkpt lat="47.68524" lon="-2.22071">
        <ele>46.9</ele>
        <time>2021-05-27T10:01:28Z</time>
      </trkpt>
      <trkpt lat="47.68525" lon="-2.2208">
        <ele>46.9</ele>
        <time>2021-05-27T10:01:29Z</time>
      </trkpt>
      <trkpt lat="47.68527" lon="-2.22089">
        <ele>46.7</ele>
        <time>2021-05-27T10:01:30Z</time>
      </trkpt>
      <trkpt lat="47.68529" lon="-2.22098">
        <ele>46.6</ele>
        <time>2021-05-27T10:01:31Z</time>
      </trkpt>
      <trkpt lat="47.6853" lon="-2.22107">
        <ele>46.4</ele>
        <time>2021-05-27T10:01:32Z</time>
      </trkpt>
      <trkpt lat="47.68532" lon="-2.22115">
        <ele>46.2</ele>
        <time>2021-05-27T10:01:33Z</time>
      </trkpt>
      <trkpt lat="47.68533" lon="-2.22124">
        <ele>46</ele>
        <time>2021-05-27T10:01:34Z</time>
      </trkpt>
      <trkpt lat="47.68535" lon="-2.22133">
        <ele>45.8</ele>
        <time>2021-05-27T10:01:35Z</time>
      </trkpt>
      <trkpt lat="47.68537" lon="-2.22141">
        <ele>45.7</ele>
        <time>2021-05-27T10:01:36Z</time>
      </trkpt>
      <trkpt lat="47.68539" lon="-2.2215">
        <ele>45.5</ele>
        <time>2021-05-27T10:01:37Z</time>
      </trkpt>
      <trkpt lat="47.68542" lon="-2.22159">
        <ele>45.3</ele>
        <time>2021-05-27T10:01:38Z</time>
      </trkpt>
      <trkpt lat="47.68544" lon="-2.22167">
        <ele>45.1</ele>
        <time>2021-05-27T10:01:39Z</time>
      </trkpt>
      <trkpt lat="47.68547" lon="-2.22176">
        <ele>44.9</ele>
        <time>2021-05-27T10:01:40Z</time>
      </trkpt>
      <trkpt lat="47.68549" lon="-2.22185">
        <ele>44.8</ele>
        <time>2021-05-27T10:01:41Z</time>
      </trkpt>
      <trkpt lat="47.68552" lon="-2.22194">
        <ele>44.6</ele>
        <time>2021-05-27T10:01:42Z</time>
      </trkpt>
      <trkpt lat="47.68555" lon="-2.22203">
        <ele>44.5</ele>
        <time>2021-05-27T10:01:43Z</time>
      </trkpt>
      <trkpt lat="47.68558" lon="-2.22212">
        <ele>44.3</ele>
        <time>2021-05-27T10:01:44Z</time>
      </trkpt>
      <trkpt lat="47.68561" lon="-2.22221">
        <ele>44.1</ele>
        <time>2021-05-27T10:01:45Z</time>
      </trkpt>
      <trkpt lat="47.68564" lon="-2.2223">
        <ele>44</ele>
        <time>2021-05-27T10:01:46Z</time>
      </trkpt>
      <trkpt lat="47.68567" lon="-2.22239">
        <ele>43.8</ele>
        <time>2021-05-27T10:01:47Z</time>
      </trkpt>
      <trkpt lat="47.68571" lon="-2.22246">
        <ele>43.7</ele>
        <time>2021-05-27T10:01:48Z</time>
      </trkpt>
      <trkpt lat="47.68577" lon="-2.2225">
        <ele>43.8</ele>
        <time>2021-05-27T10:01:49Z</time>
      </trkpt>
      <trkpt lat="47.68583" lon="-2.2225">
        <ele>44</ele>
        <time>2021-05-27T10:01:50Z</time>
      </trkpt>
      <trkpt lat="47.68588" lon="-2.22249">
        <ele>44.3</ele>
        <time>2021-05-27T10:01:51Z</time>
      </trkpt>
      <trkpt lat="47.68592" lon="-2.22245">
        <ele>44.7</ele>
        <time>2021-05-27T10:01:52Z</time>
      </trkpt>
      <trkpt lat="47.68596" lon="-2.22241">
        <ele>45.1</ele>
        <time>2021-05-27T10:01:53Z</time>
      </trkpt>
      <trkpt lat="47.686" lon="-2.22239">
        <ele>45.4</ele>
        <time>2021-05-27T10:01:54Z</time>
      </trkpt>
      <trkpt lat="47.68604" lon="-2.22236">
        <ele>45.7</ele>
        <time>2021-05-27T10:01:55Z</time>
      </trkpt>
      <trkpt lat="47.68607" lon="-2.22233">
        <ele>46.1</ele>
        <time>2021-05-27T10:01:56Z</time>
      </trkpt>
      <trkpt lat="47.68611" lon="-2.22229">
        <ele>46.4</ele>
        <time>2021-05-27T10:01:57Z</time>
      </trkpt>
      <trkpt lat="47.68614" lon="-2.22226">
        <ele>46.7</ele>
        <time>2021-05-27T10:01:58Z</time>
      </trkpt>
      <trkpt lat="47.68618" lon="-2.22223">
        <ele>47</ele>
        <time>2021-05-27T10:01:59Z</time>
      </trkpt>
      <trkpt lat="47.68621" lon="-2.2222">
        <ele>47.4</ele>
        <time>2021-05-27T10:02:00Z</time>
      </trkpt>
      <trkpt lat="47.68624" lon="-2.22216">
        <ele>47.7</ele>
        <time>2021-05-27T10:02:01Z</time>
      </trkpt>
      <trkpt lat="47.68628" lon="-2.22213">
        <ele>48</ele>
        <time>2021-05-27T10:02:02Z</time>
      </trkpt>
      <trkpt lat="47.68631" lon="-2.22209">
        <ele>48.4</ele>
        <time>2021-05-27T10:02:03Z</time>
      </trkpt>
      <trkpt lat="47.68635" lon="-2.22205">
        <ele>48.7</ele>
        <time>2021-05-27T10:02:04Z</time>
      </trkpt>
      <trkpt lat="47.68638" lon="-2.22201">
        <ele>49</ele>
        <time>2021-05-27T10:02:05Z</time>
      </trkpt>
      <trkpt lat="47.68641" lon="-2.22198">
        <ele>49.4</ele>
        <time>2021-05-27T10:02:06Z</time>
      </trkpt>
      <trkpt lat="47.68646" lon="-2.22194">
        <ele>49.8</ele>
        <time>2021-05-27T10:02:07Z</time>
      </trkpt>
      <trkpt lat="47.6865" lon="-2.22192">
        <ele>50.1</ele>
        <time>2021-05-27T10:02:08Z</time>
      </trkpt>
      <trkpt lat="47.68654" lon="-2.22189">
        <ele>50.5</ele>
        <time>2021-05-27T10:02:09Z</time>
      </trkpt>
      <trkpt lat="47.68658" lon="-2.22186">
        <ele>50.8</ele>
        <time>2021-05-27T10:02:10Z</time>
      </trkpt>
      <trkpt lat="47.68663" lon="-2.22184">
        <ele>51.1</ele>
        <time>2021-05-27T10:02:11Z</time>
      </trkpt>
      <trkpt lat="47.68667" lon="-2.22181">
        <ele>51.5</ele>
        <time>2021-05-27T10:02:12Z</time>
      </trkpt>
      <trkpt lat="47.68671" lon="-2.22179">
        <ele>51.7</ele>
        <time>2021-05-27T10:02:13Z</time>
      </trkpt>
      <trkpt lat="47.68675" lon="-2.22177">
        <ele>51.9</ele>
        <time>2021-05-27T10:02:14Z</time>
      </trkpt>
      <trkpt lat="47.68679" lon="-2.22176">
        <ele>52.1</ele>
        <time>2021-05-27T10:02:15Z</time>
      </trkpt>
      <trkpt lat="47.68683" lon="-2.22174">
        <ele>52.3</ele>
        <time>2021-05-27T10:02:16Z</time>
      </trkpt>
      <trkpt lat="47.68688" lon="-2.22173">
        <ele>52.5</ele>
        <time>2021-05-27T10:02:17Z</time>
      </trkpt>
      <trkpt lat="47.68692" lon="-2.22171">
        <ele>52.8</ele>
        <time>2021-05-27T10:02:18Z</time>
      </trkpt>
      <trkpt lat="47.68697" lon="-2.22169">
        <ele>53</ele>
        <time>2021-05-27T10:02:19Z</time>
      </trkpt>
      <trkpt lat="47.68701" lon="-2.22167">
        <ele>53.2</ele>
        <time>2021-05-27T10:02:20Z</time>
      </trkpt>
      <trkpt lat="47.68706" lon="-2.22164">
        <ele>53.4</ele>
        <time>2021-05-27T10:02:21Z</time>
      </trkpt>
      <trkpt lat="47.68711" lon="-2.22161">
        <ele>53.6</ele>
        <time>2021-05-27T10:02:22Z</time>
      </trkpt>
      <trkpt lat="47.68715" lon="-2.22159">
        <ele>53.7</ele>
        <time>2021-05-27T10:02:23Z</time>
      </trkpt>
      <trkpt lat="47.6872" lon="-2.22157">
        <ele>53.9</ele>
        <time>2021-05-27T10:02:24Z</time>
      </trkpt>
      <trkpt lat="47.68724" lon="-2.22156">
        <ele>54.1</ele>
        <time>2021-05-27T10:02:25Z</time>
      </trkpt>
      <trkpt lat="47.68728" lon="-2.22154">
        <ele>54.2</ele>
        <time>2021-05-27T10:02:26Z</time>
      </trkpt>
      <trkpt lat="47.68733" lon="-2.22152">
        <ele>54.4</ele>
        <time>2021-05-27T10:02:27Z</time>
      </trkpt>
      <trkpt lat="47.68737" lon="-2.22151">
        <ele>54.5</ele>
        <time>2021-05-27T10:02:28Z</time>
      </trkpt>
      <trkpt lat="47.68742" lon="-2.22149">
        <ele>54.7</ele>
        <time>2021-05-27T10:02:29Z</time>
      </trkpt>
      <trkpt lat="47.68747" lon="-2.22147">
        <ele>54.9</ele>
        <time>2021-05-27T10:02:30Z</time>
      </trkpt>
      <trkpt lat="47.68752" lon="-2.22146">
        <ele>55</ele>
        <time>2021-05-27T10:02:31Z</time>
      </trkpt>
      <trkpt lat="47.68756" lon="-2.22146">
        <ele>55</ele>
        <time>2021-05-27T10:02:32Z</time>
      </trkpt>
      <trkpt lat="47.68762" lon="-2.22144">
        <ele>55</ele>
        <time>2021-05-27T10:02:33Z</time>
      </trkpt>
      <trkpt lat="47.68766" lon="-2.22145">
        <ele>55.1</ele>
        <time>2021-05-27T10:02:34Z</time>
      </trkpt>
      <trkpt lat="47.68772" lon="-2.22144">
        <ele>55.1</ele>
        <time>2021-05-27T10:02:35Z</time>
      </trkpt>
      <trkpt lat="47.68777" lon="-2.22145">
        <ele>55.1</ele>
        <time>2021-05-27T10:02:36Z</time>
      </trkpt>
      <trkpt lat="47.68782" lon="-2.22146">
        <ele>55.1</ele>
        <time>2021-05-27T10:02:37Z</time>
      </trkpt>
      <trkpt lat="47.68788" lon="-2.22148">
        <ele>55.1</ele>
        <time>2021-05-27T10:02:38Z</time>
      </trkpt>
      <trkpt lat="47.68792" lon="-2.2215">
        <ele>55.1</ele>
        <time>2021-05-27T10:02:39Z</time>
      </trkpt>
      <trkpt lat="47.68797" lon="-2.22153">
        <ele>55.1</ele>
        <time>2021-05-27T10:02:40Z</time>
      </trkpt>
      <trkpt lat="47.68802" lon="-2.22155">
        <ele>55.1</ele>
        <time>2021-05-27T10:02:41Z</time>
      </trkpt>
      <trkpt lat="47.68807" lon="-2.22157">
        <ele>55.1</ele>
        <time>2021-05-27T10:02:42Z</time>
      </trkpt>
      <trkpt lat="47.68812" lon="-2.22158">
        <ele>55.1</ele>
        <time>2021-05-27T10:02:43Z</time>
      </trkpt>
      <trkpt lat="47.68817" lon="-2.2216">
        <ele>55.1</ele>
        <time>2021-05-27T10:02:44Z</time>
      </trkpt>
      <trkpt lat="47.68822" lon="-2.22161">
        <ele>55.1</ele>
        <time>2021-05-27T10:02:45Z</time>
      </trkpt>
      <trkpt lat="47.68827" lon="-2.22163">
        <ele>55</ele>
        <time>2021-05-27T10:02:46Z</time>
      </trkpt>
      <trkpt lat="47.68832" lon="-2.22164">
        <ele>55</ele>
        <time>2021-05-27T10:02:47Z</time>
      </trkpt>
      <trkpt lat="47.68837" lon="-2.22165">
        <ele>55</ele>
        <time>2021-05-27T10:02:48Z</time>
      </trkpt>
      <trkpt lat="47.68843" lon="-2.22165">
        <ele>55</ele>
        <time>2021-05-27T10:02:49Z</time>
      </trkpt>
      <trkpt lat="47.68848" lon="-2.22166">
        <ele>55</ele>
        <time>2021-05-27T10:02:50Z</time>
      </trkpt>
      <trkpt lat="47.68854" lon="-2.22167">
        <ele>55</ele>
        <time>2021-05-27T10:02:51Z</time>
      </trkpt>
      <trkpt lat="47.6886" lon="-2.22168">
        <ele>55</ele>
        <time>2021-05-27T10:02:52Z</time>
      </trkpt>
      <trkpt lat="47.68865" lon="-2.22169">
        <ele>55</ele>
        <time>2021-05-27T10:02:53Z</time>
      </trkpt>
      <trkpt lat="47.6887" lon="-2.2217">
        <ele>55</ele>
        <time>2021-05-27T10:02:54Z</time>
      </trkpt>
      <trkpt lat="47.68876" lon="-2.2217">
        <ele>55</ele>
        <time>2021-05-27T10:02:55Z</time>
      </trkpt>
      <trkpt lat="47.68881" lon="-2.22171">
        <ele>55</ele>
        <time>2021-05-27T10:02:56Z</time>
      </trkpt>
      <trkpt lat="47.68886" lon="-2.22173">
        <ele>55.1</ele>
        <time>2021-05-27T10:02:57Z</time>
      </trkpt>
      <trkpt lat="47.68892" lon="-2.22173">
        <ele>55</ele>
        <time>2021-05-27T10:02:58Z</time>
      </trkpt>
      <trkpt lat="47.68897" lon="-2.22174">
        <ele>55</ele>
        <time>2021-05-27T10:02:59Z</time>
      </trkpt>
      <trkpt lat="47.68903" lon="-2.22176">
        <ele>55</ele>
        <time>2021-05-27T10:03:00Z</time>
      </trkpt>
      <trkpt lat="47.68908" lon="-2.22176">
        <ele>55</ele>
        <time>2021-05-27T10:03:01Z</time>
      </trkpt>
      <trkpt lat="47.68914" lon="-2.22177">
        <ele>55</ele>
        <time>2021-05-27T10:03:02Z</time>
      </trkpt>
      <trkpt lat="47.68919" lon="-2.22179">
        <ele>55</ele>
        <time>2021-05-27T10:03:03Z</time>
      </trkpt>
      <trkpt lat="47.68925" lon="-2.2218">
        <ele>54.9</ele>
        <time>2021-05-27T10:03:04Z</time>
      </trkpt>
      <trkpt lat="47.68931" lon="-2.22181">
        <ele>54.9</ele>
        <time>2021-05-27T10:03:05Z</time>
      </trkpt>
      <trkpt lat="47.68937" lon="-2.22182">
        <ele>54.8</ele>
        <time>2021-05-27T10:03:06Z</time>
      </trkpt>
      <trkpt lat="47.68942" lon="-2.22184">
        <ele>54.8</ele>
        <time>2021-05-27T10:03:07Z</time>
      </trkpt>
      <trkpt lat="47.68948" lon="-2.22186">
        <ele>54.7</ele>
        <time>2021-05-27T10:03:08Z</time>
      </trkpt>
      <trkpt lat="47.68954" lon="-2.22188">
        <ele>54.7</ele>
        <time>2021-05-27T10:03:09Z</time>
      </trkpt>
      <trkpt lat="47.6896" lon="-2.2219">
        <ele>54.6</ele>
        <time>2021-05-27T10:03:10Z</time>
      </trkpt>
      <trkpt lat="47.68965" lon="-2.22191">
        <ele>54.6</ele>
        <time>2021-05-27T10:03:11Z</time>
      </trkpt>
      <trkpt lat="47.68971" lon="-2.22193">
        <ele>54.6</ele>
        <time>2021-05-27T10:03:12Z</time>
      </trkpt>
      <trkpt lat="47.68976" lon="-2.22193">
        <ele>54.5</ele>
        <time>2021-05-27T10:03:13Z</time>
      </trkpt>
      <trkpt lat="47.68982" lon="-2.22193">
        <ele>54.5</ele>
        <time>2021-05-27T10:03:14Z</time>
      </trkpt>
      <trkpt lat="47.68987" lon="-2.22192">
        <ele>54.4</ele>
        <time>2021-05-27T10:03:15Z</time>
      </trkpt>
      <trkpt lat="47.68992" lon="-2.22192">
        <ele>54.4</ele>
        <time>2021-05-27T10:03:16Z</time>
      </trkpt>
      <trkpt lat="47.68997" lon="-2.22191">
        <ele>54.3</ele>
        <time>2021-05-27T10:03:17Z</time>
      </trkpt>
      <trkpt lat="47.69002" lon="-2.22191">
        <ele>54.4</ele>
        <time>2021-05-27T10:03:18Z</time>
      </trkpt>
      <trkpt lat="47.69006" lon="-2.22195">
        <ele>54.5</ele>
        <time>2021-05-27T10:03:19Z</time>
      </trkpt>
      <trkpt lat="47.69008" lon="-2.22201">
        <ele>54.6</ele>
        <time>2021-05-27T10:03:20Z</time>
      </trkpt>
      <trkpt lat="47.6901" lon="-2.22207">
        <ele>54.7</ele>
        <time>2021-05-27T10:03:21Z</time>
      </trkpt>
      <trkpt lat="47.69011" lon="-2.22214">
        <ele>54.8</ele>
        <time>2021-05-27T10:03:22Z</time>
      </trkpt>
      <trkpt lat="47.69012" lon="-2.22222">
        <ele>54.9</ele>
        <time>2021-05-27T10:03:23Z</time>
      </trkpt>
      <trkpt lat="47.69014" lon="-2.22229">
        <ele>55</ele>
        <time>2021-05-27T10:03:24Z</time>
      </trkpt>
      <trkpt lat="47.69015" lon="-2.22236">
        <ele>55.1</ele>
        <time>2021-05-27T10:03:25Z</time>
      </trkpt>
      <trkpt lat="47.69017" lon="-2.22244">
        <ele>55.2</ele>
        <time>2021-05-27T10:03:26Z</time>
      </trkpt>
      <trkpt lat="47.69018" lon="-2.22252">
        <ele>55.2</ele>
        <time>2021-05-27T10:03:27Z</time>
      </trkpt>
      <trkpt lat="47.6902" lon="-2.2226">
        <ele>55.4</ele>
        <time>2021-05-27T10:03:28Z</time>
      </trkpt>
      <trkpt lat="47.69022" lon="-2.22267">
        <ele>55.5</ele>
        <time>2021-05-27T10:03:29Z</time>
      </trkpt>
      <trkpt lat="47.69024" lon="-2.22275">
        <ele>55.7</ele>
        <time>2021-05-27T10:03:30Z</time>
      </trkpt>
      <trkpt lat="47.69025" lon="-2.22283">
        <ele>55.8</ele>
        <time>2021-05-27T10:03:31Z</time>
      </trkpt>
      <trkpt lat="47.69027" lon="-2.22291">
        <ele>56</ele>
        <time>2021-05-27T10:03:32Z</time>
      </trkpt>
      <trkpt lat="47.69029" lon="-2.22299">
        <ele>56.1</ele>
        <time>2021-05-27T10:03:33Z</time>
      </trkpt>
      <trkpt lat="47.69031" lon="-2.22307">
        <ele>56.3</ele>
        <time>2021-05-27T10:03:34Z</time>
      </trkpt>
      <trkpt lat="47.69032" lon="-2.22315">
        <ele>56.5</ele>
        <time>2021-05-27T10:03:35Z</time>
      </trkpt>
      <trkpt lat="47.69034" lon="-2.22324">
        <ele>56.7</ele>
        <time>2021-05-27T10:03:36Z</time>
      </trkpt>
      <trkpt lat="47.69037" lon="-2.22332">
        <ele>56.9</ele>
        <time>2021-05-27T10:03:37Z</time>
      </trkpt>
      <trkpt lat="47.69038" lon="-2.22341">
        <ele>56.8</ele>
        <time>2021-05-27T10:03:38Z</time>
      </trkpt>
      <trkpt lat="47.6904" lon="-2.22349">
        <ele>56.8</ele>
        <time>2021-05-27T10:03:39Z</time>
      </trkpt>
      <trkpt lat="47.69042" lon="-2.22357">
        <ele>56.7</ele>
        <time>2021-05-27T10:03:40Z</time>
      </trkpt>
      <trkpt lat="47.69044" lon="-2.22365">
        <ele>56.7</ele>
        <time>2021-05-27T10:03:41Z</time>
      </trkpt>
      <trkpt lat="47.69045" lon="-2.22373">
        <ele>56.6</ele>
        <time>2021-05-27T10:03:42Z</time>
      </trkpt>
      <trkpt lat="47.69047" lon="-2.22381">
        <ele>56.6</ele>
        <time>2021-05-27T10:03:43Z</time>
      </trkpt>
      <trkpt lat="47.6905" lon="-2.2239">
        <ele>56.5</ele>
        <time>2021-05-27T10:03:44Z</time>
      </trkpt>
      <trkpt lat="47.69051" lon="-2.22398">
        <ele>56.5</ele>
        <time>2021-05-27T10:03:45Z</time>
      </trkpt>
      <trkpt lat="47.69053" lon="-2.22407">
        <ele>56.4</ele>
        <time>2021-05-27T10:03:46Z</time>
      </trkpt>
      <trkpt lat="47.69054" lon="-2.22415">
        <ele>56.3</ele>
        <time>2021-05-27T10:03:47Z</time>
      </trkpt>
      <trkpt lat="47.69055" lon="-2.22423">
        <ele>56.5</ele>
        <time>2021-05-27T10:03:48Z</time>
      </trkpt>
      <trkpt lat="47.69057" lon="-2.22431">
        <ele>56.7</ele>
        <time>2021-05-27T10:03:49Z</time>
      </trkpt>
      <trkpt lat="47.69059" lon="-2.22439">
        <ele>57</ele>
        <time>2021-05-27T10:03:50Z</time>
      </trkpt>
      <trkpt lat="47.69061" lon="-2.22447">
        <ele>57.2</ele>
        <time>2021-05-27T10:03:51Z</time>
      </trkpt>
      <trkpt lat="47.69063" lon="-2.22456">
        <ele>57.5</ele>
        <time>2021-05-27T10:03:52Z</time>
      </trkpt>
      <trkpt lat="47.69065" lon="-2.22463">
        <ele>57.7</ele>
        <time>2021-05-27T10:03:53Z</time>
      </trkpt>
      <trkpt lat="47.69067" lon="-2.22472">
        <ele>57.9</ele>
        <time>2021-05-27T10:03:54Z</time>
      </trkpt>
      <trkpt lat="47.69069" lon="-2.22481">
        <ele>58.2</ele>
        <time>2021-05-27T10:03:55Z</time>
      </trkpt>
      <trkpt lat="47.69071" lon="-2.22489">
        <ele>58.5</ele>
        <time>2021-05-27T10:03:56Z</time>
      </trkpt>
      <trkpt lat="47.69073" lon="-2.22498">
        <ele>58.7</ele>
        <time>2021-05-27T10:03:57Z</time>
      </trkpt>
      <trkpt lat="47.69074" lon="-2.22506">
        <ele>58.9</ele>
        <time>2021-05-27T10:03:58Z</time>
      </trkpt>
      <trkpt lat="47.69076" lon="-2.22514">
        <ele>59</ele>
        <time>2021-05-27T10:03:59Z</time>
      </trkpt>
      <trkpt lat="47.69077" lon="-2.22522">
        <ele>59.1</ele>
        <time>2021-05-27T10:04:00Z</time>
      </trkpt>
      <trkpt lat="47.6908" lon="-2.2253">
        <ele>59.3</ele>
        <time>2021-05-27T10:04:01Z</time>
      </trkpt>
      <trkpt lat="47.69081" lon="-2.22538">
        <ele>59.4</ele>
        <time>2021-05-27T10:04:02Z</time>
      </trkpt>
      <trkpt lat="47.69083" lon="-2.22547">
        <ele>59.6</ele>
        <time>2021-05-27T10:04:03Z</time>
      </trkpt>
      <trkpt lat="47.69086" lon="-2.22555">
        <ele>59.7</ele>
        <time>2021-05-27T10:04:04Z</time>
      </trkpt>
      <trkpt lat="47.69087" lon="-2.22564">
        <ele>59.8</ele>
        <time>2021-05-27T10:04:05Z</time>
      </trkpt>
      <trkpt lat="47.69089" lon="-2.22573">
        <ele>59.8</ele>
        <time>2021-05-27T10:04:06Z</time>
      </trkpt>
      <trkpt lat="47.69091" lon="-2.22581">
        <ele>59.9</ele>
        <time>2021-05-27T10:04:07Z</time>
      </trkpt>
      <trkpt lat="47.69093" lon="-2.2259">
        <ele>59.7</ele>
        <time>2021-05-27T10:04:08Z</time>
      </trkpt>
      <trkpt lat="47.69094" lon="-2.22599">
        <ele>59.5</ele>
        <time>2021-05-27T10:04:09Z</time>
      </trkpt>
      <trkpt lat="47.69096" lon="-2.22608">
        <ele>59.3</ele>
        <time>2021-05-27T10:04:10Z</time>
      </trkpt>
      <trkpt lat="47.69097" lon="-2.22616">
        <ele>59</ele>
        <time>2021-05-27T10:04:11Z</time>
      </trkpt>
      <trkpt lat="47.69099" lon="-2.22625">
        <ele>58.8</ele>
        <time>2021-05-27T10:04:12Z</time>
      </trkpt>
      <trkpt lat="47.69101" lon="-2.22633">
        <ele>58.6</ele>
        <time>2021-05-27T10:04:13Z</time>
      </trkpt>
      <trkpt lat="47.69103" lon="-2.22642">
        <ele>58.3</ele>
        <time>2021-05-27T10:04:14Z</time>
      </trkpt>
      <trkpt lat="47.69105" lon="-2.22651">
        <ele>58.1</ele>
        <time>2021-05-27T10:04:15Z</time>
      </trkpt>
      <trkpt lat="47.69106" lon="-2.2266">
        <ele>57.9</ele>
        <time>2021-05-27T10:04:16Z</time>
      </trkpt>
      <trkpt lat="47.69108" lon="-2.22669">
        <ele>57.7</ele>
        <time>2021-05-27T10:04:17Z</time>
      </trkpt>
      <trkpt lat="47.6911" lon="-2.22679">
        <ele>57.7</ele>
        <time>2021-05-27T10:04:18Z</time>
      </trkpt>
      <trkpt lat="47.69111" lon="-2.22688">
        <ele>57.8</ele>
        <time>2021-05-27T10:04:19Z</time>
      </trkpt>
      <trkpt lat="47.69112" lon="-2.22698">
        <ele>57.8</ele>
        <time>2021-05-27T10:04:20Z</time>
      </trkpt>
      <trkpt lat="47.69114" lon="-2.22707">
        <ele>57.8</ele>
        <time>2021-05-27T10:04:21Z</time>
      </trkpt>
      <trkpt lat="47.69115" lon="-2.22716">
        <ele>57.8</ele>
        <time>2021-05-27T10:04:22Z</time>
      </trkpt>
      <trkpt lat="47.69116" lon="-2.22726">
        <ele>57.9</ele>
        <time>2021-05-27T10:04:23Z</time>
      </trkpt>
      <trkpt lat="47.69117" lon="-2.22735">
        <ele>57.9</ele>
        <time>2021-05-27T10:04:24Z</time>
      </trkpt>
      <trkpt lat="47.69118" lon="-2.22744">
        <ele>58</ele>
        <time>2021-05-27T10:04:25Z</time>
      </trkpt>
      <trkpt lat="47.69119" lon="-2.22752">
        <ele>58</ele>
        <time>2021-05-27T10:04:26Z</time>
      </trkpt>
      <trkpt lat="47.69119" lon="-2.22762">
        <ele>57.8</ele>
        <time>2021-05-27T10:04:27Z</time>
      </trkpt>
      <trkpt lat="47.6912" lon="-2.22771">
        <ele>57.6</ele>
        <time>2021-05-27T10:04:28Z</time>
      </trkpt>
      <trkpt lat="47.69121" lon="-2.2278">
        <ele>57.5</ele>
        <time>2021-05-27T10:04:29Z</time>
      </trkpt>
      <trkpt lat="47.69122" lon="-2.2279">
        <ele>57.3</ele>
        <time>2021-05-27T10:04:30Z</time>
      </trkpt>
      <trkpt lat="47.69123" lon="-2.228">
        <ele>57.1</ele>
        <time>2021-05-27T10:04:31Z</time>
      </trkpt>
      <trkpt lat="47.69123" lon="-2.2281">
        <ele>56.9</ele>
        <time>2021-05-27T10:04:32Z</time>
      </trkpt>
      <trkpt lat="47.69124" lon="-2.22819">
        <ele>56.8</ele>
        <time>2021-05-27T10:04:33Z</time>
      </trkpt>
      <trkpt lat="47.69126" lon="-2.22829">
        <ele>56.6</ele>
        <time>2021-05-27T10:04:34Z</time>
      </trkpt>
      <trkpt lat="47.69126" lon="-2.22839">
        <ele>56.4</ele>
        <time>2021-05-27T10:04:35Z</time>
      </trkpt>
      <trkpt lat="47.69126" lon="-2.22849">
        <ele>56.3</ele>
        <time>2021-05-27T10:04:36Z</time>
      </trkpt>
      <trkpt lat="47.69127" lon="-2.22859">
        <ele>56.2</ele>
        <time>2021-05-27T10:04:37Z</time>
      </trkpt>
      <trkpt lat="47.69129" lon="-2.2287">
        <ele>56.1</ele>
        <time>2021-05-27T10:04:38Z</time>
      </trkpt>
      <trkpt lat="47.6913" lon="-2.2288">
        <ele>55.9</ele>
        <time>2021-05-27T10:04:39Z</time>
      </trkpt>
      <trkpt lat="47.69131" lon="-2.2289">
        <ele>55.8</ele>
        <time>2021-05-27T10:04:40Z</time>
      </trkpt>
      <trkpt lat="47.69132" lon="-2.229">
        <ele>55.8</ele>
        <time>2021-05-27T10:04:41Z</time>
      </trkpt>
      <trkpt lat="47.69134" lon="-2.2291">
        <ele>55.7</ele>
        <time>2021-05-27T10:04:42Z</time>
      </trkpt>
      <trkpt lat="47.69135" lon="-2.2292">
        <ele>55.6</ele>
        <time>2021-05-27T10:04:43Z</time>
      </trkpt>
      <trkpt lat="47.69136" lon="-2.2293">
        <ele>55.6</ele>
        <time>2021-05-27T10:04:44Z</time>
      </trkpt>
      <trkpt lat="47.69137" lon="-2.22939">
        <ele>55.6</ele>
        <time>2021-05-27T10:04:45Z</time>
      </trkpt>
      <trkpt lat="47.69139" lon="-2.22949">
        <ele>55.7</ele>
        <time>2021-05-27T10:04:46Z</time>
      </trkpt>
      <trkpt lat="47.6914" lon="-2.22959">
        <ele>55.7</ele>
        <time>2021-05-27T10:04:47Z</time>
      </trkpt>
      <trkpt lat="47.69142" lon="-2.22969">
        <ele>55.7</ele>
        <time>2021-05-27T10:04:48Z</time>
      </trkpt>
      <trkpt lat="47.69143" lon="-2.2298">
        <ele>55.7</ele>
        <time>2021-05-27T10:04:49Z</time>
      </trkpt>
      <trkpt lat="47.69144" lon="-2.2299">
        <ele>55.7</ele>
        <time>2021-05-27T10:04:50Z</time>
      </trkpt>
      <trkpt lat="47.69145" lon="-2.23001">
        <ele>55.7</ele>
        <time>2021-05-27T10:04:51Z</time>
      </trkpt>
      <trkpt lat="47.69146" lon="-2.23011">
        <ele>55.6</ele>
        <time>2021-05-27T10:04:52Z</time>
      </trkpt>
      <trkpt lat="47.69147" lon="-2.23022">
        <ele>55.5</ele>
        <time>2021-05-27T10:04:53Z</time>
      </trkpt>
      <trkpt lat="47.69149" lon="-2.23033">
        <ele>55.4</ele>
        <time>2021-05-27T10:04:54Z</time>
      </trkpt>
      <trkpt lat="47.69149" lon="-2.23043">
        <ele>55.3</ele>
        <time>2021-05-27T10:04:55Z</time>
      </trkpt>
      <trkpt lat="47.6915" lon="-2.23054">
        <ele>55.2</ele>
        <time>2021-05-27T10:04:56Z</time>
      </trkpt>
      <trkpt lat="47.69151" lon="-2.23065">
        <ele>55</ele>
        <time>2021-05-27T10:04:57Z</time>
      </trkpt>
      <trkpt lat="47.69151" lon="-2.23075">
        <ele>54.9</ele>
        <time>2021-05-27T10:04:58Z</time>
      </trkpt>
      <trkpt lat="47.69152" lon="-2.23086">
        <ele>54.8</ele>
        <time>2021-05-27T10:04:59Z</time>
      </trkpt>
      <trkpt lat="47.69153" lon="-2.23096">
        <ele>54.9</ele>
        <time>2021-05-27T10:05:00Z</time>
      </trkpt>
      <trkpt lat="47.69153" lon="-2.23107">
        <ele>54.9</ele>
        <time>2021-05-27T10:05:01Z</time>
      </trkpt>
      <trkpt lat="47.69154" lon="-2.23117">
        <ele>54.9</ele>
        <time>2021-05-27T10:05:02Z</time>
      </trkpt>
      <trkpt lat="47.69155" lon="-2.23127">
        <ele>54.9</ele>
        <time>2021-05-27T10:05:03Z</time>
      </trkpt>
      <trkpt lat="47.69156" lon="-2.23136">
        <ele>55</ele>
        <time>2021-05-27T10:05:04Z</time>
      </trkpt>
      <trkpt lat="47.69157" lon="-2.23146">
        <ele>55</ele>
        <time>2021-05-27T10:05:05Z</time>
      </trkpt>
      <trkpt lat="47.69159" lon="-2.23155">
        <ele>55</ele>
        <time>2021-05-27T10:05:06Z</time>
      </trkpt>
      <trkpt lat="47.69159" lon="-2.23165">
        <ele>55</ele>
        <time>2021-05-27T10:05:07Z</time>
      </trkpt>
      <trkpt lat="47.6916" lon="-2.23175">
        <ele>55.1</ele>
        <time>2021-05-27T10:05:08Z</time>
      </trkpt>
      <trkpt lat="47.69162" lon="-2.23184">
        <ele>55.2</ele>
        <time>2021-05-27T10:05:09Z</time>
      </trkpt>
      <trkpt lat="47.69163" lon="-2.23194">
        <ele>55.3</ele>
        <time>2021-05-27T10:05:10Z</time>
      </trkpt>
      <trkpt lat="47.69164" lon="-2.23204">
        <ele>55.5</ele>
        <time>2021-05-27T10:05:11Z</time>
      </trkpt>
      <trkpt lat="47.69166" lon="-2.23214">
        <ele>55.6</ele>
        <time>2021-05-27T10:05:12Z</time>
      </trkpt>
      <trkpt lat="47.69167" lon="-2.23224">
        <ele>55.7</ele>
        <time>2021-05-27T10:05:13Z</time>
      </trkpt>
      <trkpt lat="47.69168" lon="-2.23234">
        <ele>55.9</ele>
        <time>2021-05-27T10:05:14Z</time>
      </trkpt>
      <trkpt lat="47.69169" lon="-2.23243">
        <ele>56</ele>
        <time>2021-05-27T10:05:15Z</time>
      </trkpt>
      <trkpt lat="47.69169" lon="-2.23252">
        <ele>56.2</ele>
        <time>2021-05-27T10:05:16Z</time>
      </trkpt>
      <trkpt lat="47.6917" lon="-2.23261">
        <ele>56.3</ele>
        <time>2021-05-27T10:05:17Z</time>
      </trkpt>
      <trkpt lat="47.69171" lon="-2.2327">
        <ele>56.5</ele>
        <time>2021-05-27T10:05:18Z</time>
      </trkpt>
      <trkpt lat="47.69172" lon="-2.23279">
        <ele>56.6</ele>
        <time>2021-05-27T10:05:19Z</time>
      </trkpt>
      <trkpt lat="47.69173" lon="-2.23287">
        <ele>56.8</ele>
        <time>2021-05-27T10:05:20Z</time>
      </trkpt>
      <trkpt lat="47.69175" lon="-2.23294">
        <ele>56.9</ele>
        <time>2021-05-27T10:05:21Z</time>
      </trkpt>
      <trkpt lat="47.69179" lon="-2.23299">
        <ele>57.2</ele>
        <time>2021-05-27T10:05:22Z</time>
      </trkpt>
      <trkpt lat="47.69185" lon="-2.23301">
        <ele>57.4</ele>
        <time>2021-05-27T10:05:23Z</time>
      </trkpt>
      <trkpt lat="47.6919" lon="-2.23302">
        <ele>57.7</ele>
        <time>2021-05-27T10:05:24Z</time>
      </trkpt>
      <trkpt lat="47.69195" lon="-2.23302">
        <ele>57.9</ele>
        <time>2021-05-27T10:05:25Z</time>
      </trkpt>
      <trkpt lat="47.692" lon="-2.23302">
        <ele>58.1</ele>
        <time>2021-05-27T10:05:26Z</time>
      </trkpt>
      <trkpt lat="47.69205" lon="-2.23302">
        <ele>58.4</ele>
        <time>2021-05-27T10:05:27Z</time>
      </trkpt>
      <trkpt lat="47.6921" lon="-2.23302">
        <ele>58.6</ele>
        <time>2021-05-27T10:05:28Z</time>
      </trkpt>
      <trkpt lat="47.69215" lon="-2.23302">
        <ele>58.8</ele>
        <time>2021-05-27T10:05:29Z</time>
      </trkpt>
      <trkpt lat="47.69221" lon="-2.23302">
        <ele>59</ele>
        <time>2021-05-27T10:05:30Z</time>
      </trkpt>
      <trkpt lat="47.69225" lon="-2.23302">
        <ele>59.3</ele>
        <time>2021-05-27T10:05:31Z</time>
      </trkpt>
      <trkpt lat="47.69231" lon="-2.23301">
        <ele>59.5</ele>
        <time>2021-05-27T10:05:32Z</time>
      </trkpt>
      <trkpt lat="47.69235" lon="-2.23301">
        <ele>59.7</ele>
        <time>2021-05-27T10:05:33Z</time>
      </trkpt>
      <trkpt lat="47.6924" lon="-2.23301">
        <ele>60</ele>
        <time>2021-05-27T10:05:34Z</time>
      </trkpt>
      <trkpt lat="47.69245" lon="-2.23301">
        <ele>60.2</ele>
        <time>2021-05-27T10:05:35Z</time>
      </trkpt>
      <trkpt lat="47.6925" lon="-2.233">
        <ele>60.4</ele>
        <time>2021-05-27T10:05:36Z</time>
      </trkpt>
      <trkpt lat="47.69255" lon="-2.233">
        <ele>60.7</ele>
        <time>2021-05-27T10:05:37Z</time>
      </trkpt>
      <trkpt lat="47.69259" lon="-2.233">
        <ele>61.1</ele>
        <time>2021-05-27T10:05:38Z</time>
      </trkpt>
      <trkpt lat="47.69264" lon="-2.233">
        <ele>61.4</ele>
        <time>2021-05-27T10:05:39Z</time>
      </trkpt>
      <trkpt lat="47.69268" lon="-2.233">
        <ele>61.7</ele>
        <time>2021-05-27T10:05:40Z</time>
      </trkpt>
      <trkpt lat="47.69273" lon="-2.233">
        <ele>62.1</ele>
        <time>2021-05-27T10:05:41Z</time>
      </trkpt>
      <trkpt lat="47.69278" lon="-2.233">
        <ele>62.4</ele>
        <time>2021-05-27T10:05:42Z</time>
      </trkpt>
      <trkpt lat="47.69283" lon="-2.23299">
        <ele>62.8</ele>
        <time>2021-05-27T10:05:43Z</time>
      </trkpt>
      <trkpt lat="47.69292" lon="-2.23299">
        <ele>63.4</ele>
        <time>2021-05-27T10:05:45Z</time>
      </trkpt>
      <trkpt lat="47.69297" lon="-2.23299">
        <ele>63.8</ele>
        <time>2021-05-27T10:05:46Z</time>
      </trkpt>
      <trkpt lat="47.69301" lon="-2.23299">
        <ele>64.1</ele>
        <time>2021-05-27T10:05:47Z</time>
      </trkpt>
      <trkpt lat="47.69305" lon="-2.23299">
        <ele>64.4</ele>
        <time>2021-05-27T10:05:48Z</time>
      </trkpt>
      <trkpt lat="47.69309" lon="-2.23299">
        <ele>64.6</ele>
        <time>2021-05-27T10:05:49Z</time>
      </trkpt>
      <trkpt lat="47.69313" lon="-2.23298">
        <ele>64.9</ele>
        <time>2021-05-27T10:05:50Z</time>
      </trkpt>
      <trkpt lat="47.69317" lon="-2.23297">
        <ele>65.2</ele>
        <time>2021-05-27T10:05:51Z</time>
      </trkpt>
      <trkpt lat="47.6932" lon="-2.23297">
        <ele>65.5</ele>
        <time>2021-05-27T10:05:52Z</time>
      </trkpt>
      <trkpt lat="47.69324" lon="-2.23296">
        <ele>65.8</ele>
        <time>2021-05-27T10:05:53Z</time>
      </trkpt>
      <trkpt lat="47.69329" lon="-2.23297">
        <ele>66.1</ele>
        <time>2021-05-27T10:05:54Z</time>
      </trkpt>
      <trkpt lat="47.69333" lon="-2.23297">
        <ele>66.4</ele>
        <time>2021-05-27T10:05:55Z</time>
      </trkpt>
      <trkpt lat="47.69337" lon="-2.23296">
        <ele>66.7</ele>
        <time>2021-05-27T10:05:56Z</time>
      </trkpt>
      <trkpt lat="47.69342" lon="-2.23296">
        <ele>67</ele>
        <time>2021-05-27T10:05:57Z</time>
      </trkpt>
      <trkpt lat="47.69346" lon="-2.23295">
        <ele>67.3</ele>
        <time>2021-05-27T10:05:58Z</time>
      </trkpt>
      <trkpt lat="47.69349" lon="-2.23295">
        <ele>67.5</ele>
        <time>2021-05-27T10:05:59Z</time>
      </trkpt>
      <trkpt lat="47.69352" lon="-2.23295">
        <ele>67.7</ele>
        <time>2021-05-27T10:06:00Z</time>
      </trkpt>
      <trkpt lat="47.69356" lon="-2.23296">
        <ele>68</ele>
        <time>2021-05-27T10:06:01Z</time>
      </trkpt>
      <trkpt lat="47.69359" lon="-2.23296">
        <ele>68.2</ele>
        <time>2021-05-27T10:06:02Z</time>
      </trkpt>
      <trkpt lat="47.69362" lon="-2.23296">
        <ele>68.4</ele>
        <time>2021-05-27T10:06:03Z</time>
      </trkpt>
      <trkpt lat="47.69365" lon="-2.23297">
        <ele>68.6</ele>
        <time>2021-05-27T10:06:04Z</time>
      </trkpt>
      <trkpt lat="47.69369" lon="-2.23297">
        <ele>68.9</ele>
        <time>2021-05-27T10:06:05Z</time>
      </trkpt>
      <trkpt lat="47.69372" lon="-2.23298">
        <ele>69.1</ele>
        <time>2021-05-27T10:06:06Z</time>
      </trkpt>
      <trkpt lat="47.69376" lon="-2.23299">
        <ele>69.3</ele>
        <time>2021-05-27T10:06:07Z</time>
      </trkpt>
      <trkpt lat="47.69378" lon="-2.23299">
        <ele>69.5</ele>
        <time>2021-05-27T10:06:08Z</time>
      </trkpt>
      <trkpt lat="47.69379" lon="-2.23299">
        <ele>69.6</ele>
        <time>2021-05-27T10:06:09Z</time>
      </trkpt>
      <trkpt lat="47.69379" lon="-2.233">
        <ele>69.6</ele>
        <time>2021-05-27T10:06:10Z</time>
      </trkpt>
      <trkpt lat="47.69379" lon="-2.233">
        <ele>69.6</ele>
        <time>2021-05-27T10:06:11Z</time>
      </trkpt>
      <trkpt lat="47.69379" lon="-2.233">
        <ele>69.6</ele>
        <time>2021-05-27T10:06:12Z</time>
      </trkpt>
      <trkpt lat="47.69379" lon="-2.233">
        <ele>69.6</ele>
        <time>2021-05-27T10:06:13Z</time>
      </trkpt>
      <trkpt lat="47.69379" lon="-2.233">
        <ele>69.6</ele>
        <time>2021-05-27T10:06:14Z</time>
      </trkpt>
      <trkpt lat="47.69379" lon="-2.233">
        <ele>69.6</ele>
        <time>2021-05-27T10:06:15Z</time>
      </trkpt>
      <trkpt lat="47.69379" lon="-2.233">
        <ele>69.6</ele>
        <time>2021-05-27T10:06:16Z</time>
      </trkpt>
      <trkpt lat="47.69379" lon="-2.233">
        <ele>69.6</ele>
        <time>2021-05-27T10:06:17Z</time>
      </trkpt>
      <trkpt lat="47.69379" lon="-2.233">
        <ele>69.6</ele>
        <time>2021-05-27T10:06:18Z</time>
      </trkpt>
      <trkpt lat="47.69379" lon="-2.233">
        <ele>69.6</ele>
        <time>2021-05-27T10:06:19Z</time>
      </trkpt>
      <trkpt lat="47.69379" lon="-2.233">
        <ele>69.6</ele>
        <time>2021-05-27T10:06:20Z</time>
      </trkpt>
      <trkpt lat="47.69379" lon="-2.233">
        <ele>69.6</ele>
        <time>2021-05-27T10:06:21Z</time>
      </trkpt>
      <trkpt lat="47.69379" lon="-2.233">
        <ele>69.6</ele>
        <time>2021-05-27T10:06:22Z</time>
      </trkpt>
      <trkpt lat="47.69379" lon="-2.233">
        <ele>69.6</ele>
        <time>2021-05-27T10:06:23Z</time>
      </trkpt>
      <trkpt lat="47.69379" lon="-2.233">
        <ele>69.6</ele>
        <time>2021-05-27T10:06:24Z</time>
      </trkpt>
      <trkpt lat="47.69382" lon="-2.23299">
        <ele>69.8</ele>
        <time>2021-05-27T10:06:25Z</time>
      </trkpt>
      <trkpt lat="47.69384" lon="-2.23299">
        <ele>69.9</ele>
        <time>2021-05-27T10:06:26Z</time>
      </trkpt>
      <trkpt lat="47.69386" lon="-2.23299">
        <ele>70.1</ele>
        <time>2021-05-27T10:06:27Z</time>
      </trkpt>
      <trkpt lat="47.69389" lon="-2.23297">
        <ele>70.2</ele>
        <time>2021-05-27T10:06:28Z</time>
      </trkpt>
      <trkpt lat="47.69392" lon="-2.23296">
        <ele>70.4</ele>
        <time>2021-05-27T10:06:29Z</time>
      </trkpt>
      <trkpt lat="47.69395" lon="-2.23294">
        <ele>70.6</ele>
        <time>2021-05-27T10:06:30Z</time>
      </trkpt>
      <trkpt lat="47.69398" lon="-2.2329">
        <ele>70.7</ele>
        <time>2021-05-27T10:06:31Z</time>
      </trkpt>
      <trkpt lat="47.69401" lon="-2.23286">
        <ele>70.9</ele>
        <time>2021-05-27T10:06:32Z</time>
      </trkpt>
      <trkpt lat="47.69403" lon="-2.23282">
        <ele>71</ele>
        <time>2021-05-27T10:06:33Z</time>
      </trkpt>
      <trkpt lat="47.69406" lon="-2.23277">
        <ele>71</ele>
        <time>2021-05-27T10:06:34Z</time>
      </trkpt>
      <trkpt lat="47.69409" lon="-2.23273">
        <ele>71.1</ele>
        <time>2021-05-27T10:06:35Z</time>
      </trkpt>
      <trkpt lat="47.69412" lon="-2.23268">
        <ele>71.2</ele>
        <time>2021-05-27T10:06:36Z</time>
      </trkpt>
      <trkpt lat="47.69415" lon="-2.23264">
        <ele>71.2</ele>
        <time>2021-05-27T10:06:37Z</time>
      </trkpt>
      <trkpt lat="47.69416" lon="-2.2326">
        <ele>71.2</ele>
        <time>2021-05-27T10:06:38Z</time>
      </trkpt>
      <trkpt lat="47.69418" lon="-2.23257">
        <ele>71.2</ele>
        <time>2021-05-27T10:06:39Z</time>
      </trkpt>
      <trkpt lat="47.69419" lon="-2.23252">
        <ele>71.1</ele>
        <time>2021-05-27T10:06:40Z</time>
      </trkpt>
      <trkpt lat="47.69421" lon="-2.23247">
        <ele>71.1</ele>
        <time>2021-05-27T10:06:41Z</time>
      </trkpt>
      <trkpt lat="47.69422" lon="-2.23241">
        <ele>71.2</ele>
        <time>2021-05-27T10:06:42Z</time>
      </trkpt>
      <trkpt lat="47.69424" lon="-2.23235">
        <ele>71.4</ele>
        <time>2021-05-27T10:06:43Z</time>
      </trkpt>
      <trkpt lat="47.69424" lon="-2.23229">
        <ele>71.5</ele>
        <time>2021-05-27T10:06:44Z</time>
      </trkpt>
      <trkpt lat="47.69425" lon="-2.23221">
        <ele>71.6</ele>
        <time>2021-05-27T10:06:45Z</time>
      </trkpt>
      <trkpt lat="47.69426" lon="-2.23214">
        <ele>71.8</ele>
        <time>2021-05-27T10:06:46Z</time>
      </trkpt>
      <trkpt lat="47.69427" lon="-2.23208">
        <ele>71.9</ele>
        <time>2021-05-27T10:06:47Z</time>
      </trkpt>
      <trkpt lat="47.69428" lon="-2.23202">
        <ele>72</ele>
        <time>2021-05-27T10:06:48Z</time>
      </trkpt>
      <trkpt lat="47.6943" lon="-2.23194">
        <ele>72.1</ele>
        <time>2021-05-27T10:06:49Z</time>
      </trkpt>
      <trkpt lat="47.69431" lon="-2.23186">
        <ele>72.2</ele>
        <time>2021-05-27T10:06:50Z</time>
      </trkpt>
      <trkpt lat="47.69432" lon="-2.23178">
        <ele>72.3</ele>
        <time>2021-05-27T10:06:51Z</time>
      </trkpt>
      <trkpt lat="47.69433" lon="-2.23171">
        <ele>72.4</ele>
        <time>2021-05-27T10:06:52Z</time>
      </trkpt>
      <trkpt lat="47.69434" lon="-2.23163">
        <ele>72.3</ele>
        <time>2021-05-27T10:06:53Z</time>
      </trkpt>
      <trkpt lat="47.69434" lon="-2.23156">
        <ele>72.1</ele>
        <time>2021-05-27T10:06:54Z</time>
      </trkpt>
      <trkpt lat="47.69434" lon="-2.23149">
        <ele>72</ele>
        <time>2021-05-27T10:06:55Z</time>
      </trkpt>
      <trkpt lat="47.69433" lon="-2.23143">
        <ele>71.8</ele>
        <time>2021-05-27T10:06:56Z</time>
      </trkpt>
      <trkpt lat="47.69433" lon="-2.23138">
        <ele>71.7</ele>
        <time>2021-05-27T10:06:57Z</time>
      </trkpt>
      <trkpt lat="47.69432" lon="-2.23131">
        <ele>71.6</ele>
        <time>2021-05-27T10:06:58Z</time>
      </trkpt>
      <trkpt lat="47.69433" lon="-2.23124">
        <ele>71.4</ele>
        <time>2021-05-27T10:06:59Z</time>
      </trkpt>
      <trkpt lat="47.69433" lon="-2.23117">
        <ele>71.2</ele>
        <time>2021-05-27T10:07:00Z</time>
      </trkpt>
      <trkpt lat="47.69434" lon="-2.23109">
        <ele>71</ele>
        <time>2021-05-27T10:07:01Z</time>
      </trkpt>
      <trkpt lat="47.69434" lon="-2.23101">
        <ele>70.8</ele>
        <time>2021-05-27T10:07:02Z</time>
      </trkpt>
      <trkpt lat="47.69435" lon="-2.23093">
        <ele>70.6</ele>
        <time>2021-05-27T10:07:03Z</time>
      </trkpt>
      <trkpt lat="47.69434" lon="-2.23084">
        <ele>70.4</ele>
        <time>2021-05-27T10:07:04Z</time>
      </trkpt>
      <trkpt lat="47.69434" lon="-2.23076">
        <ele>70.3</ele>
        <time>2021-05-27T10:07:05Z</time>
      </trkpt>
      <trkpt lat="47.69434" lon="-2.23067">
        <ele>70.2</ele>
        <time>2021-05-27T10:07:06Z</time>
      </trkpt>
      <trkpt lat="47.69435" lon="-2.23059">
        <ele>70.1</ele>
        <time>2021-05-27T10:07:07Z</time>
      </trkpt>
      <trkpt lat="47.69435" lon="-2.2305">
        <ele>70</ele>
        <time>2021-05-27T10:07:08Z</time>
      </trkpt>
      <trkpt lat="47.69437" lon="-2.2304">
        <ele>69.8</ele>
        <time>2021-05-27T10:07:09Z</time>
      </trkpt>
      <trkpt lat="47.69438" lon="-2.23031">
        <ele>69.6</ele>
        <time>2021-05-27T10:07:10Z</time>
      </trkpt>
      <trkpt lat="47.6944" lon="-2.23021">
        <ele>69.3</ele>
        <time>2021-05-27T10:07:11Z</time>
      </trkpt>
      <trkpt lat="47.69442" lon="-2.23013">
        <ele>69.1</ele>
        <time>2021-05-27T10:07:12Z</time>
      </trkpt>
      <trkpt lat="47.69444" lon="-2.23006">
        <ele>68.8</ele>
        <time>2021-05-27T10:07:13Z</time>
      </trkpt>
      <trkpt lat="47.69446" lon="-2.22999">
        <ele>68.6</ele>
        <time>2021-05-27T10:07:14Z</time>
      </trkpt>
      <trkpt lat="47.69448" lon="-2.22993">
        <ele>68.5</ele>
        <time>2021-05-27T10:07:15Z</time>
      </trkpt>
      <trkpt lat="47.69449" lon="-2.22988">
        <ele>68.5</ele>
        <time>2021-05-27T10:07:16Z</time>
      </trkpt>
      <trkpt lat="47.69449" lon="-2.22982">
        <ele>68.6</ele>
        <time>2021-05-27T10:07:17Z</time>
      </trkpt>
      <trkpt lat="47.6945" lon="-2.22978">
        <ele>68.6</ele>
        <time>2021-05-27T10:07:18Z</time>
      </trkpt>
      <trkpt lat="47.6945" lon="-2.22974">
        <ele>68.6</ele>
        <time>2021-05-27T10:07:19Z</time>
      </trkpt>
      <trkpt lat="47.69451" lon="-2.2297">
        <ele>68.6</ele>
        <time>2021-05-27T10:07:20Z</time>
      </trkpt>
      <trkpt lat="47.69451" lon="-2.22965">
        <ele>68.7</ele>
        <time>2021-05-27T10:07:21Z</time>
      </trkpt>
      <trkpt lat="47.69451" lon="-2.2296">
        <ele>68.8</ele>
        <time>2021-05-27T10:07:22Z</time>
      </trkpt>
      <trkpt lat="47.6945" lon="-2.22954">
        <ele>69</ele>
        <time>2021-05-27T10:07:23Z</time>
      </trkpt>
      <trkpt lat="47.69449" lon="-2.22948">
        <ele>69.2</ele>
        <time>2021-05-27T10:07:24Z</time>
      </trkpt>
      <trkpt lat="47.69448" lon="-2.22941">
        <ele>69.4</ele>
        <time>2021-05-27T10:07:25Z</time>
      </trkpt>
      <trkpt lat="47.69447" lon="-2.22935">
        <ele>69.6</ele>
        <time>2021-05-27T10:07:26Z</time>
      </trkpt>
      <trkpt lat="47.69446" lon="-2.22929">
        <ele>69.7</ele>
        <time>2021-05-27T10:07:27Z</time>
      </trkpt>
      <trkpt lat="47.69445" lon="-2.22926">
        <ele>69.8</ele>
        <time>2021-05-27T10:07:28Z</time>
      </trkpt>
      <trkpt lat="47.69445" lon="-2.22924">
        <ele>69.8</ele>
        <time>2021-05-27T10:07:29Z</time>
      </trkpt>
      <trkpt lat="47.69447" lon="-2.22924">
        <ele>69.7</ele>
        <time>2021-05-27T10:07:30Z</time>
      </trkpt>
      <trkpt lat="47.6945" lon="-2.22925">
        <ele>69.5</ele>
        <time>2021-05-27T10:07:31Z</time>
      </trkpt>
      <trkpt lat="47.69453" lon="-2.22924">
        <ele>69.2</ele>
        <time>2021-05-27T10:07:32Z</time>
      </trkpt>
      <trkpt lat="47.69457" lon="-2.22923">
        <ele>69</ele>
        <time>2021-05-27T10:07:33Z</time>
      </trkpt>
      <trkpt lat="47.6946" lon="-2.22921">
        <ele>68.8</ele>
        <time>2021-05-27T10:07:34Z</time>
      </trkpt>
      <trkpt lat="47.69464" lon="-2.2292">
        <ele>68.5</ele>
        <time>2021-05-27T10:07:35Z</time>
      </trkpt>
      <trkpt lat="47.69469" lon="-2.22918">
        <ele>68.2</ele>
        <time>2021-05-27T10:07:36Z</time>
      </trkpt>
      <trkpt lat="47.69474" lon="-2.22917">
        <ele>67.9</ele>
        <time>2021-05-27T10:07:37Z</time>
      </trkpt>
      <trkpt lat="47.69479" lon="-2.22915">
        <ele>67.5</ele>
        <time>2021-05-27T10:07:38Z</time>
      </trkpt>
      <trkpt lat="47.69486" lon="-2.22914">
        <ele>67</ele>
        <time>2021-05-27T10:07:39Z</time>
      </trkpt>
      <trkpt lat="47.69492" lon="-2.22914">
        <ele>66.6</ele>
        <time>2021-05-27T10:07:40Z</time>
      </trkpt>
      <trkpt lat="47.69499" lon="-2.22912">
        <ele>66.1</ele>
        <time>2021-05-27T10:07:41Z</time>
      </trkpt>
      <trkpt lat="47.69506" lon="-2.22912">
        <ele>65.1</ele>
        <time>2021-05-27T10:07:42Z</time>
      </trkpt>
      <trkpt lat="47.69513" lon="-2.22911">
        <ele>64.1</ele>
        <time>2021-05-27T10:07:43Z</time>
      </trkpt>
      <trkpt lat="47.69518" lon="-2.22908">
        <ele>63.2</ele>
        <time>2021-05-27T10:07:44Z</time>
      </trkpt>
      <trkpt lat="47.69523" lon="-2.22909">
        <ele>62.5</ele>
        <time>2021-05-27T10:07:45Z</time>
      </trkpt>
      <trkpt lat="47.69527" lon="-2.22908">
        <ele>61.8</ele>
        <time>2021-05-27T10:07:46Z</time>
      </trkpt>
      <trkpt lat="47.6953" lon="-2.22905">
        <ele>61.4</ele>
        <time>2021-05-27T10:07:47Z</time>
      </trkpt>
      <trkpt lat="47.69533" lon="-2.22901">
        <ele>61.1</ele>
        <time>2021-05-27T10:07:48Z</time>
      </trkpt>
      <trkpt lat="47.69534" lon="-2.22898">
        <ele>61</ele>
        <time>2021-05-27T10:07:49Z</time>
      </trkpt>
      <trkpt lat="47.69534" lon="-2.22894">
        <ele>60.9</ele>
        <time>2021-05-27T10:07:50Z</time>
      </trkpt>
      <trkpt lat="47.69534" lon="-2.2289">
        <ele>61</ele>
        <time>2021-05-27T10:07:51Z</time>
      </trkpt>
      <trkpt lat="47.69534" lon="-2.22885">
        <ele>61.1</ele>
        <time>2021-05-27T10:07:52Z</time>
      </trkpt>
      <trkpt lat="47.69533" lon="-2.22882">
        <ele>61.2</ele>
        <time>2021-05-27T10:07:53Z</time>
      </trkpt>
      <trkpt lat="47.69535" lon="-2.22878">
        <ele>61.1</ele>
        <time>2021-05-27T10:07:54Z</time>
      </trkpt>
      <trkpt lat="47.69536" lon="-2.22874">
        <ele>60.9</ele>
        <time>2021-05-27T10:07:55Z</time>
      </trkpt>
      <trkpt lat="47.69537" lon="-2.22871">
        <ele>60.8</ele>
        <time>2021-05-27T10:07:56Z</time>
      </trkpt>
      <trkpt lat="47.69538" lon="-2.22867">
        <ele>60.7</ele>
        <time>2021-05-27T10:07:57Z</time>
      </trkpt>
      <trkpt lat="47.69538" lon="-2.22863">
        <ele>60.7</ele>
        <time>2021-05-27T10:07:58Z</time>
      </trkpt>
      <trkpt lat="47.69538" lon="-2.22859">
        <ele>60.8</ele>
        <time>2021-05-27T10:07:59Z</time>
      </trkpt>
      <trkpt lat="47.69537" lon="-2.22854">
        <ele>60.9</ele>
        <time>2021-05-27T10:08:00Z</time>
      </trkpt>
      <trkpt lat="47.69537" lon="-2.2285">
        <ele>61</ele>
        <time>2021-05-27T10:08:01Z</time>
      </trkpt>
      <trkpt lat="47.69537" lon="-2.22848">
        <ele>61</ele>
        <time>2021-05-27T10:08:02Z</time>
      </trkpt>
      <trkpt lat="47.69538" lon="-2.22846">
        <ele>60.9</ele>
        <time>2021-05-27T10:08:03Z</time>
      </trkpt>
      <trkpt lat="47.69541" lon="-2.22848">
        <ele>60.5</ele>
        <time>2021-05-27T10:08:04Z</time>
      </trkpt>
      <trkpt lat="47.69543" lon="-2.22849">
        <ele>60.1</ele>
        <time>2021-05-27T10:08:05Z</time>
      </trkpt>
      <trkpt lat="47.69547" lon="-2.2285">
        <ele>59.5</ele>
        <time>2021-05-27T10:08:06Z</time>
      </trkpt>
      <trkpt lat="47.69551" lon="-2.22851">
        <ele>58.8</ele>
        <time>2021-05-27T10:08:07Z</time>
      </trkpt>
      <trkpt lat="47.69556" lon="-2.22854">
        <ele>58</ele>
        <time>2021-05-27T10:08:08Z</time>
      </trkpt>
      <trkpt lat="47.6956" lon="-2.22857">
        <ele>57.3</ele>
        <time>2021-05-27T10:08:09Z</time>
      </trkpt>
      <trkpt lat="47.69565" lon="-2.2286">
        <ele>56.5</ele>
        <time>2021-05-27T10:08:10Z</time>
      </trkpt>
      <trkpt lat="47.6957" lon="-2.22864">
        <ele>55.7</ele>
        <time>2021-05-27T10:08:11Z</time>
      </trkpt>
      <trkpt lat="47.69574" lon="-2.22868">
        <ele>55</ele>
        <time>2021-05-27T10:08:12Z</time>
      </trkpt>
      <trkpt lat="47.69577" lon="-2.22873">
        <ele>54.5</ele>
        <time>2021-05-27T10:08:13Z</time>
      </trkpt>
      <trkpt lat="47.6958" lon="-2.22879">
        <ele>53.9</ele>
        <time>2021-05-27T10:08:14Z</time>
      </trkpt>
      <trkpt lat="47.69583" lon="-2.22886">
        <ele>53.4</ele>
        <time>2021-05-27T10:08:15Z</time>
      </trkpt>
      <trkpt lat="47.69584" lon="-2.22894">
        <ele>53.1</ele>
        <time>2021-05-27T10:08:16Z</time>
      </trkpt>
      <trkpt lat="47.69586" lon="-2.22902">
        <ele>52.5</ele>
        <time>2021-05-27T10:08:17Z</time>
      </trkpt>
      <trkpt lat="47.69589" lon="-2.22911">
        <ele>52</ele>
        <time>2021-05-27T10:08:18Z</time>
      </trkpt>
      <trkpt lat="47.69591" lon="-2.22921">
        <ele>51.5</ele>
        <time>2021-05-27T10:08:19Z</time>
      </trkpt>
      <trkpt lat="47.69592" lon="-2.22931">
        <ele>51.3</ele>
        <time>2021-05-27T10:08:20Z</time>
      </trkpt>
      <trkpt lat="47.69594" lon="-2.22941">
        <ele>51.2</ele>
        <time>2021-05-27T10:08:21Z</time>
      </trkpt>
      <trkpt lat="47.69596" lon="-2.22951">
        <ele>51.1</ele>
        <time>2021-05-27T10:08:22Z</time>
      </trkpt>
      <trkpt lat="47.69597" lon="-2.22959">
        <ele>51</ele>
        <time>2021-05-27T10:08:23Z</time>
      </trkpt>
      <trkpt lat="47.69599" lon="-2.22968">
        <ele>50.7</ele>
        <time>2021-05-27T10:08:24Z</time>
      </trkpt>
      <trkpt lat="47.696" lon="-2.22978">
        <ele>50.7</ele>
        <time>2021-05-27T10:08:25Z</time>
      </trkpt>
      <trkpt lat="47.69601" lon="-2.22987">
        <ele>50.7</ele>
        <time>2021-05-27T10:08:26Z</time>
      </trkpt>
      <trkpt lat="47.69602" lon="-2.22996">
        <ele>50.8</ele>
        <time>2021-05-27T10:08:27Z</time>
      </trkpt>
      <trkpt lat="47.69602" lon="-2.23005">
        <ele>50.8</ele>
        <time>2021-05-27T10:08:28Z</time>
      </trkpt>
      <trkpt lat="47.69603" lon="-2.23013">
        <ele>51</ele>
        <time>2021-05-27T10:08:29Z</time>
      </trkpt>
      <trkpt lat="47.69603" lon="-2.2302">
        <ele>51.1</ele>
        <time>2021-05-27T10:08:30Z</time>
      </trkpt>
      <trkpt lat="47.69604" lon="-2.23027">
        <ele>51.2</ele>
        <time>2021-05-27T10:08:31Z</time>
      </trkpt>
      <trkpt lat="47.69605" lon="-2.23033">
        <ele>51.2</ele>
        <time>2021-05-27T10:08:32Z</time>
      </trkpt>
      <trkpt lat="47.69605" lon="-2.23035">
        <ele>51.1</ele>
        <time>2021-05-27T10:08:33Z</time>
      </trkpt>
      <trkpt lat="47.69605" lon="-2.23036">
        <ele>51.3</ele>
        <time>2021-05-27T10:08:34Z</time>
      </trkpt>
      <trkpt lat="47.69605" lon="-2.23036">
        <ele>51.3</ele>
        <time>2021-05-27T10:08:35Z</time>
      </trkpt>
      <trkpt lat="47.69605" lon="-2.23037">
        <ele>51.3</ele>
        <time>2021-05-27T10:08:36Z</time>
      </trkpt>
      <trkpt lat="47.69604" lon="-2.23037">
        <ele>51.5</ele>
        <time>2021-05-27T10:08:37Z</time>
      </trkpt>
      <trkpt lat="47.69604" lon="-2.23037">
        <ele>51.5</ele>
        <time>2021-05-27T10:08:38Z</time>
      </trkpt>
      <trkpt lat="47.69604" lon="-2.23037">
        <ele>51.5</ele>
        <time>2021-05-27T10:08:39Z</time>
      </trkpt>
      <trkpt lat="47.69604" lon="-2.23037">
        <ele>51.5</ele>
        <time>2021-05-27T10:08:40Z</time>
      </trkpt>
      <trkpt lat="47.69604" lon="-2.23037">
        <ele>51.5</ele>
        <time>2021-05-27T10:08:41Z</time>
      </trkpt>
      <trkpt lat="47.69604" lon="-2.23037">
        <ele>51.5</ele>
        <time>2021-05-27T10:08:42Z</time>
      </trkpt>
      <trkpt lat="47.69604" lon="-2.23037">
        <ele>51.5</ele>
        <time>2021-05-27T10:08:43Z</time>
      </trkpt>
      <trkpt lat="47.69604" lon="-2.23037">
        <ele>51.5</ele>
        <time>2021-05-27T10:08:44Z</time>
      </trkpt>
      <trkpt lat="47.69604" lon="-2.23037">
        <ele>51.5</ele>
        <time>2021-05-27T10:08:45Z</time>
      </trkpt>
      <trkpt lat="47.69609" lon="-2.23037">
        <ele>50.3</ele>
        <time>2021-05-27T10:08:46Z</time>
      </trkpt>
      <trkpt lat="47.69611" lon="-2.23039">
        <ele>50</ele>
        <time>2021-05-27T10:08:47Z</time>
      </trkpt>
      <trkpt lat="47.69613" lon="-2.23041">
        <ele>49.5</ele>
        <time>2021-05-27T10:08:48Z</time>
      </trkpt>
      <trkpt lat="47.69615" lon="-2.23045">
        <ele>49.2</ele>
        <time>2021-05-27T10:08:49Z</time>
      </trkpt>
      <trkpt lat="47.69616" lon="-2.23049">
        <ele>49</ele>
        <time>2021-05-27T10:08:50Z</time>
      </trkpt>
      <trkpt lat="47.69617" lon="-2.23052">
        <ele>48.9</ele>
        <time>2021-05-27T10:08:51Z</time>
      </trkpt>
      <trkpt lat="47.69618" lon="-2.23058">
        <ele>48.8</ele>
        <time>2021-05-27T10:08:52Z</time>
      </trkpt>
      <trkpt lat="47.6962" lon="-2.23062">
        <ele>48.5</ele>
        <time>2021-05-27T10:08:53Z</time>
      </trkpt>
      <trkpt lat="47.69622" lon="-2.23068">
        <ele>48.4</ele>
        <time>2021-05-27T10:08:54Z</time>
      </trkpt>
      <trkpt lat="47.69621" lon="-2.23074">
        <ele>48.6</ele>
        <time>2021-05-27T10:08:55Z</time>
      </trkpt>
      <trkpt lat="47.6962" lon="-2.2308">
        <ele>49</ele>
        <time>2021-05-27T10:08:56Z</time>
      </trkpt>
      <trkpt lat="47.6962" lon="-2.23086">
        <ele>49.4</ele>
        <time>2021-05-27T10:08:57Z</time>
      </trkpt>
      <trkpt lat="47.6962" lon="-2.23092">
        <ele>49.7</ele>
        <time>2021-05-27T10:08:58Z</time>
      </trkpt>
      <trkpt lat="47.69619" lon="-2.231">
        <ele>50.1</ele>
        <time>2021-05-27T10:08:59Z</time>
      </trkpt>
      <trkpt lat="47.6962" lon="-2.23106">
        <ele>50.4</ele>
        <time>2021-05-27T10:09:00Z</time>
      </trkpt>
      <trkpt lat="47.69621" lon="-2.23112">
        <ele>50.3</ele>
        <time>2021-05-27T10:09:01Z</time>
      </trkpt>
      <trkpt lat="47.69622" lon="-2.2312">
        <ele>50.4</ele>
        <time>2021-05-27T10:09:02Z</time>
      </trkpt>
      <trkpt lat="47.69624" lon="-2.23127">
        <ele>50.4</ele>
        <time>2021-05-27T10:09:03Z</time>
      </trkpt>
      <trkpt lat="47.69625" lon="-2.23133">
        <ele>50.3</ele>
        <time>2021-05-27T10:09:04Z</time>
      </trkpt>
      <trkpt lat="47.69627" lon="-2.2314">
        <ele>50.3</ele>
        <time>2021-05-27T10:09:05Z</time>
      </trkpt>
      <trkpt lat="47.69628" lon="-2.23146">
        <ele>50.3</ele>
        <time>2021-05-27T10:09:06Z</time>
      </trkpt>
      <trkpt lat="47.69629" lon="-2.23154">
        <ele>50.2</ele>
        <time>2021-05-27T10:09:07Z</time>
      </trkpt>
      <trkpt lat="47.69631" lon="-2.2316">
        <ele>50.2</ele>
        <time>2021-05-27T10:09:08Z</time>
      </trkpt>
      <trkpt lat="47.69631" lon="-2.23168">
        <ele>50.4</ele>
        <time>2021-05-27T10:09:09Z</time>
      </trkpt>
      <trkpt lat="47.69632" lon="-2.23175">
        <ele>50.5</ele>
        <time>2021-05-27T10:09:10Z</time>
      </trkpt>
      <trkpt lat="47.69632" lon="-2.23182">
        <ele>50.5</ele>
        <time>2021-05-27T10:09:11Z</time>
      </trkpt>
      <trkpt lat="47.69633" lon="-2.23188">
        <ele>50.4</ele>
        <time>2021-05-27T10:09:12Z</time>
      </trkpt>
      <trkpt lat="47.69634" lon="-2.23194">
        <ele>50.3</ele>
        <time>2021-05-27T10:09:13Z</time>
      </trkpt>
      <trkpt lat="47.69636" lon="-2.232">
        <ele>50.1</ele>
        <time>2021-05-27T10:09:14Z</time>
      </trkpt>
      <trkpt lat="47.69636" lon="-2.23206">
        <ele>50.2</ele>
        <time>2021-05-27T10:09:15Z</time>
      </trkpt>
      <trkpt lat="47.69638" lon="-2.23212">
        <ele>50</ele>
        <time>2021-05-27T10:09:16Z</time>
      </trkpt>
      <trkpt lat="47.69639" lon="-2.23219">
        <ele>49.8</ele>
        <time>2021-05-27T10:09:17Z</time>
      </trkpt>
      <trkpt lat="47.6964" lon="-2.23227">
        <ele>49.8</ele>
        <time>2021-05-27T10:09:18Z</time>
      </trkpt>
      <trkpt lat="47.69641" lon="-2.23235">
        <ele>49.5</ele>
        <time>2021-05-27T10:09:19Z</time>
      </trkpt>
      <trkpt lat="47.69642" lon="-2.23243">
        <ele>49.6</ele>
        <time>2021-05-27T10:09:20Z</time>
      </trkpt>
      <trkpt lat="47.69643" lon="-2.23251">
        <ele>49.6</ele>
        <time>2021-05-27T10:09:21Z</time>
      </trkpt>
      <trkpt lat="47.69644" lon="-2.23258">
        <ele>49.1</ele>
        <time>2021-05-27T10:09:22Z</time>
      </trkpt>
      <trkpt lat="47.69646" lon="-2.23263">
        <ele>48.7</ele>
        <time>2021-05-27T10:09:23Z</time>
      </trkpt>
      <trkpt lat="47.69649" lon="-2.23265">
        <ele>47.6</ele>
        <time>2021-05-27T10:09:24Z</time>
      </trkpt>
      <trkpt lat="47.69652" lon="-2.23266">
        <ele>46.8</ele>
        <time>2021-05-27T10:09:25Z</time>
      </trkpt>
      <trkpt lat="47.69657" lon="-2.23268">
        <ele>45.7</ele>
        <time>2021-05-27T10:09:26Z</time>
      </trkpt>
      <trkpt lat="47.69661" lon="-2.23268">
        <ele>44.5</ele>
        <time>2021-05-27T10:09:27Z</time>
      </trkpt>
      <trkpt lat="47.69666" lon="-2.23268">
        <ele>43.3</ele>
        <time>2021-05-27T10:09:28Z</time>
      </trkpt>
      <trkpt lat="47.69672" lon="-2.23267">
        <ele>42</ele>
        <time>2021-05-27T10:09:29Z</time>
      </trkpt>
      <trkpt lat="47.69677" lon="-2.23263">
        <ele>40.9</ele>
        <time>2021-05-27T10:09:30Z</time>
      </trkpt>
      <trkpt lat="47.6968" lon="-2.23258">
        <ele>40.3</ele>
        <time>2021-05-27T10:09:31Z</time>
      </trkpt>
      <trkpt lat="47.69683" lon="-2.23252">
        <ele>39.7</ele>
        <time>2021-05-27T10:09:32Z</time>
      </trkpt>
      <trkpt lat="47.69686" lon="-2.23245">
        <ele>39</ele>
        <time>2021-05-27T10:09:33Z</time>
      </trkpt>
      <trkpt lat="47.69689" lon="-2.23238">
        <ele>38.2</ele>
        <time>2021-05-27T10:09:34Z</time>
      </trkpt>
      <trkpt lat="47.69692" lon="-2.2323">
        <ele>37.3</ele>
        <time>2021-05-27T10:09:35Z</time>
      </trkpt>
      <trkpt lat="47.69695" lon="-2.23223">
        <ele>36.5</ele>
        <time>2021-05-27T10:09:36Z</time>
      </trkpt>
      <trkpt lat="47.69698" lon="-2.23215">
        <ele>35.7</ele>
        <time>2021-05-27T10:09:37Z</time>
      </trkpt>
      <trkpt lat="47.69701" lon="-2.23207">
        <ele>34.9</ele>
        <time>2021-05-27T10:09:38Z</time>
      </trkpt>
      <trkpt lat="47.69704" lon="-2.23198">
        <ele>34.1</ele>
        <time>2021-05-27T10:09:39Z</time>
      </trkpt>
      <trkpt lat="47.69707" lon="-2.23189">
        <ele>33.3</ele>
        <time>2021-05-27T10:09:40Z</time>
      </trkpt>
      <trkpt lat="47.69709" lon="-2.2318">
        <ele>32.6</ele>
        <time>2021-05-27T10:09:41Z</time>
      </trkpt>
      <trkpt lat="47.69711" lon="-2.23171">
        <ele>32</ele>
        <time>2021-05-27T10:09:42Z</time>
      </trkpt>
      <trkpt lat="47.69714" lon="-2.23163">
        <ele>31.4</ele>
        <time>2021-05-27T10:09:43Z</time>
      </trkpt>
      <trkpt lat="47.69715" lon="-2.23154">
        <ele>30.9</ele>
        <time>2021-05-27T10:09:44Z</time>
      </trkpt>
      <trkpt lat="47.69717" lon="-2.23145">
        <ele>30.5</ele>
        <time>2021-05-27T10:09:45Z</time>
      </trkpt>
      <trkpt lat="47.69718" lon="-2.23137">
        <ele>30.1</ele>
        <time>2021-05-27T10:09:46Z</time>
      </trkpt>
      <trkpt lat="47.69719" lon="-2.23129">
        <ele>29.8</ele>
        <time>2021-05-27T10:09:47Z</time>
      </trkpt>
      <trkpt lat="47.6972" lon="-2.23121">
        <ele>29.6</ele>
        <time>2021-05-27T10:09:48Z</time>
      </trkpt>
      <trkpt lat="47.6972" lon="-2.23113">
        <ele>29.3</ele>
        <time>2021-05-27T10:09:49Z</time>
      </trkpt>
      <trkpt lat="47.69722" lon="-2.23105">
        <ele>29</ele>
        <time>2021-05-27T10:09:50Z</time>
      </trkpt>
      <trkpt lat="47.69723" lon="-2.23096">
        <ele>28.8</ele>
        <time>2021-05-27T10:09:51Z</time>
      </trkpt>
      <trkpt lat="47.69723" lon="-2.23088">
        <ele>28.7</ele>
        <time>2021-05-27T10:09:52Z</time>
      </trkpt>
      <trkpt lat="47.69722" lon="-2.23079">
        <ele>28.7</ele>
        <time>2021-05-27T10:09:53Z</time>
      </trkpt>
      <trkpt lat="47.69721" lon="-2.23071">
        <ele>28.7</ele>
        <time>2021-05-27T10:09:54Z</time>
      </trkpt>
      <trkpt lat="47.69721" lon="-2.23063">
        <ele>28.8</ele>
        <time>2021-05-27T10:09:55Z</time>
      </trkpt>
      <trkpt lat="47.6972" lon="-2.23055">
        <ele>28.8</ele>
        <time>2021-05-27T10:09:56Z</time>
      </trkpt>
      <trkpt lat="47.69719" lon="-2.23046">
        <ele>28.9</ele>
        <time>2021-05-27T10:09:57Z</time>
      </trkpt>
      <trkpt lat="47.69718" lon="-2.23039">
        <ele>29</ele>
        <time>2021-05-27T10:09:58Z</time>
      </trkpt>
      <trkpt lat="47.69717" lon="-2.23032">
        <ele>29.1</ele>
        <time>2021-05-27T10:09:59Z</time>
      </trkpt>
      <trkpt lat="47.69715" lon="-2.23024">
        <ele>29.3</ele>
        <time>2021-05-27T10:10:00Z</time>
      </trkpt>
      <trkpt lat="47.69714" lon="-2.23017">
        <ele>29.4</ele>
        <time>2021-05-27T10:10:01Z</time>
      </trkpt>
      <trkpt lat="47.69712" lon="-2.23009">
        <ele>29.5</ele>
        <time>2021-05-27T10:10:02Z</time>
      </trkpt>
      <trkpt lat="47.69711" lon="-2.23002">
        <ele>29.7</ele>
        <time>2021-05-27T10:10:03Z</time>
      </trkpt>
      <trkpt lat="47.69709" lon="-2.22995">
        <ele>29.8</ele>
        <time>2021-05-27T10:10:04Z</time>
      </trkpt>
      <trkpt lat="47.69708" lon="-2.22988">
        <ele>30</ele>
        <time>2021-05-27T10:10:05Z</time>
      </trkpt>
      <trkpt lat="47.69707" lon="-2.22981">
        <ele>30.1</ele>
        <time>2021-05-27T10:10:06Z</time>
      </trkpt>
      <trkpt lat="47.69704" lon="-2.22975">
        <ele>30.4</ele>
        <time>2021-05-27T10:10:07Z</time>
      </trkpt>
      <trkpt lat="47.69703" lon="-2.2297">
        <ele>30.6</ele>
        <time>2021-05-27T10:10:08Z</time>
      </trkpt>
      <trkpt lat="47.69701" lon="-2.22962">
        <ele>30.8</ele>
        <time>2021-05-27T10:10:09Z</time>
      </trkpt>
      <trkpt lat="47.69699" lon="-2.22955">
        <ele>31</ele>
        <time>2021-05-27T10:10:10Z</time>
      </trkpt>
      <trkpt lat="47.69697" lon="-2.22949">
        <ele>31.2</ele>
        <time>2021-05-27T10:10:11Z</time>
      </trkpt>
      <trkpt lat="47.69695" lon="-2.22942">
        <ele>31.4</ele>
        <time>2021-05-27T10:10:12Z</time>
      </trkpt>
      <trkpt lat="47.69692" lon="-2.22941">
        <ele>31.8</ele>
        <time>2021-05-27T10:10:35Z</time>
      </trkpt>
      <trkpt lat="47.69691" lon="-2.22941">
        <ele>32</ele>
        <time>2021-05-27T10:10:36Z</time>
      </trkpt>
      <trkpt lat="47.69689" lon="-2.22941">
        <ele>32.3</ele>
        <time>2021-05-27T10:10:37Z</time>
      </trkpt>
      <trkpt lat="47.69687" lon="-2.22941">
        <ele>32.6</ele>
        <time>2021-05-27T10:10:38Z</time>
      </trkpt>
      <trkpt lat="47.69684" lon="-2.22941">
        <ele>32.9</ele>
        <time>2021-05-27T10:10:39Z</time>
      </trkpt>
      <trkpt lat="47.69682" lon="-2.22941">
        <ele>33.3</ele>
        <time>2021-05-27T10:10:40Z</time>
      </trkpt>
      <trkpt lat="47.69679" lon="-2.22941">
        <ele>33.6</ele>
        <time>2021-05-27T10:10:41Z</time>
      </trkpt>
      <trkpt lat="47.69677" lon="-2.22941">
        <ele>33.9</ele>
        <time>2021-05-27T10:10:42Z</time>
      </trkpt>
      <trkpt lat="47.69674" lon="-2.22941">
        <ele>34.2</ele>
        <time>2021-05-27T10:10:43Z</time>
      </trkpt>
      <trkpt lat="47.69671" lon="-2.22941">
        <ele>34.7</ele>
        <time>2021-05-27T10:10:44Z</time>
      </trkpt>
      <trkpt lat="47.69668" lon="-2.22942">
        <ele>35.1</ele>
        <time>2021-05-27T10:10:45Z</time>
      </trkpt>
      <trkpt lat="47.69665" lon="-2.22942">
        <ele>35.6</ele>
        <time>2021-05-27T10:10:46Z</time>
      </trkpt>
      <trkpt lat="47.69663" lon="-2.22943">
        <ele>36.2</ele>
        <time>2021-05-27T10:10:47Z</time>
      </trkpt>
      <trkpt lat="47.6966" lon="-2.22944">
        <ele>36.8</ele>
        <time>2021-05-27T10:10:48Z</time>
      </trkpt>
      <trkpt lat="47.69657" lon="-2.22944">
        <ele>37.5</ele>
        <time>2021-05-27T10:10:49Z</time>
      </trkpt>
      <trkpt lat="47.69654" lon="-2.22945">
        <ele>38</ele>
        <time>2021-05-27T10:10:50Z</time>
      </trkpt>
      <trkpt lat="47.69652" lon="-2.22945">
        <ele>38.6</ele>
        <time>2021-05-27T10:10:51Z</time>
      </trkpt>
      <trkpt lat="47.69649" lon="-2.22947">
        <ele>39.2</ele>
        <time>2021-05-27T10:10:52Z</time>
      </trkpt>
      <trkpt lat="47.69646" lon="-2.22947">
        <ele>40</ele>
        <time>2021-05-27T10:10:53Z</time>
      </trkpt>
      <trkpt lat="47.69644" lon="-2.22947">
        <ele>40.5</ele>
        <time>2021-05-27T10:10:54Z</time>
      </trkpt>
      <trkpt lat="47.69642" lon="-2.22947">
        <ele>40.9</ele>
        <time>2021-05-27T10:10:55Z</time>
      </trkpt>
      <trkpt lat="47.69639" lon="-2.22948">
        <ele>41.4</ele>
        <time>2021-05-27T10:10:56Z</time>
      </trkpt>
      <trkpt lat="47.69636" lon="-2.22951">
        <ele>42.1</ele>
        <time>2021-05-27T10:10:57Z</time>
      </trkpt>
      <trkpt lat="47.69634" lon="-2.22953">
        <ele>42.7</ele>
        <time>2021-05-27T10:10:58Z</time>
      </trkpt>
      <trkpt lat="47.69632" lon="-2.22955">
        <ele>43.2</ele>
        <time>2021-05-27T10:10:59Z</time>
      </trkpt>
      <trkpt lat="47.69629" lon="-2.22958">
        <ele>43.7</ele>
        <time>2021-05-27T10:11:00Z</time>
      </trkpt>
      <trkpt lat="47.69627" lon="-2.2296">
        <ele>44.3</ele>
        <time>2021-05-27T10:11:01Z</time>
      </trkpt>
      <trkpt lat="47.69626" lon="-2.22963">
        <ele>44.6</ele>
        <time>2021-05-27T10:11:02Z</time>
      </trkpt>
      <trkpt lat="47.69625" lon="-2.22967">
        <ele>45</ele>
        <time>2021-05-27T10:11:03Z</time>
      </trkpt>
      <trkpt lat="47.69624" lon="-2.2297">
        <ele>45.3</ele>
        <time>2021-05-27T10:11:04Z</time>
      </trkpt>
      <trkpt lat="47.69623" lon="-2.22973">
        <ele>45.5</ele>
        <time>2021-05-27T10:11:05Z</time>
      </trkpt>
      <trkpt lat="47.69622" lon="-2.22974">
        <ele>45.8</ele>
        <time>2021-05-27T10:11:06Z</time>
      </trkpt>
      <trkpt lat="47.6962" lon="-2.22976">
        <ele>46.1</ele>
        <time>2021-05-27T10:11:07Z</time>
      </trkpt>
      <trkpt lat="47.69619" lon="-2.22976">
        <ele>46.5</ele>
        <time>2021-05-27T10:11:08Z</time>
      </trkpt>
      <trkpt lat="47.69618" lon="-2.22978">
        <ele>46.6</ele>
        <time>2021-05-27T10:11:09Z</time>
      </trkpt>
      <trkpt lat="47.69617" lon="-2.22981">
        <ele>47</ele>
        <time>2021-05-27T10:11:10Z</time>
      </trkpt>
      <trkpt lat="47.69615" lon="-2.22984">
        <ele>47.4</ele>
        <time>2021-05-27T10:11:11Z</time>
      </trkpt>
      <trkpt lat="47.69613" lon="-2.22986">
        <ele>47.9</ele>
        <time>2021-05-27T10:11:12Z</time>
      </trkpt>
      <trkpt lat="47.69611" lon="-2.22989">
        <ele>48.4</ele>
        <time>2021-05-27T10:11:13Z</time>
      </trkpt>
      <trkpt lat="47.6961" lon="-2.22991">
        <ele>48.7</ele>
        <time>2021-05-27T10:11:14Z</time>
      </trkpt>
      <trkpt lat="47.69609" lon="-2.22994">
        <ele>49.1</ele>
        <time>2021-05-27T10:11:15Z</time>
      </trkpt>
      <trkpt lat="47.69607" lon="-2.22996">
        <ele>49.5</ele>
        <time>2021-05-27T10:11:16Z</time>
      </trkpt>
      <trkpt lat="47.69606" lon="-2.22998">
        <ele>49.9</ele>
        <time>2021-05-27T10:11:17Z</time>
      </trkpt>
      <trkpt lat="47.69605" lon="-2.23001">
        <ele>50.2</ele>
        <time>2021-05-27T10:11:18Z</time>
      </trkpt>
      <trkpt lat="47.69605" lon="-2.23003">
        <ele>50.3</ele>
        <time>2021-05-27T10:11:19Z</time>
      </trkpt>
      <trkpt lat="47.69604" lon="-2.23005">
        <ele>50.5</ele>
        <time>2021-05-27T10:11:20Z</time>
      </trkpt>
      <trkpt lat="47.69603" lon="-2.23008">
        <ele>50.7</ele>
        <time>2021-05-27T10:11:21Z</time>
      </trkpt>
      <trkpt lat="47.69603" lon="-2.23011">
        <ele>50.9</ele>
        <time>2021-05-27T10:11:22Z</time>
      </trkpt>
      <trkpt lat="47.69603" lon="-2.23013">
        <ele>50.9</ele>
        <time>2021-05-27T10:11:23Z</time>
      </trkpt>
      <trkpt lat="47.69603" lon="-2.23017">
        <ele>51.1</ele>
        <time>2021-05-27T10:11:24Z</time>
      </trkpt>
      <trkpt lat="47.69603" lon="-2.23021">
        <ele>51.2</ele>
        <time>2021-05-27T10:11:25Z</time>
      </trkpt>
      <trkpt lat="47.69605" lon="-2.23026">
        <ele>51</ele>
        <time>2021-05-27T10:11:26Z</time>
      </trkpt>
      <trkpt lat="47.69605" lon="-2.23029">
        <ele>50.9</ele>
        <time>2021-05-27T10:11:27Z</time>
      </trkpt>
      <trkpt lat="47.69606" lon="-2.23032">
        <ele>50.8</ele>
        <time>2021-05-27T10:11:28Z</time>
      </trkpt>
      <trkpt lat="47.69606" lon="-2.23035">
        <ele>50.9</ele>
        <time>2021-05-27T10:11:29Z</time>
      </trkpt>
      <trkpt lat="47.69607" lon="-2.23038">
        <ele>50.9</ele>
        <time>2021-05-27T10:11:30Z</time>
      </trkpt>
      <trkpt lat="47.69606" lon="-2.23041">
        <ele>51.1</ele>
        <time>2021-05-27T10:11:31Z</time>
      </trkpt>
      <trkpt lat="47.69606" lon="-2.23043">
        <ele>51.2</ele>
        <time>2021-05-27T10:11:32Z</time>
      </trkpt>
      <trkpt lat="47.69607" lon="-2.23045">
        <ele>51.2</ele>
        <time>2021-05-27T10:11:33Z</time>
      </trkpt>
      <trkpt lat="47.69607" lon="-2.23047">
        <ele>51.1</ele>
        <time>2021-05-27T10:11:34Z</time>
      </trkpt>
      <trkpt lat="47.69607" lon="-2.23049">
        <ele>51.1</ele>
        <time>2021-05-27T10:11:35Z</time>
      </trkpt>
      <trkpt lat="47.69607" lon="-2.23052">
        <ele>51.3</ele>
        <time>2021-05-27T10:11:36Z</time>
      </trkpt>
      <trkpt lat="47.69607" lon="-2.23055">
        <ele>51.4</ele>
        <time>2021-05-27T10:11:37Z</time>
      </trkpt>
      <trkpt lat="47.69607" lon="-2.23057">
        <ele>51.5</ele>
        <time>2021-05-27T10:11:38Z</time>
      </trkpt>
      <trkpt lat="47.69606" lon="-2.2306">
        <ele>51.8</ele>
        <time>2021-05-27T10:11:39Z</time>
      </trkpt>
      <trkpt lat="47.69606" lon="-2.23062">
        <ele>52</ele>
        <time>2021-05-27T10:11:40Z</time>
      </trkpt>
      <trkpt lat="47.69605" lon="-2.23064">
        <ele>52.2</ele>
        <time>2021-05-27T10:11:41Z</time>
      </trkpt>
      <trkpt lat="47.69604" lon="-2.23067">
        <ele>52.5</ele>
        <time>2021-05-27T10:11:42Z</time>
      </trkpt>
      <trkpt lat="47.69603" lon="-2.2307">
        <ele>52.7</ele>
        <time>2021-05-27T10:11:43Z</time>
      </trkpt>
      <trkpt lat="47.69602" lon="-2.23072">
        <ele>53.1</ele>
        <time>2021-05-27T10:11:44Z</time>
      </trkpt>
      <trkpt lat="47.69602" lon="-2.23075">
        <ele>53.3</ele>
        <time>2021-05-27T10:11:45Z</time>
      </trkpt>
      <trkpt lat="47.69602" lon="-2.23077">
        <ele>53.4</ele>
        <time>2021-05-27T10:11:46Z</time>
      </trkpt>
      <trkpt lat="47.69602" lon="-2.23079">
        <ele>53.4</ele>
        <time>2021-05-27T10:11:47Z</time>
      </trkpt>
      <trkpt lat="47.69602" lon="-2.23082">
        <ele>53.5</ele>
        <time>2021-05-27T10:11:48Z</time>
      </trkpt>
      <trkpt lat="47.69602" lon="-2.23084">
        <ele>53.5</ele>
        <time>2021-05-27T10:11:49Z</time>
      </trkpt>
      <trkpt lat="47.69602" lon="-2.23086">
        <ele>53.6</ele>
        <time>2021-05-27T10:11:50Z</time>
      </trkpt>
      <trkpt lat="47.69602" lon="-2.23087">
        <ele>53.7</ele>
        <time>2021-05-27T10:11:51Z</time>
      </trkpt>
      <trkpt lat="47.69602" lon="-2.23089">
        <ele>53.9</ele>
        <time>2021-05-27T10:11:52Z</time>
      </trkpt>
      <trkpt lat="47.69602" lon="-2.23093">
        <ele>54.1</ele>
        <time>2021-05-27T10:11:53Z</time>
      </trkpt>
      <trkpt lat="47.69601" lon="-2.23096">
        <ele>54.4</ele>
        <time>2021-05-27T10:11:54Z</time>
      </trkpt>
      <trkpt lat="47.69601" lon="-2.23099">
        <ele>54.6</ele>
        <time>2021-05-27T10:11:55Z</time>
      </trkpt>
      <trkpt lat="47.696" lon="-2.23102">
        <ele>55</ele>
        <time>2021-05-27T10:11:56Z</time>
      </trkpt>
      <trkpt lat="47.696" lon="-2.23104">
        <ele>55.1</ele>
        <time>2021-05-27T10:11:57Z</time>
      </trkpt>
      <trkpt lat="47.696" lon="-2.23106">
        <ele>55.3</ele>
        <time>2021-05-27T10:11:58Z</time>
      </trkpt>
      <trkpt lat="47.69599" lon="-2.23111">
        <ele>55.8</ele>
        <time>2021-05-27T10:11:59Z</time>
      </trkpt>
      <trkpt lat="47.69599" lon="-2.23115">
        <ele>56.1</ele>
        <time>2021-05-27T10:12:00Z</time>
      </trkpt>
      <trkpt lat="47.69598" lon="-2.23119">
        <ele>56.5</ele>
        <time>2021-05-27T10:12:01Z</time>
      </trkpt>
      <trkpt lat="47.69598" lon="-2.23122">
        <ele>56.7</ele>
        <time>2021-05-27T10:12:02Z</time>
      </trkpt>
      <trkpt lat="47.69598" lon="-2.23125">
        <ele>56.8</ele>
        <time>2021-05-27T10:12:03Z</time>
      </trkpt>
      <trkpt lat="47.69597" lon="-2.23127">
        <ele>57.3</ele>
        <time>2021-05-27T10:12:04Z</time>
      </trkpt>
      <trkpt lat="47.69596" lon="-2.2313">
        <ele>57.6</ele>
        <time>2021-05-27T10:12:05Z</time>
      </trkpt>
      <trkpt lat="47.69595" lon="-2.23134">
        <ele>58.2</ele>
        <time>2021-05-27T10:12:06Z</time>
      </trkpt>
      <trkpt lat="47.69594" lon="-2.23137">
        <ele>58.6</ele>
        <time>2021-05-27T10:12:07Z</time>
      </trkpt>
      <trkpt lat="47.69593" lon="-2.23139">
        <ele>58.9</ele>
        <time>2021-05-27T10:12:08Z</time>
      </trkpt>
      <trkpt lat="47.69592" lon="-2.23142">
        <ele>59.3</ele>
        <time>2021-05-27T10:12:09Z</time>
      </trkpt>
      <trkpt lat="47.69591" lon="-2.23144">
        <ele>59.6</ele>
        <time>2021-05-27T10:12:10Z</time>
      </trkpt>
      <trkpt lat="47.6959" lon="-2.23147">
        <ele>60.1</ele>
        <time>2021-05-27T10:12:11Z</time>
      </trkpt>
      <trkpt lat="47.6959" lon="-2.2315">
        <ele>60.3</ele>
        <time>2021-05-27T10:12:12Z</time>
      </trkpt>
      <trkpt lat="47.69589" lon="-2.23154">
        <ele>60.7</ele>
        <time>2021-05-27T10:12:13Z</time>
      </trkpt>
      <trkpt lat="47.6959" lon="-2.23158">
        <ele>60.8</ele>
        <time>2021-05-27T10:12:14Z</time>
      </trkpt>
      <trkpt lat="47.6959" lon="-2.23162">
        <ele>61</ele>
        <time>2021-05-27T10:12:15Z</time>
      </trkpt>
      <trkpt lat="47.6959" lon="-2.23165">
        <ele>61</ele>
        <time>2021-05-27T10:12:16Z</time>
      </trkpt>
      <trkpt lat="47.6959" lon="-2.23168">
        <ele>61.1</ele>
        <time>2021-05-27T10:12:17Z</time>
      </trkpt>
      <trkpt lat="47.6959" lon="-2.23171">
        <ele>61.4</ele>
        <time>2021-05-27T10:12:18Z</time>
      </trkpt>
      <trkpt lat="47.6959" lon="-2.23174">
        <ele>61.6</ele>
        <time>2021-05-27T10:12:19Z</time>
      </trkpt>
      <trkpt lat="47.69589" lon="-2.23177">
        <ele>61.9</ele>
        <time>2021-05-27T10:12:20Z</time>
      </trkpt>
      <trkpt lat="47.69588" lon="-2.2318">
        <ele>62.2</ele>
        <time>2021-05-27T10:12:21Z</time>
      </trkpt>
      <trkpt lat="47.69588" lon="-2.23182">
        <ele>62.4</ele>
        <time>2021-05-27T10:12:22Z</time>
      </trkpt>
      <trkpt lat="47.69587" lon="-2.23185">
        <ele>62.7</ele>
        <time>2021-05-27T10:12:23Z</time>
      </trkpt>
      <trkpt lat="47.69586" lon="-2.23188">
        <ele>63.1</ele>
        <time>2021-05-27T10:12:24Z</time>
      </trkpt>
      <trkpt lat="47.69585" lon="-2.23191">
        <ele>63.6</ele>
        <time>2021-05-27T10:12:25Z</time>
      </trkpt>
      <trkpt lat="47.69584" lon="-2.23194">
        <ele>63.9</ele>
        <time>2021-05-27T10:12:26Z</time>
      </trkpt>
      <trkpt lat="47.69583" lon="-2.23197">
        <ele>64.1</ele>
        <time>2021-05-27T10:12:27Z</time>
      </trkpt>
      <trkpt lat="47.69582" lon="-2.23201">
        <ele>64.4</ele>
        <time>2021-05-27T10:12:28Z</time>
      </trkpt>
      <trkpt lat="47.69581" lon="-2.23204">
        <ele>64.5</ele>
        <time>2021-05-27T10:12:29Z</time>
      </trkpt>
      <trkpt lat="47.6958" lon="-2.23206">
        <ele>64.7</ele>
        <time>2021-05-27T10:12:30Z</time>
      </trkpt>
      <trkpt lat="47.69579" lon="-2.23209">
        <ele>64.9</ele>
        <time>2021-05-27T10:12:31Z</time>
      </trkpt>
      <trkpt lat="47.69578" lon="-2.23213">
        <ele>65.1</ele>
        <time>2021-05-27T10:12:32Z</time>
      </trkpt>
      <trkpt lat="47.69576" lon="-2.23216">
        <ele>65.3</ele>
        <time>2021-05-27T10:12:33Z</time>
      </trkpt>
      <trkpt lat="47.69576" lon="-2.2322">
        <ele>65.5</ele>
        <time>2021-05-27T10:12:34Z</time>
      </trkpt>
      <trkpt lat="47.69576" lon="-2.23222">
        <ele>65.6</ele>
        <time>2021-05-27T10:12:35Z</time>
      </trkpt>
      <trkpt lat="47.69575" lon="-2.23225">
        <ele>65.7</ele>
        <time>2021-05-27T10:12:36Z</time>
      </trkpt>
      <trkpt lat="47.69575" lon="-2.23227">
        <ele>65.8</ele>
        <time>2021-05-27T10:12:37Z</time>
      </trkpt>
      <trkpt lat="47.69575" lon="-2.2323">
        <ele>65.9</ele>
        <time>2021-05-27T10:12:38Z</time>
      </trkpt>
      <trkpt lat="47.69574" lon="-2.23234">
        <ele>66.1</ele>
        <time>2021-05-27T10:12:39Z</time>
      </trkpt>
      <trkpt lat="47.69575" lon="-2.23236">
        <ele>66.1</ele>
        <time>2021-05-27T10:12:40Z</time>
      </trkpt>
      <trkpt lat="47.69573" lon="-2.2324">
        <ele>66.4</ele>
        <time>2021-05-27T10:12:41Z</time>
      </trkpt>
      <trkpt lat="47.69572" lon="-2.23243">
        <ele>66.6</ele>
        <time>2021-05-27T10:12:42Z</time>
      </trkpt>
      <trkpt lat="47.69571" lon="-2.23247">
        <ele>66.8</ele>
        <time>2021-05-27T10:12:43Z</time>
      </trkpt>
      <trkpt lat="47.69568" lon="-2.23251">
        <ele>67.1</ele>
        <time>2021-05-27T10:12:44Z</time>
      </trkpt>
      <trkpt lat="47.69565" lon="-2.23257">
        <ele>67.2</ele>
        <time>2021-05-27T10:12:45Z</time>
      </trkpt>
      <trkpt lat="47.69563" lon="-2.23261">
        <ele>67.2</ele>
        <time>2021-05-27T10:12:46Z</time>
      </trkpt>
      <trkpt lat="47.69561" lon="-2.23265">
        <ele>67.3</ele>
        <time>2021-05-27T10:12:47Z</time>
      </trkpt>
      <trkpt lat="47.69558" lon="-2.23269">
        <ele>67.4</ele>
        <time>2021-05-27T10:12:48Z</time>
      </trkpt>
      <trkpt lat="47.69556" lon="-2.23276">
        <ele>67.5</ele>
        <time>2021-05-27T10:12:49Z</time>
      </trkpt>
      <trkpt lat="47.69553" lon="-2.23279">
        <ele>67.6</ele>
        <time>2021-05-27T10:12:50Z</time>
      </trkpt>
      <trkpt lat="47.69551" lon="-2.23283">
        <ele>67.7</ele>
        <time>2021-05-27T10:12:51Z</time>
      </trkpt>
      <trkpt lat="47.69549" lon="-2.23286">
        <ele>67.9</ele>
        <time>2021-05-27T10:12:52Z</time>
      </trkpt>
      <trkpt lat="47.69548" lon="-2.23288">
        <ele>68</ele>
        <time>2021-05-27T10:12:53Z</time>
      </trkpt>
      <trkpt lat="47.69546" lon="-2.23291">
        <ele>68.1</ele>
        <time>2021-05-27T10:12:54Z</time>
      </trkpt>
      <trkpt lat="47.69544" lon="-2.23294">
        <ele>68.3</ele>
        <time>2021-05-27T10:12:55Z</time>
      </trkpt>
      <trkpt lat="47.69542" lon="-2.23296">
        <ele>68.4</ele>
        <time>2021-05-27T10:12:56Z</time>
      </trkpt>
      <trkpt lat="47.6954" lon="-2.23299">
        <ele>68.6</ele>
        <time>2021-05-27T10:12:57Z</time>
      </trkpt>
      <trkpt lat="47.69537" lon="-2.23301">
        <ele>68.9</ele>
        <time>2021-05-27T10:12:58Z</time>
      </trkpt>
      <trkpt lat="47.69534" lon="-2.23303">
        <ele>69.1</ele>
        <time>2021-05-27T10:12:59Z</time>
      </trkpt>
      <trkpt lat="47.69532" lon="-2.23304">
        <ele>69.3</ele>
        <time>2021-05-27T10:13:00Z</time>
      </trkpt>
      <trkpt lat="47.6953" lon="-2.23306">
        <ele>69.5</ele>
        <time>2021-05-27T10:13:01Z</time>
      </trkpt>
      <trkpt lat="47.69529" lon="-2.23308">
        <ele>69.6</ele>
        <time>2021-05-27T10:13:02Z</time>
      </trkpt>
      <trkpt lat="47.69528" lon="-2.23311">
        <ele>69.8</ele>
        <time>2021-05-27T10:13:03Z</time>
      </trkpt>
      <trkpt lat="47.69526" lon="-2.23313">
        <ele>70</ele>
        <time>2021-05-27T10:13:04Z</time>
      </trkpt>
      <trkpt lat="47.69523" lon="-2.23315">
        <ele>70.3</ele>
        <time>2021-05-27T10:13:05Z</time>
      </trkpt>
      <trkpt lat="47.6952" lon="-2.23317">
        <ele>70.6</ele>
        <time>2021-05-27T10:13:06Z</time>
      </trkpt>
      <trkpt lat="47.69517" lon="-2.23318">
        <ele>70.9</ele>
        <time>2021-05-27T10:13:07Z</time>
      </trkpt>
      <trkpt lat="47.69515" lon="-2.2332">
        <ele>71.2</ele>
        <time>2021-05-27T10:13:08Z</time>
      </trkpt>
      <trkpt lat="47.69512" lon="-2.23322">
        <ele>71.5</ele>
        <time>2021-05-27T10:13:09Z</time>
      </trkpt>
      <trkpt lat="47.69508" lon="-2.23325">
        <ele>72</ele>
        <time>2021-05-27T10:13:10Z</time>
      </trkpt>
      <trkpt lat="47.69505" lon="-2.23327">
        <ele>72.3</ele>
        <time>2021-05-27T10:13:11Z</time>
      </trkpt>
      <trkpt lat="47.69503" lon="-2.23329">
        <ele>72.7</ele>
        <time>2021-05-27T10:13:12Z</time>
      </trkpt>
      <trkpt lat="47.69499" lon="-2.23332">
        <ele>73</ele>
        <time>2021-05-27T10:13:13Z</time>
      </trkpt>
      <trkpt lat="47.69496" lon="-2.23334">
        <ele>73</ele>
        <time>2021-05-27T10:13:14Z</time>
      </trkpt>
      <trkpt lat="47.69494" lon="-2.23336">
        <ele>73</ele>
        <time>2021-05-27T10:13:15Z</time>
      </trkpt>
      <trkpt lat="47.69492" lon="-2.23339">
        <ele>72.9</ele>
        <time>2021-05-27T10:13:16Z</time>
      </trkpt>
      <trkpt lat="47.6949" lon="-2.23341">
        <ele>72.9</ele>
        <time>2021-05-27T10:13:17Z</time>
      </trkpt>
      <trkpt lat="47.69488" lon="-2.23342">
        <ele>72.8</ele>
        <time>2021-05-27T10:13:18Z</time>
      </trkpt>
      <trkpt lat="47.69486" lon="-2.23343">
        <ele>72.8</ele>
        <time>2021-05-27T10:13:19Z</time>
      </trkpt>
      <trkpt lat="47.69484" lon="-2.23344">
        <ele>72.8</ele>
        <time>2021-05-27T10:13:20Z</time>
      </trkpt>
      <trkpt lat="47.69483" lon="-2.23344">
        <ele>72.8</ele>
        <time>2021-05-27T10:13:21Z</time>
      </trkpt>
      <trkpt lat="47.69481" lon="-2.23345">
        <ele>72.8</ele>
        <time>2021-05-27T10:13:22Z</time>
      </trkpt>
      <trkpt lat="47.69479" lon="-2.23346">
        <ele>72.7</ele>
        <time>2021-05-27T10:13:23Z</time>
      </trkpt>
      <trkpt lat="47.69479" lon="-2.23347">
        <ele>72.7</ele>
        <time>2021-05-27T10:13:24Z</time>
      </trkpt>
      <trkpt lat="47.69479" lon="-2.23346">
        <ele>72.7</ele>
        <time>2021-05-27T10:13:25Z</time>
      </trkpt>
      <trkpt lat="47.69473" lon="-2.23345">
        <ele>72.7</ele>
        <time>2021-05-27T10:16:25Z</time>
      </trkpt>
      <trkpt lat="47.6947" lon="-2.23342">
        <ele>72.8</ele>
        <time>2021-05-27T10:16:26Z</time>
      </trkpt>
      <trkpt lat="47.69466" lon="-2.23341">
        <ele>72.8</ele>
        <time>2021-05-27T10:16:27Z</time>
      </trkpt>
      <trkpt lat="47.69462" lon="-2.23339">
        <ele>72.8</ele>
        <time>2021-05-27T10:16:28Z</time>
      </trkpt>
      <trkpt lat="47.69459" lon="-2.23338">
        <ele>72.9</ele>
        <time>2021-05-27T10:16:29Z</time>
      </trkpt>
      <trkpt lat="47.69455" lon="-2.23337">
        <ele>72.9</ele>
        <time>2021-05-27T10:16:30Z</time>
      </trkpt>
      <trkpt lat="47.69451" lon="-2.23335">
        <ele>72.9</ele>
        <time>2021-05-27T10:16:31Z</time>
      </trkpt>
      <trkpt lat="47.69448" lon="-2.23334">
        <ele>73</ele>
        <time>2021-05-27T10:16:32Z</time>
      </trkpt>
      <trkpt lat="47.69445" lon="-2.23331">
        <ele>73</ele>
        <time>2021-05-27T10:16:33Z</time>
      </trkpt>
      <trkpt lat="47.69442" lon="-2.23328">
        <ele>72.9</ele>
        <time>2021-05-27T10:16:34Z</time>
      </trkpt>
      <trkpt lat="47.69438" lon="-2.23326">
        <ele>72.8</ele>
        <time>2021-05-27T10:16:35Z</time>
      </trkpt>
      <trkpt lat="47.69435" lon="-2.23324">
        <ele>72.8</ele>
        <time>2021-05-27T10:16:36Z</time>
      </trkpt>
      <trkpt lat="47.69431" lon="-2.23323">
        <ele>72.8</ele>
        <time>2021-05-27T10:16:37Z</time>
      </trkpt>
      <trkpt lat="47.69428" lon="-2.23324">
        <ele>72.8</ele>
        <time>2021-05-27T10:16:38Z</time>
      </trkpt>
      <trkpt lat="47.69426" lon="-2.23326">
        <ele>72.8</ele>
        <time>2021-05-27T10:16:39Z</time>
      </trkpt>
      <trkpt lat="47.69423" lon="-2.2333">
        <ele>72.9</ele>
        <time>2021-05-27T10:16:40Z</time>
      </trkpt>
      <trkpt lat="47.69421" lon="-2.23334">
        <ele>73</ele>
        <time>2021-05-27T10:16:41Z</time>
      </trkpt>
      <trkpt lat="47.6942" lon="-2.23338">
        <ele>72.8</ele>
        <time>2021-05-27T10:16:42Z</time>
      </trkpt>
      <trkpt lat="47.69419" lon="-2.23342">
        <ele>72.6</ele>
        <time>2021-05-27T10:16:43Z</time>
      </trkpt>
      <trkpt lat="47.6942" lon="-2.23345">
        <ele>72.5</ele>
        <time>2021-05-27T10:16:44Z</time>
      </trkpt>
      <trkpt lat="47.69421" lon="-2.23348">
        <ele>72.3</ele>
        <time>2021-05-27T10:16:45Z</time>
      </trkpt>
      <trkpt lat="47.69423" lon="-2.23351">
        <ele>72.2</ele>
        <time>2021-05-27T10:16:46Z</time>
      </trkpt>
      <trkpt lat="47.69424" lon="-2.23355">
        <ele>72</ele>
        <time>2021-05-27T10:16:47Z</time>
      </trkpt>
      <trkpt lat="47.69425" lon="-2.23358">
        <ele>71.9</ele>
        <time>2021-05-27T10:16:48Z</time>
      </trkpt>
      <trkpt lat="47.69425" lon="-2.23362">
        <ele>71.7</ele>
        <time>2021-05-27T10:16:49Z</time>
      </trkpt>
      <trkpt lat="47.69424" lon="-2.23365">
        <ele>71.6</ele>
        <time>2021-05-27T10:16:50Z</time>
      </trkpt>
      <trkpt lat="47.69423" lon="-2.23368">
        <ele>71.4</ele>
        <time>2021-05-27T10:16:51Z</time>
      </trkpt>
      <trkpt lat="47.69421" lon="-2.23373">
        <ele>71.2</ele>
        <time>2021-05-27T10:16:52Z</time>
      </trkpt>
      <trkpt lat="47.69421" lon="-2.23376">
        <ele>71.1</ele>
        <time>2021-05-27T10:16:53Z</time>
      </trkpt>
      <trkpt lat="47.6942" lon="-2.23379">
        <ele>70.9</ele>
        <time>2021-05-27T10:16:54Z</time>
      </trkpt>
      <trkpt lat="47.6942" lon="-2.2338">
        <ele>70.8</ele>
        <time>2021-05-27T10:16:55Z</time>
      </trkpt>
      <trkpt lat="47.69422" lon="-2.23384">
        <ele>70.7</ele>
        <time>2021-05-27T10:16:56Z</time>
      </trkpt>
      <trkpt lat="47.69422" lon="-2.23388">
        <ele>70.5</ele>
        <time>2021-05-27T10:16:57Z</time>
      </trkpt>
      <trkpt lat="47.69422" lon="-2.23392">
        <ele>70.3</ele>
        <time>2021-05-27T10:16:58Z</time>
      </trkpt>
      <trkpt lat="47.69421" lon="-2.23395">
        <ele>70.1</ele>
        <time>2021-05-27T10:16:59Z</time>
      </trkpt>
      <trkpt lat="47.69419" lon="-2.23399">
        <ele>69.9</ele>
        <time>2021-05-27T10:17:00Z</time>
      </trkpt>
      <trkpt lat="47.69417" lon="-2.23401">
        <ele>69.8</ele>
        <time>2021-05-27T10:17:01Z</time>
      </trkpt>
      <trkpt lat="47.69414" lon="-2.23404">
        <ele>69.5</ele>
        <time>2021-05-27T10:17:02Z</time>
      </trkpt>
      <trkpt lat="47.69411" lon="-2.23408">
        <ele>69.1</ele>
        <time>2021-05-27T10:17:03Z</time>
      </trkpt>
      <trkpt lat="47.69409" lon="-2.23412">
        <ele>68.8</ele>
        <time>2021-05-27T10:17:04Z</time>
      </trkpt>
      <trkpt lat="47.69408" lon="-2.23417">
        <ele>68.6</ele>
        <time>2021-05-27T10:17:05Z</time>
      </trkpt>
      <trkpt lat="47.69408" lon="-2.23422">
        <ele>68.6</ele>
        <time>2021-05-27T10:17:06Z</time>
      </trkpt>
      <trkpt lat="47.69408" lon="-2.23427">
        <ele>68.7</ele>
        <time>2021-05-27T10:17:07Z</time>
      </trkpt>
      <trkpt lat="47.6941" lon="-2.2343">
        <ele>68.9</ele>
        <time>2021-05-27T10:17:08Z</time>
      </trkpt>
      <trkpt lat="47.69412" lon="-2.23432">
        <ele>69</ele>
        <time>2021-05-27T10:17:09Z</time>
      </trkpt>
      <trkpt lat="47.69415" lon="-2.23433">
        <ele>69.1</ele>
        <time>2021-05-27T10:17:10Z</time>
      </trkpt>
      <trkpt lat="47.69416" lon="-2.23433">
        <ele>69.2</ele>
        <time>2021-05-27T10:17:11Z</time>
      </trkpt>
      <trkpt lat="47.69419" lon="-2.23432">
        <ele>69.3</ele>
        <time>2021-05-27T10:17:12Z</time>
      </trkpt>
      <trkpt lat="47.69422" lon="-2.23433">
        <ele>69.4</ele>
        <time>2021-05-27T10:17:13Z</time>
      </trkpt>
      <trkpt lat="47.69423" lon="-2.23435">
        <ele>69.5</ele>
        <time>2021-05-27T10:17:14Z</time>
      </trkpt>
      <trkpt lat="47.69424" lon="-2.23436">
        <ele>69.5</ele>
        <time>2021-05-27T10:17:15Z</time>
      </trkpt>
      <trkpt lat="47.69424" lon="-2.23439">
        <ele>69.5</ele>
        <time>2021-05-27T10:17:16Z</time>
      </trkpt>
      <trkpt lat="47.69423" lon="-2.23444">
        <ele>69.5</ele>
        <time>2021-05-27T10:17:17Z</time>
      </trkpt>
      <trkpt lat="47.69422" lon="-2.23448">
        <ele>69.6</ele>
        <time>2021-05-27T10:17:18Z</time>
      </trkpt>
      <trkpt lat="47.69422" lon="-2.23453">
        <ele>69.6</ele>
        <time>2021-05-27T10:17:19Z</time>
      </trkpt>
      <trkpt lat="47.69422" lon="-2.23458">
        <ele>69.7</ele>
        <time>2021-05-27T10:17:20Z</time>
      </trkpt>
      <trkpt lat="47.69424" lon="-2.23463">
        <ele>69.8</ele>
        <time>2021-05-27T10:17:21Z</time>
      </trkpt>
      <trkpt lat="47.69426" lon="-2.23466">
        <ele>69.9</ele>
        <time>2021-05-27T10:17:22Z</time>
      </trkpt>
      <trkpt lat="47.69429" lon="-2.23467">
        <ele>70</ele>
        <time>2021-05-27T10:17:23Z</time>
      </trkpt>
      <trkpt lat="47.69431" lon="-2.23469">
        <ele>70.1</ele>
        <time>2021-05-27T10:17:24Z</time>
      </trkpt>
      <trkpt lat="47.69433" lon="-2.23472">
        <ele>70.3</ele>
        <time>2021-05-27T10:17:25Z</time>
      </trkpt>
      <trkpt lat="47.69435" lon="-2.23476">
        <ele>70.4</ele>
        <time>2021-05-27T10:17:26Z</time>
      </trkpt>
      <trkpt lat="47.69438" lon="-2.23478">
        <ele>70.5</ele>
        <time>2021-05-27T10:17:27Z</time>
      </trkpt>
      <trkpt lat="47.69441" lon="-2.23477">
        <ele>70.6</ele>
        <time>2021-05-27T10:17:28Z</time>
      </trkpt>
      <trkpt lat="47.69444" lon="-2.23477">
        <ele>70.7</ele>
        <time>2021-05-27T10:17:29Z</time>
      </trkpt>
      <trkpt lat="47.69448" lon="-2.23476">
        <ele>70.8</ele>
        <time>2021-05-27T10:17:30Z</time>
      </trkpt>
      <trkpt lat="47.69451" lon="-2.23477">
        <ele>71</ele>
        <time>2021-05-27T10:17:31Z</time>
      </trkpt>
      <trkpt lat="47.69454" lon="-2.2348">
        <ele>71.1</ele>
        <time>2021-05-27T10:17:32Z</time>
      </trkpt>
      <trkpt lat="47.69457" lon="-2.23483">
        <ele>71.2</ele>
        <time>2021-05-27T10:17:33Z</time>
      </trkpt>
      <trkpt lat="47.69459" lon="-2.23487">
        <ele>71.4</ele>
        <time>2021-05-27T10:17:34Z</time>
      </trkpt>
      <trkpt lat="47.6946" lon="-2.2349">
        <ele>71.5</ele>
        <time>2021-05-27T10:17:35Z</time>
      </trkpt>
      <trkpt lat="47.69461" lon="-2.23494">
        <ele>71.5</ele>
        <time>2021-05-27T10:17:36Z</time>
      </trkpt>
      <trkpt lat="47.6946" lon="-2.23497">
        <ele>71.5</ele>
        <time>2021-05-27T10:17:37Z</time>
      </trkpt>
      <trkpt lat="47.6946" lon="-2.23502">
        <ele>71.6</ele>
        <time>2021-05-27T10:17:38Z</time>
      </trkpt>
      <trkpt lat="47.69461" lon="-2.23506">
        <ele>71.6</ele>
        <time>2021-05-27T10:17:39Z</time>
      </trkpt>
      <trkpt lat="47.69461" lon="-2.23509">
        <ele>71.6</ele>
        <time>2021-05-27T10:17:40Z</time>
      </trkpt>
      <trkpt lat="47.69462" lon="-2.23511">
        <ele>71.6</ele>
        <time>2021-05-27T10:17:41Z</time>
      </trkpt>
      <trkpt lat="47.69462" lon="-2.23514">
        <ele>71.6</ele>
        <time>2021-05-27T10:17:42Z</time>
      </trkpt>
      <trkpt lat="47.69462" lon="-2.23516">
        <ele>71.6</ele>
        <time>2021-05-27T10:17:43Z</time>
      </trkpt>
      <trkpt lat="47.69462" lon="-2.23518">
        <ele>71.6</ele>
        <time>2021-05-27T10:17:44Z</time>
      </trkpt>
      <trkpt lat="47.69461" lon="-2.2352">
        <ele>71.6</ele>
        <time>2021-05-27T10:17:45Z</time>
      </trkpt>
      <trkpt lat="47.69458" lon="-2.23524">
        <ele>71.5</ele>
        <time>2021-05-27T10:17:46Z</time>
      </trkpt>
      <trkpt lat="47.69456" lon="-2.23529">
        <ele>71.4</ele>
        <time>2021-05-27T10:17:47Z</time>
      </trkpt>
      <trkpt lat="47.69454" lon="-2.23533">
        <ele>71.3</ele>
        <time>2021-05-27T10:17:48Z</time>
      </trkpt>
      <trkpt lat="47.69451" lon="-2.23537">
        <ele>71.3</ele>
        <time>2021-05-27T10:17:49Z</time>
      </trkpt>
      <trkpt lat="47.69449" lon="-2.23541">
        <ele>71.2</ele>
        <time>2021-05-27T10:17:50Z</time>
      </trkpt>
      <trkpt lat="47.69447" lon="-2.23544">
        <ele>71.1</ele>
        <time>2021-05-27T10:17:51Z</time>
      </trkpt>
      <trkpt lat="47.69444" lon="-2.23547">
        <ele>71</ele>
        <time>2021-05-27T10:17:52Z</time>
      </trkpt>
      <trkpt lat="47.69441" lon="-2.23549">
        <ele>70.9</ele>
        <time>2021-05-27T10:17:53Z</time>
      </trkpt>
      <trkpt lat="47.69439" lon="-2.23552">
        <ele>70.8</ele>
        <time>2021-05-27T10:17:54Z</time>
      </trkpt>
      <trkpt lat="47.69438" lon="-2.23556">
        <ele>70.8</ele>
        <time>2021-05-27T10:17:55Z</time>
      </trkpt>
      <trkpt lat="47.69437" lon="-2.2356">
        <ele>70.7</ele>
        <time>2021-05-27T10:17:56Z</time>
      </trkpt>
      <trkpt lat="47.69438" lon="-2.23565">
        <ele>70.8</ele>
        <time>2021-05-27T10:17:57Z</time>
      </trkpt>
      <trkpt lat="47.69438" lon="-2.23569">
        <ele>70.8</ele>
        <time>2021-05-27T10:17:58Z</time>
      </trkpt>
      <trkpt lat="47.69439" lon="-2.23573">
        <ele>70.8</ele>
        <time>2021-05-27T10:17:59Z</time>
      </trkpt>
      <trkpt lat="47.69441" lon="-2.23576">
        <ele>70.9</ele>
        <time>2021-05-27T10:18:00Z</time>
      </trkpt>
      <trkpt lat="47.69443" lon="-2.23579">
        <ele>70.9</ele>
        <time>2021-05-27T10:18:01Z</time>
      </trkpt>
      <trkpt lat="47.69445" lon="-2.23583">
        <ele>71</ele>
        <time>2021-05-27T10:18:02Z</time>
      </trkpt>
      <trkpt lat="47.69447" lon="-2.23587">
        <ele>71.1</ele>
        <time>2021-05-27T10:18:03Z</time>
      </trkpt>
      <trkpt lat="47.69448" lon="-2.23591">
        <ele>71.2</ele>
        <time>2021-05-27T10:18:04Z</time>
      </trkpt>
      <trkpt lat="47.6945" lon="-2.23595">
        <ele>71.3</ele>
        <time>2021-05-27T10:18:05Z</time>
      </trkpt>
      <trkpt lat="47.69453" lon="-2.23595">
        <ele>71.4</ele>
        <time>2021-05-27T10:18:06Z</time>
      </trkpt>
      <trkpt lat="47.69455" lon="-2.23594">
        <ele>71.5</ele>
        <time>2021-05-27T10:18:07Z</time>
      </trkpt>
      <trkpt lat="47.69458" lon="-2.23593">
        <ele>71.6</ele>
        <time>2021-05-27T10:18:08Z</time>
      </trkpt>
      <trkpt lat="47.69461" lon="-2.23595">
        <ele>71.7</ele>
        <time>2021-05-27T10:18:09Z</time>
      </trkpt>
      <trkpt lat="47.69463" lon="-2.23598">
        <ele>71.8</ele>
        <time>2021-05-27T10:18:10Z</time>
      </trkpt>
      <trkpt lat="47.69466" lon="-2.23602">
        <ele>71.9</ele>
        <time>2021-05-27T10:18:11Z</time>
      </trkpt>
      <trkpt lat="47.69468" lon="-2.23606">
        <ele>72</ele>
        <time>2021-05-27T10:18:12Z</time>
      </trkpt>
      <trkpt lat="47.69471" lon="-2.23609">
        <ele>72.2</ele>
        <time>2021-05-27T10:18:13Z</time>
      </trkpt>
      <trkpt lat="47.69473" lon="-2.23613">
        <ele>72.3</ele>
        <time>2021-05-27T10:18:14Z</time>
      </trkpt>
      <trkpt lat="47.69474" lon="-2.23617">
        <ele>72.3</ele>
        <time>2021-05-27T10:18:15Z</time>
      </trkpt>
      <trkpt lat="47.69474" lon="-2.23621">
        <ele>72.4</ele>
        <time>2021-05-27T10:18:16Z</time>
      </trkpt>
      <trkpt lat="47.69474" lon="-2.23626">
        <ele>72.4</ele>
        <time>2021-05-27T10:18:17Z</time>
      </trkpt>
      <trkpt lat="47.69474" lon="-2.23631">
        <ele>72.5</ele>
        <time>2021-05-27T10:18:18Z</time>
      </trkpt>
      <trkpt lat="47.69476" lon="-2.23637">
        <ele>72.6</ele>
        <time>2021-05-27T10:18:19Z</time>
      </trkpt>
      <trkpt lat="47.69477" lon="-2.23641">
        <ele>72.7</ele>
        <time>2021-05-27T10:18:20Z</time>
      </trkpt>
      <trkpt lat="47.69478" lon="-2.23644">
        <ele>72.7</ele>
        <time>2021-05-27T10:18:21Z</time>
      </trkpt>
      <trkpt lat="47.69478" lon="-2.23648">
        <ele>72.8</ele>
        <time>2021-05-27T10:18:22Z</time>
      </trkpt>
      <trkpt lat="47.69477" lon="-2.23653">
        <ele>72.8</ele>
        <time>2021-05-27T10:18:23Z</time>
      </trkpt>
      <trkpt lat="47.69475" lon="-2.23657">
        <ele>72.7</ele>
        <time>2021-05-27T10:18:24Z</time>
      </trkpt>
      <trkpt lat="47.69475" lon="-2.2366">
        <ele>72.8</ele>
        <time>2021-05-27T10:18:25Z</time>
      </trkpt>
      <trkpt lat="47.69476" lon="-2.23665">
        <ele>72.8</ele>
        <time>2021-05-27T10:18:26Z</time>
      </trkpt>
      <trkpt lat="47.69477" lon="-2.2367">
        <ele>72.8</ele>
        <time>2021-05-27T10:18:27Z</time>
      </trkpt>
      <trkpt lat="47.69477" lon="-2.23674">
        <ele>72.7</ele>
        <time>2021-05-27T10:18:28Z</time>
      </trkpt>
      <trkpt lat="47.69477" lon="-2.23679">
        <ele>72.5</ele>
        <time>2021-05-27T10:18:29Z</time>
      </trkpt>
      <trkpt lat="47.69477" lon="-2.23685">
        <ele>72.3</ele>
        <time>2021-05-27T10:18:30Z</time>
      </trkpt>
      <trkpt lat="47.69478" lon="-2.2369">
        <ele>72.2</ele>
        <time>2021-05-27T10:18:31Z</time>
      </trkpt>
      <trkpt lat="47.69479" lon="-2.23695">
        <ele>72.1</ele>
        <time>2021-05-27T10:18:32Z</time>
      </trkpt>
      <trkpt lat="47.69478" lon="-2.23698">
        <ele>71.9</ele>
        <time>2021-05-27T10:18:33Z</time>
      </trkpt>
      <trkpt lat="47.69476" lon="-2.23702">
        <ele>71.7</ele>
        <time>2021-05-27T10:18:34Z</time>
      </trkpt>
      <trkpt lat="47.69475" lon="-2.23706">
        <ele>71.5</ele>
        <time>2021-05-27T10:18:35Z</time>
      </trkpt>
      <trkpt lat="47.69473" lon="-2.23708">
        <ele>71.4</ele>
        <time>2021-05-27T10:18:36Z</time>
      </trkpt>
      <trkpt lat="47.69471" lon="-2.23711">
        <ele>71.2</ele>
        <time>2021-05-27T10:18:37Z</time>
      </trkpt>
      <trkpt lat="47.69469" lon="-2.23715">
        <ele>71</ele>
        <time>2021-05-27T10:18:38Z</time>
      </trkpt>
      <trkpt lat="47.69468" lon="-2.23719">
        <ele>70.8</ele>
        <time>2021-05-27T10:18:39Z</time>
      </trkpt>
      <trkpt lat="47.69469" lon="-2.23723">
        <ele>70.7</ele>
        <time>2021-05-27T10:18:40Z</time>
      </trkpt>
      <trkpt lat="47.6947" lon="-2.23726">
        <ele>70.7</ele>
        <time>2021-05-27T10:18:41Z</time>
      </trkpt>
      <trkpt lat="47.69472" lon="-2.2373">
        <ele>70.6</ele>
        <time>2021-05-27T10:18:42Z</time>
      </trkpt>
      <trkpt lat="47.69473" lon="-2.23734">
        <ele>70.5</ele>
        <time>2021-05-27T10:18:43Z</time>
      </trkpt>
      <trkpt lat="47.69475" lon="-2.23739">
        <ele>70.5</ele>
        <time>2021-05-27T10:18:44Z</time>
      </trkpt>
      <trkpt lat="47.69476" lon="-2.23743">
        <ele>70.4</ele>
        <time>2021-05-27T10:18:45Z</time>
      </trkpt>
      <trkpt lat="47.69477" lon="-2.23748">
        <ele>70.3</ele>
        <time>2021-05-27T10:18:46Z</time>
      </trkpt>
      <trkpt lat="47.69479" lon="-2.23752">
        <ele>70.2</ele>
        <time>2021-05-27T10:18:47Z</time>
      </trkpt>
      <trkpt lat="47.6948" lon="-2.23756">
        <ele>70.2</ele>
        <time>2021-05-27T10:18:48Z</time>
      </trkpt>
      <trkpt lat="47.69481" lon="-2.2376">
        <ele>70.2</ele>
        <time>2021-05-27T10:18:49Z</time>
      </trkpt>
      <trkpt lat="47.69481" lon="-2.23764">
        <ele>70.2</ele>
        <time>2021-05-27T10:18:50Z</time>
      </trkpt>
      <trkpt lat="47.69482" lon="-2.23766">
        <ele>70.2</ele>
        <time>2021-05-27T10:18:51Z</time>
      </trkpt>
      <trkpt lat="47.69485" lon="-2.23769">
        <ele>70.2</ele>
        <time>2021-05-27T10:18:52Z</time>
      </trkpt>
      <trkpt lat="47.69487" lon="-2.23771">
        <ele>70.3</ele>
        <time>2021-05-27T10:18:53Z</time>
      </trkpt>
      <trkpt lat="47.69491" lon="-2.23774">
        <ele>70.4</ele>
        <time>2021-05-27T10:18:54Z</time>
      </trkpt>
      <trkpt lat="47.69495" lon="-2.23779">
        <ele>70.5</ele>
        <time>2021-05-27T10:18:55Z</time>
      </trkpt>
      <trkpt lat="47.69499" lon="-2.23783">
        <ele>70.6</ele>
        <time>2021-05-27T10:18:56Z</time>
      </trkpt>
      <trkpt lat="47.69502" lon="-2.23787">
        <ele>70.6</ele>
        <time>2021-05-27T10:18:57Z</time>
      </trkpt>
      <trkpt lat="47.69503" lon="-2.23791">
        <ele>70.6</ele>
        <time>2021-05-27T10:18:58Z</time>
      </trkpt>
      <trkpt lat="47.69504" lon="-2.23794">
        <ele>70.6</ele>
        <time>2021-05-27T10:18:59Z</time>
      </trkpt>
      <trkpt lat="47.69504" lon="-2.23795">
        <ele>70.6</ele>
        <time>2021-05-27T10:19:00Z</time>
      </trkpt>
      <trkpt lat="47.69504" lon="-2.23796">
        <ele>70.6</ele>
        <time>2021-05-27T10:19:01Z</time>
      </trkpt>
      <trkpt lat="47.69504" lon="-2.23796">
        <ele>70.6</ele>
        <time>2021-05-27T10:19:02Z</time>
      </trkpt>
      <trkpt lat="47.69504" lon="-2.23796">
        <ele>70.6</ele>
        <time>2021-05-27T10:19:03Z</time>
      </trkpt>
      <trkpt lat="47.69504" lon="-2.23796">
        <ele>70.6</ele>
        <time>2021-05-27T10:19:04Z</time>
      </trkpt>
      <trkpt lat="47.69504" lon="-2.23796">
        <ele>70.6</ele>
        <time>2021-05-27T10:19:05Z</time>
      </trkpt>
      <trkpt lat="47.69508" lon="-2.23795">
        <ele>70.7</ele>
        <time>2021-05-27T10:19:06Z</time>
      </trkpt>
      <trkpt lat="47.6951" lon="-2.23792">
        <ele>70.8</ele>
        <time>2021-05-27T10:19:07Z</time>
      </trkpt>
      <trkpt lat="47.69511" lon="-2.23791">
        <ele>70.9</ele>
        <time>2021-05-27T10:19:08Z</time>
      </trkpt>
      <trkpt lat="47.69513" lon="-2.23789">
        <ele>70.9</ele>
        <time>2021-05-27T10:19:09Z</time>
      </trkpt>
      <trkpt lat="47.69514" lon="-2.23785">
        <ele>71</ele>
        <time>2021-05-27T10:19:10Z</time>
      </trkpt>
      <trkpt lat="47.69516" lon="-2.23781">
        <ele>71.1</ele>
        <time>2021-05-27T10:19:11Z</time>
      </trkpt>
      <trkpt lat="47.69518" lon="-2.23778">
        <ele>71.2</ele>
        <time>2021-05-27T10:19:12Z</time>
      </trkpt>
      <trkpt lat="47.69521" lon="-2.23773">
        <ele>71.4</ele>
        <time>2021-05-27T10:19:13Z</time>
      </trkpt>
      <trkpt lat="47.69525" lon="-2.23771">
        <ele>71.6</ele>
        <time>2021-05-27T10:19:14Z</time>
      </trkpt>
      <trkpt lat="47.69531" lon="-2.23768">
        <ele>71.8</ele>
        <time>2021-05-27T10:19:15Z</time>
      </trkpt>
      <trkpt lat="47.69534" lon="-2.23765">
        <ele>72</ele>
        <time>2021-05-27T10:19:16Z</time>
      </trkpt>
      <trkpt lat="47.69539" lon="-2.2376">
        <ele>72.2</ele>
        <time>2021-05-27T10:19:17Z</time>
      </trkpt>
      <trkpt lat="47.69541" lon="-2.23756">
        <ele>72.4</ele>
        <time>2021-05-27T10:19:18Z</time>
      </trkpt>
      <trkpt lat="47.69543" lon="-2.2375">
        <ele>72.5</ele>
        <time>2021-05-27T10:19:19Z</time>
      </trkpt>
      <trkpt lat="47.69543" lon="-2.23745">
        <ele>72.7</ele>
        <time>2021-05-27T10:19:20Z</time>
      </trkpt>
      <trkpt lat="47.69544" lon="-2.2374">
        <ele>72.8</ele>
        <time>2021-05-27T10:19:21Z</time>
      </trkpt>
      <trkpt lat="47.69545" lon="-2.23734">
        <ele>73</ele>
        <time>2021-05-27T10:19:22Z</time>
      </trkpt>
      <trkpt lat="47.69546" lon="-2.23729">
        <ele>73.2</ele>
        <time>2021-05-27T10:19:23Z</time>
      </trkpt>
      <trkpt lat="47.69547" lon="-2.23722">
        <ele>73.3</ele>
        <time>2021-05-27T10:19:24Z</time>
      </trkpt>
      <trkpt lat="47.69547" lon="-2.23717">
        <ele>73.4</ele>
        <time>2021-05-27T10:19:25Z</time>
      </trkpt>
      <trkpt lat="47.69547" lon="-2.23711">
        <ele>73.6</ele>
        <time>2021-05-27T10:19:26Z</time>
      </trkpt>
      <trkpt lat="47.69548" lon="-2.23705">
        <ele>73.7</ele>
        <time>2021-05-27T10:19:27Z</time>
      </trkpt>
      <trkpt lat="47.6955" lon="-2.23699">
        <ele>73.9</ele>
        <time>2021-05-27T10:19:28Z</time>
      </trkpt>
      <trkpt lat="47.69551" lon="-2.23692">
        <ele>74.1</ele>
        <time>2021-05-27T10:19:29Z</time>
      </trkpt>
      <trkpt lat="47.69554" lon="-2.23687">
        <ele>74.2</ele>
        <time>2021-05-27T10:19:30Z</time>
      </trkpt>
      <trkpt lat="47.69556" lon="-2.23681">
        <ele>74.4</ele>
        <time>2021-05-27T10:19:31Z</time>
      </trkpt>
      <trkpt lat="47.69559" lon="-2.23676">
        <ele>74.5</ele>
        <time>2021-05-27T10:19:32Z</time>
      </trkpt>
      <trkpt lat="47.69561" lon="-2.2367">
        <ele>74.7</ele>
        <time>2021-05-27T10:19:33Z</time>
      </trkpt>
      <trkpt lat="47.69562" lon="-2.23665">
        <ele>74.7</ele>
        <time>2021-05-27T10:19:34Z</time>
      </trkpt>
      <trkpt lat="47.69563" lon="-2.23659">
        <ele>74.6</ele>
        <time>2021-05-27T10:19:35Z</time>
      </trkpt>
      <trkpt lat="47.69563" lon="-2.23653">
        <ele>74.5</ele>
        <time>2021-05-27T10:19:36Z</time>
      </trkpt>
      <trkpt lat="47.69563" lon="-2.23646">
        <ele>74.3</ele>
        <time>2021-05-27T10:19:37Z</time>
      </trkpt>
      <trkpt lat="47.69564" lon="-2.23639">
        <ele>74.2</ele>
        <time>2021-05-27T10:19:38Z</time>
      </trkpt>
      <trkpt lat="47.69566" lon="-2.23633">
        <ele>74.1</ele>
        <time>2021-05-27T10:19:39Z</time>
      </trkpt>
      <trkpt lat="47.69567" lon="-2.23627">
        <ele>73.9</ele>
        <time>2021-05-27T10:19:40Z</time>
      </trkpt>
      <trkpt lat="47.69568" lon="-2.23619">
        <ele>73.8</ele>
        <time>2021-05-27T10:19:41Z</time>
      </trkpt>
      <trkpt lat="47.69569" lon="-2.23612">
        <ele>73.6</ele>
        <time>2021-05-27T10:19:42Z</time>
      </trkpt>
      <trkpt lat="47.69571" lon="-2.23605">
        <ele>73.5</ele>
        <time>2021-05-27T10:19:43Z</time>
      </trkpt>
      <trkpt lat="47.69573" lon="-2.23599">
        <ele>73.3</ele>
        <time>2021-05-27T10:19:44Z</time>
      </trkpt>
      <trkpt lat="47.69575" lon="-2.23592">
        <ele>73.2</ele>
        <time>2021-05-27T10:19:45Z</time>
      </trkpt>
      <trkpt lat="47.69577" lon="-2.23585">
        <ele>73</ele>
        <time>2021-05-27T10:19:46Z</time>
      </trkpt>
      <trkpt lat="47.6958" lon="-2.23579">
        <ele>72.8</ele>
        <time>2021-05-27T10:19:47Z</time>
      </trkpt>
      <trkpt lat="47.69583" lon="-2.23572">
        <ele>72.6</ele>
        <time>2021-05-27T10:19:48Z</time>
      </trkpt>
      <trkpt lat="47.69586" lon="-2.23564">
        <ele>71.8</ele>
        <time>2021-05-27T10:19:49Z</time>
      </trkpt>
      <trkpt lat="47.69589" lon="-2.23557">
        <ele>71</ele>
        <time>2021-05-27T10:19:50Z</time>
      </trkpt>
      <trkpt lat="47.69592" lon="-2.23548">
        <ele>70.1</ele>
        <time>2021-05-27T10:19:51Z</time>
      </trkpt>
      <trkpt lat="47.69595" lon="-2.2354">
        <ele>69.3</ele>
        <time>2021-05-27T10:19:52Z</time>
      </trkpt>
      <trkpt lat="47.69598" lon="-2.23532">
        <ele>68.5</ele>
        <time>2021-05-27T10:19:53Z</time>
      </trkpt>
      <trkpt lat="47.69602" lon="-2.23523">
        <ele>67.5</ele>
        <time>2021-05-27T10:19:54Z</time>
      </trkpt>
      <trkpt lat="47.69606" lon="-2.23513">
        <ele>66.6</ele>
        <time>2021-05-27T10:19:55Z</time>
      </trkpt>
      <trkpt lat="47.6961" lon="-2.23503">
        <ele>65.6</ele>
        <time>2021-05-27T10:19:56Z</time>
      </trkpt>
      <trkpt lat="47.69613" lon="-2.23491">
        <ele>64.2</ele>
        <time>2021-05-27T10:19:57Z</time>
      </trkpt>
      <trkpt lat="47.69617" lon="-2.23479">
        <ele>62.5</ele>
        <time>2021-05-27T10:19:58Z</time>
      </trkpt>
      <trkpt lat="47.69621" lon="-2.23467">
        <ele>60.8</ele>
        <time>2021-05-27T10:19:59Z</time>
      </trkpt>
      <trkpt lat="47.69626" lon="-2.23456">
        <ele>59.2</ele>
        <time>2021-05-27T10:20:00Z</time>
      </trkpt>
      <trkpt lat="47.6963" lon="-2.23445">
        <ele>57.6</ele>
        <time>2021-05-27T10:20:01Z</time>
      </trkpt>
      <trkpt lat="47.69635" lon="-2.23436">
        <ele>56.1</ele>
        <time>2021-05-27T10:20:02Z</time>
      </trkpt>
      <trkpt lat="47.69639" lon="-2.23429">
        <ele>55</ele>
        <time>2021-05-27T10:20:03Z</time>
      </trkpt>
      <trkpt lat="47.69642" lon="-2.23423">
        <ele>54.1</ele>
        <time>2021-05-27T10:20:04Z</time>
      </trkpt>
      <trkpt lat="47.69644" lon="-2.23416">
        <ele>53.3</ele>
        <time>2021-05-27T10:20:05Z</time>
      </trkpt>
      <trkpt lat="47.69647" lon="-2.23408">
        <ele>52.4</ele>
        <time>2021-05-27T10:20:06Z</time>
      </trkpt>
      <trkpt lat="47.69648" lon="-2.23398">
        <ele>51.5</ele>
        <time>2021-05-27T10:20:07Z</time>
      </trkpt>
      <trkpt lat="47.69649" lon="-2.23388">
        <ele>50.6</ele>
        <time>2021-05-27T10:20:08Z</time>
      </trkpt>
      <trkpt lat="47.6965" lon="-2.23378">
        <ele>49.8</ele>
        <time>2021-05-27T10:20:09Z</time>
      </trkpt>
      <trkpt lat="47.69651" lon="-2.23369">
        <ele>49.2</ele>
        <time>2021-05-27T10:20:10Z</time>
      </trkpt>
      <trkpt lat="47.69651" lon="-2.23359">
        <ele>48.4</ele>
        <time>2021-05-27T10:20:11Z</time>
      </trkpt>
      <trkpt lat="47.69653" lon="-2.2335">
        <ele>47.5</ele>
        <time>2021-05-27T10:20:12Z</time>
      </trkpt>
      <trkpt lat="47.69655" lon="-2.23341">
        <ele>46.4</ele>
        <time>2021-05-27T10:20:13Z</time>
      </trkpt>
      <trkpt lat="47.69657" lon="-2.23335">
        <ele>45.5</ele>
        <time>2021-05-27T10:20:14Z</time>
      </trkpt>
      <trkpt lat="47.69658" lon="-2.23329">
        <ele>45</ele>
        <time>2021-05-27T10:20:15Z</time>
      </trkpt>
      <trkpt lat="47.69661" lon="-2.23324">
        <ele>44.5</ele>
        <time>2021-05-27T10:20:16Z</time>
      </trkpt>
      <trkpt lat="47.69663" lon="-2.2332">
        <ele>43.9</ele>
        <time>2021-05-27T10:20:17Z</time>
      </trkpt>
      <trkpt lat="47.69665" lon="-2.23316">
        <ele>43.5</ele>
        <time>2021-05-27T10:20:18Z</time>
      </trkpt>
      <trkpt lat="47.69665" lon="-2.23313">
        <ele>43.5</ele>
        <time>2021-05-27T10:20:19Z</time>
      </trkpt>
      <trkpt lat="47.69668" lon="-2.23315">
        <ele>42.7</ele>
        <time>2021-05-27T10:20:31Z</time>
      </trkpt>
      <trkpt lat="47.69671" lon="-2.23317">
        <ele>42.2</ele>
        <time>2021-05-27T10:20:32Z</time>
      </trkpt>
      <trkpt lat="47.69673" lon="-2.2332">
        <ele>41.7</ele>
        <time>2021-05-27T10:20:33Z</time>
      </trkpt>
      <trkpt lat="47.69675" lon="-2.23323">
        <ele>41.4</ele>
        <time>2021-05-27T10:20:34Z</time>
      </trkpt>
      <trkpt lat="47.69677" lon="-2.23326">
        <ele>41</ele>
        <time>2021-05-27T10:20:35Z</time>
      </trkpt>
      <trkpt lat="47.6968" lon="-2.23327">
        <ele>40.5</ele>
        <time>2021-05-27T10:20:36Z</time>
      </trkpt>
      <trkpt lat="47.69681" lon="-2.23329">
        <ele>40.1</ele>
        <time>2021-05-27T10:20:37Z</time>
      </trkpt>
      <trkpt lat="47.69684" lon="-2.23331">
        <ele>39.6</ele>
        <time>2021-05-27T10:20:38Z</time>
      </trkpt>
      <trkpt lat="47.69687" lon="-2.23333">
        <ele>39.1</ele>
        <time>2021-05-27T10:20:39Z</time>
      </trkpt>
      <trkpt lat="47.69689" lon="-2.23335">
        <ele>38.8</ele>
        <time>2021-05-27T10:20:40Z</time>
      </trkpt>
      <trkpt lat="47.69691" lon="-2.23338">
        <ele>38.5</ele>
        <time>2021-05-27T10:20:41Z</time>
      </trkpt>
      <trkpt lat="47.69695" lon="-2.23343">
        <ele>38.2</ele>
        <time>2021-05-27T10:20:42Z</time>
      </trkpt>
      <trkpt lat="47.69697" lon="-2.23348">
        <ele>37.9</ele>
        <time>2021-05-27T10:20:43Z</time>
      </trkpt>
      <trkpt lat="47.697" lon="-2.23353">
        <ele>37.6</ele>
        <time>2021-05-27T10:20:44Z</time>
      </trkpt>
      <trkpt lat="47.69703" lon="-2.23357">
        <ele>37.4</ele>
        <time>2021-05-27T10:20:45Z</time>
      </trkpt>
      <trkpt lat="47.69706" lon="-2.23363">
        <ele>36.9</ele>
        <time>2021-05-27T10:20:46Z</time>
      </trkpt>
      <trkpt lat="47.69708" lon="-2.23368">
        <ele>36.7</ele>
        <time>2021-05-27T10:20:47Z</time>
      </trkpt>
      <trkpt lat="47.69709" lon="-2.23374">
        <ele>36.7</ele>
        <time>2021-05-27T10:20:48Z</time>
      </trkpt>
      <trkpt lat="47.69709" lon="-2.23381">
        <ele>37</ele>
        <time>2021-05-27T10:20:49Z</time>
      </trkpt>
      <trkpt lat="47.6971" lon="-2.23387">
        <ele>37</ele>
        <time>2021-05-27T10:20:50Z</time>
      </trkpt>
      <trkpt lat="47.69711" lon="-2.23393">
        <ele>37.1</ele>
        <time>2021-05-27T10:20:51Z</time>
      </trkpt>
      <trkpt lat="47.69712" lon="-2.234">
        <ele>37.3</ele>
        <time>2021-05-27T10:20:52Z</time>
      </trkpt>
      <trkpt lat="47.69713" lon="-2.23408">
        <ele>37.5</ele>
        <time>2021-05-27T10:20:53Z</time>
      </trkpt>
      <trkpt lat="47.69713" lon="-2.23416">
        <ele>37.6</ele>
        <time>2021-05-27T10:20:54Z</time>
      </trkpt>
      <trkpt lat="47.69714" lon="-2.23423">
        <ele>37.7</ele>
        <time>2021-05-27T10:20:55Z</time>
      </trkpt>
      <trkpt lat="47.69714" lon="-2.23431">
        <ele>37.8</ele>
        <time>2021-05-27T10:20:56Z</time>
      </trkpt>
      <trkpt lat="47.69715" lon="-2.2344">
        <ele>37.8</ele>
        <time>2021-05-27T10:20:57Z</time>
      </trkpt>
      <trkpt lat="47.69716" lon="-2.23447">
        <ele>37.8</ele>
        <time>2021-05-27T10:20:58Z</time>
      </trkpt>
      <trkpt lat="47.69717" lon="-2.23455">
        <ele>37.7</ele>
        <time>2021-05-27T10:20:59Z</time>
      </trkpt>
      <trkpt lat="47.69717" lon="-2.23463">
        <ele>37.6</ele>
        <time>2021-05-27T10:21:00Z</time>
      </trkpt>
      <trkpt lat="47.69718" lon="-2.2347">
        <ele>37.5</ele>
        <time>2021-05-27T10:21:01Z</time>
      </trkpt>
      <trkpt lat="47.69719" lon="-2.23479">
        <ele>37.4</ele>
        <time>2021-05-27T10:21:02Z</time>
      </trkpt>
      <trkpt lat="47.6972" lon="-2.23487">
        <ele>37.2</ele>
        <time>2021-05-27T10:21:03Z</time>
      </trkpt>
      <trkpt lat="47.69722" lon="-2.23495">
        <ele>36.7</ele>
        <time>2021-05-27T10:21:04Z</time>
      </trkpt>
      <trkpt lat="47.69724" lon="-2.23503">
        <ele>36.2</ele>
        <time>2021-05-27T10:21:05Z</time>
      </trkpt>
      <trkpt lat="47.69725" lon="-2.23512">
        <ele>36</ele>
        <time>2021-05-27T10:21:06Z</time>
      </trkpt>
      <trkpt lat="47.69726" lon="-2.2352">
        <ele>35.8</ele>
        <time>2021-05-27T10:21:07Z</time>
      </trkpt>
      <trkpt lat="47.69727" lon="-2.23529">
        <ele>35.6</ele>
        <time>2021-05-27T10:21:08Z</time>
      </trkpt>
      <trkpt lat="47.69728" lon="-2.23538">
        <ele>35.3</ele>
        <time>2021-05-27T10:21:09Z</time>
      </trkpt>
      <trkpt lat="47.69729" lon="-2.23548">
        <ele>35.4</ele>
        <time>2021-05-27T10:21:10Z</time>
      </trkpt>
      <trkpt lat="47.6973" lon="-2.23558">
        <ele>35.3</ele>
        <time>2021-05-27T10:21:11Z</time>
      </trkpt>
      <trkpt lat="47.69729" lon="-2.23568">
        <ele>35.7</ele>
        <time>2021-05-27T10:21:12Z</time>
      </trkpt>
      <trkpt lat="47.6973" lon="-2.23577">
        <ele>35.7</ele>
        <time>2021-05-27T10:21:13Z</time>
      </trkpt>
      <trkpt lat="47.6973" lon="-2.23586">
        <ele>35.8</ele>
        <time>2021-05-27T10:21:14Z</time>
      </trkpt>
      <trkpt lat="47.6973" lon="-2.23595">
        <ele>35.8</ele>
        <time>2021-05-27T10:21:15Z</time>
      </trkpt>
      <trkpt lat="47.69732" lon="-2.23605">
        <ele>35.6</ele>
        <time>2021-05-27T10:21:16Z</time>
      </trkpt>
      <trkpt lat="47.69732" lon="-2.23614">
        <ele>35.7</ele>
        <time>2021-05-27T10:21:17Z</time>
      </trkpt>
      <trkpt lat="47.69732" lon="-2.23623">
        <ele>35.9</ele>
        <time>2021-05-27T10:21:18Z</time>
      </trkpt>
      <trkpt lat="47.69732" lon="-2.23632">
        <ele>35.9</ele>
        <time>2021-05-27T10:21:19Z</time>
      </trkpt>
      <trkpt lat="47.69733" lon="-2.23642">
        <ele>35.8</ele>
        <time>2021-05-27T10:21:20Z</time>
      </trkpt>
      <trkpt lat="47.69734" lon="-2.23651">
        <ele>35.6</ele>
        <time>2021-05-27T10:21:21Z</time>
      </trkpt>
      <trkpt lat="47.69735" lon="-2.23661">
        <ele>35.7</ele>
        <time>2021-05-27T10:21:22Z</time>
      </trkpt>
      <trkpt lat="47.69734" lon="-2.2367">
        <ele>36</ele>
        <time>2021-05-27T10:21:23Z</time>
      </trkpt>
      <trkpt lat="47.69734" lon="-2.2368">
        <ele>36.3</ele>
        <time>2021-05-27T10:21:24Z</time>
      </trkpt>
      <trkpt lat="47.69733" lon="-2.23689">
        <ele>37</ele>
        <time>2021-05-27T10:21:25Z</time>
      </trkpt>
      <trkpt lat="47.69733" lon="-2.23699">
        <ele>37.5</ele>
        <time>2021-05-27T10:21:26Z</time>
      </trkpt>
      <trkpt lat="47.69733" lon="-2.2371">
        <ele>37.8</ele>
        <time>2021-05-27T10:21:27Z</time>
      </trkpt>
      <trkpt lat="47.69732" lon="-2.2372">
        <ele>38.2</ele>
        <time>2021-05-27T10:21:28Z</time>
      </trkpt>
      <trkpt lat="47.69732" lon="-2.23731">
        <ele>38.6</ele>
        <time>2021-05-27T10:21:29Z</time>
      </trkpt>
      <trkpt lat="47.69732" lon="-2.23741">
        <ele>38.9</ele>
        <time>2021-05-27T10:21:30Z</time>
      </trkpt>
      <trkpt lat="47.69732" lon="-2.23751">
        <ele>39.2</ele>
        <time>2021-05-27T10:21:31Z</time>
      </trkpt>
      <trkpt lat="47.69732" lon="-2.2376">
        <ele>38.8</ele>
        <time>2021-05-27T10:21:32Z</time>
      </trkpt>
      <trkpt lat="47.69733" lon="-2.2377">
        <ele>38.1</ele>
        <time>2021-05-27T10:21:33Z</time>
      </trkpt>
      <trkpt lat="47.69733" lon="-2.23779">
        <ele>37.6</ele>
        <time>2021-05-27T10:21:34Z</time>
      </trkpt>
      <trkpt lat="47.69734" lon="-2.23788">
        <ele>36.7</ele>
        <time>2021-05-27T10:21:35Z</time>
      </trkpt>
      <trkpt lat="47.69734" lon="-2.23798">
        <ele>36.1</ele>
        <time>2021-05-27T10:21:36Z</time>
      </trkpt>
      <trkpt lat="47.69735" lon="-2.23807">
        <ele>35.3</ele>
        <time>2021-05-27T10:21:37Z</time>
      </trkpt>
      <trkpt lat="47.69735" lon="-2.23817">
        <ele>34.8</ele>
        <time>2021-05-27T10:21:38Z</time>
      </trkpt>
      <trkpt lat="47.69735" lon="-2.23827">
        <ele>34.4</ele>
        <time>2021-05-27T10:21:39Z</time>
      </trkpt>
      <trkpt lat="47.69735" lon="-2.23836">
        <ele>34</ele>
        <time>2021-05-27T10:21:40Z</time>
      </trkpt>
      <trkpt lat="47.69734" lon="-2.23846">
        <ele>33.8</ele>
        <time>2021-05-27T10:21:41Z</time>
      </trkpt>
      <trkpt lat="47.69734" lon="-2.23855">
        <ele>33.5</ele>
        <time>2021-05-27T10:21:42Z</time>
      </trkpt>
      <trkpt lat="47.69734" lon="-2.23864">
        <ele>33.4</ele>
        <time>2021-05-27T10:21:43Z</time>
      </trkpt>
      <trkpt lat="47.69733" lon="-2.23873">
        <ele>33</ele>
        <time>2021-05-27T10:21:44Z</time>
      </trkpt>
      <trkpt lat="47.69734" lon="-2.23883">
        <ele>32.4</ele>
        <time>2021-05-27T10:21:45Z</time>
      </trkpt>
      <trkpt lat="47.69734" lon="-2.23891">
        <ele>31.9</ele>
        <time>2021-05-27T10:21:46Z</time>
      </trkpt>
      <trkpt lat="47.69734" lon="-2.239">
        <ele>31.5</ele>
        <time>2021-05-27T10:21:47Z</time>
      </trkpt>
      <trkpt lat="47.69734" lon="-2.2391">
        <ele>31.2</ele>
        <time>2021-05-27T10:21:48Z</time>
      </trkpt>
      <trkpt lat="47.69734" lon="-2.2392">
        <ele>31</ele>
        <time>2021-05-27T10:21:49Z</time>
      </trkpt>
      <trkpt lat="47.69733" lon="-2.23928">
        <ele>30.8</ele>
        <time>2021-05-27T10:21:50Z</time>
      </trkpt>
      <trkpt lat="47.69733" lon="-2.23937">
        <ele>30.8</ele>
        <time>2021-05-27T10:21:51Z</time>
      </trkpt>
      <trkpt lat="47.69732" lon="-2.23947">
        <ele>30.9</ele>
        <time>2021-05-27T10:21:52Z</time>
      </trkpt>
      <trkpt lat="47.6973" lon="-2.23956">
        <ele>31.1</ele>
        <time>2021-05-27T10:21:53Z</time>
      </trkpt>
      <trkpt lat="47.69729" lon="-2.23967">
        <ele>31.4</ele>
        <time>2021-05-27T10:21:54Z</time>
      </trkpt>
      <trkpt lat="47.69727" lon="-2.23977">
        <ele>31.6</ele>
        <time>2021-05-27T10:21:55Z</time>
      </trkpt>
      <trkpt lat="47.69725" lon="-2.23987">
        <ele>32.1</ele>
        <time>2021-05-27T10:21:56Z</time>
      </trkpt>
      <trkpt lat="47.69724" lon="-2.23996">
        <ele>32.1</ele>
        <time>2021-05-27T10:21:57Z</time>
      </trkpt>
      <trkpt lat="47.69723" lon="-2.24005">
        <ele>32.4</ele>
        <time>2021-05-27T10:21:58Z</time>
      </trkpt>
      <trkpt lat="47.69722" lon="-2.24013">
        <ele>32.4</ele>
        <time>2021-05-27T10:21:59Z</time>
      </trkpt>
      <trkpt lat="47.6972" lon="-2.24022">
        <ele>32.6</ele>
        <time>2021-05-27T10:22:00Z</time>
      </trkpt>
      <trkpt lat="47.6972" lon="-2.2403">
        <ele>32.6</ele>
        <time>2021-05-27T10:22:01Z</time>
      </trkpt>
      <trkpt lat="47.6972" lon="-2.24039">
        <ele>32.4</ele>
        <time>2021-05-27T10:22:02Z</time>
      </trkpt>
      <trkpt lat="47.69719" lon="-2.24048">
        <ele>32.2</ele>
        <time>2021-05-27T10:22:03Z</time>
      </trkpt>
      <trkpt lat="47.69717" lon="-2.24057">
        <ele>32.6</ele>
        <time>2021-05-27T10:22:04Z</time>
      </trkpt>
      <trkpt lat="47.69716" lon="-2.24065">
        <ele>32.7</ele>
        <time>2021-05-27T10:22:05Z</time>
      </trkpt>
      <trkpt lat="47.69716" lon="-2.24074">
        <ele>32.5</ele>
        <time>2021-05-27T10:22:06Z</time>
      </trkpt>
      <trkpt lat="47.69715" lon="-2.24082">
        <ele>32.4</ele>
        <time>2021-05-27T10:22:07Z</time>
      </trkpt>
      <trkpt lat="47.69714" lon="-2.2409">
        <ele>32.9</ele>
        <time>2021-05-27T10:22:08Z</time>
      </trkpt>
      <trkpt lat="47.69713" lon="-2.24099">
        <ele>33.2</ele>
        <time>2021-05-27T10:22:09Z</time>
      </trkpt>
      <trkpt lat="47.69712" lon="-2.24108">
        <ele>33.4</ele>
        <time>2021-05-27T10:22:10Z</time>
      </trkpt>
      <trkpt lat="47.69712" lon="-2.24117">
        <ele>33.5</ele>
        <time>2021-05-27T10:22:11Z</time>
      </trkpt>
      <trkpt lat="47.69712" lon="-2.24126">
        <ele>33.4</ele>
        <time>2021-05-27T10:22:12Z</time>
      </trkpt>
      <trkpt lat="47.69711" lon="-2.24134">
        <ele>33.7</ele>
        <time>2021-05-27T10:22:13Z</time>
      </trkpt>
      <trkpt lat="47.69711" lon="-2.24142">
        <ele>33.9</ele>
        <time>2021-05-27T10:22:14Z</time>
      </trkpt>
      <trkpt lat="47.69711" lon="-2.24152">
        <ele>33.9</ele>
        <time>2021-05-27T10:22:15Z</time>
      </trkpt>
      <trkpt lat="47.69713" lon="-2.24163">
        <ele>33.4</ele>
        <time>2021-05-27T10:22:16Z</time>
      </trkpt>
      <trkpt lat="47.69715" lon="-2.24173">
        <ele>32.8</ele>
        <time>2021-05-27T10:22:17Z</time>
      </trkpt>
      <trkpt lat="47.69716" lon="-2.24183">
        <ele>32.3</ele>
        <time>2021-05-27T10:22:18Z</time>
      </trkpt>
      <trkpt lat="47.69717" lon="-2.24192">
        <ele>32</ele>
        <time>2021-05-27T10:22:19Z</time>
      </trkpt>
      <trkpt lat="47.69718" lon="-2.24199">
        <ele>31.7</ele>
        <time>2021-05-27T10:22:20Z</time>
      </trkpt>
      <trkpt lat="47.6972" lon="-2.24207">
        <ele>31.1</ele>
        <time>2021-05-27T10:22:21Z</time>
      </trkpt>
      <trkpt lat="47.69722" lon="-2.24214">
        <ele>30.6</ele>
        <time>2021-05-27T10:22:22Z</time>
      </trkpt>
      <trkpt lat="47.69723" lon="-2.2422">
        <ele>30.3</ele>
        <time>2021-05-27T10:22:23Z</time>
      </trkpt>
      <trkpt lat="47.69723" lon="-2.24226">
        <ele>30.3</ele>
        <time>2021-05-27T10:22:24Z</time>
      </trkpt>
      <trkpt lat="47.69723" lon="-2.24232">
        <ele>30.5</ele>
        <time>2021-05-27T10:22:25Z</time>
      </trkpt>
      <trkpt lat="47.69724" lon="-2.24236">
        <ele>30.4</ele>
        <time>2021-05-27T10:22:26Z</time>
      </trkpt>
      <trkpt lat="47.69724" lon="-2.2424">
        <ele>30.4</ele>
        <time>2021-05-27T10:22:27Z</time>
      </trkpt>
      <trkpt lat="47.69723" lon="-2.24244">
        <ele>30.6</ele>
        <time>2021-05-27T10:22:28Z</time>
      </trkpt>
      <trkpt lat="47.69722" lon="-2.24247">
        <ele>31.1</ele>
        <time>2021-05-27T10:22:29Z</time>
      </trkpt>
      <trkpt lat="47.6972" lon="-2.24248">
        <ele>31.8</ele>
        <time>2021-05-27T10:22:30Z</time>
      </trkpt>
      <trkpt lat="47.69719" lon="-2.2425">
        <ele>32</ele>
        <time>2021-05-27T10:22:31Z</time>
      </trkpt>
      <trkpt lat="47.69718" lon="-2.24252">
        <ele>32.3</ele>
        <time>2021-05-27T10:22:32Z</time>
      </trkpt>
      <trkpt lat="47.69718" lon="-2.24252">
        <ele>32.4</ele>
        <time>2021-05-27T10:22:33Z</time>
      </trkpt>
      <trkpt lat="47.69717" lon="-2.24251">
        <ele>32.5</ele>
        <time>2021-05-27T10:22:34Z</time>
      </trkpt>
      <trkpt lat="47.69717" lon="-2.24251">
        <ele>32.6</ele>
        <time>2021-05-27T10:22:35Z</time>
      </trkpt>
      <trkpt lat="47.69717" lon="-2.24249">
        <ele>32.8</ele>
        <time>2021-05-27T10:22:36Z</time>
      </trkpt>
      <trkpt lat="47.69716" lon="-2.24248">
        <ele>33.1</ele>
        <time>2021-05-27T10:22:37Z</time>
      </trkpt>
      <trkpt lat="47.69714" lon="-2.24247">
        <ele>33.6</ele>
        <time>2021-05-27T10:22:38Z</time>
      </trkpt>
      <trkpt lat="47.69713" lon="-2.24246">
        <ele>34</ele>
        <time>2021-05-27T10:22:39Z</time>
      </trkpt>
      <trkpt lat="47.69712" lon="-2.24245">
        <ele>34.2</ele>
        <time>2021-05-27T10:22:40Z</time>
      </trkpt>
      <trkpt lat="47.69711" lon="-2.24243">
        <ele>34.7</ele>
        <time>2021-05-27T10:22:41Z</time>
      </trkpt>
      <trkpt lat="47.69709" lon="-2.24242">
        <ele>35.3</ele>
        <time>2021-05-27T10:22:42Z</time>
      </trkpt>
      <trkpt lat="47.69707" lon="-2.2424">
        <ele>35.9</ele>
        <time>2021-05-27T10:22:43Z</time>
      </trkpt>
      <trkpt lat="47.69706" lon="-2.24238">
        <ele>36.2</ele>
        <time>2021-05-27T10:22:44Z</time>
      </trkpt>
      <trkpt lat="47.69705" lon="-2.24237">
        <ele>36.5</ele>
        <time>2021-05-27T10:22:45Z</time>
      </trkpt>
      <trkpt lat="47.69704" lon="-2.24236">
        <ele>36.7</ele>
        <time>2021-05-27T10:22:46Z</time>
      </trkpt>
      <trkpt lat="47.69704" lon="-2.24234">
        <ele>36.7</ele>
        <time>2021-05-27T10:22:47Z</time>
      </trkpt>
      <trkpt lat="47.69704" lon="-2.24231">
        <ele>36.9</ele>
        <time>2021-05-27T10:22:48Z</time>
      </trkpt>
      <trkpt lat="47.69703" lon="-2.24228">
        <ele>37</ele>
        <time>2021-05-27T10:22:49Z</time>
      </trkpt>
      <trkpt lat="47.69704" lon="-2.24226">
        <ele>36.9</ele>
        <time>2021-05-27T10:22:50Z</time>
      </trkpt>
      <trkpt lat="47.69704" lon="-2.24224">
        <ele>36.7</ele>
        <time>2021-05-27T10:22:51Z</time>
      </trkpt>
      <trkpt lat="47.69704" lon="-2.24221">
        <ele>36.7</ele>
        <time>2021-05-27T10:22:52Z</time>
      </trkpt>
      <trkpt lat="47.69704" lon="-2.24219">
        <ele>36.6</ele>
        <time>2021-05-27T10:22:53Z</time>
      </trkpt>
      <trkpt lat="47.69704" lon="-2.24215">
        <ele>36.7</ele>
        <time>2021-05-27T10:22:54Z</time>
      </trkpt>
      <trkpt lat="47.69704" lon="-2.24213">
        <ele>36.7</ele>
        <time>2021-05-27T10:22:55Z</time>
      </trkpt>
      <trkpt lat="47.69704" lon="-2.2421">
        <ele>36.7</ele>
        <time>2021-05-27T10:22:56Z</time>
      </trkpt>
      <trkpt lat="47.69704" lon="-2.24207">
        <ele>36.7</ele>
        <time>2021-05-27T10:22:57Z</time>
      </trkpt>
      <trkpt lat="47.69704" lon="-2.24204">
        <ele>36.7</ele>
        <time>2021-05-27T10:22:58Z</time>
      </trkpt>
      <trkpt lat="47.69704" lon="-2.24199">
        <ele>36.8</ele>
        <time>2021-05-27T10:22:59Z</time>
      </trkpt>
      <trkpt lat="47.69704" lon="-2.24196">
        <ele>36.8</ele>
        <time>2021-05-27T10:23:00Z</time>
      </trkpt>
      <trkpt lat="47.69703" lon="-2.24192">
        <ele>36.9</ele>
        <time>2021-05-27T10:23:01Z</time>
      </trkpt>
      <trkpt lat="47.69703" lon="-2.24188">
        <ele>37</ele>
        <time>2021-05-27T10:23:02Z</time>
      </trkpt>
      <trkpt lat="47.69702" lon="-2.24185">
        <ele>37.4</ele>
        <time>2021-05-27T10:23:03Z</time>
      </trkpt>
      <trkpt lat="47.69701" lon="-2.24182">
        <ele>37.7</ele>
        <time>2021-05-27T10:23:04Z</time>
      </trkpt>
      <trkpt lat="47.697" lon="-2.2418">
        <ele>38</ele>
        <time>2021-05-27T10:23:05Z</time>
      </trkpt>
      <trkpt lat="47.69699" lon="-2.24178">
        <ele>38.4</ele>
        <time>2021-05-27T10:23:06Z</time>
      </trkpt>
      <trkpt lat="47.69697" lon="-2.24176">
        <ele>39</ele>
        <time>2021-05-27T10:23:07Z</time>
      </trkpt>
      <trkpt lat="47.69696" lon="-2.24173">
        <ele>39.4</ele>
        <time>2021-05-27T10:23:08Z</time>
      </trkpt>
      <trkpt lat="47.69694" lon="-2.24171">
        <ele>40.2</ele>
        <time>2021-05-27T10:23:09Z</time>
      </trkpt>
      <trkpt lat="47.69694" lon="-2.24169">
        <ele>40.3</ele>
        <time>2021-05-27T10:23:10Z</time>
      </trkpt>
      <trkpt lat="47.69694" lon="-2.24167">
        <ele>40.2</ele>
        <time>2021-05-27T10:23:11Z</time>
      </trkpt>
      <trkpt lat="47.69694" lon="-2.24166">
        <ele>40.2</ele>
        <time>2021-05-27T10:23:12Z</time>
      </trkpt>
      <trkpt lat="47.69692" lon="-2.24164">
        <ele>41</ele>
        <time>2021-05-27T10:23:13Z</time>
      </trkpt>
      <trkpt lat="47.69691" lon="-2.24162">
        <ele>41.4</ele>
        <time>2021-05-27T10:23:14Z</time>
      </trkpt>
      <trkpt lat="47.6969" lon="-2.24159">
        <ele>41.4</ele>
        <time>2021-05-27T10:23:15Z</time>
      </trkpt>
      <trkpt lat="47.69691" lon="-2.24157">
        <ele>41.1</ele>
        <time>2021-05-27T10:23:16Z</time>
      </trkpt>
      <trkpt lat="47.69692" lon="-2.24153">
        <ele>40.8</ele>
        <time>2021-05-27T10:23:17Z</time>
      </trkpt>
      <trkpt lat="47.69692" lon="-2.2415">
        <ele>40.5</ele>
        <time>2021-05-27T10:23:18Z</time>
      </trkpt>
      <trkpt lat="47.69693" lon="-2.24147">
        <ele>40.3</ele>
        <time>2021-05-27T10:23:19Z</time>
      </trkpt>
      <trkpt lat="47.69694" lon="-2.24144">
        <ele>39.9</ele>
        <time>2021-05-27T10:23:20Z</time>
      </trkpt>
      <trkpt lat="47.69694" lon="-2.24142">
        <ele>39.7</ele>
        <time>2021-05-27T10:23:21Z</time>
      </trkpt>
      <trkpt lat="47.69694" lon="-2.24139">
        <ele>39.7</ele>
        <time>2021-05-27T10:23:22Z</time>
      </trkpt>
      <trkpt lat="47.69694" lon="-2.24136">
        <ele>39.9</ele>
        <time>2021-05-27T10:23:23Z</time>
      </trkpt>
      <trkpt lat="47.69693" lon="-2.24133">
        <ele>40</ele>
        <time>2021-05-27T10:23:24Z</time>
      </trkpt>
      <trkpt lat="47.69692" lon="-2.24131">
        <ele>40.5</ele>
        <time>2021-05-27T10:23:25Z</time>
      </trkpt>
      <trkpt lat="47.6969" lon="-2.24128">
        <ele>41.2</ele>
        <time>2021-05-27T10:23:26Z</time>
      </trkpt>
      <trkpt lat="47.69689" lon="-2.24125">
        <ele>41.3</ele>
        <time>2021-05-27T10:23:27Z</time>
      </trkpt>
      <trkpt lat="47.6969" lon="-2.24122">
        <ele>41.1</ele>
        <time>2021-05-27T10:23:28Z</time>
      </trkpt>
      <trkpt lat="47.69688" lon="-2.2412">
        <ele>41.6</ele>
        <time>2021-05-27T10:23:29Z</time>
      </trkpt>
      <trkpt lat="47.69688" lon="-2.24117">
        <ele>41.5</ele>
        <time>2021-05-27T10:23:30Z</time>
      </trkpt>
      <trkpt lat="47.69688" lon="-2.24114">
        <ele>41.7</ele>
        <time>2021-05-27T10:23:31Z</time>
      </trkpt>
      <trkpt lat="47.69687" lon="-2.24112">
        <ele>41.7</ele>
        <time>2021-05-27T10:23:32Z</time>
      </trkpt>
      <trkpt lat="47.69687" lon="-2.24109">
        <ele>41.6</ele>
        <time>2021-05-27T10:23:33Z</time>
      </trkpt>
      <trkpt lat="47.69688" lon="-2.24106">
        <ele>41.4</ele>
        <time>2021-05-27T10:23:34Z</time>
      </trkpt>
      <trkpt lat="47.69688" lon="-2.24103">
        <ele>41.4</ele>
        <time>2021-05-27T10:23:35Z</time>
      </trkpt>
      <trkpt lat="47.69687" lon="-2.24101">
        <ele>41.6</ele>
        <time>2021-05-27T10:23:36Z</time>
      </trkpt>
      <trkpt lat="47.69687" lon="-2.24096">
        <ele>41.7</ele>
        <time>2021-05-27T10:23:37Z</time>
      </trkpt>
      <trkpt lat="47.69686" lon="-2.2409">
        <ele>41.8</ele>
        <time>2021-05-27T10:23:38Z</time>
      </trkpt>
      <trkpt lat="47.69686" lon="-2.24085">
        <ele>41.8</ele>
        <time>2021-05-27T10:23:39Z</time>
      </trkpt>
      <trkpt lat="47.69686" lon="-2.24081">
        <ele>41.9</ele>
        <time>2021-05-27T10:23:40Z</time>
      </trkpt>
      <trkpt lat="47.69685" lon="-2.24078">
        <ele>42.3</ele>
        <time>2021-05-27T10:23:41Z</time>
      </trkpt>
      <trkpt lat="47.69684" lon="-2.24075">
        <ele>43</ele>
        <time>2021-05-27T10:23:42Z</time>
      </trkpt>
      <trkpt lat="47.69682" lon="-2.24071">
        <ele>43.7</ele>
        <time>2021-05-27T10:23:43Z</time>
      </trkpt>
      <trkpt lat="47.69682" lon="-2.24067">
        <ele>43.9</ele>
        <time>2021-05-27T10:23:44Z</time>
      </trkpt>
      <trkpt lat="47.69682" lon="-2.24064">
        <ele>44.1</ele>
        <time>2021-05-27T10:23:45Z</time>
      </trkpt>
      <trkpt lat="47.69683" lon="-2.24061">
        <ele>44.1</ele>
        <time>2021-05-27T10:23:46Z</time>
      </trkpt>
      <trkpt lat="47.69683" lon="-2.24059">
        <ele>44.3</ele>
        <time>2021-05-27T10:23:47Z</time>
      </trkpt>
      <trkpt lat="47.69683" lon="-2.24056">
        <ele>44.2</ele>
        <time>2021-05-27T10:23:48Z</time>
      </trkpt>
      <trkpt lat="47.69683" lon="-2.24053">
        <ele>44.5</ele>
        <time>2021-05-27T10:23:49Z</time>
      </trkpt>
      <trkpt lat="47.69682" lon="-2.24051">
        <ele>44.8</ele>
        <time>2021-05-27T10:23:50Z</time>
      </trkpt>
      <trkpt lat="47.69682" lon="-2.24049">
        <ele>45.1</ele>
        <time>2021-05-27T10:23:51Z</time>
      </trkpt>
      <trkpt lat="47.69683" lon="-2.24046">
        <ele>45</ele>
        <time>2021-05-27T10:23:52Z</time>
      </trkpt>
      <trkpt lat="47.69683" lon="-2.24044">
        <ele>45.1</ele>
        <time>2021-05-27T10:23:53Z</time>
      </trkpt>
      <trkpt lat="47.69683" lon="-2.24041">
        <ele>45.2</ele>
        <time>2021-05-27T10:23:54Z</time>
      </trkpt>
      <trkpt lat="47.69684" lon="-2.24039">
        <ele>45.2</ele>
        <time>2021-05-27T10:23:55Z</time>
      </trkpt>
      <trkpt lat="47.69683" lon="-2.24036">
        <ele>45.6</ele>
        <time>2021-05-27T10:23:56Z</time>
      </trkpt>
      <trkpt lat="47.69683" lon="-2.24034">
        <ele>45.8</ele>
        <time>2021-05-27T10:23:57Z</time>
      </trkpt>
      <trkpt lat="47.69683" lon="-2.24031">
        <ele>46</ele>
        <time>2021-05-27T10:23:58Z</time>
      </trkpt>
      <trkpt lat="47.69682" lon="-2.24028">
        <ele>46.2</ele>
        <time>2021-05-27T10:23:59Z</time>
      </trkpt>
      <trkpt lat="47.69682" lon="-2.24025">
        <ele>46.6</ele>
        <time>2021-05-27T10:24:00Z</time>
      </trkpt>
      <trkpt lat="47.69681" lon="-2.24023">
        <ele>47</ele>
        <time>2021-05-27T10:24:01Z</time>
      </trkpt>
      <trkpt lat="47.69681" lon="-2.24021">
        <ele>47</ele>
        <time>2021-05-27T10:24:02Z</time>
      </trkpt>
      <trkpt lat="47.69681" lon="-2.2402">
        <ele>47.3</ele>
        <time>2021-05-27T10:24:03Z</time>
      </trkpt>
      <trkpt lat="47.69681" lon="-2.24018">
        <ele>47.4</ele>
        <time>2021-05-27T10:24:04Z</time>
      </trkpt>
      <trkpt lat="47.69681" lon="-2.24016">
        <ele>47.4</ele>
        <time>2021-05-27T10:24:05Z</time>
      </trkpt>
      <trkpt lat="47.69681" lon="-2.24014">
        <ele>47.7</ele>
        <time>2021-05-27T10:24:06Z</time>
      </trkpt>
      <trkpt lat="47.69679" lon="-2.24012">
        <ele>48.5</ele>
        <time>2021-05-27T10:24:07Z</time>
      </trkpt>
      <trkpt lat="47.69679" lon="-2.2401">
        <ele>48.6</ele>
        <time>2021-05-27T10:24:08Z</time>
      </trkpt>
      <trkpt lat="47.69678" lon="-2.24007">
        <ele>49.1</ele>
        <time>2021-05-27T10:24:09Z</time>
      </trkpt>
      <trkpt lat="47.69678" lon="-2.24004">
        <ele>49.5</ele>
        <time>2021-05-27T10:24:10Z</time>
      </trkpt>
      <trkpt lat="47.69677" lon="-2.24001">
        <ele>49.9</ele>
        <time>2021-05-27T10:24:11Z</time>
      </trkpt>
      <trkpt lat="47.69677" lon="-2.23998">
        <ele>50.3</ele>
        <time>2021-05-27T10:24:12Z</time>
      </trkpt>
      <trkpt lat="47.69677" lon="-2.23996">
        <ele>50.4</ele>
        <time>2021-05-27T10:24:13Z</time>
      </trkpt>
      <trkpt lat="47.69677" lon="-2.23994">
        <ele>50.4</ele>
        <time>2021-05-27T10:24:14Z</time>
      </trkpt>
      <trkpt lat="47.69678" lon="-2.23993">
        <ele>50.3</ele>
        <time>2021-05-27T10:24:15Z</time>
      </trkpt>
      <trkpt lat="47.69678" lon="-2.23991">
        <ele>50.4</ele>
        <time>2021-05-27T10:24:16Z</time>
      </trkpt>
      <trkpt lat="47.69678" lon="-2.23988">
        <ele>50.4</ele>
        <time>2021-05-27T10:24:17Z</time>
      </trkpt>
      <trkpt lat="47.69678" lon="-2.23986">
        <ele>50.6</ele>
        <time>2021-05-27T10:24:18Z</time>
      </trkpt>
      <trkpt lat="47.69678" lon="-2.23985">
        <ele>50.8</ele>
        <time>2021-05-27T10:24:19Z</time>
      </trkpt>
      <trkpt lat="47.69678" lon="-2.23982">
        <ele>51</ele>
        <time>2021-05-27T10:24:20Z</time>
      </trkpt>
      <trkpt lat="47.69677" lon="-2.2398">
        <ele>51.2</ele>
        <time>2021-05-27T10:24:21Z</time>
      </trkpt>
      <trkpt lat="47.69677" lon="-2.23978">
        <ele>51.4</ele>
        <time>2021-05-27T10:24:22Z</time>
      </trkpt>
      <trkpt lat="47.69678" lon="-2.23976">
        <ele>51.4</ele>
        <time>2021-05-27T10:24:23Z</time>
      </trkpt>
      <trkpt lat="47.69678" lon="-2.23974">
        <ele>51.4</ele>
        <time>2021-05-27T10:24:24Z</time>
      </trkpt>
      <trkpt lat="47.69678" lon="-2.23972">
        <ele>51.4</ele>
        <time>2021-05-27T10:24:25Z</time>
      </trkpt>
      <trkpt lat="47.69677" lon="-2.23971">
        <ele>51.8</ele>
        <time>2021-05-27T10:24:26Z</time>
      </trkpt>
      <trkpt lat="47.69677" lon="-2.2397">
        <ele>52</ele>
        <time>2021-05-27T10:24:27Z</time>
      </trkpt>
      <trkpt lat="47.69677" lon="-2.23969">
        <ele>52.2</ele>
        <time>2021-05-27T10:24:28Z</time>
      </trkpt>
      <trkpt lat="47.69677" lon="-2.23969">
        <ele>52.2</ele>
        <time>2021-05-27T10:24:29Z</time>
      </trkpt>
      <trkpt lat="47.69675" lon="-2.23965">
        <ele>53.1</ele>
        <time>2021-05-27T10:24:30Z</time>
      </trkpt>
      <trkpt lat="47.69675" lon="-2.23964">
        <ele>53.3</ele>
        <time>2021-05-27T10:24:31Z</time>
      </trkpt>
      <trkpt lat="47.69674" lon="-2.23963">
        <ele>53.5</ele>
        <time>2021-05-27T10:24:32Z</time>
      </trkpt>
      <trkpt lat="47.69674" lon="-2.23962">
        <ele>53.7</ele>
        <time>2021-05-27T10:24:33Z</time>
      </trkpt>
      <trkpt lat="47.69674" lon="-2.23962">
        <ele>53.7</ele>
        <time>2021-05-27T10:24:34Z</time>
      </trkpt>
      <trkpt lat="47.69671" lon="-2.23959">
        <ele>55.1</ele>
        <time>2021-05-27T10:24:35Z</time>
      </trkpt>
      <trkpt lat="47.69668" lon="-2.23957">
        <ele>56.4</ele>
        <time>2021-05-27T10:24:36Z</time>
      </trkpt>
      <trkpt lat="47.69666" lon="-2.23954">
        <ele>57.3</ele>
        <time>2021-05-27T10:24:37Z</time>
      </trkpt>
      <trkpt lat="47.69665" lon="-2.23953">
        <ele>57.7</ele>
        <time>2021-05-27T10:24:38Z</time>
      </trkpt>
      <trkpt lat="47.69664" lon="-2.23951">
        <ele>58</ele>
        <time>2021-05-27T10:24:39Z</time>
      </trkpt>
      <trkpt lat="47.69663" lon="-2.23949">
        <ele>58.2</ele>
        <time>2021-05-27T10:24:40Z</time>
      </trkpt>
      <trkpt lat="47.69662" lon="-2.23948">
        <ele>58.4</ele>
        <time>2021-05-27T10:24:41Z</time>
      </trkpt>
      <trkpt lat="47.69663" lon="-2.23948">
        <ele>58.4</ele>
        <time>2021-05-27T10:24:42Z</time>
      </trkpt>
      <trkpt lat="47.69663" lon="-2.23947">
        <ele>58.4</ele>
        <time>2021-05-27T10:24:43Z</time>
      </trkpt>
      <trkpt lat="47.69663" lon="-2.23947">
        <ele>58.4</ele>
        <time>2021-05-27T10:24:44Z</time>
      </trkpt>
      <trkpt lat="47.69663" lon="-2.23947">
        <ele>58.4</ele>
        <time>2021-05-27T10:24:45Z</time>
      </trkpt>
      <trkpt lat="47.69663" lon="-2.23947">
        <ele>58.4</ele>
        <time>2021-05-27T10:24:46Z</time>
      </trkpt>
      <trkpt lat="47.69663" lon="-2.23947">
        <ele>58.4</ele>
        <time>2021-05-27T10:24:47Z</time>
      </trkpt>
      <trkpt lat="47.69663" lon="-2.23947">
        <ele>58.4</ele>
        <time>2021-05-27T10:24:48Z</time>
      </trkpt>
      <trkpt lat="47.69663" lon="-2.23947">
        <ele>58.4</ele>
        <time>2021-05-27T10:24:49Z</time>
      </trkpt>
      <trkpt lat="47.69663" lon="-2.23947">
        <ele>58.4</ele>
        <time>2021-05-27T10:24:50Z</time>
      </trkpt>
      <trkpt lat="47.69663" lon="-2.23947">
        <ele>58.4</ele>
        <time>2021-05-27T10:24:51Z</time>
      </trkpt>
      <trkpt lat="47.69663" lon="-2.23947">
        <ele>58.4</ele>
        <time>2021-05-27T10:24:52Z</time>
      </trkpt>
      <trkpt lat="47.69663" lon="-2.23947">
        <ele>58.4</ele>
        <time>2021-05-27T10:24:53Z</time>
      </trkpt>
      <trkpt lat="47.69663" lon="-2.23947">
        <ele>58.4</ele>
        <time>2021-05-27T10:24:54Z</time>
      </trkpt>
      <trkpt lat="47.69663" lon="-2.23947">
        <ele>58.4</ele>
        <time>2021-05-27T10:24:55Z</time>
      </trkpt>
      <trkpt lat="47.69663" lon="-2.23947">
        <ele>58.4</ele>
        <time>2021-05-27T10:24:56Z</time>
      </trkpt>
      <trkpt lat="47.69663" lon="-2.23947">
        <ele>58.4</ele>
        <time>2021-05-27T10:24:57Z</time>
      </trkpt>
      <trkpt lat="47.69663" lon="-2.23947">
        <ele>58.4</ele>
        <time>2021-05-27T10:24:58Z</time>
      </trkpt>
      <trkpt lat="47.69663" lon="-2.23947">
        <ele>58.4</ele>
        <time>2021-05-27T10:24:59Z</time>
      </trkpt>
      <trkpt lat="47.69663" lon="-2.23947">
        <ele>58.4</ele>
        <time>2021-05-27T10:25:00Z</time>
      </trkpt>
      <trkpt lat="47.69663" lon="-2.23947">
        <ele>58.4</ele>
        <time>2021-05-27T10:25:01Z</time>
      </trkpt>
      <trkpt lat="47.69663" lon="-2.23947">
        <ele>58.4</ele>
        <time>2021-05-27T10:25:02Z</time>
      </trkpt>
      <trkpt lat="47.69663" lon="-2.23947">
        <ele>58.4</ele>
        <time>2021-05-27T10:25:03Z</time>
      </trkpt>
      <trkpt lat="47.69663" lon="-2.23947">
        <ele>58.4</ele>
        <time>2021-05-27T10:25:04Z</time>
      </trkpt>
      <trkpt lat="47.69663" lon="-2.23947">
        <ele>58.4</ele>
        <time>2021-05-27T10:25:05Z</time>
      </trkpt>
      <trkpt lat="47.69663" lon="-2.23947">
        <ele>58.4</ele>
        <time>2021-05-27T10:25:06Z</time>
      </trkpt>
      <trkpt lat="47.69663" lon="-2.23947">
        <ele>58.4</ele>
        <time>2021-05-27T10:25:07Z</time>
      </trkpt>
      <trkpt lat="47.69663" lon="-2.23947">
        <ele>58.4</ele>
        <time>2021-05-27T10:25:08Z</time>
      </trkpt>
      <trkpt lat="47.69663" lon="-2.23947">
        <ele>58.4</ele>
        <time>2021-05-27T10:25:09Z</time>
      </trkpt>
      <trkpt lat="47.69663" lon="-2.23947">
        <ele>58.4</ele>
        <time>2021-05-27T10:25:10Z</time>
      </trkpt>
      <trkpt lat="47.69663" lon="-2.23947">
        <ele>58.4</ele>
        <time>2021-05-27T10:25:11Z</time>
      </trkpt>
      <trkpt lat="47.69659" lon="-2.23935">
        <ele>59.8</ele>
        <time>2021-05-27T10:25:12Z</time>
      </trkpt>
      <trkpt lat="47.6966" lon="-2.23932">
        <ele>59.8</ele>
        <time>2021-05-27T10:25:13Z</time>
      </trkpt>
      <trkpt lat="47.69661" lon="-2.23929">
        <ele>60</ele>
        <time>2021-05-27T10:25:14Z</time>
      </trkpt>
      <trkpt lat="47.69661" lon="-2.23925">
        <ele>60.1</ele>
        <time>2021-05-27T10:25:15Z</time>
      </trkpt>
      <trkpt lat="47.69661" lon="-2.23924">
        <ele>60.2</ele>
        <time>2021-05-27T10:25:16Z</time>
      </trkpt>
      <trkpt lat="47.69661" lon="-2.23923">
        <ele>60.4</ele>
        <time>2021-05-27T10:25:17Z</time>
      </trkpt>
      <trkpt lat="47.69661" lon="-2.23923">
        <ele>60.4</ele>
        <time>2021-05-27T10:25:18Z</time>
      </trkpt>
      <trkpt lat="47.69661" lon="-2.23923">
        <ele>60.4</ele>
        <time>2021-05-27T10:25:19Z</time>
      </trkpt>
      <trkpt lat="47.69661" lon="-2.23923">
        <ele>60.4</ele>
        <time>2021-05-27T10:25:20Z</time>
      </trkpt>
      <trkpt lat="47.69661" lon="-2.23923">
        <ele>60.4</ele>
        <time>2021-05-27T10:25:21Z</time>
      </trkpt>
      <trkpt lat="47.69658" lon="-2.23917">
        <ele>61.1</ele>
        <time>2021-05-27T10:25:22Z</time>
      </trkpt>
      <trkpt lat="47.69658" lon="-2.23915">
        <ele>61.2</ele>
        <time>2021-05-27T10:25:23Z</time>
      </trkpt>
      <trkpt lat="47.69658" lon="-2.23912">
        <ele>61.3</ele>
        <time>2021-05-27T10:25:24Z</time>
      </trkpt>
      <trkpt lat="47.69655" lon="-2.23911">
        <ele>61.7</ele>
        <time>2021-05-27T10:25:25Z</time>
      </trkpt>
      <trkpt lat="47.69652" lon="-2.2391">
        <ele>62</ele>
        <time>2021-05-27T10:25:26Z</time>
      </trkpt>
      <trkpt lat="47.69651" lon="-2.2391">
        <ele>62.3</ele>
        <time>2021-05-27T10:25:27Z</time>
      </trkpt>
      <trkpt lat="47.6965" lon="-2.23908">
        <ele>62.4</ele>
        <time>2021-05-27T10:25:28Z</time>
      </trkpt>
      <trkpt lat="47.69649" lon="-2.23908">
        <ele>62.5</ele>
        <time>2021-05-27T10:25:29Z</time>
      </trkpt>
      <trkpt lat="47.69648" lon="-2.23907">
        <ele>62.7</ele>
        <time>2021-05-27T10:25:30Z</time>
      </trkpt>
      <trkpt lat="47.69646" lon="-2.23907">
        <ele>62.9</ele>
        <time>2021-05-27T10:25:31Z</time>
      </trkpt>
      <trkpt lat="47.69645" lon="-2.23908">
        <ele>63</ele>
        <time>2021-05-27T10:25:32Z</time>
      </trkpt>
      <trkpt lat="47.69642" lon="-2.23908">
        <ele>63.4</ele>
        <time>2021-05-27T10:25:33Z</time>
      </trkpt>
      <trkpt lat="47.6964" lon="-2.23909">
        <ele>63.7</ele>
        <time>2021-05-27T10:25:34Z</time>
      </trkpt>
      <trkpt lat="47.69638" lon="-2.23908">
        <ele>64</ele>
        <time>2021-05-27T10:25:35Z</time>
      </trkpt>
      <trkpt lat="47.69635" lon="-2.23909">
        <ele>64.4</ele>
        <time>2021-05-27T10:25:36Z</time>
      </trkpt>
      <trkpt lat="47.69632" lon="-2.23909">
        <ele>64.7</ele>
        <time>2021-05-27T10:25:37Z</time>
      </trkpt>
      <trkpt lat="47.6963" lon="-2.23911">
        <ele>64.9</ele>
        <time>2021-05-27T10:25:38Z</time>
      </trkpt>
      <trkpt lat="47.69629" lon="-2.23913">
        <ele>65</ele>
        <time>2021-05-27T10:25:39Z</time>
      </trkpt>
      <trkpt lat="47.69628" lon="-2.23914">
        <ele>65.1</ele>
        <time>2021-05-27T10:25:40Z</time>
      </trkpt>
      <trkpt lat="47.69627" lon="-2.23916">
        <ele>65.3</ele>
        <time>2021-05-27T10:25:41Z</time>
      </trkpt>
      <trkpt lat="47.69625" lon="-2.23917">
        <ele>65.5</ele>
        <time>2021-05-27T10:25:42Z</time>
      </trkpt>
      <trkpt lat="47.69623" lon="-2.23917">
        <ele>65.7</ele>
        <time>2021-05-27T10:25:43Z</time>
      </trkpt>
      <trkpt lat="47.69621" lon="-2.23919">
        <ele>65.9</ele>
        <time>2021-05-27T10:25:44Z</time>
      </trkpt>
      <trkpt lat="47.69619" lon="-2.23921">
        <ele>66.1</ele>
        <time>2021-05-27T10:25:45Z</time>
      </trkpt>
      <trkpt lat="47.69617" lon="-2.23923">
        <ele>66.4</ele>
        <time>2021-05-27T10:25:46Z</time>
      </trkpt>
      <trkpt lat="47.69616" lon="-2.23926">
        <ele>66.4</ele>
        <time>2021-05-27T10:25:47Z</time>
      </trkpt>
      <trkpt lat="47.69615" lon="-2.23928">
        <ele>66.5</ele>
        <time>2021-05-27T10:25:48Z</time>
      </trkpt>
      <trkpt lat="47.69614" lon="-2.23931">
        <ele>66.6</ele>
        <time>2021-05-27T10:25:49Z</time>
      </trkpt>
      <trkpt lat="47.69614" lon="-2.23934">
        <ele>66.5</ele>
        <time>2021-05-27T10:25:50Z</time>
      </trkpt>
      <trkpt lat="47.69613" lon="-2.23937">
        <ele>66.6</ele>
        <time>2021-05-27T10:25:51Z</time>
      </trkpt>
      <trkpt lat="47.69612" lon="-2.2394">
        <ele>66.6</ele>
        <time>2021-05-27T10:25:52Z</time>
      </trkpt>
      <trkpt lat="47.69612" lon="-2.23942">
        <ele>66.6</ele>
        <time>2021-05-27T10:25:53Z</time>
      </trkpt>
      <trkpt lat="47.69611" lon="-2.23945">
        <ele>66.7</ele>
        <time>2021-05-27T10:25:54Z</time>
      </trkpt>
      <trkpt lat="47.6961" lon="-2.23948">
        <ele>66.8</ele>
        <time>2021-05-27T10:25:55Z</time>
      </trkpt>
      <trkpt lat="47.6961" lon="-2.23952">
        <ele>66.7</ele>
        <time>2021-05-27T10:25:56Z</time>
      </trkpt>
      <trkpt lat="47.6961" lon="-2.23956">
        <ele>66.6</ele>
        <time>2021-05-27T10:25:57Z</time>
      </trkpt>
      <trkpt lat="47.69609" lon="-2.23959">
        <ele>66.6</ele>
        <time>2021-05-27T10:25:58Z</time>
      </trkpt>
      <trkpt lat="47.69609" lon="-2.23962">
        <ele>66.6</ele>
        <time>2021-05-27T10:25:59Z</time>
      </trkpt>
      <trkpt lat="47.69608" lon="-2.23966">
        <ele>66.7</ele>
        <time>2021-05-27T10:26:00Z</time>
      </trkpt>
      <trkpt lat="47.69608" lon="-2.2397">
        <ele>66.7</ele>
        <time>2021-05-27T10:26:01Z</time>
      </trkpt>
      <trkpt lat="47.69606" lon="-2.23973">
        <ele>66.8</ele>
        <time>2021-05-27T10:26:02Z</time>
      </trkpt>
      <trkpt lat="47.69606" lon="-2.23976">
        <ele>66.8</ele>
        <time>2021-05-27T10:26:03Z</time>
      </trkpt>
      <trkpt lat="47.69605" lon="-2.2398">
        <ele>66.9</ele>
        <time>2021-05-27T10:26:04Z</time>
      </trkpt>
      <trkpt lat="47.69605" lon="-2.23983">
        <ele>66.9</ele>
        <time>2021-05-27T10:26:05Z</time>
      </trkpt>
      <trkpt lat="47.69605" lon="-2.23987">
        <ele>66.9</ele>
        <time>2021-05-27T10:26:06Z</time>
      </trkpt>
      <trkpt lat="47.69605" lon="-2.23991">
        <ele>66.7</ele>
        <time>2021-05-27T10:26:07Z</time>
      </trkpt>
      <trkpt lat="47.69606" lon="-2.23996">
        <ele>66.5</ele>
        <time>2021-05-27T10:26:08Z</time>
      </trkpt>
      <trkpt lat="47.69607" lon="-2.24001">
        <ele>66.2</ele>
        <time>2021-05-27T10:26:09Z</time>
      </trkpt>
      <trkpt lat="47.69608" lon="-2.24007">
        <ele>65.9</ele>
        <time>2021-05-27T10:26:10Z</time>
      </trkpt>
      <trkpt lat="47.69609" lon="-2.24012">
        <ele>65.6</ele>
        <time>2021-05-27T10:26:11Z</time>
      </trkpt>
      <trkpt lat="47.69609" lon="-2.24017">
        <ele>65.5</ele>
        <time>2021-05-27T10:26:12Z</time>
      </trkpt>
      <trkpt lat="47.6961" lon="-2.24023">
        <ele>65.3</ele>
        <time>2021-05-27T10:26:13Z</time>
      </trkpt>
      <trkpt lat="47.6961" lon="-2.24029">
        <ele>65.1</ele>
        <time>2021-05-27T10:26:14Z</time>
      </trkpt>
      <trkpt lat="47.69611" lon="-2.24035">
        <ele>64.8</ele>
        <time>2021-05-27T10:26:15Z</time>
      </trkpt>
      <trkpt lat="47.69611" lon="-2.24039">
        <ele>64.7</ele>
        <time>2021-05-27T10:26:16Z</time>
      </trkpt>
      <trkpt lat="47.69611" lon="-2.24044">
        <ele>64.7</ele>
        <time>2021-05-27T10:26:17Z</time>
      </trkpt>
      <trkpt lat="47.69611" lon="-2.24048">
        <ele>64.5</ele>
        <time>2021-05-27T10:26:18Z</time>
      </trkpt>
      <trkpt lat="47.69612" lon="-2.24052">
        <ele>64.1</ele>
        <time>2021-05-27T10:26:19Z</time>
      </trkpt>
      <trkpt lat="47.69612" lon="-2.24056">
        <ele>64.1</ele>
        <time>2021-05-27T10:26:20Z</time>
      </trkpt>
      <trkpt lat="47.69612" lon="-2.24061">
        <ele>64.1</ele>
        <time>2021-05-27T10:26:21Z</time>
      </trkpt>
      <trkpt lat="47.69612" lon="-2.24064">
        <ele>64</ele>
        <time>2021-05-27T10:26:22Z</time>
      </trkpt>
      <trkpt lat="47.69612" lon="-2.24068">
        <ele>64</ele>
        <time>2021-05-27T10:26:23Z</time>
      </trkpt>
      <trkpt lat="47.69612" lon="-2.24071">
        <ele>64</ele>
        <time>2021-05-27T10:26:24Z</time>
      </trkpt>
      <trkpt lat="47.69611" lon="-2.24075">
        <ele>64.1</ele>
        <time>2021-05-27T10:26:25Z</time>
      </trkpt>
      <trkpt lat="47.69611" lon="-2.24077">
        <ele>64.2</ele>
        <time>2021-05-27T10:26:26Z</time>
      </trkpt>
      <trkpt lat="47.6961" lon="-2.24078">
        <ele>64.3</ele>
        <time>2021-05-27T10:26:27Z</time>
      </trkpt>
      <trkpt lat="47.6961" lon="-2.24081">
        <ele>64.3</ele>
        <time>2021-05-27T10:26:28Z</time>
      </trkpt>
      <trkpt lat="47.6961" lon="-2.24083">
        <ele>64.2</ele>
        <time>2021-05-27T10:26:29Z</time>
      </trkpt>
      <trkpt lat="47.69609" lon="-2.24084">
        <ele>64.5</ele>
        <time>2021-05-27T10:26:30Z</time>
      </trkpt>
      <trkpt lat="47.69608" lon="-2.24087">
        <ele>64.8</ele>
        <time>2021-05-27T10:26:31Z</time>
      </trkpt>
      <trkpt lat="47.69607" lon="-2.24089">
        <ele>65.2</ele>
        <time>2021-05-27T10:26:32Z</time>
      </trkpt>
      <trkpt lat="47.69606" lon="-2.24092">
        <ele>65.5</ele>
        <time>2021-05-27T10:26:33Z</time>
      </trkpt>
      <trkpt lat="47.69605" lon="-2.24094">
        <ele>65.8</ele>
        <time>2021-05-27T10:26:34Z</time>
      </trkpt>
      <trkpt lat="47.69603" lon="-2.24096">
        <ele>66.2</ele>
        <time>2021-05-27T10:26:35Z</time>
      </trkpt>
      <trkpt lat="47.69602" lon="-2.241">
        <ele>66.7</ele>
        <time>2021-05-27T10:26:36Z</time>
      </trkpt>
      <trkpt lat="47.696" lon="-2.24103">
        <ele>67.1</ele>
        <time>2021-05-27T10:26:37Z</time>
      </trkpt>
      <trkpt lat="47.69598" lon="-2.24108">
        <ele>67.7</ele>
        <time>2021-05-27T10:26:38Z</time>
      </trkpt>
      <trkpt lat="47.69596" lon="-2.24113">
        <ele>68.1</ele>
        <time>2021-05-27T10:26:39Z</time>
      </trkpt>
      <trkpt lat="47.69596" lon="-2.24117">
        <ele>68.2</ele>
        <time>2021-05-27T10:26:40Z</time>
      </trkpt>
      <trkpt lat="47.69595" lon="-2.24123">
        <ele>68.5</ele>
        <time>2021-05-27T10:26:41Z</time>
      </trkpt>
      <trkpt lat="47.69592" lon="-2.24127">
        <ele>69.1</ele>
        <time>2021-05-27T10:26:42Z</time>
      </trkpt>
      <trkpt lat="47.6959" lon="-2.24132">
        <ele>69.6</ele>
        <time>2021-05-27T10:26:43Z</time>
      </trkpt>
      <trkpt lat="47.69589" lon="-2.24135">
        <ele>70</ele>
        <time>2021-05-27T10:26:44Z</time>
      </trkpt>
      <trkpt lat="47.69587" lon="-2.2414">
        <ele>70.4</ele>
        <time>2021-05-27T10:26:45Z</time>
      </trkpt>
      <trkpt lat="47.69586" lon="-2.24144">
        <ele>70.7</ele>
        <time>2021-05-27T10:26:46Z</time>
      </trkpt>
      <trkpt lat="47.69585" lon="-2.24149">
        <ele>70.9</ele>
        <time>2021-05-27T10:26:47Z</time>
      </trkpt>
      <trkpt lat="47.69584" lon="-2.24152">
        <ele>71</ele>
        <time>2021-05-27T10:26:48Z</time>
      </trkpt>
      <trkpt lat="47.69585" lon="-2.24154">
        <ele>70.8</ele>
        <time>2021-05-27T10:29:55Z</time>
      </trkpt>
      <trkpt lat="47.69585" lon="-2.24157">
        <ele>70.7</ele>
        <time>2021-05-27T10:29:56Z</time>
      </trkpt>
      <trkpt lat="47.69585" lon="-2.24159">
        <ele>70.7</ele>
        <time>2021-05-27T10:29:57Z</time>
      </trkpt>
      <trkpt lat="47.69585" lon="-2.24161">
        <ele>70.7</ele>
        <time>2021-05-27T10:29:58Z</time>
      </trkpt>
      <trkpt lat="47.69585" lon="-2.24163">
        <ele>70.7</ele>
        <time>2021-05-27T10:29:59Z</time>
      </trkpt>
      <trkpt lat="47.69584" lon="-2.24166">
        <ele>70.9</ele>
        <time>2021-05-27T10:30:00Z</time>
      </trkpt>
      <trkpt lat="47.69584" lon="-2.24167">
        <ele>70.9</ele>
        <time>2021-05-27T10:30:01Z</time>
      </trkpt>
      <trkpt lat="47.69583" lon="-2.24169">
        <ele>70.9</ele>
        <time>2021-05-27T10:30:02Z</time>
      </trkpt>
      <trkpt lat="47.69582" lon="-2.24173">
        <ele>70.8</ele>
        <time>2021-05-27T10:30:03Z</time>
      </trkpt>
      <trkpt lat="47.6958" lon="-2.24175">
        <ele>70.7</ele>
        <time>2021-05-27T10:30:04Z</time>
      </trkpt>
      <trkpt lat="47.69579" lon="-2.24177">
        <ele>70.6</ele>
        <time>2021-05-27T10:30:05Z</time>
      </trkpt>
      <trkpt lat="47.69576" lon="-2.24181">
        <ele>70.5</ele>
        <time>2021-05-27T10:30:06Z</time>
      </trkpt>
      <trkpt lat="47.69574" lon="-2.24184">
        <ele>70.4</ele>
        <time>2021-05-27T10:30:07Z</time>
      </trkpt>
      <trkpt lat="47.69573" lon="-2.24187">
        <ele>70.3</ele>
        <time>2021-05-27T10:30:08Z</time>
      </trkpt>
      <trkpt lat="47.6957" lon="-2.2419">
        <ele>70.2</ele>
        <time>2021-05-27T10:30:09Z</time>
      </trkpt>
      <trkpt lat="47.69569" lon="-2.24193">
        <ele>70.1</ele>
        <time>2021-05-27T10:30:10Z</time>
      </trkpt>
      <trkpt lat="47.69567" lon="-2.24195">
        <ele>70.1</ele>
        <time>2021-05-27T10:30:11Z</time>
      </trkpt>
      <trkpt lat="47.69565" lon="-2.24196">
        <ele>70</ele>
        <time>2021-05-27T10:30:12Z</time>
      </trkpt>
      <trkpt lat="47.69563" lon="-2.24198">
        <ele>69.9</ele>
        <time>2021-05-27T10:30:13Z</time>
      </trkpt>
      <trkpt lat="47.6956" lon="-2.242">
        <ele>69.9</ele>
        <time>2021-05-27T10:30:14Z</time>
      </trkpt>
      <trkpt lat="47.69558" lon="-2.24203">
        <ele>69.8</ele>
        <time>2021-05-27T10:30:15Z</time>
      </trkpt>
      <trkpt lat="47.69557" lon="-2.24207">
        <ele>69.7</ele>
        <time>2021-05-27T10:30:16Z</time>
      </trkpt>
      <trkpt lat="47.69557" lon="-2.24211">
        <ele>69.6</ele>
        <time>2021-05-27T10:30:17Z</time>
      </trkpt>
      <trkpt lat="47.69558" lon="-2.24221">
        <ele>69.5</ele>
        <time>2021-05-27T10:30:18Z</time>
      </trkpt>
      <trkpt lat="47.69553" lon="-2.24219">
        <ele>69.5</ele>
        <time>2021-05-27T10:30:19Z</time>
      </trkpt>
      <trkpt lat="47.69546" lon="-2.24218">
        <ele>69.4</ele>
      </trkpt>
      <trkpt lat="47.69541" lon="-2.24224">
        <ele>69.3</ele>
      </trkpt>
      <trkpt lat="47.69537" lon="-2.24234">
        <ele>69.2</ele>
      </trkpt>
      <trkpt lat="47.69534" lon="-2.24242">
        <ele>69.1</ele>
      </trkpt>
      <trkpt lat="47.69531" lon="-2.2425">
        <ele>69</ele>
      </trkpt>
      <trkpt lat="47.69531" lon="-2.24253">
        <ele>69</ele>
      </trkpt>
      <trkpt lat="47.69532" lon="-2.24258">
        <ele>68.9</ele>
      </trkpt>
      <trkpt lat="47.69533" lon="-2.24261">
        <ele>68.9</ele>
      </trkpt>
      <trkpt lat="47.69533" lon="-2.24265">
        <ele>68.9</ele>
      </trkpt>
      <trkpt lat="47.69533" lon="-2.24267">
        <ele>68.9</ele>
      </trkpt>
      <trkpt lat="47.69533" lon="-2.24273">
        <ele>68.8</ele>
      </trkpt>
      <trkpt lat="47.69532" lon="-2.24275">
        <ele>68.8</ele>
      </trkpt>
      <trkpt lat="47.69531" lon="-2.24282">
        <ele>68.8</ele>
      </trkpt>
      <trkpt lat="47.69531" lon="-2.24284">
        <ele>68.7</ele>
      </trkpt>
      <trkpt lat="47.69531" lon="-2.24293">
        <ele>68.7</ele>
      </trkpt>
      <trkpt lat="47.69531" lon="-2.24296">
        <ele>68.7</ele>
      </trkpt>
      <trkpt lat="47.69532" lon="-2.24302">
        <ele>68.6</ele>
      </trkpt>
      <trkpt lat="47.69532" lon="-2.24305">
        <ele>68.6</ele>
      </trkpt>
      <trkpt lat="47.69532" lon="-2.2431">
        <ele>68.6</ele>
      </trkpt>
      <trkpt lat="47.69532" lon="-2.24314">
        <ele>68.5</ele>
      </trkpt>
      <trkpt lat="47.69532" lon="-2.24318">
        <ele>68.5</ele>
      </trkpt>
      <trkpt lat="47.69533" lon="-2.24321">
        <ele>68.5</ele>
      </trkpt>
      <trkpt lat="47.69535" lon="-2.24326">
        <ele>68.5</ele>
      </trkpt>
      <trkpt lat="47.69536" lon="-2.24329">
        <ele>68.5</ele>
      </trkpt>
      <trkpt lat="47.69538" lon="-2.24334">
        <ele>68.4</ele>
      </trkpt>
      <trkpt lat="47.69539" lon="-2.24337">
        <ele>68.4</ele>
      </trkpt>
      <trkpt lat="47.69539" lon="-2.24339">
        <ele>68.4</ele>
      </trkpt>
      <trkpt lat="47.6954" lon="-2.24342">
        <ele>68.3</ele>
      </trkpt>
      <trkpt lat="47.69541" lon="-2.24345">
        <ele>68.3</ele>
      </trkpt>
      <trkpt lat="47.69544" lon="-2.24353">
        <ele>68.2</ele>
      </trkpt>
      <trkpt lat="47.69544" lon="-2.24355">
        <ele>68.1</ele>
      </trkpt>
      <trkpt lat="47.69543" lon="-2.24358">
        <ele>68.1</ele>
      </trkpt>
      <trkpt lat="47.69541" lon="-2.24363">
        <ele>68</ele>
      </trkpt>
      <trkpt lat="47.69538" lon="-2.2437">
        <ele>67.8</ele>
      </trkpt>
      <trkpt lat="47.69538" lon="-2.24373">
        <ele>67.8</ele>
      </trkpt>
      <trkpt lat="47.69538" lon="-2.24379">
        <ele>67.7</ele>
      </trkpt>
      <trkpt lat="47.69539" lon="-2.24397">
        <ele>67.4</ele>
      </trkpt>
      <trkpt lat="47.69539" lon="-2.244">
        <ele>67.3</ele>
      </trkpt>
      <trkpt lat="47.69538" lon="-2.24403">
        <ele>67.2</ele>
      </trkpt>
      <trkpt lat="47.69537" lon="-2.24411">
        <ele>67.1</ele>
      </trkpt>
      <trkpt lat="47.69538" lon="-2.24414">
        <ele>67.1</ele>
      </trkpt>
      <trkpt lat="47.69538" lon="-2.24421">
        <ele>67</ele>
      </trkpt>
      <trkpt lat="47.69537" lon="-2.24424">
        <ele>67</ele>
      </trkpt>
      <trkpt lat="47.69537" lon="-2.24434">
        <ele>67.1</ele>
      </trkpt>
      <trkpt lat="47.69538" lon="-2.24436">
        <ele>67.1</ele>
      </trkpt>
      <trkpt lat="47.69541" lon="-2.24446">
        <ele>67.2</ele>
      </trkpt>
      <trkpt lat="47.69541" lon="-2.24449">
        <ele>67.2</ele>
      </trkpt>
      <trkpt lat="47.69544" lon="-2.2446">
        <ele>67.3</ele>
      </trkpt>
      <trkpt lat="47.69544" lon="-2.24463">
        <ele>67.3</ele>
      </trkpt>
      <trkpt lat="47.69544" lon="-2.24466">
        <ele>67.3</ele>
      </trkpt>
      <trkpt lat="47.69544" lon="-2.24469">
        <ele>67.3</ele>
      </trkpt>
      <trkpt lat="47.69545" lon="-2.24475">
        <ele>67.4</ele>
      </trkpt>
      <trkpt lat="47.69545" lon="-2.24479">
        <ele>67.4</ele>
      </trkpt>
      <trkpt lat="47.69546" lon="-2.24482">
        <ele>67.4</ele>
      </trkpt>
      <trkpt lat="47.69546" lon="-2.24485">
        <ele>67.5</ele>
      </trkpt>
      <trkpt lat="47.69545" lon="-2.24488">
        <ele>67.5</ele>
      </trkpt>
      <trkpt lat="47.69545" lon="-2.24491">
        <ele>67.5</ele>
      </trkpt>
      <trkpt lat="47.69544" lon="-2.24495">
        <ele>67.5</ele>
      </trkpt>
      <trkpt lat="47.69548" lon="-2.24505">
        <ele>67.6</ele>
      </trkpt>
      <trkpt lat="47.69548" lon="-2.24507">
        <ele>67.5</ele>
      </trkpt>
      <trkpt lat="47.69547" lon="-2.24523">
        <ele>67.4</ele>
      </trkpt>
      <trkpt lat="47.69549" lon="-2.24526">
        <ele>67.5</ele>
      </trkpt>
      <trkpt lat="47.69558" lon="-2.24531">
        <ele>67.6</ele>
      </trkpt>
      <trkpt lat="47.69564" lon="-2.24542">
        <ele>67.6</ele>
      </trkpt>
      <trkpt lat="47.69566" lon="-2.24544">
        <ele>67.7</ele>
      </trkpt>
      <trkpt lat="47.6957" lon="-2.2455">
        <ele>67.7</ele>
      </trkpt>
      <trkpt lat="47.6957" lon="-2.24553">
        <ele>67.7</ele>
      </trkpt>
      <trkpt lat="47.69573" lon="-2.24557">
        <ele>67.8</ele>
      </trkpt>
      <trkpt lat="47.69574" lon="-2.24559">
        <ele>67.8</ele>
      </trkpt>
      <trkpt lat="47.69576" lon="-2.24568">
        <ele>67.8</ele>
      </trkpt>
      <trkpt lat="47.69582" lon="-2.24574">
        <ele>68</ele>
      </trkpt>
      <trkpt lat="47.69587" lon="-2.24579">
        <ele>67.6</ele>
      </trkpt>
      <trkpt lat="47.69582" lon="-2.24592">
        <ele>67.9</ele>
      </trkpt>
      <trkpt lat="47.69579" lon="-2.24604">
        <ele>67.6</ele>
      </trkpt>
      <trkpt lat="47.6958" lon="-2.24609">
        <ele>67.6</ele>
      </trkpt>
      <trkpt lat="47.69581" lon="-2.24621">
        <ele>67.5</ele>
      </trkpt>
      <trkpt lat="47.69579" lon="-2.24633">
        <ele>67.3</ele>
      </trkpt>
      <trkpt lat="47.69578" lon="-2.24644">
        <ele>67.1</ele>
      </trkpt>
      <trkpt lat="47.69578" lon="-2.24653">
        <ele>67</ele>
      </trkpt>
      <trkpt lat="47.69578" lon="-2.24665">
        <ele>66.8</ele>
      </trkpt>
      <trkpt lat="47.69577" lon="-2.24667">
        <ele>66.8</ele>
      </trkpt>
      <trkpt lat="47.69576" lon="-2.2467">
        <ele>66.8</ele>
      </trkpt>
      <trkpt lat="47.69576" lon="-2.24673">
        <ele>66.9</ele>
      </trkpt>
      <trkpt lat="47.69576" lon="-2.2468">
        <ele>67</ele>
      </trkpt>
      <trkpt lat="47.69576" lon="-2.24683">
        <ele>67.1</ele>
      </trkpt>
      <trkpt lat="47.69577" lon="-2.24685">
        <ele>67.2</ele>
      </trkpt>
      <trkpt lat="47.6958" lon="-2.24694">
        <ele>67.5</ele>
      </trkpt>
      <trkpt lat="47.69579" lon="-2.24697">
        <ele>67.5</ele>
      </trkpt>
      <trkpt lat="47.6958" lon="-2.247">
        <ele>67.6</ele>
      </trkpt>
      <trkpt lat="47.6958" lon="-2.24704">
        <ele>67.7</ele>
      </trkpt>
      <trkpt lat="47.6958" lon="-2.24706">
        <ele>67.8</ele>
      </trkpt>
      <trkpt lat="47.69581" lon="-2.24719">
        <ele>68.1</ele>
      </trkpt>
      <trkpt lat="47.69581" lon="-2.24741">
        <ele>68.6</ele>
      </trkpt>
      <trkpt lat="47.69584" lon="-2.24762">
        <ele>69.1</ele>
      </trkpt>
      <trkpt lat="47.69585" lon="-2.24765">
        <ele>69.1</ele>
      </trkpt>
      <trkpt lat="47.69586" lon="-2.24777">
        <ele>69.3</ele>
      </trkpt>
      <trkpt lat="47.69588" lon="-2.24795">
        <ele>69.5</ele>
      </trkpt>
      <trkpt lat="47.69589" lon="-2.24798">
        <ele>69.5</ele>
      </trkpt>
      <trkpt lat="47.69594" lon="-2.24814">
        <ele>69.7</ele>
      </trkpt>
      <trkpt lat="47.69595" lon="-2.24817">
        <ele>69.7</ele>
      </trkpt>
      <trkpt lat="47.69596" lon="-2.24819">
        <ele>69.8</ele>
      </trkpt>
      <trkpt lat="47.69599" lon="-2.24829">
        <ele>69.9</ele>
      </trkpt>
      <trkpt lat="47.69601" lon="-2.2483">
        <ele>69.9</ele>
      </trkpt>
      <trkpt lat="47.69606" lon="-2.24834">
        <ele>70</ele>
      </trkpt>
      <trkpt lat="47.69608" lon="-2.24834">
        <ele>70</ele>
      </trkpt>
      <trkpt lat="47.69613" lon="-2.24837">
        <ele>70</ele>
      </trkpt>
      <trkpt lat="47.69629" lon="-2.24864">
        <ele>69.8</ele>
      </trkpt>
      <trkpt lat="47.69628" lon="-2.24894">
        <ele>69.7</ele>
      </trkpt>
      <trkpt lat="47.69627" lon="-2.2492">
        <ele>69.5</ele>
      </trkpt>
      <trkpt lat="47.69628" lon="-2.24926">
        <ele>69.3</ele>
      </trkpt>
      <trkpt lat="47.69632" lon="-2.24938">
        <ele>69.1</ele>
      </trkpt>
      <trkpt lat="47.69642" lon="-2.24946">
        <ele>69.1</ele>
      </trkpt>
      <trkpt lat="47.69652" lon="-2.24948">
        <ele>69.3</ele>
      </trkpt>
      <trkpt lat="47.69656" lon="-2.24956">
        <ele>69.3</ele>
        <time>2021-05-27T10:32:34Z</time>
      </trkpt>
      <trkpt lat="47.69656" lon="-2.24963">
        <ele>69.2</ele>
        <time>2021-05-27T10:32:35Z</time>
      </trkpt>
      <trkpt lat="47.69657" lon="-2.2497">
        <ele>69.1</ele>
        <time>2021-05-27T10:32:36Z</time>
      </trkpt>
      <trkpt lat="47.69656" lon="-2.24977">
        <ele>69</ele>
        <time>2021-05-27T10:32:37Z</time>
      </trkpt>
      <trkpt lat="47.69656" lon="-2.24984">
        <ele>68.9</ele>
        <time>2021-05-27T10:32:38Z</time>
      </trkpt>
      <trkpt lat="47.69657" lon="-2.2499">
        <ele>68.8</ele>
        <time>2021-05-27T10:32:39Z</time>
      </trkpt>
      <trkpt lat="47.69658" lon="-2.24997">
        <ele>68.7</ele>
        <time>2021-05-27T10:32:40Z</time>
      </trkpt>
      <trkpt lat="47.69659" lon="-2.25004">
        <ele>68.7</ele>
        <time>2021-05-27T10:32:41Z</time>
      </trkpt>
      <trkpt lat="47.6966" lon="-2.25012">
        <ele>68.8</ele>
        <time>2021-05-27T10:32:42Z</time>
      </trkpt>
      <trkpt lat="47.6966" lon="-2.25019">
        <ele>68.8</ele>
        <time>2021-05-27T10:32:43Z</time>
      </trkpt>
      <trkpt lat="47.6966" lon="-2.25026">
        <ele>68.8</ele>
        <time>2021-05-27T10:32:44Z</time>
      </trkpt>
      <trkpt lat="47.6966" lon="-2.25033">
        <ele>68.8</ele>
        <time>2021-05-27T10:32:45Z</time>
      </trkpt>
      <trkpt lat="47.69661" lon="-2.2504">
        <ele>68.8</ele>
        <time>2021-05-27T10:32:46Z</time>
      </trkpt>
      <trkpt lat="47.69661" lon="-2.25046">
        <ele>68.8</ele>
        <time>2021-05-27T10:32:47Z</time>
      </trkpt>
      <trkpt lat="47.6966" lon="-2.25052">
        <ele>68.8</ele>
        <time>2021-05-27T10:32:48Z</time>
      </trkpt>
      <trkpt lat="47.69661" lon="-2.25058">
        <ele>68.8</ele>
        <time>2021-05-27T10:32:49Z</time>
      </trkpt>
      <trkpt lat="47.69662" lon="-2.25065">
        <ele>68.9</ele>
        <time>2021-05-27T10:32:50Z</time>
      </trkpt>
      <trkpt lat="47.69663" lon="-2.25071">
        <ele>68.9</ele>
        <time>2021-05-27T10:32:51Z</time>
      </trkpt>
      <trkpt lat="47.69665" lon="-2.25078">
        <ele>69</ele>
        <time>2021-05-27T10:32:52Z</time>
      </trkpt>
      <trkpt lat="47.69667" lon="-2.25085">
        <ele>69</ele>
        <time>2021-05-27T10:32:53Z</time>
      </trkpt>
      <trkpt lat="47.69669" lon="-2.25092">
        <ele>68.7</ele>
        <time>2021-05-27T10:32:54Z</time>
      </trkpt>
      <trkpt lat="47.69672" lon="-2.25098">
        <ele>68.5</ele>
        <time>2021-05-27T10:32:55Z</time>
      </trkpt>
      <trkpt lat="47.69674" lon="-2.25105">
        <ele>68.3</ele>
        <time>2021-05-27T10:32:56Z</time>
      </trkpt>
      <trkpt lat="47.69678" lon="-2.25112">
        <ele>68.1</ele>
        <time>2021-05-27T10:32:57Z</time>
      </trkpt>
      <trkpt lat="47.69681" lon="-2.25118">
        <ele>67.9</ele>
        <time>2021-05-27T10:32:58Z</time>
      </trkpt>
      <trkpt lat="47.69684" lon="-2.25124">
        <ele>67.7</ele>
        <time>2021-05-27T10:32:59Z</time>
      </trkpt>
      <trkpt lat="47.69687" lon="-2.2513">
        <ele>67.5</ele>
        <time>2021-05-27T10:33:00Z</time>
      </trkpt>
      <trkpt lat="47.69689" lon="-2.25137">
        <ele>67.4</ele>
        <time>2021-05-27T10:33:01Z</time>
      </trkpt>
      <trkpt lat="47.69691" lon="-2.25143">
        <ele>67.2</ele>
        <time>2021-05-27T10:33:02Z</time>
      </trkpt>
      <trkpt lat="47.69694" lon="-2.25149">
        <ele>67</ele>
        <time>2021-05-27T10:33:03Z</time>
      </trkpt>
      <trkpt lat="47.69697" lon="-2.25154">
        <ele>66.9</ele>
        <time>2021-05-27T10:33:04Z</time>
      </trkpt>
      <trkpt lat="47.697" lon="-2.25159">
        <ele>66.8</ele>
        <time>2021-05-27T10:33:05Z</time>
      </trkpt>
      <trkpt lat="47.69706" lon="-2.25167">
        <ele>66.5</ele>
        <time>2021-05-27T10:33:07Z</time>
      </trkpt>
      <trkpt lat="47.69708" lon="-2.25171">
        <ele>66.5</ele>
        <time>2021-05-27T10:33:08Z</time>
      </trkpt>
      <trkpt lat="47.6971" lon="-2.25173">
        <ele>66.4</ele>
        <time>2021-05-27T10:33:09Z</time>
      </trkpt>
      <trkpt lat="47.69711" lon="-2.25174">
        <ele>66.4</ele>
        <time>2021-05-27T10:33:10Z</time>
      </trkpt>
      <trkpt lat="47.6971" lon="-2.25174">
        <ele>66.4</ele>
        <time>2021-05-27T10:33:11Z</time>
      </trkpt>
      <trkpt lat="47.69711" lon="-2.25174">
        <ele>66.4</ele>
        <time>2021-05-27T10:33:12Z</time>
      </trkpt>
      <trkpt lat="47.69711" lon="-2.25174">
        <ele>66.4</ele>
        <time>2021-05-27T10:33:13Z</time>
      </trkpt>
      <trkpt lat="47.69711" lon="-2.25174">
        <ele>66.4</ele>
        <time>2021-05-27T10:33:14Z</time>
      </trkpt>
      <trkpt lat="47.69711" lon="-2.25174">
        <ele>66.4</ele>
        <time>2021-05-27T10:33:15Z</time>
      </trkpt>
      <trkpt lat="47.69711" lon="-2.25174">
        <ele>66.4</ele>
        <time>2021-05-27T10:33:16Z</time>
      </trkpt>
      <trkpt lat="47.69711" lon="-2.25174">
        <ele>66.4</ele>
        <time>2021-05-27T10:33:17Z</time>
      </trkpt>
      <trkpt lat="47.69711" lon="-2.25174">
        <ele>66.4</ele>
        <time>2021-05-27T10:33:18Z</time>
      </trkpt>
      <trkpt lat="47.69711" lon="-2.25174">
        <ele>66.4</ele>
        <time>2021-05-27T10:33:19Z</time>
      </trkpt>
      <trkpt lat="47.69711" lon="-2.25174">
        <ele>66.4</ele>
        <time>2021-05-27T10:33:20Z</time>
      </trkpt>
      <trkpt lat="47.69713" lon="-2.25178">
        <ele>66.4</ele>
        <time>2021-05-27T10:33:21Z</time>
      </trkpt>
      <trkpt lat="47.69714" lon="-2.25181">
        <ele>66.4</ele>
        <time>2021-05-27T10:33:22Z</time>
      </trkpt>
      <trkpt lat="47.69714" lon="-2.25185">
        <ele>66.4</ele>
        <time>2021-05-27T10:33:23Z</time>
      </trkpt>
      <trkpt lat="47.69714" lon="-2.25189">
        <ele>66.4</ele>
        <time>2021-05-27T10:33:24Z</time>
      </trkpt>
      <trkpt lat="47.69712" lon="-2.25192">
        <ele>66.3</ele>
        <time>2021-05-27T10:33:25Z</time>
      </trkpt>
      <trkpt lat="47.69709" lon="-2.25197">
        <ele>66.3</ele>
        <time>2021-05-27T10:33:27Z</time>
      </trkpt>
      <trkpt lat="47.69707" lon="-2.252">
        <ele>66.3</ele>
        <time>2021-05-27T10:33:28Z</time>
      </trkpt>
      <trkpt lat="47.69701" lon="-2.25205">
        <ele>66.2</ele>
        <time>2021-05-27T10:33:30Z</time>
      </trkpt>
      <trkpt lat="47.69695" lon="-2.25212">
        <ele>66.1</ele>
        <time>2021-05-27T10:33:32Z</time>
      </trkpt>
      <trkpt lat="47.69691" lon="-2.25216">
        <ele>66.1</ele>
        <time>2021-05-27T10:33:33Z</time>
      </trkpt>
      <trkpt lat="47.69688" lon="-2.25221">
        <ele>65.9</ele>
        <time>2021-05-27T10:33:34Z</time>
      </trkpt>
      <trkpt lat="47.69686" lon="-2.25227">
        <ele>65.8</ele>
        <time>2021-05-27T10:33:35Z</time>
      </trkpt>
      <trkpt lat="47.69684" lon="-2.25234">
        <ele>65.7</ele>
        <time>2021-05-27T10:33:36Z</time>
      </trkpt>
      <trkpt lat="47.69682" lon="-2.25242">
        <ele>65.5</ele>
        <time>2021-05-27T10:33:37Z</time>
      </trkpt>
      <trkpt lat="47.6968" lon="-2.25248">
        <ele>65.4</ele>
        <time>2021-05-27T10:33:38Z</time>
      </trkpt>
      <trkpt lat="47.69678" lon="-2.25255">
        <ele>65.3</ele>
        <time>2021-05-27T10:33:39Z</time>
      </trkpt>
      <trkpt lat="47.69677" lon="-2.25262">
        <ele>65.3</ele>
        <time>2021-05-27T10:33:40Z</time>
      </trkpt>
      <trkpt lat="47.69675" lon="-2.25269">
        <ele>65.2</ele>
        <time>2021-05-27T10:33:41Z</time>
      </trkpt>
      <trkpt lat="47.69674" lon="-2.25277">
        <ele>65.2</ele>
        <time>2021-05-27T10:33:42Z</time>
      </trkpt>
      <trkpt lat="47.69672" lon="-2.25285">
        <ele>65.2</ele>
        <time>2021-05-27T10:33:43Z</time>
      </trkpt>
      <trkpt lat="47.69671" lon="-2.25294">
        <ele>65.1</ele>
        <time>2021-05-27T10:33:44Z</time>
      </trkpt>
      <trkpt lat="47.6967" lon="-2.25302">
        <ele>65.1</ele>
        <time>2021-05-27T10:33:45Z</time>
      </trkpt>
      <trkpt lat="47.6967" lon="-2.25311">
        <ele>65.1</ele>
        <time>2021-05-27T10:33:46Z</time>
      </trkpt>
      <trkpt lat="47.69669" lon="-2.25319">
        <ele>65.1</ele>
        <time>2021-05-27T10:33:47Z</time>
      </trkpt>
      <trkpt lat="47.69669" lon="-2.25327">
        <ele>65.1</ele>
        <time>2021-05-27T10:33:48Z</time>
      </trkpt>
      <trkpt lat="47.6967" lon="-2.25335">
        <ele>65.1</ele>
        <time>2021-05-27T10:33:49Z</time>
      </trkpt>
      <trkpt lat="47.69671" lon="-2.25342">
        <ele>65.2</ele>
        <time>2021-05-27T10:33:50Z</time>
      </trkpt>
      <trkpt lat="47.69671" lon="-2.2535">
        <ele>65.2</ele>
        <time>2021-05-27T10:33:51Z</time>
      </trkpt>
      <trkpt lat="47.69671" lon="-2.25357">
        <ele>65.2</ele>
        <time>2021-05-27T10:33:52Z</time>
      </trkpt>
      <trkpt lat="47.69671" lon="-2.25363">
        <ele>65.2</ele>
        <time>2021-05-27T10:33:53Z</time>
      </trkpt>
      <trkpt lat="47.69671" lon="-2.25369">
        <ele>65.2</ele>
        <time>2021-05-27T10:33:54Z</time>
      </trkpt>
      <trkpt lat="47.69671" lon="-2.25375">
        <ele>65.2</ele>
        <time>2021-05-27T10:33:55Z</time>
      </trkpt>
      <trkpt lat="47.69672" lon="-2.25381">
        <ele>65.2</ele>
        <time>2021-05-27T10:33:56Z</time>
      </trkpt>
      <trkpt lat="47.69672" lon="-2.25387">
        <ele>65.3</ele>
        <time>2021-05-27T10:33:57Z</time>
      </trkpt>
      <trkpt lat="47.69672" lon="-2.25393">
        <ele>65.3</ele>
        <time>2021-05-27T10:33:58Z</time>
      </trkpt>
      <trkpt lat="47.69673" lon="-2.254">
        <ele>65.4</ele>
        <time>2021-05-27T10:33:59Z</time>
      </trkpt>
      <trkpt lat="47.69675" lon="-2.25406">
        <ele>65.5</ele>
        <time>2021-05-27T10:34:00Z</time>
      </trkpt>
      <trkpt lat="47.69677" lon="-2.25411">
        <ele>65.6</ele>
        <time>2021-05-27T10:34:01Z</time>
      </trkpt>
      <trkpt lat="47.6968" lon="-2.25417">
        <ele>65.8</ele>
        <time>2021-05-27T10:34:02Z</time>
      </trkpt>
      <trkpt lat="47.69682" lon="-2.25422">
        <ele>66</ele>
        <time>2021-05-27T10:34:03Z</time>
      </trkpt>
      <trkpt lat="47.69685" lon="-2.25427">
        <ele>66.1</ele>
        <time>2021-05-27T10:34:04Z</time>
      </trkpt>
      <trkpt lat="47.69689" lon="-2.25431">
        <ele>66.4</ele>
        <time>2021-05-27T10:34:05Z</time>
      </trkpt>
      <trkpt lat="47.69693" lon="-2.25435">
        <ele>66.6</ele>
        <time>2021-05-27T10:34:06Z</time>
      </trkpt>
      <trkpt lat="47.69695" lon="-2.25436">
        <ele>66.8</ele>
        <time>2021-05-27T10:34:07Z</time>
      </trkpt>
      <trkpt lat="47.69698" lon="-2.25438">
        <ele>67</ele>
        <time>2021-05-27T10:34:08Z</time>
      </trkpt>
      <trkpt lat="47.69701" lon="-2.25439">
        <ele>67.2</ele>
        <time>2021-05-27T10:34:09Z</time>
      </trkpt>
      <trkpt lat="47.69704" lon="-2.2544">
        <ele>67.3</ele>
        <time>2021-05-27T10:34:10Z</time>
      </trkpt>
      <trkpt lat="47.69707" lon="-2.25441">
        <ele>67.5</ele>
        <time>2021-05-27T10:34:11Z</time>
      </trkpt>
      <trkpt lat="47.6971" lon="-2.25442">
        <ele>67.8</ele>
        <time>2021-05-27T10:34:12Z</time>
      </trkpt>
      <trkpt lat="47.69714" lon="-2.25443">
        <ele>68</ele>
        <time>2021-05-27T10:34:13Z</time>
      </trkpt>
      <trkpt lat="47.69717" lon="-2.25444">
        <ele>68.2</ele>
        <time>2021-05-27T10:34:14Z</time>
      </trkpt>
      <trkpt lat="47.69722" lon="-2.25445">
        <ele>68.5</ele>
        <time>2021-05-27T10:34:15Z</time>
      </trkpt>
      <trkpt lat="47.69725" lon="-2.25449">
        <ele>68.8</ele>
        <time>2021-05-27T10:34:16Z</time>
      </trkpt>
      <trkpt lat="47.69728" lon="-2.25452">
        <ele>69</ele>
        <time>2021-05-27T10:34:17Z</time>
      </trkpt>
      <trkpt lat="47.69729" lon="-2.25456">
        <ele>69.1</ele>
        <time>2021-05-27T10:34:18Z</time>
      </trkpt>
      <trkpt lat="47.69731" lon="-2.25461">
        <ele>69.3</ele>
        <time>2021-05-27T10:34:19Z</time>
      </trkpt>
      <trkpt lat="47.69734" lon="-2.25465">
        <ele>69.5</ele>
        <time>2021-05-27T10:34:20Z</time>
      </trkpt>
      <trkpt lat="47.69737" lon="-2.25467">
        <ele>69.7</ele>
        <time>2021-05-27T10:34:21Z</time>
      </trkpt>
      <trkpt lat="47.69739" lon="-2.2547">
        <ele>69.9</ele>
        <time>2021-05-27T10:34:22Z</time>
      </trkpt>
      <trkpt lat="47.6974" lon="-2.25472">
        <ele>70</ele>
        <time>2021-05-27T10:34:23Z</time>
      </trkpt>
      <trkpt lat="47.69741" lon="-2.25473">
        <ele>70.1</ele>
        <time>2021-05-27T10:34:24Z</time>
      </trkpt>
      <trkpt lat="47.69741" lon="-2.25473">
        <ele>70.1</ele>
        <time>2021-05-27T10:34:25Z</time>
      </trkpt>
      <trkpt lat="47.69741" lon="-2.25472">
        <ele>70</ele>
        <time>2021-05-27T10:34:26Z</time>
      </trkpt>
      <trkpt lat="47.69741" lon="-2.25472">
        <ele>70</ele>
        <time>2021-05-27T10:34:27Z</time>
      </trkpt>
      <trkpt lat="47.69741" lon="-2.25472">
        <ele>70</ele>
        <time>2021-05-27T10:34:28Z</time>
      </trkpt>
      <trkpt lat="47.69741" lon="-2.25472">
        <ele>70</ele>
        <time>2021-05-27T10:34:29Z</time>
      </trkpt>
      <trkpt lat="47.69741" lon="-2.25472">
        <ele>70</ele>
        <time>2021-05-27T10:34:30Z</time>
      </trkpt>
      <trkpt lat="47.69741" lon="-2.25472">
        <ele>70</ele>
        <time>2021-05-27T10:34:31Z</time>
      </trkpt>
      <trkpt lat="47.69741" lon="-2.25472">
        <ele>70</ele>
        <time>2021-05-27T10:34:32Z</time>
      </trkpt>
      <trkpt lat="47.69741" lon="-2.25472">
        <ele>70</ele>
        <time>2021-05-27T10:34:33Z</time>
      </trkpt>
      <trkpt lat="47.69741" lon="-2.25472">
        <ele>70</ele>
        <time>2021-05-27T10:34:34Z</time>
      </trkpt>
      <trkpt lat="47.69741" lon="-2.25472">
        <ele>70</ele>
        <time>2021-05-27T10:34:35Z</time>
      </trkpt>
      <trkpt lat="47.69741" lon="-2.25472">
        <ele>70</ele>
        <time>2021-05-27T10:34:36Z</time>
      </trkpt>
      <trkpt lat="47.69741" lon="-2.25472">
        <ele>70</ele>
        <time>2021-05-27T10:34:37Z</time>
      </trkpt>
      <trkpt lat="47.69749" lon="-2.25475">
        <ele>70.6</ele>
        <time>2021-05-27T10:34:38Z</time>
      </trkpt>
      <trkpt lat="47.69751" lon="-2.25478">
        <ele>70.7</ele>
        <time>2021-05-27T10:34:39Z</time>
      </trkpt>
      <trkpt lat="47.69754" lon="-2.25482">
        <ele>70.6</ele>
        <time>2021-05-27T10:34:40Z</time>
      </trkpt>
      <trkpt lat="47.69756" lon="-2.25485">
        <ele>70.5</ele>
        <time>2021-05-27T10:34:41Z</time>
      </trkpt>
      <trkpt lat="47.69759" lon="-2.25489">
        <ele>70.5</ele>
        <time>2021-05-27T10:34:42Z</time>
      </trkpt>
      <trkpt lat="47.69762" lon="-2.25492">
        <ele>70.4</ele>
        <time>2021-05-27T10:34:43Z</time>
      </trkpt>
      <trkpt lat="47.69766" lon="-2.25495">
        <ele>70.3</ele>
        <time>2021-05-27T10:34:44Z</time>
      </trkpt>
      <trkpt lat="47.69769" lon="-2.25497">
        <ele>70.2</ele>
        <time>2021-05-27T10:34:45Z</time>
      </trkpt>
      <trkpt lat="47.69773" lon="-2.25498">
        <ele>70.1</ele>
        <time>2021-05-27T10:34:46Z</time>
      </trkpt>
      <trkpt lat="47.69777" lon="-2.25501">
        <ele>70.1</ele>
        <time>2021-05-27T10:34:47Z</time>
      </trkpt>
      <trkpt lat="47.69779" lon="-2.25504">
        <ele>70.1</ele>
        <time>2021-05-27T10:34:48Z</time>
      </trkpt>
      <trkpt lat="47.6978" lon="-2.25509">
        <ele>70.2</ele>
        <time>2021-05-27T10:34:49Z</time>
      </trkpt>
      <trkpt lat="47.69782" lon="-2.25514">
        <ele>70.3</ele>
        <time>2021-05-27T10:34:50Z</time>
      </trkpt>
      <trkpt lat="47.69782" lon="-2.25519">
        <ele>70.5</ele>
        <time>2021-05-27T10:34:51Z</time>
      </trkpt>
      <trkpt lat="47.69783" lon="-2.25525">
        <ele>70.7</ele>
        <time>2021-05-27T10:34:52Z</time>
      </trkpt>
      <trkpt lat="47.69783" lon="-2.25531">
        <ele>70.9</ele>
        <time>2021-05-27T10:34:53Z</time>
      </trkpt>
      <trkpt lat="47.69783" lon="-2.25537">
        <ele>71.1</ele>
        <time>2021-05-27T10:34:54Z</time>
      </trkpt>
      <trkpt lat="47.69784" lon="-2.25542">
        <ele>71.3</ele>
        <time>2021-05-27T10:34:55Z</time>
      </trkpt>
      <trkpt lat="47.69785" lon="-2.25548">
        <ele>71.5</ele>
        <time>2021-05-27T10:34:56Z</time>
      </trkpt>
      <trkpt lat="47.69785" lon="-2.25554">
        <ele>71.8</ele>
        <time>2021-05-27T10:34:57Z</time>
      </trkpt>
      <trkpt lat="47.69786" lon="-2.25561">
        <ele>72</ele>
        <time>2021-05-27T10:34:58Z</time>
      </trkpt>
      <trkpt lat="47.69786" lon="-2.25568">
        <ele>72.3</ele>
        <time>2021-05-27T10:34:59Z</time>
      </trkpt>
      <trkpt lat="47.69787" lon="-2.25574">
        <ele>72.5</ele>
        <time>2021-05-27T10:35:00Z</time>
      </trkpt>
      <trkpt lat="47.69787" lon="-2.25581">
        <ele>72.8</ele>
        <time>2021-05-27T10:35:01Z</time>
      </trkpt>
      <trkpt lat="47.69787" lon="-2.25587">
        <ele>72.8</ele>
        <time>2021-05-27T10:35:02Z</time>
      </trkpt>
      <trkpt lat="47.69787" lon="-2.25593">
        <ele>72.7</ele>
        <time>2021-05-27T10:35:03Z</time>
      </trkpt>
      <trkpt lat="47.69788" lon="-2.256">
        <ele>72.6</ele>
        <time>2021-05-27T10:35:04Z</time>
      </trkpt>
      <trkpt lat="47.69788" lon="-2.25606">
        <ele>72.5</ele>
        <time>2021-05-27T10:35:05Z</time>
      </trkpt>
      <trkpt lat="47.69787" lon="-2.25611">
        <ele>72.4</ele>
        <time>2021-05-27T10:35:06Z</time>
      </trkpt>
      <trkpt lat="47.69786" lon="-2.25616">
        <ele>72.3</ele>
        <time>2021-05-27T10:35:07Z</time>
      </trkpt>
      <trkpt lat="47.69786" lon="-2.2562">
        <ele>72.2</ele>
        <time>2021-05-27T10:35:08Z</time>
      </trkpt>
      <trkpt lat="47.69786" lon="-2.25623">
        <ele>72.2</ele>
        <time>2021-05-27T10:35:09Z</time>
      </trkpt>
      <trkpt lat="47.69786" lon="-2.25626">
        <ele>72.1</ele>
        <time>2021-05-27T10:35:10Z</time>
      </trkpt>
      <trkpt lat="47.69787" lon="-2.2563">
        <ele>72.1</ele>
        <time>2021-05-27T10:35:11Z</time>
      </trkpt>
      <trkpt lat="47.6979" lon="-2.25627">
        <ele>72.2</ele>
        <time>2021-05-27T10:35:41Z</time>
      </trkpt>
      <trkpt lat="47.6979" lon="-2.25627">
        <ele>72.2</ele>
        <time>2021-05-27T10:35:42Z</time>
      </trkpt>
      <trkpt lat="47.6979" lon="-2.25627">
        <ele>72.2</ele>
        <time>2021-05-27T10:35:43Z</time>
      </trkpt>
      <trkpt lat="47.6979" lon="-2.25627">
        <ele>72.2</ele>
        <time>2021-05-27T10:35:44Z</time>
      </trkpt>
      <trkpt lat="47.6979" lon="-2.25627">
        <ele>72.2</ele>
        <time>2021-05-27T10:35:45Z</time>
      </trkpt>
      <trkpt lat="47.69782" lon="-2.25636">
        <ele>71.9</ele>
        <time>2021-05-27T10:35:46Z</time>
      </trkpt>
      <trkpt lat="47.69779" lon="-2.25641">
        <ele>71.8</ele>
        <time>2021-05-27T10:35:47Z</time>
      </trkpt>
      <trkpt lat="47.69777" lon="-2.25646">
        <ele>71.7</ele>
        <time>2021-05-27T10:35:48Z</time>
      </trkpt>
      <trkpt lat="47.69774" lon="-2.25652">
        <ele>71.5</ele>
        <time>2021-05-27T10:35:49Z</time>
      </trkpt>
      <trkpt lat="47.69772" lon="-2.25657">
        <ele>71.4</ele>
        <time>2021-05-27T10:35:50Z</time>
      </trkpt>
      <trkpt lat="47.69771" lon="-2.25662">
        <ele>71.3</ele>
        <time>2021-05-27T10:35:51Z</time>
      </trkpt>
      <trkpt lat="47.6977" lon="-2.25666">
        <ele>71.2</ele>
        <time>2021-05-27T10:35:52Z</time>
      </trkpt>
      <trkpt lat="47.69768" lon="-2.25672">
        <ele>71.1</ele>
        <time>2021-05-27T10:35:53Z</time>
      </trkpt>
      <trkpt lat="47.69767" lon="-2.25677">
        <ele>70.9</ele>
        <time>2021-05-27T10:35:54Z</time>
      </trkpt>
      <trkpt lat="47.69766" lon="-2.25682">
        <ele>70.7</ele>
        <time>2021-05-27T10:35:55Z</time>
      </trkpt>
      <trkpt lat="47.69765" lon="-2.25688">
        <ele>70.6</ele>
        <time>2021-05-27T10:35:56Z</time>
      </trkpt>
      <trkpt lat="47.69764" lon="-2.25694">
        <ele>70.4</ele>
        <time>2021-05-27T10:35:57Z</time>
      </trkpt>
      <trkpt lat="47.69763" lon="-2.25701">
        <ele>70.2</ele>
        <time>2021-05-27T10:35:58Z</time>
      </trkpt>
      <trkpt lat="47.69763" lon="-2.25708">
        <ele>70</ele>
        <time>2021-05-27T10:35:59Z</time>
      </trkpt>
      <trkpt lat="47.69764" lon="-2.25714">
        <ele>69.8</ele>
        <time>2021-05-27T10:36:00Z</time>
      </trkpt>
      <trkpt lat="47.69764" lon="-2.25721">
        <ele>69.7</ele>
        <time>2021-05-27T10:36:01Z</time>
      </trkpt>
      <trkpt lat="47.69763" lon="-2.25728">
        <ele>69.5</ele>
        <time>2021-05-27T10:36:02Z</time>
      </trkpt>
      <trkpt lat="47.69763" lon="-2.25734">
        <ele>69.3</ele>
        <time>2021-05-27T10:36:03Z</time>
      </trkpt>
      <trkpt lat="47.69762" lon="-2.25742">
        <ele>69.1</ele>
        <time>2021-05-27T10:36:04Z</time>
      </trkpt>
      <trkpt lat="47.69762" lon="-2.25749">
        <ele>68.9</ele>
        <time>2021-05-27T10:36:05Z</time>
      </trkpt>
      <trkpt lat="47.69761" lon="-2.25757">
        <ele>68.6</ele>
        <time>2021-05-27T10:36:06Z</time>
      </trkpt>
      <trkpt lat="47.6976" lon="-2.25764">
        <ele>68.4</ele>
        <time>2021-05-27T10:36:07Z</time>
      </trkpt>
      <trkpt lat="47.69759" lon="-2.25771">
        <ele>68.2</ele>
        <time>2021-05-27T10:36:08Z</time>
      </trkpt>
      <trkpt lat="47.69759" lon="-2.25779">
        <ele>67.9</ele>
        <time>2021-05-27T10:36:09Z</time>
      </trkpt>
      <trkpt lat="47.69759" lon="-2.25787">
        <ele>67.6</ele>
        <time>2021-05-27T10:36:10Z</time>
      </trkpt>
      <trkpt lat="47.6976" lon="-2.25794">
        <ele>67.4</ele>
        <time>2021-05-27T10:36:11Z</time>
      </trkpt>
      <trkpt lat="47.69761" lon="-2.25801">
        <ele>67.1</ele>
        <time>2021-05-27T10:36:12Z</time>
      </trkpt>
      <trkpt lat="47.69762" lon="-2.25808">
        <ele>66.9</ele>
        <time>2021-05-27T10:36:13Z</time>
      </trkpt>
      <trkpt lat="47.69763" lon="-2.25815">
        <ele>66.6</ele>
        <time>2021-05-27T10:36:14Z</time>
      </trkpt>
      <trkpt lat="47.69766" lon="-2.25823">
        <ele>66.4</ele>
        <time>2021-05-27T10:36:15Z</time>
      </trkpt>
      <trkpt lat="47.69767" lon="-2.2583">
        <ele>66.1</ele>
        <time>2021-05-27T10:36:16Z</time>
      </trkpt>
      <trkpt lat="47.69769" lon="-2.25837">
        <ele>66</ele>
        <time>2021-05-27T10:36:17Z</time>
      </trkpt>
      <trkpt lat="47.69769" lon="-2.25843">
        <ele>66</ele>
        <time>2021-05-27T10:36:18Z</time>
      </trkpt>
      <trkpt lat="47.69769" lon="-2.2585">
        <ele>66</ele>
        <time>2021-05-27T10:36:19Z</time>
      </trkpt>
      <trkpt lat="47.6977" lon="-2.25856">
        <ele>66</ele>
        <time>2021-05-27T10:36:20Z</time>
      </trkpt>
      <trkpt lat="47.69771" lon="-2.25863">
        <ele>66</ele>
        <time>2021-05-27T10:36:21Z</time>
      </trkpt>
      <trkpt lat="47.69773" lon="-2.25869">
        <ele>66</ele>
        <time>2021-05-27T10:36:22Z</time>
      </trkpt>
      <trkpt lat="47.69774" lon="-2.25876">
        <ele>66.1</ele>
        <time>2021-05-27T10:36:23Z</time>
      </trkpt>
      <trkpt lat="47.69774" lon="-2.25883">
        <ele>66.1</ele>
        <time>2021-05-27T10:36:24Z</time>
      </trkpt>
      <trkpt lat="47.69775" lon="-2.2589">
        <ele>66.1</ele>
        <time>2021-05-27T10:36:25Z</time>
      </trkpt>
      <trkpt lat="47.69776" lon="-2.25898">
        <ele>66.2</ele>
        <time>2021-05-27T10:36:26Z</time>
      </trkpt>
      <trkpt lat="47.69776" lon="-2.25905">
        <ele>66.2</ele>
        <time>2021-05-27T10:36:27Z</time>
      </trkpt>
      <trkpt lat="47.69776" lon="-2.25912">
        <ele>66.2</ele>
        <time>2021-05-27T10:36:28Z</time>
      </trkpt>
      <trkpt lat="47.69776" lon="-2.25919">
        <ele>66.2</ele>
        <time>2021-05-27T10:36:29Z</time>
      </trkpt>
      <trkpt lat="47.69776" lon="-2.25927">
        <ele>65.9</ele>
        <time>2021-05-27T10:36:30Z</time>
      </trkpt>
      <trkpt lat="47.69776" lon="-2.25934">
        <ele>65.7</ele>
        <time>2021-05-27T10:36:31Z</time>
      </trkpt>
      <trkpt lat="47.69778" lon="-2.25942">
        <ele>65.5</ele>
        <time>2021-05-27T10:36:32Z</time>
      </trkpt>
      <trkpt lat="47.6978" lon="-2.25949">
        <ele>65.4</ele>
        <time>2021-05-27T10:36:33Z</time>
      </trkpt>
      <trkpt lat="47.69781" lon="-2.25957">
        <ele>65.2</ele>
        <time>2021-05-27T10:36:34Z</time>
      </trkpt>
      <trkpt lat="47.69783" lon="-2.25965">
        <ele>65</ele>
        <time>2021-05-27T10:36:35Z</time>
      </trkpt>
      <trkpt lat="47.69784" lon="-2.25974">
        <ele>64.8</ele>
        <time>2021-05-27T10:36:36Z</time>
      </trkpt>
      <trkpt lat="47.69785" lon="-2.25982">
        <ele>64.7</ele>
        <time>2021-05-27T10:36:37Z</time>
      </trkpt>
      <trkpt lat="47.69786" lon="-2.2599">
        <ele>64.5</ele>
        <time>2021-05-27T10:36:38Z</time>
      </trkpt>
      <trkpt lat="47.69787" lon="-2.25998">
        <ele>64.3</ele>
        <time>2021-05-27T10:36:39Z</time>
      </trkpt>
      <trkpt lat="47.69789" lon="-2.26005">
        <ele>64.2</ele>
        <time>2021-05-27T10:36:40Z</time>
      </trkpt>
      <trkpt lat="47.69791" lon="-2.26011">
        <ele>64.1</ele>
        <time>2021-05-27T10:36:41Z</time>
      </trkpt>
      <trkpt lat="47.69794" lon="-2.26018">
        <ele>64.1</ele>
        <time>2021-05-27T10:36:42Z</time>
      </trkpt>
      <trkpt lat="47.69796" lon="-2.26025">
        <ele>64.1</ele>
        <time>2021-05-27T10:36:43Z</time>
      </trkpt>
      <trkpt lat="47.69798" lon="-2.26032">
        <ele>64</ele>
        <time>2021-05-27T10:36:44Z</time>
      </trkpt>
      <trkpt lat="47.69799" lon="-2.26039">
        <ele>63.9</ele>
        <time>2021-05-27T10:36:45Z</time>
      </trkpt>
      <trkpt lat="47.698" lon="-2.26045">
        <ele>63.8</ele>
        <time>2021-05-27T10:36:46Z</time>
      </trkpt>
      <trkpt lat="47.698" lon="-2.26051">
        <ele>63.6</ele>
        <time>2021-05-27T10:36:47Z</time>
      </trkpt>
      <trkpt lat="47.698" lon="-2.26058">
        <ele>63.4</ele>
        <time>2021-05-27T10:36:48Z</time>
      </trkpt>
      <trkpt lat="47.69799" lon="-2.26065">
        <ele>63.2</ele>
        <time>2021-05-27T10:36:49Z</time>
      </trkpt>
      <trkpt lat="47.69799" lon="-2.26072">
        <ele>63</ele>
        <time>2021-05-27T10:36:50Z</time>
      </trkpt>
      <trkpt lat="47.69799" lon="-2.2608">
        <ele>62.8</ele>
        <time>2021-05-27T10:36:51Z</time>
      </trkpt>
      <trkpt lat="47.69801" lon="-2.26087">
        <ele>62.8</ele>
        <time>2021-05-27T10:36:52Z</time>
      </trkpt>
      <trkpt lat="47.69802" lon="-2.26094">
        <ele>62.7</ele>
        <time>2021-05-27T10:36:53Z</time>
      </trkpt>
      <trkpt lat="47.69803" lon="-2.261">
        <ele>62.6</ele>
        <time>2021-05-27T10:36:54Z</time>
      </trkpt>
      <trkpt lat="47.69803" lon="-2.26106">
        <ele>62.4</ele>
        <time>2021-05-27T10:36:55Z</time>
      </trkpt>
      <trkpt lat="47.69804" lon="-2.26113">
        <ele>62.2</ele>
        <time>2021-05-27T10:36:56Z</time>
      </trkpt>
      <trkpt lat="47.69804" lon="-2.26121">
        <ele>62</ele>
        <time>2021-05-27T10:36:57Z</time>
      </trkpt>
      <trkpt lat="47.69804" lon="-2.26128">
        <ele>61.7</ele>
        <time>2021-05-27T10:36:58Z</time>
      </trkpt>
      <trkpt lat="47.69805" lon="-2.26135">
        <ele>61.6</ele>
        <time>2021-05-27T10:36:59Z</time>
      </trkpt>
      <trkpt lat="47.69805" lon="-2.26143">
        <ele>61.4</ele>
        <time>2021-05-27T10:37:00Z</time>
      </trkpt>
      <trkpt lat="47.69806" lon="-2.26151">
        <ele>61.2</ele>
        <time>2021-05-27T10:37:01Z</time>
      </trkpt>
      <trkpt lat="47.69806" lon="-2.26159">
        <ele>61</ele>
        <time>2021-05-27T10:37:02Z</time>
      </trkpt>
      <trkpt lat="47.69807" lon="-2.26167">
        <ele>60.8</ele>
        <time>2021-05-27T10:37:03Z</time>
      </trkpt>
      <trkpt lat="47.69809" lon="-2.26174">
        <ele>60.4</ele>
        <time>2021-05-27T10:37:04Z</time>
      </trkpt>
      <trkpt lat="47.6981" lon="-2.26179">
        <ele>60.1</ele>
        <time>2021-05-27T10:37:05Z</time>
      </trkpt>
      <trkpt lat="47.69811" lon="-2.26182">
        <ele>59.8</ele>
        <time>2021-05-27T10:37:06Z</time>
      </trkpt>
      <trkpt lat="47.69811" lon="-2.26185">
        <ele>59.5</ele>
        <time>2021-05-27T10:37:07Z</time>
      </trkpt>
      <trkpt lat="47.69811" lon="-2.26186">
        <ele>59.4</ele>
        <time>2021-05-27T10:37:08Z</time>
      </trkpt>
      <trkpt lat="47.69811" lon="-2.26186">
        <ele>59.4</ele>
        <time>2021-05-27T10:37:09Z</time>
      </trkpt>
      <trkpt lat="47.69811" lon="-2.26187">
        <ele>59.4</ele>
        <time>2021-05-27T10:37:10Z</time>
      </trkpt>
      <trkpt lat="47.69811" lon="-2.26187">
        <ele>59.4</ele>
        <time>2021-05-27T10:37:11Z</time>
      </trkpt>
      <trkpt lat="47.69811" lon="-2.26187">
        <ele>59.4</ele>
        <time>2021-05-27T10:37:12Z</time>
      </trkpt>
      <trkpt lat="47.69811" lon="-2.26187">
        <ele>59.4</ele>
        <time>2021-05-27T10:37:13Z</time>
      </trkpt>
      <trkpt lat="47.69811" lon="-2.26187">
        <ele>59.4</ele>
        <time>2021-05-27T10:37:14Z</time>
      </trkpt>
      <trkpt lat="47.69813" lon="-2.26185">
        <ele>59.7</ele>
        <time>2021-05-27T10:37:15Z</time>
      </trkpt>
      <trkpt lat="47.69814" lon="-2.26185">
        <ele>59.8</ele>
        <time>2021-05-27T10:37:16Z</time>
      </trkpt>
      <trkpt lat="47.69815" lon="-2.26186">
        <ele>59.8</ele>
        <time>2021-05-27T10:37:17Z</time>
      </trkpt>
      <trkpt lat="47.69817" lon="-2.26188">
        <ele>59.8</ele>
        <time>2021-05-27T10:37:18Z</time>
      </trkpt>
      <trkpt lat="47.69819" lon="-2.2619">
        <ele>59.9</ele>
        <time>2021-05-27T10:37:19Z</time>
      </trkpt>
      <trkpt lat="47.69822" lon="-2.26192">
        <ele>59.9</ele>
        <time>2021-05-27T10:37:20Z</time>
      </trkpt>
      <trkpt lat="47.69823" lon="-2.26192">
        <ele>59.9</ele>
        <time>2021-05-27T10:37:21Z</time>
      </trkpt>
      <trkpt lat="47.69824" lon="-2.26194">
        <ele>59.9</ele>
        <time>2021-05-27T10:37:22Z</time>
      </trkpt>
      <trkpt lat="47.69825" lon="-2.26195">
        <ele>59.8</ele>
        <time>2021-05-27T10:37:23Z</time>
      </trkpt>
      <trkpt lat="47.69826" lon="-2.26197">
        <ele>59.8</ele>
        <time>2021-05-27T10:37:24Z</time>
      </trkpt>
      <trkpt lat="47.69827" lon="-2.26199">
        <ele>59.5</ele>
        <time>2021-05-27T10:37:25Z</time>
      </trkpt>
      <trkpt lat="47.69828" lon="-2.26201">
        <ele>59.4</ele>
        <time>2021-05-27T10:37:26Z</time>
      </trkpt>
      <trkpt lat="47.69829" lon="-2.26202">
        <ele>59.4</ele>
        <time>2021-05-27T10:37:27Z</time>
      </trkpt>
      <trkpt lat="47.6983" lon="-2.26202">
        <ele>59.5</ele>
        <time>2021-05-27T10:37:28Z</time>
      </trkpt>
      <trkpt lat="47.69831" lon="-2.26202">
        <ele>59.5</ele>
        <time>2021-05-27T10:37:29Z</time>
      </trkpt>
      <trkpt lat="47.69831" lon="-2.26202">
        <ele>59.5</ele>
        <time>2021-05-27T10:37:30Z</time>
      </trkpt>
      <trkpt lat="47.69831" lon="-2.26202">
        <ele>59.5</ele>
        <time>2021-05-27T10:37:31Z</time>
      </trkpt>
      <trkpt lat="47.69831" lon="-2.26202">
        <ele>59.5</ele>
        <time>2021-05-27T10:37:32Z</time>
      </trkpt>
      <trkpt lat="47.69831" lon="-2.26202">
        <ele>59.5</ele>
        <time>2021-05-27T10:37:33Z</time>
      </trkpt>
      <trkpt lat="47.69831" lon="-2.26202">
        <ele>59.5</ele>
        <time>2021-05-27T10:37:34Z</time>
      </trkpt>
      <trkpt lat="47.69831" lon="-2.26202">
        <ele>59.5</ele>
        <time>2021-05-27T10:37:35Z</time>
      </trkpt>
      <trkpt lat="47.69831" lon="-2.26202">
        <ele>59.5</ele>
        <time>2021-05-27T10:37:36Z</time>
      </trkpt>
      <trkpt lat="47.69831" lon="-2.26202">
        <ele>59.5</ele>
        <time>2021-05-27T10:37:37Z</time>
      </trkpt>
      <trkpt lat="47.69831" lon="-2.26202">
        <ele>59.5</ele>
        <time>2021-05-27T10:37:38Z</time>
      </trkpt>
      <trkpt lat="47.69831" lon="-2.26202">
        <ele>59.5</ele>
        <time>2021-05-27T10:37:39Z</time>
      </trkpt>
      <trkpt lat="47.69831" lon="-2.26202">
        <ele>59.5</ele>
        <time>2021-05-27T10:37:40Z</time>
      </trkpt>
      <trkpt lat="47.69831" lon="-2.26202">
        <ele>59.5</ele>
        <time>2021-05-27T10:37:41Z</time>
      </trkpt>
      <trkpt lat="47.69831" lon="-2.26202">
        <ele>59.5</ele>
        <time>2021-05-27T10:37:42Z</time>
      </trkpt>
      <trkpt lat="47.69831" lon="-2.26202">
        <ele>59.5</ele>
        <time>2021-05-27T10:37:43Z</time>
      </trkpt>
      <trkpt lat="47.69831" lon="-2.26202">
        <ele>59.5</ele>
        <time>2021-05-27T10:37:44Z</time>
      </trkpt>
      <trkpt lat="47.69831" lon="-2.26202">
        <ele>59.5</ele>
        <time>2021-05-27T10:37:45Z</time>
      </trkpt>
      <trkpt lat="47.69831" lon="-2.26202">
        <ele>59.5</ele>
        <time>2021-05-27T10:37:46Z</time>
      </trkpt>
      <trkpt lat="47.69831" lon="-2.26202">
        <ele>59.5</ele>
        <time>2021-05-27T10:37:47Z</time>
      </trkpt>
      <trkpt lat="47.69831" lon="-2.26202">
        <ele>59.5</ele>
        <time>2021-05-27T10:37:48Z</time>
      </trkpt>
      <trkpt lat="47.69831" lon="-2.26202">
        <ele>59.5</ele>
        <time>2021-05-27T10:37:49Z</time>
      </trkpt>
      <trkpt lat="47.69831" lon="-2.26202">
        <ele>59.5</ele>
        <time>2021-05-27T10:37:50Z</time>
      </trkpt>
      <trkpt lat="47.69831" lon="-2.26202">
        <ele>59.5</ele>
        <time>2021-05-27T10:37:51Z</time>
      </trkpt>
      <trkpt lat="47.69831" lon="-2.26202">
        <ele>59.5</ele>
        <time>2021-05-27T10:37:52Z</time>
      </trkpt>
      <trkpt lat="47.69831" lon="-2.26202">
        <ele>59.5</ele>
        <time>2021-05-27T10:37:53Z</time>
      </trkpt>
      <trkpt lat="47.69831" lon="-2.26202">
        <ele>59.5</ele>
        <time>2021-05-27T10:37:54Z</time>
      </trkpt>
      <trkpt lat="47.69831" lon="-2.26202">
        <ele>59.5</ele>
        <time>2021-05-27T10:37:55Z</time>
      </trkpt>
      <trkpt lat="47.69831" lon="-2.26202">
        <ele>59.5</ele>
        <time>2021-05-27T10:37:56Z</time>
      </trkpt>
      <trkpt lat="47.69834" lon="-2.26188">
        <ele>61.3</ele>
        <time>2021-05-27T10:37:57Z</time>
      </trkpt>
      <trkpt lat="47.69835" lon="-2.26188">
        <ele>61.1</ele>
        <time>2021-05-27T10:37:58Z</time>
      </trkpt>
      <trkpt lat="47.69835" lon="-2.26188">
        <ele>61</ele>
        <time>2021-05-27T10:37:59Z</time>
      </trkpt>
      <trkpt lat="47.69836" lon="-2.26188">
        <ele>60.7</ele>
        <time>2021-05-27T10:38:00Z</time>
      </trkpt>
      <trkpt lat="47.69836" lon="-2.26188">
        <ele>60.7</ele>
        <time>2021-05-27T10:38:01Z</time>
      </trkpt>
      <trkpt lat="47.69836" lon="-2.26188">
        <ele>60.7</ele>
        <time>2021-05-27T10:38:02Z</time>
      </trkpt>
      <trkpt lat="47.69836" lon="-2.26188">
        <ele>60.7</ele>
        <time>2021-05-27T10:38:03Z</time>
      </trkpt>
      <trkpt lat="47.69836" lon="-2.26188">
        <ele>60.7</ele>
        <time>2021-05-27T10:38:04Z</time>
      </trkpt>
      <trkpt lat="47.69836" lon="-2.26188">
        <ele>60.7</ele>
        <time>2021-05-27T10:38:05Z</time>
      </trkpt>
      <trkpt lat="47.69836" lon="-2.26188">
        <ele>60.7</ele>
        <time>2021-05-27T10:38:06Z</time>
      </trkpt>
      <trkpt lat="47.69836" lon="-2.26188">
        <ele>60.7</ele>
        <time>2021-05-27T10:38:07Z</time>
      </trkpt>
      <trkpt lat="47.69843" lon="-2.26185">
        <ele>59.2</ele>
        <time>2021-05-27T10:38:08Z</time>
      </trkpt>
      <trkpt lat="47.69845" lon="-2.26186">
        <ele>58.6</ele>
        <time>2021-05-27T10:38:09Z</time>
      </trkpt>
      <trkpt lat="47.69847" lon="-2.26186">
        <ele>58.1</ele>
        <time>2021-05-27T10:38:10Z</time>
      </trkpt>
      <trkpt lat="47.69849" lon="-2.26187">
        <ele>57.5</ele>
        <time>2021-05-27T10:38:11Z</time>
      </trkpt>
      <trkpt lat="47.6985" lon="-2.26188">
        <ele>57</ele>
        <time>2021-05-27T10:38:12Z</time>
      </trkpt>
      <trkpt lat="47.69852" lon="-2.26189">
        <ele>56.6</ele>
        <time>2021-05-27T10:38:13Z</time>
      </trkpt>
      <trkpt lat="47.69854" lon="-2.26189">
        <ele>56.1</ele>
        <time>2021-05-27T10:38:14Z</time>
      </trkpt>
      <trkpt lat="47.69857" lon="-2.26187">
        <ele>55.6</ele>
        <time>2021-05-27T10:38:15Z</time>
      </trkpt>
      <trkpt lat="47.69859" lon="-2.26185">
        <ele>55.2</ele>
        <time>2021-05-27T10:38:16Z</time>
      </trkpt>
      <trkpt lat="47.69862" lon="-2.26182">
        <ele>54.7</ele>
        <time>2021-05-27T10:38:17Z</time>
      </trkpt>
      <trkpt lat="47.69863" lon="-2.26179">
        <ele>54.8</ele>
        <time>2021-05-27T10:38:18Z</time>
      </trkpt>
      <trkpt lat="47.69865" lon="-2.26177">
        <ele>54.4</ele>
        <time>2021-05-27T10:38:19Z</time>
      </trkpt>
      <trkpt lat="47.69867" lon="-2.26175">
        <ele>54.3</ele>
        <time>2021-05-27T10:38:20Z</time>
      </trkpt>
      <trkpt lat="47.69869" lon="-2.26172">
        <ele>54</ele>
        <time>2021-05-27T10:38:21Z</time>
      </trkpt>
      <trkpt lat="47.69871" lon="-2.26171">
        <ele>53.7</ele>
        <time>2021-05-27T10:38:22Z</time>
      </trkpt>
      <trkpt lat="47.69871" lon="-2.26169">
        <ele>53.8</ele>
        <time>2021-05-27T10:38:23Z</time>
      </trkpt>
      <trkpt lat="47.69872" lon="-2.26166">
        <ele>53.8</ele>
        <time>2021-05-27T10:38:24Z</time>
      </trkpt>
      <trkpt lat="47.69874" lon="-2.26163">
        <ele>53.5</ele>
        <time>2021-05-27T10:38:25Z</time>
      </trkpt>
      <trkpt lat="47.69874" lon="-2.2616">
        <ele>53.5</ele>
        <time>2021-05-27T10:38:26Z</time>
      </trkpt>
      <trkpt lat="47.69876" lon="-2.26159">
        <ele>53.2</ele>
        <time>2021-05-27T10:38:27Z</time>
      </trkpt>
      <trkpt lat="47.69877" lon="-2.26157">
        <ele>53</ele>
        <time>2021-05-27T10:38:28Z</time>
      </trkpt>
      <trkpt lat="47.69878" lon="-2.26157">
        <ele>52.8</ele>
        <time>2021-05-27T10:38:29Z</time>
      </trkpt>
      <trkpt lat="47.69879" lon="-2.26157">
        <ele>52.6</ele>
        <time>2021-05-27T10:38:30Z</time>
      </trkpt>
      <trkpt lat="47.69878" lon="-2.26159">
        <ele>52.5</ele>
        <time>2021-05-27T10:38:31Z</time>
      </trkpt>
      <trkpt lat="47.69879" lon="-2.2616">
        <ele>52.4</ele>
        <time>2021-05-27T10:38:32Z</time>
      </trkpt>
      <trkpt lat="47.69878" lon="-2.26161">
        <ele>52.4</ele>
        <time>2021-05-27T10:38:33Z</time>
      </trkpt>
      <trkpt lat="47.69879" lon="-2.26162">
        <ele>52.3</ele>
        <time>2021-05-27T10:38:34Z</time>
      </trkpt>
      <trkpt lat="47.69879" lon="-2.26162">
        <ele>52.2</ele>
        <time>2021-05-27T10:38:35Z</time>
      </trkpt>
      <trkpt lat="47.69879" lon="-2.26162">
        <ele>52.2</ele>
        <time>2021-05-27T10:38:36Z</time>
      </trkpt>
      <trkpt lat="47.69879" lon="-2.26162">
        <ele>52.2</ele>
        <time>2021-05-27T10:38:37Z</time>
      </trkpt>
      <trkpt lat="47.69879" lon="-2.26162">
        <ele>52.2</ele>
        <time>2021-05-27T10:38:38Z</time>
      </trkpt>
      <trkpt lat="47.69879" lon="-2.26162">
        <ele>52.2</ele>
        <time>2021-05-27T10:38:39Z</time>
      </trkpt>
      <trkpt lat="47.69879" lon="-2.26162">
        <ele>52.2</ele>
        <time>2021-05-27T10:38:40Z</time>
      </trkpt>
      <trkpt lat="47.69879" lon="-2.26162">
        <ele>52.2</ele>
        <time>2021-05-27T10:38:41Z</time>
      </trkpt>
      <trkpt lat="47.69879" lon="-2.26162">
        <ele>52.2</ele>
        <time>2021-05-27T10:38:42Z</time>
      </trkpt>
      <trkpt lat="47.69879" lon="-2.26162">
        <ele>52.2</ele>
        <time>2021-05-27T10:38:43Z</time>
      </trkpt>
      <trkpt lat="47.69879" lon="-2.26162">
        <ele>52.2</ele>
        <time>2021-05-27T10:38:44Z</time>
      </trkpt>
      <trkpt lat="47.69882" lon="-2.26175">
        <ele>50.3</ele>
        <time>2021-05-27T10:38:45Z</time>
      </trkpt>
      <trkpt lat="47.69881" lon="-2.26177">
        <ele>50.3</ele>
        <time>2021-05-27T10:38:46Z</time>
      </trkpt>
      <trkpt lat="47.6988" lon="-2.26179">
        <ele>50.5</ele>
        <time>2021-05-27T10:38:47Z</time>
      </trkpt>
      <trkpt lat="47.69879" lon="-2.26182">
        <ele>50.4</ele>
        <time>2021-05-27T10:38:48Z</time>
      </trkpt>
      <trkpt lat="47.69878" lon="-2.26185">
        <ele>50.3</ele>
        <time>2021-05-27T10:38:49Z</time>
      </trkpt>
      <trkpt lat="47.69876" lon="-2.2619">
        <ele>50.2</ele>
        <time>2021-05-27T10:38:50Z</time>
      </trkpt>
      <trkpt lat="47.69875" lon="-2.26194">
        <ele>50.2</ele>
        <time>2021-05-27T10:38:51Z</time>
      </trkpt>
      <trkpt lat="47.69874" lon="-2.26197">
        <ele>50.1</ele>
        <time>2021-05-27T10:38:52Z</time>
      </trkpt>
      <trkpt lat="47.69873" lon="-2.26201">
        <ele>49.9</ele>
        <time>2021-05-27T10:38:53Z</time>
      </trkpt>
      <trkpt lat="47.69872" lon="-2.26203">
        <ele>49.9</ele>
        <time>2021-05-27T10:38:54Z</time>
      </trkpt>
      <trkpt lat="47.69872" lon="-2.26205">
        <ele>49.7</ele>
        <time>2021-05-27T10:38:55Z</time>
      </trkpt>
      <trkpt lat="47.69872" lon="-2.26206">
        <ele>49.4</ele>
        <time>2021-05-27T10:38:56Z</time>
      </trkpt>
      <trkpt lat="47.69874" lon="-2.26204">
        <ele>49.2</ele>
        <time>2021-05-27T10:38:57Z</time>
      </trkpt>
      <trkpt lat="47.69875" lon="-2.26204">
        <ele>48.9</ele>
        <time>2021-05-27T10:38:58Z</time>
      </trkpt>
      <trkpt lat="47.69878" lon="-2.262">
        <ele>48.7</ele>
        <time>2021-05-27T10:38:59Z</time>
      </trkpt>
      <trkpt lat="47.69881" lon="-2.26196">
        <ele>48.4</ele>
        <time>2021-05-27T10:39:00Z</time>
      </trkpt>
      <trkpt lat="47.69884" lon="-2.26191">
        <ele>47.9</ele>
        <time>2021-05-27T10:39:01Z</time>
      </trkpt>
      <trkpt lat="47.69889" lon="-2.26186">
        <ele>47.3</ele>
        <time>2021-05-27T10:39:02Z</time>
      </trkpt>
      <trkpt lat="47.69894" lon="-2.26181">
        <ele>46.5</ele>
        <time>2021-05-27T10:39:03Z</time>
      </trkpt>
      <trkpt lat="47.69898" lon="-2.26177">
        <ele>45.9</ele>
        <time>2021-05-27T10:39:04Z</time>
      </trkpt>
      <trkpt lat="47.69903" lon="-2.26171">
        <ele>45.1</ele>
        <time>2021-05-27T10:39:05Z</time>
      </trkpt>
      <trkpt lat="47.69908" lon="-2.26165">
        <ele>44.4</ele>
        <time>2021-05-27T10:39:06Z</time>
      </trkpt>
      <trkpt lat="47.69913" lon="-2.26159">
        <ele>43.6</ele>
        <time>2021-05-27T10:39:07Z</time>
      </trkpt>
      <trkpt lat="47.69916" lon="-2.26155">
        <ele>43</ele>
        <time>2021-05-27T10:39:08Z</time>
      </trkpt>
      <trkpt lat="47.6992" lon="-2.26154">
        <ele>42.3</ele>
        <time>2021-05-27T10:39:09Z</time>
      </trkpt>
      <trkpt lat="47.69923" lon="-2.26151">
        <ele>41.7</ele>
        <time>2021-05-27T10:39:10Z</time>
      </trkpt>
      <trkpt lat="47.69925" lon="-2.26148">
        <ele>41.3</ele>
        <time>2021-05-27T10:39:11Z</time>
      </trkpt>
      <trkpt lat="47.69927" lon="-2.26146">
        <ele>40.9</ele>
        <time>2021-05-27T10:39:12Z</time>
      </trkpt>
      <trkpt lat="47.6993" lon="-2.26143">
        <ele>40.3</ele>
        <time>2021-05-27T10:39:13Z</time>
      </trkpt>
      <trkpt lat="47.69934" lon="-2.26139">
        <ele>39.6</ele>
        <time>2021-05-27T10:39:14Z</time>
      </trkpt>
      <trkpt lat="47.69937" lon="-2.26137">
        <ele>38.8</ele>
        <time>2021-05-27T10:39:15Z</time>
      </trkpt>
      <trkpt lat="47.6994" lon="-2.26136">
        <ele>38</ele>
        <time>2021-05-27T10:39:16Z</time>
      </trkpt>
      <trkpt lat="47.69944" lon="-2.26135">
        <ele>36.9</ele>
        <time>2021-05-27T10:39:17Z</time>
      </trkpt>
      <trkpt lat="47.69948" lon="-2.26131">
        <ele>36.2</ele>
        <time>2021-05-27T10:39:18Z</time>
      </trkpt>
      <trkpt lat="47.6995" lon="-2.26128">
        <ele>35.8</ele>
        <time>2021-05-27T10:39:19Z</time>
      </trkpt>
      <trkpt lat="47.69952" lon="-2.26126">
        <ele>35.5</ele>
        <time>2021-05-27T10:39:20Z</time>
      </trkpt>
      <trkpt lat="47.69953" lon="-2.26123">
        <ele>35.4</ele>
        <time>2021-05-27T10:39:21Z</time>
      </trkpt>
      <trkpt lat="47.69955" lon="-2.2612">
        <ele>35</ele>
        <time>2021-05-27T10:39:22Z</time>
      </trkpt>
      <trkpt lat="47.69956" lon="-2.26116">
        <ele>35</ele>
        <time>2021-05-27T10:39:23Z</time>
      </trkpt>
      <trkpt lat="47.69956" lon="-2.26112">
        <ele>35.2</ele>
        <time>2021-05-27T10:39:24Z</time>
      </trkpt>
      <trkpt lat="47.69957" lon="-2.26108">
        <ele>35.4</ele>
        <time>2021-05-27T10:39:25Z</time>
      </trkpt>
      <trkpt lat="47.69957" lon="-2.26103">
        <ele>35.6</ele>
        <time>2021-05-27T10:39:26Z</time>
      </trkpt>
      <trkpt lat="47.69957" lon="-2.26099">
        <ele>35.8</ele>
        <time>2021-05-27T10:39:27Z</time>
      </trkpt>
      <trkpt lat="47.69957" lon="-2.26095">
        <ele>36</ele>
        <time>2021-05-27T10:39:28Z</time>
      </trkpt>
      <trkpt lat="47.69958" lon="-2.26091">
        <ele>36.1</ele>
        <time>2021-05-27T10:39:29Z</time>
      </trkpt>
      <trkpt lat="47.69959" lon="-2.26087">
        <ele>36.1</ele>
        <time>2021-05-27T10:39:30Z</time>
      </trkpt>
      <trkpt lat="47.6996" lon="-2.26083">
        <ele>36</ele>
        <time>2021-05-27T10:39:31Z</time>
      </trkpt>
      <trkpt lat="47.69961" lon="-2.26079">
        <ele>36</ele>
        <time>2021-05-27T10:39:32Z</time>
      </trkpt>
      <trkpt lat="47.69962" lon="-2.26074">
        <ele>36</ele>
        <time>2021-05-27T10:39:33Z</time>
      </trkpt>
      <trkpt lat="47.69963" lon="-2.26069">
        <ele>36.2</ele>
        <time>2021-05-27T10:39:34Z</time>
      </trkpt>
      <trkpt lat="47.69964" lon="-2.26064">
        <ele>36.3</ele>
        <time>2021-05-27T10:39:35Z</time>
      </trkpt>
      <trkpt lat="47.69965" lon="-2.26059">
        <ele>36.3</ele>
        <time>2021-05-27T10:39:36Z</time>
      </trkpt>
      <trkpt lat="47.69966" lon="-2.26054">
        <ele>36.5</ele>
        <time>2021-05-27T10:39:37Z</time>
      </trkpt>
      <trkpt lat="47.69967" lon="-2.26049">
        <ele>36.6</ele>
        <time>2021-05-27T10:39:38Z</time>
      </trkpt>
      <trkpt lat="47.69968" lon="-2.26044">
        <ele>36.6</ele>
        <time>2021-05-27T10:39:39Z</time>
      </trkpt>
      <trkpt lat="47.69969" lon="-2.2604">
        <ele>36.6</ele>
        <time>2021-05-27T10:39:40Z</time>
      </trkpt>
      <trkpt lat="47.6997" lon="-2.26035">
        <ele>36.5</ele>
        <time>2021-05-27T10:39:41Z</time>
      </trkpt>
      <trkpt lat="47.69972" lon="-2.2603">
        <ele>36.6</ele>
        <time>2021-05-27T10:39:42Z</time>
      </trkpt>
      <trkpt lat="47.69973" lon="-2.26026">
        <ele>36.6</ele>
        <time>2021-05-27T10:39:43Z</time>
      </trkpt>
      <trkpt lat="47.69973" lon="-2.26021">
        <ele>36.7</ele>
        <time>2021-05-27T10:39:44Z</time>
      </trkpt>
      <trkpt lat="47.69974" lon="-2.26016">
        <ele>36.9</ele>
        <time>2021-05-27T10:39:45Z</time>
      </trkpt>
      <trkpt lat="47.69975" lon="-2.26011">
        <ele>37</ele>
        <time>2021-05-27T10:39:46Z</time>
      </trkpt>
      <trkpt lat="47.69976" lon="-2.26007">
        <ele>37.1</ele>
        <time>2021-05-27T10:39:47Z</time>
      </trkpt>
      <trkpt lat="47.69976" lon="-2.26002">
        <ele>37.3</ele>
        <time>2021-05-27T10:39:48Z</time>
      </trkpt>
      <trkpt lat="47.69977" lon="-2.25996">
        <ele>37.4</ele>
        <time>2021-05-27T10:39:49Z</time>
      </trkpt>
      <trkpt lat="47.69977" lon="-2.25991">
        <ele>37.4</ele>
        <time>2021-05-27T10:39:50Z</time>
      </trkpt>
      <trkpt lat="47.69978" lon="-2.25985">
        <ele>37.5</ele>
        <time>2021-05-27T10:39:51Z</time>
      </trkpt>
      <trkpt lat="47.69979" lon="-2.2598">
        <ele>37.5</ele>
        <time>2021-05-27T10:39:52Z</time>
      </trkpt>
      <trkpt lat="47.69979" lon="-2.25975">
        <ele>37.5</ele>
        <time>2021-05-27T10:39:53Z</time>
      </trkpt>
      <trkpt lat="47.6998" lon="-2.2597">
        <ele>37.4</ele>
        <time>2021-05-27T10:39:54Z</time>
      </trkpt>
      <trkpt lat="47.69981" lon="-2.25965">
        <ele>37.2</ele>
        <time>2021-05-27T10:39:55Z</time>
      </trkpt>
      <trkpt lat="47.69982" lon="-2.2596">
        <ele>37.1</ele>
        <time>2021-05-27T10:39:56Z</time>
      </trkpt>
      <trkpt lat="47.69983" lon="-2.25955">
        <ele>36.9</ele>
        <time>2021-05-27T10:39:57Z</time>
      </trkpt>
      <trkpt lat="47.69984" lon="-2.2595">
        <ele>36.8</ele>
        <time>2021-05-27T10:39:58Z</time>
      </trkpt>
      <trkpt lat="47.69985" lon="-2.25944">
        <ele>36.8</ele>
        <time>2021-05-27T10:39:59Z</time>
      </trkpt>
      <trkpt lat="47.69986" lon="-2.25938">
        <ele>36.7</ele>
        <time>2021-05-27T10:40:00Z</time>
      </trkpt>
      <trkpt lat="47.69987" lon="-2.25932">
        <ele>36.7</ele>
        <time>2021-05-27T10:40:01Z</time>
      </trkpt>
      <trkpt lat="47.69988" lon="-2.25927">
        <ele>36.6</ele>
        <time>2021-05-27T10:40:02Z</time>
      </trkpt>
      <trkpt lat="47.69989" lon="-2.25921">
        <ele>36.6</ele>
        <time>2021-05-27T10:40:03Z</time>
      </trkpt>
      <trkpt lat="47.69989" lon="-2.25915">
        <ele>36.4</ele>
        <time>2021-05-27T10:40:04Z</time>
      </trkpt>
      <trkpt lat="47.69991" lon="-2.25909">
        <ele>36.1</ele>
        <time>2021-05-27T10:40:05Z</time>
      </trkpt>
      <trkpt lat="47.69992" lon="-2.25903">
        <ele>36</ele>
        <time>2021-05-27T10:40:06Z</time>
      </trkpt>
      <trkpt lat="47.69992" lon="-2.25897">
        <ele>35.8</ele>
        <time>2021-05-27T10:40:07Z</time>
      </trkpt>
      <trkpt lat="47.69993" lon="-2.25891">
        <ele>35.8</ele>
        <time>2021-05-27T10:40:08Z</time>
      </trkpt>
      <trkpt lat="47.69993" lon="-2.25886">
        <ele>35.7</ele>
        <time>2021-05-27T10:40:09Z</time>
      </trkpt>
      <trkpt lat="47.69995" lon="-2.25879">
        <ele>35.5</ele>
        <time>2021-05-27T10:40:10Z</time>
      </trkpt>
      <trkpt lat="47.69996" lon="-2.25874">
        <ele>35.2</ele>
        <time>2021-05-27T10:40:11Z</time>
      </trkpt>
      <trkpt lat="47.69997" lon="-2.25869">
        <ele>35.1</ele>
        <time>2021-05-27T10:40:12Z</time>
      </trkpt>
      <trkpt lat="47.69998" lon="-2.25864">
        <ele>34.8</ele>
        <time>2021-05-27T10:40:13Z</time>
      </trkpt>
      <trkpt lat="47.69999" lon="-2.2586">
        <ele>34.6</ele>
        <time>2021-05-27T10:40:14Z</time>
      </trkpt>
      <trkpt lat="47.7" lon="-2.25854">
        <ele>34.4</ele>
        <time>2021-05-27T10:40:15Z</time>
      </trkpt>
      <trkpt lat="47.70002" lon="-2.25848">
        <ele>34.3</ele>
        <time>2021-05-27T10:40:16Z</time>
      </trkpt>
      <trkpt lat="47.70002" lon="-2.25842">
        <ele>34.4</ele>
        <time>2021-05-27T10:40:17Z</time>
      </trkpt>
      <trkpt lat="47.70003" lon="-2.25836">
        <ele>34.4</ele>
        <time>2021-05-27T10:40:18Z</time>
      </trkpt>
      <trkpt lat="47.70004" lon="-2.25829">
        <ele>34.4</ele>
        <time>2021-05-27T10:40:19Z</time>
      </trkpt>
      <trkpt lat="47.70005" lon="-2.25822">
        <ele>34.4</ele>
        <time>2021-05-27T10:40:20Z</time>
      </trkpt>
      <trkpt lat="47.70006" lon="-2.25816">
        <ele>34.6</ele>
        <time>2021-05-27T10:40:21Z</time>
      </trkpt>
      <trkpt lat="47.70006" lon="-2.25809">
        <ele>34.7</ele>
        <time>2021-05-27T10:40:22Z</time>
      </trkpt>
      <trkpt lat="47.70006" lon="-2.25803">
        <ele>34.9</ele>
        <time>2021-05-27T10:40:23Z</time>
      </trkpt>
      <trkpt lat="47.70006" lon="-2.25797">
        <ele>35.1</ele>
        <time>2021-05-27T10:40:24Z</time>
      </trkpt>
      <trkpt lat="47.70006" lon="-2.25791">
        <ele>35.3</ele>
        <time>2021-05-27T10:40:25Z</time>
      </trkpt>
      <trkpt lat="47.70008" lon="-2.25784">
        <ele>35.2</ele>
        <time>2021-05-27T10:40:26Z</time>
      </trkpt>
      <trkpt lat="47.7001" lon="-2.25776">
        <ele>35.2</ele>
        <time>2021-05-27T10:40:27Z</time>
      </trkpt>
      <trkpt lat="47.7001" lon="-2.25768">
        <ele>35.4</ele>
        <time>2021-05-27T10:40:28Z</time>
      </trkpt>
      <trkpt lat="47.70012" lon="-2.25758">
        <ele>35.5</ele>
        <time>2021-05-27T10:40:29Z</time>
      </trkpt>
      <trkpt lat="47.70012" lon="-2.25749">
        <ele>35.7</ele>
        <time>2021-05-27T10:40:30Z</time>
      </trkpt>
      <trkpt lat="47.70013" lon="-2.25741">
        <ele>35.8</ele>
        <time>2021-05-27T10:40:31Z</time>
      </trkpt>
      <trkpt lat="47.70014" lon="-2.25732">
        <ele>36</ele>
        <time>2021-05-27T10:40:32Z</time>
      </trkpt>
      <trkpt lat="47.70016" lon="-2.25725">
        <ele>36</ele>
        <time>2021-05-27T10:40:33Z</time>
      </trkpt>
      <trkpt lat="47.70017" lon="-2.25717">
        <ele>36.1</ele>
        <time>2021-05-27T10:40:34Z</time>
      </trkpt>
      <trkpt lat="47.70018" lon="-2.25709">
        <ele>36.1</ele>
        <time>2021-05-27T10:40:35Z</time>
      </trkpt>
      <trkpt lat="47.70019" lon="-2.25702">
        <ele>36.1</ele>
        <time>2021-05-27T10:40:36Z</time>
      </trkpt>
      <trkpt lat="47.70021" lon="-2.25694">
        <ele>36</ele>
        <time>2021-05-27T10:40:37Z</time>
      </trkpt>
      <trkpt lat="47.70022" lon="-2.25687">
        <ele>36</ele>
        <time>2021-05-27T10:40:38Z</time>
      </trkpt>
      <trkpt lat="47.70022" lon="-2.2568">
        <ele>36.1</ele>
        <time>2021-05-27T10:40:39Z</time>
      </trkpt>
      <trkpt lat="47.70022" lon="-2.25674">
        <ele>36.3</ele>
        <time>2021-05-27T10:40:40Z</time>
      </trkpt>
      <trkpt lat="47.70022" lon="-2.25667">
        <ele>36.8</ele>
        <time>2021-05-27T10:40:41Z</time>
      </trkpt>
      <trkpt lat="47.70021" lon="-2.25661">
        <ele>37</ele>
        <time>2021-05-27T10:40:42Z</time>
      </trkpt>
      <trkpt lat="47.7002" lon="-2.25654">
        <ele>37.2</ele>
        <time>2021-05-27T10:40:43Z</time>
      </trkpt>
      <trkpt lat="47.7002" lon="-2.25647">
        <ele>37.3</ele>
        <time>2021-05-27T10:40:44Z</time>
      </trkpt>
      <trkpt lat="47.70019" lon="-2.25641">
        <ele>37.4</ele>
        <time>2021-05-27T10:40:45Z</time>
      </trkpt>
      <trkpt lat="47.70018" lon="-2.25635">
        <ele>37.7</ele>
        <time>2021-05-27T10:40:46Z</time>
      </trkpt>
      <trkpt lat="47.70016" lon="-2.25629">
        <ele>38</ele>
        <time>2021-05-27T10:40:47Z</time>
      </trkpt>
      <trkpt lat="47.70015" lon="-2.25622">
        <ele>38.2</ele>
        <time>2021-05-27T10:40:48Z</time>
      </trkpt>
      <trkpt lat="47.70014" lon="-2.25614">
        <ele>38.5</ele>
        <time>2021-05-27T10:40:49Z</time>
      </trkpt>
      <trkpt lat="47.70013" lon="-2.25608">
        <ele>38.6</ele>
        <time>2021-05-27T10:40:50Z</time>
      </trkpt>
      <trkpt lat="47.70012" lon="-2.25601">
        <ele>38.8</ele>
        <time>2021-05-27T10:40:51Z</time>
      </trkpt>
      <trkpt lat="47.70011" lon="-2.25594">
        <ele>38.9</ele>
        <time>2021-05-27T10:40:52Z</time>
      </trkpt>
      <trkpt lat="47.7001" lon="-2.25588">
        <ele>39.1</ele>
        <time>2021-05-27T10:40:53Z</time>
      </trkpt>
      <trkpt lat="47.70009" lon="-2.25583">
        <ele>39.3</ele>
        <time>2021-05-27T10:40:54Z</time>
      </trkpt>
      <trkpt lat="47.70007" lon="-2.25578">
        <ele>39.8</ele>
        <time>2021-05-27T10:40:55Z</time>
      </trkpt>
      <trkpt lat="47.70006" lon="-2.25574">
        <ele>39.9</ele>
        <time>2021-05-27T10:40:56Z</time>
      </trkpt>
      <trkpt lat="47.70006" lon="-2.25568">
        <ele>40</ele>
        <time>2021-05-27T10:40:57Z</time>
      </trkpt>
      <trkpt lat="47.70006" lon="-2.25563">
        <ele>40</ele>
        <time>2021-05-27T10:40:58Z</time>
      </trkpt>
      <trkpt lat="47.70006" lon="-2.25558">
        <ele>40.2</ele>
        <time>2021-05-27T10:40:59Z</time>
      </trkpt>
      <trkpt lat="47.70005" lon="-2.25553">
        <ele>40.4</ele>
        <time>2021-05-27T10:41:00Z</time>
      </trkpt>
      <trkpt lat="47.70004" lon="-2.25548">
        <ele>40.6</ele>
        <time>2021-05-27T10:41:01Z</time>
      </trkpt>
      <trkpt lat="47.70004" lon="-2.25543">
        <ele>40.7</ele>
        <time>2021-05-27T10:41:02Z</time>
      </trkpt>
      <trkpt lat="47.70003" lon="-2.25537">
        <ele>40.9</ele>
        <time>2021-05-27T10:41:03Z</time>
      </trkpt>
      <trkpt lat="47.70003" lon="-2.25531">
        <ele>41.1</ele>
        <time>2021-05-27T10:41:04Z</time>
      </trkpt>
      <trkpt lat="47.70002" lon="-2.25527">
        <ele>41.3</ele>
        <time>2021-05-27T10:41:05Z</time>
      </trkpt>
      <trkpt lat="47.7" lon="-2.25523">
        <ele>41.7</ele>
        <time>2021-05-27T10:41:06Z</time>
      </trkpt>
      <trkpt lat="47.69999" lon="-2.25519">
        <ele>41.9</ele>
        <time>2021-05-27T10:41:07Z</time>
      </trkpt>
      <trkpt lat="47.69999" lon="-2.25515">
        <ele>42</ele>
        <time>2021-05-27T10:41:08Z</time>
      </trkpt>
      <trkpt lat="47.69997" lon="-2.25512">
        <ele>42.4</ele>
        <time>2021-05-27T10:41:09Z</time>
      </trkpt>
      <trkpt lat="47.69995" lon="-2.25508">
        <ele>42.8</ele>
        <time>2021-05-27T10:41:10Z</time>
      </trkpt>
      <trkpt lat="47.69993" lon="-2.25505">
        <ele>43.2</ele>
        <time>2021-05-27T10:41:11Z</time>
      </trkpt>
      <trkpt lat="47.69991" lon="-2.25502">
        <ele>43.6</ele>
        <time>2021-05-27T10:41:12Z</time>
      </trkpt>
      <trkpt lat="47.69989" lon="-2.25499">
        <ele>43.9</ele>
        <time>2021-05-27T10:41:13Z</time>
      </trkpt>
      <trkpt lat="47.69987" lon="-2.25497">
        <ele>44.2</ele>
        <time>2021-05-27T10:41:14Z</time>
      </trkpt>
      <trkpt lat="47.69985" lon="-2.25495">
        <ele>44.6</ele>
        <time>2021-05-27T10:41:15Z</time>
      </trkpt>
      <trkpt lat="47.69982" lon="-2.25493">
        <ele>45</ele>
        <time>2021-05-27T10:41:16Z</time>
      </trkpt>
      <trkpt lat="47.6998" lon="-2.2549">
        <ele>45.4</ele>
        <time>2021-05-27T10:41:17Z</time>
      </trkpt>
      <trkpt lat="47.69977" lon="-2.25487">
        <ele>45.7</ele>
        <time>2021-05-27T10:41:18Z</time>
      </trkpt>
      <trkpt lat="47.69975" lon="-2.25485">
        <ele>45.9</ele>
        <time>2021-05-27T10:41:19Z</time>
      </trkpt>
      <trkpt lat="47.69973" lon="-2.25483">
        <ele>46.2</ele>
        <time>2021-05-27T10:41:20Z</time>
      </trkpt>
      <trkpt lat="47.69972" lon="-2.2548">
        <ele>46.4</ele>
        <time>2021-05-27T10:41:21Z</time>
      </trkpt>
      <trkpt lat="47.6997" lon="-2.25477">
        <ele>46.6</ele>
        <time>2021-05-27T10:41:22Z</time>
      </trkpt>
      <trkpt lat="47.69968" lon="-2.25473">
        <ele>46.7</ele>
        <time>2021-05-27T10:41:23Z</time>
      </trkpt>
      <trkpt lat="47.69967" lon="-2.25469">
        <ele>46.7</ele>
        <time>2021-05-27T10:41:24Z</time>
      </trkpt>
      <trkpt lat="47.69965" lon="-2.25465">
        <ele>46.8</ele>
        <time>2021-05-27T10:41:25Z</time>
      </trkpt>
      <trkpt lat="47.69964" lon="-2.25462">
        <ele>46.8</ele>
        <time>2021-05-27T10:41:26Z</time>
      </trkpt>
      <trkpt lat="47.69963" lon="-2.25458">
        <ele>46.9</ele>
        <time>2021-05-27T10:41:27Z</time>
      </trkpt>
      <trkpt lat="47.69961" lon="-2.25455">
        <ele>47</ele>
        <time>2021-05-27T10:41:28Z</time>
      </trkpt>
      <trkpt lat="47.69959" lon="-2.25452">
        <ele>47.1</ele>
        <time>2021-05-27T10:41:29Z</time>
      </trkpt>
      <trkpt lat="47.69958" lon="-2.25448">
        <ele>47</ele>
        <time>2021-05-27T10:41:30Z</time>
      </trkpt>
      <trkpt lat="47.69957" lon="-2.25445">
        <ele>47</ele>
        <time>2021-05-27T10:41:31Z</time>
      </trkpt>
      <trkpt lat="47.69955" lon="-2.25441">
        <ele>47.1</ele>
        <time>2021-05-27T10:41:32Z</time>
      </trkpt>
      <trkpt lat="47.69954" lon="-2.25437">
        <ele>47</ele>
        <time>2021-05-27T10:41:33Z</time>
      </trkpt>
      <trkpt lat="47.69953" lon="-2.25433">
        <ele>46.9</ele>
        <time>2021-05-27T10:41:34Z</time>
      </trkpt>
      <trkpt lat="47.69951" lon="-2.2543">
        <ele>46.9</ele>
        <time>2021-05-27T10:41:35Z</time>
      </trkpt>
      <trkpt lat="47.6995" lon="-2.25426">
        <ele>46.9</ele>
        <time>2021-05-27T10:41:36Z</time>
      </trkpt>
      <trkpt lat="47.69949" lon="-2.25421">
        <ele>46.8</ele>
        <time>2021-05-27T10:41:37Z</time>
      </trkpt>
      <trkpt lat="47.69947" lon="-2.25417">
        <ele>46.8</ele>
        <time>2021-05-27T10:41:38Z</time>
      </trkpt>
      <trkpt lat="47.69945" lon="-2.25413">
        <ele>46.8</ele>
        <time>2021-05-27T10:41:39Z</time>
      </trkpt>
      <trkpt lat="47.69943" lon="-2.25408">
        <ele>47</ele>
        <time>2021-05-27T10:41:40Z</time>
      </trkpt>
      <trkpt lat="47.69942" lon="-2.25404">
        <ele>47.1</ele>
        <time>2021-05-27T10:41:41Z</time>
      </trkpt>
      <trkpt lat="47.6994" lon="-2.25399">
        <ele>47.2</ele>
        <time>2021-05-27T10:41:42Z</time>
      </trkpt>
      <trkpt lat="47.69939" lon="-2.25395">
        <ele>47.3</ele>
        <time>2021-05-27T10:41:43Z</time>
      </trkpt>
      <trkpt lat="47.69938" lon="-2.25391">
        <ele>47.3</ele>
        <time>2021-05-27T10:41:44Z</time>
      </trkpt>
      <trkpt lat="47.69937" lon="-2.25386">
        <ele>47.4</ele>
        <time>2021-05-27T10:41:45Z</time>
      </trkpt>
      <trkpt lat="47.69935" lon="-2.2538">
        <ele>47.5</ele>
        <time>2021-05-27T10:41:46Z</time>
      </trkpt>
      <trkpt lat="47.69934" lon="-2.25374">
        <ele>47.5</ele>
        <time>2021-05-27T10:41:47Z</time>
      </trkpt>
      <trkpt lat="47.69932" lon="-2.25368">
        <ele>47.6</ele>
        <time>2021-05-27T10:41:48Z</time>
      </trkpt>
      <trkpt lat="47.69931" lon="-2.25363">
        <ele>47.7</ele>
        <time>2021-05-27T10:41:49Z</time>
      </trkpt>
      <trkpt lat="47.6993" lon="-2.25357">
        <ele>47.8</ele>
        <time>2021-05-27T10:41:50Z</time>
      </trkpt>
      <trkpt lat="47.69928" lon="-2.2535">
        <ele>47.8</ele>
        <time>2021-05-27T10:41:51Z</time>
      </trkpt>
      <trkpt lat="47.69928" lon="-2.25344">
        <ele>47.8</ele>
        <time>2021-05-27T10:41:52Z</time>
      </trkpt>
      <trkpt lat="47.69926" lon="-2.25338">
        <ele>47.9</ele>
        <time>2021-05-27T10:41:53Z</time>
      </trkpt>
      <trkpt lat="47.69925" lon="-2.25332">
        <ele>48</ele>
        <time>2021-05-27T10:41:54Z</time>
      </trkpt>
      <trkpt lat="47.69923" lon="-2.25326">
        <ele>47.9</ele>
        <time>2021-05-27T10:41:55Z</time>
      </trkpt>
      <trkpt lat="47.69922" lon="-2.2532">
        <ele>47.8</ele>
        <time>2021-05-27T10:41:56Z</time>
      </trkpt>
      <trkpt lat="47.6992" lon="-2.25313">
        <ele>47.7</ele>
        <time>2021-05-27T10:41:57Z</time>
      </trkpt>
      <trkpt lat="47.69917" lon="-2.25306">
        <ele>47.7</ele>
        <time>2021-05-27T10:41:58Z</time>
      </trkpt>
      <trkpt lat="47.69915" lon="-2.25299">
        <ele>47.5</ele>
        <time>2021-05-27T10:41:59Z</time>
      </trkpt>
      <trkpt lat="47.69913" lon="-2.25292">
        <ele>47.4</ele>
        <time>2021-05-27T10:42:00Z</time>
      </trkpt>
      <trkpt lat="47.69911" lon="-2.25284">
        <ele>47.3</ele>
        <time>2021-05-27T10:42:01Z</time>
      </trkpt>
      <trkpt lat="47.69909" lon="-2.25276">
        <ele>47.2</ele>
        <time>2021-05-27T10:42:02Z</time>
      </trkpt>
      <trkpt lat="47.69907" lon="-2.25268">
        <ele>47</ele>
        <time>2021-05-27T10:42:03Z</time>
      </trkpt>
      <trkpt lat="47.69906" lon="-2.25259">
        <ele>46.8</ele>
        <time>2021-05-27T10:42:04Z</time>
      </trkpt>
      <trkpt lat="47.69904" lon="-2.2525">
        <ele>46.7</ele>
        <time>2021-05-27T10:42:05Z</time>
      </trkpt>
      <trkpt lat="47.69902" lon="-2.2524">
        <ele>46.5</ele>
        <time>2021-05-27T10:42:06Z</time>
      </trkpt>
      <trkpt lat="47.69901" lon="-2.25231">
        <ele>46.1</ele>
        <time>2021-05-27T10:42:07Z</time>
      </trkpt>
      <trkpt lat="47.699" lon="-2.25223">
        <ele>45.8</ele>
        <time>2021-05-27T10:42:08Z</time>
      </trkpt>
      <trkpt lat="47.69899" lon="-2.25215">
        <ele>45.6</ele>
        <time>2021-05-27T10:42:09Z</time>
      </trkpt>
      <trkpt lat="47.69896" lon="-2.25207">
        <ele>45.6</ele>
        <time>2021-05-27T10:42:10Z</time>
      </trkpt>
      <trkpt lat="47.69894" lon="-2.25203">
        <ele>45.6</ele>
        <time>2021-05-27T10:42:11Z</time>
      </trkpt>
      <trkpt lat="47.69891" lon="-2.25201">
        <ele>45.8</ele>
        <time>2021-05-27T10:42:12Z</time>
      </trkpt>
      <trkpt lat="47.69889" lon="-2.252">
        <ele>46.1</ele>
        <time>2021-05-27T10:42:13Z</time>
      </trkpt>
      <trkpt lat="47.69887" lon="-2.25199">
        <ele>46.3</ele>
        <time>2021-05-27T10:42:14Z</time>
      </trkpt>
      <trkpt lat="47.69885" lon="-2.25198">
        <ele>46.5</ele>
        <time>2021-05-27T10:42:15Z</time>
      </trkpt>
      <trkpt lat="47.69882" lon="-2.25198">
        <ele>46.8</ele>
        <time>2021-05-27T10:42:16Z</time>
      </trkpt>
      <trkpt lat="47.6988" lon="-2.25198">
        <ele>47.1</ele>
        <time>2021-05-27T10:42:17Z</time>
      </trkpt>
      <trkpt lat="47.69878" lon="-2.25199">
        <ele>47.4</ele>
        <time>2021-05-27T10:42:18Z</time>
      </trkpt>
      <trkpt lat="47.69875" lon="-2.252">
        <ele>47.8</ele>
        <time>2021-05-27T10:42:19Z</time>
      </trkpt>
      <trkpt lat="47.69873" lon="-2.25201">
        <ele>48.1</ele>
        <time>2021-05-27T10:42:20Z</time>
      </trkpt>
      <trkpt lat="47.69871" lon="-2.25201">
        <ele>48.4</ele>
        <time>2021-05-27T10:42:21Z</time>
      </trkpt>
      <trkpt lat="47.69869" lon="-2.25201">
        <ele>48.6</ele>
        <time>2021-05-27T10:42:22Z</time>
      </trkpt>
      <trkpt lat="47.69867" lon="-2.25201">
        <ele>48.9</ele>
        <time>2021-05-27T10:42:23Z</time>
      </trkpt>
      <trkpt lat="47.69865" lon="-2.25202">
        <ele>49.1</ele>
        <time>2021-05-27T10:42:24Z</time>
      </trkpt>
      <trkpt lat="47.69863" lon="-2.25202">
        <ele>49.4</ele>
        <time>2021-05-27T10:42:25Z</time>
      </trkpt>
      <trkpt lat="47.69861" lon="-2.25202">
        <ele>49.7</ele>
        <time>2021-05-27T10:42:26Z</time>
      </trkpt>
      <trkpt lat="47.69859" lon="-2.25203">
        <ele>50</ele>
        <time>2021-05-27T10:42:27Z</time>
      </trkpt>
      <trkpt lat="47.69857" lon="-2.25203">
        <ele>50.2</ele>
        <time>2021-05-27T10:42:28Z</time>
      </trkpt>
      <trkpt lat="47.69855" lon="-2.25203">
        <ele>50.5</ele>
        <time>2021-05-27T10:42:29Z</time>
      </trkpt>
      <trkpt lat="47.69852" lon="-2.25203">
        <ele>50.8</ele>
        <time>2021-05-27T10:42:30Z</time>
      </trkpt>
      <trkpt lat="47.69851" lon="-2.25202">
        <ele>51</ele>
        <time>2021-05-27T10:42:31Z</time>
      </trkpt>
      <trkpt lat="47.69849" lon="-2.25202">
        <ele>51.2</ele>
        <time>2021-05-27T10:42:32Z</time>
      </trkpt>
      <trkpt lat="47.69847" lon="-2.25202">
        <ele>51.4</ele>
        <time>2021-05-27T10:42:33Z</time>
      </trkpt>
      <trkpt lat="47.69845" lon="-2.25202">
        <ele>51.7</ele>
        <time>2021-05-27T10:42:34Z</time>
      </trkpt>
      <trkpt lat="47.69843" lon="-2.25203">
        <ele>52</ele>
        <time>2021-05-27T10:42:35Z</time>
      </trkpt>
      <trkpt lat="47.6984" lon="-2.25203">
        <ele>52.3</ele>
        <time>2021-05-27T10:42:36Z</time>
      </trkpt>
      <trkpt lat="47.69838" lon="-2.25203">
        <ele>52.5</ele>
        <time>2021-05-27T10:42:37Z</time>
      </trkpt>
      <trkpt lat="47.69836" lon="-2.25203">
        <ele>52.8</ele>
        <time>2021-05-27T10:42:38Z</time>
      </trkpt>
      <trkpt lat="47.69835" lon="-2.25202">
        <ele>53</ele>
        <time>2021-05-27T10:42:39Z</time>
      </trkpt>
      <trkpt lat="47.69833" lon="-2.25202">
        <ele>53.2</ele>
        <time>2021-05-27T10:42:40Z</time>
      </trkpt>
      <trkpt lat="47.69831" lon="-2.25202">
        <ele>53.5</ele>
        <time>2021-05-27T10:42:41Z</time>
      </trkpt>
      <trkpt lat="47.69829" lon="-2.25202">
        <ele>53.9</ele>
        <time>2021-05-27T10:42:42Z</time>
      </trkpt>
      <trkpt lat="47.69826" lon="-2.25203">
        <ele>54.3</ele>
        <time>2021-05-27T10:42:43Z</time>
      </trkpt>
      <trkpt lat="47.69824" lon="-2.25204">
        <ele>54.7</ele>
        <time>2021-05-27T10:42:44Z</time>
      </trkpt>
      <trkpt lat="47.69821" lon="-2.25204">
        <ele>55.2</ele>
        <time>2021-05-27T10:42:45Z</time>
      </trkpt>
      <trkpt lat="47.69819" lon="-2.25205">
        <ele>55.5</ele>
        <time>2021-05-27T10:42:46Z</time>
      </trkpt>
      <trkpt lat="47.69817" lon="-2.25205">
        <ele>55.8</ele>
        <time>2021-05-27T10:42:47Z</time>
      </trkpt>
      <trkpt lat="47.69815" lon="-2.25205">
        <ele>56.2</ele>
        <time>2021-05-27T10:42:48Z</time>
      </trkpt>
      <trkpt lat="47.69813" lon="-2.25205">
        <ele>56.5</ele>
        <time>2021-05-27T10:42:49Z</time>
      </trkpt>
      <trkpt lat="47.6981" lon="-2.25204">
        <ele>56.9</ele>
        <time>2021-05-27T10:42:50Z</time>
      </trkpt>
      <trkpt lat="47.69808" lon="-2.25204">
        <ele>57.3</ele>
        <time>2021-05-27T10:42:51Z</time>
      </trkpt>
      <trkpt lat="47.69805" lon="-2.25204">
        <ele>57.7</ele>
        <time>2021-05-27T10:42:52Z</time>
      </trkpt>
      <trkpt lat="47.69803" lon="-2.25204">
        <ele>58</ele>
        <time>2021-05-27T10:42:53Z</time>
      </trkpt>
      <trkpt lat="47.69801" lon="-2.25204">
        <ele>58.3</ele>
        <time>2021-05-27T10:42:54Z</time>
      </trkpt>
      <trkpt lat="47.69798" lon="-2.25204">
        <ele>58.8</ele>
        <time>2021-05-27T10:42:55Z</time>
      </trkpt>
      <trkpt lat="47.69796" lon="-2.25204">
        <ele>59.1</ele>
        <time>2021-05-27T10:42:56Z</time>
      </trkpt>
      <trkpt lat="47.69793" lon="-2.25204">
        <ele>59.6</ele>
        <time>2021-05-27T10:42:57Z</time>
      </trkpt>
      <trkpt lat="47.69791" lon="-2.25203">
        <ele>59.9</ele>
        <time>2021-05-27T10:42:58Z</time>
      </trkpt>
      <trkpt lat="47.69789" lon="-2.25203">
        <ele>60.2</ele>
        <time>2021-05-27T10:42:59Z</time>
      </trkpt>
      <trkpt lat="47.69788" lon="-2.25203">
        <ele>60.4</ele>
        <time>2021-05-27T10:43:00Z</time>
      </trkpt>
      <trkpt lat="47.69785" lon="-2.25203">
        <ele>60.8</ele>
        <time>2021-05-27T10:43:01Z</time>
      </trkpt>
      <trkpt lat="47.69784" lon="-2.25202">
        <ele>61</ele>
        <time>2021-05-27T10:43:02Z</time>
      </trkpt>
      <trkpt lat="47.69782" lon="-2.25202">
        <ele>61.3</ele>
        <time>2021-05-27T10:43:03Z</time>
      </trkpt>
      <trkpt lat="47.6978" lon="-2.25202">
        <ele>61.7</ele>
        <time>2021-05-27T10:43:04Z</time>
      </trkpt>
      <trkpt lat="47.69779" lon="-2.25202">
        <ele>61.9</ele>
        <time>2021-05-27T10:43:05Z</time>
      </trkpt>
      <trkpt lat="47.69776" lon="-2.25202">
        <ele>62.2</ele>
        <time>2021-05-27T10:43:06Z</time>
      </trkpt>
      <trkpt lat="47.69773" lon="-2.25203">
        <ele>62.7</ele>
        <time>2021-05-27T10:43:07Z</time>
      </trkpt>
      <trkpt lat="47.69771" lon="-2.25203">
        <ele>63.1</ele>
        <time>2021-05-27T10:43:08Z</time>
      </trkpt>
      <trkpt lat="47.69769" lon="-2.25203">
        <ele>63.4</ele>
        <time>2021-05-27T10:43:09Z</time>
      </trkpt>
      <trkpt lat="47.69767" lon="-2.25203">
        <ele>63.7</ele>
        <time>2021-05-27T10:43:10Z</time>
      </trkpt>
      <trkpt lat="47.69766" lon="-2.25202">
        <ele>63.9</ele>
        <time>2021-05-27T10:43:11Z</time>
      </trkpt>
      <trkpt lat="47.69764" lon="-2.25202">
        <ele>64.2</ele>
        <time>2021-05-27T10:43:12Z</time>
      </trkpt>
      <trkpt lat="47.69762" lon="-2.25202">
        <ele>64.5</ele>
        <time>2021-05-27T10:43:13Z</time>
      </trkpt>
      <trkpt lat="47.6976" lon="-2.25202">
        <ele>64.7</ele>
        <time>2021-05-27T10:43:14Z</time>
      </trkpt>
      <trkpt lat="47.69759" lon="-2.25202">
        <ele>65</ele>
        <time>2021-05-27T10:43:15Z</time>
      </trkpt>
      <trkpt lat="47.69756" lon="-2.25202">
        <ele>65.4</ele>
        <time>2021-05-27T10:43:16Z</time>
      </trkpt>
      <trkpt lat="47.69754" lon="-2.25202">
        <ele>65.8</ele>
        <time>2021-05-27T10:43:17Z</time>
      </trkpt>
      <trkpt lat="47.69751" lon="-2.25201">
        <ele>66.2</ele>
        <time>2021-05-27T10:43:18Z</time>
      </trkpt>
      <trkpt lat="47.69749" lon="-2.252">
        <ele>66.4</ele>
        <time>2021-05-27T10:43:19Z</time>
      </trkpt>
      <trkpt lat="47.69747" lon="-2.25199">
        <ele>66.4</ele>
        <time>2021-05-27T10:43:20Z</time>
      </trkpt>
      <trkpt lat="47.69744" lon="-2.25199">
        <ele>66.4</ele>
        <time>2021-05-27T10:43:21Z</time>
      </trkpt>
      <trkpt lat="47.69742" lon="-2.25198">
        <ele>66.4</ele>
        <time>2021-05-27T10:43:22Z</time>
      </trkpt>
      <trkpt lat="47.69739" lon="-2.25197">
        <ele>66.4</ele>
        <time>2021-05-27T10:43:23Z</time>
      </trkpt>
      <trkpt lat="47.69737" lon="-2.25196">
        <ele>66.3</ele>
        <time>2021-05-27T10:43:24Z</time>
      </trkpt>
      <trkpt lat="47.69735" lon="-2.25195">
        <ele>66.3</ele>
        <time>2021-05-27T10:43:25Z</time>
      </trkpt>
      <trkpt lat="47.69732" lon="-2.25195">
        <ele>66.3</ele>
        <time>2021-05-27T10:43:26Z</time>
      </trkpt>
      <trkpt lat="47.6973" lon="-2.25194">
        <ele>66.3</ele>
        <time>2021-05-27T10:43:27Z</time>
      </trkpt>
      <trkpt lat="47.69727" lon="-2.25191">
        <ele>66.3</ele>
        <time>2021-05-27T10:43:28Z</time>
      </trkpt>
      <trkpt lat="47.69724" lon="-2.25189">
        <ele>66.3</ele>
        <time>2021-05-27T10:43:29Z</time>
      </trkpt>
      <trkpt lat="47.69722" lon="-2.25186">
        <ele>66.3</ele>
        <time>2021-05-27T10:43:30Z</time>
      </trkpt>
      <trkpt lat="47.6972" lon="-2.25183">
        <ele>66.3</ele>
        <time>2021-05-27T10:43:31Z</time>
      </trkpt>
      <trkpt lat="47.69718" lon="-2.2518">
        <ele>66.4</ele>
        <time>2021-05-27T10:43:32Z</time>
      </trkpt>
      <trkpt lat="47.69717" lon="-2.25177">
        <ele>66.4</ele>
        <time>2021-05-27T10:43:33Z</time>
      </trkpt>
      <trkpt lat="47.69713" lon="-2.2517">
        <ele>66.4</ele>
      </trkpt>
      <trkpt lat="47.69702" lon="-2.2516">
        <ele>66.7</ele>
      </trkpt>
      <trkpt lat="47.69692" lon="-2.25141">
        <ele>67.2</ele>
      </trkpt>
      <trkpt lat="47.69682" lon="-2.25116">
        <ele>67.9</ele>
      </trkpt>
      <trkpt lat="47.69681" lon="-2.25108">
        <ele>68.1</ele>
      </trkpt>
      <trkpt lat="47.69667" lon="-2.2508">
        <ele>69</ele>
      </trkpt>
      <trkpt lat="47.69667" lon="-2.25047">
        <ele>69</ele>
      </trkpt>
      <trkpt lat="47.69656" lon="-2.25008">
        <ele>68.6</ele>
      </trkpt>
      <trkpt lat="47.69655" lon="-2.24989">
        <ele>68.8</ele>
      </trkpt>
      <trkpt lat="47.69654" lon="-2.24982">
        <ele>68.8</ele>
      </trkpt>
      <trkpt lat="47.69652" lon="-2.24967">
        <ele>69</ele>
      </trkpt>
      <trkpt lat="47.69649" lon="-2.24901">
        <ele>69.8</ele>
      </trkpt>
      <trkpt lat="47.6965" lon="-2.24862">
        <ele>69.9</ele>
      </trkpt>
      <trkpt lat="47.69645" lon="-2.24836">
        <ele>70</ele>
      </trkpt>
      <trkpt lat="47.69645" lon="-2.24828">
        <ele>69.9</ele>
      </trkpt>
      <trkpt lat="47.69634" lon="-2.2479">
        <ele>68.9</ele>
      </trkpt>
      <trkpt lat="47.69627" lon="-2.24763">
        <ele>68.3</ele>
      </trkpt>
      <trkpt lat="47.69624" lon="-2.2473">
        <ele>67.2</ele>
      </trkpt>
      <trkpt lat="47.69623" lon="-2.24723">
        <ele>66.9</ele>
      </trkpt>
      <trkpt lat="47.69623" lon="-2.24704">
        <ele>66.1</ele>
      </trkpt>
      <trkpt lat="47.69622" lon="-2.24697">
        <ele>65.9</ele>
      </trkpt>
      <trkpt lat="47.69621" lon="-2.2469">
        <ele>65.7</ele>
      </trkpt>
      <trkpt lat="47.6962" lon="-2.24671">
        <ele>64.9</ele>
      </trkpt>
      <trkpt lat="47.6962" lon="-2.24663">
        <ele>64.8</ele>
      </trkpt>
      <trkpt lat="47.69614" lon="-2.24645">
        <ele>65</ele>
      </trkpt>
      <trkpt lat="47.69611" lon="-2.24639">
        <ele>65.2</ele>
      </trkpt>
      <trkpt lat="47.69606" lon="-2.24621">
        <ele>65.6</ele>
      </trkpt>
      <trkpt lat="47.69605" lon="-2.24615">
        <ele>65.7</ele>
      </trkpt>
      <trkpt lat="47.69605" lon="-2.24608">
        <ele>65.7</ele>
      </trkpt>
      <trkpt lat="47.69604" lon="-2.24593">
        <ele>65.7</ele>
      </trkpt>
      <trkpt lat="47.69603" lon="-2.24586">
        <ele>65.9</ele>
      </trkpt>
      <trkpt lat="47.69592" lon="-2.2456">
        <ele>67</ele>
      </trkpt>
      <trkpt lat="47.6959" lon="-2.24554">
        <ele>67.2</ele>
      </trkpt>
      <trkpt lat="47.6958" lon="-2.2452">
        <ele>67.9</ele>
      </trkpt>
      <trkpt lat="47.69578" lon="-2.24514">
        <ele>67.9</ele>
      </trkpt>
      <trkpt lat="47.69576" lon="-2.24489">
        <ele>67.8</ele>
      </trkpt>
      <trkpt lat="47.69574" lon="-2.24448">
        <ele>67.3</ele>
      </trkpt>
      <trkpt lat="47.69569" lon="-2.24374">
        <ele>67.9</ele>
      </trkpt>
      <trkpt lat="47.69568" lon="-2.24335">
        <ele>68.8</ele>
      </trkpt>
      <trkpt lat="47.69568" lon="-2.24281">
        <ele>68.9</ele>
      </trkpt>
      <trkpt lat="47.69568" lon="-2.24251">
        <ele>69</ele>
      </trkpt>
      <trkpt lat="47.69565" lon="-2.24237">
        <ele>69.2</ele>
      </trkpt>
      <trkpt lat="47.69557" lon="-2.24214">
        <ele>69.6</ele>
        <time>2021-05-27T10:50:24Z</time>
      </trkpt>
      <trkpt lat="47.69556" lon="-2.24209">
        <ele>69.7</ele>
        <time>2021-05-27T10:50:25Z</time>
      </trkpt>
      <trkpt lat="47.69554" lon="-2.24204">
        <ele>69.7</ele>
        <time>2021-05-27T10:50:26Z</time>
      </trkpt>
      <trkpt lat="47.69553" lon="-2.24199">
        <ele>69.8</ele>
        <time>2021-05-27T10:50:27Z</time>
      </trkpt>
      <trkpt lat="47.69551" lon="-2.24193">
        <ele>69.8</ele>
        <time>2021-05-27T10:50:28Z</time>
      </trkpt>
      <trkpt lat="47.6955" lon="-2.24186">
        <ele>69.9</ele>
        <time>2021-05-27T10:50:29Z</time>
      </trkpt>
      <trkpt lat="47.6955" lon="-2.2418">
        <ele>70</ele>
        <time>2021-05-27T10:50:30Z</time>
      </trkpt>
      <trkpt lat="47.69549" lon="-2.24174">
        <ele>70.1</ele>
        <time>2021-05-27T10:50:31Z</time>
      </trkpt>
      <trkpt lat="47.69549" lon="-2.24169">
        <ele>70.1</ele>
        <time>2021-05-27T10:50:32Z</time>
      </trkpt>
      <trkpt lat="47.6955" lon="-2.24164">
        <ele>70.2</ele>
        <time>2021-05-27T10:50:33Z</time>
      </trkpt>
      <trkpt lat="47.6955" lon="-2.24158">
        <ele>70.3</ele>
        <time>2021-05-27T10:50:34Z</time>
      </trkpt>
      <trkpt lat="47.69549" lon="-2.24152">
        <ele>70.4</ele>
        <time>2021-05-27T10:50:35Z</time>
      </trkpt>
      <trkpt lat="47.69548" lon="-2.24145">
        <ele>70.4</ele>
        <time>2021-05-27T10:50:36Z</time>
      </trkpt>
      <trkpt lat="47.6955" lon="-2.24137">
        <ele>70.5</ele>
        <time>2021-05-27T10:50:37Z</time>
      </trkpt>
      <trkpt lat="47.6955" lon="-2.2413">
        <ele>70.7</ele>
        <time>2021-05-27T10:50:38Z</time>
      </trkpt>
      <trkpt lat="47.6955" lon="-2.24123">
        <ele>70.7</ele>
        <time>2021-05-27T10:50:39Z</time>
      </trkpt>
      <trkpt lat="47.69548" lon="-2.24116">
        <ele>70.8</ele>
        <time>2021-05-27T10:50:40Z</time>
      </trkpt>
      <trkpt lat="47.69546" lon="-2.24109">
        <ele>70.8</ele>
        <time>2021-05-27T10:50:41Z</time>
      </trkpt>
      <trkpt lat="47.69545" lon="-2.24103">
        <ele>70.8</ele>
        <time>2021-05-27T10:50:42Z</time>
      </trkpt>
      <trkpt lat="47.69543" lon="-2.24097">
        <ele>70.9</ele>
        <time>2021-05-27T10:50:43Z</time>
      </trkpt>
      <trkpt lat="47.69542" lon="-2.24091">
        <ele>70.9</ele>
        <time>2021-05-27T10:50:44Z</time>
      </trkpt>
      <trkpt lat="47.6954" lon="-2.24086">
        <ele>70.9</ele>
        <time>2021-05-27T10:50:45Z</time>
      </trkpt>
      <trkpt lat="47.69537" lon="-2.24081">
        <ele>70.9</ele>
        <time>2021-05-27T10:50:46Z</time>
      </trkpt>
      <trkpt lat="47.69534" lon="-2.24076">
        <ele>70.7</ele>
        <time>2021-05-27T10:50:47Z</time>
      </trkpt>
      <trkpt lat="47.69532" lon="-2.24072">
        <ele>70.6</ele>
        <time>2021-05-27T10:50:48Z</time>
      </trkpt>
      <trkpt lat="47.6953" lon="-2.24067">
        <ele>70.5</ele>
        <time>2021-05-27T10:50:49Z</time>
      </trkpt>
      <trkpt lat="47.69527" lon="-2.24062">
        <ele>70.4</ele>
        <time>2021-05-27T10:50:50Z</time>
      </trkpt>
      <trkpt lat="47.69525" lon="-2.24058">
        <ele>70.3</ele>
        <time>2021-05-27T10:50:51Z</time>
      </trkpt>
      <trkpt lat="47.69522" lon="-2.24058">
        <ele>70.2</ele>
        <time>2021-05-27T10:50:52Z</time>
      </trkpt>
      <trkpt lat="47.69519" lon="-2.24058">
        <ele>70.2</ele>
        <time>2021-05-27T10:50:53Z</time>
      </trkpt>
      <trkpt lat="47.69516" lon="-2.24057">
        <ele>70.1</ele>
        <time>2021-05-27T10:50:54Z</time>
      </trkpt>
      <trkpt lat="47.69512" lon="-2.24056">
        <ele>70</ele>
        <time>2021-05-27T10:50:55Z</time>
      </trkpt>
      <trkpt lat="47.69509" lon="-2.24056">
        <ele>69.9</ele>
        <time>2021-05-27T10:50:56Z</time>
      </trkpt>
      <trkpt lat="47.69505" lon="-2.24056">
        <ele>69.8</ele>
        <time>2021-05-27T10:50:57Z</time>
      </trkpt>
      <trkpt lat="47.69501" lon="-2.24058">
        <ele>69.7</ele>
        <time>2021-05-27T10:50:58Z</time>
      </trkpt>
      <trkpt lat="47.69498" lon="-2.24059">
        <ele>69.6</ele>
        <time>2021-05-27T10:50:59Z</time>
      </trkpt>
      <trkpt lat="47.69494" lon="-2.2406">
        <ele>69.4</ele>
        <time>2021-05-27T10:51:00Z</time>
      </trkpt>
      <trkpt lat="47.69491" lon="-2.2406">
        <ele>69.3</ele>
        <time>2021-05-27T10:51:01Z</time>
      </trkpt>
      <trkpt lat="47.69489" lon="-2.24061">
        <ele>69.2</ele>
        <time>2021-05-27T10:51:02Z</time>
      </trkpt>
      <trkpt lat="47.69489" lon="-2.24064">
        <ele>69.2</ele>
        <time>2021-05-27T10:51:13Z</time>
      </trkpt>
      <trkpt lat="47.69489" lon="-2.24067">
        <ele>69.2</ele>
        <time>2021-05-27T10:51:14Z</time>
      </trkpt>
      <trkpt lat="47.69489" lon="-2.24071">
        <ele>69.2</ele>
        <time>2021-05-27T10:51:15Z</time>
      </trkpt>
      <trkpt lat="47.69488" lon="-2.24075">
        <ele>69.2</ele>
        <time>2021-05-27T10:51:16Z</time>
      </trkpt>
      <trkpt lat="47.69488" lon="-2.24079">
        <ele>69.3</ele>
        <time>2021-05-27T10:51:17Z</time>
      </trkpt>
      <trkpt lat="47.69488" lon="-2.24083">
        <ele>69.3</ele>
        <time>2021-05-27T10:51:18Z</time>
      </trkpt>
      <trkpt lat="47.69488" lon="-2.24087">
        <ele>69.2</ele>
        <time>2021-05-27T10:51:19Z</time>
      </trkpt>
      <trkpt lat="47.69487" lon="-2.24091">
        <ele>69.1</ele>
        <time>2021-05-27T10:51:20Z</time>
      </trkpt>
      <trkpt lat="47.69489" lon="-2.24095">
        <ele>69.1</ele>
        <time>2021-05-27T10:51:21Z</time>
      </trkpt>
      <trkpt lat="47.69491" lon="-2.24099">
        <ele>69.2</ele>
        <time>2021-05-27T10:51:22Z</time>
      </trkpt>
      <trkpt lat="47.69494" lon="-2.24103">
        <ele>69.4</ele>
        <time>2021-05-27T10:51:23Z</time>
      </trkpt>
      <trkpt lat="47.69496" lon="-2.24106">
        <ele>69.4</ele>
        <time>2021-05-27T10:51:24Z</time>
      </trkpt>
      <trkpt lat="47.69498" lon="-2.24109">
        <ele>69.5</ele>
        <time>2021-05-27T10:51:25Z</time>
      </trkpt>
      <trkpt lat="47.695" lon="-2.24111">
        <ele>69.6</ele>
        <time>2021-05-27T10:51:26Z</time>
      </trkpt>
      <trkpt lat="47.69502" lon="-2.24113">
        <ele>69.7</ele>
        <time>2021-05-27T10:51:27Z</time>
      </trkpt>
      <trkpt lat="47.69503" lon="-2.24115">
        <ele>69.7</ele>
        <time>2021-05-27T10:51:28Z</time>
      </trkpt>
      <trkpt lat="47.69505" lon="-2.24116">
        <ele>69.7</ele>
        <time>2021-05-27T10:51:29Z</time>
      </trkpt>
      <trkpt lat="47.69507" lon="-2.24117">
        <ele>69.8</ele>
        <time>2021-05-27T10:51:30Z</time>
      </trkpt>
      <trkpt lat="47.69508" lon="-2.24119">
        <ele>69.8</ele>
        <time>2021-05-27T10:51:31Z</time>
      </trkpt>
      <trkpt lat="47.69509" lon="-2.24121">
        <ele>69.8</ele>
        <time>2021-05-27T10:51:32Z</time>
      </trkpt>
      <trkpt lat="47.6951" lon="-2.24123">
        <ele>69.8</ele>
        <time>2021-05-27T10:51:33Z</time>
      </trkpt>
      <trkpt lat="47.69511" lon="-2.24123">
        <ele>69.8</ele>
        <time>2021-05-27T10:51:34Z</time>
      </trkpt>
      <trkpt lat="47.69513" lon="-2.24123">
        <ele>69.8</ele>
        <time>2021-05-27T10:51:35Z</time>
      </trkpt>
      <trkpt lat="47.69516" lon="-2.24123">
        <ele>69.9</ele>
        <time>2021-05-27T10:51:36Z</time>
      </trkpt>
      <trkpt lat="47.69519" lon="-2.24125">
        <ele>70</ele>
        <time>2021-05-27T10:51:37Z</time>
      </trkpt>
      <trkpt lat="47.69521" lon="-2.24127">
        <ele>70</ele>
        <time>2021-05-27T10:51:38Z</time>
      </trkpt>
      <trkpt lat="47.69522" lon="-2.24129">
        <ele>70</ele>
        <time>2021-05-27T10:51:39Z</time>
      </trkpt>
      <trkpt lat="47.69522" lon="-2.24132">
        <ele>70</ele>
        <time>2021-05-27T10:51:40Z</time>
      </trkpt>
      <trkpt lat="47.69521" lon="-2.24135">
        <ele>69.9</ele>
        <time>2021-05-27T10:51:41Z</time>
      </trkpt>
      <trkpt lat="47.6952" lon="-2.24137">
        <ele>69.8</ele>
        <time>2021-05-27T10:51:42Z</time>
      </trkpt>
      <trkpt lat="47.69519" lon="-2.2414">
        <ele>69.8</ele>
        <time>2021-05-27T10:51:43Z</time>
      </trkpt>
      <trkpt lat="47.69518" lon="-2.24143">
        <ele>69.7</ele>
        <time>2021-05-27T10:51:44Z</time>
      </trkpt>
      <trkpt lat="47.69518" lon="-2.24146">
        <ele>69.7</ele>
        <time>2021-05-27T10:51:45Z</time>
      </trkpt>
      <trkpt lat="47.69518" lon="-2.2415">
        <ele>69.6</ele>
        <time>2021-05-27T10:51:46Z</time>
      </trkpt>
      <trkpt lat="47.69518" lon="-2.24153">
        <ele>69.6</ele>
        <time>2021-05-27T10:51:47Z</time>
      </trkpt>
      <trkpt lat="47.69519" lon="-2.24157">
        <ele>69.6</ele>
        <time>2021-05-27T10:51:48Z</time>
      </trkpt>
      <trkpt lat="47.69519" lon="-2.24161">
        <ele>69.5</ele>
        <time>2021-05-27T10:51:49Z</time>
      </trkpt>
      <trkpt lat="47.69519" lon="-2.24165">
        <ele>69.5</ele>
        <time>2021-05-27T10:51:50Z</time>
      </trkpt>
      <trkpt lat="47.6952" lon="-2.24168">
        <ele>69.5</ele>
        <time>2021-05-27T10:51:51Z</time>
      </trkpt>
      <trkpt lat="47.69521" lon="-2.24171">
        <ele>69.5</ele>
        <time>2021-05-27T10:51:52Z</time>
      </trkpt>
      <trkpt lat="47.6952" lon="-2.24175">
        <ele>69.4</ele>
        <time>2021-05-27T10:51:53Z</time>
      </trkpt>
      <trkpt lat="47.69519" lon="-2.24179">
        <ele>69.4</ele>
        <time>2021-05-27T10:51:54Z</time>
      </trkpt>
      <trkpt lat="47.69518" lon="-2.24183">
        <ele>69.3</ele>
        <time>2021-05-27T10:51:55Z</time>
      </trkpt>
      <trkpt lat="47.69517" lon="-2.24188">
        <ele>69.3</ele>
        <time>2021-05-27T10:51:56Z</time>
      </trkpt>
      <trkpt lat="47.69516" lon="-2.24193">
        <ele>69.3</ele>
        <time>2021-05-27T10:51:57Z</time>
      </trkpt>
      <trkpt lat="47.69515" lon="-2.24197">
        <ele>69.2</ele>
        <time>2021-05-27T10:51:58Z</time>
      </trkpt>
      <trkpt lat="47.69514" lon="-2.24201">
        <ele>69.2</ele>
        <time>2021-05-27T10:51:59Z</time>
      </trkpt>
      <trkpt lat="47.69514" lon="-2.24206">
        <ele>69.2</ele>
        <time>2021-05-27T10:52:00Z</time>
      </trkpt>
      <trkpt lat="47.69513" lon="-2.24209">
        <ele>69.1</ele>
        <time>2021-05-27T10:52:01Z</time>
      </trkpt>
      <trkpt lat="47.69512" lon="-2.24213">
        <ele>69.1</ele>
        <time>2021-05-27T10:52:02Z</time>
      </trkpt>
      <trkpt lat="47.69511" lon="-2.24216">
        <ele>69.1</ele>
        <time>2021-05-27T10:52:03Z</time>
      </trkpt>
      <trkpt lat="47.6951" lon="-2.24221">
        <ele>69.1</ele>
        <time>2021-05-27T10:52:04Z</time>
      </trkpt>
      <trkpt lat="47.69509" lon="-2.24225">
        <ele>69.1</ele>
        <time>2021-05-27T10:52:05Z</time>
      </trkpt>
      <trkpt lat="47.69508" lon="-2.24228">
        <ele>69</ele>
        <time>2021-05-27T10:52:06Z</time>
      </trkpt>
      <trkpt lat="47.69507" lon="-2.24233">
        <ele>69</ele>
        <time>2021-05-27T10:52:07Z</time>
      </trkpt>
      <trkpt lat="47.69506" lon="-2.24238">
        <ele>69</ele>
        <time>2021-05-27T10:52:08Z</time>
      </trkpt>
      <trkpt lat="47.69505" lon="-2.24241">
        <ele>69</ele>
        <time>2021-05-27T10:52:09Z</time>
      </trkpt>
      <trkpt lat="47.69505" lon="-2.24247">
        <ele>69</ele>
        <time>2021-05-27T10:52:10Z</time>
      </trkpt>
      <trkpt lat="47.69504" lon="-2.24251">
        <ele>69</ele>
        <time>2021-05-27T10:52:11Z</time>
      </trkpt>
      <trkpt lat="47.69504" lon="-2.24257">
        <ele>68.9</ele>
        <time>2021-05-27T10:52:12Z</time>
      </trkpt>
      <trkpt lat="47.69503" lon="-2.24261">
        <ele>68.9</ele>
        <time>2021-05-27T10:52:13Z</time>
      </trkpt>
      <trkpt lat="47.69503" lon="-2.24265">
        <ele>68.8</ele>
        <time>2021-05-27T10:52:14Z</time>
      </trkpt>
      <trkpt lat="47.69503" lon="-2.24269">
        <ele>68.8</ele>
        <time>2021-05-27T10:52:15Z</time>
      </trkpt>
      <trkpt lat="47.69503" lon="-2.24273">
        <ele>68.7</ele>
        <time>2021-05-27T10:52:16Z</time>
      </trkpt>
      <trkpt lat="47.69503" lon="-2.24277">
        <ele>68.7</ele>
        <time>2021-05-27T10:52:17Z</time>
      </trkpt>
      <trkpt lat="47.69503" lon="-2.24281">
        <ele>68.6</ele>
        <time>2021-05-27T10:52:18Z</time>
      </trkpt>
      <trkpt lat="47.69502" lon="-2.24285">
        <ele>68.6</ele>
        <time>2021-05-27T10:52:19Z</time>
      </trkpt>
      <trkpt lat="47.69502" lon="-2.24288">
        <ele>68.5</ele>
        <time>2021-05-27T10:52:20Z</time>
      </trkpt>
      <trkpt lat="47.69501" lon="-2.24291">
        <ele>68.5</ele>
        <time>2021-05-27T10:52:21Z</time>
      </trkpt>
      <trkpt lat="47.69501" lon="-2.24294">
        <ele>68.5</ele>
        <time>2021-05-27T10:52:22Z</time>
      </trkpt>
      <trkpt lat="47.69503" lon="-2.24298">
        <ele>68.4</ele>
        <time>2021-05-27T10:52:23Z</time>
      </trkpt>
      <trkpt lat="47.69503" lon="-2.24301">
        <ele>68.4</ele>
        <time>2021-05-27T10:52:24Z</time>
      </trkpt>
      <trkpt lat="47.69503" lon="-2.24304">
        <ele>68.4</ele>
        <time>2021-05-27T10:52:25Z</time>
      </trkpt>
      <trkpt lat="47.69503" lon="-2.24307">
        <ele>68.3</ele>
        <time>2021-05-27T10:52:26Z</time>
      </trkpt>
      <trkpt lat="47.69503" lon="-2.2431">
        <ele>68.3</ele>
        <time>2021-05-27T10:52:27Z</time>
      </trkpt>
      <trkpt lat="47.69505" lon="-2.24314">
        <ele>68.3</ele>
        <time>2021-05-27T10:52:28Z</time>
      </trkpt>
      <trkpt lat="47.69507" lon="-2.24317">
        <ele>68.3</ele>
        <time>2021-05-27T10:52:29Z</time>
      </trkpt>
      <trkpt lat="47.69509" lon="-2.24322">
        <ele>68.2</ele>
        <time>2021-05-27T10:52:30Z</time>
      </trkpt>
      <trkpt lat="47.69511" lon="-2.24326">
        <ele>68.2</ele>
        <time>2021-05-27T10:52:31Z</time>
      </trkpt>
      <trkpt lat="47.69513" lon="-2.2433">
        <ele>68.2</ele>
        <time>2021-05-27T10:52:32Z</time>
      </trkpt>
      <trkpt lat="47.69516" lon="-2.24334">
        <ele>68.2</ele>
        <time>2021-05-27T10:52:33Z</time>
      </trkpt>
      <trkpt lat="47.69518" lon="-2.24337">
        <ele>68.2</ele>
        <time>2021-05-27T10:52:34Z</time>
      </trkpt>
      <trkpt lat="47.6952" lon="-2.24341">
        <ele>68.1</ele>
        <time>2021-05-27T10:52:35Z</time>
      </trkpt>
      <trkpt lat="47.6952" lon="-2.24345">
        <ele>68.1</ele>
        <time>2021-05-27T10:52:36Z</time>
      </trkpt>
      <trkpt lat="47.69521" lon="-2.24348">
        <ele>68</ele>
        <time>2021-05-27T10:52:37Z</time>
      </trkpt>
      <trkpt lat="47.69522" lon="-2.24352">
        <ele>68</ele>
        <time>2021-05-27T10:52:38Z</time>
      </trkpt>
      <trkpt lat="47.69521" lon="-2.24356">
        <ele>67.9</ele>
        <time>2021-05-27T10:52:39Z</time>
      </trkpt>
      <trkpt lat="47.69521" lon="-2.2436">
        <ele>67.9</ele>
        <time>2021-05-27T10:52:40Z</time>
      </trkpt>
      <trkpt lat="47.69521" lon="-2.24364">
        <ele>67.8</ele>
        <time>2021-05-27T10:52:41Z</time>
      </trkpt>
      <trkpt lat="47.6952" lon="-2.24368">
        <ele>67.7</ele>
        <time>2021-05-27T10:52:42Z</time>
      </trkpt>
      <trkpt lat="47.6952" lon="-2.24372">
        <ele>67.7</ele>
        <time>2021-05-27T10:52:43Z</time>
      </trkpt>
      <trkpt lat="47.6952" lon="-2.24375">
        <ele>67.6</ele>
        <time>2021-05-27T10:52:44Z</time>
      </trkpt>
      <trkpt lat="47.69519" lon="-2.24379">
        <ele>67.6</ele>
        <time>2021-05-27T10:52:45Z</time>
      </trkpt>
      <trkpt lat="47.69518" lon="-2.24383">
        <ele>67.5</ele>
        <time>2021-05-27T10:52:46Z</time>
      </trkpt>
      <trkpt lat="47.69518" lon="-2.24387">
        <ele>67.4</ele>
        <time>2021-05-27T10:52:47Z</time>
      </trkpt>
      <trkpt lat="47.69518" lon="-2.24391">
        <ele>67.4</ele>
        <time>2021-05-27T10:52:48Z</time>
      </trkpt>
      <trkpt lat="47.69519" lon="-2.24395">
        <ele>67.3</ele>
        <time>2021-05-27T10:52:49Z</time>
      </trkpt>
      <trkpt lat="47.69519" lon="-2.24399">
        <ele>67.3</ele>
        <time>2021-05-27T10:52:50Z</time>
      </trkpt>
      <trkpt lat="47.69519" lon="-2.24403">
        <ele>67.2</ele>
        <time>2021-05-27T10:52:51Z</time>
      </trkpt>
      <trkpt lat="47.69519" lon="-2.24408">
        <ele>67.1</ele>
        <time>2021-05-27T10:52:52Z</time>
      </trkpt>
      <trkpt lat="47.69519" lon="-2.24413">
        <ele>67</ele>
        <time>2021-05-27T10:52:53Z</time>
      </trkpt>
      <trkpt lat="47.69519" lon="-2.24419">
        <ele>67</ele>
        <time>2021-05-27T10:52:54Z</time>
      </trkpt>
      <trkpt lat="47.69519" lon="-2.24425">
        <ele>67</ele>
        <time>2021-05-27T10:52:55Z</time>
      </trkpt>
      <trkpt lat="47.6952" lon="-2.24429">
        <ele>67</ele>
        <time>2021-05-27T10:52:56Z</time>
      </trkpt>
      <trkpt lat="47.69521" lon="-2.24434">
        <ele>67.1</ele>
        <time>2021-05-27T10:52:57Z</time>
      </trkpt>
      <trkpt lat="47.69523" lon="-2.24438">
        <ele>67.1</ele>
        <time>2021-05-27T10:52:58Z</time>
      </trkpt>
      <trkpt lat="47.69525" lon="-2.2444">
        <ele>67.1</ele>
        <time>2021-05-27T10:52:59Z</time>
      </trkpt>
      <trkpt lat="47.69525" lon="-2.24445">
        <ele>67.1</ele>
        <time>2021-05-27T10:53:00Z</time>
      </trkpt>
      <trkpt lat="47.69525" lon="-2.24449">
        <ele>67.1</ele>
        <time>2021-05-27T10:53:01Z</time>
      </trkpt>
      <trkpt lat="47.69524" lon="-2.24454">
        <ele>67.1</ele>
        <time>2021-05-27T10:53:02Z</time>
      </trkpt>
      <trkpt lat="47.69522" lon="-2.24459">
        <ele>67.1</ele>
        <time>2021-05-27T10:53:03Z</time>
      </trkpt>
      <trkpt lat="47.69521" lon="-2.24465">
        <ele>67.1</ele>
        <time>2021-05-27T10:53:04Z</time>
      </trkpt>
      <trkpt lat="47.6952" lon="-2.24471">
        <ele>67.2</ele>
        <time>2021-05-27T10:53:05Z</time>
      </trkpt>
      <trkpt lat="47.69518" lon="-2.24476">
        <ele>67.2</ele>
        <time>2021-05-27T10:53:06Z</time>
      </trkpt>
      <trkpt lat="47.69517" lon="-2.24481">
        <ele>67.2</ele>
        <time>2021-05-27T10:53:07Z</time>
      </trkpt>
      <trkpt lat="47.69515" lon="-2.24484">
        <ele>67.1</ele>
        <time>2021-05-27T10:53:08Z</time>
      </trkpt>
      <trkpt lat="47.69514" lon="-2.24489">
        <ele>67.1</ele>
        <time>2021-05-27T10:53:09Z</time>
      </trkpt>
      <trkpt lat="47.69514" lon="-2.24495">
        <ele>67.2</ele>
        <time>2021-05-27T10:53:10Z</time>
      </trkpt>
      <trkpt lat="47.69516" lon="-2.24499">
        <ele>67.2</ele>
        <time>2021-05-27T10:53:11Z</time>
      </trkpt>
      <trkpt lat="47.69517" lon="-2.24503">
        <ele>67.2</ele>
        <time>2021-05-27T10:53:12Z</time>
      </trkpt>
      <trkpt lat="47.6952" lon="-2.24506">
        <ele>67.2</ele>
        <time>2021-05-27T10:53:13Z</time>
      </trkpt>
      <trkpt lat="47.69521" lon="-2.24508">
        <ele>67.2</ele>
        <time>2021-05-27T10:53:14Z</time>
      </trkpt>
      <trkpt lat="47.69523" lon="-2.24511">
        <ele>67.2</ele>
        <time>2021-05-27T10:53:15Z</time>
      </trkpt>
      <trkpt lat="47.69525" lon="-2.24513">
        <ele>67.2</ele>
        <time>2021-05-27T10:53:16Z</time>
      </trkpt>
      <trkpt lat="47.69525" lon="-2.24516">
        <ele>67.2</ele>
        <time>2021-05-27T10:53:17Z</time>
      </trkpt>
      <trkpt lat="47.69525" lon="-2.2452">
        <ele>67.1</ele>
        <time>2021-05-27T10:53:18Z</time>
      </trkpt>
      <trkpt lat="47.69526" lon="-2.24524">
        <ele>67.1</ele>
        <time>2021-05-27T10:53:19Z</time>
      </trkpt>
      <trkpt lat="47.69528" lon="-2.24528">
        <ele>67.1</ele>
        <time>2021-05-27T10:53:20Z</time>
      </trkpt>
      <trkpt lat="47.69529" lon="-2.24532">
        <ele>67.1</ele>
        <time>2021-05-27T10:53:21Z</time>
      </trkpt>
      <trkpt lat="47.6953" lon="-2.24537">
        <ele>67.1</ele>
        <time>2021-05-27T10:53:22Z</time>
      </trkpt>
      <trkpt lat="47.69532" lon="-2.24542">
        <ele>67.1</ele>
        <time>2021-05-27T10:53:23Z</time>
      </trkpt>
      <trkpt lat="47.69533" lon="-2.24544">
        <ele>67.1</ele>
        <time>2021-05-27T10:53:24Z</time>
      </trkpt>
      <trkpt lat="47.69536" lon="-2.24546">
        <ele>67.1</ele>
        <time>2021-05-27T10:53:25Z</time>
      </trkpt>
      <trkpt lat="47.69538" lon="-2.24548">
        <ele>67.1</ele>
        <time>2021-05-27T10:53:26Z</time>
      </trkpt>
      <trkpt lat="47.6954" lon="-2.24549">
        <ele>67.2</ele>
        <time>2021-05-27T10:53:27Z</time>
      </trkpt>
      <trkpt lat="47.6954" lon="-2.24553">
        <ele>67.2</ele>
        <time>2021-05-27T10:53:28Z</time>
      </trkpt>
      <trkpt lat="47.6954" lon="-2.24556">
        <ele>67.1</ele>
        <time>2021-05-27T10:53:29Z</time>
      </trkpt>
      <trkpt lat="47.6954" lon="-2.2456">
        <ele>67.1</ele>
        <time>2021-05-27T10:53:30Z</time>
      </trkpt>
      <trkpt lat="47.69541" lon="-2.24565">
        <ele>67.1</ele>
        <time>2021-05-27T10:53:31Z</time>
      </trkpt>
      <trkpt lat="47.69541" lon="-2.2457">
        <ele>67.1</ele>
        <time>2021-05-27T10:53:32Z</time>
      </trkpt>
      <trkpt lat="47.6954" lon="-2.24574">
        <ele>67</ele>
        <time>2021-05-27T10:53:33Z</time>
      </trkpt>
      <trkpt lat="47.6954" lon="-2.24579">
        <ele>67</ele>
        <time>2021-05-27T10:53:34Z</time>
      </trkpt>
      <trkpt lat="47.69539" lon="-2.24584">
        <ele>66.9</ele>
        <time>2021-05-27T10:53:35Z</time>
      </trkpt>
      <trkpt lat="47.6954" lon="-2.24588">
        <ele>66.9</ele>
        <time>2021-05-27T10:53:36Z</time>
      </trkpt>
      <trkpt lat="47.69541" lon="-2.24592">
        <ele>66.8</ele>
        <time>2021-05-27T10:53:37Z</time>
      </trkpt>
      <trkpt lat="47.69542" lon="-2.24596">
        <ele>66.8</ele>
        <time>2021-05-27T10:53:38Z</time>
      </trkpt>
      <trkpt lat="47.69542" lon="-2.246">
        <ele>66.7</ele>
        <time>2021-05-27T10:53:39Z</time>
      </trkpt>
      <trkpt lat="47.69542" lon="-2.24604">
        <ele>66.6</ele>
        <time>2021-05-27T10:53:40Z</time>
      </trkpt>
      <trkpt lat="47.69541" lon="-2.24607">
        <ele>66.5</ele>
        <time>2021-05-27T10:53:41Z</time>
      </trkpt>
      <trkpt lat="47.6954" lon="-2.24611">
        <ele>66.5</ele>
        <time>2021-05-27T10:53:42Z</time>
      </trkpt>
      <trkpt lat="47.6954" lon="-2.24614">
        <ele>66.4</ele>
        <time>2021-05-27T10:53:43Z</time>
      </trkpt>
      <trkpt lat="47.69541" lon="-2.24618">
        <ele>66.4</ele>
        <time>2021-05-27T10:53:44Z</time>
      </trkpt>
      <trkpt lat="47.69542" lon="-2.24622">
        <ele>66.3</ele>
        <time>2021-05-27T10:53:45Z</time>
      </trkpt>
      <trkpt lat="47.69543" lon="-2.24626">
        <ele>66.3</ele>
        <time>2021-05-27T10:53:46Z</time>
      </trkpt>
      <trkpt lat="47.69544" lon="-2.24628">
        <ele>66.3</ele>
        <time>2021-05-27T10:53:47Z</time>
      </trkpt>
      <trkpt lat="47.69544" lon="-2.24632">
        <ele>66.2</ele>
        <time>2021-05-27T10:53:48Z</time>
      </trkpt>
      <trkpt lat="47.69545" lon="-2.24635">
        <ele>66.2</ele>
        <time>2021-05-27T10:53:49Z</time>
      </trkpt>
      <trkpt lat="47.69544" lon="-2.2464">
        <ele>66.1</ele>
        <time>2021-05-27T10:53:50Z</time>
      </trkpt>
      <trkpt lat="47.69543" lon="-2.24645">
        <ele>66</ele>
        <time>2021-05-27T10:53:51Z</time>
      </trkpt>
      <trkpt lat="47.69543" lon="-2.2465">
        <ele>65.9</ele>
        <time>2021-05-27T10:53:52Z</time>
      </trkpt>
      <trkpt lat="47.69543" lon="-2.24655">
        <ele>65.7</ele>
        <time>2021-05-27T10:53:53Z</time>
      </trkpt>
      <trkpt lat="47.69542" lon="-2.24659">
        <ele>65.6</ele>
        <time>2021-05-27T10:53:54Z</time>
      </trkpt>
      <trkpt lat="47.69541" lon="-2.24664">
        <ele>65.5</ele>
        <time>2021-05-27T10:53:55Z</time>
      </trkpt>
      <trkpt lat="47.6954" lon="-2.24669">
        <ele>65.4</ele>
        <time>2021-05-27T10:53:56Z</time>
      </trkpt>
      <trkpt lat="47.69539" lon="-2.24674">
        <ele>65.4</ele>
        <time>2021-05-27T10:53:57Z</time>
      </trkpt>
      <trkpt lat="47.69538" lon="-2.24678">
        <ele>65.4</ele>
        <time>2021-05-27T10:53:58Z</time>
      </trkpt>
      <trkpt lat="47.69539" lon="-2.24682">
        <ele>65.5</ele>
        <time>2021-05-27T10:53:59Z</time>
      </trkpt>
      <trkpt lat="47.69538" lon="-2.24687">
        <ele>65.5</ele>
        <time>2021-05-27T10:54:00Z</time>
      </trkpt>
      <trkpt lat="47.69537" lon="-2.24692">
        <ele>65.4</ele>
        <time>2021-05-27T10:54:01Z</time>
      </trkpt>
      <trkpt lat="47.69536" lon="-2.24697">
        <ele>65.4</ele>
        <time>2021-05-27T10:54:02Z</time>
      </trkpt>
      <trkpt lat="47.69536" lon="-2.24702">
        <ele>65.4</ele>
        <time>2021-05-27T10:54:03Z</time>
      </trkpt>
      <trkpt lat="47.69537" lon="-2.24707">
        <ele>65.5</ele>
        <time>2021-05-27T10:54:04Z</time>
      </trkpt>
      <trkpt lat="47.69538" lon="-2.24713">
        <ele>65.6</ele>
        <time>2021-05-27T10:54:05Z</time>
      </trkpt>
      <trkpt lat="47.69539" lon="-2.24718">
        <ele>65.7</ele>
        <time>2021-05-27T10:54:06Z</time>
      </trkpt>
      <trkpt lat="47.6954" lon="-2.24724">
        <ele>65.8</ele>
        <time>2021-05-27T10:54:07Z</time>
      </trkpt>
      <trkpt lat="47.6954" lon="-2.24729">
        <ele>65.8</ele>
        <time>2021-05-27T10:54:08Z</time>
      </trkpt>
      <trkpt lat="47.69541" lon="-2.24734">
        <ele>65.9</ele>
        <time>2021-05-27T10:54:09Z</time>
      </trkpt>
      <trkpt lat="47.6954" lon="-2.24736">
        <ele>65.8</ele>
        <time>2021-05-27T10:54:10Z</time>
      </trkpt>
      <trkpt lat="47.69539" lon="-2.24736">
        <ele>65.8</ele>
        <time>2021-05-27T10:54:11Z</time>
      </trkpt>
      <trkpt lat="47.69539" lon="-2.24737">
        <ele>65.8</ele>
        <time>2021-05-27T10:54:12Z</time>
      </trkpt>
      <trkpt lat="47.69539" lon="-2.24737">
        <ele>65.8</ele>
        <time>2021-05-27T10:54:14Z</time>
      </trkpt>
      <trkpt lat="47.69539" lon="-2.24737">
        <ele>65.8</ele>
        <time>2021-05-27T10:54:15Z</time>
      </trkpt>
      <trkpt lat="47.69539" lon="-2.24737">
        <ele>65.8</ele>
        <time>2021-05-27T10:54:16Z</time>
      </trkpt>
      <trkpt lat="47.69539" lon="-2.24737">
        <ele>65.8</ele>
        <time>2021-05-27T10:54:17Z</time>
      </trkpt>
      <trkpt lat="47.69539" lon="-2.24737">
        <ele>65.8</ele>
        <time>2021-05-27T10:54:18Z</time>
      </trkpt>
      <trkpt lat="47.69539" lon="-2.24737">
        <ele>65.8</ele>
        <time>2021-05-27T10:54:19Z</time>
      </trkpt>
      <trkpt lat="47.69539" lon="-2.24737">
        <ele>65.8</ele>
        <time>2021-05-27T10:54:20Z</time>
      </trkpt>
      <trkpt lat="47.69539" lon="-2.24737">
        <ele>65.8</ele>
        <time>2021-05-27T10:54:21Z</time>
      </trkpt>
      <trkpt lat="47.69539" lon="-2.24737">
        <ele>65.8</ele>
        <time>2021-05-27T10:54:22Z</time>
      </trkpt>
      <trkpt lat="47.69539" lon="-2.24737">
        <ele>65.8</ele>
        <time>2021-05-27T10:54:23Z</time>
      </trkpt>
      <trkpt lat="47.69539" lon="-2.24737">
        <ele>65.8</ele>
        <time>2021-05-27T10:54:24Z</time>
      </trkpt>
      <trkpt lat="47.69539" lon="-2.24737">
        <ele>65.8</ele>
        <time>2021-05-27T10:54:25Z</time>
      </trkpt>
      <trkpt lat="47.69537" lon="-2.24736">
        <ele>65.6</ele>
        <time>2021-05-27T10:54:26Z</time>
      </trkpt>
      <trkpt lat="47.69535" lon="-2.24735">
        <ele>65.5</ele>
        <time>2021-05-27T10:54:27Z</time>
      </trkpt>
      <trkpt lat="47.69533" lon="-2.24734">
        <ele>65.4</ele>
        <time>2021-05-27T10:54:28Z</time>
      </trkpt>
      <trkpt lat="47.69531" lon="-2.24734">
        <ele>65.2</ele>
        <time>2021-05-27T10:54:29Z</time>
      </trkpt>
      <trkpt lat="47.6953" lon="-2.24734">
        <ele>65.1</ele>
        <time>2021-05-27T10:54:30Z</time>
      </trkpt>
      <trkpt lat="47.69527" lon="-2.24734">
        <ele>64.9</ele>
        <time>2021-05-27T10:54:31Z</time>
      </trkpt>
      <trkpt lat="47.69523" lon="-2.24734">
        <ele>64.7</ele>
        <time>2021-05-27T10:54:32Z</time>
      </trkpt>
      <trkpt lat="47.69521" lon="-2.24736">
        <ele>64.6</ele>
        <time>2021-05-27T10:54:33Z</time>
      </trkpt>
      <trkpt lat="47.69519" lon="-2.24739">
        <ele>64.4</ele>
        <time>2021-05-27T10:54:34Z</time>
      </trkpt>
      <trkpt lat="47.69519" lon="-2.24743">
        <ele>64.4</ele>
        <time>2021-05-27T10:54:35Z</time>
      </trkpt>
      <trkpt lat="47.69519" lon="-2.24748">
        <ele>64.4</ele>
        <time>2021-05-27T10:54:36Z</time>
      </trkpt>
      <trkpt lat="47.6952" lon="-2.24752">
        <ele>64.4</ele>
        <time>2021-05-27T10:54:37Z</time>
      </trkpt>
      <trkpt lat="47.69519" lon="-2.24757">
        <ele>64.3</ele>
        <time>2021-05-27T10:54:38Z</time>
      </trkpt>
      <trkpt lat="47.69518" lon="-2.2476">
        <ele>64.2</ele>
        <time>2021-05-27T10:54:39Z</time>
      </trkpt>
      <trkpt lat="47.69519" lon="-2.24764">
        <ele>64.2</ele>
        <time>2021-05-27T10:54:40Z</time>
      </trkpt>
      <trkpt lat="47.69518" lon="-2.24769">
        <ele>64.2</ele>
        <time>2021-05-27T10:54:41Z</time>
      </trkpt>
      <trkpt lat="47.69518" lon="-2.24773">
        <ele>64.2</ele>
        <time>2021-05-27T10:54:42Z</time>
      </trkpt>
      <trkpt lat="47.6952" lon="-2.24778">
        <ele>64.3</ele>
        <time>2021-05-27T10:54:43Z</time>
      </trkpt>
      <trkpt lat="47.69522" lon="-2.24783">
        <ele>64.4</ele>
        <time>2021-05-27T10:54:44Z</time>
      </trkpt>
      <trkpt lat="47.69523" lon="-2.24786">
        <ele>64.5</ele>
        <time>2021-05-27T10:54:45Z</time>
      </trkpt>
      <trkpt lat="47.69525" lon="-2.24791">
        <ele>64.6</ele>
        <time>2021-05-27T10:54:46Z</time>
      </trkpt>
      <trkpt lat="47.69526" lon="-2.24795">
        <ele>64.7</ele>
        <time>2021-05-27T10:54:47Z</time>
      </trkpt>
      <trkpt lat="47.69527" lon="-2.248">
        <ele>64.8</ele>
        <time>2021-05-27T10:54:48Z</time>
      </trkpt>
      <trkpt lat="47.69529" lon="-2.24804">
        <ele>64.9</ele>
        <time>2021-05-27T10:54:49Z</time>
      </trkpt>
      <trkpt lat="47.69531" lon="-2.24808">
        <ele>65</ele>
        <time>2021-05-27T10:54:50Z</time>
      </trkpt>
      <trkpt lat="47.69533" lon="-2.2481">
        <ele>65.3</ele>
        <time>2021-05-27T10:54:51Z</time>
      </trkpt>
      <trkpt lat="47.69535" lon="-2.24812">
        <ele>65.4</ele>
        <time>2021-05-27T10:54:52Z</time>
      </trkpt>
      <trkpt lat="47.69535" lon="-2.24815">
        <ele>65.4</ele>
        <time>2021-05-27T10:54:53Z</time>
      </trkpt>
      <trkpt lat="47.69535" lon="-2.24819">
        <ele>65.4</ele>
        <time>2021-05-27T10:54:54Z</time>
      </trkpt>
      <trkpt lat="47.69537" lon="-2.24823">
        <ele>65.5</ele>
        <time>2021-05-27T10:54:55Z</time>
      </trkpt>
      <trkpt lat="47.69539" lon="-2.24826">
        <ele>65.7</ele>
        <time>2021-05-27T10:54:56Z</time>
      </trkpt>
      <trkpt lat="47.6954" lon="-2.2483">
        <ele>65.8</ele>
        <time>2021-05-27T10:54:57Z</time>
      </trkpt>
      <trkpt lat="47.69541" lon="-2.24835">
        <ele>65.9</ele>
        <time>2021-05-27T10:54:58Z</time>
      </trkpt>
      <trkpt lat="47.6954" lon="-2.24841">
        <ele>65.9</ele>
        <time>2021-05-27T10:54:59Z</time>
      </trkpt>
      <trkpt lat="47.6954" lon="-2.24845">
        <ele>65.9</ele>
        <time>2021-05-27T10:55:00Z</time>
      </trkpt>
      <trkpt lat="47.6954" lon="-2.2485">
        <ele>65.8</ele>
        <time>2021-05-27T10:55:01Z</time>
      </trkpt>
      <trkpt lat="47.69538" lon="-2.24853">
        <ele>65.7</ele>
        <time>2021-05-27T10:55:02Z</time>
      </trkpt>
      <trkpt lat="47.69537" lon="-2.24856">
        <ele>65.6</ele>
        <time>2021-05-27T10:55:03Z</time>
      </trkpt>
      <trkpt lat="47.69537" lon="-2.24859">
        <ele>65.6</ele>
        <time>2021-05-27T10:55:04Z</time>
      </trkpt>
      <trkpt lat="47.69537" lon="-2.24861">
        <ele>65.6</ele>
        <time>2021-05-27T10:55:05Z</time>
      </trkpt>
      <trkpt lat="47.69538" lon="-2.24862">
        <ele>65.6</ele>
        <time>2021-05-27T10:55:06Z</time>
      </trkpt>
      <trkpt lat="47.69538" lon="-2.24864">
        <ele>65.7</ele>
        <time>2021-05-27T10:55:07Z</time>
      </trkpt>
      <trkpt lat="47.69538" lon="-2.24866">
        <ele>65.7</ele>
        <time>2021-05-27T10:55:08Z</time>
      </trkpt>
      <trkpt lat="47.69539" lon="-2.24868">
        <ele>65.7</ele>
        <time>2021-05-27T10:55:09Z</time>
      </trkpt>
      <trkpt lat="47.6954" lon="-2.24871">
        <ele>65.8</ele>
        <time>2021-05-27T10:55:10Z</time>
      </trkpt>
      <trkpt lat="47.6954" lon="-2.24873">
        <ele>65.9</ele>
        <time>2021-05-27T10:55:11Z</time>
      </trkpt>
      <trkpt lat="47.6954" lon="-2.24877">
        <ele>65.9</ele>
        <time>2021-05-27T10:55:12Z</time>
      </trkpt>
      <trkpt lat="47.6954" lon="-2.2488">
        <ele>65.8</ele>
        <time>2021-05-27T10:55:13Z</time>
      </trkpt>
      <trkpt lat="47.6954" lon="-2.24884">
        <ele>65.9</ele>
        <time>2021-05-27T10:55:14Z</time>
      </trkpt>
      <trkpt lat="47.6954" lon="-2.24888">
        <ele>65.9</ele>
        <time>2021-05-27T10:55:15Z</time>
      </trkpt>
      <trkpt lat="47.69541" lon="-2.24891">
        <ele>65.9</ele>
        <time>2021-05-27T10:55:16Z</time>
      </trkpt>
      <trkpt lat="47.69541" lon="-2.24895">
        <ele>65.9</ele>
        <time>2021-05-27T10:55:17Z</time>
      </trkpt>
      <trkpt lat="47.69541" lon="-2.249">
        <ele>65.9</ele>
        <time>2021-05-27T10:55:18Z</time>
      </trkpt>
      <trkpt lat="47.69542" lon="-2.24905">
        <ele>66</ele>
        <time>2021-05-27T10:55:19Z</time>
      </trkpt>
      <trkpt lat="47.69545" lon="-2.24911">
        <ele>66.2</ele>
        <time>2021-05-27T10:55:20Z</time>
      </trkpt>
      <trkpt lat="47.69548" lon="-2.24915">
        <ele>66.5</ele>
        <time>2021-05-27T10:55:21Z</time>
      </trkpt>
      <trkpt lat="47.69551" lon="-2.24918">
        <ele>66.6</ele>
        <time>2021-05-27T10:55:22Z</time>
      </trkpt>
      <trkpt lat="47.69551" lon="-2.24921">
        <ele>66.5</ele>
        <time>2021-05-27T10:55:23Z</time>
      </trkpt>
      <trkpt lat="47.69551" lon="-2.24925">
        <ele>66.4</ele>
        <time>2021-05-27T10:55:24Z</time>
      </trkpt>
      <trkpt lat="47.69551" lon="-2.2493">
        <ele>66.3</ele>
        <time>2021-05-27T10:55:25Z</time>
      </trkpt>
      <trkpt lat="47.69551" lon="-2.24933">
        <ele>66.2</ele>
        <time>2021-05-27T10:55:26Z</time>
      </trkpt>
      <trkpt lat="47.69552" lon="-2.24936">
        <ele>66.1</ele>
        <time>2021-05-27T10:55:27Z</time>
      </trkpt>
      <trkpt lat="47.69553" lon="-2.2494">
        <ele>66.1</ele>
        <time>2021-05-27T10:55:28Z</time>
      </trkpt>
      <trkpt lat="47.69553" lon="-2.24944">
        <ele>65.9</ele>
        <time>2021-05-27T10:55:29Z</time>
      </trkpt>
      <trkpt lat="47.69552" lon="-2.24948">
        <ele>65.8</ele>
        <time>2021-05-27T10:55:30Z</time>
      </trkpt>
      <trkpt lat="47.69552" lon="-2.24953">
        <ele>65.6</ele>
        <time>2021-05-27T10:55:31Z</time>
      </trkpt>
      <trkpt lat="47.69552" lon="-2.24958">
        <ele>65.4</ele>
        <time>2021-05-27T10:55:32Z</time>
      </trkpt>
      <trkpt lat="47.69554" lon="-2.24966">
        <ele>65.3</ele>
        <time>2021-05-27T10:55:33Z</time>
      </trkpt>
      <trkpt lat="47.69557" lon="-2.24972">
        <ele>65.3</ele>
        <time>2021-05-27T10:55:34Z</time>
      </trkpt>
      <trkpt lat="47.69559" lon="-2.24977">
        <ele>65.3</ele>
        <time>2021-05-27T10:55:35Z</time>
      </trkpt>
      <trkpt lat="47.69559" lon="-2.24983">
        <ele>65.1</ele>
        <time>2021-05-27T10:55:36Z</time>
      </trkpt>
      <trkpt lat="47.69559" lon="-2.24989">
        <ele>64.9</ele>
        <time>2021-05-27T10:55:37Z</time>
      </trkpt>
      <trkpt lat="47.69558" lon="-2.24994">
        <ele>64.7</ele>
        <time>2021-05-27T10:55:38Z</time>
      </trkpt>
      <trkpt lat="47.69556" lon="-2.25">
        <ele>64.4</ele>
        <time>2021-05-27T10:55:39Z</time>
      </trkpt>
      <trkpt lat="47.69553" lon="-2.25004">
        <ele>64.2</ele>
        <time>2021-05-27T10:55:40Z</time>
      </trkpt>
      <trkpt lat="47.69551" lon="-2.2501">
        <ele>64</ele>
        <time>2021-05-27T10:55:41Z</time>
      </trkpt>
      <trkpt lat="47.69549" lon="-2.25016">
        <ele>63.8</ele>
        <time>2021-05-27T10:55:42Z</time>
      </trkpt>
      <trkpt lat="47.69547" lon="-2.25023">
        <ele>63.6</ele>
        <time>2021-05-27T10:55:43Z</time>
      </trkpt>
      <trkpt lat="47.69547" lon="-2.2503">
        <ele>63.6</ele>
        <time>2021-05-27T10:55:44Z</time>
      </trkpt>
      <trkpt lat="47.69549" lon="-2.25037">
        <ele>63.6</ele>
        <time>2021-05-27T10:55:45Z</time>
      </trkpt>
      <trkpt lat="47.69551" lon="-2.2504">
        <ele>63.8</ele>
        <time>2021-05-27T10:55:46Z</time>
      </trkpt>
      <trkpt lat="47.69553" lon="-2.25045">
        <ele>63.9</ele>
        <time>2021-05-27T10:55:47Z</time>
      </trkpt>
      <trkpt lat="47.69555" lon="-2.25049">
        <ele>64.1</ele>
        <time>2021-05-27T10:55:48Z</time>
      </trkpt>
      <trkpt lat="47.69557" lon="-2.25053">
        <ele>64.3</ele>
        <time>2021-05-27T10:55:49Z</time>
      </trkpt>
      <trkpt lat="47.69559" lon="-2.25057">
        <ele>64.4</ele>
        <time>2021-05-27T10:55:50Z</time>
      </trkpt>
      <trkpt lat="47.69559" lon="-2.25061">
        <ele>64.4</ele>
        <time>2021-05-27T10:55:51Z</time>
      </trkpt>
      <trkpt lat="47.69558" lon="-2.25065">
        <ele>64.3</ele>
        <time>2021-05-27T10:55:52Z</time>
      </trkpt>
      <trkpt lat="47.69556" lon="-2.25068">
        <ele>64.2</ele>
        <time>2021-05-27T10:55:53Z</time>
      </trkpt>
      <trkpt lat="47.69555" lon="-2.25069">
        <ele>64</ele>
        <time>2021-05-27T10:55:54Z</time>
      </trkpt>
      <trkpt lat="47.69553" lon="-2.25069">
        <ele>63.8</ele>
        <time>2021-05-27T10:55:55Z</time>
      </trkpt>
      <trkpt lat="47.6955" lon="-2.25068">
        <ele>63.5</ele>
        <time>2021-05-27T10:55:56Z</time>
      </trkpt>
      <trkpt lat="47.69547" lon="-2.25068">
        <ele>63.2</ele>
        <time>2021-05-27T10:55:57Z</time>
      </trkpt>
      <trkpt lat="47.69544" lon="-2.25069">
        <ele>62.9</ele>
        <time>2021-05-27T10:55:58Z</time>
      </trkpt>
      <trkpt lat="47.69541" lon="-2.25072">
        <ele>62.6</ele>
        <time>2021-05-27T10:55:59Z</time>
      </trkpt>
      <trkpt lat="47.69539" lon="-2.25075">
        <ele>62.3</ele>
        <time>2021-05-27T10:56:00Z</time>
      </trkpt>
      <trkpt lat="47.69536" lon="-2.25078">
        <ele>62</ele>
        <time>2021-05-27T10:56:01Z</time>
      </trkpt>
      <trkpt lat="47.69535" lon="-2.2508">
        <ele>61.8</ele>
        <time>2021-05-27T10:56:02Z</time>
      </trkpt>
      <trkpt lat="47.69534" lon="-2.25084">
        <ele>61.6</ele>
        <time>2021-05-27T10:56:03Z</time>
      </trkpt>
      <trkpt lat="47.69533" lon="-2.25088">
        <ele>61.4</ele>
        <time>2021-05-27T10:56:04Z</time>
      </trkpt>
      <trkpt lat="47.69531" lon="-2.25093">
        <ele>61.1</ele>
        <time>2021-05-27T10:56:05Z</time>
      </trkpt>
      <trkpt lat="47.69531" lon="-2.25098">
        <ele>60.9</ele>
        <time>2021-05-27T10:56:06Z</time>
      </trkpt>
      <trkpt lat="47.69532" lon="-2.25105">
        <ele>60.9</ele>
        <time>2021-05-27T10:56:07Z</time>
      </trkpt>
      <trkpt lat="47.69534" lon="-2.2511">
        <ele>60.9</ele>
        <time>2021-05-27T10:56:08Z</time>
      </trkpt>
      <trkpt lat="47.69537" lon="-2.25114">
        <ele>61.1</ele>
        <time>2021-05-27T10:56:09Z</time>
      </trkpt>
      <trkpt lat="47.6954" lon="-2.25117">
        <ele>61.3</ele>
        <time>2021-05-27T10:56:10Z</time>
      </trkpt>
      <trkpt lat="47.69543" lon="-2.2512">
        <ele>61.5</ele>
        <time>2021-05-27T10:56:11Z</time>
      </trkpt>
      <trkpt lat="47.69546" lon="-2.25123">
        <ele>61.8</ele>
        <time>2021-05-27T10:56:12Z</time>
      </trkpt>
      <trkpt lat="47.6955" lon="-2.25127">
        <ele>62</ele>
        <time>2021-05-27T10:56:13Z</time>
      </trkpt>
      <trkpt lat="47.69552" lon="-2.2513">
        <ele>62.2</ele>
        <time>2021-05-27T10:56:14Z</time>
      </trkpt>
      <trkpt lat="47.69555" lon="-2.25133">
        <ele>62.3</ele>
        <time>2021-05-27T10:56:15Z</time>
      </trkpt>
      <trkpt lat="47.69558" lon="-2.25136">
        <ele>62.6</ele>
        <time>2021-05-27T10:56:16Z</time>
      </trkpt>
      <trkpt lat="47.69561" lon="-2.25138">
        <ele>62.8</ele>
        <time>2021-05-27T10:56:17Z</time>
      </trkpt>
      <trkpt lat="47.69565" lon="-2.25139">
        <ele>63.2</ele>
        <time>2021-05-27T10:56:18Z</time>
      </trkpt>
      <trkpt lat="47.69569" lon="-2.25138">
        <ele>63.6</ele>
        <time>2021-05-27T10:56:19Z</time>
      </trkpt>
      <trkpt lat="47.69573" lon="-2.2514">
        <ele>63.9</ele>
        <time>2021-05-27T10:56:20Z</time>
      </trkpt>
      <trkpt lat="47.69576" lon="-2.25142">
        <ele>64.2</ele>
        <time>2021-05-27T10:56:21Z</time>
      </trkpt>
      <trkpt lat="47.6958" lon="-2.25144">
        <ele>64.4</ele>
        <time>2021-05-27T10:56:22Z</time>
      </trkpt>
      <trkpt lat="47.69582" lon="-2.25147">
        <ele>64.6</ele>
        <time>2021-05-27T10:56:23Z</time>
      </trkpt>
      <trkpt lat="47.69585" lon="-2.2515">
        <ele>64.7</ele>
        <time>2021-05-27T10:56:24Z</time>
      </trkpt>
      <trkpt lat="47.69588" lon="-2.25152">
        <ele>64.7</ele>
        <time>2021-05-27T10:56:25Z</time>
      </trkpt>
      <trkpt lat="47.69592" lon="-2.25153">
        <ele>64.8</ele>
        <time>2021-05-27T10:56:26Z</time>
      </trkpt>
      <trkpt lat="47.69594" lon="-2.25154">
        <ele>64.8</ele>
        <time>2021-05-27T10:56:27Z</time>
      </trkpt>
      <trkpt lat="47.69596" lon="-2.25158">
        <ele>64.8</ele>
        <time>2021-05-27T10:56:28Z</time>
      </trkpt>
      <trkpt lat="47.69599" lon="-2.25163">
        <ele>64.7</ele>
        <time>2021-05-27T10:56:29Z</time>
      </trkpt>
      <trkpt lat="47.69599" lon="-2.25167">
        <ele>64.6</ele>
        <time>2021-05-27T10:56:30Z</time>
      </trkpt>
      <trkpt lat="47.696" lon="-2.25172">
        <ele>64.3</ele>
        <time>2021-05-27T10:56:31Z</time>
      </trkpt>
      <trkpt lat="47.69601" lon="-2.25177">
        <ele>64.2</ele>
        <time>2021-05-27T10:56:32Z</time>
      </trkpt>
      <trkpt lat="47.69603" lon="-2.2518">
        <ele>64.1</ele>
        <time>2021-05-27T10:56:33Z</time>
      </trkpt>
      <trkpt lat="47.69605" lon="-2.25184">
        <ele>64.1</ele>
        <time>2021-05-27T10:56:34Z</time>
      </trkpt>
      <trkpt lat="47.69606" lon="-2.25188">
        <ele>64</ele>
        <time>2021-05-27T10:56:35Z</time>
      </trkpt>
      <trkpt lat="47.69608" lon="-2.25192">
        <ele>63.8</ele>
        <time>2021-05-27T10:56:36Z</time>
      </trkpt>
      <trkpt lat="47.69609" lon="-2.25197">
        <ele>63.7</ele>
        <time>2021-05-27T10:56:37Z</time>
      </trkpt>
      <trkpt lat="47.69611" lon="-2.25201">
        <ele>63.6</ele>
        <time>2021-05-27T10:56:38Z</time>
      </trkpt>
      <trkpt lat="47.69611" lon="-2.25206">
        <ele>63.4</ele>
        <time>2021-05-27T10:56:39Z</time>
      </trkpt>
      <trkpt lat="47.6961" lon="-2.2521">
        <ele>63.2</ele>
        <time>2021-05-27T10:56:40Z</time>
      </trkpt>
      <trkpt lat="47.69608" lon="-2.25215">
        <ele>62.9</ele>
        <time>2021-05-27T10:56:41Z</time>
      </trkpt>
      <trkpt lat="47.69606" lon="-2.2522">
        <ele>62.6</ele>
        <time>2021-05-27T10:56:42Z</time>
      </trkpt>
      <trkpt lat="47.69605" lon="-2.25225">
        <ele>62.4</ele>
        <time>2021-05-27T10:56:43Z</time>
      </trkpt>
      <trkpt lat="47.69604" lon="-2.2523">
        <ele>62.1</ele>
        <time>2021-05-27T10:56:44Z</time>
      </trkpt>
      <trkpt lat="47.69604" lon="-2.25235">
        <ele>61.9</ele>
        <time>2021-05-27T10:56:45Z</time>
      </trkpt>
      <trkpt lat="47.69603" lon="-2.25239">
        <ele>61.7</ele>
        <time>2021-05-27T10:56:46Z</time>
      </trkpt>
      <trkpt lat="47.69603" lon="-2.25243">
        <ele>61.4</ele>
        <time>2021-05-27T10:56:47Z</time>
      </trkpt>
      <trkpt lat="47.69602" lon="-2.25247">
        <ele>61.2</ele>
        <time>2021-05-27T10:56:48Z</time>
      </trkpt>
      <trkpt lat="47.696" lon="-2.25251">
        <ele>61</ele>
        <time>2021-05-27T10:56:49Z</time>
      </trkpt>
      <trkpt lat="47.69598" lon="-2.25254">
        <ele>60.8</ele>
        <time>2021-05-27T10:56:50Z</time>
      </trkpt>
      <trkpt lat="47.69597" lon="-2.25258">
        <ele>60.7</ele>
        <time>2021-05-27T10:56:51Z</time>
      </trkpt>
      <trkpt lat="47.69596" lon="-2.25262">
        <ele>60.6</ele>
        <time>2021-05-27T10:56:52Z</time>
      </trkpt>
      <trkpt lat="47.69595" lon="-2.25265">
        <ele>60.6</ele>
        <time>2021-05-27T10:56:53Z</time>
      </trkpt>
      <trkpt lat="47.69594" lon="-2.25269">
        <ele>60.5</ele>
        <time>2021-05-27T10:56:54Z</time>
      </trkpt>
      <trkpt lat="47.69594" lon="-2.25273">
        <ele>60.4</ele>
        <time>2021-05-27T10:56:55Z</time>
      </trkpt>
      <trkpt lat="47.69594" lon="-2.25278">
        <ele>60.4</ele>
        <time>2021-05-27T10:56:56Z</time>
      </trkpt>
      <trkpt lat="47.69595" lon="-2.25283">
        <ele>60.4</ele>
        <time>2021-05-27T10:56:57Z</time>
      </trkpt>
      <trkpt lat="47.69596" lon="-2.25289">
        <ele>60.3</ele>
        <time>2021-05-27T10:56:58Z</time>
      </trkpt>
      <trkpt lat="47.69596" lon="-2.25294">
        <ele>60.3</ele>
        <time>2021-05-27T10:56:59Z</time>
      </trkpt>
      <trkpt lat="47.69596" lon="-2.253">
        <ele>60.2</ele>
        <time>2021-05-27T10:57:00Z</time>
      </trkpt>
      <trkpt lat="47.69596" lon="-2.25305">
        <ele>60.2</ele>
        <time>2021-05-27T10:57:01Z</time>
      </trkpt>
      <trkpt lat="47.69596" lon="-2.2531">
        <ele>60.2</ele>
        <time>2021-05-27T10:57:02Z</time>
      </trkpt>
      <trkpt lat="47.69596" lon="-2.25315">
        <ele>60.1</ele>
        <time>2021-05-27T10:57:03Z</time>
      </trkpt>
      <trkpt lat="47.69595" lon="-2.2532">
        <ele>60</ele>
        <time>2021-05-27T10:57:04Z</time>
      </trkpt>
      <trkpt lat="47.69594" lon="-2.25324">
        <ele>59.9</ele>
        <time>2021-05-27T10:57:05Z</time>
      </trkpt>
      <trkpt lat="47.69594" lon="-2.25329">
        <ele>59.8</ele>
        <time>2021-05-27T10:57:06Z</time>
      </trkpt>
      <trkpt lat="47.69595" lon="-2.25334">
        <ele>59.8</ele>
        <time>2021-05-27T10:57:07Z</time>
      </trkpt>
      <trkpt lat="47.69597" lon="-2.25339">
        <ele>59.8</ele>
        <time>2021-05-27T10:57:08Z</time>
      </trkpt>
      <trkpt lat="47.69599" lon="-2.25344">
        <ele>59.9</ele>
        <time>2021-05-27T10:57:09Z</time>
      </trkpt>
      <trkpt lat="47.69601" lon="-2.25347">
        <ele>60</ele>
        <time>2021-05-27T10:57:10Z</time>
      </trkpt>
      <trkpt lat="47.69603" lon="-2.25351">
        <ele>60.1</ele>
        <time>2021-05-27T10:57:11Z</time>
      </trkpt>
      <trkpt lat="47.69604" lon="-2.25356">
        <ele>60.1</ele>
        <time>2021-05-27T10:57:12Z</time>
      </trkpt>
      <trkpt lat="47.69605" lon="-2.25361">
        <ele>60.1</ele>
        <time>2021-05-27T10:57:13Z</time>
      </trkpt>
      <trkpt lat="47.69606" lon="-2.25367">
        <ele>60</ele>
        <time>2021-05-27T10:57:14Z</time>
      </trkpt>
      <trkpt lat="47.69606" lon="-2.25373">
        <ele>60</ele>
        <time>2021-05-27T10:57:15Z</time>
      </trkpt>
      <trkpt lat="47.69606" lon="-2.25378">
        <ele>59.9</ele>
        <time>2021-05-27T10:57:16Z</time>
      </trkpt>
      <trkpt lat="47.69606" lon="-2.25384">
        <ele>59.8</ele>
        <time>2021-05-27T10:57:17Z</time>
      </trkpt>
      <trkpt lat="47.69607" lon="-2.2539">
        <ele>59.8</ele>
        <time>2021-05-27T10:57:18Z</time>
      </trkpt>
      <trkpt lat="47.69609" lon="-2.25395">
        <ele>59.8</ele>
        <time>2021-05-27T10:57:19Z</time>
      </trkpt>
      <trkpt lat="47.69611" lon="-2.254">
        <ele>59.9</ele>
        <time>2021-05-27T10:57:20Z</time>
      </trkpt>
      <trkpt lat="47.69614" lon="-2.25406">
        <ele>60.1</ele>
        <time>2021-05-27T10:57:21Z</time>
      </trkpt>
      <trkpt lat="47.69617" lon="-2.2541">
        <ele>60.3</ele>
        <time>2021-05-27T10:57:22Z</time>
      </trkpt>
      <trkpt lat="47.69619" lon="-2.25415">
        <ele>60.5</ele>
        <time>2021-05-27T10:57:23Z</time>
      </trkpt>
      <trkpt lat="47.6962" lon="-2.25419">
        <ele>60.5</ele>
        <time>2021-05-27T10:57:24Z</time>
      </trkpt>
      <trkpt lat="47.69621" lon="-2.25424">
        <ele>60.5</ele>
        <time>2021-05-27T10:57:25Z</time>
      </trkpt>
      <trkpt lat="47.69621" lon="-2.25429">
        <ele>60.5</ele>
        <time>2021-05-27T10:57:26Z</time>
      </trkpt>
      <trkpt lat="47.69621" lon="-2.25434">
        <ele>60.5</ele>
        <time>2021-05-27T10:57:27Z</time>
      </trkpt>
      <trkpt lat="47.69623" lon="-2.2544">
        <ele>60.7</ele>
        <time>2021-05-27T10:57:28Z</time>
      </trkpt>
      <trkpt lat="47.69625" lon="-2.25446">
        <ele>60.8</ele>
        <time>2021-05-27T10:57:29Z</time>
      </trkpt>
      <trkpt lat="47.69628" lon="-2.2545">
        <ele>61</ele>
        <time>2021-05-27T10:57:30Z</time>
      </trkpt>
      <trkpt lat="47.69629" lon="-2.25455">
        <ele>61.2</ele>
        <time>2021-05-27T10:57:31Z</time>
      </trkpt>
      <trkpt lat="47.6963" lon="-2.25458">
        <ele>61.3</ele>
        <time>2021-05-27T10:57:32Z</time>
      </trkpt>
      <trkpt lat="47.6963" lon="-2.25462">
        <ele>61.2</ele>
        <time>2021-05-27T10:57:33Z</time>
      </trkpt>
      <trkpt lat="47.69629" lon="-2.25466">
        <ele>61.1</ele>
        <time>2021-05-27T10:57:34Z</time>
      </trkpt>
      <trkpt lat="47.69629" lon="-2.25472">
        <ele>61.1</ele>
        <time>2021-05-27T10:57:35Z</time>
      </trkpt>
      <trkpt lat="47.69629" lon="-2.25476">
        <ele>61.1</ele>
        <time>2021-05-27T10:57:36Z</time>
      </trkpt>
      <trkpt lat="47.69631" lon="-2.2548">
        <ele>61.2</ele>
        <time>2021-05-27T10:57:37Z</time>
      </trkpt>
      <trkpt lat="47.69632" lon="-2.25483">
        <ele>61.3</ele>
        <time>2021-05-27T10:57:38Z</time>
      </trkpt>
      <trkpt lat="47.69633" lon="-2.25486">
        <ele>61.4</ele>
        <time>2021-05-27T10:57:39Z</time>
      </trkpt>
      <trkpt lat="47.69633" lon="-2.2549">
        <ele>61.4</ele>
        <time>2021-05-27T10:57:40Z</time>
      </trkpt>
      <trkpt lat="47.69633" lon="-2.25494">
        <ele>61.4</ele>
        <time>2021-05-27T10:57:41Z</time>
      </trkpt>
      <trkpt lat="47.69634" lon="-2.25498">
        <ele>61.4</ele>
        <time>2021-05-27T10:57:42Z</time>
      </trkpt>
      <trkpt lat="47.69634" lon="-2.25502">
        <ele>61.4</ele>
        <time>2021-05-27T10:57:43Z</time>
      </trkpt>
      <trkpt lat="47.69635" lon="-2.25506">
        <ele>61.3</ele>
        <time>2021-05-27T10:57:44Z</time>
      </trkpt>
      <trkpt lat="47.69636" lon="-2.25511">
        <ele>61.2</ele>
        <time>2021-05-27T10:57:45Z</time>
      </trkpt>
      <trkpt lat="47.69636" lon="-2.25516">
        <ele>61.2</ele>
        <time>2021-05-27T10:57:46Z</time>
      </trkpt>
      <trkpt lat="47.69637" lon="-2.2552">
        <ele>61.1</ele>
        <time>2021-05-27T10:57:47Z</time>
      </trkpt>
      <trkpt lat="47.69638" lon="-2.25525">
        <ele>61</ele>
        <time>2021-05-27T10:57:48Z</time>
      </trkpt>
      <trkpt lat="47.69639" lon="-2.2553">
        <ele>61</ele>
        <time>2021-05-27T10:57:49Z</time>
      </trkpt>
      <trkpt lat="47.69642" lon="-2.25535">
        <ele>61.1</ele>
        <time>2021-05-27T10:57:50Z</time>
      </trkpt>
      <trkpt lat="47.69644" lon="-2.25539">
        <ele>61.2</ele>
        <time>2021-05-27T10:57:51Z</time>
      </trkpt>
      <trkpt lat="47.69646" lon="-2.25543">
        <ele>61.3</ele>
        <time>2021-05-27T10:57:52Z</time>
      </trkpt>
      <trkpt lat="47.69648" lon="-2.25547">
        <ele>61.4</ele>
        <time>2021-05-27T10:57:53Z</time>
      </trkpt>
      <trkpt lat="47.6965" lon="-2.25551">
        <ele>61.6</ele>
        <time>2021-05-27T10:57:54Z</time>
      </trkpt>
      <trkpt lat="47.69652" lon="-2.25554">
        <ele>61.8</ele>
        <time>2021-05-27T10:57:55Z</time>
      </trkpt>
      <trkpt lat="47.69654" lon="-2.25558">
        <ele>61.9</ele>
        <time>2021-05-27T10:57:56Z</time>
      </trkpt>
      <trkpt lat="47.69655" lon="-2.25561">
        <ele>61.9</ele>
        <time>2021-05-27T10:57:57Z</time>
      </trkpt>
      <trkpt lat="47.69656" lon="-2.25565">
        <ele>61.9</ele>
        <time>2021-05-27T10:57:58Z</time>
      </trkpt>
      <trkpt lat="47.69655" lon="-2.2557">
        <ele>61.8</ele>
        <time>2021-05-27T10:57:59Z</time>
      </trkpt>
      <trkpt lat="47.69655" lon="-2.25573">
        <ele>61.6</ele>
        <time>2021-05-27T10:58:00Z</time>
      </trkpt>
      <trkpt lat="47.69653" lon="-2.25577">
        <ele>61.3</ele>
        <time>2021-05-27T10:58:01Z</time>
      </trkpt>
      <trkpt lat="47.69652" lon="-2.2558">
        <ele>61</ele>
        <time>2021-05-27T10:58:02Z</time>
      </trkpt>
      <trkpt lat="47.69651" lon="-2.25584">
        <ele>60.7</ele>
        <time>2021-05-27T10:58:03Z</time>
      </trkpt>
      <trkpt lat="47.69651" lon="-2.25587">
        <ele>60.6</ele>
        <time>2021-05-27T10:58:04Z</time>
      </trkpt>
      <trkpt lat="47.69651" lon="-2.25592">
        <ele>60.4</ele>
        <time>2021-05-27T10:58:05Z</time>
      </trkpt>
      <trkpt lat="47.69651" lon="-2.25597">
        <ele>60.3</ele>
        <time>2021-05-27T10:58:06Z</time>
      </trkpt>
      <trkpt lat="47.69653" lon="-2.25602">
        <ele>60.3</ele>
        <time>2021-05-27T10:58:07Z</time>
      </trkpt>
      <trkpt lat="47.69655" lon="-2.25607">
        <ele>60.4</ele>
        <time>2021-05-27T10:58:08Z</time>
      </trkpt>
      <trkpt lat="47.69658" lon="-2.25611">
        <ele>60.6</ele>
        <time>2021-05-27T10:58:09Z</time>
      </trkpt>
      <trkpt lat="47.6966" lon="-2.25614">
        <ele>60.8</ele>
        <time>2021-05-27T10:58:10Z</time>
      </trkpt>
      <trkpt lat="47.69661" lon="-2.25617">
        <ele>60.9</ele>
        <time>2021-05-27T10:58:11Z</time>
      </trkpt>
      <trkpt lat="47.69662" lon="-2.2562">
        <ele>61.1</ele>
        <time>2021-05-27T10:58:12Z</time>
      </trkpt>
      <trkpt lat="47.69664" lon="-2.25623">
        <ele>61.2</ele>
        <time>2021-05-27T10:58:13Z</time>
      </trkpt>
      <trkpt lat="47.69666" lon="-2.25625">
        <ele>61.4</ele>
        <time>2021-05-27T10:58:14Z</time>
      </trkpt>
      <trkpt lat="47.69666" lon="-2.25628">
        <ele>61.3</ele>
        <time>2021-05-27T10:58:15Z</time>
      </trkpt>
      <trkpt lat="47.69666" lon="-2.25631">
        <ele>61.2</ele>
        <time>2021-05-27T10:58:16Z</time>
      </trkpt>
      <trkpt lat="47.69666" lon="-2.25636">
        <ele>61</ele>
        <time>2021-05-27T10:58:17Z</time>
      </trkpt>
      <trkpt lat="47.69665" lon="-2.25641">
        <ele>60.7</ele>
        <time>2021-05-27T10:58:18Z</time>
      </trkpt>
      <trkpt lat="47.69664" lon="-2.25646">
        <ele>60.4</ele>
        <time>2021-05-27T10:58:19Z</time>
      </trkpt>
      <trkpt lat="47.69664" lon="-2.2565">
        <ele>60.3</ele>
        <time>2021-05-27T10:58:20Z</time>
      </trkpt>
      <trkpt lat="47.69665" lon="-2.25655">
        <ele>60.1</ele>
        <time>2021-05-27T10:58:21Z</time>
      </trkpt>
      <trkpt lat="47.69666" lon="-2.25659">
        <ele>60.1</ele>
        <time>2021-05-27T10:58:22Z</time>
      </trkpt>
      <trkpt lat="47.69666" lon="-2.25664">
        <ele>60</ele>
        <time>2021-05-27T10:58:23Z</time>
      </trkpt>
      <trkpt lat="47.69667" lon="-2.25668">
        <ele>60</ele>
        <time>2021-05-27T10:58:24Z</time>
      </trkpt>
      <trkpt lat="47.69667" lon="-2.25673">
        <ele>59.9</ele>
        <time>2021-05-27T10:58:25Z</time>
      </trkpt>
      <trkpt lat="47.69668" lon="-2.25677">
        <ele>60</ele>
        <time>2021-05-27T10:58:26Z</time>
      </trkpt>
      <trkpt lat="47.69671" lon="-2.25682">
        <ele>60.1</ele>
        <time>2021-05-27T10:58:27Z</time>
      </trkpt>
      <trkpt lat="47.69672" lon="-2.25687">
        <ele>60.3</ele>
        <time>2021-05-27T10:58:28Z</time>
      </trkpt>
      <trkpt lat="47.69674" lon="-2.25692">
        <ele>60.4</ele>
        <time>2021-05-27T10:58:29Z</time>
      </trkpt>
      <trkpt lat="47.69675" lon="-2.25696">
        <ele>60.4</ele>
        <time>2021-05-27T10:58:30Z</time>
      </trkpt>
      <trkpt lat="47.69677" lon="-2.25699">
        <ele>60.6</ele>
        <time>2021-05-27T10:58:31Z</time>
      </trkpt>
      <trkpt lat="47.6968" lon="-2.25701">
        <ele>60.9</ele>
        <time>2021-05-27T10:58:32Z</time>
      </trkpt>
      <trkpt lat="47.69682" lon="-2.25702">
        <ele>61.1</ele>
        <time>2021-05-27T10:58:33Z</time>
      </trkpt>
      <trkpt lat="47.69683" lon="-2.25704">
        <ele>61.2</ele>
        <time>2021-05-27T10:58:34Z</time>
      </trkpt>
      <trkpt lat="47.69683" lon="-2.25707">
        <ele>61.2</ele>
        <time>2021-05-27T10:58:35Z</time>
      </trkpt>
      <trkpt lat="47.69683" lon="-2.25711">
        <ele>61</ele>
        <time>2021-05-27T10:58:36Z</time>
      </trkpt>
      <trkpt lat="47.69683" lon="-2.25715">
        <ele>61</ele>
        <time>2021-05-27T10:58:37Z</time>
      </trkpt>
      <trkpt lat="47.69684" lon="-2.25719">
        <ele>61</ele>
        <time>2021-05-27T10:58:38Z</time>
      </trkpt>
      <trkpt lat="47.69685" lon="-2.25724">
        <ele>61</ele>
        <time>2021-05-27T10:58:39Z</time>
      </trkpt>
      <trkpt lat="47.69685" lon="-2.25728">
        <ele>60.9</ele>
        <time>2021-05-27T10:58:40Z</time>
      </trkpt>
      <trkpt lat="47.69686" lon="-2.25732">
        <ele>60.9</ele>
        <time>2021-05-27T10:58:41Z</time>
      </trkpt>
      <trkpt lat="47.69687" lon="-2.25735">
        <ele>61</ele>
        <time>2021-05-27T10:58:42Z</time>
      </trkpt>
      <trkpt lat="47.69687" lon="-2.25738">
        <ele>61</ele>
        <time>2021-05-27T10:58:43Z</time>
      </trkpt>
      <trkpt lat="47.69689" lon="-2.25741">
        <ele>61.2</ele>
        <time>2021-05-27T10:58:44Z</time>
      </trkpt>
      <trkpt lat="47.69691" lon="-2.25744">
        <ele>61.4</ele>
        <time>2021-05-27T10:58:45Z</time>
      </trkpt>
      <trkpt lat="47.69693" lon="-2.25747">
        <ele>61.6</ele>
        <time>2021-05-27T10:58:46Z</time>
      </trkpt>
      <trkpt lat="47.69694" lon="-2.25751">
        <ele>61.6</ele>
        <time>2021-05-27T10:58:47Z</time>
      </trkpt>
      <trkpt lat="47.69696" lon="-2.25756">
        <ele>61.6</ele>
        <time>2021-05-27T10:58:48Z</time>
      </trkpt>
      <trkpt lat="47.69697" lon="-2.2576">
        <ele>61.6</ele>
        <time>2021-05-27T10:58:49Z</time>
      </trkpt>
      <trkpt lat="47.69698" lon="-2.25764">
        <ele>61.6</ele>
        <time>2021-05-27T10:58:50Z</time>
      </trkpt>
      <trkpt lat="47.69699" lon="-2.25767">
        <ele>61.6</ele>
        <time>2021-05-27T10:58:51Z</time>
      </trkpt>
      <trkpt lat="47.69699" lon="-2.2577">
        <ele>61.6</ele>
        <time>2021-05-27T10:58:52Z</time>
      </trkpt>
      <trkpt lat="47.69698" lon="-2.25773">
        <ele>61.4</ele>
        <time>2021-05-27T10:58:53Z</time>
      </trkpt>
      <trkpt lat="47.69697" lon="-2.25775">
        <ele>61</ele>
        <time>2021-05-27T10:58:54Z</time>
      </trkpt>
      <trkpt lat="47.69695" lon="-2.25777">
        <ele>60.7</ele>
        <time>2021-05-27T10:58:55Z</time>
      </trkpt>
      <trkpt lat="47.69694" lon="-2.2578">
        <ele>60.5</ele>
        <time>2021-05-27T10:58:56Z</time>
      </trkpt>
      <trkpt lat="47.69693" lon="-2.25783">
        <ele>60.3</ele>
        <time>2021-05-27T10:58:57Z</time>
      </trkpt>
      <trkpt lat="47.69693" lon="-2.25787">
        <ele>60.2</ele>
        <time>2021-05-27T10:58:58Z</time>
      </trkpt>
      <trkpt lat="47.69694" lon="-2.25791">
        <ele>60.1</ele>
        <time>2021-05-27T10:58:59Z</time>
      </trkpt>
      <trkpt lat="47.69695" lon="-2.25796">
        <ele>60.1</ele>
        <time>2021-05-27T10:59:00Z</time>
      </trkpt>
      <trkpt lat="47.69696" lon="-2.25801">
        <ele>60</ele>
        <time>2021-05-27T10:59:01Z</time>
      </trkpt>
      <trkpt lat="47.69696" lon="-2.25807">
        <ele>59.8</ele>
        <time>2021-05-27T10:59:02Z</time>
      </trkpt>
      <trkpt lat="47.69696" lon="-2.25812">
        <ele>59.7</ele>
        <time>2021-05-27T10:59:03Z</time>
      </trkpt>
      <trkpt lat="47.69696" lon="-2.25818">
        <ele>59.4</ele>
        <time>2021-05-27T10:59:04Z</time>
      </trkpt>
      <trkpt lat="47.69695" lon="-2.25822">
        <ele>59.1</ele>
        <time>2021-05-27T10:59:05Z</time>
      </trkpt>
      <trkpt lat="47.69694" lon="-2.25827">
        <ele>58.8</ele>
        <time>2021-05-27T10:59:06Z</time>
      </trkpt>
      <trkpt lat="47.69692" lon="-2.25832">
        <ele>58.4</ele>
        <time>2021-05-27T10:59:07Z</time>
      </trkpt>
      <trkpt lat="47.69691" lon="-2.25838">
        <ele>58</ele>
        <time>2021-05-27T10:59:08Z</time>
      </trkpt>
      <trkpt lat="47.69692" lon="-2.25844">
        <ele>57.8</ele>
        <time>2021-05-27T10:59:09Z</time>
      </trkpt>
      <trkpt lat="47.69694" lon="-2.25848">
        <ele>57.9</ele>
        <time>2021-05-27T10:59:10Z</time>
      </trkpt>
      <trkpt lat="47.69695" lon="-2.25852">
        <ele>58</ele>
        <time>2021-05-27T10:59:11Z</time>
      </trkpt>
      <trkpt lat="47.69697" lon="-2.25855">
        <ele>58.1</ele>
        <time>2021-05-27T10:59:12Z</time>
      </trkpt>
      <trkpt lat="47.69698" lon="-2.25858">
        <ele>58.2</ele>
        <time>2021-05-27T10:59:13Z</time>
      </trkpt>
      <trkpt lat="47.697" lon="-2.25862">
        <ele>58.2</ele>
        <time>2021-05-27T10:59:14Z</time>
      </trkpt>
      <trkpt lat="47.69702" lon="-2.25865">
        <ele>58.3</ele>
        <time>2021-05-27T10:59:15Z</time>
      </trkpt>
      <trkpt lat="47.69703" lon="-2.2587">
        <ele>58.4</ele>
        <time>2021-05-27T10:59:16Z</time>
      </trkpt>
      <trkpt lat="47.69704" lon="-2.25874">
        <ele>58.4</ele>
        <time>2021-05-27T10:59:17Z</time>
      </trkpt>
      <trkpt lat="47.69705" lon="-2.25879">
        <ele>58.4</ele>
        <time>2021-05-27T10:59:18Z</time>
      </trkpt>
      <trkpt lat="47.69707" lon="-2.25883">
        <ele>58.5</ele>
        <time>2021-05-27T10:59:19Z</time>
      </trkpt>
      <trkpt lat="47.69709" lon="-2.25886">
        <ele>58.7</ele>
        <time>2021-05-27T10:59:20Z</time>
      </trkpt>
      <trkpt lat="47.69712" lon="-2.25889">
        <ele>59.1</ele>
        <time>2021-05-27T10:59:21Z</time>
      </trkpt>
      <trkpt lat="47.69714" lon="-2.25892">
        <ele>59.3</ele>
        <time>2021-05-27T10:59:22Z</time>
      </trkpt>
      <trkpt lat="47.69714" lon="-2.25896">
        <ele>59.3</ele>
        <time>2021-05-27T10:59:23Z</time>
      </trkpt>
      <trkpt lat="47.69715" lon="-2.25901">
        <ele>59.2</ele>
        <time>2021-05-27T10:59:24Z</time>
      </trkpt>
      <trkpt lat="47.69714" lon="-2.25906">
        <ele>58.9</ele>
        <time>2021-05-27T10:59:25Z</time>
      </trkpt>
      <trkpt lat="47.69714" lon="-2.25911">
        <ele>58.6</ele>
        <time>2021-05-27T10:59:26Z</time>
      </trkpt>
      <trkpt lat="47.69713" lon="-2.25916">
        <ele>58.4</ele>
        <time>2021-05-27T10:59:27Z</time>
      </trkpt>
      <trkpt lat="47.69714" lon="-2.25921">
        <ele>58.5</ele>
        <time>2021-05-27T10:59:28Z</time>
      </trkpt>
      <trkpt lat="47.69717" lon="-2.25925">
        <ele>58.6</ele>
        <time>2021-05-27T10:59:29Z</time>
      </trkpt>
      <trkpt lat="47.69719" lon="-2.25928">
        <ele>58.9</ele>
        <time>2021-05-27T10:59:30Z</time>
      </trkpt>
      <trkpt lat="47.69721" lon="-2.25932">
        <ele>59.1</ele>
        <time>2021-05-27T10:59:31Z</time>
      </trkpt>
      <trkpt lat="47.69722" lon="-2.25936">
        <ele>59.2</ele>
        <time>2021-05-27T10:59:32Z</time>
      </trkpt>
      <trkpt lat="47.69723" lon="-2.2594">
        <ele>59.2</ele>
        <time>2021-05-27T10:59:33Z</time>
      </trkpt>
      <trkpt lat="47.69724" lon="-2.25944">
        <ele>59.2</ele>
        <time>2021-05-27T10:59:34Z</time>
      </trkpt>
      <trkpt lat="47.69726" lon="-2.25946">
        <ele>59.4</ele>
        <time>2021-05-27T10:59:35Z</time>
      </trkpt>
      <trkpt lat="47.69727" lon="-2.25948">
        <ele>59.6</ele>
        <time>2021-05-27T10:59:36Z</time>
      </trkpt>
      <trkpt lat="47.69729" lon="-2.25951">
        <ele>59.8</ele>
        <time>2021-05-27T10:59:37Z</time>
      </trkpt>
      <trkpt lat="47.6973" lon="-2.25954">
        <ele>59.9</ele>
        <time>2021-05-27T10:59:38Z</time>
      </trkpt>
      <trkpt lat="47.69731" lon="-2.25956">
        <ele>60</ele>
        <time>2021-05-27T10:59:39Z</time>
      </trkpt>
      <trkpt lat="47.69731" lon="-2.25959">
        <ele>59.9</ele>
        <time>2021-05-27T10:59:40Z</time>
      </trkpt>
      <trkpt lat="47.69731" lon="-2.25961">
        <ele>59.8</ele>
        <time>2021-05-27T10:59:41Z</time>
      </trkpt>
      <trkpt lat="47.69731" lon="-2.25961">
        <ele>59.8</ele>
        <time>2021-05-27T10:59:42Z</time>
      </trkpt>
      <trkpt lat="47.69731" lon="-2.25961">
        <ele>59.8</ele>
        <time>2021-05-27T10:59:43Z</time>
      </trkpt>
      <trkpt lat="47.69731" lon="-2.25961">
        <ele>59.8</ele>
        <time>2021-05-27T10:59:44Z</time>
      </trkpt>
      <trkpt lat="47.69731" lon="-2.25961">
        <ele>59.8</ele>
        <time>2021-05-27T10:59:45Z</time>
      </trkpt>
      <trkpt lat="47.69731" lon="-2.25961">
        <ele>59.8</ele>
        <time>2021-05-27T10:59:46Z</time>
      </trkpt>
      <trkpt lat="47.69731" lon="-2.25961">
        <ele>59.8</ele>
        <time>2021-05-27T10:59:47Z</time>
      </trkpt>
      <trkpt lat="47.69731" lon="-2.25961">
        <ele>59.8</ele>
        <time>2021-05-27T10:59:48Z</time>
      </trkpt>
      <trkpt lat="47.69731" lon="-2.25961">
        <ele>59.8</ele>
        <time>2021-05-27T10:59:49Z</time>
      </trkpt>
      <trkpt lat="47.69731" lon="-2.25961">
        <ele>59.8</ele>
        <time>2021-05-27T10:59:50Z</time>
      </trkpt>
      <trkpt lat="47.69731" lon="-2.25961">
        <ele>59.8</ele>
        <time>2021-05-27T10:59:51Z</time>
      </trkpt>
      <trkpt lat="47.69731" lon="-2.25961">
        <ele>59.8</ele>
        <time>2021-05-27T10:59:52Z</time>
      </trkpt>
      <trkpt lat="47.69731" lon="-2.25961">
        <ele>59.8</ele>
        <time>2021-05-27T10:59:53Z</time>
      </trkpt>
      <trkpt lat="47.69731" lon="-2.25961">
        <ele>59.8</ele>
        <time>2021-05-27T10:59:54Z</time>
      </trkpt>
      <trkpt lat="47.69731" lon="-2.25961">
        <ele>59.8</ele>
        <time>2021-05-27T10:59:55Z</time>
      </trkpt>
      <trkpt lat="47.69731" lon="-2.25961">
        <ele>59.8</ele>
        <time>2021-05-27T10:59:56Z</time>
      </trkpt>
      <trkpt lat="47.69731" lon="-2.25961">
        <ele>59.8</ele>
        <time>2021-05-27T10:59:57Z</time>
      </trkpt>
      <trkpt lat="47.69731" lon="-2.25961">
        <ele>59.8</ele>
        <time>2021-05-27T10:59:58Z</time>
      </trkpt>
      <trkpt lat="47.69731" lon="-2.25961">
        <ele>59.8</ele>
        <time>2021-05-27T10:59:59Z</time>
      </trkpt>
      <trkpt lat="47.69731" lon="-2.25961">
        <ele>59.8</ele>
        <time>2021-05-27T11:00:00Z</time>
      </trkpt>
      <trkpt lat="47.69731" lon="-2.25961">
        <ele>59.8</ele>
        <time>2021-05-27T11:00:01Z</time>
      </trkpt>
      <trkpt lat="47.69731" lon="-2.25961">
        <ele>59.8</ele>
        <time>2021-05-27T11:00:02Z</time>
      </trkpt>
      <trkpt lat="47.69731" lon="-2.25961">
        <ele>59.8</ele>
        <time>2021-05-27T11:00:03Z</time>
      </trkpt>
      <trkpt lat="47.69731" lon="-2.25961">
        <ele>59.8</ele>
        <time>2021-05-27T11:00:04Z</time>
      </trkpt>
      <trkpt lat="47.69731" lon="-2.25961">
        <ele>59.8</ele>
        <time>2021-05-27T11:00:05Z</time>
      </trkpt>
      <trkpt lat="47.69731" lon="-2.25961">
        <ele>59.8</ele>
        <time>2021-05-27T11:00:06Z</time>
      </trkpt>
      <trkpt lat="47.69731" lon="-2.25961">
        <ele>59.8</ele>
        <time>2021-05-27T11:00:07Z</time>
      </trkpt>
      <trkpt lat="47.69731" lon="-2.25961">
        <ele>59.8</ele>
        <time>2021-05-27T11:00:08Z</time>
      </trkpt>
      <trkpt lat="47.69731" lon="-2.25961">
        <ele>59.8</ele>
        <time>2021-05-27T11:00:09Z</time>
      </trkpt>
      <trkpt lat="47.69731" lon="-2.25961">
        <ele>59.8</ele>
        <time>2021-05-27T11:00:10Z</time>
      </trkpt>
      <trkpt lat="47.69731" lon="-2.25961">
        <ele>59.8</ele>
        <time>2021-05-27T11:00:11Z</time>
      </trkpt>
      <trkpt lat="47.69731" lon="-2.25961">
        <ele>59.8</ele>
        <time>2021-05-27T11:00:12Z</time>
      </trkpt>
      <trkpt lat="47.69731" lon="-2.25961">
        <ele>59.8</ele>
        <time>2021-05-27T11:00:13Z</time>
      </trkpt>
      <trkpt lat="47.69731" lon="-2.25961">
        <ele>59.8</ele>
        <time>2021-05-27T11:00:14Z</time>
      </trkpt>
      <trkpt lat="47.69731" lon="-2.25961">
        <ele>59.8</ele>
        <time>2021-05-27T11:00:15Z</time>
      </trkpt>
      <trkpt lat="47.69731" lon="-2.25961">
        <ele>59.8</ele>
        <time>2021-05-27T11:00:16Z</time>
      </trkpt>
      <trkpt lat="47.69731" lon="-2.25961">
        <ele>59.8</ele>
        <time>2021-05-27T11:00:17Z</time>
      </trkpt>
      <trkpt lat="47.69731" lon="-2.25961">
        <ele>59.8</ele>
        <time>2021-05-27T11:00:18Z</time>
      </trkpt>
      <trkpt lat="47.69731" lon="-2.25961">
        <ele>59.8</ele>
        <time>2021-05-27T11:00:19Z</time>
      </trkpt>
      <trkpt lat="47.69731" lon="-2.25961">
        <ele>59.8</ele>
        <time>2021-05-27T11:00:20Z</time>
      </trkpt>
      <trkpt lat="47.69731" lon="-2.25961">
        <ele>59.8</ele>
        <time>2021-05-27T11:00:21Z</time>
      </trkpt>
      <trkpt lat="47.69731" lon="-2.25961">
        <ele>59.8</ele>
        <time>2021-05-27T11:00:22Z</time>
      </trkpt>
      <trkpt lat="47.69731" lon="-2.25961">
        <ele>59.8</ele>
        <time>2021-05-27T11:00:23Z</time>
      </trkpt>
      <trkpt lat="47.69731" lon="-2.25961">
        <ele>59.8</ele>
        <time>2021-05-27T11:00:24Z</time>
      </trkpt>
      <trkpt lat="47.69731" lon="-2.25961">
        <ele>59.8</ele>
        <time>2021-05-27T11:00:25Z</time>
      </trkpt>
      <trkpt lat="47.69731" lon="-2.25961">
        <ele>59.8</ele>
        <time>2021-05-27T11:00:26Z</time>
      </trkpt>
      <trkpt lat="47.69731" lon="-2.25961">
        <ele>59.8</ele>
        <time>2021-05-27T11:00:27Z</time>
      </trkpt>
      <trkpt lat="47.69731" lon="-2.25961">
        <ele>59.8</ele>
        <time>2021-05-27T11:00:28Z</time>
      </trkpt>
      <trkpt lat="47.69731" lon="-2.25961">
        <ele>59.8</ele>
        <time>2021-05-27T11:00:29Z</time>
      </trkpt>
      <trkpt lat="47.69731" lon="-2.25961">
        <ele>59.8</ele>
        <time>2021-05-27T11:00:30Z</time>
      </trkpt>
      <trkpt lat="47.69731" lon="-2.25961">
        <ele>59.8</ele>
        <time>2021-05-27T11:00:31Z</time>
      </trkpt>
      <trkpt lat="47.69731" lon="-2.25961">
        <ele>59.8</ele>
        <time>2021-05-27T11:00:32Z</time>
      </trkpt>
      <trkpt lat="47.69731" lon="-2.25961">
        <ele>59.8</ele>
        <time>2021-05-27T11:00:33Z</time>
      </trkpt>
      <trkpt lat="47.69731" lon="-2.25961">
        <ele>59.8</ele>
        <time>2021-05-27T11:00:34Z</time>
      </trkpt>
      <trkpt lat="47.69731" lon="-2.25961">
        <ele>59.8</ele>
        <time>2021-05-27T11:00:35Z</time>
      </trkpt>
      <trkpt lat="47.69731" lon="-2.25961">
        <ele>59.8</ele>
        <time>2021-05-27T11:00:36Z</time>
      </trkpt>
      <trkpt lat="47.69731" lon="-2.25961">
        <ele>59.8</ele>
        <time>2021-05-27T11:00:37Z</time>
      </trkpt>
      <trkpt lat="47.69731" lon="-2.25961">
        <ele>59.8</ele>
        <time>2021-05-27T11:00:38Z</time>
      </trkpt>
      <trkpt lat="47.69731" lon="-2.25961">
        <ele>59.8</ele>
        <time>2021-05-27T11:00:39Z</time>
      </trkpt>
      <trkpt lat="47.69731" lon="-2.25961">
        <ele>59.8</ele>
        <time>2021-05-27T11:00:40Z</time>
      </trkpt>
      <trkpt lat="47.69731" lon="-2.25961">
        <ele>59.8</ele>
        <time>2021-05-27T11:00:41Z</time>
      </trkpt>
      <trkpt lat="47.69731" lon="-2.25961">
        <ele>59.8</ele>
        <time>2021-05-27T11:00:42Z</time>
      </trkpt>
      <trkpt lat="47.69731" lon="-2.25961">
        <ele>59.8</ele>
        <time>2021-05-27T11:00:43Z</time>
      </trkpt>
      <trkpt lat="47.69731" lon="-2.25961">
        <ele>59.8</ele>
        <time>2021-05-27T11:00:44Z</time>
      </trkpt>
      <trkpt lat="47.69731" lon="-2.25961">
        <ele>59.8</ele>
        <time>2021-05-27T11:00:45Z</time>
      </trkpt>
      <trkpt lat="47.69731" lon="-2.25961">
        <ele>59.8</ele>
        <time>2021-05-27T11:00:46Z</time>
      </trkpt>
      <trkpt lat="47.69731" lon="-2.25961">
        <ele>59.8</ele>
        <time>2021-05-27T11:00:47Z</time>
      </trkpt>
      <trkpt lat="47.69731" lon="-2.25961">
        <ele>59.8</ele>
        <time>2021-05-27T11:00:48Z</time>
      </trkpt>
      <trkpt lat="47.69731" lon="-2.25961">
        <ele>59.8</ele>
        <time>2021-05-27T11:00:49Z</time>
      </trkpt>
      <trkpt lat="47.69731" lon="-2.25961">
        <ele>59.8</ele>
        <time>2021-05-27T11:00:50Z</time>
      </trkpt>
      <trkpt lat="47.69731" lon="-2.25961">
        <ele>59.8</ele>
        <time>2021-05-27T11:00:51Z</time>
      </trkpt>
      <trkpt lat="47.69731" lon="-2.25961">
        <ele>59.8</ele>
        <time>2021-05-27T11:00:52Z</time>
      </trkpt>
      <trkpt lat="47.69731" lon="-2.25961">
        <ele>59.8</ele>
        <time>2021-05-27T11:00:53Z</time>
      </trkpt>
      <trkpt lat="47.69731" lon="-2.25961">
        <ele>59.8</ele>
        <time>2021-05-27T11:00:54Z</time>
      </trkpt>
      <trkpt lat="47.69731" lon="-2.25961">
        <ele>59.8</ele>
        <time>2021-05-27T11:00:55Z</time>
      </trkpt>
      <trkpt lat="47.69731" lon="-2.25961">
        <ele>59.8</ele>
        <time>2021-05-27T11:00:56Z</time>
      </trkpt>
      <trkpt lat="47.69731" lon="-2.25961">
        <ele>59.8</ele>
        <time>2021-05-27T11:00:57Z</time>
      </trkpt>
      <trkpt lat="47.69729" lon="-2.25967">
        <ele>59.3</ele>
        <time>2021-05-27T11:00:58Z</time>
      </trkpt>
      <trkpt lat="47.6973" lon="-2.25969">
        <ele>59.4</ele>
        <time>2021-05-27T11:00:59Z</time>
      </trkpt>
      <trkpt lat="47.69731" lon="-2.25972">
        <ele>59.4</ele>
        <time>2021-05-27T11:01:00Z</time>
      </trkpt>
      <trkpt lat="47.69732" lon="-2.25975">
        <ele>59.6</ele>
        <time>2021-05-27T11:01:01Z</time>
      </trkpt>
      <trkpt lat="47.69734" lon="-2.25978">
        <ele>59.7</ele>
        <time>2021-05-27T11:01:02Z</time>
      </trkpt>
      <trkpt lat="47.69735" lon="-2.25982">
        <ele>59.8</ele>
        <time>2021-05-27T11:01:03Z</time>
      </trkpt>
      <trkpt lat="47.69735" lon="-2.25986">
        <ele>59.7</ele>
        <time>2021-05-27T11:01:04Z</time>
      </trkpt>
      <trkpt lat="47.69736" lon="-2.25991">
        <ele>59.6</ele>
        <time>2021-05-27T11:01:05Z</time>
      </trkpt>
      <trkpt lat="47.69736" lon="-2.25995">
        <ele>59.5</ele>
        <time>2021-05-27T11:01:06Z</time>
      </trkpt>
      <trkpt lat="47.69736" lon="-2.26">
        <ele>59.3</ele>
        <time>2021-05-27T11:01:07Z</time>
      </trkpt>
      <trkpt lat="47.69736" lon="-2.26004">
        <ele>59.1</ele>
        <time>2021-05-27T11:01:08Z</time>
      </trkpt>
      <trkpt lat="47.69736" lon="-2.26009">
        <ele>58.9</ele>
        <time>2021-05-27T11:01:09Z</time>
      </trkpt>
      <trkpt lat="47.69737" lon="-2.26013">
        <ele>58.9</ele>
        <time>2021-05-27T11:01:10Z</time>
      </trkpt>
      <trkpt lat="47.69739" lon="-2.26017">
        <ele>59</ele>
        <time>2021-05-27T11:01:11Z</time>
      </trkpt>
      <trkpt lat="47.69741" lon="-2.26021">
        <ele>59.4</ele>
        <time>2021-05-27T11:01:12Z</time>
      </trkpt>
      <trkpt lat="47.69744" lon="-2.26025">
        <ele>59.8</ele>
        <time>2021-05-27T11:01:13Z</time>
      </trkpt>
      <trkpt lat="47.69747" lon="-2.26028">
        <ele>60.1</ele>
        <time>2021-05-27T11:01:14Z</time>
      </trkpt>
      <trkpt lat="47.6975" lon="-2.26031">
        <ele>60.5</ele>
        <time>2021-05-27T11:01:15Z</time>
      </trkpt>
      <trkpt lat="47.69753" lon="-2.26033">
        <ele>60.6</ele>
        <time>2021-05-27T11:01:16Z</time>
      </trkpt>
      <trkpt lat="47.69756" lon="-2.26036">
        <ele>60.7</ele>
        <time>2021-05-27T11:01:17Z</time>
      </trkpt>
      <trkpt lat="47.69757" lon="-2.2604">
        <ele>60.7</ele>
        <time>2021-05-27T11:01:18Z</time>
      </trkpt>
      <trkpt lat="47.69759" lon="-2.26043">
        <ele>60.7</ele>
        <time>2021-05-27T11:01:19Z</time>
      </trkpt>
      <trkpt lat="47.69762" lon="-2.26046">
        <ele>60.8</ele>
        <time>2021-05-27T11:01:20Z</time>
      </trkpt>
      <trkpt lat="47.69765" lon="-2.26047">
        <ele>60.9</ele>
        <time>2021-05-27T11:01:21Z</time>
      </trkpt>
      <trkpt lat="47.69767" lon="-2.2605">
        <ele>61</ele>
        <time>2021-05-27T11:01:22Z</time>
      </trkpt>
      <trkpt lat="47.69769" lon="-2.26053">
        <ele>61.1</ele>
        <time>2021-05-27T11:01:23Z</time>
      </trkpt>
      <trkpt lat="47.69771" lon="-2.26057">
        <ele>61.1</ele>
        <time>2021-05-27T11:01:24Z</time>
      </trkpt>
      <trkpt lat="47.69773" lon="-2.2606">
        <ele>61.1</ele>
        <time>2021-05-27T11:01:25Z</time>
      </trkpt>
      <trkpt lat="47.69775" lon="-2.26064">
        <ele>61.1</ele>
        <time>2021-05-27T11:01:26Z</time>
      </trkpt>
      <trkpt lat="47.69776" lon="-2.26067">
        <ele>61.1</ele>
        <time>2021-05-27T11:01:27Z</time>
      </trkpt>
      <trkpt lat="47.69776" lon="-2.26071">
        <ele>61</ele>
        <time>2021-05-27T11:01:28Z</time>
      </trkpt>
      <trkpt lat="47.69776" lon="-2.26075">
        <ele>60.8</ele>
        <time>2021-05-27T11:01:29Z</time>
      </trkpt>
      <trkpt lat="47.69776" lon="-2.2608">
        <ele>60.6</ele>
        <time>2021-05-27T11:01:30Z</time>
      </trkpt>
      <trkpt lat="47.69775" lon="-2.26084">
        <ele>60.3</ele>
        <time>2021-05-27T11:01:31Z</time>
      </trkpt>
      <trkpt lat="47.69774" lon="-2.26088">
        <ele>60.1</ele>
        <time>2021-05-27T11:01:32Z</time>
      </trkpt>
      <trkpt lat="47.69775" lon="-2.26092">
        <ele>60</ele>
        <time>2021-05-27T11:01:33Z</time>
      </trkpt>
      <trkpt lat="47.69776" lon="-2.26096">
        <ele>59.9</ele>
        <time>2021-05-27T11:01:34Z</time>
      </trkpt>
      <trkpt lat="47.69776" lon="-2.261">
        <ele>59.8</ele>
        <time>2021-05-27T11:01:35Z</time>
      </trkpt>
      <trkpt lat="47.69775" lon="-2.26105">
        <ele>59.5</ele>
        <time>2021-05-27T11:01:36Z</time>
      </trkpt>
      <trkpt lat="47.69773" lon="-2.2611">
        <ele>59.1</ele>
        <time>2021-05-27T11:01:37Z</time>
      </trkpt>
      <trkpt lat="47.69772" lon="-2.26115">
        <ele>58.8</ele>
        <time>2021-05-27T11:01:38Z</time>
      </trkpt>
      <trkpt lat="47.69772" lon="-2.26119">
        <ele>58.7</ele>
        <time>2021-05-27T11:01:39Z</time>
      </trkpt>
      <trkpt lat="47.69772" lon="-2.26123">
        <ele>58.4</ele>
        <time>2021-05-27T11:01:40Z</time>
      </trkpt>
      <trkpt lat="47.69771" lon="-2.26127">
        <ele>58.2</ele>
        <time>2021-05-27T11:01:41Z</time>
      </trkpt>
      <trkpt lat="47.6977" lon="-2.26132">
        <ele>57.9</ele>
        <time>2021-05-27T11:01:42Z</time>
      </trkpt>
      <trkpt lat="47.69769" lon="-2.26136">
        <ele>57.6</ele>
        <time>2021-05-27T11:01:43Z</time>
      </trkpt>
      <trkpt lat="47.69769" lon="-2.26141">
        <ele>57.3</ele>
        <time>2021-05-27T11:01:44Z</time>
      </trkpt>
      <trkpt lat="47.69768" lon="-2.26146">
        <ele>57.1</ele>
        <time>2021-05-27T11:01:45Z</time>
      </trkpt>
      <trkpt lat="47.69768" lon="-2.2615">
        <ele>56.9</ele>
        <time>2021-05-27T11:01:46Z</time>
      </trkpt>
      <trkpt lat="47.69768" lon="-2.26152">
        <ele>56.8</ele>
        <time>2021-05-27T11:01:47Z</time>
      </trkpt>
      <trkpt lat="47.69768" lon="-2.26152">
        <ele>56.8</ele>
        <time>2021-05-27T11:01:48Z</time>
      </trkpt>
      <trkpt lat="47.69768" lon="-2.26152">
        <ele>56.8</ele>
        <time>2021-05-27T11:01:49Z</time>
      </trkpt>
      <trkpt lat="47.69768" lon="-2.26152">
        <ele>56.8</ele>
        <time>2021-05-27T11:01:50Z</time>
      </trkpt>
      <trkpt lat="47.69768" lon="-2.26152">
        <ele>56.8</ele>
        <time>2021-05-27T11:01:51Z</time>
      </trkpt>
      <trkpt lat="47.69768" lon="-2.26152">
        <ele>56.8</ele>
        <time>2021-05-27T11:01:52Z</time>
      </trkpt>
      <trkpt lat="47.69768" lon="-2.26152">
        <ele>56.8</ele>
        <time>2021-05-27T11:01:53Z</time>
      </trkpt>
      <trkpt lat="47.69767" lon="-2.26155">
        <ele>56.6</ele>
        <time>2021-05-27T11:01:54Z</time>
      </trkpt>
      <trkpt lat="47.69767" lon="-2.26158">
        <ele>56.4</ele>
        <time>2021-05-27T11:01:55Z</time>
      </trkpt>
      <trkpt lat="47.69766" lon="-2.26163">
        <ele>56.1</ele>
        <time>2021-05-27T11:01:56Z</time>
      </trkpt>
      <trkpt lat="47.69766" lon="-2.26168">
        <ele>55.9</ele>
        <time>2021-05-27T11:01:57Z</time>
      </trkpt>
      <trkpt lat="47.69766" lon="-2.26172">
        <ele>55.7</ele>
        <time>2021-05-27T11:01:58Z</time>
      </trkpt>
      <trkpt lat="47.69766" lon="-2.26176">
        <ele>55.4</ele>
        <time>2021-05-27T11:01:59Z</time>
      </trkpt>
      <trkpt lat="47.69765" lon="-2.2618">
        <ele>55.1</ele>
        <time>2021-05-27T11:02:00Z</time>
      </trkpt>
      <trkpt lat="47.69765" lon="-2.26183">
        <ele>54.9</ele>
        <time>2021-05-27T11:02:01Z</time>
      </trkpt>
      <trkpt lat="47.69764" lon="-2.26185">
        <ele>54.8</ele>
        <time>2021-05-27T11:02:02Z</time>
      </trkpt>
      <trkpt lat="47.69764" lon="-2.26187">
        <ele>54.7</ele>
        <time>2021-05-27T11:02:03Z</time>
      </trkpt>
      <trkpt lat="47.69765" lon="-2.26189">
        <ele>54.6</ele>
        <time>2021-05-27T11:02:04Z</time>
      </trkpt>
      <trkpt lat="47.69765" lon="-2.2619">
        <ele>54.6</ele>
        <time>2021-05-27T11:02:05Z</time>
      </trkpt>
      <trkpt lat="47.69765" lon="-2.26192">
        <ele>54.5</ele>
        <time>2021-05-27T11:02:06Z</time>
      </trkpt>
      <trkpt lat="47.69765" lon="-2.26193">
        <ele>54.4</ele>
        <time>2021-05-27T11:02:07Z</time>
      </trkpt>
      <trkpt lat="47.69764" lon="-2.26194">
        <ele>54.3</ele>
        <time>2021-05-27T11:02:08Z</time>
      </trkpt>
      <trkpt lat="47.69764" lon="-2.26196">
        <ele>54.2</ele>
        <time>2021-05-27T11:02:09Z</time>
      </trkpt>
      <trkpt lat="47.69764" lon="-2.26197">
        <ele>54.2</ele>
        <time>2021-05-27T11:02:10Z</time>
      </trkpt>
      <trkpt lat="47.69764" lon="-2.26198">
        <ele>54.1</ele>
        <time>2021-05-27T11:02:11Z</time>
      </trkpt>
      <trkpt lat="47.69763" lon="-2.26201">
        <ele>53.9</ele>
        <time>2021-05-27T11:02:12Z</time>
      </trkpt>
      <trkpt lat="47.69762" lon="-2.26202">
        <ele>53.7</ele>
        <time>2021-05-27T11:02:13Z</time>
      </trkpt>
      <trkpt lat="47.69761" lon="-2.26203">
        <ele>53.6</ele>
        <time>2021-05-27T11:02:14Z</time>
      </trkpt>
      <trkpt lat="47.6976" lon="-2.26204">
        <ele>53.5</ele>
        <time>2021-05-27T11:02:15Z</time>
      </trkpt>
      <trkpt lat="47.6976" lon="-2.26205">
        <ele>53.5</ele>
        <time>2021-05-27T11:02:16Z</time>
      </trkpt>
      <trkpt lat="47.6976" lon="-2.26205">
        <ele>53.5</ele>
        <time>2021-05-27T11:02:17Z</time>
      </trkpt>
      <trkpt lat="47.6976" lon="-2.26205">
        <ele>53.5</ele>
        <time>2021-05-27T11:02:18Z</time>
      </trkpt>
      <trkpt lat="47.6976" lon="-2.26205">
        <ele>53.5</ele>
        <time>2021-05-27T11:02:19Z</time>
      </trkpt>
      <trkpt lat="47.69756" lon="-2.26202">
        <ele>53.2</ele>
        <time>2021-05-27T11:02:20Z</time>
      </trkpt>
      <trkpt lat="47.69754" lon="-2.262">
        <ele>53.1</ele>
        <time>2021-05-27T11:02:21Z</time>
      </trkpt>
      <trkpt lat="47.69752" lon="-2.262">
        <ele>53</ele>
        <time>2021-05-27T11:02:22Z</time>
      </trkpt>
      <trkpt lat="47.69751" lon="-2.26199">
        <ele>52.9</ele>
        <time>2021-05-27T11:02:23Z</time>
      </trkpt>
      <trkpt lat="47.69749" lon="-2.26198">
        <ele>52.8</ele>
        <time>2021-05-27T11:02:24Z</time>
      </trkpt>
      <trkpt lat="47.69749" lon="-2.26198">
        <ele>52.8</ele>
        <time>2021-05-27T11:02:25Z</time>
      </trkpt>
      <trkpt lat="47.69749" lon="-2.26198">
        <ele>52.8</ele>
        <time>2021-05-27T11:02:26Z</time>
      </trkpt>
      <trkpt lat="47.69749" lon="-2.26197">
        <ele>52.8</ele>
        <time>2021-05-27T11:02:27Z</time>
      </trkpt>
      <trkpt lat="47.69749" lon="-2.26197">
        <ele>52.8</ele>
        <time>2021-05-27T11:02:28Z</time>
      </trkpt>
      <trkpt lat="47.69749" lon="-2.26197">
        <ele>52.8</ele>
        <time>2021-05-27T11:02:29Z</time>
      </trkpt>
      <trkpt lat="47.69749" lon="-2.26197">
        <ele>52.8</ele>
        <time>2021-05-27T11:02:30Z</time>
      </trkpt>
      <trkpt lat="47.69749" lon="-2.26197">
        <ele>52.8</ele>
        <time>2021-05-27T11:02:31Z</time>
      </trkpt>
      <trkpt lat="47.69749" lon="-2.26197">
        <ele>52.8</ele>
        <time>2021-05-27T11:02:32Z</time>
      </trkpt>
      <trkpt lat="47.69749" lon="-2.26197">
        <ele>52.8</ele>
        <time>2021-05-27T11:02:33Z</time>
      </trkpt>
      <trkpt lat="47.69749" lon="-2.26197">
        <ele>52.8</ele>
        <time>2021-05-27T11:02:34Z</time>
      </trkpt>
      <trkpt lat="47.69749" lon="-2.26197">
        <ele>52.8</ele>
        <time>2021-05-27T11:02:35Z</time>
      </trkpt>
      <trkpt lat="47.69749" lon="-2.26197">
        <ele>52.8</ele>
        <time>2021-05-27T11:02:36Z</time>
      </trkpt>
      <trkpt lat="47.69749" lon="-2.26197">
        <ele>52.8</ele>
        <time>2021-05-27T11:02:37Z</time>
      </trkpt>
      <trkpt lat="47.69749" lon="-2.26197">
        <ele>52.8</ele>
        <time>2021-05-27T11:02:38Z</time>
      </trkpt>
      <trkpt lat="47.69749" lon="-2.26197">
        <ele>52.8</ele>
        <time>2021-05-27T11:02:39Z</time>
      </trkpt>
      <trkpt lat="47.69749" lon="-2.26197">
        <ele>52.8</ele>
        <time>2021-05-27T11:02:40Z</time>
      </trkpt>
      <trkpt lat="47.69749" lon="-2.26197">
        <ele>52.8</ele>
        <time>2021-05-27T11:02:41Z</time>
      </trkpt>
      <trkpt lat="47.69749" lon="-2.26197">
        <ele>52.8</ele>
        <time>2021-05-27T11:02:42Z</time>
      </trkpt>
      <trkpt lat="47.69749" lon="-2.26197">
        <ele>52.8</ele>
        <time>2021-05-27T11:02:43Z</time>
      </trkpt>
      <trkpt lat="47.69749" lon="-2.26197">
        <ele>52.8</ele>
        <time>2021-05-27T11:02:44Z</time>
      </trkpt>
      <trkpt lat="47.69749" lon="-2.26197">
        <ele>52.8</ele>
        <time>2021-05-27T11:02:45Z</time>
      </trkpt>
      <trkpt lat="47.69749" lon="-2.26197">
        <ele>52.8</ele>
        <time>2021-05-27T11:02:46Z</time>
      </trkpt>
      <trkpt lat="47.69749" lon="-2.26197">
        <ele>52.8</ele>
        <time>2021-05-27T11:02:47Z</time>
      </trkpt>
      <trkpt lat="47.69741" lon="-2.26205">
        <ele>51.8</ele>
        <time>2021-05-27T11:02:48Z</time>
      </trkpt>
      <trkpt lat="47.6974" lon="-2.26206">
        <ele>51.7</ele>
        <time>2021-05-27T11:02:49Z</time>
      </trkpt>
      <trkpt lat="47.69738" lon="-2.26207">
        <ele>51.4</ele>
        <time>2021-05-27T11:02:50Z</time>
      </trkpt>
      <trkpt lat="47.69737" lon="-2.26209">
        <ele>51.3</ele>
        <time>2021-05-27T11:02:51Z</time>
      </trkpt>
      <trkpt lat="47.69736" lon="-2.26211">
        <ele>51.2</ele>
        <time>2021-05-27T11:02:52Z</time>
      </trkpt>
      <trkpt lat="47.69736" lon="-2.26214">
        <ele>51.1</ele>
        <time>2021-05-27T11:02:53Z</time>
      </trkpt>
      <trkpt lat="47.69737" lon="-2.26219">
        <ele>51</ele>
        <time>2021-05-27T11:02:54Z</time>
      </trkpt>
      <trkpt lat="47.69739" lon="-2.26223">
        <ele>51</ele>
        <time>2021-05-27T11:02:55Z</time>
      </trkpt>
      <trkpt lat="47.6974" lon="-2.26229">
        <ele>51</ele>
        <time>2021-05-27T11:02:56Z</time>
      </trkpt>
      <trkpt lat="47.69741" lon="-2.26233">
        <ele>50.9</ele>
        <time>2021-05-27T11:02:57Z</time>
      </trkpt>
      <trkpt lat="47.69741" lon="-2.26236">
        <ele>50.8</ele>
        <time>2021-05-27T11:02:58Z</time>
      </trkpt>
      <trkpt lat="47.6974" lon="-2.26239">
        <ele>50.7</ele>
        <time>2021-05-27T11:02:59Z</time>
      </trkpt>
      <trkpt lat="47.6974" lon="-2.26241">
        <ele>50.5</ele>
        <time>2021-05-27T11:03:00Z</time>
      </trkpt>
      <trkpt lat="47.69739" lon="-2.26244">
        <ele>50.4</ele>
        <time>2021-05-27T11:03:01Z</time>
      </trkpt>
      <trkpt lat="47.69739" lon="-2.26245">
        <ele>50.3</ele>
        <time>2021-05-27T11:03:02Z</time>
      </trkpt>
      <trkpt lat="47.69737" lon="-2.26247">
        <ele>50.2</ele>
        <time>2021-05-27T11:03:03Z</time>
      </trkpt>
      <trkpt lat="47.69736" lon="-2.26247">
        <ele>50.1</ele>
        <time>2021-05-27T11:03:04Z</time>
      </trkpt>
      <trkpt lat="47.69735" lon="-2.26248">
        <ele>50</ele>
        <time>2021-05-27T11:03:05Z</time>
      </trkpt>
      <trkpt lat="47.69733" lon="-2.26249">
        <ele>49.8</ele>
        <time>2021-05-27T11:03:06Z</time>
      </trkpt>
      <trkpt lat="47.69731" lon="-2.2625">
        <ele>49.6</ele>
        <time>2021-05-27T11:03:07Z</time>
      </trkpt>
      <trkpt lat="47.6973" lon="-2.26253">
        <ele>49.3</ele>
        <time>2021-05-27T11:03:08Z</time>
      </trkpt>
      <trkpt lat="47.69728" lon="-2.26256">
        <ele>48.9</ele>
        <time>2021-05-27T11:03:09Z</time>
      </trkpt>
      <trkpt lat="47.69727" lon="-2.2626">
        <ele>48.6</ele>
        <time>2021-05-27T11:03:10Z</time>
      </trkpt>
      <trkpt lat="47.69725" lon="-2.26261">
        <ele>48.4</ele>
        <time>2021-05-27T11:03:11Z</time>
      </trkpt>
      <trkpt lat="47.69723" lon="-2.26262">
        <ele>48.2</ele>
        <time>2021-05-27T11:03:12Z</time>
      </trkpt>
      <trkpt lat="47.69721" lon="-2.26262">
        <ele>48.1</ele>
        <time>2021-05-27T11:03:13Z</time>
      </trkpt>
      <trkpt lat="47.69719" lon="-2.2626">
        <ele>48.1</ele>
        <time>2021-05-27T11:03:14Z</time>
      </trkpt>
      <trkpt lat="47.69716" lon="-2.26257">
        <ele>48.1</ele>
        <time>2021-05-27T11:03:15Z</time>
      </trkpt>
      <trkpt lat="47.69715" lon="-2.26255">
        <ele>48.2</ele>
        <time>2021-05-27T11:03:16Z</time>
      </trkpt>
      <trkpt lat="47.69714" lon="-2.26253">
        <ele>48.2</ele>
        <time>2021-05-27T11:03:17Z</time>
      </trkpt>
      <trkpt lat="47.69713" lon="-2.26252">
        <ele>48.2</ele>
        <time>2021-05-27T11:03:18Z</time>
      </trkpt>
      <trkpt lat="47.69711" lon="-2.26251">
        <ele>48.1</ele>
        <time>2021-05-27T11:03:19Z</time>
      </trkpt>
      <trkpt lat="47.69708" lon="-2.26249">
        <ele>48</ele>
        <time>2021-05-27T11:03:20Z</time>
      </trkpt>
      <trkpt lat="47.69707" lon="-2.26247">
        <ele>47.9</ele>
        <time>2021-05-27T11:03:21Z</time>
      </trkpt>
      <trkpt lat="47.69705" lon="-2.26246">
        <ele>47.8</ele>
        <time>2021-05-27T11:03:22Z</time>
      </trkpt>
      <trkpt lat="47.69703" lon="-2.26246">
        <ele>47.7</ele>
        <time>2021-05-27T11:03:23Z</time>
      </trkpt>
      <trkpt lat="47.69701" lon="-2.26247">
        <ele>47.5</ele>
        <time>2021-05-27T11:03:24Z</time>
      </trkpt>
      <trkpt lat="47.69699" lon="-2.2625">
        <ele>47.4</ele>
        <time>2021-05-27T11:03:25Z</time>
      </trkpt>
      <trkpt lat="47.69698" lon="-2.26252">
        <ele>47.1</ele>
        <time>2021-05-27T11:03:26Z</time>
      </trkpt>
      <trkpt lat="47.69697" lon="-2.26253">
        <ele>47.1</ele>
        <time>2021-05-27T11:03:27Z</time>
      </trkpt>
      <trkpt lat="47.69697" lon="-2.26253">
        <ele>47.1</ele>
        <time>2021-05-27T11:03:28Z</time>
      </trkpt>
      <trkpt lat="47.69697" lon="-2.26253">
        <ele>47.1</ele>
        <time>2021-05-27T11:03:29Z</time>
      </trkpt>
      <trkpt lat="47.69697" lon="-2.26253">
        <ele>47.1</ele>
        <time>2021-05-27T11:03:30Z</time>
      </trkpt>
      <trkpt lat="47.69697" lon="-2.26253">
        <ele>47.1</ele>
        <time>2021-05-27T11:03:31Z</time>
      </trkpt>
      <trkpt lat="47.69697" lon="-2.26253">
        <ele>47.1</ele>
        <time>2021-05-27T11:03:32Z</time>
      </trkpt>
      <trkpt lat="47.69697" lon="-2.26253">
        <ele>47.1</ele>
        <time>2021-05-27T11:03:33Z</time>
      </trkpt>
      <trkpt lat="47.69697" lon="-2.26253">
        <ele>47.1</ele>
        <time>2021-05-27T11:03:34Z</time>
      </trkpt>
      <trkpt lat="47.69697" lon="-2.26253">
        <ele>47.1</ele>
        <time>2021-05-27T11:03:35Z</time>
      </trkpt>
      <trkpt lat="47.69697" lon="-2.26253">
        <ele>47.1</ele>
        <time>2021-05-27T11:03:36Z</time>
      </trkpt>
      <trkpt lat="47.69697" lon="-2.26253">
        <ele>47.1</ele>
        <time>2021-05-27T11:03:37Z</time>
      </trkpt>
      <trkpt lat="47.69697" lon="-2.26253">
        <ele>47.1</ele>
        <time>2021-05-27T11:03:38Z</time>
      </trkpt>
      <trkpt lat="47.69697" lon="-2.26253">
        <ele>47.1</ele>
        <time>2021-05-27T11:03:39Z</time>
      </trkpt>
      <trkpt lat="47.69697" lon="-2.26253">
        <ele>47.1</ele>
        <time>2021-05-27T11:03:40Z</time>
      </trkpt>
      <trkpt lat="47.69697" lon="-2.26253">
        <ele>47.1</ele>
        <time>2021-05-27T11:03:41Z</time>
      </trkpt>
      <trkpt lat="47.69697" lon="-2.26253">
        <ele>47.1</ele>
        <time>2021-05-27T11:03:42Z</time>
      </trkpt>
      <trkpt lat="47.69697" lon="-2.26253">
        <ele>47.1</ele>
        <time>2021-05-27T11:03:43Z</time>
      </trkpt>
      <trkpt lat="47.69697" lon="-2.26253">
        <ele>47.1</ele>
        <time>2021-05-27T11:03:44Z</time>
      </trkpt>
      <trkpt lat="47.69697" lon="-2.26253">
        <ele>47.1</ele>
        <time>2021-05-27T11:03:45Z</time>
      </trkpt>
      <trkpt lat="47.69697" lon="-2.26253">
        <ele>47.1</ele>
        <time>2021-05-27T11:03:46Z</time>
      </trkpt>
      <trkpt lat="47.69697" lon="-2.26253">
        <ele>47.1</ele>
        <time>2021-05-27T11:03:47Z</time>
      </trkpt>
      <trkpt lat="47.69697" lon="-2.26253">
        <ele>47.1</ele>
        <time>2021-05-27T11:03:48Z</time>
      </trkpt>
      <trkpt lat="47.69697" lon="-2.26253">
        <ele>47.1</ele>
        <time>2021-05-27T11:03:49Z</time>
      </trkpt>
      <trkpt lat="47.69697" lon="-2.26253">
        <ele>47.1</ele>
        <time>2021-05-27T11:03:50Z</time>
      </trkpt>
      <trkpt lat="47.69697" lon="-2.26253">
        <ele>47.1</ele>
        <time>2021-05-27T11:03:51Z</time>
      </trkpt>
      <trkpt lat="47.69697" lon="-2.26253">
        <ele>47.1</ele>
        <time>2021-05-27T11:03:52Z</time>
      </trkpt>
      <trkpt lat="47.69697" lon="-2.26253">
        <ele>47.1</ele>
        <time>2021-05-27T11:03:53Z</time>
      </trkpt>
      <trkpt lat="47.69697" lon="-2.26253">
        <ele>47.1</ele>
        <time>2021-05-27T11:03:54Z</time>
      </trkpt>
      <trkpt lat="47.69697" lon="-2.26253">
        <ele>47.1</ele>
        <time>2021-05-27T11:03:55Z</time>
      </trkpt>
      <trkpt lat="47.69697" lon="-2.26253">
        <ele>47.1</ele>
        <time>2021-05-27T11:03:56Z</time>
      </trkpt>
      <trkpt lat="47.69697" lon="-2.26253">
        <ele>47.1</ele>
        <time>2021-05-27T11:03:57Z</time>
      </trkpt>
      <trkpt lat="47.69697" lon="-2.26253">
        <ele>47.1</ele>
        <time>2021-05-27T11:03:58Z</time>
      </trkpt>
      <trkpt lat="47.69697" lon="-2.26253">
        <ele>47.1</ele>
        <time>2021-05-27T11:03:59Z</time>
      </trkpt>
      <trkpt lat="47.69697" lon="-2.26253">
        <ele>47.1</ele>
        <time>2021-05-27T11:04:00Z</time>
      </trkpt>
      <trkpt lat="47.69697" lon="-2.26253">
        <ele>47.1</ele>
        <time>2021-05-27T11:04:01Z</time>
      </trkpt>
      <trkpt lat="47.69697" lon="-2.26253">
        <ele>47.1</ele>
        <time>2021-05-27T11:04:02Z</time>
      </trkpt>
      <trkpt lat="47.69695" lon="-2.26261">
        <ele>46.5</ele>
        <time>2021-05-27T11:04:03Z</time>
      </trkpt>
      <trkpt lat="47.69695" lon="-2.26264">
        <ele>46.4</ele>
        <time>2021-05-27T11:04:04Z</time>
      </trkpt>
      <trkpt lat="47.69695" lon="-2.26268">
        <ele>46.2</ele>
        <time>2021-05-27T11:04:05Z</time>
      </trkpt>
      <trkpt lat="47.69695" lon="-2.26272">
        <ele>46</ele>
        <time>2021-05-27T11:04:06Z</time>
      </trkpt>
      <trkpt lat="47.69696" lon="-2.26276">
        <ele>45.8</ele>
        <time>2021-05-27T11:04:07Z</time>
      </trkpt>
      <trkpt lat="47.69697" lon="-2.26281">
        <ele>45.7</ele>
        <time>2021-05-27T11:04:08Z</time>
      </trkpt>
      <trkpt lat="47.69698" lon="-2.26286">
        <ele>45.4</ele>
        <time>2021-05-27T11:04:09Z</time>
      </trkpt>
      <trkpt lat="47.697" lon="-2.26291">
        <ele>45.2</ele>
        <time>2021-05-27T11:04:10Z</time>
      </trkpt>
      <trkpt lat="47.69701" lon="-2.26297">
        <ele>44.9</ele>
        <time>2021-05-27T11:04:11Z</time>
      </trkpt>
      <trkpt lat="47.69703" lon="-2.26303">
        <ele>44.7</ele>
        <time>2021-05-27T11:04:12Z</time>
      </trkpt>
      <trkpt lat="47.69704" lon="-2.2631">
        <ele>44.3</ele>
        <time>2021-05-27T11:04:13Z</time>
      </trkpt>
      <trkpt lat="47.69705" lon="-2.26316">
        <ele>44</ele>
        <time>2021-05-27T11:04:14Z</time>
      </trkpt>
      <trkpt lat="47.69705" lon="-2.26322">
        <ele>43.6</ele>
        <time>2021-05-27T11:04:15Z</time>
      </trkpt>
      <trkpt lat="47.69707" lon="-2.26329">
        <ele>43.3</ele>
        <time>2021-05-27T11:04:16Z</time>
      </trkpt>
      <trkpt lat="47.69709" lon="-2.26336">
        <ele>42.7</ele>
        <time>2021-05-27T11:04:17Z</time>
      </trkpt>
      <trkpt lat="47.6971" lon="-2.26342">
        <ele>42</ele>
        <time>2021-05-27T11:04:18Z</time>
      </trkpt>
      <trkpt lat="47.6971" lon="-2.26347">
        <ele>41.5</ele>
        <time>2021-05-27T11:04:19Z</time>
      </trkpt>
      <trkpt lat="47.69711" lon="-2.2635">
        <ele>41.1</ele>
        <time>2021-05-27T11:04:20Z</time>
      </trkpt>
      <trkpt lat="47.69711" lon="-2.26354">
        <ele>40.7</ele>
        <time>2021-05-27T11:04:21Z</time>
      </trkpt>
      <trkpt lat="47.69713" lon="-2.2636">
        <ele>40.1</ele>
        <time>2021-05-27T11:04:22Z</time>
      </trkpt>
      <trkpt lat="47.69713" lon="-2.26363">
        <ele>39.7</ele>
        <time>2021-05-27T11:04:23Z</time>
      </trkpt>
      <trkpt lat="47.69713" lon="-2.26366">
        <ele>39.3</ele>
        <time>2021-05-27T11:04:24Z</time>
      </trkpt>
      <trkpt lat="47.69713" lon="-2.26368">
        <ele>39.1</ele>
        <time>2021-05-27T11:04:25Z</time>
      </trkpt>
      <trkpt lat="47.69714" lon="-2.26372">
        <ele>38.7</ele>
        <time>2021-05-27T11:04:26Z</time>
      </trkpt>
      <trkpt lat="47.69714" lon="-2.26372">
        <ele>38.6</ele>
        <time>2021-05-27T11:04:27Z</time>
      </trkpt>
      <trkpt lat="47.69715" lon="-2.26373">
        <ele>38.6</ele>
        <time>2021-05-27T11:04:28Z</time>
      </trkpt>
      <trkpt lat="47.69715" lon="-2.26373">
        <ele>38.6</ele>
        <time>2021-05-27T11:04:29Z</time>
      </trkpt>
      <trkpt lat="47.69715" lon="-2.26373">
        <ele>38.6</ele>
        <time>2021-05-27T11:04:30Z</time>
      </trkpt>
      <trkpt lat="47.69715" lon="-2.26373">
        <ele>38.6</ele>
        <time>2021-05-27T11:04:31Z</time>
      </trkpt>
      <trkpt lat="47.69715" lon="-2.26373">
        <ele>38.6</ele>
        <time>2021-05-27T11:04:32Z</time>
      </trkpt>
      <trkpt lat="47.69715" lon="-2.26373">
        <ele>38.6</ele>
        <time>2021-05-27T11:04:33Z</time>
      </trkpt>
      <trkpt lat="47.69715" lon="-2.26373">
        <ele>38.6</ele>
        <time>2021-05-27T11:04:34Z</time>
      </trkpt>
      <trkpt lat="47.69715" lon="-2.26373">
        <ele>38.6</ele>
        <time>2021-05-27T11:04:35Z</time>
      </trkpt>
      <trkpt lat="47.69715" lon="-2.26373">
        <ele>38.6</ele>
        <time>2021-05-27T11:04:36Z</time>
      </trkpt>
      <trkpt lat="47.69721" lon="-2.26384">
        <ele>37.2</ele>
        <time>2021-05-27T11:04:37Z</time>
      </trkpt>
      <trkpt lat="47.69719" lon="-2.26385">
        <ele>37</ele>
        <time>2021-05-27T11:04:38Z</time>
      </trkpt>
      <trkpt lat="47.69718" lon="-2.26386">
        <ele>37</ele>
        <time>2021-05-27T11:04:39Z</time>
      </trkpt>
      <trkpt lat="47.69717" lon="-2.26386">
        <ele>37</ele>
        <time>2021-05-27T11:04:40Z</time>
      </trkpt>
      <trkpt lat="47.69716" lon="-2.26387">
        <ele>37</ele>
        <time>2021-05-27T11:04:41Z</time>
      </trkpt>
      <trkpt lat="47.69716" lon="-2.26389">
        <ele>36.7</ele>
        <time>2021-05-27T11:04:42Z</time>
      </trkpt>
      <trkpt lat="47.69716" lon="-2.26391">
        <ele>36.6</ele>
        <time>2021-05-27T11:04:43Z</time>
      </trkpt>
      <trkpt lat="47.69714" lon="-2.26391">
        <ele>36.6</ele>
        <time>2021-05-27T11:04:44Z</time>
      </trkpt>
      <trkpt lat="47.69714" lon="-2.26392">
        <ele>36.5</ele>
        <time>2021-05-27T11:04:45Z</time>
      </trkpt>
      <trkpt lat="47.69714" lon="-2.26392">
        <ele>36.4</ele>
        <time>2021-05-27T11:04:46Z</time>
      </trkpt>
      <trkpt lat="47.69714" lon="-2.26392">
        <ele>36.4</ele>
        <time>2021-05-27T11:04:47Z</time>
      </trkpt>
      <trkpt lat="47.69714" lon="-2.26392">
        <ele>36.4</ele>
        <time>2021-05-27T11:04:48Z</time>
      </trkpt>
      <trkpt lat="47.69714" lon="-2.26392">
        <ele>36.4</ele>
        <time>2021-05-27T11:04:49Z</time>
      </trkpt>
      <trkpt lat="47.69711" lon="-2.26397">
        <ele>36.1</ele>
        <time>2021-05-27T11:04:50Z</time>
      </trkpt>
      <trkpt lat="47.6971" lon="-2.26399">
        <ele>35.8</ele>
        <time>2021-05-27T11:04:51Z</time>
      </trkpt>
      <trkpt lat="47.69711" lon="-2.26405">
        <ele>35.2</ele>
        <time>2021-05-27T11:04:52Z</time>
      </trkpt>
      <trkpt lat="47.69712" lon="-2.26408">
        <ele>34.7</ele>
        <time>2021-05-27T11:04:53Z</time>
      </trkpt>
      <trkpt lat="47.69712" lon="-2.26413">
        <ele>34.2</ele>
        <time>2021-05-27T11:04:54Z</time>
      </trkpt>
      <trkpt lat="47.69712" lon="-2.26419">
        <ele>33.9</ele>
        <time>2021-05-27T11:04:55Z</time>
      </trkpt>
      <trkpt lat="47.69712" lon="-2.26423">
        <ele>34</ele>
        <time>2021-05-27T11:04:56Z</time>
      </trkpt>
      <trkpt lat="47.69712" lon="-2.26427">
        <ele>34.1</ele>
        <time>2021-05-27T11:04:57Z</time>
      </trkpt>
      <trkpt lat="47.69714" lon="-2.26433">
        <ele>34.3</ele>
        <time>2021-05-27T11:04:58Z</time>
      </trkpt>
      <trkpt lat="47.69716" lon="-2.26437">
        <ele>34.4</ele>
        <time>2021-05-27T11:04:59Z</time>
      </trkpt>
      <trkpt lat="47.69718" lon="-2.26443">
        <ele>34.6</ele>
        <time>2021-05-27T11:05:00Z</time>
      </trkpt>
      <trkpt lat="47.6972" lon="-2.26446">
        <ele>34.7</ele>
        <time>2021-05-27T11:05:01Z</time>
      </trkpt>
      <trkpt lat="47.6972" lon="-2.26449">
        <ele>34.9</ele>
        <time>2021-05-27T11:05:02Z</time>
      </trkpt>
      <trkpt lat="47.6972" lon="-2.26451">
        <ele>35</ele>
        <time>2021-05-27T11:05:03Z</time>
      </trkpt>
      <trkpt lat="47.69721" lon="-2.26453">
        <ele>35.1</ele>
        <time>2021-05-27T11:05:04Z</time>
      </trkpt>
      <trkpt lat="47.69721" lon="-2.26457">
        <ele>35.2</ele>
        <time>2021-05-27T11:05:05Z</time>
      </trkpt>
      <trkpt lat="47.69721" lon="-2.2646">
        <ele>35.4</ele>
        <time>2021-05-27T11:05:06Z</time>
      </trkpt>
      <trkpt lat="47.69721" lon="-2.26463">
        <ele>35.5</ele>
        <time>2021-05-27T11:05:07Z</time>
      </trkpt>
      <trkpt lat="47.6972" lon="-2.26466">
        <ele>35.6</ele>
        <time>2021-05-27T11:05:08Z</time>
      </trkpt>
      <trkpt lat="47.69719" lon="-2.26469">
        <ele>35.7</ele>
        <time>2021-05-27T11:05:09Z</time>
      </trkpt>
      <trkpt lat="47.69718" lon="-2.26471">
        <ele>35.8</ele>
        <time>2021-05-27T11:05:10Z</time>
      </trkpt>
      <trkpt lat="47.69717" lon="-2.26474">
        <ele>35.8</ele>
        <time>2021-05-27T11:05:11Z</time>
      </trkpt>
      <trkpt lat="47.69714" lon="-2.26476">
        <ele>35.8</ele>
        <time>2021-05-27T11:05:12Z</time>
      </trkpt>
      <trkpt lat="47.69712" lon="-2.26478">
        <ele>35.7</ele>
        <time>2021-05-27T11:05:13Z</time>
      </trkpt>
      <trkpt lat="47.69711" lon="-2.2648">
        <ele>35.7</ele>
        <time>2021-05-27T11:05:14Z</time>
      </trkpt>
      <trkpt lat="47.69709" lon="-2.26482">
        <ele>35.6</ele>
        <time>2021-05-27T11:05:15Z</time>
      </trkpt>
      <trkpt lat="47.69707" lon="-2.26485">
        <ele>35.5</ele>
        <time>2021-05-27T11:05:16Z</time>
      </trkpt>
      <trkpt lat="47.69705" lon="-2.26487">
        <ele>35.5</ele>
        <time>2021-05-27T11:05:17Z</time>
      </trkpt>
      <trkpt lat="47.69704" lon="-2.2649">
        <ele>35.4</ele>
        <time>2021-05-27T11:05:18Z</time>
      </trkpt>
      <trkpt lat="47.69703" lon="-2.26493">
        <ele>35.3</ele>
        <time>2021-05-27T11:05:19Z</time>
      </trkpt>
      <trkpt lat="47.69701" lon="-2.26495">
        <ele>35.2</ele>
        <time>2021-05-27T11:05:20Z</time>
      </trkpt>
      <trkpt lat="47.697" lon="-2.26499">
        <ele>35.2</ele>
        <time>2021-05-27T11:05:21Z</time>
      </trkpt>
      <trkpt lat="47.69698" lon="-2.26502">
        <ele>35.2</ele>
        <time>2021-05-27T11:05:22Z</time>
      </trkpt>
      <trkpt lat="47.69697" lon="-2.26504">
        <ele>35.1</ele>
        <time>2021-05-27T11:05:23Z</time>
      </trkpt>
      <trkpt lat="47.69695" lon="-2.26505">
        <ele>35</ele>
        <time>2021-05-27T11:05:24Z</time>
      </trkpt>
      <trkpt lat="47.69693" lon="-2.26507">
        <ele>34.9</ele>
        <time>2021-05-27T11:05:25Z</time>
      </trkpt>
      <trkpt lat="47.69691" lon="-2.26509">
        <ele>34.8</ele>
        <time>2021-05-27T11:05:26Z</time>
      </trkpt>
      <trkpt lat="47.69688" lon="-2.26512">
        <ele>34.7</ele>
        <time>2021-05-27T11:05:27Z</time>
      </trkpt>
      <trkpt lat="47.69686" lon="-2.26515">
        <ele>34.7</ele>
        <time>2021-05-27T11:05:28Z</time>
      </trkpt>
      <trkpt lat="47.69684" lon="-2.26518">
        <ele>34.6</ele>
        <time>2021-05-27T11:05:29Z</time>
      </trkpt>
      <trkpt lat="47.69683" lon="-2.26522">
        <ele>34.6</ele>
        <time>2021-05-27T11:05:30Z</time>
      </trkpt>
      <trkpt lat="47.69681" lon="-2.26525">
        <ele>34.6</ele>
        <time>2021-05-27T11:05:31Z</time>
      </trkpt>
      <trkpt lat="47.69679" lon="-2.26529">
        <ele>34.5</ele>
        <time>2021-05-27T11:05:32Z</time>
      </trkpt>
      <trkpt lat="47.69677" lon="-2.26532">
        <ele>34.5</ele>
        <time>2021-05-27T11:05:33Z</time>
      </trkpt>
      <trkpt lat="47.69675" lon="-2.26536">
        <ele>34.4</ele>
        <time>2021-05-27T11:05:34Z</time>
      </trkpt>
      <trkpt lat="47.69674" lon="-2.26539">
        <ele>34.3</ele>
        <time>2021-05-27T11:05:35Z</time>
      </trkpt>
      <trkpt lat="47.69672" lon="-2.26542">
        <ele>34.3</ele>
        <time>2021-05-27T11:05:36Z</time>
      </trkpt>
      <trkpt lat="47.69671" lon="-2.26545">
        <ele>34.1</ele>
        <time>2021-05-27T11:05:37Z</time>
      </trkpt>
      <trkpt lat="47.69669" lon="-2.26549">
        <ele>34.1</ele>
        <time>2021-05-27T11:05:38Z</time>
      </trkpt>
      <trkpt lat="47.69666" lon="-2.26554">
        <ele>33.9</ele>
        <time>2021-05-27T11:05:39Z</time>
      </trkpt>
      <trkpt lat="47.69664" lon="-2.26558">
        <ele>34</ele>
        <time>2021-05-27T11:05:40Z</time>
      </trkpt>
      <trkpt lat="47.69663" lon="-2.26561">
        <ele>34.1</ele>
        <time>2021-05-27T11:05:41Z</time>
      </trkpt>
      <trkpt lat="47.69663" lon="-2.26563">
        <ele>34.1</ele>
        <time>2021-05-27T11:05:42Z</time>
      </trkpt>
      <trkpt lat="47.69662" lon="-2.26567">
        <ele>34.2</ele>
        <time>2021-05-27T11:05:43Z</time>
      </trkpt>
      <trkpt lat="47.69661" lon="-2.26571">
        <ele>34.3</ele>
        <time>2021-05-27T11:05:44Z</time>
      </trkpt>
      <trkpt lat="47.69659" lon="-2.26575">
        <ele>34.3</ele>
        <time>2021-05-27T11:05:45Z</time>
      </trkpt>
      <trkpt lat="47.69657" lon="-2.26579">
        <ele>34.4</ele>
        <time>2021-05-27T11:05:46Z</time>
      </trkpt>
      <trkpt lat="47.69655" lon="-2.26585">
        <ele>34.5</ele>
        <time>2021-05-27T11:05:47Z</time>
      </trkpt>
      <trkpt lat="47.69653" lon="-2.26589">
        <ele>34.4</ele>
        <time>2021-05-27T11:05:48Z</time>
      </trkpt>
      <trkpt lat="47.69651" lon="-2.26594">
        <ele>34.4</ele>
        <time>2021-05-27T11:05:49Z</time>
      </trkpt>
      <trkpt lat="47.69649" lon="-2.26598">
        <ele>34.3</ele>
        <time>2021-05-27T11:05:50Z</time>
      </trkpt>
      <trkpt lat="47.69648" lon="-2.26601">
        <ele>34.3</ele>
        <time>2021-05-27T11:05:51Z</time>
      </trkpt>
      <trkpt lat="47.69647" lon="-2.26603">
        <ele>34.3</ele>
        <time>2021-05-27T11:05:52Z</time>
      </trkpt>
      <trkpt lat="47.69646" lon="-2.26605">
        <ele>34.3</ele>
        <time>2021-05-27T11:05:53Z</time>
      </trkpt>
      <trkpt lat="47.69645" lon="-2.26607">
        <ele>34.3</ele>
        <time>2021-05-27T11:05:54Z</time>
      </trkpt>
      <trkpt lat="47.69645" lon="-2.26609">
        <ele>34.3</ele>
        <time>2021-05-27T11:05:55Z</time>
      </trkpt>
      <trkpt lat="47.69643" lon="-2.26612">
        <ele>34.2</ele>
        <time>2021-05-27T11:05:56Z</time>
      </trkpt>
      <trkpt lat="47.69642" lon="-2.26615">
        <ele>34.2</ele>
        <time>2021-05-27T11:05:57Z</time>
      </trkpt>
      <trkpt lat="47.6964" lon="-2.26617">
        <ele>34.1</ele>
        <time>2021-05-27T11:05:58Z</time>
      </trkpt>
      <trkpt lat="47.69639" lon="-2.2662">
        <ele>34.1</ele>
        <time>2021-05-27T11:05:59Z</time>
      </trkpt>
      <trkpt lat="47.69638" lon="-2.26625">
        <ele>34.1</ele>
        <time>2021-05-27T11:06:00Z</time>
      </trkpt>
      <trkpt lat="47.69638" lon="-2.26631">
        <ele>34.2</ele>
        <time>2021-05-27T11:06:01Z</time>
      </trkpt>
      <trkpt lat="47.69637" lon="-2.26636">
        <ele>34.2</ele>
        <time>2021-05-27T11:06:02Z</time>
      </trkpt>
      <trkpt lat="47.69636" lon="-2.26641">
        <ele>34.2</ele>
        <time>2021-05-27T11:06:03Z</time>
      </trkpt>
      <trkpt lat="47.69635" lon="-2.26648">
        <ele>34.3</ele>
        <time>2021-05-27T11:06:04Z</time>
      </trkpt>
      <trkpt lat="47.69634" lon="-2.26654">
        <ele>34.3</ele>
        <time>2021-05-27T11:06:05Z</time>
      </trkpt>
      <trkpt lat="47.69633" lon="-2.26661">
        <ele>34.3</ele>
        <time>2021-05-27T11:06:06Z</time>
      </trkpt>
      <trkpt lat="47.69632" lon="-2.26672">
        <ele>34.4</ele>
        <time>2021-05-27T11:06:07Z</time>
      </trkpt>
      <trkpt lat="47.69632" lon="-2.26681">
        <ele>34.6</ele>
        <time>2021-05-27T11:06:08Z</time>
      </trkpt>
      <trkpt lat="47.69631" lon="-2.26689">
        <ele>34.8</ele>
        <time>2021-05-27T11:06:09Z</time>
      </trkpt>
      <trkpt lat="47.69631" lon="-2.26697">
        <ele>34.9</ele>
        <time>2021-05-27T11:06:10Z</time>
      </trkpt>
      <trkpt lat="47.69631" lon="-2.26706">
        <ele>35.1</ele>
        <time>2021-05-27T11:06:11Z</time>
      </trkpt>
      <trkpt lat="47.69631" lon="-2.26713">
        <ele>35.2</ele>
        <time>2021-05-27T11:06:12Z</time>
      </trkpt>
      <trkpt lat="47.69632" lon="-2.26719">
        <ele>35.4</ele>
        <time>2021-05-27T11:06:13Z</time>
      </trkpt>
      <trkpt lat="47.69632" lon="-2.26726">
        <ele>35.6</ele>
        <time>2021-05-27T11:06:14Z</time>
      </trkpt>
      <trkpt lat="47.69632" lon="-2.26733">
        <ele>35.7</ele>
        <time>2021-05-27T11:06:15Z</time>
      </trkpt>
      <trkpt lat="47.69632" lon="-2.26739">
        <ele>35.8</ele>
        <time>2021-05-27T11:06:16Z</time>
      </trkpt>
      <trkpt lat="47.69632" lon="-2.26744">
        <ele>35.9</ele>
        <time>2021-05-27T11:06:17Z</time>
      </trkpt>
      <trkpt lat="47.69632" lon="-2.2675">
        <ele>36</ele>
        <time>2021-05-27T11:06:18Z</time>
      </trkpt>
      <trkpt lat="47.69631" lon="-2.26754">
        <ele>36</ele>
        <time>2021-05-27T11:06:19Z</time>
      </trkpt>
      <trkpt lat="47.69632" lon="-2.26759">
        <ele>35.9</ele>
        <time>2021-05-27T11:06:20Z</time>
      </trkpt>
      <trkpt lat="47.69631" lon="-2.26765">
        <ele>35.8</ele>
        <time>2021-05-27T11:06:21Z</time>
      </trkpt>
      <trkpt lat="47.69631" lon="-2.2677">
        <ele>35.7</ele>
        <time>2021-05-27T11:06:22Z</time>
      </trkpt>
      <trkpt lat="47.69631" lon="-2.26776">
        <ele>35.6</ele>
        <time>2021-05-27T11:06:23Z</time>
      </trkpt>
      <trkpt lat="47.69632" lon="-2.26782">
        <ele>35.5</ele>
        <time>2021-05-27T11:06:24Z</time>
      </trkpt>
      <trkpt lat="47.69633" lon="-2.26788">
        <ele>35.5</ele>
        <time>2021-05-27T11:06:25Z</time>
      </trkpt>
      <trkpt lat="47.69633" lon="-2.26792">
        <ele>35.5</ele>
        <time>2021-05-27T11:06:26Z</time>
      </trkpt>
      <trkpt lat="47.69633" lon="-2.26798">
        <ele>35.4</ele>
        <time>2021-05-27T11:06:27Z</time>
      </trkpt>
      <trkpt lat="47.69634" lon="-2.26803">
        <ele>35.3</ele>
        <time>2021-05-27T11:06:28Z</time>
      </trkpt>
      <trkpt lat="47.69634" lon="-2.26808">
        <ele>35.3</ele>
        <time>2021-05-27T11:06:29Z</time>
      </trkpt>
      <trkpt lat="47.69635" lon="-2.26814">
        <ele>35.3</ele>
        <time>2021-05-27T11:06:30Z</time>
      </trkpt>
      <trkpt lat="47.69637" lon="-2.26819">
        <ele>35.4</ele>
        <time>2021-05-27T11:06:31Z</time>
      </trkpt>
      <trkpt lat="47.69638" lon="-2.26824">
        <ele>35.4</ele>
        <time>2021-05-27T11:06:32Z</time>
      </trkpt>
      <trkpt lat="47.69638" lon="-2.26831">
        <ele>35.3</ele>
        <time>2021-05-27T11:06:33Z</time>
      </trkpt>
      <trkpt lat="47.6964" lon="-2.26836">
        <ele>35.4</ele>
        <time>2021-05-27T11:06:34Z</time>
      </trkpt>
      <trkpt lat="47.69641" lon="-2.26842">
        <ele>35.5</ele>
        <time>2021-05-27T11:06:35Z</time>
      </trkpt>
      <trkpt lat="47.69642" lon="-2.26849">
        <ele>35.6</ele>
        <time>2021-05-27T11:06:36Z</time>
      </trkpt>
      <trkpt lat="47.69644" lon="-2.26856">
        <ele>35.7</ele>
        <time>2021-05-27T11:06:37Z</time>
      </trkpt>
      <trkpt lat="47.69645" lon="-2.26863">
        <ele>35.8</ele>
        <time>2021-05-27T11:06:38Z</time>
      </trkpt>
      <trkpt lat="47.69646" lon="-2.26868">
        <ele>35.9</ele>
        <time>2021-05-27T11:06:39Z</time>
      </trkpt>
      <trkpt lat="47.69647" lon="-2.26874">
        <ele>36</ele>
        <time>2021-05-27T11:06:40Z</time>
      </trkpt>
      <trkpt lat="47.69646" lon="-2.2688">
        <ele>35.9</ele>
        <time>2021-05-27T11:06:41Z</time>
      </trkpt>
      <trkpt lat="47.69646" lon="-2.26884">
        <ele>35.8</ele>
        <time>2021-05-27T11:06:42Z</time>
      </trkpt>
      <trkpt lat="47.69645" lon="-2.26888">
        <ele>35.8</ele>
        <time>2021-05-27T11:06:43Z</time>
      </trkpt>
      <trkpt lat="47.69645" lon="-2.2689">
        <ele>35.8</ele>
        <time>2021-05-27T11:06:44Z</time>
      </trkpt>
      <trkpt lat="47.69647" lon="-2.26894">
        <ele>35.9</ele>
        <time>2021-05-27T11:06:45Z</time>
      </trkpt>
      <trkpt lat="47.69647" lon="-2.26899">
        <ele>35.9</ele>
        <time>2021-05-27T11:06:46Z</time>
      </trkpt>
      <trkpt lat="47.69647" lon="-2.26903">
        <ele>35.9</ele>
        <time>2021-05-27T11:06:47Z</time>
      </trkpt>
      <trkpt lat="47.69647" lon="-2.26909">
        <ele>35.9</ele>
        <time>2021-05-27T11:06:48Z</time>
      </trkpt>
      <trkpt lat="47.69647" lon="-2.26914">
        <ele>35.9</ele>
        <time>2021-05-27T11:06:49Z</time>
      </trkpt>
      <trkpt lat="47.69647" lon="-2.26919">
        <ele>35.9</ele>
        <time>2021-05-27T11:06:50Z</time>
      </trkpt>
      <trkpt lat="47.69648" lon="-2.26925">
        <ele>36.2</ele>
        <time>2021-05-27T11:06:51Z</time>
      </trkpt>
      <trkpt lat="47.69649" lon="-2.2693">
        <ele>36.4</ele>
        <time>2021-05-27T11:06:52Z</time>
      </trkpt>
      <trkpt lat="47.6965" lon="-2.26934">
        <ele>36.6</ele>
        <time>2021-05-27T11:06:53Z</time>
      </trkpt>
      <trkpt lat="47.69651" lon="-2.26939">
        <ele>36.8</ele>
        <time>2021-05-27T11:06:54Z</time>
      </trkpt>
      <trkpt lat="47.69652" lon="-2.26942">
        <ele>37</ele>
        <time>2021-05-27T11:06:55Z</time>
      </trkpt>
      <trkpt lat="47.69653" lon="-2.26946">
        <ele>37.2</ele>
        <time>2021-05-27T11:06:56Z</time>
      </trkpt>
      <trkpt lat="47.69654" lon="-2.26949">
        <ele>37.4</ele>
        <time>2021-05-27T11:06:57Z</time>
      </trkpt>
      <trkpt lat="47.69655" lon="-2.26952">
        <ele>37.5</ele>
        <time>2021-05-27T11:06:58Z</time>
      </trkpt>
      <trkpt lat="47.69655" lon="-2.26956">
        <ele>37.7</ele>
        <time>2021-05-27T11:06:59Z</time>
      </trkpt>
      <trkpt lat="47.69655" lon="-2.26959">
        <ele>37.8</ele>
        <time>2021-05-27T11:07:00Z</time>
      </trkpt>
      <trkpt lat="47.69657" lon="-2.26964">
        <ele>38.1</ele>
        <time>2021-05-27T11:07:01Z</time>
      </trkpt>
      <trkpt lat="47.69658" lon="-2.26967">
        <ele>38.3</ele>
        <time>2021-05-27T11:07:02Z</time>
      </trkpt>
      <trkpt lat="47.6966" lon="-2.26972">
        <ele>38.6</ele>
        <time>2021-05-27T11:07:03Z</time>
      </trkpt>
      <trkpt lat="47.69661" lon="-2.26974">
        <ele>38.7</ele>
        <time>2021-05-27T11:07:04Z</time>
      </trkpt>
      <trkpt lat="47.69662" lon="-2.26978">
        <ele>38.9</ele>
        <time>2021-05-27T11:07:05Z</time>
      </trkpt>
      <trkpt lat="47.69664" lon="-2.26984">
        <ele>39.4</ele>
        <time>2021-05-27T11:07:06Z</time>
      </trkpt>
      <trkpt lat="47.69666" lon="-2.26988">
        <ele>39.6</ele>
        <time>2021-05-27T11:07:07Z</time>
      </trkpt>
      <trkpt lat="47.69667" lon="-2.26992">
        <ele>39.9</ele>
        <time>2021-05-27T11:07:08Z</time>
      </trkpt>
      <trkpt lat="47.69668" lon="-2.26996">
        <ele>40.2</ele>
        <time>2021-05-27T11:07:09Z</time>
      </trkpt>
      <trkpt lat="47.69669" lon="-2.27001">
        <ele>40.4</ele>
        <time>2021-05-27T11:07:10Z</time>
      </trkpt>
      <trkpt lat="47.6967" lon="-2.27006">
        <ele>40.2</ele>
        <time>2021-05-27T11:07:11Z</time>
      </trkpt>
      <trkpt lat="47.69672" lon="-2.27011">
        <ele>40.3</ele>
        <time>2021-05-27T11:07:12Z</time>
      </trkpt>
      <trkpt lat="47.69672" lon="-2.27015">
        <ele>40.2</ele>
        <time>2021-05-27T11:07:13Z</time>
      </trkpt>
      <trkpt lat="47.69673" lon="-2.2702">
        <ele>40.1</ele>
        <time>2021-05-27T11:07:14Z</time>
      </trkpt>
      <trkpt lat="47.69673" lon="-2.27024">
        <ele>39.9</ele>
        <time>2021-05-27T11:07:15Z</time>
      </trkpt>
      <trkpt lat="47.69675" lon="-2.27028">
        <ele>40</ele>
        <time>2021-05-27T11:07:16Z</time>
      </trkpt>
      <trkpt lat="47.69675" lon="-2.27033">
        <ele>39.9</ele>
        <time>2021-05-27T11:07:17Z</time>
      </trkpt>
      <trkpt lat="47.69675" lon="-2.27037">
        <ele>39.8</ele>
        <time>2021-05-27T11:07:18Z</time>
      </trkpt>
      <trkpt lat="47.69677" lon="-2.27041">
        <ele>39.8</ele>
        <time>2021-05-27T11:07:19Z</time>
      </trkpt>
      <trkpt lat="47.69677" lon="-2.27046">
        <ele>39.7</ele>
        <time>2021-05-27T11:07:20Z</time>
      </trkpt>
      <trkpt lat="47.69678" lon="-2.27049">
        <ele>39.8</ele>
        <time>2021-05-27T11:07:21Z</time>
      </trkpt>
      <trkpt lat="47.69678" lon="-2.27053">
        <ele>39.6</ele>
        <time>2021-05-27T11:07:22Z</time>
      </trkpt>
      <trkpt lat="47.69679" lon="-2.27055">
        <ele>39.6</ele>
        <time>2021-05-27T11:07:23Z</time>
      </trkpt>
      <trkpt lat="47.69678" lon="-2.27058">
        <ele>39.4</ele>
        <time>2021-05-27T11:07:24Z</time>
      </trkpt>
      <trkpt lat="47.69678" lon="-2.27063">
        <ele>39.2</ele>
        <time>2021-05-27T11:07:25Z</time>
      </trkpt>
      <trkpt lat="47.69678" lon="-2.27068">
        <ele>38.9</ele>
        <time>2021-05-27T11:07:26Z</time>
      </trkpt>
      <trkpt lat="47.69679" lon="-2.27076">
        <ele>38.8</ele>
        <time>2021-05-27T11:07:27Z</time>
      </trkpt>
      <trkpt lat="47.69681" lon="-2.27083">
        <ele>39</ele>
        <time>2021-05-27T11:07:28Z</time>
      </trkpt>
      <trkpt lat="47.69683" lon="-2.27089">
        <ele>39.2</ele>
        <time>2021-05-27T11:07:29Z</time>
      </trkpt>
      <trkpt lat="47.69684" lon="-2.27095">
        <ele>39.4</ele>
        <time>2021-05-27T11:07:30Z</time>
      </trkpt>
      <trkpt lat="47.69687" lon="-2.27101">
        <ele>39.7</ele>
        <time>2021-05-27T11:07:31Z</time>
      </trkpt>
      <trkpt lat="47.69689" lon="-2.27108">
        <ele>39.9</ele>
        <time>2021-05-27T11:07:32Z</time>
      </trkpt>
      <trkpt lat="47.69691" lon="-2.27117">
        <ele>40.1</ele>
        <time>2021-05-27T11:07:33Z</time>
      </trkpt>
      <trkpt lat="47.69693" lon="-2.27123">
        <ele>40.3</ele>
        <time>2021-05-27T11:07:34Z</time>
      </trkpt>
      <trkpt lat="47.69694" lon="-2.27127">
        <ele>40.6</ele>
        <time>2021-05-27T11:07:35Z</time>
      </trkpt>
      <trkpt lat="47.69696" lon="-2.27131">
        <ele>40.8</ele>
        <time>2021-05-27T11:07:36Z</time>
      </trkpt>
      <trkpt lat="47.69698" lon="-2.27137">
        <ele>41.2</ele>
        <time>2021-05-27T11:07:37Z</time>
      </trkpt>
      <trkpt lat="47.697" lon="-2.27142">
        <ele>41.4</ele>
        <time>2021-05-27T11:07:38Z</time>
      </trkpt>
      <trkpt lat="47.69702" lon="-2.27148">
        <ele>41.6</ele>
        <time>2021-05-27T11:07:39Z</time>
      </trkpt>
      <trkpt lat="47.69703" lon="-2.27153">
        <ele>41.8</ele>
        <time>2021-05-27T11:07:40Z</time>
      </trkpt>
      <trkpt lat="47.69705" lon="-2.27157">
        <ele>42.1</ele>
        <time>2021-05-27T11:07:41Z</time>
      </trkpt>
      <trkpt lat="47.69707" lon="-2.27162">
        <ele>42.4</ele>
        <time>2021-05-27T11:07:42Z</time>
      </trkpt>
      <trkpt lat="47.69708" lon="-2.27166">
        <ele>42.5</ele>
        <time>2021-05-27T11:07:43Z</time>
      </trkpt>
      <trkpt lat="47.69709" lon="-2.2717">
        <ele>42.6</ele>
        <time>2021-05-27T11:07:44Z</time>
      </trkpt>
      <trkpt lat="47.69709" lon="-2.27173">
        <ele>42.6</ele>
        <time>2021-05-27T11:07:45Z</time>
      </trkpt>
      <trkpt lat="47.69709" lon="-2.27175">
        <ele>42.7</ele>
        <time>2021-05-27T11:07:46Z</time>
      </trkpt>
      <trkpt lat="47.69709" lon="-2.27178">
        <ele>42.6</ele>
        <time>2021-05-27T11:07:47Z</time>
      </trkpt>
      <trkpt lat="47.6971" lon="-2.27182">
        <ele>42.7</ele>
        <time>2021-05-27T11:07:48Z</time>
      </trkpt>
      <trkpt lat="47.69709" lon="-2.27184">
        <ele>42.7</ele>
        <time>2021-05-27T11:07:49Z</time>
      </trkpt>
      <trkpt lat="47.69709" lon="-2.27187">
        <ele>42.7</ele>
        <time>2021-05-27T11:07:50Z</time>
      </trkpt>
      <trkpt lat="47.6971" lon="-2.2719">
        <ele>42.8</ele>
        <time>2021-05-27T11:07:51Z</time>
      </trkpt>
      <trkpt lat="47.6971" lon="-2.27194">
        <ele>42.8</ele>
        <time>2021-05-27T11:07:52Z</time>
      </trkpt>
      <trkpt lat="47.6971" lon="-2.27199">
        <ele>42.8</ele>
        <time>2021-05-27T11:07:53Z</time>
      </trkpt>
      <trkpt lat="47.6971" lon="-2.27202">
        <ele>42.8</ele>
        <time>2021-05-27T11:07:54Z</time>
      </trkpt>
      <trkpt lat="47.69709" lon="-2.27205">
        <ele>42.7</ele>
        <time>2021-05-27T11:07:55Z</time>
      </trkpt>
      <trkpt lat="47.69709" lon="-2.27205">
        <ele>42.6</ele>
        <time>2021-05-27T11:07:56Z</time>
      </trkpt>
      <trkpt lat="47.69708" lon="-2.27207">
        <ele>42.5</ele>
        <time>2021-05-27T11:07:57Z</time>
      </trkpt>
      <trkpt lat="47.69709" lon="-2.27208">
        <ele>42.7</ele>
        <time>2021-05-27T11:07:58Z</time>
      </trkpt>
      <trkpt lat="47.6971" lon="-2.27209">
        <ele>42.8</ele>
        <time>2021-05-27T11:07:59Z</time>
      </trkpt>
      <trkpt lat="47.6971" lon="-2.2721">
        <ele>42.9</ele>
        <time>2021-05-27T11:08:00Z</time>
      </trkpt>
      <trkpt lat="47.6971" lon="-2.27211">
        <ele>42.9</ele>
        <time>2021-05-27T11:08:01Z</time>
      </trkpt>
      <trkpt lat="47.6971" lon="-2.27211">
        <ele>42.9</ele>
        <time>2021-05-27T11:08:02Z</time>
      </trkpt>
      <trkpt lat="47.6971" lon="-2.27211">
        <ele>42.9</ele>
        <time>2021-05-27T11:08:03Z</time>
      </trkpt>
      <trkpt lat="47.69714" lon="-2.27216">
        <ele>43.5</ele>
        <time>2021-05-27T11:08:04Z</time>
      </trkpt>
      <trkpt lat="47.69715" lon="-2.27217">
        <ele>43.8</ele>
        <time>2021-05-27T11:08:05Z</time>
      </trkpt>
      <trkpt lat="47.69714" lon="-2.27218">
        <ele>43.7</ele>
        <time>2021-05-27T11:08:06Z</time>
      </trkpt>
      <trkpt lat="47.69714" lon="-2.27224">
        <ele>43.7</ele>
        <time>2021-05-27T11:08:07Z</time>
      </trkpt>
      <trkpt lat="47.69713" lon="-2.27228">
        <ele>43.4</ele>
        <time>2021-05-27T11:08:08Z</time>
      </trkpt>
      <trkpt lat="47.69715" lon="-2.27231">
        <ele>43.7</ele>
        <time>2021-05-27T11:08:09Z</time>
      </trkpt>
      <trkpt lat="47.69716" lon="-2.27235">
        <ele>43.9</ele>
        <time>2021-05-27T11:08:10Z</time>
      </trkpt>
      <trkpt lat="47.69715" lon="-2.27238">
        <ele>43.8</ele>
        <time>2021-05-27T11:08:11Z</time>
      </trkpt>
      <trkpt lat="47.69714" lon="-2.27242">
        <ele>43.6</ele>
        <time>2021-05-27T11:08:12Z</time>
      </trkpt>
      <trkpt lat="47.69714" lon="-2.27245">
        <ele>43.4</ele>
        <time>2021-05-27T11:08:13Z</time>
      </trkpt>
      <trkpt lat="47.69714" lon="-2.27249">
        <ele>43.5</ele>
        <time>2021-05-27T11:08:14Z</time>
      </trkpt>
      <trkpt lat="47.69714" lon="-2.27252">
        <ele>43.5</ele>
        <time>2021-05-27T11:08:15Z</time>
      </trkpt>
      <trkpt lat="47.69714" lon="-2.27255">
        <ele>43.5</ele>
        <time>2021-05-27T11:08:16Z</time>
      </trkpt>
      <trkpt lat="47.69715" lon="-2.27258">
        <ele>43.7</ele>
        <time>2021-05-27T11:08:17Z</time>
      </trkpt>
      <trkpt lat="47.69717" lon="-2.27261">
        <ele>44.1</ele>
        <time>2021-05-27T11:08:18Z</time>
      </trkpt>
      <trkpt lat="47.69717" lon="-2.27265">
        <ele>44.1</ele>
        <time>2021-05-27T11:08:19Z</time>
      </trkpt>
      <trkpt lat="47.69717" lon="-2.27269">
        <ele>44.1</ele>
        <time>2021-05-27T11:08:20Z</time>
      </trkpt>
      <trkpt lat="47.69718" lon="-2.27273">
        <ele>44.2</ele>
        <time>2021-05-27T11:08:21Z</time>
      </trkpt>
      <trkpt lat="47.69719" lon="-2.27278">
        <ele>44.3</ele>
        <time>2021-05-27T11:08:22Z</time>
      </trkpt>
      <trkpt lat="47.6972" lon="-2.27284">
        <ele>44.5</ele>
        <time>2021-05-27T11:08:23Z</time>
      </trkpt>
      <trkpt lat="47.69722" lon="-2.27288">
        <ele>44.8</ele>
        <time>2021-05-27T11:08:24Z</time>
      </trkpt>
      <trkpt lat="47.69722" lon="-2.27292">
        <ele>44.7</ele>
        <time>2021-05-27T11:08:25Z</time>
      </trkpt>
      <trkpt lat="47.69721" lon="-2.27297">
        <ele>44.7</ele>
        <time>2021-05-27T11:08:26Z</time>
      </trkpt>
      <trkpt lat="47.69721" lon="-2.27301">
        <ele>44.6</ele>
        <time>2021-05-27T11:08:27Z</time>
      </trkpt>
      <trkpt lat="47.6972" lon="-2.27306">
        <ele>44.5</ele>
        <time>2021-05-27T11:08:28Z</time>
      </trkpt>
      <trkpt lat="47.69721" lon="-2.27312">
        <ele>44.6</ele>
        <time>2021-05-27T11:08:29Z</time>
      </trkpt>
      <trkpt lat="47.6972" lon="-2.27316">
        <ele>44.5</ele>
        <time>2021-05-27T11:08:30Z</time>
      </trkpt>
      <trkpt lat="47.69722" lon="-2.27321">
        <ele>44.6</ele>
        <time>2021-05-27T11:08:31Z</time>
      </trkpt>
      <trkpt lat="47.69722" lon="-2.27325">
        <ele>44.7</ele>
        <time>2021-05-27T11:08:32Z</time>
      </trkpt>
      <trkpt lat="47.69723" lon="-2.2733">
        <ele>44.8</ele>
        <time>2021-05-27T11:08:33Z</time>
      </trkpt>
      <trkpt lat="47.69724" lon="-2.27335">
        <ele>45.1</ele>
        <time>2021-05-27T11:08:34Z</time>
      </trkpt>
      <trkpt lat="47.69726" lon="-2.27339">
        <ele>45.3</ele>
        <time>2021-05-27T11:08:35Z</time>
      </trkpt>
      <trkpt lat="47.69727" lon="-2.27344">
        <ele>45.6</ele>
        <time>2021-05-27T11:08:36Z</time>
      </trkpt>
      <trkpt lat="47.69728" lon="-2.2735">
        <ele>46</ele>
        <time>2021-05-27T11:08:37Z</time>
      </trkpt>
      <trkpt lat="47.69729" lon="-2.27354">
        <ele>46.2</ele>
        <time>2021-05-27T11:08:38Z</time>
      </trkpt>
      <trkpt lat="47.6973" lon="-2.27359">
        <ele>46.5</ele>
        <time>2021-05-27T11:08:39Z</time>
      </trkpt>
      <trkpt lat="47.69732" lon="-2.27364">
        <ele>46.8</ele>
        <time>2021-05-27T11:08:40Z</time>
      </trkpt>
      <trkpt lat="47.69732" lon="-2.27368">
        <ele>46.9</ele>
        <time>2021-05-27T11:08:41Z</time>
      </trkpt>
      <trkpt lat="47.69732" lon="-2.27372">
        <ele>47</ele>
        <time>2021-05-27T11:08:42Z</time>
      </trkpt>
      <trkpt lat="47.69733" lon="-2.27376">
        <ele>47.3</ele>
        <time>2021-05-27T11:08:43Z</time>
      </trkpt>
      <trkpt lat="47.69734" lon="-2.2738">
        <ele>47.5</ele>
        <time>2021-05-27T11:08:44Z</time>
      </trkpt>
      <trkpt lat="47.69735" lon="-2.27385">
        <ele>47.7</ele>
        <time>2021-05-27T11:08:45Z</time>
      </trkpt>
      <trkpt lat="47.69735" lon="-2.27389">
        <ele>47.9</ele>
        <time>2021-05-27T11:08:46Z</time>
      </trkpt>
      <trkpt lat="47.69735" lon="-2.27396">
        <ele>48</ele>
        <time>2021-05-27T11:08:47Z</time>
      </trkpt>
      <trkpt lat="47.69734" lon="-2.27401">
        <ele>48</ele>
        <time>2021-05-27T11:08:48Z</time>
      </trkpt>
      <trkpt lat="47.69736" lon="-2.27405">
        <ele>48.4</ele>
        <time>2021-05-27T11:08:49Z</time>
      </trkpt>
      <trkpt lat="47.69737" lon="-2.2741">
        <ele>48.7</ele>
        <time>2021-05-27T11:08:50Z</time>
      </trkpt>
      <trkpt lat="47.69739" lon="-2.27414">
        <ele>49</ele>
        <time>2021-05-27T11:08:51Z</time>
      </trkpt>
      <trkpt lat="47.6974" lon="-2.27418">
        <ele>49.4</ele>
        <time>2021-05-27T11:08:52Z</time>
      </trkpt>
      <trkpt lat="47.69741" lon="-2.27423">
        <ele>49.7</ele>
        <time>2021-05-27T11:08:53Z</time>
      </trkpt>
      <trkpt lat="47.69741" lon="-2.27429">
        <ele>49.8</ele>
        <time>2021-05-27T11:08:54Z</time>
      </trkpt>
      <trkpt lat="47.69742" lon="-2.27435">
        <ele>50.3</ele>
        <time>2021-05-27T11:08:55Z</time>
      </trkpt>
      <trkpt lat="47.69743" lon="-2.27441">
        <ele>50.6</ele>
        <time>2021-05-27T11:08:56Z</time>
      </trkpt>
      <trkpt lat="47.69743" lon="-2.27446">
        <ele>50.9</ele>
        <time>2021-05-27T11:08:57Z</time>
      </trkpt>
      <trkpt lat="47.69745" lon="-2.27454">
        <ele>51.5</ele>
        <time>2021-05-27T11:08:58Z</time>
      </trkpt>
      <trkpt lat="47.69747" lon="-2.27462">
        <ele>52.2</ele>
        <time>2021-05-27T11:08:59Z</time>
      </trkpt>
      <trkpt lat="47.69749" lon="-2.27468">
        <ele>52.6</ele>
        <time>2021-05-27T11:09:00Z</time>
      </trkpt>
      <trkpt lat="47.6975" lon="-2.27475">
        <ele>53.1</ele>
        <time>2021-05-27T11:09:01Z</time>
      </trkpt>
      <trkpt lat="47.69753" lon="-2.27483">
        <ele>53.8</ele>
        <time>2021-05-27T11:09:02Z</time>
      </trkpt>
      <trkpt lat="47.69753" lon="-2.27488">
        <ele>54</ele>
        <time>2021-05-27T11:09:03Z</time>
      </trkpt>
      <trkpt lat="47.69753" lon="-2.27495">
        <ele>54.2</ele>
        <time>2021-05-27T11:09:04Z</time>
      </trkpt>
      <trkpt lat="47.69753" lon="-2.27501">
        <ele>54.3</ele>
        <time>2021-05-27T11:09:05Z</time>
      </trkpt>
      <trkpt lat="47.69753" lon="-2.27505">
        <ele>54.2</ele>
        <time>2021-05-27T11:09:06Z</time>
      </trkpt>
      <trkpt lat="47.69753" lon="-2.27509">
        <ele>54</ele>
        <time>2021-05-27T11:09:07Z</time>
      </trkpt>
      <trkpt lat="47.69753" lon="-2.27513">
        <ele>54</ele>
        <time>2021-05-27T11:09:08Z</time>
      </trkpt>
      <trkpt lat="47.69754" lon="-2.27517">
        <ele>53.9</ele>
        <time>2021-05-27T11:09:09Z</time>
      </trkpt>
      <trkpt lat="47.69754" lon="-2.27521">
        <ele>53.8</ele>
        <time>2021-05-27T11:09:10Z</time>
      </trkpt>
      <trkpt lat="47.69754" lon="-2.27525">
        <ele>53.7</ele>
        <time>2021-05-27T11:09:11Z</time>
      </trkpt>
      <trkpt lat="47.69756" lon="-2.2753">
        <ele>53.6</ele>
        <time>2021-05-27T11:09:12Z</time>
      </trkpt>
      <trkpt lat="47.69756" lon="-2.27534">
        <ele>53.6</ele>
        <time>2021-05-27T11:09:13Z</time>
      </trkpt>
      <trkpt lat="47.69757" lon="-2.2754">
        <ele>53.5</ele>
        <time>2021-05-27T11:09:14Z</time>
      </trkpt>
      <trkpt lat="47.69757" lon="-2.27545">
        <ele>53.3</ele>
        <time>2021-05-27T11:09:15Z</time>
      </trkpt>
      <trkpt lat="47.69758" lon="-2.2755">
        <ele>53.2</ele>
        <time>2021-05-27T11:09:16Z</time>
      </trkpt>
      <trkpt lat="47.69759" lon="-2.27555">
        <ele>53.2</ele>
        <time>2021-05-27T11:09:17Z</time>
      </trkpt>
      <trkpt lat="47.6976" lon="-2.27561">
        <ele>53.2</ele>
        <time>2021-05-27T11:09:18Z</time>
      </trkpt>
      <trkpt lat="47.69761" lon="-2.27567">
        <ele>53</ele>
        <time>2021-05-27T11:09:19Z</time>
      </trkpt>
      <trkpt lat="47.69762" lon="-2.27573">
        <ele>53</ele>
        <time>2021-05-27T11:09:20Z</time>
      </trkpt>
      <trkpt lat="47.69763" lon="-2.27579">
        <ele>52.9</ele>
        <time>2021-05-27T11:09:21Z</time>
      </trkpt>
      <trkpt lat="47.69764" lon="-2.27586">
        <ele>52.8</ele>
        <time>2021-05-27T11:09:22Z</time>
      </trkpt>
      <trkpt lat="47.69764" lon="-2.27592">
        <ele>52.7</ele>
        <time>2021-05-27T11:09:23Z</time>
      </trkpt>
      <trkpt lat="47.69765" lon="-2.27599">
        <ele>52.6</ele>
        <time>2021-05-27T11:09:24Z</time>
      </trkpt>
      <trkpt lat="47.69765" lon="-2.27605">
        <ele>52.5</ele>
        <time>2021-05-27T11:09:25Z</time>
      </trkpt>
      <trkpt lat="47.69766" lon="-2.2761">
        <ele>52.4</ele>
        <time>2021-05-27T11:09:26Z</time>
      </trkpt>
      <trkpt lat="47.69766" lon="-2.27615">
        <ele>52.3</ele>
        <time>2021-05-27T11:09:27Z</time>
      </trkpt>
      <trkpt lat="47.69765" lon="-2.2762">
        <ele>52.1</ele>
        <time>2021-05-27T11:09:28Z</time>
      </trkpt>
      <trkpt lat="47.69766" lon="-2.27625">
        <ele>52.1</ele>
        <time>2021-05-27T11:09:29Z</time>
      </trkpt>
      <trkpt lat="47.69766" lon="-2.2763">
        <ele>52</ele>
        <time>2021-05-27T11:09:30Z</time>
      </trkpt>
      <trkpt lat="47.69767" lon="-2.27634">
        <ele>52</ele>
        <time>2021-05-27T11:09:31Z</time>
      </trkpt>
      <trkpt lat="47.69767" lon="-2.27639">
        <ele>51.9</ele>
        <time>2021-05-27T11:09:32Z</time>
      </trkpt>
      <trkpt lat="47.69768" lon="-2.27643">
        <ele>51.9</ele>
        <time>2021-05-27T11:09:33Z</time>
      </trkpt>
      <trkpt lat="47.69768" lon="-2.27646">
        <ele>51.9</ele>
        <time>2021-05-27T11:09:34Z</time>
      </trkpt>
      <trkpt lat="47.69769" lon="-2.27651">
        <ele>51.9</ele>
        <time>2021-05-27T11:09:35Z</time>
      </trkpt>
      <trkpt lat="47.6977" lon="-2.27656">
        <ele>51.9</ele>
        <time>2021-05-27T11:09:36Z</time>
      </trkpt>
      <trkpt lat="47.69771" lon="-2.2766">
        <ele>52</ele>
        <time>2021-05-27T11:09:37Z</time>
      </trkpt>
      <trkpt lat="47.69773" lon="-2.27665">
        <ele>52</ele>
        <time>2021-05-27T11:09:38Z</time>
      </trkpt>
      <trkpt lat="47.69774" lon="-2.27671">
        <ele>52.2</ele>
        <time>2021-05-27T11:09:39Z</time>
      </trkpt>
      <trkpt lat="47.69775" lon="-2.27676">
        <ele>52.2</ele>
        <time>2021-05-27T11:09:40Z</time>
      </trkpt>
      <trkpt lat="47.69775" lon="-2.27681">
        <ele>52.2</ele>
        <time>2021-05-27T11:09:41Z</time>
      </trkpt>
      <trkpt lat="47.69776" lon="-2.27686">
        <ele>52.3</ele>
        <time>2021-05-27T11:09:42Z</time>
      </trkpt>
      <trkpt lat="47.69777" lon="-2.27691">
        <ele>52.4</ele>
        <time>2021-05-27T11:09:43Z</time>
      </trkpt>
      <trkpt lat="47.69778" lon="-2.27696">
        <ele>52.6</ele>
        <time>2021-05-27T11:09:44Z</time>
      </trkpt>
      <trkpt lat="47.69779" lon="-2.27701">
        <ele>52.7</ele>
        <time>2021-05-27T11:09:45Z</time>
      </trkpt>
      <trkpt lat="47.6978" lon="-2.27707">
        <ele>52.7</ele>
        <time>2021-05-27T11:09:46Z</time>
      </trkpt>
      <trkpt lat="47.6978" lon="-2.27712">
        <ele>52.7</ele>
        <time>2021-05-27T11:09:47Z</time>
      </trkpt>
      <trkpt lat="47.69781" lon="-2.2772">
        <ele>52.8</ele>
        <time>2021-05-27T11:09:48Z</time>
      </trkpt>
      <trkpt lat="47.69782" lon="-2.27726">
        <ele>52.9</ele>
        <time>2021-05-27T11:09:49Z</time>
      </trkpt>
      <trkpt lat="47.69783" lon="-2.27731">
        <ele>53.1</ele>
        <time>2021-05-27T11:09:50Z</time>
      </trkpt>
      <trkpt lat="47.69784" lon="-2.27736">
        <ele>53.2</ele>
        <time>2021-05-27T11:09:51Z</time>
      </trkpt>
      <trkpt lat="47.69785" lon="-2.2774">
        <ele>53.2</ele>
        <time>2021-05-27T11:09:52Z</time>
      </trkpt>
      <trkpt lat="47.69786" lon="-2.27746">
        <ele>53.3</ele>
        <time>2021-05-27T11:09:53Z</time>
      </trkpt>
      <trkpt lat="47.69788" lon="-2.27753">
        <ele>53.5</ele>
        <time>2021-05-27T11:09:54Z</time>
      </trkpt>
      <trkpt lat="47.6979" lon="-2.27758">
        <ele>53.7</ele>
        <time>2021-05-27T11:09:55Z</time>
      </trkpt>
      <trkpt lat="47.69791" lon="-2.27762">
        <ele>53.8</ele>
        <time>2021-05-27T11:09:56Z</time>
      </trkpt>
      <trkpt lat="47.69792" lon="-2.27767">
        <ele>53.9</ele>
        <time>2021-05-27T11:09:57Z</time>
      </trkpt>
      <trkpt lat="47.69793" lon="-2.27771">
        <ele>53.9</ele>
        <time>2021-05-27T11:09:58Z</time>
      </trkpt>
      <trkpt lat="47.69793" lon="-2.27774">
        <ele>53.9</ele>
        <time>2021-05-27T11:09:59Z</time>
      </trkpt>
      <trkpt lat="47.69792" lon="-2.27777">
        <ele>53.7</ele>
        <time>2021-05-27T11:10:00Z</time>
      </trkpt>
      <trkpt lat="47.69792" lon="-2.27778">
        <ele>53.7</ele>
        <time>2021-05-27T11:10:01Z</time>
      </trkpt>
      <trkpt lat="47.69793" lon="-2.27779">
        <ele>53.8</ele>
        <time>2021-05-27T11:10:02Z</time>
      </trkpt>
      <trkpt lat="47.69793" lon="-2.27779">
        <ele>53.8</ele>
        <time>2021-05-27T11:10:03Z</time>
      </trkpt>
      <trkpt lat="47.69793" lon="-2.27779">
        <ele>53.8</ele>
        <time>2021-05-27T11:10:04Z</time>
      </trkpt>
      <trkpt lat="47.69793" lon="-2.27779">
        <ele>53.8</ele>
        <time>2021-05-27T11:10:05Z</time>
      </trkpt>
      <trkpt lat="47.69793" lon="-2.27779">
        <ele>53.8</ele>
        <time>2021-05-27T11:10:06Z</time>
      </trkpt>
      <trkpt lat="47.69793" lon="-2.27779">
        <ele>53.8</ele>
        <time>2021-05-27T11:10:07Z</time>
      </trkpt>
      <trkpt lat="47.69793" lon="-2.27779">
        <ele>53.8</ele>
        <time>2021-05-27T11:10:08Z</time>
      </trkpt>
      <trkpt lat="47.69793" lon="-2.27779">
        <ele>53.8</ele>
        <time>2021-05-27T11:10:09Z</time>
      </trkpt>
      <trkpt lat="47.69793" lon="-2.27779">
        <ele>53.8</ele>
        <time>2021-05-27T11:10:10Z</time>
      </trkpt>
      <trkpt lat="47.69793" lon="-2.27779">
        <ele>53.8</ele>
        <time>2021-05-27T11:10:11Z</time>
      </trkpt>
      <trkpt lat="47.69793" lon="-2.27779">
        <ele>53.8</ele>
        <time>2021-05-27T11:10:12Z</time>
      </trkpt>
      <trkpt lat="47.69793" lon="-2.27779">
        <ele>53.8</ele>
        <time>2021-05-27T11:10:13Z</time>
      </trkpt>
      <trkpt lat="47.69796" lon="-2.27792">
        <ele>54.1</ele>
        <time>2021-05-27T11:10:14Z</time>
      </trkpt>
      <trkpt lat="47.69796" lon="-2.27793">
        <ele>54.1</ele>
        <time>2021-05-27T11:10:15Z</time>
      </trkpt>
      <trkpt lat="47.69796" lon="-2.27795">
        <ele>54</ele>
        <time>2021-05-27T11:10:16Z</time>
      </trkpt>
      <trkpt lat="47.69796" lon="-2.27797">
        <ele>54</ele>
        <time>2021-05-27T11:10:17Z</time>
      </trkpt>
      <trkpt lat="47.69796" lon="-2.27797">
        <ele>54</ele>
        <time>2021-05-27T11:10:18Z</time>
      </trkpt>
      <trkpt lat="47.69796" lon="-2.27797">
        <ele>54</ele>
        <time>2021-05-27T11:10:19Z</time>
      </trkpt>
      <trkpt lat="47.69796" lon="-2.27797">
        <ele>54</ele>
        <time>2021-05-27T11:10:20Z</time>
      </trkpt>
      <trkpt lat="47.69796" lon="-2.27797">
        <ele>54</ele>
        <time>2021-05-27T11:10:21Z</time>
      </trkpt>
      <trkpt lat="47.69796" lon="-2.27797">
        <ele>54</ele>
        <time>2021-05-27T11:10:22Z</time>
      </trkpt>
      <trkpt lat="47.69796" lon="-2.27797">
        <ele>54</ele>
        <time>2021-05-27T11:10:23Z</time>
      </trkpt>
      <trkpt lat="47.69796" lon="-2.27797">
        <ele>54</ele>
        <time>2021-05-27T11:10:24Z</time>
      </trkpt>
      <trkpt lat="47.69796" lon="-2.27797">
        <ele>54</ele>
        <time>2021-05-27T11:10:25Z</time>
      </trkpt>
      <trkpt lat="47.69795" lon="-2.27811">
        <ele>53.7</ele>
        <time>2021-05-27T11:10:26Z</time>
      </trkpt>
      <trkpt lat="47.69796" lon="-2.27817">
        <ele>53.7</ele>
        <time>2021-05-27T11:10:27Z</time>
      </trkpt>
      <trkpt lat="47.69795" lon="-2.27817">
        <ele>53.6</ele>
        <time>2021-05-27T11:10:28Z</time>
      </trkpt>
      <trkpt lat="47.69795" lon="-2.27817">
        <ele>53.6</ele>
        <time>2021-05-27T11:10:29Z</time>
      </trkpt>
      <trkpt lat="47.69795" lon="-2.27817">
        <ele>53.6</ele>
        <time>2021-05-27T11:10:30Z</time>
      </trkpt>
      <trkpt lat="47.69795" lon="-2.27817">
        <ele>53.6</ele>
        <time>2021-05-27T11:10:31Z</time>
      </trkpt>
      <trkpt lat="47.69795" lon="-2.27817">
        <ele>53.6</ele>
        <time>2021-05-27T11:10:32Z</time>
      </trkpt>
      <trkpt lat="47.69795" lon="-2.27817">
        <ele>53.6</ele>
        <time>2021-05-27T11:10:33Z</time>
      </trkpt>
      <trkpt lat="47.69795" lon="-2.27817">
        <ele>53.6</ele>
        <time>2021-05-27T11:10:34Z</time>
      </trkpt>
      <trkpt lat="47.69795" lon="-2.27817">
        <ele>53.6</ele>
        <time>2021-05-27T11:10:35Z</time>
      </trkpt>
      <trkpt lat="47.69795" lon="-2.27817">
        <ele>53.6</ele>
        <time>2021-05-27T11:10:36Z</time>
      </trkpt>
      <trkpt lat="47.69795" lon="-2.27817">
        <ele>53.6</ele>
        <time>2021-05-27T11:10:37Z</time>
      </trkpt>
      <trkpt lat="47.69795" lon="-2.27817">
        <ele>53.6</ele>
        <time>2021-05-27T11:10:38Z</time>
      </trkpt>
      <trkpt lat="47.69795" lon="-2.27817">
        <ele>53.6</ele>
        <time>2021-05-27T11:10:39Z</time>
      </trkpt>
      <trkpt lat="47.69795" lon="-2.27817">
        <ele>53.6</ele>
        <time>2021-05-27T11:10:40Z</time>
      </trkpt>
      <trkpt lat="47.69795" lon="-2.27817">
        <ele>53.6</ele>
        <time>2021-05-27T11:10:41Z</time>
      </trkpt>
      <trkpt lat="47.69795" lon="-2.27817">
        <ele>53.6</ele>
        <time>2021-05-27T11:10:42Z</time>
      </trkpt>
      <trkpt lat="47.69795" lon="-2.27817">
        <ele>53.6</ele>
        <time>2021-05-27T11:10:43Z</time>
      </trkpt>
      <trkpt lat="47.69795" lon="-2.27817">
        <ele>53.6</ele>
        <time>2021-05-27T11:10:44Z</time>
      </trkpt>
      <trkpt lat="47.69795" lon="-2.27817">
        <ele>53.6</ele>
        <time>2021-05-27T11:10:45Z</time>
      </trkpt>
      <trkpt lat="47.69795" lon="-2.27817">
        <ele>53.6</ele>
        <time>2021-05-27T11:10:46Z</time>
      </trkpt>
      <trkpt lat="47.69795" lon="-2.27817">
        <ele>53.6</ele>
        <time>2021-05-27T11:10:47Z</time>
      </trkpt>
      <trkpt lat="47.69795" lon="-2.27817">
        <ele>53.6</ele>
        <time>2021-05-27T11:10:48Z</time>
      </trkpt>
      <trkpt lat="47.69795" lon="-2.27817">
        <ele>53.6</ele>
        <time>2021-05-27T11:10:49Z</time>
      </trkpt>
      <trkpt lat="47.69795" lon="-2.27817">
        <ele>53.6</ele>
        <time>2021-05-27T11:10:50Z</time>
      </trkpt>
      <trkpt lat="47.69795" lon="-2.27817">
        <ele>53.6</ele>
        <time>2021-05-27T11:10:51Z</time>
      </trkpt>
      <trkpt lat="47.69795" lon="-2.27817">
        <ele>53.6</ele>
        <time>2021-05-27T11:10:52Z</time>
      </trkpt>
      <trkpt lat="47.69795" lon="-2.27817">
        <ele>53.6</ele>
        <time>2021-05-27T11:10:53Z</time>
      </trkpt>
      <trkpt lat="47.69795" lon="-2.27817">
        <ele>53.6</ele>
        <time>2021-05-27T11:10:54Z</time>
      </trkpt>
      <trkpt lat="47.69795" lon="-2.27817">
        <ele>53.6</ele>
        <time>2021-05-27T11:10:55Z</time>
      </trkpt>
      <trkpt lat="47.69795" lon="-2.27817">
        <ele>53.6</ele>
        <time>2021-05-27T11:10:56Z</time>
      </trkpt>
      <trkpt lat="47.69795" lon="-2.27817">
        <ele>53.6</ele>
        <time>2021-05-27T11:10:57Z</time>
      </trkpt>
      <trkpt lat="47.69795" lon="-2.27817">
        <ele>53.6</ele>
        <time>2021-05-27T11:10:58Z</time>
      </trkpt>
      <trkpt lat="47.69795" lon="-2.27817">
        <ele>53.6</ele>
        <time>2021-05-27T11:10:59Z</time>
      </trkpt>
      <trkpt lat="47.69795" lon="-2.27817">
        <ele>53.6</ele>
        <time>2021-05-27T11:11:00Z</time>
      </trkpt>
      <trkpt lat="47.69794" lon="-2.27833">
        <ele>53.3</ele>
        <time>2021-05-27T11:11:01Z</time>
      </trkpt>
      <trkpt lat="47.69794" lon="-2.27835">
        <ele>53.3</ele>
        <time>2021-05-27T11:11:02Z</time>
      </trkpt>
      <trkpt lat="47.69795" lon="-2.27839">
        <ele>53.3</ele>
        <time>2021-05-27T11:11:03Z</time>
      </trkpt>
      <trkpt lat="47.69796" lon="-2.27842">
        <ele>53.4</ele>
        <time>2021-05-27T11:11:04Z</time>
      </trkpt>
      <trkpt lat="47.69797" lon="-2.27847">
        <ele>53.6</ele>
        <time>2021-05-27T11:11:05Z</time>
      </trkpt>
      <trkpt lat="47.69798" lon="-2.27851">
        <ele>53.6</ele>
        <time>2021-05-27T11:11:06Z</time>
      </trkpt>
      <trkpt lat="47.69798" lon="-2.27855">
        <ele>53.7</ele>
        <time>2021-05-27T11:11:07Z</time>
      </trkpt>
      <trkpt lat="47.69799" lon="-2.27858">
        <ele>53.7</ele>
        <time>2021-05-27T11:11:08Z</time>
      </trkpt>
      <trkpt lat="47.698" lon="-2.27862">
        <ele>53.9</ele>
        <time>2021-05-27T11:11:09Z</time>
      </trkpt>
      <trkpt lat="47.69801" lon="-2.27867">
        <ele>53.9</ele>
        <time>2021-05-27T11:11:10Z</time>
      </trkpt>
      <trkpt lat="47.69802" lon="-2.27872">
        <ele>54</ele>
        <time>2021-05-27T11:11:11Z</time>
      </trkpt>
      <trkpt lat="47.69802" lon="-2.27876">
        <ele>54</ele>
        <time>2021-05-27T11:11:12Z</time>
      </trkpt>
      <trkpt lat="47.69802" lon="-2.2788">
        <ele>54.1</ele>
        <time>2021-05-27T11:11:13Z</time>
      </trkpt>
      <trkpt lat="47.69802" lon="-2.27885">
        <ele>54</ele>
        <time>2021-05-27T11:11:14Z</time>
      </trkpt>
      <trkpt lat="47.69802" lon="-2.27891">
        <ele>54</ele>
        <time>2021-05-27T11:11:15Z</time>
      </trkpt>
      <trkpt lat="47.69802" lon="-2.27897">
        <ele>54</ele>
        <time>2021-05-27T11:11:16Z</time>
      </trkpt>
      <trkpt lat="47.69802" lon="-2.27903">
        <ele>54</ele>
        <time>2021-05-27T11:11:17Z</time>
      </trkpt>
      <trkpt lat="47.69802" lon="-2.27908">
        <ele>53.9</ele>
        <time>2021-05-27T11:11:18Z</time>
      </trkpt>
      <trkpt lat="47.69802" lon="-2.27915">
        <ele>53.8</ele>
        <time>2021-05-27T11:11:19Z</time>
      </trkpt>
      <trkpt lat="47.69801" lon="-2.2792">
        <ele>53.7</ele>
        <time>2021-05-27T11:11:20Z</time>
      </trkpt>
      <trkpt lat="47.698" lon="-2.27926">
        <ele>53.5</ele>
        <time>2021-05-27T11:11:21Z</time>
      </trkpt>
      <trkpt lat="47.69798" lon="-2.27932">
        <ele>53.2</ele>
        <time>2021-05-27T11:11:22Z</time>
      </trkpt>
      <trkpt lat="47.69797" lon="-2.27938">
        <ele>53</ele>
        <time>2021-05-27T11:11:23Z</time>
      </trkpt>
      <trkpt lat="47.69797" lon="-2.27944">
        <ele>52.9</ele>
        <time>2021-05-27T11:11:24Z</time>
      </trkpt>
      <trkpt lat="47.69797" lon="-2.2795">
        <ele>52.9</ele>
        <time>2021-05-27T11:11:25Z</time>
      </trkpt>
      <trkpt lat="47.69798" lon="-2.27955">
        <ele>52.9</ele>
        <time>2021-05-27T11:11:26Z</time>
      </trkpt>
      <trkpt lat="47.69798" lon="-2.27962">
        <ele>52.8</ele>
        <time>2021-05-27T11:11:27Z</time>
      </trkpt>
      <trkpt lat="47.69798" lon="-2.27968">
        <ele>52.8</ele>
        <time>2021-05-27T11:11:28Z</time>
      </trkpt>
      <trkpt lat="47.69797" lon="-2.27975">
        <ele>52.6</ele>
        <time>2021-05-27T11:11:29Z</time>
      </trkpt>
      <trkpt lat="47.69797" lon="-2.27981">
        <ele>52.5</ele>
        <time>2021-05-27T11:11:30Z</time>
      </trkpt>
      <trkpt lat="47.69798" lon="-2.27988">
        <ele>52.6</ele>
        <time>2021-05-27T11:11:31Z</time>
      </trkpt>
      <trkpt lat="47.69799" lon="-2.27993">
        <ele>52.7</ele>
        <time>2021-05-27T11:11:32Z</time>
      </trkpt>
      <trkpt lat="47.698" lon="-2.27998">
        <ele>52.8</ele>
        <time>2021-05-27T11:11:33Z</time>
      </trkpt>
      <trkpt lat="47.698" lon="-2.28004">
        <ele>52.8</ele>
        <time>2021-05-27T11:11:34Z</time>
      </trkpt>
      <trkpt lat="47.69801" lon="-2.2801">
        <ele>52.8</ele>
        <time>2021-05-27T11:11:35Z</time>
      </trkpt>
      <trkpt lat="47.69802" lon="-2.28016">
        <ele>52.9</ele>
        <time>2021-05-27T11:11:36Z</time>
      </trkpt>
      <trkpt lat="47.69802" lon="-2.28022">
        <ele>53</ele>
        <time>2021-05-27T11:11:37Z</time>
      </trkpt>
      <trkpt lat="47.69803" lon="-2.28029">
        <ele>53</ele>
        <time>2021-05-27T11:11:38Z</time>
      </trkpt>
      <trkpt lat="47.69803" lon="-2.28037">
        <ele>52.8</ele>
        <time>2021-05-27T11:11:39Z</time>
      </trkpt>
      <trkpt lat="47.69802" lon="-2.28045">
        <ele>52.7</ele>
        <time>2021-05-27T11:11:40Z</time>
      </trkpt>
      <trkpt lat="47.69802" lon="-2.28053">
        <ele>52.6</ele>
        <time>2021-05-27T11:11:41Z</time>
      </trkpt>
      <trkpt lat="47.69803" lon="-2.2806">
        <ele>52.6</ele>
        <time>2021-05-27T11:11:42Z</time>
      </trkpt>
      <trkpt lat="47.69803" lon="-2.28067">
        <ele>52.6</ele>
        <time>2021-05-27T11:11:43Z</time>
      </trkpt>
      <trkpt lat="47.69804" lon="-2.28074">
        <ele>52.6</ele>
        <time>2021-05-27T11:11:44Z</time>
      </trkpt>
      <trkpt lat="47.69805" lon="-2.28081">
        <ele>52.6</ele>
        <time>2021-05-27T11:11:45Z</time>
      </trkpt>
      <trkpt lat="47.69806" lon="-2.28087">
        <ele>52.7</ele>
        <time>2021-05-27T11:11:46Z</time>
      </trkpt>
      <trkpt lat="47.69806" lon="-2.28093">
        <ele>52.6</ele>
        <time>2021-05-27T11:11:47Z</time>
      </trkpt>
      <trkpt lat="47.69806" lon="-2.28099">
        <ele>52.7</ele>
        <time>2021-05-27T11:11:48Z</time>
      </trkpt>
      <trkpt lat="47.69807" lon="-2.28105">
        <ele>52.7</ele>
        <time>2021-05-27T11:11:49Z</time>
      </trkpt>
      <trkpt lat="47.69808" lon="-2.28111">
        <ele>52.7</ele>
        <time>2021-05-27T11:11:50Z</time>
      </trkpt>
      <trkpt lat="47.69808" lon="-2.28118">
        <ele>52.8</ele>
        <time>2021-05-27T11:11:51Z</time>
      </trkpt>
      <trkpt lat="47.69808" lon="-2.28124">
        <ele>52.6</ele>
        <time>2021-05-27T11:11:52Z</time>
      </trkpt>
      <trkpt lat="47.69808" lon="-2.28131">
        <ele>52.6</ele>
        <time>2021-05-27T11:11:53Z</time>
      </trkpt>
      <trkpt lat="47.69807" lon="-2.28138">
        <ele>52.4</ele>
        <time>2021-05-27T11:11:54Z</time>
      </trkpt>
      <trkpt lat="47.69806" lon="-2.28144">
        <ele>52.2</ele>
        <time>2021-05-27T11:11:55Z</time>
      </trkpt>
      <trkpt lat="47.69806" lon="-2.2815">
        <ele>52.2</ele>
        <time>2021-05-27T11:11:56Z</time>
      </trkpt>
      <trkpt lat="47.69806" lon="-2.28157">
        <ele>52.2</ele>
        <time>2021-05-27T11:11:57Z</time>
      </trkpt>
      <trkpt lat="47.69806" lon="-2.28163">
        <ele>52</ele>
        <time>2021-05-27T11:11:58Z</time>
      </trkpt>
      <trkpt lat="47.69805" lon="-2.28169">
        <ele>51.9</ele>
        <time>2021-05-27T11:11:59Z</time>
      </trkpt>
      <trkpt lat="47.69806" lon="-2.28175">
        <ele>52</ele>
        <time>2021-05-27T11:12:00Z</time>
      </trkpt>
      <trkpt lat="47.69807" lon="-2.28182">
        <ele>52</ele>
        <time>2021-05-27T11:12:01Z</time>
      </trkpt>
      <trkpt lat="47.69806" lon="-2.28188">
        <ele>51.9</ele>
        <time>2021-05-27T11:12:02Z</time>
      </trkpt>
      <trkpt lat="47.69807" lon="-2.28193">
        <ele>51.9</ele>
        <time>2021-05-27T11:12:03Z</time>
      </trkpt>
      <trkpt lat="47.69807" lon="-2.28198">
        <ele>51.8</ele>
        <time>2021-05-27T11:12:04Z</time>
      </trkpt>
      <trkpt lat="47.69807" lon="-2.28203">
        <ele>51.8</ele>
        <time>2021-05-27T11:12:05Z</time>
      </trkpt>
      <trkpt lat="47.69806" lon="-2.28207">
        <ele>51.6</ele>
        <time>2021-05-27T11:12:06Z</time>
      </trkpt>
      <trkpt lat="47.69806" lon="-2.28211">
        <ele>51.6</ele>
        <time>2021-05-27T11:12:07Z</time>
      </trkpt>
      <trkpt lat="47.69806" lon="-2.28214">
        <ele>51.4</ele>
        <time>2021-05-27T11:12:08Z</time>
      </trkpt>
      <trkpt lat="47.69806" lon="-2.28217">
        <ele>51.4</ele>
        <time>2021-05-27T11:12:09Z</time>
      </trkpt>
      <trkpt lat="47.69807" lon="-2.28219">
        <ele>51.6</ele>
        <time>2021-05-27T11:12:10Z</time>
      </trkpt>
      <trkpt lat="47.69807" lon="-2.2822">
        <ele>51.6</ele>
        <time>2021-05-27T11:12:11Z</time>
      </trkpt>
      <trkpt lat="47.69808" lon="-2.2822">
        <ele>51.7</ele>
        <time>2021-05-27T11:12:12Z</time>
      </trkpt>
      <trkpt lat="47.69808" lon="-2.2822">
        <ele>51.7</ele>
        <time>2021-05-27T11:12:13Z</time>
      </trkpt>
      <trkpt lat="47.69808" lon="-2.2822">
        <ele>51.7</ele>
        <time>2021-05-27T11:12:14Z</time>
      </trkpt>
      <trkpt lat="47.69812" lon="-2.28221">
        <ele>52.3</ele>
        <time>2021-05-27T11:12:15Z</time>
      </trkpt>
      <trkpt lat="47.69814" lon="-2.28222">
        <ele>52.6</ele>
        <time>2021-05-27T11:12:16Z</time>
      </trkpt>
      <trkpt lat="47.69816" lon="-2.28222">
        <ele>52.8</ele>
        <time>2021-05-27T11:12:17Z</time>
      </trkpt>
      <trkpt lat="47.69817" lon="-2.28223">
        <ele>53</ele>
        <time>2021-05-27T11:12:18Z</time>
      </trkpt>
      <trkpt lat="47.69818" lon="-2.28223">
        <ele>53.1</ele>
        <time>2021-05-27T11:12:19Z</time>
      </trkpt>
      <trkpt lat="47.69817" lon="-2.28222">
        <ele>53</ele>
        <time>2021-05-27T11:12:20Z</time>
      </trkpt>
      <trkpt lat="47.69817" lon="-2.28222">
        <ele>53</ele>
        <time>2021-05-27T11:12:21Z</time>
      </trkpt>
      <trkpt lat="47.69817" lon="-2.28222">
        <ele>53</ele>
        <time>2021-05-27T11:12:22Z</time>
      </trkpt>
      <trkpt lat="47.69817" lon="-2.28222">
        <ele>53</ele>
        <time>2021-05-27T11:12:23Z</time>
      </trkpt>
      <trkpt lat="47.69817" lon="-2.28222">
        <ele>53</ele>
        <time>2021-05-27T11:12:24Z</time>
      </trkpt>
      <trkpt lat="47.69817" lon="-2.28222">
        <ele>53</ele>
        <time>2021-05-27T11:12:25Z</time>
      </trkpt>
      <trkpt lat="47.69817" lon="-2.28222">
        <ele>53</ele>
        <time>2021-05-27T11:12:26Z</time>
      </trkpt>
      <trkpt lat="47.69817" lon="-2.28222">
        <ele>53</ele>
        <time>2021-05-27T11:12:27Z</time>
      </trkpt>
      <trkpt lat="47.6982" lon="-2.28213">
        <ele>53.5</ele>
        <time>2021-05-27T11:12:28Z</time>
      </trkpt>
      <trkpt lat="47.69821" lon="-2.28211">
        <ele>53.6</ele>
        <time>2021-05-27T11:12:29Z</time>
      </trkpt>
      <trkpt lat="47.69822" lon="-2.28208">
        <ele>53.9</ele>
        <time>2021-05-27T11:12:30Z</time>
      </trkpt>
      <trkpt lat="47.69824" lon="-2.28205">
        <ele>54.1</ele>
        <time>2021-05-27T11:12:31Z</time>
      </trkpt>
      <trkpt lat="47.69825" lon="-2.28203">
        <ele>54.3</ele>
        <time>2021-05-27T11:12:32Z</time>
      </trkpt>
      <trkpt lat="47.69826" lon="-2.28198">
        <ele>54.5</ele>
        <time>2021-05-27T11:12:33Z</time>
      </trkpt>
      <trkpt lat="47.69826" lon="-2.28195">
        <ele>54.6</ele>
        <time>2021-05-27T11:12:34Z</time>
      </trkpt>
      <trkpt lat="47.69827" lon="-2.28193">
        <ele>54.7</ele>
        <time>2021-05-27T11:12:35Z</time>
      </trkpt>
      <trkpt lat="47.69828" lon="-2.2819">
        <ele>54.9</ele>
        <time>2021-05-27T11:12:36Z</time>
      </trkpt>
      <trkpt lat="47.69829" lon="-2.28187">
        <ele>55.2</ele>
        <time>2021-05-27T11:12:37Z</time>
      </trkpt>
      <trkpt lat="47.69831" lon="-2.28186">
        <ele>55.4</ele>
        <time>2021-05-27T11:12:38Z</time>
      </trkpt>
      <trkpt lat="47.69832" lon="-2.28184">
        <ele>55.6</ele>
        <time>2021-05-27T11:12:39Z</time>
      </trkpt>
      <trkpt lat="47.69834" lon="-2.28184">
        <ele>55.9</ele>
        <time>2021-05-27T11:12:40Z</time>
      </trkpt>
      <trkpt lat="47.69836" lon="-2.28183">
        <ele>56.2</ele>
        <time>2021-05-27T11:12:41Z</time>
      </trkpt>
      <trkpt lat="47.69838" lon="-2.28183">
        <ele>56.6</ele>
        <time>2021-05-27T11:12:42Z</time>
      </trkpt>
      <trkpt lat="47.69839" lon="-2.28183">
        <ele>56.7</ele>
        <time>2021-05-27T11:12:43Z</time>
      </trkpt>
      <trkpt lat="47.69839" lon="-2.28182">
        <ele>56.8</ele>
        <time>2021-05-27T11:12:44Z</time>
      </trkpt>
      <trkpt lat="47.69841" lon="-2.28181">
        <ele>57.1</ele>
        <time>2021-05-27T11:12:45Z</time>
      </trkpt>
      <trkpt lat="47.69842" lon="-2.2818">
        <ele>57.2</ele>
        <time>2021-05-27T11:12:46Z</time>
      </trkpt>
      <trkpt lat="47.69844" lon="-2.28179">
        <ele>57.5</ele>
        <time>2021-05-27T11:12:47Z</time>
      </trkpt>
      <trkpt lat="47.69845" lon="-2.28178">
        <ele>57.6</ele>
        <time>2021-05-27T11:12:48Z</time>
      </trkpt>
      <trkpt lat="47.69846" lon="-2.28178">
        <ele>57.8</ele>
        <time>2021-05-27T11:12:49Z</time>
      </trkpt>
      <trkpt lat="47.69848" lon="-2.28177">
        <ele>58.2</ele>
        <time>2021-05-27T11:12:50Z</time>
      </trkpt>
      <trkpt lat="47.69849" lon="-2.28176">
        <ele>58.4</ele>
        <time>2021-05-27T11:12:51Z</time>
      </trkpt>
      <trkpt lat="47.6985" lon="-2.28174">
        <ele>58.5</ele>
        <time>2021-05-27T11:12:52Z</time>
      </trkpt>
      <trkpt lat="47.69851" lon="-2.28173">
        <ele>58.7</ele>
        <time>2021-05-27T11:12:53Z</time>
      </trkpt>
      <trkpt lat="47.69852" lon="-2.2817">
        <ele>58.9</ele>
        <time>2021-05-27T11:12:54Z</time>
      </trkpt>
      <trkpt lat="47.69852" lon="-2.28168">
        <ele>59</ele>
        <time>2021-05-27T11:12:55Z</time>
      </trkpt>
      <trkpt lat="47.69853" lon="-2.28165">
        <ele>59.1</ele>
        <time>2021-05-27T11:12:56Z</time>
      </trkpt>
      <trkpt lat="47.69855" lon="-2.28163">
        <ele>59.3</ele>
        <time>2021-05-27T11:12:57Z</time>
      </trkpt>
      <trkpt lat="47.69855" lon="-2.28161">
        <ele>59.4</ele>
        <time>2021-05-27T11:12:58Z</time>
      </trkpt>
      <trkpt lat="47.69856" lon="-2.28159">
        <ele>59.5</ele>
        <time>2021-05-27T11:12:59Z</time>
      </trkpt>
      <trkpt lat="47.69856" lon="-2.28157">
        <ele>59.5</ele>
        <time>2021-05-27T11:13:00Z</time>
      </trkpt>
      <trkpt lat="47.69856" lon="-2.28157">
        <ele>59.5</ele>
        <time>2021-05-27T11:13:01Z</time>
      </trkpt>
      <trkpt lat="47.69857" lon="-2.28151">
        <ele>59.6</ele>
        <time>2021-05-27T11:13:02Z</time>
      </trkpt>
      <trkpt lat="47.69858" lon="-2.28147">
        <ele>59.9</ele>
        <time>2021-05-27T11:13:03Z</time>
      </trkpt>
      <trkpt lat="47.6986" lon="-2.28145">
        <ele>60</ele>
        <time>2021-05-27T11:13:04Z</time>
      </trkpt>
      <trkpt lat="47.69861" lon="-2.28144">
        <ele>60.3</ele>
        <time>2021-05-27T11:13:05Z</time>
      </trkpt>
      <trkpt lat="47.69863" lon="-2.28143">
        <ele>60.6</ele>
        <time>2021-05-27T11:13:06Z</time>
      </trkpt>
      <trkpt lat="47.69865" lon="-2.28142">
        <ele>60.8</ele>
        <time>2021-05-27T11:13:07Z</time>
      </trkpt>
      <trkpt lat="47.69866" lon="-2.28141">
        <ele>61</ele>
        <time>2021-05-27T11:13:08Z</time>
      </trkpt>
      <trkpt lat="47.69868" lon="-2.2814">
        <ele>61.2</ele>
        <time>2021-05-27T11:13:09Z</time>
      </trkpt>
      <trkpt lat="47.69868" lon="-2.28139">
        <ele>61.3</ele>
        <time>2021-05-27T11:13:10Z</time>
      </trkpt>
      <trkpt lat="47.69869" lon="-2.28137">
        <ele>61.5</ele>
        <time>2021-05-27T11:13:11Z</time>
      </trkpt>
      <trkpt lat="47.6987" lon="-2.28135">
        <ele>61.6</ele>
        <time>2021-05-27T11:13:12Z</time>
      </trkpt>
      <trkpt lat="47.69871" lon="-2.28133">
        <ele>61.7</ele>
        <time>2021-05-27T11:13:13Z</time>
      </trkpt>
      <trkpt lat="47.69871" lon="-2.2813">
        <ele>61.8</ele>
        <time>2021-05-27T11:13:14Z</time>
      </trkpt>
      <trkpt lat="47.69872" lon="-2.28127">
        <ele>61.8</ele>
        <time>2021-05-27T11:13:15Z</time>
      </trkpt>
      <trkpt lat="47.69873" lon="-2.28124">
        <ele>61.9</ele>
        <time>2021-05-27T11:13:16Z</time>
      </trkpt>
      <trkpt lat="47.69874" lon="-2.28122">
        <ele>62.1</ele>
        <time>2021-05-27T11:13:17Z</time>
      </trkpt>
      <trkpt lat="47.69876" lon="-2.28119">
        <ele>62.4</ele>
        <time>2021-05-27T11:13:18Z</time>
      </trkpt>
      <trkpt lat="47.69878" lon="-2.28117">
        <ele>62.6</ele>
        <time>2021-05-27T11:13:19Z</time>
      </trkpt>
      <trkpt lat="47.69879" lon="-2.28115">
        <ele>62.8</ele>
        <time>2021-05-27T11:13:20Z</time>
      </trkpt>
      <trkpt lat="47.6988" lon="-2.28112">
        <ele>62.9</ele>
        <time>2021-05-27T11:13:21Z</time>
      </trkpt>
      <trkpt lat="47.69881" lon="-2.28109">
        <ele>63.1</ele>
        <time>2021-05-27T11:13:22Z</time>
      </trkpt>
      <trkpt lat="47.69883" lon="-2.28107">
        <ele>63.3</ele>
        <time>2021-05-27T11:13:23Z</time>
      </trkpt>
      <trkpt lat="47.69884" lon="-2.28104">
        <ele>63.5</ele>
        <time>2021-05-27T11:13:24Z</time>
      </trkpt>
      <trkpt lat="47.69886" lon="-2.28101">
        <ele>63.7</ele>
        <time>2021-05-27T11:13:25Z</time>
      </trkpt>
      <trkpt lat="47.69888" lon="-2.28098">
        <ele>63.9</ele>
        <time>2021-05-27T11:13:26Z</time>
      </trkpt>
      <trkpt lat="47.6989" lon="-2.28095">
        <ele>64.2</ele>
        <time>2021-05-27T11:13:27Z</time>
      </trkpt>
      <trkpt lat="47.69891" lon="-2.28093">
        <ele>64.4</ele>
        <time>2021-05-27T11:13:28Z</time>
      </trkpt>
      <trkpt lat="47.69893" lon="-2.2809">
        <ele>64.6</ele>
        <time>2021-05-27T11:13:29Z</time>
      </trkpt>
      <trkpt lat="47.69894" lon="-2.28088">
        <ele>64.8</ele>
        <time>2021-05-27T11:13:30Z</time>
      </trkpt>
      <trkpt lat="47.69895" lon="-2.28085">
        <ele>65</ele>
        <time>2021-05-27T11:13:31Z</time>
      </trkpt>
      <trkpt lat="47.69897" lon="-2.28083">
        <ele>65.2</ele>
        <time>2021-05-27T11:13:32Z</time>
      </trkpt>
      <trkpt lat="47.69899" lon="-2.28081">
        <ele>65.5</ele>
        <time>2021-05-27T11:13:33Z</time>
      </trkpt>
      <trkpt lat="47.69901" lon="-2.28079">
        <ele>65.8</ele>
        <time>2021-05-27T11:13:34Z</time>
      </trkpt>
      <trkpt lat="47.69903" lon="-2.28076">
        <ele>66.1</ele>
        <time>2021-05-27T11:13:35Z</time>
      </trkpt>
      <trkpt lat="47.69904" lon="-2.28073">
        <ele>66.5</ele>
        <time>2021-05-27T11:13:36Z</time>
      </trkpt>
      <trkpt lat="47.69907" lon="-2.28071">
        <ele>66.8</ele>
        <time>2021-05-27T11:13:37Z</time>
      </trkpt>
      <trkpt lat="47.69908" lon="-2.28069">
        <ele>67.1</ele>
        <time>2021-05-27T11:13:38Z</time>
      </trkpt>
      <trkpt lat="47.6991" lon="-2.28065">
        <ele>67.4</ele>
        <time>2021-05-27T11:13:39Z</time>
      </trkpt>
      <trkpt lat="47.69911" lon="-2.28063">
        <ele>67.8</ele>
        <time>2021-05-27T11:13:40Z</time>
      </trkpt>
      <trkpt lat="47.69913" lon="-2.2806">
        <ele>68</ele>
        <time>2021-05-27T11:13:41Z</time>
      </trkpt>
      <trkpt lat="47.69914" lon="-2.28057">
        <ele>68.3</ele>
        <time>2021-05-27T11:13:42Z</time>
      </trkpt>
      <trkpt lat="47.69916" lon="-2.28054">
        <ele>68.6</ele>
        <time>2021-05-27T11:13:43Z</time>
      </trkpt>
      <trkpt lat="47.69917" lon="-2.28052">
        <ele>68.8</ele>
        <time>2021-05-27T11:13:44Z</time>
      </trkpt>
      <trkpt lat="47.69918" lon="-2.28049">
        <ele>68.9</ele>
        <time>2021-05-27T11:13:45Z</time>
      </trkpt>
      <trkpt lat="47.6992" lon="-2.28046">
        <ele>69.1</ele>
        <time>2021-05-27T11:13:46Z</time>
      </trkpt>
      <trkpt lat="47.69921" lon="-2.28043">
        <ele>69.2</ele>
        <time>2021-05-27T11:13:47Z</time>
      </trkpt>
      <trkpt lat="47.69922" lon="-2.28039">
        <ele>69.3</ele>
        <time>2021-05-27T11:13:48Z</time>
      </trkpt>
      <trkpt lat="47.69923" lon="-2.28035">
        <ele>69.5</ele>
        <time>2021-05-27T11:13:49Z</time>
      </trkpt>
      <trkpt lat="47.69924" lon="-2.28031">
        <ele>69.6</ele>
        <time>2021-05-27T11:13:50Z</time>
      </trkpt>
      <trkpt lat="47.69924" lon="-2.28027">
        <ele>69.7</ele>
        <time>2021-05-27T11:13:51Z</time>
      </trkpt>
      <trkpt lat="47.69925" lon="-2.28024">
        <ele>69.8</ele>
        <time>2021-05-27T11:13:52Z</time>
      </trkpt>
      <trkpt lat="47.69925" lon="-2.28021">
        <ele>69.9</ele>
        <time>2021-05-27T11:13:53Z</time>
      </trkpt>
      <trkpt lat="47.69926" lon="-2.28017">
        <ele>70</ele>
        <time>2021-05-27T11:13:54Z</time>
      </trkpt>
      <trkpt lat="47.69927" lon="-2.28014">
        <ele>70.1</ele>
        <time>2021-05-27T11:13:55Z</time>
      </trkpt>
      <trkpt lat="47.69927" lon="-2.2801">
        <ele>70.2</ele>
        <time>2021-05-27T11:13:56Z</time>
      </trkpt>
      <trkpt lat="47.69928" lon="-2.28006">
        <ele>70.3</ele>
        <time>2021-05-27T11:13:57Z</time>
      </trkpt>
      <trkpt lat="47.69928" lon="-2.28002">
        <ele>70.4</ele>
        <time>2021-05-27T11:13:58Z</time>
      </trkpt>
      <trkpt lat="47.69929" lon="-2.27998">
        <ele>70.5</ele>
        <time>2021-05-27T11:13:59Z</time>
      </trkpt>
      <trkpt lat="47.6993" lon="-2.27995">
        <ele>70.5</ele>
        <time>2021-05-27T11:14:00Z</time>
      </trkpt>
      <trkpt lat="47.6993" lon="-2.27991">
        <ele>70.6</ele>
        <time>2021-05-27T11:14:01Z</time>
      </trkpt>
      <trkpt lat="47.69931" lon="-2.27987">
        <ele>70.7</ele>
        <time>2021-05-27T11:14:02Z</time>
      </trkpt>
      <trkpt lat="47.69932" lon="-2.27983">
        <ele>70.8</ele>
        <time>2021-05-27T11:14:03Z</time>
      </trkpt>
      <trkpt lat="47.69933" lon="-2.27979">
        <ele>70.9</ele>
        <time>2021-05-27T11:14:04Z</time>
      </trkpt>
      <trkpt lat="47.69934" lon="-2.27975">
        <ele>71</ele>
        <time>2021-05-27T11:14:05Z</time>
      </trkpt>
      <trkpt lat="47.69935" lon="-2.27972">
        <ele>71.1</ele>
        <time>2021-05-27T11:14:06Z</time>
      </trkpt>
      <trkpt lat="47.69937" lon="-2.27968">
        <ele>71.2</ele>
        <time>2021-05-27T11:14:07Z</time>
      </trkpt>
      <trkpt lat="47.69938" lon="-2.27965">
        <ele>71.3</ele>
        <time>2021-05-27T11:14:08Z</time>
      </trkpt>
      <trkpt lat="47.69939" lon="-2.27961">
        <ele>71.4</ele>
        <time>2021-05-27T11:14:09Z</time>
      </trkpt>
      <trkpt lat="47.69941" lon="-2.27958">
        <ele>71.5</ele>
        <time>2021-05-27T11:14:10Z</time>
      </trkpt>
      <trkpt lat="47.69943" lon="-2.27955">
        <ele>71.6</ele>
        <time>2021-05-27T11:14:11Z</time>
      </trkpt>
      <trkpt lat="47.69944" lon="-2.27952">
        <ele>71.8</ele>
        <time>2021-05-27T11:14:12Z</time>
      </trkpt>
      <trkpt lat="47.69947" lon="-2.2795">
        <ele>71.9</ele>
        <time>2021-05-27T11:14:13Z</time>
      </trkpt>
      <trkpt lat="47.6995" lon="-2.27949">
        <ele>72</ele>
        <time>2021-05-27T11:14:14Z</time>
      </trkpt>
      <trkpt lat="47.69952" lon="-2.27951">
        <ele>72.1</ele>
        <time>2021-05-27T11:14:15Z</time>
      </trkpt>
      <trkpt lat="47.69954" lon="-2.27954">
        <ele>72.1</ele>
        <time>2021-05-27T11:14:16Z</time>
      </trkpt>
      <trkpt lat="47.69956" lon="-2.27956">
        <ele>72.2</ele>
        <time>2021-05-27T11:14:17Z</time>
      </trkpt>
      <trkpt lat="47.69958" lon="-2.27959">
        <ele>72.2</ele>
        <time>2021-05-27T11:14:18Z</time>
      </trkpt>
      <trkpt lat="47.6996" lon="-2.27961">
        <ele>72.3</ele>
        <time>2021-05-27T11:14:19Z</time>
      </trkpt>
      <trkpt lat="47.69961" lon="-2.27964">
        <ele>72.3</ele>
        <time>2021-05-27T11:14:20Z</time>
      </trkpt>
      <trkpt lat="47.69963" lon="-2.27968">
        <ele>72.3</ele>
        <time>2021-05-27T11:14:21Z</time>
      </trkpt>
      <trkpt lat="47.69965" lon="-2.27971">
        <ele>72.3</ele>
        <time>2021-05-27T11:14:22Z</time>
      </trkpt>
      <trkpt lat="47.69967" lon="-2.27975">
        <ele>72.3</ele>
        <time>2021-05-27T11:14:23Z</time>
      </trkpt>
      <trkpt lat="47.6997" lon="-2.27978">
        <ele>72.4</ele>
        <time>2021-05-27T11:14:24Z</time>
      </trkpt>
      <trkpt lat="47.69973" lon="-2.27981">
        <ele>72.4</ele>
        <time>2021-05-27T11:14:25Z</time>
      </trkpt>
      <trkpt lat="47.69976" lon="-2.27984">
        <ele>72.4</ele>
        <time>2021-05-27T11:14:26Z</time>
      </trkpt>
      <trkpt lat="47.69977" lon="-2.27988">
        <ele>72.4</ele>
        <time>2021-05-27T11:14:27Z</time>
      </trkpt>
      <trkpt lat="47.69978" lon="-2.27992">
        <ele>72.4</ele>
        <time>2021-05-27T11:14:28Z</time>
      </trkpt>
      <trkpt lat="47.69979" lon="-2.27996">
        <ele>72.3</ele>
        <time>2021-05-27T11:14:29Z</time>
      </trkpt>
      <trkpt lat="47.69979" lon="-2.28">
        <ele>72.3</ele>
        <time>2021-05-27T11:14:30Z</time>
      </trkpt>
      <trkpt lat="47.6998" lon="-2.28005">
        <ele>72.3</ele>
        <time>2021-05-27T11:14:31Z</time>
      </trkpt>
      <trkpt lat="47.6998" lon="-2.2801">
        <ele>72.3</ele>
        <time>2021-05-27T11:14:32Z</time>
      </trkpt>
      <trkpt lat="47.69982" lon="-2.28016">
        <ele>72.4</ele>
        <time>2021-05-27T11:14:33Z</time>
      </trkpt>
      <trkpt lat="47.69983" lon="-2.28021">
        <ele>72.5</ele>
        <time>2021-05-27T11:14:34Z</time>
      </trkpt>
      <trkpt lat="47.69983" lon="-2.28026">
        <ele>72.5</ele>
        <time>2021-05-27T11:14:35Z</time>
      </trkpt>
      <trkpt lat="47.69984" lon="-2.28032">
        <ele>72.6</ele>
        <time>2021-05-27T11:14:36Z</time>
      </trkpt>
      <trkpt lat="47.69985" lon="-2.28037">
        <ele>72.7</ele>
        <time>2021-05-27T11:14:37Z</time>
      </trkpt>
      <trkpt lat="47.69986" lon="-2.28043">
        <ele>72.7</ele>
        <time>2021-05-27T11:14:38Z</time>
      </trkpt>
      <trkpt lat="47.69987" lon="-2.28048">
        <ele>72.8</ele>
        <time>2021-05-27T11:14:39Z</time>
      </trkpt>
      <trkpt lat="47.69989" lon="-2.28053">
        <ele>73</ele>
        <time>2021-05-27T11:14:40Z</time>
      </trkpt>
      <trkpt lat="47.6999" lon="-2.28059">
        <ele>73.1</ele>
        <time>2021-05-27T11:14:41Z</time>
      </trkpt>
      <trkpt lat="47.69991" lon="-2.28065">
        <ele>73.2</ele>
        <time>2021-05-27T11:14:42Z</time>
      </trkpt>
      <trkpt lat="47.69992" lon="-2.28071">
        <ele>73.3</ele>
        <time>2021-05-27T11:14:43Z</time>
      </trkpt>
      <trkpt lat="47.69994" lon="-2.28077">
        <ele>73.5</ele>
        <time>2021-05-27T11:14:44Z</time>
      </trkpt>
      <trkpt lat="47.69995" lon="-2.28082">
        <ele>73.6</ele>
        <time>2021-05-27T11:14:45Z</time>
      </trkpt>
      <trkpt lat="47.69997" lon="-2.28088">
        <ele>73.8</ele>
        <time>2021-05-27T11:14:46Z</time>
      </trkpt>
      <trkpt lat="47.69998" lon="-2.28094">
        <ele>74</ele>
        <time>2021-05-27T11:14:47Z</time>
      </trkpt>
      <trkpt lat="47.69999" lon="-2.281">
        <ele>74.1</ele>
        <time>2021-05-27T11:14:48Z</time>
      </trkpt>
      <trkpt lat="47.69999" lon="-2.28105">
        <ele>74.2</ele>
        <time>2021-05-27T11:14:49Z</time>
      </trkpt>
      <trkpt lat="47.69999" lon="-2.2811">
        <ele>74.3</ele>
        <time>2021-05-27T11:14:50Z</time>
      </trkpt>
      <trkpt lat="47.69999" lon="-2.28114">
        <ele>74.3</ele>
        <time>2021-05-27T11:14:51Z</time>
      </trkpt>
      <trkpt lat="47.7" lon="-2.28117">
        <ele>74.4</ele>
        <time>2021-05-27T11:14:52Z</time>
      </trkpt>
      <trkpt lat="47.70001" lon="-2.28121">
        <ele>74.4</ele>
        <time>2021-05-27T11:14:53Z</time>
      </trkpt>
      <trkpt lat="47.70002" lon="-2.28125">
        <ele>74.5</ele>
        <time>2021-05-27T11:14:54Z</time>
      </trkpt>
      <trkpt lat="47.70002" lon="-2.2813">
        <ele>74.5</ele>
        <time>2021-05-27T11:14:55Z</time>
      </trkpt>
      <trkpt lat="47.70002" lon="-2.28135">
        <ele>74.6</ele>
        <time>2021-05-27T11:14:56Z</time>
      </trkpt>
      <trkpt lat="47.70002" lon="-2.28141">
        <ele>74.7</ele>
        <time>2021-05-27T11:14:57Z</time>
      </trkpt>
      <trkpt lat="47.70002" lon="-2.28146">
        <ele>74.7</ele>
        <time>2021-05-27T11:14:58Z</time>
      </trkpt>
      <trkpt lat="47.70003" lon="-2.28151">
        <ele>74.8</ele>
        <time>2021-05-27T11:14:59Z</time>
      </trkpt>
      <trkpt lat="47.70004" lon="-2.28156">
        <ele>74.8</ele>
        <time>2021-05-27T11:15:00Z</time>
      </trkpt>
      <trkpt lat="47.70004" lon="-2.28161">
        <ele>74.8</ele>
        <time>2021-05-27T11:15:01Z</time>
      </trkpt>
      <trkpt lat="47.70004" lon="-2.28167">
        <ele>74.9</ele>
        <time>2021-05-27T11:15:02Z</time>
      </trkpt>
      <trkpt lat="47.70004" lon="-2.28172">
        <ele>75</ele>
        <time>2021-05-27T11:15:03Z</time>
      </trkpt>
      <trkpt lat="47.70004" lon="-2.28177">
        <ele>75.1</ele>
        <time>2021-05-27T11:15:04Z</time>
      </trkpt>
      <trkpt lat="47.70004" lon="-2.28181">
        <ele>75.2</ele>
        <time>2021-05-27T11:15:05Z</time>
      </trkpt>
      <trkpt lat="47.70004" lon="-2.28186">
        <ele>75.3</ele>
        <time>2021-05-27T11:15:06Z</time>
      </trkpt>
      <trkpt lat="47.70005" lon="-2.28191">
        <ele>75.4</ele>
        <time>2021-05-27T11:15:07Z</time>
      </trkpt>
      <trkpt lat="47.70005" lon="-2.28196">
        <ele>75.5</ele>
        <time>2021-05-27T11:15:08Z</time>
      </trkpt>
      <trkpt lat="47.70006" lon="-2.28201">
        <ele>75.6</ele>
        <time>2021-05-27T11:15:09Z</time>
      </trkpt>
      <trkpt lat="47.70007" lon="-2.28207">
        <ele>75.7</ele>
        <time>2021-05-27T11:15:10Z</time>
      </trkpt>
      <trkpt lat="47.70008" lon="-2.28212">
        <ele>75.8</ele>
        <time>2021-05-27T11:15:11Z</time>
      </trkpt>
      <trkpt lat="47.70008" lon="-2.28218">
        <ele>75.9</ele>
        <time>2021-05-27T11:15:12Z</time>
      </trkpt>
      <trkpt lat="47.70009" lon="-2.28224">
        <ele>76</ele>
        <time>2021-05-27T11:15:13Z</time>
      </trkpt>
      <trkpt lat="47.70009" lon="-2.28229">
        <ele>76.1</ele>
        <time>2021-05-27T11:15:14Z</time>
      </trkpt>
      <trkpt lat="47.70009" lon="-2.28235">
        <ele>76.3</ele>
        <time>2021-05-27T11:15:15Z</time>
      </trkpt>
      <trkpt lat="47.70009" lon="-2.2824">
        <ele>76.4</ele>
        <time>2021-05-27T11:15:16Z</time>
      </trkpt>
      <trkpt lat="47.70009" lon="-2.28246">
        <ele>76.5</ele>
        <time>2021-05-27T11:15:17Z</time>
      </trkpt>
      <trkpt lat="47.70009" lon="-2.28252">
        <ele>76.5</ele>
        <time>2021-05-27T11:15:18Z</time>
      </trkpt>
      <trkpt lat="47.7001" lon="-2.28257">
        <ele>76.5</ele>
        <time>2021-05-27T11:15:19Z</time>
      </trkpt>
      <trkpt lat="47.7001" lon="-2.28263">
        <ele>76.4</ele>
        <time>2021-05-27T11:15:20Z</time>
      </trkpt>
      <trkpt lat="47.70011" lon="-2.28269">
        <ele>76.3</ele>
        <time>2021-05-27T11:15:21Z</time>
      </trkpt>
      <trkpt lat="47.70011" lon="-2.28275">
        <ele>76.2</ele>
        <time>2021-05-27T11:15:22Z</time>
      </trkpt>
      <trkpt lat="47.70012" lon="-2.2828">
        <ele>76.2</ele>
        <time>2021-05-27T11:15:23Z</time>
      </trkpt>
      <trkpt lat="47.70012" lon="-2.28286">
        <ele>76.1</ele>
        <time>2021-05-27T11:15:24Z</time>
      </trkpt>
      <trkpt lat="47.70013" lon="-2.28291">
        <ele>76</ele>
        <time>2021-05-27T11:15:25Z</time>
      </trkpt>
      <trkpt lat="47.70013" lon="-2.28295">
        <ele>76</ele>
        <time>2021-05-27T11:15:26Z</time>
      </trkpt>
      <trkpt lat="47.70013" lon="-2.283">
        <ele>76</ele>
        <time>2021-05-27T11:15:27Z</time>
      </trkpt>
      <trkpt lat="47.70013" lon="-2.28304">
        <ele>75.9</ele>
        <time>2021-05-27T11:15:28Z</time>
      </trkpt>
      <trkpt lat="47.70014" lon="-2.28308">
        <ele>75.9</ele>
        <time>2021-05-27T11:15:29Z</time>
      </trkpt>
      <trkpt lat="47.70014" lon="-2.28312">
        <ele>75.8</ele>
        <time>2021-05-27T11:15:30Z</time>
      </trkpt>
      <trkpt lat="47.70015" lon="-2.28316">
        <ele>75.8</ele>
        <time>2021-05-27T11:15:31Z</time>
      </trkpt>
      <trkpt lat="47.70015" lon="-2.2832">
        <ele>75.7</ele>
        <time>2021-05-27T11:15:32Z</time>
      </trkpt>
      <trkpt lat="47.70016" lon="-2.28326">
        <ele>75.7</ele>
        <time>2021-05-27T11:15:33Z</time>
      </trkpt>
      <trkpt lat="47.70017" lon="-2.28331">
        <ele>75.6</ele>
        <time>2021-05-27T11:15:34Z</time>
      </trkpt>
      <trkpt lat="47.70018" lon="-2.28336">
        <ele>75.6</ele>
        <time>2021-05-27T11:15:35Z</time>
      </trkpt>
      <trkpt lat="47.70018" lon="-2.28341">
        <ele>75.6</ele>
        <time>2021-05-27T11:15:36Z</time>
      </trkpt>
      <trkpt lat="47.70019" lon="-2.28347">
        <ele>75.6</ele>
        <time>2021-05-27T11:15:37Z</time>
      </trkpt>
      <trkpt lat="47.70019" lon="-2.28353">
        <ele>75.6</ele>
        <time>2021-05-27T11:15:38Z</time>
      </trkpt>
      <trkpt lat="47.70034" lon="-2.28354">
        <ele>75.3</ele>
      </trkpt>
      <trkpt lat="47.70041" lon="-2.28359">
        <ele>75.2</ele>
      </trkpt>
      <trkpt lat="47.70052" lon="-2.2835">
        <ele>74.9</ele>
      </trkpt>
      <trkpt lat="47.7006" lon="-2.28355">
        <ele>74.8</ele>
      </trkpt>
      <trkpt lat="47.7007" lon="-2.28354">
        <ele>74.5</ele>
      </trkpt>
      <trkpt lat="47.70079" lon="-2.28347">
        <ele>74.2</ele>
      </trkpt>
      <trkpt lat="47.70091" lon="-2.28345">
        <ele>73.8</ele>
      </trkpt>
      <trkpt lat="47.70099" lon="-2.28345">
        <ele>73.4</ele>
      </trkpt>
      <trkpt lat="47.70102" lon="-2.28375">
        <ele>73.6</ele>
      </trkpt>
      <trkpt lat="47.70103" lon="-2.28401">
        <ele>73.9</ele>
      </trkpt>
      <trkpt lat="47.70102" lon="-2.2841">
        <ele>74</ele>
      </trkpt>
      <trkpt lat="47.70099" lon="-2.28434">
        <ele>74.3</ele>
      </trkpt>
      <trkpt lat="47.70099" lon="-2.28445">
        <ele>74.3</ele>
      </trkpt>
      <trkpt lat="47.70097" lon="-2.28461">
        <ele>74.4</ele>
      </trkpt>
      <trkpt lat="47.70094" lon="-2.28471">
        <ele>74.6</ele>
      </trkpt>
      <trkpt lat="47.70091" lon="-2.28486">
        <ele>74.7</ele>
      </trkpt>
      <trkpt lat="47.7009" lon="-2.28495">
        <ele>74.8</ele>
      </trkpt>
      <trkpt lat="47.70089" lon="-2.28516">
        <ele>74.6</ele>
      </trkpt>
      <trkpt lat="47.70081" lon="-2.28523">
        <ele>74.7</ele>
      </trkpt>
      <trkpt lat="47.70077" lon="-2.28555">
        <ele>74.2</ele>
        <time>2021-05-27T11:16:24Z</time>
      </trkpt>
      <trkpt lat="47.70077" lon="-2.28559">
        <ele>74.2</ele>
        <time>2021-05-27T11:16:25Z</time>
      </trkpt>
      <trkpt lat="47.70078" lon="-2.28561">
        <ele>74.2</ele>
        <time>2021-05-27T11:16:26Z</time>
      </trkpt>
      <trkpt lat="47.70079" lon="-2.28561">
        <ele>74.2</ele>
        <time>2021-05-27T11:16:27Z</time>
      </trkpt>
      <trkpt lat="47.70078" lon="-2.28562">
        <ele>74.2</ele>
        <time>2021-05-27T11:16:28Z</time>
      </trkpt>
      <trkpt lat="47.70078" lon="-2.28562">
        <ele>74.1</ele>
        <time>2021-05-27T11:16:29Z</time>
      </trkpt>
      <trkpt lat="47.70078" lon="-2.28562">
        <ele>74.1</ele>
        <time>2021-05-27T11:16:30Z</time>
      </trkpt>
      <trkpt lat="47.70078" lon="-2.28562">
        <ele>74.1</ele>
        <time>2021-05-27T11:16:31Z</time>
      </trkpt>
      <trkpt lat="47.70078" lon="-2.28562">
        <ele>74.1</ele>
        <time>2021-05-27T11:16:32Z</time>
      </trkpt>
      <trkpt lat="47.70078" lon="-2.28562">
        <ele>74.1</ele>
        <time>2021-05-27T11:16:33Z</time>
      </trkpt>
      <trkpt lat="47.70078" lon="-2.28562">
        <ele>74.1</ele>
        <time>2021-05-27T11:16:34Z</time>
      </trkpt>
      <trkpt lat="47.70078" lon="-2.28562">
        <ele>74.1</ele>
        <time>2021-05-27T11:16:35Z</time>
      </trkpt>
      <trkpt lat="47.70078" lon="-2.28562">
        <ele>74.1</ele>
        <time>2021-05-27T11:16:36Z</time>
      </trkpt>
      <trkpt lat="47.70078" lon="-2.28562">
        <ele>74.1</ele>
        <time>2021-05-27T11:16:37Z</time>
      </trkpt>
      <trkpt lat="47.70078" lon="-2.28562">
        <ele>74.1</ele>
        <time>2021-05-27T11:16:38Z</time>
      </trkpt>
      <trkpt lat="47.70078" lon="-2.28562">
        <ele>74.1</ele>
        <time>2021-05-27T11:16:39Z</time>
      </trkpt>
      <trkpt lat="47.70078" lon="-2.28562">
        <ele>74.1</ele>
        <time>2021-05-27T11:16:40Z</time>
      </trkpt>
      <trkpt lat="47.70078" lon="-2.28562">
        <ele>74.1</ele>
        <time>2021-05-27T11:16:41Z</time>
      </trkpt>
      <trkpt lat="47.70078" lon="-2.28562">
        <ele>74.1</ele>
        <time>2021-05-27T11:16:42Z</time>
      </trkpt>
      <trkpt lat="47.70078" lon="-2.28562">
        <ele>74.1</ele>
        <time>2021-05-27T11:16:43Z</time>
      </trkpt>
      <trkpt lat="47.70078" lon="-2.28562">
        <ele>74.1</ele>
        <time>2021-05-27T11:16:44Z</time>
      </trkpt>
      <trkpt lat="47.70077" lon="-2.28568">
        <ele>74</ele>
        <time>2021-05-27T11:16:45Z</time>
      </trkpt>
      <trkpt lat="47.70077" lon="-2.28573">
        <ele>74</ele>
        <time>2021-05-27T11:16:46Z</time>
      </trkpt>
      <trkpt lat="47.70077" lon="-2.28577">
        <ele>73.9</ele>
        <time>2021-05-27T11:16:47Z</time>
      </trkpt>
      <trkpt lat="47.70077" lon="-2.28582">
        <ele>73.9</ele>
        <time>2021-05-27T11:16:48Z</time>
      </trkpt>
      <trkpt lat="47.70077" lon="-2.28588">
        <ele>73.8</ele>
        <time>2021-05-27T11:16:49Z</time>
      </trkpt>
      <trkpt lat="47.70077" lon="-2.28593">
        <ele>73.7</ele>
        <time>2021-05-27T11:16:50Z</time>
      </trkpt>
      <trkpt lat="47.70077" lon="-2.28599">
        <ele>73.7</ele>
        <time>2021-05-27T11:16:51Z</time>
      </trkpt>
      <trkpt lat="47.70076" lon="-2.28605">
        <ele>73.6</ele>
        <time>2021-05-27T11:16:52Z</time>
      </trkpt>
      <trkpt lat="47.70076" lon="-2.2861">
        <ele>73.5</ele>
        <time>2021-05-27T11:16:53Z</time>
      </trkpt>
      <trkpt lat="47.70077" lon="-2.28616">
        <ele>73.5</ele>
        <time>2021-05-27T11:16:54Z</time>
      </trkpt>
      <trkpt lat="47.70077" lon="-2.28621">
        <ele>73.4</ele>
        <time>2021-05-27T11:16:55Z</time>
      </trkpt>
      <trkpt lat="47.70077" lon="-2.28627">
        <ele>73.4</ele>
        <time>2021-05-27T11:16:56Z</time>
      </trkpt>
      <trkpt lat="47.70078" lon="-2.28632">
        <ele>73.3</ele>
        <time>2021-05-27T11:16:57Z</time>
      </trkpt>
      <trkpt lat="47.70078" lon="-2.28637">
        <ele>73.3</ele>
        <time>2021-05-27T11:16:58Z</time>
      </trkpt>
      <trkpt lat="47.70079" lon="-2.28643">
        <ele>73.2</ele>
        <time>2021-05-27T11:16:59Z</time>
      </trkpt>
      <trkpt lat="47.7008" lon="-2.28648">
        <ele>73.2</ele>
        <time>2021-05-27T11:17:00Z</time>
      </trkpt>
      <trkpt lat="47.70081" lon="-2.28654">
        <ele>73.1</ele>
        <time>2021-05-27T11:17:01Z</time>
      </trkpt>
      <trkpt lat="47.70082" lon="-2.2866">
        <ele>73.1</ele>
        <time>2021-05-27T11:17:02Z</time>
      </trkpt>
      <trkpt lat="47.70082" lon="-2.28666">
        <ele>73</ele>
        <time>2021-05-27T11:17:03Z</time>
      </trkpt>
      <trkpt lat="47.70084" lon="-2.28672">
        <ele>73.1</ele>
        <time>2021-05-27T11:17:04Z</time>
      </trkpt>
      <trkpt lat="47.70085" lon="-2.28678">
        <ele>73.1</ele>
        <time>2021-05-27T11:17:05Z</time>
      </trkpt>
      <trkpt lat="47.70085" lon="-2.28684">
        <ele>73.1</ele>
        <time>2021-05-27T11:17:06Z</time>
      </trkpt>
      <trkpt lat="47.70086" lon="-2.2869">
        <ele>73.2</ele>
        <time>2021-05-27T11:17:07Z</time>
      </trkpt>
      <trkpt lat="47.70087" lon="-2.28696">
        <ele>73.2</ele>
        <time>2021-05-27T11:17:08Z</time>
      </trkpt>
      <trkpt lat="47.70087" lon="-2.28702">
        <ele>73.3</ele>
        <time>2021-05-27T11:17:09Z</time>
      </trkpt>
      <trkpt lat="47.70088" lon="-2.28709">
        <ele>73.4</ele>
        <time>2021-05-27T11:17:10Z</time>
      </trkpt>
      <trkpt lat="47.70089" lon="-2.28715">
        <ele>73.4</ele>
        <time>2021-05-27T11:17:11Z</time>
      </trkpt>
      <trkpt lat="47.7009" lon="-2.28721">
        <ele>73.5</ele>
        <time>2021-05-27T11:17:12Z</time>
      </trkpt>
      <trkpt lat="47.70091" lon="-2.28727">
        <ele>73.5</ele>
        <time>2021-05-27T11:17:13Z</time>
      </trkpt>
      <trkpt lat="47.70092" lon="-2.28733">
        <ele>73.6</ele>
        <time>2021-05-27T11:17:14Z</time>
      </trkpt>
      <trkpt lat="47.70092" lon="-2.2874">
        <ele>73.6</ele>
        <time>2021-05-27T11:17:15Z</time>
      </trkpt>
      <trkpt lat="47.70094" lon="-2.28746">
        <ele>73.7</ele>
        <time>2021-05-27T11:17:16Z</time>
      </trkpt>
      <trkpt lat="47.70095" lon="-2.28752">
        <ele>73.7</ele>
        <time>2021-05-27T11:17:17Z</time>
      </trkpt>
      <trkpt lat="47.70096" lon="-2.28758">
        <ele>73.8</ele>
        <time>2021-05-27T11:17:18Z</time>
      </trkpt>
      <trkpt lat="47.70098" lon="-2.28765">
        <ele>73.8</ele>
        <time>2021-05-27T11:17:19Z</time>
      </trkpt>
      <trkpt lat="47.70099" lon="-2.28771">
        <ele>73.9</ele>
        <time>2021-05-27T11:17:20Z</time>
      </trkpt>
      <trkpt lat="47.70099" lon="-2.28778">
        <ele>74</ele>
        <time>2021-05-27T11:17:21Z</time>
      </trkpt>
      <trkpt lat="47.701" lon="-2.28784">
        <ele>74</ele>
        <time>2021-05-27T11:17:22Z</time>
      </trkpt>
      <trkpt lat="47.70101" lon="-2.28789">
        <ele>74.1</ele>
        <time>2021-05-27T11:17:23Z</time>
      </trkpt>
      <trkpt lat="47.70101" lon="-2.28795">
        <ele>74.1</ele>
        <time>2021-05-27T11:17:24Z</time>
      </trkpt>
      <trkpt lat="47.70102" lon="-2.28801">
        <ele>74.2</ele>
        <time>2021-05-27T11:17:25Z</time>
      </trkpt>
      <trkpt lat="47.70103" lon="-2.28808">
        <ele>74.2</ele>
        <time>2021-05-27T11:17:26Z</time>
      </trkpt>
      <trkpt lat="47.70103" lon="-2.28814">
        <ele>74.3</ele>
        <time>2021-05-27T11:17:27Z</time>
      </trkpt>
      <trkpt lat="47.70104" lon="-2.28821">
        <ele>74.4</ele>
        <time>2021-05-27T11:17:28Z</time>
      </trkpt>
      <trkpt lat="47.70104" lon="-2.28827">
        <ele>74.4</ele>
        <time>2021-05-27T11:17:29Z</time>
      </trkpt>
      <trkpt lat="47.70104" lon="-2.28834">
        <ele>74.5</ele>
        <time>2021-05-27T11:17:30Z</time>
      </trkpt>
      <trkpt lat="47.70104" lon="-2.28841">
        <ele>74.5</ele>
        <time>2021-05-27T11:17:31Z</time>
      </trkpt>
      <trkpt lat="47.70104" lon="-2.28848">
        <ele>74.5</ele>
        <time>2021-05-27T11:17:32Z</time>
      </trkpt>
      <trkpt lat="47.70105" lon="-2.28855">
        <ele>74.6</ele>
        <time>2021-05-27T11:17:33Z</time>
      </trkpt>
      <trkpt lat="47.70105" lon="-2.28863">
        <ele>74.6</ele>
        <time>2021-05-27T11:17:34Z</time>
      </trkpt>
      <trkpt lat="47.70105" lon="-2.2887">
        <ele>74.6</ele>
        <time>2021-05-27T11:17:35Z</time>
      </trkpt>
      <trkpt lat="47.70106" lon="-2.28877">
        <ele>74.6</ele>
        <time>2021-05-27T11:17:36Z</time>
      </trkpt>
      <trkpt lat="47.70106" lon="-2.28885">
        <ele>74.6</ele>
        <time>2021-05-27T11:17:37Z</time>
      </trkpt>
      <trkpt lat="47.70106" lon="-2.28892">
        <ele>74.6</ele>
        <time>2021-05-27T11:17:38Z</time>
      </trkpt>
      <trkpt lat="47.70106" lon="-2.28899">
        <ele>74.7</ele>
        <time>2021-05-27T11:17:39Z</time>
      </trkpt>
      <trkpt lat="47.70106" lon="-2.28906">
        <ele>74.7</ele>
        <time>2021-05-27T11:17:40Z</time>
      </trkpt>
      <trkpt lat="47.70106" lon="-2.28914">
        <ele>74.7</ele>
        <time>2021-05-27T11:17:41Z</time>
      </trkpt>
      <trkpt lat="47.70107" lon="-2.28922">
        <ele>74.8</ele>
        <time>2021-05-27T11:17:42Z</time>
      </trkpt>
      <trkpt lat="47.70107" lon="-2.28929">
        <ele>74.9</ele>
        <time>2021-05-27T11:17:43Z</time>
      </trkpt>
      <trkpt lat="47.70107" lon="-2.28935">
        <ele>75</ele>
        <time>2021-05-27T11:17:44Z</time>
      </trkpt>
      <trkpt lat="47.70108" lon="-2.28942">
        <ele>75.1</ele>
        <time>2021-05-27T11:17:45Z</time>
      </trkpt>
      <trkpt lat="47.70108" lon="-2.28949">
        <ele>75.2</ele>
        <time>2021-05-27T11:17:46Z</time>
      </trkpt>
      <trkpt lat="47.70109" lon="-2.28956">
        <ele>75.3</ele>
        <time>2021-05-27T11:17:47Z</time>
      </trkpt>
      <trkpt lat="47.7011" lon="-2.28963">
        <ele>75.4</ele>
        <time>2021-05-27T11:17:48Z</time>
      </trkpt>
      <trkpt lat="47.7011" lon="-2.2897">
        <ele>75.5</ele>
        <time>2021-05-27T11:17:49Z</time>
      </trkpt>
      <trkpt lat="47.7011" lon="-2.28976">
        <ele>75.6</ele>
        <time>2021-05-27T11:17:50Z</time>
      </trkpt>
      <trkpt lat="47.7011" lon="-2.28981">
        <ele>75.7</ele>
        <time>2021-05-27T11:17:51Z</time>
      </trkpt>
      <trkpt lat="47.7011" lon="-2.28988">
        <ele>75.8</ele>
        <time>2021-05-27T11:17:52Z</time>
      </trkpt>
      <trkpt lat="47.70109" lon="-2.28994">
        <ele>75.9</ele>
        <time>2021-05-27T11:17:53Z</time>
      </trkpt>
      <trkpt lat="47.70108" lon="-2.29001">
        <ele>76</ele>
        <time>2021-05-27T11:17:54Z</time>
      </trkpt>
      <trkpt lat="47.70108" lon="-2.29007">
        <ele>75.9</ele>
        <time>2021-05-27T11:17:55Z</time>
      </trkpt>
      <trkpt lat="47.70107" lon="-2.29014">
        <ele>75.7</ele>
        <time>2021-05-27T11:17:56Z</time>
      </trkpt>
      <trkpt lat="47.70106" lon="-2.2902">
        <ele>75.6</ele>
        <time>2021-05-27T11:17:57Z</time>
      </trkpt>
      <trkpt lat="47.70104" lon="-2.29025">
        <ele>75.5</ele>
        <time>2021-05-27T11:17:58Z</time>
      </trkpt>
      <trkpt lat="47.70102" lon="-2.29029">
        <ele>75.4</ele>
        <time>2021-05-27T11:17:59Z</time>
      </trkpt>
      <trkpt lat="47.70099" lon="-2.29032">
        <ele>75.3</ele>
        <time>2021-05-27T11:18:00Z</time>
      </trkpt>
      <trkpt lat="47.70096" lon="-2.29035">
        <ele>75.2</ele>
        <time>2021-05-27T11:18:01Z</time>
      </trkpt>
      <trkpt lat="47.70092" lon="-2.29037">
        <ele>75.1</ele>
        <time>2021-05-27T11:18:02Z</time>
      </trkpt>
      <trkpt lat="47.70089" lon="-2.2904">
        <ele>75.1</ele>
        <time>2021-05-27T11:18:03Z</time>
      </trkpt>
      <trkpt lat="47.70086" lon="-2.29043">
        <ele>75</ele>
        <time>2021-05-27T11:18:04Z</time>
      </trkpt>
      <trkpt lat="47.70083" lon="-2.29046">
        <ele>74.9</ele>
        <time>2021-05-27T11:18:05Z</time>
      </trkpt>
      <trkpt lat="47.7008" lon="-2.29048">
        <ele>74.6</ele>
        <time>2021-05-27T11:18:06Z</time>
      </trkpt>
      <trkpt lat="47.70077" lon="-2.29051">
        <ele>74.2</ele>
        <time>2021-05-27T11:18:07Z</time>
      </trkpt>
      <trkpt lat="47.70073" lon="-2.29055">
        <ele>73.9</ele>
        <time>2021-05-27T11:18:08Z</time>
      </trkpt>
      <trkpt lat="47.7007" lon="-2.29059">
        <ele>73.5</ele>
        <time>2021-05-27T11:18:09Z</time>
      </trkpt>
      <trkpt lat="47.70066" lon="-2.29062">
        <ele>73.2</ele>
        <time>2021-05-27T11:18:10Z</time>
      </trkpt>
      <trkpt lat="47.70062" lon="-2.29064">
        <ele>72.8</ele>
        <time>2021-05-27T11:18:11Z</time>
      </trkpt>
      <trkpt lat="47.70058" lon="-2.29066">
        <ele>72.5</ele>
        <time>2021-05-27T11:18:12Z</time>
      </trkpt>
      <trkpt lat="47.70054" lon="-2.29067">
        <ele>72.2</ele>
        <time>2021-05-27T11:18:13Z</time>
      </trkpt>
      <trkpt lat="47.70051" lon="-2.29069">
        <ele>71.9</ele>
        <time>2021-05-27T11:18:14Z</time>
      </trkpt>
      <trkpt lat="47.70049" lon="-2.29071">
        <ele>71.7</ele>
        <time>2021-05-27T11:18:15Z</time>
      </trkpt>
      <trkpt lat="47.70048" lon="-2.29076">
        <ele>71.5</ele>
        <time>2021-05-27T11:18:16Z</time>
      </trkpt>
      <trkpt lat="47.70048" lon="-2.29082">
        <ele>71.5</ele>
        <time>2021-05-27T11:18:17Z</time>
      </trkpt>
      <trkpt lat="47.70049" lon="-2.29088">
        <ele>71.5</ele>
        <time>2021-05-27T11:18:18Z</time>
      </trkpt>
      <trkpt lat="47.70049" lon="-2.29093">
        <ele>71.5</ele>
        <time>2021-05-27T11:18:19Z</time>
      </trkpt>
      <trkpt lat="47.70052" lon="-2.29101">
        <ele>71.6</ele>
        <time>2021-05-27T11:18:20Z</time>
      </trkpt>
      <trkpt lat="47.70053" lon="-2.29106">
        <ele>71.7</ele>
        <time>2021-05-27T11:18:21Z</time>
      </trkpt>
      <trkpt lat="47.70055" lon="-2.29112">
        <ele>71.8</ele>
        <time>2021-05-27T11:18:22Z</time>
      </trkpt>
      <trkpt lat="47.70056" lon="-2.29119">
        <ele>71.9</ele>
        <time>2021-05-27T11:18:23Z</time>
      </trkpt>
      <trkpt lat="47.70056" lon="-2.29125">
        <ele>71.9</ele>
        <time>2021-05-27T11:18:24Z</time>
      </trkpt>
      <trkpt lat="47.70056" lon="-2.29131">
        <ele>71.8</ele>
        <time>2021-05-27T11:18:25Z</time>
      </trkpt>
      <trkpt lat="47.70056" lon="-2.29138">
        <ele>71.8</ele>
        <time>2021-05-27T11:18:26Z</time>
      </trkpt>
      <trkpt lat="47.70056" lon="-2.29144">
        <ele>71.8</ele>
        <time>2021-05-27T11:18:27Z</time>
      </trkpt>
      <trkpt lat="47.70057" lon="-2.2915">
        <ele>71.8</ele>
        <time>2021-05-27T11:18:28Z</time>
      </trkpt>
      <trkpt lat="47.70057" lon="-2.29155">
        <ele>71.8</ele>
        <time>2021-05-27T11:18:29Z</time>
      </trkpt>
      <trkpt lat="47.70057" lon="-2.29161">
        <ele>71.8</ele>
        <time>2021-05-27T11:18:30Z</time>
      </trkpt>
      <trkpt lat="47.70057" lon="-2.29167">
        <ele>71.8</ele>
        <time>2021-05-27T11:18:31Z</time>
      </trkpt>
      <trkpt lat="47.70058" lon="-2.29173">
        <ele>71.8</ele>
        <time>2021-05-27T11:18:32Z</time>
      </trkpt>
      <trkpt lat="47.70058" lon="-2.29179">
        <ele>71.7</ele>
        <time>2021-05-27T11:18:33Z</time>
      </trkpt>
      <trkpt lat="47.70057" lon="-2.29186">
        <ele>71.6</ele>
        <time>2021-05-27T11:18:34Z</time>
      </trkpt>
      <trkpt lat="47.70056" lon="-2.29191">
        <ele>71.4</ele>
        <time>2021-05-27T11:18:35Z</time>
      </trkpt>
      <trkpt lat="47.70056" lon="-2.29197">
        <ele>71.3</ele>
        <time>2021-05-27T11:18:36Z</time>
      </trkpt>
      <trkpt lat="47.70055" lon="-2.29203">
        <ele>71.2</ele>
        <time>2021-05-27T11:18:37Z</time>
      </trkpt>
      <trkpt lat="47.70054" lon="-2.2921">
        <ele>71</ele>
        <time>2021-05-27T11:18:38Z</time>
      </trkpt>
      <trkpt lat="47.70054" lon="-2.29216">
        <ele>70.9</ele>
        <time>2021-05-27T11:18:39Z</time>
      </trkpt>
      <trkpt lat="47.70053" lon="-2.29223">
        <ele>70.8</ele>
        <time>2021-05-27T11:18:40Z</time>
      </trkpt>
      <trkpt lat="47.70052" lon="-2.2923">
        <ele>70.6</ele>
        <time>2021-05-27T11:18:41Z</time>
      </trkpt>
      <trkpt lat="47.70052" lon="-2.29237">
        <ele>70.5</ele>
        <time>2021-05-27T11:18:42Z</time>
      </trkpt>
      <trkpt lat="47.70052" lon="-2.29243">
        <ele>70.4</ele>
        <time>2021-05-27T11:18:43Z</time>
      </trkpt>
      <trkpt lat="47.70051" lon="-2.2925">
        <ele>70.3</ele>
        <time>2021-05-27T11:18:44Z</time>
      </trkpt>
      <trkpt lat="47.70052" lon="-2.29256">
        <ele>70.5</ele>
        <time>2021-05-27T11:18:45Z</time>
      </trkpt>
      <trkpt lat="47.70052" lon="-2.29263">
        <ele>70.6</ele>
        <time>2021-05-27T11:18:46Z</time>
      </trkpt>
      <trkpt lat="47.70053" lon="-2.2927">
        <ele>70.8</ele>
        <time>2021-05-27T11:18:47Z</time>
      </trkpt>
      <trkpt lat="47.70054" lon="-2.29277">
        <ele>71</ele>
        <time>2021-05-27T11:18:48Z</time>
      </trkpt>
      <trkpt lat="47.70056" lon="-2.29283">
        <ele>71.4</ele>
        <time>2021-05-27T11:18:49Z</time>
      </trkpt>
      <trkpt lat="47.70059" lon="-2.29289">
        <ele>71.8</ele>
        <time>2021-05-27T11:18:50Z</time>
      </trkpt>
      <trkpt lat="47.70062" lon="-2.29295">
        <ele>72.1</ele>
        <time>2021-05-27T11:18:51Z</time>
      </trkpt>
      <trkpt lat="47.70062" lon="-2.293">
        <ele>72.3</ele>
        <time>2021-05-27T11:18:52Z</time>
      </trkpt>
      <trkpt lat="47.70061" lon="-2.29305">
        <ele>72.3</ele>
        <time>2021-05-27T11:18:53Z</time>
      </trkpt>
      <trkpt lat="47.70061" lon="-2.29312">
        <ele>72.4</ele>
        <time>2021-05-27T11:18:54Z</time>
      </trkpt>
      <trkpt lat="47.70061" lon="-2.29318">
        <ele>72.5</ele>
        <time>2021-05-27T11:18:55Z</time>
      </trkpt>
      <trkpt lat="47.70061" lon="-2.29324">
        <ele>72.6</ele>
        <time>2021-05-27T11:18:56Z</time>
      </trkpt>
      <trkpt lat="47.7006" lon="-2.29333">
        <ele>72.8</ele>
        <time>2021-05-27T11:18:57Z</time>
      </trkpt>
      <trkpt lat="47.70059" lon="-2.2934">
        <ele>72.5</ele>
        <time>2021-05-27T11:18:58Z</time>
      </trkpt>
      <trkpt lat="47.70057" lon="-2.29347">
        <ele>72.1</ele>
        <time>2021-05-27T11:18:59Z</time>
      </trkpt>
      <trkpt lat="47.70055" lon="-2.29353">
        <ele>71.7</ele>
        <time>2021-05-27T11:19:00Z</time>
      </trkpt>
      <trkpt lat="47.70053" lon="-2.2936">
        <ele>71.4</ele>
        <time>2021-05-27T11:19:01Z</time>
      </trkpt>
      <trkpt lat="47.70052" lon="-2.29367">
        <ele>71.1</ele>
        <time>2021-05-27T11:19:02Z</time>
      </trkpt>
      <trkpt lat="47.70051" lon="-2.29375">
        <ele>70.9</ele>
        <time>2021-05-27T11:19:03Z</time>
      </trkpt>
      <trkpt lat="47.7005" lon="-2.29382">
        <ele>70.7</ele>
        <time>2021-05-27T11:19:04Z</time>
      </trkpt>
      <trkpt lat="47.7005" lon="-2.29388">
        <ele>70.4</ele>
        <time>2021-05-27T11:19:05Z</time>
      </trkpt>
      <trkpt lat="47.7005" lon="-2.29395">
        <ele>70.3</ele>
        <time>2021-05-27T11:19:06Z</time>
      </trkpt>
      <trkpt lat="47.7005" lon="-2.29401">
        <ele>70.1</ele>
        <time>2021-05-27T11:19:07Z</time>
      </trkpt>
      <trkpt lat="47.70051" lon="-2.29407">
        <ele>70.1</ele>
        <time>2021-05-27T11:19:08Z</time>
      </trkpt>
      <trkpt lat="47.70052" lon="-2.29413">
        <ele>70.1</ele>
        <time>2021-05-27T11:19:09Z</time>
      </trkpt>
      <trkpt lat="47.70054" lon="-2.29419">
        <ele>70.1</ele>
        <time>2021-05-27T11:19:10Z</time>
      </trkpt>
      <trkpt lat="47.70055" lon="-2.29424">
        <ele>70.1</ele>
        <time>2021-05-27T11:19:11Z</time>
      </trkpt>
      <trkpt lat="47.70058" lon="-2.29431">
        <ele>70.2</ele>
        <time>2021-05-27T11:19:12Z</time>
      </trkpt>
      <trkpt lat="47.7006" lon="-2.29436">
        <ele>70.3</ele>
        <time>2021-05-27T11:19:13Z</time>
      </trkpt>
      <trkpt lat="47.70061" lon="-2.29442">
        <ele>70.3</ele>
        <time>2021-05-27T11:19:14Z</time>
      </trkpt>
      <trkpt lat="47.70064" lon="-2.29448">
        <ele>70.4</ele>
        <time>2021-05-27T11:19:15Z</time>
      </trkpt>
      <trkpt lat="47.70066" lon="-2.29453">
        <ele>70.5</ele>
        <time>2021-05-27T11:19:16Z</time>
      </trkpt>
      <trkpt lat="47.70068" lon="-2.29457">
        <ele>70.6</ele>
        <time>2021-05-27T11:19:17Z</time>
      </trkpt>
      <trkpt lat="47.70071" lon="-2.29461">
        <ele>70.7</ele>
        <time>2021-05-27T11:19:18Z</time>
      </trkpt>
      <trkpt lat="47.70071" lon="-2.29466">
        <ele>70.6</ele>
        <time>2021-05-27T11:19:19Z</time>
      </trkpt>
      <trkpt lat="47.70071" lon="-2.2947">
        <ele>70.5</ele>
        <time>2021-05-27T11:19:20Z</time>
      </trkpt>
      <trkpt lat="47.70069" lon="-2.29475">
        <ele>70.2</ele>
        <time>2021-05-27T11:19:21Z</time>
      </trkpt>
      <trkpt lat="47.70068" lon="-2.2948">
        <ele>70</ele>
        <time>2021-05-27T11:19:22Z</time>
      </trkpt>
      <trkpt lat="47.70067" lon="-2.29487">
        <ele>69.8</ele>
        <time>2021-05-27T11:19:23Z</time>
      </trkpt>
      <trkpt lat="47.70067" lon="-2.29493">
        <ele>69.6</ele>
        <time>2021-05-27T11:19:24Z</time>
      </trkpt>
      <trkpt lat="47.70068" lon="-2.29498">
        <ele>69.6</ele>
        <time>2021-05-27T11:19:25Z</time>
      </trkpt>
      <trkpt lat="47.70069" lon="-2.29504">
        <ele>69.7</ele>
        <time>2021-05-27T11:19:26Z</time>
      </trkpt>
      <trkpt lat="47.70069" lon="-2.29512">
        <ele>69.7</ele>
        <time>2021-05-27T11:19:27Z</time>
      </trkpt>
      <trkpt lat="47.70069" lon="-2.29519">
        <ele>69.8</ele>
        <time>2021-05-27T11:19:28Z</time>
      </trkpt>
      <trkpt lat="47.70069" lon="-2.29526">
        <ele>69.8</ele>
        <time>2021-05-27T11:19:29Z</time>
      </trkpt>
      <trkpt lat="47.70069" lon="-2.29533">
        <ele>69.8</ele>
        <time>2021-05-27T11:19:30Z</time>
      </trkpt>
      <trkpt lat="47.70069" lon="-2.29539">
        <ele>69.9</ele>
        <time>2021-05-27T11:19:31Z</time>
      </trkpt>
      <trkpt lat="47.70069" lon="-2.29545">
        <ele>69.8</ele>
        <time>2021-05-27T11:19:32Z</time>
      </trkpt>
      <trkpt lat="47.70067" lon="-2.29551">
        <ele>69.7</ele>
        <time>2021-05-27T11:19:33Z</time>
      </trkpt>
      <trkpt lat="47.70065" lon="-2.29556">
        <ele>69.5</ele>
        <time>2021-05-27T11:19:34Z</time>
      </trkpt>
      <trkpt lat="47.70064" lon="-2.29559">
        <ele>69.4</ele>
        <time>2021-05-27T11:19:35Z</time>
      </trkpt>
      <trkpt lat="47.70064" lon="-2.29561">
        <ele>69.3</ele>
        <time>2021-05-27T11:19:36Z</time>
      </trkpt>
      <trkpt lat="47.70064" lon="-2.29562">
        <ele>69.3</ele>
        <time>2021-05-27T11:19:37Z</time>
      </trkpt>
      <trkpt lat="47.70063" lon="-2.29562">
        <ele>69.3</ele>
        <time>2021-05-27T11:19:38Z</time>
      </trkpt>
      <trkpt lat="47.70063" lon="-2.29563">
        <ele>69.3</ele>
        <time>2021-05-27T11:19:39Z</time>
      </trkpt>
      <trkpt lat="47.70063" lon="-2.29563">
        <ele>69.3</ele>
        <time>2021-05-27T11:19:40Z</time>
      </trkpt>
      <trkpt lat="47.70063" lon="-2.29563">
        <ele>69.3</ele>
        <time>2021-05-27T11:19:41Z</time>
      </trkpt>
      <trkpt lat="47.70063" lon="-2.29563">
        <ele>69.3</ele>
        <time>2021-05-27T11:19:42Z</time>
      </trkpt>
      <trkpt lat="47.70063" lon="-2.29563">
        <ele>69.3</ele>
        <time>2021-05-27T11:19:43Z</time>
      </trkpt>
      <trkpt lat="47.70063" lon="-2.29563">
        <ele>69.3</ele>
        <time>2021-05-27T11:19:44Z</time>
      </trkpt>
      <trkpt lat="47.70063" lon="-2.29563">
        <ele>69.3</ele>
        <time>2021-05-27T11:19:45Z</time>
      </trkpt>
      <trkpt lat="47.70063" lon="-2.29563">
        <ele>69.3</ele>
        <time>2021-05-27T11:19:46Z</time>
      </trkpt>
      <trkpt lat="47.70063" lon="-2.29563">
        <ele>69.3</ele>
        <time>2021-05-27T11:19:47Z</time>
      </trkpt>
      <trkpt lat="47.70063" lon="-2.29563">
        <ele>69.3</ele>
        <time>2021-05-27T11:19:48Z</time>
      </trkpt>
      <trkpt lat="47.70063" lon="-2.29563">
        <ele>69.3</ele>
        <time>2021-05-27T11:19:49Z</time>
      </trkpt>
      <trkpt lat="47.70063" lon="-2.29563">
        <ele>69.3</ele>
        <time>2021-05-27T11:19:50Z</time>
      </trkpt>
      <trkpt lat="47.70063" lon="-2.29563">
        <ele>69.3</ele>
        <time>2021-05-27T11:19:51Z</time>
      </trkpt>
      <trkpt lat="47.70063" lon="-2.29563">
        <ele>69.3</ele>
        <time>2021-05-27T11:19:52Z</time>
      </trkpt>
      <trkpt lat="47.70066" lon="-2.29557">
        <ele>69.6</ele>
        <time>2021-05-27T11:19:53Z</time>
      </trkpt>
      <trkpt lat="47.70068" lon="-2.29558">
        <ele>69.8</ele>
        <time>2021-05-27T11:19:54Z</time>
      </trkpt>
      <trkpt lat="47.70071" lon="-2.2956">
        <ele>70.2</ele>
        <time>2021-05-27T11:19:55Z</time>
      </trkpt>
      <trkpt lat="47.70073" lon="-2.29562">
        <ele>70.5</ele>
        <time>2021-05-27T11:19:56Z</time>
      </trkpt>
      <trkpt lat="47.70075" lon="-2.29565">
        <ele>70.7</ele>
        <time>2021-05-27T11:19:57Z</time>
      </trkpt>
      <trkpt lat="47.70077" lon="-2.29568">
        <ele>71</ele>
        <time>2021-05-27T11:19:58Z</time>
      </trkpt>
      <trkpt lat="47.70078" lon="-2.29572">
        <ele>71.2</ele>
        <time>2021-05-27T11:19:59Z</time>
      </trkpt>
      <trkpt lat="47.70079" lon="-2.29575">
        <ele>71.4</ele>
        <time>2021-05-27T11:20:00Z</time>
      </trkpt>
      <trkpt lat="47.7008" lon="-2.29579">
        <ele>71.6</ele>
        <time>2021-05-27T11:20:01Z</time>
      </trkpt>
      <trkpt lat="47.70081" lon="-2.29584">
        <ele>71.7</ele>
        <time>2021-05-27T11:20:02Z</time>
      </trkpt>
      <trkpt lat="47.70082" lon="-2.29589">
        <ele>71.9</ele>
        <time>2021-05-27T11:20:03Z</time>
      </trkpt>
      <trkpt lat="47.70083" lon="-2.29592">
        <ele>72</ele>
        <time>2021-05-27T11:20:04Z</time>
      </trkpt>
      <trkpt lat="47.70084" lon="-2.29596">
        <ele>72</ele>
        <time>2021-05-27T11:20:05Z</time>
      </trkpt>
      <trkpt lat="47.70085" lon="-2.296">
        <ele>72</ele>
        <time>2021-05-27T11:20:06Z</time>
      </trkpt>
      <trkpt lat="47.70085" lon="-2.29605">
        <ele>72</ele>
        <time>2021-05-27T11:20:07Z</time>
      </trkpt>
      <trkpt lat="47.70086" lon="-2.29611">
        <ele>72</ele>
        <time>2021-05-27T11:20:08Z</time>
      </trkpt>
      <trkpt lat="47.70087" lon="-2.29617">
        <ele>72</ele>
        <time>2021-05-27T11:20:09Z</time>
      </trkpt>
      <trkpt lat="47.7009" lon="-2.29622">
        <ele>72</ele>
        <time>2021-05-27T11:20:10Z</time>
      </trkpt>
      <trkpt lat="47.70093" lon="-2.29626">
        <ele>71.9</ele>
        <time>2021-05-27T11:20:11Z</time>
      </trkpt>
      <trkpt lat="47.70096" lon="-2.29629">
        <ele>71.9</ele>
        <time>2021-05-27T11:20:12Z</time>
      </trkpt>
      <trkpt lat="47.70099" lon="-2.29633">
        <ele>71.9</ele>
        <time>2021-05-27T11:20:13Z</time>
      </trkpt>
      <trkpt lat="47.70102" lon="-2.29636">
        <ele>71.9</ele>
        <time>2021-05-27T11:20:14Z</time>
      </trkpt>
      <trkpt lat="47.70103" lon="-2.29639">
        <ele>71.9</ele>
        <time>2021-05-27T11:20:15Z</time>
      </trkpt>
      <trkpt lat="47.70106" lon="-2.29642">
        <ele>71.9</ele>
        <time>2021-05-27T11:20:16Z</time>
      </trkpt>
      <trkpt lat="47.70109" lon="-2.29646">
        <ele>71.9</ele>
        <time>2021-05-27T11:20:17Z</time>
      </trkpt>
      <trkpt lat="47.70114" lon="-2.2965">
        <ele>71.9</ele>
        <time>2021-05-27T11:20:18Z</time>
      </trkpt>
      <trkpt lat="47.70118" lon="-2.29654">
        <ele>71.9</ele>
        <time>2021-05-27T11:20:19Z</time>
      </trkpt>
      <trkpt lat="47.70121" lon="-2.29658">
        <ele>72</ele>
        <time>2021-05-27T11:20:20Z</time>
      </trkpt>
      <trkpt lat="47.70124" lon="-2.29662">
        <ele>72</ele>
        <time>2021-05-27T11:20:21Z</time>
      </trkpt>
      <trkpt lat="47.70127" lon="-2.29666">
        <ele>72</ele>
        <time>2021-05-27T11:20:22Z</time>
      </trkpt>
      <trkpt lat="47.7013" lon="-2.2967">
        <ele>72.1</ele>
        <time>2021-05-27T11:20:23Z</time>
      </trkpt>
      <trkpt lat="47.70132" lon="-2.29674">
        <ele>72.2</ele>
        <time>2021-05-27T11:20:24Z</time>
      </trkpt>
      <trkpt lat="47.70134" lon="-2.29679">
        <ele>72.3</ele>
        <time>2021-05-27T11:20:25Z</time>
      </trkpt>
      <trkpt lat="47.70134" lon="-2.29683">
        <ele>72.4</ele>
        <time>2021-05-27T11:20:26Z</time>
      </trkpt>
      <trkpt lat="47.70133" lon="-2.29687">
        <ele>72.5</ele>
        <time>2021-05-27T11:20:27Z</time>
      </trkpt>
      <trkpt lat="47.70131" lon="-2.29691">
        <ele>72.5</ele>
        <time>2021-05-27T11:20:28Z</time>
      </trkpt>
      <trkpt lat="47.7013" lon="-2.29694">
        <ele>72.6</ele>
        <time>2021-05-27T11:20:29Z</time>
      </trkpt>
      <trkpt lat="47.70129" lon="-2.29697">
        <ele>72.6</ele>
        <time>2021-05-27T11:20:30Z</time>
      </trkpt>
      <trkpt lat="47.70129" lon="-2.29699">
        <ele>72.7</ele>
        <time>2021-05-27T11:20:31Z</time>
      </trkpt>
      <trkpt lat="47.70128" lon="-2.297">
        <ele>72.7</ele>
        <time>2021-05-27T11:20:32Z</time>
      </trkpt>
      <trkpt lat="47.70128" lon="-2.29701">
        <ele>72.7</ele>
        <time>2021-05-27T11:20:33Z</time>
      </trkpt>
      <trkpt lat="47.70129" lon="-2.29704">
        <ele>72.8</ele>
        <time>2021-05-27T11:20:34Z</time>
      </trkpt>
      <trkpt lat="47.7013" lon="-2.29707">
        <ele>72.9</ele>
        <time>2021-05-27T11:20:35Z</time>
      </trkpt>
      <trkpt lat="47.7013" lon="-2.29711">
        <ele>72.9</ele>
        <time>2021-05-27T11:20:36Z</time>
      </trkpt>
      <trkpt lat="47.7013" lon="-2.29715">
        <ele>73</ele>
        <time>2021-05-27T11:20:37Z</time>
      </trkpt>
      <trkpt lat="47.7013" lon="-2.2972">
        <ele>73.1</ele>
        <time>2021-05-27T11:20:38Z</time>
      </trkpt>
      <trkpt lat="47.70129" lon="-2.29723">
        <ele>73.2</ele>
        <time>2021-05-27T11:20:39Z</time>
      </trkpt>
      <trkpt lat="47.70129" lon="-2.29726">
        <ele>73.2</ele>
        <time>2021-05-27T11:20:40Z</time>
      </trkpt>
      <trkpt lat="47.7013" lon="-2.29728">
        <ele>73.3</ele>
        <time>2021-05-27T11:20:41Z</time>
      </trkpt>
      <trkpt lat="47.70132" lon="-2.29731">
        <ele>73.5</ele>
        <time>2021-05-27T11:20:42Z</time>
      </trkpt>
      <trkpt lat="47.70134" lon="-2.29734">
        <ele>73.7</ele>
        <time>2021-05-27T11:20:43Z</time>
      </trkpt>
      <trkpt lat="47.70136" lon="-2.29739">
        <ele>73.9</ele>
        <time>2021-05-27T11:20:44Z</time>
      </trkpt>
      <trkpt lat="47.70137" lon="-2.29743">
        <ele>74</ele>
        <time>2021-05-27T11:20:45Z</time>
      </trkpt>
      <trkpt lat="47.70138" lon="-2.29747">
        <ele>74.2</ele>
        <time>2021-05-27T11:20:46Z</time>
      </trkpt>
      <trkpt lat="47.70139" lon="-2.29752">
        <ele>74.4</ele>
        <time>2021-05-27T11:20:47Z</time>
      </trkpt>
      <trkpt lat="47.70139" lon="-2.29758">
        <ele>74.6</ele>
        <time>2021-05-27T11:20:48Z</time>
      </trkpt>
      <trkpt lat="47.70139" lon="-2.29763">
        <ele>74.8</ele>
        <time>2021-05-27T11:20:49Z</time>
      </trkpt>
      <trkpt lat="47.70139" lon="-2.29768">
        <ele>75</ele>
        <time>2021-05-27T11:20:50Z</time>
      </trkpt>
      <trkpt lat="47.70139" lon="-2.29773">
        <ele>75.1</ele>
        <time>2021-05-27T11:20:51Z</time>
      </trkpt>
      <trkpt lat="47.70139" lon="-2.29779">
        <ele>75.3</ele>
        <time>2021-05-27T11:20:52Z</time>
      </trkpt>
      <trkpt lat="47.70139" lon="-2.29785">
        <ele>75.6</ele>
        <time>2021-05-27T11:20:53Z</time>
      </trkpt>
      <trkpt lat="47.70138" lon="-2.29792">
        <ele>75.8</ele>
        <time>2021-05-27T11:20:54Z</time>
      </trkpt>
      <trkpt lat="47.70138" lon="-2.29798">
        <ele>76</ele>
        <time>2021-05-27T11:20:55Z</time>
      </trkpt>
      <trkpt lat="47.70138" lon="-2.29805">
        <ele>76.3</ele>
        <time>2021-05-27T11:20:56Z</time>
      </trkpt>
      <trkpt lat="47.70138" lon="-2.29811">
        <ele>76.5</ele>
        <time>2021-05-27T11:20:57Z</time>
      </trkpt>
      <trkpt lat="47.70137" lon="-2.29817">
        <ele>76.6</ele>
        <time>2021-05-27T11:20:58Z</time>
      </trkpt>
      <trkpt lat="47.70137" lon="-2.29824">
        <ele>76.8</ele>
        <time>2021-05-27T11:20:59Z</time>
      </trkpt>
      <trkpt lat="47.70136" lon="-2.29831">
        <ele>77</ele>
        <time>2021-05-27T11:21:00Z</time>
      </trkpt>
      <trkpt lat="47.70136" lon="-2.29838">
        <ele>77</ele>
        <time>2021-05-27T11:21:01Z</time>
      </trkpt>
      <trkpt lat="47.70136" lon="-2.29844">
        <ele>77</ele>
        <time>2021-05-27T11:21:02Z</time>
      </trkpt>
      <trkpt lat="47.70137" lon="-2.2985">
        <ele>77</ele>
        <time>2021-05-27T11:21:03Z</time>
      </trkpt>
      <trkpt lat="47.70137" lon="-2.29856">
        <ele>77</ele>
        <time>2021-05-27T11:21:04Z</time>
      </trkpt>
      <trkpt lat="47.70137" lon="-2.29862">
        <ele>76.9</ele>
        <time>2021-05-27T11:21:05Z</time>
      </trkpt>
      <trkpt lat="47.70137" lon="-2.29867">
        <ele>76.9</ele>
        <time>2021-05-27T11:21:06Z</time>
      </trkpt>
      <trkpt lat="47.70137" lon="-2.29873">
        <ele>76.8</ele>
        <time>2021-05-27T11:21:07Z</time>
      </trkpt>
      <trkpt lat="47.70137" lon="-2.29878">
        <ele>76.8</ele>
        <time>2021-05-27T11:21:08Z</time>
      </trkpt>
      <trkpt lat="47.70137" lon="-2.29883">
        <ele>76.8</ele>
        <time>2021-05-27T11:21:09Z</time>
      </trkpt>
      <trkpt lat="47.70137" lon="-2.2989">
        <ele>76.8</ele>
        <time>2021-05-27T11:21:10Z</time>
      </trkpt>
      <trkpt lat="47.70137" lon="-2.29895">
        <ele>76.7</ele>
        <time>2021-05-27T11:21:11Z</time>
      </trkpt>
      <trkpt lat="47.70137" lon="-2.29901">
        <ele>76.6</ele>
        <time>2021-05-27T11:21:12Z</time>
      </trkpt>
      <trkpt lat="47.70137" lon="-2.29907">
        <ele>76.6</ele>
        <time>2021-05-27T11:21:13Z</time>
      </trkpt>
      <trkpt lat="47.70137" lon="-2.29914">
        <ele>76.5</ele>
        <time>2021-05-27T11:21:14Z</time>
      </trkpt>
      <trkpt lat="47.70137" lon="-2.2992">
        <ele>76.4</ele>
        <time>2021-05-27T11:21:15Z</time>
      </trkpt>
      <trkpt lat="47.70137" lon="-2.29926">
        <ele>76.2</ele>
        <time>2021-05-27T11:21:16Z</time>
      </trkpt>
      <trkpt lat="47.70138" lon="-2.29932">
        <ele>76.1</ele>
        <time>2021-05-27T11:21:17Z</time>
      </trkpt>
      <trkpt lat="47.70138" lon="-2.29939">
        <ele>75.9</ele>
        <time>2021-05-27T11:21:18Z</time>
      </trkpt>
      <trkpt lat="47.70138" lon="-2.29946">
        <ele>75.7</ele>
        <time>2021-05-27T11:21:19Z</time>
      </trkpt>
      <trkpt lat="47.70138" lon="-2.29951">
        <ele>75.5</ele>
        <time>2021-05-27T11:21:20Z</time>
      </trkpt>
      <trkpt lat="47.70137" lon="-2.29956">
        <ele>75.3</ele>
        <time>2021-05-27T11:21:21Z</time>
      </trkpt>
      <trkpt lat="47.70134" lon="-2.29961">
        <ele>75</ele>
        <time>2021-05-27T11:21:22Z</time>
      </trkpt>
      <trkpt lat="47.70133" lon="-2.29967">
        <ele>74.8</ele>
        <time>2021-05-27T11:21:23Z</time>
      </trkpt>
      <trkpt lat="47.70132" lon="-2.29972">
        <ele>74.5</ele>
        <time>2021-05-27T11:21:24Z</time>
      </trkpt>
      <trkpt lat="47.70131" lon="-2.29978">
        <ele>74.3</ele>
        <time>2021-05-27T11:21:25Z</time>
      </trkpt>
      <trkpt lat="47.70129" lon="-2.29983">
        <ele>74.1</ele>
        <time>2021-05-27T11:21:26Z</time>
      </trkpt>
      <trkpt lat="47.70127" lon="-2.29989">
        <ele>73.9</ele>
        <time>2021-05-27T11:21:27Z</time>
      </trkpt>
      <trkpt lat="47.70126" lon="-2.29993">
        <ele>73.7</ele>
        <time>2021-05-27T11:21:28Z</time>
      </trkpt>
      <trkpt lat="47.70125" lon="-2.29997">
        <ele>73.6</ele>
        <time>2021-05-27T11:21:29Z</time>
      </trkpt>
      <trkpt lat="47.70125" lon="-2.3">
        <ele>73.5</ele>
        <time>2021-05-27T11:21:30Z</time>
      </trkpt>
      <trkpt lat="47.70127" lon="-2.30003">
        <ele>73.6</ele>
        <time>2021-05-27T11:21:31Z</time>
      </trkpt>
      <trkpt lat="47.70129" lon="-2.30005">
        <ele>73.7</ele>
        <time>2021-05-27T11:21:32Z</time>
      </trkpt>
      <trkpt lat="47.70133" lon="-2.30005">
        <ele>73.8</ele>
        <time>2021-05-27T11:21:33Z</time>
      </trkpt>
      <trkpt lat="47.70137" lon="-2.30005">
        <ele>73.9</ele>
        <time>2021-05-27T11:21:34Z</time>
      </trkpt>
      <trkpt lat="47.70141" lon="-2.30007">
        <ele>74.1</ele>
        <time>2021-05-27T11:21:35Z</time>
      </trkpt>
      <trkpt lat="47.70147" lon="-2.30008">
        <ele>74.2</ele>
        <time>2021-05-27T11:21:36Z</time>
      </trkpt>
      <trkpt lat="47.70151" lon="-2.30009">
        <ele>74.4</ele>
        <time>2021-05-27T11:21:37Z</time>
      </trkpt>
      <trkpt lat="47.70157" lon="-2.3001">
        <ele>74.6</ele>
        <time>2021-05-27T11:21:38Z</time>
      </trkpt>
      <trkpt lat="47.70161" lon="-2.30012">
        <ele>74.7</ele>
        <time>2021-05-27T11:21:39Z</time>
      </trkpt>
      <trkpt lat="47.70167" lon="-2.30013">
        <ele>74.8</ele>
        <time>2021-05-27T11:21:40Z</time>
      </trkpt>
      <trkpt lat="47.70172" lon="-2.30015">
        <ele>74.8</ele>
        <time>2021-05-27T11:21:41Z</time>
      </trkpt>
      <trkpt lat="47.70178" lon="-2.30016">
        <ele>74.8</ele>
        <time>2021-05-27T11:21:42Z</time>
      </trkpt>
      <trkpt lat="47.70183" lon="-2.30017">
        <ele>74.8</ele>
        <time>2021-05-27T11:21:43Z</time>
      </trkpt>
      <trkpt lat="47.70187" lon="-2.30017">
        <ele>74.7</ele>
        <time>2021-05-27T11:21:44Z</time>
      </trkpt>
      <trkpt lat="47.70191" lon="-2.30017">
        <ele>74.7</ele>
        <time>2021-05-27T11:21:45Z</time>
      </trkpt>
      <trkpt lat="47.70195" lon="-2.30017">
        <ele>74.7</ele>
        <time>2021-05-27T11:21:46Z</time>
      </trkpt>
      <trkpt lat="47.70199" lon="-2.30017">
        <ele>74.7</ele>
        <time>2021-05-27T11:21:47Z</time>
      </trkpt>
      <trkpt lat="47.70202" lon="-2.30017">
        <ele>74.7</ele>
        <time>2021-05-27T11:21:48Z</time>
      </trkpt>
      <trkpt lat="47.70206" lon="-2.30018">
        <ele>74.7</ele>
        <time>2021-05-27T11:21:49Z</time>
      </trkpt>
      <trkpt lat="47.70209" lon="-2.30018">
        <ele>74.7</ele>
        <time>2021-05-27T11:21:50Z</time>
      </trkpt>
      <trkpt lat="47.70212" lon="-2.30018">
        <ele>74.7</ele>
        <time>2021-05-27T11:21:51Z</time>
      </trkpt>
      <trkpt lat="47.70213" lon="-2.30018">
        <ele>74.7</ele>
        <time>2021-05-27T11:21:52Z</time>
      </trkpt>
      <trkpt lat="47.70213" lon="-2.30017">
        <ele>74.7</ele>
        <time>2021-05-27T11:21:53Z</time>
      </trkpt>
      <trkpt lat="47.70213" lon="-2.30017">
        <ele>74.7</ele>
        <time>2021-05-27T11:21:54Z</time>
      </trkpt>
      <trkpt lat="47.70213" lon="-2.30017">
        <ele>74.7</ele>
        <time>2021-05-27T11:21:55Z</time>
      </trkpt>
      <trkpt lat="47.70213" lon="-2.30017">
        <ele>74.7</ele>
        <time>2021-05-27T11:21:56Z</time>
      </trkpt>
      <trkpt lat="47.70213" lon="-2.30017">
        <ele>74.7</ele>
        <time>2021-05-27T11:21:57Z</time>
      </trkpt>
      <trkpt lat="47.70217" lon="-2.3002">
        <ele>74.6</ele>
        <time>2021-05-27T11:21:58Z</time>
      </trkpt>
      <trkpt lat="47.70221" lon="-2.30021">
        <ele>74.6</ele>
        <time>2021-05-27T11:21:59Z</time>
      </trkpt>
      <trkpt lat="47.70226" lon="-2.30022">
        <ele>74.6</ele>
        <time>2021-05-27T11:22:00Z</time>
      </trkpt>
      <trkpt lat="47.7023" lon="-2.30022">
        <ele>74.5</ele>
        <time>2021-05-27T11:22:01Z</time>
      </trkpt>
      <trkpt lat="47.70236" lon="-2.30023">
        <ele>74.5</ele>
        <time>2021-05-27T11:22:02Z</time>
      </trkpt>
      <trkpt lat="47.70241" lon="-2.30024">
        <ele>74.5</ele>
        <time>2021-05-27T11:22:03Z</time>
      </trkpt>
      <trkpt lat="47.70245" lon="-2.30025">
        <ele>74.4</ele>
        <time>2021-05-27T11:22:04Z</time>
      </trkpt>
      <trkpt lat="47.7025" lon="-2.30028">
        <ele>74.3</ele>
        <time>2021-05-27T11:22:05Z</time>
      </trkpt>
      <trkpt lat="47.70254" lon="-2.30032">
        <ele>73.3</ele>
        <time>2021-05-27T11:22:06Z</time>
      </trkpt>
      <trkpt lat="47.70258" lon="-2.30037">
        <ele>72.4</ele>
        <time>2021-05-27T11:22:07Z</time>
      </trkpt>
      <trkpt lat="47.70262" lon="-2.30042">
        <ele>71.7</ele>
        <time>2021-05-27T11:22:08Z</time>
      </trkpt>
      <trkpt lat="47.70263" lon="-2.30047">
        <ele>71.4</ele>
        <time>2021-05-27T11:22:09Z</time>
      </trkpt>
      <trkpt lat="47.70264" lon="-2.30052">
        <ele>71.1</ele>
        <time>2021-05-27T11:22:10Z</time>
      </trkpt>
      <trkpt lat="47.70264" lon="-2.30058">
        <ele>71</ele>
        <time>2021-05-27T11:22:11Z</time>
      </trkpt>
      <trkpt lat="47.70264" lon="-2.30064">
        <ele>71</ele>
        <time>2021-05-27T11:22:12Z</time>
      </trkpt>
      <trkpt lat="47.70264" lon="-2.3007">
        <ele>70.9</ele>
        <time>2021-05-27T11:22:13Z</time>
      </trkpt>
      <trkpt lat="47.70264" lon="-2.30075">
        <ele>70.9</ele>
        <time>2021-05-27T11:22:14Z</time>
      </trkpt>
      <trkpt lat="47.70264" lon="-2.30081">
        <ele>70.8</ele>
        <time>2021-05-27T11:22:15Z</time>
      </trkpt>
      <trkpt lat="47.70264" lon="-2.30087">
        <ele>70.8</ele>
        <time>2021-05-27T11:22:16Z</time>
      </trkpt>
      <trkpt lat="47.70263" lon="-2.30097">
        <ele>70.9</ele>
        <time>2021-05-27T11:22:18Z</time>
      </trkpt>
      <trkpt lat="47.70263" lon="-2.30102">
        <ele>70.9</ele>
        <time>2021-05-27T11:22:19Z</time>
      </trkpt>
      <trkpt lat="47.70263" lon="-2.30108">
        <ele>71</ele>
        <time>2021-05-27T11:22:20Z</time>
      </trkpt>
      <trkpt lat="47.70262" lon="-2.30113">
        <ele>71.1</ele>
        <time>2021-05-27T11:22:21Z</time>
      </trkpt>
      <trkpt lat="47.70261" lon="-2.30119">
        <ele>71.2</ele>
        <time>2021-05-27T11:22:22Z</time>
      </trkpt>
      <trkpt lat="47.70261" lon="-2.30125">
        <ele>71.2</ele>
        <time>2021-05-27T11:22:23Z</time>
      </trkpt>
      <trkpt lat="47.7026" lon="-2.30131">
        <ele>71.3</ele>
        <time>2021-05-27T11:22:24Z</time>
      </trkpt>
      <trkpt lat="47.7026" lon="-2.30138">
        <ele>71.3</ele>
        <time>2021-05-27T11:22:25Z</time>
      </trkpt>
      <trkpt lat="47.70259" lon="-2.30144">
        <ele>71.3</ele>
        <time>2021-05-27T11:22:26Z</time>
      </trkpt>
      <trkpt lat="47.70258" lon="-2.3015">
        <ele>71.4</ele>
        <time>2021-05-27T11:22:27Z</time>
      </trkpt>
      <trkpt lat="47.70256" lon="-2.30156">
        <ele>71.5</ele>
        <time>2021-05-27T11:22:28Z</time>
      </trkpt>
      <trkpt lat="47.70255" lon="-2.30162">
        <ele>71.6</ele>
        <time>2021-05-27T11:22:29Z</time>
      </trkpt>
      <trkpt lat="47.70253" lon="-2.30169">
        <ele>71.7</ele>
        <time>2021-05-27T11:22:30Z</time>
      </trkpt>
      <trkpt lat="47.70252" lon="-2.30176">
        <ele>71.9</ele>
        <time>2021-05-27T11:22:31Z</time>
      </trkpt>
      <trkpt lat="47.70252" lon="-2.30183">
        <ele>72.1</ele>
        <time>2021-05-27T11:22:32Z</time>
      </trkpt>
      <trkpt lat="47.70251" lon="-2.3019">
        <ele>72.2</ele>
        <time>2021-05-27T11:22:33Z</time>
      </trkpt>
      <trkpt lat="47.70249" lon="-2.30198">
        <ele>72.4</ele>
        <time>2021-05-27T11:22:34Z</time>
      </trkpt>
      <trkpt lat="47.70248" lon="-2.30205">
        <ele>72.5</ele>
        <time>2021-05-27T11:22:35Z</time>
      </trkpt>
      <trkpt lat="47.70248" lon="-2.30212">
        <ele>72.6</ele>
        <time>2021-05-27T11:22:36Z</time>
      </trkpt>
      <trkpt lat="47.70246" lon="-2.30219">
        <ele>72.7</ele>
        <time>2021-05-27T11:22:37Z</time>
      </trkpt>
      <trkpt lat="47.70245" lon="-2.30226">
        <ele>72.8</ele>
        <time>2021-05-27T11:22:38Z</time>
      </trkpt>
      <trkpt lat="47.70243" lon="-2.30233">
        <ele>72.8</ele>
        <time>2021-05-27T11:22:39Z</time>
      </trkpt>
      <trkpt lat="47.70242" lon="-2.30239">
        <ele>72.9</ele>
        <time>2021-05-27T11:22:40Z</time>
      </trkpt>
      <trkpt lat="47.7024" lon="-2.30245">
        <ele>73</ele>
        <time>2021-05-27T11:22:41Z</time>
      </trkpt>
      <trkpt lat="47.70239" lon="-2.3025">
        <ele>73</ele>
        <time>2021-05-27T11:22:42Z</time>
      </trkpt>
      <trkpt lat="47.70238" lon="-2.30254">
        <ele>73.1</ele>
        <time>2021-05-27T11:22:43Z</time>
      </trkpt>
      <trkpt lat="47.70237" lon="-2.30256">
        <ele>73.2</ele>
        <time>2021-05-27T11:22:44Z</time>
      </trkpt>
      <trkpt lat="47.70237" lon="-2.30259">
        <ele>73.3</ele>
        <time>2021-05-27T11:22:45Z</time>
      </trkpt>
      <trkpt lat="47.70236" lon="-2.30263">
        <ele>73.4</ele>
        <time>2021-05-27T11:22:46Z</time>
      </trkpt>
      <trkpt lat="47.70234" lon="-2.30266">
        <ele>73.5</ele>
        <time>2021-05-27T11:22:47Z</time>
      </trkpt>
      <trkpt lat="47.70232" lon="-2.30269">
        <ele>73.6</ele>
        <time>2021-05-27T11:22:48Z</time>
      </trkpt>
      <trkpt lat="47.70232" lon="-2.30274">
        <ele>73.8</ele>
        <time>2021-05-27T11:22:49Z</time>
      </trkpt>
      <trkpt lat="47.70234" lon="-2.30276">
        <ele>73.9</ele>
        <time>2021-05-27T11:22:50Z</time>
      </trkpt>
      <trkpt lat="47.70236" lon="-2.30278">
        <ele>74</ele>
        <time>2021-05-27T11:22:51Z</time>
      </trkpt>
      <trkpt lat="47.70239" lon="-2.30278">
        <ele>74</ele>
        <time>2021-05-27T11:22:52Z</time>
      </trkpt>
      <trkpt lat="47.70241" lon="-2.30277">
        <ele>73.9</ele>
        <time>2021-05-27T11:22:53Z</time>
      </trkpt>
      <trkpt lat="47.70243" lon="-2.30275">
        <ele>73.9</ele>
        <time>2021-05-27T11:22:54Z</time>
      </trkpt>
      <trkpt lat="47.70245" lon="-2.30272">
        <ele>73.8</ele>
        <time>2021-05-27T11:22:55Z</time>
      </trkpt>
      <trkpt lat="47.70248" lon="-2.3027">
        <ele>73.7</ele>
        <time>2021-05-27T11:22:56Z</time>
      </trkpt>
      <trkpt lat="47.70251" lon="-2.30267">
        <ele>73.5</ele>
        <time>2021-05-27T11:22:57Z</time>
      </trkpt>
      <trkpt lat="47.70255" lon="-2.30265">
        <ele>73.2</ele>
        <time>2021-05-27T11:22:58Z</time>
      </trkpt>
      <trkpt lat="47.70259" lon="-2.30263">
        <ele>72.8</ele>
        <time>2021-05-27T11:22:59Z</time>
      </trkpt>
      <trkpt lat="47.70263" lon="-2.30263">
        <ele>72.5</ele>
        <time>2021-05-27T11:23:00Z</time>
      </trkpt>
      <trkpt lat="47.70267" lon="-2.30262">
        <ele>72.1</ele>
        <time>2021-05-27T11:23:01Z</time>
      </trkpt>
      <trkpt lat="47.7027" lon="-2.30261">
        <ele>71.8</ele>
        <time>2021-05-27T11:23:02Z</time>
      </trkpt>
      <trkpt lat="47.70272" lon="-2.30258">
        <ele>71.6</ele>
        <time>2021-05-27T11:23:03Z</time>
      </trkpt>
      <trkpt lat="47.70274" lon="-2.30255">
        <ele>71.3</ele>
        <time>2021-05-27T11:23:04Z</time>
      </trkpt>
      <trkpt lat="47.70276" lon="-2.30251">
        <ele>70.9</ele>
        <time>2021-05-27T11:23:05Z</time>
      </trkpt>
      <trkpt lat="47.70279" lon="-2.30246">
        <ele>70.5</ele>
        <time>2021-05-27T11:23:06Z</time>
      </trkpt>
      <trkpt lat="47.70282" lon="-2.30241">
        <ele>70.2</ele>
        <time>2021-05-27T11:23:07Z</time>
      </trkpt>
      <trkpt lat="47.70287" lon="-2.30237">
        <ele>69.8</ele>
        <time>2021-05-27T11:23:08Z</time>
      </trkpt>
      <trkpt lat="47.7029" lon="-2.30233">
        <ele>69.4</ele>
        <time>2021-05-27T11:23:09Z</time>
      </trkpt>
      <trkpt lat="47.70294" lon="-2.3023">
        <ele>69.1</ele>
        <time>2021-05-27T11:23:10Z</time>
      </trkpt>
      <trkpt lat="47.70298" lon="-2.30229">
        <ele>68.7</ele>
        <time>2021-05-27T11:23:11Z</time>
      </trkpt>
      <trkpt lat="47.70303" lon="-2.30228">
        <ele>68.3</ele>
        <time>2021-05-27T11:23:12Z</time>
      </trkpt>
      <trkpt lat="47.70308" lon="-2.30225">
        <ele>67.8</ele>
        <time>2021-05-27T11:23:13Z</time>
      </trkpt>
      <trkpt lat="47.70314" lon="-2.30222">
        <ele>67.3</ele>
        <time>2021-05-27T11:23:14Z</time>
      </trkpt>
      <trkpt lat="47.7032" lon="-2.30219">
        <ele>66.7</ele>
        <time>2021-05-27T11:23:15Z</time>
      </trkpt>
      <trkpt lat="47.70326" lon="-2.30216">
        <ele>66.2</ele>
        <time>2021-05-27T11:23:16Z</time>
      </trkpt>
      <trkpt lat="47.70334" lon="-2.30214">
        <ele>65.5</ele>
        <time>2021-05-27T11:23:17Z</time>
      </trkpt>
      <trkpt lat="47.70341" lon="-2.30214">
        <ele>64.2</ele>
        <time>2021-05-27T11:23:18Z</time>
      </trkpt>
      <trkpt lat="47.70346" lon="-2.30214">
        <ele>63.2</ele>
        <time>2021-05-27T11:23:19Z</time>
      </trkpt>
      <trkpt lat="47.70352" lon="-2.30213">
        <ele>62</ele>
        <time>2021-05-27T11:23:20Z</time>
      </trkpt>
      <trkpt lat="47.70358" lon="-2.30212">
        <ele>60.8</ele>
        <time>2021-05-27T11:23:21Z</time>
      </trkpt>
      <trkpt lat="47.70365" lon="-2.30211">
        <ele>59.5</ele>
        <time>2021-05-27T11:23:22Z</time>
      </trkpt>
      <trkpt lat="47.70371" lon="-2.30209">
        <ele>58.3</ele>
        <time>2021-05-27T11:23:23Z</time>
      </trkpt>
      <trkpt lat="47.70377" lon="-2.30205">
        <ele>57.1</ele>
        <time>2021-05-27T11:23:24Z</time>
      </trkpt>
      <trkpt lat="47.70381" lon="-2.302">
        <ele>56</ele>
        <time>2021-05-27T11:23:25Z</time>
      </trkpt>
      <trkpt lat="47.70386" lon="-2.30196">
        <ele>54.9</ele>
        <time>2021-05-27T11:23:26Z</time>
      </trkpt>
      <trkpt lat="47.7039" lon="-2.30194">
        <ele>54</ele>
        <time>2021-05-27T11:23:27Z</time>
      </trkpt>
      <trkpt lat="47.70394" lon="-2.30192">
        <ele>53</ele>
        <time>2021-05-27T11:23:28Z</time>
      </trkpt>
      <trkpt lat="47.70399" lon="-2.30191">
        <ele>52</ele>
        <time>2021-05-27T11:23:29Z</time>
      </trkpt>
      <trkpt lat="47.70403" lon="-2.30191">
        <ele>51.2</ele>
        <time>2021-05-27T11:23:30Z</time>
      </trkpt>
      <trkpt lat="47.70409" lon="-2.30192">
        <ele>50.1</ele>
        <time>2021-05-27T11:23:31Z</time>
      </trkpt>
      <trkpt lat="47.70413" lon="-2.30193">
        <ele>49.4</ele>
        <time>2021-05-27T11:23:32Z</time>
      </trkpt>
      <trkpt lat="47.70416" lon="-2.30196">
        <ele>48.8</ele>
        <time>2021-05-27T11:23:33Z</time>
      </trkpt>
      <trkpt lat="47.70419" lon="-2.30201">
        <ele>48.8</ele>
        <time>2021-05-27T11:23:34Z</time>
      </trkpt>
      <trkpt lat="47.70421" lon="-2.30206">
        <ele>48.8</ele>
        <time>2021-05-27T11:23:35Z</time>
      </trkpt>
      <trkpt lat="47.70423" lon="-2.30211">
        <ele>48.8</ele>
        <time>2021-05-27T11:23:36Z</time>
      </trkpt>
      <trkpt lat="47.70427" lon="-2.30216">
        <ele>48.4</ele>
        <time>2021-05-27T11:23:37Z</time>
      </trkpt>
      <trkpt lat="47.70432" lon="-2.30221">
        <ele>47.9</ele>
        <time>2021-05-27T11:23:38Z</time>
      </trkpt>
      <trkpt lat="47.70437" lon="-2.30227">
        <ele>47.4</ele>
        <time>2021-05-27T11:23:39Z</time>
      </trkpt>
      <trkpt lat="47.70442" lon="-2.30235">
        <ele>47</ele>
        <time>2021-05-27T11:23:40Z</time>
      </trkpt>
      <trkpt lat="47.70446" lon="-2.30242">
        <ele>46.7</ele>
        <time>2021-05-27T11:23:41Z</time>
      </trkpt>
      <trkpt lat="47.7045" lon="-2.30251">
        <ele>46.3</ele>
        <time>2021-05-27T11:23:42Z</time>
      </trkpt>
      <trkpt lat="47.70453" lon="-2.30258">
        <ele>45.8</ele>
        <time>2021-05-27T11:23:43Z</time>
      </trkpt>
      <trkpt lat="47.70458" lon="-2.30266">
        <ele>45.1</ele>
        <time>2021-05-27T11:23:44Z</time>
      </trkpt>
      <trkpt lat="47.70461" lon="-2.30272">
        <ele>44.5</ele>
        <time>2021-05-27T11:23:45Z</time>
      </trkpt>
      <trkpt lat="47.70463" lon="-2.30278">
        <ele>44.2</ele>
        <time>2021-05-27T11:23:46Z</time>
      </trkpt>
      <trkpt lat="47.70463" lon="-2.30284">
        <ele>44.2</ele>
        <time>2021-05-27T11:23:47Z</time>
      </trkpt>
      <trkpt lat="47.70461" lon="-2.3029">
        <ele>44.5</ele>
        <time>2021-05-27T11:23:48Z</time>
      </trkpt>
      <trkpt lat="47.70459" lon="-2.30294">
        <ele>44.8</ele>
        <time>2021-05-27T11:23:49Z</time>
      </trkpt>
      <trkpt lat="47.70456" lon="-2.30296">
        <ele>45.4</ele>
        <time>2021-05-27T11:23:50Z</time>
      </trkpt>
      <trkpt lat="47.70454" lon="-2.30298">
        <ele>45.8</ele>
        <time>2021-05-27T11:23:51Z</time>
      </trkpt>
      <trkpt lat="47.70452" lon="-2.303">
        <ele>46.2</ele>
        <time>2021-05-27T11:23:52Z</time>
      </trkpt>
      <trkpt lat="47.7045" lon="-2.30302">
        <ele>46.6</ele>
        <time>2021-05-27T11:23:53Z</time>
      </trkpt>
      <trkpt lat="47.70449" lon="-2.30304">
        <ele>46.8</ele>
        <time>2021-05-27T11:23:54Z</time>
      </trkpt>
      <trkpt lat="47.70447" lon="-2.30306">
        <ele>47.1</ele>
        <time>2021-05-27T11:23:55Z</time>
      </trkpt>
      <trkpt lat="47.70445" lon="-2.30308">
        <ele>47.4</ele>
        <time>2021-05-27T11:23:56Z</time>
      </trkpt>
      <trkpt lat="47.70443" lon="-2.3031">
        <ele>47.8</ele>
        <time>2021-05-27T11:23:57Z</time>
      </trkpt>
      <trkpt lat="47.70441" lon="-2.30311">
        <ele>48.2</ele>
        <time>2021-05-27T11:23:58Z</time>
      </trkpt>
      <trkpt lat="47.70439" lon="-2.30314">
        <ele>48.6</ele>
        <time>2021-05-27T11:23:59Z</time>
      </trkpt>
      <trkpt lat="47.70438" lon="-2.30317">
        <ele>48.8</ele>
        <time>2021-05-27T11:24:00Z</time>
      </trkpt>
      <trkpt lat="47.70437" lon="-2.30322">
        <ele>49</ele>
        <time>2021-05-27T11:24:01Z</time>
      </trkpt>
      <trkpt lat="47.70436" lon="-2.30326">
        <ele>49.2</ele>
        <time>2021-05-27T11:24:02Z</time>
      </trkpt>
      <trkpt lat="47.70435" lon="-2.30331">
        <ele>49.5</ele>
        <time>2021-05-27T11:24:03Z</time>
      </trkpt>
      <trkpt lat="47.70434" lon="-2.30336">
        <ele>49.7</ele>
        <time>2021-05-27T11:24:04Z</time>
      </trkpt>
      <trkpt lat="47.70432" lon="-2.30341">
        <ele>50</ele>
        <time>2021-05-27T11:24:05Z</time>
      </trkpt>
      <trkpt lat="47.70431" lon="-2.30346">
        <ele>50.2</ele>
        <time>2021-05-27T11:24:06Z</time>
      </trkpt>
      <trkpt lat="47.7043" lon="-2.3035">
        <ele>50.4</ele>
        <time>2021-05-27T11:24:07Z</time>
      </trkpt>
      <trkpt lat="47.70429" lon="-2.30354">
        <ele>50.7</ele>
        <time>2021-05-27T11:24:08Z</time>
      </trkpt>
      <trkpt lat="47.70426" lon="-2.30358">
        <ele>51.1</ele>
        <time>2021-05-27T11:24:09Z</time>
      </trkpt>
      <trkpt lat="47.70425" lon="-2.30362">
        <ele>51.4</ele>
        <time>2021-05-27T11:24:10Z</time>
      </trkpt>
      <trkpt lat="47.70423" lon="-2.30366">
        <ele>51.8</ele>
        <time>2021-05-27T11:24:11Z</time>
      </trkpt>
      <trkpt lat="47.70421" lon="-2.30369">
        <ele>52.1</ele>
        <time>2021-05-27T11:24:12Z</time>
      </trkpt>
      <trkpt lat="47.7042" lon="-2.30372">
        <ele>52.4</ele>
        <time>2021-05-27T11:24:13Z</time>
      </trkpt>
      <trkpt lat="47.70419" lon="-2.30375">
        <ele>52.6</ele>
        <time>2021-05-27T11:24:14Z</time>
      </trkpt>
      <trkpt lat="47.70417" lon="-2.30377">
        <ele>52.9</ele>
        <time>2021-05-27T11:24:15Z</time>
      </trkpt>
      <trkpt lat="47.70416" lon="-2.3038">
        <ele>53.2</ele>
        <time>2021-05-27T11:24:16Z</time>
      </trkpt>
      <trkpt lat="47.70415" lon="-2.30384">
        <ele>53.5</ele>
        <time>2021-05-27T11:24:17Z</time>
      </trkpt>
      <trkpt lat="47.70413" lon="-2.30388">
        <ele>53.9</ele>
        <time>2021-05-27T11:24:18Z</time>
      </trkpt>
      <trkpt lat="47.70412" lon="-2.30392">
        <ele>54.3</ele>
        <time>2021-05-27T11:24:19Z</time>
      </trkpt>
      <trkpt lat="47.70411" lon="-2.30396">
        <ele>54.5</ele>
        <time>2021-05-27T11:24:20Z</time>
      </trkpt>
      <trkpt lat="47.70409" lon="-2.304">
        <ele>55</ele>
        <time>2021-05-27T11:24:21Z</time>
      </trkpt>
      <trkpt lat="47.70408" lon="-2.30405">
        <ele>55.3</ele>
        <time>2021-05-27T11:24:22Z</time>
      </trkpt>
      <trkpt lat="47.70408" lon="-2.30412">
        <ele>55.3</ele>
        <time>2021-05-27T11:24:23Z</time>
      </trkpt>
      <trkpt lat="47.70407" lon="-2.30417">
        <ele>55.6</ele>
        <time>2021-05-27T11:24:24Z</time>
      </trkpt>
      <trkpt lat="47.70405" lon="-2.30422">
        <ele>55.9</ele>
        <time>2021-05-27T11:24:25Z</time>
      </trkpt>
      <trkpt lat="47.70405" lon="-2.30427">
        <ele>55.8</ele>
        <time>2021-05-27T11:24:26Z</time>
      </trkpt>
      <trkpt lat="47.70405" lon="-2.30434">
        <ele>55.8</ele>
        <time>2021-05-27T11:24:27Z</time>
      </trkpt>
      <trkpt lat="47.70404" lon="-2.3044">
        <ele>55.7</ele>
        <time>2021-05-27T11:24:28Z</time>
      </trkpt>
      <trkpt lat="47.70404" lon="-2.30446">
        <ele>55.6</ele>
        <time>2021-05-27T11:24:29Z</time>
      </trkpt>
      <trkpt lat="47.70404" lon="-2.30452">
        <ele>55.4</ele>
        <time>2021-05-27T11:24:30Z</time>
      </trkpt>
      <trkpt lat="47.70404" lon="-2.30458">
        <ele>55.3</ele>
        <time>2021-05-27T11:24:31Z</time>
      </trkpt>
      <trkpt lat="47.70404" lon="-2.30464">
        <ele>55.2</ele>
        <time>2021-05-27T11:24:32Z</time>
      </trkpt>
      <trkpt lat="47.70405" lon="-2.30469">
        <ele>54.8</ele>
        <time>2021-05-27T11:24:33Z</time>
      </trkpt>
      <trkpt lat="47.70406" lon="-2.30475">
        <ele>54.5</ele>
        <time>2021-05-27T11:24:34Z</time>
      </trkpt>
      <trkpt lat="47.70408" lon="-2.30482">
        <ele>53.9</ele>
        <time>2021-05-27T11:24:35Z</time>
      </trkpt>
      <trkpt lat="47.70408" lon="-2.30488">
        <ele>53.6</ele>
        <time>2021-05-27T11:24:36Z</time>
      </trkpt>
      <trkpt lat="47.7041" lon="-2.30495">
        <ele>53.1</ele>
        <time>2021-05-27T11:24:37Z</time>
      </trkpt>
      <trkpt lat="47.7041" lon="-2.30502">
        <ele>52.8</ele>
        <time>2021-05-27T11:24:38Z</time>
      </trkpt>
      <trkpt lat="47.70411" lon="-2.3051">
        <ele>52.7</ele>
        <time>2021-05-27T11:24:39Z</time>
      </trkpt>
      <trkpt lat="47.70413" lon="-2.30518">
        <ele>52.3</ele>
        <time>2021-05-27T11:24:40Z</time>
      </trkpt>
      <trkpt lat="47.70415" lon="-2.30527">
        <ele>52.1</ele>
        <time>2021-05-27T11:24:41Z</time>
      </trkpt>
      <trkpt lat="47.70416" lon="-2.30535">
        <ele>51.9</ele>
        <time>2021-05-27T11:24:42Z</time>
      </trkpt>
      <trkpt lat="47.70417" lon="-2.30543">
        <ele>52</ele>
        <time>2021-05-27T11:24:43Z</time>
      </trkpt>
      <trkpt lat="47.70418" lon="-2.30552">
        <ele>52</ele>
        <time>2021-05-27T11:24:44Z</time>
      </trkpt>
      <trkpt lat="47.7042" lon="-2.3056">
        <ele>51.8</ele>
        <time>2021-05-27T11:24:45Z</time>
      </trkpt>
      <trkpt lat="47.70422" lon="-2.30568">
        <ele>51.6</ele>
        <time>2021-05-27T11:24:46Z</time>
      </trkpt>
      <trkpt lat="47.70424" lon="-2.30577">
        <ele>51.4</ele>
        <time>2021-05-27T11:24:47Z</time>
      </trkpt>
      <trkpt lat="47.70426" lon="-2.30586">
        <ele>51.3</ele>
        <time>2021-05-27T11:24:48Z</time>
      </trkpt>
      <trkpt lat="47.70427" lon="-2.30596">
        <ele>51.3</ele>
        <time>2021-05-27T11:24:49Z</time>
      </trkpt>
      <trkpt lat="47.70429" lon="-2.30605">
        <ele>51.3</ele>
        <time>2021-05-27T11:24:50Z</time>
      </trkpt>
      <trkpt lat="47.7043" lon="-2.30616">
        <ele>51.4</ele>
        <time>2021-05-27T11:24:51Z</time>
      </trkpt>
      <trkpt lat="47.70432" lon="-2.30627">
        <ele>51.4</ele>
        <time>2021-05-27T11:24:52Z</time>
      </trkpt>
      <trkpt lat="47.70435" lon="-2.30637">
        <ele>51.1</ele>
        <time>2021-05-27T11:24:53Z</time>
      </trkpt>
      <trkpt lat="47.70438" lon="-2.30647">
        <ele>50.8</ele>
        <time>2021-05-27T11:24:54Z</time>
      </trkpt>
      <trkpt lat="47.70439" lon="-2.30656">
        <ele>50.8</ele>
        <time>2021-05-27T11:24:55Z</time>
      </trkpt>
      <trkpt lat="47.70441" lon="-2.30665">
        <ele>50.7</ele>
        <time>2021-05-27T11:24:56Z</time>
      </trkpt>
      <trkpt lat="47.70442" lon="-2.30675">
        <ele>50.5</ele>
        <time>2021-05-27T11:24:57Z</time>
      </trkpt>
      <trkpt lat="47.70443" lon="-2.30683">
        <ele>50.5</ele>
        <time>2021-05-27T11:24:58Z</time>
      </trkpt>
      <trkpt lat="47.70444" lon="-2.30692">
        <ele>50.5</ele>
        <time>2021-05-27T11:24:59Z</time>
      </trkpt>
      <trkpt lat="47.70444" lon="-2.30701">
        <ele>50.6</ele>
        <time>2021-05-27T11:25:00Z</time>
      </trkpt>
      <trkpt lat="47.70445" lon="-2.30709">
        <ele>50.6</ele>
        <time>2021-05-27T11:25:01Z</time>
      </trkpt>
      <trkpt lat="47.70446" lon="-2.30717">
        <ele>50.5</ele>
        <time>2021-05-27T11:25:02Z</time>
      </trkpt>
      <trkpt lat="47.70446" lon="-2.30724">
        <ele>50.7</ele>
        <time>2021-05-27T11:25:03Z</time>
      </trkpt>
      <trkpt lat="47.70448" lon="-2.30731">
        <ele>50.3</ele>
        <time>2021-05-27T11:25:04Z</time>
      </trkpt>
      <trkpt lat="47.70449" lon="-2.30737">
        <ele>50</ele>
        <time>2021-05-27T11:25:05Z</time>
      </trkpt>
      <trkpt lat="47.7045" lon="-2.30743">
        <ele>49.8</ele>
        <time>2021-05-27T11:25:06Z</time>
      </trkpt>
      <trkpt lat="47.70451" lon="-2.30746">
        <ele>49.7</ele>
        <time>2021-05-27T11:25:07Z</time>
      </trkpt>
      <trkpt lat="47.7045" lon="-2.30748">
        <ele>49.9</ele>
        <time>2021-05-27T11:25:08Z</time>
      </trkpt>
      <trkpt lat="47.70449" lon="-2.3075">
        <ele>50.2</ele>
        <time>2021-05-27T11:25:09Z</time>
      </trkpt>
      <trkpt lat="47.70448" lon="-2.30752">
        <ele>50.5</ele>
        <time>2021-05-27T11:25:10Z</time>
      </trkpt>
      <trkpt lat="47.70446" lon="-2.30753">
        <ele>51</ele>
        <time>2021-05-27T11:25:11Z</time>
      </trkpt>
      <trkpt lat="47.70444" lon="-2.30754">
        <ele>51.5</ele>
        <time>2021-05-27T11:25:12Z</time>
      </trkpt>
      <trkpt lat="47.70442" lon="-2.30754">
        <ele>52.1</ele>
        <time>2021-05-27T11:25:13Z</time>
      </trkpt>
      <trkpt lat="47.7044" lon="-2.30755">
        <ele>52.6</ele>
        <time>2021-05-27T11:25:14Z</time>
      </trkpt>
      <trkpt lat="47.70438" lon="-2.30756">
        <ele>53</ele>
        <time>2021-05-27T11:25:15Z</time>
      </trkpt>
      <trkpt lat="47.70436" lon="-2.30757">
        <ele>53.5</ele>
        <time>2021-05-27T11:25:16Z</time>
      </trkpt>
      <trkpt lat="47.70435" lon="-2.30758">
        <ele>53.9</ele>
        <time>2021-05-27T11:25:17Z</time>
      </trkpt>
      <trkpt lat="47.70433" lon="-2.30759">
        <ele>54.4</ele>
        <time>2021-05-27T11:25:18Z</time>
      </trkpt>
      <trkpt lat="47.70431" lon="-2.3076">
        <ele>54.9</ele>
        <time>2021-05-27T11:25:19Z</time>
      </trkpt>
      <trkpt lat="47.70429" lon="-2.30761">
        <ele>55.5</ele>
        <time>2021-05-27T11:25:20Z</time>
      </trkpt>
      <trkpt lat="47.70427" lon="-2.30761">
        <ele>55.9</ele>
        <time>2021-05-27T11:25:21Z</time>
      </trkpt>
      <trkpt lat="47.70425" lon="-2.30762">
        <ele>56.4</ele>
        <time>2021-05-27T11:25:22Z</time>
      </trkpt>
      <trkpt lat="47.70424" lon="-2.30762">
        <ele>56.7</ele>
        <time>2021-05-27T11:25:23Z</time>
      </trkpt>
      <trkpt lat="47.70422" lon="-2.30762">
        <ele>57.1</ele>
        <time>2021-05-27T11:25:24Z</time>
      </trkpt>
      <trkpt lat="47.70421" lon="-2.30762">
        <ele>57.4</ele>
        <time>2021-05-27T11:25:25Z</time>
      </trkpt>
      <trkpt lat="47.7042" lon="-2.30762">
        <ele>57.7</ele>
        <time>2021-05-27T11:25:26Z</time>
      </trkpt>
      <trkpt lat="47.70418" lon="-2.30763">
        <ele>58.1</ele>
        <time>2021-05-27T11:25:27Z</time>
      </trkpt>
      <trkpt lat="47.70417" lon="-2.30764">
        <ele>58.5</ele>
        <time>2021-05-27T11:25:28Z</time>
      </trkpt>
      <trkpt lat="47.70415" lon="-2.30764">
        <ele>58.7</ele>
        <time>2021-05-27T11:25:29Z</time>
      </trkpt>
      <trkpt lat="47.70413" lon="-2.30765">
        <ele>59</ele>
        <time>2021-05-27T11:25:30Z</time>
      </trkpt>
      <trkpt lat="47.70412" lon="-2.30766">
        <ele>59.2</ele>
        <time>2021-05-27T11:25:31Z</time>
      </trkpt>
      <trkpt lat="47.70411" lon="-2.30766">
        <ele>59.4</ele>
        <time>2021-05-27T11:25:32Z</time>
      </trkpt>
      <trkpt lat="47.7041" lon="-2.30767">
        <ele>59.6</ele>
        <time>2021-05-27T11:25:33Z</time>
      </trkpt>
      <trkpt lat="47.70408" lon="-2.30768">
        <ele>59.9</ele>
        <time>2021-05-27T11:25:34Z</time>
      </trkpt>
      <trkpt lat="47.70406" lon="-2.30769">
        <ele>60.2</ele>
        <time>2021-05-27T11:25:35Z</time>
      </trkpt>
      <trkpt lat="47.70405" lon="-2.3077">
        <ele>60.4</ele>
        <time>2021-05-27T11:25:36Z</time>
      </trkpt>
      <trkpt lat="47.70403" lon="-2.30772">
        <ele>60.6</ele>
        <time>2021-05-27T11:25:37Z</time>
      </trkpt>
      <trkpt lat="47.70402" lon="-2.30773">
        <ele>60.9</ele>
        <time>2021-05-27T11:25:38Z</time>
      </trkpt>
      <trkpt lat="47.704" lon="-2.30774">
        <ele>61.2</ele>
        <time>2021-05-27T11:25:39Z</time>
      </trkpt>
      <trkpt lat="47.70398" lon="-2.30774">
        <ele>61.5</ele>
        <time>2021-05-27T11:25:40Z</time>
      </trkpt>
      <trkpt lat="47.70396" lon="-2.30776">
        <ele>61.8</ele>
        <time>2021-05-27T11:25:41Z</time>
      </trkpt>
      <trkpt lat="47.70394" lon="-2.30777">
        <ele>62.1</ele>
        <time>2021-05-27T11:25:42Z</time>
      </trkpt>
      <trkpt lat="47.70393" lon="-2.30779">
        <ele>62.3</ele>
        <time>2021-05-27T11:25:43Z</time>
      </trkpt>
      <trkpt lat="47.70392" lon="-2.30781">
        <ele>62.5</ele>
        <time>2021-05-27T11:25:44Z</time>
      </trkpt>
      <trkpt lat="47.7039" lon="-2.30783">
        <ele>62.8</ele>
        <time>2021-05-27T11:25:45Z</time>
      </trkpt>
      <trkpt lat="47.70389" lon="-2.30784">
        <ele>63.1</ele>
        <time>2021-05-27T11:25:46Z</time>
      </trkpt>
      <trkpt lat="47.70388" lon="-2.30787">
        <ele>63.3</ele>
        <time>2021-05-27T11:25:47Z</time>
      </trkpt>
      <trkpt lat="47.70386" lon="-2.30789">
        <ele>63.7</ele>
        <time>2021-05-27T11:25:48Z</time>
      </trkpt>
      <trkpt lat="47.70384" lon="-2.30791">
        <ele>64</ele>
        <time>2021-05-27T11:25:49Z</time>
      </trkpt>
      <trkpt lat="47.70382" lon="-2.30793">
        <ele>64.3</ele>
        <time>2021-05-27T11:25:50Z</time>
      </trkpt>
      <trkpt lat="47.7038" lon="-2.30795">
        <ele>64.6</ele>
        <time>2021-05-27T11:25:51Z</time>
      </trkpt>
      <trkpt lat="47.70379" lon="-2.30797">
        <ele>64.9</ele>
        <time>2021-05-27T11:25:52Z</time>
      </trkpt>
      <trkpt lat="47.70377" lon="-2.30799">
        <ele>65.2</ele>
        <time>2021-05-27T11:25:53Z</time>
      </trkpt>
      <trkpt lat="47.70375" lon="-2.308">
        <ele>65.5</ele>
        <time>2021-05-27T11:25:54Z</time>
      </trkpt>
      <trkpt lat="47.70373" lon="-2.30803">
        <ele>65.8</ele>
        <time>2021-05-27T11:25:55Z</time>
      </trkpt>
      <trkpt lat="47.70372" lon="-2.30804">
        <ele>66</ele>
        <time>2021-05-27T11:25:56Z</time>
      </trkpt>
      <trkpt lat="47.7037" lon="-2.30805">
        <ele>66.3</ele>
        <time>2021-05-27T11:25:57Z</time>
      </trkpt>
      <trkpt lat="47.7037" lon="-2.30807">
        <ele>66.4</ele>
        <time>2021-05-27T11:25:58Z</time>
      </trkpt>
      <trkpt lat="47.70369" lon="-2.30809">
        <ele>66.6</ele>
        <time>2021-05-27T11:25:59Z</time>
      </trkpt>
      <trkpt lat="47.70367" lon="-2.3081">
        <ele>66.8</ele>
        <time>2021-05-27T11:26:00Z</time>
      </trkpt>
      <trkpt lat="47.70366" lon="-2.30812">
        <ele>67.1</ele>
        <time>2021-05-27T11:26:01Z</time>
      </trkpt>
      <trkpt lat="47.70364" lon="-2.30814">
        <ele>67.4</ele>
        <time>2021-05-27T11:26:02Z</time>
      </trkpt>
      <trkpt lat="47.70362" lon="-2.30816">
        <ele>67.7</ele>
        <time>2021-05-27T11:26:03Z</time>
      </trkpt>
      <trkpt lat="47.70361" lon="-2.30817">
        <ele>67.9</ele>
        <time>2021-05-27T11:26:04Z</time>
      </trkpt>
      <trkpt lat="47.70359" lon="-2.30818">
        <ele>68.2</ele>
        <time>2021-05-27T11:26:05Z</time>
      </trkpt>
      <trkpt lat="47.70357" lon="-2.30819">
        <ele>68.4</ele>
        <time>2021-05-27T11:26:06Z</time>
      </trkpt>
      <trkpt lat="47.70356" lon="-2.3082">
        <ele>68.7</ele>
        <time>2021-05-27T11:26:07Z</time>
      </trkpt>
      <trkpt lat="47.70354" lon="-2.30821">
        <ele>68.9</ele>
        <time>2021-05-27T11:26:08Z</time>
      </trkpt>
      <trkpt lat="47.70353" lon="-2.30822">
        <ele>69.1</ele>
        <time>2021-05-27T11:26:09Z</time>
      </trkpt>
      <trkpt lat="47.70351" lon="-2.30823">
        <ele>69.4</ele>
        <time>2021-05-27T11:26:10Z</time>
      </trkpt>
      <trkpt lat="47.70349" lon="-2.30825">
        <ele>69.7</ele>
        <time>2021-05-27T11:26:11Z</time>
      </trkpt>
      <trkpt lat="47.70347" lon="-2.30826">
        <ele>70</ele>
        <time>2021-05-27T11:26:12Z</time>
      </trkpt>
      <trkpt lat="47.70345" lon="-2.30827">
        <ele>70.3</ele>
        <time>2021-05-27T11:26:13Z</time>
      </trkpt>
      <trkpt lat="47.70343" lon="-2.30828">
        <ele>70.6</ele>
        <time>2021-05-27T11:26:14Z</time>
      </trkpt>
      <trkpt lat="47.70341" lon="-2.30829">
        <ele>70.8</ele>
        <time>2021-05-27T11:26:15Z</time>
      </trkpt>
      <trkpt lat="47.7034" lon="-2.3083">
        <ele>71</ele>
        <time>2021-05-27T11:26:16Z</time>
      </trkpt>
      <trkpt lat="47.70339" lon="-2.30831">
        <ele>71.2</ele>
        <time>2021-05-27T11:26:17Z</time>
      </trkpt>
      <trkpt lat="47.70337" lon="-2.30832">
        <ele>71.5</ele>
        <time>2021-05-27T11:26:18Z</time>
      </trkpt>
      <trkpt lat="47.70335" lon="-2.30833">
        <ele>71.7</ele>
        <time>2021-05-27T11:26:19Z</time>
      </trkpt>
      <trkpt lat="47.70334" lon="-2.30834">
        <ele>72</ele>
        <time>2021-05-27T11:26:20Z</time>
      </trkpt>
      <trkpt lat="47.70332" lon="-2.30835">
        <ele>72</ele>
        <time>2021-05-27T11:26:21Z</time>
      </trkpt>
      <trkpt lat="47.7033" lon="-2.30835">
        <ele>72</ele>
        <time>2021-05-27T11:26:22Z</time>
      </trkpt>
      <trkpt lat="47.70328" lon="-2.30835">
        <ele>72.1</ele>
        <time>2021-05-27T11:26:23Z</time>
      </trkpt>
      <trkpt lat="47.70325" lon="-2.30836">
        <ele>72.1</ele>
        <time>2021-05-27T11:26:24Z</time>
      </trkpt>
      <trkpt lat="47.70323" lon="-2.30837">
        <ele>72.1</ele>
        <time>2021-05-27T11:26:25Z</time>
      </trkpt>
      <trkpt lat="47.70321" lon="-2.30837">
        <ele>72.2</ele>
        <time>2021-05-27T11:26:26Z</time>
      </trkpt>
      <trkpt lat="47.70319" lon="-2.30837">
        <ele>72.2</ele>
        <time>2021-05-27T11:26:27Z</time>
      </trkpt>
      <trkpt lat="47.70316" lon="-2.30839">
        <ele>72.2</ele>
        <time>2021-05-27T11:26:28Z</time>
      </trkpt>
      <trkpt lat="47.70313" lon="-2.30842">
        <ele>72.3</ele>
        <time>2021-05-27T11:26:29Z</time>
      </trkpt>
      <trkpt lat="47.7031" lon="-2.30843">
        <ele>72.3</ele>
        <time>2021-05-27T11:26:30Z</time>
      </trkpt>
      <trkpt lat="47.70308" lon="-2.30845">
        <ele>72.3</ele>
        <time>2021-05-27T11:26:31Z</time>
      </trkpt>
      <trkpt lat="47.70305" lon="-2.30846">
        <ele>72.4</ele>
        <time>2021-05-27T11:26:32Z</time>
      </trkpt>
      <trkpt lat="47.70303" lon="-2.30848">
        <ele>72.4</ele>
        <time>2021-05-27T11:26:33Z</time>
      </trkpt>
      <trkpt lat="47.70302" lon="-2.3085">
        <ele>72.4</ele>
        <time>2021-05-27T11:26:34Z</time>
      </trkpt>
      <trkpt lat="47.70302" lon="-2.30851">
        <ele>72.5</ele>
        <time>2021-05-27T11:26:35Z</time>
      </trkpt>
      <trkpt lat="47.70301" lon="-2.3085">
        <ele>72.5</ele>
        <time>2021-05-27T11:26:36Z</time>
      </trkpt>
      <trkpt lat="47.70301" lon="-2.3085">
        <ele>72.5</ele>
        <time>2021-05-27T11:26:37Z</time>
      </trkpt>
      <trkpt lat="47.70301" lon="-2.3085">
        <ele>72.5</ele>
        <time>2021-05-27T11:26:38Z</time>
      </trkpt>
      <trkpt lat="47.70301" lon="-2.3085">
        <ele>72.5</ele>
        <time>2021-05-27T11:26:39Z</time>
      </trkpt>
      <trkpt lat="47.70301" lon="-2.3085">
        <ele>72.5</ele>
        <time>2021-05-27T11:26:40Z</time>
      </trkpt>
      <trkpt lat="47.70301" lon="-2.3085">
        <ele>72.5</ele>
        <time>2021-05-27T11:26:41Z</time>
      </trkpt>
      <trkpt lat="47.70301" lon="-2.3085">
        <ele>72.5</ele>
        <time>2021-05-27T11:26:42Z</time>
      </trkpt>
      <trkpt lat="47.70301" lon="-2.3085">
        <ele>72.5</ele>
        <time>2021-05-27T11:26:43Z</time>
      </trkpt>
      <trkpt lat="47.70301" lon="-2.3085">
        <ele>72.5</ele>
        <time>2021-05-27T11:26:44Z</time>
      </trkpt>
      <trkpt lat="47.70301" lon="-2.3085">
        <ele>72.5</ele>
        <time>2021-05-27T11:26:45Z</time>
      </trkpt>
      <trkpt lat="47.70301" lon="-2.3085">
        <ele>72.5</ele>
        <time>2021-05-27T11:26:46Z</time>
      </trkpt>
      <trkpt lat="47.70301" lon="-2.3085">
        <ele>72.5</ele>
        <time>2021-05-27T11:26:47Z</time>
      </trkpt>
      <trkpt lat="47.70301" lon="-2.3085">
        <ele>72.5</ele>
        <time>2021-05-27T11:26:48Z</time>
      </trkpt>
      <trkpt lat="47.70301" lon="-2.30856">
        <ele>72.5</ele>
        <time>2021-05-27T11:26:49Z</time>
      </trkpt>
      <trkpt lat="47.703" lon="-2.30858">
        <ele>72.5</ele>
        <time>2021-05-27T11:26:50Z</time>
      </trkpt>
      <trkpt lat="47.703" lon="-2.3086">
        <ele>72.5</ele>
        <time>2021-05-27T11:26:51Z</time>
      </trkpt>
      <trkpt lat="47.70299" lon="-2.30862">
        <ele>72.5</ele>
        <time>2021-05-27T11:26:52Z</time>
      </trkpt>
      <trkpt lat="47.70299" lon="-2.30865">
        <ele>72.6</ele>
        <time>2021-05-27T11:26:53Z</time>
      </trkpt>
      <trkpt lat="47.703" lon="-2.30868">
        <ele>72.6</ele>
        <time>2021-05-27T11:26:54Z</time>
      </trkpt>
      <trkpt lat="47.70302" lon="-2.30872">
        <ele>72.6</ele>
        <time>2021-05-27T11:26:55Z</time>
      </trkpt>
      <trkpt lat="47.70304" lon="-2.30875">
        <ele>72.5</ele>
        <time>2021-05-27T11:26:56Z</time>
      </trkpt>
      <trkpt lat="47.70305" lon="-2.30878">
        <ele>72.5</ele>
        <time>2021-05-27T11:26:57Z</time>
      </trkpt>
      <trkpt lat="47.70306" lon="-2.3088">
        <ele>72.5</ele>
        <time>2021-05-27T11:26:58Z</time>
      </trkpt>
      <trkpt lat="47.70307" lon="-2.30883">
        <ele>72.5</ele>
        <time>2021-05-27T11:26:59Z</time>
      </trkpt>
      <trkpt lat="47.70306" lon="-2.30887">
        <ele>72.5</ele>
        <time>2021-05-27T11:27:00Z</time>
      </trkpt>
      <trkpt lat="47.70305" lon="-2.3089">
        <ele>72.6</ele>
        <time>2021-05-27T11:27:01Z</time>
      </trkpt>
      <trkpt lat="47.70305" lon="-2.30893">
        <ele>72.6</ele>
        <time>2021-05-27T11:27:02Z</time>
      </trkpt>
      <trkpt lat="47.70303" lon="-2.30896">
        <ele>72.6</ele>
        <time>2021-05-27T11:27:03Z</time>
      </trkpt>
      <trkpt lat="47.70302" lon="-2.30899">
        <ele>72.7</ele>
        <time>2021-05-27T11:27:04Z</time>
      </trkpt>
      <trkpt lat="47.70302" lon="-2.30902">
        <ele>72.7</ele>
        <time>2021-05-27T11:27:05Z</time>
      </trkpt>
      <trkpt lat="47.70302" lon="-2.30904">
        <ele>72.7</ele>
        <time>2021-05-27T11:27:06Z</time>
      </trkpt>
      <trkpt lat="47.70301" lon="-2.30906">
        <ele>72.7</ele>
        <time>2021-05-27T11:27:07Z</time>
      </trkpt>
      <trkpt lat="47.703" lon="-2.30909">
        <ele>72.8</ele>
        <time>2021-05-27T11:27:08Z</time>
      </trkpt>
      <trkpt lat="47.70299" lon="-2.30912">
        <ele>72.8</ele>
        <time>2021-05-27T11:27:09Z</time>
      </trkpt>
      <trkpt lat="47.70298" lon="-2.30914">
        <ele>72.8</ele>
        <time>2021-05-27T11:27:10Z</time>
      </trkpt>
      <trkpt lat="47.70298" lon="-2.30917">
        <ele>72.8</ele>
        <time>2021-05-27T11:27:11Z</time>
      </trkpt>
      <trkpt lat="47.70298" lon="-2.30919">
        <ele>72.9</ele>
        <time>2021-05-27T11:27:12Z</time>
      </trkpt>
      <trkpt lat="47.70299" lon="-2.30922">
        <ele>73</ele>
        <time>2021-05-27T11:27:13Z</time>
      </trkpt>
      <trkpt lat="47.70301" lon="-2.30927">
        <ele>73.1</ele>
        <time>2021-05-27T11:27:14Z</time>
      </trkpt>
      <trkpt lat="47.70302" lon="-2.30932">
        <ele>73.3</ele>
        <time>2021-05-27T11:27:15Z</time>
      </trkpt>
      <trkpt lat="47.70303" lon="-2.30937">
        <ele>73.5</ele>
        <time>2021-05-27T11:27:16Z</time>
      </trkpt>
      <trkpt lat="47.70302" lon="-2.30942">
        <ele>73.6</ele>
        <time>2021-05-27T11:27:17Z</time>
      </trkpt>
      <trkpt lat="47.70302" lon="-2.30946">
        <ele>73.8</ele>
        <time>2021-05-27T11:27:18Z</time>
      </trkpt>
      <trkpt lat="47.70301" lon="-2.3095">
        <ele>73.9</ele>
        <time>2021-05-27T11:27:19Z</time>
      </trkpt>
      <trkpt lat="47.703" lon="-2.30954">
        <ele>74.1</ele>
        <time>2021-05-27T11:27:20Z</time>
      </trkpt>
      <trkpt lat="47.70298" lon="-2.30958">
        <ele>74.2</ele>
        <time>2021-05-27T11:27:21Z</time>
      </trkpt>
      <trkpt lat="47.70296" lon="-2.30962">
        <ele>74.3</ele>
        <time>2021-05-27T11:27:22Z</time>
      </trkpt>
      <trkpt lat="47.70295" lon="-2.30967">
        <ele>74.5</ele>
        <time>2021-05-27T11:27:23Z</time>
      </trkpt>
      <trkpt lat="47.70294" lon="-2.30972">
        <ele>74.7</ele>
        <time>2021-05-27T11:27:24Z</time>
      </trkpt>
      <trkpt lat="47.70293" lon="-2.30977">
        <ele>74.8</ele>
        <time>2021-05-27T11:27:25Z</time>
      </trkpt>
      <trkpt lat="47.70292" lon="-2.30983">
        <ele>75</ele>
        <time>2021-05-27T11:27:26Z</time>
      </trkpt>
      <trkpt lat="47.70292" lon="-2.30989">
        <ele>75.2</ele>
        <time>2021-05-27T11:27:27Z</time>
      </trkpt>
      <trkpt lat="47.70291" lon="-2.30995">
        <ele>75.4</ele>
        <time>2021-05-27T11:27:28Z</time>
      </trkpt>
      <trkpt lat="47.70291" lon="-2.31001">
        <ele>75.5</ele>
        <time>2021-05-27T11:27:29Z</time>
      </trkpt>
      <trkpt lat="47.7029" lon="-2.31007">
        <ele>75.5</ele>
        <time>2021-05-27T11:27:30Z</time>
      </trkpt>
      <trkpt lat="47.7029" lon="-2.31013">
        <ele>75.5</ele>
        <time>2021-05-27T11:27:31Z</time>
      </trkpt>
      <trkpt lat="47.7029" lon="-2.31019">
        <ele>75.5</ele>
        <time>2021-05-27T11:27:32Z</time>
      </trkpt>
      <trkpt lat="47.70291" lon="-2.31024">
        <ele>75.5</ele>
        <time>2021-05-27T11:27:33Z</time>
      </trkpt>
      <trkpt lat="47.70291" lon="-2.3103">
        <ele>75.5</ele>
        <time>2021-05-27T11:27:34Z</time>
      </trkpt>
      <trkpt lat="47.70291" lon="-2.31037">
        <ele>75.5</ele>
        <time>2021-05-27T11:27:35Z</time>
      </trkpt>
      <trkpt lat="47.70291" lon="-2.31044">
        <ele>75.5</ele>
        <time>2021-05-27T11:27:36Z</time>
      </trkpt>
      <trkpt lat="47.70291" lon="-2.3105">
        <ele>75.5</ele>
        <time>2021-05-27T11:27:37Z</time>
      </trkpt>
      <trkpt lat="47.70291" lon="-2.31056">
        <ele>75.5</ele>
        <time>2021-05-27T11:27:38Z</time>
      </trkpt>
      <trkpt lat="47.70292" lon="-2.31063">
        <ele>75.5</ele>
        <time>2021-05-27T11:27:39Z</time>
      </trkpt>
      <trkpt lat="47.70291" lon="-2.31069">
        <ele>75.5</ele>
        <time>2021-05-27T11:27:40Z</time>
      </trkpt>
      <trkpt lat="47.70292" lon="-2.31075">
        <ele>75.5</ele>
        <time>2021-05-27T11:27:41Z</time>
      </trkpt>
      <trkpt lat="47.70291" lon="-2.31081">
        <ele>75.5</ele>
        <time>2021-05-27T11:27:42Z</time>
      </trkpt>
      <trkpt lat="47.70291" lon="-2.31087">
        <ele>75.4</ele>
        <time>2021-05-27T11:27:43Z</time>
      </trkpt>
      <trkpt lat="47.70288" lon="-2.31092">
        <ele>75.4</ele>
        <time>2021-05-27T11:27:44Z</time>
      </trkpt>
      <trkpt lat="47.70286" lon="-2.31097">
        <ele>75.3</ele>
        <time>2021-05-27T11:27:45Z</time>
      </trkpt>
      <trkpt lat="47.70284" lon="-2.31099">
        <ele>75.3</ele>
        <time>2021-05-27T11:27:46Z</time>
      </trkpt>
      <trkpt lat="47.70281" lon="-2.311">
        <ele>75.3</ele>
        <time>2021-05-27T11:27:47Z</time>
      </trkpt>
      <trkpt lat="47.70278" lon="-2.311">
        <ele>75.4</ele>
        <time>2021-05-27T11:27:48Z</time>
      </trkpt>
      <trkpt lat="47.70274" lon="-2.31099">
        <ele>75.5</ele>
        <time>2021-05-27T11:27:49Z</time>
      </trkpt>
      <trkpt lat="47.7027" lon="-2.31097">
        <ele>75.6</ele>
        <time>2021-05-27T11:27:50Z</time>
      </trkpt>
      <trkpt lat="47.70266" lon="-2.31097">
        <ele>75.6</ele>
        <time>2021-05-27T11:27:51Z</time>
      </trkpt>
      <trkpt lat="47.70262" lon="-2.31096">
        <ele>75.7</ele>
        <time>2021-05-27T11:27:52Z</time>
      </trkpt>
      <trkpt lat="47.70258" lon="-2.31096">
        <ele>75.7</ele>
        <time>2021-05-27T11:27:53Z</time>
      </trkpt>
      <trkpt lat="47.70254" lon="-2.31097">
        <ele>75.8</ele>
        <time>2021-05-27T11:27:54Z</time>
      </trkpt>
      <trkpt lat="47.70249" lon="-2.31098">
        <ele>75.9</ele>
        <time>2021-05-27T11:27:55Z</time>
      </trkpt>
      <trkpt lat="47.70245" lon="-2.31099">
        <ele>76.1</ele>
        <time>2021-05-27T11:27:56Z</time>
      </trkpt>
      <trkpt lat="47.7024" lon="-2.31101">
        <ele>76.4</ele>
        <time>2021-05-27T11:27:57Z</time>
      </trkpt>
      <trkpt lat="47.70236" lon="-2.31103">
        <ele>76.6</ele>
        <time>2021-05-27T11:27:58Z</time>
      </trkpt>
      <trkpt lat="47.70232" lon="-2.31105">
        <ele>76.9</ele>
        <time>2021-05-27T11:27:59Z</time>
      </trkpt>
      <trkpt lat="47.70227" lon="-2.31106">
        <ele>77.1</ele>
        <time>2021-05-27T11:28:00Z</time>
      </trkpt>
      <trkpt lat="47.70223" lon="-2.31107">
        <ele>77.4</ele>
        <time>2021-05-27T11:28:01Z</time>
      </trkpt>
      <trkpt lat="47.70217" lon="-2.31107">
        <ele>77.7</ele>
        <time>2021-05-27T11:28:02Z</time>
      </trkpt>
      <trkpt lat="47.70213" lon="-2.31107">
        <ele>77.9</ele>
        <time>2021-05-27T11:28:03Z</time>
      </trkpt>
      <trkpt lat="47.70209" lon="-2.31107">
        <ele>78.2</ele>
        <time>2021-05-27T11:28:04Z</time>
      </trkpt>
      <trkpt lat="47.70205" lon="-2.31105">
        <ele>78.4</ele>
        <time>2021-05-27T11:28:05Z</time>
      </trkpt>
      <trkpt lat="47.70201" lon="-2.31104">
        <ele>78.7</ele>
        <time>2021-05-27T11:28:06Z</time>
      </trkpt>
      <trkpt lat="47.70196" lon="-2.31101">
        <ele>79</ele>
        <time>2021-05-27T11:28:07Z</time>
      </trkpt>
      <trkpt lat="47.70192" lon="-2.31098">
        <ele>79.3</ele>
        <time>2021-05-27T11:28:08Z</time>
      </trkpt>
      <trkpt lat="47.70187" lon="-2.31095">
        <ele>79.6</ele>
        <time>2021-05-27T11:28:09Z</time>
      </trkpt>
      <trkpt lat="47.70184" lon="-2.31091">
        <ele>79.9</ele>
        <time>2021-05-27T11:28:10Z</time>
      </trkpt>
      <trkpt lat="47.70181" lon="-2.31087">
        <ele>80.1</ele>
        <time>2021-05-27T11:28:11Z</time>
      </trkpt>
      <trkpt lat="47.70177" lon="-2.31085">
        <ele>80.4</ele>
        <time>2021-05-27T11:28:12Z</time>
      </trkpt>
      <trkpt lat="47.70174" lon="-2.31086">
        <ele>80.5</ele>
        <time>2021-05-27T11:28:13Z</time>
      </trkpt>
      <trkpt lat="47.70172" lon="-2.31089">
        <ele>80.6</ele>
        <time>2021-05-27T11:28:14Z</time>
      </trkpt>
      <trkpt lat="47.70171" lon="-2.31093">
        <ele>80.6</ele>
        <time>2021-05-27T11:28:15Z</time>
      </trkpt>
      <trkpt lat="47.7017" lon="-2.31098">
        <ele>80.6</ele>
        <time>2021-05-27T11:28:16Z</time>
      </trkpt>
      <trkpt lat="47.70169" lon="-2.31105">
        <ele>80.6</ele>
        <time>2021-05-27T11:28:17Z</time>
      </trkpt>
      <trkpt lat="47.7017" lon="-2.31112">
        <ele>80.5</ele>
        <time>2021-05-27T11:28:18Z</time>
      </trkpt>
      <trkpt lat="47.7017" lon="-2.3112">
        <ele>80.4</ele>
        <time>2021-05-27T11:28:19Z</time>
      </trkpt>
      <trkpt lat="47.7017" lon="-2.31127">
        <ele>80.3</ele>
        <time>2021-05-27T11:28:20Z</time>
      </trkpt>
      <trkpt lat="47.70169" lon="-2.31134">
        <ele>80.2</ele>
        <time>2021-05-27T11:28:21Z</time>
      </trkpt>
      <trkpt lat="47.70169" lon="-2.31141">
        <ele>80.2</ele>
        <time>2021-05-27T11:28:22Z</time>
      </trkpt>
      <trkpt lat="47.70169" lon="-2.31148">
        <ele>80.1</ele>
        <time>2021-05-27T11:28:23Z</time>
      </trkpt>
      <trkpt lat="47.70169" lon="-2.31155">
        <ele>80</ele>
        <time>2021-05-27T11:28:24Z</time>
      </trkpt>
      <trkpt lat="47.70169" lon="-2.31162">
        <ele>79.9</ele>
        <time>2021-05-27T11:28:25Z</time>
      </trkpt>
      <trkpt lat="47.70169" lon="-2.31169">
        <ele>79.8</ele>
        <time>2021-05-27T11:28:26Z</time>
      </trkpt>
      <trkpt lat="47.70169" lon="-2.31176">
        <ele>79.7</ele>
        <time>2021-05-27T11:28:27Z</time>
      </trkpt>
      <trkpt lat="47.7017" lon="-2.31183">
        <ele>79.6</ele>
        <time>2021-05-27T11:28:28Z</time>
      </trkpt>
      <trkpt lat="47.7017" lon="-2.31191">
        <ele>79.5</ele>
        <time>2021-05-27T11:28:29Z</time>
      </trkpt>
      <trkpt lat="47.70171" lon="-2.31199">
        <ele>79.4</ele>
        <time>2021-05-27T11:28:30Z</time>
      </trkpt>
      <trkpt lat="47.70172" lon="-2.31206">
        <ele>79.2</ele>
        <time>2021-05-27T11:28:31Z</time>
      </trkpt>
      <trkpt lat="47.70173" lon="-2.31214">
        <ele>79.1</ele>
        <time>2021-05-27T11:28:32Z</time>
      </trkpt>
      <trkpt lat="47.70173" lon="-2.31222">
        <ele>78.9</ele>
        <time>2021-05-27T11:28:33Z</time>
      </trkpt>
      <trkpt lat="47.70174" lon="-2.3123">
        <ele>78.8</ele>
        <time>2021-05-27T11:28:34Z</time>
      </trkpt>
      <trkpt lat="47.70174" lon="-2.31237">
        <ele>78.7</ele>
        <time>2021-05-27T11:28:35Z</time>
      </trkpt>
      <trkpt lat="47.70175" lon="-2.31246">
        <ele>78.5</ele>
        <time>2021-05-27T11:28:36Z</time>
      </trkpt>
      <trkpt lat="47.70176" lon="-2.31253">
        <ele>78.4</ele>
        <time>2021-05-27T11:28:37Z</time>
      </trkpt>
      <trkpt lat="47.70177" lon="-2.31262">
        <ele>78.4</ele>
        <time>2021-05-27T11:28:38Z</time>
      </trkpt>
      <trkpt lat="47.70178" lon="-2.3127">
        <ele>78.3</ele>
        <time>2021-05-27T11:28:39Z</time>
      </trkpt>
      <trkpt lat="47.70179" lon="-2.31278">
        <ele>78.2</ele>
        <time>2021-05-27T11:28:40Z</time>
      </trkpt>
      <trkpt lat="47.7018" lon="-2.31287">
        <ele>78.2</ele>
        <time>2021-05-27T11:28:41Z</time>
      </trkpt>
      <trkpt lat="47.7018" lon="-2.31296">
        <ele>78.2</ele>
        <time>2021-05-27T11:28:42Z</time>
      </trkpt>
      <trkpt lat="47.70181" lon="-2.31304">
        <ele>78.2</ele>
        <time>2021-05-27T11:28:43Z</time>
      </trkpt>
      <trkpt lat="47.70181" lon="-2.31312">
        <ele>78.1</ele>
        <time>2021-05-27T11:28:44Z</time>
      </trkpt>
      <trkpt lat="47.70181" lon="-2.31319">
        <ele>78.1</ele>
        <time>2021-05-27T11:28:45Z</time>
      </trkpt>
      <trkpt lat="47.70181" lon="-2.31327">
        <ele>78.1</ele>
        <time>2021-05-27T11:28:46Z</time>
      </trkpt>
      <trkpt lat="47.70181" lon="-2.31335">
        <ele>78.1</ele>
        <time>2021-05-27T11:28:47Z</time>
      </trkpt>
      <trkpt lat="47.70182" lon="-2.31343">
        <ele>78.1</ele>
        <time>2021-05-27T11:28:48Z</time>
      </trkpt>
      <trkpt lat="47.70183" lon="-2.31351">
        <ele>78</ele>
        <time>2021-05-27T11:28:49Z</time>
      </trkpt>
      <trkpt lat="47.70183" lon="-2.3136">
        <ele>78</ele>
        <time>2021-05-27T11:28:50Z</time>
      </trkpt>
      <trkpt lat="47.70183" lon="-2.31368">
        <ele>78</ele>
        <time>2021-05-27T11:28:51Z</time>
      </trkpt>
      <trkpt lat="47.70184" lon="-2.31377">
        <ele>78</ele>
        <time>2021-05-27T11:28:52Z</time>
      </trkpt>
      <trkpt lat="47.70185" lon="-2.31385">
        <ele>77.9</ele>
        <time>2021-05-27T11:28:53Z</time>
      </trkpt>
      <trkpt lat="47.70186" lon="-2.31394">
        <ele>77.8</ele>
        <time>2021-05-27T11:28:54Z</time>
      </trkpt>
      <trkpt lat="47.70188" lon="-2.31402">
        <ele>77.7</ele>
        <time>2021-05-27T11:28:55Z</time>
      </trkpt>
      <trkpt lat="47.7019" lon="-2.3141">
        <ele>77.6</ele>
        <time>2021-05-27T11:28:56Z</time>
      </trkpt>
      <trkpt lat="47.70191" lon="-2.31418">
        <ele>77.6</ele>
        <time>2021-05-27T11:28:57Z</time>
      </trkpt>
      <trkpt lat="47.70192" lon="-2.31426">
        <ele>77.6</ele>
        <time>2021-05-27T11:28:58Z</time>
      </trkpt>
      <trkpt lat="47.70193" lon="-2.31434">
        <ele>77.7</ele>
        <time>2021-05-27T11:28:59Z</time>
      </trkpt>
      <trkpt lat="47.70193" lon="-2.31443">
        <ele>77.8</ele>
        <time>2021-05-27T11:29:00Z</time>
      </trkpt>
      <trkpt lat="47.70194" lon="-2.31452">
        <ele>77.9</ele>
        <time>2021-05-27T11:29:01Z</time>
      </trkpt>
      <trkpt lat="47.70195" lon="-2.31461">
        <ele>78</ele>
        <time>2021-05-27T11:29:02Z</time>
      </trkpt>
      <trkpt lat="47.70196" lon="-2.3147">
        <ele>78.1</ele>
        <time>2021-05-27T11:29:03Z</time>
      </trkpt>
      <trkpt lat="47.70196" lon="-2.31479">
        <ele>78.2</ele>
        <time>2021-05-27T11:29:04Z</time>
      </trkpt>
      <trkpt lat="47.70197" lon="-2.31488">
        <ele>78.3</ele>
        <time>2021-05-27T11:29:05Z</time>
      </trkpt>
      <trkpt lat="47.70199" lon="-2.31499">
        <ele>78.5</ele>
        <time>2021-05-27T11:29:06Z</time>
      </trkpt>
      <trkpt lat="47.70199" lon="-2.31509">
        <ele>78.5</ele>
        <time>2021-05-27T11:29:07Z</time>
      </trkpt>
      <trkpt lat="47.70199" lon="-2.31519">
        <ele>78.5</ele>
        <time>2021-05-27T11:29:08Z</time>
      </trkpt>
      <trkpt lat="47.70199" lon="-2.31528">
        <ele>78.6</ele>
        <time>2021-05-27T11:29:09Z</time>
      </trkpt>
      <trkpt lat="47.702" lon="-2.31537">
        <ele>78.6</ele>
        <time>2021-05-27T11:29:10Z</time>
      </trkpt>
      <trkpt lat="47.702" lon="-2.31546">
        <ele>78.6</ele>
        <time>2021-05-27T11:29:11Z</time>
      </trkpt>
      <trkpt lat="47.702" lon="-2.31555">
        <ele>78.7</ele>
        <time>2021-05-27T11:29:12Z</time>
      </trkpt>
      <trkpt lat="47.70199" lon="-2.31563">
        <ele>78.8</ele>
        <time>2021-05-27T11:29:13Z</time>
      </trkpt>
      <trkpt lat="47.70196" lon="-2.3157">
        <ele>78.9</ele>
        <time>2021-05-27T11:29:14Z</time>
      </trkpt>
      <trkpt lat="47.70192" lon="-2.31575">
        <ele>79</ele>
        <time>2021-05-27T11:29:15Z</time>
      </trkpt>
      <trkpt lat="47.70188" lon="-2.31579">
        <ele>79.2</ele>
        <time>2021-05-27T11:29:16Z</time>
      </trkpt>
      <trkpt lat="47.70183" lon="-2.31583">
        <ele>79.4</ele>
        <time>2021-05-27T11:29:17Z</time>
      </trkpt>
      <trkpt lat="47.70179" lon="-2.31586">
        <ele>79.5</ele>
        <time>2021-05-27T11:29:18Z</time>
      </trkpt>
      <trkpt lat="47.70174" lon="-2.31589">
        <ele>79.6</ele>
        <time>2021-05-27T11:29:19Z</time>
      </trkpt>
      <trkpt lat="47.7017" lon="-2.31594">
        <ele>79.7</ele>
        <time>2021-05-27T11:29:20Z</time>
      </trkpt>
      <trkpt lat="47.70165" lon="-2.31598">
        <ele>79.7</ele>
        <time>2021-05-27T11:29:21Z</time>
      </trkpt>
      <trkpt lat="47.7016" lon="-2.31602">
        <ele>79.7</ele>
        <time>2021-05-27T11:29:22Z</time>
      </trkpt>
      <trkpt lat="47.70155" lon="-2.31605">
        <ele>79.6</ele>
        <time>2021-05-27T11:29:23Z</time>
      </trkpt>
      <trkpt lat="47.7015" lon="-2.31608">
        <ele>79.7</ele>
        <time>2021-05-27T11:29:24Z</time>
      </trkpt>
      <trkpt lat="47.70146" lon="-2.31612">
        <ele>79.7</ele>
        <time>2021-05-27T11:29:25Z</time>
      </trkpt>
      <trkpt lat="47.70141" lon="-2.31616">
        <ele>79.6</ele>
        <time>2021-05-27T11:29:26Z</time>
      </trkpt>
      <trkpt lat="47.70137" lon="-2.3162">
        <ele>79.6</ele>
        <time>2021-05-27T11:29:27Z</time>
      </trkpt>
      <trkpt lat="47.70133" lon="-2.31625">
        <ele>79.6</ele>
        <time>2021-05-27T11:29:28Z</time>
      </trkpt>
      <trkpt lat="47.70128" lon="-2.31632">
        <ele>79.6</ele>
        <time>2021-05-27T11:29:29Z</time>
      </trkpt>
      <trkpt lat="47.70124" lon="-2.3164">
        <ele>79.5</ele>
        <time>2021-05-27T11:29:30Z</time>
      </trkpt>
      <trkpt lat="47.70121" lon="-2.31651">
        <ele>79.4</ele>
        <time>2021-05-27T11:29:31Z</time>
      </trkpt>
      <trkpt lat="47.70118" lon="-2.31661">
        <ele>79.3</ele>
        <time>2021-05-27T11:29:32Z</time>
      </trkpt>
      <trkpt lat="47.70117" lon="-2.3167">
        <ele>79</ele>
        <time>2021-05-27T11:29:33Z</time>
      </trkpt>
      <trkpt lat="47.70116" lon="-2.31679">
        <ele>78.7</ele>
        <time>2021-05-27T11:29:34Z</time>
      </trkpt>
      <trkpt lat="47.70116" lon="-2.31688">
        <ele>78.3</ele>
        <time>2021-05-27T11:29:35Z</time>
      </trkpt>
      <trkpt lat="47.70115" lon="-2.31697">
        <ele>77.9</ele>
        <time>2021-05-27T11:29:36Z</time>
      </trkpt>
      <trkpt lat="47.70114" lon="-2.31706">
        <ele>77.5</ele>
        <time>2021-05-27T11:29:37Z</time>
      </trkpt>
      <trkpt lat="47.70115" lon="-2.31716">
        <ele>77.1</ele>
        <time>2021-05-27T11:29:38Z</time>
      </trkpt>
      <trkpt lat="47.70115" lon="-2.31725">
        <ele>76.7</ele>
        <time>2021-05-27T11:29:39Z</time>
      </trkpt>
      <trkpt lat="47.70114" lon="-2.31734">
        <ele>76.3</ele>
        <time>2021-05-27T11:29:40Z</time>
      </trkpt>
      <trkpt lat="47.70114" lon="-2.31743">
        <ele>75.9</ele>
        <time>2021-05-27T11:29:41Z</time>
      </trkpt>
      <trkpt lat="47.70113" lon="-2.31751">
        <ele>75.6</ele>
        <time>2021-05-27T11:29:42Z</time>
      </trkpt>
      <trkpt lat="47.70113" lon="-2.31759">
        <ele>75.4</ele>
        <time>2021-05-27T11:29:43Z</time>
      </trkpt>
      <trkpt lat="47.70112" lon="-2.31767">
        <ele>75.2</ele>
        <time>2021-05-27T11:29:44Z</time>
      </trkpt>
      <trkpt lat="47.70112" lon="-2.31774">
        <ele>75</ele>
        <time>2021-05-27T11:29:45Z</time>
      </trkpt>
      <trkpt lat="47.70111" lon="-2.31781">
        <ele>74.8</ele>
        <time>2021-05-27T11:29:46Z</time>
      </trkpt>
      <trkpt lat="47.70111" lon="-2.3179">
        <ele>74.6</ele>
        <time>2021-05-27T11:29:47Z</time>
      </trkpt>
      <trkpt lat="47.70111" lon="-2.31798">
        <ele>74.3</ele>
        <time>2021-05-27T11:29:48Z</time>
      </trkpt>
      <trkpt lat="47.7011" lon="-2.31807">
        <ele>74</ele>
        <time>2021-05-27T11:29:49Z</time>
      </trkpt>
      <trkpt lat="47.70109" lon="-2.31815">
        <ele>73.8</ele>
        <time>2021-05-27T11:29:50Z</time>
      </trkpt>
      <trkpt lat="47.70109" lon="-2.31824">
        <ele>73.5</ele>
        <time>2021-05-27T11:29:51Z</time>
      </trkpt>
      <trkpt lat="47.70108" lon="-2.31831">
        <ele>73.3</ele>
        <time>2021-05-27T11:29:52Z</time>
      </trkpt>
      <trkpt lat="47.70107" lon="-2.31838">
        <ele>73.4</ele>
        <time>2021-05-27T11:29:53Z</time>
      </trkpt>
      <trkpt lat="47.70106" lon="-2.31846">
        <ele>73.7</ele>
        <time>2021-05-27T11:29:54Z</time>
      </trkpt>
      <trkpt lat="47.70105" lon="-2.31854">
        <ele>74.1</ele>
        <time>2021-05-27T11:29:55Z</time>
      </trkpt>
      <trkpt lat="47.70104" lon="-2.31861">
        <ele>74.4</ele>
        <time>2021-05-27T11:29:56Z</time>
      </trkpt>
      <trkpt lat="47.70102" lon="-2.31869">
        <ele>74.7</ele>
        <time>2021-05-27T11:29:57Z</time>
      </trkpt>
      <trkpt lat="47.70102" lon="-2.31877">
        <ele>75.2</ele>
        <time>2021-05-27T11:29:58Z</time>
      </trkpt>
      <trkpt lat="47.70101" lon="-2.31886">
        <ele>75.6</ele>
        <time>2021-05-27T11:29:59Z</time>
      </trkpt>
      <trkpt lat="47.701" lon="-2.31895">
        <ele>76.1</ele>
        <time>2021-05-27T11:30:00Z</time>
      </trkpt>
      <trkpt lat="47.70098" lon="-2.31904">
        <ele>76.5</ele>
        <time>2021-05-27T11:30:01Z</time>
      </trkpt>
      <trkpt lat="47.70097" lon="-2.31913">
        <ele>76.9</ele>
        <time>2021-05-27T11:30:02Z</time>
      </trkpt>
      <trkpt lat="47.70095" lon="-2.3192">
        <ele>77.3</ele>
        <time>2021-05-27T11:30:03Z</time>
      </trkpt>
      <trkpt lat="47.70094" lon="-2.31928">
        <ele>77.6</ele>
        <time>2021-05-27T11:30:04Z</time>
      </trkpt>
      <trkpt lat="47.70093" lon="-2.31936">
        <ele>78</ele>
        <time>2021-05-27T11:30:05Z</time>
      </trkpt>
      <trkpt lat="47.70091" lon="-2.31944">
        <ele>78.3</ele>
        <time>2021-05-27T11:30:06Z</time>
      </trkpt>
      <trkpt lat="47.70089" lon="-2.31952">
        <ele>78.7</ele>
        <time>2021-05-27T11:30:07Z</time>
      </trkpt>
      <trkpt lat="47.70087" lon="-2.3196">
        <ele>79</ele>
        <time>2021-05-27T11:30:08Z</time>
      </trkpt>
      <trkpt lat="47.70085" lon="-2.31968">
        <ele>79.4</ele>
        <time>2021-05-27T11:30:09Z</time>
      </trkpt>
      <trkpt lat="47.70084" lon="-2.31976">
        <ele>79.9</ele>
        <time>2021-05-27T11:30:10Z</time>
      </trkpt>
      <trkpt lat="47.70082" lon="-2.31985">
        <ele>80.2</ele>
        <time>2021-05-27T11:30:11Z</time>
      </trkpt>
      <trkpt lat="47.70081" lon="-2.31993">
        <ele>80.5</ele>
        <time>2021-05-27T11:30:12Z</time>
      </trkpt>
      <trkpt lat="47.70079" lon="-2.32001">
        <ele>80.7</ele>
        <time>2021-05-27T11:30:13Z</time>
      </trkpt>
      <trkpt lat="47.70078" lon="-2.3201">
        <ele>80.3</ele>
        <time>2021-05-27T11:30:14Z</time>
      </trkpt>
      <trkpt lat="47.70077" lon="-2.32018">
        <ele>79.9</ele>
        <time>2021-05-27T11:30:15Z</time>
      </trkpt>
      <trkpt lat="47.70076" lon="-2.32028">
        <ele>79.5</ele>
        <time>2021-05-27T11:30:16Z</time>
      </trkpt>
      <trkpt lat="47.70075" lon="-2.32037">
        <ele>79</ele>
        <time>2021-05-27T11:30:17Z</time>
      </trkpt>
      <trkpt lat="47.70074" lon="-2.32046">
        <ele>78.5</ele>
        <time>2021-05-27T11:30:18Z</time>
      </trkpt>
      <trkpt lat="47.70073" lon="-2.32055">
        <ele>78</ele>
        <time>2021-05-27T11:30:19Z</time>
      </trkpt>
      <trkpt lat="47.70072" lon="-2.32063">
        <ele>77.6</ele>
        <time>2021-05-27T11:30:20Z</time>
      </trkpt>
      <trkpt lat="47.70071" lon="-2.32072">
        <ele>77.1</ele>
        <time>2021-05-27T11:30:21Z</time>
      </trkpt>
      <trkpt lat="47.70071" lon="-2.3208">
        <ele>76.7</ele>
        <time>2021-05-27T11:30:22Z</time>
      </trkpt>
      <trkpt lat="47.70072" lon="-2.32088">
        <ele>76.5</ele>
        <time>2021-05-27T11:30:23Z</time>
      </trkpt>
      <trkpt lat="47.70074" lon="-2.32093">
        <ele>76.6</ele>
        <time>2021-05-27T11:30:24Z</time>
      </trkpt>
      <trkpt lat="47.70075" lon="-2.32095">
        <ele>76.6</ele>
        <time>2021-05-27T11:30:25Z</time>
      </trkpt>
      <trkpt lat="47.70075" lon="-2.32096">
        <ele>76.7</ele>
        <time>2021-05-27T11:30:26Z</time>
      </trkpt>
      <trkpt lat="47.70075" lon="-2.32094">
        <ele>76.7</ele>
        <time>2021-05-27T11:30:27Z</time>
      </trkpt>
      <trkpt lat="47.70074" lon="-2.32094">
        <ele>76.6</ele>
        <time>2021-05-27T11:30:28Z</time>
      </trkpt>
      <trkpt lat="47.70074" lon="-2.32094">
        <ele>76.6</ele>
        <time>2021-05-27T11:30:29Z</time>
      </trkpt>
      <trkpt lat="47.70074" lon="-2.32094">
        <ele>76.6</ele>
        <time>2021-05-27T11:30:30Z</time>
      </trkpt>
      <trkpt lat="47.70074" lon="-2.32094">
        <ele>76.6</ele>
        <time>2021-05-27T11:30:31Z</time>
      </trkpt>
      <trkpt lat="47.70074" lon="-2.32094">
        <ele>76.6</ele>
        <time>2021-05-27T11:30:32Z</time>
      </trkpt>
      <trkpt lat="47.70074" lon="-2.32094">
        <ele>76.6</ele>
        <time>2021-05-27T11:30:33Z</time>
      </trkpt>
      <trkpt lat="47.70075" lon="-2.32095">
        <ele>76.7</ele>
        <time>2021-05-27T11:30:34Z</time>
      </trkpt>
      <trkpt lat="47.70076" lon="-2.32097">
        <ele>76.7</ele>
        <time>2021-05-27T11:30:35Z</time>
      </trkpt>
      <trkpt lat="47.70077" lon="-2.321">
        <ele>76.9</ele>
        <time>2021-05-27T11:30:36Z</time>
      </trkpt>
      <trkpt lat="47.7008" lon="-2.32103">
        <ele>77.1</ele>
        <time>2021-05-27T11:30:37Z</time>
      </trkpt>
      <trkpt lat="47.70083" lon="-2.32107">
        <ele>77.4</ele>
        <time>2021-05-27T11:30:38Z</time>
      </trkpt>
      <trkpt lat="47.70084" lon="-2.32111">
        <ele>77.3</ele>
        <time>2021-05-27T11:30:39Z</time>
      </trkpt>
      <trkpt lat="47.70086" lon="-2.32116">
        <ele>77.2</ele>
        <time>2021-05-27T11:30:40Z</time>
      </trkpt>
      <trkpt lat="47.70088" lon="-2.32121">
        <ele>77.2</ele>
        <time>2021-05-27T11:30:41Z</time>
      </trkpt>
      <trkpt lat="47.70089" lon="-2.32128">
        <ele>77.1</ele>
        <time>2021-05-27T11:30:42Z</time>
      </trkpt>
      <trkpt lat="47.70091" lon="-2.32134">
        <ele>76.9</ele>
        <time>2021-05-27T11:30:43Z</time>
      </trkpt>
      <trkpt lat="47.70092" lon="-2.3214">
        <ele>76.8</ele>
        <time>2021-05-27T11:30:44Z</time>
      </trkpt>
      <trkpt lat="47.70093" lon="-2.32146">
        <ele>76.8</ele>
        <time>2021-05-27T11:30:45Z</time>
      </trkpt>
      <trkpt lat="47.70095" lon="-2.32154">
        <ele>76.7</ele>
        <time>2021-05-27T11:30:46Z</time>
      </trkpt>
      <trkpt lat="47.70097" lon="-2.32162">
        <ele>76.6</ele>
        <time>2021-05-27T11:30:47Z</time>
      </trkpt>
      <trkpt lat="47.70098" lon="-2.32169">
        <ele>76.5</ele>
        <time>2021-05-27T11:30:48Z</time>
      </trkpt>
      <trkpt lat="47.701" lon="-2.32178">
        <ele>76.3</ele>
        <time>2021-05-27T11:30:49Z</time>
      </trkpt>
      <trkpt lat="47.70101" lon="-2.32186">
        <ele>76.1</ele>
        <time>2021-05-27T11:30:50Z</time>
      </trkpt>
      <trkpt lat="47.70101" lon="-2.32194">
        <ele>75.9</ele>
        <time>2021-05-27T11:30:51Z</time>
      </trkpt>
      <trkpt lat="47.70102" lon="-2.32202">
        <ele>75.7</ele>
        <time>2021-05-27T11:30:52Z</time>
      </trkpt>
      <trkpt lat="47.70103" lon="-2.3221">
        <ele>75.5</ele>
        <time>2021-05-27T11:30:53Z</time>
      </trkpt>
      <trkpt lat="47.70104" lon="-2.32218">
        <ele>75.3</ele>
        <time>2021-05-27T11:30:54Z</time>
      </trkpt>
      <trkpt lat="47.70105" lon="-2.32226">
        <ele>75.2</ele>
        <time>2021-05-27T11:30:55Z</time>
      </trkpt>
      <trkpt lat="47.70109" lon="-2.32235">
        <ele>75</ele>
        <time>2021-05-27T11:30:56Z</time>
      </trkpt>
      <trkpt lat="47.70112" lon="-2.32243">
        <ele>74.9</ele>
        <time>2021-05-27T11:30:57Z</time>
      </trkpt>
      <trkpt lat="47.70115" lon="-2.3225">
        <ele>74.8</ele>
        <time>2021-05-27T11:30:58Z</time>
      </trkpt>
      <trkpt lat="47.70119" lon="-2.32258">
        <ele>75</ele>
        <time>2021-05-27T11:30:59Z</time>
      </trkpt>
      <trkpt lat="47.70123" lon="-2.32264">
        <ele>75.1</ele>
        <time>2021-05-27T11:31:00Z</time>
      </trkpt>
      <trkpt lat="47.70126" lon="-2.3227">
        <ele>75.3</ele>
        <time>2021-05-27T11:31:01Z</time>
      </trkpt>
      <trkpt lat="47.7013" lon="-2.32277">
        <ele>75.4</ele>
        <time>2021-05-27T11:31:02Z</time>
      </trkpt>
      <trkpt lat="47.70133" lon="-2.32283">
        <ele>75.6</ele>
        <time>2021-05-27T11:31:03Z</time>
      </trkpt>
      <trkpt lat="47.70135" lon="-2.3229">
        <ele>75.7</ele>
        <time>2021-05-27T11:31:04Z</time>
      </trkpt>
      <trkpt lat="47.70137" lon="-2.32299">
        <ele>75.9</ele>
        <time>2021-05-27T11:31:05Z</time>
      </trkpt>
      <trkpt lat="47.70138" lon="-2.32307">
        <ele>76</ele>
        <time>2021-05-27T11:31:06Z</time>
      </trkpt>
      <trkpt lat="47.70139" lon="-2.32314">
        <ele>76.1</ele>
        <time>2021-05-27T11:31:07Z</time>
      </trkpt>
      <trkpt lat="47.70141" lon="-2.32322">
        <ele>76.2</ele>
        <time>2021-05-27T11:31:08Z</time>
      </trkpt>
      <trkpt lat="47.70143" lon="-2.32329">
        <ele>76.4</ele>
        <time>2021-05-27T11:31:09Z</time>
      </trkpt>
      <trkpt lat="47.70145" lon="-2.32337">
        <ele>76.5</ele>
        <time>2021-05-27T11:31:10Z</time>
      </trkpt>
      <trkpt lat="47.70147" lon="-2.32345">
        <ele>76.6</ele>
        <time>2021-05-27T11:31:11Z</time>
      </trkpt>
      <trkpt lat="47.70148" lon="-2.32353">
        <ele>76.6</ele>
        <time>2021-05-27T11:31:12Z</time>
      </trkpt>
      <trkpt lat="47.7015" lon="-2.32361">
        <ele>76.7</ele>
        <time>2021-05-27T11:31:13Z</time>
      </trkpt>
      <trkpt lat="47.70151" lon="-2.3237">
        <ele>76.7</ele>
        <time>2021-05-27T11:31:14Z</time>
      </trkpt>
      <trkpt lat="47.70153" lon="-2.32378">
        <ele>76.8</ele>
        <time>2021-05-27T11:31:15Z</time>
      </trkpt>
      <trkpt lat="47.70155" lon="-2.32387">
        <ele>76.8</ele>
        <time>2021-05-27T11:31:16Z</time>
      </trkpt>
      <trkpt lat="47.70156" lon="-2.32395">
        <ele>76.8</ele>
        <time>2021-05-27T11:31:17Z</time>
      </trkpt>
      <trkpt lat="47.70158" lon="-2.32404">
        <ele>76.9</ele>
        <time>2021-05-27T11:31:18Z</time>
      </trkpt>
      <trkpt lat="47.7016" lon="-2.32412">
        <ele>76.9</ele>
        <time>2021-05-27T11:31:19Z</time>
      </trkpt>
      <trkpt lat="47.70161" lon="-2.32421">
        <ele>76.9</ele>
        <time>2021-05-27T11:31:20Z</time>
      </trkpt>
      <trkpt lat="47.70163" lon="-2.32429">
        <ele>76.9</ele>
        <time>2021-05-27T11:31:21Z</time>
      </trkpt>
      <trkpt lat="47.70164" lon="-2.32437">
        <ele>77</ele>
        <time>2021-05-27T11:31:22Z</time>
      </trkpt>
      <trkpt lat="47.70165" lon="-2.32445">
        <ele>77</ele>
        <time>2021-05-27T11:31:23Z</time>
      </trkpt>
      <trkpt lat="47.70166" lon="-2.32452">
        <ele>77</ele>
        <time>2021-05-27T11:31:24Z</time>
      </trkpt>
      <trkpt lat="47.70167" lon="-2.32459">
        <ele>77</ele>
        <time>2021-05-27T11:31:25Z</time>
      </trkpt>
      <trkpt lat="47.70167" lon="-2.32465">
        <ele>77</ele>
        <time>2021-05-27T11:31:26Z</time>
      </trkpt>
      <trkpt lat="47.70167" lon="-2.32473">
        <ele>77</ele>
        <time>2021-05-27T11:31:27Z</time>
      </trkpt>
      <trkpt lat="47.70167" lon="-2.3248">
        <ele>77</ele>
        <time>2021-05-27T11:31:28Z</time>
      </trkpt>
      <trkpt lat="47.70167" lon="-2.32487">
        <ele>77</ele>
        <time>2021-05-27T11:31:29Z</time>
      </trkpt>
      <trkpt lat="47.70166" lon="-2.32495">
        <ele>77</ele>
        <time>2021-05-27T11:31:30Z</time>
      </trkpt>
      <trkpt lat="47.70166" lon="-2.32502">
        <ele>77</ele>
        <time>2021-05-27T11:31:31Z</time>
      </trkpt>
      <trkpt lat="47.70167" lon="-2.3251">
        <ele>77.2</ele>
        <time>2021-05-27T11:31:32Z</time>
      </trkpt>
      <trkpt lat="47.70167" lon="-2.32516">
        <ele>77.4</ele>
        <time>2021-05-27T11:31:33Z</time>
      </trkpt>
      <trkpt lat="47.70168" lon="-2.32522">
        <ele>77.6</ele>
        <time>2021-05-27T11:31:34Z</time>
      </trkpt>
      <trkpt lat="47.70169" lon="-2.32528">
        <ele>77.7</ele>
        <time>2021-05-27T11:31:35Z</time>
      </trkpt>
      <trkpt lat="47.70171" lon="-2.32535">
        <ele>77.9</ele>
        <time>2021-05-27T11:31:36Z</time>
      </trkpt>
      <trkpt lat="47.70174" lon="-2.32542">
        <ele>78.1</ele>
        <time>2021-05-27T11:31:37Z</time>
      </trkpt>
      <trkpt lat="47.70178" lon="-2.32548">
        <ele>78.3</ele>
        <time>2021-05-27T11:31:38Z</time>
      </trkpt>
      <trkpt lat="47.7018" lon="-2.32553">
        <ele>78.4</ele>
        <time>2021-05-27T11:31:39Z</time>
      </trkpt>
      <trkpt lat="47.70182" lon="-2.32558">
        <ele>78.5</ele>
        <time>2021-05-27T11:31:40Z</time>
      </trkpt>
      <trkpt lat="47.70183" lon="-2.32563">
        <ele>78.6</ele>
        <time>2021-05-27T11:31:41Z</time>
      </trkpt>
      <trkpt lat="47.70184" lon="-2.32569">
        <ele>78.7</ele>
        <time>2021-05-27T11:31:42Z</time>
      </trkpt>
      <trkpt lat="47.70187" lon="-2.32575">
        <ele>78.8</ele>
        <time>2021-05-27T11:31:43Z</time>
      </trkpt>
      <trkpt lat="47.7019" lon="-2.3258">
        <ele>78.9</ele>
        <time>2021-05-27T11:31:44Z</time>
      </trkpt>
      <trkpt lat="47.70193" lon="-2.32584">
        <ele>79</ele>
        <time>2021-05-27T11:31:45Z</time>
      </trkpt>
      <trkpt lat="47.70195" lon="-2.3259">
        <ele>79</ele>
        <time>2021-05-27T11:31:46Z</time>
      </trkpt>
      <trkpt lat="47.70196" lon="-2.32597">
        <ele>79</ele>
        <time>2021-05-27T11:31:47Z</time>
      </trkpt>
      <trkpt lat="47.70197" lon="-2.32604">
        <ele>79</ele>
        <time>2021-05-27T11:31:48Z</time>
      </trkpt>
      <trkpt lat="47.70197" lon="-2.32611">
        <ele>79</ele>
        <time>2021-05-27T11:31:49Z</time>
      </trkpt>
      <trkpt lat="47.70198" lon="-2.32618">
        <ele>79</ele>
        <time>2021-05-27T11:31:50Z</time>
      </trkpt>
      <trkpt lat="47.702" lon="-2.32626">
        <ele>79</ele>
        <time>2021-05-27T11:31:51Z</time>
      </trkpt>
      <trkpt lat="47.702" lon="-2.32632">
        <ele>79</ele>
        <time>2021-05-27T11:31:52Z</time>
      </trkpt>
      <trkpt lat="47.702" lon="-2.32638">
        <ele>79</ele>
        <time>2021-05-27T11:31:53Z</time>
      </trkpt>
      <trkpt lat="47.702" lon="-2.32645">
        <ele>79</ele>
        <time>2021-05-27T11:31:54Z</time>
      </trkpt>
      <trkpt lat="47.70199" lon="-2.32652">
        <ele>79</ele>
        <time>2021-05-27T11:31:55Z</time>
      </trkpt>
      <trkpt lat="47.70197" lon="-2.32657">
        <ele>79</ele>
        <time>2021-05-27T11:31:56Z</time>
      </trkpt>
      <trkpt lat="47.70195" lon="-2.32663">
        <ele>79</ele>
        <time>2021-05-27T11:31:57Z</time>
      </trkpt>
      <trkpt lat="47.70194" lon="-2.32669">
        <ele>79</ele>
        <time>2021-05-27T11:31:58Z</time>
      </trkpt>
      <trkpt lat="47.70193" lon="-2.32675">
        <ele>78.9</ele>
        <time>2021-05-27T11:31:59Z</time>
      </trkpt>
      <trkpt lat="47.70192" lon="-2.32682">
        <ele>78.9</ele>
        <time>2021-05-27T11:32:00Z</time>
      </trkpt>
      <trkpt lat="47.70194" lon="-2.32688">
        <ele>78.8</ele>
        <time>2021-05-27T11:32:01Z</time>
      </trkpt>
      <trkpt lat="47.70195" lon="-2.32694">
        <ele>78.8</ele>
        <time>2021-05-27T11:32:02Z</time>
      </trkpt>
      <trkpt lat="47.70195" lon="-2.327">
        <ele>78.7</ele>
        <time>2021-05-27T11:32:03Z</time>
      </trkpt>
      <trkpt lat="47.70196" lon="-2.32706">
        <ele>78.7</ele>
        <time>2021-05-27T11:32:04Z</time>
      </trkpt>
      <trkpt lat="47.70197" lon="-2.32713">
        <ele>78.6</ele>
        <time>2021-05-27T11:32:05Z</time>
      </trkpt>
      <trkpt lat="47.70198" lon="-2.3272">
        <ele>78.6</ele>
        <time>2021-05-27T11:32:06Z</time>
      </trkpt>
      <trkpt lat="47.70198" lon="-2.32726">
        <ele>78.6</ele>
        <time>2021-05-27T11:32:07Z</time>
      </trkpt>
      <trkpt lat="47.70199" lon="-2.32733">
        <ele>78.5</ele>
        <time>2021-05-27T11:32:08Z</time>
      </trkpt>
      <trkpt lat="47.702" lon="-2.3274">
        <ele>78.5</ele>
        <time>2021-05-27T11:32:09Z</time>
      </trkpt>
      <trkpt lat="47.70203" lon="-2.32747">
        <ele>78.5</ele>
        <time>2021-05-27T11:32:10Z</time>
      </trkpt>
      <trkpt lat="47.70206" lon="-2.32753">
        <ele>78.4</ele>
        <time>2021-05-27T11:32:11Z</time>
      </trkpt>
      <trkpt lat="47.70208" lon="-2.32758">
        <ele>78.4</ele>
        <time>2021-05-27T11:32:12Z</time>
      </trkpt>
      <trkpt lat="47.7021" lon="-2.32765">
        <ele>78.3</ele>
        <time>2021-05-27T11:32:13Z</time>
      </trkpt>
      <trkpt lat="47.7021" lon="-2.32771">
        <ele>78.3</ele>
        <time>2021-05-27T11:32:14Z</time>
      </trkpt>
      <trkpt lat="47.70211" lon="-2.32777">
        <ele>78.2</ele>
        <time>2021-05-27T11:32:15Z</time>
      </trkpt>
      <trkpt lat="47.70211" lon="-2.32784">
        <ele>78.1</ele>
        <time>2021-05-27T11:32:16Z</time>
      </trkpt>
      <trkpt lat="47.70211" lon="-2.3279">
        <ele>78.1</ele>
        <time>2021-05-27T11:32:17Z</time>
      </trkpt>
      <trkpt lat="47.7021" lon="-2.32796">
        <ele>78</ele>
        <time>2021-05-27T11:32:18Z</time>
      </trkpt>
      <trkpt lat="47.7021" lon="-2.32803">
        <ele>77.9</ele>
        <time>2021-05-27T11:32:19Z</time>
      </trkpt>
      <trkpt lat="47.70209" lon="-2.32809">
        <ele>77.8</ele>
        <time>2021-05-27T11:32:20Z</time>
      </trkpt>
      <trkpt lat="47.70207" lon="-2.32815">
        <ele>77.7</ele>
        <time>2021-05-27T11:32:21Z</time>
      </trkpt>
      <trkpt lat="47.70206" lon="-2.32821">
        <ele>77.6</ele>
        <time>2021-05-27T11:32:22Z</time>
      </trkpt>
      <trkpt lat="47.70205" lon="-2.32828">
        <ele>77.5</ele>
        <time>2021-05-27T11:32:23Z</time>
      </trkpt>
      <trkpt lat="47.70204" lon="-2.32834">
        <ele>77.4</ele>
        <time>2021-05-27T11:32:24Z</time>
      </trkpt>
      <trkpt lat="47.70203" lon="-2.32841">
        <ele>77.3</ele>
        <time>2021-05-27T11:32:25Z</time>
      </trkpt>
      <trkpt lat="47.70203" lon="-2.32848">
        <ele>77.2</ele>
        <time>2021-05-27T11:32:26Z</time>
      </trkpt>
      <trkpt lat="47.70203" lon="-2.32854">
        <ele>77.1</ele>
        <time>2021-05-27T11:32:27Z</time>
      </trkpt>
      <trkpt lat="47.70203" lon="-2.3286">
        <ele>77</ele>
        <time>2021-05-27T11:32:28Z</time>
      </trkpt>
      <trkpt lat="47.70202" lon="-2.32865">
        <ele>76.9</ele>
        <time>2021-05-27T11:32:29Z</time>
      </trkpt>
      <trkpt lat="47.70201" lon="-2.32869">
        <ele>76.8</ele>
        <time>2021-05-27T11:32:30Z</time>
      </trkpt>
      <trkpt lat="47.702" lon="-2.32874">
        <ele>76.7</ele>
        <time>2021-05-27T11:32:31Z</time>
      </trkpt>
      <trkpt lat="47.70198" lon="-2.32877">
        <ele>76.6</ele>
        <time>2021-05-27T11:32:32Z</time>
      </trkpt>
      <trkpt lat="47.70196" lon="-2.32878">
        <ele>76.5</ele>
        <time>2021-05-27T11:32:33Z</time>
      </trkpt>
      <trkpt lat="47.70192" lon="-2.3288">
        <ele>76.3</ele>
        <time>2021-05-27T11:32:34Z</time>
      </trkpt>
      <trkpt lat="47.70189" lon="-2.3288">
        <ele>76.2</ele>
        <time>2021-05-27T11:32:35Z</time>
      </trkpt>
      <trkpt lat="47.70184" lon="-2.3288">
        <ele>76</ele>
        <time>2021-05-27T11:32:36Z</time>
      </trkpt>
      <trkpt lat="47.7018" lon="-2.32879">
        <ele>75.9</ele>
        <time>2021-05-27T11:32:37Z</time>
      </trkpt>
      <trkpt lat="47.70176" lon="-2.32879">
        <ele>75.7</ele>
        <time>2021-05-27T11:32:38Z</time>
      </trkpt>
      <trkpt lat="47.70171" lon="-2.32883">
        <ele>75.4</ele>
        <time>2021-05-27T11:32:39Z</time>
      </trkpt>
      <trkpt lat="47.70167" lon="-2.32888">
        <ele>75.1</ele>
        <time>2021-05-27T11:32:40Z</time>
      </trkpt>
      <trkpt lat="47.70164" lon="-2.32892">
        <ele>74.5</ele>
        <time>2021-05-27T11:32:41Z</time>
      </trkpt>
      <trkpt lat="47.70162" lon="-2.32897">
        <ele>74.1</ele>
        <time>2021-05-27T11:32:42Z</time>
      </trkpt>
      <trkpt lat="47.70159" lon="-2.32901">
        <ele>73.5</ele>
        <time>2021-05-27T11:32:43Z</time>
      </trkpt>
      <trkpt lat="47.70157" lon="-2.32906">
        <ele>73</ele>
        <time>2021-05-27T11:32:44Z</time>
      </trkpt>
      <trkpt lat="47.70155" lon="-2.3291">
        <ele>72.5</ele>
        <time>2021-05-27T11:32:45Z</time>
      </trkpt>
      <trkpt lat="47.70153" lon="-2.32915">
        <ele>72.1</ele>
        <time>2021-05-27T11:32:46Z</time>
      </trkpt>
      <trkpt lat="47.70153" lon="-2.3292">
        <ele>71.9</ele>
        <time>2021-05-27T11:32:47Z</time>
      </trkpt>
      <trkpt lat="47.70153" lon="-2.32924">
        <ele>71.8</ele>
        <time>2021-05-27T11:32:48Z</time>
      </trkpt>
      <trkpt lat="47.70153" lon="-2.32926">
        <ele>71.8</ele>
        <time>2021-05-27T11:32:49Z</time>
      </trkpt>
      <trkpt lat="47.70153" lon="-2.32929">
        <ele>71.6</ele>
        <time>2021-05-27T11:32:50Z</time>
      </trkpt>
      <trkpt lat="47.70152" lon="-2.32931">
        <ele>71.4</ele>
        <time>2021-05-27T11:32:51Z</time>
      </trkpt>
      <trkpt lat="47.70151" lon="-2.32935">
        <ele>71.2</ele>
        <time>2021-05-27T11:32:52Z</time>
      </trkpt>
      <trkpt lat="47.7015" lon="-2.3294">
        <ele>71</ele>
        <time>2021-05-27T11:32:53Z</time>
      </trkpt>
      <trkpt lat="47.70151" lon="-2.32944">
        <ele>70.9</ele>
        <time>2021-05-27T11:32:54Z</time>
      </trkpt>
      <trkpt lat="47.70151" lon="-2.32947">
        <ele>70.9</ele>
        <time>2021-05-27T11:32:55Z</time>
      </trkpt>
      <trkpt lat="47.70152" lon="-2.32951">
        <ele>71</ele>
        <time>2021-05-27T11:32:56Z</time>
      </trkpt>
      <trkpt lat="47.70154" lon="-2.32955">
        <ele>71.2</ele>
        <time>2021-05-27T11:32:57Z</time>
      </trkpt>
      <trkpt lat="47.70156" lon="-2.32959">
        <ele>71.5</ele>
        <time>2021-05-27T11:32:58Z</time>
      </trkpt>
      <trkpt lat="47.70158" lon="-2.32963">
        <ele>71.7</ele>
        <time>2021-05-27T11:32:59Z</time>
      </trkpt>
      <trkpt lat="47.70159" lon="-2.32967">
        <ele>71.9</ele>
        <time>2021-05-27T11:33:00Z</time>
      </trkpt>
      <trkpt lat="47.7016" lon="-2.3297">
        <ele>72.1</ele>
        <time>2021-05-27T11:33:01Z</time>
      </trkpt>
      <trkpt lat="47.70162" lon="-2.32974">
        <ele>72.3</ele>
        <time>2021-05-27T11:33:02Z</time>
      </trkpt>
      <trkpt lat="47.70162" lon="-2.32976">
        <ele>72.4</ele>
        <time>2021-05-27T11:33:03Z</time>
      </trkpt>
      <trkpt lat="47.70163" lon="-2.3298">
        <ele>72.4</ele>
        <time>2021-05-27T11:33:04Z</time>
      </trkpt>
      <trkpt lat="47.70164" lon="-2.32983">
        <ele>72.6</ele>
        <time>2021-05-27T11:33:05Z</time>
      </trkpt>
      <trkpt lat="47.70166" lon="-2.32987">
        <ele>72.9</ele>
        <time>2021-05-27T11:33:06Z</time>
      </trkpt>
      <trkpt lat="47.70167" lon="-2.32991">
        <ele>73.1</ele>
        <time>2021-05-27T11:33:07Z</time>
      </trkpt>
      <trkpt lat="47.70169" lon="-2.32995">
        <ele>73.2</ele>
        <time>2021-05-27T11:33:08Z</time>
      </trkpt>
      <trkpt lat="47.7017" lon="-2.32998">
        <ele>73.2</ele>
        <time>2021-05-27T11:33:09Z</time>
      </trkpt>
      <trkpt lat="47.7017" lon="-2.33003">
        <ele>73</ele>
        <time>2021-05-27T11:33:10Z</time>
      </trkpt>
      <trkpt lat="47.7017" lon="-2.33008">
        <ele>72.7</ele>
        <time>2021-05-27T11:33:11Z</time>
      </trkpt>
      <trkpt lat="47.7017" lon="-2.33012">
        <ele>72.5</ele>
        <time>2021-05-27T11:33:12Z</time>
      </trkpt>
      <trkpt lat="47.7017" lon="-2.33017">
        <ele>72.2</ele>
        <time>2021-05-27T11:33:13Z</time>
      </trkpt>
      <trkpt lat="47.7017" lon="-2.33022">
        <ele>71.9</ele>
        <time>2021-05-27T11:33:14Z</time>
      </trkpt>
      <trkpt lat="47.7017" lon="-2.33027">
        <ele>71.6</ele>
        <time>2021-05-27T11:33:15Z</time>
      </trkpt>
      <trkpt lat="47.7017" lon="-2.33031">
        <ele>71.4</ele>
        <time>2021-05-27T11:33:16Z</time>
      </trkpt>
      <trkpt lat="47.7017" lon="-2.33033">
        <ele>71.3</ele>
        <time>2021-05-27T11:33:17Z</time>
      </trkpt>
      <trkpt lat="47.7017" lon="-2.33033">
        <ele>71.3</ele>
        <time>2021-05-27T11:33:18Z</time>
      </trkpt>
      <trkpt lat="47.70171" lon="-2.33033">
        <ele>71.3</ele>
        <time>2021-05-27T11:33:19Z</time>
      </trkpt>
      <trkpt lat="47.70171" lon="-2.33033">
        <ele>71.3</ele>
        <time>2021-05-27T11:33:20Z</time>
      </trkpt>
      <trkpt lat="47.70171" lon="-2.33033">
        <ele>71.3</ele>
        <time>2021-05-27T11:33:21Z</time>
      </trkpt>
      <trkpt lat="47.70171" lon="-2.33033">
        <ele>71.3</ele>
        <time>2021-05-27T11:33:22Z</time>
      </trkpt>
      <trkpt lat="47.70171" lon="-2.33033">
        <ele>71.3</ele>
        <time>2021-05-27T11:33:23Z</time>
      </trkpt>
      <trkpt lat="47.70171" lon="-2.33033">
        <ele>71.3</ele>
        <time>2021-05-27T11:33:24Z</time>
      </trkpt>
      <trkpt lat="47.70171" lon="-2.33033">
        <ele>71.3</ele>
        <time>2021-05-27T11:33:25Z</time>
      </trkpt>
      <trkpt lat="47.70171" lon="-2.33033">
        <ele>71.3</ele>
        <time>2021-05-27T11:33:26Z</time>
      </trkpt>
      <trkpt lat="47.70171" lon="-2.33033">
        <ele>71.3</ele>
        <time>2021-05-27T11:33:27Z</time>
      </trkpt>
      <trkpt lat="47.70171" lon="-2.33033">
        <ele>71.3</ele>
        <time>2021-05-27T11:33:28Z</time>
      </trkpt>
      <trkpt lat="47.70171" lon="-2.33033">
        <ele>71.3</ele>
        <time>2021-05-27T11:33:29Z</time>
      </trkpt>
      <trkpt lat="47.70171" lon="-2.33033">
        <ele>71.3</ele>
        <time>2021-05-27T11:33:30Z</time>
      </trkpt>
      <trkpt lat="47.70171" lon="-2.33033">
        <ele>71.3</ele>
        <time>2021-05-27T11:33:31Z</time>
      </trkpt>
      <trkpt lat="47.70171" lon="-2.33033">
        <ele>71.3</ele>
        <time>2021-05-27T11:33:32Z</time>
      </trkpt>
      <trkpt lat="47.70171" lon="-2.33033">
        <ele>71.3</ele>
        <time>2021-05-27T11:33:33Z</time>
      </trkpt>
      <trkpt lat="47.70171" lon="-2.33033">
        <ele>71.3</ele>
        <time>2021-05-27T11:33:34Z</time>
      </trkpt>
      <trkpt lat="47.70171" lon="-2.33033">
        <ele>71.3</ele>
        <time>2021-05-27T11:33:35Z</time>
      </trkpt>
      <trkpt lat="47.70171" lon="-2.33033">
        <ele>71.3</ele>
        <time>2021-05-27T11:33:36Z</time>
      </trkpt>
      <trkpt lat="47.70171" lon="-2.33033">
        <ele>71.3</ele>
        <time>2021-05-27T11:33:37Z</time>
      </trkpt>
      <trkpt lat="47.70171" lon="-2.33033">
        <ele>71.3</ele>
        <time>2021-05-27T11:33:38Z</time>
      </trkpt>
      <trkpt lat="47.70171" lon="-2.33033">
        <ele>71.3</ele>
        <time>2021-05-27T11:33:39Z</time>
      </trkpt>
      <trkpt lat="47.70171" lon="-2.33033">
        <ele>71.3</ele>
        <time>2021-05-27T11:33:40Z</time>
      </trkpt>
      <trkpt lat="47.70169" lon="-2.33046">
        <ele>70.4</ele>
        <time>2021-05-27T11:33:41Z</time>
      </trkpt>
      <trkpt lat="47.70167" lon="-2.33049">
        <ele>70.1</ele>
        <time>2021-05-27T11:33:42Z</time>
      </trkpt>
      <trkpt lat="47.70166" lon="-2.33053">
        <ele>69.7</ele>
        <time>2021-05-27T11:33:43Z</time>
      </trkpt>
      <trkpt lat="47.70166" lon="-2.33059">
        <ele>69.4</ele>
        <time>2021-05-27T11:33:44Z</time>
      </trkpt>
      <trkpt lat="47.70167" lon="-2.33065">
        <ele>69.1</ele>
        <time>2021-05-27T11:33:45Z</time>
      </trkpt>
      <trkpt lat="47.70168" lon="-2.33068">
        <ele>69</ele>
        <time>2021-05-27T11:33:46Z</time>
      </trkpt>
      <trkpt lat="47.70169" lon="-2.33073">
        <ele>68.8</ele>
        <time>2021-05-27T11:33:47Z</time>
      </trkpt>
      <trkpt lat="47.7017" lon="-2.33077">
        <ele>68.6</ele>
        <time>2021-05-27T11:33:48Z</time>
      </trkpt>
      <trkpt lat="47.70171" lon="-2.33082">
        <ele>68.4</ele>
        <time>2021-05-27T11:33:49Z</time>
      </trkpt>
      <trkpt lat="47.70172" lon="-2.33087">
        <ele>68.2</ele>
        <time>2021-05-27T11:33:50Z</time>
      </trkpt>
      <trkpt lat="47.70173" lon="-2.33093">
        <ele>67.9</ele>
        <time>2021-05-27T11:33:51Z</time>
      </trkpt>
      <trkpt lat="47.70175" lon="-2.33098">
        <ele>67.8</ele>
        <time>2021-05-27T11:33:52Z</time>
      </trkpt>
      <trkpt lat="47.70177" lon="-2.33103">
        <ele>67.6</ele>
        <time>2021-05-27T11:33:53Z</time>
      </trkpt>
      <trkpt lat="47.70178" lon="-2.33108">
        <ele>67.3</ele>
        <time>2021-05-27T11:33:54Z</time>
      </trkpt>
      <trkpt lat="47.70178" lon="-2.33113">
        <ele>67.1</ele>
        <time>2021-05-27T11:33:55Z</time>
      </trkpt>
      <trkpt lat="47.70179" lon="-2.33118">
        <ele>66.8</ele>
        <time>2021-05-27T11:33:56Z</time>
      </trkpt>
      <trkpt lat="47.70179" lon="-2.33123">
        <ele>66.6</ele>
        <time>2021-05-27T11:33:57Z</time>
      </trkpt>
      <trkpt lat="47.70179" lon="-2.33127">
        <ele>66.3</ele>
        <time>2021-05-27T11:33:58Z</time>
      </trkpt>
      <trkpt lat="47.70179" lon="-2.33132">
        <ele>65.9</ele>
        <time>2021-05-27T11:33:59Z</time>
      </trkpt>
      <trkpt lat="47.70179" lon="-2.33137">
        <ele>65.6</ele>
        <time>2021-05-27T11:34:00Z</time>
      </trkpt>
      <trkpt lat="47.70179" lon="-2.33142">
        <ele>65.3</ele>
        <time>2021-05-27T11:34:01Z</time>
      </trkpt>
      <trkpt lat="47.70179" lon="-2.33147">
        <ele>65</ele>
        <time>2021-05-27T11:34:02Z</time>
      </trkpt>
      <trkpt lat="47.70179" lon="-2.33152">
        <ele>64.7</ele>
        <time>2021-05-27T11:34:03Z</time>
      </trkpt>
      <trkpt lat="47.7018" lon="-2.33156">
        <ele>64.5</ele>
        <time>2021-05-27T11:34:04Z</time>
      </trkpt>
      <trkpt lat="47.70181" lon="-2.33161">
        <ele>64.3</ele>
        <time>2021-05-27T11:34:05Z</time>
      </trkpt>
      <trkpt lat="47.70183" lon="-2.33166">
        <ele>64.4</ele>
        <time>2021-05-27T11:34:06Z</time>
      </trkpt>
      <trkpt lat="47.70185" lon="-2.33169">
        <ele>64.4</ele>
        <time>2021-05-27T11:34:07Z</time>
      </trkpt>
      <trkpt lat="47.70186" lon="-2.33172">
        <ele>64.4</ele>
        <time>2021-05-27T11:34:08Z</time>
      </trkpt>
      <trkpt lat="47.70187" lon="-2.33174">
        <ele>64.4</ele>
        <time>2021-05-27T11:34:09Z</time>
      </trkpt>
      <trkpt lat="47.70188" lon="-2.33175">
        <ele>64.4</ele>
        <time>2021-05-27T11:34:10Z</time>
      </trkpt>
      <trkpt lat="47.70188" lon="-2.33175">
        <ele>64.4</ele>
        <time>2021-05-27T11:34:11Z</time>
      </trkpt>
      <trkpt lat="47.70188" lon="-2.33175">
        <ele>64.5</ele>
        <time>2021-05-27T11:34:12Z</time>
      </trkpt>
      <trkpt lat="47.70188" lon="-2.33175">
        <ele>64.5</ele>
        <time>2021-05-27T11:34:13Z</time>
      </trkpt>
      <trkpt lat="47.70188" lon="-2.33175">
        <ele>64.5</ele>
        <time>2021-05-27T11:34:14Z</time>
      </trkpt>
      <trkpt lat="47.70188" lon="-2.33175">
        <ele>64.5</ele>
        <time>2021-05-27T11:34:15Z</time>
      </trkpt>
      <trkpt lat="47.70188" lon="-2.33175">
        <ele>64.5</ele>
        <time>2021-05-27T11:34:16Z</time>
      </trkpt>
      <trkpt lat="47.70188" lon="-2.33175">
        <ele>64.5</ele>
        <time>2021-05-27T11:34:17Z</time>
      </trkpt>
      <trkpt lat="47.70188" lon="-2.33175">
        <ele>64.5</ele>
        <time>2021-05-27T11:34:18Z</time>
      </trkpt>
      <trkpt lat="47.70188" lon="-2.33175">
        <ele>64.5</ele>
        <time>2021-05-27T11:34:19Z</time>
      </trkpt>
      <trkpt lat="47.70188" lon="-2.33175">
        <ele>64.5</ele>
        <time>2021-05-27T11:34:20Z</time>
      </trkpt>
      <trkpt lat="47.70188" lon="-2.33175">
        <ele>64.5</ele>
        <time>2021-05-27T11:34:21Z</time>
      </trkpt>
      <trkpt lat="47.70191" lon="-2.33179">
        <ele>64.6</ele>
        <time>2021-05-27T11:34:22Z</time>
      </trkpt>
      <trkpt lat="47.70191" lon="-2.3318">
        <ele>64.5</ele>
        <time>2021-05-27T11:34:23Z</time>
      </trkpt>
      <trkpt lat="47.70191" lon="-2.3318">
        <ele>64.5</ele>
        <time>2021-05-27T11:34:24Z</time>
      </trkpt>
      <trkpt lat="47.70191" lon="-2.3318">
        <ele>64.6</ele>
        <time>2021-05-27T11:34:25Z</time>
      </trkpt>
      <trkpt lat="47.70193" lon="-2.33181">
        <ele>64.7</ele>
        <time>2021-05-27T11:37:29Z</time>
      </trkpt>
      <trkpt lat="47.70191" lon="-2.33182">
        <ele>64.4</ele>
        <time>2021-05-27T11:37:30Z</time>
      </trkpt>
      <trkpt lat="47.70189" lon="-2.33183">
        <ele>64</ele>
        <time>2021-05-27T11:37:31Z</time>
      </trkpt>
      <trkpt lat="47.70186" lon="-2.33183">
        <ele>63.6</ele>
        <time>2021-05-27T11:37:32Z</time>
      </trkpt>
      <trkpt lat="47.70183" lon="-2.33183">
        <ele>63.1</ele>
        <time>2021-05-27T11:37:33Z</time>
      </trkpt>
      <trkpt lat="47.70182" lon="-2.33183">
        <ele>62.8</ele>
        <time>2021-05-27T11:37:34Z</time>
      </trkpt>
      <trkpt lat="47.70181" lon="-2.33183">
        <ele>62.6</ele>
        <time>2021-05-27T11:37:35Z</time>
      </trkpt>
      <trkpt lat="47.7018" lon="-2.33184">
        <ele>62.6</ele>
        <time>2021-05-27T11:37:36Z</time>
      </trkpt>
      <trkpt lat="47.7018" lon="-2.33183">
        <ele>62.6</ele>
        <time>2021-05-27T11:37:37Z</time>
      </trkpt>
      <trkpt lat="47.7018" lon="-2.33183">
        <ele>62.6</ele>
        <time>2021-05-27T11:37:38Z</time>
      </trkpt>
      <trkpt lat="47.7018" lon="-2.33183">
        <ele>62.6</ele>
        <time>2021-05-27T11:37:39Z</time>
      </trkpt>
      <trkpt lat="47.7018" lon="-2.33183">
        <ele>62.6</ele>
        <time>2021-05-27T11:37:40Z</time>
      </trkpt>
      <trkpt lat="47.7018" lon="-2.33183">
        <ele>62.6</ele>
        <time>2021-05-27T11:37:41Z</time>
      </trkpt>
      <trkpt lat="47.7018" lon="-2.33183">
        <ele>62.6</ele>
        <time>2021-05-27T11:37:42Z</time>
      </trkpt>
      <trkpt lat="47.7018" lon="-2.33183">
        <ele>62.6</ele>
        <time>2021-05-27T11:37:43Z</time>
      </trkpt>
      <trkpt lat="47.7018" lon="-2.33183">
        <ele>62.6</ele>
        <time>2021-05-27T11:37:44Z</time>
      </trkpt>
      <trkpt lat="47.7018" lon="-2.33183">
        <ele>62.6</ele>
        <time>2021-05-27T11:37:45Z</time>
      </trkpt>
      <trkpt lat="47.7018" lon="-2.33183">
        <ele>62.6</ele>
        <time>2021-05-27T11:37:46Z</time>
      </trkpt>
      <trkpt lat="47.7018" lon="-2.33183">
        <ele>62.6</ele>
        <time>2021-05-27T11:37:47Z</time>
      </trkpt>
      <trkpt lat="47.70173" lon="-2.33187">
        <ele>61.1</ele>
        <time>2021-05-27T11:37:48Z</time>
      </trkpt>
      <trkpt lat="47.70172" lon="-2.33189">
        <ele>60.6</ele>
        <time>2021-05-27T11:37:49Z</time>
      </trkpt>
      <trkpt lat="47.70169" lon="-2.33192">
        <ele>60</ele>
        <time>2021-05-27T11:37:50Z</time>
      </trkpt>
      <trkpt lat="47.70167" lon="-2.33194">
        <ele>59.4</ele>
        <time>2021-05-27T11:37:51Z</time>
      </trkpt>
      <trkpt lat="47.70165" lon="-2.33195">
        <ele>58.8</ele>
        <time>2021-05-27T11:37:52Z</time>
      </trkpt>
      <trkpt lat="47.70164" lon="-2.33196">
        <ele>58.5</ele>
        <time>2021-05-27T11:37:53Z</time>
      </trkpt>
      <trkpt lat="47.70164" lon="-2.33197">
        <ele>58.5</ele>
        <time>2021-05-27T11:37:54Z</time>
      </trkpt>
      <trkpt lat="47.70166" lon="-2.33199">
        <ele>58.5</ele>
        <time>2021-05-27T11:37:55Z</time>
      </trkpt>
      <trkpt lat="47.70167" lon="-2.33201">
        <ele>58.7</ele>
        <time>2021-05-27T11:37:56Z</time>
      </trkpt>
      <trkpt lat="47.70167" lon="-2.33203">
        <ele>58.7</ele>
        <time>2021-05-27T11:37:57Z</time>
      </trkpt>
      <trkpt lat="47.70168" lon="-2.33205">
        <ele>58.5</ele>
        <time>2021-05-27T11:37:58Z</time>
      </trkpt>
      <trkpt lat="47.70167" lon="-2.33208">
        <ele>58.1</ele>
        <time>2021-05-27T11:37:59Z</time>
      </trkpt>
      <trkpt lat="47.70167" lon="-2.33211">
        <ele>57.8</ele>
        <time>2021-05-27T11:38:00Z</time>
      </trkpt>
      <trkpt lat="47.70166" lon="-2.33214">
        <ele>57.3</ele>
        <time>2021-05-27T11:38:01Z</time>
      </trkpt>
      <trkpt lat="47.70166" lon="-2.33217">
        <ele>56.9</ele>
        <time>2021-05-27T11:38:02Z</time>
      </trkpt>
      <trkpt lat="47.70165" lon="-2.33219">
        <ele>56.5</ele>
        <time>2021-05-27T11:38:03Z</time>
      </trkpt>
      <trkpt lat="47.70164" lon="-2.33222">
        <ele>55.9</ele>
        <time>2021-05-27T11:38:04Z</time>
      </trkpt>
      <trkpt lat="47.70163" lon="-2.33225">
        <ele>55.6</ele>
        <time>2021-05-27T11:38:05Z</time>
      </trkpt>
      <trkpt lat="47.70163" lon="-2.33227">
        <ele>55.2</ele>
        <time>2021-05-27T11:38:06Z</time>
      </trkpt>
      <trkpt lat="47.70162" lon="-2.33229">
        <ele>54.9</ele>
        <time>2021-05-27T11:38:07Z</time>
      </trkpt>
      <trkpt lat="47.70161" lon="-2.33231">
        <ele>54.4</ele>
        <time>2021-05-27T11:38:08Z</time>
      </trkpt>
      <trkpt lat="47.7016" lon="-2.33233">
        <ele>54</ele>
        <time>2021-05-27T11:38:09Z</time>
      </trkpt>
      <trkpt lat="47.7016" lon="-2.33235">
        <ele>53.7</ele>
        <time>2021-05-27T11:38:10Z</time>
      </trkpt>
      <trkpt lat="47.7016" lon="-2.33237">
        <ele>53.5</ele>
        <time>2021-05-27T11:38:11Z</time>
      </trkpt>
      <trkpt lat="47.70159" lon="-2.33238">
        <ele>53</ele>
        <time>2021-05-27T11:38:12Z</time>
      </trkpt>
      <trkpt lat="47.70158" lon="-2.3324">
        <ele>52.7</ele>
        <time>2021-05-27T11:38:13Z</time>
      </trkpt>
      <trkpt lat="47.70157" lon="-2.33241">
        <ele>52.3</ele>
        <time>2021-05-27T11:38:14Z</time>
      </trkpt>
      <trkpt lat="47.70156" lon="-2.33243">
        <ele>51.9</ele>
        <time>2021-05-27T11:38:15Z</time>
      </trkpt>
      <trkpt lat="47.70155" lon="-2.33245">
        <ele>51.5</ele>
        <time>2021-05-27T11:38:16Z</time>
      </trkpt>
      <trkpt lat="47.70154" lon="-2.33246">
        <ele>51.1</ele>
        <time>2021-05-27T11:38:17Z</time>
      </trkpt>
      <trkpt lat="47.70154" lon="-2.3325">
        <ele>50.6</ele>
        <time>2021-05-27T11:38:18Z</time>
      </trkpt>
      <trkpt lat="47.70153" lon="-2.33252">
        <ele>50.3</ele>
        <time>2021-05-27T11:38:19Z</time>
      </trkpt>
      <trkpt lat="47.70153" lon="-2.33255">
        <ele>49.9</ele>
        <time>2021-05-27T11:38:20Z</time>
      </trkpt>
      <trkpt lat="47.70153" lon="-2.33258">
        <ele>49.6</ele>
        <time>2021-05-27T11:38:21Z</time>
      </trkpt>
      <trkpt lat="47.70153" lon="-2.3326">
        <ele>49.2</ele>
        <time>2021-05-27T11:38:22Z</time>
      </trkpt>
      <trkpt lat="47.70151" lon="-2.33261">
        <ele>48.8</ele>
        <time>2021-05-27T11:38:23Z</time>
      </trkpt>
      <trkpt lat="47.7015" lon="-2.33262">
        <ele>48.3</ele>
        <time>2021-05-27T11:38:24Z</time>
      </trkpt>
      <trkpt lat="47.70149" lon="-2.33264">
        <ele>47.9</ele>
        <time>2021-05-27T11:38:25Z</time>
      </trkpt>
      <trkpt lat="47.70148" lon="-2.33265">
        <ele>47.5</ele>
        <time>2021-05-27T11:38:26Z</time>
      </trkpt>
      <trkpt lat="47.70147" lon="-2.33268">
        <ele>47</ele>
        <time>2021-05-27T11:38:27Z</time>
      </trkpt>
      <trkpt lat="47.70146" lon="-2.3327">
        <ele>46.6</ele>
        <time>2021-05-27T11:38:28Z</time>
      </trkpt>
      <trkpt lat="47.70146" lon="-2.33272">
        <ele>46.4</ele>
        <time>2021-05-27T11:38:29Z</time>
      </trkpt>
      <trkpt lat="47.70146" lon="-2.33275">
        <ele>46.2</ele>
        <time>2021-05-27T11:38:30Z</time>
      </trkpt>
      <trkpt lat="47.70147" lon="-2.33275">
        <ele>46.3</ele>
        <time>2021-05-27T11:38:31Z</time>
      </trkpt>
      <trkpt lat="47.70146" lon="-2.33275">
        <ele>46.1</ele>
        <time>2021-05-27T11:38:32Z</time>
      </trkpt>
      <trkpt lat="47.70146" lon="-2.33275">
        <ele>46.1</ele>
        <time>2021-05-27T11:38:33Z</time>
      </trkpt>
      <trkpt lat="47.70146" lon="-2.33275">
        <ele>46.1</ele>
        <time>2021-05-27T11:38:34Z</time>
      </trkpt>
      <trkpt lat="47.70146" lon="-2.33275">
        <ele>46.1</ele>
        <time>2021-05-27T11:38:35Z</time>
      </trkpt>
      <trkpt lat="47.70146" lon="-2.33275">
        <ele>46.1</ele>
        <time>2021-05-27T11:38:36Z</time>
      </trkpt>
      <trkpt lat="47.70146" lon="-2.33275">
        <ele>46.1</ele>
        <time>2021-05-27T11:38:37Z</time>
      </trkpt>
      <trkpt lat="47.70146" lon="-2.33275">
        <ele>46.1</ele>
        <time>2021-05-27T11:38:38Z</time>
      </trkpt>
      <trkpt lat="47.70146" lon="-2.33275">
        <ele>46.1</ele>
        <time>2021-05-27T11:38:39Z</time>
      </trkpt>
      <trkpt lat="47.70146" lon="-2.33275">
        <ele>46.1</ele>
        <time>2021-05-27T11:38:40Z</time>
      </trkpt>
      <trkpt lat="47.70146" lon="-2.33275">
        <ele>46.1</ele>
        <time>2021-05-27T11:38:41Z</time>
      </trkpt>
      <trkpt lat="47.70146" lon="-2.33275">
        <ele>46.1</ele>
        <time>2021-05-27T11:38:42Z</time>
      </trkpt>
      <trkpt lat="47.70146" lon="-2.33275">
        <ele>46.1</ele>
        <time>2021-05-27T11:38:43Z</time>
      </trkpt>
      <trkpt lat="47.70146" lon="-2.33275">
        <ele>46.1</ele>
        <time>2021-05-27T11:38:44Z</time>
      </trkpt>
      <trkpt lat="47.70145" lon="-2.33274">
        <ele>46</ele>
        <time>2021-05-27T11:38:45Z</time>
      </trkpt>
      <trkpt lat="47.70145" lon="-2.33278">
        <ele>45.5</ele>
        <time>2021-05-27T11:38:46Z</time>
      </trkpt>
      <trkpt lat="47.70146" lon="-2.33282">
        <ele>45.4</ele>
        <time>2021-05-27T11:38:47Z</time>
      </trkpt>
      <trkpt lat="47.70148" lon="-2.33285">
        <ele>45.6</ele>
        <time>2021-05-27T11:38:48Z</time>
      </trkpt>
      <trkpt lat="47.70149" lon="-2.3329">
        <ele>45.3</ele>
        <time>2021-05-27T11:38:49Z</time>
      </trkpt>
      <trkpt lat="47.7015" lon="-2.33295">
        <ele>45.1</ele>
        <time>2021-05-27T11:38:50Z</time>
      </trkpt>
      <trkpt lat="47.70151" lon="-2.333">
        <ele>44.8</ele>
        <time>2021-05-27T11:38:51Z</time>
      </trkpt>
      <trkpt lat="47.70153" lon="-2.33305">
        <ele>44.6</ele>
        <time>2021-05-27T11:38:52Z</time>
      </trkpt>
      <trkpt lat="47.70154" lon="-2.33312">
        <ele>44.1</ele>
        <time>2021-05-27T11:38:53Z</time>
      </trkpt>
      <trkpt lat="47.70157" lon="-2.33318">
        <ele>43.9</ele>
        <time>2021-05-27T11:38:54Z</time>
      </trkpt>
      <trkpt lat="47.70158" lon="-2.33322">
        <ele>43.8</ele>
        <time>2021-05-27T11:38:55Z</time>
      </trkpt>
      <trkpt lat="47.7016" lon="-2.33327">
        <ele>43.6</ele>
        <time>2021-05-27T11:38:56Z</time>
      </trkpt>
      <trkpt lat="47.70161" lon="-2.33331">
        <ele>43.4</ele>
        <time>2021-05-27T11:38:57Z</time>
      </trkpt>
      <trkpt lat="47.70164" lon="-2.33336">
        <ele>43.4</ele>
        <time>2021-05-27T11:38:58Z</time>
      </trkpt>
      <trkpt lat="47.70165" lon="-2.3334">
        <ele>43.4</ele>
        <time>2021-05-27T11:38:59Z</time>
      </trkpt>
      <trkpt lat="47.70167" lon="-2.33347">
        <ele>43.3</ele>
        <time>2021-05-27T11:39:00Z</time>
      </trkpt>
      <trkpt lat="47.70168" lon="-2.33352">
        <ele>43.5</ele>
        <time>2021-05-27T11:39:01Z</time>
      </trkpt>
      <trkpt lat="47.7017" lon="-2.33357">
        <ele>43.8</ele>
        <time>2021-05-27T11:39:02Z</time>
      </trkpt>
      <trkpt lat="47.70173" lon="-2.33362">
        <ele>44.1</ele>
        <time>2021-05-27T11:39:03Z</time>
      </trkpt>
      <trkpt lat="47.70176" lon="-2.33367">
        <ele>44.5</ele>
        <time>2021-05-27T11:39:04Z</time>
      </trkpt>
      <trkpt lat="47.70177" lon="-2.33373">
        <ele>44.7</ele>
        <time>2021-05-27T11:39:05Z</time>
      </trkpt>
      <trkpt lat="47.70178" lon="-2.33377">
        <ele>44.8</ele>
        <time>2021-05-27T11:39:06Z</time>
      </trkpt>
      <trkpt lat="47.7018" lon="-2.33382">
        <ele>44.9</ele>
        <time>2021-05-27T11:39:07Z</time>
      </trkpt>
      <trkpt lat="47.70181" lon="-2.33387">
        <ele>44.9</ele>
        <time>2021-05-27T11:39:08Z</time>
      </trkpt>
      <trkpt lat="47.70183" lon="-2.33392">
        <ele>45.1</ele>
        <time>2021-05-27T11:39:09Z</time>
      </trkpt>
      <trkpt lat="47.70184" lon="-2.33396">
        <ele>45.3</ele>
        <time>2021-05-27T11:39:10Z</time>
      </trkpt>
      <trkpt lat="47.70186" lon="-2.33401">
        <ele>45.3</ele>
        <time>2021-05-27T11:39:11Z</time>
      </trkpt>
      <trkpt lat="47.70187" lon="-2.33407">
        <ele>45.4</ele>
        <time>2021-05-27T11:39:12Z</time>
      </trkpt>
      <trkpt lat="47.70189" lon="-2.33412">
        <ele>45.5</ele>
        <time>2021-05-27T11:39:13Z</time>
      </trkpt>
      <trkpt lat="47.70192" lon="-2.33417">
        <ele>46</ele>
        <time>2021-05-27T11:39:14Z</time>
      </trkpt>
      <trkpt lat="47.70193" lon="-2.33424">
        <ele>45.8</ele>
        <time>2021-05-27T11:39:15Z</time>
      </trkpt>
      <trkpt lat="47.70194" lon="-2.33431">
        <ele>45.5</ele>
        <time>2021-05-27T11:39:16Z</time>
      </trkpt>
      <trkpt lat="47.70196" lon="-2.33436">
        <ele>45.3</ele>
        <time>2021-05-27T11:39:17Z</time>
      </trkpt>
      <trkpt lat="47.70197" lon="-2.33442">
        <ele>45.2</ele>
        <time>2021-05-27T11:39:18Z</time>
      </trkpt>
      <trkpt lat="47.70197" lon="-2.33447">
        <ele>44.9</ele>
        <time>2021-05-27T11:39:19Z</time>
      </trkpt>
      <trkpt lat="47.70198" lon="-2.33452">
        <ele>44.7</ele>
        <time>2021-05-27T11:39:20Z</time>
      </trkpt>
      <trkpt lat="47.70199" lon="-2.33458">
        <ele>44.5</ele>
        <time>2021-05-27T11:39:21Z</time>
      </trkpt>
      <trkpt lat="47.702" lon="-2.33464">
        <ele>44</ele>
        <time>2021-05-27T11:39:22Z</time>
      </trkpt>
      <trkpt lat="47.702" lon="-2.33472">
        <ele>43.5</ele>
        <time>2021-05-27T11:39:23Z</time>
      </trkpt>
      <trkpt lat="47.70201" lon="-2.33479">
        <ele>43.1</ele>
        <time>2021-05-27T11:39:24Z</time>
      </trkpt>
      <trkpt lat="47.70202" lon="-2.33487">
        <ele>42.6</ele>
        <time>2021-05-27T11:39:25Z</time>
      </trkpt>
      <trkpt lat="47.70202" lon="-2.33494">
        <ele>42.2</ele>
        <time>2021-05-27T11:39:26Z</time>
      </trkpt>
      <trkpt lat="47.70202" lon="-2.335">
        <ele>41.7</ele>
        <time>2021-05-27T11:39:27Z</time>
      </trkpt>
      <trkpt lat="47.70202" lon="-2.33507">
        <ele>41.3</ele>
        <time>2021-05-27T11:39:28Z</time>
      </trkpt>
      <trkpt lat="47.70202" lon="-2.33514">
        <ele>41</ele>
        <time>2021-05-27T11:39:29Z</time>
      </trkpt>
      <trkpt lat="47.70203" lon="-2.3352">
        <ele>40.8</ele>
        <time>2021-05-27T11:39:30Z</time>
      </trkpt>
      <trkpt lat="47.70202" lon="-2.33525">
        <ele>40.5</ele>
        <time>2021-05-27T11:39:31Z</time>
      </trkpt>
      <trkpt lat="47.70203" lon="-2.33533">
        <ele>40.3</ele>
        <time>2021-05-27T11:39:32Z</time>
      </trkpt>
      <trkpt lat="47.70202" lon="-2.33541">
        <ele>39.7</ele>
        <time>2021-05-27T11:39:33Z</time>
      </trkpt>
      <trkpt lat="47.70201" lon="-2.33551">
        <ele>39.1</ele>
        <time>2021-05-27T11:39:34Z</time>
      </trkpt>
      <trkpt lat="47.702" lon="-2.33559">
        <ele>38.5</ele>
        <time>2021-05-27T11:39:35Z</time>
      </trkpt>
      <trkpt lat="47.702" lon="-2.33567">
        <ele>38.2</ele>
        <time>2021-05-27T11:39:36Z</time>
      </trkpt>
      <trkpt lat="47.702" lon="-2.33575">
        <ele>37.9</ele>
        <time>2021-05-27T11:39:37Z</time>
      </trkpt>
      <trkpt lat="47.702" lon="-2.33582">
        <ele>37.4</ele>
        <time>2021-05-27T11:39:38Z</time>
      </trkpt>
      <trkpt lat="47.702" lon="-2.33592">
        <ele>36.7</ele>
        <time>2021-05-27T11:39:39Z</time>
      </trkpt>
      <trkpt lat="47.702" lon="-2.33603">
        <ele>35.9</ele>
        <time>2021-05-27T11:39:40Z</time>
      </trkpt>
      <trkpt lat="47.702" lon="-2.33613">
        <ele>35.2</ele>
        <time>2021-05-27T11:39:41Z</time>
      </trkpt>
      <trkpt lat="47.702" lon="-2.33624">
        <ele>34.4</ele>
        <time>2021-05-27T11:39:42Z</time>
      </trkpt>
      <trkpt lat="47.702" lon="-2.33633">
        <ele>33.6</ele>
        <time>2021-05-27T11:39:43Z</time>
      </trkpt>
      <trkpt lat="47.70199" lon="-2.3364">
        <ele>32.8</ele>
        <time>2021-05-27T11:39:44Z</time>
      </trkpt>
      <trkpt lat="47.70195" lon="-2.3365">
        <ele>31.6</ele>
        <time>2021-05-27T11:39:45Z</time>
      </trkpt>
      <trkpt lat="47.70192" lon="-2.3366">
        <ele>30.6</ele>
        <time>2021-05-27T11:39:46Z</time>
      </trkpt>
      <trkpt lat="47.7019" lon="-2.33671">
        <ele>29.7</ele>
        <time>2021-05-27T11:39:47Z</time>
      </trkpt>
      <trkpt lat="47.70187" lon="-2.33681">
        <ele>29.3</ele>
        <time>2021-05-27T11:39:48Z</time>
      </trkpt>
      <trkpt lat="47.70185" lon="-2.33692">
        <ele>29</ele>
        <time>2021-05-27T11:39:49Z</time>
      </trkpt>
      <trkpt lat="47.70184" lon="-2.33702">
        <ele>28.9</ele>
        <time>2021-05-27T11:39:50Z</time>
      </trkpt>
      <trkpt lat="47.70182" lon="-2.33714">
        <ele>28.7</ele>
        <time>2021-05-27T11:39:51Z</time>
      </trkpt>
      <trkpt lat="47.70181" lon="-2.33724">
        <ele>28.6</ele>
        <time>2021-05-27T11:39:52Z</time>
      </trkpt>
      <trkpt lat="47.7018" lon="-2.33733">
        <ele>28.5</ele>
        <time>2021-05-27T11:39:53Z</time>
      </trkpt>
      <trkpt lat="47.70179" lon="-2.3374">
        <ele>28.5</ele>
        <time>2021-05-27T11:39:54Z</time>
      </trkpt>
      <trkpt lat="47.70178" lon="-2.33745">
        <ele>28.4</ele>
        <time>2021-05-27T11:39:55Z</time>
      </trkpt>
      <trkpt lat="47.70178" lon="-2.33751">
        <ele>28.4</ele>
        <time>2021-05-27T11:39:56Z</time>
      </trkpt>
      <trkpt lat="47.70176" lon="-2.33754">
        <ele>28.5</ele>
        <time>2021-05-27T11:39:57Z</time>
      </trkpt>
      <trkpt lat="47.70174" lon="-2.33755">
        <ele>28.5</ele>
        <time>2021-05-27T11:39:58Z</time>
      </trkpt>
      <trkpt lat="47.70171" lon="-2.33756">
        <ele>28.4</ele>
        <time>2021-05-27T11:39:59Z</time>
      </trkpt>
      <trkpt lat="47.70168" lon="-2.33757">
        <ele>28.3</ele>
        <time>2021-05-27T11:40:00Z</time>
      </trkpt>
      <trkpt lat="47.70165" lon="-2.33758">
        <ele>28.5</ele>
        <time>2021-05-27T11:40:01Z</time>
      </trkpt>
      <trkpt lat="47.70161" lon="-2.33759">
        <ele>29</ele>
        <time>2021-05-27T11:40:02Z</time>
      </trkpt>
      <trkpt lat="47.70159" lon="-2.3376">
        <ele>29.4</ele>
        <time>2021-05-27T11:40:03Z</time>
      </trkpt>
      <trkpt lat="47.70156" lon="-2.33761">
        <ele>29.8</ele>
        <time>2021-05-27T11:40:04Z</time>
      </trkpt>
      <trkpt lat="47.70154" lon="-2.33758">
        <ele>29.9</ele>
        <time>2021-05-27T11:40:05Z</time>
      </trkpt>
      <trkpt lat="47.7015" lon="-2.3376">
        <ele>30.5</ele>
        <time>2021-05-27T11:40:06Z</time>
      </trkpt>
      <trkpt lat="47.70146" lon="-2.33761">
        <ele>31</ele>
        <time>2021-05-27T11:40:07Z</time>
      </trkpt>
      <trkpt lat="47.70143" lon="-2.33761">
        <ele>31.4</ele>
        <time>2021-05-27T11:40:08Z</time>
      </trkpt>
      <trkpt lat="47.70139" lon="-2.33761">
        <ele>31.9</ele>
        <time>2021-05-27T11:40:09Z</time>
      </trkpt>
      <trkpt lat="47.70135" lon="-2.3376">
        <ele>32.2</ele>
        <time>2021-05-27T11:40:10Z</time>
      </trkpt>
      <trkpt lat="47.70132" lon="-2.33759">
        <ele>32.7</ele>
        <time>2021-05-27T11:40:11Z</time>
      </trkpt>
      <trkpt lat="47.70128" lon="-2.33758">
        <ele>33</ele>
        <time>2021-05-27T11:40:12Z</time>
      </trkpt>
      <trkpt lat="47.70126" lon="-2.33757">
        <ele>33.2</ele>
        <time>2021-05-27T11:40:13Z</time>
      </trkpt>
      <trkpt lat="47.70124" lon="-2.33756">
        <ele>33.5</ele>
        <time>2021-05-27T11:40:14Z</time>
      </trkpt>
      <trkpt lat="47.70121" lon="-2.33755">
        <ele>33.8</ele>
        <time>2021-05-27T11:40:15Z</time>
      </trkpt>
      <trkpt lat="47.7012" lon="-2.33752">
        <ele>33.8</ele>
        <time>2021-05-27T11:40:16Z</time>
      </trkpt>
      <trkpt lat="47.70117" lon="-2.3375">
        <ele>33.9</ele>
        <time>2021-05-27T11:40:17Z</time>
      </trkpt>
      <trkpt lat="47.70115" lon="-2.33748">
        <ele>34.1</ele>
        <time>2021-05-27T11:40:18Z</time>
      </trkpt>
      <trkpt lat="47.70112" lon="-2.33746">
        <ele>34.4</ele>
        <time>2021-05-27T11:40:19Z</time>
      </trkpt>
      <trkpt lat="47.70109" lon="-2.33744">
        <ele>34.7</ele>
        <time>2021-05-27T11:40:20Z</time>
      </trkpt>
      <trkpt lat="47.70106" lon="-2.33742">
        <ele>35</ele>
        <time>2021-05-27T11:40:21Z</time>
      </trkpt>
      <trkpt lat="47.70103" lon="-2.33741">
        <ele>35.3</ele>
        <time>2021-05-27T11:40:22Z</time>
      </trkpt>
      <trkpt lat="47.70098" lon="-2.33739">
        <ele>35.8</ele>
        <time>2021-05-27T11:40:23Z</time>
      </trkpt>
      <trkpt lat="47.70095" lon="-2.33738">
        <ele>36.1</ele>
        <time>2021-05-27T11:40:24Z</time>
      </trkpt>
      <trkpt lat="47.70091" lon="-2.33736">
        <ele>36.4</ele>
        <time>2021-05-27T11:40:25Z</time>
      </trkpt>
      <trkpt lat="47.70089" lon="-2.33735">
        <ele>36.7</ele>
        <time>2021-05-27T11:40:26Z</time>
      </trkpt>
      <trkpt lat="47.70085" lon="-2.33734">
        <ele>37</ele>
        <time>2021-05-27T11:40:27Z</time>
      </trkpt>
      <trkpt lat="47.70082" lon="-2.33733">
        <ele>37.4</ele>
        <time>2021-05-27T11:40:28Z</time>
      </trkpt>
      <trkpt lat="47.7008" lon="-2.33732">
        <ele>37.8</ele>
        <time>2021-05-27T11:40:29Z</time>
      </trkpt>
      <trkpt lat="47.70078" lon="-2.3373">
        <ele>38.3</ele>
        <time>2021-05-27T11:40:30Z</time>
      </trkpt>
      <trkpt lat="47.70075" lon="-2.33728">
        <ele>38.7</ele>
        <time>2021-05-27T11:40:31Z</time>
      </trkpt>
      <trkpt lat="47.70073" lon="-2.33727">
        <ele>39.2</ele>
        <time>2021-05-27T11:40:32Z</time>
      </trkpt>
      <trkpt lat="47.70071" lon="-2.33726">
        <ele>39.6</ele>
        <time>2021-05-27T11:40:33Z</time>
      </trkpt>
      <trkpt lat="47.70068" lon="-2.33725">
        <ele>40</ele>
        <time>2021-05-27T11:40:34Z</time>
      </trkpt>
      <trkpt lat="47.70065" lon="-2.33724">
        <ele>40.5</ele>
        <time>2021-05-27T11:40:35Z</time>
      </trkpt>
      <trkpt lat="47.70062" lon="-2.33723">
        <ele>41.1</ele>
        <time>2021-05-27T11:40:36Z</time>
      </trkpt>
      <trkpt lat="47.70061" lon="-2.3372">
        <ele>41.3</ele>
        <time>2021-05-27T11:40:37Z</time>
      </trkpt>
      <trkpt lat="47.70059" lon="-2.33715">
        <ele>41.3</ele>
        <time>2021-05-27T11:40:38Z</time>
      </trkpt>
      <trkpt lat="47.70058" lon="-2.33713">
        <ele>41.4</ele>
        <time>2021-05-27T11:40:39Z</time>
      </trkpt>
      <trkpt lat="47.70057" lon="-2.33711">
        <ele>41.6</ele>
        <time>2021-05-27T11:40:40Z</time>
      </trkpt>
      <trkpt lat="47.70056" lon="-2.33712">
        <ele>41.7</ele>
        <time>2021-05-27T11:40:41Z</time>
      </trkpt>
      <trkpt lat="47.70057" lon="-2.33713">
        <ele>41.7</ele>
        <time>2021-05-27T11:40:42Z</time>
      </trkpt>
      <trkpt lat="47.70059" lon="-2.33714">
        <ele>41.3</ele>
        <time>2021-05-27T11:40:43Z</time>
      </trkpt>
      <trkpt lat="47.70061" lon="-2.33715">
        <ele>41.1</ele>
        <time>2021-05-27T11:40:44Z</time>
      </trkpt>
      <trkpt lat="47.70062" lon="-2.33718">
        <ele>40.9</ele>
        <time>2021-05-27T11:40:45Z</time>
      </trkpt>
      <trkpt lat="47.70063" lon="-2.33719">
        <ele>40.8</ele>
        <time>2021-05-27T11:40:46Z</time>
      </trkpt>
      <trkpt lat="47.70063" lon="-2.33722">
        <ele>40.9</ele>
        <time>2021-05-27T11:40:47Z</time>
      </trkpt>
      <trkpt lat="47.70064" lon="-2.33724">
        <ele>40.9</ele>
        <time>2021-05-27T11:40:48Z</time>
      </trkpt>
      <trkpt lat="47.70063" lon="-2.33724">
        <ele>41</ele>
        <time>2021-05-27T11:40:49Z</time>
      </trkpt>
      <trkpt lat="47.70062" lon="-2.33721">
        <ele>41.2</ele>
        <time>2021-05-27T11:40:50Z</time>
      </trkpt>
      <trkpt lat="47.7006" lon="-2.33716">
        <ele>41.2</ele>
        <time>2021-05-27T11:40:51Z</time>
      </trkpt>
      <trkpt lat="47.7006" lon="-2.33709">
        <ele>40.9</ele>
        <time>2021-05-27T11:40:52Z</time>
      </trkpt>
      <trkpt lat="47.70058" lon="-2.33705">
        <ele>40.9</ele>
        <time>2021-05-27T11:40:53Z</time>
      </trkpt>
      <trkpt lat="47.70056" lon="-2.33701">
        <ele>41.2</ele>
        <time>2021-05-27T11:40:54Z</time>
      </trkpt>
      <trkpt lat="47.70052" lon="-2.33698">
        <ele>41.7</ele>
        <time>2021-05-27T11:40:55Z</time>
      </trkpt>
      <trkpt lat="47.70049" lon="-2.33695">
        <ele>42.1</ele>
        <time>2021-05-27T11:40:56Z</time>
      </trkpt>
      <trkpt lat="47.70045" lon="-2.33691">
        <ele>42.6</ele>
        <time>2021-05-27T11:40:57Z</time>
      </trkpt>
      <trkpt lat="47.70044" lon="-2.33687">
        <ele>42.5</ele>
        <time>2021-05-27T11:40:58Z</time>
      </trkpt>
      <trkpt lat="47.70043" lon="-2.33684">
        <ele>42.4</ele>
        <time>2021-05-27T11:40:59Z</time>
      </trkpt>
      <trkpt lat="47.70043" lon="-2.3368">
        <ele>42.3</ele>
        <time>2021-05-27T11:41:00Z</time>
      </trkpt>
      <trkpt lat="47.70041" lon="-2.33677">
        <ele>42.3</ele>
        <time>2021-05-27T11:41:01Z</time>
      </trkpt>
      <trkpt lat="47.70038" lon="-2.33674">
        <ele>42.7</ele>
        <time>2021-05-27T11:41:02Z</time>
      </trkpt>
      <trkpt lat="47.70035" lon="-2.33672">
        <ele>43.2</ele>
        <time>2021-05-27T11:41:03Z</time>
      </trkpt>
      <trkpt lat="47.70033" lon="-2.3367">
        <ele>43.3</ele>
        <time>2021-05-27T11:41:04Z</time>
      </trkpt>
      <trkpt lat="47.7003" lon="-2.33668">
        <ele>43.7</ele>
        <time>2021-05-27T11:41:05Z</time>
      </trkpt>
      <trkpt lat="47.70028" lon="-2.33665">
        <ele>43.8</ele>
        <time>2021-05-27T11:41:06Z</time>
      </trkpt>
      <trkpt lat="47.70027" lon="-2.33664">
        <ele>43.9</ele>
        <time>2021-05-27T11:41:07Z</time>
      </trkpt>
      <trkpt lat="47.70026" lon="-2.33661">
        <ele>44</ele>
        <time>2021-05-27T11:41:08Z</time>
      </trkpt>
      <trkpt lat="47.70025" lon="-2.33658">
        <ele>43.9</ele>
        <time>2021-05-27T11:41:09Z</time>
      </trkpt>
      <trkpt lat="47.70022" lon="-2.33655">
        <ele>44.2</ele>
        <time>2021-05-27T11:41:10Z</time>
      </trkpt>
      <trkpt lat="47.70021" lon="-2.33652">
        <ele>44.3</ele>
        <time>2021-05-27T11:41:11Z</time>
      </trkpt>
      <trkpt lat="47.70019" lon="-2.33649">
        <ele>44.5</ele>
        <time>2021-05-27T11:41:12Z</time>
      </trkpt>
      <trkpt lat="47.70017" lon="-2.33646">
        <ele>44.5</ele>
        <time>2021-05-27T11:41:13Z</time>
      </trkpt>
      <trkpt lat="47.70015" lon="-2.33642">
        <ele>44.6</ele>
        <time>2021-05-27T11:41:14Z</time>
      </trkpt>
      <trkpt lat="47.70015" lon="-2.33639">
        <ele>44.5</ele>
        <time>2021-05-27T11:41:15Z</time>
      </trkpt>
      <trkpt lat="47.70014" lon="-2.33635">
        <ele>44.4</ele>
        <time>2021-05-27T11:41:16Z</time>
      </trkpt>
      <trkpt lat="47.70013" lon="-2.33632">
        <ele>44.4</ele>
        <time>2021-05-27T11:41:17Z</time>
      </trkpt>
      <trkpt lat="47.70011" lon="-2.33629">
        <ele>44.5</ele>
        <time>2021-05-27T11:41:18Z</time>
      </trkpt>
      <trkpt lat="47.70009" lon="-2.33626">
        <ele>44.6</ele>
        <time>2021-05-27T11:41:19Z</time>
      </trkpt>
      <trkpt lat="47.70008" lon="-2.33624">
        <ele>44.6</ele>
        <time>2021-05-27T11:41:20Z</time>
      </trkpt>
      <trkpt lat="47.70007" lon="-2.33622">
        <ele>44.6</ele>
        <time>2021-05-27T11:41:21Z</time>
      </trkpt>
      <trkpt lat="47.70006" lon="-2.3362">
        <ele>44.7</ele>
        <time>2021-05-27T11:41:22Z</time>
      </trkpt>
      <trkpt lat="47.70005" lon="-2.33619">
        <ele>44.8</ele>
        <time>2021-05-27T11:41:23Z</time>
      </trkpt>
      <trkpt lat="47.70004" lon="-2.33618">
        <ele>44.8</ele>
        <time>2021-05-27T11:41:24Z</time>
      </trkpt>
      <trkpt lat="47.70003" lon="-2.33616">
        <ele>44.9</ele>
        <time>2021-05-27T11:41:25Z</time>
      </trkpt>
      <trkpt lat="47.70003" lon="-2.33615">
        <ele>44.8</ele>
        <time>2021-05-27T11:41:26Z</time>
      </trkpt>
      <trkpt lat="47.70002" lon="-2.33613">
        <ele>44.8</ele>
        <time>2021-05-27T11:41:27Z</time>
      </trkpt>
      <trkpt lat="47.70001" lon="-2.33612">
        <ele>44.9</ele>
        <time>2021-05-27T11:41:28Z</time>
      </trkpt>
      <trkpt lat="47.7" lon="-2.3361">
        <ele>44.9</ele>
        <time>2021-05-27T11:41:29Z</time>
      </trkpt>
      <trkpt lat="47.69999" lon="-2.33608">
        <ele>44.8</ele>
        <time>2021-05-27T11:41:30Z</time>
      </trkpt>
      <trkpt lat="47.69997" lon="-2.33606">
        <ele>44.8</ele>
        <time>2021-05-27T11:41:31Z</time>
      </trkpt>
      <trkpt lat="47.69995" lon="-2.33604">
        <ele>44.9</ele>
        <time>2021-05-27T11:41:32Z</time>
      </trkpt>
      <trkpt lat="47.69992" lon="-2.33601">
        <ele>45</ele>
        <time>2021-05-27T11:41:33Z</time>
      </trkpt>
      <trkpt lat="47.6999" lon="-2.33599">
        <ele>45</ele>
        <time>2021-05-27T11:41:34Z</time>
      </trkpt>
      <trkpt lat="47.69987" lon="-2.33597">
        <ele>45.1</ele>
        <time>2021-05-27T11:41:35Z</time>
      </trkpt>
      <trkpt lat="47.69986" lon="-2.33596">
        <ele>45.2</ele>
        <time>2021-05-27T11:41:36Z</time>
      </trkpt>
      <trkpt lat="47.69984" lon="-2.33594">
        <ele>45.2</ele>
        <time>2021-05-27T11:41:37Z</time>
      </trkpt>
      <trkpt lat="47.69981" lon="-2.33593">
        <ele>45.4</ele>
        <time>2021-05-27T11:41:38Z</time>
      </trkpt>
      <trkpt lat="47.69978" lon="-2.33592">
        <ele>45.7</ele>
        <time>2021-05-27T11:41:39Z</time>
      </trkpt>
      <trkpt lat="47.69975" lon="-2.33593">
        <ele>45.9</ele>
        <time>2021-05-27T11:41:40Z</time>
      </trkpt>
      <trkpt lat="47.69972" lon="-2.33593">
        <ele>46.3</ele>
        <time>2021-05-27T11:41:41Z</time>
      </trkpt>
      <trkpt lat="47.69969" lon="-2.33591">
        <ele>46.4</ele>
        <time>2021-05-27T11:41:42Z</time>
      </trkpt>
      <trkpt lat="47.69967" lon="-2.3359">
        <ele>46.5</ele>
        <time>2021-05-27T11:41:43Z</time>
      </trkpt>
      <trkpt lat="47.69966" lon="-2.3359">
        <ele>46.6</ele>
        <time>2021-05-27T11:41:44Z</time>
      </trkpt>
      <trkpt lat="47.69964" lon="-2.33589">
        <ele>46.8</ele>
        <time>2021-05-27T11:41:45Z</time>
      </trkpt>
      <trkpt lat="47.69962" lon="-2.33589">
        <ele>46.9</ele>
        <time>2021-05-27T11:41:46Z</time>
      </trkpt>
      <trkpt lat="47.69962" lon="-2.33588">
        <ele>46.9</ele>
        <time>2021-05-27T11:41:47Z</time>
      </trkpt>
      <trkpt lat="47.69961" lon="-2.33589">
        <ele>47</ele>
        <time>2021-05-27T11:41:48Z</time>
      </trkpt>
      <trkpt lat="47.69962" lon="-2.33594">
        <ele>47.2</ele>
        <time>2021-05-27T11:41:49Z</time>
      </trkpt>
      <trkpt lat="47.69961" lon="-2.33597">
        <ele>47.4</ele>
        <time>2021-05-27T11:41:50Z</time>
      </trkpt>
      <trkpt lat="47.6996" lon="-2.33601">
        <ele>47.7</ele>
        <time>2021-05-27T11:41:51Z</time>
      </trkpt>
      <trkpt lat="47.6996" lon="-2.33605">
        <ele>47.9</ele>
        <time>2021-05-27T11:41:52Z</time>
      </trkpt>
      <trkpt lat="47.6996" lon="-2.33608">
        <ele>48</ele>
        <time>2021-05-27T11:41:53Z</time>
      </trkpt>
      <trkpt lat="47.69955" lon="-2.3361">
        <ele>48.5</ele>
        <time>2021-05-27T11:41:54Z</time>
      </trkpt>
      <trkpt lat="47.69954" lon="-2.33613">
        <ele>48.7</ele>
        <time>2021-05-27T11:41:55Z</time>
      </trkpt>
      <trkpt lat="47.69954" lon="-2.33616">
        <ele>48.9</ele>
        <time>2021-05-27T11:41:56Z</time>
      </trkpt>
      <trkpt lat="47.69954" lon="-2.33619">
        <ele>49.1</ele>
        <time>2021-05-27T11:41:57Z</time>
      </trkpt>
      <trkpt lat="47.69954" lon="-2.33622">
        <ele>49.2</ele>
        <time>2021-05-27T11:41:58Z</time>
      </trkpt>
      <trkpt lat="47.69954" lon="-2.33627">
        <ele>49.4</ele>
        <time>2021-05-27T11:41:59Z</time>
      </trkpt>
      <trkpt lat="47.69954" lon="-2.33631">
        <ele>49.6</ele>
        <time>2021-05-27T11:42:00Z</time>
      </trkpt>
      <trkpt lat="47.69953" lon="-2.33635">
        <ele>49.8</ele>
        <time>2021-05-27T11:42:01Z</time>
      </trkpt>
      <trkpt lat="47.69953" lon="-2.33639">
        <ele>50</ele>
        <time>2021-05-27T11:42:02Z</time>
      </trkpt>
      <trkpt lat="47.69952" lon="-2.33643">
        <ele>50.3</ele>
        <time>2021-05-27T11:42:03Z</time>
      </trkpt>
      <trkpt lat="47.69951" lon="-2.33646">
        <ele>50.4</ele>
        <time>2021-05-27T11:42:04Z</time>
      </trkpt>
      <trkpt lat="47.6995" lon="-2.33649">
        <ele>50.6</ele>
        <time>2021-05-27T11:42:05Z</time>
      </trkpt>
      <trkpt lat="47.69949" lon="-2.33653">
        <ele>50.9</ele>
        <time>2021-05-27T11:42:06Z</time>
      </trkpt>
      <trkpt lat="47.69949" lon="-2.33658">
        <ele>51.1</ele>
        <time>2021-05-27T11:42:07Z</time>
      </trkpt>
      <trkpt lat="47.69947" lon="-2.33662">
        <ele>51.4</ele>
        <time>2021-05-27T11:42:08Z</time>
      </trkpt>
      <trkpt lat="47.69947" lon="-2.33667">
        <ele>51.6</ele>
        <time>2021-05-27T11:42:09Z</time>
      </trkpt>
      <trkpt lat="47.69947" lon="-2.33671">
        <ele>51.9</ele>
        <time>2021-05-27T11:42:10Z</time>
      </trkpt>
      <trkpt lat="47.69947" lon="-2.33677">
        <ele>52.2</ele>
        <time>2021-05-27T11:42:11Z</time>
      </trkpt>
      <trkpt lat="47.69947" lon="-2.33681">
        <ele>52.5</ele>
        <time>2021-05-27T11:42:12Z</time>
      </trkpt>
      <trkpt lat="47.69948" lon="-2.33685">
        <ele>52.7</ele>
        <time>2021-05-27T11:42:13Z</time>
      </trkpt>
      <trkpt lat="47.69948" lon="-2.3369">
        <ele>53</ele>
        <time>2021-05-27T11:42:14Z</time>
      </trkpt>
      <trkpt lat="47.69948" lon="-2.33693">
        <ele>53.3</ele>
        <time>2021-05-27T11:42:15Z</time>
      </trkpt>
      <trkpt lat="47.69948" lon="-2.33697">
        <ele>53.5</ele>
        <time>2021-05-27T11:42:16Z</time>
      </trkpt>
      <trkpt lat="47.69948" lon="-2.33701">
        <ele>53.8</ele>
        <time>2021-05-27T11:42:17Z</time>
      </trkpt>
      <trkpt lat="47.69949" lon="-2.33706">
        <ele>54.1</ele>
        <time>2021-05-27T11:42:18Z</time>
      </trkpt>
      <trkpt lat="47.69953" lon="-2.33711">
        <ele>54.3</ele>
        <time>2021-05-27T11:42:19Z</time>
      </trkpt>
      <trkpt lat="47.69951" lon="-2.33715">
        <ele>54.6</ele>
        <time>2021-05-27T11:42:20Z</time>
      </trkpt>
      <trkpt lat="47.69949" lon="-2.33719">
        <ele>54.9</ele>
        <time>2021-05-27T11:42:21Z</time>
      </trkpt>
      <trkpt lat="47.69947" lon="-2.33723">
        <ele>55.2</ele>
        <time>2021-05-27T11:42:22Z</time>
      </trkpt>
      <trkpt lat="47.69945" lon="-2.33727">
        <ele>55.5</ele>
        <time>2021-05-27T11:42:23Z</time>
      </trkpt>
      <trkpt lat="47.69942" lon="-2.33731">
        <ele>55.8</ele>
        <time>2021-05-27T11:42:24Z</time>
      </trkpt>
      <trkpt lat="47.6994" lon="-2.33735">
        <ele>56.1</ele>
        <time>2021-05-27T11:42:25Z</time>
      </trkpt>
      <trkpt lat="47.69937" lon="-2.33738">
        <ele>56.3</ele>
        <time>2021-05-27T11:42:26Z</time>
      </trkpt>
      <trkpt lat="47.69934" lon="-2.33741">
        <ele>56.5</ele>
        <time>2021-05-27T11:42:27Z</time>
      </trkpt>
      <trkpt lat="47.69932" lon="-2.33745">
        <ele>56.7</ele>
        <time>2021-05-27T11:42:28Z</time>
      </trkpt>
      <trkpt lat="47.69929" lon="-2.33749">
        <ele>56.9</ele>
        <time>2021-05-27T11:42:29Z</time>
      </trkpt>
      <trkpt lat="47.69926" lon="-2.33752">
        <ele>57.1</ele>
        <time>2021-05-27T11:42:30Z</time>
      </trkpt>
      <trkpt lat="47.69925" lon="-2.33759">
        <ele>57.3</ele>
        <time>2021-05-27T11:42:31Z</time>
      </trkpt>
      <trkpt lat="47.6992" lon="-2.33765">
        <ele>57.4</ele>
        <time>2021-05-27T11:42:32Z</time>
      </trkpt>
      <trkpt lat="47.69918" lon="-2.3377">
        <ele>57.5</ele>
        <time>2021-05-27T11:42:33Z</time>
      </trkpt>
      <trkpt lat="47.69916" lon="-2.33775">
        <ele>57.5</ele>
        <time>2021-05-27T11:42:34Z</time>
      </trkpt>
      <trkpt lat="47.69915" lon="-2.3378">
        <ele>57.4</ele>
        <time>2021-05-27T11:42:35Z</time>
      </trkpt>
      <trkpt lat="47.69914" lon="-2.33784">
        <ele>57.4</ele>
        <time>2021-05-27T11:42:36Z</time>
      </trkpt>
      <trkpt lat="47.69914" lon="-2.3379">
        <ele>57.5</ele>
        <time>2021-05-27T11:42:37Z</time>
      </trkpt>
      <trkpt lat="47.69914" lon="-2.33795">
        <ele>57.6</ele>
        <time>2021-05-27T11:42:38Z</time>
      </trkpt>
      <trkpt lat="47.69914" lon="-2.338">
        <ele>57.7</ele>
        <time>2021-05-27T11:42:39Z</time>
      </trkpt>
      <trkpt lat="47.69914" lon="-2.33806">
        <ele>57.8</ele>
        <time>2021-05-27T11:42:40Z</time>
      </trkpt>
      <trkpt lat="47.69914" lon="-2.33812">
        <ele>58.1</ele>
        <time>2021-05-27T11:42:41Z</time>
      </trkpt>
      <trkpt lat="47.69913" lon="-2.33819">
        <ele>58</ele>
        <time>2021-05-27T11:42:42Z</time>
      </trkpt>
      <trkpt lat="47.69912" lon="-2.33825">
        <ele>58</ele>
        <time>2021-05-27T11:42:43Z</time>
      </trkpt>
      <trkpt lat="47.69911" lon="-2.33831">
        <ele>58</ele>
        <time>2021-05-27T11:42:44Z</time>
      </trkpt>
      <trkpt lat="47.69911" lon="-2.33836">
        <ele>58.1</ele>
        <time>2021-05-27T11:42:45Z</time>
      </trkpt>
      <trkpt lat="47.69911" lon="-2.33841">
        <ele>58.3</ele>
        <time>2021-05-27T11:42:46Z</time>
      </trkpt>
      <trkpt lat="47.69911" lon="-2.33846">
        <ele>58.4</ele>
        <time>2021-05-27T11:42:47Z</time>
      </trkpt>
      <trkpt lat="47.6991" lon="-2.3385">
        <ele>58.4</ele>
        <time>2021-05-27T11:42:48Z</time>
      </trkpt>
      <trkpt lat="47.6991" lon="-2.33855">
        <ele>58.5</ele>
        <time>2021-05-27T11:42:49Z</time>
      </trkpt>
      <trkpt lat="47.69908" lon="-2.33859">
        <ele>58.4</ele>
        <time>2021-05-27T11:42:50Z</time>
      </trkpt>
      <trkpt lat="47.69906" lon="-2.33864">
        <ele>58.2</ele>
        <time>2021-05-27T11:42:51Z</time>
      </trkpt>
      <trkpt lat="47.69903" lon="-2.33869">
        <ele>57.8</ele>
        <time>2021-05-27T11:42:52Z</time>
      </trkpt>
      <trkpt lat="47.69901" lon="-2.33873">
        <ele>57.7</ele>
        <time>2021-05-27T11:42:53Z</time>
      </trkpt>
      <trkpt lat="47.69899" lon="-2.33877">
        <ele>57.5</ele>
        <time>2021-05-27T11:42:54Z</time>
      </trkpt>
      <trkpt lat="47.69898" lon="-2.33881">
        <ele>57.4</ele>
        <time>2021-05-27T11:42:55Z</time>
      </trkpt>
      <trkpt lat="47.69897" lon="-2.33885">
        <ele>57.5</ele>
        <time>2021-05-27T11:42:56Z</time>
      </trkpt>
      <trkpt lat="47.69896" lon="-2.3389">
        <ele>57.5</ele>
        <time>2021-05-27T11:42:57Z</time>
      </trkpt>
      <trkpt lat="47.69896" lon="-2.33896">
        <ele>57.7</ele>
        <time>2021-05-27T11:42:58Z</time>
      </trkpt>
      <trkpt lat="47.69895" lon="-2.33902">
        <ele>57.7</ele>
        <time>2021-05-27T11:42:59Z</time>
      </trkpt>
      <trkpt lat="47.69894" lon="-2.33906">
        <ele>57.8</ele>
        <time>2021-05-27T11:43:00Z</time>
      </trkpt>
      <trkpt lat="47.69893" lon="-2.33912">
        <ele>57.9</ele>
        <time>2021-05-27T11:43:01Z</time>
      </trkpt>
      <trkpt lat="47.69893" lon="-2.33918">
        <ele>58.1</ele>
        <time>2021-05-27T11:43:02Z</time>
      </trkpt>
      <trkpt lat="47.69892" lon="-2.33925">
        <ele>58.3</ele>
        <time>2021-05-27T11:43:03Z</time>
      </trkpt>
      <trkpt lat="47.6989" lon="-2.33931">
        <ele>58.3</ele>
        <time>2021-05-27T11:43:04Z</time>
      </trkpt>
      <trkpt lat="47.69889" lon="-2.33937">
        <ele>58.4</ele>
        <time>2021-05-27T11:43:05Z</time>
      </trkpt>
      <trkpt lat="47.69891" lon="-2.33947">
        <ele>59.2</ele>
        <time>2021-05-27T11:43:06Z</time>
      </trkpt>
      <trkpt lat="47.69889" lon="-2.33954">
        <ele>59.3</ele>
        <time>2021-05-27T11:43:07Z</time>
      </trkpt>
      <trkpt lat="47.69887" lon="-2.3396">
        <ele>59.2</ele>
        <time>2021-05-27T11:43:08Z</time>
      </trkpt>
      <trkpt lat="47.69886" lon="-2.33966">
        <ele>59.3</ele>
        <time>2021-05-27T11:43:09Z</time>
      </trkpt>
      <trkpt lat="47.69884" lon="-2.33971">
        <ele>59.2</ele>
        <time>2021-05-27T11:43:10Z</time>
      </trkpt>
      <trkpt lat="47.69882" lon="-2.33976">
        <ele>59.2</ele>
        <time>2021-05-27T11:43:11Z</time>
      </trkpt>
      <trkpt lat="47.69881" lon="-2.33979">
        <ele>59</ele>
        <time>2021-05-27T11:43:12Z</time>
      </trkpt>
      <trkpt lat="47.69879" lon="-2.3398">
        <ele>58.7</ele>
        <time>2021-05-27T11:43:13Z</time>
      </trkpt>
      <trkpt lat="47.69878" lon="-2.33981">
        <ele>58.6</ele>
        <time>2021-05-27T11:43:14Z</time>
      </trkpt>
      <trkpt lat="47.69875" lon="-2.33981">
        <ele>58.2</ele>
        <time>2021-05-27T11:43:15Z</time>
      </trkpt>
      <trkpt lat="47.69873" lon="-2.33981">
        <ele>57.7</ele>
        <time>2021-05-27T11:43:16Z</time>
      </trkpt>
      <trkpt lat="47.6987" lon="-2.3398">
        <ele>57.2</ele>
        <time>2021-05-27T11:43:17Z</time>
      </trkpt>
      <trkpt lat="47.69868" lon="-2.3398">
        <ele>56.7</ele>
        <time>2021-05-27T11:43:18Z</time>
      </trkpt>
      <trkpt lat="47.69863" lon="-2.33981">
        <ele>55.8</ele>
        <time>2021-05-27T11:43:19Z</time>
      </trkpt>
      <trkpt lat="47.69861" lon="-2.33982">
        <ele>55.4</ele>
        <time>2021-05-27T11:43:20Z</time>
      </trkpt>
      <trkpt lat="47.69858" lon="-2.33983">
        <ele>55</ele>
        <time>2021-05-27T11:43:21Z</time>
      </trkpt>
      <trkpt lat="47.69857" lon="-2.33983">
        <ele>54.7</ele>
        <time>2021-05-27T11:43:22Z</time>
      </trkpt>
      <trkpt lat="47.69856" lon="-2.33985">
        <ele>54.7</ele>
        <time>2021-05-27T11:43:23Z</time>
      </trkpt>
      <trkpt lat="47.69855" lon="-2.33989">
        <ele>54.8</ele>
        <time>2021-05-27T11:43:24Z</time>
      </trkpt>
      <trkpt lat="47.69855" lon="-2.33993">
        <ele>54.9</ele>
        <time>2021-05-27T11:43:25Z</time>
      </trkpt>
      <trkpt lat="47.69854" lon="-2.33999">
        <ele>55</ele>
        <time>2021-05-27T11:43:26Z</time>
      </trkpt>
      <trkpt lat="47.69854" lon="-2.34005">
        <ele>54.9</ele>
        <time>2021-05-27T11:43:27Z</time>
      </trkpt>
      <trkpt lat="47.69853" lon="-2.3401">
        <ele>54.9</ele>
        <time>2021-05-27T11:43:28Z</time>
      </trkpt>
      <trkpt lat="47.69852" lon="-2.34014">
        <ele>54.8</ele>
        <time>2021-05-27T11:43:29Z</time>
      </trkpt>
      <trkpt lat="47.69852" lon="-2.34017">
        <ele>54.7</ele>
        <time>2021-05-27T11:43:30Z</time>
      </trkpt>
      <trkpt lat="47.69851" lon="-2.34021">
        <ele>54.7</ele>
        <time>2021-05-27T11:43:31Z</time>
      </trkpt>
      <trkpt lat="47.6985" lon="-2.34026">
        <ele>54.5</ele>
        <time>2021-05-27T11:43:32Z</time>
      </trkpt>
      <trkpt lat="47.69848" lon="-2.34031">
        <ele>54.4</ele>
        <time>2021-05-27T11:43:33Z</time>
      </trkpt>
      <trkpt lat="47.69847" lon="-2.34036">
        <ele>54.2</ele>
        <time>2021-05-27T11:43:34Z</time>
      </trkpt>
      <trkpt lat="47.69846" lon="-2.34041">
        <ele>53.9</ele>
        <time>2021-05-27T11:43:35Z</time>
      </trkpt>
      <trkpt lat="47.69844" lon="-2.34046">
        <ele>53.7</ele>
        <time>2021-05-27T11:43:36Z</time>
      </trkpt>
      <trkpt lat="47.69844" lon="-2.3405">
        <ele>53.6</ele>
        <time>2021-05-27T11:43:37Z</time>
      </trkpt>
      <trkpt lat="47.69844" lon="-2.34054">
        <ele>53.7</ele>
        <time>2021-05-27T11:43:38Z</time>
      </trkpt>
      <trkpt lat="47.69844" lon="-2.34057">
        <ele>53.8</ele>
        <time>2021-05-27T11:43:39Z</time>
      </trkpt>
      <trkpt lat="47.69845" lon="-2.3406">
        <ele>54</ele>
        <time>2021-05-27T11:43:40Z</time>
      </trkpt>
      <trkpt lat="47.69846" lon="-2.34062">
        <ele>54.2</ele>
        <time>2021-05-27T11:43:41Z</time>
      </trkpt>
      <trkpt lat="47.69846" lon="-2.34064">
        <ele>54.4</ele>
        <time>2021-05-27T11:43:42Z</time>
      </trkpt>
      <trkpt lat="47.69847" lon="-2.34065">
        <ele>54.5</ele>
        <time>2021-05-27T11:43:43Z</time>
      </trkpt>
      <trkpt lat="47.69847" lon="-2.34065">
        <ele>54.5</ele>
        <time>2021-05-27T11:43:44Z</time>
      </trkpt>
      <trkpt lat="47.69847" lon="-2.34065">
        <ele>54.5</ele>
        <time>2021-05-27T11:43:45Z</time>
      </trkpt>
      <trkpt lat="47.69847" lon="-2.34065">
        <ele>54.5</ele>
        <time>2021-05-27T11:43:46Z</time>
      </trkpt>
      <trkpt lat="47.69847" lon="-2.34065">
        <ele>54.5</ele>
        <time>2021-05-27T11:43:47Z</time>
      </trkpt>
      <trkpt lat="47.69847" lon="-2.34065">
        <ele>54.5</ele>
        <time>2021-05-27T11:43:48Z</time>
      </trkpt>
      <trkpt lat="47.69847" lon="-2.34065">
        <ele>54.5</ele>
        <time>2021-05-27T11:43:49Z</time>
      </trkpt>
      <trkpt lat="47.69847" lon="-2.34065">
        <ele>54.5</ele>
        <time>2021-05-27T11:43:50Z</time>
      </trkpt>
      <trkpt lat="47.69847" lon="-2.34065">
        <ele>54.5</ele>
        <time>2021-05-27T11:43:51Z</time>
      </trkpt>
      <trkpt lat="47.69847" lon="-2.34065">
        <ele>54.5</ele>
        <time>2021-05-27T11:43:52Z</time>
      </trkpt>
      <trkpt lat="47.69847" lon="-2.34065">
        <ele>54.5</ele>
        <time>2021-05-27T11:43:53Z</time>
      </trkpt>
      <trkpt lat="47.69847" lon="-2.34065">
        <ele>54.5</ele>
        <time>2021-05-27T11:43:54Z</time>
      </trkpt>
      <trkpt lat="47.69847" lon="-2.34065">
        <ele>54.5</ele>
        <time>2021-05-27T11:43:55Z</time>
      </trkpt>
      <trkpt lat="47.69847" lon="-2.34065">
        <ele>54.5</ele>
        <time>2021-05-27T11:43:56Z</time>
      </trkpt>
      <trkpt lat="47.69847" lon="-2.34065">
        <ele>54.5</ele>
        <time>2021-05-27T11:43:57Z</time>
      </trkpt>
      <trkpt lat="47.69847" lon="-2.34065">
        <ele>54.5</ele>
        <time>2021-05-27T11:43:58Z</time>
      </trkpt>
      <trkpt lat="47.69847" lon="-2.34065">
        <ele>54.5</ele>
        <time>2021-05-27T11:43:59Z</time>
      </trkpt>
      <trkpt lat="47.69847" lon="-2.34065">
        <ele>54.5</ele>
        <time>2021-05-27T11:44:00Z</time>
      </trkpt>
      <trkpt lat="47.69847" lon="-2.34065">
        <ele>54.5</ele>
        <time>2021-05-27T11:44:01Z</time>
      </trkpt>
      <trkpt lat="47.69847" lon="-2.34065">
        <ele>54.5</ele>
        <time>2021-05-27T11:44:02Z</time>
      </trkpt>
      <trkpt lat="47.69847" lon="-2.34065">
        <ele>54.5</ele>
        <time>2021-05-27T11:44:03Z</time>
      </trkpt>
      <trkpt lat="47.69847" lon="-2.34065">
        <ele>54.5</ele>
        <time>2021-05-27T11:44:04Z</time>
      </trkpt>
      <trkpt lat="47.69847" lon="-2.34065">
        <ele>54.5</ele>
        <time>2021-05-27T11:44:05Z</time>
      </trkpt>
      <trkpt lat="47.69847" lon="-2.34065">
        <ele>54.5</ele>
        <time>2021-05-27T11:44:06Z</time>
      </trkpt>
      <trkpt lat="47.69847" lon="-2.34065">
        <ele>54.5</ele>
        <time>2021-05-27T11:44:07Z</time>
      </trkpt>
      <trkpt lat="47.69847" lon="-2.34065">
        <ele>54.5</ele>
        <time>2021-05-27T11:44:08Z</time>
      </trkpt>
      <trkpt lat="47.69847" lon="-2.34065">
        <ele>54.5</ele>
        <time>2021-05-27T11:44:09Z</time>
      </trkpt>
      <trkpt lat="47.69847" lon="-2.34065">
        <ele>54.5</ele>
        <time>2021-05-27T11:44:10Z</time>
      </trkpt>
      <trkpt lat="47.69847" lon="-2.34065">
        <ele>54.5</ele>
        <time>2021-05-27T11:44:11Z</time>
      </trkpt>
      <trkpt lat="47.69847" lon="-2.34065">
        <ele>54.5</ele>
        <time>2021-05-27T11:44:12Z</time>
      </trkpt>
      <trkpt lat="47.69847" lon="-2.34065">
        <ele>54.5</ele>
        <time>2021-05-27T11:44:13Z</time>
      </trkpt>
      <trkpt lat="47.69847" lon="-2.34065">
        <ele>54.5</ele>
        <time>2021-05-27T11:44:14Z</time>
      </trkpt>
      <trkpt lat="47.69847" lon="-2.34065">
        <ele>54.5</ele>
        <time>2021-05-27T11:44:15Z</time>
      </trkpt>
      <trkpt lat="47.69847" lon="-2.34065">
        <ele>54.5</ele>
        <time>2021-05-27T11:44:16Z</time>
      </trkpt>
      <trkpt lat="47.6985" lon="-2.34061">
        <ele>55.1</ele>
        <time>2021-05-27T11:44:17Z</time>
      </trkpt>
      <trkpt lat="47.69852" lon="-2.34059">
        <ele>55.4</ele>
        <time>2021-05-27T11:44:18Z</time>
      </trkpt>
      <trkpt lat="47.69853" lon="-2.34055">
        <ele>55.6</ele>
        <time>2021-05-27T11:44:19Z</time>
      </trkpt>
      <trkpt lat="47.69855" lon="-2.34052">
        <ele>55.8</ele>
        <time>2021-05-27T11:44:20Z</time>
      </trkpt>
      <trkpt lat="47.69857" lon="-2.34049">
        <ele>56.2</ele>
        <time>2021-05-27T11:44:21Z</time>
      </trkpt>
      <trkpt lat="47.69859" lon="-2.34048">
        <ele>56.7</ele>
        <time>2021-05-27T11:44:22Z</time>
      </trkpt>
      <trkpt lat="47.69862" lon="-2.34047">
        <ele>57.2</ele>
        <time>2021-05-27T11:44:23Z</time>
      </trkpt>
      <trkpt lat="47.69864" lon="-2.34049">
        <ele>57.7</ele>
        <time>2021-05-27T11:44:24Z</time>
      </trkpt>
      <trkpt lat="47.69865" lon="-2.34051">
        <ele>58</ele>
        <time>2021-05-27T11:44:25Z</time>
      </trkpt>
      <trkpt lat="47.69866" lon="-2.34056">
        <ele>58.2</ele>
        <time>2021-05-27T11:44:26Z</time>
      </trkpt>
      <trkpt lat="47.69867" lon="-2.34061">
        <ele>58.4</ele>
        <time>2021-05-27T11:44:27Z</time>
      </trkpt>
      <trkpt lat="47.69867" lon="-2.34066">
        <ele>58.5</ele>
        <time>2021-05-27T11:44:28Z</time>
      </trkpt>
      <trkpt lat="47.69867" lon="-2.3407">
        <ele>58.5</ele>
        <time>2021-05-27T11:44:29Z</time>
      </trkpt>
      <trkpt lat="47.69866" lon="-2.34074">
        <ele>58.5</ele>
        <time>2021-05-27T11:44:30Z</time>
      </trkpt>
      <trkpt lat="47.69866" lon="-2.34079">
        <ele>58.5</ele>
        <time>2021-05-27T11:44:31Z</time>
      </trkpt>
      <trkpt lat="47.69865" lon="-2.34084">
        <ele>58.5</ele>
        <time>2021-05-27T11:44:32Z</time>
      </trkpt>
      <trkpt lat="47.69865" lon="-2.34089">
        <ele>58.7</ele>
        <time>2021-05-27T11:44:33Z</time>
      </trkpt>
      <trkpt lat="47.69864" lon="-2.34092">
        <ele>58.6</ele>
        <time>2021-05-27T11:44:34Z</time>
      </trkpt>
      <trkpt lat="47.69864" lon="-2.34096">
        <ele>58.8</ele>
        <time>2021-05-27T11:44:35Z</time>
      </trkpt>
      <trkpt lat="47.69865" lon="-2.341">
        <ele>59</ele>
        <time>2021-05-27T11:44:36Z</time>
      </trkpt>
      <trkpt lat="47.69865" lon="-2.34105">
        <ele>59.3</ele>
        <time>2021-05-27T11:44:37Z</time>
      </trkpt>
      <trkpt lat="47.69865" lon="-2.34111">
        <ele>59.6</ele>
        <time>2021-05-27T11:44:38Z</time>
      </trkpt>
      <trkpt lat="47.69866" lon="-2.34116">
        <ele>59.9</ele>
        <time>2021-05-27T11:44:39Z</time>
      </trkpt>
      <trkpt lat="47.69867" lon="-2.34122">
        <ele>60.5</ele>
        <time>2021-05-27T11:44:40Z</time>
      </trkpt>
      <trkpt lat="47.69868" lon="-2.34128">
        <ele>61</ele>
        <time>2021-05-27T11:44:41Z</time>
      </trkpt>
      <trkpt lat="47.6987" lon="-2.34134">
        <ele>61.6</ele>
        <time>2021-05-27T11:44:42Z</time>
      </trkpt>
      <trkpt lat="47.69871" lon="-2.34139">
        <ele>62.1</ele>
        <time>2021-05-27T11:44:43Z</time>
      </trkpt>
      <trkpt lat="47.69872" lon="-2.34144">
        <ele>62.5</ele>
        <time>2021-05-27T11:44:44Z</time>
      </trkpt>
      <trkpt lat="47.69872" lon="-2.34149">
        <ele>62.7</ele>
        <time>2021-05-27T11:44:45Z</time>
      </trkpt>
      <trkpt lat="47.69873" lon="-2.34154">
        <ele>63</ele>
        <time>2021-05-27T11:44:46Z</time>
      </trkpt>
      <trkpt lat="47.69874" lon="-2.34157">
        <ele>63.4</ele>
        <time>2021-05-27T11:44:47Z</time>
      </trkpt>
      <trkpt lat="47.69875" lon="-2.34162">
        <ele>63.8</ele>
        <time>2021-05-27T11:44:48Z</time>
      </trkpt>
      <trkpt lat="47.69875" lon="-2.34167">
        <ele>64</ele>
        <time>2021-05-27T11:44:49Z</time>
      </trkpt>
      <trkpt lat="47.69875" lon="-2.34171">
        <ele>64</ele>
        <time>2021-05-27T11:44:50Z</time>
      </trkpt>
      <trkpt lat="47.69876" lon="-2.34176">
        <ele>64.1</ele>
        <time>2021-05-27T11:44:51Z</time>
      </trkpt>
      <trkpt lat="47.69877" lon="-2.34181">
        <ele>64.4</ele>
        <time>2021-05-27T11:44:52Z</time>
      </trkpt>
      <trkpt lat="47.69878" lon="-2.34185">
        <ele>64.6</ele>
        <time>2021-05-27T11:44:53Z</time>
      </trkpt>
      <trkpt lat="47.69879" lon="-2.3419">
        <ele>64.9</ele>
        <time>2021-05-27T11:44:54Z</time>
      </trkpt>
      <trkpt lat="47.69881" lon="-2.34195">
        <ele>65.2</ele>
        <time>2021-05-27T11:44:55Z</time>
      </trkpt>
      <trkpt lat="47.69881" lon="-2.342">
        <ele>65.4</ele>
        <time>2021-05-27T11:44:56Z</time>
      </trkpt>
      <trkpt lat="47.69881" lon="-2.34206">
        <ele>65.4</ele>
        <time>2021-05-27T11:44:57Z</time>
      </trkpt>
      <trkpt lat="47.69882" lon="-2.3421">
        <ele>65.6</ele>
        <time>2021-05-27T11:44:58Z</time>
      </trkpt>
      <trkpt lat="47.69883" lon="-2.34215">
        <ele>65.8</ele>
        <time>2021-05-27T11:44:59Z</time>
      </trkpt>
      <trkpt lat="47.69887" lon="-2.3422">
        <ele>66.6</ele>
        <time>2021-05-27T11:45:00Z</time>
      </trkpt>
      <trkpt lat="47.69889" lon="-2.34223">
        <ele>67.1</ele>
        <time>2021-05-27T11:45:01Z</time>
      </trkpt>
      <trkpt lat="47.69892" lon="-2.34227">
        <ele>67.6</ele>
        <time>2021-05-27T11:45:02Z</time>
      </trkpt>
      <trkpt lat="47.69894" lon="-2.34231">
        <ele>68.1</ele>
        <time>2021-05-27T11:45:03Z</time>
      </trkpt>
      <trkpt lat="47.69896" lon="-2.34235">
        <ele>68.5</ele>
        <time>2021-05-27T11:45:04Z</time>
      </trkpt>
      <trkpt lat="47.69899" lon="-2.34239">
        <ele>69.1</ele>
        <time>2021-05-27T11:45:05Z</time>
      </trkpt>
      <trkpt lat="47.69901" lon="-2.34244">
        <ele>69.7</ele>
        <time>2021-05-27T11:45:06Z</time>
      </trkpt>
      <trkpt lat="47.69903" lon="-2.34249">
        <ele>70</ele>
        <time>2021-05-27T11:45:07Z</time>
      </trkpt>
      <trkpt lat="47.69905" lon="-2.34254">
        <ele>70.4</ele>
        <time>2021-05-27T11:45:08Z</time>
      </trkpt>
      <trkpt lat="47.69907" lon="-2.34259">
        <ele>70.7</ele>
        <time>2021-05-27T11:45:09Z</time>
      </trkpt>
      <trkpt lat="47.69909" lon="-2.34263">
        <ele>70.9</ele>
        <time>2021-05-27T11:45:10Z</time>
      </trkpt>
      <trkpt lat="47.69911" lon="-2.34268">
        <ele>71.1</ele>
        <time>2021-05-27T11:45:11Z</time>
      </trkpt>
      <trkpt lat="47.69913" lon="-2.34273">
        <ele>71.4</ele>
        <time>2021-05-27T11:45:12Z</time>
      </trkpt>
      <trkpt lat="47.69915" lon="-2.34277">
        <ele>71.7</ele>
        <time>2021-05-27T11:45:13Z</time>
      </trkpt>
      <trkpt lat="47.69917" lon="-2.34282">
        <ele>71.9</ele>
        <time>2021-05-27T11:45:14Z</time>
      </trkpt>
      <trkpt lat="47.69919" lon="-2.34287">
        <ele>71.9</ele>
        <time>2021-05-27T11:45:15Z</time>
      </trkpt>
      <trkpt lat="47.69921" lon="-2.34291">
        <ele>72</ele>
        <time>2021-05-27T11:45:16Z</time>
      </trkpt>
      <trkpt lat="47.69923" lon="-2.34296">
        <ele>72</ele>
        <time>2021-05-27T11:45:17Z</time>
      </trkpt>
      <trkpt lat="47.69925" lon="-2.343">
        <ele>72.1</ele>
        <time>2021-05-27T11:45:18Z</time>
      </trkpt>
      <trkpt lat="47.69926" lon="-2.34305">
        <ele>72.1</ele>
        <time>2021-05-27T11:45:19Z</time>
      </trkpt>
      <trkpt lat="47.69928" lon="-2.3431">
        <ele>72.1</ele>
        <time>2021-05-27T11:45:20Z</time>
      </trkpt>
      <trkpt lat="47.6993" lon="-2.34314">
        <ele>72.1</ele>
        <time>2021-05-27T11:45:21Z</time>
      </trkpt>
      <trkpt lat="47.6993" lon="-2.34319">
        <ele>72</ele>
        <time>2021-05-27T11:45:22Z</time>
      </trkpt>
      <trkpt lat="47.69932" lon="-2.34324">
        <ele>72.1</ele>
        <time>2021-05-27T11:45:23Z</time>
      </trkpt>
      <trkpt lat="47.69933" lon="-2.34329">
        <ele>72.1</ele>
        <time>2021-05-27T11:45:24Z</time>
      </trkpt>
      <trkpt lat="47.69935" lon="-2.34333">
        <ele>72.2</ele>
        <time>2021-05-27T11:45:25Z</time>
      </trkpt>
      <trkpt lat="47.69936" lon="-2.34338">
        <ele>72.1</ele>
        <time>2021-05-27T11:45:26Z</time>
      </trkpt>
      <trkpt lat="47.69937" lon="-2.34342">
        <ele>72</ele>
        <time>2021-05-27T11:45:27Z</time>
      </trkpt>
      <trkpt lat="47.69938" lon="-2.34345">
        <ele>71.8</ele>
        <time>2021-05-27T11:45:28Z</time>
      </trkpt>
      <trkpt lat="47.69939" lon="-2.34349">
        <ele>71.7</ele>
        <time>2021-05-27T11:45:29Z</time>
      </trkpt>
      <trkpt lat="47.69939" lon="-2.34352">
        <ele>71.6</ele>
        <time>2021-05-27T11:45:30Z</time>
      </trkpt>
      <trkpt lat="47.6994" lon="-2.34355">
        <ele>71.6</ele>
        <time>2021-05-27T11:45:31Z</time>
      </trkpt>
      <trkpt lat="47.69941" lon="-2.34357">
        <ele>71.6</ele>
        <time>2021-05-27T11:45:32Z</time>
      </trkpt>
      <trkpt lat="47.69942" lon="-2.34359">
        <ele>71.5</ele>
        <time>2021-05-27T11:45:33Z</time>
      </trkpt>
      <trkpt lat="47.69943" lon="-2.34363">
        <ele>71.5</ele>
        <time>2021-05-27T11:45:34Z</time>
      </trkpt>
      <trkpt lat="47.69944" lon="-2.34366">
        <ele>71.4</ele>
        <time>2021-05-27T11:45:35Z</time>
      </trkpt>
      <trkpt lat="47.69945" lon="-2.3437">
        <ele>71.4</ele>
        <time>2021-05-27T11:45:36Z</time>
      </trkpt>
      <trkpt lat="47.69947" lon="-2.34374">
        <ele>71.3</ele>
        <time>2021-05-27T11:45:37Z</time>
      </trkpt>
      <trkpt lat="47.69947" lon="-2.34378">
        <ele>71.2</ele>
        <time>2021-05-27T11:45:38Z</time>
      </trkpt>
      <trkpt lat="47.69949" lon="-2.34382">
        <ele>71.2</ele>
        <time>2021-05-27T11:45:39Z</time>
      </trkpt>
      <trkpt lat="47.6995" lon="-2.34386">
        <ele>71.2</ele>
        <time>2021-05-27T11:45:40Z</time>
      </trkpt>
      <trkpt lat="47.69951" lon="-2.34389">
        <ele>71.2</ele>
        <time>2021-05-27T11:45:41Z</time>
      </trkpt>
      <trkpt lat="47.69952" lon="-2.34393">
        <ele>71.2</ele>
        <time>2021-05-27T11:45:42Z</time>
      </trkpt>
      <trkpt lat="47.69954" lon="-2.34397">
        <ele>71.3</ele>
        <time>2021-05-27T11:45:43Z</time>
      </trkpt>
      <trkpt lat="47.69955" lon="-2.34401">
        <ele>71.3</ele>
        <time>2021-05-27T11:45:44Z</time>
      </trkpt>
      <trkpt lat="47.69957" lon="-2.34406">
        <ele>71.3</ele>
        <time>2021-05-27T11:45:45Z</time>
      </trkpt>
      <trkpt lat="47.69958" lon="-2.3441">
        <ele>71.2</ele>
        <time>2021-05-27T11:45:46Z</time>
      </trkpt>
      <trkpt lat="47.69959" lon="-2.34415">
        <ele>71.1</ele>
        <time>2021-05-27T11:45:47Z</time>
      </trkpt>
      <trkpt lat="47.69959" lon="-2.34419">
        <ele>71.1</ele>
        <time>2021-05-27T11:45:48Z</time>
      </trkpt>
      <trkpt lat="47.6996" lon="-2.34423">
        <ele>71</ele>
        <time>2021-05-27T11:45:49Z</time>
      </trkpt>
      <trkpt lat="47.6996" lon="-2.34428">
        <ele>70.9</ele>
        <time>2021-05-27T11:45:50Z</time>
      </trkpt>
      <trkpt lat="47.69961" lon="-2.34433">
        <ele>70.9</ele>
        <time>2021-05-27T11:45:51Z</time>
      </trkpt>
      <trkpt lat="47.69963" lon="-2.34438">
        <ele>70.9</ele>
        <time>2021-05-27T11:45:52Z</time>
      </trkpt>
      <trkpt lat="47.69964" lon="-2.34443">
        <ele>70.9</ele>
        <time>2021-05-27T11:45:53Z</time>
      </trkpt>
      <trkpt lat="47.69964" lon="-2.34448">
        <ele>70.8</ele>
        <time>2021-05-27T11:45:54Z</time>
      </trkpt>
      <trkpt lat="47.69965" lon="-2.34453">
        <ele>70.8</ele>
        <time>2021-05-27T11:45:55Z</time>
      </trkpt>
      <trkpt lat="47.69966" lon="-2.34458">
        <ele>70.8</ele>
        <time>2021-05-27T11:45:56Z</time>
      </trkpt>
      <trkpt lat="47.69967" lon="-2.34463">
        <ele>70.8</ele>
        <time>2021-05-27T11:45:57Z</time>
      </trkpt>
      <trkpt lat="47.69968" lon="-2.34468">
        <ele>70.6</ele>
        <time>2021-05-27T11:45:58Z</time>
      </trkpt>
      <trkpt lat="47.69968" lon="-2.34472">
        <ele>70.5</ele>
        <time>2021-05-27T11:45:59Z</time>
      </trkpt>
      <trkpt lat="47.69969" lon="-2.34474">
        <ele>70.6</ele>
        <time>2021-05-27T11:46:00Z</time>
      </trkpt>
      <trkpt lat="47.69971" lon="-2.34476">
        <ele>70.7</ele>
        <time>2021-05-27T11:46:01Z</time>
      </trkpt>
      <trkpt lat="47.69972" lon="-2.34476">
        <ele>70.9</ele>
        <time>2021-05-27T11:46:02Z</time>
      </trkpt>
      <trkpt lat="47.69973" lon="-2.34474">
        <ele>71.2</ele>
        <time>2021-05-27T11:46:03Z</time>
      </trkpt>
      <trkpt lat="47.69975" lon="-2.34473">
        <ele>71.5</ele>
        <time>2021-05-27T11:46:04Z</time>
      </trkpt>
      <trkpt lat="47.69976" lon="-2.3447">
        <ele>71.7</ele>
        <time>2021-05-27T11:46:05Z</time>
      </trkpt>
      <trkpt lat="47.69976" lon="-2.34468">
        <ele>71.9</ele>
        <time>2021-05-27T11:46:06Z</time>
      </trkpt>
      <trkpt lat="47.69976" lon="-2.34466">
        <ele>72</ele>
        <time>2021-05-27T11:46:07Z</time>
      </trkpt>
      <trkpt lat="47.69976" lon="-2.34464">
        <ele>72.1</ele>
        <time>2021-05-27T11:46:08Z</time>
      </trkpt>
      <trkpt lat="47.69976" lon="-2.34462">
        <ele>72.2</ele>
        <time>2021-05-27T11:46:09Z</time>
      </trkpt>
      <trkpt lat="47.69977" lon="-2.34459">
        <ele>72.4</ele>
        <time>2021-05-27T11:46:10Z</time>
      </trkpt>
      <trkpt lat="47.69978" lon="-2.34457">
        <ele>72.7</ele>
        <time>2021-05-27T11:46:11Z</time>
      </trkpt>
      <trkpt lat="47.69979" lon="-2.34456">
        <ele>72.8</ele>
        <time>2021-05-27T11:46:12Z</time>
      </trkpt>
      <trkpt lat="47.6998" lon="-2.34455">
        <ele>73</ele>
        <time>2021-05-27T11:46:13Z</time>
      </trkpt>
      <trkpt lat="47.6998" lon="-2.34456">
        <ele>73</ele>
        <time>2021-05-27T11:46:14Z</time>
      </trkpt>
      <trkpt lat="47.6998" lon="-2.34455">
        <ele>73</ele>
        <time>2021-05-27T11:46:15Z</time>
      </trkpt>
      <trkpt lat="47.6998" lon="-2.34454">
        <ele>73.1</ele>
        <time>2021-05-27T11:46:16Z</time>
      </trkpt>
      <trkpt lat="47.6998" lon="-2.34454">
        <ele>73.1</ele>
        <time>2021-05-27T11:46:17Z</time>
      </trkpt>
      <trkpt lat="47.6998" lon="-2.34454">
        <ele>73.1</ele>
        <time>2021-05-27T11:46:18Z</time>
      </trkpt>
      <trkpt lat="47.6998" lon="-2.34454">
        <ele>73.1</ele>
        <time>2021-05-27T11:46:19Z</time>
      </trkpt>
      <trkpt lat="47.6998" lon="-2.34454">
        <ele>73.1</ele>
        <time>2021-05-27T11:46:20Z</time>
      </trkpt>
      <trkpt lat="47.6998" lon="-2.34454">
        <ele>73.1</ele>
        <time>2021-05-27T11:46:21Z</time>
      </trkpt>
      <trkpt lat="47.6998" lon="-2.34454">
        <ele>73.1</ele>
        <time>2021-05-27T11:46:22Z</time>
      </trkpt>
      <trkpt lat="47.6998" lon="-2.34454">
        <ele>73.1</ele>
        <time>2021-05-27T11:46:23Z</time>
      </trkpt>
      <trkpt lat="47.6998" lon="-2.34454">
        <ele>73.1</ele>
        <time>2021-05-27T11:46:24Z</time>
      </trkpt>
      <trkpt lat="47.6998" lon="-2.34454">
        <ele>73.1</ele>
        <time>2021-05-27T11:46:25Z</time>
      </trkpt>
      <trkpt lat="47.6998" lon="-2.34454">
        <ele>73.1</ele>
        <time>2021-05-27T11:46:26Z</time>
      </trkpt>
      <trkpt lat="47.6998" lon="-2.34454">
        <ele>73.1</ele>
        <time>2021-05-27T11:46:27Z</time>
      </trkpt>
      <trkpt lat="47.6998" lon="-2.34454">
        <ele>73.1</ele>
        <time>2021-05-27T11:46:28Z</time>
      </trkpt>
      <trkpt lat="47.6998" lon="-2.34454">
        <ele>73.1</ele>
        <time>2021-05-27T11:46:29Z</time>
      </trkpt>
      <trkpt lat="47.6998" lon="-2.34454">
        <ele>73.1</ele>
        <time>2021-05-27T11:46:30Z</time>
      </trkpt>
      <trkpt lat="47.6998" lon="-2.34454">
        <ele>73.1</ele>
        <time>2021-05-27T11:46:31Z</time>
      </trkpt>
      <trkpt lat="47.6998" lon="-2.34454">
        <ele>73.1</ele>
        <time>2021-05-27T11:46:32Z</time>
      </trkpt>
      <trkpt lat="47.6998" lon="-2.34454">
        <ele>73.1</ele>
        <time>2021-05-27T11:46:33Z</time>
      </trkpt>
      <trkpt lat="47.6998" lon="-2.34454">
        <ele>73.1</ele>
        <time>2021-05-27T11:46:34Z</time>
      </trkpt>
      <trkpt lat="47.6998" lon="-2.34454">
        <ele>73.1</ele>
        <time>2021-05-27T11:46:35Z</time>
      </trkpt>
      <trkpt lat="47.6998" lon="-2.34454">
        <ele>73.1</ele>
        <time>2021-05-27T11:46:36Z</time>
      </trkpt>
      <trkpt lat="47.6998" lon="-2.34454">
        <ele>73.1</ele>
        <time>2021-05-27T11:46:37Z</time>
      </trkpt>
      <trkpt lat="47.69986" lon="-2.34444">
        <ele>74.4</ele>
        <time>2021-05-27T11:46:38Z</time>
      </trkpt>
      <trkpt lat="47.69987" lon="-2.34443">
        <ele>74.6</ele>
        <time>2021-05-27T11:46:39Z</time>
      </trkpt>
      <trkpt lat="47.69988" lon="-2.34442">
        <ele>74.8</ele>
        <time>2021-05-27T11:46:40Z</time>
      </trkpt>
      <trkpt lat="47.69989" lon="-2.3444">
        <ele>75.2</ele>
        <time>2021-05-27T11:46:41Z</time>
      </trkpt>
      <trkpt lat="47.6999" lon="-2.3444">
        <ele>75.4</ele>
        <time>2021-05-27T11:46:42Z</time>
      </trkpt>
      <trkpt lat="47.69992" lon="-2.34439">
        <ele>75.6</ele>
        <time>2021-05-27T11:46:43Z</time>
      </trkpt>
      <trkpt lat="47.69992" lon="-2.34437">
        <ele>75.8</ele>
        <time>2021-05-27T11:46:44Z</time>
      </trkpt>
      <trkpt lat="47.69994" lon="-2.34435">
        <ele>76.1</ele>
        <time>2021-05-27T11:46:45Z</time>
      </trkpt>
      <trkpt lat="47.69995" lon="-2.34434">
        <ele>76.3</ele>
        <time>2021-05-27T11:46:46Z</time>
      </trkpt>
      <trkpt lat="47.69997" lon="-2.3443">
        <ele>76.8</ele>
        <time>2021-05-27T11:46:47Z</time>
      </trkpt>
      <trkpt lat="47.69998" lon="-2.34427">
        <ele>77.1</ele>
        <time>2021-05-27T11:46:48Z</time>
      </trkpt>
      <trkpt lat="47.69999" lon="-2.34425">
        <ele>77.3</ele>
        <time>2021-05-27T11:46:49Z</time>
      </trkpt>
      <trkpt lat="47.69999" lon="-2.34422">
        <ele>77.6</ele>
        <time>2021-05-27T11:46:50Z</time>
      </trkpt>
      <trkpt lat="47.69999" lon="-2.3442">
        <ele>77.6</ele>
        <time>2021-05-27T11:46:51Z</time>
      </trkpt>
      <trkpt lat="47.69998" lon="-2.34416">
        <ele>77.7</ele>
        <time>2021-05-27T11:46:52Z</time>
      </trkpt>
      <trkpt lat="47.69998" lon="-2.34413">
        <ele>77.7</ele>
        <time>2021-05-27T11:46:53Z</time>
      </trkpt>
      <trkpt lat="47.69997" lon="-2.3441">
        <ele>77.7</ele>
        <time>2021-05-27T11:46:54Z</time>
      </trkpt>
      <trkpt lat="47.69996" lon="-2.34407">
        <ele>77.6</ele>
        <time>2021-05-27T11:46:55Z</time>
      </trkpt>
      <trkpt lat="47.69995" lon="-2.34403">
        <ele>77.4</ele>
        <time>2021-05-27T11:46:56Z</time>
      </trkpt>
      <trkpt lat="47.69994" lon="-2.344">
        <ele>77.4</ele>
        <time>2021-05-27T11:46:57Z</time>
      </trkpt>
      <trkpt lat="47.69992" lon="-2.34398">
        <ele>77.2</ele>
        <time>2021-05-27T11:46:58Z</time>
      </trkpt>
      <trkpt lat="47.6999" lon="-2.34395">
        <ele>77</ele>
        <time>2021-05-27T11:46:59Z</time>
      </trkpt>
      <trkpt lat="47.69989" lon="-2.34393">
        <ele>76.8</ele>
        <time>2021-05-27T11:47:00Z</time>
      </trkpt>
      <trkpt lat="47.69987" lon="-2.3439">
        <ele>76.7</ele>
        <time>2021-05-27T11:47:01Z</time>
      </trkpt>
      <trkpt lat="47.69986" lon="-2.34386">
        <ele>76.7</ele>
        <time>2021-05-27T11:47:02Z</time>
      </trkpt>
      <trkpt lat="47.69985" lon="-2.34382">
        <ele>76.6</ele>
        <time>2021-05-27T11:47:03Z</time>
      </trkpt>
      <trkpt lat="47.69985" lon="-2.34379">
        <ele>76.7</ele>
        <time>2021-05-27T11:47:04Z</time>
      </trkpt>
      <trkpt lat="47.69984" lon="-2.34376">
        <ele>76.7</ele>
        <time>2021-05-27T11:47:05Z</time>
      </trkpt>
      <trkpt lat="47.69984" lon="-2.34373">
        <ele>76.8</ele>
        <time>2021-05-27T11:47:06Z</time>
      </trkpt>
      <trkpt lat="47.69983" lon="-2.34371">
        <ele>76.7</ele>
        <time>2021-05-27T11:47:07Z</time>
      </trkpt>
      <trkpt lat="47.69982" lon="-2.34368">
        <ele>76.7</ele>
        <time>2021-05-27T11:47:08Z</time>
      </trkpt>
      <trkpt lat="47.69982" lon="-2.34364">
        <ele>76.8</ele>
        <time>2021-05-27T11:47:09Z</time>
      </trkpt>
      <trkpt lat="47.69982" lon="-2.34361">
        <ele>76.9</ele>
        <time>2021-05-27T11:47:10Z</time>
      </trkpt>
      <trkpt lat="47.69981" lon="-2.34357">
        <ele>76.9</ele>
        <time>2021-05-27T11:47:11Z</time>
      </trkpt>
      <trkpt lat="47.6998" lon="-2.34355">
        <ele>76.8</ele>
        <time>2021-05-27T11:47:12Z</time>
      </trkpt>
      <trkpt lat="47.69979" lon="-2.34353">
        <ele>76.7</ele>
        <time>2021-05-27T11:47:13Z</time>
      </trkpt>
      <trkpt lat="47.69977" lon="-2.34352">
        <ele>76.5</ele>
        <time>2021-05-27T11:47:14Z</time>
      </trkpt>
      <trkpt lat="47.69975" lon="-2.3435">
        <ele>76.4</ele>
        <time>2021-05-27T11:47:15Z</time>
      </trkpt>
      <trkpt lat="47.69973" lon="-2.34349">
        <ele>76.1</ele>
        <time>2021-05-27T11:47:16Z</time>
      </trkpt>
      <trkpt lat="47.69971" lon="-2.34347">
        <ele>76</ele>
        <time>2021-05-27T11:47:17Z</time>
      </trkpt>
      <trkpt lat="47.69969" lon="-2.34345">
        <ele>75.8</ele>
        <time>2021-05-27T11:47:18Z</time>
      </trkpt>
      <trkpt lat="47.69967" lon="-2.34344">
        <ele>75.6</ele>
        <time>2021-05-27T11:47:19Z</time>
      </trkpt>
      <trkpt lat="47.69965" lon="-2.34343">
        <ele>75.4</ele>
        <time>2021-05-27T11:47:20Z</time>
      </trkpt>
      <trkpt lat="47.69963" lon="-2.34341">
        <ele>75.2</ele>
        <time>2021-05-27T11:47:21Z</time>
      </trkpt>
      <trkpt lat="47.69961" lon="-2.34338">
        <ele>75.1</ele>
        <time>2021-05-27T11:47:22Z</time>
      </trkpt>
      <trkpt lat="47.69958" lon="-2.34333">
        <ele>75</ele>
        <time>2021-05-27T11:47:23Z</time>
      </trkpt>
      <trkpt lat="47.69956" lon="-2.34329">
        <ele>74.7</ele>
        <time>2021-05-27T11:47:24Z</time>
      </trkpt>
      <trkpt lat="47.69953" lon="-2.34324">
        <ele>74.6</ele>
        <time>2021-05-27T11:47:25Z</time>
      </trkpt>
      <trkpt lat="47.69952" lon="-2.3432">
        <ele>74.5</ele>
        <time>2021-05-27T11:47:26Z</time>
      </trkpt>
      <trkpt lat="47.6995" lon="-2.34317">
        <ele>74.4</ele>
        <time>2021-05-27T11:47:27Z</time>
      </trkpt>
      <trkpt lat="47.69949" lon="-2.34315">
        <ele>74.3</ele>
        <time>2021-05-27T11:47:28Z</time>
      </trkpt>
      <trkpt lat="47.69949" lon="-2.34315">
        <ele>74.2</ele>
        <time>2021-05-27T11:47:29Z</time>
      </trkpt>
      <trkpt lat="47.69948" lon="-2.34314">
        <ele>74.2</ele>
        <time>2021-05-27T11:47:30Z</time>
      </trkpt>
      <trkpt lat="47.69948" lon="-2.34312">
        <ele>74.3</ele>
        <time>2021-05-27T11:47:31Z</time>
      </trkpt>
      <trkpt lat="47.69947" lon="-2.3431">
        <ele>74.2</ele>
        <time>2021-05-27T11:47:32Z</time>
      </trkpt>
      <trkpt lat="47.69949" lon="-2.34309">
        <ele>74.4</ele>
        <time>2021-05-27T11:47:33Z</time>
      </trkpt>
      <trkpt lat="47.6995" lon="-2.3431">
        <ele>74.5</ele>
        <time>2021-05-27T11:47:34Z</time>
      </trkpt>
      <trkpt lat="47.69951" lon="-2.3431">
        <ele>74.6</ele>
        <time>2021-05-27T11:47:35Z</time>
      </trkpt>
      <trkpt lat="47.69952" lon="-2.34309">
        <ele>74.7</ele>
        <time>2021-05-27T11:47:36Z</time>
      </trkpt>
      <trkpt lat="47.69953" lon="-2.34308">
        <ele>74.8</ele>
        <time>2021-05-27T11:47:37Z</time>
      </trkpt>
      <trkpt lat="47.69954" lon="-2.34306">
        <ele>75.1</ele>
        <time>2021-05-27T11:47:38Z</time>
      </trkpt>
      <trkpt lat="47.69957" lon="-2.34305">
        <ele>75.3</ele>
        <time>2021-05-27T11:47:39Z</time>
      </trkpt>
      <trkpt lat="47.69959" lon="-2.34303">
        <ele>75.6</ele>
        <time>2021-05-27T11:47:40Z</time>
      </trkpt>
      <trkpt lat="47.6996" lon="-2.34302">
        <ele>75.8</ele>
        <time>2021-05-27T11:47:41Z</time>
      </trkpt>
      <trkpt lat="47.69962" lon="-2.343">
        <ele>76</ele>
        <time>2021-05-27T11:47:42Z</time>
      </trkpt>
      <trkpt lat="47.69965" lon="-2.34299">
        <ele>76.3</ele>
        <time>2021-05-27T11:47:43Z</time>
      </trkpt>
      <trkpt lat="47.69967" lon="-2.34298">
        <ele>76.6</ele>
        <time>2021-05-27T11:47:44Z</time>
      </trkpt>
      <trkpt lat="47.6997" lon="-2.34297">
        <ele>76.8</ele>
        <time>2021-05-27T11:47:45Z</time>
      </trkpt>
      <trkpt lat="47.69972" lon="-2.34296">
        <ele>77.1</ele>
        <time>2021-05-27T11:47:46Z</time>
      </trkpt>
      <trkpt lat="47.69974" lon="-2.34296">
        <ele>77.3</ele>
        <time>2021-05-27T11:47:47Z</time>
      </trkpt>
      <trkpt lat="47.69976" lon="-2.34295">
        <ele>77.6</ele>
        <time>2021-05-27T11:47:48Z</time>
      </trkpt>
      <trkpt lat="47.69979" lon="-2.34296">
        <ele>77.8</ele>
        <time>2021-05-27T11:47:49Z</time>
      </trkpt>
      <trkpt lat="47.6998" lon="-2.34297">
        <ele>77.9</ele>
        <time>2021-05-27T11:47:50Z</time>
      </trkpt>
      <trkpt lat="47.69982" lon="-2.34297">
        <ele>78.1</ele>
        <time>2021-05-27T11:47:51Z</time>
      </trkpt>
      <trkpt lat="47.69985" lon="-2.34298">
        <ele>78.4</ele>
        <time>2021-05-27T11:47:52Z</time>
      </trkpt>
      <trkpt lat="47.69988" lon="-2.34297">
        <ele>78.7</ele>
        <time>2021-05-27T11:47:53Z</time>
      </trkpt>
      <trkpt lat="47.69992" lon="-2.34296">
        <ele>79.1</ele>
        <time>2021-05-27T11:47:54Z</time>
      </trkpt>
      <trkpt lat="47.69995" lon="-2.34295">
        <ele>79.5</ele>
        <time>2021-05-27T11:47:55Z</time>
      </trkpt>
      <trkpt lat="47.69999" lon="-2.34295">
        <ele>79.9</ele>
        <time>2021-05-27T11:47:56Z</time>
      </trkpt>
      <trkpt lat="47.70003" lon="-2.34294">
        <ele>79.5</ele>
        <time>2021-05-27T11:47:57Z</time>
      </trkpt>
      <trkpt lat="47.70007" lon="-2.34293">
        <ele>78.8</ele>
        <time>2021-05-27T11:47:58Z</time>
      </trkpt>
      <trkpt lat="47.70011" lon="-2.34293">
        <ele>78</ele>
        <time>2021-05-27T11:47:59Z</time>
      </trkpt>
      <trkpt lat="47.70016" lon="-2.34292">
        <ele>77.2</ele>
        <time>2021-05-27T11:48:00Z</time>
      </trkpt>
      <trkpt lat="47.70023" lon="-2.34291">
        <ele>76</ele>
        <time>2021-05-27T11:48:01Z</time>
      </trkpt>
      <trkpt lat="47.70031" lon="-2.3429">
        <ele>74.6</ele>
        <time>2021-05-27T11:48:02Z</time>
      </trkpt>
      <trkpt lat="47.7004" lon="-2.3429">
        <ele>73</ele>
        <time>2021-05-27T11:48:03Z</time>
      </trkpt>
      <trkpt lat="47.7005" lon="-2.34287">
        <ele>71.2</ele>
        <time>2021-05-27T11:48:04Z</time>
      </trkpt>
      <trkpt lat="47.70059" lon="-2.34285">
        <ele>69.4</ele>
        <time>2021-05-27T11:48:05Z</time>
      </trkpt>
      <trkpt lat="47.70067" lon="-2.34283">
        <ele>67.9</ele>
        <time>2021-05-27T11:48:06Z</time>
      </trkpt>
      <trkpt lat="47.70076" lon="-2.34281">
        <ele>66.2</ele>
        <time>2021-05-27T11:48:07Z</time>
      </trkpt>
      <trkpt lat="47.70085" lon="-2.34278">
        <ele>64.4</ele>
        <time>2021-05-27T11:48:08Z</time>
      </trkpt>
      <trkpt lat="47.70094" lon="-2.34277">
        <ele>63.1</ele>
        <time>2021-05-27T11:48:09Z</time>
      </trkpt>
      <trkpt lat="47.70103" lon="-2.34276">
        <ele>61.8</ele>
        <time>2021-05-27T11:48:10Z</time>
      </trkpt>
      <trkpt lat="47.70111" lon="-2.34276">
        <ele>60.5</ele>
        <time>2021-05-27T11:48:11Z</time>
      </trkpt>
      <trkpt lat="47.7012" lon="-2.34274">
        <ele>59.3</ele>
        <time>2021-05-27T11:48:12Z</time>
      </trkpt>
      <trkpt lat="47.70128" lon="-2.34273">
        <ele>58</ele>
        <time>2021-05-27T11:48:13Z</time>
      </trkpt>
      <trkpt lat="47.70132" lon="-2.34271">
        <ele>57.4</ele>
        <time>2021-05-27T11:48:14Z</time>
      </trkpt>
      <trkpt lat="47.70136" lon="-2.3427">
        <ele>56.7</ele>
        <time>2021-05-27T11:48:15Z</time>
      </trkpt>
      <trkpt lat="47.70138" lon="-2.34269">
        <ele>56.4</ele>
        <time>2021-05-27T11:48:16Z</time>
      </trkpt>
      <trkpt lat="47.7014" lon="-2.34266">
        <ele>56.1</ele>
        <time>2021-05-27T11:48:17Z</time>
      </trkpt>
      <trkpt lat="47.70142" lon="-2.34266">
        <ele>55.8</ele>
        <time>2021-05-27T11:48:18Z</time>
      </trkpt>
      <trkpt lat="47.70143" lon="-2.34265">
        <ele>55.6</ele>
        <time>2021-05-27T11:48:19Z</time>
      </trkpt>
      <trkpt lat="47.70143" lon="-2.34264">
        <ele>55.6</ele>
        <time>2021-05-27T11:48:20Z</time>
      </trkpt>
      <trkpt lat="47.70143" lon="-2.34263">
        <ele>55.6</ele>
        <time>2021-05-27T11:48:21Z</time>
      </trkpt>
      <trkpt lat="47.70143" lon="-2.34263">
        <ele>55.6</ele>
        <time>2021-05-27T11:48:22Z</time>
      </trkpt>
      <trkpt lat="47.70143" lon="-2.34263">
        <ele>55.6</ele>
        <time>2021-05-27T11:48:23Z</time>
      </trkpt>
      <trkpt lat="47.70143" lon="-2.34263">
        <ele>55.6</ele>
        <time>2021-05-27T11:48:24Z</time>
      </trkpt>
      <trkpt lat="47.70143" lon="-2.34263">
        <ele>55.6</ele>
        <time>2021-05-27T11:48:25Z</time>
      </trkpt>
      <trkpt lat="47.70143" lon="-2.34263">
        <ele>55.6</ele>
        <time>2021-05-27T11:48:26Z</time>
      </trkpt>
      <trkpt lat="47.70143" lon="-2.34263">
        <ele>55.6</ele>
        <time>2021-05-27T11:48:27Z</time>
      </trkpt>
      <trkpt lat="47.70143" lon="-2.34263">
        <ele>55.6</ele>
        <time>2021-05-27T11:48:28Z</time>
      </trkpt>
      <trkpt lat="47.70143" lon="-2.34263">
        <ele>55.6</ele>
        <time>2021-05-27T11:48:29Z</time>
      </trkpt>
      <trkpt lat="47.70143" lon="-2.34263">
        <ele>55.6</ele>
        <time>2021-05-27T11:48:30Z</time>
      </trkpt>
      <trkpt lat="47.70143" lon="-2.34263">
        <ele>55.6</ele>
        <time>2021-05-27T11:48:31Z</time>
      </trkpt>
      <trkpt lat="47.70143" lon="-2.34263">
        <ele>55.6</ele>
        <time>2021-05-27T11:48:32Z</time>
      </trkpt>
      <trkpt lat="47.70143" lon="-2.34263">
        <ele>55.6</ele>
        <time>2021-05-27T11:48:33Z</time>
      </trkpt>
      <trkpt lat="47.70144" lon="-2.34254">
        <ele>55.2</ele>
        <time>2021-05-27T11:48:34Z</time>
      </trkpt>
      <trkpt lat="47.70143" lon="-2.34251">
        <ele>55.1</ele>
        <time>2021-05-27T11:48:35Z</time>
      </trkpt>
      <trkpt lat="47.70144" lon="-2.34248">
        <ele>54.9</ele>
        <time>2021-05-27T11:48:36Z</time>
      </trkpt>
      <trkpt lat="47.70145" lon="-2.34247">
        <ele>54.7</ele>
        <time>2021-05-27T11:48:37Z</time>
      </trkpt>
      <trkpt lat="47.70146" lon="-2.34246">
        <ele>54.5</ele>
        <time>2021-05-27T11:48:38Z</time>
      </trkpt>
      <trkpt lat="47.70147" lon="-2.34247">
        <ele>54.4</ele>
        <time>2021-05-27T11:48:39Z</time>
      </trkpt>
      <trkpt lat="47.70148" lon="-2.34247">
        <ele>54.3</ele>
        <time>2021-05-27T11:48:40Z</time>
      </trkpt>
      <trkpt lat="47.7015" lon="-2.34248">
        <ele>54.1</ele>
        <time>2021-05-27T11:48:41Z</time>
      </trkpt>
      <trkpt lat="47.70151" lon="-2.34248">
        <ele>54</ele>
        <time>2021-05-27T11:48:42Z</time>
      </trkpt>
      <trkpt lat="47.70153" lon="-2.34249">
        <ele>53.8</ele>
        <time>2021-05-27T11:48:43Z</time>
      </trkpt>
      <trkpt lat="47.70154" lon="-2.3425">
        <ele>53.7</ele>
        <time>2021-05-27T11:48:44Z</time>
      </trkpt>
      <trkpt lat="47.70154" lon="-2.34251">
        <ele>53.6</ele>
        <time>2021-05-27T11:48:45Z</time>
      </trkpt>
      <trkpt lat="47.70155" lon="-2.34252">
        <ele>53.6</ele>
        <time>2021-05-27T11:48:46Z</time>
      </trkpt>
      <trkpt lat="47.70156" lon="-2.34254">
        <ele>53.5</ele>
        <time>2021-05-27T11:48:47Z</time>
      </trkpt>
      <trkpt lat="47.70158" lon="-2.34256">
        <ele>53.3</ele>
        <time>2021-05-27T11:48:48Z</time>
      </trkpt>
      <trkpt lat="47.70159" lon="-2.34257">
        <ele>53.2</ele>
        <time>2021-05-27T11:48:49Z</time>
      </trkpt>
      <trkpt lat="47.7016" lon="-2.34257">
        <ele>53</ele>
        <time>2021-05-27T11:48:50Z</time>
      </trkpt>
      <trkpt lat="47.70162" lon="-2.34258">
        <ele>52.8</ele>
        <time>2021-05-27T11:48:51Z</time>
      </trkpt>
      <trkpt lat="47.70164" lon="-2.34261">
        <ele>52.6</ele>
        <time>2021-05-27T11:48:52Z</time>
      </trkpt>
      <trkpt lat="47.70166" lon="-2.34264">
        <ele>52.4</ele>
        <time>2021-05-27T11:48:53Z</time>
      </trkpt>
      <trkpt lat="47.70168" lon="-2.34265">
        <ele>52.3</ele>
        <time>2021-05-27T11:48:54Z</time>
      </trkpt>
      <trkpt lat="47.70169" lon="-2.34265">
        <ele>52.2</ele>
        <time>2021-05-27T11:48:55Z</time>
      </trkpt>
      <trkpt lat="47.70169" lon="-2.34265">
        <ele>52.1</ele>
        <time>2021-05-27T11:48:56Z</time>
      </trkpt>
      <trkpt lat="47.70169" lon="-2.34265">
        <ele>52.1</ele>
        <time>2021-05-27T11:48:57Z</time>
      </trkpt>
      <trkpt lat="47.70169" lon="-2.34265">
        <ele>52.1</ele>
        <time>2021-05-27T11:48:58Z</time>
      </trkpt>
      <trkpt lat="47.70169" lon="-2.34265">
        <ele>52.1</ele>
        <time>2021-05-27T11:48:59Z</time>
      </trkpt>
      <trkpt lat="47.70169" lon="-2.34265">
        <ele>52.1</ele>
        <time>2021-05-27T11:49:00Z</time>
      </trkpt>
      <trkpt lat="47.70169" lon="-2.34265">
        <ele>52.1</ele>
        <time>2021-05-27T11:49:01Z</time>
      </trkpt>
      <trkpt lat="47.70169" lon="-2.34265">
        <ele>52.1</ele>
        <time>2021-05-27T11:49:02Z</time>
      </trkpt>
      <trkpt lat="47.70169" lon="-2.34265">
        <ele>52.1</ele>
        <time>2021-05-27T11:49:03Z</time>
      </trkpt>
      <trkpt lat="47.70169" lon="-2.34265">
        <ele>52.1</ele>
        <time>2021-05-27T11:49:04Z</time>
      </trkpt>
      <trkpt lat="47.70169" lon="-2.34265">
        <ele>52.1</ele>
        <time>2021-05-27T11:49:05Z</time>
      </trkpt>
      <trkpt lat="47.70169" lon="-2.34265">
        <ele>52.1</ele>
        <time>2021-05-27T11:49:06Z</time>
      </trkpt>
      <trkpt lat="47.70169" lon="-2.34265">
        <ele>52.1</ele>
        <time>2021-05-27T11:49:07Z</time>
      </trkpt>
      <trkpt lat="47.70169" lon="-2.34265">
        <ele>52.1</ele>
        <time>2021-05-27T11:49:08Z</time>
      </trkpt>
      <trkpt lat="47.70169" lon="-2.34265">
        <ele>52.1</ele>
        <time>2021-05-27T11:49:09Z</time>
      </trkpt>
      <trkpt lat="47.70169" lon="-2.34265">
        <ele>52.1</ele>
        <time>2021-05-27T11:49:10Z</time>
      </trkpt>
      <trkpt lat="47.70169" lon="-2.34265">
        <ele>52.1</ele>
        <time>2021-05-27T11:49:11Z</time>
      </trkpt>
      <trkpt lat="47.70169" lon="-2.34265">
        <ele>52.1</ele>
        <time>2021-05-27T11:49:12Z</time>
      </trkpt>
      <trkpt lat="47.70169" lon="-2.34265">
        <ele>52.1</ele>
        <time>2021-05-27T11:49:13Z</time>
      </trkpt>
      <trkpt lat="47.70169" lon="-2.34265">
        <ele>52.1</ele>
        <time>2021-05-27T11:49:14Z</time>
      </trkpt>
      <trkpt lat="47.70169" lon="-2.34265">
        <ele>52.1</ele>
        <time>2021-05-27T11:49:15Z</time>
      </trkpt>
      <trkpt lat="47.70169" lon="-2.34265">
        <ele>52.1</ele>
        <time>2021-05-27T11:49:16Z</time>
      </trkpt>
      <trkpt lat="47.70169" lon="-2.34265">
        <ele>52.1</ele>
        <time>2021-05-27T11:49:17Z</time>
      </trkpt>
      <trkpt lat="47.70169" lon="-2.34265">
        <ele>52.1</ele>
        <time>2021-05-27T11:49:18Z</time>
      </trkpt>
      <trkpt lat="47.70169" lon="-2.34265">
        <ele>52.1</ele>
        <time>2021-05-27T11:49:19Z</time>
      </trkpt>
      <trkpt lat="47.70169" lon="-2.34265">
        <ele>52.1</ele>
        <time>2021-05-27T11:49:20Z</time>
      </trkpt>
      <trkpt lat="47.70169" lon="-2.34265">
        <ele>52.1</ele>
        <time>2021-05-27T11:49:21Z</time>
      </trkpt>
      <trkpt lat="47.70169" lon="-2.34265">
        <ele>52.1</ele>
        <time>2021-05-27T11:49:22Z</time>
      </trkpt>
      <trkpt lat="47.70169" lon="-2.34265">
        <ele>52.1</ele>
        <time>2021-05-27T11:49:23Z</time>
      </trkpt>
      <trkpt lat="47.70169" lon="-2.34265">
        <ele>52.1</ele>
        <time>2021-05-27T11:49:24Z</time>
      </trkpt>
      <trkpt lat="47.70169" lon="-2.34265">
        <ele>52.1</ele>
        <time>2021-05-27T11:49:25Z</time>
      </trkpt>
      <trkpt lat="47.70171" lon="-2.34251">
        <ele>51.6</ele>
        <time>2021-05-27T11:49:26Z</time>
      </trkpt>
      <trkpt lat="47.70171" lon="-2.34251">
        <ele>51.6</ele>
        <time>2021-05-27T11:49:27Z</time>
      </trkpt>
      <trkpt lat="47.70171" lon="-2.3425">
        <ele>51.6</ele>
        <time>2021-05-27T11:49:28Z</time>
      </trkpt>
      <trkpt lat="47.7017" lon="-2.3425">
        <ele>51.6</ele>
        <time>2021-05-27T11:49:29Z</time>
      </trkpt>
      <trkpt lat="47.7017" lon="-2.3425">
        <ele>51.6</ele>
        <time>2021-05-27T11:49:30Z</time>
      </trkpt>
      <trkpt lat="47.7017" lon="-2.3425">
        <ele>51.6</ele>
        <time>2021-05-27T11:49:31Z</time>
      </trkpt>
      <trkpt lat="47.7017" lon="-2.3425">
        <ele>51.6</ele>
        <time>2021-05-27T11:49:32Z</time>
      </trkpt>
      <trkpt lat="47.7017" lon="-2.3425">
        <ele>51.6</ele>
        <time>2021-05-27T11:49:33Z</time>
      </trkpt>
      <trkpt lat="47.7017" lon="-2.34246">
        <ele>51.4</ele>
        <time>2021-05-27T11:49:34Z</time>
      </trkpt>
      <trkpt lat="47.70172" lon="-2.34243">
        <ele>51.1</ele>
        <time>2021-05-27T11:49:35Z</time>
      </trkpt>
      <trkpt lat="47.70174" lon="-2.34242">
        <ele>50.9</ele>
        <time>2021-05-27T11:49:36Z</time>
      </trkpt>
      <trkpt lat="47.70175" lon="-2.34239">
        <ele>50.6</ele>
        <time>2021-05-27T11:49:37Z</time>
      </trkpt>
      <trkpt lat="47.70177" lon="-2.34237">
        <ele>50.4</ele>
        <time>2021-05-27T11:49:38Z</time>
      </trkpt>
      <trkpt lat="47.70178" lon="-2.34234">
        <ele>50.2</ele>
        <time>2021-05-27T11:49:39Z</time>
      </trkpt>
      <trkpt lat="47.70178" lon="-2.34231">
        <ele>50</ele>
        <time>2021-05-27T11:49:40Z</time>
      </trkpt>
      <trkpt lat="47.70178" lon="-2.34226">
        <ele>49.8</ele>
        <time>2021-05-27T11:49:41Z</time>
      </trkpt>
      <trkpt lat="47.70177" lon="-2.34222">
        <ele>49.6</ele>
        <time>2021-05-27T11:49:42Z</time>
      </trkpt>
      <trkpt lat="47.70177" lon="-2.34216">
        <ele>49.3</ele>
        <time>2021-05-27T11:49:43Z</time>
      </trkpt>
      <trkpt lat="47.70176" lon="-2.34211">
        <ele>49.1</ele>
        <time>2021-05-27T11:49:44Z</time>
      </trkpt>
      <trkpt lat="47.70174" lon="-2.34204">
        <ele>48.9</ele>
        <time>2021-05-27T11:49:45Z</time>
      </trkpt>
      <trkpt lat="47.70172" lon="-2.34198">
        <ele>48.6</ele>
        <time>2021-05-27T11:49:46Z</time>
      </trkpt>
      <trkpt lat="47.7017" lon="-2.34191">
        <ele>48.3</ele>
        <time>2021-05-27T11:49:47Z</time>
      </trkpt>
      <trkpt lat="47.70168" lon="-2.34183">
        <ele>48</ele>
        <time>2021-05-27T11:49:48Z</time>
      </trkpt>
      <trkpt lat="47.70165" lon="-2.34175">
        <ele>47.7</ele>
        <time>2021-05-27T11:49:49Z</time>
      </trkpt>
      <trkpt lat="47.70164" lon="-2.34168">
        <ele>47.5</ele>
        <time>2021-05-27T11:49:50Z</time>
      </trkpt>
      <trkpt lat="47.70163" lon="-2.3416">
        <ele>47.3</ele>
        <time>2021-05-27T11:49:51Z</time>
      </trkpt>
      <trkpt lat="47.70162" lon="-2.34152">
        <ele>47</ele>
        <time>2021-05-27T11:49:52Z</time>
      </trkpt>
      <trkpt lat="47.70161" lon="-2.34143">
        <ele>46.7</ele>
        <time>2021-05-27T11:49:53Z</time>
      </trkpt>
      <trkpt lat="47.7016" lon="-2.34133">
        <ele>46.4</ele>
        <time>2021-05-27T11:49:54Z</time>
      </trkpt>
      <trkpt lat="47.70159" lon="-2.34123">
        <ele>46.2</ele>
        <time>2021-05-27T11:49:55Z</time>
      </trkpt>
      <trkpt lat="47.70156" lon="-2.34114">
        <ele>46.1</ele>
        <time>2021-05-27T11:49:56Z</time>
      </trkpt>
      <trkpt lat="47.70154" lon="-2.34105">
        <ele>46</ele>
        <time>2021-05-27T11:49:57Z</time>
      </trkpt>
      <trkpt lat="47.70153" lon="-2.34097">
        <ele>45.9</ele>
        <time>2021-05-27T11:49:58Z</time>
      </trkpt>
      <trkpt lat="47.70151" lon="-2.34089">
        <ele>45.8</ele>
        <time>2021-05-27T11:49:59Z</time>
      </trkpt>
      <trkpt lat="47.70149" lon="-2.34081">
        <ele>45.8</ele>
        <time>2021-05-27T11:50:00Z</time>
      </trkpt>
      <trkpt lat="47.70148" lon="-2.34075">
        <ele>45.7</ele>
        <time>2021-05-27T11:50:01Z</time>
      </trkpt>
      <trkpt lat="47.70147" lon="-2.34067">
        <ele>45.6</ele>
        <time>2021-05-27T11:50:02Z</time>
      </trkpt>
      <trkpt lat="47.70145" lon="-2.34061">
        <ele>45.5</ele>
        <time>2021-05-27T11:50:03Z</time>
      </trkpt>
      <trkpt lat="47.70144" lon="-2.34055">
        <ele>45.4</ele>
        <time>2021-05-27T11:50:04Z</time>
      </trkpt>
      <trkpt lat="47.70144" lon="-2.3405">
        <ele>45.3</ele>
        <time>2021-05-27T11:50:05Z</time>
      </trkpt>
      <trkpt lat="47.70143" lon="-2.34046">
        <ele>45.2</ele>
        <time>2021-05-27T11:50:06Z</time>
      </trkpt>
      <trkpt lat="47.70142" lon="-2.34041">
        <ele>45.1</ele>
        <time>2021-05-27T11:50:07Z</time>
      </trkpt>
      <trkpt lat="47.70141" lon="-2.34037">
        <ele>45</ele>
        <time>2021-05-27T11:50:08Z</time>
      </trkpt>
      <trkpt lat="47.70141" lon="-2.34033">
        <ele>44.8</ele>
        <time>2021-05-27T11:50:09Z</time>
      </trkpt>
      <trkpt lat="47.70142" lon="-2.34028">
        <ele>44.6</ele>
        <time>2021-05-27T11:50:10Z</time>
      </trkpt>
      <trkpt lat="47.70142" lon="-2.34025">
        <ele>44.3</ele>
        <time>2021-05-27T11:50:11Z</time>
      </trkpt>
      <trkpt lat="47.70144" lon="-2.34024">
        <ele>44</ele>
        <time>2021-05-27T11:50:12Z</time>
      </trkpt>
      <trkpt lat="47.70146" lon="-2.34023">
        <ele>43.6</ele>
        <time>2021-05-27T11:50:13Z</time>
      </trkpt>
      <trkpt lat="47.70149" lon="-2.34025">
        <ele>43.2</ele>
        <time>2021-05-27T11:50:14Z</time>
      </trkpt>
      <trkpt lat="47.70151" lon="-2.34027">
        <ele>42.9</ele>
        <time>2021-05-27T11:50:15Z</time>
      </trkpt>
      <trkpt lat="47.70155" lon="-2.34029">
        <ele>42.4</ele>
        <time>2021-05-27T11:50:16Z</time>
      </trkpt>
      <trkpt lat="47.70157" lon="-2.34031">
        <ele>42</ele>
        <time>2021-05-27T11:50:17Z</time>
      </trkpt>
      <trkpt lat="47.7016" lon="-2.34034">
        <ele>41.8</ele>
        <time>2021-05-27T11:50:18Z</time>
      </trkpt>
      <trkpt lat="47.70161" lon="-2.34036">
        <ele>41.7</ele>
        <time>2021-05-27T11:50:19Z</time>
      </trkpt>
      <trkpt lat="47.70163" lon="-2.34039">
        <ele>41.4</ele>
        <time>2021-05-27T11:50:20Z</time>
      </trkpt>
      <trkpt lat="47.70166" lon="-2.34041">
        <ele>41.1</ele>
        <time>2021-05-27T11:50:21Z</time>
      </trkpt>
      <trkpt lat="47.70168" lon="-2.34043">
        <ele>41.3</ele>
        <time>2021-05-27T11:50:22Z</time>
      </trkpt>
      <trkpt lat="47.70169" lon="-2.34045">
        <ele>41.7</ele>
        <time>2021-05-27T11:50:23Z</time>
      </trkpt>
      <trkpt lat="47.7017" lon="-2.34046">
        <ele>41.9</ele>
        <time>2021-05-27T11:50:24Z</time>
      </trkpt>
      <trkpt lat="47.70172" lon="-2.34046">
        <ele>42.2</ele>
        <time>2021-05-27T11:50:25Z</time>
      </trkpt>
      <trkpt lat="47.70173" lon="-2.34046">
        <ele>42.3</ele>
        <time>2021-05-27T11:50:26Z</time>
      </trkpt>
      <trkpt lat="47.70177" lon="-2.34047">
        <ele>43.1</ele>
        <time>2021-05-27T11:50:27Z</time>
      </trkpt>
      <trkpt lat="47.70181" lon="-2.34047">
        <ele>43.9</ele>
        <time>2021-05-27T11:50:28Z</time>
      </trkpt>
      <trkpt lat="47.70182" lon="-2.34048">
        <ele>44.1</ele>
        <time>2021-05-27T11:50:29Z</time>
      </trkpt>
      <trkpt lat="47.70182" lon="-2.34048">
        <ele>44.2</ele>
        <time>2021-05-27T11:50:30Z</time>
      </trkpt>
      <trkpt lat="47.70181" lon="-2.34048">
        <ele>44</ele>
        <time>2021-05-27T11:50:31Z</time>
      </trkpt>
      <trkpt lat="47.70182" lon="-2.34046">
        <ele>44.1</ele>
        <time>2021-05-27T11:50:32Z</time>
      </trkpt>
      <trkpt lat="47.70182" lon="-2.34045">
        <ele>44</ele>
        <time>2021-05-27T11:50:33Z</time>
      </trkpt>
      <trkpt lat="47.70182" lon="-2.34045">
        <ele>44</ele>
        <time>2021-05-27T11:50:34Z</time>
      </trkpt>
      <trkpt lat="47.70182" lon="-2.34045">
        <ele>44</ele>
        <time>2021-05-27T11:50:35Z</time>
      </trkpt>
      <trkpt lat="47.70184" lon="-2.34043">
        <ele>44.4</ele>
        <time>2021-05-27T11:50:36Z</time>
      </trkpt>
      <trkpt lat="47.70184" lon="-2.34043">
        <ele>44.4</ele>
        <time>2021-05-27T11:50:37Z</time>
      </trkpt>
      <trkpt lat="47.70183" lon="-2.34044">
        <ele>44.3</ele>
        <time>2021-05-27T11:50:38Z</time>
      </trkpt>
      <trkpt lat="47.70184" lon="-2.34042">
        <ele>44.3</ele>
        <time>2021-05-27T11:50:39Z</time>
      </trkpt>
      <trkpt lat="47.70184" lon="-2.34042">
        <ele>44.3</ele>
        <time>2021-05-27T11:50:40Z</time>
      </trkpt>
      <trkpt lat="47.70184" lon="-2.34042">
        <ele>44.3</ele>
        <time>2021-05-27T11:50:41Z</time>
      </trkpt>
      <trkpt lat="47.70184" lon="-2.34042">
        <ele>44.3</ele>
        <time>2021-05-27T11:50:42Z</time>
      </trkpt>
      <trkpt lat="47.70184" lon="-2.34042">
        <ele>44.3</ele>
        <time>2021-05-27T11:50:43Z</time>
      </trkpt>
      <trkpt lat="47.70184" lon="-2.34042">
        <ele>44.3</ele>
        <time>2021-05-27T11:50:44Z</time>
      </trkpt>
      <trkpt lat="47.70184" lon="-2.34042">
        <ele>44.3</ele>
        <time>2021-05-27T11:50:45Z</time>
      </trkpt>
      <trkpt lat="47.70184" lon="-2.34042">
        <ele>44.3</ele>
        <time>2021-05-27T11:50:46Z</time>
      </trkpt>
      <trkpt lat="47.70184" lon="-2.34042">
        <ele>44.3</ele>
        <time>2021-05-27T11:50:47Z</time>
      </trkpt>
      <trkpt lat="47.70184" lon="-2.34042">
        <ele>44.3</ele>
        <time>2021-05-27T11:50:48Z</time>
      </trkpt>
      <trkpt lat="47.70184" lon="-2.34042">
        <ele>44.3</ele>
        <time>2021-05-27T11:50:49Z</time>
      </trkpt>
      <trkpt lat="47.70184" lon="-2.34042">
        <ele>44.3</ele>
        <time>2021-05-27T11:50:50Z</time>
      </trkpt>
      <trkpt lat="47.70184" lon="-2.34042">
        <ele>44.3</ele>
        <time>2021-05-27T11:50:51Z</time>
      </trkpt>
      <trkpt lat="47.70184" lon="-2.34042">
        <ele>44.3</ele>
        <time>2021-05-27T11:50:52Z</time>
      </trkpt>
      <trkpt lat="47.70184" lon="-2.34042">
        <ele>44.3</ele>
        <time>2021-05-27T11:50:53Z</time>
      </trkpt>
      <trkpt lat="47.70184" lon="-2.34042">
        <ele>44.3</ele>
        <time>2021-05-27T11:50:54Z</time>
      </trkpt>
      <trkpt lat="47.70189" lon="-2.34032">
        <ele>45.1</ele>
        <time>2021-05-27T11:50:55Z</time>
      </trkpt>
      <trkpt lat="47.7019" lon="-2.34031">
        <ele>45.1</ele>
        <time>2021-05-27T11:50:56Z</time>
      </trkpt>
      <trkpt lat="47.7019" lon="-2.34031">
        <ele>45.2</ele>
        <time>2021-05-27T11:50:57Z</time>
      </trkpt>
      <trkpt lat="47.7019" lon="-2.34034">
        <ele>45.3</ele>
        <time>2021-05-27T11:50:58Z</time>
      </trkpt>
      <trkpt lat="47.7019" lon="-2.34039">
        <ele>45.5</ele>
        <time>2021-05-27T11:50:59Z</time>
      </trkpt>
      <trkpt lat="47.70192" lon="-2.34045">
        <ele>46</ele>
        <time>2021-05-27T11:51:00Z</time>
      </trkpt>
      <trkpt lat="47.70192" lon="-2.34049">
        <ele>46.1</ele>
        <time>2021-05-27T11:51:01Z</time>
      </trkpt>
      <trkpt lat="47.70194" lon="-2.34052">
        <ele>46.5</ele>
        <time>2021-05-27T11:51:02Z</time>
      </trkpt>
      <trkpt lat="47.70194" lon="-2.34055">
        <ele>46.6</ele>
        <time>2021-05-27T11:51:03Z</time>
      </trkpt>
      <trkpt lat="47.70194" lon="-2.34058">
        <ele>46.6</ele>
        <time>2021-05-27T11:51:04Z</time>
      </trkpt>
      <trkpt lat="47.70195" lon="-2.34062">
        <ele>46.9</ele>
        <time>2021-05-27T11:51:05Z</time>
      </trkpt>
      <trkpt lat="47.70196" lon="-2.34065">
        <ele>47.2</ele>
        <time>2021-05-27T11:51:06Z</time>
      </trkpt>
      <trkpt lat="47.70199" lon="-2.34069">
        <ele>47.7</ele>
        <time>2021-05-27T11:51:07Z</time>
      </trkpt>
      <trkpt lat="47.702" lon="-2.34073">
        <ele>47.9</ele>
        <time>2021-05-27T11:51:08Z</time>
      </trkpt>
      <trkpt lat="47.70199" lon="-2.3408">
        <ele>48</ele>
        <time>2021-05-27T11:51:09Z</time>
      </trkpt>
      <trkpt lat="47.702" lon="-2.34085">
        <ele>48.2</ele>
        <time>2021-05-27T11:51:10Z</time>
      </trkpt>
      <trkpt lat="47.70202" lon="-2.34091">
        <ele>48.3</ele>
        <time>2021-05-27T11:51:11Z</time>
      </trkpt>
      <trkpt lat="47.70203" lon="-2.34095">
        <ele>48.3</ele>
        <time>2021-05-27T11:51:12Z</time>
      </trkpt>
      <trkpt lat="47.70203" lon="-2.34099">
        <ele>48.2</ele>
        <time>2021-05-27T11:51:13Z</time>
      </trkpt>
      <trkpt lat="47.70203" lon="-2.34104">
        <ele>48.1</ele>
        <time>2021-05-27T11:51:14Z</time>
      </trkpt>
      <trkpt lat="47.70202" lon="-2.34108">
        <ele>47.9</ele>
        <time>2021-05-27T11:51:15Z</time>
      </trkpt>
      <trkpt lat="47.70201" lon="-2.34113">
        <ele>47.7</ele>
        <time>2021-05-27T11:51:16Z</time>
      </trkpt>
      <trkpt lat="47.70202" lon="-2.34119">
        <ele>47.7</ele>
        <time>2021-05-27T11:51:17Z</time>
      </trkpt>
      <trkpt lat="47.70203" lon="-2.34124">
        <ele>47.7</ele>
        <time>2021-05-27T11:51:18Z</time>
      </trkpt>
      <trkpt lat="47.70205" lon="-2.34128">
        <ele>47.7</ele>
        <time>2021-05-27T11:51:19Z</time>
      </trkpt>
      <trkpt lat="47.70206" lon="-2.34132">
        <ele>47.6</ele>
        <time>2021-05-27T11:51:20Z</time>
      </trkpt>
      <trkpt lat="47.70206" lon="-2.34135">
        <ele>47.5</ele>
        <time>2021-05-27T11:51:21Z</time>
      </trkpt>
      <trkpt lat="47.70206" lon="-2.34138">
        <ele>47.4</ele>
        <time>2021-05-27T11:51:22Z</time>
      </trkpt>
      <trkpt lat="47.70207" lon="-2.34141">
        <ele>47.4</ele>
        <time>2021-05-27T11:51:23Z</time>
      </trkpt>
      <trkpt lat="47.70209" lon="-2.34143">
        <ele>47.4</ele>
        <time>2021-05-27T11:51:24Z</time>
      </trkpt>
      <trkpt lat="47.70212" lon="-2.34146">
        <ele>47.4</ele>
        <time>2021-05-27T11:51:25Z</time>
      </trkpt>
      <trkpt lat="47.70214" lon="-2.3415">
        <ele>47.2</ele>
        <time>2021-05-27T11:51:26Z</time>
      </trkpt>
      <trkpt lat="47.70216" lon="-2.34155">
        <ele>47</ele>
        <time>2021-05-27T11:51:27Z</time>
      </trkpt>
      <trkpt lat="47.70216" lon="-2.34161">
        <ele>46.7</ele>
        <time>2021-05-27T11:51:28Z</time>
      </trkpt>
      <trkpt lat="47.70217" lon="-2.34166">
        <ele>46.4</ele>
        <time>2021-05-27T11:51:29Z</time>
      </trkpt>
      <trkpt lat="47.70218" lon="-2.34171">
        <ele>46.4</ele>
        <time>2021-05-27T11:51:30Z</time>
      </trkpt>
      <trkpt lat="47.7022" lon="-2.34177">
        <ele>46.4</ele>
        <time>2021-05-27T11:51:31Z</time>
      </trkpt>
      <trkpt lat="47.70222" lon="-2.34183">
        <ele>46.4</ele>
        <time>2021-05-27T11:51:32Z</time>
      </trkpt>
      <trkpt lat="47.70224" lon="-2.34189">
        <ele>46.4</ele>
        <time>2021-05-27T11:51:33Z</time>
      </trkpt>
      <trkpt lat="47.70228" lon="-2.34194">
        <ele>46.2</ele>
        <time>2021-05-27T11:51:34Z</time>
      </trkpt>
      <trkpt lat="47.70231" lon="-2.34199">
        <ele>46.1</ele>
        <time>2021-05-27T11:51:35Z</time>
      </trkpt>
      <trkpt lat="47.70235" lon="-2.34204">
        <ele>45.9</ele>
        <time>2021-05-27T11:51:36Z</time>
      </trkpt>
      <trkpt lat="47.70237" lon="-2.3421">
        <ele>45.7</ele>
        <time>2021-05-27T11:51:37Z</time>
      </trkpt>
      <trkpt lat="47.70238" lon="-2.34214">
        <ele>45.6</ele>
        <time>2021-05-27T11:51:38Z</time>
      </trkpt>
      <trkpt lat="47.70239" lon="-2.34218">
        <ele>45.4</ele>
        <time>2021-05-27T11:51:39Z</time>
      </trkpt>
      <trkpt lat="47.70241" lon="-2.34223">
        <ele>45.3</ele>
        <time>2021-05-27T11:51:40Z</time>
      </trkpt>
      <trkpt lat="47.70244" lon="-2.34228">
        <ele>45</ele>
        <time>2021-05-27T11:51:41Z</time>
      </trkpt>
      <trkpt lat="47.70246" lon="-2.34232">
        <ele>44.8</ele>
        <time>2021-05-27T11:51:42Z</time>
      </trkpt>
      <trkpt lat="47.70248" lon="-2.34236">
        <ele>44.5</ele>
        <time>2021-05-27T11:51:43Z</time>
      </trkpt>
      <trkpt lat="47.70249" lon="-2.3424">
        <ele>44.3</ele>
        <time>2021-05-27T11:51:44Z</time>
      </trkpt>
      <trkpt lat="47.70249" lon="-2.34245">
        <ele>44.2</ele>
        <time>2021-05-27T11:51:45Z</time>
      </trkpt>
      <trkpt lat="47.70249" lon="-2.34249">
        <ele>44.2</ele>
        <time>2021-05-27T11:51:46Z</time>
      </trkpt>
      <trkpt lat="47.70249" lon="-2.34252">
        <ele>44.1</ele>
        <time>2021-05-27T11:51:47Z</time>
      </trkpt>
      <trkpt lat="47.70249" lon="-2.34255">
        <ele>44.2</ele>
        <time>2021-05-27T11:51:48Z</time>
      </trkpt>
      <trkpt lat="47.70251" lon="-2.34259">
        <ele>44.4</ele>
        <time>2021-05-27T11:51:49Z</time>
      </trkpt>
      <trkpt lat="47.70252" lon="-2.34263">
        <ele>44.8</ele>
        <time>2021-05-27T11:51:50Z</time>
      </trkpt>
      <trkpt lat="47.70253" lon="-2.34267">
        <ele>45.2</ele>
        <time>2021-05-27T11:51:51Z</time>
      </trkpt>
      <trkpt lat="47.70255" lon="-2.34272">
        <ele>45.7</ele>
        <time>2021-05-27T11:51:52Z</time>
      </trkpt>
      <trkpt lat="47.70255" lon="-2.34277">
        <ele>46</ele>
        <time>2021-05-27T11:51:53Z</time>
      </trkpt>
      <trkpt lat="47.70258" lon="-2.34284">
        <ele>46.7</ele>
        <time>2021-05-27T11:51:54Z</time>
      </trkpt>
      <trkpt lat="47.7026" lon="-2.34291">
        <ele>47.4</ele>
        <time>2021-05-27T11:51:55Z</time>
      </trkpt>
      <trkpt lat="47.70262" lon="-2.34298">
        <ele>47.9</ele>
        <time>2021-05-27T11:51:56Z</time>
      </trkpt>
      <trkpt lat="47.70262" lon="-2.34306">
        <ele>48.2</ele>
        <time>2021-05-27T11:51:57Z</time>
      </trkpt>
      <trkpt lat="47.70263" lon="-2.34313">
        <ele>48.6</ele>
        <time>2021-05-27T11:51:58Z</time>
      </trkpt>
      <trkpt lat="47.70265" lon="-2.3432">
        <ele>49.1</ele>
        <time>2021-05-27T11:51:59Z</time>
      </trkpt>
      <trkpt lat="47.70267" lon="-2.34326">
        <ele>49.8</ele>
        <time>2021-05-27T11:52:00Z</time>
      </trkpt>
      <trkpt lat="47.70268" lon="-2.34332">
        <ele>50.1</ele>
        <time>2021-05-27T11:52:01Z</time>
      </trkpt>
      <trkpt lat="47.70269" lon="-2.34338">
        <ele>50.4</ele>
        <time>2021-05-27T11:52:02Z</time>
      </trkpt>
      <trkpt lat="47.70271" lon="-2.34342">
        <ele>50.5</ele>
        <time>2021-05-27T11:52:03Z</time>
      </trkpt>
      <trkpt lat="47.70271" lon="-2.34346">
        <ele>50.6</ele>
        <time>2021-05-27T11:52:04Z</time>
      </trkpt>
      <trkpt lat="47.70272" lon="-2.34351">
        <ele>50.6</ele>
        <time>2021-05-27T11:52:05Z</time>
      </trkpt>
      <trkpt lat="47.70273" lon="-2.34356">
        <ele>50.8</ele>
        <time>2021-05-27T11:52:06Z</time>
      </trkpt>
      <trkpt lat="47.70274" lon="-2.34362">
        <ele>50.9</ele>
        <time>2021-05-27T11:52:07Z</time>
      </trkpt>
      <trkpt lat="47.70276" lon="-2.34368">
        <ele>51.1</ele>
        <time>2021-05-27T11:52:08Z</time>
      </trkpt>
      <trkpt lat="47.70276" lon="-2.34374">
        <ele>51</ele>
        <time>2021-05-27T11:52:09Z</time>
      </trkpt>
      <trkpt lat="47.70276" lon="-2.3438">
        <ele>50.9</ele>
        <time>2021-05-27T11:52:10Z</time>
      </trkpt>
      <trkpt lat="47.70276" lon="-2.34386">
        <ele>50.8</ele>
        <time>2021-05-27T11:52:11Z</time>
      </trkpt>
      <trkpt lat="47.70277" lon="-2.34393">
        <ele>50.7</ele>
        <time>2021-05-27T11:52:12Z</time>
      </trkpt>
      <trkpt lat="47.70277" lon="-2.34401">
        <ele>50.6</ele>
        <time>2021-05-27T11:52:13Z</time>
      </trkpt>
      <trkpt lat="47.70278" lon="-2.34407">
        <ele>50.6</ele>
        <time>2021-05-27T11:52:14Z</time>
      </trkpt>
      <trkpt lat="47.7028" lon="-2.34413">
        <ele>50.8</ele>
        <time>2021-05-27T11:52:15Z</time>
      </trkpt>
      <trkpt lat="47.70281" lon="-2.34419">
        <ele>50.9</ele>
        <time>2021-05-27T11:52:16Z</time>
      </trkpt>
      <trkpt lat="47.70283" lon="-2.34425">
        <ele>50.9</ele>
        <time>2021-05-27T11:52:17Z</time>
      </trkpt>
      <trkpt lat="47.70286" lon="-2.34432">
        <ele>51.3</ele>
        <time>2021-05-27T11:52:18Z</time>
      </trkpt>
      <trkpt lat="47.70288" lon="-2.34437">
        <ele>51.3</ele>
        <time>2021-05-27T11:52:19Z</time>
      </trkpt>
      <trkpt lat="47.7029" lon="-2.34443">
        <ele>51.4</ele>
        <time>2021-05-27T11:52:20Z</time>
      </trkpt>
      <trkpt lat="47.70292" lon="-2.34447">
        <ele>51.6</ele>
        <time>2021-05-27T11:52:21Z</time>
      </trkpt>
      <trkpt lat="47.70294" lon="-2.34452">
        <ele>51.7</ele>
        <time>2021-05-27T11:52:22Z</time>
      </trkpt>
      <trkpt lat="47.70294" lon="-2.34457">
        <ele>51.6</ele>
        <time>2021-05-27T11:52:23Z</time>
      </trkpt>
      <trkpt lat="47.70295" lon="-2.3446">
        <ele>51.5</ele>
        <time>2021-05-27T11:52:24Z</time>
      </trkpt>
      <trkpt lat="47.70295" lon="-2.34465">
        <ele>51.4</ele>
        <time>2021-05-27T11:52:25Z</time>
      </trkpt>
      <trkpt lat="47.70296" lon="-2.3447">
        <ele>51.3</ele>
        <time>2021-05-27T11:52:26Z</time>
      </trkpt>
      <trkpt lat="47.70297" lon="-2.34472">
        <ele>51.4</ele>
        <time>2021-05-27T11:52:27Z</time>
      </trkpt>
      <trkpt lat="47.70299" lon="-2.34475">
        <ele>51.6</ele>
        <time>2021-05-27T11:52:28Z</time>
      </trkpt>
      <trkpt lat="47.70298" lon="-2.34482">
        <ele>51.2</ele>
        <time>2021-05-27T11:52:29Z</time>
      </trkpt>
      <trkpt lat="47.70298" lon="-2.34489">
        <ele>50.8</ele>
        <time>2021-05-27T11:52:30Z</time>
      </trkpt>
      <trkpt lat="47.70298" lon="-2.34495">
        <ele>50.4</ele>
        <time>2021-05-27T11:52:31Z</time>
      </trkpt>
      <trkpt lat="47.70298" lon="-2.34502">
        <ele>50.2</ele>
        <time>2021-05-27T11:52:32Z</time>
      </trkpt>
      <trkpt lat="47.70298" lon="-2.34509">
        <ele>50.1</ele>
        <time>2021-05-27T11:52:33Z</time>
      </trkpt>
      <trkpt lat="47.70299" lon="-2.34514">
        <ele>50</ele>
        <time>2021-05-27T11:52:34Z</time>
      </trkpt>
      <trkpt lat="47.70299" lon="-2.34519">
        <ele>50</ele>
        <time>2021-05-27T11:52:35Z</time>
      </trkpt>
      <trkpt lat="47.70301" lon="-2.34527">
        <ele>50</ele>
        <time>2021-05-27T11:52:36Z</time>
      </trkpt>
      <trkpt lat="47.70301" lon="-2.34533">
        <ele>50</ele>
        <time>2021-05-27T11:52:37Z</time>
      </trkpt>
      <trkpt lat="47.70302" lon="-2.3454">
        <ele>49.9</ele>
        <time>2021-05-27T11:52:38Z</time>
      </trkpt>
      <trkpt lat="47.70303" lon="-2.34539">
        <ele>50</ele>
        <time>2021-05-27T11:53:06Z</time>
      </trkpt>
      <trkpt lat="47.70303" lon="-2.34539">
        <ele>50.1</ele>
        <time>2021-05-27T11:53:07Z</time>
      </trkpt>
      <trkpt lat="47.70304" lon="-2.3454">
        <ele>50.3</ele>
        <time>2021-05-27T11:53:08Z</time>
      </trkpt>
      <trkpt lat="47.70305" lon="-2.34541">
        <ele>50.3</ele>
        <time>2021-05-27T11:53:09Z</time>
      </trkpt>
      <trkpt lat="47.70306" lon="-2.34542">
        <ele>50.5</ele>
        <time>2021-05-27T11:53:10Z</time>
      </trkpt>
      <trkpt lat="47.70307" lon="-2.34542">
        <ele>50.8</ele>
        <time>2021-05-27T11:53:11Z</time>
      </trkpt>
      <trkpt lat="47.70308" lon="-2.34542">
        <ele>51</ele>
        <time>2021-05-27T11:53:12Z</time>
      </trkpt>
      <trkpt lat="47.70308" lon="-2.34542">
        <ele>50.9</ele>
        <time>2021-05-27T11:53:13Z</time>
      </trkpt>
      <trkpt lat="47.70308" lon="-2.34542">
        <ele>51</ele>
        <time>2021-05-27T11:53:14Z</time>
      </trkpt>
      <trkpt lat="47.70308" lon="-2.34542">
        <ele>51</ele>
        <time>2021-05-27T11:53:15Z</time>
      </trkpt>
      <trkpt lat="47.70308" lon="-2.34542">
        <ele>51</ele>
        <time>2021-05-27T11:53:16Z</time>
      </trkpt>
      <trkpt lat="47.70308" lon="-2.34542">
        <ele>51</ele>
        <time>2021-05-27T11:53:17Z</time>
      </trkpt>
      <trkpt lat="47.70308" lon="-2.34542">
        <ele>51</ele>
        <time>2021-05-27T11:53:18Z</time>
      </trkpt>
      <trkpt lat="47.70308" lon="-2.34542">
        <ele>51</ele>
        <time>2021-05-27T11:53:19Z</time>
      </trkpt>
      <trkpt lat="47.70309" lon="-2.34545">
        <ele>51</ele>
        <time>2021-05-27T11:53:20Z</time>
      </trkpt>
      <trkpt lat="47.7031" lon="-2.34546">
        <ele>51.1</ele>
        <time>2021-05-27T11:53:21Z</time>
      </trkpt>
      <trkpt lat="47.70311" lon="-2.34548">
        <ele>51.3</ele>
        <time>2021-05-27T11:53:22Z</time>
      </trkpt>
      <trkpt lat="47.70311" lon="-2.34549">
        <ele>51.3</ele>
        <time>2021-05-27T11:53:23Z</time>
      </trkpt>
      <trkpt lat="47.70311" lon="-2.34551">
        <ele>51.2</ele>
        <time>2021-05-27T11:53:24Z</time>
      </trkpt>
      <trkpt lat="47.70312" lon="-2.34551">
        <ele>51.3</ele>
        <time>2021-05-27T11:53:25Z</time>
      </trkpt>
      <trkpt lat="47.70312" lon="-2.34554">
        <ele>51.3</ele>
        <time>2021-05-27T11:53:26Z</time>
      </trkpt>
      <trkpt lat="47.70314" lon="-2.34556">
        <ele>51.6</ele>
        <time>2021-05-27T11:53:27Z</time>
      </trkpt>
      <trkpt lat="47.70316" lon="-2.34559">
        <ele>51.9</ele>
        <time>2021-05-27T11:53:28Z</time>
      </trkpt>
      <trkpt lat="47.70317" lon="-2.34563">
        <ele>51.9</ele>
        <time>2021-05-27T11:53:29Z</time>
      </trkpt>
      <trkpt lat="47.70318" lon="-2.34566">
        <ele>51.9</ele>
        <time>2021-05-27T11:53:30Z</time>
      </trkpt>
      <trkpt lat="47.70319" lon="-2.34568">
        <ele>52.1</ele>
        <time>2021-05-27T11:53:31Z</time>
      </trkpt>
      <trkpt lat="47.70321" lon="-2.34571">
        <ele>52.4</ele>
        <time>2021-05-27T11:53:32Z</time>
      </trkpt>
      <trkpt lat="47.70323" lon="-2.34573">
        <ele>52.5</ele>
        <time>2021-05-27T11:53:33Z</time>
      </trkpt>
      <trkpt lat="47.70323" lon="-2.34578">
        <ele>52.5</ele>
        <time>2021-05-27T11:53:34Z</time>
      </trkpt>
      <trkpt lat="47.70325" lon="-2.34581">
        <ele>52.7</ele>
        <time>2021-05-27T11:53:35Z</time>
      </trkpt>
      <trkpt lat="47.70327" lon="-2.34583">
        <ele>52.9</ele>
        <time>2021-05-27T11:53:36Z</time>
      </trkpt>
      <trkpt lat="47.70328" lon="-2.34585">
        <ele>53</ele>
        <time>2021-05-27T11:53:37Z</time>
      </trkpt>
      <trkpt lat="47.70331" lon="-2.34586">
        <ele>53.3</ele>
        <time>2021-05-27T11:53:38Z</time>
      </trkpt>
      <trkpt lat="47.7033" lon="-2.34585">
        <ele>53.2</ele>
        <time>2021-05-27T11:53:39Z</time>
      </trkpt>
      <trkpt lat="47.7033" lon="-2.34585">
        <ele>53.2</ele>
        <time>2021-05-27T11:53:40Z</time>
      </trkpt>
      <trkpt lat="47.7033" lon="-2.34585">
        <ele>53.2</ele>
        <time>2021-05-27T11:53:41Z</time>
      </trkpt>
      <trkpt lat="47.7033" lon="-2.34585">
        <ele>53.2</ele>
        <time>2021-05-27T11:53:42Z</time>
      </trkpt>
      <trkpt lat="47.7033" lon="-2.34585">
        <ele>53.2</ele>
        <time>2021-05-27T11:53:43Z</time>
      </trkpt>
      <trkpt lat="47.7033" lon="-2.34585">
        <ele>53.2</ele>
        <time>2021-05-27T11:53:44Z</time>
      </trkpt>
      <trkpt lat="47.7033" lon="-2.34585">
        <ele>53.2</ele>
        <time>2021-05-27T11:53:45Z</time>
      </trkpt>
      <trkpt lat="47.7033" lon="-2.34585">
        <ele>53.2</ele>
        <time>2021-05-27T11:53:46Z</time>
      </trkpt>
      <trkpt lat="47.7033" lon="-2.34585">
        <ele>53.2</ele>
        <time>2021-05-27T11:53:47Z</time>
      </trkpt>
      <trkpt lat="47.7033" lon="-2.34585">
        <ele>53.2</ele>
        <time>2021-05-27T11:53:48Z</time>
      </trkpt>
      <trkpt lat="47.7033" lon="-2.34585">
        <ele>53.2</ele>
        <time>2021-05-27T11:53:49Z</time>
      </trkpt>
      <trkpt lat="47.7033" lon="-2.34585">
        <ele>53.2</ele>
        <time>2021-05-27T11:53:50Z</time>
      </trkpt>
      <trkpt lat="47.7033" lon="-2.34585">
        <ele>53.2</ele>
        <time>2021-05-27T11:53:51Z</time>
      </trkpt>
      <trkpt lat="47.70325" lon="-2.34598">
        <ele>51.4</ele>
        <time>2021-05-27T11:53:52Z</time>
      </trkpt>
      <trkpt lat="47.70323" lon="-2.34601">
        <ele>50.7</ele>
        <time>2021-05-27T11:53:53Z</time>
      </trkpt>
      <trkpt lat="47.70322" lon="-2.34603">
        <ele>50.4</ele>
        <time>2021-05-27T11:53:54Z</time>
      </trkpt>
      <trkpt lat="47.7032" lon="-2.34604">
        <ele>50</ele>
        <time>2021-05-27T11:53:55Z</time>
      </trkpt>
      <trkpt lat="47.70319" lon="-2.34607">
        <ele>49.6</ele>
        <time>2021-05-27T11:53:56Z</time>
      </trkpt>
      <trkpt lat="47.70317" lon="-2.34611">
        <ele>49</ele>
        <time>2021-05-27T11:53:57Z</time>
      </trkpt>
      <trkpt lat="47.70318" lon="-2.34616">
        <ele>48.8</ele>
        <time>2021-05-27T11:53:58Z</time>
      </trkpt>
      <trkpt lat="47.70319" lon="-2.34619">
        <ele>48.6</ele>
        <time>2021-05-27T11:53:59Z</time>
      </trkpt>
      <trkpt lat="47.70319" lon="-2.34623">
        <ele>48.3</ele>
        <time>2021-05-27T11:54:00Z</time>
      </trkpt>
      <trkpt lat="47.7032" lon="-2.34625">
        <ele>48.3</ele>
        <time>2021-05-27T11:54:01Z</time>
      </trkpt>
      <trkpt lat="47.70321" lon="-2.34627">
        <ele>48.2</ele>
        <time>2021-05-27T11:54:02Z</time>
      </trkpt>
      <trkpt lat="47.70322" lon="-2.3463">
        <ele>48.1</ele>
        <time>2021-05-27T11:54:03Z</time>
      </trkpt>
      <trkpt lat="47.70322" lon="-2.34632">
        <ele>47.9</ele>
        <time>2021-05-27T11:54:04Z</time>
      </trkpt>
      <trkpt lat="47.70324" lon="-2.34634">
        <ele>48</ele>
        <time>2021-05-27T11:54:05Z</time>
      </trkpt>
      <trkpt lat="47.70328" lon="-2.34636">
        <ele>48.3</ele>
        <time>2021-05-27T11:54:06Z</time>
      </trkpt>
      <trkpt lat="47.7033" lon="-2.34638">
        <ele>48.4</ele>
        <time>2021-05-27T11:54:07Z</time>
      </trkpt>
      <trkpt lat="47.70332" lon="-2.3464">
        <ele>48.4</ele>
        <time>2021-05-27T11:54:08Z</time>
      </trkpt>
      <trkpt lat="47.70334" lon="-2.34643">
        <ele>48.5</ele>
        <time>2021-05-27T11:54:09Z</time>
      </trkpt>
      <trkpt lat="47.70336" lon="-2.34644">
        <ele>48.8</ele>
        <time>2021-05-27T11:54:10Z</time>
      </trkpt>
      <trkpt lat="47.70337" lon="-2.34647">
        <ele>48.7</ele>
        <time>2021-05-27T11:54:11Z</time>
      </trkpt>
      <trkpt lat="47.70338" lon="-2.3465">
        <ele>48.8</ele>
        <time>2021-05-27T11:54:12Z</time>
      </trkpt>
      <trkpt lat="47.7034" lon="-2.34652">
        <ele>48.9</ele>
        <time>2021-05-27T11:54:13Z</time>
      </trkpt>
      <trkpt lat="47.70341" lon="-2.34654">
        <ele>48.9</ele>
        <time>2021-05-27T11:54:14Z</time>
      </trkpt>
      <trkpt lat="47.70343" lon="-2.34658">
        <ele>48.9</ele>
        <time>2021-05-27T11:54:15Z</time>
      </trkpt>
      <trkpt lat="47.70344" lon="-2.34661">
        <ele>48.9</ele>
        <time>2021-05-27T11:54:16Z</time>
      </trkpt>
      <trkpt lat="47.70344" lon="-2.34665">
        <ele>48.6</ele>
        <time>2021-05-27T11:54:17Z</time>
      </trkpt>
      <trkpt lat="47.70345" lon="-2.3467">
        <ele>48.5</ele>
        <time>2021-05-27T11:54:18Z</time>
      </trkpt>
      <trkpt lat="47.70346" lon="-2.34674">
        <ele>48.7</ele>
        <time>2021-05-27T11:54:19Z</time>
      </trkpt>
      <trkpt lat="47.70348" lon="-2.34677">
        <ele>48.9</ele>
        <time>2021-05-27T11:54:20Z</time>
      </trkpt>
      <trkpt lat="47.7035" lon="-2.34683">
        <ele>49.2</ele>
        <time>2021-05-27T11:54:21Z</time>
      </trkpt>
      <trkpt lat="47.70353" lon="-2.34687">
        <ele>49.6</ele>
        <time>2021-05-27T11:54:22Z</time>
      </trkpt>
      <trkpt lat="47.70354" lon="-2.34689">
        <ele>49.9</ele>
        <time>2021-05-27T11:54:23Z</time>
      </trkpt>
      <trkpt lat="47.70355" lon="-2.34691">
        <ele>50</ele>
        <time>2021-05-27T11:54:24Z</time>
      </trkpt>
      <trkpt lat="47.70357" lon="-2.34693">
        <ele>50.2</ele>
        <time>2021-05-27T11:54:25Z</time>
      </trkpt>
      <trkpt lat="47.70358" lon="-2.34695">
        <ele>50.5</ele>
        <time>2021-05-27T11:54:26Z</time>
      </trkpt>
      <trkpt lat="47.70359" lon="-2.34699">
        <ele>50.6</ele>
        <time>2021-05-27T11:54:27Z</time>
      </trkpt>
      <trkpt lat="47.7036" lon="-2.34701">
        <ele>50.8</ele>
        <time>2021-05-27T11:54:28Z</time>
      </trkpt>
      <trkpt lat="47.70361" lon="-2.34704">
        <ele>50.9</ele>
        <time>2021-05-27T11:54:29Z</time>
      </trkpt>
      <trkpt lat="47.70362" lon="-2.34706">
        <ele>51</ele>
        <time>2021-05-27T11:54:30Z</time>
      </trkpt>
      <trkpt lat="47.70363" lon="-2.34709">
        <ele>51</ele>
        <time>2021-05-27T11:54:31Z</time>
      </trkpt>
      <trkpt lat="47.70363" lon="-2.34712">
        <ele>51</ele>
        <time>2021-05-27T11:54:32Z</time>
      </trkpt>
      <trkpt lat="47.70363" lon="-2.34716">
        <ele>50.8</ele>
        <time>2021-05-27T11:54:33Z</time>
      </trkpt>
      <trkpt lat="47.70364" lon="-2.3472">
        <ele>50.7</ele>
        <time>2021-05-27T11:54:34Z</time>
      </trkpt>
      <trkpt lat="47.70364" lon="-2.34724">
        <ele>50.7</ele>
        <time>2021-05-27T11:54:35Z</time>
      </trkpt>
      <trkpt lat="47.70365" lon="-2.34729">
        <ele>50.7</ele>
        <time>2021-05-27T11:54:36Z</time>
      </trkpt>
      <trkpt lat="47.70366" lon="-2.3473">
        <ele>51</ele>
        <time>2021-05-27T11:54:37Z</time>
      </trkpt>
      <trkpt lat="47.70369" lon="-2.3473">
        <ele>51.4</ele>
        <time>2021-05-27T11:54:38Z</time>
      </trkpt>
      <trkpt lat="47.70371" lon="-2.34732">
        <ele>51.9</ele>
        <time>2021-05-27T11:54:39Z</time>
      </trkpt>
      <trkpt lat="47.70373" lon="-2.34732">
        <ele>52.3</ele>
        <time>2021-05-27T11:54:40Z</time>
      </trkpt>
      <trkpt lat="47.70374" lon="-2.34735">
        <ele>52.4</ele>
        <time>2021-05-27T11:54:41Z</time>
      </trkpt>
      <trkpt lat="47.70375" lon="-2.34739">
        <ele>52.5</ele>
        <time>2021-05-27T11:54:42Z</time>
      </trkpt>
      <trkpt lat="47.70377" lon="-2.34744">
        <ele>52.6</ele>
        <time>2021-05-27T11:54:43Z</time>
      </trkpt>
      <trkpt lat="47.70379" lon="-2.34748">
        <ele>52.9</ele>
        <time>2021-05-27T11:54:44Z</time>
      </trkpt>
      <trkpt lat="47.70381" lon="-2.34751">
        <ele>53.2</ele>
        <time>2021-05-27T11:54:45Z</time>
      </trkpt>
      <trkpt lat="47.70382" lon="-2.34755">
        <ele>53.3</ele>
        <time>2021-05-27T11:54:46Z</time>
      </trkpt>
      <trkpt lat="47.70383" lon="-2.3476">
        <ele>53.3</ele>
        <time>2021-05-27T11:54:47Z</time>
      </trkpt>
      <trkpt lat="47.70384" lon="-2.34767">
        <ele>53.3</ele>
        <time>2021-05-27T11:54:48Z</time>
      </trkpt>
      <trkpt lat="47.70385" lon="-2.34771">
        <ele>53.2</ele>
        <time>2021-05-27T11:54:49Z</time>
      </trkpt>
      <trkpt lat="47.70387" lon="-2.34775">
        <ele>53.3</ele>
        <time>2021-05-27T11:54:50Z</time>
      </trkpt>
      <trkpt lat="47.70387" lon="-2.34779">
        <ele>53.2</ele>
        <time>2021-05-27T11:54:51Z</time>
      </trkpt>
      <trkpt lat="47.70389" lon="-2.34785">
        <ele>53.2</ele>
        <time>2021-05-27T11:54:52Z</time>
      </trkpt>
      <trkpt lat="47.70391" lon="-2.34791">
        <ele>53.4</ele>
        <time>2021-05-27T11:54:53Z</time>
      </trkpt>
      <trkpt lat="47.70393" lon="-2.34797">
        <ele>53.6</ele>
        <time>2021-05-27T11:54:54Z</time>
      </trkpt>
      <trkpt lat="47.70395" lon="-2.34801">
        <ele>53.7</ele>
        <time>2021-05-27T11:54:55Z</time>
      </trkpt>
      <trkpt lat="47.70397" lon="-2.34804">
        <ele>53.9</ele>
        <time>2021-05-27T11:54:56Z</time>
      </trkpt>
      <trkpt lat="47.70398" lon="-2.34807">
        <ele>54</ele>
        <time>2021-05-27T11:54:57Z</time>
      </trkpt>
      <trkpt lat="47.70399" lon="-2.34811">
        <ele>54</ele>
        <time>2021-05-27T11:54:58Z</time>
      </trkpt>
      <trkpt lat="47.70401" lon="-2.34818">
        <ele>54</ele>
        <time>2021-05-27T11:54:59Z</time>
      </trkpt>
      <trkpt lat="47.70403" lon="-2.34822">
        <ele>54</ele>
        <time>2021-05-27T11:55:00Z</time>
      </trkpt>
      <trkpt lat="47.70404" lon="-2.34826">
        <ele>54.1</ele>
        <time>2021-05-27T11:55:01Z</time>
      </trkpt>
      <trkpt lat="47.70406" lon="-2.34829">
        <ele>54.3</ele>
        <time>2021-05-27T11:55:02Z</time>
      </trkpt>
      <trkpt lat="47.70407" lon="-2.34833">
        <ele>54.4</ele>
        <time>2021-05-27T11:55:03Z</time>
      </trkpt>
      <trkpt lat="47.70409" lon="-2.34836">
        <ele>54.4</ele>
        <time>2021-05-27T11:55:04Z</time>
      </trkpt>
      <trkpt lat="47.7041" lon="-2.34839">
        <ele>54.6</ele>
        <time>2021-05-27T11:55:05Z</time>
      </trkpt>
      <trkpt lat="47.70411" lon="-2.34841">
        <ele>54.7</ele>
        <time>2021-05-27T11:55:06Z</time>
      </trkpt>
      <trkpt lat="47.70413" lon="-2.34844">
        <ele>54.9</ele>
        <time>2021-05-27T11:55:07Z</time>
      </trkpt>
      <trkpt lat="47.70414" lon="-2.34847">
        <ele>55</ele>
        <time>2021-05-27T11:55:08Z</time>
      </trkpt>
      <trkpt lat="47.70416" lon="-2.34849">
        <ele>55.1</ele>
        <time>2021-05-27T11:55:09Z</time>
      </trkpt>
      <trkpt lat="47.70417" lon="-2.34852">
        <ele>55.3</ele>
        <time>2021-05-27T11:55:10Z</time>
      </trkpt>
      <trkpt lat="47.70419" lon="-2.34857">
        <ele>55.4</ele>
        <time>2021-05-27T11:55:11Z</time>
      </trkpt>
      <trkpt lat="47.7042" lon="-2.34864">
        <ele>55.3</ele>
        <time>2021-05-27T11:55:12Z</time>
      </trkpt>
      <trkpt lat="47.70421" lon="-2.34868">
        <ele>55.5</ele>
        <time>2021-05-27T11:55:13Z</time>
      </trkpt>
      <trkpt lat="47.70422" lon="-2.34872">
        <ele>55.4</ele>
        <time>2021-05-27T11:55:14Z</time>
      </trkpt>
      <trkpt lat="47.70423" lon="-2.34875">
        <ele>55.5</ele>
        <time>2021-05-27T11:55:15Z</time>
      </trkpt>
      <trkpt lat="47.70425" lon="-2.34878">
        <ele>55.8</ele>
        <time>2021-05-27T11:55:16Z</time>
      </trkpt>
      <trkpt lat="47.70425" lon="-2.34881">
        <ele>55.8</ele>
        <time>2021-05-27T11:55:17Z</time>
      </trkpt>
      <trkpt lat="47.70426" lon="-2.34884">
        <ele>55.9</ele>
        <time>2021-05-27T11:55:18Z</time>
      </trkpt>
      <trkpt lat="47.70427" lon="-2.34887">
        <ele>55.9</ele>
        <time>2021-05-27T11:55:19Z</time>
      </trkpt>
      <trkpt lat="47.70427" lon="-2.34892">
        <ele>55.8</ele>
        <time>2021-05-27T11:55:20Z</time>
      </trkpt>
      <trkpt lat="47.70428" lon="-2.34896">
        <ele>55.8</ele>
        <time>2021-05-27T11:55:21Z</time>
      </trkpt>
      <trkpt lat="47.70429" lon="-2.34899">
        <ele>55.9</ele>
        <time>2021-05-27T11:55:22Z</time>
      </trkpt>
      <trkpt lat="47.70429" lon="-2.349">
        <ele>55.9</ele>
        <time>2021-05-27T11:55:23Z</time>
      </trkpt>
      <trkpt lat="47.70429" lon="-2.34902">
        <ele>55.9</ele>
        <time>2021-05-27T11:55:24Z</time>
      </trkpt>
      <trkpt lat="47.7043" lon="-2.34902">
        <ele>56.1</ele>
        <time>2021-05-27T11:55:25Z</time>
      </trkpt>
      <trkpt lat="47.7043" lon="-2.34902">
        <ele>56.1</ele>
        <time>2021-05-27T11:55:26Z</time>
      </trkpt>
      <trkpt lat="47.7043" lon="-2.34902">
        <ele>56.1</ele>
        <time>2021-05-27T11:55:27Z</time>
      </trkpt>
      <trkpt lat="47.7043" lon="-2.34902">
        <ele>56.1</ele>
        <time>2021-05-27T11:55:28Z</time>
      </trkpt>
      <trkpt lat="47.7043" lon="-2.34902">
        <ele>56.1</ele>
        <time>2021-05-27T11:55:29Z</time>
      </trkpt>
      <trkpt lat="47.7043" lon="-2.34902">
        <ele>56.1</ele>
        <time>2021-05-27T11:55:30Z</time>
      </trkpt>
      <trkpt lat="47.7043" lon="-2.34902">
        <ele>56.1</ele>
        <time>2021-05-27T11:55:31Z</time>
      </trkpt>
      <trkpt lat="47.7043" lon="-2.34902">
        <ele>56.1</ele>
        <time>2021-05-27T11:55:32Z</time>
      </trkpt>
      <trkpt lat="47.7043" lon="-2.34902">
        <ele>56.1</ele>
        <time>2021-05-27T11:55:33Z</time>
      </trkpt>
      <trkpt lat="47.7043" lon="-2.34902">
        <ele>56.1</ele>
        <time>2021-05-27T11:55:34Z</time>
      </trkpt>
      <trkpt lat="47.7043" lon="-2.34902">
        <ele>56.1</ele>
        <time>2021-05-27T11:55:35Z</time>
      </trkpt>
      <trkpt lat="47.7043" lon="-2.34902">
        <ele>56.1</ele>
        <time>2021-05-27T11:55:36Z</time>
      </trkpt>
      <trkpt lat="47.7043" lon="-2.34902">
        <ele>56.1</ele>
        <time>2021-05-27T11:55:37Z</time>
      </trkpt>
      <trkpt lat="47.7043" lon="-2.34902">
        <ele>56.1</ele>
        <time>2021-05-27T11:55:38Z</time>
      </trkpt>
      <trkpt lat="47.70435" lon="-2.34905">
        <ele>57</ele>
        <time>2021-05-27T11:55:39Z</time>
      </trkpt>
      <trkpt lat="47.70434" lon="-2.34907">
        <ele>56.8</ele>
        <time>2021-05-27T11:55:40Z</time>
      </trkpt>
      <trkpt lat="47.70434" lon="-2.34911">
        <ele>56.7</ele>
        <time>2021-05-27T11:55:41Z</time>
      </trkpt>
      <trkpt lat="47.70435" lon="-2.34915">
        <ele>56.7</ele>
        <time>2021-05-27T11:55:42Z</time>
      </trkpt>
      <trkpt lat="47.70435" lon="-2.34919">
        <ele>56.7</ele>
        <time>2021-05-27T11:55:43Z</time>
      </trkpt>
      <trkpt lat="47.70436" lon="-2.34922">
        <ele>56.9</ele>
        <time>2021-05-27T11:55:44Z</time>
      </trkpt>
      <trkpt lat="47.70437" lon="-2.34925">
        <ele>57.2</ele>
        <time>2021-05-27T11:55:45Z</time>
      </trkpt>
      <trkpt lat="47.70438" lon="-2.34929">
        <ele>57.3</ele>
        <time>2021-05-27T11:55:46Z</time>
      </trkpt>
      <trkpt lat="47.70439" lon="-2.34932">
        <ele>57.4</ele>
        <time>2021-05-27T11:55:47Z</time>
      </trkpt>
      <trkpt lat="47.70439" lon="-2.34935">
        <ele>57.6</ele>
        <time>2021-05-27T11:55:48Z</time>
      </trkpt>
      <trkpt lat="47.7044" lon="-2.34938">
        <ele>57.7</ele>
        <time>2021-05-27T11:55:49Z</time>
      </trkpt>
      <trkpt lat="47.70441" lon="-2.3494">
        <ele>58</ele>
        <time>2021-05-27T11:55:50Z</time>
      </trkpt>
      <trkpt lat="47.70442" lon="-2.34943">
        <ele>58.1</ele>
        <time>2021-05-27T11:55:51Z</time>
      </trkpt>
      <trkpt lat="47.70442" lon="-2.34946">
        <ele>58.2</ele>
        <time>2021-05-27T11:55:52Z</time>
      </trkpt>
      <trkpt lat="47.70444" lon="-2.3495">
        <ele>58.6</ele>
        <time>2021-05-27T11:55:53Z</time>
      </trkpt>
      <trkpt lat="47.70446" lon="-2.34953">
        <ele>59.1</ele>
        <time>2021-05-27T11:55:54Z</time>
      </trkpt>
      <trkpt lat="47.70447" lon="-2.34955">
        <ele>59.3</ele>
        <time>2021-05-27T11:55:55Z</time>
      </trkpt>
      <trkpt lat="47.70448" lon="-2.34958">
        <ele>59.4</ele>
        <time>2021-05-27T11:55:56Z</time>
      </trkpt>
      <trkpt lat="47.70449" lon="-2.34961">
        <ele>59.6</ele>
        <time>2021-05-27T11:55:57Z</time>
      </trkpt>
      <trkpt lat="47.7045" lon="-2.34964">
        <ele>59.9</ele>
        <time>2021-05-27T11:55:58Z</time>
      </trkpt>
      <trkpt lat="47.70451" lon="-2.34968">
        <ele>60.2</ele>
        <time>2021-05-27T11:55:59Z</time>
      </trkpt>
      <trkpt lat="47.70452" lon="-2.34972">
        <ele>60.4</ele>
        <time>2021-05-27T11:56:00Z</time>
      </trkpt>
      <trkpt lat="47.70453" lon="-2.34975">
        <ele>60.7</ele>
        <time>2021-05-27T11:56:01Z</time>
      </trkpt>
      <trkpt lat="47.70454" lon="-2.3498">
        <ele>60.8</ele>
        <time>2021-05-27T11:56:02Z</time>
      </trkpt>
      <trkpt lat="47.70455" lon="-2.34984">
        <ele>60.8</ele>
        <time>2021-05-27T11:56:03Z</time>
      </trkpt>
      <trkpt lat="47.70456" lon="-2.34988">
        <ele>61</ele>
        <time>2021-05-27T11:56:04Z</time>
      </trkpt>
      <trkpt lat="47.70456" lon="-2.34993">
        <ele>61</ele>
        <time>2021-05-27T11:56:05Z</time>
      </trkpt>
      <trkpt lat="47.70456" lon="-2.34997">
        <ele>61.1</ele>
        <time>2021-05-27T11:56:06Z</time>
      </trkpt>
      <trkpt lat="47.70458" lon="-2.35001">
        <ele>61.5</ele>
        <time>2021-05-27T11:56:07Z</time>
      </trkpt>
      <trkpt lat="47.7046" lon="-2.35004">
        <ele>61.9</ele>
        <time>2021-05-27T11:56:08Z</time>
      </trkpt>
      <trkpt lat="47.70462" lon="-2.35007">
        <ele>62.2</ele>
        <time>2021-05-27T11:56:09Z</time>
      </trkpt>
      <trkpt lat="47.70462" lon="-2.3501">
        <ele>62.2</ele>
        <time>2021-05-27T11:56:10Z</time>
      </trkpt>
      <trkpt lat="47.70462" lon="-2.35014">
        <ele>62.3</ele>
        <time>2021-05-27T11:56:11Z</time>
      </trkpt>
      <trkpt lat="47.70465" lon="-2.35018">
        <ele>62.8</ele>
        <time>2021-05-27T11:56:12Z</time>
      </trkpt>
      <trkpt lat="47.70467" lon="-2.3502">
        <ele>63.2</ele>
        <time>2021-05-27T11:56:13Z</time>
      </trkpt>
      <trkpt lat="47.70468" lon="-2.35023">
        <ele>63.4</ele>
        <time>2021-05-27T11:56:14Z</time>
      </trkpt>
      <trkpt lat="47.70469" lon="-2.35026">
        <ele>63.5</ele>
        <time>2021-05-27T11:56:15Z</time>
      </trkpt>
      <trkpt lat="47.70469" lon="-2.3503">
        <ele>63.7</ele>
        <time>2021-05-27T11:56:16Z</time>
      </trkpt>
      <trkpt lat="47.7047" lon="-2.35033">
        <ele>63.8</ele>
        <time>2021-05-27T11:56:17Z</time>
      </trkpt>
      <trkpt lat="47.70471" lon="-2.35037">
        <ele>63.9</ele>
        <time>2021-05-27T11:56:18Z</time>
      </trkpt>
      <trkpt lat="47.70472" lon="-2.35041">
        <ele>64.1</ele>
        <time>2021-05-27T11:56:19Z</time>
      </trkpt>
      <trkpt lat="47.70473" lon="-2.35045">
        <ele>64.4</ele>
        <time>2021-05-27T11:56:20Z</time>
      </trkpt>
      <trkpt lat="47.70475" lon="-2.3505">
        <ele>64.5</ele>
        <time>2021-05-27T11:56:21Z</time>
      </trkpt>
      <trkpt lat="47.70476" lon="-2.35054">
        <ele>64.7</ele>
        <time>2021-05-27T11:56:22Z</time>
      </trkpt>
      <trkpt lat="47.70477" lon="-2.35057">
        <ele>65</ele>
        <time>2021-05-27T11:56:23Z</time>
      </trkpt>
      <trkpt lat="47.70478" lon="-2.3506">
        <ele>65.1</ele>
        <time>2021-05-27T11:56:24Z</time>
      </trkpt>
      <trkpt lat="47.70479" lon="-2.35063">
        <ele>65.2</ele>
        <time>2021-05-27T11:56:25Z</time>
      </trkpt>
      <trkpt lat="47.70479" lon="-2.35067">
        <ele>65.2</ele>
        <time>2021-05-27T11:56:26Z</time>
      </trkpt>
      <trkpt lat="47.70479" lon="-2.3507">
        <ele>65.2</ele>
        <time>2021-05-27T11:56:27Z</time>
      </trkpt>
      <trkpt lat="47.70479" lon="-2.35072">
        <ele>65.1</ele>
        <time>2021-05-27T11:56:28Z</time>
      </trkpt>
      <trkpt lat="47.70478" lon="-2.35074">
        <ele>64.8</ele>
        <time>2021-05-27T11:56:29Z</time>
      </trkpt>
      <trkpt lat="47.70478" lon="-2.35074">
        <ele>64.8</ele>
        <time>2021-05-27T11:56:30Z</time>
      </trkpt>
      <trkpt lat="47.70478" lon="-2.35074">
        <ele>64.8</ele>
        <time>2021-05-27T11:56:31Z</time>
      </trkpt>
      <trkpt lat="47.70478" lon="-2.35074">
        <ele>64.8</ele>
        <time>2021-05-27T11:56:32Z</time>
      </trkpt>
      <trkpt lat="47.70478" lon="-2.35074">
        <ele>64.8</ele>
        <time>2021-05-27T11:56:33Z</time>
      </trkpt>
      <trkpt lat="47.70478" lon="-2.35074">
        <ele>64.8</ele>
        <time>2021-05-27T11:56:34Z</time>
      </trkpt>
      <trkpt lat="47.70477" lon="-2.35086">
        <ele>64.5</ele>
        <time>2021-05-27T11:56:35Z</time>
      </trkpt>
      <trkpt lat="47.70479" lon="-2.35092">
        <ele>64.7</ele>
        <time>2021-05-27T11:56:36Z</time>
      </trkpt>
      <trkpt lat="47.7048" lon="-2.35096">
        <ele>64.7</ele>
        <time>2021-05-27T11:56:37Z</time>
      </trkpt>
      <trkpt lat="47.70481" lon="-2.35099">
        <ele>64.8</ele>
        <time>2021-05-27T11:56:38Z</time>
      </trkpt>
      <trkpt lat="47.70481" lon="-2.35101">
        <ele>64.8</ele>
        <time>2021-05-27T11:56:39Z</time>
      </trkpt>
      <trkpt lat="47.70482" lon="-2.35103">
        <ele>64.8</ele>
        <time>2021-05-27T11:56:40Z</time>
      </trkpt>
      <trkpt lat="47.70482" lon="-2.35106">
        <ele>64.7</ele>
        <time>2021-05-27T11:56:41Z</time>
      </trkpt>
      <trkpt lat="47.70482" lon="-2.35109">
        <ele>64.6</ele>
        <time>2021-05-27T11:56:42Z</time>
      </trkpt>
      <trkpt lat="47.70483" lon="-2.35112">
        <ele>64.7</ele>
        <time>2021-05-27T11:56:43Z</time>
      </trkpt>
      <trkpt lat="47.70484" lon="-2.35116">
        <ele>64.8</ele>
        <time>2021-05-27T11:56:44Z</time>
      </trkpt>
      <trkpt lat="47.70484" lon="-2.3512">
        <ele>64.7</ele>
        <time>2021-05-27T11:56:45Z</time>
      </trkpt>
      <trkpt lat="47.70484" lon="-2.35126">
        <ele>64.4</ele>
        <time>2021-05-27T11:56:46Z</time>
      </trkpt>
      <trkpt lat="47.70485" lon="-2.35132">
        <ele>64.5</ele>
        <time>2021-05-27T11:56:47Z</time>
      </trkpt>
      <trkpt lat="47.70486" lon="-2.35139">
        <ele>64.4</ele>
        <time>2021-05-27T11:56:48Z</time>
      </trkpt>
      <trkpt lat="47.70485" lon="-2.35146">
        <ele>64</ele>
        <time>2021-05-27T11:56:49Z</time>
      </trkpt>
      <trkpt lat="47.70484" lon="-2.35153">
        <ele>63.6</ele>
        <time>2021-05-27T11:56:50Z</time>
      </trkpt>
      <trkpt lat="47.70483" lon="-2.35159">
        <ele>63.2</ele>
        <time>2021-05-27T11:56:51Z</time>
      </trkpt>
      <trkpt lat="47.70482" lon="-2.35163">
        <ele>62.9</ele>
        <time>2021-05-27T11:56:52Z</time>
      </trkpt>
      <trkpt lat="47.70481" lon="-2.35168">
        <ele>62.6</ele>
        <time>2021-05-27T11:56:53Z</time>
      </trkpt>
      <trkpt lat="47.70479" lon="-2.35172">
        <ele>62.1</ele>
        <time>2021-05-27T11:56:54Z</time>
      </trkpt>
      <trkpt lat="47.70477" lon="-2.35177">
        <ele>61.7</ele>
        <time>2021-05-27T11:56:55Z</time>
      </trkpt>
      <trkpt lat="47.70474" lon="-2.35183">
        <ele>61.2</ele>
        <time>2021-05-27T11:56:56Z</time>
      </trkpt>
      <trkpt lat="47.70471" lon="-2.35189">
        <ele>60.5</ele>
        <time>2021-05-27T11:56:57Z</time>
      </trkpt>
      <trkpt lat="47.70467" lon="-2.35195">
        <ele>59.8</ele>
        <time>2021-05-27T11:56:58Z</time>
      </trkpt>
      <trkpt lat="47.70464" lon="-2.35199">
        <ele>59.2</ele>
        <time>2021-05-27T11:56:59Z</time>
      </trkpt>
      <trkpt lat="47.7046" lon="-2.35202">
        <ele>58.4</ele>
        <time>2021-05-27T11:57:00Z</time>
      </trkpt>
      <trkpt lat="47.70456" lon="-2.35206">
        <ele>57.6</ele>
        <time>2021-05-27T11:57:01Z</time>
      </trkpt>
      <trkpt lat="47.70452" lon="-2.35211">
        <ele>56.8</ele>
        <time>2021-05-27T11:57:02Z</time>
      </trkpt>
      <trkpt lat="47.70448" lon="-2.35216">
        <ele>56</ele>
        <time>2021-05-27T11:57:03Z</time>
      </trkpt>
      <trkpt lat="47.70443" lon="-2.35221">
        <ele>55.2</ele>
        <time>2021-05-27T11:57:04Z</time>
      </trkpt>
      <trkpt lat="47.70438" lon="-2.35227">
        <ele>54.1</ele>
        <time>2021-05-27T11:57:05Z</time>
      </trkpt>
      <trkpt lat="47.70434" lon="-2.3523">
        <ele>53.3</ele>
        <time>2021-05-27T11:57:06Z</time>
      </trkpt>
      <trkpt lat="47.70429" lon="-2.35231">
        <ele>52.5</ele>
        <time>2021-05-27T11:57:07Z</time>
      </trkpt>
      <trkpt lat="47.70425" lon="-2.35232">
        <ele>51.8</ele>
        <time>2021-05-27T11:57:08Z</time>
      </trkpt>
      <trkpt lat="47.70423" lon="-2.35232">
        <ele>51.4</ele>
        <time>2021-05-27T11:57:09Z</time>
      </trkpt>
      <trkpt lat="47.70421" lon="-2.35234">
        <ele>50.9</ele>
        <time>2021-05-27T11:57:10Z</time>
      </trkpt>
      <trkpt lat="47.7042" lon="-2.35237">
        <ele>50.7</ele>
        <time>2021-05-27T11:57:11Z</time>
      </trkpt>
      <trkpt lat="47.7042" lon="-2.35241">
        <ele>50.6</ele>
        <time>2021-05-27T11:57:12Z</time>
      </trkpt>
      <trkpt lat="47.7042" lon="-2.35247">
        <ele>50.6</ele>
        <time>2021-05-27T11:57:13Z</time>
      </trkpt>
      <trkpt lat="47.7042" lon="-2.35251">
        <ele>50.7</ele>
        <time>2021-05-27T11:57:14Z</time>
      </trkpt>
      <trkpt lat="47.70421" lon="-2.35258">
        <ele>50.7</ele>
        <time>2021-05-27T11:57:15Z</time>
      </trkpt>
      <trkpt lat="47.70421" lon="-2.35264">
        <ele>50.7</ele>
        <time>2021-05-27T11:57:16Z</time>
      </trkpt>
      <trkpt lat="47.70421" lon="-2.35271">
        <ele>50.5</ele>
        <time>2021-05-27T11:57:17Z</time>
      </trkpt>
      <trkpt lat="47.7042" lon="-2.35278">
        <ele>50.3</ele>
        <time>2021-05-27T11:57:18Z</time>
      </trkpt>
      <trkpt lat="47.7042" lon="-2.35283">
        <ele>50.3</ele>
        <time>2021-05-27T11:57:19Z</time>
      </trkpt>
      <trkpt lat="47.7042" lon="-2.35288">
        <ele>50.2</ele>
        <time>2021-05-27T11:57:20Z</time>
      </trkpt>
      <trkpt lat="47.7042" lon="-2.35293">
        <ele>50.1</ele>
        <time>2021-05-27T11:57:21Z</time>
      </trkpt>
      <trkpt lat="47.7042" lon="-2.35298">
        <ele>50.1</ele>
        <time>2021-05-27T11:57:22Z</time>
      </trkpt>
      <trkpt lat="47.7042" lon="-2.35304">
        <ele>49.9</ele>
        <time>2021-05-27T11:57:23Z</time>
      </trkpt>
      <trkpt lat="47.7042" lon="-2.35308">
        <ele>49.8</ele>
        <time>2021-05-27T11:57:24Z</time>
      </trkpt>
      <trkpt lat="47.70417" lon="-2.35317">
        <ele>49.3</ele>
        <time>2021-05-27T11:57:25Z</time>
      </trkpt>
      <trkpt lat="47.70416" lon="-2.35323">
        <ele>49.1</ele>
        <time>2021-05-27T11:57:26Z</time>
      </trkpt>
      <trkpt lat="47.70415" lon="-2.35327">
        <ele>49</ele>
        <time>2021-05-27T11:57:27Z</time>
      </trkpt>
      <trkpt lat="47.70415" lon="-2.35334">
        <ele>48.9</ele>
        <time>2021-05-27T11:57:28Z</time>
      </trkpt>
      <trkpt lat="47.70414" lon="-2.35341">
        <ele>49</ele>
        <time>2021-05-27T11:57:29Z</time>
      </trkpt>
      <trkpt lat="47.70413" lon="-2.35349">
        <ele>49</ele>
        <time>2021-05-27T11:57:30Z</time>
      </trkpt>
      <trkpt lat="47.70412" lon="-2.35356">
        <ele>49</ele>
        <time>2021-05-27T11:57:31Z</time>
      </trkpt>
      <trkpt lat="47.70412" lon="-2.35362">
        <ele>49.1</ele>
        <time>2021-05-27T11:57:32Z</time>
      </trkpt>
      <trkpt lat="47.70412" lon="-2.3537">
        <ele>49.2</ele>
        <time>2021-05-27T11:57:33Z</time>
      </trkpt>
      <trkpt lat="47.70412" lon="-2.35376">
        <ele>49.3</ele>
        <time>2021-05-27T11:57:34Z</time>
      </trkpt>
      <trkpt lat="47.7041" lon="-2.35386">
        <ele>49.3</ele>
        <time>2021-05-27T11:57:35Z</time>
      </trkpt>
      <trkpt lat="47.70407" lon="-2.35395">
        <ele>49.3</ele>
        <time>2021-05-27T11:57:36Z</time>
      </trkpt>
      <trkpt lat="47.70407" lon="-2.35401">
        <ele>49.4</ele>
        <time>2021-05-27T11:57:37Z</time>
      </trkpt>
      <trkpt lat="47.70406" lon="-2.35408">
        <ele>49.4</ele>
        <time>2021-05-27T11:57:38Z</time>
      </trkpt>
      <trkpt lat="47.70402" lon="-2.35415">
        <ele>49.3</ele>
        <time>2021-05-27T11:57:39Z</time>
      </trkpt>
      <trkpt lat="47.704" lon="-2.3542">
        <ele>49.2</ele>
        <time>2021-05-27T11:57:40Z</time>
      </trkpt>
      <trkpt lat="47.704" lon="-2.35426">
        <ele>49.3</ele>
        <time>2021-05-27T11:57:41Z</time>
      </trkpt>
      <trkpt lat="47.704" lon="-2.35431">
        <ele>49.3</ele>
        <time>2021-05-27T11:57:42Z</time>
      </trkpt>
      <trkpt lat="47.704" lon="-2.35438">
        <ele>49.4</ele>
        <time>2021-05-27T11:57:43Z</time>
      </trkpt>
      <trkpt lat="47.70401" lon="-2.35444">
        <ele>49.5</ele>
        <time>2021-05-27T11:57:44Z</time>
      </trkpt>
      <trkpt lat="47.70401" lon="-2.35451">
        <ele>49.6</ele>
        <time>2021-05-27T11:57:45Z</time>
      </trkpt>
      <trkpt lat="47.70401" lon="-2.35458">
        <ele>49.6</ele>
        <time>2021-05-27T11:57:46Z</time>
      </trkpt>
      <trkpt lat="47.704" lon="-2.35464">
        <ele>49.7</ele>
        <time>2021-05-27T11:57:47Z</time>
      </trkpt>
      <trkpt lat="47.70401" lon="-2.3547">
        <ele>49.7</ele>
        <time>2021-05-27T11:57:48Z</time>
      </trkpt>
      <trkpt lat="47.70402" lon="-2.35476">
        <ele>49.8</ele>
        <time>2021-05-27T11:57:49Z</time>
      </trkpt>
      <trkpt lat="47.70403" lon="-2.35481">
        <ele>49.8</ele>
        <time>2021-05-27T11:57:50Z</time>
      </trkpt>
      <trkpt lat="47.70403" lon="-2.35487">
        <ele>49.9</ele>
        <time>2021-05-27T11:57:51Z</time>
      </trkpt>
      <trkpt lat="47.70404" lon="-2.35494">
        <ele>50</ele>
        <time>2021-05-27T11:57:52Z</time>
      </trkpt>
      <trkpt lat="47.70405" lon="-2.35502">
        <ele>50</ele>
        <time>2021-05-27T11:57:53Z</time>
      </trkpt>
      <trkpt lat="47.70407" lon="-2.3551">
        <ele>50.2</ele>
        <time>2021-05-27T11:57:54Z</time>
      </trkpt>
      <trkpt lat="47.70408" lon="-2.35516">
        <ele>50.4</ele>
        <time>2021-05-27T11:57:55Z</time>
      </trkpt>
      <trkpt lat="47.70409" lon="-2.35523">
        <ele>50.5</ele>
        <time>2021-05-27T11:57:56Z</time>
      </trkpt>
      <trkpt lat="47.7041" lon="-2.35529">
        <ele>50.7</ele>
        <time>2021-05-27T11:57:57Z</time>
      </trkpt>
      <trkpt lat="47.7041" lon="-2.35536">
        <ele>50.8</ele>
        <time>2021-05-27T11:57:58Z</time>
      </trkpt>
      <trkpt lat="47.7041" lon="-2.35544">
        <ele>51</ele>
        <time>2021-05-27T11:57:59Z</time>
      </trkpt>
      <trkpt lat="47.7041" lon="-2.3555">
        <ele>51.2</ele>
        <time>2021-05-27T11:58:00Z</time>
      </trkpt>
      <trkpt lat="47.7041" lon="-2.35556">
        <ele>51.3</ele>
        <time>2021-05-27T11:58:01Z</time>
      </trkpt>
      <trkpt lat="47.7041" lon="-2.35562">
        <ele>51.4</ele>
        <time>2021-05-27T11:58:02Z</time>
      </trkpt>
      <trkpt lat="47.7041" lon="-2.35568">
        <ele>51.6</ele>
        <time>2021-05-27T11:58:03Z</time>
      </trkpt>
      <trkpt lat="47.7041" lon="-2.35573">
        <ele>51.7</ele>
        <time>2021-05-27T11:58:04Z</time>
      </trkpt>
      <trkpt lat="47.70411" lon="-2.35578">
        <ele>51.8</ele>
        <time>2021-05-27T11:58:05Z</time>
      </trkpt>
      <trkpt lat="47.70412" lon="-2.35581">
        <ele>51.9</ele>
        <time>2021-05-27T11:58:06Z</time>
      </trkpt>
      <trkpt lat="47.70412" lon="-2.35586">
        <ele>52</ele>
        <time>2021-05-27T11:58:07Z</time>
      </trkpt>
      <trkpt lat="47.70412" lon="-2.35591">
        <ele>52</ele>
        <time>2021-05-27T11:58:08Z</time>
      </trkpt>
      <trkpt lat="47.70412" lon="-2.35595">
        <ele>52.1</ele>
        <time>2021-05-27T11:58:09Z</time>
      </trkpt>
      <trkpt lat="47.70413" lon="-2.356">
        <ele>52.1</ele>
        <time>2021-05-27T11:58:10Z</time>
      </trkpt>
      <trkpt lat="47.70414" lon="-2.35606">
        <ele>52.2</ele>
        <time>2021-05-27T11:58:11Z</time>
      </trkpt>
      <trkpt lat="47.70416" lon="-2.35614">
        <ele>52.4</ele>
        <time>2021-05-27T11:58:12Z</time>
      </trkpt>
      <trkpt lat="47.70417" lon="-2.35619">
        <ele>52.6</ele>
        <time>2021-05-27T11:58:13Z</time>
      </trkpt>
      <trkpt lat="47.70419" lon="-2.35624">
        <ele>52.9</ele>
        <time>2021-05-27T11:58:14Z</time>
      </trkpt>
      <trkpt lat="47.7042" lon="-2.35628">
        <ele>53.2</ele>
        <time>2021-05-27T11:58:15Z</time>
      </trkpt>
      <trkpt lat="47.70422" lon="-2.35632">
        <ele>53.5</ele>
        <time>2021-05-27T11:58:16Z</time>
      </trkpt>
      <trkpt lat="47.70423" lon="-2.35636">
        <ele>53.8</ele>
        <time>2021-05-27T11:58:17Z</time>
      </trkpt>
      <trkpt lat="47.70424" lon="-2.3564">
        <ele>54.1</ele>
        <time>2021-05-27T11:58:18Z</time>
      </trkpt>
      <trkpt lat="47.70426" lon="-2.35646">
        <ele>54.4</ele>
        <time>2021-05-27T11:58:19Z</time>
      </trkpt>
      <trkpt lat="47.70427" lon="-2.35651">
        <ele>54.7</ele>
        <time>2021-05-27T11:58:20Z</time>
      </trkpt>
      <trkpt lat="47.7043" lon="-2.35657">
        <ele>55.2</ele>
        <time>2021-05-27T11:58:21Z</time>
      </trkpt>
      <trkpt lat="47.70432" lon="-2.35663">
        <ele>55.6</ele>
        <time>2021-05-27T11:58:22Z</time>
      </trkpt>
      <trkpt lat="47.70433" lon="-2.35668">
        <ele>55.9</ele>
        <time>2021-05-27T11:58:23Z</time>
      </trkpt>
      <trkpt lat="47.70435" lon="-2.35674">
        <ele>56</ele>
        <time>2021-05-27T11:58:24Z</time>
      </trkpt>
      <trkpt lat="47.70435" lon="-2.35679">
        <ele>55.9</ele>
        <time>2021-05-27T11:58:25Z</time>
      </trkpt>
      <trkpt lat="47.70436" lon="-2.35684">
        <ele>55.9</ele>
        <time>2021-05-27T11:58:26Z</time>
      </trkpt>
      <trkpt lat="47.70437" lon="-2.35688">
        <ele>55.9</ele>
        <time>2021-05-27T11:58:27Z</time>
      </trkpt>
      <trkpt lat="47.70439" lon="-2.35693">
        <ele>56.1</ele>
        <time>2021-05-27T11:58:28Z</time>
      </trkpt>
      <trkpt lat="47.7044" lon="-2.35697">
        <ele>56.1</ele>
        <time>2021-05-27T11:58:29Z</time>
      </trkpt>
      <trkpt lat="47.70442" lon="-2.357">
        <ele>56.3</ele>
        <time>2021-05-27T11:58:30Z</time>
      </trkpt>
      <trkpt lat="47.70443" lon="-2.35704">
        <ele>56.4</ele>
        <time>2021-05-27T11:58:31Z</time>
      </trkpt>
      <trkpt lat="47.70444" lon="-2.35707">
        <ele>56.4</ele>
        <time>2021-05-27T11:58:32Z</time>
      </trkpt>
      <trkpt lat="47.70444" lon="-2.3571">
        <ele>56.4</ele>
        <time>2021-05-27T11:58:33Z</time>
      </trkpt>
      <trkpt lat="47.70444" lon="-2.35714">
        <ele>56.3</ele>
        <time>2021-05-27T11:58:34Z</time>
      </trkpt>
      <trkpt lat="47.70444" lon="-2.35717">
        <ele>56.1</ele>
        <time>2021-05-27T11:58:35Z</time>
      </trkpt>
      <trkpt lat="47.70444" lon="-2.35721">
        <ele>56</ele>
        <time>2021-05-27T11:58:36Z</time>
      </trkpt>
      <trkpt lat="47.70444" lon="-2.35724">
        <ele>55.9</ele>
        <time>2021-05-27T11:58:37Z</time>
      </trkpt>
      <trkpt lat="47.70444" lon="-2.35727">
        <ele>55.8</ele>
        <time>2021-05-27T11:58:38Z</time>
      </trkpt>
      <trkpt lat="47.70443" lon="-2.35728">
        <ele>55.6</ele>
        <time>2021-05-27T11:58:39Z</time>
      </trkpt>
      <trkpt lat="47.70443" lon="-2.35728">
        <ele>55.6</ele>
        <time>2021-05-27T11:58:40Z</time>
      </trkpt>
      <trkpt lat="47.70443" lon="-2.35729">
        <ele>55.6</ele>
        <time>2021-05-27T11:58:41Z</time>
      </trkpt>
      <trkpt lat="47.70447" lon="-2.35744">
        <ele>55.7</ele>
        <time>2021-05-27T12:02:43Z</time>
      </trkpt>
      <trkpt lat="47.70447" lon="-2.35752">
        <ele>55.4</ele>
        <time>2021-05-27T12:02:44Z</time>
      </trkpt>
      <trkpt lat="47.70446" lon="-2.3576">
        <ele>55.1</ele>
        <time>2021-05-27T12:02:45Z</time>
      </trkpt>
      <trkpt lat="47.70446" lon="-2.35765">
        <ele>54.9</ele>
        <time>2021-05-27T12:02:46Z</time>
      </trkpt>
      <trkpt lat="47.70446" lon="-2.3577">
        <ele>54.7</ele>
        <time>2021-05-27T12:02:47Z</time>
      </trkpt>
      <trkpt lat="47.70446" lon="-2.35774">
        <ele>54.6</ele>
        <time>2021-05-27T12:02:48Z</time>
      </trkpt>
      <trkpt lat="47.70446" lon="-2.35777">
        <ele>54.5</ele>
        <time>2021-05-27T12:02:49Z</time>
      </trkpt>
      <trkpt lat="47.70446" lon="-2.35779">
        <ele>54.4</ele>
        <time>2021-05-27T12:02:50Z</time>
      </trkpt>
      <trkpt lat="47.70446" lon="-2.35779">
        <ele>54.5</ele>
        <time>2021-05-27T12:02:51Z</time>
      </trkpt>
      <trkpt lat="47.70447" lon="-2.3578">
        <ele>54.6</ele>
        <time>2021-05-27T12:02:52Z</time>
      </trkpt>
      <trkpt lat="47.70447" lon="-2.3578">
        <ele>54.6</ele>
        <time>2021-05-27T12:02:53Z</time>
      </trkpt>
      <trkpt lat="47.70447" lon="-2.3578">
        <ele>54.6</ele>
        <time>2021-05-27T12:02:54Z</time>
      </trkpt>
      <trkpt lat="47.70447" lon="-2.3578">
        <ele>54.6</ele>
        <time>2021-05-27T12:02:55Z</time>
      </trkpt>
      <trkpt lat="47.70447" lon="-2.3578">
        <ele>54.6</ele>
        <time>2021-05-27T12:02:56Z</time>
      </trkpt>
      <trkpt lat="47.70447" lon="-2.3578">
        <ele>54.6</ele>
        <time>2021-05-27T12:02:57Z</time>
      </trkpt>
      <trkpt lat="47.70447" lon="-2.3578">
        <ele>54.6</ele>
        <time>2021-05-27T12:02:58Z</time>
      </trkpt>
      <trkpt lat="47.70447" lon="-2.3578">
        <ele>54.6</ele>
        <time>2021-05-27T12:02:59Z</time>
      </trkpt>
      <trkpt lat="47.70447" lon="-2.3578">
        <ele>54.6</ele>
        <time>2021-05-27T12:03:00Z</time>
      </trkpt>
      <trkpt lat="47.70447" lon="-2.3578">
        <ele>54.6</ele>
        <time>2021-05-27T12:03:01Z</time>
      </trkpt>
      <trkpt lat="47.70447" lon="-2.3578">
        <ele>54.6</ele>
        <time>2021-05-27T12:03:02Z</time>
      </trkpt>
      <trkpt lat="47.70447" lon="-2.3578">
        <ele>54.6</ele>
        <time>2021-05-27T12:03:03Z</time>
      </trkpt>
      <trkpt lat="47.70447" lon="-2.3578">
        <ele>54.6</ele>
        <time>2021-05-27T12:03:04Z</time>
      </trkpt>
      <trkpt lat="47.70447" lon="-2.3578">
        <ele>54.6</ele>
        <time>2021-05-27T12:03:05Z</time>
      </trkpt>
      <trkpt lat="47.70447" lon="-2.3578">
        <ele>54.6</ele>
        <time>2021-05-27T12:03:06Z</time>
      </trkpt>
      <trkpt lat="47.70447" lon="-2.3578">
        <ele>54.6</ele>
        <time>2021-05-27T12:03:07Z</time>
      </trkpt>
      <trkpt lat="47.70452" lon="-2.35791">
        <ele>55.3</ele>
        <time>2021-05-27T12:03:08Z</time>
      </trkpt>
      <trkpt lat="47.70453" lon="-2.35791">
        <ele>55.3</ele>
        <time>2021-05-27T12:03:09Z</time>
      </trkpt>
      <trkpt lat="47.70453" lon="-2.35792">
        <ele>55.3</ele>
        <time>2021-05-27T12:03:10Z</time>
      </trkpt>
      <trkpt lat="47.70453" lon="-2.35793">
        <ele>55.4</ele>
        <time>2021-05-27T12:03:11Z</time>
      </trkpt>
      <trkpt lat="47.70453" lon="-2.35793">
        <ele>55.4</ele>
        <time>2021-05-27T12:03:12Z</time>
      </trkpt>
      <trkpt lat="47.70453" lon="-2.35793">
        <ele>55.4</ele>
        <time>2021-05-27T12:03:13Z</time>
      </trkpt>
      <trkpt lat="47.70453" lon="-2.35793">
        <ele>55.4</ele>
        <time>2021-05-27T12:03:14Z</time>
      </trkpt>
      <trkpt lat="47.70453" lon="-2.35793">
        <ele>55.4</ele>
        <time>2021-05-27T12:03:15Z</time>
      </trkpt>
      <trkpt lat="47.70453" lon="-2.35793">
        <ele>55.4</ele>
        <time>2021-05-27T12:03:16Z</time>
      </trkpt>
      <trkpt lat="47.70453" lon="-2.35793">
        <ele>55.4</ele>
        <time>2021-05-27T12:03:17Z</time>
      </trkpt>
      <trkpt lat="47.70453" lon="-2.35793">
        <ele>55.4</ele>
        <time>2021-05-27T12:03:18Z</time>
      </trkpt>
      <trkpt lat="47.70453" lon="-2.35793">
        <ele>55.4</ele>
        <time>2021-05-27T12:03:19Z</time>
      </trkpt>
      <trkpt lat="47.70453" lon="-2.35793">
        <ele>55.4</ele>
        <time>2021-05-27T12:03:20Z</time>
      </trkpt>
      <trkpt lat="47.70453" lon="-2.35793">
        <ele>55.4</ele>
        <time>2021-05-27T12:03:21Z</time>
      </trkpt>
      <trkpt lat="47.70453" lon="-2.35793">
        <ele>55.4</ele>
        <time>2021-05-27T12:03:22Z</time>
      </trkpt>
      <trkpt lat="47.70453" lon="-2.35793">
        <ele>55.4</ele>
        <time>2021-05-27T12:03:23Z</time>
      </trkpt>
      <trkpt lat="47.70453" lon="-2.35793">
        <ele>55.4</ele>
        <time>2021-05-27T12:03:24Z</time>
      </trkpt>
      <trkpt lat="47.70453" lon="-2.35793">
        <ele>55.4</ele>
        <time>2021-05-27T12:03:25Z</time>
      </trkpt>
      <trkpt lat="47.70453" lon="-2.35793">
        <ele>55.4</ele>
        <time>2021-05-27T12:03:26Z</time>
      </trkpt>
      <trkpt lat="47.70459" lon="-2.35805">
        <ele>56</ele>
        <time>2021-05-27T12:03:27Z</time>
      </trkpt>
      <trkpt lat="47.7046" lon="-2.35808">
        <ele>56</ele>
        <time>2021-05-27T12:03:28Z</time>
      </trkpt>
      <trkpt lat="47.7046" lon="-2.3581">
        <ele>56</ele>
        <time>2021-05-27T12:03:29Z</time>
      </trkpt>
      <trkpt lat="47.7046" lon="-2.35815">
        <ele>55.9</ele>
        <time>2021-05-27T12:03:30Z</time>
      </trkpt>
      <trkpt lat="47.70461" lon="-2.3582">
        <ele>55.8</ele>
        <time>2021-05-27T12:03:31Z</time>
      </trkpt>
      <trkpt lat="47.70461" lon="-2.35823">
        <ele>55.8</ele>
        <time>2021-05-27T12:03:32Z</time>
      </trkpt>
      <trkpt lat="47.70462" lon="-2.35826">
        <ele>55.8</ele>
        <time>2021-05-27T12:03:33Z</time>
      </trkpt>
      <trkpt lat="47.70462" lon="-2.3583">
        <ele>55.8</ele>
        <time>2021-05-27T12:03:34Z</time>
      </trkpt>
      <trkpt lat="47.70463" lon="-2.35834">
        <ele>55.8</ele>
        <time>2021-05-27T12:03:35Z</time>
      </trkpt>
      <trkpt lat="47.70464" lon="-2.35837">
        <ele>55.8</ele>
        <time>2021-05-27T12:03:36Z</time>
      </trkpt>
      <trkpt lat="47.70464" lon="-2.35841">
        <ele>55.8</ele>
        <time>2021-05-27T12:03:37Z</time>
      </trkpt>
      <trkpt lat="47.70464" lon="-2.35845">
        <ele>55.8</ele>
        <time>2021-05-27T12:03:38Z</time>
      </trkpt>
      <trkpt lat="47.70465" lon="-2.35849">
        <ele>55.8</ele>
        <time>2021-05-27T12:03:39Z</time>
      </trkpt>
      <trkpt lat="47.70465" lon="-2.35854">
        <ele>55.8</ele>
        <time>2021-05-27T12:03:40Z</time>
      </trkpt>
      <trkpt lat="47.70465" lon="-2.35859">
        <ele>55.8</ele>
        <time>2021-05-27T12:03:41Z</time>
      </trkpt>
      <trkpt lat="47.70465" lon="-2.35864">
        <ele>55.7</ele>
        <time>2021-05-27T12:03:42Z</time>
      </trkpt>
      <trkpt lat="47.70465" lon="-2.35868">
        <ele>55.7</ele>
        <time>2021-05-27T12:03:43Z</time>
      </trkpt>
      <trkpt lat="47.70466" lon="-2.35873">
        <ele>55.8</ele>
        <time>2021-05-27T12:03:44Z</time>
      </trkpt>
      <trkpt lat="47.70468" lon="-2.35878">
        <ele>55.9</ele>
        <time>2021-05-27T12:03:45Z</time>
      </trkpt>
      <trkpt lat="47.7047" lon="-2.35884">
        <ele>56.2</ele>
        <time>2021-05-27T12:03:46Z</time>
      </trkpt>
      <trkpt lat="47.70472" lon="-2.35889">
        <ele>56.3</ele>
        <time>2021-05-27T12:03:47Z</time>
      </trkpt>
      <trkpt lat="47.70473" lon="-2.35895">
        <ele>56.4</ele>
        <time>2021-05-27T12:03:48Z</time>
      </trkpt>
      <trkpt lat="47.70473" lon="-2.359">
        <ele>56.4</ele>
        <time>2021-05-27T12:03:49Z</time>
      </trkpt>
      <trkpt lat="47.70473" lon="-2.35904">
        <ele>56.3</ele>
        <time>2021-05-27T12:03:50Z</time>
      </trkpt>
      <trkpt lat="47.70474" lon="-2.3591">
        <ele>56.3</ele>
        <time>2021-05-27T12:03:51Z</time>
      </trkpt>
      <trkpt lat="47.70474" lon="-2.35914">
        <ele>56.4</ele>
        <time>2021-05-27T12:03:52Z</time>
      </trkpt>
      <trkpt lat="47.70475" lon="-2.35918">
        <ele>56.3</ele>
        <time>2021-05-27T12:03:53Z</time>
      </trkpt>
      <trkpt lat="47.70475" lon="-2.35923">
        <ele>56.3</ele>
        <time>2021-05-27T12:03:54Z</time>
      </trkpt>
      <trkpt lat="47.70475" lon="-2.35926">
        <ele>56.2</ele>
        <time>2021-05-27T12:03:55Z</time>
      </trkpt>
      <trkpt lat="47.70475" lon="-2.35929">
        <ele>56.2</ele>
        <time>2021-05-27T12:03:56Z</time>
      </trkpt>
      <trkpt lat="47.70475" lon="-2.35931">
        <ele>56.2</ele>
        <time>2021-05-27T12:03:57Z</time>
      </trkpt>
      <trkpt lat="47.70475" lon="-2.35935">
        <ele>56.1</ele>
        <time>2021-05-27T12:03:58Z</time>
      </trkpt>
      <trkpt lat="47.70476" lon="-2.3594">
        <ele>56.2</ele>
        <time>2021-05-27T12:03:59Z</time>
      </trkpt>
      <trkpt lat="47.70477" lon="-2.35945">
        <ele>56.2</ele>
        <time>2021-05-27T12:04:00Z</time>
      </trkpt>
      <trkpt lat="47.70477" lon="-2.3595">
        <ele>56.1</ele>
        <time>2021-05-27T12:04:01Z</time>
      </trkpt>
      <trkpt lat="47.70477" lon="-2.35955">
        <ele>56.1</ele>
        <time>2021-05-27T12:04:02Z</time>
      </trkpt>
      <trkpt lat="47.70479" lon="-2.3596">
        <ele>56.2</ele>
        <time>2021-05-27T12:04:03Z</time>
      </trkpt>
      <trkpt lat="47.70479" lon="-2.35965">
        <ele>56.2</ele>
        <time>2021-05-27T12:04:04Z</time>
      </trkpt>
      <trkpt lat="47.70481" lon="-2.3597">
        <ele>56.3</ele>
        <time>2021-05-27T12:04:05Z</time>
      </trkpt>
      <trkpt lat="47.70482" lon="-2.35974">
        <ele>56.3</ele>
        <time>2021-05-27T12:04:06Z</time>
      </trkpt>
      <trkpt lat="47.70483" lon="-2.35978">
        <ele>56.3</ele>
        <time>2021-05-27T12:04:07Z</time>
      </trkpt>
      <trkpt lat="47.70484" lon="-2.35982">
        <ele>56.4</ele>
        <time>2021-05-27T12:04:08Z</time>
      </trkpt>
      <trkpt lat="47.70485" lon="-2.35986">
        <ele>56.5</ele>
        <time>2021-05-27T12:04:09Z</time>
      </trkpt>
      <trkpt lat="47.70488" lon="-2.35991">
        <ele>56.8</ele>
        <time>2021-05-27T12:04:10Z</time>
      </trkpt>
      <trkpt lat="47.70491" lon="-2.35993">
        <ele>57</ele>
        <time>2021-05-27T12:04:11Z</time>
      </trkpt>
      <trkpt lat="47.70492" lon="-2.35996">
        <ele>57.2</ele>
        <time>2021-05-27T12:04:12Z</time>
      </trkpt>
      <trkpt lat="47.70495" lon="-2.35999">
        <ele>57.4</ele>
        <time>2021-05-27T12:04:13Z</time>
      </trkpt>
      <trkpt lat="47.70497" lon="-2.36003">
        <ele>57.6</ele>
        <time>2021-05-27T12:04:14Z</time>
      </trkpt>
      <trkpt lat="47.70498" lon="-2.36008">
        <ele>57.8</ele>
        <time>2021-05-27T12:04:15Z</time>
      </trkpt>
      <trkpt lat="47.70499" lon="-2.36012">
        <ele>57.9</ele>
        <time>2021-05-27T12:04:16Z</time>
      </trkpt>
      <trkpt lat="47.70501" lon="-2.36015">
        <ele>58.1</ele>
        <time>2021-05-27T12:04:17Z</time>
      </trkpt>
      <trkpt lat="47.70501" lon="-2.36018">
        <ele>58.2</ele>
        <time>2021-05-27T12:04:18Z</time>
      </trkpt>
      <trkpt lat="47.70502" lon="-2.3602">
        <ele>58.4</ele>
        <time>2021-05-27T12:04:19Z</time>
      </trkpt>
      <trkpt lat="47.70504" lon="-2.36021">
        <ele>58.7</ele>
        <time>2021-05-27T12:04:20Z</time>
      </trkpt>
      <trkpt lat="47.70504" lon="-2.36024">
        <ele>58.7</ele>
        <time>2021-05-27T12:04:21Z</time>
      </trkpt>
      <trkpt lat="47.70505" lon="-2.36025">
        <ele>58.9</ele>
        <time>2021-05-27T12:04:22Z</time>
      </trkpt>
      <trkpt lat="47.70507" lon="-2.36027">
        <ele>59.3</ele>
        <time>2021-05-27T12:04:23Z</time>
      </trkpt>
      <trkpt lat="47.7051" lon="-2.36029">
        <ele>59.8</ele>
        <time>2021-05-27T12:04:24Z</time>
      </trkpt>
      <trkpt lat="47.70513" lon="-2.3603">
        <ele>60.3</ele>
        <time>2021-05-27T12:04:25Z</time>
      </trkpt>
      <trkpt lat="47.70515" lon="-2.36033">
        <ele>60.8</ele>
        <time>2021-05-27T12:04:26Z</time>
      </trkpt>
      <trkpt lat="47.70518" lon="-2.36035">
        <ele>61.3</ele>
        <time>2021-05-27T12:04:27Z</time>
      </trkpt>
      <trkpt lat="47.70521" lon="-2.36037">
        <ele>61.8</ele>
        <time>2021-05-27T12:04:28Z</time>
      </trkpt>
      <trkpt lat="47.70523" lon="-2.36041">
        <ele>62.1</ele>
        <time>2021-05-27T12:04:29Z</time>
      </trkpt>
      <trkpt lat="47.70525" lon="-2.36045">
        <ele>62.3</ele>
        <time>2021-05-27T12:04:30Z</time>
      </trkpt>
      <trkpt lat="47.70527" lon="-2.36049">
        <ele>62.6</ele>
        <time>2021-05-27T12:04:31Z</time>
      </trkpt>
      <trkpt lat="47.70528" lon="-2.36054">
        <ele>62.8</ele>
        <time>2021-05-27T12:04:32Z</time>
      </trkpt>
      <trkpt lat="47.7053" lon="-2.36058">
        <ele>62.9</ele>
        <time>2021-05-27T12:04:33Z</time>
      </trkpt>
      <trkpt lat="47.70531" lon="-2.36063">
        <ele>63.1</ele>
        <time>2021-05-27T12:04:34Z</time>
      </trkpt>
      <trkpt lat="47.70533" lon="-2.36068">
        <ele>63.3</ele>
        <time>2021-05-27T12:04:35Z</time>
      </trkpt>
      <trkpt lat="47.70534" lon="-2.36073">
        <ele>63.4</ele>
        <time>2021-05-27T12:04:36Z</time>
      </trkpt>
      <trkpt lat="47.70534" lon="-2.36079">
        <ele>63.4</ele>
        <time>2021-05-27T12:04:37Z</time>
      </trkpt>
      <trkpt lat="47.70535" lon="-2.36084">
        <ele>63.4</ele>
        <time>2021-05-27T12:04:38Z</time>
      </trkpt>
      <trkpt lat="47.70536" lon="-2.36089">
        <ele>63.5</ele>
        <time>2021-05-27T12:04:39Z</time>
      </trkpt>
      <trkpt lat="47.70537" lon="-2.36094">
        <ele>63.6</ele>
        <time>2021-05-27T12:04:40Z</time>
      </trkpt>
      <trkpt lat="47.70538" lon="-2.36099">
        <ele>63.6</ele>
        <time>2021-05-27T12:04:41Z</time>
      </trkpt>
      <trkpt lat="47.70539" lon="-2.36104">
        <ele>63.7</ele>
        <time>2021-05-27T12:04:42Z</time>
      </trkpt>
      <trkpt lat="47.7054" lon="-2.36109">
        <ele>63.6</ele>
        <time>2021-05-27T12:04:43Z</time>
      </trkpt>
      <trkpt lat="47.70541" lon="-2.36114">
        <ele>63.6</ele>
        <time>2021-05-27T12:04:44Z</time>
      </trkpt>
      <trkpt lat="47.70542" lon="-2.3612">
        <ele>63.6</ele>
        <time>2021-05-27T12:04:45Z</time>
      </trkpt>
      <trkpt lat="47.70542" lon="-2.36125">
        <ele>63.6</ele>
        <time>2021-05-27T12:04:46Z</time>
      </trkpt>
      <trkpt lat="47.70544" lon="-2.36131">
        <ele>63.6</ele>
        <time>2021-05-27T12:04:47Z</time>
      </trkpt>
      <trkpt lat="47.70545" lon="-2.36136">
        <ele>63.7</ele>
        <time>2021-05-27T12:04:48Z</time>
      </trkpt>
      <trkpt lat="47.70545" lon="-2.36142">
        <ele>63.6</ele>
        <time>2021-05-27T12:04:49Z</time>
      </trkpt>
      <trkpt lat="47.70545" lon="-2.36147">
        <ele>63.5</ele>
        <time>2021-05-27T12:04:50Z</time>
      </trkpt>
      <trkpt lat="47.70546" lon="-2.36153">
        <ele>63.4</ele>
        <time>2021-05-27T12:04:51Z</time>
      </trkpt>
      <trkpt lat="47.70547" lon="-2.36158">
        <ele>63.4</ele>
        <time>2021-05-27T12:04:52Z</time>
      </trkpt>
      <trkpt lat="47.70548" lon="-2.36164">
        <ele>63.4</ele>
        <time>2021-05-27T12:04:53Z</time>
      </trkpt>
      <trkpt lat="47.70548" lon="-2.36169">
        <ele>63.3</ele>
        <time>2021-05-27T12:04:54Z</time>
      </trkpt>
      <trkpt lat="47.7055" lon="-2.36174">
        <ele>63.4</ele>
        <time>2021-05-27T12:04:55Z</time>
      </trkpt>
      <trkpt lat="47.70552" lon="-2.36178">
        <ele>63.6</ele>
        <time>2021-05-27T12:04:56Z</time>
      </trkpt>
      <trkpt lat="47.70553" lon="-2.36185">
        <ele>63.6</ele>
        <time>2021-05-27T12:04:57Z</time>
      </trkpt>
      <trkpt lat="47.70554" lon="-2.36193">
        <ele>63.5</ele>
        <time>2021-05-27T12:04:58Z</time>
      </trkpt>
      <trkpt lat="47.70555" lon="-2.362">
        <ele>63.5</ele>
        <time>2021-05-27T12:04:59Z</time>
      </trkpt>
      <trkpt lat="47.70557" lon="-2.36206">
        <ele>63.6</ele>
        <time>2021-05-27T12:05:00Z</time>
      </trkpt>
      <trkpt lat="47.70558" lon="-2.36215">
        <ele>63.5</ele>
        <time>2021-05-27T12:05:01Z</time>
      </trkpt>
      <trkpt lat="47.70559" lon="-2.36222">
        <ele>63.5</ele>
        <time>2021-05-27T12:05:02Z</time>
      </trkpt>
      <trkpt lat="47.7056" lon="-2.3623">
        <ele>63.4</ele>
        <time>2021-05-27T12:05:03Z</time>
      </trkpt>
      <trkpt lat="47.7056" lon="-2.36238">
        <ele>63.2</ele>
        <time>2021-05-27T12:05:04Z</time>
      </trkpt>
      <trkpt lat="47.70561" lon="-2.36246">
        <ele>63.1</ele>
        <time>2021-05-27T12:05:05Z</time>
      </trkpt>
      <trkpt lat="47.70559" lon="-2.36253">
        <ele>62.7</ele>
        <time>2021-05-27T12:05:06Z</time>
      </trkpt>
      <trkpt lat="47.70559" lon="-2.36261">
        <ele>62.6</ele>
        <time>2021-05-27T12:05:07Z</time>
      </trkpt>
      <trkpt lat="47.7056" lon="-2.36268">
        <ele>62.5</ele>
        <time>2021-05-27T12:05:08Z</time>
      </trkpt>
      <trkpt lat="47.70561" lon="-2.36276">
        <ele>62.5</ele>
        <time>2021-05-27T12:05:09Z</time>
      </trkpt>
      <trkpt lat="47.70562" lon="-2.36284">
        <ele>62.5</ele>
        <time>2021-05-27T12:05:10Z</time>
      </trkpt>
      <trkpt lat="47.70563" lon="-2.36291">
        <ele>62.5</ele>
        <time>2021-05-27T12:05:11Z</time>
      </trkpt>
      <trkpt lat="47.70565" lon="-2.36298">
        <ele>62.6</ele>
        <time>2021-05-27T12:05:12Z</time>
      </trkpt>
      <trkpt lat="47.70567" lon="-2.36305">
        <ele>62.7</ele>
        <time>2021-05-27T12:05:13Z</time>
      </trkpt>
      <trkpt lat="47.70569" lon="-2.36311">
        <ele>62.9</ele>
        <time>2021-05-27T12:05:14Z</time>
      </trkpt>
      <trkpt lat="47.7057" lon="-2.36318">
        <ele>63.1</ele>
        <time>2021-05-27T12:05:15Z</time>
      </trkpt>
      <trkpt lat="47.70573" lon="-2.36324">
        <ele>63.4</ele>
        <time>2021-05-27T12:05:16Z</time>
      </trkpt>
      <trkpt lat="47.70575" lon="-2.3633">
        <ele>63.6</ele>
        <time>2021-05-27T12:05:17Z</time>
      </trkpt>
      <trkpt lat="47.70576" lon="-2.36337">
        <ele>63.6</ele>
        <time>2021-05-27T12:05:18Z</time>
      </trkpt>
      <trkpt lat="47.70577" lon="-2.36344">
        <ele>63.5</ele>
        <time>2021-05-27T12:05:19Z</time>
      </trkpt>
      <trkpt lat="47.70578" lon="-2.3635">
        <ele>63.5</ele>
        <time>2021-05-27T12:05:20Z</time>
      </trkpt>
      <trkpt lat="47.7058" lon="-2.36357">
        <ele>63.6</ele>
        <time>2021-05-27T12:05:21Z</time>
      </trkpt>
      <trkpt lat="47.70581" lon="-2.36364">
        <ele>63.5</ele>
        <time>2021-05-27T12:05:22Z</time>
      </trkpt>
      <trkpt lat="47.70582" lon="-2.36372">
        <ele>63.4</ele>
        <time>2021-05-27T12:05:23Z</time>
      </trkpt>
      <trkpt lat="47.70584" lon="-2.3638">
        <ele>63.4</ele>
        <time>2021-05-27T12:05:24Z</time>
      </trkpt>
      <trkpt lat="47.70585" lon="-2.36387">
        <ele>63.3</ele>
        <time>2021-05-27T12:05:25Z</time>
      </trkpt>
      <trkpt lat="47.70586" lon="-2.36394">
        <ele>63.1</ele>
        <time>2021-05-27T12:05:26Z</time>
      </trkpt>
      <trkpt lat="47.70587" lon="-2.36402">
        <ele>63</ele>
        <time>2021-05-27T12:05:27Z</time>
      </trkpt>
      <trkpt lat="47.70588" lon="-2.36409">
        <ele>63</ele>
        <time>2021-05-27T12:05:28Z</time>
      </trkpt>
      <trkpt lat="47.7059" lon="-2.36416">
        <ele>62.9</ele>
        <time>2021-05-27T12:05:29Z</time>
      </trkpt>
      <trkpt lat="47.70591" lon="-2.36422">
        <ele>63</ele>
        <time>2021-05-27T12:05:30Z</time>
      </trkpt>
      <trkpt lat="47.70593" lon="-2.36427">
        <ele>63.2</ele>
        <time>2021-05-27T12:05:31Z</time>
      </trkpt>
      <trkpt lat="47.70594" lon="-2.36433">
        <ele>63.2</ele>
        <time>2021-05-27T12:05:32Z</time>
      </trkpt>
      <trkpt lat="47.70595" lon="-2.36439">
        <ele>63.2</ele>
        <time>2021-05-27T12:05:33Z</time>
      </trkpt>
      <trkpt lat="47.70597" lon="-2.36443">
        <ele>63.4</ele>
        <time>2021-05-27T12:05:34Z</time>
      </trkpt>
      <trkpt lat="47.70598" lon="-2.36447">
        <ele>63.4</ele>
        <time>2021-05-27T12:05:35Z</time>
      </trkpt>
      <trkpt lat="47.706" lon="-2.36453">
        <ele>63.5</ele>
        <time>2021-05-27T12:05:36Z</time>
      </trkpt>
      <trkpt lat="47.70601" lon="-2.36459">
        <ele>63.6</ele>
        <time>2021-05-27T12:05:37Z</time>
      </trkpt>
      <trkpt lat="47.70602" lon="-2.36466">
        <ele>63.7</ele>
        <time>2021-05-27T12:05:38Z</time>
      </trkpt>
      <trkpt lat="47.70604" lon="-2.36474">
        <ele>63.8</ele>
        <time>2021-05-27T12:05:39Z</time>
      </trkpt>
      <trkpt lat="47.70606" lon="-2.36481">
        <ele>63.9</ele>
        <time>2021-05-27T12:05:40Z</time>
      </trkpt>
      <trkpt lat="47.70607" lon="-2.36488">
        <ele>63.9</ele>
        <time>2021-05-27T12:05:41Z</time>
      </trkpt>
      <trkpt lat="47.70608" lon="-2.36494">
        <ele>64</ele>
        <time>2021-05-27T12:05:42Z</time>
      </trkpt>
      <trkpt lat="47.7061" lon="-2.36501">
        <ele>64.1</ele>
        <time>2021-05-27T12:05:43Z</time>
      </trkpt>
      <trkpt lat="47.70611" lon="-2.36507">
        <ele>64.3</ele>
        <time>2021-05-27T12:05:44Z</time>
      </trkpt>
      <trkpt lat="47.70612" lon="-2.36513">
        <ele>64.3</ele>
        <time>2021-05-27T12:05:45Z</time>
      </trkpt>
      <trkpt lat="47.70614" lon="-2.36518">
        <ele>64.5</ele>
        <time>2021-05-27T12:05:46Z</time>
      </trkpt>
      <trkpt lat="47.70616" lon="-2.36524">
        <ele>64.8</ele>
        <time>2021-05-27T12:05:47Z</time>
      </trkpt>
      <trkpt lat="47.70616" lon="-2.3653">
        <ele>64.8</ele>
        <time>2021-05-27T12:05:48Z</time>
      </trkpt>
      <trkpt lat="47.70618" lon="-2.36535">
        <ele>64.9</ele>
        <time>2021-05-27T12:05:49Z</time>
      </trkpt>
      <trkpt lat="47.70619" lon="-2.36541">
        <ele>65</ele>
        <time>2021-05-27T12:05:50Z</time>
      </trkpt>
      <trkpt lat="47.7062" lon="-2.36547">
        <ele>65.2</ele>
        <time>2021-05-27T12:05:51Z</time>
      </trkpt>
      <trkpt lat="47.70621" lon="-2.36553">
        <ele>65.3</ele>
        <time>2021-05-27T12:05:52Z</time>
      </trkpt>
      <trkpt lat="47.70622" lon="-2.36558">
        <ele>65.3</ele>
        <time>2021-05-27T12:05:53Z</time>
      </trkpt>
      <trkpt lat="47.70623" lon="-2.36563">
        <ele>65.4</ele>
        <time>2021-05-27T12:05:54Z</time>
      </trkpt>
      <trkpt lat="47.70625" lon="-2.36567">
        <ele>65.6</ele>
        <time>2021-05-27T12:05:55Z</time>
      </trkpt>
      <trkpt lat="47.70626" lon="-2.36568">
        <ele>65.8</ele>
        <time>2021-05-27T12:05:56Z</time>
      </trkpt>
      <trkpt lat="47.70627" lon="-2.36567">
        <ele>66.1</ele>
        <time>2021-05-27T12:05:57Z</time>
      </trkpt>
    </trkseg>
  </trk>
  <trk>
    <name><![CDATA[Guipry vtt]]></name>
    <trkseg>
      <trkpt lat="47.73083" lon="-1.86147">
        <ele>53.7</ele>
      </trkpt>
      <trkpt lat="47.73083" lon="-1.86147">
        <ele>53.7</ele>
      </trkpt>
      <trkpt lat="47.73083" lon="-1.86147">
        <ele>53.7</ele>
      </trkpt>
      <trkpt lat="47.73083" lon="-1.86144">
        <ele>53.7</ele>
      </trkpt>
      <trkpt lat="47.73084" lon="-1.86138">
        <ele>53.8</ele>
      </trkpt>
      <trkpt lat="47.73085" lon="-1.8613">
        <ele>53.7</ele>
      </trkpt>
      <trkpt lat="47.73085" lon="-1.86127">
        <ele>53.7</ele>
      </trkpt>
      <trkpt lat="47.73085" lon="-1.86125">
        <ele>53.7</ele>
      </trkpt>
      <trkpt lat="47.73086" lon="-1.86122">
        <ele>53.7</ele>
      </trkpt>
      <trkpt lat="47.73086" lon="-1.8612">
        <ele>53.7</ele>
      </trkpt>
      <trkpt lat="47.73087" lon="-1.86117">
        <ele>53.7</ele>
      </trkpt>
      <trkpt lat="47.73087" lon="-1.86114">
        <ele>53.7</ele>
      </trkpt>
      <trkpt lat="47.73087" lon="-1.8611">
        <ele>53.7</ele>
      </trkpt>
      <trkpt lat="47.73087" lon="-1.86106">
        <ele>53.7</ele>
      </trkpt>
      <trkpt lat="47.73087" lon="-1.86103">
        <ele>53.6</ele>
      </trkpt>
      <trkpt lat="47.73087" lon="-1.861">
        <ele>53.6</ele>
      </trkpt>
      <trkpt lat="47.73087" lon="-1.86097">
        <ele>53.5</ele>
      </trkpt>
      <trkpt lat="47.73087" lon="-1.86093">
        <ele>53.5</ele>
      </trkpt>
      <trkpt lat="47.73087" lon="-1.8609">
        <ele>53.4</ele>
      </trkpt>
      <trkpt lat="47.73086" lon="-1.86087">
        <ele>53.4</ele>
      </trkpt>
      <trkpt lat="47.73087" lon="-1.86086">
        <ele>53.4</ele>
      </trkpt>
      <trkpt lat="47.73087" lon="-1.86085">
        <ele>53.4</ele>
      </trkpt>
      <trkpt lat="47.73086" lon="-1.86085">
        <ele>53.3</ele>
      </trkpt>
      <trkpt lat="47.73086" lon="-1.86085">
        <ele>53.3</ele>
      </trkpt>
      <trkpt lat="47.73086" lon="-1.86084">
        <ele>53.3</ele>
      </trkpt>
      <trkpt lat="47.73086" lon="-1.86085">
        <ele>53.3</ele>
      </trkpt>
      <trkpt lat="47.73086" lon="-1.86085">
        <ele>53.3</ele>
      </trkpt>
      <trkpt lat="47.73086" lon="-1.86085">
        <ele>53.3</ele>
      </trkpt>
      <trkpt lat="47.73086" lon="-1.86085">
        <ele>53.3</ele>
      </trkpt>
      <trkpt lat="47.73086" lon="-1.86084">
        <ele>53.3</ele>
      </trkpt>
      <trkpt lat="47.73086" lon="-1.86084">
        <ele>53.3</ele>
      </trkpt>
      <trkpt lat="47.73086" lon="-1.86084">
        <ele>53.3</ele>
      </trkpt>
      <trkpt lat="47.73086" lon="-1.86084">
        <ele>53.3</ele>
      </trkpt>
      <trkpt lat="47.73086" lon="-1.86085">
        <ele>53.3</ele>
      </trkpt>
      <trkpt lat="47.73086" lon="-1.86085">
        <ele>53.3</ele>
      </trkpt>
      <trkpt lat="47.73086" lon="-1.86084">
        <ele>53.3</ele>
      </trkpt>
      <trkpt lat="47.73086" lon="-1.86085">
        <ele>53.3</ele>
      </trkpt>
      <trkpt lat="47.73086" lon="-1.86085">
        <ele>53.3</ele>
      </trkpt>
      <trkpt lat="47.73086" lon="-1.86085">
        <ele>53.3</ele>
      </trkpt>
      <trkpt lat="47.73086" lon="-1.86084">
        <ele>53.3</ele>
      </trkpt>
      <trkpt lat="47.73086" lon="-1.86085">
        <ele>53.3</ele>
      </trkpt>
      <trkpt lat="47.73086" lon="-1.86085">
        <ele>53.3</ele>
      </trkpt>
      <trkpt lat="47.73086" lon="-1.86085">
        <ele>53.3</ele>
      </trkpt>
      <trkpt lat="47.73086" lon="-1.86085">
        <ele>53.3</ele>
      </trkpt>
      <trkpt lat="47.73086" lon="-1.86085">
        <ele>53.3</ele>
      </trkpt>
      <trkpt lat="47.73086" lon="-1.86085">
        <ele>53.3</ele>
      </trkpt>
      <trkpt lat="47.73086" lon="-1.86085">
        <ele>53.3</ele>
      </trkpt>
      <trkpt lat="47.73086" lon="-1.86085">
        <ele>53.3</ele>
      </trkpt>
      <trkpt lat="47.73086" lon="-1.86085">
        <ele>53.3</ele>
      </trkpt>
      <trkpt lat="47.73086" lon="-1.86085">
        <ele>53.3</ele>
      </trkpt>
      <trkpt lat="47.73086" lon="-1.86085">
        <ele>53.3</ele>
      </trkpt>
      <trkpt lat="47.73086" lon="-1.86085">
        <ele>53.3</ele>
      </trkpt>
      <trkpt lat="47.73086" lon="-1.86085">
        <ele>53.3</ele>
      </trkpt>
      <trkpt lat="47.73086" lon="-1.86085">
        <ele>53.3</ele>
      </trkpt>
      <trkpt lat="47.73086" lon="-1.86085">
        <ele>53.3</ele>
      </trkpt>
      <trkpt lat="47.73086" lon="-1.86085">
        <ele>53.3</ele>
      </trkpt>
      <trkpt lat="47.73087" lon="-1.86085">
        <ele>53.4</ele>
      </trkpt>
      <trkpt lat="47.73087" lon="-1.86085">
        <ele>53.4</ele>
      </trkpt>
      <trkpt lat="47.73087" lon="-1.86085">
        <ele>53.4</ele>
      </trkpt>
      <trkpt lat="47.73087" lon="-1.86085">
        <ele>53.4</ele>
      </trkpt>
      <trkpt lat="47.73087" lon="-1.86085">
        <ele>53.4</ele>
      </trkpt>
      <trkpt lat="47.73087" lon="-1.86085">
        <ele>53.4</ele>
      </trkpt>
      <trkpt lat="47.73087" lon="-1.86085">
        <ele>53.4</ele>
      </trkpt>
      <trkpt lat="47.73087" lon="-1.86085">
        <ele>53.4</ele>
      </trkpt>
      <trkpt lat="47.73087" lon="-1.86085">
        <ele>53.4</ele>
      </trkpt>
      <trkpt lat="47.73087" lon="-1.86085">
        <ele>53.4</ele>
      </trkpt>
      <trkpt lat="47.73087" lon="-1.86085">
        <ele>53.5</ele>
      </trkpt>
      <trkpt lat="47.73088" lon="-1.86085">
        <ele>53.5</ele>
      </trkpt>
      <trkpt lat="47.73088" lon="-1.86085">
        <ele>53.5</ele>
      </trkpt>
      <trkpt lat="47.73088" lon="-1.86085">
        <ele>53.5</ele>
      </trkpt>
      <trkpt lat="47.73088" lon="-1.86085">
        <ele>53.5</ele>
      </trkpt>
      <trkpt lat="47.73088" lon="-1.86085">
        <ele>53.5</ele>
      </trkpt>
      <trkpt lat="47.73088" lon="-1.86085">
        <ele>53.5</ele>
      </trkpt>
      <trkpt lat="47.73088" lon="-1.86085">
        <ele>53.5</ele>
      </trkpt>
      <trkpt lat="47.73088" lon="-1.86085">
        <ele>53.5</ele>
      </trkpt>
      <trkpt lat="47.73088" lon="-1.86085">
        <ele>53.6</ele>
      </trkpt>
      <trkpt lat="47.73088" lon="-1.86085">
        <ele>53.6</ele>
      </trkpt>
      <trkpt lat="47.73089" lon="-1.86085">
        <ele>53.6</ele>
      </trkpt>
      <trkpt lat="47.73089" lon="-1.86085">
        <ele>53.6</ele>
      </trkpt>
      <trkpt lat="47.73089" lon="-1.86085">
        <ele>53.6</ele>
      </trkpt>
      <trkpt lat="47.73089" lon="-1.86086">
        <ele>53.7</ele>
      </trkpt>
      <trkpt lat="47.73089" lon="-1.86086">
        <ele>53.7</ele>
      </trkpt>
      <trkpt lat="47.73089" lon="-1.86086">
        <ele>53.7</ele>
      </trkpt>
      <trkpt lat="47.73089" lon="-1.86086">
        <ele>53.7</ele>
      </trkpt>
      <trkpt lat="47.73089" lon="-1.86086">
        <ele>53.7</ele>
      </trkpt>
      <trkpt lat="47.73089" lon="-1.86086">
        <ele>53.7</ele>
      </trkpt>
      <trkpt lat="47.73089" lon="-1.86086">
        <ele>53.7</ele>
      </trkpt>
      <trkpt lat="47.7309" lon="-1.86086">
        <ele>53.7</ele>
      </trkpt>
      <trkpt lat="47.7309" lon="-1.86086">
        <ele>53.7</ele>
      </trkpt>
      <trkpt lat="47.7309" lon="-1.86086">
        <ele>53.7</ele>
      </trkpt>
      <trkpt lat="47.7309" lon="-1.86086">
        <ele>53.7</ele>
      </trkpt>
      <trkpt lat="47.7309" lon="-1.86086">
        <ele>53.7</ele>
      </trkpt>
      <trkpt lat="47.7309" lon="-1.86086">
        <ele>53.7</ele>
      </trkpt>
      <trkpt lat="47.7309" lon="-1.86086">
        <ele>53.7</ele>
      </trkpt>
      <trkpt lat="47.7309" lon="-1.86086">
        <ele>53.7</ele>
      </trkpt>
      <trkpt lat="47.7309" lon="-1.86086">
        <ele>53.7</ele>
      </trkpt>
      <trkpt lat="47.7309" lon="-1.86086">
        <ele>53.7</ele>
      </trkpt>
      <trkpt lat="47.7309" lon="-1.86086">
        <ele>53.7</ele>
      </trkpt>
      <trkpt lat="47.7309" lon="-1.86086">
        <ele>53.7</ele>
      </trkpt>
      <trkpt lat="47.7309" lon="-1.86086">
        <ele>53.7</ele>
      </trkpt>
      <trkpt lat="47.7309" lon="-1.86086">
        <ele>53.7</ele>
      </trkpt>
      <trkpt lat="47.7309" lon="-1.86086">
        <ele>53.7</ele>
      </trkpt>
      <trkpt lat="47.7309" lon="-1.86086">
        <ele>53.7</ele>
      </trkpt>
      <trkpt lat="47.7309" lon="-1.86085">
        <ele>53.7</ele>
      </trkpt>
      <trkpt lat="47.7309" lon="-1.86085">
        <ele>53.7</ele>
      </trkpt>
      <trkpt lat="47.7309" lon="-1.86085">
        <ele>53.7</ele>
      </trkpt>
      <trkpt lat="47.7309" lon="-1.86085">
        <ele>53.7</ele>
      </trkpt>
      <trkpt lat="47.7309" lon="-1.86085">
        <ele>53.7</ele>
      </trkpt>
      <trkpt lat="47.7309" lon="-1.86085">
        <ele>53.7</ele>
      </trkpt>
      <trkpt lat="47.7309" lon="-1.86082">
        <ele>53.7</ele>
      </trkpt>
      <trkpt lat="47.73091" lon="-1.86079">
        <ele>53.6</ele>
      </trkpt>
      <trkpt lat="47.73091" lon="-1.86075">
        <ele>53.5</ele>
      </trkpt>
      <trkpt lat="47.73092" lon="-1.86071">
        <ele>53.5</ele>
      </trkpt>
      <trkpt lat="47.73093" lon="-1.86067">
        <ele>53.5</ele>
      </trkpt>
      <trkpt lat="47.73095" lon="-1.86063">
        <ele>53.5</ele>
      </trkpt>
      <trkpt lat="47.73096" lon="-1.8606">
        <ele>53.5</ele>
      </trkpt>
      <trkpt lat="47.73098" lon="-1.86057">
        <ele>53.6</ele>
      </trkpt>
      <trkpt lat="47.731" lon="-1.86054">
        <ele>53.7</ele>
      </trkpt>
      <trkpt lat="47.73102" lon="-1.86052">
        <ele>53.9</ele>
      </trkpt>
      <trkpt lat="47.73105" lon="-1.86052">
        <ele>54.2</ele>
      </trkpt>
      <trkpt lat="47.73107" lon="-1.86052">
        <ele>54.4</ele>
      </trkpt>
      <trkpt lat="47.7311" lon="-1.86053">
        <ele>54.8</ele>
      </trkpt>
      <trkpt lat="47.73112" lon="-1.86055">
        <ele>55.1</ele>
      </trkpt>
      <trkpt lat="47.73115" lon="-1.86057">
        <ele>55.5</ele>
      </trkpt>
      <trkpt lat="47.73117" lon="-1.8606">
        <ele>55.8</ele>
      </trkpt>
      <trkpt lat="47.73119" lon="-1.86062">
        <ele>56.1</ele>
      </trkpt>
      <trkpt lat="47.73123" lon="-1.86069">
        <ele>56.8</ele>
      </trkpt>
      <trkpt lat="47.73123" lon="-1.86069">
        <ele>56.8</ele>
      </trkpt>
      <trkpt lat="47.73125" lon="-1.86072">
        <ele>57.1</ele>
      </trkpt>
      <trkpt lat="47.73128" lon="-1.86076">
        <ele>57.5</ele>
      </trkpt>
      <trkpt lat="47.73129" lon="-1.86078">
        <ele>57.8</ele>
      </trkpt>
      <trkpt lat="47.73132" lon="-1.86082">
        <ele>58.2</ele>
      </trkpt>
      <trkpt lat="47.73134" lon="-1.86085">
        <ele>58.5</ele>
      </trkpt>
      <trkpt lat="47.73136" lon="-1.86088">
        <ele>58.7</ele>
      </trkpt>
      <trkpt lat="47.73138" lon="-1.86091">
        <ele>58.9</ele>
      </trkpt>
      <trkpt lat="47.7314" lon="-1.86094">
        <ele>59.1</ele>
      </trkpt>
      <trkpt lat="47.73142" lon="-1.86096">
        <ele>59.3</ele>
      </trkpt>
      <trkpt lat="47.73144" lon="-1.86099">
        <ele>59.5</ele>
      </trkpt>
      <trkpt lat="47.73146" lon="-1.86103">
        <ele>59.7</ele>
      </trkpt>
      <trkpt lat="47.73148" lon="-1.86105">
        <ele>59.8</ele>
      </trkpt>
      <trkpt lat="47.7315" lon="-1.86108">
        <ele>60</ele>
      </trkpt>
      <trkpt lat="47.73153" lon="-1.86111">
        <ele>60.3</ele>
      </trkpt>
      <trkpt lat="47.73154" lon="-1.86114">
        <ele>60.4</ele>
      </trkpt>
      <trkpt lat="47.73156" lon="-1.86117">
        <ele>60.5</ele>
      </trkpt>
      <trkpt lat="47.73158" lon="-1.8612">
        <ele>60.7</ele>
      </trkpt>
      <trkpt lat="47.7316" lon="-1.86123">
        <ele>60.9</ele>
      </trkpt>
      <trkpt lat="47.73162" lon="-1.86126">
        <ele>61</ele>
      </trkpt>
      <trkpt lat="47.73164" lon="-1.86129">
        <ele>61.2</ele>
      </trkpt>
      <trkpt lat="47.73166" lon="-1.86132">
        <ele>61.4</ele>
      </trkpt>
      <trkpt lat="47.73168" lon="-1.86135">
        <ele>61.5</ele>
      </trkpt>
      <trkpt lat="47.7317" lon="-1.86138">
        <ele>61.7</ele>
      </trkpt>
      <trkpt lat="47.73172" lon="-1.86141">
        <ele>61.8</ele>
      </trkpt>
      <trkpt lat="47.73174" lon="-1.86143">
        <ele>62</ele>
      </trkpt>
      <trkpt lat="47.73177" lon="-1.86147">
        <ele>62.2</ele>
      </trkpt>
      <trkpt lat="47.73179" lon="-1.8615">
        <ele>62.3</ele>
      </trkpt>
      <trkpt lat="47.7318" lon="-1.86152">
        <ele>62.5</ele>
      </trkpt>
      <trkpt lat="47.73182" lon="-1.86156">
        <ele>62.6</ele>
      </trkpt>
      <trkpt lat="47.73185" lon="-1.86159">
        <ele>62.8</ele>
      </trkpt>
      <trkpt lat="47.73187" lon="-1.86162">
        <ele>63</ele>
      </trkpt>
      <trkpt lat="47.73189" lon="-1.86165">
        <ele>63.2</ele>
      </trkpt>
      <trkpt lat="47.7319" lon="-1.86168">
        <ele>63.3</ele>
      </trkpt>
      <trkpt lat="47.73192" lon="-1.8617">
        <ele>63.4</ele>
      </trkpt>
      <trkpt lat="47.73194" lon="-1.86174">
        <ele>63.6</ele>
      </trkpt>
      <trkpt lat="47.73196" lon="-1.86176">
        <ele>63.7</ele>
      </trkpt>
      <trkpt lat="47.73198" lon="-1.86179">
        <ele>63.9</ele>
      </trkpt>
      <trkpt lat="47.732" lon="-1.86181">
        <ele>64</ele>
      </trkpt>
      <trkpt lat="47.73202" lon="-1.86182">
        <ele>64.2</ele>
      </trkpt>
      <trkpt lat="47.73204" lon="-1.86185">
        <ele>64.4</ele>
      </trkpt>
      <trkpt lat="47.73206" lon="-1.86186">
        <ele>64.6</ele>
      </trkpt>
      <trkpt lat="47.73209" lon="-1.86188">
        <ele>64.8</ele>
      </trkpt>
      <trkpt lat="47.73211" lon="-1.8619">
        <ele>65</ele>
      </trkpt>
      <trkpt lat="47.73214" lon="-1.86191">
        <ele>65.2</ele>
      </trkpt>
      <trkpt lat="47.73217" lon="-1.86193">
        <ele>65.5</ele>
      </trkpt>
      <trkpt lat="47.7322" lon="-1.86195">
        <ele>65.8</ele>
      </trkpt>
      <trkpt lat="47.73222" lon="-1.86196">
        <ele>65.9</ele>
      </trkpt>
      <trkpt lat="47.73225" lon="-1.86197">
        <ele>66.2</ele>
      </trkpt>
      <trkpt lat="47.73227" lon="-1.86199">
        <ele>66.4</ele>
      </trkpt>
      <trkpt lat="47.7323" lon="-1.862">
        <ele>66.7</ele>
      </trkpt>
      <trkpt lat="47.73232" lon="-1.86201">
        <ele>66.9</ele>
      </trkpt>
      <trkpt lat="47.73235" lon="-1.86202">
        <ele>67.1</ele>
      </trkpt>
      <trkpt lat="47.73238" lon="-1.86203">
        <ele>67.4</ele>
      </trkpt>
      <trkpt lat="47.7324" lon="-1.86204">
        <ele>67.6</ele>
      </trkpt>
      <trkpt lat="47.73243" lon="-1.86206">
        <ele>67.8</ele>
      </trkpt>
      <trkpt lat="47.73245" lon="-1.86207">
        <ele>68.1</ele>
      </trkpt>
      <trkpt lat="47.73248" lon="-1.86208">
        <ele>68.3</ele>
      </trkpt>
      <trkpt lat="47.73251" lon="-1.86209">
        <ele>68.5</ele>
      </trkpt>
      <trkpt lat="47.73253" lon="-1.8621">
        <ele>68.7</ele>
      </trkpt>
      <trkpt lat="47.73256" lon="-1.86211">
        <ele>68.9</ele>
      </trkpt>
      <trkpt lat="47.73258" lon="-1.86213">
        <ele>69.1</ele>
      </trkpt>
      <trkpt lat="47.73261" lon="-1.86214">
        <ele>69.3</ele>
      </trkpt>
      <trkpt lat="47.73263" lon="-1.86215">
        <ele>69.5</ele>
      </trkpt>
      <trkpt lat="47.73266" lon="-1.86216">
        <ele>69.7</ele>
      </trkpt>
      <trkpt lat="47.73268" lon="-1.86216">
        <ele>69.8</ele>
      </trkpt>
      <trkpt lat="47.73271" lon="-1.86217">
        <ele>70</ele>
      </trkpt>
      <trkpt lat="47.73273" lon="-1.86218">
        <ele>70.2</ele>
      </trkpt>
      <trkpt lat="47.73276" lon="-1.86219">
        <ele>70.4</ele>
      </trkpt>
      <trkpt lat="47.73278" lon="-1.86221">
        <ele>70.6</ele>
      </trkpt>
      <trkpt lat="47.73282" lon="-1.86222">
        <ele>70.9</ele>
      </trkpt>
      <trkpt lat="47.73284" lon="-1.86223">
        <ele>71</ele>
      </trkpt>
      <trkpt lat="47.73286" lon="-1.86224">
        <ele>71.2</ele>
      </trkpt>
      <trkpt lat="47.73289" lon="-1.86225">
        <ele>71.4</ele>
      </trkpt>
      <trkpt lat="47.73292" lon="-1.86226">
        <ele>71.6</ele>
      </trkpt>
      <trkpt lat="47.73295" lon="-1.86227">
        <ele>71.9</ele>
      </trkpt>
      <trkpt lat="47.73297" lon="-1.86228">
        <ele>72</ele>
      </trkpt>
      <trkpt lat="47.73299" lon="-1.86229">
        <ele>72.2</ele>
      </trkpt>
      <trkpt lat="47.73302" lon="-1.8623">
        <ele>72.5</ele>
      </trkpt>
      <trkpt lat="47.73305" lon="-1.86232">
        <ele>72.7</ele>
      </trkpt>
      <trkpt lat="47.73306" lon="-1.86233">
        <ele>72.8</ele>
      </trkpt>
      <trkpt lat="47.73309" lon="-1.86234">
        <ele>73</ele>
      </trkpt>
      <trkpt lat="47.73312" lon="-1.86235">
        <ele>73.2</ele>
      </trkpt>
      <trkpt lat="47.73314" lon="-1.86236">
        <ele>73.4</ele>
      </trkpt>
      <trkpt lat="47.73317" lon="-1.86237">
        <ele>73.6</ele>
      </trkpt>
      <trkpt lat="47.73319" lon="-1.86239">
        <ele>73.8</ele>
      </trkpt>
      <trkpt lat="47.73322" lon="-1.8624">
        <ele>74.1</ele>
      </trkpt>
      <trkpt lat="47.73325" lon="-1.86241">
        <ele>74.3</ele>
      </trkpt>
      <trkpt lat="47.73328" lon="-1.86242">
        <ele>74.5</ele>
      </trkpt>
      <trkpt lat="47.7333" lon="-1.86243">
        <ele>74.7</ele>
      </trkpt>
      <trkpt lat="47.73332" lon="-1.86244">
        <ele>74.9</ele>
      </trkpt>
      <trkpt lat="47.73334" lon="-1.86245">
        <ele>75</ele>
      </trkpt>
      <trkpt lat="47.73337" lon="-1.86247">
        <ele>75.2</ele>
      </trkpt>
      <trkpt lat="47.7334" lon="-1.86249">
        <ele>75.3</ele>
      </trkpt>
      <trkpt lat="47.73342" lon="-1.8625">
        <ele>75.4</ele>
      </trkpt>
      <trkpt lat="47.73344" lon="-1.86251">
        <ele>75.5</ele>
      </trkpt>
      <trkpt lat="47.73347" lon="-1.86252">
        <ele>75.7</ele>
      </trkpt>
      <trkpt lat="47.7335" lon="-1.86254">
        <ele>75.8</ele>
      </trkpt>
      <trkpt lat="47.73353" lon="-1.86256">
        <ele>76</ele>
      </trkpt>
      <trkpt lat="47.73355" lon="-1.86257">
        <ele>76.1</ele>
      </trkpt>
      <trkpt lat="47.73357" lon="-1.86259">
        <ele>76.3</ele>
      </trkpt>
      <trkpt lat="47.7336" lon="-1.86262">
        <ele>76.4</ele>
      </trkpt>
      <trkpt lat="47.73363" lon="-1.86264">
        <ele>76.6</ele>
      </trkpt>
      <trkpt lat="47.73365" lon="-1.86266">
        <ele>76.7</ele>
      </trkpt>
      <trkpt lat="47.73367" lon="-1.86268">
        <ele>76.8</ele>
      </trkpt>
      <trkpt lat="47.7337" lon="-1.86271">
        <ele>77</ele>
      </trkpt>
      <trkpt lat="47.73373" lon="-1.86274">
        <ele>77.2</ele>
      </trkpt>
      <trkpt lat="47.73375" lon="-1.86278">
        <ele>77.3</ele>
      </trkpt>
      <trkpt lat="47.73377" lon="-1.8628">
        <ele>77.4</ele>
      </trkpt>
      <trkpt lat="47.73379" lon="-1.86284">
        <ele>77.6</ele>
      </trkpt>
      <trkpt lat="47.73382" lon="-1.86289">
        <ele>77.8</ele>
      </trkpt>
      <trkpt lat="47.73385" lon="-1.86293">
        <ele>78</ele>
      </trkpt>
      <trkpt lat="47.73389" lon="-1.863">
        <ele>78.3</ele>
      </trkpt>
      <trkpt lat="47.7339" lon="-1.86302">
        <ele>78.4</ele>
      </trkpt>
      <trkpt lat="47.73392" lon="-1.86304">
        <ele>78.5</ele>
      </trkpt>
      <trkpt lat="47.73395" lon="-1.86309">
        <ele>78.7</ele>
      </trkpt>
      <trkpt lat="47.73398" lon="-1.86314">
        <ele>78.9</ele>
      </trkpt>
      <trkpt lat="47.734" lon="-1.86317">
        <ele>79</ele>
      </trkpt>
      <trkpt lat="47.73403" lon="-1.86322">
        <ele>79.2</ele>
      </trkpt>
      <trkpt lat="47.73406" lon="-1.86327">
        <ele>79.4</ele>
      </trkpt>
      <trkpt lat="47.73409" lon="-1.86332">
        <ele>79.6</ele>
      </trkpt>
      <trkpt lat="47.73411" lon="-1.86336">
        <ele>79.7</ele>
      </trkpt>
      <trkpt lat="47.73414" lon="-1.8634">
        <ele>79.8</ele>
      </trkpt>
      <trkpt lat="47.73416" lon="-1.86344">
        <ele>79.8</ele>
      </trkpt>
      <trkpt lat="47.73419" lon="-1.86348">
        <ele>79.7</ele>
      </trkpt>
      <trkpt lat="47.73423" lon="-1.86354">
        <ele>79.5</ele>
      </trkpt>
      <trkpt lat="47.73425" lon="-1.86358">
        <ele>79.4</ele>
      </trkpt>
      <trkpt lat="47.73428" lon="-1.86363">
        <ele>79.2</ele>
      </trkpt>
      <trkpt lat="47.73431" lon="-1.86369">
        <ele>79</ele>
      </trkpt>
      <trkpt lat="47.73435" lon="-1.86375">
        <ele>78.8</ele>
      </trkpt>
      <trkpt lat="47.73438" lon="-1.86381">
        <ele>78.7</ele>
      </trkpt>
      <trkpt lat="47.73441" lon="-1.86385">
        <ele>78.6</ele>
      </trkpt>
      <trkpt lat="47.73444" lon="-1.8639">
        <ele>78.4</ele>
      </trkpt>
      <trkpt lat="47.73448" lon="-1.86396">
        <ele>78.3</ele>
      </trkpt>
      <trkpt lat="47.73451" lon="-1.86401">
        <ele>78.2</ele>
      </trkpt>
      <trkpt lat="47.73455" lon="-1.86407">
        <ele>78.1</ele>
      </trkpt>
      <trkpt lat="47.73457" lon="-1.86411">
        <ele>78</ele>
      </trkpt>
      <trkpt lat="47.73461" lon="-1.86416">
        <ele>77.9</ele>
      </trkpt>
      <trkpt lat="47.73465" lon="-1.86423">
        <ele>77.9</ele>
      </trkpt>
      <trkpt lat="47.73468" lon="-1.86428">
        <ele>77.8</ele>
      </trkpt>
      <trkpt lat="47.7347" lon="-1.86432">
        <ele>77.8</ele>
      </trkpt>
      <trkpt lat="47.73474" lon="-1.86438">
        <ele>77.7</ele>
      </trkpt>
      <trkpt lat="47.73477" lon="-1.86443">
        <ele>77.7</ele>
      </trkpt>
      <trkpt lat="47.7348" lon="-1.86448">
        <ele>77.7</ele>
      </trkpt>
      <trkpt lat="47.73483" lon="-1.86453">
        <ele>77.7</ele>
      </trkpt>
      <trkpt lat="47.73486" lon="-1.86458">
        <ele>77.7</ele>
      </trkpt>
      <trkpt lat="47.73489" lon="-1.86463">
        <ele>77.7</ele>
      </trkpt>
      <trkpt lat="47.73492" lon="-1.86468">
        <ele>77.7</ele>
      </trkpt>
      <trkpt lat="47.73496" lon="-1.86474">
        <ele>77.7</ele>
      </trkpt>
      <trkpt lat="47.735" lon="-1.8648">
        <ele>77.8</ele>
      </trkpt>
      <trkpt lat="47.73502" lon="-1.86484">
        <ele>77.9</ele>
      </trkpt>
      <trkpt lat="47.73506" lon="-1.86491">
        <ele>78.1</ele>
      </trkpt>
      <trkpt lat="47.73509" lon="-1.86496">
        <ele>78.3</ele>
      </trkpt>
      <trkpt lat="47.73511" lon="-1.86501">
        <ele>78.4</ele>
      </trkpt>
      <trkpt lat="47.73514" lon="-1.86506">
        <ele>78.5</ele>
      </trkpt>
      <trkpt lat="47.73517" lon="-1.8651">
        <ele>78.7</ele>
      </trkpt>
      <trkpt lat="47.7352" lon="-1.86514">
        <ele>78.8</ele>
      </trkpt>
      <trkpt lat="47.73525" lon="-1.86515">
        <ele>79</ele>
      </trkpt>
      <trkpt lat="47.73528" lon="-1.86513">
        <ele>79.1</ele>
      </trkpt>
      <trkpt lat="47.73529" lon="-1.8651">
        <ele>79.1</ele>
      </trkpt>
      <trkpt lat="47.73532" lon="-1.86506">
        <ele>79.2</ele>
      </trkpt>
      <trkpt lat="47.73535" lon="-1.86503">
        <ele>79.3</ele>
      </trkpt>
      <trkpt lat="47.73537" lon="-1.86504">
        <ele>79.4</ele>
      </trkpt>
      <trkpt lat="47.73538" lon="-1.86507">
        <ele>79.5</ele>
      </trkpt>
      <trkpt lat="47.7354" lon="-1.86512">
        <ele>79.6</ele>
      </trkpt>
      <trkpt lat="47.73541" lon="-1.86518">
        <ele>79.7</ele>
      </trkpt>
      <trkpt lat="47.73543" lon="-1.86524">
        <ele>79.8</ele>
      </trkpt>
      <trkpt lat="47.73544" lon="-1.86529">
        <ele>80</ele>
      </trkpt>
      <trkpt lat="47.73545" lon="-1.86533">
        <ele>80.1</ele>
      </trkpt>
      <trkpt lat="47.73547" lon="-1.86536">
        <ele>80.2</ele>
      </trkpt>
      <trkpt lat="47.7355" lon="-1.86537">
        <ele>80.3</ele>
      </trkpt>
      <trkpt lat="47.73554" lon="-1.86538">
        <ele>80.5</ele>
      </trkpt>
      <trkpt lat="47.73556" lon="-1.86539">
        <ele>80.6</ele>
      </trkpt>
      <trkpt lat="47.73558" lon="-1.8654">
        <ele>80.8</ele>
      </trkpt>
      <trkpt lat="47.73562" lon="-1.86542">
        <ele>81</ele>
      </trkpt>
      <trkpt lat="47.73564" lon="-1.86542">
        <ele>81.1</ele>
      </trkpt>
      <trkpt lat="47.73566" lon="-1.86541">
        <ele>81.2</ele>
      </trkpt>
      <trkpt lat="47.73569" lon="-1.8654">
        <ele>81.3</ele>
      </trkpt>
      <trkpt lat="47.73573" lon="-1.8654">
        <ele>81.4</ele>
      </trkpt>
      <trkpt lat="47.73576" lon="-1.86541">
        <ele>81.6</ele>
      </trkpt>
      <trkpt lat="47.7358" lon="-1.86541">
        <ele>81.8</ele>
      </trkpt>
      <trkpt lat="47.73583" lon="-1.8654">
        <ele>81.9</ele>
      </trkpt>
      <trkpt lat="47.73585" lon="-1.86539">
        <ele>82</ele>
      </trkpt>
      <trkpt lat="47.73589" lon="-1.86537">
        <ele>82</ele>
      </trkpt>
      <trkpt lat="47.73592" lon="-1.86537">
        <ele>82.1</ele>
      </trkpt>
      <trkpt lat="47.73594" lon="-1.86538">
        <ele>82.2</ele>
      </trkpt>
      <trkpt lat="47.73598" lon="-1.8654">
        <ele>82.4</ele>
      </trkpt>
      <trkpt lat="47.73601" lon="-1.86542">
        <ele>82.5</ele>
      </trkpt>
      <trkpt lat="47.73604" lon="-1.86544">
        <ele>82.7</ele>
      </trkpt>
      <trkpt lat="47.73608" lon="-1.86544">
        <ele>82.8</ele>
      </trkpt>
      <trkpt lat="47.73612" lon="-1.86544">
        <ele>82.9</ele>
      </trkpt>
      <trkpt lat="47.73615" lon="-1.86545">
        <ele>83</ele>
      </trkpt>
      <trkpt lat="47.73619" lon="-1.86546">
        <ele>83.2</ele>
      </trkpt>
      <trkpt lat="47.73622" lon="-1.86548">
        <ele>83.3</ele>
      </trkpt>
      <trkpt lat="47.73623" lon="-1.86551">
        <ele>83.5</ele>
      </trkpt>
      <trkpt lat="47.73623" lon="-1.86555">
        <ele>83.6</ele>
      </trkpt>
      <trkpt lat="47.73622" lon="-1.8656">
        <ele>83.7</ele>
      </trkpt>
      <trkpt lat="47.73622" lon="-1.86567">
        <ele>83.9</ele>
      </trkpt>
      <trkpt lat="47.73623" lon="-1.86572">
        <ele>84.1</ele>
      </trkpt>
      <trkpt lat="47.73624" lon="-1.86576">
        <ele>84.3</ele>
      </trkpt>
      <trkpt lat="47.73627" lon="-1.8658">
        <ele>84.5</ele>
      </trkpt>
      <trkpt lat="47.73629" lon="-1.86583">
        <ele>84.6</ele>
      </trkpt>
      <trkpt lat="47.73633" lon="-1.86587">
        <ele>84.7</ele>
      </trkpt>
      <trkpt lat="47.73636" lon="-1.86589">
        <ele>84.7</ele>
      </trkpt>
      <trkpt lat="47.73638" lon="-1.86592">
        <ele>84.8</ele>
      </trkpt>
      <trkpt lat="47.73641" lon="-1.86594">
        <ele>84.8</ele>
      </trkpt>
      <trkpt lat="47.73645" lon="-1.86595">
        <ele>84.9</ele>
      </trkpt>
      <trkpt lat="47.73648" lon="-1.86594">
        <ele>85.1</ele>
      </trkpt>
      <trkpt lat="47.73652" lon="-1.86594">
        <ele>85.2</ele>
      </trkpt>
      <trkpt lat="47.73655" lon="-1.86594">
        <ele>85.3</ele>
      </trkpt>
      <trkpt lat="47.73659" lon="-1.86594">
        <ele>85.5</ele>
      </trkpt>
      <trkpt lat="47.73662" lon="-1.86595">
        <ele>85.6</ele>
      </trkpt>
      <trkpt lat="47.73666" lon="-1.86598">
        <ele>85.6</ele>
      </trkpt>
      <trkpt lat="47.73668" lon="-1.866">
        <ele>85.6</ele>
      </trkpt>
      <trkpt lat="47.73671" lon="-1.86601">
        <ele>85.4</ele>
      </trkpt>
      <trkpt lat="47.73674" lon="-1.86605">
        <ele>85.2</ele>
      </trkpt>
      <trkpt lat="47.73678" lon="-1.86611">
        <ele>84.9</ele>
      </trkpt>
      <trkpt lat="47.7368" lon="-1.86615">
        <ele>84.7</ele>
      </trkpt>
      <trkpt lat="47.73683" lon="-1.86616">
        <ele>84.6</ele>
      </trkpt>
      <trkpt lat="47.73686" lon="-1.86618">
        <ele>84.5</ele>
      </trkpt>
      <trkpt lat="47.73689" lon="-1.8662">
        <ele>84.3</ele>
      </trkpt>
      <trkpt lat="47.73691" lon="-1.86622">
        <ele>84.2</ele>
      </trkpt>
      <trkpt lat="47.73692" lon="-1.86627">
        <ele>84.1</ele>
      </trkpt>
      <trkpt lat="47.73692" lon="-1.86632">
        <ele>83.9</ele>
      </trkpt>
      <trkpt lat="47.73692" lon="-1.86638">
        <ele>83.8</ele>
      </trkpt>
      <trkpt lat="47.73692" lon="-1.86645">
        <ele>83.6</ele>
      </trkpt>
      <trkpt lat="47.73693" lon="-1.86653">
        <ele>83.4</ele>
      </trkpt>
      <trkpt lat="47.73692" lon="-1.86658">
        <ele>83.3</ele>
      </trkpt>
      <trkpt lat="47.73692" lon="-1.86664">
        <ele>83.1</ele>
      </trkpt>
      <trkpt lat="47.73692" lon="-1.86672">
        <ele>82.9</ele>
      </trkpt>
      <trkpt lat="47.73692" lon="-1.86678">
        <ele>82.8</ele>
      </trkpt>
      <trkpt lat="47.73693" lon="-1.86683">
        <ele>82.6</ele>
      </trkpt>
      <trkpt lat="47.73694" lon="-1.8669">
        <ele>82.5</ele>
      </trkpt>
      <trkpt lat="47.73694" lon="-1.86697">
        <ele>82.3</ele>
      </trkpt>
      <trkpt lat="47.73693" lon="-1.86704">
        <ele>82.1</ele>
      </trkpt>
      <trkpt lat="47.73693" lon="-1.86711">
        <ele>82</ele>
      </trkpt>
      <trkpt lat="47.73693" lon="-1.86725">
        <ele>81.6</ele>
      </trkpt>
      <trkpt lat="47.73692" lon="-1.86729">
        <ele>81.5</ele>
      </trkpt>
      <trkpt lat="47.73692" lon="-1.86732">
        <ele>81.4</ele>
      </trkpt>
      <trkpt lat="47.73692" lon="-1.8674">
        <ele>81.3</ele>
      </trkpt>
      <trkpt lat="47.73693" lon="-1.86748">
        <ele>81</ele>
      </trkpt>
      <trkpt lat="47.73695" lon="-1.86754">
        <ele>81</ele>
      </trkpt>
      <trkpt lat="47.73698" lon="-1.86757">
        <ele>80.9</ele>
      </trkpt>
      <trkpt lat="47.73701" lon="-1.8676">
        <ele>80.9</ele>
      </trkpt>
      <trkpt lat="47.73706" lon="-1.86763">
        <ele>80.9</ele>
      </trkpt>
      <trkpt lat="47.7371" lon="-1.86764">
        <ele>80.9</ele>
      </trkpt>
      <trkpt lat="47.73713" lon="-1.86765">
        <ele>80.9</ele>
      </trkpt>
      <trkpt lat="47.73718" lon="-1.86767">
        <ele>80.9</ele>
      </trkpt>
      <trkpt lat="47.73724" lon="-1.86769">
        <ele>80.9</ele>
      </trkpt>
      <trkpt lat="47.73728" lon="-1.86771">
        <ele>80.9</ele>
      </trkpt>
      <trkpt lat="47.73733" lon="-1.86772">
        <ele>80.9</ele>
      </trkpt>
      <trkpt lat="47.73737" lon="-1.86774">
        <ele>81</ele>
      </trkpt>
      <trkpt lat="47.73741" lon="-1.86776">
        <ele>81</ele>
      </trkpt>
      <trkpt lat="47.73746" lon="-1.86778">
        <ele>81</ele>
      </trkpt>
      <trkpt lat="47.73751" lon="-1.8678">
        <ele>81</ele>
      </trkpt>
      <trkpt lat="47.73758" lon="-1.86782">
        <ele>80.8</ele>
      </trkpt>
      <trkpt lat="47.73762" lon="-1.86784">
        <ele>80.7</ele>
      </trkpt>
      <trkpt lat="47.73768" lon="-1.86786">
        <ele>80.6</ele>
      </trkpt>
      <trkpt lat="47.73774" lon="-1.86789">
        <ele>80.4</ele>
      </trkpt>
      <trkpt lat="47.7378" lon="-1.86791">
        <ele>80.3</ele>
      </trkpt>
      <trkpt lat="47.73784" lon="-1.86792">
        <ele>80.2</ele>
      </trkpt>
      <trkpt lat="47.7379" lon="-1.86794">
        <ele>80</ele>
      </trkpt>
      <trkpt lat="47.73796" lon="-1.86796">
        <ele>79.8</ele>
      </trkpt>
      <trkpt lat="47.73801" lon="-1.86799">
        <ele>79.7</ele>
      </trkpt>
      <trkpt lat="47.73806" lon="-1.86801">
        <ele>79.5</ele>
      </trkpt>
      <trkpt lat="47.73811" lon="-1.86803">
        <ele>79.3</ele>
      </trkpt>
      <trkpt lat="47.73817" lon="-1.86805">
        <ele>79.1</ele>
      </trkpt>
      <trkpt lat="47.73823" lon="-1.86808">
        <ele>78.9</ele>
      </trkpt>
      <trkpt lat="47.73829" lon="-1.8681">
        <ele>78.7</ele>
      </trkpt>
      <trkpt lat="47.73834" lon="-1.86812">
        <ele>78.5</ele>
      </trkpt>
      <trkpt lat="47.7384" lon="-1.86814">
        <ele>78.1</ele>
      </trkpt>
      <trkpt lat="47.73846" lon="-1.86817">
        <ele>77.7</ele>
      </trkpt>
      <trkpt lat="47.73853" lon="-1.8682">
        <ele>77.3</ele>
      </trkpt>
      <trkpt lat="47.73859" lon="-1.86823">
        <ele>77</ele>
      </trkpt>
      <trkpt lat="47.73863" lon="-1.86825">
        <ele>76.7</ele>
      </trkpt>
      <trkpt lat="47.73869" lon="-1.86827">
        <ele>76.4</ele>
      </trkpt>
      <trkpt lat="47.73876" lon="-1.86829">
        <ele>76</ele>
      </trkpt>
      <trkpt lat="47.73883" lon="-1.86832">
        <ele>75.6</ele>
      </trkpt>
      <trkpt lat="47.73888" lon="-1.86834">
        <ele>75.4</ele>
      </trkpt>
      <trkpt lat="47.73894" lon="-1.86836">
        <ele>75</ele>
      </trkpt>
      <trkpt lat="47.73901" lon="-1.86839">
        <ele>74.5</ele>
      </trkpt>
      <trkpt lat="47.73907" lon="-1.86841">
        <ele>74.1</ele>
      </trkpt>
      <trkpt lat="47.73913" lon="-1.86844">
        <ele>73.7</ele>
      </trkpt>
      <trkpt lat="47.73918" lon="-1.86846">
        <ele>73.3</ele>
      </trkpt>
      <trkpt lat="47.73924" lon="-1.86848">
        <ele>72.6</ele>
      </trkpt>
      <trkpt lat="47.73931" lon="-1.86851">
        <ele>71.7</ele>
      </trkpt>
      <trkpt lat="47.73937" lon="-1.86853">
        <ele>71</ele>
      </trkpt>
      <trkpt lat="47.73943" lon="-1.86855">
        <ele>70.3</ele>
      </trkpt>
      <trkpt lat="47.73948" lon="-1.86856">
        <ele>69.8</ele>
      </trkpt>
      <trkpt lat="47.73955" lon="-1.86854">
        <ele>69.2</ele>
      </trkpt>
      <trkpt lat="47.73959" lon="-1.86851">
        <ele>68.9</ele>
      </trkpt>
      <trkpt lat="47.73964" lon="-1.86845">
        <ele>68.8</ele>
      </trkpt>
      <trkpt lat="47.73966" lon="-1.86839">
        <ele>68.9</ele>
      </trkpt>
      <trkpt lat="47.73968" lon="-1.86832">
        <ele>69.1</ele>
      </trkpt>
      <trkpt lat="47.7397" lon="-1.86824">
        <ele>69.3</ele>
      </trkpt>
      <trkpt lat="47.73972" lon="-1.86817">
        <ele>69.5</ele>
      </trkpt>
      <trkpt lat="47.73973" lon="-1.86811">
        <ele>69.7</ele>
      </trkpt>
      <trkpt lat="47.73975" lon="-1.86797">
        <ele>70.2</ele>
      </trkpt>
      <trkpt lat="47.73975" lon="-1.86794">
        <ele>70.4</ele>
      </trkpt>
      <trkpt lat="47.73975" lon="-1.86791">
        <ele>70.5</ele>
      </trkpt>
      <trkpt lat="47.73976" lon="-1.86785">
        <ele>70.8</ele>
      </trkpt>
      <trkpt lat="47.73976" lon="-1.86783">
        <ele>70.9</ele>
      </trkpt>
      <trkpt lat="47.73976" lon="-1.86781">
        <ele>71</ele>
      </trkpt>
      <trkpt lat="47.73976" lon="-1.86778">
        <ele>71.1</ele>
      </trkpt>
      <trkpt lat="47.73977" lon="-1.86776">
        <ele>71.2</ele>
      </trkpt>
      <trkpt lat="47.73977" lon="-1.86773">
        <ele>71.4</ele>
      </trkpt>
      <trkpt lat="47.73977" lon="-1.8677">
        <ele>71.5</ele>
      </trkpt>
      <trkpt lat="47.73978" lon="-1.86766">
        <ele>71.7</ele>
      </trkpt>
      <trkpt lat="47.73979" lon="-1.86762">
        <ele>71.9</ele>
      </trkpt>
      <trkpt lat="47.73979" lon="-1.86758">
        <ele>72.1</ele>
      </trkpt>
      <trkpt lat="47.73979" lon="-1.86755">
        <ele>72.3</ele>
      </trkpt>
      <trkpt lat="47.73979" lon="-1.86752">
        <ele>72.4</ele>
      </trkpt>
      <trkpt lat="47.73981" lon="-1.8675">
        <ele>72.5</ele>
      </trkpt>
      <trkpt lat="47.73983" lon="-1.86749">
        <ele>72.4</ele>
      </trkpt>
      <trkpt lat="47.73985" lon="-1.86749">
        <ele>72.4</ele>
      </trkpt>
      <trkpt lat="47.73987" lon="-1.86749">
        <ele>72.3</ele>
      </trkpt>
      <trkpt lat="47.73991" lon="-1.86749">
        <ele>72.2</ele>
      </trkpt>
      <trkpt lat="47.73991" lon="-1.86749">
        <ele>72.2</ele>
      </trkpt>
      <trkpt lat="47.73995" lon="-1.8675">
        <ele>72.1</ele>
      </trkpt>
      <trkpt lat="47.73998" lon="-1.86749">
        <ele>72.1</ele>
      </trkpt>
      <trkpt lat="47.74" lon="-1.86748">
        <ele>72</ele>
      </trkpt>
      <trkpt lat="47.74003" lon="-1.86749">
        <ele>71.2</ele>
      </trkpt>
      <trkpt lat="47.74006" lon="-1.86751">
        <ele>70.2</ele>
      </trkpt>
      <trkpt lat="47.74008" lon="-1.86754">
        <ele>69.4</ele>
      </trkpt>
      <trkpt lat="47.7401" lon="-1.86757">
        <ele>68.7</ele>
      </trkpt>
      <trkpt lat="47.74013" lon="-1.86758">
        <ele>67.9</ele>
      </trkpt>
      <trkpt lat="47.74015" lon="-1.86758">
        <ele>67.4</ele>
      </trkpt>
      <trkpt lat="47.74017" lon="-1.86755">
        <ele>67</ele>
      </trkpt>
      <trkpt lat="47.74018" lon="-1.86752">
        <ele>66.9</ele>
      </trkpt>
      <trkpt lat="47.74019" lon="-1.86751">
        <ele>66.8</ele>
      </trkpt>
      <trkpt lat="47.74019" lon="-1.8675">
        <ele>66.7</ele>
      </trkpt>
      <trkpt lat="47.7402" lon="-1.86749">
        <ele>66.6</ele>
      </trkpt>
      <trkpt lat="47.7402" lon="-1.86749">
        <ele>66.6</ele>
      </trkpt>
      <trkpt lat="47.7402" lon="-1.86749">
        <ele>66.6</ele>
      </trkpt>
      <trkpt lat="47.74021" lon="-1.86749">
        <ele>66.3</ele>
      </trkpt>
      <trkpt lat="47.74022" lon="-1.8675">
        <ele>65.9</ele>
      </trkpt>
      <trkpt lat="47.74023" lon="-1.86752">
        <ele>65.5</ele>
      </trkpt>
      <trkpt lat="47.74024" lon="-1.86754">
        <ele>65.1</ele>
      </trkpt>
      <trkpt lat="47.74025" lon="-1.86758">
        <ele>64.7</ele>
      </trkpt>
      <trkpt lat="47.74026" lon="-1.86763">
        <ele>64.1</ele>
      </trkpt>
      <trkpt lat="47.74026" lon="-1.86768">
        <ele>63.8</ele>
      </trkpt>
      <trkpt lat="47.74027" lon="-1.86772">
        <ele>63.4</ele>
      </trkpt>
      <trkpt lat="47.74028" lon="-1.86773">
        <ele>63</ele>
      </trkpt>
      <trkpt lat="47.7403" lon="-1.86773">
        <ele>62.5</ele>
      </trkpt>
      <trkpt lat="47.74031" lon="-1.86768">
        <ele>62.4</ele>
      </trkpt>
      <trkpt lat="47.74032" lon="-1.86764">
        <ele>62.4</ele>
      </trkpt>
      <trkpt lat="47.74032" lon="-1.86761">
        <ele>62.6</ele>
      </trkpt>
      <trkpt lat="47.74033" lon="-1.86757">
        <ele>62.5</ele>
      </trkpt>
      <trkpt lat="47.74034" lon="-1.86754">
        <ele>62.3</ele>
      </trkpt>
      <trkpt lat="47.74035" lon="-1.86751">
        <ele>62.3</ele>
      </trkpt>
      <trkpt lat="47.74036" lon="-1.86748">
        <ele>62.1</ele>
      </trkpt>
      <trkpt lat="47.74037" lon="-1.86746">
        <ele>61.9</ele>
      </trkpt>
      <trkpt lat="47.74038" lon="-1.86743">
        <ele>61.8</ele>
      </trkpt>
      <trkpt lat="47.74039" lon="-1.86739">
        <ele>61.5</ele>
      </trkpt>
      <trkpt lat="47.74041" lon="-1.86733">
        <ele>61.2</ele>
      </trkpt>
      <trkpt lat="47.74042" lon="-1.86728">
        <ele>60.8</ele>
      </trkpt>
      <trkpt lat="47.74044" lon="-1.86722">
        <ele>60.6</ele>
      </trkpt>
      <trkpt lat="47.74045" lon="-1.86718">
        <ele>60.3</ele>
      </trkpt>
      <trkpt lat="47.74047" lon="-1.86714">
        <ele>60</ele>
      </trkpt>
      <trkpt lat="47.74048" lon="-1.8671">
        <ele>59.8</ele>
      </trkpt>
      <trkpt lat="47.74048" lon="-1.86707">
        <ele>59.8</ele>
      </trkpt>
      <trkpt lat="47.74048" lon="-1.86706">
        <ele>59.8</ele>
      </trkpt>
      <trkpt lat="47.74048" lon="-1.86706">
        <ele>59.8</ele>
      </trkpt>
      <trkpt lat="47.74048" lon="-1.86706">
        <ele>59.8</ele>
      </trkpt>
      <trkpt lat="47.74048" lon="-1.86706">
        <ele>59.8</ele>
      </trkpt>
      <trkpt lat="47.74048" lon="-1.86706">
        <ele>59.8</ele>
      </trkpt>
      <trkpt lat="47.74048" lon="-1.86706">
        <ele>59.8</ele>
      </trkpt>
      <trkpt lat="47.74049" lon="-1.86705">
        <ele>59.7</ele>
      </trkpt>
      <trkpt lat="47.74049" lon="-1.86704">
        <ele>59.7</ele>
      </trkpt>
      <trkpt lat="47.74049" lon="-1.86704">
        <ele>59.7</ele>
      </trkpt>
      <trkpt lat="47.74049" lon="-1.86704">
        <ele>59.7</ele>
      </trkpt>
      <trkpt lat="47.7405" lon="-1.86703">
        <ele>59.5</ele>
      </trkpt>
      <trkpt lat="47.7405" lon="-1.86702">
        <ele>59.4</ele>
      </trkpt>
      <trkpt lat="47.7405" lon="-1.86702">
        <ele>59.3</ele>
      </trkpt>
      <trkpt lat="47.7405" lon="-1.86702">
        <ele>59.3</ele>
      </trkpt>
      <trkpt lat="47.7405" lon="-1.86702">
        <ele>59.3</ele>
      </trkpt>
      <trkpt lat="47.7405" lon="-1.86702">
        <ele>59.3</ele>
      </trkpt>
      <trkpt lat="47.7405" lon="-1.86702">
        <ele>59.3</ele>
      </trkpt>
      <trkpt lat="47.7405" lon="-1.86702">
        <ele>59.3</ele>
      </trkpt>
      <trkpt lat="47.7405" lon="-1.86702">
        <ele>59.3</ele>
      </trkpt>
      <trkpt lat="47.7405" lon="-1.86701">
        <ele>59.3</ele>
      </trkpt>
      <trkpt lat="47.7405" lon="-1.86698">
        <ele>59.5</ele>
      </trkpt>
      <trkpt lat="47.7405" lon="-1.86695">
        <ele>59.6</ele>
      </trkpt>
      <trkpt lat="47.74049" lon="-1.86693">
        <ele>59.8</ele>
      </trkpt>
      <trkpt lat="47.74049" lon="-1.8669">
        <ele>59.9</ele>
      </trkpt>
      <trkpt lat="47.74049" lon="-1.86687">
        <ele>60.1</ele>
      </trkpt>
      <trkpt lat="47.74048" lon="-1.86684">
        <ele>60.2</ele>
      </trkpt>
      <trkpt lat="47.74049" lon="-1.8668">
        <ele>60.3</ele>
      </trkpt>
      <trkpt lat="47.74048" lon="-1.86677">
        <ele>60.5</ele>
      </trkpt>
      <trkpt lat="47.74047" lon="-1.86675">
        <ele>60.7</ele>
      </trkpt>
      <trkpt lat="47.74047" lon="-1.86673">
        <ele>60.8</ele>
      </trkpt>
      <trkpt lat="47.74049" lon="-1.86668">
        <ele>60.6</ele>
      </trkpt>
      <trkpt lat="47.7405" lon="-1.86665">
        <ele>60.3</ele>
      </trkpt>
      <trkpt lat="47.74051" lon="-1.86661">
        <ele>60</ele>
      </trkpt>
      <trkpt lat="47.74053" lon="-1.86655">
        <ele>59.9</ele>
      </trkpt>
      <trkpt lat="47.74053" lon="-1.8665">
        <ele>59.8</ele>
      </trkpt>
      <trkpt lat="47.74054" lon="-1.86646">
        <ele>59.8</ele>
      </trkpt>
      <trkpt lat="47.74054" lon="-1.86643">
        <ele>59.9</ele>
      </trkpt>
      <trkpt lat="47.74054" lon="-1.8664">
        <ele>60</ele>
      </trkpt>
      <trkpt lat="47.74055" lon="-1.86636">
        <ele>59.9</ele>
      </trkpt>
      <trkpt lat="47.74056" lon="-1.86631">
        <ele>59.7</ele>
      </trkpt>
      <trkpt lat="47.74058" lon="-1.86627">
        <ele>59.2</ele>
      </trkpt>
      <trkpt lat="47.7406" lon="-1.86624">
        <ele>58.7</ele>
      </trkpt>
      <trkpt lat="47.74061" lon="-1.86618">
        <ele>58.7</ele>
      </trkpt>
      <trkpt lat="47.74061" lon="-1.86614">
        <ele>58.8</ele>
      </trkpt>
      <trkpt lat="47.74061" lon="-1.86611">
        <ele>59.1</ele>
      </trkpt>
      <trkpt lat="47.7406" lon="-1.86608">
        <ele>59.4</ele>
      </trkpt>
      <trkpt lat="47.74059" lon="-1.86604">
        <ele>59.9</ele>
      </trkpt>
      <trkpt lat="47.74056" lon="-1.86599">
        <ele>60.6</ele>
      </trkpt>
      <trkpt lat="47.74056" lon="-1.86594">
        <ele>61</ele>
      </trkpt>
      <trkpt lat="47.74055" lon="-1.86589">
        <ele>61.3</ele>
      </trkpt>
      <trkpt lat="47.74054" lon="-1.86585">
        <ele>61.7</ele>
      </trkpt>
      <trkpt lat="47.74054" lon="-1.86579">
        <ele>61.8</ele>
      </trkpt>
      <trkpt lat="47.74054" lon="-1.86575">
        <ele>61.7</ele>
      </trkpt>
      <trkpt lat="47.74054" lon="-1.86572">
        <ele>61.8</ele>
      </trkpt>
      <trkpt lat="47.74053" lon="-1.86569">
        <ele>62</ele>
      </trkpt>
      <trkpt lat="47.74052" lon="-1.86567">
        <ele>62.3</ele>
      </trkpt>
      <trkpt lat="47.74051" lon="-1.86564">
        <ele>62.6</ele>
      </trkpt>
      <trkpt lat="47.7405" lon="-1.86561">
        <ele>63</ele>
      </trkpt>
      <trkpt lat="47.74049" lon="-1.86558">
        <ele>63</ele>
      </trkpt>
      <trkpt lat="47.7405" lon="-1.86555">
        <ele>62.9</ele>
      </trkpt>
      <trkpt lat="47.7405" lon="-1.86551">
        <ele>62.7</ele>
      </trkpt>
      <trkpt lat="47.74051" lon="-1.86547">
        <ele>62.7</ele>
      </trkpt>
      <trkpt lat="47.7405" lon="-1.86545">
        <ele>62.8</ele>
      </trkpt>
      <trkpt lat="47.7405" lon="-1.86542">
        <ele>62.8</ele>
      </trkpt>
      <trkpt lat="47.7405" lon="-1.86539">
        <ele>62.9</ele>
      </trkpt>
      <trkpt lat="47.7405" lon="-1.86536">
        <ele>62.8</ele>
      </trkpt>
      <trkpt lat="47.7405" lon="-1.86533">
        <ele>62.9</ele>
      </trkpt>
      <trkpt lat="47.74049" lon="-1.86532">
        <ele>63.1</ele>
      </trkpt>
      <trkpt lat="47.74049" lon="-1.8653">
        <ele>63.2</ele>
      </trkpt>
      <trkpt lat="47.74049" lon="-1.86527">
        <ele>63.2</ele>
      </trkpt>
      <trkpt lat="47.74049" lon="-1.86523">
        <ele>63.3</ele>
      </trkpt>
      <trkpt lat="47.74049" lon="-1.86518">
        <ele>63.3</ele>
      </trkpt>
      <trkpt lat="47.74049" lon="-1.86515">
        <ele>63.2</ele>
      </trkpt>
      <trkpt lat="47.7405" lon="-1.8651">
        <ele>63</ele>
      </trkpt>
      <trkpt lat="47.7405" lon="-1.86506">
        <ele>63</ele>
      </trkpt>
      <trkpt lat="47.74049" lon="-1.86502">
        <ele>63.2</ele>
      </trkpt>
      <trkpt lat="47.74049" lon="-1.86499">
        <ele>63.4</ele>
      </trkpt>
      <trkpt lat="47.74048" lon="-1.86496">
        <ele>63.6</ele>
      </trkpt>
      <trkpt lat="47.74047" lon="-1.86493">
        <ele>63.7</ele>
      </trkpt>
      <trkpt lat="47.74047" lon="-1.86491">
        <ele>63.9</ele>
      </trkpt>
      <trkpt lat="47.74045" lon="-1.86489">
        <ele>64.3</ele>
      </trkpt>
      <trkpt lat="47.74044" lon="-1.86487">
        <ele>64.7</ele>
      </trkpt>
      <trkpt lat="47.74042" lon="-1.86485">
        <ele>65</ele>
      </trkpt>
      <trkpt lat="47.74041" lon="-1.86485">
        <ele>65.4</ele>
      </trkpt>
      <trkpt lat="47.74039" lon="-1.86484">
        <ele>65.7</ele>
      </trkpt>
      <trkpt lat="47.74038" lon="-1.86482">
        <ele>66</ele>
      </trkpt>
      <trkpt lat="47.74036" lon="-1.8648">
        <ele>66.5</ele>
      </trkpt>
      <trkpt lat="47.74033" lon="-1.86479">
        <ele>67.2</ele>
      </trkpt>
      <trkpt lat="47.74032" lon="-1.86477">
        <ele>67.6</ele>
      </trkpt>
      <trkpt lat="47.74031" lon="-1.86475">
        <ele>67.8</ele>
      </trkpt>
      <trkpt lat="47.74031" lon="-1.86473">
        <ele>67.8</ele>
      </trkpt>
      <trkpt lat="47.74032" lon="-1.8647">
        <ele>67.6</ele>
      </trkpt>
      <trkpt lat="47.74034" lon="-1.86466">
        <ele>67.1</ele>
      </trkpt>
      <trkpt lat="47.74037" lon="-1.86462">
        <ele>66.6</ele>
      </trkpt>
      <trkpt lat="47.74039" lon="-1.86458">
        <ele>66.1</ele>
      </trkpt>
      <trkpt lat="47.7404" lon="-1.86454">
        <ele>65.9</ele>
      </trkpt>
      <trkpt lat="47.74042" lon="-1.8645">
        <ele>65.6</ele>
      </trkpt>
      <trkpt lat="47.74044" lon="-1.86445">
        <ele>65.2</ele>
      </trkpt>
      <trkpt lat="47.74045" lon="-1.86441">
        <ele>65.1</ele>
      </trkpt>
      <trkpt lat="47.74045" lon="-1.8644">
        <ele>65</ele>
      </trkpt>
      <trkpt lat="47.74045" lon="-1.8644">
        <ele>64.9</ele>
      </trkpt>
      <trkpt lat="47.74046" lon="-1.86441">
        <ele>64.7</ele>
      </trkpt>
      <trkpt lat="47.74047" lon="-1.86444">
        <ele>64.5</ele>
      </trkpt>
      <trkpt lat="47.74047" lon="-1.86446">
        <ele>64.4</ele>
      </trkpt>
      <trkpt lat="47.74049" lon="-1.86449">
        <ele>64.1</ele>
      </trkpt>
      <trkpt lat="47.7405" lon="-1.86453">
        <ele>63.6</ele>
      </trkpt>
      <trkpt lat="47.74053" lon="-1.86457">
        <ele>63</ele>
      </trkpt>
      <trkpt lat="47.74054" lon="-1.8646">
        <ele>62.6</ele>
      </trkpt>
      <trkpt lat="47.74055" lon="-1.86463">
        <ele>62.3</ele>
      </trkpt>
      <trkpt lat="47.74056" lon="-1.86466">
        <ele>62.1</ele>
      </trkpt>
      <trkpt lat="47.74057" lon="-1.86468">
        <ele>61.8</ele>
      </trkpt>
      <trkpt lat="47.74059" lon="-1.86469">
        <ele>61.5</ele>
      </trkpt>
      <trkpt lat="47.7406" lon="-1.86468">
        <ele>61.2</ele>
      </trkpt>
      <trkpt lat="47.74061" lon="-1.86465">
        <ele>61.1</ele>
      </trkpt>
      <trkpt lat="47.74062" lon="-1.86459">
        <ele>60.9</ele>
      </trkpt>
      <trkpt lat="47.74066" lon="-1.86453">
        <ele>60.2</ele>
      </trkpt>
      <trkpt lat="47.74068" lon="-1.86446">
        <ele>59.7</ele>
      </trkpt>
      <trkpt lat="47.74069" lon="-1.8644">
        <ele>59.7</ele>
      </trkpt>
      <trkpt lat="47.74069" lon="-1.86437">
        <ele>59.7</ele>
      </trkpt>
      <trkpt lat="47.74068" lon="-1.86434">
        <ele>59.9</ele>
      </trkpt>
      <trkpt lat="47.74068" lon="-1.86431">
        <ele>60.1</ele>
      </trkpt>
      <trkpt lat="47.74066" lon="-1.86429">
        <ele>60.5</ele>
      </trkpt>
      <trkpt lat="47.74064" lon="-1.86428">
        <ele>61</ele>
      </trkpt>
      <trkpt lat="47.74062" lon="-1.86427">
        <ele>61.4</ele>
      </trkpt>
      <trkpt lat="47.74061" lon="-1.86425">
        <ele>61.8</ele>
      </trkpt>
      <trkpt lat="47.7406" lon="-1.86424">
        <ele>62</ele>
      </trkpt>
      <trkpt lat="47.74059" lon="-1.86423">
        <ele>62.2</ele>
      </trkpt>
      <trkpt lat="47.74059" lon="-1.86422">
        <ele>62.2</ele>
      </trkpt>
      <trkpt lat="47.74059" lon="-1.86422">
        <ele>62.2</ele>
      </trkpt>
      <trkpt lat="47.74059" lon="-1.86422">
        <ele>62.2</ele>
      </trkpt>
      <trkpt lat="47.74059" lon="-1.86422">
        <ele>62.2</ele>
      </trkpt>
      <trkpt lat="47.74059" lon="-1.86422">
        <ele>62.2</ele>
      </trkpt>
      <trkpt lat="47.74059" lon="-1.86422">
        <ele>62.2</ele>
      </trkpt>
      <trkpt lat="47.74059" lon="-1.86422">
        <ele>62.2</ele>
      </trkpt>
      <trkpt lat="47.74059" lon="-1.86421">
        <ele>62.2</ele>
      </trkpt>
      <trkpt lat="47.74059" lon="-1.86421">
        <ele>62.2</ele>
      </trkpt>
      <trkpt lat="47.74059" lon="-1.86421">
        <ele>62.2</ele>
      </trkpt>
      <trkpt lat="47.74059" lon="-1.86421">
        <ele>62.2</ele>
      </trkpt>
      <trkpt lat="47.74059" lon="-1.86421">
        <ele>62.2</ele>
      </trkpt>
      <trkpt lat="47.74059" lon="-1.86421">
        <ele>62.2</ele>
      </trkpt>
      <trkpt lat="47.74059" lon="-1.86421">
        <ele>62.2</ele>
      </trkpt>
      <trkpt lat="47.74059" lon="-1.86421">
        <ele>62.2</ele>
      </trkpt>
      <trkpt lat="47.74059" lon="-1.86421">
        <ele>62.2</ele>
      </trkpt>
      <trkpt lat="47.74059" lon="-1.86421">
        <ele>62.2</ele>
      </trkpt>
      <trkpt lat="47.74059" lon="-1.86421">
        <ele>62.2</ele>
      </trkpt>
      <trkpt lat="47.74059" lon="-1.86421">
        <ele>62.2</ele>
      </trkpt>
      <trkpt lat="47.74059" lon="-1.86421">
        <ele>62.2</ele>
      </trkpt>
      <trkpt lat="47.74059" lon="-1.86421">
        <ele>62.2</ele>
      </trkpt>
      <trkpt lat="47.74059" lon="-1.86421">
        <ele>62.2</ele>
      </trkpt>
      <trkpt lat="47.74059" lon="-1.86421">
        <ele>62.2</ele>
      </trkpt>
      <trkpt lat="47.74059" lon="-1.86421">
        <ele>62.2</ele>
      </trkpt>
      <trkpt lat="47.74059" lon="-1.86421">
        <ele>62.2</ele>
      </trkpt>
      <trkpt lat="47.74059" lon="-1.86421">
        <ele>62.2</ele>
      </trkpt>
      <trkpt lat="47.74059" lon="-1.86421">
        <ele>62.2</ele>
      </trkpt>
      <trkpt lat="47.74059" lon="-1.86421">
        <ele>62.2</ele>
      </trkpt>
      <trkpt lat="47.74059" lon="-1.86421">
        <ele>62.2</ele>
      </trkpt>
      <trkpt lat="47.74059" lon="-1.86421">
        <ele>62.2</ele>
      </trkpt>
      <trkpt lat="47.74059" lon="-1.8642">
        <ele>62.2</ele>
      </trkpt>
      <trkpt lat="47.7406" lon="-1.86418">
        <ele>62.1</ele>
      </trkpt>
      <trkpt lat="47.7406" lon="-1.86417">
        <ele>62</ele>
      </trkpt>
      <trkpt lat="47.74061" lon="-1.86415">
        <ele>61.9</ele>
      </trkpt>
      <trkpt lat="47.74062" lon="-1.86413">
        <ele>61.7</ele>
      </trkpt>
      <trkpt lat="47.74063" lon="-1.8641">
        <ele>61.5</ele>
      </trkpt>
      <trkpt lat="47.74063" lon="-1.86408">
        <ele>61.4</ele>
      </trkpt>
      <trkpt lat="47.74064" lon="-1.86406">
        <ele>61.4</ele>
      </trkpt>
      <trkpt lat="47.74065" lon="-1.86403">
        <ele>61.2</ele>
      </trkpt>
      <trkpt lat="47.74067" lon="-1.864">
        <ele>60.8</ele>
      </trkpt>
      <trkpt lat="47.74069" lon="-1.86397">
        <ele>60.5</ele>
      </trkpt>
      <trkpt lat="47.74069" lon="-1.86395">
        <ele>60.5</ele>
      </trkpt>
      <trkpt lat="47.74068" lon="-1.86393">
        <ele>60.7</ele>
      </trkpt>
      <trkpt lat="47.74068" lon="-1.86393">
        <ele>60.8</ele>
      </trkpt>
      <trkpt lat="47.74068" lon="-1.86393">
        <ele>60.8</ele>
      </trkpt>
      <trkpt lat="47.74068" lon="-1.86393">
        <ele>60.8</ele>
      </trkpt>
      <trkpt lat="47.74068" lon="-1.86392">
        <ele>60.9</ele>
      </trkpt>
      <trkpt lat="47.74067" lon="-1.86392">
        <ele>60.9</ele>
      </trkpt>
      <trkpt lat="47.74067" lon="-1.86392">
        <ele>60.9</ele>
      </trkpt>
      <trkpt lat="47.74067" lon="-1.86391">
        <ele>60.9</ele>
      </trkpt>
      <trkpt lat="47.74068" lon="-1.86389">
        <ele>60.9</ele>
      </trkpt>
      <trkpt lat="47.74067" lon="-1.86386">
        <ele>61.1</ele>
      </trkpt>
      <trkpt lat="47.74066" lon="-1.86385">
        <ele>61.3</ele>
      </trkpt>
      <trkpt lat="47.74066" lon="-1.86383">
        <ele>61.5</ele>
      </trkpt>
      <trkpt lat="47.74064" lon="-1.86382">
        <ele>61.7</ele>
      </trkpt>
      <trkpt lat="47.74063" lon="-1.86382">
        <ele>61.9</ele>
      </trkpt>
      <trkpt lat="47.74063" lon="-1.8638">
        <ele>62.1</ele>
      </trkpt>
      <trkpt lat="47.74062" lon="-1.86378">
        <ele>62.2</ele>
      </trkpt>
      <trkpt lat="47.74062" lon="-1.86376">
        <ele>62.3</ele>
      </trkpt>
      <trkpt lat="47.74062" lon="-1.86374">
        <ele>62.4</ele>
      </trkpt>
      <trkpt lat="47.74062" lon="-1.86372">
        <ele>62.4</ele>
      </trkpt>
      <trkpt lat="47.74062" lon="-1.86368">
        <ele>62.5</ele>
      </trkpt>
      <trkpt lat="47.74062" lon="-1.86366">
        <ele>62.6</ele>
      </trkpt>
      <trkpt lat="47.74062" lon="-1.86366">
        <ele>62.6</ele>
      </trkpt>
      <trkpt lat="47.74062" lon="-1.86366">
        <ele>62.6</ele>
      </trkpt>
      <trkpt lat="47.74062" lon="-1.86366">
        <ele>62.6</ele>
      </trkpt>
      <trkpt lat="47.74062" lon="-1.86366">
        <ele>62.6</ele>
      </trkpt>
      <trkpt lat="47.74062" lon="-1.86364">
        <ele>62.6</ele>
      </trkpt>
      <trkpt lat="47.74061" lon="-1.86363">
        <ele>62.7</ele>
      </trkpt>
      <trkpt lat="47.74061" lon="-1.86361">
        <ele>62.8</ele>
      </trkpt>
      <trkpt lat="47.74061" lon="-1.86359">
        <ele>62.8</ele>
      </trkpt>
      <trkpt lat="47.74062" lon="-1.86355">
        <ele>62.8</ele>
      </trkpt>
      <trkpt lat="47.74062" lon="-1.86352">
        <ele>62.8</ele>
      </trkpt>
      <trkpt lat="47.74062" lon="-1.86351">
        <ele>62.8</ele>
      </trkpt>
      <trkpt lat="47.74063" lon="-1.86349">
        <ele>62.7</ele>
      </trkpt>
      <trkpt lat="47.74063" lon="-1.86347">
        <ele>62.7</ele>
      </trkpt>
      <trkpt lat="47.74062" lon="-1.86346">
        <ele>62.9</ele>
      </trkpt>
      <trkpt lat="47.74062" lon="-1.86345">
        <ele>63</ele>
      </trkpt>
      <trkpt lat="47.74061" lon="-1.86345">
        <ele>63.1</ele>
      </trkpt>
      <trkpt lat="47.74061" lon="-1.86345">
        <ele>63.1</ele>
      </trkpt>
      <trkpt lat="47.74061" lon="-1.86343">
        <ele>63.1</ele>
      </trkpt>
      <trkpt lat="47.74061" lon="-1.86342">
        <ele>63.2</ele>
      </trkpt>
      <trkpt lat="47.74061" lon="-1.8634">
        <ele>63.2</ele>
      </trkpt>
      <trkpt lat="47.74061" lon="-1.86337">
        <ele>63.2</ele>
      </trkpt>
      <trkpt lat="47.74062" lon="-1.86334">
        <ele>63.2</ele>
      </trkpt>
      <trkpt lat="47.74063" lon="-1.86331">
        <ele>62.8</ele>
      </trkpt>
      <trkpt lat="47.74063" lon="-1.86328">
        <ele>62.5</ele>
      </trkpt>
      <trkpt lat="47.74064" lon="-1.86324">
        <ele>62</ele>
      </trkpt>
      <trkpt lat="47.74064" lon="-1.86318">
        <ele>61.5</ele>
      </trkpt>
      <trkpt lat="47.74065" lon="-1.86312">
        <ele>60.8</ele>
      </trkpt>
      <trkpt lat="47.74066" lon="-1.86307">
        <ele>60.4</ele>
      </trkpt>
      <trkpt lat="47.74065" lon="-1.86303">
        <ele>60.3</ele>
      </trkpt>
      <trkpt lat="47.74064" lon="-1.86301">
        <ele>60.3</ele>
      </trkpt>
      <trkpt lat="47.74064" lon="-1.86298">
        <ele>60.1</ele>
      </trkpt>
      <trkpt lat="47.74064" lon="-1.86293">
        <ele>59.7</ele>
      </trkpt>
      <trkpt lat="47.74063" lon="-1.86289">
        <ele>59.5</ele>
      </trkpt>
      <trkpt lat="47.74063" lon="-1.86283">
        <ele>59</ele>
      </trkpt>
      <trkpt lat="47.74065" lon="-1.86276">
        <ele>58.2</ele>
      </trkpt>
      <trkpt lat="47.74067" lon="-1.86273">
        <ele>57.4</ele>
      </trkpt>
      <trkpt lat="47.74068" lon="-1.86268">
        <ele>56.9</ele>
      </trkpt>
      <trkpt lat="47.74068" lon="-1.86262">
        <ele>56.5</ele>
      </trkpt>
      <trkpt lat="47.74067" lon="-1.86257">
        <ele>56.3</ele>
      </trkpt>
      <trkpt lat="47.74066" lon="-1.86252">
        <ele>56.1</ele>
      </trkpt>
      <trkpt lat="47.74065" lon="-1.86248">
        <ele>56</ele>
      </trkpt>
      <trkpt lat="47.74064" lon="-1.86243">
        <ele>56</ele>
      </trkpt>
      <trkpt lat="47.74063" lon="-1.8624">
        <ele>55.9</ele>
      </trkpt>
      <trkpt lat="47.74062" lon="-1.86236">
        <ele>56</ele>
      </trkpt>
      <trkpt lat="47.74062" lon="-1.86232">
        <ele>55.8</ele>
      </trkpt>
      <trkpt lat="47.74061" lon="-1.86228">
        <ele>55.8</ele>
      </trkpt>
      <trkpt lat="47.7406" lon="-1.86227">
        <ele>55.9</ele>
      </trkpt>
      <trkpt lat="47.74059" lon="-1.86225">
        <ele>55.9</ele>
      </trkpt>
      <trkpt lat="47.7406" lon="-1.86223">
        <ele>55.7</ele>
      </trkpt>
      <trkpt lat="47.74059" lon="-1.86221">
        <ele>55.7</ele>
      </trkpt>
      <trkpt lat="47.74058" lon="-1.86219">
        <ele>55.9</ele>
      </trkpt>
      <trkpt lat="47.74058" lon="-1.86218">
        <ele>55.9</ele>
      </trkpt>
      <trkpt lat="47.74056" lon="-1.86219">
        <ele>56.3</ele>
      </trkpt>
      <trkpt lat="47.74056" lon="-1.8622">
        <ele>56.4</ele>
      </trkpt>
      <trkpt lat="47.74056" lon="-1.8622">
        <ele>56.4</ele>
      </trkpt>
      <trkpt lat="47.74056" lon="-1.8622">
        <ele>56.4</ele>
      </trkpt>
      <trkpt lat="47.74056" lon="-1.8622">
        <ele>56.4</ele>
      </trkpt>
      <trkpt lat="47.74056" lon="-1.8622">
        <ele>56.4</ele>
      </trkpt>
      <trkpt lat="47.74055" lon="-1.86218">
        <ele>56.5</ele>
      </trkpt>
      <trkpt lat="47.74055" lon="-1.86218">
        <ele>56.6</ele>
      </trkpt>
      <trkpt lat="47.74055" lon="-1.86217">
        <ele>56.6</ele>
      </trkpt>
      <trkpt lat="47.74055" lon="-1.86217">
        <ele>56.6</ele>
      </trkpt>
      <trkpt lat="47.74055" lon="-1.86215">
        <ele>56.5</ele>
      </trkpt>
      <trkpt lat="47.74054" lon="-1.86215">
        <ele>56.5</ele>
      </trkpt>
      <trkpt lat="47.74054" lon="-1.86215">
        <ele>56.5</ele>
      </trkpt>
      <trkpt lat="47.74054" lon="-1.86215">
        <ele>56.5</ele>
      </trkpt>
      <trkpt lat="47.74054" lon="-1.86215">
        <ele>56.5</ele>
      </trkpt>
      <trkpt lat="47.74054" lon="-1.86215">
        <ele>56.5</ele>
      </trkpt>
      <trkpt lat="47.74054" lon="-1.86215">
        <ele>56.5</ele>
      </trkpt>
      <trkpt lat="47.74054" lon="-1.86213">
        <ele>56.5</ele>
      </trkpt>
      <trkpt lat="47.74053" lon="-1.8621">
        <ele>56.5</ele>
      </trkpt>
      <trkpt lat="47.74052" lon="-1.86208">
        <ele>56.7</ele>
      </trkpt>
      <trkpt lat="47.74051" lon="-1.86205">
        <ele>56.8</ele>
      </trkpt>
      <trkpt lat="47.7405" lon="-1.86204">
        <ele>56.9</ele>
      </trkpt>
      <trkpt lat="47.74049" lon="-1.86202">
        <ele>57</ele>
      </trkpt>
      <trkpt lat="47.74048" lon="-1.862">
        <ele>57.2</ele>
      </trkpt>
      <trkpt lat="47.74047" lon="-1.86197">
        <ele>57.3</ele>
      </trkpt>
      <trkpt lat="47.74046" lon="-1.86195">
        <ele>57.4</ele>
      </trkpt>
      <trkpt lat="47.74045" lon="-1.86192">
        <ele>57.4</ele>
      </trkpt>
      <trkpt lat="47.74045" lon="-1.86189">
        <ele>57.4</ele>
      </trkpt>
      <trkpt lat="47.74045" lon="-1.86187">
        <ele>57.2</ele>
      </trkpt>
      <trkpt lat="47.74044" lon="-1.86182">
        <ele>57.1</ele>
      </trkpt>
      <trkpt lat="47.74043" lon="-1.86178">
        <ele>57.2</ele>
      </trkpt>
      <trkpt lat="47.74042" lon="-1.86174">
        <ele>57.4</ele>
      </trkpt>
      <trkpt lat="47.7404" lon="-1.86173">
        <ele>57.8</ele>
      </trkpt>
      <trkpt lat="47.74038" lon="-1.86171">
        <ele>58.2</ele>
      </trkpt>
      <trkpt lat="47.74036" lon="-1.86169">
        <ele>58.5</ele>
      </trkpt>
      <trkpt lat="47.74035" lon="-1.86167">
        <ele>58.8</ele>
      </trkpt>
      <trkpt lat="47.74034" lon="-1.86166">
        <ele>59</ele>
      </trkpt>
      <trkpt lat="47.74033" lon="-1.86164">
        <ele>59.3</ele>
      </trkpt>
      <trkpt lat="47.74031" lon="-1.86161">
        <ele>59.6</ele>
      </trkpt>
      <trkpt lat="47.74031" lon="-1.86158">
        <ele>59.5</ele>
      </trkpt>
      <trkpt lat="47.7403" lon="-1.86155">
        <ele>59.7</ele>
      </trkpt>
      <trkpt lat="47.74029" lon="-1.86152">
        <ele>59.8</ele>
      </trkpt>
      <trkpt lat="47.74028" lon="-1.86151">
        <ele>59.9</ele>
      </trkpt>
      <trkpt lat="47.74028" lon="-1.86149">
        <ele>59.8</ele>
      </trkpt>
      <trkpt lat="47.74026" lon="-1.86146">
        <ele>60.3</ele>
      </trkpt>
      <trkpt lat="47.74025" lon="-1.86145">
        <ele>60.5</ele>
      </trkpt>
      <trkpt lat="47.74024" lon="-1.86144">
        <ele>60.6</ele>
      </trkpt>
      <trkpt lat="47.74023" lon="-1.86141">
        <ele>60.7</ele>
      </trkpt>
      <trkpt lat="47.74024" lon="-1.86138">
        <ele>60.5</ele>
      </trkpt>
      <trkpt lat="47.74023" lon="-1.86135">
        <ele>60.5</ele>
      </trkpt>
      <trkpt lat="47.74023" lon="-1.86134">
        <ele>60.5</ele>
      </trkpt>
      <trkpt lat="47.74021" lon="-1.86132">
        <ele>60.8</ele>
      </trkpt>
      <trkpt lat="47.7402" lon="-1.86131">
        <ele>61</ele>
      </trkpt>
      <trkpt lat="47.74019" lon="-1.8613">
        <ele>61.2</ele>
      </trkpt>
      <trkpt lat="47.74018" lon="-1.86127">
        <ele>61.4</ele>
      </trkpt>
      <trkpt lat="47.74018" lon="-1.86125">
        <ele>61.3</ele>
      </trkpt>
      <trkpt lat="47.74018" lon="-1.86122">
        <ele>61.2</ele>
      </trkpt>
      <trkpt lat="47.74017" lon="-1.86119">
        <ele>61.2</ele>
      </trkpt>
      <trkpt lat="47.74016" lon="-1.86116">
        <ele>61.3</ele>
      </trkpt>
      <trkpt lat="47.74015" lon="-1.86114">
        <ele>61.4</ele>
      </trkpt>
      <trkpt lat="47.74014" lon="-1.86112">
        <ele>61.6</ele>
      </trkpt>
      <trkpt lat="47.74012" lon="-1.86111">
        <ele>61.9</ele>
      </trkpt>
      <trkpt lat="47.74011" lon="-1.86111">
        <ele>62.2</ele>
      </trkpt>
      <trkpt lat="47.7401" lon="-1.86111">
        <ele>62.5</ele>
      </trkpt>
      <trkpt lat="47.74009" lon="-1.86111">
        <ele>62.6</ele>
      </trkpt>
      <trkpt lat="47.74008" lon="-1.86112">
        <ele>62.9</ele>
      </trkpt>
      <trkpt lat="47.74006" lon="-1.86113">
        <ele>63.4</ele>
      </trkpt>
      <trkpt lat="47.74005" lon="-1.86114">
        <ele>63.6</ele>
      </trkpt>
      <trkpt lat="47.74004" lon="-1.86115">
        <ele>63.9</ele>
      </trkpt>
      <trkpt lat="47.74003" lon="-1.86116">
        <ele>64.2</ele>
      </trkpt>
      <trkpt lat="47.74002" lon="-1.86116">
        <ele>64.5</ele>
      </trkpt>
      <trkpt lat="47.74001" lon="-1.86117">
        <ele>64.7</ele>
      </trkpt>
      <trkpt lat="47.74" lon="-1.86118">
        <ele>65</ele>
      </trkpt>
      <trkpt lat="47.74" lon="-1.86119">
        <ele>65.2</ele>
      </trkpt>
      <trkpt lat="47.73998" lon="-1.8612">
        <ele>65.4</ele>
      </trkpt>
      <trkpt lat="47.73997" lon="-1.86121">
        <ele>65.6</ele>
      </trkpt>
      <trkpt lat="47.73996" lon="-1.86122">
        <ele>65.7</ele>
      </trkpt>
      <trkpt lat="47.73995" lon="-1.86123">
        <ele>65.9</ele>
      </trkpt>
      <trkpt lat="47.73994" lon="-1.86124">
        <ele>66.1</ele>
      </trkpt>
      <trkpt lat="47.73993" lon="-1.86125">
        <ele>66.3</ele>
      </trkpt>
      <trkpt lat="47.73991" lon="-1.86127">
        <ele>66.6</ele>
      </trkpt>
      <trkpt lat="47.73989" lon="-1.86129">
        <ele>66.9</ele>
      </trkpt>
      <trkpt lat="47.73987" lon="-1.86129">
        <ele>67.1</ele>
      </trkpt>
      <trkpt lat="47.73986" lon="-1.86129">
        <ele>67.2</ele>
      </trkpt>
      <trkpt lat="47.73985" lon="-1.86128">
        <ele>67.3</ele>
      </trkpt>
      <trkpt lat="47.73984" lon="-1.86126">
        <ele>67.3</ele>
      </trkpt>
      <trkpt lat="47.73983" lon="-1.86123">
        <ele>67.2</ele>
      </trkpt>
      <trkpt lat="47.73983" lon="-1.8612">
        <ele>67.1</ele>
      </trkpt>
      <trkpt lat="47.73983" lon="-1.86116">
        <ele>66.9</ele>
      </trkpt>
      <trkpt lat="47.73982" lon="-1.86112">
        <ele>66.7</ele>
      </trkpt>
      <trkpt lat="47.73982" lon="-1.86107">
        <ele>66.5</ele>
      </trkpt>
      <trkpt lat="47.73981" lon="-1.86101">
        <ele>66.2</ele>
      </trkpt>
      <trkpt lat="47.73981" lon="-1.86094">
        <ele>65.8</ele>
      </trkpt>
      <trkpt lat="47.73981" lon="-1.86087">
        <ele>65.5</ele>
      </trkpt>
      <trkpt lat="47.73981" lon="-1.86079">
        <ele>65</ele>
      </trkpt>
      <trkpt lat="47.7398" lon="-1.8607">
        <ele>64.4</ele>
      </trkpt>
      <trkpt lat="47.7398" lon="-1.8606">
        <ele>63.8</ele>
      </trkpt>
      <trkpt lat="47.73979" lon="-1.8605">
        <ele>63.2</ele>
      </trkpt>
      <trkpt lat="47.73978" lon="-1.8604">
        <ele>62.6</ele>
      </trkpt>
      <trkpt lat="47.73977" lon="-1.86029">
        <ele>62</ele>
      </trkpt>
      <trkpt lat="47.73976" lon="-1.86018">
        <ele>61.5</ele>
      </trkpt>
      <trkpt lat="47.73975" lon="-1.86007">
        <ele>61</ele>
      </trkpt>
      <trkpt lat="47.73974" lon="-1.85996">
        <ele>60.4</ele>
      </trkpt>
      <trkpt lat="47.73973" lon="-1.85984">
        <ele>59.7</ele>
      </trkpt>
      <trkpt lat="47.73973" lon="-1.85972">
        <ele>58.9</ele>
      </trkpt>
      <trkpt lat="47.73973" lon="-1.8596">
        <ele>58.2</ele>
      </trkpt>
      <trkpt lat="47.73975" lon="-1.8595">
        <ele>57.2</ele>
      </trkpt>
      <trkpt lat="47.73977" lon="-1.8594">
        <ele>56</ele>
      </trkpt>
      <trkpt lat="47.73979" lon="-1.85931">
        <ele>54.9</ele>
      </trkpt>
      <trkpt lat="47.73981" lon="-1.85924">
        <ele>54</ele>
      </trkpt>
      <trkpt lat="47.73984" lon="-1.85918">
        <ele>53</ele>
      </trkpt>
      <trkpt lat="47.73986" lon="-1.85915">
        <ele>52.1</ele>
      </trkpt>
      <trkpt lat="47.73988" lon="-1.85913">
        <ele>51.6</ele>
      </trkpt>
      <trkpt lat="47.73989" lon="-1.85911">
        <ele>51</ele>
      </trkpt>
      <trkpt lat="47.7399" lon="-1.85911">
        <ele>50.9</ele>
      </trkpt>
      <trkpt lat="47.7399" lon="-1.85911">
        <ele>50.9</ele>
      </trkpt>
      <trkpt lat="47.7399" lon="-1.85911">
        <ele>50.9</ele>
      </trkpt>
      <trkpt lat="47.7399" lon="-1.85911">
        <ele>50.9</ele>
      </trkpt>
      <trkpt lat="47.7399" lon="-1.85911">
        <ele>50.9</ele>
      </trkpt>
      <trkpt lat="47.7399" lon="-1.85909">
        <ele>50.8</ele>
      </trkpt>
      <trkpt lat="47.73988" lon="-1.85907">
        <ele>50.9</ele>
      </trkpt>
      <trkpt lat="47.73987" lon="-1.85906">
        <ele>51.1</ele>
      </trkpt>
      <trkpt lat="47.73986" lon="-1.85906">
        <ele>51.2</ele>
      </trkpt>
      <trkpt lat="47.73985" lon="-1.85907">
        <ele>51.7</ele>
      </trkpt>
      <trkpt lat="47.73983" lon="-1.85907">
        <ele>52.1</ele>
      </trkpt>
      <trkpt lat="47.73982" lon="-1.85908">
        <ele>52.5</ele>
      </trkpt>
      <trkpt lat="47.73981" lon="-1.85909">
        <ele>52.9</ele>
      </trkpt>
      <trkpt lat="47.7398" lon="-1.8591">
        <ele>53.2</ele>
      </trkpt>
      <trkpt lat="47.73979" lon="-1.85912">
        <ele>53.5</ele>
      </trkpt>
      <trkpt lat="47.73978" lon="-1.85913">
        <ele>53.9</ele>
      </trkpt>
      <trkpt lat="47.73977" lon="-1.85914">
        <ele>54.2</ele>
      </trkpt>
      <trkpt lat="47.73976" lon="-1.85915">
        <ele>54.6</ele>
      </trkpt>
      <trkpt lat="47.73975" lon="-1.85915">
        <ele>54.9</ele>
      </trkpt>
      <trkpt lat="47.73974" lon="-1.85915">
        <ele>55.1</ele>
      </trkpt>
      <trkpt lat="47.73973" lon="-1.85914">
        <ele>55.2</ele>
      </trkpt>
      <trkpt lat="47.73971" lon="-1.85913">
        <ele>55.6</ele>
      </trkpt>
      <trkpt lat="47.73969" lon="-1.85914">
        <ele>56</ele>
      </trkpt>
      <trkpt lat="47.73968" lon="-1.85914">
        <ele>56.5</ele>
      </trkpt>
      <trkpt lat="47.73966" lon="-1.85915">
        <ele>56.9</ele>
      </trkpt>
      <trkpt lat="47.73964" lon="-1.85915">
        <ele>57.3</ele>
      </trkpt>
      <trkpt lat="47.73963" lon="-1.85914">
        <ele>57.6</ele>
      </trkpt>
      <trkpt lat="47.73961" lon="-1.85913">
        <ele>57.8</ele>
      </trkpt>
      <trkpt lat="47.7396" lon="-1.85912">
        <ele>58</ele>
      </trkpt>
      <trkpt lat="47.73958" lon="-1.85912">
        <ele>58.3</ele>
      </trkpt>
      <trkpt lat="47.73957" lon="-1.85912">
        <ele>58.7</ele>
      </trkpt>
      <trkpt lat="47.73955" lon="-1.85911">
        <ele>59</ele>
      </trkpt>
      <trkpt lat="47.73954" lon="-1.85911">
        <ele>59.2</ele>
      </trkpt>
      <trkpt lat="47.73953" lon="-1.8591">
        <ele>59.3</ele>
      </trkpt>
      <trkpt lat="47.73951" lon="-1.85909">
        <ele>59.6</ele>
      </trkpt>
      <trkpt lat="47.7395" lon="-1.85908">
        <ele>60</ele>
      </trkpt>
      <trkpt lat="47.73948" lon="-1.85908">
        <ele>60.3</ele>
      </trkpt>
      <trkpt lat="47.73947" lon="-1.85908">
        <ele>60.6</ele>
      </trkpt>
      <trkpt lat="47.73946" lon="-1.85909">
        <ele>60.9</ele>
      </trkpt>
      <trkpt lat="47.73945" lon="-1.85909">
        <ele>61.1</ele>
      </trkpt>
      <trkpt lat="47.73944" lon="-1.85909">
        <ele>61.3</ele>
      </trkpt>
      <trkpt lat="47.73943" lon="-1.85909">
        <ele>61.5</ele>
      </trkpt>
      <trkpt lat="47.73942" lon="-1.85909">
        <ele>61.8</ele>
      </trkpt>
      <trkpt lat="47.73941" lon="-1.85909">
        <ele>62</ele>
      </trkpt>
      <trkpt lat="47.7394" lon="-1.85909">
        <ele>62.2</ele>
      </trkpt>
      <trkpt lat="47.73939" lon="-1.85909">
        <ele>62.6</ele>
      </trkpt>
      <trkpt lat="47.73938" lon="-1.8591">
        <ele>62.8</ele>
      </trkpt>
      <trkpt lat="47.73938" lon="-1.8591">
        <ele>62.8</ele>
      </trkpt>
      <trkpt lat="47.73938" lon="-1.8591">
        <ele>62.8</ele>
      </trkpt>
      <trkpt lat="47.73938" lon="-1.8591">
        <ele>62.8</ele>
      </trkpt>
      <trkpt lat="47.73938" lon="-1.8591">
        <ele>62.8</ele>
      </trkpt>
      <trkpt lat="47.73939" lon="-1.85912">
        <ele>62.9</ele>
      </trkpt>
      <trkpt lat="47.73939" lon="-1.85912">
        <ele>62.9</ele>
      </trkpt>
      <trkpt lat="47.7394" lon="-1.85914">
        <ele>62.9</ele>
      </trkpt>
      <trkpt lat="47.73942" lon="-1.85915">
        <ele>62.8</ele>
      </trkpt>
      <trkpt lat="47.73944" lon="-1.85918">
        <ele>62.6</ele>
      </trkpt>
      <trkpt lat="47.73946" lon="-1.8592">
        <ele>62.1</ele>
      </trkpt>
      <trkpt lat="47.73948" lon="-1.85922">
        <ele>61.7</ele>
      </trkpt>
      <trkpt lat="47.7395" lon="-1.85924">
        <ele>61.5</ele>
      </trkpt>
      <trkpt lat="47.73951" lon="-1.85927">
        <ele>61.4</ele>
      </trkpt>
      <trkpt lat="47.73951" lon="-1.85929">
        <ele>61.4</ele>
      </trkpt>
      <trkpt lat="47.73952" lon="-1.85931">
        <ele>61.4</ele>
      </trkpt>
      <trkpt lat="47.73953" lon="-1.85934">
        <ele>61.3</ele>
      </trkpt>
      <trkpt lat="47.73955" lon="-1.85938">
        <ele>61.2</ele>
      </trkpt>
      <trkpt lat="47.73956" lon="-1.8594">
        <ele>61</ele>
      </trkpt>
      <trkpt lat="47.73958" lon="-1.85944">
        <ele>60.7</ele>
      </trkpt>
      <trkpt lat="47.73959" lon="-1.85948">
        <ele>60.6</ele>
      </trkpt>
      <trkpt lat="47.7396" lon="-1.85951">
        <ele>60.7</ele>
      </trkpt>
      <trkpt lat="47.7396" lon="-1.85955">
        <ele>60.9</ele>
      </trkpt>
      <trkpt lat="47.73959" lon="-1.85959">
        <ele>61.4</ele>
      </trkpt>
      <trkpt lat="47.73958" lon="-1.85961">
        <ele>61.7</ele>
      </trkpt>
      <trkpt lat="47.73958" lon="-1.85964">
        <ele>62</ele>
      </trkpt>
      <trkpt lat="47.73958" lon="-1.85968">
        <ele>62.1</ele>
      </trkpt>
      <trkpt lat="47.73958" lon="-1.85971">
        <ele>62.4</ele>
      </trkpt>
      <trkpt lat="47.73958" lon="-1.85973">
        <ele>62.5</ele>
      </trkpt>
      <trkpt lat="47.7396" lon="-1.85976">
        <ele>62.3</ele>
      </trkpt>
      <trkpt lat="47.73962" lon="-1.8598">
        <ele>62</ele>
      </trkpt>
      <trkpt lat="47.73964" lon="-1.85982">
        <ele>61.6</ele>
      </trkpt>
      <trkpt lat="47.73965" lon="-1.85985">
        <ele>61.6</ele>
      </trkpt>
      <trkpt lat="47.73965" lon="-1.85988">
        <ele>61.8</ele>
      </trkpt>
      <trkpt lat="47.73964" lon="-1.85989">
        <ele>62.2</ele>
      </trkpt>
      <trkpt lat="47.73963" lon="-1.8599">
        <ele>62.4</ele>
      </trkpt>
      <trkpt lat="47.73962" lon="-1.85992">
        <ele>62.6</ele>
      </trkpt>
      <trkpt lat="47.73963" lon="-1.85994">
        <ele>62.7</ele>
      </trkpt>
      <trkpt lat="47.73963" lon="-1.85997">
        <ele>62.8</ele>
      </trkpt>
      <trkpt lat="47.73963" lon="-1.86">
        <ele>63</ele>
      </trkpt>
      <trkpt lat="47.73963" lon="-1.86002">
        <ele>63.1</ele>
      </trkpt>
      <trkpt lat="47.73963" lon="-1.86004">
        <ele>63.3</ele>
      </trkpt>
      <trkpt lat="47.73961" lon="-1.86006">
        <ele>63.6</ele>
      </trkpt>
      <trkpt lat="47.7396" lon="-1.86006">
        <ele>64</ele>
      </trkpt>
      <trkpt lat="47.73958" lon="-1.86005">
        <ele>64.3</ele>
      </trkpt>
      <trkpt lat="47.73957" lon="-1.86004">
        <ele>64.5</ele>
      </trkpt>
      <trkpt lat="47.73955" lon="-1.86002">
        <ele>64.8</ele>
      </trkpt>
      <trkpt lat="47.73954" lon="-1.86001">
        <ele>64.9</ele>
      </trkpt>
      <trkpt lat="47.73954" lon="-1.86">
        <ele>65</ele>
      </trkpt>
      <trkpt lat="47.73954" lon="-1.86">
        <ele>65</ele>
      </trkpt>
      <trkpt lat="47.73954" lon="-1.86">
        <ele>65</ele>
      </trkpt>
      <trkpt lat="47.73954" lon="-1.85999">
        <ele>64.9</ele>
      </trkpt>
      <trkpt lat="47.73954" lon="-1.85997">
        <ele>64.7</ele>
      </trkpt>
      <trkpt lat="47.73954" lon="-1.85994">
        <ele>64.6</ele>
      </trkpt>
      <trkpt lat="47.73954" lon="-1.85992">
        <ele>64.6</ele>
      </trkpt>
      <trkpt lat="47.73953" lon="-1.85989">
        <ele>64.5</ele>
      </trkpt>
      <trkpt lat="47.73953" lon="-1.85985">
        <ele>64.3</ele>
      </trkpt>
      <trkpt lat="47.73952" lon="-1.85981">
        <ele>64.2</ele>
      </trkpt>
      <trkpt lat="47.73952" lon="-1.85977">
        <ele>64</ele>
      </trkpt>
      <trkpt lat="47.73951" lon="-1.85974">
        <ele>64</ele>
      </trkpt>
      <trkpt lat="47.7395" lon="-1.85972">
        <ele>64.1</ele>
      </trkpt>
      <trkpt lat="47.7395" lon="-1.85969">
        <ele>64.1</ele>
      </trkpt>
      <trkpt lat="47.73949" lon="-1.85965">
        <ele>64.1</ele>
      </trkpt>
      <trkpt lat="47.73948" lon="-1.85962">
        <ele>64.1</ele>
      </trkpt>
      <trkpt lat="47.73947" lon="-1.85959">
        <ele>64.2</ele>
      </trkpt>
      <trkpt lat="47.73945" lon="-1.85956">
        <ele>64.3</ele>
      </trkpt>
      <trkpt lat="47.73944" lon="-1.85954">
        <ele>64.5</ele>
      </trkpt>
      <trkpt lat="47.73943" lon="-1.85952">
        <ele>64.7</ele>
      </trkpt>
      <trkpt lat="47.73941" lon="-1.85952">
        <ele>65</ele>
      </trkpt>
      <trkpt lat="47.7394" lon="-1.85951">
        <ele>65.4</ele>
      </trkpt>
      <trkpt lat="47.73938" lon="-1.8595">
        <ele>65.6</ele>
      </trkpt>
      <trkpt lat="47.73937" lon="-1.85948">
        <ele>65.9</ele>
      </trkpt>
      <trkpt lat="47.73936" lon="-1.85946">
        <ele>66</ele>
      </trkpt>
      <trkpt lat="47.73935" lon="-1.85944">
        <ele>66.1</ele>
      </trkpt>
      <trkpt lat="47.73933" lon="-1.85941">
        <ele>66.4</ele>
      </trkpt>
      <trkpt lat="47.73931" lon="-1.85939">
        <ele>66.7</ele>
      </trkpt>
      <trkpt lat="47.7393" lon="-1.85938">
        <ele>67</ele>
      </trkpt>
      <trkpt lat="47.73928" lon="-1.85937">
        <ele>67.2</ele>
      </trkpt>
      <trkpt lat="47.73927" lon="-1.85935">
        <ele>67.5</ele>
      </trkpt>
      <trkpt lat="47.73926" lon="-1.85933">
        <ele>67.7</ele>
      </trkpt>
      <trkpt lat="47.73924" lon="-1.85931">
        <ele>68</ele>
      </trkpt>
      <trkpt lat="47.73922" lon="-1.85931">
        <ele>68.4</ele>
      </trkpt>
      <trkpt lat="47.7392" lon="-1.85931">
        <ele>68.8</ele>
      </trkpt>
      <trkpt lat="47.73919" lon="-1.8593">
        <ele>69</ele>
      </trkpt>
      <trkpt lat="47.73919" lon="-1.85927">
        <ele>69</ele>
      </trkpt>
      <trkpt lat="47.73919" lon="-1.85924">
        <ele>68.7</ele>
      </trkpt>
      <trkpt lat="47.7392" lon="-1.8592">
        <ele>68.4</ele>
      </trkpt>
      <trkpt lat="47.73919" lon="-1.85916">
        <ele>68.3</ele>
      </trkpt>
      <trkpt lat="47.73918" lon="-1.85913">
        <ele>68</ele>
      </trkpt>
      <trkpt lat="47.73916" lon="-1.85909">
        <ele>67.8</ele>
      </trkpt>
      <trkpt lat="47.73915" lon="-1.85907">
        <ele>67.6</ele>
      </trkpt>
      <trkpt lat="47.73913" lon="-1.85906">
        <ele>67.4</ele>
      </trkpt>
      <trkpt lat="47.73911" lon="-1.85905">
        <ele>67.5</ele>
      </trkpt>
      <trkpt lat="47.73909" lon="-1.85905">
        <ele>67.7</ele>
      </trkpt>
      <trkpt lat="47.73907" lon="-1.85906">
        <ele>68</ele>
      </trkpt>
      <trkpt lat="47.73905" lon="-1.85907">
        <ele>68.3</ele>
      </trkpt>
      <trkpt lat="47.73903" lon="-1.85909">
        <ele>68.6</ele>
      </trkpt>
      <trkpt lat="47.73902" lon="-1.8591">
        <ele>68.9</ele>
      </trkpt>
      <trkpt lat="47.73901" lon="-1.85912">
        <ele>69.3</ele>
      </trkpt>
      <trkpt lat="47.73901" lon="-1.85914">
        <ele>69.7</ele>
      </trkpt>
      <trkpt lat="47.73901" lon="-1.85917">
        <ele>70.1</ele>
      </trkpt>
      <trkpt lat="47.73902" lon="-1.8592">
        <ele>70.2</ele>
      </trkpt>
      <trkpt lat="47.73902" lon="-1.85924">
        <ele>70.4</ele>
      </trkpt>
      <trkpt lat="47.73901" lon="-1.85927">
        <ele>70.6</ele>
      </trkpt>
      <trkpt lat="47.73901" lon="-1.8593">
        <ele>70.8</ele>
      </trkpt>
      <trkpt lat="47.73901" lon="-1.85933">
        <ele>70.9</ele>
      </trkpt>
      <trkpt lat="47.73901" lon="-1.85936">
        <ele>71</ele>
      </trkpt>
      <trkpt lat="47.739" lon="-1.85939">
        <ele>71.3</ele>
      </trkpt>
      <trkpt lat="47.73899" lon="-1.85942">
        <ele>71.5</ele>
      </trkpt>
      <trkpt lat="47.73898" lon="-1.85945">
        <ele>71.7</ele>
      </trkpt>
      <trkpt lat="47.73897" lon="-1.85947">
        <ele>71.9</ele>
      </trkpt>
      <trkpt lat="47.73895" lon="-1.8595">
        <ele>72.1</ele>
      </trkpt>
      <trkpt lat="47.73893" lon="-1.85952">
        <ele>72.4</ele>
      </trkpt>
      <trkpt lat="47.73891" lon="-1.85954">
        <ele>72.6</ele>
      </trkpt>
      <trkpt lat="47.7389" lon="-1.85956">
        <ele>72.8</ele>
      </trkpt>
      <trkpt lat="47.73888" lon="-1.85958">
        <ele>73</ele>
      </trkpt>
      <trkpt lat="47.73887" lon="-1.85961">
        <ele>73.3</ele>
      </trkpt>
      <trkpt lat="47.73885" lon="-1.85964">
        <ele>73.5</ele>
      </trkpt>
      <trkpt lat="47.73884" lon="-1.85966">
        <ele>73.7</ele>
      </trkpt>
      <trkpt lat="47.73883" lon="-1.85968">
        <ele>73.9</ele>
      </trkpt>
      <trkpt lat="47.73882" lon="-1.8597">
        <ele>74</ele>
      </trkpt>
      <trkpt lat="47.73882" lon="-1.85972">
        <ele>74.2</ele>
      </trkpt>
      <trkpt lat="47.73881" lon="-1.85974">
        <ele>74.3</ele>
      </trkpt>
      <trkpt lat="47.7388" lon="-1.85974">
        <ele>74.4</ele>
      </trkpt>
      <trkpt lat="47.7388" lon="-1.85974">
        <ele>74.4</ele>
      </trkpt>
      <trkpt lat="47.7388" lon="-1.85974">
        <ele>74.4</ele>
      </trkpt>
      <trkpt lat="47.7388" lon="-1.85974">
        <ele>74.4</ele>
      </trkpt>
      <trkpt lat="47.7388" lon="-1.85974">
        <ele>74.4</ele>
      </trkpt>
      <trkpt lat="47.73881" lon="-1.85975">
        <ele>74.4</ele>
      </trkpt>
      <trkpt lat="47.73881" lon="-1.85977">
        <ele>74.4</ele>
      </trkpt>
      <trkpt lat="47.73881" lon="-1.85978">
        <ele>74.5</ele>
      </trkpt>
      <trkpt lat="47.73882" lon="-1.85981">
        <ele>74.6</ele>
      </trkpt>
      <trkpt lat="47.73883" lon="-1.85984">
        <ele>74.7</ele>
      </trkpt>
      <trkpt lat="47.73884" lon="-1.85985">
        <ele>74.6</ele>
      </trkpt>
      <trkpt lat="47.73886" lon="-1.85986">
        <ele>74.6</ele>
      </trkpt>
      <trkpt lat="47.73887" lon="-1.85988">
        <ele>74.5</ele>
      </trkpt>
      <trkpt lat="47.73888" lon="-1.8599">
        <ele>74.6</ele>
      </trkpt>
      <trkpt lat="47.73888" lon="-1.85993">
        <ele>74.7</ele>
      </trkpt>
      <trkpt lat="47.73889" lon="-1.85996">
        <ele>74.8</ele>
      </trkpt>
      <trkpt lat="47.7389" lon="-1.85999">
        <ele>74.9</ele>
      </trkpt>
      <trkpt lat="47.73891" lon="-1.86002">
        <ele>74.9</ele>
      </trkpt>
      <trkpt lat="47.73891" lon="-1.86004">
        <ele>74.8</ele>
      </trkpt>
      <trkpt lat="47.73891" lon="-1.86008">
        <ele>74.8</ele>
      </trkpt>
      <trkpt lat="47.73892" lon="-1.86011">
        <ele>74.8</ele>
      </trkpt>
      <trkpt lat="47.73894" lon="-1.86013">
        <ele>74.6</ele>
      </trkpt>
      <trkpt lat="47.73895" lon="-1.86016">
        <ele>74.5</ele>
      </trkpt>
      <trkpt lat="47.73897" lon="-1.86019">
        <ele>74.4</ele>
      </trkpt>
      <trkpt lat="47.73898" lon="-1.86022">
        <ele>74.4</ele>
      </trkpt>
      <trkpt lat="47.73898" lon="-1.86026">
        <ele>74.3</ele>
      </trkpt>
      <trkpt lat="47.73898" lon="-1.8603">
        <ele>74.3</ele>
      </trkpt>
      <trkpt lat="47.73898" lon="-1.86033">
        <ele>74.4</ele>
      </trkpt>
      <trkpt lat="47.73898" lon="-1.86037">
        <ele>74.3</ele>
      </trkpt>
      <trkpt lat="47.73898" lon="-1.8604">
        <ele>74.4</ele>
      </trkpt>
      <trkpt lat="47.73897" lon="-1.86042">
        <ele>74.4</ele>
      </trkpt>
      <trkpt lat="47.73895" lon="-1.86044">
        <ele>74.6</ele>
      </trkpt>
      <trkpt lat="47.73893" lon="-1.86045">
        <ele>74.7</ele>
      </trkpt>
      <trkpt lat="47.73892" lon="-1.86047">
        <ele>74.8</ele>
      </trkpt>
      <trkpt lat="47.73891" lon="-1.86049">
        <ele>74.8</ele>
      </trkpt>
      <trkpt lat="47.73891" lon="-1.86052">
        <ele>74.8</ele>
      </trkpt>
      <trkpt lat="47.7389" lon="-1.86056">
        <ele>74.9</ele>
      </trkpt>
      <trkpt lat="47.73889" lon="-1.8606">
        <ele>75</ele>
      </trkpt>
      <trkpt lat="47.73889" lon="-1.86063">
        <ele>75</ele>
      </trkpt>
      <trkpt lat="47.73888" lon="-1.86066">
        <ele>75</ele>
      </trkpt>
      <trkpt lat="47.73888" lon="-1.86068">
        <ele>75.1</ele>
      </trkpt>
      <trkpt lat="47.73887" lon="-1.86071">
        <ele>75.2</ele>
      </trkpt>
      <trkpt lat="47.73886" lon="-1.86073">
        <ele>75.2</ele>
      </trkpt>
      <trkpt lat="47.73884" lon="-1.86075">
        <ele>75.3</ele>
      </trkpt>
      <trkpt lat="47.73883" lon="-1.86077">
        <ele>75.4</ele>
      </trkpt>
      <trkpt lat="47.73882" lon="-1.8608">
        <ele>75.5</ele>
      </trkpt>
      <trkpt lat="47.73881" lon="-1.86083">
        <ele>75.6</ele>
      </trkpt>
      <trkpt lat="47.7388" lon="-1.86086">
        <ele>75.8</ele>
      </trkpt>
      <trkpt lat="47.73879" lon="-1.86089">
        <ele>76.1</ele>
      </trkpt>
      <trkpt lat="47.73877" lon="-1.86092">
        <ele>76.4</ele>
      </trkpt>
      <trkpt lat="47.73874" lon="-1.86099">
        <ele>77.1</ele>
      </trkpt>
      <trkpt lat="47.73874" lon="-1.86099">
        <ele>77.1</ele>
      </trkpt>
      <trkpt lat="47.73872" lon="-1.86101">
        <ele>77.4</ele>
      </trkpt>
      <trkpt lat="47.7387" lon="-1.86103">
        <ele>77.7</ele>
      </trkpt>
      <trkpt lat="47.73868" lon="-1.86103">
        <ele>78</ele>
      </trkpt>
      <trkpt lat="47.73866" lon="-1.86103">
        <ele>78.1</ele>
      </trkpt>
      <trkpt lat="47.73863" lon="-1.86103">
        <ele>78.3</ele>
      </trkpt>
      <trkpt lat="47.73861" lon="-1.86101">
        <ele>78.4</ele>
      </trkpt>
      <trkpt lat="47.73859" lon="-1.861">
        <ele>78.4</ele>
      </trkpt>
      <trkpt lat="47.73857" lon="-1.86098">
        <ele>78.5</ele>
      </trkpt>
      <trkpt lat="47.73854" lon="-1.86096">
        <ele>78.6</ele>
      </trkpt>
      <trkpt lat="47.73852" lon="-1.86095">
        <ele>78.7</ele>
      </trkpt>
      <trkpt lat="47.73849" lon="-1.86094">
        <ele>78.8</ele>
      </trkpt>
      <trkpt lat="47.73847" lon="-1.86094">
        <ele>78.9</ele>
      </trkpt>
      <trkpt lat="47.73845" lon="-1.86094">
        <ele>79.1</ele>
      </trkpt>
      <trkpt lat="47.73842" lon="-1.86095">
        <ele>79.5</ele>
      </trkpt>
      <trkpt lat="47.73839" lon="-1.86096">
        <ele>79.8</ele>
      </trkpt>
      <trkpt lat="47.73836" lon="-1.86096">
        <ele>80</ele>
      </trkpt>
      <trkpt lat="47.73833" lon="-1.86096">
        <ele>80.2</ele>
      </trkpt>
      <trkpt lat="47.7383" lon="-1.86095">
        <ele>80.1</ele>
      </trkpt>
      <trkpt lat="47.73827" lon="-1.86094">
        <ele>79.9</ele>
      </trkpt>
      <trkpt lat="47.73824" lon="-1.86093">
        <ele>79.8</ele>
      </trkpt>
      <trkpt lat="47.7382" lon="-1.86092">
        <ele>79.6</ele>
      </trkpt>
      <trkpt lat="47.73817" lon="-1.8609">
        <ele>79.4</ele>
      </trkpt>
      <trkpt lat="47.73814" lon="-1.86089">
        <ele>79.3</ele>
      </trkpt>
      <trkpt lat="47.73811" lon="-1.86087">
        <ele>79</ele>
      </trkpt>
      <trkpt lat="47.73808" lon="-1.86084">
        <ele>78.7</ele>
      </trkpt>
      <trkpt lat="47.73806" lon="-1.8608">
        <ele>78.6</ele>
      </trkpt>
      <trkpt lat="47.73805" lon="-1.86076">
        <ele>78.5</ele>
      </trkpt>
      <trkpt lat="47.73804" lon="-1.86072">
        <ele>78.5</ele>
      </trkpt>
      <trkpt lat="47.73803" lon="-1.86067">
        <ele>78.3</ele>
      </trkpt>
      <trkpt lat="47.73801" lon="-1.86062">
        <ele>78.2</ele>
      </trkpt>
      <trkpt lat="47.73801" lon="-1.86056">
        <ele>78.1</ele>
      </trkpt>
      <trkpt lat="47.73801" lon="-1.8605">
        <ele>78</ele>
      </trkpt>
      <trkpt lat="47.73802" lon="-1.86044">
        <ele>77.9</ele>
      </trkpt>
      <trkpt lat="47.73804" lon="-1.86039">
        <ele>77.9</ele>
      </trkpt>
      <trkpt lat="47.73807" lon="-1.86035">
        <ele>77.9</ele>
      </trkpt>
      <trkpt lat="47.73808" lon="-1.8603">
        <ele>77.9</ele>
      </trkpt>
      <trkpt lat="47.73809" lon="-1.86024">
        <ele>77.9</ele>
      </trkpt>
      <trkpt lat="47.7381" lon="-1.86019">
        <ele>77.9</ele>
      </trkpt>
      <trkpt lat="47.73812" lon="-1.86014">
        <ele>77.9</ele>
      </trkpt>
      <trkpt lat="47.73814" lon="-1.86009">
        <ele>78</ele>
      </trkpt>
      <trkpt lat="47.73817" lon="-1.86007">
        <ele>78.1</ele>
      </trkpt>
      <trkpt lat="47.73819" lon="-1.86005">
        <ele>78.2</ele>
      </trkpt>
      <trkpt lat="47.73821" lon="-1.86004">
        <ele>78.3</ele>
      </trkpt>
      <trkpt lat="47.73824" lon="-1.86002">
        <ele>78.4</ele>
      </trkpt>
      <trkpt lat="47.73827" lon="-1.86001">
        <ele>78.6</ele>
      </trkpt>
      <trkpt lat="47.7383" lon="-1.86">
        <ele>78.8</ele>
      </trkpt>
      <trkpt lat="47.73833" lon="-1.85998">
        <ele>78.9</ele>
      </trkpt>
      <trkpt lat="47.73837" lon="-1.85994">
        <ele>78.4</ele>
      </trkpt>
      <trkpt lat="47.7384" lon="-1.8599">
        <ele>78.1</ele>
      </trkpt>
      <trkpt lat="47.73843" lon="-1.85987">
        <ele>77.7</ele>
      </trkpt>
      <trkpt lat="47.73847" lon="-1.85976">
        <ele>76.9</ele>
      </trkpt>
      <trkpt lat="47.73848" lon="-1.85974">
        <ele>76.7</ele>
      </trkpt>
      <trkpt lat="47.73849" lon="-1.85971">
        <ele>76.5</ele>
      </trkpt>
      <trkpt lat="47.73852" lon="-1.85965">
        <ele>76</ele>
      </trkpt>
      <trkpt lat="47.73855" lon="-1.85959">
        <ele>75.5</ele>
      </trkpt>
      <trkpt lat="47.7386" lon="-1.85952">
        <ele>74.8</ele>
      </trkpt>
      <trkpt lat="47.73862" lon="-1.85946">
        <ele>74.3</ele>
      </trkpt>
      <trkpt lat="47.73863" lon="-1.85939">
        <ele>74</ele>
      </trkpt>
      <trkpt lat="47.73863" lon="-1.85935">
        <ele>73.7</ele>
      </trkpt>
      <trkpt lat="47.73865" lon="-1.85929">
        <ele>73.4</ele>
      </trkpt>
      <trkpt lat="47.73868" lon="-1.85925">
        <ele>72.9</ele>
      </trkpt>
      <trkpt lat="47.73868" lon="-1.8592">
        <ele>72.7</ele>
      </trkpt>
      <trkpt lat="47.73867" lon="-1.85917">
        <ele>72.6</ele>
      </trkpt>
      <trkpt lat="47.73865" lon="-1.85914">
        <ele>72.3</ele>
      </trkpt>
      <trkpt lat="47.73864" lon="-1.85912">
        <ele>72</ele>
      </trkpt>
      <trkpt lat="47.73862" lon="-1.85908">
        <ele>71.5</ele>
      </trkpt>
      <trkpt lat="47.73859" lon="-1.85903">
        <ele>71</ele>
      </trkpt>
      <trkpt lat="47.73855" lon="-1.85898">
        <ele>70.5</ele>
      </trkpt>
      <trkpt lat="47.7385" lon="-1.85894">
        <ele>70.2</ele>
      </trkpt>
      <trkpt lat="47.73848" lon="-1.85894">
        <ele>70.3</ele>
      </trkpt>
      <trkpt lat="47.73845" lon="-1.85895">
        <ele>70.7</ele>
      </trkpt>
      <trkpt lat="47.73842" lon="-1.85894">
        <ele>70.9</ele>
      </trkpt>
      <trkpt lat="47.73839" lon="-1.85892">
        <ele>70.8</ele>
      </trkpt>
      <trkpt lat="47.73836" lon="-1.85891">
        <ele>70.7</ele>
      </trkpt>
      <trkpt lat="47.73834" lon="-1.85889">
        <ele>70.6</ele>
      </trkpt>
      <trkpt lat="47.7383" lon="-1.85888">
        <ele>70.3</ele>
      </trkpt>
      <trkpt lat="47.73826" lon="-1.85888">
        <ele>70</ele>
      </trkpt>
      <trkpt lat="47.73823" lon="-1.85888">
        <ele>69.8</ele>
      </trkpt>
      <trkpt lat="47.73819" lon="-1.85888">
        <ele>69.6</ele>
      </trkpt>
      <trkpt lat="47.73816" lon="-1.85888">
        <ele>69.3</ele>
      </trkpt>
      <trkpt lat="47.73812" lon="-1.85887">
        <ele>68.9</ele>
      </trkpt>
      <trkpt lat="47.73809" lon="-1.85885">
        <ele>68.5</ele>
      </trkpt>
      <trkpt lat="47.73806" lon="-1.85884">
        <ele>68.1</ele>
      </trkpt>
      <trkpt lat="47.73803" lon="-1.85882">
        <ele>67.6</ele>
      </trkpt>
      <trkpt lat="47.73801" lon="-1.85878">
        <ele>67</ele>
      </trkpt>
      <trkpt lat="47.73801" lon="-1.85873">
        <ele>66.3</ele>
      </trkpt>
      <trkpt lat="47.73801" lon="-1.85869">
        <ele>65.8</ele>
      </trkpt>
      <trkpt lat="47.73803" lon="-1.85866">
        <ele>65.4</ele>
      </trkpt>
      <trkpt lat="47.73805" lon="-1.85862">
        <ele>65</ele>
      </trkpt>
      <trkpt lat="47.73808" lon="-1.85858">
        <ele>64.6</ele>
      </trkpt>
      <trkpt lat="47.7381" lon="-1.85853">
        <ele>64</ele>
      </trkpt>
      <trkpt lat="47.73812" lon="-1.85847">
        <ele>63.3</ele>
      </trkpt>
      <trkpt lat="47.73814" lon="-1.85842">
        <ele>62.5</ele>
      </trkpt>
      <trkpt lat="47.73816" lon="-1.85838">
        <ele>62</ele>
      </trkpt>
      <trkpt lat="47.73819" lon="-1.85834">
        <ele>61.6</ele>
      </trkpt>
      <trkpt lat="47.73821" lon="-1.85831">
        <ele>61.3</ele>
      </trkpt>
      <trkpt lat="47.73824" lon="-1.85826">
        <ele>60.8</ele>
      </trkpt>
      <trkpt lat="47.73826" lon="-1.8582">
        <ele>60.2</ele>
      </trkpt>
      <trkpt lat="47.73828" lon="-1.85817">
        <ele>59.9</ele>
      </trkpt>
      <trkpt lat="47.73828" lon="-1.85816">
        <ele>59.8</ele>
      </trkpt>
      <trkpt lat="47.73828" lon="-1.85816">
        <ele>59.8</ele>
      </trkpt>
      <trkpt lat="47.73828" lon="-1.85816">
        <ele>59.8</ele>
      </trkpt>
      <trkpt lat="47.73828" lon="-1.85816">
        <ele>59.8</ele>
      </trkpt>
      <trkpt lat="47.73828" lon="-1.85816">
        <ele>59.8</ele>
      </trkpt>
      <trkpt lat="47.73828" lon="-1.85816">
        <ele>59.8</ele>
      </trkpt>
      <trkpt lat="47.73828" lon="-1.85816">
        <ele>59.8</ele>
      </trkpt>
      <trkpt lat="47.73828" lon="-1.85816">
        <ele>59.8</ele>
      </trkpt>
      <trkpt lat="47.73828" lon="-1.85816">
        <ele>59.8</ele>
      </trkpt>
      <trkpt lat="47.73828" lon="-1.85816">
        <ele>59.8</ele>
      </trkpt>
      <trkpt lat="47.73828" lon="-1.85816">
        <ele>59.8</ele>
      </trkpt>
      <trkpt lat="47.73828" lon="-1.85816">
        <ele>59.8</ele>
      </trkpt>
      <trkpt lat="47.73828" lon="-1.85816">
        <ele>59.8</ele>
      </trkpt>
      <trkpt lat="47.73828" lon="-1.85816">
        <ele>59.7</ele>
      </trkpt>
      <trkpt lat="47.73828" lon="-1.85813">
        <ele>59.4</ele>
      </trkpt>
      <trkpt lat="47.73828" lon="-1.85809">
        <ele>58.9</ele>
      </trkpt>
      <trkpt lat="47.73827" lon="-1.85805">
        <ele>58.4</ele>
      </trkpt>
      <trkpt lat="47.73826" lon="-1.85801">
        <ele>57.9</ele>
      </trkpt>
      <trkpt lat="47.73825" lon="-1.85797">
        <ele>57.4</ele>
      </trkpt>
      <trkpt lat="47.73824" lon="-1.85793">
        <ele>56.9</ele>
      </trkpt>
      <trkpt lat="47.73823" lon="-1.8579">
        <ele>56.5</ele>
      </trkpt>
      <trkpt lat="47.73821" lon="-1.85785">
        <ele>56</ele>
      </trkpt>
      <trkpt lat="47.7382" lon="-1.8578">
        <ele>55.3</ele>
      </trkpt>
      <trkpt lat="47.73818" lon="-1.85773">
        <ele>54.5</ele>
      </trkpt>
      <trkpt lat="47.73817" lon="-1.85766">
        <ele>53.7</ele>
      </trkpt>
      <trkpt lat="47.73815" lon="-1.85758">
        <ele>52.8</ele>
      </trkpt>
      <trkpt lat="47.73813" lon="-1.85753">
        <ele>52.1</ele>
      </trkpt>
      <trkpt lat="47.73811" lon="-1.85747">
        <ele>51.3</ele>
      </trkpt>
      <trkpt lat="47.73809" lon="-1.8574">
        <ele>50.6</ele>
      </trkpt>
      <trkpt lat="47.73807" lon="-1.85735">
        <ele>49.8</ele>
      </trkpt>
      <trkpt lat="47.73804" lon="-1.85728">
        <ele>49.1</ele>
      </trkpt>
      <trkpt lat="47.73803" lon="-1.85725">
        <ele>48.6</ele>
      </trkpt>
      <trkpt lat="47.73801" lon="-1.85719">
        <ele>47.9</ele>
      </trkpt>
      <trkpt lat="47.738" lon="-1.85715">
        <ele>47.4</ele>
      </trkpt>
      <trkpt lat="47.73799" lon="-1.85711">
        <ele>46.9</ele>
      </trkpt>
      <trkpt lat="47.73798" lon="-1.85707">
        <ele>46.4</ele>
      </trkpt>
      <trkpt lat="47.73798" lon="-1.85703">
        <ele>46</ele>
      </trkpt>
      <trkpt lat="47.73797" lon="-1.85698">
        <ele>45.3</ele>
      </trkpt>
      <trkpt lat="47.73795" lon="-1.85692">
        <ele>44.6</ele>
      </trkpt>
      <trkpt lat="47.73795" lon="-1.85688">
        <ele>44.1</ele>
      </trkpt>
      <trkpt lat="47.73795" lon="-1.85683">
        <ele>43.6</ele>
      </trkpt>
      <trkpt lat="47.73796" lon="-1.85678">
        <ele>43</ele>
      </trkpt>
      <trkpt lat="47.73797" lon="-1.85672">
        <ele>42.2</ele>
      </trkpt>
      <trkpt lat="47.73798" lon="-1.85666">
        <ele>41.5</ele>
      </trkpt>
      <trkpt lat="47.738" lon="-1.85661">
        <ele>41</ele>
      </trkpt>
      <trkpt lat="47.73802" lon="-1.85657">
        <ele>40.7</ele>
      </trkpt>
      <trkpt lat="47.73804" lon="-1.85655">
        <ele>40.6</ele>
      </trkpt>
      <trkpt lat="47.73806" lon="-1.85653">
        <ele>40.4</ele>
      </trkpt>
      <trkpt lat="47.73808" lon="-1.8565">
        <ele>40.2</ele>
      </trkpt>
      <trkpt lat="47.73811" lon="-1.85645">
        <ele>39.7</ele>
      </trkpt>
      <trkpt lat="47.73813" lon="-1.85638">
        <ele>39.2</ele>
      </trkpt>
      <trkpt lat="47.73814" lon="-1.85631">
        <ele>38.6</ele>
      </trkpt>
      <trkpt lat="47.73815" lon="-1.85626">
        <ele>38.1</ele>
      </trkpt>
      <trkpt lat="47.73817" lon="-1.8562">
        <ele>37.7</ele>
      </trkpt>
      <trkpt lat="47.73819" lon="-1.85616">
        <ele>37.3</ele>
      </trkpt>
      <trkpt lat="47.73818" lon="-1.85611">
        <ele>36.9</ele>
      </trkpt>
      <trkpt lat="47.73817" lon="-1.85607">
        <ele>36.5</ele>
      </trkpt>
      <trkpt lat="47.73817" lon="-1.85602">
        <ele>36</ele>
      </trkpt>
      <trkpt lat="47.73819" lon="-1.85598">
        <ele>35.8</ele>
      </trkpt>
      <trkpt lat="47.73821" lon="-1.85596">
        <ele>35.6</ele>
      </trkpt>
      <trkpt lat="47.73823" lon="-1.85593">
        <ele>35.5</ele>
      </trkpt>
      <trkpt lat="47.73826" lon="-1.85589">
        <ele>35.2</ele>
      </trkpt>
      <trkpt lat="47.73828" lon="-1.85584">
        <ele>34.9</ele>
      </trkpt>
      <trkpt lat="47.73831" lon="-1.8558">
        <ele>34.7</ele>
      </trkpt>
      <trkpt lat="47.73835" lon="-1.85577">
        <ele>34.5</ele>
      </trkpt>
      <trkpt lat="47.73838" lon="-1.85575">
        <ele>34.3</ele>
      </trkpt>
      <trkpt lat="47.73841" lon="-1.85572">
        <ele>33.9</ele>
      </trkpt>
      <trkpt lat="47.73845" lon="-1.85567">
        <ele>33.4</ele>
      </trkpt>
      <trkpt lat="47.7385" lon="-1.85565">
        <ele>33.1</ele>
      </trkpt>
      <trkpt lat="47.73852" lon="-1.85562">
        <ele>32.8</ele>
      </trkpt>
      <trkpt lat="47.73854" lon="-1.85557">
        <ele>32.3</ele>
      </trkpt>
      <trkpt lat="47.73854" lon="-1.8555">
        <ele>31.9</ele>
      </trkpt>
      <trkpt lat="47.73852" lon="-1.85545">
        <ele>31.5</ele>
      </trkpt>
      <trkpt lat="47.73852" lon="-1.85541">
        <ele>31.2</ele>
      </trkpt>
      <trkpt lat="47.73854" lon="-1.85537">
        <ele>31</ele>
      </trkpt>
      <trkpt lat="47.73854" lon="-1.85537">
        <ele>30.9</ele>
      </trkpt>
      <trkpt lat="47.73854" lon="-1.85537">
        <ele>30.9</ele>
      </trkpt>
      <trkpt lat="47.73854" lon="-1.85537">
        <ele>30.9</ele>
      </trkpt>
      <trkpt lat="47.73854" lon="-1.85537">
        <ele>30.9</ele>
      </trkpt>
      <trkpt lat="47.73854" lon="-1.85537">
        <ele>30.9</ele>
      </trkpt>
      <trkpt lat="47.73853" lon="-1.85536">
        <ele>30.8</ele>
      </trkpt>
      <trkpt lat="47.73853" lon="-1.85534">
        <ele>30.7</ele>
      </trkpt>
      <trkpt lat="47.73853" lon="-1.85532">
        <ele>30.6</ele>
      </trkpt>
      <trkpt lat="47.73853" lon="-1.85532">
        <ele>30.6</ele>
      </trkpt>
      <trkpt lat="47.73853" lon="-1.85532">
        <ele>30.6</ele>
      </trkpt>
      <trkpt lat="47.73853" lon="-1.85531">
        <ele>30.5</ele>
      </trkpt>
      <trkpt lat="47.73854" lon="-1.85529">
        <ele>30.3</ele>
      </trkpt>
      <trkpt lat="47.73854" lon="-1.85526">
        <ele>30.1</ele>
      </trkpt>
      <trkpt lat="47.73853" lon="-1.85523">
        <ele>29.9</ele>
      </trkpt>
      <trkpt lat="47.73851" lon="-1.8552">
        <ele>29.8</ele>
      </trkpt>
      <trkpt lat="47.73851" lon="-1.85518">
        <ele>29.6</ele>
      </trkpt>
      <trkpt lat="47.73852" lon="-1.85515">
        <ele>29.4</ele>
      </trkpt>
      <trkpt lat="47.73853" lon="-1.85513">
        <ele>29.2</ele>
      </trkpt>
      <trkpt lat="47.73853" lon="-1.85511">
        <ele>29.1</ele>
      </trkpt>
      <trkpt lat="47.73855" lon="-1.85511">
        <ele>29</ele>
      </trkpt>
      <trkpt lat="47.73857" lon="-1.85511">
        <ele>28.9</ele>
      </trkpt>
      <trkpt lat="47.73859" lon="-1.85512">
        <ele>29</ele>
      </trkpt>
      <trkpt lat="47.7386" lon="-1.85513">
        <ele>29</ele>
      </trkpt>
      <trkpt lat="47.73862" lon="-1.85514">
        <ele>29</ele>
      </trkpt>
      <trkpt lat="47.73864" lon="-1.85515">
        <ele>29</ele>
      </trkpt>
      <trkpt lat="47.73865" lon="-1.85515">
        <ele>29</ele>
      </trkpt>
      <trkpt lat="47.73865" lon="-1.85516">
        <ele>29</ele>
      </trkpt>
      <trkpt lat="47.73864" lon="-1.85515">
        <ele>29</ele>
      </trkpt>
      <trkpt lat="47.73863" lon="-1.85514">
        <ele>28.9</ele>
      </trkpt>
      <trkpt lat="47.73861" lon="-1.85512">
        <ele>28.9</ele>
      </trkpt>
      <trkpt lat="47.73859" lon="-1.85511">
        <ele>28.9</ele>
      </trkpt>
      <trkpt lat="47.73856" lon="-1.85509">
        <ele>28.9</ele>
      </trkpt>
      <trkpt lat="47.73854" lon="-1.85508">
        <ele>28.8</ele>
      </trkpt>
      <trkpt lat="47.73851" lon="-1.85507">
        <ele>28.8</ele>
      </trkpt>
      <trkpt lat="47.73849" lon="-1.85505">
        <ele>28.8</ele>
      </trkpt>
      <trkpt lat="47.73846" lon="-1.85504">
        <ele>28.8</ele>
      </trkpt>
      <trkpt lat="47.73844" lon="-1.85501">
        <ele>28.7</ele>
      </trkpt>
      <trkpt lat="47.73842" lon="-1.85499">
        <ele>28.6</ele>
      </trkpt>
      <trkpt lat="47.73837" lon="-1.85493">
        <ele>28.3</ele>
      </trkpt>
      <trkpt lat="47.73837" lon="-1.85493">
        <ele>28.3</ele>
      </trkpt>
      <trkpt lat="47.73834" lon="-1.85491">
        <ele>28.2</ele>
      </trkpt>
      <trkpt lat="47.73831" lon="-1.85488">
        <ele>27.9</ele>
      </trkpt>
      <trkpt lat="47.7383" lon="-1.85485">
        <ele>27.7</ele>
      </trkpt>
      <trkpt lat="47.73826" lon="-1.85482">
        <ele>27.4</ele>
      </trkpt>
      <trkpt lat="47.73823" lon="-1.85478">
        <ele>27</ele>
      </trkpt>
      <trkpt lat="47.73819" lon="-1.85475">
        <ele>26.6</ele>
      </trkpt>
      <trkpt lat="47.73816" lon="-1.85471">
        <ele>26.3</ele>
      </trkpt>
      <trkpt lat="47.73814" lon="-1.85468">
        <ele>26</ele>
      </trkpt>
      <trkpt lat="47.73813" lon="-1.85466">
        <ele>25.8</ele>
      </trkpt>
      <trkpt lat="47.73814" lon="-1.85463">
        <ele>25.6</ele>
      </trkpt>
      <trkpt lat="47.73814" lon="-1.85462">
        <ele>25.6</ele>
      </trkpt>
      <trkpt lat="47.73815" lon="-1.85462">
        <ele>25.5</ele>
      </trkpt>
      <trkpt lat="47.73815" lon="-1.85462">
        <ele>25.5</ele>
      </trkpt>
      <trkpt lat="47.73815" lon="-1.85462">
        <ele>25.5</ele>
      </trkpt>
      <trkpt lat="47.73815" lon="-1.85461">
        <ele>25.5</ele>
      </trkpt>
      <trkpt lat="47.73816" lon="-1.8546">
        <ele>25.4</ele>
      </trkpt>
      <trkpt lat="47.73817" lon="-1.8546">
        <ele>25.4</ele>
      </trkpt>
      <trkpt lat="47.73819" lon="-1.85458">
        <ele>25.3</ele>
      </trkpt>
      <trkpt lat="47.73821" lon="-1.85456">
        <ele>25.2</ele>
      </trkpt>
      <trkpt lat="47.73823" lon="-1.85454">
        <ele>25.1</ele>
      </trkpt>
      <trkpt lat="47.73825" lon="-1.85453">
        <ele>24.9</ele>
      </trkpt>
      <trkpt lat="47.73828" lon="-1.85451">
        <ele>24.8</ele>
      </trkpt>
      <trkpt lat="47.7383" lon="-1.8545">
        <ele>24.8</ele>
      </trkpt>
      <trkpt lat="47.73833" lon="-1.85452">
        <ele>24.9</ele>
      </trkpt>
      <trkpt lat="47.73836" lon="-1.85453">
        <ele>25</ele>
      </trkpt>
      <trkpt lat="47.7384" lon="-1.85453">
        <ele>24.8</ele>
      </trkpt>
      <trkpt lat="47.73844" lon="-1.85451">
        <ele>24.5</ele>
      </trkpt>
      <trkpt lat="47.73848" lon="-1.85449">
        <ele>24.2</ele>
      </trkpt>
      <trkpt lat="47.73851" lon="-1.85446">
        <ele>23.9</ele>
      </trkpt>
      <trkpt lat="47.73853" lon="-1.85443">
        <ele>23.5</ele>
      </trkpt>
      <trkpt lat="47.73856" lon="-1.85439">
        <ele>23.1</ele>
      </trkpt>
      <trkpt lat="47.73859" lon="-1.85435">
        <ele>22.7</ele>
      </trkpt>
      <trkpt lat="47.73862" lon="-1.85432">
        <ele>22.2</ele>
      </trkpt>
      <trkpt lat="47.73864" lon="-1.85428">
        <ele>21.9</ele>
      </trkpt>
      <trkpt lat="47.73866" lon="-1.85426">
        <ele>21.6</ele>
      </trkpt>
      <trkpt lat="47.73868" lon="-1.85426">
        <ele>21.5</ele>
      </trkpt>
      <trkpt lat="47.7387" lon="-1.85427">
        <ele>21.6</ele>
      </trkpt>
      <trkpt lat="47.73872" lon="-1.85429">
        <ele>21.7</ele>
      </trkpt>
      <trkpt lat="47.73874" lon="-1.85431">
        <ele>21.8</ele>
      </trkpt>
      <trkpt lat="47.73876" lon="-1.85434">
        <ele>21.9</ele>
      </trkpt>
      <trkpt lat="47.73879" lon="-1.85436">
        <ele>22</ele>
      </trkpt>
      <trkpt lat="47.73881" lon="-1.8544">
        <ele>22.2</ele>
      </trkpt>
      <trkpt lat="47.73882" lon="-1.85445">
        <ele>22.6</ele>
      </trkpt>
      <trkpt lat="47.73884" lon="-1.85449">
        <ele>22.9</ele>
      </trkpt>
      <trkpt lat="47.73886" lon="-1.85453">
        <ele>23.1</ele>
      </trkpt>
      <trkpt lat="47.73889" lon="-1.85456">
        <ele>23.3</ele>
      </trkpt>
      <trkpt lat="47.73891" lon="-1.85458">
        <ele>23.4</ele>
      </trkpt>
      <trkpt lat="47.73894" lon="-1.85459">
        <ele>23.4</ele>
      </trkpt>
      <trkpt lat="47.73897" lon="-1.8546">
        <ele>23.4</ele>
      </trkpt>
      <trkpt lat="47.73899" lon="-1.85461">
        <ele>23.4</ele>
      </trkpt>
      <trkpt lat="47.73902" lon="-1.85464">
        <ele>23.5</ele>
      </trkpt>
      <trkpt lat="47.73903" lon="-1.85466">
        <ele>23.6</ele>
      </trkpt>
      <trkpt lat="47.73906" lon="-1.85468">
        <ele>23.7</ele>
      </trkpt>
      <trkpt lat="47.73908" lon="-1.85469">
        <ele>23.7</ele>
      </trkpt>
      <trkpt lat="47.73909" lon="-1.85471">
        <ele>23.8</ele>
      </trkpt>
      <trkpt lat="47.73912" lon="-1.85472">
        <ele>23.9</ele>
      </trkpt>
      <trkpt lat="47.73914" lon="-1.85474">
        <ele>23.9</ele>
      </trkpt>
      <trkpt lat="47.73916" lon="-1.85476">
        <ele>24</ele>
      </trkpt>
      <trkpt lat="47.73918" lon="-1.85478">
        <ele>24.1</ele>
      </trkpt>
      <trkpt lat="47.73919" lon="-1.85481">
        <ele>24.2</ele>
      </trkpt>
      <trkpt lat="47.7392" lon="-1.85484">
        <ele>24.4</ele>
      </trkpt>
      <trkpt lat="47.73922" lon="-1.85487">
        <ele>24.6</ele>
      </trkpt>
      <trkpt lat="47.73925" lon="-1.8549">
        <ele>24.7</ele>
      </trkpt>
      <trkpt lat="47.73928" lon="-1.85492">
        <ele>24.7</ele>
      </trkpt>
      <trkpt lat="47.7393" lon="-1.85492">
        <ele>24.5</ele>
      </trkpt>
      <trkpt lat="47.73933" lon="-1.85492">
        <ele>24.4</ele>
      </trkpt>
      <trkpt lat="47.73936" lon="-1.85494">
        <ele>24.3</ele>
      </trkpt>
      <trkpt lat="47.73938" lon="-1.85495">
        <ele>24.3</ele>
      </trkpt>
      <trkpt lat="47.73941" lon="-1.85497">
        <ele>24.3</ele>
      </trkpt>
      <trkpt lat="47.73943" lon="-1.85498">
        <ele>24.3</ele>
      </trkpt>
      <trkpt lat="47.73944" lon="-1.85499">
        <ele>24.3</ele>
      </trkpt>
      <trkpt lat="47.73945" lon="-1.85501">
        <ele>24.4</ele>
      </trkpt>
      <trkpt lat="47.73946" lon="-1.85503">
        <ele>24.5</ele>
      </trkpt>
      <trkpt lat="47.73946" lon="-1.85506">
        <ele>24.7</ele>
      </trkpt>
      <trkpt lat="47.73947" lon="-1.85508">
        <ele>24.8</ele>
      </trkpt>
      <trkpt lat="47.73948" lon="-1.8551">
        <ele>24.8</ele>
      </trkpt>
      <trkpt lat="47.73949" lon="-1.85511">
        <ele>24.8</ele>
      </trkpt>
      <trkpt lat="47.7395" lon="-1.85512">
        <ele>24.9</ele>
      </trkpt>
      <trkpt lat="47.73951" lon="-1.85514">
        <ele>24.9</ele>
      </trkpt>
      <trkpt lat="47.73952" lon="-1.85515">
        <ele>24.9</ele>
      </trkpt>
      <trkpt lat="47.73954" lon="-1.85516">
        <ele>24.9</ele>
      </trkpt>
      <trkpt lat="47.73955" lon="-1.85518">
        <ele>25</ele>
      </trkpt>
      <trkpt lat="47.73955" lon="-1.8552">
        <ele>25.1</ele>
      </trkpt>
      <trkpt lat="47.73956" lon="-1.85521">
        <ele>25.1</ele>
      </trkpt>
      <trkpt lat="47.73957" lon="-1.85522">
        <ele>25.2</ele>
      </trkpt>
      <trkpt lat="47.73958" lon="-1.85523">
        <ele>25.2</ele>
      </trkpt>
      <trkpt lat="47.73959" lon="-1.85524">
        <ele>25.2</ele>
      </trkpt>
      <trkpt lat="47.73961" lon="-1.85526">
        <ele>25.2</ele>
      </trkpt>
      <trkpt lat="47.73962" lon="-1.85527">
        <ele>25.3</ele>
      </trkpt>
      <trkpt lat="47.73963" lon="-1.85528">
        <ele>25.2</ele>
      </trkpt>
      <trkpt lat="47.73965" lon="-1.85528">
        <ele>25.1</ele>
      </trkpt>
      <trkpt lat="47.73966" lon="-1.85527">
        <ele>25</ele>
      </trkpt>
      <trkpt lat="47.73968" lon="-1.85524">
        <ele>24.7</ele>
      </trkpt>
      <trkpt lat="47.7397" lon="-1.85521">
        <ele>24.3</ele>
      </trkpt>
      <trkpt lat="47.73972" lon="-1.85517">
        <ele>23.9</ele>
      </trkpt>
      <trkpt lat="47.73974" lon="-1.85512">
        <ele>23.4</ele>
      </trkpt>
      <trkpt lat="47.73977" lon="-1.85507">
        <ele>22.9</ele>
      </trkpt>
      <trkpt lat="47.73981" lon="-1.85502">
        <ele>22.3</ele>
      </trkpt>
      <trkpt lat="47.73984" lon="-1.85496">
        <ele>21.7</ele>
      </trkpt>
      <trkpt lat="47.73988" lon="-1.85489">
        <ele>21</ele>
      </trkpt>
      <trkpt lat="47.73992" lon="-1.85482">
        <ele>20.4</ele>
      </trkpt>
      <trkpt lat="47.73996" lon="-1.85475">
        <ele>19.7</ele>
      </trkpt>
      <trkpt lat="47.74" lon="-1.85468">
        <ele>19.1</ele>
      </trkpt>
      <trkpt lat="47.74004" lon="-1.85461">
        <ele>18.4</ele>
      </trkpt>
      <trkpt lat="47.74008" lon="-1.85453">
        <ele>17.8</ele>
      </trkpt>
      <trkpt lat="47.74013" lon="-1.85445">
        <ele>17.1</ele>
      </trkpt>
      <trkpt lat="47.74017" lon="-1.85437">
        <ele>16.5</ele>
      </trkpt>
      <trkpt lat="47.74021" lon="-1.85429">
        <ele>15.9</ele>
      </trkpt>
      <trkpt lat="47.74025" lon="-1.85421">
        <ele>15.3</ele>
      </trkpt>
      <trkpt lat="47.7403" lon="-1.85413">
        <ele>14.8</ele>
      </trkpt>
      <trkpt lat="47.74034" lon="-1.85406">
        <ele>14.4</ele>
      </trkpt>
      <trkpt lat="47.74038" lon="-1.85399">
        <ele>14</ele>
      </trkpt>
      <trkpt lat="47.74042" lon="-1.85394">
        <ele>13.7</ele>
      </trkpt>
      <trkpt lat="47.74046" lon="-1.85391">
        <ele>13.4</ele>
      </trkpt>
      <trkpt lat="47.7405" lon="-1.85389">
        <ele>13.3</ele>
      </trkpt>
      <trkpt lat="47.74054" lon="-1.8539">
        <ele>13.2</ele>
      </trkpt>
      <trkpt lat="47.74057" lon="-1.85392">
        <ele>13.2</ele>
      </trkpt>
      <trkpt lat="47.7406" lon="-1.85395">
        <ele>13.2</ele>
      </trkpt>
      <trkpt lat="47.74062" lon="-1.85399">
        <ele>13.2</ele>
      </trkpt>
      <trkpt lat="47.74064" lon="-1.85403">
        <ele>13.3</ele>
      </trkpt>
      <trkpt lat="47.74066" lon="-1.85408">
        <ele>13.4</ele>
      </trkpt>
      <trkpt lat="47.74069" lon="-1.85413">
        <ele>13.4</ele>
      </trkpt>
      <trkpt lat="47.74072" lon="-1.85417">
        <ele>13.4</ele>
      </trkpt>
      <trkpt lat="47.74074" lon="-1.85422">
        <ele>13.5</ele>
      </trkpt>
      <trkpt lat="47.74077" lon="-1.85427">
        <ele>13.6</ele>
      </trkpt>
      <trkpt lat="47.74079" lon="-1.85432">
        <ele>13.7</ele>
      </trkpt>
      <trkpt lat="47.74082" lon="-1.85437">
        <ele>13.8</ele>
      </trkpt>
      <trkpt lat="47.74085" lon="-1.85443">
        <ele>13.9</ele>
      </trkpt>
      <trkpt lat="47.74088" lon="-1.85449">
        <ele>14</ele>
      </trkpt>
      <trkpt lat="47.74092" lon="-1.85455">
        <ele>14.1</ele>
      </trkpt>
      <trkpt lat="47.74095" lon="-1.85461">
        <ele>14.3</ele>
      </trkpt>
      <trkpt lat="47.74098" lon="-1.85467">
        <ele>14.3</ele>
      </trkpt>
      <trkpt lat="47.74102" lon="-1.85473">
        <ele>14.4</ele>
      </trkpt>
      <trkpt lat="47.74105" lon="-1.85478">
        <ele>14.5</ele>
      </trkpt>
      <trkpt lat="47.74108" lon="-1.85484">
        <ele>14.6</ele>
      </trkpt>
      <trkpt lat="47.74111" lon="-1.85489">
        <ele>14.7</ele>
      </trkpt>
      <trkpt lat="47.74114" lon="-1.85495">
        <ele>14.7</ele>
      </trkpt>
      <trkpt lat="47.74116" lon="-1.855">
        <ele>14.8</ele>
      </trkpt>
      <trkpt lat="47.74119" lon="-1.85505">
        <ele>14.9</ele>
      </trkpt>
      <trkpt lat="47.74122" lon="-1.85511">
        <ele>15</ele>
      </trkpt>
      <trkpt lat="47.74124" lon="-1.85516">
        <ele>15.1</ele>
      </trkpt>
      <trkpt lat="47.74127" lon="-1.85521">
        <ele>15.2</ele>
      </trkpt>
      <trkpt lat="47.74129" lon="-1.85527">
        <ele>15.3</ele>
      </trkpt>
      <trkpt lat="47.74132" lon="-1.85532">
        <ele>15.3</ele>
      </trkpt>
      <trkpt lat="47.74135" lon="-1.85537">
        <ele>15.4</ele>
      </trkpt>
      <trkpt lat="47.74138" lon="-1.85541">
        <ele>15.3</ele>
      </trkpt>
      <trkpt lat="47.74142" lon="-1.85541">
        <ele>15.2</ele>
      </trkpt>
      <trkpt lat="47.74145" lon="-1.8554">
        <ele>15</ele>
      </trkpt>
      <trkpt lat="47.74147" lon="-1.85537">
        <ele>14.8</ele>
      </trkpt>
      <trkpt lat="47.7415" lon="-1.85534">
        <ele>14.6</ele>
      </trkpt>
      <trkpt lat="47.74153" lon="-1.85531">
        <ele>14.3</ele>
      </trkpt>
      <trkpt lat="47.74156" lon="-1.85527">
        <ele>14.1</ele>
      </trkpt>
      <trkpt lat="47.74159" lon="-1.85524">
        <ele>13.9</ele>
      </trkpt>
      <trkpt lat="47.74163" lon="-1.85521">
        <ele>13.7</ele>
      </trkpt>
      <trkpt lat="47.74168" lon="-1.85519">
        <ele>13.5</ele>
      </trkpt>
      <trkpt lat="47.74172" lon="-1.85518">
        <ele>13.7</ele>
      </trkpt>
      <trkpt lat="47.74177" lon="-1.85518">
        <ele>14</ele>
      </trkpt>
      <trkpt lat="47.74181" lon="-1.85518">
        <ele>14.2</ele>
      </trkpt>
      <trkpt lat="47.74186" lon="-1.85518">
        <ele>14.4</ele>
      </trkpt>
      <trkpt lat="47.7419" lon="-1.85518">
        <ele>14.7</ele>
      </trkpt>
      <trkpt lat="47.74195" lon="-1.85518">
        <ele>14.9</ele>
      </trkpt>
      <trkpt lat="47.74199" lon="-1.85519">
        <ele>15.1</ele>
      </trkpt>
      <trkpt lat="47.74204" lon="-1.8552">
        <ele>15.4</ele>
      </trkpt>
      <trkpt lat="47.74208" lon="-1.85521">
        <ele>15.6</ele>
      </trkpt>
      <trkpt lat="47.74212" lon="-1.85521">
        <ele>15.8</ele>
      </trkpt>
      <trkpt lat="47.74217" lon="-1.85522">
        <ele>16</ele>
      </trkpt>
      <trkpt lat="47.74221" lon="-1.85523">
        <ele>16.3</ele>
      </trkpt>
      <trkpt lat="47.74226" lon="-1.85523">
        <ele>16.5</ele>
      </trkpt>
      <trkpt lat="47.7423" lon="-1.85524">
        <ele>16.7</ele>
      </trkpt>
      <trkpt lat="47.74234" lon="-1.85524">
        <ele>16.9</ele>
      </trkpt>
      <trkpt lat="47.74238" lon="-1.85523">
        <ele>17.1</ele>
      </trkpt>
      <trkpt lat="47.74243" lon="-1.85522">
        <ele>17.4</ele>
      </trkpt>
      <trkpt lat="47.74246" lon="-1.85521">
        <ele>17.6</ele>
      </trkpt>
      <trkpt lat="47.7425" lon="-1.8552">
        <ele>17.8</ele>
      </trkpt>
      <trkpt lat="47.74254" lon="-1.85518">
        <ele>18.1</ele>
      </trkpt>
      <trkpt lat="47.74257" lon="-1.85516">
        <ele>18.4</ele>
      </trkpt>
      <trkpt lat="47.7426" lon="-1.85513">
        <ele>18.7</ele>
      </trkpt>
      <trkpt lat="47.74263" lon="-1.85508">
        <ele>18.9</ele>
      </trkpt>
      <trkpt lat="47.74263" lon="-1.85504">
        <ele>19</ele>
      </trkpt>
      <trkpt lat="47.74263" lon="-1.85498">
        <ele>19.1</ele>
      </trkpt>
      <trkpt lat="47.74261" lon="-1.85492">
        <ele>19</ele>
      </trkpt>
      <trkpt lat="47.74259" lon="-1.85486">
        <ele>18.8</ele>
      </trkpt>
      <trkpt lat="47.74257" lon="-1.8548">
        <ele>18.6</ele>
      </trkpt>
      <trkpt lat="47.74254" lon="-1.85474">
        <ele>18.4</ele>
      </trkpt>
      <trkpt lat="47.74252" lon="-1.85468">
        <ele>18.2</ele>
      </trkpt>
      <trkpt lat="47.7425" lon="-1.85461">
        <ele>18</ele>
      </trkpt>
      <trkpt lat="47.74248" lon="-1.85455">
        <ele>17.8</ele>
      </trkpt>
      <trkpt lat="47.74246" lon="-1.85448">
        <ele>17.7</ele>
      </trkpt>
      <trkpt lat="47.74244" lon="-1.85443">
        <ele>17.5</ele>
      </trkpt>
      <trkpt lat="47.74241" lon="-1.85435">
        <ele>17.3</ele>
      </trkpt>
      <trkpt lat="47.74238" lon="-1.85428">
        <ele>17.1</ele>
      </trkpt>
      <trkpt lat="47.74236" lon="-1.85422">
        <ele>16.9</ele>
      </trkpt>
      <trkpt lat="47.74234" lon="-1.85415">
        <ele>16.7</ele>
      </trkpt>
      <trkpt lat="47.74232" lon="-1.8541">
        <ele>16.6</ele>
      </trkpt>
      <trkpt lat="47.74229" lon="-1.85402">
        <ele>16.4</ele>
      </trkpt>
      <trkpt lat="47.74227" lon="-1.85396">
        <ele>16.3</ele>
      </trkpt>
      <trkpt lat="47.74225" lon="-1.8539">
        <ele>16.2</ele>
      </trkpt>
      <trkpt lat="47.74223" lon="-1.85383">
        <ele>16.1</ele>
      </trkpt>
      <trkpt lat="47.74222" lon="-1.85377">
        <ele>16.1</ele>
      </trkpt>
      <trkpt lat="47.74222" lon="-1.85371">
        <ele>16.2</ele>
      </trkpt>
      <trkpt lat="47.74224" lon="-1.85366">
        <ele>16.4</ele>
      </trkpt>
      <trkpt lat="47.74227" lon="-1.85362">
        <ele>16.7</ele>
      </trkpt>
      <trkpt lat="47.7423" lon="-1.8536">
        <ele>17</ele>
      </trkpt>
      <trkpt lat="47.74233" lon="-1.85359">
        <ele>17.3</ele>
      </trkpt>
      <trkpt lat="47.74236" lon="-1.85359">
        <ele>17.5</ele>
      </trkpt>
      <trkpt lat="47.74238" lon="-1.85358">
        <ele>17.7</ele>
      </trkpt>
      <trkpt lat="47.74241" lon="-1.85358">
        <ele>17.9</ele>
      </trkpt>
      <trkpt lat="47.74244" lon="-1.85358">
        <ele>18.2</ele>
      </trkpt>
      <trkpt lat="47.74246" lon="-1.85358">
        <ele>18.4</ele>
      </trkpt>
      <trkpt lat="47.74248" lon="-1.85357">
        <ele>18.6</ele>
      </trkpt>
      <trkpt lat="47.74251" lon="-1.85357">
        <ele>18.8</ele>
      </trkpt>
      <trkpt lat="47.74253" lon="-1.85357">
        <ele>19.1</ele>
      </trkpt>
      <trkpt lat="47.74256" lon="-1.85357">
        <ele>19.4</ele>
      </trkpt>
      <trkpt lat="47.74258" lon="-1.85357">
        <ele>19.7</ele>
      </trkpt>
      <trkpt lat="47.74261" lon="-1.85356">
        <ele>20</ele>
      </trkpt>
      <trkpt lat="47.74263" lon="-1.85356">
        <ele>20.3</ele>
      </trkpt>
      <trkpt lat="47.74265" lon="-1.85355">
        <ele>20.6</ele>
      </trkpt>
      <trkpt lat="47.74268" lon="-1.85355">
        <ele>20.9</ele>
      </trkpt>
      <trkpt lat="47.7427" lon="-1.85355">
        <ele>21.2</ele>
      </trkpt>
      <trkpt lat="47.74273" lon="-1.85355">
        <ele>21.5</ele>
      </trkpt>
      <trkpt lat="47.74275" lon="-1.85355">
        <ele>21.7</ele>
      </trkpt>
      <trkpt lat="47.74277" lon="-1.85355">
        <ele>22</ele>
      </trkpt>
      <trkpt lat="47.74279" lon="-1.85354">
        <ele>22.3</ele>
      </trkpt>
      <trkpt lat="47.74282" lon="-1.85354">
        <ele>22.6</ele>
      </trkpt>
      <trkpt lat="47.74284" lon="-1.85354">
        <ele>22.8</ele>
      </trkpt>
      <trkpt lat="47.74286" lon="-1.85354">
        <ele>23.1</ele>
      </trkpt>
      <trkpt lat="47.74289" lon="-1.85353">
        <ele>23.4</ele>
      </trkpt>
      <trkpt lat="47.7429" lon="-1.85353">
        <ele>23.6</ele>
      </trkpt>
      <trkpt lat="47.74292" lon="-1.85353">
        <ele>23.8</ele>
      </trkpt>
      <trkpt lat="47.74294" lon="-1.85353">
        <ele>24.1</ele>
      </trkpt>
      <trkpt lat="47.74296" lon="-1.85352">
        <ele>24.3</ele>
      </trkpt>
      <trkpt lat="47.74299" lon="-1.85352">
        <ele>24.6</ele>
      </trkpt>
      <trkpt lat="47.74301" lon="-1.85352">
        <ele>24.9</ele>
      </trkpt>
      <trkpt lat="47.74303" lon="-1.85352">
        <ele>25.1</ele>
      </trkpt>
      <trkpt lat="47.74305" lon="-1.85352">
        <ele>25.4</ele>
      </trkpt>
      <trkpt lat="47.74307" lon="-1.85351">
        <ele>25.6</ele>
      </trkpt>
      <trkpt lat="47.74309" lon="-1.85352">
        <ele>25.8</ele>
      </trkpt>
      <trkpt lat="47.7431" lon="-1.85351">
        <ele>26</ele>
      </trkpt>
      <trkpt lat="47.74312" lon="-1.85351">
        <ele>26.2</ele>
      </trkpt>
      <trkpt lat="47.74314" lon="-1.85351">
        <ele>26.5</ele>
      </trkpt>
      <trkpt lat="47.74316" lon="-1.85351">
        <ele>26.7</ele>
      </trkpt>
      <trkpt lat="47.74318" lon="-1.85351">
        <ele>27</ele>
      </trkpt>
      <trkpt lat="47.7432" lon="-1.85351">
        <ele>27.2</ele>
      </trkpt>
      <trkpt lat="47.74322" lon="-1.8535">
        <ele>27.4</ele>
      </trkpt>
      <trkpt lat="47.74324" lon="-1.8535">
        <ele>27.7</ele>
      </trkpt>
      <trkpt lat="47.74326" lon="-1.8535">
        <ele>27.9</ele>
      </trkpt>
      <trkpt lat="47.74328" lon="-1.8535">
        <ele>28.2</ele>
      </trkpt>
      <trkpt lat="47.7433" lon="-1.8535">
        <ele>28.4</ele>
      </trkpt>
      <trkpt lat="47.74332" lon="-1.8535">
        <ele>28.6</ele>
      </trkpt>
      <trkpt lat="47.74334" lon="-1.85349">
        <ele>28.9</ele>
      </trkpt>
      <trkpt lat="47.74335" lon="-1.85349">
        <ele>29.2</ele>
      </trkpt>
      <trkpt lat="47.74337" lon="-1.85349">
        <ele>29.5</ele>
      </trkpt>
      <trkpt lat="47.74339" lon="-1.85349">
        <ele>29.9</ele>
      </trkpt>
      <trkpt lat="47.74341" lon="-1.85348">
        <ele>30.2</ele>
      </trkpt>
      <trkpt lat="47.74343" lon="-1.85348">
        <ele>30.5</ele>
      </trkpt>
      <trkpt lat="47.74345" lon="-1.85348">
        <ele>30.8</ele>
      </trkpt>
      <trkpt lat="47.74347" lon="-1.85348">
        <ele>31.2</ele>
      </trkpt>
      <trkpt lat="47.74349" lon="-1.85348">
        <ele>31.5</ele>
      </trkpt>
      <trkpt lat="47.74351" lon="-1.85348">
        <ele>31.9</ele>
      </trkpt>
      <trkpt lat="47.74354" lon="-1.85348">
        <ele>32.2</ele>
      </trkpt>
      <trkpt lat="47.74355" lon="-1.85348">
        <ele>32.5</ele>
      </trkpt>
      <trkpt lat="47.74357" lon="-1.85347">
        <ele>32.8</ele>
      </trkpt>
      <trkpt lat="47.74359" lon="-1.85347">
        <ele>33.2</ele>
      </trkpt>
      <trkpt lat="47.74361" lon="-1.85347">
        <ele>33.5</ele>
      </trkpt>
      <trkpt lat="47.74363" lon="-1.85347">
        <ele>33.8</ele>
      </trkpt>
      <trkpt lat="47.74365" lon="-1.85346">
        <ele>34.2</ele>
      </trkpt>
      <trkpt lat="47.74367" lon="-1.85346">
        <ele>34.4</ele>
      </trkpt>
      <trkpt lat="47.74368" lon="-1.85346">
        <ele>34.7</ele>
      </trkpt>
      <trkpt lat="47.7437" lon="-1.85346">
        <ele>35</ele>
      </trkpt>
      <trkpt lat="47.74373" lon="-1.85346">
        <ele>35.4</ele>
      </trkpt>
      <trkpt lat="47.74374" lon="-1.85346">
        <ele>35.7</ele>
      </trkpt>
      <trkpt lat="47.74376" lon="-1.85346">
        <ele>36</ele>
      </trkpt>
      <trkpt lat="47.74377" lon="-1.85346">
        <ele>36.3</ele>
      </trkpt>
      <trkpt lat="47.74379" lon="-1.85345">
        <ele>36.5</ele>
      </trkpt>
      <trkpt lat="47.74381" lon="-1.85345">
        <ele>36.8</ele>
      </trkpt>
      <trkpt lat="47.74382" lon="-1.85345">
        <ele>37.1</ele>
      </trkpt>
      <trkpt lat="47.74384" lon="-1.85345">
        <ele>37.4</ele>
      </trkpt>
      <trkpt lat="47.74385" lon="-1.85345">
        <ele>37.6</ele>
      </trkpt>
      <trkpt lat="47.74387" lon="-1.85345">
        <ele>37.9</ele>
      </trkpt>
      <trkpt lat="47.74389" lon="-1.85345">
        <ele>38.2</ele>
      </trkpt>
      <trkpt lat="47.74391" lon="-1.85345">
        <ele>38.5</ele>
      </trkpt>
      <trkpt lat="47.74392" lon="-1.85345">
        <ele>38.8</ele>
      </trkpt>
      <trkpt lat="47.74394" lon="-1.85345">
        <ele>39.1</ele>
      </trkpt>
      <trkpt lat="47.74395" lon="-1.85345">
        <ele>39.3</ele>
      </trkpt>
      <trkpt lat="47.74397" lon="-1.85345">
        <ele>39.5</ele>
      </trkpt>
      <trkpt lat="47.74398" lon="-1.85345">
        <ele>39.7</ele>
      </trkpt>
      <trkpt lat="47.74399" lon="-1.85345">
        <ele>40</ele>
      </trkpt>
      <trkpt lat="47.74401" lon="-1.85344">
        <ele>40.2</ele>
      </trkpt>
      <trkpt lat="47.74402" lon="-1.85344">
        <ele>40.4</ele>
      </trkpt>
      <trkpt lat="47.74403" lon="-1.85344">
        <ele>40.5</ele>
      </trkpt>
      <trkpt lat="47.74404" lon="-1.85343">
        <ele>40.7</ele>
      </trkpt>
      <trkpt lat="47.74405" lon="-1.85343">
        <ele>40.9</ele>
      </trkpt>
      <trkpt lat="47.74406" lon="-1.85342">
        <ele>41.1</ele>
      </trkpt>
      <trkpt lat="47.74407" lon="-1.85341">
        <ele>41.3</ele>
      </trkpt>
      <trkpt lat="47.74408" lon="-1.85341">
        <ele>41.5</ele>
      </trkpt>
      <trkpt lat="47.7441" lon="-1.8534">
        <ele>41.8</ele>
      </trkpt>
      <trkpt lat="47.74412" lon="-1.8534">
        <ele>42.1</ele>
      </trkpt>
      <trkpt lat="47.74413" lon="-1.85339">
        <ele>42.4</ele>
      </trkpt>
      <trkpt lat="47.74415" lon="-1.85338">
        <ele>42.6</ele>
      </trkpt>
      <trkpt lat="47.74417" lon="-1.85337">
        <ele>43</ele>
      </trkpt>
      <trkpt lat="47.74418" lon="-1.85336">
        <ele>43.2</ele>
      </trkpt>
      <trkpt lat="47.7442" lon="-1.85334">
        <ele>43.6</ele>
      </trkpt>
      <trkpt lat="47.74422" lon="-1.85334">
        <ele>43.8</ele>
      </trkpt>
      <trkpt lat="47.74423" lon="-1.85332">
        <ele>44</ele>
      </trkpt>
      <trkpt lat="47.74424" lon="-1.8533">
        <ele>44.2</ele>
      </trkpt>
      <trkpt lat="47.74427" lon="-1.85329">
        <ele>44.5</ele>
      </trkpt>
      <trkpt lat="47.74428" lon="-1.85328">
        <ele>44.7</ele>
      </trkpt>
      <trkpt lat="47.7443" lon="-1.85326">
        <ele>45</ele>
      </trkpt>
      <trkpt lat="47.74431" lon="-1.85324">
        <ele>45.3</ele>
      </trkpt>
      <trkpt lat="47.74433" lon="-1.85323">
        <ele>45.5</ele>
      </trkpt>
      <trkpt lat="47.74434" lon="-1.85321">
        <ele>45.7</ele>
      </trkpt>
      <trkpt lat="47.74436" lon="-1.8532">
        <ele>45.9</ele>
      </trkpt>
      <trkpt lat="47.74438" lon="-1.85318">
        <ele>46.2</ele>
      </trkpt>
      <trkpt lat="47.74439" lon="-1.85317">
        <ele>46.5</ele>
      </trkpt>
      <trkpt lat="47.74441" lon="-1.85315">
        <ele>46.8</ele>
      </trkpt>
      <trkpt lat="47.74443" lon="-1.85313">
        <ele>47</ele>
      </trkpt>
      <trkpt lat="47.74444" lon="-1.85312">
        <ele>47.3</ele>
      </trkpt>
      <trkpt lat="47.74447" lon="-1.8531">
        <ele>47.6</ele>
      </trkpt>
      <trkpt lat="47.74448" lon="-1.85309">
        <ele>47.9</ele>
      </trkpt>
      <trkpt lat="47.7445" lon="-1.85307">
        <ele>48.1</ele>
      </trkpt>
      <trkpt lat="47.74452" lon="-1.85305">
        <ele>48.4</ele>
      </trkpt>
      <trkpt lat="47.74454" lon="-1.85304">
        <ele>48.6</ele>
      </trkpt>
      <trkpt lat="47.74456" lon="-1.85302">
        <ele>48.9</ele>
      </trkpt>
      <trkpt lat="47.74457" lon="-1.853">
        <ele>49.1</ele>
      </trkpt>
      <trkpt lat="47.74459" lon="-1.85299">
        <ele>49.4</ele>
      </trkpt>
      <trkpt lat="47.7446" lon="-1.85297">
        <ele>49.6</ele>
      </trkpt>
      <trkpt lat="47.74462" lon="-1.85295">
        <ele>49.9</ele>
      </trkpt>
      <trkpt lat="47.74464" lon="-1.85294">
        <ele>50.1</ele>
      </trkpt>
      <trkpt lat="47.74466" lon="-1.85292">
        <ele>50.3</ele>
      </trkpt>
      <trkpt lat="47.74468" lon="-1.8529">
        <ele>50.6</ele>
      </trkpt>
      <trkpt lat="47.74469" lon="-1.85289">
        <ele>50.8</ele>
      </trkpt>
      <trkpt lat="47.74471" lon="-1.85287">
        <ele>51.1</ele>
      </trkpt>
      <trkpt lat="47.74473" lon="-1.85286">
        <ele>51.3</ele>
      </trkpt>
      <trkpt lat="47.74474" lon="-1.85284">
        <ele>51.6</ele>
      </trkpt>
      <trkpt lat="47.74476" lon="-1.85283">
        <ele>51.8</ele>
      </trkpt>
      <trkpt lat="47.74478" lon="-1.85281">
        <ele>52.1</ele>
      </trkpt>
      <trkpt lat="47.74479" lon="-1.85279">
        <ele>52.3</ele>
      </trkpt>
      <trkpt lat="47.74481" lon="-1.85278">
        <ele>52.6</ele>
      </trkpt>
      <trkpt lat="47.74483" lon="-1.85276">
        <ele>52.8</ele>
      </trkpt>
      <trkpt lat="47.74484" lon="-1.85275">
        <ele>53</ele>
      </trkpt>
      <trkpt lat="47.74486" lon="-1.85273">
        <ele>53.3</ele>
      </trkpt>
      <trkpt lat="47.74488" lon="-1.85272">
        <ele>53.5</ele>
      </trkpt>
      <trkpt lat="47.7449" lon="-1.85269">
        <ele>53.8</ele>
      </trkpt>
      <trkpt lat="47.74492" lon="-1.85268">
        <ele>54</ele>
      </trkpt>
      <trkpt lat="47.74493" lon="-1.85266">
        <ele>54.2</ele>
      </trkpt>
      <trkpt lat="47.74495" lon="-1.85265">
        <ele>54.4</ele>
      </trkpt>
      <trkpt lat="47.74497" lon="-1.85263">
        <ele>54.7</ele>
      </trkpt>
      <trkpt lat="47.74498" lon="-1.85262">
        <ele>54.9</ele>
      </trkpt>
      <trkpt lat="47.745" lon="-1.8526">
        <ele>55.1</ele>
      </trkpt>
      <trkpt lat="47.74502" lon="-1.85258">
        <ele>55.3</ele>
      </trkpt>
      <trkpt lat="47.74503" lon="-1.85257">
        <ele>55.5</ele>
      </trkpt>
      <trkpt lat="47.74505" lon="-1.85255">
        <ele>55.7</ele>
      </trkpt>
      <trkpt lat="47.74507" lon="-1.85253">
        <ele>55.9</ele>
      </trkpt>
      <trkpt lat="47.74509" lon="-1.85252">
        <ele>56.1</ele>
      </trkpt>
      <trkpt lat="47.74511" lon="-1.8525">
        <ele>56.3</ele>
      </trkpt>
      <trkpt lat="47.74512" lon="-1.85248">
        <ele>56.5</ele>
      </trkpt>
      <trkpt lat="47.74514" lon="-1.85247">
        <ele>56.7</ele>
      </trkpt>
      <trkpt lat="47.74516" lon="-1.85245">
        <ele>57</ele>
      </trkpt>
      <trkpt lat="47.74518" lon="-1.85243">
        <ele>57.3</ele>
      </trkpt>
      <trkpt lat="47.7452" lon="-1.85241">
        <ele>57.5</ele>
      </trkpt>
      <trkpt lat="47.74522" lon="-1.85239">
        <ele>57.7</ele>
      </trkpt>
      <trkpt lat="47.74524" lon="-1.85237">
        <ele>58</ele>
      </trkpt>
      <trkpt lat="47.74526" lon="-1.85236">
        <ele>58.2</ele>
      </trkpt>
      <trkpt lat="47.74528" lon="-1.85235">
        <ele>58.5</ele>
      </trkpt>
      <trkpt lat="47.7453" lon="-1.85233">
        <ele>58.8</ele>
      </trkpt>
      <trkpt lat="47.74532" lon="-1.85231">
        <ele>59.1</ele>
      </trkpt>
      <trkpt lat="47.74533" lon="-1.8523">
        <ele>59.3</ele>
      </trkpt>
      <trkpt lat="47.74536" lon="-1.85229">
        <ele>59.5</ele>
      </trkpt>
      <trkpt lat="47.74538" lon="-1.85229">
        <ele>59.8</ele>
      </trkpt>
      <trkpt lat="47.7454" lon="-1.8523">
        <ele>60</ele>
      </trkpt>
      <trkpt lat="47.74542" lon="-1.85231">
        <ele>60.3</ele>
      </trkpt>
      <trkpt lat="47.74544" lon="-1.85231">
        <ele>60.5</ele>
      </trkpt>
      <trkpt lat="47.74546" lon="-1.85233">
        <ele>60.7</ele>
      </trkpt>
      <trkpt lat="47.74547" lon="-1.85235">
        <ele>60.8</ele>
      </trkpt>
      <trkpt lat="47.74548" lon="-1.85238">
        <ele>60.9</ele>
      </trkpt>
      <trkpt lat="47.74549" lon="-1.85241">
        <ele>61</ele>
      </trkpt>
      <trkpt lat="47.74551" lon="-1.85243">
        <ele>61.2</ele>
      </trkpt>
      <trkpt lat="47.74552" lon="-1.85245">
        <ele>61.3</ele>
      </trkpt>
      <trkpt lat="47.74554" lon="-1.85247">
        <ele>61.5</ele>
      </trkpt>
      <trkpt lat="47.74556" lon="-1.8525">
        <ele>61.7</ele>
      </trkpt>
      <trkpt lat="47.74558" lon="-1.85253">
        <ele>61.9</ele>
      </trkpt>
      <trkpt lat="47.74559" lon="-1.85257">
        <ele>62.1</ele>
      </trkpt>
      <trkpt lat="47.74561" lon="-1.85261">
        <ele>62.3</ele>
      </trkpt>
      <trkpt lat="47.74563" lon="-1.85264">
        <ele>62.4</ele>
      </trkpt>
      <trkpt lat="47.74564" lon="-1.85268">
        <ele>62.6</ele>
      </trkpt>
      <trkpt lat="47.74566" lon="-1.85272">
        <ele>62.7</ele>
      </trkpt>
      <trkpt lat="47.74567" lon="-1.85275">
        <ele>62.9</ele>
      </trkpt>
      <trkpt lat="47.74569" lon="-1.85279">
        <ele>63.1</ele>
      </trkpt>
      <trkpt lat="47.74571" lon="-1.85283">
        <ele>63.3</ele>
      </trkpt>
      <trkpt lat="47.74573" lon="-1.85287">
        <ele>63.5</ele>
      </trkpt>
      <trkpt lat="47.74576" lon="-1.85291">
        <ele>63.7</ele>
      </trkpt>
      <trkpt lat="47.74578" lon="-1.85295">
        <ele>63.9</ele>
      </trkpt>
      <trkpt lat="47.7458" lon="-1.85299">
        <ele>64</ele>
      </trkpt>
      <trkpt lat="47.74582" lon="-1.85303">
        <ele>64.2</ele>
      </trkpt>
      <trkpt lat="47.74584" lon="-1.85307">
        <ele>64.3</ele>
      </trkpt>
      <trkpt lat="47.74586" lon="-1.85311">
        <ele>64.3</ele>
      </trkpt>
      <trkpt lat="47.74589" lon="-1.85315">
        <ele>64.2</ele>
      </trkpt>
      <trkpt lat="47.74591" lon="-1.8532">
        <ele>64.2</ele>
      </trkpt>
      <trkpt lat="47.74593" lon="-1.85323">
        <ele>64.1</ele>
      </trkpt>
      <trkpt lat="47.74596" lon="-1.85327">
        <ele>64.1</ele>
      </trkpt>
      <trkpt lat="47.74598" lon="-1.85332">
        <ele>64</ele>
      </trkpt>
      <trkpt lat="47.746" lon="-1.85337">
        <ele>63.8</ele>
      </trkpt>
      <trkpt lat="47.74602" lon="-1.85341">
        <ele>63.6</ele>
      </trkpt>
      <trkpt lat="47.74605" lon="-1.85345">
        <ele>63.3</ele>
      </trkpt>
      <trkpt lat="47.74608" lon="-1.8535">
        <ele>63.1</ele>
      </trkpt>
      <trkpt lat="47.7461" lon="-1.85355">
        <ele>62.8</ele>
      </trkpt>
      <trkpt lat="47.74613" lon="-1.8536">
        <ele>62.5</ele>
      </trkpt>
      <trkpt lat="47.74615" lon="-1.85364">
        <ele>62.3</ele>
      </trkpt>
      <trkpt lat="47.74617" lon="-1.85369">
        <ele>62</ele>
      </trkpt>
      <trkpt lat="47.7462" lon="-1.85374">
        <ele>61.8</ele>
      </trkpt>
      <trkpt lat="47.74622" lon="-1.85379">
        <ele>61.5</ele>
      </trkpt>
      <trkpt lat="47.74624" lon="-1.85384">
        <ele>61.3</ele>
      </trkpt>
      <trkpt lat="47.74627" lon="-1.85389">
        <ele>61</ele>
      </trkpt>
      <trkpt lat="47.74629" lon="-1.85393">
        <ele>60.8</ele>
      </trkpt>
      <trkpt lat="47.74631" lon="-1.85397">
        <ele>60.6</ele>
      </trkpt>
      <trkpt lat="47.74634" lon="-1.85403">
        <ele>60.4</ele>
      </trkpt>
      <trkpt lat="47.74637" lon="-1.85408">
        <ele>60.1</ele>
      </trkpt>
      <trkpt lat="47.74641" lon="-1.85414">
        <ele>59.8</ele>
      </trkpt>
      <trkpt lat="47.74644" lon="-1.85419">
        <ele>59.6</ele>
      </trkpt>
      <trkpt lat="47.74647" lon="-1.85425">
        <ele>59.4</ele>
      </trkpt>
      <trkpt lat="47.74652" lon="-1.85433">
        <ele>59.2</ele>
      </trkpt>
      <trkpt lat="47.74655" lon="-1.85439">
        <ele>59</ele>
      </trkpt>
      <trkpt lat="47.74659" lon="-1.85445">
        <ele>58.8</ele>
      </trkpt>
      <trkpt lat="47.74664" lon="-1.85452">
        <ele>58.7</ele>
      </trkpt>
      <trkpt lat="47.7467" lon="-1.85457">
        <ele>58.5</ele>
      </trkpt>
      <trkpt lat="47.74676" lon="-1.85461">
        <ele>58.3</ele>
      </trkpt>
      <trkpt lat="47.74683" lon="-1.85465">
        <ele>58.2</ele>
      </trkpt>
      <trkpt lat="47.7469" lon="-1.85467">
        <ele>58</ele>
      </trkpt>
      <trkpt lat="47.74697" lon="-1.85468">
        <ele>57.9</ele>
      </trkpt>
      <trkpt lat="47.74704" lon="-1.8547">
        <ele>57.8</ele>
      </trkpt>
      <trkpt lat="47.74711" lon="-1.85471">
        <ele>57.7</ele>
      </trkpt>
      <trkpt lat="47.74718" lon="-1.85472">
        <ele>57.6</ele>
      </trkpt>
      <trkpt lat="47.74724" lon="-1.85472">
        <ele>57.5</ele>
      </trkpt>
      <trkpt lat="47.74731" lon="-1.85473">
        <ele>57.4</ele>
      </trkpt>
      <trkpt lat="47.74738" lon="-1.85474">
        <ele>57.3</ele>
      </trkpt>
      <trkpt lat="47.74743" lon="-1.85475">
        <ele>57.3</ele>
      </trkpt>
      <trkpt lat="47.74749" lon="-1.85477">
        <ele>57.1</ele>
      </trkpt>
      <trkpt lat="47.74754" lon="-1.85479">
        <ele>57.4</ele>
      </trkpt>
      <trkpt lat="47.7476" lon="-1.85481">
        <ele>57.7</ele>
      </trkpt>
      <trkpt lat="47.74765" lon="-1.85483">
        <ele>58.1</ele>
      </trkpt>
      <trkpt lat="47.7477" lon="-1.85486">
        <ele>58.4</ele>
      </trkpt>
      <trkpt lat="47.74776" lon="-1.85488">
        <ele>58.8</ele>
      </trkpt>
      <trkpt lat="47.74781" lon="-1.85491">
        <ele>59.2</ele>
      </trkpt>
      <trkpt lat="47.74785" lon="-1.85494">
        <ele>59.5</ele>
      </trkpt>
      <trkpt lat="47.7479" lon="-1.85496">
        <ele>59.9</ele>
      </trkpt>
      <trkpt lat="47.74795" lon="-1.85499">
        <ele>60.3</ele>
      </trkpt>
      <trkpt lat="47.74799" lon="-1.85502">
        <ele>60.6</ele>
      </trkpt>
      <trkpt lat="47.74803" lon="-1.85506">
        <ele>60.9</ele>
      </trkpt>
      <trkpt lat="47.74808" lon="-1.85509">
        <ele>61.2</ele>
      </trkpt>
      <trkpt lat="47.74811" lon="-1.85512">
        <ele>61.4</ele>
      </trkpt>
      <trkpt lat="47.74815" lon="-1.85516">
        <ele>61.7</ele>
      </trkpt>
      <trkpt lat="47.74819" lon="-1.8552">
        <ele>61.9</ele>
      </trkpt>
      <trkpt lat="47.74823" lon="-1.85524">
        <ele>62.1</ele>
      </trkpt>
      <trkpt lat="47.74826" lon="-1.85528">
        <ele>62.3</ele>
      </trkpt>
      <trkpt lat="47.7483" lon="-1.85532">
        <ele>62.5</ele>
      </trkpt>
      <trkpt lat="47.74833" lon="-1.85536">
        <ele>62.7</ele>
      </trkpt>
      <trkpt lat="47.74837" lon="-1.85542">
        <ele>63</ele>
      </trkpt>
      <trkpt lat="47.7484" lon="-1.85545">
        <ele>63.2</ele>
      </trkpt>
      <trkpt lat="47.74843" lon="-1.8555">
        <ele>63.5</ele>
      </trkpt>
      <trkpt lat="47.74845" lon="-1.85555">
        <ele>63.7</ele>
      </trkpt>
      <trkpt lat="47.74848" lon="-1.85559">
        <ele>64</ele>
      </trkpt>
      <trkpt lat="47.74851" lon="-1.85564">
        <ele>64.2</ele>
      </trkpt>
      <trkpt lat="47.74853" lon="-1.85568">
        <ele>64.5</ele>
      </trkpt>
      <trkpt lat="47.74856" lon="-1.85572">
        <ele>64.8</ele>
      </trkpt>
      <trkpt lat="47.74858" lon="-1.85576">
        <ele>65.1</ele>
      </trkpt>
      <trkpt lat="47.74861" lon="-1.8558">
        <ele>65.4</ele>
      </trkpt>
      <trkpt lat="47.74864" lon="-1.85582">
        <ele>65.9</ele>
      </trkpt>
      <trkpt lat="47.74868" lon="-1.85582">
        <ele>66.4</ele>
      </trkpt>
      <trkpt lat="47.74871" lon="-1.85582">
        <ele>66.9</ele>
      </trkpt>
      <trkpt lat="47.74873" lon="-1.85581">
        <ele>67.3</ele>
      </trkpt>
      <trkpt lat="47.74876" lon="-1.85579">
        <ele>67.7</ele>
      </trkpt>
      <trkpt lat="47.74879" lon="-1.85576">
        <ele>68.2</ele>
      </trkpt>
      <trkpt lat="47.74881" lon="-1.85573">
        <ele>68.5</ele>
      </trkpt>
      <trkpt lat="47.74883" lon="-1.8557">
        <ele>68.8</ele>
      </trkpt>
      <trkpt lat="47.74884" lon="-1.85566">
        <ele>69.1</ele>
      </trkpt>
      <trkpt lat="47.74887" lon="-1.85563">
        <ele>69.4</ele>
      </trkpt>
      <trkpt lat="47.74889" lon="-1.85559">
        <ele>69.8</ele>
      </trkpt>
      <trkpt lat="47.74891" lon="-1.85556">
        <ele>70.1</ele>
      </trkpt>
      <trkpt lat="47.74894" lon="-1.85552">
        <ele>70.4</ele>
      </trkpt>
      <trkpt lat="47.74896" lon="-1.85548">
        <ele>70.8</ele>
      </trkpt>
      <trkpt lat="47.74898" lon="-1.85544">
        <ele>71.1</ele>
      </trkpt>
      <trkpt lat="47.74901" lon="-1.85541">
        <ele>71.4</ele>
      </trkpt>
      <trkpt lat="47.74903" lon="-1.85538">
        <ele>71.7</ele>
      </trkpt>
      <trkpt lat="47.74905" lon="-1.85534">
        <ele>71.9</ele>
      </trkpt>
      <trkpt lat="47.74906" lon="-1.85531">
        <ele>72</ele>
      </trkpt>
      <trkpt lat="47.74907" lon="-1.85528">
        <ele>72.2</ele>
      </trkpt>
      <trkpt lat="47.74909" lon="-1.85526">
        <ele>72.4</ele>
      </trkpt>
      <trkpt lat="47.74911" lon="-1.85523">
        <ele>72.6</ele>
      </trkpt>
      <trkpt lat="47.74913" lon="-1.8552">
        <ele>72.8</ele>
      </trkpt>
      <trkpt lat="47.74914" lon="-1.85518">
        <ele>72.9</ele>
      </trkpt>
      <trkpt lat="47.74915" lon="-1.85516">
        <ele>73</ele>
      </trkpt>
      <trkpt lat="47.74915" lon="-1.85514">
        <ele>73</ele>
      </trkpt>
      <trkpt lat="47.74915" lon="-1.85511">
        <ele>73</ele>
      </trkpt>
      <trkpt lat="47.74916" lon="-1.8551">
        <ele>73</ele>
      </trkpt>
      <trkpt lat="47.74916" lon="-1.8551">
        <ele>73</ele>
      </trkpt>
      <trkpt lat="47.74916" lon="-1.85509">
        <ele>73</ele>
      </trkpt>
      <trkpt lat="47.74915" lon="-1.85507">
        <ele>72.9</ele>
      </trkpt>
      <trkpt lat="47.74915" lon="-1.85504">
        <ele>72.9</ele>
      </trkpt>
      <trkpt lat="47.74914" lon="-1.855">
        <ele>72.8</ele>
      </trkpt>
      <trkpt lat="47.74914" lon="-1.85496">
        <ele>72.6</ele>
      </trkpt>
      <trkpt lat="47.74913" lon="-1.85492">
        <ele>72.4</ele>
      </trkpt>
      <trkpt lat="47.74913" lon="-1.85488">
        <ele>72.1</ele>
      </trkpt>
      <trkpt lat="47.74912" lon="-1.85483">
        <ele>71.9</ele>
      </trkpt>
      <trkpt lat="47.74911" lon="-1.85478">
        <ele>71.7</ele>
      </trkpt>
      <trkpt lat="47.74912" lon="-1.85473">
        <ele>71.6</ele>
      </trkpt>
      <trkpt lat="47.74914" lon="-1.85469">
        <ele>71.7</ele>
      </trkpt>
      <trkpt lat="47.74918" lon="-1.85465">
        <ele>71.6</ele>
      </trkpt>
      <trkpt lat="47.74922" lon="-1.85461">
        <ele>71.2</ele>
      </trkpt>
      <trkpt lat="47.74924" lon="-1.85459">
        <ele>71</ele>
      </trkpt>
      <trkpt lat="47.74927" lon="-1.85459">
        <ele>70.8</ele>
      </trkpt>
      <trkpt lat="47.74929" lon="-1.85459">
        <ele>70.6</ele>
      </trkpt>
      <trkpt lat="47.74932" lon="-1.85458">
        <ele>70.4</ele>
      </trkpt>
      <trkpt lat="47.74936" lon="-1.85456">
        <ele>70</ele>
      </trkpt>
      <trkpt lat="47.7494" lon="-1.85455">
        <ele>69.7</ele>
      </trkpt>
      <trkpt lat="47.74945" lon="-1.85451">
        <ele>69.3</ele>
      </trkpt>
      <trkpt lat="47.74948" lon="-1.85447">
        <ele>69</ele>
      </trkpt>
      <trkpt lat="47.7495" lon="-1.85444">
        <ele>68.7</ele>
      </trkpt>
      <trkpt lat="47.74953" lon="-1.8544">
        <ele>68.4</ele>
      </trkpt>
      <trkpt lat="47.74957" lon="-1.85435">
        <ele>68</ele>
      </trkpt>
      <trkpt lat="47.74961" lon="-1.85431">
        <ele>67.7</ele>
      </trkpt>
      <trkpt lat="47.74964" lon="-1.85428">
        <ele>67.4</ele>
      </trkpt>
      <trkpt lat="47.74967" lon="-1.85426">
        <ele>67.2</ele>
      </trkpt>
      <trkpt lat="47.7497" lon="-1.85425">
        <ele>67</ele>
      </trkpt>
      <trkpt lat="47.74972" lon="-1.85424">
        <ele>66.8</ele>
      </trkpt>
      <trkpt lat="47.74975" lon="-1.85422">
        <ele>66.6</ele>
      </trkpt>
      <trkpt lat="47.74978" lon="-1.85423">
        <ele>66.4</ele>
      </trkpt>
      <trkpt lat="47.74981" lon="-1.85425">
        <ele>66.3</ele>
      </trkpt>
      <trkpt lat="47.74983" lon="-1.85428">
        <ele>66.2</ele>
      </trkpt>
      <trkpt lat="47.74987" lon="-1.85432">
        <ele>66</ele>
      </trkpt>
      <trkpt lat="47.7499" lon="-1.85434">
        <ele>65.9</ele>
      </trkpt>
      <trkpt lat="47.74992" lon="-1.85436">
        <ele>65.8</ele>
      </trkpt>
      <trkpt lat="47.74995" lon="-1.85436">
        <ele>65.6</ele>
      </trkpt>
      <trkpt lat="47.74998" lon="-1.85435">
        <ele>65.4</ele>
      </trkpt>
      <trkpt lat="47.75002" lon="-1.85432">
        <ele>65</ele>
      </trkpt>
      <trkpt lat="47.75006" lon="-1.85429">
        <ele>64.6</ele>
      </trkpt>
      <trkpt lat="47.75009" lon="-1.85425">
        <ele>64.2</ele>
      </trkpt>
      <trkpt lat="47.75009" lon="-1.85422">
        <ele>64.2</ele>
      </trkpt>
      <trkpt lat="47.75007" lon="-1.85418">
        <ele>64.3</ele>
      </trkpt>
      <trkpt lat="47.75006" lon="-1.85414">
        <ele>64.3</ele>
      </trkpt>
      <trkpt lat="47.75006" lon="-1.8541">
        <ele>64</ele>
      </trkpt>
      <trkpt lat="47.75007" lon="-1.85407">
        <ele>63.8</ele>
      </trkpt>
      <trkpt lat="47.75007" lon="-1.85403">
        <ele>63.6</ele>
      </trkpt>
      <trkpt lat="47.75007" lon="-1.85399">
        <ele>63.3</ele>
      </trkpt>
      <trkpt lat="47.75006" lon="-1.85394">
        <ele>63.1</ele>
      </trkpt>
      <trkpt lat="47.75005" lon="-1.85391">
        <ele>63.1</ele>
      </trkpt>
      <trkpt lat="47.75003" lon="-1.8539">
        <ele>63.1</ele>
      </trkpt>
      <trkpt lat="47.75001" lon="-1.85388">
        <ele>63.2</ele>
      </trkpt>
      <trkpt lat="47.75" lon="-1.85383">
        <ele>63</ele>
      </trkpt>
      <trkpt lat="47.75001" lon="-1.85375">
        <ele>62.4</ele>
      </trkpt>
      <trkpt lat="47.75002" lon="-1.85369">
        <ele>61.9</ele>
      </trkpt>
      <trkpt lat="47.75004" lon="-1.85364">
        <ele>61.6</ele>
      </trkpt>
      <trkpt lat="47.75002" lon="-1.85356">
        <ele>61.2</ele>
      </trkpt>
      <trkpt lat="47.75" lon="-1.85351">
        <ele>61</ele>
      </trkpt>
      <trkpt lat="47.74999" lon="-1.85347">
        <ele>60.9</ele>
      </trkpt>
      <trkpt lat="47.74999" lon="-1.85345">
        <ele>60.8</ele>
      </trkpt>
      <trkpt lat="47.74999" lon="-1.85344">
        <ele>60.7</ele>
      </trkpt>
      <trkpt lat="47.74999" lon="-1.85344">
        <ele>60.7</ele>
      </trkpt>
      <trkpt lat="47.74999" lon="-1.85344">
        <ele>60.7</ele>
      </trkpt>
      <trkpt lat="47.74999" lon="-1.85344">
        <ele>60.7</ele>
      </trkpt>
      <trkpt lat="47.74999" lon="-1.85344">
        <ele>60.7</ele>
      </trkpt>
      <trkpt lat="47.74999" lon="-1.85344">
        <ele>60.7</ele>
      </trkpt>
      <trkpt lat="47.74999" lon="-1.85343">
        <ele>60.6</ele>
      </trkpt>
      <trkpt lat="47.74999" lon="-1.85341">
        <ele>60.5</ele>
      </trkpt>
      <trkpt lat="47.74999" lon="-1.85338">
        <ele>60.3</ele>
      </trkpt>
      <trkpt lat="47.75" lon="-1.85335">
        <ele>60.1</ele>
      </trkpt>
      <trkpt lat="47.75002" lon="-1.85333">
        <ele>59.9</ele>
      </trkpt>
      <trkpt lat="47.75003" lon="-1.85332">
        <ele>59.7</ele>
      </trkpt>
      <trkpt lat="47.75005" lon="-1.8533">
        <ele>59.5</ele>
      </trkpt>
      <trkpt lat="47.75007" lon="-1.85326">
        <ele>59.2</ele>
      </trkpt>
      <trkpt lat="47.75008" lon="-1.85319">
        <ele>58.9</ele>
      </trkpt>
      <trkpt lat="47.75007" lon="-1.85313">
        <ele>58.6</ele>
      </trkpt>
      <trkpt lat="47.75005" lon="-1.85308">
        <ele>58.5</ele>
      </trkpt>
      <trkpt lat="47.75006" lon="-1.85301">
        <ele>58.1</ele>
      </trkpt>
      <trkpt lat="47.75006" lon="-1.85295">
        <ele>57.8</ele>
      </trkpt>
      <trkpt lat="47.75006" lon="-1.8529">
        <ele>57.6</ele>
      </trkpt>
      <trkpt lat="47.75006" lon="-1.85284">
        <ele>57.3</ele>
      </trkpt>
      <trkpt lat="47.75007" lon="-1.85278">
        <ele>57</ele>
      </trkpt>
      <trkpt lat="47.75007" lon="-1.85272">
        <ele>56.7</ele>
      </trkpt>
      <trkpt lat="47.75007" lon="-1.85265">
        <ele>56.4</ele>
      </trkpt>
      <trkpt lat="47.75006" lon="-1.8526">
        <ele>56.2</ele>
      </trkpt>
      <trkpt lat="47.75007" lon="-1.85255">
        <ele>55.9</ele>
      </trkpt>
      <trkpt lat="47.75008" lon="-1.85251">
        <ele>55.7</ele>
      </trkpt>
      <trkpt lat="47.7501" lon="-1.85249">
        <ele>55.5</ele>
      </trkpt>
      <trkpt lat="47.7501" lon="-1.85246">
        <ele>55.4</ele>
      </trkpt>
      <trkpt lat="47.75011" lon="-1.85241">
        <ele>55.3</ele>
      </trkpt>
      <trkpt lat="47.75011" lon="-1.85238">
        <ele>55.2</ele>
      </trkpt>
      <trkpt lat="47.75014" lon="-1.85234">
        <ele>55</ele>
      </trkpt>
      <trkpt lat="47.75015" lon="-1.85227">
        <ele>54.8</ele>
      </trkpt>
      <trkpt lat="47.75016" lon="-1.85219">
        <ele>54.6</ele>
      </trkpt>
      <trkpt lat="47.75016" lon="-1.8521">
        <ele>54.4</ele>
      </trkpt>
      <trkpt lat="47.75017" lon="-1.85203">
        <ele>54.2</ele>
      </trkpt>
      <trkpt lat="47.75018" lon="-1.85196">
        <ele>54</ele>
      </trkpt>
      <trkpt lat="47.75019" lon="-1.85192">
        <ele>53.8</ele>
      </trkpt>
      <trkpt lat="47.75019" lon="-1.85187">
        <ele>53.8</ele>
      </trkpt>
      <trkpt lat="47.7502" lon="-1.85183">
        <ele>53.6</ele>
      </trkpt>
      <trkpt lat="47.75021" lon="-1.85179">
        <ele>53.5</ele>
      </trkpt>
      <trkpt lat="47.75022" lon="-1.85174">
        <ele>53.4</ele>
      </trkpt>
      <trkpt lat="47.75023" lon="-1.85169">
        <ele>53.2</ele>
      </trkpt>
      <trkpt lat="47.75023" lon="-1.85162">
        <ele>53</ele>
      </trkpt>
      <trkpt lat="47.75024" lon="-1.85155">
        <ele>52.6</ele>
      </trkpt>
      <trkpt lat="47.75024" lon="-1.85148">
        <ele>52.3</ele>
      </trkpt>
      <trkpt lat="47.75024" lon="-1.85142">
        <ele>52</ele>
      </trkpt>
      <trkpt lat="47.75026" lon="-1.85137">
        <ele>51.7</ele>
      </trkpt>
      <trkpt lat="47.75029" lon="-1.85132">
        <ele>51.5</ele>
      </trkpt>
      <trkpt lat="47.75032" lon="-1.85126">
        <ele>51.2</ele>
      </trkpt>
      <trkpt lat="47.75034" lon="-1.85118">
        <ele>50.8</ele>
      </trkpt>
      <trkpt lat="47.75036" lon="-1.85109">
        <ele>50.4</ele>
      </trkpt>
      <trkpt lat="47.75037" lon="-1.85101">
        <ele>50.1</ele>
      </trkpt>
      <trkpt lat="47.75038" lon="-1.85094">
        <ele>49.9</ele>
      </trkpt>
      <trkpt lat="47.75039" lon="-1.85086">
        <ele>49.6</ele>
      </trkpt>
      <trkpt lat="47.75039" lon="-1.85079">
        <ele>49.4</ele>
      </trkpt>
      <trkpt lat="47.75037" lon="-1.8507">
        <ele>49.2</ele>
      </trkpt>
      <trkpt lat="47.75036" lon="-1.85063">
        <ele>49</ele>
      </trkpt>
      <trkpt lat="47.75036" lon="-1.85057">
        <ele>48.8</ele>
      </trkpt>
      <trkpt lat="47.75035" lon="-1.85052">
        <ele>48.7</ele>
      </trkpt>
      <trkpt lat="47.75034" lon="-1.85046">
        <ele>48.5</ele>
      </trkpt>
      <trkpt lat="47.75033" lon="-1.85041">
        <ele>48.3</ele>
      </trkpt>
      <trkpt lat="47.75031" lon="-1.85036">
        <ele>48.1</ele>
      </trkpt>
      <trkpt lat="47.75028" lon="-1.85032">
        <ele>47.9</ele>
      </trkpt>
      <trkpt lat="47.75025" lon="-1.85029">
        <ele>47.7</ele>
      </trkpt>
      <trkpt lat="47.75023" lon="-1.85026">
        <ele>47.5</ele>
      </trkpt>
      <trkpt lat="47.7502" lon="-1.85023">
        <ele>47.2</ele>
      </trkpt>
      <trkpt lat="47.75017" lon="-1.85019">
        <ele>46.9</ele>
      </trkpt>
      <trkpt lat="47.75015" lon="-1.85015">
        <ele>46.6</ele>
      </trkpt>
      <trkpt lat="47.75013" lon="-1.8501">
        <ele>46.3</ele>
      </trkpt>
      <trkpt lat="47.75013" lon="-1.85006">
        <ele>46.2</ele>
      </trkpt>
      <trkpt lat="47.75014" lon="-1.85002">
        <ele>46.1</ele>
      </trkpt>
      <trkpt lat="47.75015" lon="-1.84997">
        <ele>46</ele>
      </trkpt>
      <trkpt lat="47.75015" lon="-1.84992">
        <ele>45.9</ele>
      </trkpt>
      <trkpt lat="47.75014" lon="-1.84989">
        <ele>45.7</ele>
      </trkpt>
      <trkpt lat="47.75013" lon="-1.84985">
        <ele>45.6</ele>
      </trkpt>
      <trkpt lat="47.75013" lon="-1.84982">
        <ele>45.4</ele>
      </trkpt>
      <trkpt lat="47.75012" lon="-1.84978">
        <ele>45.3</ele>
      </trkpt>
      <trkpt lat="47.75012" lon="-1.84974">
        <ele>45.2</ele>
      </trkpt>
      <trkpt lat="47.75011" lon="-1.84969">
        <ele>45</ele>
      </trkpt>
      <trkpt lat="47.75011" lon="-1.84966">
        <ele>44.9</ele>
      </trkpt>
      <trkpt lat="47.75011" lon="-1.84966">
        <ele>44.9</ele>
      </trkpt>
      <trkpt lat="47.75011" lon="-1.84966">
        <ele>44.9</ele>
      </trkpt>
      <trkpt lat="47.75011" lon="-1.84966">
        <ele>44.9</ele>
      </trkpt>
      <trkpt lat="47.75011" lon="-1.84966">
        <ele>44.9</ele>
      </trkpt>
      <trkpt lat="47.7501" lon="-1.84965">
        <ele>44.8</ele>
      </trkpt>
      <trkpt lat="47.75008" lon="-1.84963">
        <ele>44.7</ele>
      </trkpt>
      <trkpt lat="47.75007" lon="-1.84961">
        <ele>44.5</ele>
      </trkpt>
      <trkpt lat="47.75005" lon="-1.84959">
        <ele>44.4</ele>
      </trkpt>
      <trkpt lat="47.75004" lon="-1.84955">
        <ele>44.2</ele>
      </trkpt>
      <trkpt lat="47.75002" lon="-1.84952">
        <ele>44</ele>
      </trkpt>
      <trkpt lat="47.75" lon="-1.8495">
        <ele>43.8</ele>
      </trkpt>
      <trkpt lat="47.75" lon="-1.84946">
        <ele>43.7</ele>
      </trkpt>
      <trkpt lat="47.75" lon="-1.84944">
        <ele>43.7</ele>
      </trkpt>
      <trkpt lat="47.74999" lon="-1.84941">
        <ele>43.7</ele>
      </trkpt>
      <trkpt lat="47.74998" lon="-1.84938">
        <ele>43.7</ele>
      </trkpt>
      <trkpt lat="47.74998" lon="-1.84935">
        <ele>43.6</ele>
      </trkpt>
      <trkpt lat="47.74998" lon="-1.84932">
        <ele>43.6</ele>
      </trkpt>
      <trkpt lat="47.74998" lon="-1.8493">
        <ele>43.5</ele>
      </trkpt>
      <trkpt lat="47.74996" lon="-1.84928">
        <ele>43.6</ele>
      </trkpt>
      <trkpt lat="47.74996" lon="-1.84925">
        <ele>43.6</ele>
      </trkpt>
      <trkpt lat="47.74995" lon="-1.8492">
        <ele>43.5</ele>
      </trkpt>
      <trkpt lat="47.74995" lon="-1.84918">
        <ele>43.5</ele>
      </trkpt>
      <trkpt lat="47.74993" lon="-1.84914">
        <ele>43.5</ele>
      </trkpt>
      <trkpt lat="47.74992" lon="-1.84909">
        <ele>43.5</ele>
      </trkpt>
      <trkpt lat="47.74991" lon="-1.84903">
        <ele>43.5</ele>
      </trkpt>
      <trkpt lat="47.74989" lon="-1.84896">
        <ele>43.5</ele>
      </trkpt>
      <trkpt lat="47.74988" lon="-1.84891">
        <ele>43.5</ele>
      </trkpt>
      <trkpt lat="47.74987" lon="-1.84887">
        <ele>43.5</ele>
      </trkpt>
      <trkpt lat="47.74985" lon="-1.84881">
        <ele>43.5</ele>
      </trkpt>
      <trkpt lat="47.74985" lon="-1.84878">
        <ele>43.5</ele>
      </trkpt>
      <trkpt lat="47.74983" lon="-1.84874">
        <ele>43.5</ele>
      </trkpt>
      <trkpt lat="47.74982" lon="-1.84869">
        <ele>43.4</ele>
      </trkpt>
      <trkpt lat="47.74981" lon="-1.84864">
        <ele>43.4</ele>
      </trkpt>
      <trkpt lat="47.74979" lon="-1.84857">
        <ele>43.3</ele>
      </trkpt>
      <trkpt lat="47.74978" lon="-1.84852">
        <ele>43.3</ele>
      </trkpt>
      <trkpt lat="47.74978" lon="-1.84848">
        <ele>43.2</ele>
      </trkpt>
      <trkpt lat="47.74976" lon="-1.84843">
        <ele>43.1</ele>
      </trkpt>
      <trkpt lat="47.74974" lon="-1.84839">
        <ele>43.1</ele>
      </trkpt>
      <trkpt lat="47.74973" lon="-1.84834">
        <ele>43</ele>
      </trkpt>
      <trkpt lat="47.74973" lon="-1.84831">
        <ele>42.9</ele>
      </trkpt>
      <trkpt lat="47.74973" lon="-1.84828">
        <ele>42.7</ele>
      </trkpt>
      <trkpt lat="47.74972" lon="-1.84823">
        <ele>42.5</ele>
      </trkpt>
      <trkpt lat="47.74971" lon="-1.84819">
        <ele>42.3</ele>
      </trkpt>
      <trkpt lat="47.74969" lon="-1.84815">
        <ele>42.1</ele>
      </trkpt>
      <trkpt lat="47.74969" lon="-1.8481">
        <ele>41.9</ele>
      </trkpt>
      <trkpt lat="47.74968" lon="-1.84805">
        <ele>41.6</ele>
      </trkpt>
      <trkpt lat="47.74967" lon="-1.84801">
        <ele>41.5</ele>
      </trkpt>
      <trkpt lat="47.74966" lon="-1.84797">
        <ele>41.3</ele>
      </trkpt>
      <trkpt lat="47.74964" lon="-1.84792">
        <ele>41.1</ele>
      </trkpt>
      <trkpt lat="47.74963" lon="-1.84789">
        <ele>41</ele>
      </trkpt>
      <trkpt lat="47.74962" lon="-1.84784">
        <ele>40.7</ele>
      </trkpt>
      <trkpt lat="47.74961" lon="-1.8478">
        <ele>40.6</ele>
      </trkpt>
      <trkpt lat="47.74959" lon="-1.84777">
        <ele>40.4</ele>
      </trkpt>
      <trkpt lat="47.74959" lon="-1.84775">
        <ele>40.4</ele>
      </trkpt>
      <trkpt lat="47.74958" lon="-1.8477">
        <ele>40.1</ele>
      </trkpt>
      <trkpt lat="47.74957" lon="-1.84765">
        <ele>39.8</ele>
      </trkpt>
      <trkpt lat="47.74958" lon="-1.84758">
        <ele>39.5</ele>
      </trkpt>
      <trkpt lat="47.74958" lon="-1.84753">
        <ele>39.2</ele>
      </trkpt>
      <trkpt lat="47.74958" lon="-1.84749">
        <ele>39</ele>
      </trkpt>
      <trkpt lat="47.74958" lon="-1.84745">
        <ele>38.9</ele>
      </trkpt>
      <trkpt lat="47.74956" lon="-1.8474">
        <ele>38.7</ele>
      </trkpt>
      <trkpt lat="47.74956" lon="-1.84734">
        <ele>38.6</ele>
      </trkpt>
      <trkpt lat="47.74956" lon="-1.8473">
        <ele>38.4</ele>
      </trkpt>
      <trkpt lat="47.74956" lon="-1.84725">
        <ele>38.3</ele>
      </trkpt>
      <trkpt lat="47.74955" lon="-1.84723">
        <ele>38.2</ele>
      </trkpt>
      <trkpt lat="47.74955" lon="-1.84721">
        <ele>38.1</ele>
      </trkpt>
      <trkpt lat="47.74955" lon="-1.84717">
        <ele>38</ele>
      </trkpt>
      <trkpt lat="47.74956" lon="-1.84713">
        <ele>37.9</ele>
      </trkpt>
      <trkpt lat="47.74957" lon="-1.84709">
        <ele>37.8</ele>
      </trkpt>
      <trkpt lat="47.74956" lon="-1.84703">
        <ele>37.6</ele>
      </trkpt>
      <trkpt lat="47.74954" lon="-1.84698">
        <ele>37.4</ele>
      </trkpt>
      <trkpt lat="47.74953" lon="-1.84694">
        <ele>37.2</ele>
      </trkpt>
      <trkpt lat="47.74951" lon="-1.84689">
        <ele>37</ele>
      </trkpt>
      <trkpt lat="47.74949" lon="-1.84684">
        <ele>36.8</ele>
      </trkpt>
      <trkpt lat="47.74947" lon="-1.84682">
        <ele>36.7</ele>
      </trkpt>
      <trkpt lat="47.74946" lon="-1.8468">
        <ele>36.6</ele>
      </trkpt>
      <trkpt lat="47.74945" lon="-1.84679">
        <ele>36.5</ele>
      </trkpt>
      <trkpt lat="47.74944" lon="-1.84675">
        <ele>36.3</ele>
      </trkpt>
      <trkpt lat="47.74943" lon="-1.8467">
        <ele>36.1</ele>
      </trkpt>
      <trkpt lat="47.74942" lon="-1.84668">
        <ele>36</ele>
      </trkpt>
      <trkpt lat="47.74941" lon="-1.84667">
        <ele>35.9</ele>
      </trkpt>
      <trkpt lat="47.7494" lon="-1.84666">
        <ele>35.8</ele>
      </trkpt>
      <trkpt lat="47.74939" lon="-1.84665">
        <ele>35.7</ele>
      </trkpt>
      <trkpt lat="47.74937" lon="-1.84666">
        <ele>35.7</ele>
      </trkpt>
      <trkpt lat="47.74936" lon="-1.84665">
        <ele>35.7</ele>
      </trkpt>
      <trkpt lat="47.74936" lon="-1.84665">
        <ele>35.7</ele>
      </trkpt>
      <trkpt lat="47.74936" lon="-1.84665">
        <ele>35.7</ele>
      </trkpt>
      <trkpt lat="47.74936" lon="-1.84665">
        <ele>35.7</ele>
      </trkpt>
      <trkpt lat="47.74936" lon="-1.84666">
        <ele>35.7</ele>
      </trkpt>
      <trkpt lat="47.74936" lon="-1.84667">
        <ele>35.7</ele>
      </trkpt>
      <trkpt lat="47.74936" lon="-1.84667">
        <ele>35.7</ele>
      </trkpt>
      <trkpt lat="47.74936" lon="-1.84667">
        <ele>35.7</ele>
      </trkpt>
      <trkpt lat="47.74936" lon="-1.84667">
        <ele>35.7</ele>
      </trkpt>
      <trkpt lat="47.74936" lon="-1.84668">
        <ele>35.8</ele>
      </trkpt>
      <trkpt lat="47.74936" lon="-1.84669">
        <ele>35.8</ele>
      </trkpt>
      <trkpt lat="47.74936" lon="-1.8467">
        <ele>35.8</ele>
      </trkpt>
      <trkpt lat="47.74936" lon="-1.8467">
        <ele>35.8</ele>
      </trkpt>
      <trkpt lat="47.74936" lon="-1.8467">
        <ele>35.8</ele>
      </trkpt>
      <trkpt lat="47.74936" lon="-1.8467">
        <ele>35.8</ele>
      </trkpt>
      <trkpt lat="47.74936" lon="-1.8467">
        <ele>35.8</ele>
      </trkpt>
      <trkpt lat="47.74936" lon="-1.8467">
        <ele>35.8</ele>
      </trkpt>
      <trkpt lat="47.74936" lon="-1.8467">
        <ele>35.8</ele>
      </trkpt>
      <trkpt lat="47.74936" lon="-1.8467">
        <ele>35.8</ele>
      </trkpt>
      <trkpt lat="47.74936" lon="-1.8467">
        <ele>35.8</ele>
      </trkpt>
      <trkpt lat="47.74936" lon="-1.8467">
        <ele>35.8</ele>
      </trkpt>
      <trkpt lat="47.74936" lon="-1.8467">
        <ele>35.8</ele>
      </trkpt>
      <trkpt lat="47.74936" lon="-1.84672">
        <ele>35.9</ele>
      </trkpt>
      <trkpt lat="47.74937" lon="-1.84674">
        <ele>36.1</ele>
      </trkpt>
      <trkpt lat="47.74937" lon="-1.84677">
        <ele>36.2</ele>
      </trkpt>
      <trkpt lat="47.74938" lon="-1.84678">
        <ele>36.3</ele>
      </trkpt>
      <trkpt lat="47.74939" lon="-1.8468">
        <ele>36.4</ele>
      </trkpt>
      <trkpt lat="47.74939" lon="-1.84682">
        <ele>36.5</ele>
      </trkpt>
      <trkpt lat="47.7494" lon="-1.84684">
        <ele>36.6</ele>
      </trkpt>
      <trkpt lat="47.7494" lon="-1.84686">
        <ele>36.7</ele>
      </trkpt>
      <trkpt lat="47.74941" lon="-1.84688">
        <ele>36.8</ele>
      </trkpt>
      <trkpt lat="47.74943" lon="-1.84689">
        <ele>36.9</ele>
      </trkpt>
      <trkpt lat="47.74944" lon="-1.84692">
        <ele>37</ele>
      </trkpt>
      <trkpt lat="47.74945" lon="-1.84694">
        <ele>37.1</ele>
      </trkpt>
      <trkpt lat="47.74946" lon="-1.84696">
        <ele>37.2</ele>
      </trkpt>
      <trkpt lat="47.74946" lon="-1.84697">
        <ele>37.2</ele>
      </trkpt>
      <trkpt lat="47.74946" lon="-1.84699">
        <ele>37.3</ele>
      </trkpt>
      <trkpt lat="47.74946" lon="-1.847">
        <ele>37.4</ele>
      </trkpt>
      <trkpt lat="47.74946" lon="-1.84701">
        <ele>37.4</ele>
      </trkpt>
      <trkpt lat="47.74945" lon="-1.84703">
        <ele>37.5</ele>
      </trkpt>
      <trkpt lat="47.74945" lon="-1.84705">
        <ele>37.5</ele>
      </trkpt>
      <trkpt lat="47.74945" lon="-1.84705">
        <ele>37.5</ele>
      </trkpt>
      <trkpt lat="47.74944" lon="-1.84708">
        <ele>37.7</ele>
      </trkpt>
      <trkpt lat="47.74943" lon="-1.8471">
        <ele>37.7</ele>
      </trkpt>
      <trkpt lat="47.74943" lon="-1.84712">
        <ele>37.8</ele>
      </trkpt>
      <trkpt lat="47.74944" lon="-1.84715">
        <ele>37.9</ele>
      </trkpt>
      <trkpt lat="47.74944" lon="-1.84716">
        <ele>38</ele>
      </trkpt>
      <trkpt lat="47.74944" lon="-1.84716">
        <ele>38</ele>
      </trkpt>
      <trkpt lat="47.74944" lon="-1.84716">
        <ele>38</ele>
      </trkpt>
      <trkpt lat="47.74944" lon="-1.84716">
        <ele>38</ele>
      </trkpt>
      <trkpt lat="47.74944" lon="-1.84717">
        <ele>38</ele>
      </trkpt>
      <trkpt lat="47.74943" lon="-1.84719">
        <ele>38.1</ele>
      </trkpt>
      <trkpt lat="47.74943" lon="-1.84722">
        <ele>38.2</ele>
      </trkpt>
      <trkpt lat="47.74944" lon="-1.84725">
        <ele>38.3</ele>
      </trkpt>
      <trkpt lat="47.74945" lon="-1.84729">
        <ele>38.5</ele>
      </trkpt>
      <trkpt lat="47.74945" lon="-1.84733">
        <ele>38.6</ele>
      </trkpt>
      <trkpt lat="47.74945" lon="-1.84735">
        <ele>38.7</ele>
      </trkpt>
      <trkpt lat="47.74946" lon="-1.84738">
        <ele>38.8</ele>
      </trkpt>
      <trkpt lat="47.74947" lon="-1.84741">
        <ele>39</ele>
      </trkpt>
      <trkpt lat="47.74947" lon="-1.84744">
        <ele>39</ele>
      </trkpt>
      <trkpt lat="47.74947" lon="-1.84747">
        <ele>39.1</ele>
      </trkpt>
      <trkpt lat="47.74948" lon="-1.8475">
        <ele>39.3</ele>
      </trkpt>
      <trkpt lat="47.74948" lon="-1.84753">
        <ele>39.4</ele>
      </trkpt>
      <trkpt lat="47.74948" lon="-1.84756">
        <ele>39.6</ele>
      </trkpt>
      <trkpt lat="47.74948" lon="-1.84758">
        <ele>39.7</ele>
      </trkpt>
      <trkpt lat="47.74948" lon="-1.8476">
        <ele>39.8</ele>
      </trkpt>
      <trkpt lat="47.74948" lon="-1.84762">
        <ele>39.9</ele>
      </trkpt>
      <trkpt lat="47.74947" lon="-1.84765">
        <ele>40.1</ele>
      </trkpt>
      <trkpt lat="47.74947" lon="-1.84767">
        <ele>40.2</ele>
      </trkpt>
      <trkpt lat="47.74946" lon="-1.84769">
        <ele>40.3</ele>
      </trkpt>
      <trkpt lat="47.74946" lon="-1.84771">
        <ele>40.4</ele>
      </trkpt>
      <trkpt lat="47.74946" lon="-1.84773">
        <ele>40.6</ele>
      </trkpt>
      <trkpt lat="47.74946" lon="-1.84775">
        <ele>40.7</ele>
      </trkpt>
      <trkpt lat="47.74945" lon="-1.84776">
        <ele>40.8</ele>
      </trkpt>
      <trkpt lat="47.74945" lon="-1.84777">
        <ele>40.8</ele>
      </trkpt>
      <trkpt lat="47.74945" lon="-1.84777">
        <ele>40.8</ele>
      </trkpt>
      <trkpt lat="47.74945" lon="-1.84777">
        <ele>40.8</ele>
      </trkpt>
      <trkpt lat="47.74945" lon="-1.84777">
        <ele>40.8</ele>
      </trkpt>
      <trkpt lat="47.74945" lon="-1.84777">
        <ele>40.8</ele>
      </trkpt>
      <trkpt lat="47.74945" lon="-1.84777">
        <ele>40.8</ele>
      </trkpt>
      <trkpt lat="47.74946" lon="-1.84777">
        <ele>40.8</ele>
      </trkpt>
      <trkpt lat="47.74947" lon="-1.84777">
        <ele>40.8</ele>
      </trkpt>
      <trkpt lat="47.74947" lon="-1.84776">
        <ele>40.7</ele>
      </trkpt>
      <trkpt lat="47.74947" lon="-1.84776">
        <ele>40.7</ele>
      </trkpt>
      <trkpt lat="47.74947" lon="-1.84775">
        <ele>40.7</ele>
      </trkpt>
      <trkpt lat="47.74946" lon="-1.84774">
        <ele>40.6</ele>
      </trkpt>
      <trkpt lat="47.74946" lon="-1.84774">
        <ele>40.6</ele>
      </trkpt>
      <trkpt lat="47.74946" lon="-1.84774">
        <ele>40.6</ele>
      </trkpt>
      <trkpt lat="47.74946" lon="-1.84774">
        <ele>40.6</ele>
      </trkpt>
      <trkpt lat="47.74946" lon="-1.84774">
        <ele>40.6</ele>
      </trkpt>
      <trkpt lat="47.74946" lon="-1.84774">
        <ele>40.6</ele>
      </trkpt>
      <trkpt lat="47.74946" lon="-1.84773">
        <ele>40.5</ele>
      </trkpt>
      <trkpt lat="47.74946" lon="-1.84771">
        <ele>40.4</ele>
      </trkpt>
      <trkpt lat="47.74946" lon="-1.8477">
        <ele>40.4</ele>
      </trkpt>
      <trkpt lat="47.74946" lon="-1.8477">
        <ele>40.4</ele>
      </trkpt>
      <trkpt lat="47.74946" lon="-1.8477">
        <ele>40.4</ele>
      </trkpt>
      <trkpt lat="47.74946" lon="-1.8477">
        <ele>40.4</ele>
      </trkpt>
      <trkpt lat="47.74946" lon="-1.8477">
        <ele>40.4</ele>
      </trkpt>
      <trkpt lat="47.74946" lon="-1.8477">
        <ele>40.4</ele>
      </trkpt>
      <trkpt lat="47.74946" lon="-1.8477">
        <ele>40.4</ele>
      </trkpt>
      <trkpt lat="47.74946" lon="-1.84769">
        <ele>40.4</ele>
      </trkpt>
      <trkpt lat="47.74946" lon="-1.84769">
        <ele>40.4</ele>
      </trkpt>
      <trkpt lat="47.74945" lon="-1.84765">
        <ele>40.2</ele>
      </trkpt>
      <trkpt lat="47.74945" lon="-1.84762">
        <ele>40</ele>
      </trkpt>
      <trkpt lat="47.74944" lon="-1.84758">
        <ele>39.8</ele>
      </trkpt>
      <trkpt lat="47.74944" lon="-1.84754">
        <ele>39.6</ele>
      </trkpt>
      <trkpt lat="47.74943" lon="-1.84751">
        <ele>39.4</ele>
      </trkpt>
      <trkpt lat="47.74942" lon="-1.84747">
        <ele>39.2</ele>
      </trkpt>
      <trkpt lat="47.74942" lon="-1.84742">
        <ele>39.1</ele>
      </trkpt>
      <trkpt lat="47.7494" lon="-1.84738">
        <ele>38.9</ele>
      </trkpt>
      <trkpt lat="47.74939" lon="-1.84734">
        <ele>38.8</ele>
      </trkpt>
      <trkpt lat="47.74938" lon="-1.84731">
        <ele>38.6</ele>
      </trkpt>
      <trkpt lat="47.74936" lon="-1.84728">
        <ele>38.5</ele>
      </trkpt>
      <trkpt lat="47.74934" lon="-1.84725">
        <ele>38.4</ele>
      </trkpt>
      <trkpt lat="47.74933" lon="-1.84721">
        <ele>38.2</ele>
      </trkpt>
      <trkpt lat="47.74932" lon="-1.84718">
        <ele>38</ele>
      </trkpt>
      <trkpt lat="47.74931" lon="-1.84715">
        <ele>37.9</ele>
      </trkpt>
      <trkpt lat="47.74931" lon="-1.84713">
        <ele>37.8</ele>
      </trkpt>
      <trkpt lat="47.74931" lon="-1.84713">
        <ele>37.8</ele>
      </trkpt>
      <trkpt lat="47.74931" lon="-1.84713">
        <ele>37.8</ele>
      </trkpt>
      <trkpt lat="47.7493" lon="-1.84713">
        <ele>37.8</ele>
      </trkpt>
      <trkpt lat="47.7493" lon="-1.84713">
        <ele>37.8</ele>
      </trkpt>
      <trkpt lat="47.7493" lon="-1.84713">
        <ele>37.8</ele>
      </trkpt>
      <trkpt lat="47.7493" lon="-1.84713">
        <ele>37.8</ele>
      </trkpt>
      <trkpt lat="47.7493" lon="-1.84713">
        <ele>37.8</ele>
      </trkpt>
      <trkpt lat="47.7493" lon="-1.84711">
        <ele>37.7</ele>
      </trkpt>
      <trkpt lat="47.7493" lon="-1.84709">
        <ele>37.6</ele>
      </trkpt>
      <trkpt lat="47.74929" lon="-1.84705">
        <ele>37.4</ele>
      </trkpt>
      <trkpt lat="47.74928" lon="-1.84703">
        <ele>37.3</ele>
      </trkpt>
      <trkpt lat="47.74927" lon="-1.84701">
        <ele>37.2</ele>
      </trkpt>
      <trkpt lat="47.74928" lon="-1.84698">
        <ele>37.1</ele>
      </trkpt>
      <trkpt lat="47.74927" lon="-1.84696">
        <ele>36.9</ele>
      </trkpt>
      <trkpt lat="47.74926" lon="-1.84692">
        <ele>36.7</ele>
      </trkpt>
      <trkpt lat="47.74925" lon="-1.84689">
        <ele>36.5</ele>
      </trkpt>
      <trkpt lat="47.74923" lon="-1.84686">
        <ele>36.3</ele>
      </trkpt>
      <trkpt lat="47.74922" lon="-1.84682">
        <ele>36.1</ele>
      </trkpt>
      <trkpt lat="47.7492" lon="-1.84679">
        <ele>35.8</ele>
      </trkpt>
      <trkpt lat="47.74919" lon="-1.84675">
        <ele>35.6</ele>
      </trkpt>
      <trkpt lat="47.74918" lon="-1.84671">
        <ele>35.3</ele>
      </trkpt>
      <trkpt lat="47.74917" lon="-1.84667">
        <ele>35</ele>
      </trkpt>
      <trkpt lat="47.74916" lon="-1.84663">
        <ele>34.9</ele>
      </trkpt>
      <trkpt lat="47.74914" lon="-1.8466">
        <ele>35</ele>
      </trkpt>
      <trkpt lat="47.74911" lon="-1.84658">
        <ele>35.2</ele>
      </trkpt>
      <trkpt lat="47.7491" lon="-1.84659">
        <ele>35.5</ele>
      </trkpt>
      <trkpt lat="47.74909" lon="-1.84661">
        <ele>35.8</ele>
      </trkpt>
      <trkpt lat="47.74908" lon="-1.84664">
        <ele>36</ele>
      </trkpt>
      <trkpt lat="47.74907" lon="-1.84667">
        <ele>36.3</ele>
      </trkpt>
      <trkpt lat="47.74904" lon="-1.84669">
        <ele>36.8</ele>
      </trkpt>
      <trkpt lat="47.74901" lon="-1.8467">
        <ele>37.2</ele>
      </trkpt>
      <trkpt lat="47.74898" lon="-1.84672">
        <ele>37.8</ele>
      </trkpt>
      <trkpt lat="47.74894" lon="-1.84673">
        <ele>38.3</ele>
      </trkpt>
      <trkpt lat="47.74891" lon="-1.84673">
        <ele>38.8</ele>
      </trkpt>
      <trkpt lat="47.74888" lon="-1.84674">
        <ele>39.1</ele>
      </trkpt>
      <trkpt lat="47.74886" lon="-1.84673">
        <ele>39.4</ele>
      </trkpt>
      <trkpt lat="47.74885" lon="-1.84673">
        <ele>39.6</ele>
      </trkpt>
      <trkpt lat="47.74884" lon="-1.84674">
        <ele>39.7</ele>
      </trkpt>
      <trkpt lat="47.74883" lon="-1.84675">
        <ele>40</ele>
      </trkpt>
      <trkpt lat="47.74881" lon="-1.84676">
        <ele>40.1</ele>
      </trkpt>
      <trkpt lat="47.7488" lon="-1.84677">
        <ele>40.3</ele>
      </trkpt>
      <trkpt lat="47.74879" lon="-1.84678">
        <ele>40.6</ele>
      </trkpt>
      <trkpt lat="47.74875" lon="-1.84679">
        <ele>41.2</ele>
      </trkpt>
      <trkpt lat="47.74875" lon="-1.84679">
        <ele>41.2</ele>
      </trkpt>
      <trkpt lat="47.74874" lon="-1.84679">
        <ele>41.3</ele>
      </trkpt>
      <trkpt lat="47.74873" lon="-1.84679">
        <ele>41.4</ele>
      </trkpt>
      <trkpt lat="47.74872" lon="-1.84678">
        <ele>41.6</ele>
      </trkpt>
      <trkpt lat="47.74871" lon="-1.84678">
        <ele>41.7</ele>
      </trkpt>
      <trkpt lat="47.7487" lon="-1.84678">
        <ele>41.8</ele>
      </trkpt>
      <trkpt lat="47.74869" lon="-1.84679">
        <ele>42</ele>
      </trkpt>
      <trkpt lat="47.74868" lon="-1.84679">
        <ele>42.1</ele>
      </trkpt>
      <trkpt lat="47.74867" lon="-1.84678">
        <ele>42.2</ele>
      </trkpt>
      <trkpt lat="47.74865" lon="-1.84677">
        <ele>42.3</ele>
      </trkpt>
      <trkpt lat="47.74864" lon="-1.84676">
        <ele>42.5</ele>
      </trkpt>
      <trkpt lat="47.74863" lon="-1.84675">
        <ele>42.6</ele>
      </trkpt>
      <trkpt lat="47.74861" lon="-1.84675">
        <ele>42.7</ele>
      </trkpt>
      <trkpt lat="47.7486" lon="-1.84673">
        <ele>42.8</ele>
      </trkpt>
      <trkpt lat="47.74858" lon="-1.84672">
        <ele>43</ele>
      </trkpt>
      <trkpt lat="47.74857" lon="-1.84671">
        <ele>43.1</ele>
      </trkpt>
      <trkpt lat="47.74855" lon="-1.8467">
        <ele>43.2</ele>
      </trkpt>
      <trkpt lat="47.74854" lon="-1.84669">
        <ele>43.4</ele>
      </trkpt>
      <trkpt lat="47.74852" lon="-1.84668">
        <ele>43.6</ele>
      </trkpt>
      <trkpt lat="47.74851" lon="-1.84667">
        <ele>43.7</ele>
      </trkpt>
      <trkpt lat="47.74849" lon="-1.84666">
        <ele>43.8</ele>
      </trkpt>
      <trkpt lat="47.74848" lon="-1.84664">
        <ele>43.9</ele>
      </trkpt>
      <trkpt lat="47.74847" lon="-1.84662">
        <ele>43.9</ele>
      </trkpt>
      <trkpt lat="47.74846" lon="-1.84659">
        <ele>43.9</ele>
      </trkpt>
      <trkpt lat="47.74845" lon="-1.84657">
        <ele>43.9</ele>
      </trkpt>
      <trkpt lat="47.74844" lon="-1.84654">
        <ele>43.9</ele>
      </trkpt>
      <trkpt lat="47.74842" lon="-1.84652">
        <ele>43.9</ele>
      </trkpt>
      <trkpt lat="47.74842" lon="-1.84651">
        <ele>43.9</ele>
      </trkpt>
      <trkpt lat="47.74841" lon="-1.84647">
        <ele>43.9</ele>
      </trkpt>
      <trkpt lat="47.74839" lon="-1.84645">
        <ele>43.9</ele>
      </trkpt>
      <trkpt lat="47.74839" lon="-1.84642">
        <ele>43.8</ele>
      </trkpt>
      <trkpt lat="47.74838" lon="-1.8464">
        <ele>43.7</ele>
      </trkpt>
      <trkpt lat="47.74836" lon="-1.84635">
        <ele>43.7</ele>
      </trkpt>
      <trkpt lat="47.74834" lon="-1.84632">
        <ele>43.8</ele>
      </trkpt>
      <trkpt lat="47.74832" lon="-1.84629">
        <ele>43.8</ele>
      </trkpt>
      <trkpt lat="47.7483" lon="-1.84626">
        <ele>43.8</ele>
      </trkpt>
      <trkpt lat="47.74828" lon="-1.84626">
        <ele>43.9</ele>
      </trkpt>
      <trkpt lat="47.74827" lon="-1.84625">
        <ele>43.9</ele>
      </trkpt>
      <trkpt lat="47.74829" lon="-1.84608">
        <ele>42.8</ele>
      </trkpt>
      <trkpt lat="47.74829" lon="-1.84608">
        <ele>42.8</ele>
      </trkpt>
      <trkpt lat="47.74831" lon="-1.84606">
        <ele>42.5</ele>
      </trkpt>
      <trkpt lat="47.74833" lon="-1.84604">
        <ele>42.2</ele>
      </trkpt>
      <trkpt lat="47.74833" lon="-1.846">
        <ele>42</ele>
      </trkpt>
      <trkpt lat="47.74834" lon="-1.84598">
        <ele>41.8</ele>
      </trkpt>
      <trkpt lat="47.74835" lon="-1.84595">
        <ele>41.5</ele>
      </trkpt>
      <trkpt lat="47.74835" lon="-1.84591">
        <ele>41.2</ele>
      </trkpt>
      <trkpt lat="47.74837" lon="-1.84587">
        <ele>40.8</ele>
      </trkpt>
      <trkpt lat="47.74839" lon="-1.84582">
        <ele>40.2</ele>
      </trkpt>
      <trkpt lat="47.7484" lon="-1.84578">
        <ele>39.5</ele>
      </trkpt>
      <trkpt lat="47.74842" lon="-1.84574">
        <ele>39</ele>
      </trkpt>
      <trkpt lat="47.74842" lon="-1.84569">
        <ele>38.5</ele>
      </trkpt>
      <trkpt lat="47.74841" lon="-1.84564">
        <ele>38.1</ele>
      </trkpt>
      <trkpt lat="47.74838" lon="-1.84559">
        <ele>37.8</ele>
      </trkpt>
      <trkpt lat="47.74837" lon="-1.84554">
        <ele>37.5</ele>
      </trkpt>
      <trkpt lat="47.74836" lon="-1.84551">
        <ele>37.2</ele>
      </trkpt>
      <trkpt lat="47.74835" lon="-1.84548">
        <ele>37.1</ele>
      </trkpt>
      <trkpt lat="47.74833" lon="-1.84546">
        <ele>37</ele>
      </trkpt>
      <trkpt lat="47.74832" lon="-1.84544">
        <ele>36.9</ele>
      </trkpt>
      <trkpt lat="47.74831" lon="-1.84541">
        <ele>36.6</ele>
      </trkpt>
      <trkpt lat="47.74832" lon="-1.84538">
        <ele>36.3</ele>
      </trkpt>
      <trkpt lat="47.74833" lon="-1.84536">
        <ele>35.9</ele>
      </trkpt>
      <trkpt lat="47.74833" lon="-1.84533">
        <ele>35.7</ele>
      </trkpt>
      <trkpt lat="47.74832" lon="-1.84532">
        <ele>35.6</ele>
      </trkpt>
      <trkpt lat="47.74832" lon="-1.84532">
        <ele>35.5</ele>
      </trkpt>
      <trkpt lat="47.74832" lon="-1.84531">
        <ele>35.5</ele>
      </trkpt>
      <trkpt lat="47.74832" lon="-1.84529">
        <ele>35.3</ele>
      </trkpt>
      <trkpt lat="47.74831" lon="-1.84527">
        <ele>35.1</ele>
      </trkpt>
      <trkpt lat="47.7483" lon="-1.84523">
        <ele>34.9</ele>
      </trkpt>
      <trkpt lat="47.74829" lon="-1.84521">
        <ele>34.7</ele>
      </trkpt>
      <trkpt lat="47.74828" lon="-1.84519">
        <ele>34.6</ele>
      </trkpt>
      <trkpt lat="47.74827" lon="-1.84517">
        <ele>34.6</ele>
      </trkpt>
      <trkpt lat="47.74825" lon="-1.84515">
        <ele>34.5</ele>
      </trkpt>
      <trkpt lat="47.74824" lon="-1.84513">
        <ele>34.4</ele>
      </trkpt>
      <trkpt lat="47.74823" lon="-1.8451">
        <ele>34.2</ele>
      </trkpt>
      <trkpt lat="47.74822" lon="-1.84508">
        <ele>34.1</ele>
      </trkpt>
      <trkpt lat="47.74821" lon="-1.84505">
        <ele>34</ele>
      </trkpt>
      <trkpt lat="47.7482" lon="-1.84502">
        <ele>33.8</ele>
      </trkpt>
      <trkpt lat="47.74819" lon="-1.845">
        <ele>33.6</ele>
      </trkpt>
      <trkpt lat="47.74818" lon="-1.84497">
        <ele>33.6</ele>
      </trkpt>
      <trkpt lat="47.74817" lon="-1.84492">
        <ele>33.4</ele>
      </trkpt>
      <trkpt lat="47.74817" lon="-1.84489">
        <ele>33.1</ele>
      </trkpt>
      <trkpt lat="47.74817" lon="-1.84485">
        <ele>32.8</ele>
      </trkpt>
      <trkpt lat="47.74816" lon="-1.84481">
        <ele>32.6</ele>
      </trkpt>
      <trkpt lat="47.74815" lon="-1.84478">
        <ele>32.5</ele>
      </trkpt>
      <trkpt lat="47.74814" lon="-1.84475">
        <ele>32.4</ele>
      </trkpt>
      <trkpt lat="47.74814" lon="-1.84472">
        <ele>32.3</ele>
      </trkpt>
      <trkpt lat="47.74812" lon="-1.84468">
        <ele>32.2</ele>
      </trkpt>
      <trkpt lat="47.7481" lon="-1.84466">
        <ele>32.2</ele>
      </trkpt>
      <trkpt lat="47.74809" lon="-1.84463">
        <ele>32.1</ele>
      </trkpt>
      <trkpt lat="47.74809" lon="-1.84459">
        <ele>31.9</ele>
      </trkpt>
      <trkpt lat="47.74808" lon="-1.84455">
        <ele>31.7</ele>
      </trkpt>
      <trkpt lat="47.74808" lon="-1.84453">
        <ele>31.4</ele>
      </trkpt>
      <trkpt lat="47.74809" lon="-1.84452">
        <ele>31.3</ele>
      </trkpt>
      <trkpt lat="47.74811" lon="-1.84453">
        <ele>31.1</ele>
      </trkpt>
      <trkpt lat="47.74813" lon="-1.84454">
        <ele>31</ele>
      </trkpt>
      <trkpt lat="47.74814" lon="-1.84456">
        <ele>31</ele>
      </trkpt>
      <trkpt lat="47.74816" lon="-1.84458">
        <ele>30.9</ele>
      </trkpt>
      <trkpt lat="47.74818" lon="-1.84459">
        <ele>30.8</ele>
      </trkpt>
      <trkpt lat="47.74821" lon="-1.84461">
        <ele>30.6</ele>
      </trkpt>
      <trkpt lat="47.74823" lon="-1.84463">
        <ele>30.5</ele>
      </trkpt>
      <trkpt lat="47.74825" lon="-1.84465">
        <ele>30.5</ele>
      </trkpt>
      <trkpt lat="47.74826" lon="-1.84468">
        <ele>30.5</ele>
      </trkpt>
      <trkpt lat="47.74828" lon="-1.8447">
        <ele>30.5</ele>
      </trkpt>
      <trkpt lat="47.74829" lon="-1.84471">
        <ele>30.5</ele>
      </trkpt>
      <trkpt lat="47.7483" lon="-1.84471">
        <ele>30.3</ele>
      </trkpt>
      <trkpt lat="47.74831" lon="-1.84469">
        <ele>30</ele>
      </trkpt>
      <trkpt lat="47.74832" lon="-1.84465">
        <ele>29.7</ele>
      </trkpt>
      <trkpt lat="47.74832" lon="-1.84461">
        <ele>29.4</ele>
      </trkpt>
      <trkpt lat="47.74832" lon="-1.84457">
        <ele>29.1</ele>
      </trkpt>
      <trkpt lat="47.74831" lon="-1.84452">
        <ele>28.8</ele>
      </trkpt>
      <trkpt lat="47.7483" lon="-1.84448">
        <ele>28.6</ele>
      </trkpt>
      <trkpt lat="47.74829" lon="-1.84444">
        <ele>28.4</ele>
      </trkpt>
      <trkpt lat="47.74828" lon="-1.84438">
        <ele>28.1</ele>
      </trkpt>
      <trkpt lat="47.74828" lon="-1.84433">
        <ele>27.8</ele>
      </trkpt>
      <trkpt lat="47.74829" lon="-1.84429">
        <ele>27.4</ele>
      </trkpt>
      <trkpt lat="47.7483" lon="-1.84426">
        <ele>27</ele>
      </trkpt>
      <trkpt lat="47.74833" lon="-1.84423">
        <ele>26.5</ele>
      </trkpt>
      <trkpt lat="47.74835" lon="-1.8442">
        <ele>26.3</ele>
      </trkpt>
      <trkpt lat="47.74837" lon="-1.84417">
        <ele>26.1</ele>
      </trkpt>
      <trkpt lat="47.74838" lon="-1.84413">
        <ele>26</ele>
      </trkpt>
      <trkpt lat="47.7484" lon="-1.84409">
        <ele>26</ele>
      </trkpt>
      <trkpt lat="47.74843" lon="-1.84408">
        <ele>26</ele>
      </trkpt>
      <trkpt lat="47.74846" lon="-1.84407">
        <ele>26.1</ele>
      </trkpt>
      <trkpt lat="47.74849" lon="-1.84407">
        <ele>26.2</ele>
      </trkpt>
      <trkpt lat="47.74851" lon="-1.84407">
        <ele>26.2</ele>
      </trkpt>
      <trkpt lat="47.74853" lon="-1.84407">
        <ele>26.3</ele>
      </trkpt>
      <trkpt lat="47.74856" lon="-1.84408">
        <ele>26.4</ele>
      </trkpt>
      <trkpt lat="47.74858" lon="-1.84408">
        <ele>26.4</ele>
      </trkpt>
      <trkpt lat="47.7486" lon="-1.84409">
        <ele>26.5</ele>
      </trkpt>
      <trkpt lat="47.74862" lon="-1.84409">
        <ele>26.6</ele>
      </trkpt>
      <trkpt lat="47.74864" lon="-1.8441">
        <ele>26.6</ele>
      </trkpt>
      <trkpt lat="47.74866" lon="-1.84411">
        <ele>26.7</ele>
      </trkpt>
      <trkpt lat="47.74868" lon="-1.84412">
        <ele>26.8</ele>
      </trkpt>
      <trkpt lat="47.7487" lon="-1.84412">
        <ele>26.8</ele>
      </trkpt>
      <trkpt lat="47.74872" lon="-1.84412">
        <ele>26.9</ele>
      </trkpt>
      <trkpt lat="47.74874" lon="-1.84413">
        <ele>26.9</ele>
      </trkpt>
      <trkpt lat="47.74876" lon="-1.84414">
        <ele>27</ele>
      </trkpt>
      <trkpt lat="47.74878" lon="-1.84415">
        <ele>27</ele>
      </trkpt>
      <trkpt lat="47.7488" lon="-1.84415">
        <ele>27.1</ele>
      </trkpt>
      <trkpt lat="47.74881" lon="-1.84415">
        <ele>27.1</ele>
      </trkpt>
      <trkpt lat="47.74883" lon="-1.84416">
        <ele>27.2</ele>
      </trkpt>
      <trkpt lat="47.74885" lon="-1.84416">
        <ele>27.2</ele>
      </trkpt>
      <trkpt lat="47.74887" lon="-1.84418">
        <ele>27.3</ele>
      </trkpt>
      <trkpt lat="47.74889" lon="-1.84418">
        <ele>27.4</ele>
      </trkpt>
      <trkpt lat="47.74891" lon="-1.84419">
        <ele>27.4</ele>
      </trkpt>
      <trkpt lat="47.74893" lon="-1.8442">
        <ele>27.5</ele>
      </trkpt>
      <trkpt lat="47.74894" lon="-1.8442">
        <ele>27.5</ele>
      </trkpt>
      <trkpt lat="47.74896" lon="-1.8442">
        <ele>27.6</ele>
      </trkpt>
      <trkpt lat="47.74898" lon="-1.8442">
        <ele>27.6</ele>
      </trkpt>
      <trkpt lat="47.749" lon="-1.84421">
        <ele>27.7</ele>
      </trkpt>
      <trkpt lat="47.74901" lon="-1.84422">
        <ele>27.7</ele>
      </trkpt>
      <trkpt lat="47.74903" lon="-1.84423">
        <ele>27.8</ele>
      </trkpt>
      <trkpt lat="47.74905" lon="-1.84424">
        <ele>27.8</ele>
      </trkpt>
      <trkpt lat="47.74907" lon="-1.84425">
        <ele>27.8</ele>
      </trkpt>
      <trkpt lat="47.74909" lon="-1.84426">
        <ele>27.9</ele>
      </trkpt>
      <trkpt lat="47.74911" lon="-1.84427">
        <ele>27.9</ele>
      </trkpt>
      <trkpt lat="47.74913" lon="-1.84428">
        <ele>27.9</ele>
      </trkpt>
      <trkpt lat="47.74914" lon="-1.84428">
        <ele>28</ele>
      </trkpt>
      <trkpt lat="47.74916" lon="-1.84428">
        <ele>28</ele>
      </trkpt>
      <trkpt lat="47.74919" lon="-1.84429">
        <ele>28.2</ele>
      </trkpt>
      <trkpt lat="47.7492" lon="-1.84429">
        <ele>28.5</ele>
      </trkpt>
      <trkpt lat="47.74923" lon="-1.8443">
        <ele>28.8</ele>
      </trkpt>
      <trkpt lat="47.74924" lon="-1.84431">
        <ele>29</ele>
      </trkpt>
      <trkpt lat="47.74926" lon="-1.84431">
        <ele>29.2</ele>
      </trkpt>
      <trkpt lat="47.74928" lon="-1.84432">
        <ele>29.5</ele>
      </trkpt>
      <trkpt lat="47.7493" lon="-1.84434">
        <ele>29.8</ele>
      </trkpt>
      <trkpt lat="47.74932" lon="-1.84435">
        <ele>30.1</ele>
      </trkpt>
      <trkpt lat="47.74934" lon="-1.84436">
        <ele>30.3</ele>
      </trkpt>
      <trkpt lat="47.74936" lon="-1.84437">
        <ele>30.6</ele>
      </trkpt>
      <trkpt lat="47.74938" lon="-1.84438">
        <ele>30.9</ele>
      </trkpt>
      <trkpt lat="47.7494" lon="-1.84439">
        <ele>31.1</ele>
      </trkpt>
      <trkpt lat="47.74941" lon="-1.8444">
        <ele>31.3</ele>
      </trkpt>
      <trkpt lat="47.74943" lon="-1.84441">
        <ele>31.6</ele>
      </trkpt>
      <trkpt lat="47.74945" lon="-1.84442">
        <ele>31.8</ele>
      </trkpt>
      <trkpt lat="47.74947" lon="-1.84444">
        <ele>32.1</ele>
      </trkpt>
      <trkpt lat="47.74949" lon="-1.84445">
        <ele>32.4</ele>
      </trkpt>
      <trkpt lat="47.74951" lon="-1.84446">
        <ele>32.6</ele>
      </trkpt>
      <trkpt lat="47.74952" lon="-1.84447">
        <ele>32.9</ele>
      </trkpt>
      <trkpt lat="47.74954" lon="-1.84448">
        <ele>33.1</ele>
      </trkpt>
      <trkpt lat="47.74956" lon="-1.84449">
        <ele>33.4</ele>
      </trkpt>
      <trkpt lat="47.74957" lon="-1.8445">
        <ele>33.6</ele>
      </trkpt>
      <trkpt lat="47.74959" lon="-1.84452">
        <ele>33.9</ele>
      </trkpt>
      <trkpt lat="47.74961" lon="-1.84453">
        <ele>34.1</ele>
      </trkpt>
      <trkpt lat="47.74963" lon="-1.84454">
        <ele>34.3</ele>
      </trkpt>
      <trkpt lat="47.74964" lon="-1.84455">
        <ele>34.5</ele>
      </trkpt>
      <trkpt lat="47.74966" lon="-1.84456">
        <ele>34.8</ele>
      </trkpt>
      <trkpt lat="47.74968" lon="-1.84457">
        <ele>35.1</ele>
      </trkpt>
      <trkpt lat="47.7497" lon="-1.84458">
        <ele>35.3</ele>
      </trkpt>
      <trkpt lat="47.74972" lon="-1.84459">
        <ele>35.6</ele>
      </trkpt>
      <trkpt lat="47.74973" lon="-1.8446">
        <ele>35.8</ele>
      </trkpt>
      <trkpt lat="47.74975" lon="-1.84461">
        <ele>36.1</ele>
      </trkpt>
      <trkpt lat="47.74977" lon="-1.84462">
        <ele>36.3</ele>
      </trkpt>
      <trkpt lat="47.74979" lon="-1.84464">
        <ele>36.6</ele>
      </trkpt>
      <trkpt lat="47.74981" lon="-1.84465">
        <ele>36.9</ele>
      </trkpt>
      <trkpt lat="47.74982" lon="-1.84466">
        <ele>37.1</ele>
      </trkpt>
      <trkpt lat="47.74983" lon="-1.84467">
        <ele>37.3</ele>
      </trkpt>
      <trkpt lat="47.74986" lon="-1.84468">
        <ele>37.6</ele>
      </trkpt>
      <trkpt lat="47.74987" lon="-1.84469">
        <ele>37.9</ele>
      </trkpt>
      <trkpt lat="47.74989" lon="-1.8447">
        <ele>38.1</ele>
      </trkpt>
      <trkpt lat="47.74991" lon="-1.84471">
        <ele>38.4</ele>
      </trkpt>
      <trkpt lat="47.74992" lon="-1.84473">
        <ele>38.6</ele>
      </trkpt>
      <trkpt lat="47.74994" lon="-1.84474">
        <ele>38.9</ele>
      </trkpt>
      <trkpt lat="47.74996" lon="-1.84475">
        <ele>39.1</ele>
      </trkpt>
      <trkpt lat="47.74997" lon="-1.84476">
        <ele>39.3</ele>
      </trkpt>
      <trkpt lat="47.74999" lon="-1.84477">
        <ele>39.5</ele>
      </trkpt>
      <trkpt lat="47.75001" lon="-1.84478">
        <ele>39.8</ele>
      </trkpt>
      <trkpt lat="47.75002" lon="-1.8448">
        <ele>40</ele>
      </trkpt>
      <trkpt lat="47.75004" lon="-1.8448">
        <ele>40.2</ele>
      </trkpt>
      <trkpt lat="47.75005" lon="-1.84481">
        <ele>40.5</ele>
      </trkpt>
      <trkpt lat="47.75007" lon="-1.84483">
        <ele>40.7</ele>
      </trkpt>
      <trkpt lat="47.75009" lon="-1.84484">
        <ele>41</ele>
      </trkpt>
      <trkpt lat="47.75011" lon="-1.84485">
        <ele>41.2</ele>
      </trkpt>
      <trkpt lat="47.75013" lon="-1.84486">
        <ele>41.5</ele>
      </trkpt>
      <trkpt lat="47.75015" lon="-1.84487">
        <ele>41.7</ele>
      </trkpt>
      <trkpt lat="47.75016" lon="-1.84488">
        <ele>42</ele>
      </trkpt>
      <trkpt lat="47.75018" lon="-1.84489">
        <ele>42.3</ele>
      </trkpt>
      <trkpt lat="47.7502" lon="-1.8449">
        <ele>42.5</ele>
      </trkpt>
      <trkpt lat="47.75022" lon="-1.84491">
        <ele>42.8</ele>
      </trkpt>
      <trkpt lat="47.75024" lon="-1.84492">
        <ele>43</ele>
      </trkpt>
      <trkpt lat="47.75026" lon="-1.84493">
        <ele>43.3</ele>
      </trkpt>
      <trkpt lat="47.75027" lon="-1.84494">
        <ele>43.5</ele>
      </trkpt>
      <trkpt lat="47.75029" lon="-1.84495">
        <ele>43.8</ele>
      </trkpt>
      <trkpt lat="47.75031" lon="-1.84497">
        <ele>44</ele>
      </trkpt>
      <trkpt lat="47.75033" lon="-1.84498">
        <ele>44.3</ele>
      </trkpt>
      <trkpt lat="47.75035" lon="-1.84499">
        <ele>44.5</ele>
      </trkpt>
      <trkpt lat="47.75036" lon="-1.845">
        <ele>44.8</ele>
      </trkpt>
      <trkpt lat="47.75038" lon="-1.84502">
        <ele>45</ele>
      </trkpt>
      <trkpt lat="47.75039" lon="-1.84503">
        <ele>45.2</ele>
      </trkpt>
      <trkpt lat="47.75041" lon="-1.84504">
        <ele>45.4</ele>
      </trkpt>
      <trkpt lat="47.75043" lon="-1.84506">
        <ele>45.7</ele>
      </trkpt>
      <trkpt lat="47.75044" lon="-1.84507">
        <ele>45.9</ele>
      </trkpt>
      <trkpt lat="47.75046" lon="-1.84508">
        <ele>46.2</ele>
      </trkpt>
      <trkpt lat="47.75048" lon="-1.84509">
        <ele>46.5</ele>
      </trkpt>
      <trkpt lat="47.7505" lon="-1.8451">
        <ele>46.8</ele>
      </trkpt>
      <trkpt lat="47.75051" lon="-1.84512">
        <ele>47</ele>
      </trkpt>
      <trkpt lat="47.75054" lon="-1.84513">
        <ele>47.3</ele>
      </trkpt>
      <trkpt lat="47.75055" lon="-1.84514">
        <ele>47.6</ele>
      </trkpt>
      <trkpt lat="47.75057" lon="-1.84515">
        <ele>47.9</ele>
      </trkpt>
      <trkpt lat="47.75059" lon="-1.84516">
        <ele>48.2</ele>
      </trkpt>
      <trkpt lat="47.75061" lon="-1.84517">
        <ele>48.5</ele>
      </trkpt>
      <trkpt lat="47.75063" lon="-1.84519">
        <ele>48.8</ele>
      </trkpt>
      <trkpt lat="47.75065" lon="-1.8452">
        <ele>49.1</ele>
      </trkpt>
      <trkpt lat="47.75067" lon="-1.84522">
        <ele>49.4</ele>
      </trkpt>
      <trkpt lat="47.75068" lon="-1.84523">
        <ele>49.6</ele>
      </trkpt>
      <trkpt lat="47.7507" lon="-1.84524">
        <ele>49.9</ele>
      </trkpt>
      <trkpt lat="47.75072" lon="-1.84525">
        <ele>50.2</ele>
      </trkpt>
      <trkpt lat="47.75074" lon="-1.84526">
        <ele>50.5</ele>
      </trkpt>
      <trkpt lat="47.75075" lon="-1.84527">
        <ele>50.8</ele>
      </trkpt>
      <trkpt lat="47.75077" lon="-1.84529">
        <ele>51.1</ele>
      </trkpt>
      <trkpt lat="47.75079" lon="-1.8453">
        <ele>51.4</ele>
      </trkpt>
      <trkpt lat="47.75081" lon="-1.84531">
        <ele>51.7</ele>
      </trkpt>
      <trkpt lat="47.75082" lon="-1.84533">
        <ele>52</ele>
      </trkpt>
      <trkpt lat="47.75084" lon="-1.84534">
        <ele>52.3</ele>
      </trkpt>
      <trkpt lat="47.75086" lon="-1.84535">
        <ele>52.5</ele>
      </trkpt>
      <trkpt lat="47.75088" lon="-1.84536">
        <ele>52.7</ele>
      </trkpt>
      <trkpt lat="47.7509" lon="-1.84537">
        <ele>52.9</ele>
      </trkpt>
      <trkpt lat="47.75092" lon="-1.84538">
        <ele>53.1</ele>
      </trkpt>
      <trkpt lat="47.75094" lon="-1.84539">
        <ele>53.3</ele>
      </trkpt>
      <trkpt lat="47.75095" lon="-1.8454">
        <ele>53.5</ele>
      </trkpt>
      <trkpt lat="47.75097" lon="-1.84541">
        <ele>53.7</ele>
      </trkpt>
      <trkpt lat="47.75099" lon="-1.84542">
        <ele>53.9</ele>
      </trkpt>
      <trkpt lat="47.75101" lon="-1.84543">
        <ele>54.1</ele>
      </trkpt>
      <trkpt lat="47.75102" lon="-1.84545">
        <ele>54.3</ele>
      </trkpt>
      <trkpt lat="47.75104" lon="-1.84546">
        <ele>54.5</ele>
      </trkpt>
      <trkpt lat="47.75106" lon="-1.84548">
        <ele>54.7</ele>
      </trkpt>
      <trkpt lat="47.75108" lon="-1.84549">
        <ele>55</ele>
      </trkpt>
      <trkpt lat="47.7511" lon="-1.8455">
        <ele>55.2</ele>
      </trkpt>
      <trkpt lat="47.75111" lon="-1.84551">
        <ele>55.3</ele>
      </trkpt>
      <trkpt lat="47.75114" lon="-1.84553">
        <ele>55.6</ele>
      </trkpt>
      <trkpt lat="47.75116" lon="-1.84554">
        <ele>55.8</ele>
      </trkpt>
      <trkpt lat="47.75118" lon="-1.84556">
        <ele>56.1</ele>
      </trkpt>
      <trkpt lat="47.7512" lon="-1.84557">
        <ele>56.2</ele>
      </trkpt>
      <trkpt lat="47.75122" lon="-1.84558">
        <ele>56.4</ele>
      </trkpt>
      <trkpt lat="47.75124" lon="-1.84558">
        <ele>56.6</ele>
      </trkpt>
      <trkpt lat="47.75126" lon="-1.84559">
        <ele>56.8</ele>
      </trkpt>
      <trkpt lat="47.75128" lon="-1.84559">
        <ele>57</ele>
      </trkpt>
      <trkpt lat="47.7513" lon="-1.8456">
        <ele>57.2</ele>
      </trkpt>
      <trkpt lat="47.75132" lon="-1.84561">
        <ele>57.5</ele>
      </trkpt>
      <trkpt lat="47.75134" lon="-1.84563">
        <ele>57.7</ele>
      </trkpt>
      <trkpt lat="47.75136" lon="-1.84564">
        <ele>57.9</ele>
      </trkpt>
      <trkpt lat="47.75139" lon="-1.84566">
        <ele>58.1</ele>
      </trkpt>
      <trkpt lat="47.75141" lon="-1.84567">
        <ele>58.4</ele>
      </trkpt>
      <trkpt lat="47.75143" lon="-1.84568">
        <ele>58.5</ele>
      </trkpt>
      <trkpt lat="47.75144" lon="-1.84569">
        <ele>58.8</ele>
      </trkpt>
      <trkpt lat="47.75146" lon="-1.84571">
        <ele>59</ele>
      </trkpt>
      <trkpt lat="47.75149" lon="-1.84573">
        <ele>59.2</ele>
      </trkpt>
      <trkpt lat="47.75151" lon="-1.84574">
        <ele>59.4</ele>
      </trkpt>
      <trkpt lat="47.75153" lon="-1.84575">
        <ele>59.6</ele>
      </trkpt>
      <trkpt lat="47.75155" lon="-1.84577">
        <ele>59.9</ele>
      </trkpt>
      <trkpt lat="47.75158" lon="-1.84579">
        <ele>60.1</ele>
      </trkpt>
      <trkpt lat="47.7516" lon="-1.8458">
        <ele>60.4</ele>
      </trkpt>
      <trkpt lat="47.75163" lon="-1.84582">
        <ele>60.6</ele>
      </trkpt>
      <trkpt lat="47.75165" lon="-1.84583">
        <ele>60.8</ele>
      </trkpt>
      <trkpt lat="47.75167" lon="-1.84585">
        <ele>61</ele>
      </trkpt>
      <trkpt lat="47.7517" lon="-1.84586">
        <ele>61.1</ele>
      </trkpt>
      <trkpt lat="47.75172" lon="-1.84588">
        <ele>61.1</ele>
      </trkpt>
      <trkpt lat="47.75174" lon="-1.84589">
        <ele>61.1</ele>
      </trkpt>
      <trkpt lat="47.75176" lon="-1.84591">
        <ele>61.2</ele>
      </trkpt>
      <trkpt lat="47.75179" lon="-1.84592">
        <ele>61.2</ele>
      </trkpt>
      <trkpt lat="47.75181" lon="-1.84594">
        <ele>61.3</ele>
      </trkpt>
      <trkpt lat="47.75183" lon="-1.84595">
        <ele>61.3</ele>
      </trkpt>
      <trkpt lat="47.75185" lon="-1.84596">
        <ele>61.4</ele>
      </trkpt>
      <trkpt lat="47.75188" lon="-1.84598">
        <ele>61.4</ele>
      </trkpt>
      <trkpt lat="47.7519" lon="-1.84599">
        <ele>61.4</ele>
      </trkpt>
      <trkpt lat="47.75192" lon="-1.846">
        <ele>61.5</ele>
      </trkpt>
      <trkpt lat="47.75195" lon="-1.846">
        <ele>61.5</ele>
      </trkpt>
      <trkpt lat="47.75198" lon="-1.84599">
        <ele>61.5</ele>
      </trkpt>
      <trkpt lat="47.752" lon="-1.84597">
        <ele>61.4</ele>
      </trkpt>
      <trkpt lat="47.75201" lon="-1.84595">
        <ele>61.3</ele>
      </trkpt>
      <trkpt lat="47.75202" lon="-1.84591">
        <ele>61.2</ele>
      </trkpt>
      <trkpt lat="47.75202" lon="-1.84586">
        <ele>61.1</ele>
      </trkpt>
      <trkpt lat="47.75202" lon="-1.84582">
        <ele>61</ele>
      </trkpt>
      <trkpt lat="47.75202" lon="-1.84577">
        <ele>60.9</ele>
      </trkpt>
      <trkpt lat="47.75202" lon="-1.84573">
        <ele>60.8</ele>
      </trkpt>
      <trkpt lat="47.75202" lon="-1.84568">
        <ele>60.7</ele>
      </trkpt>
      <trkpt lat="47.75202" lon="-1.84563">
        <ele>60.6</ele>
      </trkpt>
      <trkpt lat="47.75201" lon="-1.84558">
        <ele>60.5</ele>
      </trkpt>
      <trkpt lat="47.75201" lon="-1.84552">
        <ele>60.4</ele>
      </trkpt>
      <trkpt lat="47.752" lon="-1.84547">
        <ele>60.3</ele>
      </trkpt>
      <trkpt lat="47.752" lon="-1.84542">
        <ele>60.2</ele>
      </trkpt>
      <trkpt lat="47.75199" lon="-1.84536">
        <ele>60.1</ele>
      </trkpt>
      <trkpt lat="47.75199" lon="-1.8453">
        <ele>60</ele>
      </trkpt>
      <trkpt lat="47.75199" lon="-1.84525">
        <ele>59.9</ele>
      </trkpt>
      <trkpt lat="47.75198" lon="-1.84519">
        <ele>59.8</ele>
      </trkpt>
      <trkpt lat="47.75198" lon="-1.84513">
        <ele>59.6</ele>
      </trkpt>
      <trkpt lat="47.75198" lon="-1.84507">
        <ele>59.5</ele>
      </trkpt>
      <trkpt lat="47.75197" lon="-1.84501">
        <ele>59.4</ele>
      </trkpt>
      <trkpt lat="47.75197" lon="-1.84494">
        <ele>59.4</ele>
      </trkpt>
      <trkpt lat="47.75196" lon="-1.84488">
        <ele>59.4</ele>
      </trkpt>
      <trkpt lat="47.75196" lon="-1.84483">
        <ele>59.4</ele>
      </trkpt>
      <trkpt lat="47.75196" lon="-1.84476">
        <ele>59.3</ele>
      </trkpt>
      <trkpt lat="47.75195" lon="-1.8447">
        <ele>59.3</ele>
      </trkpt>
      <trkpt lat="47.75194" lon="-1.84463">
        <ele>59.3</ele>
      </trkpt>
      <trkpt lat="47.75193" lon="-1.84457">
        <ele>59.3</ele>
      </trkpt>
      <trkpt lat="47.75193" lon="-1.8445">
        <ele>59.3</ele>
      </trkpt>
      <trkpt lat="47.75192" lon="-1.84444">
        <ele>59.3</ele>
      </trkpt>
      <trkpt lat="47.75192" lon="-1.84438">
        <ele>59.3</ele>
      </trkpt>
      <trkpt lat="47.75192" lon="-1.84432">
        <ele>59.3</ele>
      </trkpt>
      <trkpt lat="47.75192" lon="-1.84426">
        <ele>59.3</ele>
      </trkpt>
      <trkpt lat="47.75192" lon="-1.84421">
        <ele>59.3</ele>
      </trkpt>
      <trkpt lat="47.75191" lon="-1.84415">
        <ele>59.3</ele>
      </trkpt>
      <trkpt lat="47.75189" lon="-1.8441">
        <ele>59.1</ele>
      </trkpt>
      <trkpt lat="47.75189" lon="-1.84404">
        <ele>58.9</ele>
      </trkpt>
      <trkpt lat="47.75189" lon="-1.84398">
        <ele>58.8</ele>
      </trkpt>
      <trkpt lat="47.7519" lon="-1.84391">
        <ele>58.6</ele>
      </trkpt>
      <trkpt lat="47.75191" lon="-1.84385">
        <ele>58.5</ele>
      </trkpt>
      <trkpt lat="47.75192" lon="-1.84378">
        <ele>58.3</ele>
      </trkpt>
      <trkpt lat="47.75193" lon="-1.84371">
        <ele>58.2</ele>
      </trkpt>
      <trkpt lat="47.75194" lon="-1.84365">
        <ele>58.1</ele>
      </trkpt>
      <trkpt lat="47.75194" lon="-1.84357">
        <ele>57.9</ele>
      </trkpt>
      <trkpt lat="47.75195" lon="-1.8435">
        <ele>57.7</ele>
      </trkpt>
      <trkpt lat="47.75195" lon="-1.84343">
        <ele>57.6</ele>
      </trkpt>
      <trkpt lat="47.75196" lon="-1.84335">
        <ele>57.5</ele>
      </trkpt>
      <trkpt lat="47.75197" lon="-1.84328">
        <ele>57.4</ele>
      </trkpt>
      <trkpt lat="47.75198" lon="-1.8432">
        <ele>57.3</ele>
      </trkpt>
      <trkpt lat="47.75199" lon="-1.84313">
        <ele>57.2</ele>
      </trkpt>
      <trkpt lat="47.752" lon="-1.84305">
        <ele>57.1</ele>
      </trkpt>
      <trkpt lat="47.75201" lon="-1.84297">
        <ele>57</ele>
      </trkpt>
      <trkpt lat="47.75202" lon="-1.84289">
        <ele>56.9</ele>
      </trkpt>
      <trkpt lat="47.75202" lon="-1.84281">
        <ele>56.8</ele>
      </trkpt>
      <trkpt lat="47.75203" lon="-1.84275">
        <ele>56.8</ele>
      </trkpt>
      <trkpt lat="47.75205" lon="-1.84266">
        <ele>56.7</ele>
      </trkpt>
      <trkpt lat="47.75206" lon="-1.84259">
        <ele>56.6</ele>
      </trkpt>
      <trkpt lat="47.75208" lon="-1.84252">
        <ele>56.5</ele>
      </trkpt>
      <trkpt lat="47.75209" lon="-1.84245">
        <ele>56.4</ele>
      </trkpt>
      <trkpt lat="47.7521" lon="-1.84237">
        <ele>56.3</ele>
      </trkpt>
      <trkpt lat="47.75211" lon="-1.84231">
        <ele>56.3</ele>
      </trkpt>
      <trkpt lat="47.75213" lon="-1.84222">
        <ele>56.2</ele>
      </trkpt>
      <trkpt lat="47.75214" lon="-1.84214">
        <ele>56.2</ele>
      </trkpt>
      <trkpt lat="47.75216" lon="-1.84206">
        <ele>56.1</ele>
      </trkpt>
      <trkpt lat="47.75217" lon="-1.84198">
        <ele>56.1</ele>
      </trkpt>
      <trkpt lat="47.75218" lon="-1.84191">
        <ele>56.1</ele>
      </trkpt>
      <trkpt lat="47.7522" lon="-1.84183">
        <ele>56</ele>
      </trkpt>
      <trkpt lat="47.75221" lon="-1.84175">
        <ele>56</ele>
      </trkpt>
      <trkpt lat="47.75222" lon="-1.84166">
        <ele>56</ele>
      </trkpt>
      <trkpt lat="47.75223" lon="-1.84158">
        <ele>55.9</ele>
      </trkpt>
      <trkpt lat="47.75225" lon="-1.8415">
        <ele>55.7</ele>
      </trkpt>
      <trkpt lat="47.75226" lon="-1.84141">
        <ele>55.6</ele>
      </trkpt>
      <trkpt lat="47.75228" lon="-1.84132">
        <ele>55.5</ele>
      </trkpt>
      <trkpt lat="47.75229" lon="-1.84123">
        <ele>55.3</ele>
      </trkpt>
      <trkpt lat="47.75231" lon="-1.84114">
        <ele>55.2</ele>
      </trkpt>
      <trkpt lat="47.75233" lon="-1.84105">
        <ele>55.1</ele>
      </trkpt>
      <trkpt lat="47.75234" lon="-1.84096">
        <ele>55</ele>
      </trkpt>
      <trkpt lat="47.75236" lon="-1.84087">
        <ele>54.9</ele>
      </trkpt>
      <trkpt lat="47.75237" lon="-1.84077">
        <ele>54.7</ele>
      </trkpt>
      <trkpt lat="47.75238" lon="-1.8407">
        <ele>54.6</ele>
      </trkpt>
      <trkpt lat="47.7524" lon="-1.84057">
        <ele>54.4</ele>
      </trkpt>
      <trkpt lat="47.75241" lon="-1.84047">
        <ele>54.2</ele>
      </trkpt>
      <trkpt lat="47.75242" lon="-1.84037">
        <ele>54.1</ele>
      </trkpt>
      <trkpt lat="47.75244" lon="-1.84027">
        <ele>54</ele>
      </trkpt>
      <trkpt lat="47.75246" lon="-1.84018">
        <ele>53.9</ele>
      </trkpt>
      <trkpt lat="47.75247" lon="-1.84011">
        <ele>53.9</ele>
      </trkpt>
      <trkpt lat="47.75248" lon="-1.84006">
        <ele>53.9</ele>
      </trkpt>
      <trkpt lat="47.75248" lon="-1.84005">
        <ele>53.9</ele>
      </trkpt>
      <trkpt lat="47.75248" lon="-1.84005">
        <ele>53.9</ele>
      </trkpt>
      <trkpt lat="47.75248" lon="-1.84005">
        <ele>53.9</ele>
      </trkpt>
      <trkpt lat="47.75248" lon="-1.84005">
        <ele>53.9</ele>
      </trkpt>
      <trkpt lat="47.75248" lon="-1.84005">
        <ele>53.9</ele>
      </trkpt>
      <trkpt lat="47.75248" lon="-1.84005">
        <ele>53.9</ele>
      </trkpt>
      <trkpt lat="47.75248" lon="-1.84004">
        <ele>53.9</ele>
      </trkpt>
      <trkpt lat="47.75249" lon="-1.84002">
        <ele>53.9</ele>
      </trkpt>
      <trkpt lat="47.75249" lon="-1.83999">
        <ele>53.9</ele>
      </trkpt>
      <trkpt lat="47.7525" lon="-1.83996">
        <ele>54</ele>
      </trkpt>
      <trkpt lat="47.75251" lon="-1.83992">
        <ele>53.9</ele>
      </trkpt>
      <trkpt lat="47.75251" lon="-1.83987">
        <ele>53.9</ele>
      </trkpt>
      <trkpt lat="47.75252" lon="-1.83981">
        <ele>53.8</ele>
      </trkpt>
      <trkpt lat="47.75253" lon="-1.83975">
        <ele>53.7</ele>
      </trkpt>
      <trkpt lat="47.75253" lon="-1.83969">
        <ele>53.7</ele>
      </trkpt>
      <trkpt lat="47.75255" lon="-1.83961">
        <ele>53.5</ele>
      </trkpt>
      <trkpt lat="47.75256" lon="-1.83954">
        <ele>53.4</ele>
      </trkpt>
      <trkpt lat="47.75257" lon="-1.83947">
        <ele>53.3</ele>
      </trkpt>
      <trkpt lat="47.75258" lon="-1.83941">
        <ele>53.2</ele>
      </trkpt>
      <trkpt lat="47.7526" lon="-1.83934">
        <ele>53.1</ele>
      </trkpt>
      <trkpt lat="47.75261" lon="-1.83927">
        <ele>52.9</ele>
      </trkpt>
      <trkpt lat="47.75263" lon="-1.8392">
        <ele>52.8</ele>
      </trkpt>
      <trkpt lat="47.75264" lon="-1.8391">
        <ele>51.5</ele>
      </trkpt>
      <trkpt lat="47.75264" lon="-1.83903">
        <ele>50.2</ele>
      </trkpt>
      <trkpt lat="47.75265" lon="-1.83894">
        <ele>48.6</ele>
      </trkpt>
      <trkpt lat="47.75265" lon="-1.83886">
        <ele>47</ele>
      </trkpt>
      <trkpt lat="47.75265" lon="-1.83877">
        <ele>45.6</ele>
      </trkpt>
      <trkpt lat="47.75264" lon="-1.83869">
        <ele>44.1</ele>
      </trkpt>
      <trkpt lat="47.75262" lon="-1.83861">
        <ele>42.9</ele>
      </trkpt>
      <trkpt lat="47.75261" lon="-1.83856">
        <ele>42.1</ele>
      </trkpt>
      <trkpt lat="47.7526" lon="-1.83849">
        <ele>40.9</ele>
      </trkpt>
      <trkpt lat="47.75262" lon="-1.83845">
        <ele>40.1</ele>
      </trkpt>
      <trkpt lat="47.75265" lon="-1.83843">
        <ele>39.4</ele>
      </trkpt>
      <trkpt lat="47.75268" lon="-1.83842">
        <ele>39</ele>
      </trkpt>
      <trkpt lat="47.75272" lon="-1.83841">
        <ele>38.6</ele>
      </trkpt>
      <trkpt lat="47.75275" lon="-1.83842">
        <ele>38.4</ele>
      </trkpt>
      <trkpt lat="47.7528" lon="-1.83842">
        <ele>38.1</ele>
      </trkpt>
      <trkpt lat="47.75284" lon="-1.83843">
        <ele>37.9</ele>
      </trkpt>
      <trkpt lat="47.75287" lon="-1.83845">
        <ele>37.8</ele>
      </trkpt>
      <trkpt lat="47.75291" lon="-1.83847">
        <ele>38</ele>
      </trkpt>
      <trkpt lat="47.75295" lon="-1.83851">
        <ele>38.3</ele>
      </trkpt>
      <trkpt lat="47.75299" lon="-1.83854">
        <ele>38.5</ele>
      </trkpt>
      <trkpt lat="47.75303" lon="-1.83858">
        <ele>38.7</ele>
      </trkpt>
      <trkpt lat="47.75307" lon="-1.83863">
        <ele>39.2</ele>
      </trkpt>
      <trkpt lat="47.75312" lon="-1.83868">
        <ele>39.8</ele>
      </trkpt>
      <trkpt lat="47.75316" lon="-1.83874">
        <ele>40.4</ele>
      </trkpt>
      <trkpt lat="47.75322" lon="-1.83883">
        <ele>41.4</ele>
      </trkpt>
      <trkpt lat="47.75326" lon="-1.8389">
        <ele>42.2</ele>
      </trkpt>
      <trkpt lat="47.7533" lon="-1.83897">
        <ele>43.1</ele>
      </trkpt>
      <trkpt lat="47.75332" lon="-1.83906">
        <ele>44.4</ele>
      </trkpt>
      <trkpt lat="47.75334" lon="-1.83915">
        <ele>45.7</ele>
      </trkpt>
      <trkpt lat="47.75335" lon="-1.83924">
        <ele>45.8</ele>
      </trkpt>
      <trkpt lat="47.75336" lon="-1.83933">
        <ele>45.8</ele>
      </trkpt>
      <trkpt lat="47.75337" lon="-1.83941">
        <ele>45.7</ele>
      </trkpt>
      <trkpt lat="47.75338" lon="-1.83948">
        <ele>45.6</ele>
      </trkpt>
      <trkpt lat="47.75339" lon="-1.83952">
        <ele>45.5</ele>
      </trkpt>
      <trkpt lat="47.75341" lon="-1.83956">
        <ele>45.4</ele>
      </trkpt>
      <trkpt lat="47.75344" lon="-1.83957">
        <ele>45.2</ele>
      </trkpt>
      <trkpt lat="47.75347" lon="-1.83958">
        <ele>44.9</ele>
      </trkpt>
      <trkpt lat="47.75351" lon="-1.83958">
        <ele>44.6</ele>
      </trkpt>
      <trkpt lat="47.75355" lon="-1.83958">
        <ele>44.3</ele>
      </trkpt>
      <trkpt lat="47.75359" lon="-1.83957">
        <ele>44</ele>
      </trkpt>
      <trkpt lat="47.75363" lon="-1.83956">
        <ele>43.6</ele>
      </trkpt>
      <trkpt lat="47.75367" lon="-1.83954">
        <ele>43.3</ele>
      </trkpt>
      <trkpt lat="47.7537" lon="-1.8395">
        <ele>42.9</ele>
      </trkpt>
      <trkpt lat="47.75372" lon="-1.83947">
        <ele>42.7</ele>
      </trkpt>
      <trkpt lat="47.75374" lon="-1.83945">
        <ele>42.4</ele>
      </trkpt>
      <trkpt lat="47.75376" lon="-1.83943">
        <ele>42.2</ele>
      </trkpt>
      <trkpt lat="47.75377" lon="-1.83942">
        <ele>42</ele>
      </trkpt>
      <trkpt lat="47.75379" lon="-1.8394">
        <ele>41.8</ele>
      </trkpt>
      <trkpt lat="47.75381" lon="-1.8394">
        <ele>41.6</ele>
      </trkpt>
      <trkpt lat="47.75383" lon="-1.83939">
        <ele>41.4</ele>
      </trkpt>
      <trkpt lat="47.75385" lon="-1.83937">
        <ele>41.2</ele>
      </trkpt>
      <trkpt lat="47.75387" lon="-1.83936">
        <ele>40.9</ele>
      </trkpt>
      <trkpt lat="47.75389" lon="-1.83933">
        <ele>40.7</ele>
      </trkpt>
      <trkpt lat="47.7539" lon="-1.83931">
        <ele>40.4</ele>
      </trkpt>
      <trkpt lat="47.75392" lon="-1.83928">
        <ele>40.1</ele>
      </trkpt>
      <trkpt lat="47.75393" lon="-1.83924">
        <ele>39.9</ele>
      </trkpt>
      <trkpt lat="47.75394" lon="-1.83919">
        <ele>39.5</ele>
      </trkpt>
      <trkpt lat="47.75396" lon="-1.83916">
        <ele>39.1</ele>
      </trkpt>
      <trkpt lat="47.75398" lon="-1.83912">
        <ele>38.6</ele>
      </trkpt>
      <trkpt lat="47.754" lon="-1.8391">
        <ele>38.2</ele>
      </trkpt>
      <trkpt lat="47.75403" lon="-1.83906">
        <ele>37.7</ele>
      </trkpt>
      <trkpt lat="47.75404" lon="-1.83902">
        <ele>37.2</ele>
      </trkpt>
      <trkpt lat="47.75405" lon="-1.83897">
        <ele>36.8</ele>
      </trkpt>
      <trkpt lat="47.75407" lon="-1.83892">
        <ele>36.3</ele>
      </trkpt>
      <trkpt lat="47.7541" lon="-1.83889">
        <ele>35.8</ele>
      </trkpt>
      <trkpt lat="47.75413" lon="-1.83888">
        <ele>35.5</ele>
      </trkpt>
      <trkpt lat="47.75416" lon="-1.83888">
        <ele>35.3</ele>
      </trkpt>
      <trkpt lat="47.75419" lon="-1.83889">
        <ele>35.3</ele>
      </trkpt>
      <trkpt lat="47.75422" lon="-1.8389">
        <ele>35.4</ele>
      </trkpt>
      <trkpt lat="47.75426" lon="-1.83892">
        <ele>35.5</ele>
      </trkpt>
      <trkpt lat="47.75429" lon="-1.83893">
        <ele>35.5</ele>
      </trkpt>
      <trkpt lat="47.75433" lon="-1.83894">
        <ele>35.5</ele>
      </trkpt>
      <trkpt lat="47.75437" lon="-1.83896">
        <ele>35.6</ele>
      </trkpt>
      <trkpt lat="47.75441" lon="-1.83899">
        <ele>35.6</ele>
      </trkpt>
      <trkpt lat="47.75445" lon="-1.839">
        <ele>35.6</ele>
      </trkpt>
      <trkpt lat="47.7545" lon="-1.83902">
        <ele>35.5</ele>
      </trkpt>
      <trkpt lat="47.75455" lon="-1.83903">
        <ele>35.5</ele>
      </trkpt>
      <trkpt lat="47.7546" lon="-1.83906">
        <ele>35.4</ele>
      </trkpt>
      <trkpt lat="47.75465" lon="-1.83907">
        <ele>35.3</ele>
      </trkpt>
      <trkpt lat="47.7547" lon="-1.83909">
        <ele>35.1</ele>
      </trkpt>
      <trkpt lat="47.75475" lon="-1.83911">
        <ele>35</ele>
      </trkpt>
      <trkpt lat="47.75479" lon="-1.83913">
        <ele>34.8</ele>
      </trkpt>
      <trkpt lat="47.75483" lon="-1.83915">
        <ele>34.7</ele>
      </trkpt>
      <trkpt lat="47.75486" lon="-1.83917">
        <ele>34.5</ele>
      </trkpt>
      <trkpt lat="47.75489" lon="-1.8392">
        <ele>34.8</ele>
      </trkpt>
      <trkpt lat="47.75491" lon="-1.83924">
        <ele>35.3</ele>
      </trkpt>
      <trkpt lat="47.75493" lon="-1.83927">
        <ele>35.7</ele>
      </trkpt>
      <trkpt lat="47.75494" lon="-1.8393">
        <ele>36.1</ele>
      </trkpt>
      <trkpt lat="47.75496" lon="-1.83933">
        <ele>36.4</ele>
      </trkpt>
      <trkpt lat="47.75498" lon="-1.83934">
        <ele>36.5</ele>
      </trkpt>
      <trkpt lat="47.755" lon="-1.83935">
        <ele>36.6</ele>
      </trkpt>
      <trkpt lat="47.75502" lon="-1.83936">
        <ele>36.8</ele>
      </trkpt>
      <trkpt lat="47.75504" lon="-1.83937">
        <ele>37</ele>
      </trkpt>
      <trkpt lat="47.75506" lon="-1.83938">
        <ele>37.1</ele>
      </trkpt>
      <trkpt lat="47.75507" lon="-1.83938">
        <ele>37.1</ele>
      </trkpt>
      <trkpt lat="47.75509" lon="-1.83938">
        <ele>37.2</ele>
      </trkpt>
      <trkpt lat="47.75511" lon="-1.83939">
        <ele>37.4</ele>
      </trkpt>
      <trkpt lat="47.75513" lon="-1.8394">
        <ele>37.6</ele>
      </trkpt>
      <trkpt lat="47.75515" lon="-1.83942">
        <ele>37.8</ele>
      </trkpt>
      <trkpt lat="47.75517" lon="-1.83943">
        <ele>38</ele>
      </trkpt>
      <trkpt lat="47.75518" lon="-1.83944">
        <ele>38.2</ele>
      </trkpt>
      <trkpt lat="47.7552" lon="-1.83945">
        <ele>38.4</ele>
      </trkpt>
      <trkpt lat="47.75521" lon="-1.83946">
        <ele>38.6</ele>
      </trkpt>
      <trkpt lat="47.75523" lon="-1.83947">
        <ele>38.8</ele>
      </trkpt>
      <trkpt lat="47.75523" lon="-1.83948">
        <ele>38.9</ele>
      </trkpt>
      <trkpt lat="47.75523" lon="-1.83948">
        <ele>38.9</ele>
      </trkpt>
      <trkpt lat="47.75526" lon="-1.83948">
        <ele>39</ele>
      </trkpt>
      <trkpt lat="47.75527" lon="-1.83948">
        <ele>39</ele>
      </trkpt>
      <trkpt lat="47.75529" lon="-1.83949">
        <ele>39.1</ele>
      </trkpt>
      <trkpt lat="47.7553" lon="-1.83949">
        <ele>39.2</ele>
      </trkpt>
      <trkpt lat="47.75531" lon="-1.8395">
        <ele>39.3</ele>
      </trkpt>
      <trkpt lat="47.75533" lon="-1.83951">
        <ele>39.5</ele>
      </trkpt>
      <trkpt lat="47.75535" lon="-1.83953">
        <ele>39.8</ele>
      </trkpt>
      <trkpt lat="47.75537" lon="-1.83954">
        <ele>40.1</ele>
      </trkpt>
      <trkpt lat="47.75539" lon="-1.83956">
        <ele>40.3</ele>
      </trkpt>
      <trkpt lat="47.75541" lon="-1.83957">
        <ele>40.5</ele>
      </trkpt>
      <trkpt lat="47.75543" lon="-1.83958">
        <ele>40.8</ele>
      </trkpt>
      <trkpt lat="47.75546" lon="-1.83961">
        <ele>41.2</ele>
      </trkpt>
      <trkpt lat="47.7555" lon="-1.83963">
        <ele>41.6</ele>
      </trkpt>
      <trkpt lat="47.75553" lon="-1.83965">
        <ele>42</ele>
      </trkpt>
      <trkpt lat="47.75556" lon="-1.83965">
        <ele>42.1</ele>
      </trkpt>
      <trkpt lat="47.75558" lon="-1.83967">
        <ele>42.3</ele>
      </trkpt>
      <trkpt lat="47.7556" lon="-1.83969">
        <ele>42.7</ele>
      </trkpt>
      <trkpt lat="47.75562" lon="-1.83969">
        <ele>42.8</ele>
      </trkpt>
      <trkpt lat="47.75563" lon="-1.83971">
        <ele>43</ele>
      </trkpt>
      <trkpt lat="47.75565" lon="-1.83973">
        <ele>43.4</ele>
      </trkpt>
      <trkpt lat="47.75566" lon="-1.83974">
        <ele>43.6</ele>
      </trkpt>
      <trkpt lat="47.75566" lon="-1.83975">
        <ele>43.8</ele>
      </trkpt>
      <trkpt lat="47.75568" lon="-1.83977">
        <ele>44.1</ele>
      </trkpt>
      <trkpt lat="47.7557" lon="-1.83978">
        <ele>44.3</ele>
      </trkpt>
      <trkpt lat="47.75572" lon="-1.83979">
        <ele>44.4</ele>
      </trkpt>
      <trkpt lat="47.75574" lon="-1.83978">
        <ele>44.4</ele>
      </trkpt>
      <trkpt lat="47.75577" lon="-1.8398">
        <ele>44.7</ele>
      </trkpt>
      <trkpt lat="47.75582" lon="-1.83983">
        <ele>45.3</ele>
      </trkpt>
      <trkpt lat="47.75586" lon="-1.83983">
        <ele>45.2</ele>
      </trkpt>
      <trkpt lat="47.75588" lon="-1.83983">
        <ele>45.1</ele>
      </trkpt>
      <trkpt lat="47.7559" lon="-1.83983">
        <ele>45</ele>
      </trkpt>
      <trkpt lat="47.75591" lon="-1.83983">
        <ele>44.9</ele>
      </trkpt>
      <trkpt lat="47.75594" lon="-1.83985">
        <ele>45</ele>
      </trkpt>
      <trkpt lat="47.75596" lon="-1.83986">
        <ele>45.1</ele>
      </trkpt>
      <trkpt lat="47.75599" lon="-1.83988">
        <ele>45.1</ele>
      </trkpt>
      <trkpt lat="47.75602" lon="-1.83989">
        <ele>44.9</ele>
      </trkpt>
      <trkpt lat="47.75606" lon="-1.83989">
        <ele>44.7</ele>
      </trkpt>
      <trkpt lat="47.75608" lon="-1.8399">
        <ele>44.6</ele>
      </trkpt>
      <trkpt lat="47.75609" lon="-1.83991">
        <ele>44.6</ele>
      </trkpt>
      <trkpt lat="47.7561" lon="-1.83992">
        <ele>44.7</ele>
      </trkpt>
      <trkpt lat="47.75612" lon="-1.83994">
        <ele>44.7</ele>
      </trkpt>
      <trkpt lat="47.75614" lon="-1.83995">
        <ele>44.7</ele>
      </trkpt>
      <trkpt lat="47.75614" lon="-1.83996">
        <ele>44.7</ele>
      </trkpt>
      <trkpt lat="47.75615" lon="-1.83996">
        <ele>44.6</ele>
      </trkpt>
      <trkpt lat="47.75616" lon="-1.83996">
        <ele>44.5</ele>
      </trkpt>
      <trkpt lat="47.75618" lon="-1.83995">
        <ele>44.3</ele>
      </trkpt>
      <trkpt lat="47.7562" lon="-1.83995">
        <ele>44.1</ele>
      </trkpt>
      <trkpt lat="47.75622" lon="-1.83996">
        <ele>44</ele>
      </trkpt>
      <trkpt lat="47.75624" lon="-1.83998">
        <ele>44</ele>
      </trkpt>
      <trkpt lat="47.75625" lon="-1.83999">
        <ele>43.9</ele>
      </trkpt>
      <trkpt lat="47.75627" lon="-1.84001">
        <ele>43.9</ele>
      </trkpt>
      <trkpt lat="47.75629" lon="-1.84001">
        <ele>43.7</ele>
      </trkpt>
      <trkpt lat="47.75632" lon="-1.84002">
        <ele>43.6</ele>
      </trkpt>
      <trkpt lat="47.75634" lon="-1.84003">
        <ele>43.6</ele>
      </trkpt>
      <trkpt lat="47.75636" lon="-1.84005">
        <ele>43.7</ele>
      </trkpt>
      <trkpt lat="47.75638" lon="-1.84007">
        <ele>43.8</ele>
      </trkpt>
      <trkpt lat="47.75639" lon="-1.84008">
        <ele>43.8</ele>
      </trkpt>
      <trkpt lat="47.75641" lon="-1.8401">
        <ele>43.9</ele>
      </trkpt>
      <trkpt lat="47.75643" lon="-1.84011">
        <ele>43.9</ele>
      </trkpt>
      <trkpt lat="47.75644" lon="-1.84012">
        <ele>43.9</ele>
      </trkpt>
      <trkpt lat="47.75646" lon="-1.84014">
        <ele>44</ele>
      </trkpt>
      <trkpt lat="47.75649" lon="-1.84017">
        <ele>44.1</ele>
      </trkpt>
      <trkpt lat="47.75651" lon="-1.84019">
        <ele>44.2</ele>
      </trkpt>
      <trkpt lat="47.75655" lon="-1.84021">
        <ele>44.1</ele>
      </trkpt>
      <trkpt lat="47.75658" lon="-1.84022">
        <ele>44</ele>
      </trkpt>
      <trkpt lat="47.75662" lon="-1.84022">
        <ele>43.7</ele>
      </trkpt>
      <trkpt lat="47.75666" lon="-1.84022">
        <ele>43.2</ele>
      </trkpt>
      <trkpt lat="47.75671" lon="-1.84021">
        <ele>43</ele>
      </trkpt>
      <trkpt lat="47.75676" lon="-1.84019">
        <ele>42.6</ele>
      </trkpt>
      <trkpt lat="47.75681" lon="-1.84017">
        <ele>42.4</ele>
      </trkpt>
      <trkpt lat="47.75685" lon="-1.84018">
        <ele>42.4</ele>
      </trkpt>
      <trkpt lat="47.75688" lon="-1.84019">
        <ele>42.5</ele>
      </trkpt>
      <trkpt lat="47.75692" lon="-1.84023">
        <ele>43</ele>
      </trkpt>
      <trkpt lat="47.75692" lon="-1.84023">
        <ele>43</ele>
      </trkpt>
      <trkpt lat="47.75695" lon="-1.84026">
        <ele>43.2</ele>
      </trkpt>
      <trkpt lat="47.75696" lon="-1.84029">
        <ele>43.5</ele>
      </trkpt>
      <trkpt lat="47.75696" lon="-1.84032">
        <ele>43.9</ele>
      </trkpt>
      <trkpt lat="47.75698" lon="-1.84035">
        <ele>44.2</ele>
      </trkpt>
      <trkpt lat="47.75698" lon="-1.84038">
        <ele>44.5</ele>
      </trkpt>
      <trkpt lat="47.75699" lon="-1.8404">
        <ele>44.7</ele>
      </trkpt>
      <trkpt lat="47.75699" lon="-1.84042">
        <ele>44.9</ele>
      </trkpt>
      <trkpt lat="47.75699" lon="-1.84044">
        <ele>45</ele>
      </trkpt>
      <trkpt lat="47.757" lon="-1.84045">
        <ele>45.2</ele>
      </trkpt>
      <trkpt lat="47.75701" lon="-1.84047">
        <ele>45.3</ele>
      </trkpt>
      <trkpt lat="47.75701" lon="-1.84049">
        <ele>45.5</ele>
      </trkpt>
      <trkpt lat="47.75703" lon="-1.84051">
        <ele>45.6</ele>
      </trkpt>
      <trkpt lat="47.75704" lon="-1.84052">
        <ele>45.7</ele>
      </trkpt>
      <trkpt lat="47.75705" lon="-1.84054">
        <ele>45.8</ele>
      </trkpt>
      <trkpt lat="47.75708" lon="-1.84056">
        <ele>45.9</ele>
      </trkpt>
      <trkpt lat="47.7571" lon="-1.84058">
        <ele>46</ele>
      </trkpt>
      <trkpt lat="47.75713" lon="-1.84059">
        <ele>45.9</ele>
      </trkpt>
      <trkpt lat="47.75716" lon="-1.84059">
        <ele>45.8</ele>
      </trkpt>
      <trkpt lat="47.75719" lon="-1.8406">
        <ele>45.6</ele>
      </trkpt>
      <trkpt lat="47.75722" lon="-1.84061">
        <ele>45.6</ele>
      </trkpt>
      <trkpt lat="47.75725" lon="-1.84064">
        <ele>45.6</ele>
      </trkpt>
      <trkpt lat="47.75727" lon="-1.84067">
        <ele>45.7</ele>
      </trkpt>
      <trkpt lat="47.7573" lon="-1.84071">
        <ele>45.8</ele>
      </trkpt>
      <trkpt lat="47.75733" lon="-1.84074">
        <ele>45.8</ele>
      </trkpt>
      <trkpt lat="47.75736" lon="-1.84078">
        <ele>45.8</ele>
      </trkpt>
      <trkpt lat="47.75739" lon="-1.8408">
        <ele>45.8</ele>
      </trkpt>
      <trkpt lat="47.75741" lon="-1.84083">
        <ele>45.7</ele>
      </trkpt>
      <trkpt lat="47.75744" lon="-1.84085">
        <ele>45.6</ele>
      </trkpt>
      <trkpt lat="47.75745" lon="-1.84088">
        <ele>45.6</ele>
      </trkpt>
      <trkpt lat="47.75747" lon="-1.84091">
        <ele>45.7</ele>
      </trkpt>
      <trkpt lat="47.75747" lon="-1.84094">
        <ele>45.7</ele>
      </trkpt>
      <trkpt lat="47.75748" lon="-1.84095">
        <ele>45.8</ele>
      </trkpt>
      <trkpt lat="47.75748" lon="-1.84095">
        <ele>45.8</ele>
      </trkpt>
      <trkpt lat="47.75748" lon="-1.84095">
        <ele>45.8</ele>
      </trkpt>
      <trkpt lat="47.75748" lon="-1.84095">
        <ele>45.8</ele>
      </trkpt>
      <trkpt lat="47.75748" lon="-1.84095">
        <ele>45.8</ele>
      </trkpt>
      <trkpt lat="47.75748" lon="-1.84095">
        <ele>45.8</ele>
      </trkpt>
      <trkpt lat="47.75748" lon="-1.84095">
        <ele>45.8</ele>
      </trkpt>
      <trkpt lat="47.75748" lon="-1.84095">
        <ele>45.8</ele>
      </trkpt>
      <trkpt lat="47.75748" lon="-1.84095">
        <ele>45.8</ele>
      </trkpt>
      <trkpt lat="47.75748" lon="-1.84095">
        <ele>45.8</ele>
      </trkpt>
      <trkpt lat="47.75748" lon="-1.84095">
        <ele>45.8</ele>
      </trkpt>
      <trkpt lat="47.75748" lon="-1.84095">
        <ele>45.8</ele>
      </trkpt>
      <trkpt lat="47.75748" lon="-1.84095">
        <ele>45.8</ele>
      </trkpt>
      <trkpt lat="47.75748" lon="-1.84095">
        <ele>45.8</ele>
      </trkpt>
      <trkpt lat="47.75748" lon="-1.84095">
        <ele>45.8</ele>
      </trkpt>
      <trkpt lat="47.75748" lon="-1.84095">
        <ele>45.8</ele>
      </trkpt>
      <trkpt lat="47.75748" lon="-1.84095">
        <ele>45.8</ele>
      </trkpt>
      <trkpt lat="47.75748" lon="-1.84096">
        <ele>45.8</ele>
      </trkpt>
      <trkpt lat="47.75749" lon="-1.84098">
        <ele>45.8</ele>
      </trkpt>
      <trkpt lat="47.75751" lon="-1.84101">
        <ele>45.9</ele>
      </trkpt>
      <trkpt lat="47.75755" lon="-1.84107">
        <ele>46.3</ele>
      </trkpt>
      <trkpt lat="47.75755" lon="-1.84107">
        <ele>46.3</ele>
      </trkpt>
      <trkpt lat="47.75756" lon="-1.8411">
        <ele>46.6</ele>
      </trkpt>
      <trkpt lat="47.75758" lon="-1.84113">
        <ele>46.8</ele>
      </trkpt>
      <trkpt lat="47.7576" lon="-1.84114">
        <ele>46.9</ele>
      </trkpt>
      <trkpt lat="47.75762" lon="-1.84116">
        <ele>47</ele>
      </trkpt>
      <trkpt lat="47.75763" lon="-1.84117">
        <ele>47.2</ele>
      </trkpt>
      <trkpt lat="47.75764" lon="-1.8412">
        <ele>47.3</ele>
      </trkpt>
      <trkpt lat="47.75765" lon="-1.84123">
        <ele>47.4</ele>
      </trkpt>
      <trkpt lat="47.75766" lon="-1.84126">
        <ele>47.6</ele>
      </trkpt>
      <trkpt lat="47.75767" lon="-1.84129">
        <ele>47.8</ele>
      </trkpt>
      <trkpt lat="47.75769" lon="-1.84135">
        <ele>48</ele>
      </trkpt>
      <trkpt lat="47.7577" lon="-1.84138">
        <ele>48.2</ele>
      </trkpt>
      <trkpt lat="47.75772" lon="-1.84143">
        <ele>48.4</ele>
      </trkpt>
      <trkpt lat="47.75773" lon="-1.84147">
        <ele>48.6</ele>
      </trkpt>
      <trkpt lat="47.75773" lon="-1.84151">
        <ele>48.7</ele>
      </trkpt>
      <trkpt lat="47.75774" lon="-1.84154">
        <ele>48.9</ele>
      </trkpt>
      <trkpt lat="47.75776" lon="-1.84159">
        <ele>49.1</ele>
      </trkpt>
      <trkpt lat="47.75777" lon="-1.84162">
        <ele>49.2</ele>
      </trkpt>
      <trkpt lat="47.75779" lon="-1.84166">
        <ele>49.3</ele>
      </trkpt>
      <trkpt lat="47.7578" lon="-1.84169">
        <ele>49.5</ele>
      </trkpt>
      <trkpt lat="47.75781" lon="-1.84171">
        <ele>49.7</ele>
      </trkpt>
      <trkpt lat="47.75782" lon="-1.84175">
        <ele>49.9</ele>
      </trkpt>
      <trkpt lat="47.75783" lon="-1.8418">
        <ele>50.3</ele>
      </trkpt>
      <trkpt lat="47.75783" lon="-1.84185">
        <ele>50.6</ele>
      </trkpt>
      <trkpt lat="47.75784" lon="-1.84189">
        <ele>50.9</ele>
      </trkpt>
      <trkpt lat="47.75786" lon="-1.84193">
        <ele>51.1</ele>
      </trkpt>
      <trkpt lat="47.75787" lon="-1.84196">
        <ele>51.3</ele>
      </trkpt>
      <trkpt lat="47.75789" lon="-1.842">
        <ele>51.5</ele>
      </trkpt>
      <trkpt lat="47.75791" lon="-1.84204">
        <ele>51.7</ele>
      </trkpt>
      <trkpt lat="47.75793" lon="-1.84208">
        <ele>52</ele>
      </trkpt>
      <trkpt lat="47.75795" lon="-1.84211">
        <ele>52.1</ele>
      </trkpt>
      <trkpt lat="47.75796" lon="-1.84214">
        <ele>52.3</ele>
      </trkpt>
      <trkpt lat="47.75798" lon="-1.84218">
        <ele>52.5</ele>
      </trkpt>
      <trkpt lat="47.75799" lon="-1.84221">
        <ele>52.6</ele>
      </trkpt>
      <trkpt lat="47.75799" lon="-1.84226">
        <ele>52.9</ele>
      </trkpt>
      <trkpt lat="47.758" lon="-1.8423">
        <ele>53.1</ele>
      </trkpt>
      <trkpt lat="47.758" lon="-1.84233">
        <ele>53.3</ele>
      </trkpt>
      <trkpt lat="47.758" lon="-1.84237">
        <ele>53.5</ele>
      </trkpt>
      <trkpt lat="47.758" lon="-1.84241">
        <ele>53.7</ele>
      </trkpt>
      <trkpt lat="47.758" lon="-1.84244">
        <ele>53.9</ele>
      </trkpt>
      <trkpt lat="47.758" lon="-1.84248">
        <ele>54.1</ele>
      </trkpt>
      <trkpt lat="47.758" lon="-1.84252">
        <ele>54.3</ele>
      </trkpt>
      <trkpt lat="47.75801" lon="-1.84255">
        <ele>54.4</ele>
      </trkpt>
      <trkpt lat="47.75801" lon="-1.84259">
        <ele>54.6</ele>
      </trkpt>
      <trkpt lat="47.75801" lon="-1.84263">
        <ele>54.7</ele>
      </trkpt>
      <trkpt lat="47.75801" lon="-1.84267">
        <ele>54.9</ele>
      </trkpt>
      <trkpt lat="47.75801" lon="-1.8427">
        <ele>55.1</ele>
      </trkpt>
      <trkpt lat="47.758" lon="-1.84274">
        <ele>55.2</ele>
      </trkpt>
      <trkpt lat="47.75799" lon="-1.84277">
        <ele>55.4</ele>
      </trkpt>
      <trkpt lat="47.75798" lon="-1.84284">
        <ele>55.7</ele>
      </trkpt>
      <trkpt lat="47.75798" lon="-1.84284">
        <ele>55.7</ele>
      </trkpt>
      <trkpt lat="47.75797" lon="-1.84286">
        <ele>55.9</ele>
      </trkpt>
      <trkpt lat="47.75793" lon="-1.84297">
        <ele>56.4</ele>
      </trkpt>
      <trkpt lat="47.75786" lon="-1.84305">
        <ele>57</ele>
      </trkpt>
      <trkpt lat="47.75784" lon="-1.84307">
        <ele>57.1</ele>
      </trkpt>
      <trkpt lat="47.75781" lon="-1.8431">
        <ele>57.3</ele>
      </trkpt>
      <trkpt lat="47.75776" lon="-1.84318">
        <ele>57.7</ele>
      </trkpt>
      <trkpt lat="47.75774" lon="-1.84327">
        <ele>58.2</ele>
      </trkpt>
      <trkpt lat="47.75773" lon="-1.8433">
        <ele>58.3</ele>
      </trkpt>
      <trkpt lat="47.75773" lon="-1.84333">
        <ele>58.4</ele>
      </trkpt>
      <trkpt lat="47.75772" lon="-1.8434">
        <ele>58.7</ele>
      </trkpt>
      <trkpt lat="47.7577" lon="-1.84342">
        <ele>58.7</ele>
      </trkpt>
      <trkpt lat="47.75765" lon="-1.8435">
        <ele>59.1</ele>
      </trkpt>
      <trkpt lat="47.7576" lon="-1.84356">
        <ele>59.3</ele>
      </trkpt>
      <trkpt lat="47.7576" lon="-1.8436">
        <ele>59.4</ele>
      </trkpt>
      <trkpt lat="47.7576" lon="-1.84362">
        <ele>59.5</ele>
      </trkpt>
      <trkpt lat="47.75759" lon="-1.84372">
        <ele>59.8</ele>
      </trkpt>
      <trkpt lat="47.75759" lon="-1.84375">
        <ele>59.8</ele>
      </trkpt>
      <trkpt lat="47.75759" lon="-1.84378">
        <ele>59.9</ele>
      </trkpt>
      <trkpt lat="47.75759" lon="-1.84384">
        <ele>60.1</ele>
      </trkpt>
      <trkpt lat="47.75761" lon="-1.84386">
        <ele>60.1</ele>
      </trkpt>
      <trkpt lat="47.75763" lon="-1.8439">
        <ele>60.2</ele>
      </trkpt>
      <trkpt lat="47.75764" lon="-1.84393">
        <ele>60.2</ele>
      </trkpt>
      <trkpt lat="47.75767" lon="-1.84395">
        <ele>60.2</ele>
      </trkpt>
      <trkpt lat="47.75769" lon="-1.84393">
        <ele>60.1</ele>
      </trkpt>
      <trkpt lat="47.75771" lon="-1.84389">
        <ele>60</ele>
      </trkpt>
      <trkpt lat="47.75771" lon="-1.84387">
        <ele>59.9</ele>
      </trkpt>
      <trkpt lat="47.75772" lon="-1.84384">
        <ele>59.8</ele>
      </trkpt>
      <trkpt lat="47.75775" lon="-1.8438">
        <ele>59.7</ele>
      </trkpt>
      <trkpt lat="47.75777" lon="-1.84378">
        <ele>59.6</ele>
      </trkpt>
      <trkpt lat="47.75781" lon="-1.84382">
        <ele>59.7</ele>
      </trkpt>
      <trkpt lat="47.75782" lon="-1.84389">
        <ele>59.8</ele>
      </trkpt>
      <trkpt lat="47.75787" lon="-1.84388">
        <ele>59.7</ele>
      </trkpt>
      <trkpt lat="47.75788" lon="-1.84385">
        <ele>59.6</ele>
      </trkpt>
      <trkpt lat="47.7579" lon="-1.84383">
        <ele>59.5</ele>
      </trkpt>
      <trkpt lat="47.7579" lon="-1.84381">
        <ele>59.4</ele>
      </trkpt>
      <trkpt lat="47.75791" lon="-1.84378">
        <ele>59.4</ele>
      </trkpt>
      <trkpt lat="47.75792" lon="-1.84373">
        <ele>59.2</ele>
      </trkpt>
      <trkpt lat="47.75794" lon="-1.84359">
        <ele>58.7</ele>
      </trkpt>
      <trkpt lat="47.75797" lon="-1.8435">
        <ele>58.4</ele>
      </trkpt>
      <trkpt lat="47.75798" lon="-1.84343">
        <ele>58.1</ele>
      </trkpt>
      <trkpt lat="47.75803" lon="-1.84342">
        <ele>58</ele>
      </trkpt>
      <trkpt lat="47.75805" lon="-1.84343">
        <ele>58</ele>
      </trkpt>
      <trkpt lat="47.75809" lon="-1.84343">
        <ele>57.9</ele>
      </trkpt>
      <trkpt lat="47.7581" lon="-1.84345">
        <ele>57.9</ele>
      </trkpt>
      <trkpt lat="47.75814" lon="-1.84349">
        <ele>58</ele>
      </trkpt>
      <trkpt lat="47.75816" lon="-1.84351">
        <ele>58</ele>
      </trkpt>
      <trkpt lat="47.7582" lon="-1.84358">
        <ele>58.2</ele>
      </trkpt>
      <trkpt lat="47.7582" lon="-1.84361">
        <ele>58.2</ele>
      </trkpt>
      <trkpt lat="47.75824" lon="-1.84369">
        <ele>58.5</ele>
      </trkpt>
      <trkpt lat="47.75823" lon="-1.84377">
        <ele>58.8</ele>
      </trkpt>
      <trkpt lat="47.75821" lon="-1.84384">
        <ele>59</ele>
      </trkpt>
      <trkpt lat="47.75822" lon="-1.84387">
        <ele>59.1</ele>
      </trkpt>
      <trkpt lat="47.75822" lon="-1.8439">
        <ele>59.2</ele>
      </trkpt>
      <trkpt lat="47.75822" lon="-1.84397">
        <ele>59.4</ele>
      </trkpt>
      <trkpt lat="47.75819" lon="-1.84403">
        <ele>59.7</ele>
      </trkpt>
      <trkpt lat="47.75818" lon="-1.84403">
        <ele>59.7</ele>
      </trkpt>
      <trkpt lat="47.75812" lon="-1.84403">
        <ele>59.8</ele>
      </trkpt>
      <trkpt lat="47.75809" lon="-1.84403">
        <ele>59.8</ele>
      </trkpt>
      <trkpt lat="47.75804" lon="-1.84409">
        <ele>60.1</ele>
      </trkpt>
      <trkpt lat="47.75802" lon="-1.84414">
        <ele>60.3</ele>
      </trkpt>
      <trkpt lat="47.75803" lon="-1.84418">
        <ele>60.3</ele>
      </trkpt>
      <trkpt lat="47.75805" lon="-1.84427">
        <ele>60.1</ele>
      </trkpt>
      <trkpt lat="47.7581" lon="-1.84434">
        <ele>59.9</ele>
      </trkpt>
      <trkpt lat="47.75815" lon="-1.84441">
        <ele>59.6</ele>
      </trkpt>
      <trkpt lat="47.75831" lon="-1.84442">
        <ele>59.1</ele>
      </trkpt>
      <trkpt lat="47.75844" lon="-1.8445">
        <ele>59.5</ele>
      </trkpt>
      <trkpt lat="47.75846" lon="-1.84448">
        <ele>59.6</ele>
      </trkpt>
      <trkpt lat="47.75852" lon="-1.84439">
        <ele>60.3</ele>
      </trkpt>
      <trkpt lat="47.75853" lon="-1.84427">
        <ele>60.7</ele>
      </trkpt>
      <trkpt lat="47.75853" lon="-1.84424">
        <ele>60.8</ele>
      </trkpt>
      <trkpt lat="47.7585" lon="-1.84414">
        <ele>60.7</ele>
      </trkpt>
      <trkpt lat="47.7585" lon="-1.84409">
        <ele>60.6</ele>
      </trkpt>
      <trkpt lat="47.75853" lon="-1.84399">
        <ele>60.4</ele>
      </trkpt>
      <trkpt lat="47.75853" lon="-1.84396">
        <ele>60.3</ele>
      </trkpt>
      <trkpt lat="47.75854" lon="-1.84386">
        <ele>60</ele>
      </trkpt>
      <trkpt lat="47.75852" lon="-1.84375">
        <ele>59.6</ele>
      </trkpt>
      <trkpt lat="47.75852" lon="-1.84365">
        <ele>59.3</ele>
      </trkpt>
      <trkpt lat="47.75852" lon="-1.84361">
        <ele>59.2</ele>
      </trkpt>
      <trkpt lat="47.75851" lon="-1.84359">
        <ele>59.1</ele>
      </trkpt>
      <trkpt lat="47.75851" lon="-1.8435">
        <ele>58.8</ele>
      </trkpt>
      <trkpt lat="47.75852" lon="-1.84336">
        <ele>58.4</ele>
      </trkpt>
      <trkpt lat="47.75851" lon="-1.84324">
        <ele>57.9</ele>
      </trkpt>
      <trkpt lat="47.75853" lon="-1.84324">
        <ele>58.1</ele>
      </trkpt>
      <trkpt lat="47.75856" lon="-1.8432">
        <ele>58.2</ele>
      </trkpt>
      <trkpt lat="47.75861" lon="-1.84318">
        <ele>58.6</ele>
      </trkpt>
      <trkpt lat="47.75863" lon="-1.84318">
        <ele>58.7</ele>
      </trkpt>
      <trkpt lat="47.75871" lon="-1.8432">
        <ele>59.4</ele>
      </trkpt>
      <trkpt lat="47.75873" lon="-1.8432">
        <ele>59.6</ele>
      </trkpt>
      <trkpt lat="47.75881" lon="-1.84322">
        <ele>60.3</ele>
      </trkpt>
      <trkpt lat="47.75886" lon="-1.84325">
        <ele>60.7</ele>
      </trkpt>
      <trkpt lat="47.75889" lon="-1.84325">
        <ele>61</ele>
      </trkpt>
      <trkpt lat="47.75891" lon="-1.84319">
        <ele>61</ele>
      </trkpt>
      <trkpt lat="47.75892" lon="-1.84317">
        <ele>61.1</ele>
      </trkpt>
      <trkpt lat="47.75894" lon="-1.84314">
        <ele>61.3</ele>
      </trkpt>
      <trkpt lat="47.75895" lon="-1.8431">
        <ele>61.4</ele>
      </trkpt>
      <trkpt lat="47.75897" lon="-1.84306">
        <ele>61.5</ele>
      </trkpt>
      <trkpt lat="47.75898" lon="-1.84301">
        <ele>61.6</ele>
      </trkpt>
      <trkpt lat="47.75899" lon="-1.84297">
        <ele>61.7</ele>
      </trkpt>
      <trkpt lat="47.759" lon="-1.84294">
        <ele>61.8</ele>
      </trkpt>
      <trkpt lat="47.75901" lon="-1.84288">
        <ele>61.9</ele>
      </trkpt>
      <trkpt lat="47.75902" lon="-1.84284">
        <ele>62.1</ele>
      </trkpt>
      <trkpt lat="47.75904" lon="-1.8428">
        <ele>62.2</ele>
      </trkpt>
      <trkpt lat="47.75905" lon="-1.84276">
        <ele>62.3</ele>
      </trkpt>
      <trkpt lat="47.75906" lon="-1.84272">
        <ele>62.5</ele>
      </trkpt>
      <trkpt lat="47.75907" lon="-1.84268">
        <ele>62.6</ele>
      </trkpt>
      <trkpt lat="47.75908" lon="-1.84264">
        <ele>62.8</ele>
      </trkpt>
      <trkpt lat="47.7591" lon="-1.84259">
        <ele>63.1</ele>
      </trkpt>
      <trkpt lat="47.75912" lon="-1.84254">
        <ele>63.3</ele>
      </trkpt>
      <trkpt lat="47.75913" lon="-1.8425">
        <ele>63.5</ele>
      </trkpt>
      <trkpt lat="47.75914" lon="-1.84246">
        <ele>63.6</ele>
      </trkpt>
      <trkpt lat="47.75916" lon="-1.84242">
        <ele>63.7</ele>
      </trkpt>
      <trkpt lat="47.75917" lon="-1.84237">
        <ele>63.7</ele>
      </trkpt>
      <trkpt lat="47.75919" lon="-1.84233">
        <ele>63.7</ele>
      </trkpt>
      <trkpt lat="47.7592" lon="-1.8423">
        <ele>63.8</ele>
      </trkpt>
      <trkpt lat="47.75921" lon="-1.84226">
        <ele>63.8</ele>
      </trkpt>
      <trkpt lat="47.75923" lon="-1.84222">
        <ele>63.9</ele>
      </trkpt>
      <trkpt lat="47.75925" lon="-1.84216">
        <ele>63.9</ele>
      </trkpt>
      <trkpt lat="47.75927" lon="-1.84212">
        <ele>64</ele>
      </trkpt>
      <trkpt lat="47.75928" lon="-1.84208">
        <ele>63.9</ele>
      </trkpt>
      <trkpt lat="47.7593" lon="-1.84202">
        <ele>64</ele>
      </trkpt>
      <trkpt lat="47.75931" lon="-1.84198">
        <ele>64</ele>
      </trkpt>
      <trkpt lat="47.75933" lon="-1.84193">
        <ele>64.1</ele>
      </trkpt>
      <trkpt lat="47.75935" lon="-1.84189">
        <ele>64.2</ele>
      </trkpt>
      <trkpt lat="47.75937" lon="-1.84185">
        <ele>64.3</ele>
      </trkpt>
      <trkpt lat="47.7594" lon="-1.84182">
        <ele>64.5</ele>
      </trkpt>
      <trkpt lat="47.75942" lon="-1.8418">
        <ele>64.7</ele>
      </trkpt>
      <trkpt lat="47.75946" lon="-1.84179">
        <ele>65</ele>
      </trkpt>
      <trkpt lat="47.75949" lon="-1.84179">
        <ele>65.3</ele>
      </trkpt>
      <trkpt lat="47.75953" lon="-1.8418">
        <ele>65.6</ele>
      </trkpt>
      <trkpt lat="47.75956" lon="-1.84181">
        <ele>65.9</ele>
      </trkpt>
      <trkpt lat="47.75959" lon="-1.84183">
        <ele>66.2</ele>
      </trkpt>
      <trkpt lat="47.75961" lon="-1.84186">
        <ele>66.5</ele>
      </trkpt>
      <trkpt lat="47.75965" lon="-1.84189">
        <ele>66.9</ele>
      </trkpt>
      <trkpt lat="47.75968" lon="-1.84192">
        <ele>67.1</ele>
      </trkpt>
      <trkpt lat="47.7597" lon="-1.84194">
        <ele>67.4</ele>
      </trkpt>
      <trkpt lat="47.75974" lon="-1.84196">
        <ele>67.7</ele>
      </trkpt>
      <trkpt lat="47.75976" lon="-1.84198">
        <ele>67.9</ele>
      </trkpt>
      <trkpt lat="47.7598" lon="-1.84201">
        <ele>68.3</ele>
      </trkpt>
      <trkpt lat="47.75983" lon="-1.84203">
        <ele>68.6</ele>
      </trkpt>
      <trkpt lat="47.75986" lon="-1.84205">
        <ele>68.8</ele>
      </trkpt>
      <trkpt lat="47.75989" lon="-1.84207">
        <ele>69.1</ele>
      </trkpt>
      <trkpt lat="47.75992" lon="-1.84209">
        <ele>69.3</ele>
      </trkpt>
      <trkpt lat="47.75996" lon="-1.84211">
        <ele>69.7</ele>
      </trkpt>
      <trkpt lat="47.75999" lon="-1.84214">
        <ele>69.9</ele>
      </trkpt>
      <trkpt lat="47.76002" lon="-1.84215">
        <ele>70.1</ele>
      </trkpt>
      <trkpt lat="47.76004" lon="-1.84217">
        <ele>70.3</ele>
      </trkpt>
      <trkpt lat="47.76008" lon="-1.8422">
        <ele>70.6</ele>
      </trkpt>
      <trkpt lat="47.76012" lon="-1.84222">
        <ele>70.9</ele>
      </trkpt>
      <trkpt lat="47.76015" lon="-1.84223">
        <ele>71.1</ele>
      </trkpt>
      <trkpt lat="47.76018" lon="-1.84225">
        <ele>71.4</ele>
      </trkpt>
      <trkpt lat="47.76021" lon="-1.84226">
        <ele>71.6</ele>
      </trkpt>
      <trkpt lat="47.76024" lon="-1.84228">
        <ele>71.9</ele>
      </trkpt>
      <trkpt lat="47.76028" lon="-1.8423">
        <ele>72.2</ele>
      </trkpt>
      <trkpt lat="47.76032" lon="-1.84232">
        <ele>72.5</ele>
      </trkpt>
      <trkpt lat="47.76035" lon="-1.84234">
        <ele>72.8</ele>
      </trkpt>
      <trkpt lat="47.76039" lon="-1.84235">
        <ele>73.1</ele>
      </trkpt>
      <trkpt lat="47.76042" lon="-1.84237">
        <ele>73.3</ele>
      </trkpt>
      <trkpt lat="47.76045" lon="-1.84238">
        <ele>73.6</ele>
      </trkpt>
      <trkpt lat="47.76049" lon="-1.8424">
        <ele>74</ele>
      </trkpt>
      <trkpt lat="47.76052" lon="-1.84242">
        <ele>74.2</ele>
      </trkpt>
      <trkpt lat="47.76055" lon="-1.84243">
        <ele>74.6</ele>
      </trkpt>
      <trkpt lat="47.76059" lon="-1.84246">
        <ele>74.9</ele>
      </trkpt>
      <trkpt lat="47.76063" lon="-1.84247">
        <ele>75.2</ele>
      </trkpt>
      <trkpt lat="47.76067" lon="-1.84248">
        <ele>75.6</ele>
      </trkpt>
      <trkpt lat="47.76071" lon="-1.8425">
        <ele>75.9</ele>
      </trkpt>
      <trkpt lat="47.76074" lon="-1.84251">
        <ele>76.2</ele>
      </trkpt>
      <trkpt lat="47.76078" lon="-1.84253">
        <ele>76.5</ele>
      </trkpt>
      <trkpt lat="47.76081" lon="-1.84255">
        <ele>76.7</ele>
      </trkpt>
      <trkpt lat="47.76085" lon="-1.84256">
        <ele>77</ele>
      </trkpt>
      <trkpt lat="47.76088" lon="-1.84257">
        <ele>77.2</ele>
      </trkpt>
      <trkpt lat="47.76092" lon="-1.84258">
        <ele>77.5</ele>
      </trkpt>
      <trkpt lat="47.76097" lon="-1.84261">
        <ele>77.7</ele>
      </trkpt>
      <trkpt lat="47.761" lon="-1.84262">
        <ele>77.9</ele>
      </trkpt>
      <trkpt lat="47.76103" lon="-1.84264">
        <ele>78.1</ele>
      </trkpt>
      <trkpt lat="47.76106" lon="-1.84265">
        <ele>78.3</ele>
      </trkpt>
      <trkpt lat="47.76109" lon="-1.84267">
        <ele>78.4</ele>
      </trkpt>
      <trkpt lat="47.76111" lon="-1.84268">
        <ele>78.6</ele>
      </trkpt>
      <trkpt lat="47.76115" lon="-1.8427">
        <ele>78.8</ele>
      </trkpt>
      <trkpt lat="47.76118" lon="-1.84271">
        <ele>79</ele>
      </trkpt>
      <trkpt lat="47.76121" lon="-1.84272">
        <ele>79.2</ele>
      </trkpt>
      <trkpt lat="47.76124" lon="-1.84273">
        <ele>79.4</ele>
      </trkpt>
      <trkpt lat="47.76127" lon="-1.84274">
        <ele>79.6</ele>
      </trkpt>
      <trkpt lat="47.76129" lon="-1.84275">
        <ele>79.8</ele>
      </trkpt>
      <trkpt lat="47.76134" lon="-1.84278">
        <ele>80.1</ele>
      </trkpt>
      <trkpt lat="47.76137" lon="-1.8428">
        <ele>80.3</ele>
      </trkpt>
      <trkpt lat="47.7614" lon="-1.84282">
        <ele>80.5</ele>
      </trkpt>
      <trkpt lat="47.76143" lon="-1.84284">
        <ele>80.8</ele>
      </trkpt>
      <trkpt lat="47.76146" lon="-1.84287">
        <ele>81</ele>
      </trkpt>
      <trkpt lat="47.76148" lon="-1.84289">
        <ele>81.2</ele>
      </trkpt>
      <trkpt lat="47.76151" lon="-1.84292">
        <ele>81.4</ele>
      </trkpt>
      <trkpt lat="47.76154" lon="-1.84295">
        <ele>81.6</ele>
      </trkpt>
      <trkpt lat="47.76157" lon="-1.84298">
        <ele>81.9</ele>
      </trkpt>
      <trkpt lat="47.7616" lon="-1.84301">
        <ele>82.1</ele>
      </trkpt>
      <trkpt lat="47.76162" lon="-1.84304">
        <ele>82.3</ele>
      </trkpt>
      <trkpt lat="47.76165" lon="-1.84307">
        <ele>82.6</ele>
      </trkpt>
      <trkpt lat="47.76168" lon="-1.84311">
        <ele>82.5</ele>
      </trkpt>
      <trkpt lat="47.7617" lon="-1.84314">
        <ele>82</ele>
      </trkpt>
      <trkpt lat="47.76173" lon="-1.84318">
        <ele>81.7</ele>
      </trkpt>
      <trkpt lat="47.76175" lon="-1.84322">
        <ele>81.3</ele>
      </trkpt>
      <trkpt lat="47.76178" lon="-1.84327">
        <ele>80.8</ele>
      </trkpt>
      <trkpt lat="47.76181" lon="-1.84333">
        <ele>80.2</ele>
      </trkpt>
      <trkpt lat="47.76184" lon="-1.84339">
        <ele>80.1</ele>
      </trkpt>
      <trkpt lat="47.76185" lon="-1.84343">
        <ele>80</ele>
      </trkpt>
      <trkpt lat="47.76187" lon="-1.84346">
        <ele>79.9</ele>
      </trkpt>
      <trkpt lat="47.76189" lon="-1.84349">
        <ele>79.7</ele>
      </trkpt>
      <trkpt lat="47.76191" lon="-1.84354">
        <ele>79.6</ele>
      </trkpt>
      <trkpt lat="47.76193" lon="-1.84359">
        <ele>79.4</ele>
      </trkpt>
      <trkpt lat="47.76196" lon="-1.84363">
        <ele>79.2</ele>
      </trkpt>
      <trkpt lat="47.76199" lon="-1.84368">
        <ele>78.9</ele>
      </trkpt>
      <trkpt lat="47.76202" lon="-1.84376">
        <ele>78.8</ele>
      </trkpt>
      <trkpt lat="47.76205" lon="-1.84382">
        <ele>78.5</ele>
      </trkpt>
      <trkpt lat="47.76207" lon="-1.84388">
        <ele>78.4</ele>
      </trkpt>
      <trkpt lat="47.76209" lon="-1.84392">
        <ele>78.4</ele>
      </trkpt>
      <trkpt lat="47.76212" lon="-1.844">
        <ele>78.3</ele>
      </trkpt>
      <trkpt lat="47.76212" lon="-1.84405">
        <ele>78.6</ele>
      </trkpt>
      <trkpt lat="47.76213" lon="-1.84411">
        <ele>78.8</ele>
      </trkpt>
      <trkpt lat="47.76215" lon="-1.84419">
        <ele>78.8</ele>
      </trkpt>
      <trkpt lat="47.76216" lon="-1.84423">
        <ele>78.9</ele>
      </trkpt>
      <trkpt lat="47.76217" lon="-1.84429">
        <ele>79</ele>
      </trkpt>
      <trkpt lat="47.76219" lon="-1.84434">
        <ele>79</ele>
      </trkpt>
      <trkpt lat="47.7622" lon="-1.84441">
        <ele>79.2</ele>
      </trkpt>
      <trkpt lat="47.76221" lon="-1.84446">
        <ele>79.3</ele>
      </trkpt>
      <trkpt lat="47.7622" lon="-1.84452">
        <ele>79.7</ele>
      </trkpt>
      <trkpt lat="47.7622" lon="-1.84458">
        <ele>80.1</ele>
      </trkpt>
      <trkpt lat="47.76222" lon="-1.84463">
        <ele>80.2</ele>
      </trkpt>
      <trkpt lat="47.76224" lon="-1.84469">
        <ele>80.2</ele>
      </trkpt>
      <trkpt lat="47.76225" lon="-1.84475">
        <ele>80.3</ele>
      </trkpt>
      <trkpt lat="47.76227" lon="-1.84481">
        <ele>80.4</ele>
      </trkpt>
      <trkpt lat="47.76228" lon="-1.84487">
        <ele>80.6</ele>
      </trkpt>
      <trkpt lat="47.7623" lon="-1.84494">
        <ele>80.8</ele>
      </trkpt>
      <trkpt lat="47.76231" lon="-1.845">
        <ele>81</ele>
      </trkpt>
      <trkpt lat="47.76233" lon="-1.84507">
        <ele>80.9</ele>
      </trkpt>
      <trkpt lat="47.76234" lon="-1.84514">
        <ele>80.8</ele>
      </trkpt>
      <trkpt lat="47.76236" lon="-1.84523">
        <ele>80.7</ele>
      </trkpt>
      <trkpt lat="47.76239" lon="-1.84532">
        <ele>80.5</ele>
      </trkpt>
      <trkpt lat="47.76241" lon="-1.84541">
        <ele>80.3</ele>
      </trkpt>
      <trkpt lat="47.76243" lon="-1.84551">
        <ele>80.3</ele>
      </trkpt>
      <trkpt lat="47.76246" lon="-1.84562">
        <ele>80.2</ele>
      </trkpt>
      <trkpt lat="47.76249" lon="-1.84574">
        <ele>79.9</ele>
      </trkpt>
      <trkpt lat="47.76253" lon="-1.84585">
        <ele>79.2</ele>
      </trkpt>
      <trkpt lat="47.76258" lon="-1.84596">
        <ele>78.2</ele>
      </trkpt>
      <trkpt lat="47.76261" lon="-1.84606">
        <ele>77.6</ele>
      </trkpt>
      <trkpt lat="47.76265" lon="-1.84617">
        <ele>77</ele>
      </trkpt>
      <trkpt lat="47.76269" lon="-1.84628">
        <ele>76.4</ele>
      </trkpt>
      <trkpt lat="47.76273" lon="-1.84638">
        <ele>75.7</ele>
      </trkpt>
      <trkpt lat="47.76277" lon="-1.84649">
        <ele>75</ele>
      </trkpt>
      <trkpt lat="47.76281" lon="-1.8466">
        <ele>74.5</ele>
      </trkpt>
      <trkpt lat="47.76285" lon="-1.84671">
        <ele>74</ele>
      </trkpt>
      <trkpt lat="47.7629" lon="-1.84683">
        <ele>73.5</ele>
      </trkpt>
      <trkpt lat="47.76295" lon="-1.84695">
        <ele>73.1</ele>
      </trkpt>
      <trkpt lat="47.763" lon="-1.84706">
        <ele>72.7</ele>
      </trkpt>
      <trkpt lat="47.76307" lon="-1.84716">
        <ele>72</ele>
      </trkpt>
      <trkpt lat="47.76314" lon="-1.84727">
        <ele>71.5</ele>
      </trkpt>
      <trkpt lat="47.76321" lon="-1.84737">
        <ele>71.1</ele>
      </trkpt>
      <trkpt lat="47.76328" lon="-1.84747">
        <ele>70.6</ele>
      </trkpt>
      <trkpt lat="47.76335" lon="-1.84756">
        <ele>70.5</ele>
      </trkpt>
      <trkpt lat="47.76342" lon="-1.84766">
        <ele>69.9</ele>
      </trkpt>
      <trkpt lat="47.76349" lon="-1.84776">
        <ele>69.3</ele>
      </trkpt>
      <trkpt lat="47.76357" lon="-1.84787">
        <ele>68.9</ele>
      </trkpt>
      <trkpt lat="47.76364" lon="-1.84798">
        <ele>68.8</ele>
      </trkpt>
      <trkpt lat="47.76372" lon="-1.84807">
        <ele>68.1</ele>
      </trkpt>
      <trkpt lat="47.76381" lon="-1.84818">
        <ele>67.6</ele>
      </trkpt>
      <trkpt lat="47.76391" lon="-1.84827">
        <ele>66.7</ele>
      </trkpt>
      <trkpt lat="47.76401" lon="-1.84835">
        <ele>65.7</ele>
      </trkpt>
      <trkpt lat="47.7641" lon="-1.84842">
        <ele>64.5</ele>
      </trkpt>
      <trkpt lat="47.7642" lon="-1.8485">
        <ele>63.7</ele>
      </trkpt>
      <trkpt lat="47.76432" lon="-1.84859">
        <ele>62.7</ele>
      </trkpt>
      <trkpt lat="47.76442" lon="-1.84866">
        <ele>61.7</ele>
      </trkpt>
      <trkpt lat="47.76453" lon="-1.84872">
        <ele>60.6</ele>
      </trkpt>
      <trkpt lat="47.76461" lon="-1.84875">
        <ele>59.5</ele>
      </trkpt>
      <trkpt lat="47.76472" lon="-1.84879">
        <ele>57.7</ele>
      </trkpt>
      <trkpt lat="47.76485" lon="-1.84882">
        <ele>55.2</ele>
      </trkpt>
      <trkpt lat="47.76498" lon="-1.84884">
        <ele>52.8</ele>
      </trkpt>
      <trkpt lat="47.7651" lon="-1.84886">
        <ele>51.7</ele>
      </trkpt>
      <trkpt lat="47.76523" lon="-1.84888">
        <ele>50.7</ele>
      </trkpt>
      <trkpt lat="47.76535" lon="-1.8489">
        <ele>49.7</ele>
      </trkpt>
      <trkpt lat="47.76548" lon="-1.84891">
        <ele>48.8</ele>
      </trkpt>
      <trkpt lat="47.7656" lon="-1.84893">
        <ele>47.7</ele>
      </trkpt>
      <trkpt lat="47.76572" lon="-1.84892">
        <ele>46.1</ele>
      </trkpt>
      <trkpt lat="47.76581" lon="-1.8489">
        <ele>44.6</ele>
      </trkpt>
      <trkpt lat="47.76592" lon="-1.84888">
        <ele>43.3</ele>
      </trkpt>
      <trkpt lat="47.76601" lon="-1.84885">
        <ele>42.1</ele>
      </trkpt>
      <trkpt lat="47.7661" lon="-1.84883">
        <ele>40.8</ele>
      </trkpt>
      <trkpt lat="47.7662" lon="-1.84881">
        <ele>39.7</ele>
      </trkpt>
      <trkpt lat="47.76629" lon="-1.84879">
        <ele>38.8</ele>
      </trkpt>
      <trkpt lat="47.76639" lon="-1.84877">
        <ele>37.8</ele>
      </trkpt>
      <trkpt lat="47.76649" lon="-1.84874">
        <ele>36.6</ele>
      </trkpt>
      <trkpt lat="47.7666" lon="-1.8487">
        <ele>35.1</ele>
      </trkpt>
      <trkpt lat="47.76669" lon="-1.84867">
        <ele>34.1</ele>
      </trkpt>
      <trkpt lat="47.76678" lon="-1.84863">
        <ele>33.4</ele>
      </trkpt>
      <trkpt lat="47.76686" lon="-1.84858">
        <ele>32.4</ele>
      </trkpt>
      <trkpt lat="47.76692" lon="-1.84855">
        <ele>31.7</ele>
      </trkpt>
      <trkpt lat="47.76698" lon="-1.84853">
        <ele>31.3</ele>
      </trkpt>
      <trkpt lat="47.76702" lon="-1.84852">
        <ele>31.2</ele>
      </trkpt>
      <trkpt lat="47.76706" lon="-1.84852">
        <ele>31.2</ele>
      </trkpt>
      <trkpt lat="47.76709" lon="-1.84852">
        <ele>31.4</ele>
      </trkpt>
      <trkpt lat="47.76711" lon="-1.84852">
        <ele>31.5</ele>
      </trkpt>
      <trkpt lat="47.7671" lon="-1.84853">
        <ele>31.7</ele>
      </trkpt>
      <trkpt lat="47.7671" lon="-1.84855">
        <ele>32</ele>
      </trkpt>
      <trkpt lat="47.76711" lon="-1.84855">
        <ele>32.2</ele>
      </trkpt>
      <trkpt lat="47.76712" lon="-1.84857">
        <ele>32.6</ele>
      </trkpt>
      <trkpt lat="47.76714" lon="-1.84859">
        <ele>33.1</ele>
      </trkpt>
      <trkpt lat="47.76715" lon="-1.8486">
        <ele>33.5</ele>
      </trkpt>
      <trkpt lat="47.76717" lon="-1.84861">
        <ele>33.5</ele>
      </trkpt>
      <trkpt lat="47.76718" lon="-1.8486">
        <ele>33.5</ele>
      </trkpt>
      <trkpt lat="47.7672" lon="-1.84859">
        <ele>33.3</ele>
      </trkpt>
      <trkpt lat="47.76722" lon="-1.84858">
        <ele>33.1</ele>
      </trkpt>
      <trkpt lat="47.76724" lon="-1.84857">
        <ele>32.9</ele>
      </trkpt>
      <trkpt lat="47.76728" lon="-1.84856">
        <ele>32.8</ele>
      </trkpt>
      <trkpt lat="47.7673" lon="-1.84855">
        <ele>32.5</ele>
      </trkpt>
      <trkpt lat="47.76732" lon="-1.84853">
        <ele>32.2</ele>
      </trkpt>
      <trkpt lat="47.76735" lon="-1.84852">
        <ele>32</ele>
      </trkpt>
      <trkpt lat="47.76737" lon="-1.84851">
        <ele>31.7</ele>
      </trkpt>
      <trkpt lat="47.76738" lon="-1.8485">
        <ele>31.6</ele>
      </trkpt>
      <trkpt lat="47.76741" lon="-1.8485">
        <ele>31.6</ele>
      </trkpt>
      <trkpt lat="47.76744" lon="-1.84849">
        <ele>31.5</ele>
      </trkpt>
      <trkpt lat="47.76746" lon="-1.84849">
        <ele>31.6</ele>
      </trkpt>
      <trkpt lat="47.76748" lon="-1.8485">
        <ele>31.8</ele>
      </trkpt>
      <trkpt lat="47.7675" lon="-1.84851">
        <ele>32</ele>
      </trkpt>
      <trkpt lat="47.76753" lon="-1.84851">
        <ele>31.8</ele>
      </trkpt>
      <trkpt lat="47.76756" lon="-1.8485">
        <ele>31.3</ele>
      </trkpt>
      <trkpt lat="47.7676" lon="-1.84853">
        <ele>31.6</ele>
      </trkpt>
      <trkpt lat="47.76763" lon="-1.84852">
        <ele>31.2</ele>
      </trkpt>
      <trkpt lat="47.76768" lon="-1.84852">
        <ele>30.7</ele>
      </trkpt>
      <trkpt lat="47.7677" lon="-1.84851">
        <ele>30.3</ele>
      </trkpt>
      <trkpt lat="47.76774" lon="-1.8485">
        <ele>29.8</ele>
      </trkpt>
      <trkpt lat="47.76777" lon="-1.8485">
        <ele>29.5</ele>
      </trkpt>
      <trkpt lat="47.7678" lon="-1.84851">
        <ele>29.3</ele>
      </trkpt>
      <trkpt lat="47.76783" lon="-1.84851">
        <ele>29.2</ele>
      </trkpt>
      <trkpt lat="47.76786" lon="-1.84853">
        <ele>29.3</ele>
      </trkpt>
      <trkpt lat="47.76788" lon="-1.84854">
        <ele>29.3</ele>
      </trkpt>
      <trkpt lat="47.76791" lon="-1.84856">
        <ele>29.3</ele>
      </trkpt>
      <trkpt lat="47.76793" lon="-1.84857">
        <ele>29.4</ele>
      </trkpt>
      <trkpt lat="47.76794" lon="-1.8486">
        <ele>29.8</ele>
      </trkpt>
      <trkpt lat="47.76797" lon="-1.84863">
        <ele>30.1</ele>
      </trkpt>
      <trkpt lat="47.76801" lon="-1.84866">
        <ele>30.4</ele>
      </trkpt>
      <trkpt lat="47.76803" lon="-1.84869">
        <ele>30.8</ele>
      </trkpt>
      <trkpt lat="47.76805" lon="-1.84873">
        <ele>31.2</ele>
      </trkpt>
      <trkpt lat="47.76807" lon="-1.84877">
        <ele>31.6</ele>
      </trkpt>
      <trkpt lat="47.76808" lon="-1.8488">
        <ele>32.1</ele>
      </trkpt>
      <trkpt lat="47.76809" lon="-1.84883">
        <ele>32.5</ele>
      </trkpt>
      <trkpt lat="47.7681" lon="-1.84885">
        <ele>32.9</ele>
      </trkpt>
      <trkpt lat="47.76811" lon="-1.84889">
        <ele>33.3</ele>
      </trkpt>
      <trkpt lat="47.76811" lon="-1.84892">
        <ele>33.8</ele>
      </trkpt>
      <trkpt lat="47.76812" lon="-1.84895">
        <ele>34.4</ele>
      </trkpt>
      <trkpt lat="47.76813" lon="-1.84899">
        <ele>34.8</ele>
      </trkpt>
      <trkpt lat="47.76814" lon="-1.84903">
        <ele>35.3</ele>
      </trkpt>
      <trkpt lat="47.76815" lon="-1.84907">
        <ele>35.9</ele>
      </trkpt>
      <trkpt lat="47.76816" lon="-1.84911">
        <ele>36.4</ele>
      </trkpt>
      <trkpt lat="47.76817" lon="-1.84914">
        <ele>36.9</ele>
      </trkpt>
      <trkpt lat="47.76818" lon="-1.84918">
        <ele>37.4</ele>
      </trkpt>
      <trkpt lat="47.76818" lon="-1.84921">
        <ele>37.7</ele>
      </trkpt>
      <trkpt lat="47.76819" lon="-1.84925">
        <ele>38</ele>
      </trkpt>
      <trkpt lat="47.7682" lon="-1.8493">
        <ele>38.3</ele>
      </trkpt>
      <trkpt lat="47.7682" lon="-1.84934">
        <ele>38.7</ele>
      </trkpt>
      <trkpt lat="47.76821" lon="-1.84938">
        <ele>39.1</ele>
      </trkpt>
      <trkpt lat="47.76822" lon="-1.84943">
        <ele>39.4</ele>
      </trkpt>
      <trkpt lat="47.76824" lon="-1.84947">
        <ele>39.5</ele>
      </trkpt>
      <trkpt lat="47.76825" lon="-1.8495">
        <ele>39.7</ele>
      </trkpt>
      <trkpt lat="47.76825" lon="-1.84954">
        <ele>40</ele>
      </trkpt>
      <trkpt lat="47.76826" lon="-1.84959">
        <ele>40.3</ele>
      </trkpt>
      <trkpt lat="47.76827" lon="-1.84963">
        <ele>40.6</ele>
      </trkpt>
      <trkpt lat="47.76827" lon="-1.84967">
        <ele>40.9</ele>
      </trkpt>
      <trkpt lat="47.76827" lon="-1.8497">
        <ele>41.3</ele>
      </trkpt>
      <trkpt lat="47.76828" lon="-1.84973">
        <ele>41.4</ele>
      </trkpt>
      <trkpt lat="47.76829" lon="-1.84978">
        <ele>41.7</ele>
      </trkpt>
      <trkpt lat="47.76831" lon="-1.84983">
        <ele>41.9</ele>
      </trkpt>
      <trkpt lat="47.76832" lon="-1.84987">
        <ele>42</ele>
      </trkpt>
      <trkpt lat="47.76834" lon="-1.84992">
        <ele>42.2</ele>
      </trkpt>
      <trkpt lat="47.76835" lon="-1.84996">
        <ele>42.4</ele>
      </trkpt>
      <trkpt lat="47.76835" lon="-1.85">
        <ele>42.6</ele>
      </trkpt>
      <trkpt lat="47.76836" lon="-1.85003">
        <ele>42.7</ele>
      </trkpt>
      <trkpt lat="47.76837" lon="-1.85007">
        <ele>42.8</ele>
      </trkpt>
      <trkpt lat="47.76839" lon="-1.8501">
        <ele>42.8</ele>
      </trkpt>
      <trkpt lat="47.7684" lon="-1.85016">
        <ele>42.8</ele>
      </trkpt>
      <trkpt lat="47.76843" lon="-1.85021">
        <ele>42.8</ele>
      </trkpt>
      <trkpt lat="47.76843" lon="-1.85025">
        <ele>42.9</ele>
      </trkpt>
      <trkpt lat="47.76844" lon="-1.8503">
        <ele>43.1</ele>
      </trkpt>
      <trkpt lat="47.76846" lon="-1.85036">
        <ele>43.1</ele>
      </trkpt>
      <trkpt lat="47.76847" lon="-1.85041">
        <ele>43.2</ele>
      </trkpt>
      <trkpt lat="47.76848" lon="-1.85044">
        <ele>43.2</ele>
      </trkpt>
      <trkpt lat="47.76849" lon="-1.85048">
        <ele>43.4</ele>
      </trkpt>
      <trkpt lat="47.7685" lon="-1.85052">
        <ele>43.4</ele>
      </trkpt>
      <trkpt lat="47.7685" lon="-1.85058">
        <ele>43.8</ele>
      </trkpt>
      <trkpt lat="47.76851" lon="-1.85063">
        <ele>43.9</ele>
      </trkpt>
      <trkpt lat="47.76852" lon="-1.85067">
        <ele>44</ele>
      </trkpt>
      <trkpt lat="47.76851" lon="-1.85071">
        <ele>44.3</ele>
      </trkpt>
      <trkpt lat="47.76851" lon="-1.85075">
        <ele>44.7</ele>
      </trkpt>
      <trkpt lat="47.76852" lon="-1.85078">
        <ele>44.7</ele>
      </trkpt>
      <trkpt lat="47.76853" lon="-1.85082">
        <ele>44.8</ele>
      </trkpt>
      <trkpt lat="47.76854" lon="-1.85086">
        <ele>44.7</ele>
      </trkpt>
      <trkpt lat="47.76855" lon="-1.8509">
        <ele>44.7</ele>
      </trkpt>
      <trkpt lat="47.76855" lon="-1.85095">
        <ele>44.8</ele>
      </trkpt>
      <trkpt lat="47.76856" lon="-1.85099">
        <ele>45</ele>
      </trkpt>
      <trkpt lat="47.76855" lon="-1.85103">
        <ele>45.3</ele>
      </trkpt>
      <trkpt lat="47.76855" lon="-1.85107">
        <ele>45.5</ele>
      </trkpt>
      <trkpt lat="47.76855" lon="-1.85111">
        <ele>45.7</ele>
      </trkpt>
      <trkpt lat="47.76855" lon="-1.85116">
        <ele>46</ele>
      </trkpt>
      <trkpt lat="47.76855" lon="-1.8512">
        <ele>46.2</ele>
      </trkpt>
      <trkpt lat="47.76855" lon="-1.85124">
        <ele>46.4</ele>
      </trkpt>
      <trkpt lat="47.76854" lon="-1.85128">
        <ele>46.8</ele>
      </trkpt>
      <trkpt lat="47.76854" lon="-1.85134">
        <ele>47.1</ele>
      </trkpt>
      <trkpt lat="47.76854" lon="-1.85139">
        <ele>47.3</ele>
      </trkpt>
      <trkpt lat="47.76855" lon="-1.85146">
        <ele>47.5</ele>
      </trkpt>
      <trkpt lat="47.76856" lon="-1.8515">
        <ele>47.6</ele>
      </trkpt>
      <trkpt lat="47.76857" lon="-1.85155">
        <ele>47.7</ele>
      </trkpt>
      <trkpt lat="47.76858" lon="-1.8516">
        <ele>47.9</ele>
      </trkpt>
      <trkpt lat="47.76859" lon="-1.85166">
        <ele>48</ele>
      </trkpt>
      <trkpt lat="47.76859" lon="-1.85171">
        <ele>48</ele>
      </trkpt>
      <trkpt lat="47.76858" lon="-1.85175">
        <ele>48.1</ele>
      </trkpt>
      <trkpt lat="47.76858" lon="-1.85186">
        <ele>48.2</ele>
      </trkpt>
      <trkpt lat="47.76858" lon="-1.85186">
        <ele>48.2</ele>
      </trkpt>
      <trkpt lat="47.76857" lon="-1.8519">
        <ele>48.2</ele>
      </trkpt>
      <trkpt lat="47.76856" lon="-1.85195">
        <ele>48.3</ele>
      </trkpt>
      <trkpt lat="47.76857" lon="-1.85201">
        <ele>48.3</ele>
      </trkpt>
      <trkpt lat="47.76856" lon="-1.85207">
        <ele>48.3</ele>
      </trkpt>
      <trkpt lat="47.76856" lon="-1.85213">
        <ele>48.3</ele>
      </trkpt>
      <trkpt lat="47.76856" lon="-1.85219">
        <ele>48.2</ele>
      </trkpt>
      <trkpt lat="47.76857" lon="-1.85224">
        <ele>48.2</ele>
      </trkpt>
      <trkpt lat="47.76856" lon="-1.85228">
        <ele>48.2</ele>
      </trkpt>
      <trkpt lat="47.76855" lon="-1.85231">
        <ele>48.3</ele>
      </trkpt>
      <trkpt lat="47.76853" lon="-1.85234">
        <ele>48.4</ele>
      </trkpt>
      <trkpt lat="47.7685" lon="-1.85238">
        <ele>48.5</ele>
      </trkpt>
      <trkpt lat="47.76849" lon="-1.85242">
        <ele>48.5</ele>
      </trkpt>
      <trkpt lat="47.76845" lon="-1.85248">
        <ele>48.6</ele>
      </trkpt>
      <trkpt lat="47.76843" lon="-1.85251">
        <ele>48.7</ele>
      </trkpt>
      <trkpt lat="47.76843" lon="-1.85258">
        <ele>48.8</ele>
      </trkpt>
      <trkpt lat="47.76842" lon="-1.85263">
        <ele>48.9</ele>
      </trkpt>
      <trkpt lat="47.76841" lon="-1.85266">
        <ele>49</ele>
      </trkpt>
      <trkpt lat="47.76839" lon="-1.8527">
        <ele>49.1</ele>
      </trkpt>
      <trkpt lat="47.76838" lon="-1.85275">
        <ele>49.2</ele>
      </trkpt>
      <trkpt lat="47.76838" lon="-1.8528">
        <ele>49.3</ele>
      </trkpt>
      <trkpt lat="47.76837" lon="-1.85283">
        <ele>49.3</ele>
      </trkpt>
      <trkpt lat="47.76836" lon="-1.85287">
        <ele>49.4</ele>
      </trkpt>
      <trkpt lat="47.76834" lon="-1.85291">
        <ele>49.5</ele>
      </trkpt>
      <trkpt lat="47.76833" lon="-1.85296">
        <ele>49.7</ele>
      </trkpt>
      <trkpt lat="47.76831" lon="-1.85299">
        <ele>50</ele>
      </trkpt>
      <trkpt lat="47.7683" lon="-1.85303">
        <ele>50.2</ele>
      </trkpt>
      <trkpt lat="47.76831" lon="-1.85311">
        <ele>50.1</ele>
      </trkpt>
      <trkpt lat="47.76835" lon="-1.8532">
        <ele>49.9</ele>
      </trkpt>
      <trkpt lat="47.76837" lon="-1.85325">
        <ele>50</ele>
      </trkpt>
      <trkpt lat="47.76838" lon="-1.85331">
        <ele>50.1</ele>
      </trkpt>
      <trkpt lat="47.7684" lon="-1.85336">
        <ele>50.2</ele>
      </trkpt>
      <trkpt lat="47.76841" lon="-1.8534">
        <ele>50.3</ele>
      </trkpt>
      <trkpt lat="47.76844" lon="-1.85345">
        <ele>50.4</ele>
      </trkpt>
      <trkpt lat="47.76845" lon="-1.85347">
        <ele>50.5</ele>
      </trkpt>
      <trkpt lat="47.76845" lon="-1.85348">
        <ele>50.5</ele>
      </trkpt>
      <trkpt lat="47.76846" lon="-1.85348">
        <ele>50.5</ele>
      </trkpt>
      <trkpt lat="47.76846" lon="-1.85348">
        <ele>50.5</ele>
      </trkpt>
      <trkpt lat="47.76846" lon="-1.85348">
        <ele>50.5</ele>
      </trkpt>
      <trkpt lat="47.76846" lon="-1.85348">
        <ele>50.5</ele>
      </trkpt>
      <trkpt lat="47.76846" lon="-1.85348">
        <ele>50.5</ele>
      </trkpt>
      <trkpt lat="47.76845" lon="-1.85349">
        <ele>50.5</ele>
      </trkpt>
      <trkpt lat="47.76845" lon="-1.85349">
        <ele>50.5</ele>
      </trkpt>
      <trkpt lat="47.76845" lon="-1.85349">
        <ele>50.5</ele>
      </trkpt>
      <trkpt lat="47.76845" lon="-1.85349">
        <ele>50.5</ele>
      </trkpt>
      <trkpt lat="47.76846" lon="-1.85349">
        <ele>50.5</ele>
      </trkpt>
      <trkpt lat="47.76847" lon="-1.8535">
        <ele>50.6</ele>
      </trkpt>
      <trkpt lat="47.76847" lon="-1.8535">
        <ele>50.6</ele>
      </trkpt>
      <trkpt lat="47.76847" lon="-1.8535">
        <ele>50.6</ele>
      </trkpt>
      <trkpt lat="47.76847" lon="-1.8535">
        <ele>50.6</ele>
      </trkpt>
      <trkpt lat="47.76847" lon="-1.8535">
        <ele>50.6</ele>
      </trkpt>
      <trkpt lat="47.76847" lon="-1.8535">
        <ele>50.6</ele>
      </trkpt>
      <trkpt lat="47.76847" lon="-1.8535">
        <ele>50.6</ele>
      </trkpt>
      <trkpt lat="47.76847" lon="-1.8535">
        <ele>50.6</ele>
      </trkpt>
      <trkpt lat="47.76847" lon="-1.8535">
        <ele>50.6</ele>
      </trkpt>
      <trkpt lat="47.76847" lon="-1.8535">
        <ele>50.6</ele>
      </trkpt>
      <trkpt lat="47.76847" lon="-1.8535">
        <ele>50.6</ele>
      </trkpt>
      <trkpt lat="47.76847" lon="-1.8535">
        <ele>50.6</ele>
      </trkpt>
      <trkpt lat="47.76847" lon="-1.8535">
        <ele>50.6</ele>
      </trkpt>
      <trkpt lat="47.76847" lon="-1.8535">
        <ele>50.6</ele>
      </trkpt>
      <trkpt lat="47.76847" lon="-1.8535">
        <ele>50.6</ele>
      </trkpt>
      <trkpt lat="47.76847" lon="-1.8535">
        <ele>50.6</ele>
      </trkpt>
      <trkpt lat="47.76847" lon="-1.8535">
        <ele>50.6</ele>
      </trkpt>
      <trkpt lat="47.76847" lon="-1.8535">
        <ele>50.6</ele>
      </trkpt>
      <trkpt lat="47.76847" lon="-1.8535">
        <ele>50.6</ele>
      </trkpt>
      <trkpt lat="47.76847" lon="-1.85351">
        <ele>50.6</ele>
      </trkpt>
      <trkpt lat="47.76847" lon="-1.85351">
        <ele>50.6</ele>
      </trkpt>
      <trkpt lat="47.76847" lon="-1.85351">
        <ele>50.6</ele>
      </trkpt>
      <trkpt lat="47.76847" lon="-1.85351">
        <ele>50.6</ele>
      </trkpt>
      <trkpt lat="47.76847" lon="-1.85351">
        <ele>50.6</ele>
      </trkpt>
      <trkpt lat="47.76847" lon="-1.85351">
        <ele>50.6</ele>
      </trkpt>
      <trkpt lat="47.76847" lon="-1.85351">
        <ele>50.6</ele>
      </trkpt>
      <trkpt lat="47.76847" lon="-1.85354">
        <ele>50.7</ele>
      </trkpt>
      <trkpt lat="47.76847" lon="-1.85358">
        <ele>50.7</ele>
      </trkpt>
      <trkpt lat="47.76847" lon="-1.85363">
        <ele>50.8</ele>
      </trkpt>
      <trkpt lat="47.76847" lon="-1.85367">
        <ele>50.8</ele>
      </trkpt>
      <trkpt lat="47.76846" lon="-1.85371">
        <ele>50.9</ele>
      </trkpt>
      <trkpt lat="47.76846" lon="-1.85376">
        <ele>50.9</ele>
      </trkpt>
      <trkpt lat="47.76845" lon="-1.8538">
        <ele>50.9</ele>
      </trkpt>
      <trkpt lat="47.76825" lon="-1.85479">
        <ele>49.1</ele>
      </trkpt>
      <trkpt lat="47.76789" lon="-1.85622">
        <ele>54.4</ele>
      </trkpt>
      <trkpt lat="47.76785" lon="-1.85642">
        <ele>55.5</ele>
      </trkpt>
      <trkpt lat="47.76768" lon="-1.85749">
        <ele>58</ele>
      </trkpt>
      <trkpt lat="47.76765" lon="-1.8577">
        <ele>58.6</ele>
      </trkpt>
      <trkpt lat="47.76764" lon="-1.85791">
        <ele>59.4</ele>
      </trkpt>
      <trkpt lat="47.7676" lon="-1.8584">
        <ele>61</ele>
      </trkpt>
      <trkpt lat="47.76757" lon="-1.85861">
        <ele>61.6</ele>
      </trkpt>
      <trkpt lat="47.76757" lon="-1.85916">
        <ele>63.7</ele>
      </trkpt>
      <trkpt lat="47.76751" lon="-1.85941">
        <ele>63.7</ele>
      </trkpt>
      <trkpt lat="47.76747" lon="-1.85963">
        <ele>64.3</ele>
      </trkpt>
      <trkpt lat="47.76738" lon="-1.85988">
        <ele>65.1</ele>
      </trkpt>
      <trkpt lat="47.76709" lon="-1.86033">
        <ele>67.2</ele>
      </trkpt>
      <trkpt lat="47.76678" lon="-1.85964">
        <ele>68.1</ele>
      </trkpt>
      <trkpt lat="47.76666" lon="-1.8595">
        <ele>69.5</ele>
      </trkpt>
      <trkpt lat="47.76644" lon="-1.85902">
        <ele>74.1</ele>
      </trkpt>
      <trkpt lat="47.76638" lon="-1.85884">
        <ele>75.1</ele>
      </trkpt>
      <trkpt lat="47.76621" lon="-1.85829">
        <ele>77.9</ele>
      </trkpt>
      <trkpt lat="47.7661" lon="-1.85815">
        <ele>78.6</ele>
      </trkpt>
      <trkpt lat="47.7659" lon="-1.85764">
        <ele>77.5</ele>
      </trkpt>
      <trkpt lat="47.76581" lon="-1.85748">
        <ele>77.2</ele>
      </trkpt>
      <trkpt lat="47.76572" lon="-1.8571">
        <ele>77.4</ele>
      </trkpt>
      <trkpt lat="47.76563" lon="-1.85694">
        <ele>78.2</ele>
      </trkpt>
      <trkpt lat="47.7655" lon="-1.85643">
        <ele>79.9</ele>
      </trkpt>
      <trkpt lat="47.76544" lon="-1.85623">
        <ele>81.3</ele>
      </trkpt>
      <trkpt lat="47.76537" lon="-1.85596">
        <ele>82.9</ele>
      </trkpt>
      <trkpt lat="47.76537" lon="-1.8552">
        <ele>85.8</ele>
      </trkpt>
      <trkpt lat="47.76536" lon="-1.85498">
        <ele>86.9</ele>
      </trkpt>
      <trkpt lat="47.76537" lon="-1.85471">
        <ele>88.4</ele>
      </trkpt>
      <trkpt lat="47.76543" lon="-1.85438">
        <ele>90</ele>
      </trkpt>
      <trkpt lat="47.76542" lon="-1.85416">
        <ele>91.5</ele>
      </trkpt>
      <trkpt lat="47.76537" lon="-1.85373">
        <ele>90.8</ele>
      </trkpt>
      <trkpt lat="47.76543" lon="-1.85332">
        <ele>90</ele>
      </trkpt>
      <trkpt lat="47.76548" lon="-1.85317">
        <ele>89.6</ele>
      </trkpt>
      <trkpt lat="47.76554" lon="-1.85315">
        <ele>89.5</ele>
      </trkpt>
      <trkpt lat="47.7656" lon="-1.85323">
        <ele>89.7</ele>
      </trkpt>
      <trkpt lat="47.76571" lon="-1.85328">
        <ele>89.8</ele>
      </trkpt>
      <trkpt lat="47.76572" lon="-1.85343">
        <ele>90</ele>
      </trkpt>
      <trkpt lat="47.76591" lon="-1.85352">
        <ele>88.6</ele>
      </trkpt>
      <trkpt lat="47.76598" lon="-1.85357">
        <ele>87.3</ele>
      </trkpt>
      <trkpt lat="47.76604" lon="-1.85372">
        <ele>85.9</ele>
      </trkpt>
      <trkpt lat="47.76618" lon="-1.85368">
        <ele>83.5</ele>
      </trkpt>
      <trkpt lat="47.76623" lon="-1.85363">
        <ele>82.6</ele>
      </trkpt>
      <trkpt lat="47.76628" lon="-1.85363">
        <ele>81.6</ele>
      </trkpt>
      <trkpt lat="47.76634" lon="-1.85357">
        <ele>80.9</ele>
      </trkpt>
      <trkpt lat="47.7664" lon="-1.85363">
        <ele>79.6</ele>
      </trkpt>
      <trkpt lat="47.76638" lon="-1.85369">
        <ele>79.5</ele>
      </trkpt>
      <trkpt lat="47.76638" lon="-1.85374">
        <ele>79.3</ele>
      </trkpt>
      <trkpt lat="47.76633" lon="-1.85386">
        <ele>79.5</ele>
      </trkpt>
      <trkpt lat="47.76647" lon="-1.85374">
        <ele>77.5</ele>
      </trkpt>
      <trkpt lat="47.7666" lon="-1.85372">
        <ele>75</ele>
      </trkpt>
      <trkpt lat="47.76669" lon="-1.85378">
        <ele>72.9</ele>
      </trkpt>
      <trkpt lat="47.76686" lon="-1.85371">
        <ele>71.2</ele>
      </trkpt>
      <trkpt lat="47.76694" lon="-1.85361">
        <ele>70.6</ele>
      </trkpt>
      <trkpt lat="47.76704" lon="-1.85359">
        <ele>69.3</ele>
      </trkpt>
      <trkpt lat="47.76708" lon="-1.85359">
        <ele>68.6</ele>
      </trkpt>
      <trkpt lat="47.76716" lon="-1.85363">
        <ele>67.3</ele>
      </trkpt>
      <trkpt lat="47.76721" lon="-1.85372">
        <ele>66.1</ele>
      </trkpt>
      <trkpt lat="47.76722" lon="-1.85379">
        <ele>65.6</ele>
      </trkpt>
      <trkpt lat="47.76731" lon="-1.85393">
        <ele>63.9</ele>
      </trkpt>
      <trkpt lat="47.76734" lon="-1.85399">
        <ele>63.4</ele>
      </trkpt>
      <trkpt lat="47.76743" lon="-1.85406">
        <ele>62.1</ele>
      </trkpt>
      <trkpt lat="47.76748" lon="-1.85406">
        <ele>61.5</ele>
      </trkpt>
      <trkpt lat="47.76756" lon="-1.85407">
        <ele>60.5</ele>
      </trkpt>
      <trkpt lat="47.76761" lon="-1.85405">
        <ele>59.8</ele>
      </trkpt>
      <trkpt lat="47.76768" lon="-1.854">
        <ele>58.9</ele>
      </trkpt>
      <trkpt lat="47.7677" lon="-1.85394">
        <ele>58.8</ele>
      </trkpt>
      <trkpt lat="47.76774" lon="-1.85384">
        <ele>58.4</ele>
      </trkpt>
      <trkpt lat="47.76776" lon="-1.85369">
        <ele>58.4</ele>
      </trkpt>
      <trkpt lat="47.76789" lon="-1.85368">
        <ele>56.5</ele>
      </trkpt>
      <trkpt lat="47.76796" lon="-1.85357">
        <ele>55.6</ele>
      </trkpt>
      <trkpt lat="47.7681" lon="-1.85355">
        <ele>53.5</ele>
      </trkpt>
      <trkpt lat="47.76823" lon="-1.85366">
        <ele>51.5</ele>
      </trkpt>
      <trkpt lat="47.76826" lon="-1.85368">
        <ele>51</ele>
      </trkpt>
      <trkpt lat="47.7683" lon="-1.85373">
        <ele>50.6</ele>
      </trkpt>
      <trkpt lat="47.76842" lon="-1.85373">
        <ele>50.6</ele>
      </trkpt>
      <trkpt lat="47.76834" lon="-1.85475">
        <ele>48.7</ele>
      </trkpt>
      <trkpt lat="47.76835" lon="-1.85478">
        <ele>48.7</ele>
      </trkpt>
      <trkpt lat="47.76836" lon="-1.85479">
        <ele>48.8</ele>
      </trkpt>
      <trkpt lat="47.76836" lon="-1.8548">
        <ele>48.9</ele>
      </trkpt>
      <trkpt lat="47.76837" lon="-1.85481">
        <ele>49</ele>
      </trkpt>
      <trkpt lat="47.76839" lon="-1.85485">
        <ele>49.3</ele>
      </trkpt>
      <trkpt lat="47.76841" lon="-1.8549">
        <ele>49.5</ele>
      </trkpt>
      <trkpt lat="47.76843" lon="-1.85495">
        <ele>49.8</ele>
      </trkpt>
      <trkpt lat="47.76847" lon="-1.85501">
        <ele>50.2</ele>
      </trkpt>
      <trkpt lat="47.76849" lon="-1.85505">
        <ele>51</ele>
      </trkpt>
      <trkpt lat="47.76852" lon="-1.85508">
        <ele>51.6</ele>
      </trkpt>
      <trkpt lat="47.76854" lon="-1.85512">
        <ele>52</ele>
      </trkpt>
      <trkpt lat="47.76856" lon="-1.85517">
        <ele>52.5</ele>
      </trkpt>
      <trkpt lat="47.76857" lon="-1.85521">
        <ele>53.1</ele>
      </trkpt>
      <trkpt lat="47.7686" lon="-1.85524">
        <ele>53.6</ele>
      </trkpt>
      <trkpt lat="47.76863" lon="-1.85526">
        <ele>54.1</ele>
      </trkpt>
      <trkpt lat="47.76864" lon="-1.85527">
        <ele>54.3</ele>
      </trkpt>
      <trkpt lat="47.76866" lon="-1.85531">
        <ele>54.8</ele>
      </trkpt>
      <trkpt lat="47.76868" lon="-1.85535">
        <ele>55.1</ele>
      </trkpt>
      <trkpt lat="47.76869" lon="-1.85536">
        <ele>55.3</ele>
      </trkpt>
      <trkpt lat="47.76871" lon="-1.85537">
        <ele>55.6</ele>
      </trkpt>
      <trkpt lat="47.76873" lon="-1.85538">
        <ele>55.9</ele>
      </trkpt>
      <trkpt lat="47.76875" lon="-1.8554">
        <ele>56.2</ele>
      </trkpt>
      <trkpt lat="47.76877" lon="-1.85541">
        <ele>56.5</ele>
      </trkpt>
      <trkpt lat="47.76879" lon="-1.85542">
        <ele>56.7</ele>
      </trkpt>
      <trkpt lat="47.7688" lon="-1.85542">
        <ele>57</ele>
      </trkpt>
      <trkpt lat="47.76882" lon="-1.85542">
        <ele>57.2</ele>
      </trkpt>
      <trkpt lat="47.76884" lon="-1.85542">
        <ele>57.4</ele>
      </trkpt>
      <trkpt lat="47.76886" lon="-1.85543">
        <ele>57.6</ele>
      </trkpt>
      <trkpt lat="47.76889" lon="-1.85545">
        <ele>58.1</ele>
      </trkpt>
      <trkpt lat="47.76891" lon="-1.85546">
        <ele>58.3</ele>
      </trkpt>
      <trkpt lat="47.76893" lon="-1.85546">
        <ele>58.6</ele>
      </trkpt>
      <trkpt lat="47.76895" lon="-1.85547">
        <ele>58.8</ele>
      </trkpt>
      <trkpt lat="47.76896" lon="-1.85547">
        <ele>59</ele>
      </trkpt>
      <trkpt lat="47.76898" lon="-1.85548">
        <ele>59.2</ele>
      </trkpt>
      <trkpt lat="47.769" lon="-1.85549">
        <ele>59.4</ele>
      </trkpt>
      <trkpt lat="47.76902" lon="-1.85549">
        <ele>59.6</ele>
      </trkpt>
      <trkpt lat="47.76903" lon="-1.8555">
        <ele>59.8</ele>
      </trkpt>
      <trkpt lat="47.76905" lon="-1.85551">
        <ele>60</ele>
      </trkpt>
      <trkpt lat="47.76906" lon="-1.85551">
        <ele>60.1</ele>
      </trkpt>
      <trkpt lat="47.76907" lon="-1.85551">
        <ele>60.3</ele>
      </trkpt>
      <trkpt lat="47.76908" lon="-1.85551">
        <ele>60.4</ele>
      </trkpt>
      <trkpt lat="47.76909" lon="-1.8555">
        <ele>60.5</ele>
      </trkpt>
      <trkpt lat="47.7691" lon="-1.85548">
        <ele>60.7</ele>
      </trkpt>
      <trkpt lat="47.76911" lon="-1.85547">
        <ele>60.7</ele>
      </trkpt>
      <trkpt lat="47.76911" lon="-1.85545">
        <ele>60.7</ele>
      </trkpt>
      <trkpt lat="47.7691" lon="-1.85544">
        <ele>60.7</ele>
      </trkpt>
      <trkpt lat="47.7691" lon="-1.85542">
        <ele>60.7</ele>
      </trkpt>
      <trkpt lat="47.7691" lon="-1.85541">
        <ele>60.6</ele>
      </trkpt>
      <trkpt lat="47.7691" lon="-1.85539">
        <ele>60.6</ele>
      </trkpt>
      <trkpt lat="47.7691" lon="-1.85537">
        <ele>60.6</ele>
      </trkpt>
      <trkpt lat="47.76909" lon="-1.85536">
        <ele>60.6</ele>
      </trkpt>
      <trkpt lat="47.76909" lon="-1.85534">
        <ele>60.5</ele>
      </trkpt>
      <trkpt lat="47.76908" lon="-1.85532">
        <ele>60.5</ele>
      </trkpt>
      <trkpt lat="47.76907" lon="-1.8553">
        <ele>60.4</ele>
      </trkpt>
      <trkpt lat="47.76906" lon="-1.85528">
        <ele>60.1</ele>
      </trkpt>
      <trkpt lat="47.76904" lon="-1.85526">
        <ele>59.9</ele>
      </trkpt>
      <trkpt lat="47.76902" lon="-1.85524">
        <ele>59.6</ele>
      </trkpt>
      <trkpt lat="47.769" lon="-1.85521">
        <ele>59.3</ele>
      </trkpt>
      <trkpt lat="47.76897" lon="-1.85519">
        <ele>58.9</ele>
      </trkpt>
      <trkpt lat="47.76894" lon="-1.85517">
        <ele>58.4</ele>
      </trkpt>
      <trkpt lat="47.76891" lon="-1.85514">
        <ele>57.9</ele>
      </trkpt>
      <trkpt lat="47.76889" lon="-1.85511">
        <ele>57.5</ele>
      </trkpt>
      <trkpt lat="47.76886" lon="-1.85505">
        <ele>56.9</ele>
      </trkpt>
      <trkpt lat="47.76885" lon="-1.85499">
        <ele>56.6</ele>
      </trkpt>
      <trkpt lat="47.76883" lon="-1.85494">
        <ele>56.4</ele>
      </trkpt>
      <trkpt lat="47.76883" lon="-1.85488">
        <ele>56.3</ele>
      </trkpt>
      <trkpt lat="47.76883" lon="-1.85484">
        <ele>56.2</ele>
      </trkpt>
      <trkpt lat="47.76883" lon="-1.8548">
        <ele>56.2</ele>
      </trkpt>
      <trkpt lat="47.76883" lon="-1.85477">
        <ele>56.3</ele>
      </trkpt>
      <trkpt lat="47.76884" lon="-1.85473">
        <ele>56.4</ele>
      </trkpt>
      <trkpt lat="47.76885" lon="-1.8547">
        <ele>56.6</ele>
      </trkpt>
      <trkpt lat="47.76887" lon="-1.85467">
        <ele>56.8</ele>
      </trkpt>
      <trkpt lat="47.76888" lon="-1.85464">
        <ele>56.9</ele>
      </trkpt>
      <trkpt lat="47.76889" lon="-1.85461">
        <ele>57.1</ele>
      </trkpt>
      <trkpt lat="47.76891" lon="-1.85458">
        <ele>57.3</ele>
      </trkpt>
      <trkpt lat="47.76891" lon="-1.85456">
        <ele>57.3</ele>
      </trkpt>
      <trkpt lat="47.76891" lon="-1.85454">
        <ele>57.3</ele>
      </trkpt>
      <trkpt lat="47.76892" lon="-1.85452">
        <ele>57.4</ele>
      </trkpt>
      <trkpt lat="47.76893" lon="-1.85452">
        <ele>57.6</ele>
      </trkpt>
      <trkpt lat="47.76895" lon="-1.85452">
        <ele>57.8</ele>
      </trkpt>
      <trkpt lat="47.76896" lon="-1.85453">
        <ele>58</ele>
      </trkpt>
      <trkpt lat="47.76898" lon="-1.85455">
        <ele>58.2</ele>
      </trkpt>
      <trkpt lat="47.76898" lon="-1.85457">
        <ele>58.3</ele>
      </trkpt>
      <trkpt lat="47.76899" lon="-1.85459">
        <ele>58.5</ele>
      </trkpt>
      <trkpt lat="47.769" lon="-1.85463">
        <ele>58.6</ele>
      </trkpt>
      <trkpt lat="47.769" lon="-1.85466">
        <ele>58.7</ele>
      </trkpt>
      <trkpt lat="47.76901" lon="-1.8547">
        <ele>58.9</ele>
      </trkpt>
      <trkpt lat="47.76902" lon="-1.85472">
        <ele>59.2</ele>
      </trkpt>
      <trkpt lat="47.76904" lon="-1.85473">
        <ele>59.4</ele>
      </trkpt>
      <trkpt lat="47.76906" lon="-1.85473">
        <ele>59.7</ele>
      </trkpt>
      <trkpt lat="47.76907" lon="-1.85471">
        <ele>59.9</ele>
      </trkpt>
      <trkpt lat="47.76909" lon="-1.85469">
        <ele>60</ele>
      </trkpt>
      <trkpt lat="47.7691" lon="-1.85467">
        <ele>60.1</ele>
      </trkpt>
      <trkpt lat="47.7691" lon="-1.85464">
        <ele>60.2</ele>
      </trkpt>
      <trkpt lat="47.76911" lon="-1.85462">
        <ele>60.3</ele>
      </trkpt>
      <trkpt lat="47.76913" lon="-1.8546">
        <ele>60.5</ele>
      </trkpt>
      <trkpt lat="47.76914" lon="-1.85459">
        <ele>60.6</ele>
      </trkpt>
      <trkpt lat="47.76915" lon="-1.85457">
        <ele>60.8</ele>
      </trkpt>
      <trkpt lat="47.76916" lon="-1.85454">
        <ele>60.8</ele>
      </trkpt>
      <trkpt lat="47.76916" lon="-1.85452">
        <ele>60.8</ele>
      </trkpt>
      <trkpt lat="47.76917" lon="-1.85449">
        <ele>60.8</ele>
      </trkpt>
      <trkpt lat="47.76918" lon="-1.85446">
        <ele>60.8</ele>
      </trkpt>
      <trkpt lat="47.76918" lon="-1.85443">
        <ele>60.9</ele>
      </trkpt>
      <trkpt lat="47.76919" lon="-1.85441">
        <ele>61</ele>
      </trkpt>
      <trkpt lat="47.7692" lon="-1.85439">
        <ele>61.1</ele>
      </trkpt>
      <trkpt lat="47.76921" lon="-1.85436">
        <ele>61.2</ele>
      </trkpt>
      <trkpt lat="47.76922" lon="-1.85433">
        <ele>61.4</ele>
      </trkpt>
      <trkpt lat="47.76924" lon="-1.85431">
        <ele>61.6</ele>
      </trkpt>
      <trkpt lat="47.7693" lon="-1.8543">
        <ele>62.5</ele>
      </trkpt>
      <trkpt lat="47.7693" lon="-1.85431">
        <ele>62.6</ele>
      </trkpt>
      <trkpt lat="47.76931" lon="-1.85433">
        <ele>62.8</ele>
      </trkpt>
      <trkpt lat="47.76931" lon="-1.85434">
        <ele>62.8</ele>
      </trkpt>
      <trkpt lat="47.76931" lon="-1.85436">
        <ele>62.8</ele>
      </trkpt>
      <trkpt lat="47.76932" lon="-1.85437">
        <ele>63</ele>
      </trkpt>
      <trkpt lat="47.76934" lon="-1.85437">
        <ele>63.3</ele>
      </trkpt>
      <trkpt lat="47.76936" lon="-1.85438">
        <ele>63.6</ele>
      </trkpt>
      <trkpt lat="47.76938" lon="-1.85437">
        <ele>64</ele>
      </trkpt>
      <trkpt lat="47.7694" lon="-1.85436">
        <ele>64.2</ele>
      </trkpt>
      <trkpt lat="47.76941" lon="-1.85433">
        <ele>64.4</ele>
      </trkpt>
      <trkpt lat="47.76942" lon="-1.85431">
        <ele>64.6</ele>
      </trkpt>
      <trkpt lat="47.76944" lon="-1.8543">
        <ele>64.8</ele>
      </trkpt>
      <trkpt lat="47.76945" lon="-1.8543">
        <ele>65.1</ele>
      </trkpt>
      <trkpt lat="47.76947" lon="-1.85429">
        <ele>65.3</ele>
      </trkpt>
      <trkpt lat="47.76948" lon="-1.85427">
        <ele>65.6</ele>
      </trkpt>
      <trkpt lat="47.7695" lon="-1.85426">
        <ele>65.8</ele>
      </trkpt>
      <trkpt lat="47.76951" lon="-1.85425">
        <ele>65.9</ele>
      </trkpt>
      <trkpt lat="47.76952" lon="-1.85424">
        <ele>66.1</ele>
      </trkpt>
      <trkpt lat="47.76954" lon="-1.85422">
        <ele>66.3</ele>
      </trkpt>
      <trkpt lat="47.76955" lon="-1.8542">
        <ele>66.5</ele>
      </trkpt>
      <trkpt lat="47.76957" lon="-1.85418">
        <ele>66.7</ele>
      </trkpt>
      <trkpt lat="47.76958" lon="-1.85416">
        <ele>66.9</ele>
      </trkpt>
      <trkpt lat="47.76959" lon="-1.85413">
        <ele>67</ele>
      </trkpt>
      <trkpt lat="47.7696" lon="-1.8541">
        <ele>67</ele>
      </trkpt>
      <trkpt lat="47.76961" lon="-1.85408">
        <ele>67.1</ele>
      </trkpt>
      <trkpt lat="47.76963" lon="-1.85404">
        <ele>67.1</ele>
      </trkpt>
      <trkpt lat="47.76964" lon="-1.85402">
        <ele>67.2</ele>
      </trkpt>
      <trkpt lat="47.76965" lon="-1.85398">
        <ele>67.3</ele>
      </trkpt>
      <trkpt lat="47.76966" lon="-1.85395">
        <ele>67.3</ele>
      </trkpt>
      <trkpt lat="47.76967" lon="-1.85391">
        <ele>67.3</ele>
      </trkpt>
      <trkpt lat="47.76968" lon="-1.85387">
        <ele>67.3</ele>
      </trkpt>
      <trkpt lat="47.76969" lon="-1.85384">
        <ele>67.4</ele>
      </trkpt>
      <trkpt lat="47.7697" lon="-1.85382">
        <ele>67.5</ele>
      </trkpt>
      <trkpt lat="47.76971" lon="-1.85379">
        <ele>67.7</ele>
      </trkpt>
      <trkpt lat="47.76973" lon="-1.85376">
        <ele>67.9</ele>
      </trkpt>
      <trkpt lat="47.76975" lon="-1.85373">
        <ele>68.3</ele>
      </trkpt>
      <trkpt lat="47.76978" lon="-1.85371">
        <ele>68.7</ele>
      </trkpt>
      <trkpt lat="47.76979" lon="-1.85369">
        <ele>68.9</ele>
      </trkpt>
      <trkpt lat="47.7698" lon="-1.85367">
        <ele>69.1</ele>
      </trkpt>
      <trkpt lat="47.76981" lon="-1.85365">
        <ele>69.3</ele>
      </trkpt>
      <trkpt lat="47.76983" lon="-1.85363">
        <ele>69.5</ele>
      </trkpt>
      <trkpt lat="47.76984" lon="-1.85361">
        <ele>69.7</ele>
      </trkpt>
      <trkpt lat="47.76985" lon="-1.85359">
        <ele>70</ele>
      </trkpt>
      <trkpt lat="47.76987" lon="-1.85356">
        <ele>70.2</ele>
      </trkpt>
      <trkpt lat="47.76989" lon="-1.85355">
        <ele>70.6</ele>
      </trkpt>
      <trkpt lat="47.7699" lon="-1.85354">
        <ele>71</ele>
      </trkpt>
      <trkpt lat="47.76991" lon="-1.85352">
        <ele>71.2</ele>
      </trkpt>
      <trkpt lat="47.76993" lon="-1.85349">
        <ele>71.5</ele>
      </trkpt>
      <trkpt lat="47.76994" lon="-1.85345">
        <ele>71.7</ele>
      </trkpt>
      <trkpt lat="47.76995" lon="-1.85342">
        <ele>72</ele>
      </trkpt>
      <trkpt lat="47.76997" lon="-1.85338">
        <ele>72.3</ele>
      </trkpt>
      <trkpt lat="47.77" lon="-1.85334">
        <ele>73</ele>
      </trkpt>
      <trkpt lat="47.77002" lon="-1.85331">
        <ele>73</ele>
      </trkpt>
      <trkpt lat="47.77003" lon="-1.85328">
        <ele>73</ele>
      </trkpt>
      <trkpt lat="47.77004" lon="-1.85325">
        <ele>72.8</ele>
      </trkpt>
      <trkpt lat="47.77004" lon="-1.85322">
        <ele>72.6</ele>
      </trkpt>
      <trkpt lat="47.77004" lon="-1.85318">
        <ele>72.3</ele>
      </trkpt>
      <trkpt lat="47.77005" lon="-1.8531">
        <ele>71.8</ele>
      </trkpt>
      <trkpt lat="47.77006" lon="-1.85306">
        <ele>71.7</ele>
      </trkpt>
      <trkpt lat="47.77008" lon="-1.85302">
        <ele>71.7</ele>
      </trkpt>
      <trkpt lat="47.7701" lon="-1.85299">
        <ele>71.8</ele>
      </trkpt>
      <trkpt lat="47.77012" lon="-1.85297">
        <ele>71.9</ele>
      </trkpt>
      <trkpt lat="47.77013" lon="-1.85295">
        <ele>71.8</ele>
      </trkpt>
      <trkpt lat="47.77013" lon="-1.85292">
        <ele>71.8</ele>
      </trkpt>
      <trkpt lat="47.77014" lon="-1.8529">
        <ele>71.8</ele>
      </trkpt>
      <trkpt lat="47.77015" lon="-1.85287">
        <ele>71.7</ele>
      </trkpt>
      <trkpt lat="47.77016" lon="-1.85284">
        <ele>71.7</ele>
      </trkpt>
      <trkpt lat="47.77019" lon="-1.85282">
        <ele>72</ele>
      </trkpt>
      <trkpt lat="47.77021" lon="-1.85279">
        <ele>72.1</ele>
      </trkpt>
      <trkpt lat="47.77021" lon="-1.85275">
        <ele>72</ele>
      </trkpt>
      <trkpt lat="47.77021" lon="-1.8527">
        <ele>71.6</ele>
      </trkpt>
      <trkpt lat="47.77021" lon="-1.85264">
        <ele>71.1</ele>
      </trkpt>
      <trkpt lat="47.77021" lon="-1.85259">
        <ele>71</ele>
      </trkpt>
      <trkpt lat="47.77023" lon="-1.85254">
        <ele>71.1</ele>
      </trkpt>
      <trkpt lat="47.77025" lon="-1.85249">
        <ele>71</ele>
      </trkpt>
      <trkpt lat="47.77026" lon="-1.85246">
        <ele>71</ele>
      </trkpt>
      <trkpt lat="47.77027" lon="-1.85242">
        <ele>70.9</ele>
      </trkpt>
      <trkpt lat="47.77026" lon="-1.85237">
        <ele>70.5</ele>
      </trkpt>
      <trkpt lat="47.77026" lon="-1.85233">
        <ele>70</ele>
      </trkpt>
      <trkpt lat="47.77025" lon="-1.85226">
        <ele>69.5</ele>
      </trkpt>
      <trkpt lat="47.77025" lon="-1.85219">
        <ele>69</ele>
      </trkpt>
      <trkpt lat="47.77024" lon="-1.85213">
        <ele>68.3</ele>
      </trkpt>
      <trkpt lat="47.77024" lon="-1.85207">
        <ele>68</ele>
      </trkpt>
      <trkpt lat="47.77024" lon="-1.852">
        <ele>67.6</ele>
      </trkpt>
      <trkpt lat="47.77024" lon="-1.85195">
        <ele>67.2</ele>
      </trkpt>
      <trkpt lat="47.77023" lon="-1.8519">
        <ele>66.6</ele>
      </trkpt>
      <trkpt lat="47.77021" lon="-1.85184">
        <ele>65.7</ele>
      </trkpt>
      <trkpt lat="47.77019" lon="-1.85178">
        <ele>64.9</ele>
      </trkpt>
      <trkpt lat="47.77018" lon="-1.8517">
        <ele>64.1</ele>
      </trkpt>
      <trkpt lat="47.77019" lon="-1.85164">
        <ele>63.7</ele>
      </trkpt>
      <trkpt lat="47.77021" lon="-1.8516">
        <ele>63.7</ele>
      </trkpt>
      <trkpt lat="47.77023" lon="-1.85157">
        <ele>63.7</ele>
      </trkpt>
      <trkpt lat="47.77025" lon="-1.85154">
        <ele>63.9</ele>
      </trkpt>
      <trkpt lat="47.77027" lon="-1.85153">
        <ele>64.2</ele>
      </trkpt>
      <trkpt lat="47.77029" lon="-1.8515">
        <ele>64.3</ele>
      </trkpt>
      <trkpt lat="47.77031" lon="-1.85149">
        <ele>64.7</ele>
      </trkpt>
      <trkpt lat="47.77034" lon="-1.85147">
        <ele>64.8</ele>
      </trkpt>
      <trkpt lat="47.77036" lon="-1.85143">
        <ele>64.9</ele>
      </trkpt>
      <trkpt lat="47.77038" lon="-1.8514">
        <ele>64.8</ele>
      </trkpt>
      <trkpt lat="47.7704" lon="-1.85137">
        <ele>64.9</ele>
      </trkpt>
      <trkpt lat="47.77042" lon="-1.85136">
        <ele>65.3</ele>
      </trkpt>
      <trkpt lat="47.77044" lon="-1.85137">
        <ele>65.7</ele>
      </trkpt>
      <trkpt lat="47.77045" lon="-1.85136">
        <ele>65.9</ele>
      </trkpt>
      <trkpt lat="47.77046" lon="-1.85136">
        <ele>66.1</ele>
      </trkpt>
      <trkpt lat="47.77048" lon="-1.85137">
        <ele>66.5</ele>
      </trkpt>
      <trkpt lat="47.7705" lon="-1.85139">
        <ele>67.2</ele>
      </trkpt>
      <trkpt lat="47.77053" lon="-1.85136">
        <ele>67.4</ele>
      </trkpt>
      <trkpt lat="47.77055" lon="-1.85135">
        <ele>67.6</ele>
      </trkpt>
      <trkpt lat="47.77058" lon="-1.85133">
        <ele>68</ele>
      </trkpt>
      <trkpt lat="47.7706" lon="-1.85132">
        <ele>68.3</ele>
      </trkpt>
      <trkpt lat="47.77063" lon="-1.85131">
        <ele>68.8</ele>
      </trkpt>
      <trkpt lat="47.77066" lon="-1.85131">
        <ele>69.3</ele>
      </trkpt>
      <trkpt lat="47.77068" lon="-1.8513">
        <ele>69.6</ele>
      </trkpt>
      <trkpt lat="47.77069" lon="-1.85128">
        <ele>69.7</ele>
      </trkpt>
      <trkpt lat="47.77071" lon="-1.85127">
        <ele>69.9</ele>
      </trkpt>
      <trkpt lat="47.77073" lon="-1.85126">
        <ele>70.1</ele>
      </trkpt>
      <trkpt lat="47.77075" lon="-1.85125">
        <ele>70.3</ele>
      </trkpt>
      <trkpt lat="47.77076" lon="-1.85123">
        <ele>70.3</ele>
      </trkpt>
      <trkpt lat="47.77078" lon="-1.85122">
        <ele>70.6</ele>
      </trkpt>
      <trkpt lat="47.7708" lon="-1.85122">
        <ele>70.9</ele>
      </trkpt>
      <trkpt lat="47.77082" lon="-1.85121">
        <ele>71.2</ele>
      </trkpt>
      <trkpt lat="47.77085" lon="-1.8512">
        <ele>71.4</ele>
      </trkpt>
      <trkpt lat="47.77087" lon="-1.85119">
        <ele>71.5</ele>
      </trkpt>
      <trkpt lat="47.77089" lon="-1.85117">
        <ele>71.6</ele>
      </trkpt>
      <trkpt lat="47.77091" lon="-1.85115">
        <ele>71.5</ele>
      </trkpt>
      <trkpt lat="47.77095" lon="-1.85114">
        <ele>71.7</ele>
      </trkpt>
      <trkpt lat="47.77098" lon="-1.85114">
        <ele>72</ele>
      </trkpt>
      <trkpt lat="47.77101" lon="-1.85113">
        <ele>72.3</ele>
      </trkpt>
      <trkpt lat="47.77104" lon="-1.85113">
        <ele>72.6</ele>
      </trkpt>
      <trkpt lat="47.77108" lon="-1.85112">
        <ele>73</ele>
      </trkpt>
      <trkpt lat="47.77111" lon="-1.85111">
        <ele>73.2</ele>
      </trkpt>
      <trkpt lat="47.77114" lon="-1.85111">
        <ele>73.6</ele>
      </trkpt>
      <trkpt lat="47.77117" lon="-1.8511">
        <ele>73.8</ele>
      </trkpt>
      <trkpt lat="47.7712" lon="-1.85108">
        <ele>73.8</ele>
      </trkpt>
      <trkpt lat="47.77122" lon="-1.85107">
        <ele>73.9</ele>
      </trkpt>
      <trkpt lat="47.77124" lon="-1.85105">
        <ele>73.9</ele>
      </trkpt>
      <trkpt lat="47.77127" lon="-1.85102">
        <ele>73.8</ele>
      </trkpt>
      <trkpt lat="47.77129" lon="-1.851">
        <ele>73.8</ele>
      </trkpt>
      <trkpt lat="47.77132" lon="-1.85098">
        <ele>73.9</ele>
      </trkpt>
      <trkpt lat="47.77134" lon="-1.85097">
        <ele>74</ele>
      </trkpt>
      <trkpt lat="47.77137" lon="-1.85095">
        <ele>74</ele>
      </trkpt>
      <trkpt lat="47.77142" lon="-1.85093">
        <ele>74.3</ele>
      </trkpt>
      <trkpt lat="47.77146" lon="-1.85092">
        <ele>74.6</ele>
      </trkpt>
      <trkpt lat="47.77152" lon="-1.85089">
        <ele>75</ele>
      </trkpt>
      <trkpt lat="47.77154" lon="-1.85088">
        <ele>75.1</ele>
      </trkpt>
      <trkpt lat="47.77156" lon="-1.85087">
        <ele>75.2</ele>
      </trkpt>
      <trkpt lat="47.7716" lon="-1.85086">
        <ele>75.6</ele>
      </trkpt>
      <trkpt lat="47.77163" lon="-1.85088">
        <ele>76.2</ele>
      </trkpt>
      <trkpt lat="47.77166" lon="-1.85087">
        <ele>76.4</ele>
      </trkpt>
      <trkpt lat="47.77169" lon="-1.85086">
        <ele>76.4</ele>
      </trkpt>
      <trkpt lat="47.77173" lon="-1.85085">
        <ele>76.5</ele>
      </trkpt>
      <trkpt lat="47.77177" lon="-1.85085">
        <ele>76.8</ele>
      </trkpt>
      <trkpt lat="47.77181" lon="-1.85085">
        <ele>77.1</ele>
      </trkpt>
      <trkpt lat="47.77185" lon="-1.85085">
        <ele>77.3</ele>
      </trkpt>
      <trkpt lat="47.77189" lon="-1.85085">
        <ele>77.5</ele>
      </trkpt>
      <trkpt lat="47.77196" lon="-1.8508">
        <ele>77.4</ele>
      </trkpt>
      <trkpt lat="47.77199" lon="-1.85079">
        <ele>77.4</ele>
      </trkpt>
      <trkpt lat="47.77202" lon="-1.85079">
        <ele>77.6</ele>
      </trkpt>
      <trkpt lat="47.77206" lon="-1.85079">
        <ele>77.8</ele>
      </trkpt>
      <trkpt lat="47.77209" lon="-1.85078">
        <ele>78</ele>
      </trkpt>
      <trkpt lat="47.77213" lon="-1.85079">
        <ele>78.3</ele>
      </trkpt>
      <trkpt lat="47.77219" lon="-1.85077">
        <ele>78.5</ele>
      </trkpt>
      <trkpt lat="47.77221" lon="-1.85075">
        <ele>78.5</ele>
      </trkpt>
      <trkpt lat="47.77224" lon="-1.85073">
        <ele>78.4</ele>
      </trkpt>
      <trkpt lat="47.77226" lon="-1.85071">
        <ele>78.3</ele>
      </trkpt>
      <trkpt lat="47.77228" lon="-1.85069">
        <ele>78.3</ele>
      </trkpt>
      <trkpt lat="47.7723" lon="-1.85068">
        <ele>78.3</ele>
      </trkpt>
      <trkpt lat="47.77233" lon="-1.85066">
        <ele>78.4</ele>
      </trkpt>
      <trkpt lat="47.77236" lon="-1.85065">
        <ele>78.5</ele>
      </trkpt>
      <trkpt lat="47.77238" lon="-1.85064">
        <ele>78.5</ele>
      </trkpt>
      <trkpt lat="47.77241" lon="-1.85063">
        <ele>78.6</ele>
      </trkpt>
      <trkpt lat="47.77244" lon="-1.85061">
        <ele>78.7</ele>
      </trkpt>
      <trkpt lat="47.77247" lon="-1.8506">
        <ele>78.8</ele>
      </trkpt>
      <trkpt lat="47.7725" lon="-1.85058">
        <ele>78.9</ele>
      </trkpt>
      <trkpt lat="47.77252" lon="-1.85056">
        <ele>78.8</ele>
      </trkpt>
      <trkpt lat="47.77254" lon="-1.85055">
        <ele>78.7</ele>
      </trkpt>
      <trkpt lat="47.77256" lon="-1.85053">
        <ele>78.6</ele>
      </trkpt>
      <trkpt lat="47.77258" lon="-1.85052">
        <ele>78.6</ele>
      </trkpt>
      <trkpt lat="47.7726" lon="-1.85051">
        <ele>78.5</ele>
      </trkpt>
      <trkpt lat="47.77263" lon="-1.8505">
        <ele>78.5</ele>
      </trkpt>
      <trkpt lat="47.77265" lon="-1.85048">
        <ele>78.5</ele>
      </trkpt>
      <trkpt lat="47.77268" lon="-1.85046">
        <ele>78.5</ele>
      </trkpt>
      <trkpt lat="47.77272" lon="-1.85045">
        <ele>78.5</ele>
      </trkpt>
      <trkpt lat="47.77276" lon="-1.85043">
        <ele>78.5</ele>
      </trkpt>
      <trkpt lat="47.7728" lon="-1.85042">
        <ele>78.6</ele>
      </trkpt>
      <trkpt lat="47.77285" lon="-1.85039">
        <ele>78.6</ele>
      </trkpt>
      <trkpt lat="47.77289" lon="-1.85038">
        <ele>78.7</ele>
      </trkpt>
      <trkpt lat="47.77293" lon="-1.85036">
        <ele>78.8</ele>
      </trkpt>
      <trkpt lat="47.77296" lon="-1.85035">
        <ele>78.8</ele>
      </trkpt>
      <trkpt lat="47.77299" lon="-1.85032">
        <ele>78.9</ele>
      </trkpt>
      <trkpt lat="47.77303" lon="-1.85031">
        <ele>79</ele>
      </trkpt>
      <trkpt lat="47.77306" lon="-1.85029">
        <ele>79.1</ele>
      </trkpt>
      <trkpt lat="47.77309" lon="-1.85027">
        <ele>79.1</ele>
      </trkpt>
      <trkpt lat="47.77311" lon="-1.85025">
        <ele>79.2</ele>
      </trkpt>
      <trkpt lat="47.77313" lon="-1.85023">
        <ele>79.2</ele>
      </trkpt>
      <trkpt lat="47.77317" lon="-1.8502">
        <ele>79.4</ele>
      </trkpt>
      <trkpt lat="47.77321" lon="-1.85019">
        <ele>79.5</ele>
      </trkpt>
      <trkpt lat="47.77324" lon="-1.85018">
        <ele>79.7</ele>
      </trkpt>
      <trkpt lat="47.77329" lon="-1.85018">
        <ele>79.9</ele>
      </trkpt>
      <trkpt lat="47.77332" lon="-1.85017">
        <ele>80.1</ele>
      </trkpt>
      <trkpt lat="47.77335" lon="-1.85014">
        <ele>80.2</ele>
      </trkpt>
      <trkpt lat="47.77338" lon="-1.85012">
        <ele>80.3</ele>
      </trkpt>
      <trkpt lat="47.7734" lon="-1.85011">
        <ele>80.4</ele>
      </trkpt>
      <trkpt lat="47.77342" lon="-1.8501">
        <ele>80.4</ele>
      </trkpt>
      <trkpt lat="47.77349" lon="-1.85004">
        <ele>80.6</ele>
      </trkpt>
      <trkpt lat="47.77349" lon="-1.85004">
        <ele>80.6</ele>
      </trkpt>
      <trkpt lat="47.7735" lon="-1.85006">
        <ele>80.7</ele>
      </trkpt>
      <trkpt lat="47.77352" lon="-1.85007">
        <ele>80.7</ele>
      </trkpt>
      <trkpt lat="47.77354" lon="-1.85009">
        <ele>80.8</ele>
      </trkpt>
      <trkpt lat="47.77356" lon="-1.85011">
        <ele>80.9</ele>
      </trkpt>
      <trkpt lat="47.77356" lon="-1.85015">
        <ele>81</ele>
      </trkpt>
      <trkpt lat="47.77356" lon="-1.85018">
        <ele>81</ele>
      </trkpt>
      <trkpt lat="47.77355" lon="-1.8502">
        <ele>80.9</ele>
      </trkpt>
      <trkpt lat="47.77352" lon="-1.85024">
        <ele>80.9</ele>
      </trkpt>
      <trkpt lat="47.77351" lon="-1.85027">
        <ele>80.9</ele>
      </trkpt>
      <trkpt lat="47.77349" lon="-1.85031">
        <ele>80.9</ele>
      </trkpt>
      <trkpt lat="47.77348" lon="-1.85035">
        <ele>80.9</ele>
      </trkpt>
      <trkpt lat="47.77347" lon="-1.85039">
        <ele>80.9</ele>
      </trkpt>
      <trkpt lat="47.77346" lon="-1.85042">
        <ele>80.9</ele>
      </trkpt>
      <trkpt lat="47.77345" lon="-1.85046">
        <ele>80.9</ele>
      </trkpt>
      <trkpt lat="47.77344" lon="-1.85049">
        <ele>80.9</ele>
      </trkpt>
      <trkpt lat="47.77344" lon="-1.85052">
        <ele>80.9</ele>
      </trkpt>
      <trkpt lat="47.77343" lon="-1.85055">
        <ele>80.9</ele>
      </trkpt>
      <trkpt lat="47.77342" lon="-1.85058">
        <ele>80.9</ele>
      </trkpt>
      <trkpt lat="47.77341" lon="-1.85062">
        <ele>80.9</ele>
      </trkpt>
      <trkpt lat="47.77339" lon="-1.85065">
        <ele>80.9</ele>
      </trkpt>
      <trkpt lat="47.77337" lon="-1.85068">
        <ele>80.9</ele>
      </trkpt>
      <trkpt lat="47.77336" lon="-1.85071">
        <ele>80.9</ele>
      </trkpt>
      <trkpt lat="47.77336" lon="-1.85076">
        <ele>81</ele>
      </trkpt>
      <trkpt lat="47.77335" lon="-1.85081">
        <ele>81</ele>
      </trkpt>
      <trkpt lat="47.77336" lon="-1.85086">
        <ele>81.1</ele>
      </trkpt>
      <trkpt lat="47.77337" lon="-1.85091">
        <ele>81.2</ele>
      </trkpt>
      <trkpt lat="47.77338" lon="-1.85096">
        <ele>81.2</ele>
      </trkpt>
      <trkpt lat="47.77339" lon="-1.851">
        <ele>81.3</ele>
      </trkpt>
      <trkpt lat="47.7734" lon="-1.85104">
        <ele>81.4</ele>
      </trkpt>
      <trkpt lat="47.77342" lon="-1.8511">
        <ele>81.5</ele>
      </trkpt>
      <trkpt lat="47.77344" lon="-1.85115">
        <ele>81.5</ele>
      </trkpt>
      <trkpt lat="47.77346" lon="-1.8512">
        <ele>81.6</ele>
      </trkpt>
      <trkpt lat="47.77349" lon="-1.85124">
        <ele>81.7</ele>
      </trkpt>
      <trkpt lat="47.77351" lon="-1.85126">
        <ele>81.7</ele>
      </trkpt>
      <trkpt lat="47.77353" lon="-1.85129">
        <ele>81.8</ele>
      </trkpt>
      <trkpt lat="47.77354" lon="-1.85132">
        <ele>81.8</ele>
      </trkpt>
      <trkpt lat="47.77353" lon="-1.85136">
        <ele>81.8</ele>
      </trkpt>
      <trkpt lat="47.77353" lon="-1.8514">
        <ele>81.8</ele>
      </trkpt>
      <trkpt lat="47.77352" lon="-1.85146">
        <ele>81.9</ele>
      </trkpt>
      <trkpt lat="47.77353" lon="-1.85153">
        <ele>81.9</ele>
      </trkpt>
      <trkpt lat="47.77356" lon="-1.85156">
        <ele>81.9</ele>
      </trkpt>
      <trkpt lat="47.77359" lon="-1.85158">
        <ele>82</ele>
      </trkpt>
      <trkpt lat="47.77362" lon="-1.85157">
        <ele>82</ele>
      </trkpt>
      <trkpt lat="47.77365" lon="-1.85155">
        <ele>82</ele>
      </trkpt>
      <trkpt lat="47.77368" lon="-1.85153">
        <ele>82</ele>
      </trkpt>
      <trkpt lat="47.77371" lon="-1.85151">
        <ele>82</ele>
      </trkpt>
      <trkpt lat="47.77374" lon="-1.8515">
        <ele>82</ele>
      </trkpt>
      <trkpt lat="47.77378" lon="-1.8515">
        <ele>82</ele>
      </trkpt>
      <trkpt lat="47.77382" lon="-1.85149">
        <ele>82</ele>
      </trkpt>
      <trkpt lat="47.77387" lon="-1.85147">
        <ele>82.1</ele>
      </trkpt>
      <trkpt lat="47.77391" lon="-1.85146">
        <ele>82.1</ele>
      </trkpt>
      <trkpt lat="47.77394" lon="-1.85144">
        <ele>82.1</ele>
      </trkpt>
      <trkpt lat="47.77398" lon="-1.85142">
        <ele>82.2</ele>
      </trkpt>
      <trkpt lat="47.77401" lon="-1.85141">
        <ele>82.2</ele>
      </trkpt>
      <trkpt lat="47.77404" lon="-1.85143">
        <ele>82.2</ele>
      </trkpt>
      <trkpt lat="47.77405" lon="-1.85147">
        <ele>82.2</ele>
      </trkpt>
      <trkpt lat="47.77404" lon="-1.85151">
        <ele>82.1</ele>
      </trkpt>
      <trkpt lat="47.77404" lon="-1.85157">
        <ele>82.1</ele>
      </trkpt>
      <trkpt lat="47.77404" lon="-1.85164">
        <ele>82</ele>
      </trkpt>
      <trkpt lat="47.77405" lon="-1.8517">
        <ele>81.7</ele>
      </trkpt>
      <trkpt lat="47.77404" lon="-1.85179">
        <ele>81</ele>
      </trkpt>
      <trkpt lat="47.77404" lon="-1.85179">
        <ele>81</ele>
      </trkpt>
      <trkpt lat="47.77402" lon="-1.85182">
        <ele>80.8</ele>
      </trkpt>
      <trkpt lat="47.77399" lon="-1.85183">
        <ele>80.8</ele>
      </trkpt>
      <trkpt lat="47.77395" lon="-1.85184">
        <ele>80.8</ele>
      </trkpt>
      <trkpt lat="47.77392" lon="-1.85185">
        <ele>80.8</ele>
      </trkpt>
      <trkpt lat="47.77389" lon="-1.85187">
        <ele>80.8</ele>
      </trkpt>
      <trkpt lat="47.77386" lon="-1.8519">
        <ele>80.7</ele>
      </trkpt>
      <trkpt lat="47.77385" lon="-1.85194">
        <ele>80.5</ele>
      </trkpt>
      <trkpt lat="47.77384" lon="-1.85197">
        <ele>80.4</ele>
      </trkpt>
      <trkpt lat="47.77386" lon="-1.852">
        <ele>80.1</ele>
      </trkpt>
      <trkpt lat="47.77389" lon="-1.85201">
        <ele>80</ele>
      </trkpt>
      <trkpt lat="47.77392" lon="-1.852">
        <ele>79.9</ele>
      </trkpt>
      <trkpt lat="47.77394" lon="-1.85198">
        <ele>79.9</ele>
      </trkpt>
      <trkpt lat="47.77398" lon="-1.85196">
        <ele>79.9</ele>
      </trkpt>
      <trkpt lat="47.77401" lon="-1.85193">
        <ele>80</ele>
      </trkpt>
      <trkpt lat="47.77404" lon="-1.8519">
        <ele>80.1</ele>
      </trkpt>
      <trkpt lat="47.77407" lon="-1.85188">
        <ele>80.2</ele>
      </trkpt>
      <trkpt lat="47.7741" lon="-1.85188">
        <ele>80.2</ele>
      </trkpt>
      <trkpt lat="47.77414" lon="-1.85188">
        <ele>80</ele>
      </trkpt>
      <trkpt lat="47.77419" lon="-1.85189">
        <ele>79.8</ele>
      </trkpt>
      <trkpt lat="47.77425" lon="-1.85191">
        <ele>79.6</ele>
      </trkpt>
      <trkpt lat="47.77429" lon="-1.8519">
        <ele>79.6</ele>
      </trkpt>
      <trkpt lat="47.77432" lon="-1.85186">
        <ele>80</ele>
      </trkpt>
      <trkpt lat="47.77434" lon="-1.85181">
        <ele>80.5</ele>
      </trkpt>
      <trkpt lat="47.77437" lon="-1.85176">
        <ele>81.1</ele>
      </trkpt>
      <trkpt lat="47.77438" lon="-1.8517">
        <ele>81.6</ele>
      </trkpt>
      <trkpt lat="47.77438" lon="-1.85167">
        <ele>82</ele>
      </trkpt>
      <trkpt lat="47.77439" lon="-1.85165">
        <ele>82.1</ele>
      </trkpt>
      <trkpt lat="47.77441" lon="-1.85163">
        <ele>82.1</ele>
      </trkpt>
      <trkpt lat="47.77445" lon="-1.85161">
        <ele>82.2</ele>
      </trkpt>
      <trkpt lat="47.77449" lon="-1.85161">
        <ele>82.2</ele>
      </trkpt>
      <trkpt lat="47.77452" lon="-1.85162">
        <ele>82.1</ele>
      </trkpt>
      <trkpt lat="47.77456" lon="-1.85165">
        <ele>82.1</ele>
      </trkpt>
      <trkpt lat="47.77459" lon="-1.85169">
        <ele>81.8</ele>
      </trkpt>
      <trkpt lat="47.77465" lon="-1.85173">
        <ele>81.2</ele>
      </trkpt>
      <trkpt lat="47.7747" lon="-1.85178">
        <ele>80.7</ele>
      </trkpt>
      <trkpt lat="47.77474" lon="-1.85182">
        <ele>80.2</ele>
      </trkpt>
      <trkpt lat="47.7748" lon="-1.85185">
        <ele>79.8</ele>
      </trkpt>
      <trkpt lat="47.77484" lon="-1.85187">
        <ele>79.5</ele>
      </trkpt>
      <trkpt lat="47.77489" lon="-1.85191">
        <ele>78.9</ele>
      </trkpt>
      <trkpt lat="47.7749" lon="-1.85195">
        <ele>78.4</ele>
      </trkpt>
      <trkpt lat="47.77491" lon="-1.85199">
        <ele>77.8</ele>
      </trkpt>
      <trkpt lat="47.77491" lon="-1.85205">
        <ele>77.1</ele>
      </trkpt>
      <trkpt lat="47.77492" lon="-1.8521">
        <ele>76.5</ele>
      </trkpt>
      <trkpt lat="47.77494" lon="-1.85216">
        <ele>75.6</ele>
      </trkpt>
      <trkpt lat="47.77497" lon="-1.85222">
        <ele>74.8</ele>
      </trkpt>
      <trkpt lat="47.77501" lon="-1.85226">
        <ele>74.1</ele>
      </trkpt>
      <trkpt lat="47.77506" lon="-1.85228">
        <ele>73.7</ele>
      </trkpt>
      <trkpt lat="47.7751" lon="-1.85229">
        <ele>73.6</ele>
      </trkpt>
      <trkpt lat="47.77515" lon="-1.8523">
        <ele>73.3</ele>
      </trkpt>
      <trkpt lat="47.7752" lon="-1.85231">
        <ele>73.1</ele>
      </trkpt>
      <trkpt lat="47.77524" lon="-1.85232">
        <ele>72.8</ele>
      </trkpt>
      <trkpt lat="47.77527" lon="-1.85234">
        <ele>72.5</ele>
      </trkpt>
      <trkpt lat="47.77529" lon="-1.85238">
        <ele>71.9</ele>
      </trkpt>
      <trkpt lat="47.77528" lon="-1.85243">
        <ele>71.3</ele>
      </trkpt>
      <trkpt lat="47.77525" lon="-1.85247">
        <ele>70.8</ele>
      </trkpt>
      <trkpt lat="47.77522" lon="-1.85251">
        <ele>70.4</ele>
      </trkpt>
      <trkpt lat="47.7752" lon="-1.85254">
        <ele>70.2</ele>
      </trkpt>
      <trkpt lat="47.7752" lon="-1.85257">
        <ele>69.9</ele>
      </trkpt>
      <trkpt lat="47.77522" lon="-1.85259">
        <ele>69.7</ele>
      </trkpt>
      <trkpt lat="47.77526" lon="-1.85261">
        <ele>69.4</ele>
      </trkpt>
      <trkpt lat="47.77536" lon="-1.85261">
        <ele>69</ele>
      </trkpt>
      <trkpt lat="47.77539" lon="-1.85261">
        <ele>69</ele>
      </trkpt>
      <trkpt lat="47.77541" lon="-1.85261">
        <ele>68.9</ele>
      </trkpt>
      <trkpt lat="47.77545" lon="-1.8526">
        <ele>68.9</ele>
      </trkpt>
      <trkpt lat="47.77548" lon="-1.85259">
        <ele>68.9</ele>
      </trkpt>
      <trkpt lat="47.77553" lon="-1.85259">
        <ele>68.7</ele>
      </trkpt>
      <trkpt lat="47.77557" lon="-1.85261">
        <ele>68.4</ele>
      </trkpt>
      <trkpt lat="47.77562" lon="-1.85262">
        <ele>68.1</ele>
      </trkpt>
      <trkpt lat="47.77565" lon="-1.85261">
        <ele>68.1</ele>
      </trkpt>
      <trkpt lat="47.77569" lon="-1.85261">
        <ele>68.1</ele>
      </trkpt>
      <trkpt lat="47.77572" lon="-1.85262">
        <ele>67.8</ele>
      </trkpt>
      <trkpt lat="47.77575" lon="-1.85265">
        <ele>67.3</ele>
      </trkpt>
      <trkpt lat="47.77578" lon="-1.85269">
        <ele>66.7</ele>
      </trkpt>
      <trkpt lat="47.77581" lon="-1.85273">
        <ele>66</ele>
      </trkpt>
      <trkpt lat="47.77585" lon="-1.85277">
        <ele>65.4</ele>
      </trkpt>
      <trkpt lat="47.77587" lon="-1.85282">
        <ele>64.8</ele>
      </trkpt>
      <trkpt lat="47.77588" lon="-1.85288">
        <ele>64.1</ele>
      </trkpt>
      <trkpt lat="47.77589" lon="-1.85293">
        <ele>63.4</ele>
      </trkpt>
      <trkpt lat="47.77591" lon="-1.85297">
        <ele>62.9</ele>
      </trkpt>
      <trkpt lat="47.77594" lon="-1.85297">
        <ele>62.9</ele>
      </trkpt>
      <trkpt lat="47.77598" lon="-1.85299">
        <ele>62.7</ele>
      </trkpt>
      <trkpt lat="47.77602" lon="-1.85301">
        <ele>62.5</ele>
      </trkpt>
      <trkpt lat="47.77606" lon="-1.85304">
        <ele>62.1</ele>
      </trkpt>
      <trkpt lat="47.77608" lon="-1.85306">
        <ele>61.7</ele>
      </trkpt>
      <trkpt lat="47.77608" lon="-1.8531">
        <ele>61.3</ele>
      </trkpt>
      <trkpt lat="47.77608" lon="-1.85313">
        <ele>60.8</ele>
      </trkpt>
      <trkpt lat="47.77608" lon="-1.85317">
        <ele>60.2</ele>
      </trkpt>
      <trkpt lat="47.7761" lon="-1.85322">
        <ele>59.5</ele>
      </trkpt>
      <trkpt lat="47.77612" lon="-1.85327">
        <ele>58.9</ele>
      </trkpt>
      <trkpt lat="47.77615" lon="-1.85329">
        <ele>58.6</ele>
      </trkpt>
      <trkpt lat="47.77617" lon="-1.85329">
        <ele>58.6</ele>
      </trkpt>
      <trkpt lat="47.77619" lon="-1.85328">
        <ele>58.8</ele>
      </trkpt>
      <trkpt lat="47.77622" lon="-1.85328">
        <ele>58.8</ele>
      </trkpt>
      <trkpt lat="47.77626" lon="-1.85327">
        <ele>58.9</ele>
      </trkpt>
      <trkpt lat="47.7763" lon="-1.85326">
        <ele>59.1</ele>
      </trkpt>
      <trkpt lat="47.77634" lon="-1.85324">
        <ele>59.3</ele>
      </trkpt>
      <trkpt lat="47.77638" lon="-1.85323">
        <ele>59.5</ele>
      </trkpt>
      <trkpt lat="47.77641" lon="-1.85324">
        <ele>59.3</ele>
      </trkpt>
      <trkpt lat="47.77645" lon="-1.85325">
        <ele>59.2</ele>
      </trkpt>
      <trkpt lat="47.77648" lon="-1.85325">
        <ele>59.3</ele>
      </trkpt>
      <trkpt lat="47.77651" lon="-1.85324">
        <ele>59.4</ele>
      </trkpt>
      <trkpt lat="47.77656" lon="-1.85325">
        <ele>59.3</ele>
      </trkpt>
      <trkpt lat="47.7766" lon="-1.85325">
        <ele>59.3</ele>
      </trkpt>
      <trkpt lat="47.77663" lon="-1.85328">
        <ele>58.8</ele>
      </trkpt>
      <trkpt lat="47.77665" lon="-1.85333">
        <ele>58</ele>
      </trkpt>
      <trkpt lat="47.77666" lon="-1.85347">
        <ele>57.5</ele>
      </trkpt>
      <trkpt lat="47.77667" lon="-1.85349">
        <ele>57.4</ele>
      </trkpt>
      <trkpt lat="47.77667" lon="-1.85352">
        <ele>57.4</ele>
      </trkpt>
      <trkpt lat="47.77668" lon="-1.85358">
        <ele>57.2</ele>
      </trkpt>
      <trkpt lat="47.77671" lon="-1.85362">
        <ele>57.3</ele>
      </trkpt>
      <trkpt lat="47.77675" lon="-1.85366">
        <ele>57.4</ele>
      </trkpt>
      <trkpt lat="47.77677" lon="-1.85371">
        <ele>57.3</ele>
      </trkpt>
      <trkpt lat="47.7768" lon="-1.85374">
        <ele>57.3</ele>
      </trkpt>
      <trkpt lat="47.77683" lon="-1.85377">
        <ele>57.4</ele>
      </trkpt>
      <trkpt lat="47.77688" lon="-1.8538">
        <ele>57.5</ele>
      </trkpt>
      <trkpt lat="47.77692" lon="-1.85384">
        <ele>57.5</ele>
      </trkpt>
      <trkpt lat="47.77694" lon="-1.85389">
        <ele>57.4</ele>
      </trkpt>
      <trkpt lat="47.77698" lon="-1.85394">
        <ele>57.2</ele>
      </trkpt>
      <trkpt lat="47.77701" lon="-1.85398">
        <ele>57.1</ele>
      </trkpt>
      <trkpt lat="47.77704" lon="-1.85402">
        <ele>56.9</ele>
      </trkpt>
      <trkpt lat="47.77708" lon="-1.85406">
        <ele>56.8</ele>
      </trkpt>
      <trkpt lat="47.77713" lon="-1.85407">
        <ele>56.8</ele>
      </trkpt>
      <trkpt lat="47.77716" lon="-1.85406">
        <ele>57</ele>
      </trkpt>
      <trkpt lat="47.77717" lon="-1.85404">
        <ele>57.2</ele>
      </trkpt>
      <trkpt lat="47.77718" lon="-1.85402">
        <ele>57.4</ele>
      </trkpt>
      <trkpt lat="47.77719" lon="-1.854">
        <ele>57.6</ele>
      </trkpt>
      <trkpt lat="47.7772" lon="-1.85399">
        <ele>57.8</ele>
      </trkpt>
      <trkpt lat="47.77722" lon="-1.85398">
        <ele>57.9</ele>
      </trkpt>
      <trkpt lat="47.77724" lon="-1.85398">
        <ele>58</ele>
      </trkpt>
      <trkpt lat="47.77727" lon="-1.85397">
        <ele>58.1</ele>
      </trkpt>
      <trkpt lat="47.7773" lon="-1.85397">
        <ele>58.3</ele>
      </trkpt>
      <trkpt lat="47.77732" lon="-1.85397">
        <ele>58.4</ele>
      </trkpt>
      <trkpt lat="47.77735" lon="-1.85397">
        <ele>58.5</ele>
      </trkpt>
      <trkpt lat="47.77737" lon="-1.854">
        <ele>58.3</ele>
      </trkpt>
      <trkpt lat="47.7774" lon="-1.85404">
        <ele>58.1</ele>
      </trkpt>
      <trkpt lat="47.77743" lon="-1.85406">
        <ele>57.9</ele>
      </trkpt>
      <trkpt lat="47.77747" lon="-1.85408">
        <ele>57.8</ele>
      </trkpt>
      <trkpt lat="47.77751" lon="-1.8541">
        <ele>57.8</ele>
      </trkpt>
      <trkpt lat="47.77755" lon="-1.85412">
        <ele>57.8</ele>
      </trkpt>
      <trkpt lat="47.77759" lon="-1.85414">
        <ele>57.7</ele>
      </trkpt>
      <trkpt lat="47.77762" lon="-1.85416">
        <ele>57.6</ele>
      </trkpt>
      <trkpt lat="47.77767" lon="-1.85418">
        <ele>57.7</ele>
      </trkpt>
      <trkpt lat="47.77772" lon="-1.8542">
        <ele>57.8</ele>
      </trkpt>
      <trkpt lat="47.77777" lon="-1.85423">
        <ele>57.8</ele>
      </trkpt>
      <trkpt lat="47.77785" lon="-1.85427">
        <ele>57.7</ele>
      </trkpt>
      <trkpt lat="47.77788" lon="-1.85429">
        <ele>57.7</ele>
      </trkpt>
      <trkpt lat="47.77791" lon="-1.85431">
        <ele>57.6</ele>
      </trkpt>
      <trkpt lat="47.77795" lon="-1.85433">
        <ele>57.5</ele>
      </trkpt>
      <trkpt lat="47.77799" lon="-1.85437">
        <ele>57.3</ele>
      </trkpt>
      <trkpt lat="47.778" lon="-1.85443">
        <ele>56.7</ele>
      </trkpt>
      <trkpt lat="47.77801" lon="-1.8545">
        <ele>56</ele>
      </trkpt>
      <trkpt lat="47.77802" lon="-1.85458">
        <ele>55.3</ele>
      </trkpt>
      <trkpt lat="47.77802" lon="-1.85463">
        <ele>54.7</ele>
      </trkpt>
      <trkpt lat="47.77803" lon="-1.85468">
        <ele>54.3</ele>
      </trkpt>
      <trkpt lat="47.77804" lon="-1.85472">
        <ele>53.9</ele>
      </trkpt>
      <trkpt lat="47.77805" lon="-1.85474">
        <ele>53.7</ele>
      </trkpt>
      <trkpt lat="47.77808" lon="-1.85476">
        <ele>53.5</ele>
      </trkpt>
      <trkpt lat="47.77811" lon="-1.85478">
        <ele>53.3</ele>
      </trkpt>
      <trkpt lat="47.77814" lon="-1.8548">
        <ele>53.2</ele>
      </trkpt>
      <trkpt lat="47.77819" lon="-1.85481">
        <ele>53.2</ele>
      </trkpt>
      <trkpt lat="47.77824" lon="-1.85481">
        <ele>53.2</ele>
      </trkpt>
      <trkpt lat="47.77826" lon="-1.85478">
        <ele>53.6</ele>
      </trkpt>
      <trkpt lat="47.77829" lon="-1.85475">
        <ele>53.9</ele>
      </trkpt>
      <trkpt lat="47.77831" lon="-1.85474">
        <ele>54.1</ele>
      </trkpt>
      <trkpt lat="47.77834" lon="-1.85475">
        <ele>54</ele>
      </trkpt>
      <trkpt lat="47.77836" lon="-1.85477">
        <ele>53.7</ele>
      </trkpt>
      <trkpt lat="47.77839" lon="-1.85481">
        <ele>53.2</ele>
      </trkpt>
      <trkpt lat="47.77842" lon="-1.85486">
        <ele>52.5</ele>
      </trkpt>
      <trkpt lat="47.77845" lon="-1.85491">
        <ele>52</ele>
      </trkpt>
      <trkpt lat="47.77848" lon="-1.85495">
        <ele>51.4</ele>
      </trkpt>
      <trkpt lat="47.77851" lon="-1.85499">
        <ele>50.9</ele>
      </trkpt>
      <trkpt lat="47.77853" lon="-1.85503">
        <ele>50.4</ele>
      </trkpt>
      <trkpt lat="47.77855" lon="-1.85508">
        <ele>49.8</ele>
      </trkpt>
      <trkpt lat="47.77856" lon="-1.85514">
        <ele>49</ele>
      </trkpt>
      <trkpt lat="47.77856" lon="-1.8552">
        <ele>48.2</ele>
      </trkpt>
      <trkpt lat="47.77856" lon="-1.85526">
        <ele>47.5</ele>
      </trkpt>
      <trkpt lat="47.77857" lon="-1.85531">
        <ele>46.9</ele>
      </trkpt>
      <trkpt lat="47.77859" lon="-1.85534">
        <ele>46.5</ele>
      </trkpt>
      <trkpt lat="47.77862" lon="-1.85537">
        <ele>46.1</ele>
      </trkpt>
      <trkpt lat="47.77866" lon="-1.8554">
        <ele>45.7</ele>
      </trkpt>
      <trkpt lat="47.77869" lon="-1.85541">
        <ele>45.5</ele>
      </trkpt>
      <trkpt lat="47.77872" lon="-1.85541">
        <ele>45.3</ele>
      </trkpt>
      <trkpt lat="47.77876" lon="-1.85543">
        <ele>45.1</ele>
      </trkpt>
      <trkpt lat="47.7788" lon="-1.85546">
        <ele>44.6</ele>
      </trkpt>
      <trkpt lat="47.77883" lon="-1.85547">
        <ele>44.4</ele>
      </trkpt>
      <trkpt lat="47.77886" lon="-1.85548">
        <ele>44.3</ele>
      </trkpt>
      <trkpt lat="47.77889" lon="-1.85547">
        <ele>44.3</ele>
      </trkpt>
      <trkpt lat="47.77892" lon="-1.85545">
        <ele>44.5</ele>
      </trkpt>
      <trkpt lat="47.77896" lon="-1.85544">
        <ele>44.6</ele>
      </trkpt>
      <trkpt lat="47.77899" lon="-1.85542">
        <ele>44.7</ele>
      </trkpt>
      <trkpt lat="47.77901" lon="-1.85541">
        <ele>44.8</ele>
      </trkpt>
      <trkpt lat="47.77904" lon="-1.8554">
        <ele>45</ele>
      </trkpt>
      <trkpt lat="47.77907" lon="-1.85538">
        <ele>45.1</ele>
      </trkpt>
      <trkpt lat="47.77909" lon="-1.85538">
        <ele>45.2</ele>
      </trkpt>
      <trkpt lat="47.77911" lon="-1.85537">
        <ele>45.2</ele>
      </trkpt>
      <trkpt lat="47.77913" lon="-1.85537">
        <ele>45.2</ele>
      </trkpt>
      <trkpt lat="47.77916" lon="-1.85538">
        <ele>45.1</ele>
      </trkpt>
      <trkpt lat="47.77917" lon="-1.85537">
        <ele>45</ele>
      </trkpt>
      <trkpt lat="47.77918" lon="-1.85537">
        <ele>45</ele>
      </trkpt>
      <trkpt lat="47.77918" lon="-1.85537">
        <ele>45</ele>
      </trkpt>
      <trkpt lat="47.77918" lon="-1.85537">
        <ele>45</ele>
      </trkpt>
      <trkpt lat="47.77918" lon="-1.85537">
        <ele>45</ele>
      </trkpt>
      <trkpt lat="47.77918" lon="-1.85537">
        <ele>45</ele>
      </trkpt>
      <trkpt lat="47.77918" lon="-1.85537">
        <ele>45</ele>
      </trkpt>
      <trkpt lat="47.77918" lon="-1.85537">
        <ele>45</ele>
      </trkpt>
      <trkpt lat="47.77918" lon="-1.85537">
        <ele>45</ele>
      </trkpt>
      <trkpt lat="47.77918" lon="-1.85537">
        <ele>45</ele>
      </trkpt>
      <trkpt lat="47.77918" lon="-1.85537">
        <ele>45</ele>
      </trkpt>
      <trkpt lat="47.77918" lon="-1.85537">
        <ele>45</ele>
      </trkpt>
      <trkpt lat="47.77918" lon="-1.85537">
        <ele>45</ele>
      </trkpt>
      <trkpt lat="47.77918" lon="-1.85537">
        <ele>45</ele>
      </trkpt>
      <trkpt lat="47.77918" lon="-1.85537">
        <ele>45</ele>
      </trkpt>
      <trkpt lat="47.77918" lon="-1.85537">
        <ele>45</ele>
      </trkpt>
      <trkpt lat="47.77918" lon="-1.85537">
        <ele>45</ele>
      </trkpt>
      <trkpt lat="47.77918" lon="-1.85537">
        <ele>45</ele>
      </trkpt>
      <trkpt lat="47.77918" lon="-1.85537">
        <ele>45</ele>
      </trkpt>
      <trkpt lat="47.77918" lon="-1.85537">
        <ele>45</ele>
      </trkpt>
      <trkpt lat="47.77918" lon="-1.85537">
        <ele>45</ele>
      </trkpt>
      <trkpt lat="47.77918" lon="-1.85537">
        <ele>45</ele>
      </trkpt>
      <trkpt lat="47.77918" lon="-1.85537">
        <ele>45</ele>
      </trkpt>
      <trkpt lat="47.77918" lon="-1.85537">
        <ele>45</ele>
      </trkpt>
      <trkpt lat="47.77918" lon="-1.85537">
        <ele>45</ele>
      </trkpt>
      <trkpt lat="47.77918" lon="-1.85537">
        <ele>45</ele>
      </trkpt>
      <trkpt lat="47.77919" lon="-1.85538">
        <ele>44.9</ele>
      </trkpt>
      <trkpt lat="47.77922" lon="-1.8554">
        <ele>44.4</ele>
      </trkpt>
      <trkpt lat="47.77926" lon="-1.85542">
        <ele>43.9</ele>
      </trkpt>
      <trkpt lat="47.7793" lon="-1.85544">
        <ele>43.4</ele>
      </trkpt>
      <trkpt lat="47.77935" lon="-1.85546">
        <ele>42.8</ele>
      </trkpt>
      <trkpt lat="47.77939" lon="-1.85549">
        <ele>42.3</ele>
      </trkpt>
      <trkpt lat="47.77941" lon="-1.85553">
        <ele>41.6</ele>
      </trkpt>
      <trkpt lat="47.77942" lon="-1.85557">
        <ele>41</ele>
      </trkpt>
      <trkpt lat="47.77942" lon="-1.85563">
        <ele>40.4</ele>
      </trkpt>
      <trkpt lat="47.77943" lon="-1.85569">
        <ele>39.6</ele>
      </trkpt>
      <trkpt lat="47.77944" lon="-1.85573">
        <ele>39</ele>
      </trkpt>
      <trkpt lat="47.77947" lon="-1.85576">
        <ele>38.5</ele>
      </trkpt>
      <trkpt lat="47.77952" lon="-1.85577">
        <ele>38.1</ele>
      </trkpt>
      <trkpt lat="47.77957" lon="-1.85576">
        <ele>38</ele>
      </trkpt>
      <trkpt lat="47.7796" lon="-1.85572">
        <ele>38.2</ele>
      </trkpt>
      <trkpt lat="47.77964" lon="-1.8557">
        <ele>38.3</ele>
      </trkpt>
      <trkpt lat="47.77968" lon="-1.85568">
        <ele>38.3</ele>
      </trkpt>
      <trkpt lat="47.77973" lon="-1.85569">
        <ele>37.9</ele>
      </trkpt>
      <trkpt lat="47.77979" lon="-1.8557">
        <ele>37.6</ele>
      </trkpt>
      <trkpt lat="47.77983" lon="-1.85571">
        <ele>37.2</ele>
      </trkpt>
      <trkpt lat="47.77989" lon="-1.85575">
        <ele>36.4</ele>
      </trkpt>
      <trkpt lat="47.77996" lon="-1.85578">
        <ele>35.8</ele>
      </trkpt>
      <trkpt lat="47.78005" lon="-1.85581">
        <ele>34.9</ele>
      </trkpt>
      <trkpt lat="47.78011" lon="-1.85586">
        <ele>34</ele>
      </trkpt>
      <trkpt lat="47.78016" lon="-1.85591">
        <ele>33.3</ele>
      </trkpt>
      <trkpt lat="47.78021" lon="-1.85597">
        <ele>32.6</ele>
      </trkpt>
      <trkpt lat="47.78025" lon="-1.856">
        <ele>32</ele>
      </trkpt>
      <trkpt lat="47.78029" lon="-1.85601">
        <ele>31.7</ele>
      </trkpt>
      <trkpt lat="47.78032" lon="-1.85598">
        <ele>31.6</ele>
      </trkpt>
      <trkpt lat="47.78035" lon="-1.85591">
        <ele>31.7</ele>
      </trkpt>
      <trkpt lat="47.78038" lon="-1.8559">
        <ele>31.5</ele>
      </trkpt>
      <trkpt lat="47.78038" lon="-1.85592">
        <ele>31.4</ele>
      </trkpt>
      <trkpt lat="47.7804" lon="-1.85597">
        <ele>31</ele>
      </trkpt>
      <trkpt lat="47.7804" lon="-1.85604">
        <ele>30.6</ele>
      </trkpt>
      <trkpt lat="47.7804" lon="-1.85611">
        <ele>30.3</ele>
      </trkpt>
      <trkpt lat="47.78041" lon="-1.85616">
        <ele>30</ele>
      </trkpt>
      <trkpt lat="47.78044" lon="-1.85621">
        <ele>29.5</ele>
      </trkpt>
      <trkpt lat="47.78048" lon="-1.85624">
        <ele>29.1</ele>
      </trkpt>
      <trkpt lat="47.78052" lon="-1.85626">
        <ele>28.6</ele>
      </trkpt>
      <trkpt lat="47.78057" lon="-1.85627">
        <ele>28.1</ele>
      </trkpt>
      <trkpt lat="47.78062" lon="-1.85628">
        <ele>27.6</ele>
      </trkpt>
      <trkpt lat="47.78067" lon="-1.85628">
        <ele>27.2</ele>
      </trkpt>
      <trkpt lat="47.78071" lon="-1.85629">
        <ele>26.8</ele>
      </trkpt>
      <trkpt lat="47.78075" lon="-1.85631">
        <ele>26.4</ele>
      </trkpt>
      <trkpt lat="47.78077" lon="-1.85633">
        <ele>26.1</ele>
      </trkpt>
      <trkpt lat="47.78079" lon="-1.85633">
        <ele>26</ele>
      </trkpt>
      <trkpt lat="47.78081" lon="-1.85632">
        <ele>25.9</ele>
      </trkpt>
      <trkpt lat="47.78081" lon="-1.85634">
        <ele>25.8</ele>
      </trkpt>
      <trkpt lat="47.78081" lon="-1.85636">
        <ele>25.7</ele>
      </trkpt>
      <trkpt lat="47.7808" lon="-1.85638">
        <ele>25.6</ele>
      </trkpt>
      <trkpt lat="47.78079" lon="-1.85641">
        <ele>25.6</ele>
      </trkpt>
      <trkpt lat="47.78079" lon="-1.85644">
        <ele>25.5</ele>
      </trkpt>
      <trkpt lat="47.78078" lon="-1.85647">
        <ele>25.4</ele>
      </trkpt>
      <trkpt lat="47.78078" lon="-1.8565">
        <ele>25.3</ele>
      </trkpt>
      <trkpt lat="47.78077" lon="-1.85653">
        <ele>25.1</ele>
      </trkpt>
      <trkpt lat="47.78077" lon="-1.85656">
        <ele>25</ele>
      </trkpt>
      <trkpt lat="47.78076" lon="-1.85659">
        <ele>25</ele>
      </trkpt>
      <trkpt lat="47.78075" lon="-1.85663">
        <ele>24.9</ele>
      </trkpt>
      <trkpt lat="47.78075" lon="-1.85667">
        <ele>24.7</ele>
      </trkpt>
      <trkpt lat="47.78075" lon="-1.8567">
        <ele>25</ele>
      </trkpt>
      <trkpt lat="47.78074" lon="-1.85674">
        <ele>25.2</ele>
      </trkpt>
      <trkpt lat="47.78074" lon="-1.85678">
        <ele>25.5</ele>
      </trkpt>
      <trkpt lat="47.78074" lon="-1.85682">
        <ele>25.7</ele>
      </trkpt>
      <trkpt lat="47.78075" lon="-1.85686">
        <ele>25.9</ele>
      </trkpt>
      <trkpt lat="47.78074" lon="-1.8569">
        <ele>26.2</ele>
      </trkpt>
      <trkpt lat="47.78074" lon="-1.85694">
        <ele>26.5</ele>
      </trkpt>
      <trkpt lat="47.78074" lon="-1.85697">
        <ele>26.7</ele>
      </trkpt>
      <trkpt lat="47.78074" lon="-1.85701">
        <ele>27</ele>
      </trkpt>
      <trkpt lat="47.78073" lon="-1.85705">
        <ele>27.3</ele>
      </trkpt>
      <trkpt lat="47.78072" lon="-1.85709">
        <ele>27.6</ele>
      </trkpt>
      <trkpt lat="47.78072" lon="-1.85712">
        <ele>27.8</ele>
      </trkpt>
      <trkpt lat="47.78072" lon="-1.85716">
        <ele>28.1</ele>
      </trkpt>
      <trkpt lat="47.78071" lon="-1.85719">
        <ele>28.3</ele>
      </trkpt>
      <trkpt lat="47.78071" lon="-1.85722">
        <ele>28.5</ele>
      </trkpt>
      <trkpt lat="47.78071" lon="-1.85725">
        <ele>28.7</ele>
      </trkpt>
      <trkpt lat="47.78071" lon="-1.85728">
        <ele>28.9</ele>
      </trkpt>
      <trkpt lat="47.78072" lon="-1.85733">
        <ele>29.1</ele>
      </trkpt>
      <trkpt lat="47.78072" lon="-1.85737">
        <ele>29.4</ele>
      </trkpt>
      <trkpt lat="47.78072" lon="-1.85741">
        <ele>29.7</ele>
      </trkpt>
      <trkpt lat="47.78072" lon="-1.85744">
        <ele>29.9</ele>
      </trkpt>
      <trkpt lat="47.78072" lon="-1.85748">
        <ele>30.2</ele>
      </trkpt>
      <trkpt lat="47.78072" lon="-1.85752">
        <ele>30.3</ele>
      </trkpt>
      <trkpt lat="47.78072" lon="-1.85756">
        <ele>30.4</ele>
      </trkpt>
      <trkpt lat="47.78071" lon="-1.8576">
        <ele>30.5</ele>
      </trkpt>
      <trkpt lat="47.78071" lon="-1.85764">
        <ele>30.6</ele>
      </trkpt>
      <trkpt lat="47.78071" lon="-1.85768">
        <ele>30.7</ele>
      </trkpt>
      <trkpt lat="47.78071" lon="-1.85772">
        <ele>30.8</ele>
      </trkpt>
      <trkpt lat="47.78071" lon="-1.85777">
        <ele>30.9</ele>
      </trkpt>
      <trkpt lat="47.78071" lon="-1.8578">
        <ele>31</ele>
      </trkpt>
      <trkpt lat="47.78071" lon="-1.85784">
        <ele>31</ele>
      </trkpt>
      <trkpt lat="47.78071" lon="-1.85788">
        <ele>31.1</ele>
      </trkpt>
      <trkpt lat="47.78071" lon="-1.85793">
        <ele>31.2</ele>
      </trkpt>
      <trkpt lat="47.78071" lon="-1.85797">
        <ele>31.3</ele>
      </trkpt>
      <trkpt lat="47.7807" lon="-1.858">
        <ele>31.4</ele>
      </trkpt>
      <trkpt lat="47.7807" lon="-1.85804">
        <ele>31.5</ele>
      </trkpt>
      <trkpt lat="47.7807" lon="-1.85809">
        <ele>31.6</ele>
      </trkpt>
      <trkpt lat="47.78069" lon="-1.85813">
        <ele>31.8</ele>
      </trkpt>
      <trkpt lat="47.78069" lon="-1.85817">
        <ele>32</ele>
      </trkpt>
      <trkpt lat="47.78068" lon="-1.8582">
        <ele>32.2</ele>
      </trkpt>
      <trkpt lat="47.78065" lon="-1.85822">
        <ele>32.5</ele>
      </trkpt>
      <trkpt lat="47.78063" lon="-1.85824">
        <ele>32.9</ele>
      </trkpt>
      <trkpt lat="47.7806" lon="-1.85824">
        <ele>33.4</ele>
      </trkpt>
      <trkpt lat="47.78058" lon="-1.85824">
        <ele>33.8</ele>
      </trkpt>
      <trkpt lat="47.78055" lon="-1.85823">
        <ele>34.2</ele>
      </trkpt>
      <trkpt lat="47.78052" lon="-1.85821">
        <ele>34.6</ele>
      </trkpt>
      <trkpt lat="47.78049" lon="-1.8582">
        <ele>34.9</ele>
      </trkpt>
      <trkpt lat="47.78047" lon="-1.85819">
        <ele>35.1</ele>
      </trkpt>
      <trkpt lat="47.78046" lon="-1.85818">
        <ele>35.3</ele>
      </trkpt>
      <trkpt lat="47.78044" lon="-1.85817">
        <ele>35.6</ele>
      </trkpt>
      <trkpt lat="47.78039" lon="-1.85817">
        <ele>36.2</ele>
      </trkpt>
      <trkpt lat="47.78035" lon="-1.85816">
        <ele>36.8</ele>
      </trkpt>
      <trkpt lat="47.78032" lon="-1.85815">
        <ele>37.2</ele>
      </trkpt>
      <trkpt lat="47.78029" lon="-1.85813">
        <ele>37.5</ele>
      </trkpt>
      <trkpt lat="47.78026" lon="-1.85811">
        <ele>37.9</ele>
      </trkpt>
      <trkpt lat="47.78023" lon="-1.8581">
        <ele>38.2</ele>
      </trkpt>
      <trkpt lat="47.78021" lon="-1.85808">
        <ele>38.5</ele>
      </trkpt>
      <trkpt lat="47.78019" lon="-1.85807">
        <ele>38.7</ele>
      </trkpt>
      <trkpt lat="47.78014" lon="-1.85805">
        <ele>39.3</ele>
      </trkpt>
      <trkpt lat="47.78011" lon="-1.85802">
        <ele>39.7</ele>
      </trkpt>
      <trkpt lat="47.78008" lon="-1.858">
        <ele>39.9</ele>
      </trkpt>
      <trkpt lat="47.78005" lon="-1.85798">
        <ele>40.2</ele>
      </trkpt>
      <trkpt lat="47.78" lon="-1.85794">
        <ele>40.6</ele>
      </trkpt>
      <trkpt lat="47.77995" lon="-1.85792">
        <ele>40.7</ele>
      </trkpt>
      <trkpt lat="47.77992" lon="-1.85789">
        <ele>40.6</ele>
      </trkpt>
      <trkpt lat="47.77988" lon="-1.85787">
        <ele>40.6</ele>
      </trkpt>
      <trkpt lat="47.77981" lon="-1.85784">
        <ele>40.7</ele>
      </trkpt>
      <trkpt lat="47.77975" lon="-1.8578">
        <ele>40.6</ele>
      </trkpt>
      <trkpt lat="47.77969" lon="-1.85775">
        <ele>40.5</ele>
      </trkpt>
      <trkpt lat="47.77966" lon="-1.85772">
        <ele>40.3</ele>
      </trkpt>
      <trkpt lat="47.77963" lon="-1.8577">
        <ele>40.3</ele>
      </trkpt>
      <trkpt lat="47.77961" lon="-1.85769">
        <ele>40.3</ele>
      </trkpt>
      <trkpt lat="47.77959" lon="-1.85767">
        <ele>40.2</ele>
      </trkpt>
      <trkpt lat="47.77957" lon="-1.85764">
        <ele>40.1</ele>
      </trkpt>
      <trkpt lat="47.77954" lon="-1.85761">
        <ele>39.9</ele>
      </trkpt>
      <trkpt lat="47.7795" lon="-1.85759">
        <ele>39.8</ele>
      </trkpt>
      <trkpt lat="47.77946" lon="-1.85757">
        <ele>39.8</ele>
      </trkpt>
      <trkpt lat="47.77941" lon="-1.85754">
        <ele>39.7</ele>
      </trkpt>
      <trkpt lat="47.77937" lon="-1.85751">
        <ele>39.6</ele>
      </trkpt>
      <trkpt lat="47.77934" lon="-1.85749">
        <ele>39.5</ele>
      </trkpt>
      <trkpt lat="47.77927" lon="-1.85745">
        <ele>39.4</ele>
      </trkpt>
      <trkpt lat="47.77922" lon="-1.8574">
        <ele>39.2</ele>
      </trkpt>
      <trkpt lat="47.77915" lon="-1.85735">
        <ele>39</ele>
      </trkpt>
      <trkpt lat="47.7791" lon="-1.85731">
        <ele>38.8</ele>
      </trkpt>
      <trkpt lat="47.77906" lon="-1.85728">
        <ele>38.8</ele>
      </trkpt>
      <trkpt lat="47.77902" lon="-1.85726">
        <ele>38.8</ele>
      </trkpt>
      <trkpt lat="47.77898" lon="-1.85724">
        <ele>38.8</ele>
      </trkpt>
      <trkpt lat="47.77894" lon="-1.85723">
        <ele>38.9</ele>
      </trkpt>
      <trkpt lat="47.7789" lon="-1.85721">
        <ele>38.9</ele>
      </trkpt>
      <trkpt lat="47.77884" lon="-1.85719">
        <ele>39</ele>
      </trkpt>
      <trkpt lat="47.7788" lon="-1.85716">
        <ele>39</ele>
      </trkpt>
      <trkpt lat="47.77876" lon="-1.85714">
        <ele>39</ele>
      </trkpt>
      <trkpt lat="47.77872" lon="-1.85711">
        <ele>39</ele>
      </trkpt>
      <trkpt lat="47.77867" lon="-1.85709">
        <ele>39.1</ele>
      </trkpt>
      <trkpt lat="47.77862" lon="-1.85707">
        <ele>39.2</ele>
      </trkpt>
      <trkpt lat="47.77859" lon="-1.85705">
        <ele>39.3</ele>
      </trkpt>
      <trkpt lat="47.77857" lon="-1.85704">
        <ele>39.3</ele>
      </trkpt>
      <trkpt lat="47.77855" lon="-1.85701">
        <ele>39.2</ele>
      </trkpt>
      <trkpt lat="47.77853" lon="-1.85699">
        <ele>39.3</ele>
      </trkpt>
      <trkpt lat="47.77848" lon="-1.85696">
        <ele>39.4</ele>
      </trkpt>
      <trkpt lat="47.77844" lon="-1.85695">
        <ele>39.5</ele>
      </trkpt>
      <trkpt lat="47.77838" lon="-1.85692">
        <ele>39.7</ele>
      </trkpt>
      <trkpt lat="47.77832" lon="-1.85688">
        <ele>40</ele>
      </trkpt>
      <trkpt lat="47.77826" lon="-1.85684">
        <ele>40.7</ele>
      </trkpt>
      <trkpt lat="47.77823" lon="-1.85681">
        <ele>41.1</ele>
      </trkpt>
      <trkpt lat="47.7782" lon="-1.85679">
        <ele>41.4</ele>
      </trkpt>
      <trkpt lat="47.77816" lon="-1.85677">
        <ele>41.9</ele>
      </trkpt>
      <trkpt lat="47.77813" lon="-1.85673">
        <ele>42.3</ele>
      </trkpt>
      <trkpt lat="47.77809" lon="-1.8567">
        <ele>42.7</ele>
      </trkpt>
      <trkpt lat="47.77804" lon="-1.85666">
        <ele>43.2</ele>
      </trkpt>
      <trkpt lat="47.77801" lon="-1.85663">
        <ele>43.7</ele>
      </trkpt>
      <trkpt lat="47.77799" lon="-1.85662">
        <ele>44</ele>
      </trkpt>
      <trkpt lat="47.77797" lon="-1.85661">
        <ele>44.2</ele>
      </trkpt>
      <trkpt lat="47.77794" lon="-1.85659">
        <ele>44.6</ele>
      </trkpt>
      <trkpt lat="47.77791" lon="-1.85659">
        <ele>45.1</ele>
      </trkpt>
      <trkpt lat="47.77788" lon="-1.85655">
        <ele>45.5</ele>
      </trkpt>
      <trkpt lat="47.77783" lon="-1.85653">
        <ele>46.1</ele>
      </trkpt>
      <trkpt lat="47.7778" lon="-1.85651">
        <ele>46.6</ele>
      </trkpt>
      <trkpt lat="47.77777" lon="-1.85649">
        <ele>47</ele>
      </trkpt>
      <trkpt lat="47.77773" lon="-1.85647">
        <ele>47.4</ele>
      </trkpt>
      <trkpt lat="47.7777" lon="-1.85645">
        <ele>47.8</ele>
      </trkpt>
      <trkpt lat="47.77768" lon="-1.85644">
        <ele>48.1</ele>
      </trkpt>
      <trkpt lat="47.77765" lon="-1.85643">
        <ele>48.4</ele>
      </trkpt>
      <trkpt lat="47.77762" lon="-1.85641">
        <ele>48.8</ele>
      </trkpt>
      <trkpt lat="47.77759" lon="-1.85639">
        <ele>49.2</ele>
      </trkpt>
      <trkpt lat="47.77756" lon="-1.85637">
        <ele>49.5</ele>
      </trkpt>
      <trkpt lat="47.77753" lon="-1.85636">
        <ele>49.8</ele>
      </trkpt>
      <trkpt lat="47.77751" lon="-1.85633">
        <ele>50.1</ele>
      </trkpt>
      <trkpt lat="47.77748" lon="-1.85632">
        <ele>50.4</ele>
      </trkpt>
      <trkpt lat="47.77746" lon="-1.85631">
        <ele>50.5</ele>
      </trkpt>
      <trkpt lat="47.77744" lon="-1.85629">
        <ele>50.7</ele>
      </trkpt>
      <trkpt lat="47.77742" lon="-1.85627">
        <ele>50.9</ele>
      </trkpt>
      <trkpt lat="47.77739" lon="-1.85626">
        <ele>51.2</ele>
      </trkpt>
      <trkpt lat="47.77736" lon="-1.85624">
        <ele>51.4</ele>
      </trkpt>
      <trkpt lat="47.77733" lon="-1.85622">
        <ele>51.7</ele>
      </trkpt>
      <trkpt lat="47.77731" lon="-1.8562">
        <ele>51.9</ele>
      </trkpt>
      <trkpt lat="47.77728" lon="-1.85618">
        <ele>52.2</ele>
      </trkpt>
      <trkpt lat="47.77726" lon="-1.85616">
        <ele>52.4</ele>
      </trkpt>
      <trkpt lat="47.77723" lon="-1.85614">
        <ele>52.7</ele>
      </trkpt>
      <trkpt lat="47.7772" lon="-1.85612">
        <ele>53</ele>
      </trkpt>
      <trkpt lat="47.77717" lon="-1.85611">
        <ele>53.2</ele>
      </trkpt>
      <trkpt lat="47.77715" lon="-1.8561">
        <ele>53.4</ele>
      </trkpt>
      <trkpt lat="47.77713" lon="-1.85609">
        <ele>53.7</ele>
      </trkpt>
      <trkpt lat="47.77711" lon="-1.85608">
        <ele>53.8</ele>
      </trkpt>
      <trkpt lat="47.77709" lon="-1.85608">
        <ele>54</ele>
      </trkpt>
      <trkpt lat="47.77707" lon="-1.85607">
        <ele>54.2</ele>
      </trkpt>
      <trkpt lat="47.77704" lon="-1.85604">
        <ele>54.5</ele>
      </trkpt>
      <trkpt lat="47.777" lon="-1.85601">
        <ele>54.8</ele>
      </trkpt>
      <trkpt lat="47.77698" lon="-1.856">
        <ele>55</ele>
      </trkpt>
      <trkpt lat="47.77695" lon="-1.85597">
        <ele>55.3</ele>
      </trkpt>
      <trkpt lat="47.77693" lon="-1.85595">
        <ele>55.5</ele>
      </trkpt>
      <trkpt lat="47.77691" lon="-1.85593">
        <ele>55.7</ele>
      </trkpt>
      <trkpt lat="47.77689" lon="-1.85592">
        <ele>55.8</ele>
      </trkpt>
      <trkpt lat="47.77685" lon="-1.8559">
        <ele>56.2</ele>
      </trkpt>
      <trkpt lat="47.77682" lon="-1.85588">
        <ele>56.4</ele>
      </trkpt>
      <trkpt lat="47.77678" lon="-1.85585">
        <ele>56.9</ele>
      </trkpt>
      <trkpt lat="47.77674" lon="-1.85583">
        <ele>57.2</ele>
      </trkpt>
      <trkpt lat="47.77671" lon="-1.8558">
        <ele>57.5</ele>
      </trkpt>
      <trkpt lat="47.77668" lon="-1.8558">
        <ele>57.8</ele>
      </trkpt>
      <trkpt lat="47.77666" lon="-1.85578">
        <ele>58.1</ele>
      </trkpt>
      <trkpt lat="47.77664" lon="-1.85577">
        <ele>58.4</ele>
      </trkpt>
      <trkpt lat="47.77661" lon="-1.85575">
        <ele>58.7</ele>
      </trkpt>
      <trkpt lat="47.77658" lon="-1.85574">
        <ele>59</ele>
      </trkpt>
      <trkpt lat="47.77656" lon="-1.85572">
        <ele>59.3</ele>
      </trkpt>
      <trkpt lat="47.77653" lon="-1.8557">
        <ele>59.6</ele>
      </trkpt>
      <trkpt lat="47.77651" lon="-1.85569">
        <ele>59.9</ele>
      </trkpt>
      <trkpt lat="47.77648" lon="-1.85567">
        <ele>60.1</ele>
      </trkpt>
      <trkpt lat="47.77646" lon="-1.85566">
        <ele>60.4</ele>
      </trkpt>
      <trkpt lat="47.77643" lon="-1.85564">
        <ele>60.7</ele>
      </trkpt>
      <trkpt lat="47.77641" lon="-1.85562">
        <ele>61</ele>
      </trkpt>
      <trkpt lat="47.77639" lon="-1.85561">
        <ele>61.2</ele>
      </trkpt>
      <trkpt lat="47.77637" lon="-1.8556">
        <ele>61.4</ele>
      </trkpt>
      <trkpt lat="47.77635" lon="-1.85558">
        <ele>61.6</ele>
      </trkpt>
      <trkpt lat="47.77632" lon="-1.85557">
        <ele>61.9</ele>
      </trkpt>
      <trkpt lat="47.7763" lon="-1.85555">
        <ele>62.2</ele>
      </trkpt>
      <trkpt lat="47.77626" lon="-1.85554">
        <ele>62.5</ele>
      </trkpt>
      <trkpt lat="47.77624" lon="-1.85553">
        <ele>62.8</ele>
      </trkpt>
      <trkpt lat="47.77621" lon="-1.85551">
        <ele>63.1</ele>
      </trkpt>
      <trkpt lat="47.77618" lon="-1.8555">
        <ele>63.4</ele>
      </trkpt>
      <trkpt lat="47.77616" lon="-1.85548">
        <ele>63.6</ele>
      </trkpt>
      <trkpt lat="47.77614" lon="-1.85547">
        <ele>63.9</ele>
      </trkpt>
      <trkpt lat="47.77612" lon="-1.85546">
        <ele>64.1</ele>
      </trkpt>
      <trkpt lat="47.7761" lon="-1.85545">
        <ele>64.3</ele>
      </trkpt>
      <trkpt lat="47.77609" lon="-1.85544">
        <ele>64.4</ele>
      </trkpt>
      <trkpt lat="47.77608" lon="-1.85543">
        <ele>64.5</ele>
      </trkpt>
      <trkpt lat="47.77605" lon="-1.85542">
        <ele>64.8</ele>
      </trkpt>
      <trkpt lat="47.77602" lon="-1.8554">
        <ele>65.1</ele>
      </trkpt>
      <trkpt lat="47.776" lon="-1.85539">
        <ele>65.3</ele>
      </trkpt>
      <trkpt lat="47.77598" lon="-1.85538">
        <ele>65.6</ele>
      </trkpt>
      <trkpt lat="47.77595" lon="-1.85536">
        <ele>65.8</ele>
      </trkpt>
      <trkpt lat="47.77592" lon="-1.85534">
        <ele>66.1</ele>
      </trkpt>
      <trkpt lat="47.77588" lon="-1.85532">
        <ele>66.5</ele>
      </trkpt>
      <trkpt lat="47.77585" lon="-1.8553">
        <ele>66.8</ele>
      </trkpt>
      <trkpt lat="47.77583" lon="-1.85528">
        <ele>67.1</ele>
      </trkpt>
      <trkpt lat="47.7758" lon="-1.85525">
        <ele>67.3</ele>
      </trkpt>
      <trkpt lat="47.77577" lon="-1.85523">
        <ele>67.5</ele>
      </trkpt>
      <trkpt lat="47.77574" lon="-1.85521">
        <ele>67.8</ele>
      </trkpt>
      <trkpt lat="47.77572" lon="-1.8552">
        <ele>68</ele>
      </trkpt>
      <trkpt lat="47.77569" lon="-1.85519">
        <ele>68.1</ele>
      </trkpt>
      <trkpt lat="47.77567" lon="-1.85519">
        <ele>68.3</ele>
      </trkpt>
      <trkpt lat="47.77566" lon="-1.85518">
        <ele>68.4</ele>
      </trkpt>
      <trkpt lat="47.77564" lon="-1.85517">
        <ele>68.5</ele>
      </trkpt>
      <trkpt lat="47.77562" lon="-1.85515">
        <ele>68.6</ele>
      </trkpt>
      <trkpt lat="47.7756" lon="-1.85514">
        <ele>68.7</ele>
      </trkpt>
      <trkpt lat="47.77556" lon="-1.85511">
        <ele>68.9</ele>
      </trkpt>
      <trkpt lat="47.77551" lon="-1.85507">
        <ele>69.2</ele>
      </trkpt>
      <trkpt lat="47.77548" lon="-1.85506">
        <ele>69.3</ele>
      </trkpt>
      <trkpt lat="47.77544" lon="-1.85504">
        <ele>69.5</ele>
      </trkpt>
      <trkpt lat="47.77542" lon="-1.85502">
        <ele>69.6</ele>
      </trkpt>
      <trkpt lat="47.77539" lon="-1.855">
        <ele>69.6</ele>
      </trkpt>
      <trkpt lat="47.77537" lon="-1.85498">
        <ele>69.6</ele>
      </trkpt>
      <trkpt lat="47.77535" lon="-1.85496">
        <ele>69.6</ele>
      </trkpt>
      <trkpt lat="47.77533" lon="-1.85494">
        <ele>69.5</ele>
      </trkpt>
      <trkpt lat="47.77532" lon="-1.85493">
        <ele>69.5</ele>
      </trkpt>
      <trkpt lat="47.77529" lon="-1.8549">
        <ele>69.5</ele>
      </trkpt>
      <trkpt lat="47.77527" lon="-1.85488">
        <ele>69.5</ele>
      </trkpt>
      <trkpt lat="47.77524" lon="-1.85488">
        <ele>69.6</ele>
      </trkpt>
      <trkpt lat="47.77519" lon="-1.85485">
        <ele>69.8</ele>
      </trkpt>
      <trkpt lat="47.77516" lon="-1.85483">
        <ele>69.8</ele>
      </trkpt>
      <trkpt lat="47.77514" lon="-1.85482">
        <ele>69.9</ele>
      </trkpt>
      <trkpt lat="47.77512" lon="-1.85481">
        <ele>69.9</ele>
      </trkpt>
      <trkpt lat="47.77506" lon="-1.85478">
        <ele>70</ele>
      </trkpt>
      <trkpt lat="47.77503" lon="-1.85476">
        <ele>70.1</ele>
      </trkpt>
      <trkpt lat="47.775" lon="-1.85473">
        <ele>70.1</ele>
      </trkpt>
      <trkpt lat="47.77497" lon="-1.85471">
        <ele>70.2</ele>
      </trkpt>
      <trkpt lat="47.77495" lon="-1.85471">
        <ele>70.4</ele>
      </trkpt>
      <trkpt lat="47.77494" lon="-1.85472">
        <ele>70.5</ele>
      </trkpt>
      <trkpt lat="47.77493" lon="-1.85471">
        <ele>70.6</ele>
      </trkpt>
      <trkpt lat="47.77491" lon="-1.8547">
        <ele>70.7</ele>
      </trkpt>
      <trkpt lat="47.77488" lon="-1.85469">
        <ele>70.9</ele>
      </trkpt>
      <trkpt lat="47.77485" lon="-1.85467">
        <ele>71.1</ele>
      </trkpt>
      <trkpt lat="47.77483" lon="-1.85466">
        <ele>71.1</ele>
      </trkpt>
      <trkpt lat="47.77481" lon="-1.85465">
        <ele>71.2</ele>
      </trkpt>
      <trkpt lat="47.77479" lon="-1.85464">
        <ele>71.3</ele>
      </trkpt>
      <trkpt lat="47.77477" lon="-1.85463">
        <ele>71.4</ele>
      </trkpt>
      <trkpt lat="47.77475" lon="-1.85461">
        <ele>71.5</ele>
      </trkpt>
      <trkpt lat="47.77472" lon="-1.8546">
        <ele>71.6</ele>
      </trkpt>
      <trkpt lat="47.77469" lon="-1.85457">
        <ele>71.7</ele>
      </trkpt>
      <trkpt lat="47.77465" lon="-1.85455">
        <ele>71.9</ele>
      </trkpt>
      <trkpt lat="47.77463" lon="-1.85453">
        <ele>72</ele>
      </trkpt>
      <trkpt lat="47.7746" lon="-1.8545">
        <ele>72</ele>
      </trkpt>
      <trkpt lat="47.77457" lon="-1.85449">
        <ele>72.1</ele>
      </trkpt>
      <trkpt lat="47.77454" lon="-1.85447">
        <ele>72.2</ele>
      </trkpt>
      <trkpt lat="47.77452" lon="-1.85445">
        <ele>72.3</ele>
      </trkpt>
      <trkpt lat="47.7745" lon="-1.85443">
        <ele>72.3</ele>
      </trkpt>
      <trkpt lat="47.77447" lon="-1.85442">
        <ele>72.4</ele>
      </trkpt>
      <trkpt lat="47.77445" lon="-1.8544">
        <ele>72.5</ele>
      </trkpt>
      <trkpt lat="47.77443" lon="-1.85439">
        <ele>72.5</ele>
      </trkpt>
      <trkpt lat="47.77441" lon="-1.85437">
        <ele>72.6</ele>
      </trkpt>
      <trkpt lat="47.77439" lon="-1.85436">
        <ele>72.7</ele>
      </trkpt>
      <trkpt lat="47.77437" lon="-1.85434">
        <ele>72.7</ele>
      </trkpt>
      <trkpt lat="47.77435" lon="-1.85433">
        <ele>72.8</ele>
      </trkpt>
      <trkpt lat="47.77432" lon="-1.85431">
        <ele>72.9</ele>
      </trkpt>
      <trkpt lat="47.7743" lon="-1.8543">
        <ele>73</ele>
      </trkpt>
      <trkpt lat="47.77425" lon="-1.85428">
        <ele>73.2</ele>
      </trkpt>
      <trkpt lat="47.77422" lon="-1.85426">
        <ele>73.3</ele>
      </trkpt>
      <trkpt lat="47.7742" lon="-1.85424">
        <ele>73.3</ele>
      </trkpt>
      <trkpt lat="47.77417" lon="-1.85422">
        <ele>73.4</ele>
      </trkpt>
      <trkpt lat="47.77416" lon="-1.8542">
        <ele>73.4</ele>
      </trkpt>
      <trkpt lat="47.77414" lon="-1.85419">
        <ele>73.5</ele>
      </trkpt>
      <trkpt lat="47.77413" lon="-1.85419">
        <ele>73.7</ele>
      </trkpt>
      <trkpt lat="47.77409" lon="-1.85417">
        <ele>73.9</ele>
      </trkpt>
      <trkpt lat="47.77405" lon="-1.85415">
        <ele>74.3</ele>
      </trkpt>
      <trkpt lat="47.77402" lon="-1.85413">
        <ele>74.7</ele>
      </trkpt>
      <trkpt lat="47.77401" lon="-1.85413">
        <ele>74.8</ele>
      </trkpt>
      <trkpt lat="47.77398" lon="-1.85411">
        <ele>75.1</ele>
      </trkpt>
      <trkpt lat="47.77394" lon="-1.85409">
        <ele>75.6</ele>
      </trkpt>
      <trkpt lat="47.7739" lon="-1.85406">
        <ele>76</ele>
      </trkpt>
      <trkpt lat="47.77388" lon="-1.85404">
        <ele>76.3</ele>
      </trkpt>
      <trkpt lat="47.77385" lon="-1.85403">
        <ele>76.6</ele>
      </trkpt>
      <trkpt lat="47.77381" lon="-1.854">
        <ele>77.1</ele>
      </trkpt>
      <trkpt lat="47.77379" lon="-1.854">
        <ele>77.3</ele>
      </trkpt>
      <trkpt lat="47.77377" lon="-1.85399">
        <ele>77.5</ele>
      </trkpt>
      <trkpt lat="47.77375" lon="-1.85399">
        <ele>77.7</ele>
      </trkpt>
      <trkpt lat="47.77374" lon="-1.85397">
        <ele>77.9</ele>
      </trkpt>
      <trkpt lat="47.77372" lon="-1.85396">
        <ele>78.2</ele>
      </trkpt>
      <trkpt lat="47.77369" lon="-1.85395">
        <ele>78.5</ele>
      </trkpt>
      <trkpt lat="47.77366" lon="-1.85394">
        <ele>78.8</ele>
      </trkpt>
      <trkpt lat="47.77364" lon="-1.85392">
        <ele>79.1</ele>
      </trkpt>
      <trkpt lat="47.77362" lon="-1.85391">
        <ele>79.3</ele>
      </trkpt>
      <trkpt lat="47.77362" lon="-1.8539">
        <ele>79.4</ele>
      </trkpt>
      <trkpt lat="47.77361" lon="-1.8539">
        <ele>79.4</ele>
      </trkpt>
      <trkpt lat="47.7736" lon="-1.85388">
        <ele>79.6</ele>
      </trkpt>
      <trkpt lat="47.77357" lon="-1.85386">
        <ele>80</ele>
      </trkpt>
      <trkpt lat="47.77353" lon="-1.85384">
        <ele>80.4</ele>
      </trkpt>
      <trkpt lat="47.77351" lon="-1.85382">
        <ele>80.8</ele>
      </trkpt>
      <trkpt lat="47.77348" lon="-1.85381">
        <ele>81.1</ele>
      </trkpt>
      <trkpt lat="47.77345" lon="-1.85379">
        <ele>81.5</ele>
      </trkpt>
      <trkpt lat="47.77342" lon="-1.85378">
        <ele>81.8</ele>
      </trkpt>
      <trkpt lat="47.7734" lon="-1.85376">
        <ele>82.2</ele>
      </trkpt>
      <trkpt lat="47.77337" lon="-1.85375">
        <ele>82.6</ele>
      </trkpt>
      <trkpt lat="47.77333" lon="-1.85373">
        <ele>83</ele>
      </trkpt>
      <trkpt lat="47.7733" lon="-1.8537">
        <ele>83.1</ele>
      </trkpt>
      <trkpt lat="47.77327" lon="-1.85368">
        <ele>83.1</ele>
      </trkpt>
      <trkpt lat="47.77323" lon="-1.85366">
        <ele>83.2</ele>
      </trkpt>
      <trkpt lat="47.7732" lon="-1.85364">
        <ele>83.2</ele>
      </trkpt>
      <trkpt lat="47.77316" lon="-1.85361">
        <ele>83.3</ele>
      </trkpt>
      <trkpt lat="47.77313" lon="-1.85359">
        <ele>83.3</ele>
      </trkpt>
      <trkpt lat="47.7731" lon="-1.85357">
        <ele>83.4</ele>
      </trkpt>
      <trkpt lat="47.77307" lon="-1.85355">
        <ele>83.4</ele>
      </trkpt>
      <trkpt lat="47.77305" lon="-1.85354">
        <ele>83.4</ele>
      </trkpt>
      <trkpt lat="47.77301" lon="-1.85353">
        <ele>83.5</ele>
      </trkpt>
      <trkpt lat="47.77299" lon="-1.85353">
        <ele>83.5</ele>
      </trkpt>
      <trkpt lat="47.77297" lon="-1.85356">
        <ele>83.6</ele>
      </trkpt>
      <trkpt lat="47.77295" lon="-1.85359">
        <ele>83.6</ele>
      </trkpt>
      <trkpt lat="47.77294" lon="-1.85363">
        <ele>83.6</ele>
      </trkpt>
      <trkpt lat="47.77294" lon="-1.85367">
        <ele>83.7</ele>
      </trkpt>
      <trkpt lat="47.77293" lon="-1.8537">
        <ele>83.7</ele>
      </trkpt>
      <trkpt lat="47.77293" lon="-1.85375">
        <ele>83.7</ele>
      </trkpt>
      <trkpt lat="47.77294" lon="-1.85378">
        <ele>83.7</ele>
      </trkpt>
      <trkpt lat="47.77294" lon="-1.85382">
        <ele>83.7</ele>
      </trkpt>
      <trkpt lat="47.77295" lon="-1.85386">
        <ele>83.8</ele>
      </trkpt>
      <trkpt lat="47.77296" lon="-1.85391">
        <ele>83.8</ele>
      </trkpt>
      <trkpt lat="47.77296" lon="-1.85396">
        <ele>83.8</ele>
      </trkpt>
      <trkpt lat="47.77297" lon="-1.854">
        <ele>83.8</ele>
      </trkpt>
      <trkpt lat="47.77298" lon="-1.85405">
        <ele>83.8</ele>
      </trkpt>
      <trkpt lat="47.77298" lon="-1.8541">
        <ele>83.8</ele>
      </trkpt>
      <trkpt lat="47.77299" lon="-1.85413">
        <ele>83.8</ele>
      </trkpt>
      <trkpt lat="47.773" lon="-1.85417">
        <ele>83.8</ele>
      </trkpt>
      <trkpt lat="47.773" lon="-1.85421">
        <ele>84</ele>
      </trkpt>
      <trkpt lat="47.773" lon="-1.85426">
        <ele>84.1</ele>
      </trkpt>
      <trkpt lat="47.773" lon="-1.85431">
        <ele>84.3</ele>
      </trkpt>
      <trkpt lat="47.77301" lon="-1.85435">
        <ele>84.5</ele>
      </trkpt>
      <trkpt lat="47.77301" lon="-1.8544">
        <ele>84.6</ele>
      </trkpt>
      <trkpt lat="47.77302" lon="-1.85444">
        <ele>84.7</ele>
      </trkpt>
      <trkpt lat="47.77302" lon="-1.85447">
        <ele>84.9</ele>
      </trkpt>
      <trkpt lat="47.77302" lon="-1.85451">
        <ele>85</ele>
      </trkpt>
      <trkpt lat="47.77303" lon="-1.85455">
        <ele>85.1</ele>
      </trkpt>
      <trkpt lat="47.77303" lon="-1.85459">
        <ele>85.2</ele>
      </trkpt>
      <trkpt lat="47.77303" lon="-1.85462">
        <ele>85.3</ele>
      </trkpt>
      <trkpt lat="47.77304" lon="-1.85465">
        <ele>85.4</ele>
      </trkpt>
      <trkpt lat="47.77305" lon="-1.85468">
        <ele>85.5</ele>
      </trkpt>
      <trkpt lat="47.77305" lon="-1.85472">
        <ele>85.7</ele>
      </trkpt>
      <trkpt lat="47.77306" lon="-1.85476">
        <ele>85.8</ele>
      </trkpt>
      <trkpt lat="47.77307" lon="-1.8548">
        <ele>85.9</ele>
      </trkpt>
      <trkpt lat="47.77307" lon="-1.85485">
        <ele>86.1</ele>
      </trkpt>
      <trkpt lat="47.77308" lon="-1.85489">
        <ele>86.2</ele>
      </trkpt>
      <trkpt lat="47.77308" lon="-1.85494">
        <ele>86.4</ele>
      </trkpt>
      <trkpt lat="47.77308" lon="-1.85498">
        <ele>86.5</ele>
      </trkpt>
      <trkpt lat="47.77309" lon="-1.85502">
        <ele>86.6</ele>
      </trkpt>
      <trkpt lat="47.77309" lon="-1.85506">
        <ele>86.7</ele>
      </trkpt>
      <trkpt lat="47.7731" lon="-1.85511">
        <ele>86.8</ele>
      </trkpt>
      <trkpt lat="47.77311" lon="-1.85514">
        <ele>86.8</ele>
      </trkpt>
      <trkpt lat="47.77311" lon="-1.85519">
        <ele>86.9</ele>
      </trkpt>
      <trkpt lat="47.77312" lon="-1.85524">
        <ele>87</ele>
      </trkpt>
      <trkpt lat="47.77313" lon="-1.85528">
        <ele>87.1</ele>
      </trkpt>
      <trkpt lat="47.77315" lon="-1.85532">
        <ele>87.1</ele>
      </trkpt>
      <trkpt lat="47.77315" lon="-1.85537">
        <ele>87.2</ele>
      </trkpt>
      <trkpt lat="47.77316" lon="-1.85541">
        <ele>87.3</ele>
      </trkpt>
      <trkpt lat="47.77316" lon="-1.85546">
        <ele>87.4</ele>
      </trkpt>
      <trkpt lat="47.77316" lon="-1.8555">
        <ele>87.5</ele>
      </trkpt>
      <trkpt lat="47.77316" lon="-1.85553">
        <ele>87.6</ele>
      </trkpt>
      <trkpt lat="47.77316" lon="-1.85556">
        <ele>87.6</ele>
      </trkpt>
      <trkpt lat="47.77316" lon="-1.8556">
        <ele>87.7</ele>
      </trkpt>
      <trkpt lat="47.77317" lon="-1.85563">
        <ele>87.7</ele>
      </trkpt>
      <trkpt lat="47.77319" lon="-1.85565">
        <ele>87.8</ele>
      </trkpt>
      <trkpt lat="47.77321" lon="-1.85567">
        <ele>87.8</ele>
      </trkpt>
      <trkpt lat="47.77323" lon="-1.85567">
        <ele>87.8</ele>
      </trkpt>
      <trkpt lat="47.77326" lon="-1.85568">
        <ele>87.7</ele>
      </trkpt>
      <trkpt lat="47.7733" lon="-1.85568">
        <ele>87.7</ele>
      </trkpt>
      <trkpt lat="47.77333" lon="-1.85568">
        <ele>87.6</ele>
      </trkpt>
      <trkpt lat="47.77336" lon="-1.85568">
        <ele>87.5</ele>
      </trkpt>
      <trkpt lat="47.7734" lon="-1.85567">
        <ele>87.4</ele>
      </trkpt>
      <trkpt lat="47.77344" lon="-1.85565">
        <ele>87.2</ele>
      </trkpt>
      <trkpt lat="47.77348" lon="-1.85562">
        <ele>87</ele>
      </trkpt>
      <trkpt lat="47.77353" lon="-1.85559">
        <ele>86.7</ele>
      </trkpt>
      <trkpt lat="47.77358" lon="-1.85559">
        <ele>86.5</ele>
      </trkpt>
      <trkpt lat="47.77362" lon="-1.8556">
        <ele>86.4</ele>
      </trkpt>
      <trkpt lat="47.77365" lon="-1.85563">
        <ele>86.4</ele>
      </trkpt>
      <trkpt lat="47.77369" lon="-1.85565">
        <ele>86.4</ele>
      </trkpt>
      <trkpt lat="47.77373" lon="-1.85569">
        <ele>86.4</ele>
      </trkpt>
      <trkpt lat="47.77377" lon="-1.85574">
        <ele>86.5</ele>
      </trkpt>
      <trkpt lat="47.77381" lon="-1.85579">
        <ele>86.6</ele>
      </trkpt>
      <trkpt lat="47.77383" lon="-1.85584">
        <ele>86.8</ele>
      </trkpt>
      <trkpt lat="47.77385" lon="-1.85588">
        <ele>86.8</ele>
      </trkpt>
      <trkpt lat="47.77389" lon="-1.85592">
        <ele>86.7</ele>
      </trkpt>
      <trkpt lat="47.77393" lon="-1.85595">
        <ele>86.6</ele>
      </trkpt>
      <trkpt lat="47.774" lon="-1.85598">
        <ele>86.5</ele>
      </trkpt>
      <trkpt lat="47.77405" lon="-1.85601">
        <ele>86.3</ele>
      </trkpt>
      <trkpt lat="47.77411" lon="-1.85605">
        <ele>86.2</ele>
      </trkpt>
      <trkpt lat="47.77416" lon="-1.85607">
        <ele>86</ele>
      </trkpt>
      <trkpt lat="47.77421" lon="-1.8561">
        <ele>85.6</ele>
      </trkpt>
      <trkpt lat="47.77426" lon="-1.85613">
        <ele>85.2</ele>
      </trkpt>
      <trkpt lat="47.77431" lon="-1.85616">
        <ele>84.9</ele>
      </trkpt>
      <trkpt lat="47.77435" lon="-1.8562">
        <ele>84.6</ele>
      </trkpt>
      <trkpt lat="47.77439" lon="-1.85621">
        <ele>84.3</ele>
      </trkpt>
      <trkpt lat="47.77443" lon="-1.85621">
        <ele>83.9</ele>
      </trkpt>
      <trkpt lat="47.77447" lon="-1.85621">
        <ele>83.6</ele>
      </trkpt>
      <trkpt lat="47.77452" lon="-1.85621">
        <ele>83.2</ele>
      </trkpt>
      <trkpt lat="47.77456" lon="-1.85623">
        <ele>82.9</ele>
      </trkpt>
      <trkpt lat="47.7746" lon="-1.85623">
        <ele>82.6</ele>
      </trkpt>
      <trkpt lat="47.77463" lon="-1.85625">
        <ele>82.4</ele>
      </trkpt>
      <trkpt lat="47.77466" lon="-1.85626">
        <ele>82.1</ele>
      </trkpt>
      <trkpt lat="47.7747" lon="-1.85628">
        <ele>81.9</ele>
      </trkpt>
      <trkpt lat="47.77474" lon="-1.8563">
        <ele>81.6</ele>
      </trkpt>
      <trkpt lat="47.77478" lon="-1.85632">
        <ele>81.3</ele>
      </trkpt>
      <trkpt lat="47.77481" lon="-1.85634">
        <ele>81.1</ele>
      </trkpt>
      <trkpt lat="47.77484" lon="-1.85634">
        <ele>80.8</ele>
      </trkpt>
      <trkpt lat="47.77488" lon="-1.85635">
        <ele>80.5</ele>
      </trkpt>
      <trkpt lat="47.77493" lon="-1.85637">
        <ele>80.2</ele>
      </trkpt>
      <trkpt lat="47.77498" lon="-1.85639">
        <ele>79.8</ele>
      </trkpt>
      <trkpt lat="47.77503" lon="-1.85641">
        <ele>79.2</ele>
      </trkpt>
      <trkpt lat="47.77508" lon="-1.85644">
        <ele>78.6</ele>
      </trkpt>
      <trkpt lat="47.77513" lon="-1.85647">
        <ele>77.9</ele>
      </trkpt>
      <trkpt lat="47.77517" lon="-1.8565">
        <ele>77.3</ele>
      </trkpt>
      <trkpt lat="47.77523" lon="-1.85653">
        <ele>76.6</ele>
      </trkpt>
      <trkpt lat="47.77528" lon="-1.85655">
        <ele>75.8</ele>
      </trkpt>
      <trkpt lat="47.77537" lon="-1.85659">
        <ele>74.6</ele>
      </trkpt>
      <trkpt lat="47.77545" lon="-1.85661">
        <ele>73.5</ele>
      </trkpt>
      <trkpt lat="47.77551" lon="-1.85661">
        <ele>72.6</ele>
      </trkpt>
      <trkpt lat="47.77556" lon="-1.8566">
        <ele>71.9</ele>
      </trkpt>
      <trkpt lat="47.77561" lon="-1.85659">
        <ele>71.1</ele>
      </trkpt>
      <trkpt lat="47.77568" lon="-1.85659">
        <ele>70.1</ele>
      </trkpt>
      <trkpt lat="47.77575" lon="-1.85657">
        <ele>69.1</ele>
      </trkpt>
      <trkpt lat="47.7758" lon="-1.85655">
        <ele>68.3</ele>
      </trkpt>
      <trkpt lat="47.77585" lon="-1.85653">
        <ele>67.7</ele>
      </trkpt>
      <trkpt lat="47.77589" lon="-1.85654">
        <ele>67.3</ele>
      </trkpt>
      <trkpt lat="47.77593" lon="-1.85659">
        <ele>67</ele>
      </trkpt>
      <trkpt lat="47.77597" lon="-1.85665">
        <ele>66.7</ele>
      </trkpt>
      <trkpt lat="47.77599" lon="-1.85672">
        <ele>66.6</ele>
      </trkpt>
      <trkpt lat="47.77601" lon="-1.85677">
        <ele>66.7</ele>
      </trkpt>
      <trkpt lat="47.77603" lon="-1.85682">
        <ele>66.7</ele>
      </trkpt>
      <trkpt lat="47.77606" lon="-1.85686">
        <ele>66.5</ele>
      </trkpt>
      <trkpt lat="47.77612" lon="-1.85689">
        <ele>66.1</ele>
      </trkpt>
      <trkpt lat="47.77618" lon="-1.85692">
        <ele>65.8</ele>
      </trkpt>
      <trkpt lat="47.77621" lon="-1.85694">
        <ele>65.6</ele>
      </trkpt>
      <trkpt lat="47.77625" lon="-1.85697">
        <ele>65.4</ele>
      </trkpt>
      <trkpt lat="47.77628" lon="-1.85698">
        <ele>65.3</ele>
      </trkpt>
      <trkpt lat="47.77636" lon="-1.85702">
        <ele>64.9</ele>
      </trkpt>
      <trkpt lat="47.77636" lon="-1.85702">
        <ele>64.9</ele>
      </trkpt>
      <trkpt lat="47.77639" lon="-1.85704">
        <ele>64.7</ele>
      </trkpt>
      <trkpt lat="47.77641" lon="-1.85705">
        <ele>64.6</ele>
      </trkpt>
      <trkpt lat="47.77644" lon="-1.85706">
        <ele>64.5</ele>
      </trkpt>
      <trkpt lat="47.77646" lon="-1.85708">
        <ele>64.5</ele>
      </trkpt>
      <trkpt lat="47.77648" lon="-1.8571">
        <ele>64.4</ele>
      </trkpt>
      <trkpt lat="47.77651" lon="-1.85712">
        <ele>64.3</ele>
      </trkpt>
      <trkpt lat="47.77654" lon="-1.85714">
        <ele>64.3</ele>
      </trkpt>
      <trkpt lat="47.77656" lon="-1.85715">
        <ele>64.2</ele>
      </trkpt>
      <trkpt lat="47.77658" lon="-1.85717">
        <ele>64.2</ele>
      </trkpt>
      <trkpt lat="47.7766" lon="-1.85718">
        <ele>64.1</ele>
      </trkpt>
      <trkpt lat="47.77663" lon="-1.8572">
        <ele>64.1</ele>
      </trkpt>
      <trkpt lat="47.77666" lon="-1.85723">
        <ele>64.1</ele>
      </trkpt>
      <trkpt lat="47.77669" lon="-1.85726">
        <ele>64</ele>
      </trkpt>
      <trkpt lat="47.77673" lon="-1.8573">
        <ele>63.9</ele>
      </trkpt>
      <trkpt lat="47.77675" lon="-1.85735">
        <ele>64</ele>
      </trkpt>
      <trkpt lat="47.77678" lon="-1.85738">
        <ele>63.9</ele>
      </trkpt>
      <trkpt lat="47.77681" lon="-1.8574">
        <ele>63.7</ele>
      </trkpt>
      <trkpt lat="47.77684" lon="-1.8574">
        <ele>63.4</ele>
      </trkpt>
      <trkpt lat="47.77687" lon="-1.8574">
        <ele>63.1</ele>
      </trkpt>
      <trkpt lat="47.7769" lon="-1.85742">
        <ele>62.9</ele>
      </trkpt>
      <trkpt lat="47.77693" lon="-1.85744">
        <ele>62.7</ele>
      </trkpt>
      <trkpt lat="47.77696" lon="-1.85748">
        <ele>62.7</ele>
      </trkpt>
      <trkpt lat="47.77699" lon="-1.85752">
        <ele>62.6</ele>
      </trkpt>
      <trkpt lat="47.77702" lon="-1.85758">
        <ele>62.2</ele>
      </trkpt>
      <trkpt lat="47.77707" lon="-1.85761">
        <ele>61.8</ele>
      </trkpt>
      <trkpt lat="47.7771" lon="-1.85764">
        <ele>61.4</ele>
      </trkpt>
      <trkpt lat="47.77712" lon="-1.85768">
        <ele>61.2</ele>
      </trkpt>
      <trkpt lat="47.77713" lon="-1.85772">
        <ele>61.1</ele>
      </trkpt>
      <trkpt lat="47.77714" lon="-1.85776">
        <ele>61</ele>
      </trkpt>
      <trkpt lat="47.77716" lon="-1.8578">
        <ele>60.8</ele>
      </trkpt>
      <trkpt lat="47.77719" lon="-1.85783">
        <ele>60.5</ele>
      </trkpt>
      <trkpt lat="47.77721" lon="-1.85787">
        <ele>60.3</ele>
      </trkpt>
      <trkpt lat="47.77723" lon="-1.8579">
        <ele>60</ele>
      </trkpt>
      <trkpt lat="47.77725" lon="-1.85793">
        <ele>59.8</ele>
      </trkpt>
      <trkpt lat="47.77728" lon="-1.85796">
        <ele>59.6</ele>
      </trkpt>
      <trkpt lat="47.77731" lon="-1.85799">
        <ele>59.2</ele>
      </trkpt>
      <trkpt lat="47.77735" lon="-1.85802">
        <ele>58.7</ele>
      </trkpt>
      <trkpt lat="47.77738" lon="-1.85804">
        <ele>58.3</ele>
      </trkpt>
      <trkpt lat="47.77742" lon="-1.85807">
        <ele>58</ele>
      </trkpt>
      <trkpt lat="47.77744" lon="-1.85809">
        <ele>57.7</ele>
      </trkpt>
      <trkpt lat="47.77746" lon="-1.85812">
        <ele>57.4</ele>
      </trkpt>
      <trkpt lat="47.77748" lon="-1.85816">
        <ele>57.2</ele>
      </trkpt>
      <trkpt lat="47.77749" lon="-1.85819">
        <ele>57.1</ele>
      </trkpt>
      <trkpt lat="47.77749" lon="-1.85821">
        <ele>57.1</ele>
      </trkpt>
      <trkpt lat="47.7775" lon="-1.85822">
        <ele>57</ele>
      </trkpt>
      <trkpt lat="47.77752" lon="-1.85825">
        <ele>56.7</ele>
      </trkpt>
      <trkpt lat="47.77753" lon="-1.85828">
        <ele>56.5</ele>
      </trkpt>
      <trkpt lat="47.77757" lon="-1.85836">
        <ele>56.1</ele>
      </trkpt>
      <trkpt lat="47.77757" lon="-1.85836">
        <ele>56.1</ele>
      </trkpt>
      <trkpt lat="47.77758" lon="-1.8584">
        <ele>56.1</ele>
      </trkpt>
      <trkpt lat="47.77758" lon="-1.85844">
        <ele>56.1</ele>
      </trkpt>
      <trkpt lat="47.77759" lon="-1.85846">
        <ele>56.1</ele>
      </trkpt>
      <trkpt lat="47.77759" lon="-1.85847">
        <ele>56.1</ele>
      </trkpt>
      <trkpt lat="47.77759" lon="-1.85847">
        <ele>56.1</ele>
      </trkpt>
      <trkpt lat="47.77759" lon="-1.85847">
        <ele>56.1</ele>
      </trkpt>
      <trkpt lat="47.77759" lon="-1.85847">
        <ele>56.1</ele>
      </trkpt>
      <trkpt lat="47.77759" lon="-1.85847">
        <ele>56.1</ele>
      </trkpt>
      <trkpt lat="47.77759" lon="-1.85847">
        <ele>56.1</ele>
      </trkpt>
      <trkpt lat="47.77759" lon="-1.85848">
        <ele>56.1</ele>
      </trkpt>
      <trkpt lat="47.7776" lon="-1.8585">
        <ele>56</ele>
      </trkpt>
      <trkpt lat="47.77761" lon="-1.85852">
        <ele>55.9</ele>
      </trkpt>
      <trkpt lat="47.77763" lon="-1.85854">
        <ele>55.7</ele>
      </trkpt>
      <trkpt lat="47.77765" lon="-1.85856">
        <ele>55.4</ele>
      </trkpt>
      <trkpt lat="47.77768" lon="-1.85856">
        <ele>55</ele>
      </trkpt>
      <trkpt lat="47.77771" lon="-1.85855">
        <ele>54.6</ele>
      </trkpt>
      <trkpt lat="47.77774" lon="-1.85855">
        <ele>54.1</ele>
      </trkpt>
      <trkpt lat="47.77777" lon="-1.85855">
        <ele>53.8</ele>
      </trkpt>
      <trkpt lat="47.77779" lon="-1.85857">
        <ele>53.4</ele>
      </trkpt>
      <trkpt lat="47.77782" lon="-1.8586">
        <ele>53.1</ele>
      </trkpt>
      <trkpt lat="47.77785" lon="-1.85863">
        <ele>52.9</ele>
      </trkpt>
      <trkpt lat="47.77788" lon="-1.85866">
        <ele>52.5</ele>
      </trkpt>
      <trkpt lat="47.77789" lon="-1.85868">
        <ele>52.4</ele>
      </trkpt>
      <trkpt lat="47.77791" lon="-1.8587">
        <ele>52.2</ele>
      </trkpt>
      <trkpt lat="47.77792" lon="-1.8587">
        <ele>52.1</ele>
      </trkpt>
      <trkpt lat="47.77794" lon="-1.85871">
        <ele>51.8</ele>
      </trkpt>
      <trkpt lat="47.77796" lon="-1.85872">
        <ele>51.5</ele>
      </trkpt>
      <trkpt lat="47.77798" lon="-1.85873">
        <ele>51.4</ele>
      </trkpt>
      <trkpt lat="47.77799" lon="-1.85873">
        <ele>51.2</ele>
      </trkpt>
      <trkpt lat="47.77801" lon="-1.85875">
        <ele>50.9</ele>
      </trkpt>
      <trkpt lat="47.77803" lon="-1.85876">
        <ele>50.7</ele>
      </trkpt>
      <trkpt lat="47.77805" lon="-1.85878">
        <ele>50.5</ele>
      </trkpt>
      <trkpt lat="47.77807" lon="-1.85878">
        <ele>50.3</ele>
      </trkpt>
      <trkpt lat="47.77809" lon="-1.85878">
        <ele>50</ele>
      </trkpt>
      <trkpt lat="47.77813" lon="-1.85882">
        <ele>49.5</ele>
      </trkpt>
      <trkpt lat="47.77816" lon="-1.85885">
        <ele>49.2</ele>
      </trkpt>
      <trkpt lat="47.77818" lon="-1.85886">
        <ele>48.9</ele>
      </trkpt>
      <trkpt lat="47.77821" lon="-1.85888">
        <ele>48.6</ele>
      </trkpt>
      <trkpt lat="47.77824" lon="-1.8589">
        <ele>48.3</ele>
      </trkpt>
      <trkpt lat="47.77827" lon="-1.85892">
        <ele>48</ele>
      </trkpt>
      <trkpt lat="47.7783" lon="-1.85894">
        <ele>47.7</ele>
      </trkpt>
      <trkpt lat="47.77832" lon="-1.85897">
        <ele>47.4</ele>
      </trkpt>
      <trkpt lat="47.77834" lon="-1.85899">
        <ele>47.4</ele>
      </trkpt>
      <trkpt lat="47.77836" lon="-1.859">
        <ele>47.4</ele>
      </trkpt>
      <trkpt lat="47.77839" lon="-1.85902">
        <ele>47.5</ele>
      </trkpt>
      <trkpt lat="47.77841" lon="-1.85904">
        <ele>47.6</ele>
      </trkpt>
      <trkpt lat="47.77843" lon="-1.85905">
        <ele>47.6</ele>
      </trkpt>
      <trkpt lat="47.77846" lon="-1.85907">
        <ele>47.7</ele>
      </trkpt>
      <trkpt lat="47.7785" lon="-1.85909">
        <ele>47.8</ele>
      </trkpt>
      <trkpt lat="47.77853" lon="-1.85911">
        <ele>47.8</ele>
      </trkpt>
      <trkpt lat="47.77858" lon="-1.85913">
        <ele>47.9</ele>
      </trkpt>
      <trkpt lat="47.77863" lon="-1.85916">
        <ele>48</ele>
      </trkpt>
      <trkpt lat="47.77867" lon="-1.85918">
        <ele>48</ele>
      </trkpt>
      <trkpt lat="47.7787" lon="-1.85919">
        <ele>48</ele>
      </trkpt>
      <trkpt lat="47.77873" lon="-1.85921">
        <ele>48.1</ele>
      </trkpt>
      <trkpt lat="47.77876" lon="-1.85922">
        <ele>48.1</ele>
      </trkpt>
      <trkpt lat="47.77879" lon="-1.85924">
        <ele>48</ele>
      </trkpt>
      <trkpt lat="47.77883" lon="-1.85925">
        <ele>48</ele>
      </trkpt>
      <trkpt lat="47.77886" lon="-1.85927">
        <ele>48</ele>
      </trkpt>
      <trkpt lat="47.7789" lon="-1.85929">
        <ele>47.9</ele>
      </trkpt>
      <trkpt lat="47.77893" lon="-1.8593">
        <ele>47.9</ele>
      </trkpt>
      <trkpt lat="47.77897" lon="-1.85932">
        <ele>47.8</ele>
      </trkpt>
      <trkpt lat="47.77902" lon="-1.85934">
        <ele>47.7</ele>
      </trkpt>
      <trkpt lat="47.77907" lon="-1.85936">
        <ele>47.5</ele>
      </trkpt>
      <trkpt lat="47.77911" lon="-1.85937">
        <ele>47.4</ele>
      </trkpt>
      <trkpt lat="47.77915" lon="-1.85936">
        <ele>47.4</ele>
      </trkpt>
      <trkpt lat="47.77918" lon="-1.85933">
        <ele>47.4</ele>
      </trkpt>
      <trkpt lat="47.77919" lon="-1.85928">
        <ele>47.5</ele>
      </trkpt>
      <trkpt lat="47.7792" lon="-1.85924">
        <ele>47.6</ele>
      </trkpt>
      <trkpt lat="47.77923" lon="-1.85919">
        <ele>47.7</ele>
      </trkpt>
      <trkpt lat="47.77925" lon="-1.85915">
        <ele>47.7</ele>
      </trkpt>
      <trkpt lat="47.77927" lon="-1.85912">
        <ele>47.6</ele>
      </trkpt>
      <trkpt lat="47.7793" lon="-1.85909">
        <ele>47.4</ele>
      </trkpt>
      <trkpt lat="47.77931" lon="-1.85905">
        <ele>47.3</ele>
      </trkpt>
      <trkpt lat="47.77933" lon="-1.85901">
        <ele>47.2</ele>
      </trkpt>
      <trkpt lat="47.77934" lon="-1.85897">
        <ele>47.1</ele>
      </trkpt>
      <trkpt lat="47.77936" lon="-1.85891">
        <ele>46.9</ele>
      </trkpt>
      <trkpt lat="47.77938" lon="-1.85886">
        <ele>46.8</ele>
      </trkpt>
      <trkpt lat="47.7794" lon="-1.85884">
        <ele>46.7</ele>
      </trkpt>
      <trkpt lat="47.77942" lon="-1.85882">
        <ele>46.5</ele>
      </trkpt>
      <trkpt lat="47.77944" lon="-1.85881">
        <ele>46.4</ele>
      </trkpt>
      <trkpt lat="47.77946" lon="-1.85882">
        <ele>46.4</ele>
      </trkpt>
      <trkpt lat="47.77948" lon="-1.85884">
        <ele>46.3</ele>
      </trkpt>
      <trkpt lat="47.77949" lon="-1.85886">
        <ele>46.3</ele>
      </trkpt>
      <trkpt lat="47.7795" lon="-1.85889">
        <ele>46.3</ele>
      </trkpt>
      <trkpt lat="47.77951" lon="-1.8589">
        <ele>46.3</ele>
      </trkpt>
      <trkpt lat="47.77952" lon="-1.8589">
        <ele>46.3</ele>
      </trkpt>
      <trkpt lat="47.77953" lon="-1.8589">
        <ele>46.2</ele>
      </trkpt>
      <trkpt lat="47.77954" lon="-1.85891">
        <ele>46.2</ele>
      </trkpt>
      <trkpt lat="47.77954" lon="-1.85891">
        <ele>46.2</ele>
      </trkpt>
      <trkpt lat="47.77954" lon="-1.85891">
        <ele>46.2</ele>
      </trkpt>
      <trkpt lat="47.77954" lon="-1.85891">
        <ele>46.2</ele>
      </trkpt>
      <trkpt lat="47.77954" lon="-1.85891">
        <ele>46.2</ele>
      </trkpt>
      <trkpt lat="47.77954" lon="-1.85891">
        <ele>46.2</ele>
      </trkpt>
      <trkpt lat="47.77954" lon="-1.85891">
        <ele>46.2</ele>
      </trkpt>
      <trkpt lat="47.77954" lon="-1.85891">
        <ele>46.2</ele>
      </trkpt>
      <trkpt lat="47.77955" lon="-1.85891">
        <ele>46.2</ele>
      </trkpt>
      <trkpt lat="47.77955" lon="-1.85893">
        <ele>46.2</ele>
      </trkpt>
      <trkpt lat="47.77955" lon="-1.85894">
        <ele>46.2</ele>
      </trkpt>
      <trkpt lat="47.77955" lon="-1.85895">
        <ele>46.2</ele>
      </trkpt>
      <trkpt lat="47.77955" lon="-1.85897">
        <ele>46.3</ele>
      </trkpt>
      <trkpt lat="47.77955" lon="-1.85898">
        <ele>46.3</ele>
      </trkpt>
      <trkpt lat="47.77955" lon="-1.85899">
        <ele>46.3</ele>
      </trkpt>
      <trkpt lat="47.77956" lon="-1.85901">
        <ele>46.3</ele>
      </trkpt>
      <trkpt lat="47.77957" lon="-1.85903">
        <ele>46.3</ele>
      </trkpt>
      <trkpt lat="47.77959" lon="-1.85906">
        <ele>46.3</ele>
      </trkpt>
      <trkpt lat="47.7796" lon="-1.85909">
        <ele>46.3</ele>
      </trkpt>
      <trkpt lat="47.7796" lon="-1.85912">
        <ele>46.3</ele>
      </trkpt>
      <trkpt lat="47.77962" lon="-1.85914">
        <ele>46.3</ele>
      </trkpt>
      <trkpt lat="47.77963" lon="-1.85916">
        <ele>46.3</ele>
      </trkpt>
      <trkpt lat="47.77964" lon="-1.85917">
        <ele>46.3</ele>
      </trkpt>
      <trkpt lat="47.77965" lon="-1.85919">
        <ele>46.1</ele>
      </trkpt>
      <trkpt lat="47.77967" lon="-1.85919">
        <ele>46.1</ele>
      </trkpt>
      <trkpt lat="47.77969" lon="-1.85919">
        <ele>46</ele>
      </trkpt>
      <trkpt lat="47.77971" lon="-1.85917">
        <ele>46</ele>
      </trkpt>
      <trkpt lat="47.77972" lon="-1.85915">
        <ele>46</ele>
      </trkpt>
      <trkpt lat="47.77973" lon="-1.85912">
        <ele>45.9</ele>
      </trkpt>
      <trkpt lat="47.77975" lon="-1.85909">
        <ele>45.8</ele>
      </trkpt>
      <trkpt lat="47.77977" lon="-1.85907">
        <ele>45.6</ele>
      </trkpt>
      <trkpt lat="47.77979" lon="-1.85904">
        <ele>45.5</ele>
      </trkpt>
      <trkpt lat="47.77981" lon="-1.85901">
        <ele>45.4</ele>
      </trkpt>
      <trkpt lat="47.77982" lon="-1.85898">
        <ele>45.3</ele>
      </trkpt>
      <trkpt lat="47.77982" lon="-1.85895">
        <ele>45.2</ele>
      </trkpt>
      <trkpt lat="47.77982" lon="-1.85892">
        <ele>45.1</ele>
      </trkpt>
      <trkpt lat="47.77982" lon="-1.85889">
        <ele>45.1</ele>
      </trkpt>
      <trkpt lat="47.77983" lon="-1.85887">
        <ele>45</ele>
      </trkpt>
      <trkpt lat="47.77985" lon="-1.85886">
        <ele>44.9</ele>
      </trkpt>
      <trkpt lat="47.77987" lon="-1.85886">
        <ele>44.8</ele>
      </trkpt>
      <trkpt lat="47.7799" lon="-1.85885">
        <ele>44.6</ele>
      </trkpt>
      <trkpt lat="47.77993" lon="-1.85883">
        <ele>44.5</ele>
      </trkpt>
      <trkpt lat="47.77996" lon="-1.85882">
        <ele>44.4</ele>
      </trkpt>
      <trkpt lat="47.77999" lon="-1.85883">
        <ele>44.3</ele>
      </trkpt>
      <trkpt lat="47.78001" lon="-1.85886">
        <ele>44.1</ele>
      </trkpt>
      <trkpt lat="47.78002" lon="-1.85889">
        <ele>44</ele>
      </trkpt>
      <trkpt lat="47.78004" lon="-1.85892">
        <ele>43.8</ele>
      </trkpt>
      <trkpt lat="47.78006" lon="-1.85895">
        <ele>43.6</ele>
      </trkpt>
      <trkpt lat="47.78008" lon="-1.85899">
        <ele>43.4</ele>
      </trkpt>
      <trkpt lat="47.78012" lon="-1.85902">
        <ele>42.9</ele>
      </trkpt>
      <trkpt lat="47.78015" lon="-1.85906">
        <ele>42.5</ele>
      </trkpt>
      <trkpt lat="47.78019" lon="-1.85908">
        <ele>42</ele>
      </trkpt>
      <trkpt lat="47.78022" lon="-1.85907">
        <ele>41.5</ele>
      </trkpt>
      <trkpt lat="47.78025" lon="-1.85903">
        <ele>41</ele>
      </trkpt>
      <trkpt lat="47.78027" lon="-1.85899">
        <ele>40.6</ele>
      </trkpt>
      <trkpt lat="47.78029" lon="-1.85895">
        <ele>40.2</ele>
      </trkpt>
      <trkpt lat="47.7803" lon="-1.85892">
        <ele>39.9</ele>
      </trkpt>
      <trkpt lat="47.78032" lon="-1.85889">
        <ele>39.6</ele>
      </trkpt>
      <trkpt lat="47.78034" lon="-1.85888">
        <ele>39.3</ele>
      </trkpt>
      <trkpt lat="47.78038" lon="-1.85888">
        <ele>38.7</ele>
      </trkpt>
      <trkpt lat="47.78041" lon="-1.8589">
        <ele>38.3</ele>
      </trkpt>
      <trkpt lat="47.78042" lon="-1.85892">
        <ele>38.2</ele>
      </trkpt>
      <trkpt lat="47.78043" lon="-1.85899">
        <ele>38.3</ele>
      </trkpt>
      <trkpt lat="47.78043" lon="-1.85899">
        <ele>38.3</ele>
      </trkpt>
      <trkpt lat="47.78041" lon="-1.85902">
        <ele>38.6</ele>
      </trkpt>
      <trkpt lat="47.7804" lon="-1.85906">
        <ele>38.9</ele>
      </trkpt>
      <trkpt lat="47.78039" lon="-1.85909">
        <ele>39.2</ele>
      </trkpt>
      <trkpt lat="47.78037" lon="-1.85913">
        <ele>39.6</ele>
      </trkpt>
      <trkpt lat="47.78037" lon="-1.85916">
        <ele>39.7</ele>
      </trkpt>
      <trkpt lat="47.78039" lon="-1.8592">
        <ele>39.2</ele>
      </trkpt>
      <trkpt lat="47.78042" lon="-1.85924">
        <ele>38.6</ele>
      </trkpt>
      <trkpt lat="47.78047" lon="-1.85926">
        <ele>37.9</ele>
      </trkpt>
      <trkpt lat="47.78055" lon="-1.85928">
        <ele>36.6</ele>
      </trkpt>
      <trkpt lat="47.78055" lon="-1.85928">
        <ele>36.6</ele>
      </trkpt>
      <trkpt lat="47.78056" lon="-1.85931">
        <ele>36.3</ele>
      </trkpt>
      <trkpt lat="47.78057" lon="-1.85934">
        <ele>36.1</ele>
      </trkpt>
      <trkpt lat="47.78057" lon="-1.85938">
        <ele>36</ele>
      </trkpt>
      <trkpt lat="47.78056" lon="-1.85941">
        <ele>36</ele>
      </trkpt>
      <trkpt lat="47.78056" lon="-1.85945">
        <ele>35.8</ele>
      </trkpt>
      <trkpt lat="47.78057" lon="-1.85949">
        <ele>35.5</ele>
      </trkpt>
      <trkpt lat="47.78058" lon="-1.85953">
        <ele>35.2</ele>
      </trkpt>
      <trkpt lat="47.78061" lon="-1.85957">
        <ele>34.8</ele>
      </trkpt>
      <trkpt lat="47.78063" lon="-1.85961">
        <ele>34.4</ele>
      </trkpt>
      <trkpt lat="47.78062" lon="-1.85965">
        <ele>34.3</ele>
      </trkpt>
      <trkpt lat="47.78061" lon="-1.8597">
        <ele>34.2</ele>
      </trkpt>
      <trkpt lat="47.78061" lon="-1.85975">
        <ele>34</ele>
      </trkpt>
      <trkpt lat="47.78062" lon="-1.85982">
        <ele>33.7</ele>
      </trkpt>
      <trkpt lat="47.78061" lon="-1.85989">
        <ele>33.6</ele>
      </trkpt>
      <trkpt lat="47.78061" lon="-1.85995">
        <ele>33.3</ele>
      </trkpt>
      <trkpt lat="47.78061" lon="-1.86002">
        <ele>33.2</ele>
      </trkpt>
      <trkpt lat="47.78061" lon="-1.86009">
        <ele>33.1</ele>
      </trkpt>
      <trkpt lat="47.7806" lon="-1.86016">
        <ele>33</ele>
      </trkpt>
      <trkpt lat="47.7806" lon="-1.86023">
        <ele>33</ele>
      </trkpt>
      <trkpt lat="47.7806" lon="-1.8603">
        <ele>33</ele>
      </trkpt>
      <trkpt lat="47.7806" lon="-1.86036">
        <ele>32.9</ele>
      </trkpt>
      <trkpt lat="47.78059" lon="-1.86042">
        <ele>32.9</ele>
      </trkpt>
      <trkpt lat="47.78059" lon="-1.86049">
        <ele>32.8</ele>
      </trkpt>
      <trkpt lat="47.78059" lon="-1.86055">
        <ele>32.7</ele>
      </trkpt>
      <trkpt lat="47.78059" lon="-1.86062">
        <ele>32.7</ele>
      </trkpt>
      <trkpt lat="47.7806" lon="-1.86069">
        <ele>32.6</ele>
      </trkpt>
      <trkpt lat="47.78059" lon="-1.86075">
        <ele>32.5</ele>
      </trkpt>
      <trkpt lat="47.78059" lon="-1.86082">
        <ele>32.5</ele>
      </trkpt>
      <trkpt lat="47.78058" lon="-1.86089">
        <ele>32.4</ele>
      </trkpt>
      <trkpt lat="47.78058" lon="-1.86095">
        <ele>32.4</ele>
      </trkpt>
      <trkpt lat="47.78058" lon="-1.86101">
        <ele>32.3</ele>
      </trkpt>
      <trkpt lat="47.78058" lon="-1.86107">
        <ele>32.3</ele>
      </trkpt>
      <trkpt lat="47.78057" lon="-1.86113">
        <ele>32.2</ele>
      </trkpt>
      <trkpt lat="47.78057" lon="-1.86119">
        <ele>32.1</ele>
      </trkpt>
      <trkpt lat="47.78057" lon="-1.86124">
        <ele>32.1</ele>
      </trkpt>
      <trkpt lat="47.78057" lon="-1.86129">
        <ele>32</ele>
      </trkpt>
      <trkpt lat="47.78056" lon="-1.86134">
        <ele>32</ele>
      </trkpt>
      <trkpt lat="47.78056" lon="-1.8614">
        <ele>32</ele>
      </trkpt>
      <trkpt lat="47.78056" lon="-1.86145">
        <ele>31.9</ele>
      </trkpt>
      <trkpt lat="47.78056" lon="-1.86151">
        <ele>31.8</ele>
      </trkpt>
      <trkpt lat="47.78056" lon="-1.86157">
        <ele>31.8</ele>
      </trkpt>
      <trkpt lat="47.78055" lon="-1.86162">
        <ele>31.7</ele>
      </trkpt>
      <trkpt lat="47.78055" lon="-1.86168">
        <ele>31.7</ele>
      </trkpt>
      <trkpt lat="47.78055" lon="-1.86175">
        <ele>31.7</ele>
      </trkpt>
      <trkpt lat="47.78055" lon="-1.86181">
        <ele>31.7</ele>
      </trkpt>
      <trkpt lat="47.78054" lon="-1.86188">
        <ele>31.8</ele>
      </trkpt>
      <trkpt lat="47.78054" lon="-1.86196">
        <ele>31.8</ele>
      </trkpt>
      <trkpt lat="47.78054" lon="-1.86203">
        <ele>31.8</ele>
      </trkpt>
      <trkpt lat="47.78053" lon="-1.86211">
        <ele>31.8</ele>
      </trkpt>
      <trkpt lat="47.78053" lon="-1.8622">
        <ele>31.8</ele>
      </trkpt>
      <trkpt lat="47.78053" lon="-1.86229">
        <ele>31.8</ele>
      </trkpt>
      <trkpt lat="47.78053" lon="-1.86238">
        <ele>31.8</ele>
      </trkpt>
      <trkpt lat="47.78053" lon="-1.86247">
        <ele>31.8</ele>
      </trkpt>
      <trkpt lat="47.78052" lon="-1.86257">
        <ele>31.8</ele>
      </trkpt>
      <trkpt lat="47.78052" lon="-1.86266">
        <ele>31.7</ele>
      </trkpt>
      <trkpt lat="47.78051" lon="-1.86276">
        <ele>31.6</ele>
      </trkpt>
      <trkpt lat="47.78051" lon="-1.86286">
        <ele>31.6</ele>
      </trkpt>
      <trkpt lat="47.7805" lon="-1.86296">
        <ele>31.6</ele>
      </trkpt>
      <trkpt lat="47.7805" lon="-1.86305">
        <ele>31.5</ele>
      </trkpt>
      <trkpt lat="47.7805" lon="-1.86313">
        <ele>31.4</ele>
      </trkpt>
      <trkpt lat="47.7805" lon="-1.86321">
        <ele>31.3</ele>
      </trkpt>
      <trkpt lat="47.78049" lon="-1.8633">
        <ele>31.3</ele>
      </trkpt>
      <trkpt lat="47.78049" lon="-1.86338">
        <ele>31.4</ele>
      </trkpt>
      <trkpt lat="47.78049" lon="-1.86347">
        <ele>31.5</ele>
      </trkpt>
      <trkpt lat="47.78049" lon="-1.86355">
        <ele>31.6</ele>
      </trkpt>
      <trkpt lat="47.78048" lon="-1.86362">
        <ele>31.7</ele>
      </trkpt>
      <trkpt lat="47.78048" lon="-1.8637">
        <ele>31.8</ele>
      </trkpt>
      <trkpt lat="47.78047" lon="-1.86376">
        <ele>32</ele>
      </trkpt>
      <trkpt lat="47.78047" lon="-1.86381">
        <ele>32.1</ele>
      </trkpt>
      <trkpt lat="47.78046" lon="-1.86384">
        <ele>32.2</ele>
      </trkpt>
      <trkpt lat="47.78045" lon="-1.86385">
        <ele>32.4</ele>
      </trkpt>
      <trkpt lat="47.78044" lon="-1.86386">
        <ele>32.6</ele>
      </trkpt>
      <trkpt lat="47.78042" lon="-1.86386">
        <ele>32.9</ele>
      </trkpt>
      <trkpt lat="47.7804" lon="-1.86387">
        <ele>33.2</ele>
      </trkpt>
      <trkpt lat="47.78038" lon="-1.86386">
        <ele>33.4</ele>
      </trkpt>
      <trkpt lat="47.78037" lon="-1.86384">
        <ele>33.6</ele>
      </trkpt>
      <trkpt lat="47.78037" lon="-1.86381">
        <ele>33.6</ele>
      </trkpt>
      <trkpt lat="47.78037" lon="-1.86378">
        <ele>33.4</ele>
      </trkpt>
      <trkpt lat="47.78037" lon="-1.86374">
        <ele>33.4</ele>
      </trkpt>
      <trkpt lat="47.78037" lon="-1.8637">
        <ele>33.4</ele>
      </trkpt>
      <trkpt lat="47.78036" lon="-1.86367">
        <ele>33.3</ele>
      </trkpt>
      <trkpt lat="47.78035" lon="-1.86364">
        <ele>33.4</ele>
      </trkpt>
      <trkpt lat="47.78033" lon="-1.86362">
        <ele>33.6</ele>
      </trkpt>
      <trkpt lat="47.78029" lon="-1.86361">
        <ele>34</ele>
      </trkpt>
      <trkpt lat="47.78027" lon="-1.8636">
        <ele>34.3</ele>
      </trkpt>
      <trkpt lat="47.78024" lon="-1.86359">
        <ele>34.6</ele>
      </trkpt>
      <trkpt lat="47.78022" lon="-1.86355">
        <ele>34.7</ele>
      </trkpt>
      <trkpt lat="47.78019" lon="-1.86354">
        <ele>35</ele>
      </trkpt>
      <trkpt lat="47.78016" lon="-1.8635">
        <ele>35.2</ele>
      </trkpt>
      <trkpt lat="47.78014" lon="-1.86346">
        <ele>35.3</ele>
      </trkpt>
      <trkpt lat="47.78013" lon="-1.86342">
        <ele>35.2</ele>
      </trkpt>
      <trkpt lat="47.78012" lon="-1.86339">
        <ele>35.1</ele>
      </trkpt>
      <trkpt lat="47.78011" lon="-1.86336">
        <ele>35.1</ele>
      </trkpt>
      <trkpt lat="47.78009" lon="-1.86334">
        <ele>35.2</ele>
      </trkpt>
      <trkpt lat="47.78005" lon="-1.86332">
        <ele>35.5</ele>
      </trkpt>
      <trkpt lat="47.78004" lon="-1.8633">
        <ele>35.6</ele>
      </trkpt>
      <trkpt lat="47.78001" lon="-1.86328">
        <ele>35.8</ele>
      </trkpt>
      <trkpt lat="47.77998" lon="-1.86327">
        <ele>36.1</ele>
      </trkpt>
      <trkpt lat="47.77996" lon="-1.86326">
        <ele>36.3</ele>
      </trkpt>
      <trkpt lat="47.77993" lon="-1.86324">
        <ele>36.7</ele>
      </trkpt>
      <trkpt lat="47.7799" lon="-1.86322">
        <ele>37</ele>
      </trkpt>
      <trkpt lat="47.77987" lon="-1.86321">
        <ele>37.3</ele>
      </trkpt>
      <trkpt lat="47.77984" lon="-1.86321">
        <ele>37.6</ele>
      </trkpt>
      <trkpt lat="47.77983" lon="-1.86323">
        <ele>37.8</ele>
      </trkpt>
      <trkpt lat="47.77982" lon="-1.86325">
        <ele>37.9</ele>
      </trkpt>
      <trkpt lat="47.77982" lon="-1.86328">
        <ele>37.9</ele>
      </trkpt>
      <trkpt lat="47.77983" lon="-1.86331">
        <ele>37.8</ele>
      </trkpt>
      <trkpt lat="47.77985" lon="-1.86333">
        <ele>37.7</ele>
      </trkpt>
      <trkpt lat="47.77987" lon="-1.86336">
        <ele>37.6</ele>
      </trkpt>
      <trkpt lat="47.77988" lon="-1.86339">
        <ele>37.6</ele>
      </trkpt>
      <trkpt lat="47.77989" lon="-1.86342">
        <ele>37.7</ele>
      </trkpt>
      <trkpt lat="47.7799" lon="-1.86346">
        <ele>37.8</ele>
      </trkpt>
      <trkpt lat="47.77991" lon="-1.86349">
        <ele>37.9</ele>
      </trkpt>
      <trkpt lat="47.77992" lon="-1.86352">
        <ele>37.9</ele>
      </trkpt>
      <trkpt lat="47.77994" lon="-1.86353">
        <ele>37.8</ele>
      </trkpt>
      <trkpt lat="47.77996" lon="-1.86354">
        <ele>37.6</ele>
      </trkpt>
      <trkpt lat="47.77999" lon="-1.86354">
        <ele>37.4</ele>
      </trkpt>
      <trkpt lat="47.78002" lon="-1.86355">
        <ele>37</ele>
      </trkpt>
      <trkpt lat="47.78006" lon="-1.86356">
        <ele>36.6</ele>
      </trkpt>
      <trkpt lat="47.78009" lon="-1.86358">
        <ele>36.4</ele>
      </trkpt>
      <trkpt lat="47.78011" lon="-1.8636">
        <ele>36.3</ele>
      </trkpt>
      <trkpt lat="47.78012" lon="-1.86364">
        <ele>36.4</ele>
      </trkpt>
      <trkpt lat="47.78011" lon="-1.86367">
        <ele>36.6</ele>
      </trkpt>
      <trkpt lat="47.78009" lon="-1.86369">
        <ele>36.9</ele>
      </trkpt>
      <trkpt lat="47.78007" lon="-1.86369">
        <ele>37.2</ele>
      </trkpt>
      <trkpt lat="47.78005" lon="-1.8637">
        <ele>37.6</ele>
      </trkpt>
      <trkpt lat="47.78004" lon="-1.86372">
        <ele>37.9</ele>
      </trkpt>
      <trkpt lat="47.78004" lon="-1.86375">
        <ele>38</ele>
      </trkpt>
      <trkpt lat="47.78005" lon="-1.86377">
        <ele>37.9</ele>
      </trkpt>
      <trkpt lat="47.78007" lon="-1.86379">
        <ele>37.8</ele>
      </trkpt>
      <trkpt lat="47.78009" lon="-1.86383">
        <ele>37.7</ele>
      </trkpt>
      <trkpt lat="47.78009" lon="-1.86388">
        <ele>37.9</ele>
      </trkpt>
      <trkpt lat="47.78009" lon="-1.86392">
        <ele>38.2</ele>
      </trkpt>
      <trkpt lat="47.78007" lon="-1.86395">
        <ele>38.6</ele>
      </trkpt>
      <trkpt lat="47.78005" lon="-1.86398">
        <ele>39</ele>
      </trkpt>
      <trkpt lat="47.78003" lon="-1.86401">
        <ele>39.6</ele>
      </trkpt>
      <trkpt lat="47.78002" lon="-1.86404">
        <ele>39.9</ele>
      </trkpt>
      <trkpt lat="47.78001" lon="-1.86406">
        <ele>40.2</ele>
      </trkpt>
      <trkpt lat="47.77999" lon="-1.86407">
        <ele>40.4</ele>
      </trkpt>
      <trkpt lat="47.77998" lon="-1.86407">
        <ele>40.6</ele>
      </trkpt>
      <trkpt lat="47.77995" lon="-1.86407">
        <ele>40.7</ele>
      </trkpt>
      <trkpt lat="47.77993" lon="-1.86407">
        <ele>40.9</ele>
      </trkpt>
      <trkpt lat="47.77991" lon="-1.8641">
        <ele>41.1</ele>
      </trkpt>
      <trkpt lat="47.7799" lon="-1.86413">
        <ele>41.4</ele>
      </trkpt>
      <trkpt lat="47.77988" lon="-1.86416">
        <ele>41.6</ele>
      </trkpt>
      <trkpt lat="47.77987" lon="-1.86419">
        <ele>41.8</ele>
      </trkpt>
      <trkpt lat="47.77987" lon="-1.86422">
        <ele>41.9</ele>
      </trkpt>
      <trkpt lat="47.77987" lon="-1.86426">
        <ele>42</ele>
      </trkpt>
      <trkpt lat="47.77988" lon="-1.86429">
        <ele>42.1</ele>
      </trkpt>
      <trkpt lat="47.77988" lon="-1.86432">
        <ele>42.1</ele>
      </trkpt>
      <trkpt lat="47.77989" lon="-1.86437">
        <ele>42.2</ele>
      </trkpt>
      <trkpt lat="47.77988" lon="-1.86442">
        <ele>42.4</ele>
      </trkpt>
      <trkpt lat="47.77987" lon="-1.86445">
        <ele>42.6</ele>
      </trkpt>
      <trkpt lat="47.77986" lon="-1.86447">
        <ele>42.7</ele>
      </trkpt>
      <trkpt lat="47.77986" lon="-1.86453">
        <ele>42.9</ele>
      </trkpt>
      <trkpt lat="47.77986" lon="-1.86457">
        <ele>43</ele>
      </trkpt>
      <trkpt lat="47.77985" lon="-1.8646">
        <ele>43.1</ele>
      </trkpt>
      <trkpt lat="47.77985" lon="-1.86463">
        <ele>43.2</ele>
      </trkpt>
      <trkpt lat="47.77983" lon="-1.86466">
        <ele>43.4</ele>
      </trkpt>
      <trkpt lat="47.77983" lon="-1.86469">
        <ele>43.5</ele>
      </trkpt>
      <trkpt lat="47.77983" lon="-1.86473">
        <ele>43.7</ele>
      </trkpt>
      <trkpt lat="47.77982" lon="-1.86476">
        <ele>43.8</ele>
      </trkpt>
      <trkpt lat="47.77982" lon="-1.8648">
        <ele>43.9</ele>
      </trkpt>
      <trkpt lat="47.77982" lon="-1.86483">
        <ele>44</ele>
      </trkpt>
      <trkpt lat="47.77981" lon="-1.86487">
        <ele>44.2</ele>
      </trkpt>
      <trkpt lat="47.77981" lon="-1.8649">
        <ele>44.3</ele>
      </trkpt>
      <trkpt lat="47.77981" lon="-1.86493">
        <ele>44.4</ele>
      </trkpt>
      <trkpt lat="47.77981" lon="-1.86495">
        <ele>44.5</ele>
      </trkpt>
      <trkpt lat="47.77982" lon="-1.86497">
        <ele>44.4</ele>
      </trkpt>
      <trkpt lat="47.77984" lon="-1.86499">
        <ele>44.3</ele>
      </trkpt>
      <trkpt lat="47.77987" lon="-1.865">
        <ele>44.1</ele>
      </trkpt>
      <trkpt lat="47.77989" lon="-1.865">
        <ele>43.9</ele>
      </trkpt>
      <trkpt lat="47.77993" lon="-1.86498">
        <ele>43.6</ele>
      </trkpt>
      <trkpt lat="47.77996" lon="-1.86495">
        <ele>43.2</ele>
      </trkpt>
      <trkpt lat="47.77999" lon="-1.86492">
        <ele>42.9</ele>
      </trkpt>
      <trkpt lat="47.78003" lon="-1.8649">
        <ele>42.3</ele>
      </trkpt>
      <trkpt lat="47.78005" lon="-1.86488">
        <ele>41.8</ele>
      </trkpt>
      <trkpt lat="47.78008" lon="-1.86486">
        <ele>41.2</ele>
      </trkpt>
      <trkpt lat="47.78011" lon="-1.86485">
        <ele>40.7</ele>
      </trkpt>
      <trkpt lat="47.78013" lon="-1.86486">
        <ele>40.3</ele>
      </trkpt>
      <trkpt lat="47.78015" lon="-1.86488">
        <ele>39.9</ele>
      </trkpt>
      <trkpt lat="47.78018" lon="-1.8649">
        <ele>39.6</ele>
      </trkpt>
      <trkpt lat="47.78018" lon="-1.86493">
        <ele>39.6</ele>
      </trkpt>
      <trkpt lat="47.78018" lon="-1.86495">
        <ele>39.7</ele>
      </trkpt>
      <trkpt lat="47.78018" lon="-1.86498">
        <ele>39.8</ele>
      </trkpt>
      <trkpt lat="47.78017" lon="-1.865">
        <ele>40</ele>
      </trkpt>
      <trkpt lat="47.78015" lon="-1.86503">
        <ele>40.2</ele>
      </trkpt>
      <trkpt lat="47.78014" lon="-1.86506">
        <ele>40.6</ele>
      </trkpt>
      <trkpt lat="47.78013" lon="-1.8651">
        <ele>40.7</ele>
      </trkpt>
      <trkpt lat="47.78014" lon="-1.86514">
        <ele>40.7</ele>
      </trkpt>
      <trkpt lat="47.78014" lon="-1.86517">
        <ele>40.6</ele>
      </trkpt>
      <trkpt lat="47.78015" lon="-1.86521">
        <ele>40.6</ele>
      </trkpt>
      <trkpt lat="47.78015" lon="-1.86525">
        <ele>40.6</ele>
      </trkpt>
      <trkpt lat="47.78014" lon="-1.8653">
        <ele>40.8</ele>
      </trkpt>
      <trkpt lat="47.78013" lon="-1.86533">
        <ele>41</ele>
      </trkpt>
      <trkpt lat="47.78012" lon="-1.86535">
        <ele>41.2</ele>
      </trkpt>
      <trkpt lat="47.78011" lon="-1.86538">
        <ele>41.4</ele>
      </trkpt>
      <trkpt lat="47.78009" lon="-1.86541">
        <ele>41.7</ele>
      </trkpt>
      <trkpt lat="47.78008" lon="-1.86543">
        <ele>42.1</ele>
      </trkpt>
      <trkpt lat="47.78006" lon="-1.86545">
        <ele>42.4</ele>
      </trkpt>
      <trkpt lat="47.78005" lon="-1.86546">
        <ele>42.7</ele>
      </trkpt>
      <trkpt lat="47.78002" lon="-1.86548">
        <ele>43.1</ele>
      </trkpt>
      <trkpt lat="47.78001" lon="-1.86548">
        <ele>43.4</ele>
      </trkpt>
      <trkpt lat="47.77998" lon="-1.86549">
        <ele>43.7</ele>
      </trkpt>
      <trkpt lat="47.77997" lon="-1.8655">
        <ele>43.9</ele>
      </trkpt>
      <trkpt lat="47.77996" lon="-1.86553">
        <ele>44</ele>
      </trkpt>
      <trkpt lat="47.77994" lon="-1.86555">
        <ele>44.3</ele>
      </trkpt>
      <trkpt lat="47.77991" lon="-1.8656">
        <ele>44.5</ele>
      </trkpt>
      <trkpt lat="47.7799" lon="-1.86562">
        <ele>44.6</ele>
      </trkpt>
      <trkpt lat="47.7799" lon="-1.86563">
        <ele>44.7</ele>
      </trkpt>
      <trkpt lat="47.77991" lon="-1.86566">
        <ele>44.7</ele>
      </trkpt>
      <trkpt lat="47.77991" lon="-1.8657">
        <ele>44.7</ele>
      </trkpt>
      <trkpt lat="47.77991" lon="-1.86573">
        <ele>44.7</ele>
      </trkpt>
      <trkpt lat="47.77994" lon="-1.8658">
        <ele>44.6</ele>
      </trkpt>
      <trkpt lat="47.77996" lon="-1.86584">
        <ele>44.4</ele>
      </trkpt>
      <trkpt lat="47.77999" lon="-1.86589">
        <ele>44.1</ele>
      </trkpt>
      <trkpt lat="47.78003" lon="-1.86593">
        <ele>43.4</ele>
      </trkpt>
      <trkpt lat="47.78005" lon="-1.86597">
        <ele>43</ele>
      </trkpt>
      <trkpt lat="47.78007" lon="-1.86599">
        <ele>42.7</ele>
      </trkpt>
      <trkpt lat="47.7801" lon="-1.86601">
        <ele>42</ele>
      </trkpt>
      <trkpt lat="47.78014" lon="-1.86603">
        <ele>41.3</ele>
      </trkpt>
      <trkpt lat="47.78017" lon="-1.86604">
        <ele>40.8</ele>
      </trkpt>
      <trkpt lat="47.7802" lon="-1.86605">
        <ele>40.2</ele>
      </trkpt>
      <trkpt lat="47.78022" lon="-1.86606">
        <ele>39.8</ele>
      </trkpt>
      <trkpt lat="47.78025" lon="-1.86607">
        <ele>39.3</ele>
      </trkpt>
      <trkpt lat="47.78025" lon="-1.8661">
        <ele>39.2</ele>
      </trkpt>
      <trkpt lat="47.78025" lon="-1.86613">
        <ele>39.2</ele>
      </trkpt>
      <trkpt lat="47.78026" lon="-1.86616">
        <ele>39.2</ele>
      </trkpt>
      <trkpt lat="47.78024" lon="-1.8662">
        <ele>39.4</ele>
      </trkpt>
      <trkpt lat="47.78022" lon="-1.86624">
        <ele>39.8</ele>
      </trkpt>
      <trkpt lat="47.78021" lon="-1.86626">
        <ele>40.1</ele>
      </trkpt>
      <trkpt lat="47.78019" lon="-1.86629">
        <ele>40.6</ele>
      </trkpt>
      <trkpt lat="47.78018" lon="-1.86631">
        <ele>40.8</ele>
      </trkpt>
      <trkpt lat="47.78017" lon="-1.86634">
        <ele>40.9</ele>
      </trkpt>
      <trkpt lat="47.78016" lon="-1.86636">
        <ele>41</ele>
      </trkpt>
      <trkpt lat="47.78015" lon="-1.86637">
        <ele>41.2</ele>
      </trkpt>
      <trkpt lat="47.78014" lon="-1.86638">
        <ele>41.5</ele>
      </trkpt>
      <trkpt lat="47.78012" lon="-1.86637">
        <ele>41.7</ele>
      </trkpt>
      <trkpt lat="47.78012" lon="-1.86637">
        <ele>41.8</ele>
      </trkpt>
      <trkpt lat="47.78011" lon="-1.86635">
        <ele>41.9</ele>
      </trkpt>
      <trkpt lat="47.7801" lon="-1.86633">
        <ele>42.1</ele>
      </trkpt>
      <trkpt lat="47.78008" lon="-1.86632">
        <ele>42.5</ele>
      </trkpt>
      <trkpt lat="47.78007" lon="-1.86632">
        <ele>42.8</ele>
      </trkpt>
      <trkpt lat="47.78005" lon="-1.86631">
        <ele>43</ele>
      </trkpt>
      <trkpt lat="47.78004" lon="-1.86631">
        <ele>43.2</ele>
      </trkpt>
      <trkpt lat="47.78003" lon="-1.86632">
        <ele>43.5</ele>
      </trkpt>
      <trkpt lat="47.78002" lon="-1.86633">
        <ele>43.7</ele>
      </trkpt>
      <trkpt lat="47.78" lon="-1.86636">
        <ele>44</ele>
      </trkpt>
      <trkpt lat="47.77999" lon="-1.86639">
        <ele>44.1</ele>
      </trkpt>
      <trkpt lat="47.77997" lon="-1.86642">
        <ele>44.3</ele>
      </trkpt>
      <trkpt lat="47.77996" lon="-1.86644">
        <ele>44.4</ele>
      </trkpt>
      <trkpt lat="47.77996" lon="-1.86647">
        <ele>44.4</ele>
      </trkpt>
      <trkpt lat="47.77996" lon="-1.86651">
        <ele>44.4</ele>
      </trkpt>
      <trkpt lat="47.77997" lon="-1.86656">
        <ele>44.3</ele>
      </trkpt>
      <trkpt lat="47.77996" lon="-1.8666">
        <ele>44.4</ele>
      </trkpt>
      <trkpt lat="47.77995" lon="-1.86664">
        <ele>44.5</ele>
      </trkpt>
      <trkpt lat="47.77994" lon="-1.86668">
        <ele>44.6</ele>
      </trkpt>
      <trkpt lat="47.77993" lon="-1.86672">
        <ele>44.5</ele>
      </trkpt>
      <trkpt lat="47.77992" lon="-1.86676">
        <ele>44.4</ele>
      </trkpt>
      <trkpt lat="47.7799" lon="-1.86682">
        <ele>44.3</ele>
      </trkpt>
      <trkpt lat="47.77988" lon="-1.86686">
        <ele>44.3</ele>
      </trkpt>
      <trkpt lat="47.77987" lon="-1.8669">
        <ele>44.3</ele>
      </trkpt>
      <trkpt lat="47.77985" lon="-1.86694">
        <ele>44.3</ele>
      </trkpt>
      <trkpt lat="47.77984" lon="-1.86697">
        <ele>44.2</ele>
      </trkpt>
      <trkpt lat="47.77983" lon="-1.86698">
        <ele>44.3</ele>
      </trkpt>
      <trkpt lat="47.77983" lon="-1.86701">
        <ele>44.2</ele>
      </trkpt>
      <trkpt lat="47.77985" lon="-1.86705">
        <ele>43.8</ele>
      </trkpt>
      <trkpt lat="47.77986" lon="-1.86709">
        <ele>43.6</ele>
      </trkpt>
      <trkpt lat="47.77985" lon="-1.86712">
        <ele>43.5</ele>
      </trkpt>
      <trkpt lat="47.77985" lon="-1.86715">
        <ele>43.4</ele>
      </trkpt>
      <trkpt lat="47.77984" lon="-1.86717">
        <ele>43.4</ele>
      </trkpt>
      <trkpt lat="47.77982" lon="-1.86719">
        <ele>43.4</ele>
      </trkpt>
      <trkpt lat="47.7798" lon="-1.8672">
        <ele>43.5</ele>
      </trkpt>
      <trkpt lat="47.77979" lon="-1.8672">
        <ele>43.6</ele>
      </trkpt>
      <trkpt lat="47.77977" lon="-1.86721">
        <ele>43.7</ele>
      </trkpt>
      <trkpt lat="47.77975" lon="-1.86723">
        <ele>43.8</ele>
      </trkpt>
      <trkpt lat="47.77974" lon="-1.86726">
        <ele>43.7</ele>
      </trkpt>
      <trkpt lat="47.77973" lon="-1.8673">
        <ele>43.6</ele>
      </trkpt>
      <trkpt lat="47.77973" lon="-1.86734">
        <ele>43.3</ele>
      </trkpt>
      <trkpt lat="47.77973" lon="-1.86739">
        <ele>43.2</ele>
      </trkpt>
      <trkpt lat="47.77973" lon="-1.86744">
        <ele>42.9</ele>
      </trkpt>
      <trkpt lat="47.77973" lon="-1.86748">
        <ele>42.7</ele>
      </trkpt>
      <trkpt lat="47.77973" lon="-1.86751">
        <ele>42.6</ele>
      </trkpt>
      <trkpt lat="47.77971" lon="-1.86754">
        <ele>42.5</ele>
      </trkpt>
      <trkpt lat="47.77969" lon="-1.86755">
        <ele>42.5</ele>
      </trkpt>
      <trkpt lat="47.77968" lon="-1.86755">
        <ele>42.7</ele>
      </trkpt>
      <trkpt lat="47.77965" lon="-1.86754">
        <ele>42.9</ele>
      </trkpt>
      <trkpt lat="47.77963" lon="-1.86753">
        <ele>43</ele>
      </trkpt>
      <trkpt lat="47.7796" lon="-1.86753">
        <ele>43.2</ele>
      </trkpt>
      <trkpt lat="47.77957" lon="-1.86753">
        <ele>43.4</ele>
      </trkpt>
      <trkpt lat="47.77956" lon="-1.86753">
        <ele>43.5</ele>
      </trkpt>
      <trkpt lat="47.77955" lon="-1.86753">
        <ele>43.5</ele>
      </trkpt>
      <trkpt lat="47.77955" lon="-1.86753">
        <ele>43.6</ele>
      </trkpt>
      <trkpt lat="47.77955" lon="-1.86753">
        <ele>43.6</ele>
      </trkpt>
      <trkpt lat="47.77955" lon="-1.86753">
        <ele>43.6</ele>
      </trkpt>
      <trkpt lat="47.77955" lon="-1.86753">
        <ele>43.6</ele>
      </trkpt>
      <trkpt lat="47.77955" lon="-1.86753">
        <ele>43.6</ele>
      </trkpt>
      <trkpt lat="47.77955" lon="-1.86753">
        <ele>43.6</ele>
      </trkpt>
      <trkpt lat="47.77955" lon="-1.86753">
        <ele>43.6</ele>
      </trkpt>
      <trkpt lat="47.77955" lon="-1.86753">
        <ele>43.5</ele>
      </trkpt>
      <trkpt lat="47.77956" lon="-1.86754">
        <ele>43.4</ele>
      </trkpt>
      <trkpt lat="47.77957" lon="-1.86755">
        <ele>43.3</ele>
      </trkpt>
      <trkpt lat="47.77959" lon="-1.86757">
        <ele>43.1</ele>
      </trkpt>
      <trkpt lat="47.77962" lon="-1.8676">
        <ele>42.8</ele>
      </trkpt>
      <trkpt lat="47.77965" lon="-1.86762">
        <ele>42.5</ele>
      </trkpt>
      <trkpt lat="47.77968" lon="-1.86765">
        <ele>42.1</ele>
      </trkpt>
      <trkpt lat="47.77971" lon="-1.86768">
        <ele>41.8</ele>
      </trkpt>
      <trkpt lat="47.77975" lon="-1.86772">
        <ele>41.4</ele>
      </trkpt>
      <trkpt lat="47.77979" lon="-1.86775">
        <ele>41</ele>
      </trkpt>
      <trkpt lat="47.77983" lon="-1.86779">
        <ele>40.6</ele>
      </trkpt>
      <trkpt lat="47.77987" lon="-1.86783">
        <ele>40.1</ele>
      </trkpt>
      <trkpt lat="47.77992" lon="-1.86787">
        <ele>39.7</ele>
      </trkpt>
      <trkpt lat="47.77996" lon="-1.86791">
        <ele>39.2</ele>
      </trkpt>
      <trkpt lat="47.78001" lon="-1.86796">
        <ele>38.6</ele>
      </trkpt>
      <trkpt lat="47.78007" lon="-1.86801">
        <ele>37.8</ele>
      </trkpt>
      <trkpt lat="47.78012" lon="-1.86805">
        <ele>37.1</ele>
      </trkpt>
      <trkpt lat="47.78018" lon="-1.86808">
        <ele>36.3</ele>
      </trkpt>
      <trkpt lat="47.78024" lon="-1.86811">
        <ele>35.5</ele>
      </trkpt>
      <trkpt lat="47.7803" lon="-1.86815">
        <ele>34.7</ele>
      </trkpt>
      <trkpt lat="47.78036" lon="-1.86817">
        <ele>33.9</ele>
      </trkpt>
      <trkpt lat="47.78042" lon="-1.86819">
        <ele>33.2</ele>
      </trkpt>
      <trkpt lat="47.78049" lon="-1.8682">
        <ele>32.4</ele>
      </trkpt>
      <trkpt lat="47.78056" lon="-1.86822">
        <ele>31.5</ele>
      </trkpt>
      <trkpt lat="47.78063" lon="-1.86822">
        <ele>30.7</ele>
      </trkpt>
      <trkpt lat="47.78071" lon="-1.86822">
        <ele>29.9</ele>
      </trkpt>
      <trkpt lat="47.78079" lon="-1.86821">
        <ele>29</ele>
      </trkpt>
      <trkpt lat="47.78087" lon="-1.8682">
        <ele>28.5</ele>
      </trkpt>
      <trkpt lat="47.78096" lon="-1.8682">
        <ele>28.3</ele>
      </trkpt>
      <trkpt lat="47.78105" lon="-1.86819">
        <ele>28</ele>
      </trkpt>
      <trkpt lat="47.78113" lon="-1.8682">
        <ele>27.7</ele>
      </trkpt>
      <trkpt lat="47.78121" lon="-1.8682">
        <ele>27.4</ele>
      </trkpt>
      <trkpt lat="47.78128" lon="-1.8682">
        <ele>27.2</ele>
      </trkpt>
      <trkpt lat="47.78135" lon="-1.86821">
        <ele>27</ele>
      </trkpt>
      <trkpt lat="47.78143" lon="-1.86822">
        <ele>26.7</ele>
      </trkpt>
      <trkpt lat="47.78149" lon="-1.86821">
        <ele>26.5</ele>
      </trkpt>
      <trkpt lat="47.78155" lon="-1.86821">
        <ele>26.4</ele>
      </trkpt>
      <trkpt lat="47.78159" lon="-1.86821">
        <ele>26.2</ele>
      </trkpt>
      <trkpt lat="47.78164" lon="-1.86822">
        <ele>26.1</ele>
      </trkpt>
      <trkpt lat="47.78169" lon="-1.86824">
        <ele>26</ele>
      </trkpt>
      <trkpt lat="47.78174" lon="-1.86826">
        <ele>25.9</ele>
      </trkpt>
      <trkpt lat="47.78177" lon="-1.86827">
        <ele>25.9</ele>
      </trkpt>
      <trkpt lat="47.78181" lon="-1.86828">
        <ele>25.8</ele>
      </trkpt>
      <trkpt lat="47.78185" lon="-1.86831">
        <ele>25.8</ele>
      </trkpt>
      <trkpt lat="47.78189" lon="-1.86833">
        <ele>25.7</ele>
      </trkpt>
      <trkpt lat="47.78194" lon="-1.86835">
        <ele>25.7</ele>
      </trkpt>
      <trkpt lat="47.78198" lon="-1.86837">
        <ele>25.7</ele>
      </trkpt>
      <trkpt lat="47.78203" lon="-1.8684">
        <ele>25.6</ele>
      </trkpt>
      <trkpt lat="47.78207" lon="-1.86842">
        <ele>25.6</ele>
      </trkpt>
      <trkpt lat="47.78212" lon="-1.86845">
        <ele>25.6</ele>
      </trkpt>
      <trkpt lat="47.78216" lon="-1.86847">
        <ele>25.6</ele>
      </trkpt>
      <trkpt lat="47.7822" lon="-1.86849">
        <ele>25.6</ele>
      </trkpt>
      <trkpt lat="47.78224" lon="-1.86851">
        <ele>25.6</ele>
      </trkpt>
      <trkpt lat="47.78228" lon="-1.86853">
        <ele>25.6</ele>
      </trkpt>
      <trkpt lat="47.78233" lon="-1.86856">
        <ele>25.6</ele>
      </trkpt>
      <trkpt lat="47.78238" lon="-1.86858">
        <ele>25.7</ele>
      </trkpt>
      <trkpt lat="47.78242" lon="-1.8686">
        <ele>25.7</ele>
      </trkpt>
      <trkpt lat="47.78246" lon="-1.86862">
        <ele>25.7</ele>
      </trkpt>
      <trkpt lat="47.78251" lon="-1.86864">
        <ele>25.8</ele>
      </trkpt>
      <trkpt lat="47.78255" lon="-1.86866">
        <ele>26</ele>
      </trkpt>
      <trkpt lat="47.78259" lon="-1.86868">
        <ele>26.2</ele>
      </trkpt>
      <trkpt lat="47.78263" lon="-1.86871">
        <ele>26.5</ele>
      </trkpt>
      <trkpt lat="47.78267" lon="-1.86873">
        <ele>26.7</ele>
      </trkpt>
      <trkpt lat="47.78276" lon="-1.86904">
        <ele>27.7</ele>
      </trkpt>
      <trkpt lat="47.783" lon="-1.87076">
        <ele>29.6</ele>
      </trkpt>
      <trkpt lat="47.78318" lon="-1.87303">
        <ele>35.9</ele>
      </trkpt>
      <trkpt lat="47.78209" lon="-1.87338">
        <ele>32.1</ele>
      </trkpt>
      <trkpt lat="47.7808" lon="-1.87385">
        <ele>33.9</ele>
      </trkpt>
      <trkpt lat="47.77986" lon="-1.87416">
        <ele>36.5</ele>
      </trkpt>
      <trkpt lat="47.77852" lon="-1.87523">
        <ele>43.3</ele>
      </trkpt>
      <trkpt lat="47.77843" lon="-1.8754">
        <ele>43.9</ele>
      </trkpt>
      <trkpt lat="47.77846" lon="-1.8772">
        <ele>51.2</ele>
      </trkpt>
      <trkpt lat="47.77844" lon="-1.87903">
        <ele>65.1</ele>
      </trkpt>
      <trkpt lat="47.77844" lon="-1.87925">
        <ele>66.8</ele>
      </trkpt>
      <trkpt lat="47.77849" lon="-1.88081">
        <ele>77.8</ele>
      </trkpt>
      <trkpt lat="47.77852" lon="-1.88101">
        <ele>79.3</ele>
      </trkpt>
      <trkpt lat="47.77862" lon="-1.88244">
        <ele>86.1</ele>
      </trkpt>
      <trkpt lat="47.77867" lon="-1.883">
        <ele>87.4</ele>
      </trkpt>
      <trkpt lat="47.77957" lon="-1.88315">
        <ele>85</ele>
      </trkpt>
      <trkpt lat="47.78014" lon="-1.88329">
        <ele>83.2</ele>
      </trkpt>
      <trkpt lat="47.7802" lon="-1.88302">
        <ele>81.8</ele>
      </trkpt>
      <trkpt lat="47.7811" lon="-1.88187">
        <ele>73.5</ele>
      </trkpt>
      <trkpt lat="47.78116" lon="-1.8818">
        <ele>73.1</ele>
      </trkpt>
      <trkpt lat="47.78145" lon="-1.88137">
        <ele>71.9</ele>
      </trkpt>
      <trkpt lat="47.78153" lon="-1.881">
        <ele>71.3</ele>
      </trkpt>
      <trkpt lat="47.78151" lon="-1.88077">
        <ele>71.4</ele>
      </trkpt>
      <trkpt lat="47.78148" lon="-1.88067">
        <ele>71.5</ele>
      </trkpt>
      <trkpt lat="47.78145" lon="-1.88059">
        <ele>71.8</ele>
      </trkpt>
      <trkpt lat="47.78144" lon="-1.8805">
        <ele>71.9</ele>
      </trkpt>
      <trkpt lat="47.7814" lon="-1.88029">
        <ele>72.1</ele>
      </trkpt>
      <trkpt lat="47.78138" lon="-1.88008">
        <ele>72.2</ele>
      </trkpt>
      <trkpt lat="47.78131" lon="-1.87987">
        <ele>73</ele>
      </trkpt>
      <trkpt lat="47.78131" lon="-1.87973">
        <ele>72.9</ele>
      </trkpt>
      <trkpt lat="47.78129" lon="-1.87964">
        <ele>73.2</ele>
      </trkpt>
      <trkpt lat="47.78128" lon="-1.87943">
        <ele>73.2</ele>
      </trkpt>
      <trkpt lat="47.78132" lon="-1.87912">
        <ele>72.1</ele>
      </trkpt>
      <trkpt lat="47.78137" lon="-1.87911">
        <ele>71.2</ele>
      </trkpt>
      <trkpt lat="47.78152" lon="-1.87914">
        <ele>69.1</ele>
      </trkpt>
      <trkpt lat="47.78168" lon="-1.87922">
        <ele>66.7</ele>
      </trkpt>
      <trkpt lat="47.78174" lon="-1.87936">
        <ele>65.4</ele>
      </trkpt>
      <trkpt lat="47.78177" lon="-1.87951">
        <ele>65</ele>
      </trkpt>
      <trkpt lat="47.78176" lon="-1.87969">
        <ele>65.6</ele>
      </trkpt>
      <trkpt lat="47.78171" lon="-1.87977">
        <ele>66.8</ele>
      </trkpt>
      <trkpt lat="47.7816" lon="-1.87982">
        <ele>68.7</ele>
      </trkpt>
      <trkpt lat="47.78157" lon="-1.87982">
        <ele>69.2</ele>
      </trkpt>
      <trkpt lat="47.78154" lon="-1.87986">
        <ele>69.7</ele>
      </trkpt>
      <trkpt lat="47.78149" lon="-1.87988">
        <ele>70.4</ele>
      </trkpt>
      <trkpt lat="47.78145" lon="-1.87993">
        <ele>71</ele>
      </trkpt>
      <trkpt lat="47.78145" lon="-1.87999">
        <ele>71.1</ele>
      </trkpt>
      <trkpt lat="47.78152" lon="-1.88">
        <ele>70.1</ele>
      </trkpt>
      <trkpt lat="47.78161" lon="-1.88005">
        <ele>68.9</ele>
      </trkpt>
      <trkpt lat="47.78164" lon="-1.88013">
        <ele>68.7</ele>
      </trkpt>
      <trkpt lat="47.78166" lon="-1.8802">
        <ele>68.6</ele>
      </trkpt>
      <trkpt lat="47.78167" lon="-1.88024">
        <ele>68.5</ele>
      </trkpt>
      <trkpt lat="47.78169" lon="-1.88031">
        <ele>68.4</ele>
      </trkpt>
      <trkpt lat="47.7817" lon="-1.88034">
        <ele>68.3</ele>
      </trkpt>
      <trkpt lat="47.7817" lon="-1.8804">
        <ele>68.3</ele>
      </trkpt>
      <trkpt lat="47.7817" lon="-1.88045">
        <ele>68.5</ele>
      </trkpt>
      <trkpt lat="47.78169" lon="-1.88052">
        <ele>68.8</ele>
      </trkpt>
      <trkpt lat="47.78175" lon="-1.88065">
        <ele>68.3</ele>
      </trkpt>
      <trkpt lat="47.78211" lon="-1.88076">
        <ele>63.2</ele>
      </trkpt>
      <trkpt lat="47.78217" lon="-1.88076">
        <ele>62.4</ele>
      </trkpt>
      <trkpt lat="47.78227" lon="-1.88074">
        <ele>60.9</ele>
      </trkpt>
      <trkpt lat="47.78231" lon="-1.88073">
        <ele>60.1</ele>
      </trkpt>
      <trkpt lat="47.78249" lon="-1.88082">
        <ele>58</ele>
      </trkpt>
      <trkpt lat="47.78253" lon="-1.88077">
        <ele>57.4</ele>
      </trkpt>
      <trkpt lat="47.78255" lon="-1.88073">
        <ele>57</ele>
      </trkpt>
      <trkpt lat="47.78253" lon="-1.8806">
        <ele>56.2</ele>
      </trkpt>
      <trkpt lat="47.78253" lon="-1.88049">
        <ele>55.4</ele>
      </trkpt>
      <trkpt lat="47.78265" lon="-1.88038">
        <ele>54.1</ele>
      </trkpt>
      <trkpt lat="47.78265" lon="-1.88025">
        <ele>53.3</ele>
      </trkpt>
      <trkpt lat="47.78267" lon="-1.88018">
        <ele>52.8</ele>
      </trkpt>
      <trkpt lat="47.78267" lon="-1.88017">
        <ele>52.6</ele>
      </trkpt>
      <trkpt lat="47.78275" lon="-1.88023">
        <ele>52.8</ele>
      </trkpt>
      <trkpt lat="47.78279" lon="-1.88023">
        <ele>52.7</ele>
      </trkpt>
      <trkpt lat="47.78291" lon="-1.8802">
        <ele>52.1</ele>
      </trkpt>
      <trkpt lat="47.78291" lon="-1.88013">
        <ele>51.7</ele>
      </trkpt>
      <trkpt lat="47.78291" lon="-1.87995">
        <ele>50.6</ele>
      </trkpt>
      <trkpt lat="47.78304" lon="-1.88001">
        <ele>50.7</ele>
      </trkpt>
      <trkpt lat="47.783" lon="-1.87987">
        <ele>49.9</ele>
      </trkpt>
      <trkpt lat="47.7833" lon="-1.87962">
        <ele>47.4</ele>
      </trkpt>
      <trkpt lat="47.78334" lon="-1.87956">
        <ele>46.9</ele>
      </trkpt>
      <trkpt lat="47.78349" lon="-1.87954">
        <ele>48.9</ele>
      </trkpt>
      <trkpt lat="47.78361" lon="-1.87944">
        <ele>50.2</ele>
      </trkpt>
      <trkpt lat="47.78366" lon="-1.87942">
        <ele>50.8</ele>
      </trkpt>
      <trkpt lat="47.78379" lon="-1.87942">
        <ele>52.9</ele>
      </trkpt>
      <trkpt lat="47.78394" lon="-1.87953">
        <ele>55.3</ele>
      </trkpt>
      <trkpt lat="47.78406" lon="-1.87958">
        <ele>57.1</ele>
      </trkpt>
      <trkpt lat="47.78404" lon="-1.87967">
        <ele>56.7</ele>
      </trkpt>
      <trkpt lat="47.78395" lon="-1.87977">
        <ele>55.7</ele>
      </trkpt>
      <trkpt lat="47.78389" lon="-1.87995">
        <ele>55.3</ele>
      </trkpt>
      <trkpt lat="47.78392" lon="-1.88006">
        <ele>55.6</ele>
      </trkpt>
      <trkpt lat="47.78399" lon="-1.88002">
        <ele>56.3</ele>
      </trkpt>
      <trkpt lat="47.78404" lon="-1.88011">
        <ele>56.7</ele>
      </trkpt>
      <trkpt lat="47.78395" lon="-1.88018">
        <ele>55.9</ele>
      </trkpt>
      <trkpt lat="47.78399" lon="-1.88025">
        <ele>56.2</ele>
      </trkpt>
      <trkpt lat="47.78414" lon="-1.8803">
        <ele>57.4</ele>
      </trkpt>
      <trkpt lat="47.78417" lon="-1.88028">
        <ele>57.7</ele>
      </trkpt>
      <trkpt lat="47.78417" lon="-1.88017">
        <ele>57.8</ele>
      </trkpt>
      <trkpt lat="47.78419" lon="-1.8801">
        <ele>57.8</ele>
      </trkpt>
      <trkpt lat="47.78423" lon="-1.88006">
        <ele>57.7</ele>
      </trkpt>
      <trkpt lat="47.78429" lon="-1.88001">
        <ele>57.6</ele>
      </trkpt>
      <trkpt lat="47.78432" lon="-1.87998">
        <ele>57.4</ele>
      </trkpt>
      <trkpt lat="47.78437" lon="-1.87998">
        <ele>57.3</ele>
      </trkpt>
      <trkpt lat="47.78439" lon="-1.87994">
        <ele>57.2</ele>
      </trkpt>
      <trkpt lat="47.7844" lon="-1.87987">
        <ele>57.2</ele>
      </trkpt>
      <trkpt lat="47.78443" lon="-1.87973">
        <ele>57.1</ele>
      </trkpt>
      <trkpt lat="47.78447" lon="-1.87965">
        <ele>56.9</ele>
      </trkpt>
      <trkpt lat="47.78449" lon="-1.87959">
        <ele>56.7</ele>
      </trkpt>
      <trkpt lat="47.78451" lon="-1.87954">
        <ele>56.6</ele>
      </trkpt>
      <trkpt lat="47.78448" lon="-1.87944">
        <ele>56.8</ele>
      </trkpt>
      <trkpt lat="47.78444" lon="-1.87941">
        <ele>57</ele>
      </trkpt>
      <trkpt lat="47.7844" lon="-1.87944">
        <ele>57.3</ele>
      </trkpt>
      <trkpt lat="47.78435" lon="-1.87945">
        <ele>57.6</ele>
      </trkpt>
      <trkpt lat="47.7843" lon="-1.87942">
        <ele>57.9</ele>
      </trkpt>
      <trkpt lat="47.78426" lon="-1.87943">
        <ele>58.1</ele>
      </trkpt>
      <trkpt lat="47.78423" lon="-1.87944">
        <ele>58.3</ele>
      </trkpt>
      <trkpt lat="47.78418" lon="-1.8794">
        <ele>58.7</ele>
      </trkpt>
      <trkpt lat="47.78415" lon="-1.87935">
        <ele>58.6</ele>
      </trkpt>
      <trkpt lat="47.78419" lon="-1.87926">
        <ele>58.7</ele>
      </trkpt>
      <trkpt lat="47.78417" lon="-1.87916">
        <ele>58.9</ele>
      </trkpt>
      <trkpt lat="47.7842" lon="-1.87912">
        <ele>58.5</ele>
      </trkpt>
      <trkpt lat="47.78424" lon="-1.87909">
        <ele>58</ele>
      </trkpt>
      <trkpt lat="47.78428" lon="-1.87905">
        <ele>57.6</ele>
      </trkpt>
      <trkpt lat="47.78433" lon="-1.87903">
        <ele>57.1</ele>
      </trkpt>
      <trkpt lat="47.78434" lon="-1.87904">
        <ele>57.1</ele>
      </trkpt>
      <trkpt lat="47.78438" lon="-1.87911">
        <ele>57.2</ele>
      </trkpt>
      <trkpt lat="47.78439" lon="-1.879">
        <ele>56.6</ele>
      </trkpt>
      <trkpt lat="47.78442" lon="-1.87883">
        <ele>55.7</ele>
      </trkpt>
      <trkpt lat="47.78442" lon="-1.87874">
        <ele>55.3</ele>
      </trkpt>
      <trkpt lat="47.78444" lon="-1.87866">
        <ele>54.8</ele>
      </trkpt>
      <trkpt lat="47.78435" lon="-1.87866">
        <ele>55.2</ele>
      </trkpt>
      <trkpt lat="47.7842" lon="-1.87874">
        <ele>56.3</ele>
      </trkpt>
      <trkpt lat="47.78413" lon="-1.87862">
        <ele>55.2</ele>
      </trkpt>
      <trkpt lat="47.78413" lon="-1.87855">
        <ele>54.7</ele>
      </trkpt>
      <trkpt lat="47.78411" lon="-1.8785">
        <ele>54.2</ele>
      </trkpt>
      <trkpt lat="47.78412" lon="-1.87841">
        <ele>53.7</ele>
      </trkpt>
      <trkpt lat="47.78406" lon="-1.87831">
        <ele>52.3</ele>
      </trkpt>
      <trkpt lat="47.78399" lon="-1.87823">
        <ele>51</ele>
      </trkpt>
      <trkpt lat="47.78397" lon="-1.87809">
        <ele>50.2</ele>
      </trkpt>
      <trkpt lat="47.78397" lon="-1.87802">
        <ele>50</ele>
      </trkpt>
      <trkpt lat="47.78397" lon="-1.87795">
        <ele>49.8</ele>
      </trkpt>
      <trkpt lat="47.78397" lon="-1.87787">
        <ele>49.6</ele>
      </trkpt>
      <trkpt lat="47.78399" lon="-1.87766">
        <ele>49.2</ele>
      </trkpt>
      <trkpt lat="47.78406" lon="-1.87742">
        <ele>49.5</ele>
      </trkpt>
      <trkpt lat="47.78406" lon="-1.87734">
        <ele>49.5</ele>
      </trkpt>
      <trkpt lat="47.78416" lon="-1.87735">
        <ele>50.7</ele>
      </trkpt>
      <trkpt lat="47.78417" lon="-1.87741">
        <ele>50.9</ele>
      </trkpt>
      <trkpt lat="47.78419" lon="-1.87747">
        <ele>50.9</ele>
      </trkpt>
      <trkpt lat="47.78426" lon="-1.87756">
        <ele>51.1</ele>
      </trkpt>
      <trkpt lat="47.7843" lon="-1.87759">
        <ele>51.1</ele>
      </trkpt>
      <trkpt lat="47.78436" lon="-1.87762">
        <ele>51.1</ele>
      </trkpt>
      <trkpt lat="47.78438" lon="-1.87767">
        <ele>51.3</ele>
      </trkpt>
      <trkpt lat="47.7844" lon="-1.87769">
        <ele>51.4</ele>
      </trkpt>
      <trkpt lat="47.78457" lon="-1.87771">
        <ele>51.1</ele>
      </trkpt>
      <trkpt lat="47.78465" lon="-1.87772">
        <ele>51.1</ele>
      </trkpt>
      <trkpt lat="47.78476" lon="-1.87765">
        <ele>50.7</ele>
      </trkpt>
      <trkpt lat="47.78477" lon="-1.87758">
        <ele>50.5</ele>
      </trkpt>
      <trkpt lat="47.7848" lon="-1.87748">
        <ele>50.2</ele>
      </trkpt>
      <trkpt lat="47.78478" lon="-1.87742">
        <ele>50.2</ele>
      </trkpt>
      <trkpt lat="47.78474" lon="-1.87736">
        <ele>50.1</ele>
      </trkpt>
      <trkpt lat="47.7847" lon="-1.87734">
        <ele>50.2</ele>
      </trkpt>
      <trkpt lat="47.78467" lon="-1.87729">
        <ele>50.2</ele>
      </trkpt>
      <trkpt lat="47.78451" lon="-1.87727">
        <ele>50.3</ele>
      </trkpt>
      <trkpt lat="47.78463" lon="-1.87722">
        <ele>50.1</ele>
      </trkpt>
      <trkpt lat="47.7846" lon="-1.87698">
        <ele>49.9</ele>
      </trkpt>
      <trkpt lat="47.78454" lon="-1.87685">
        <ele>49.8</ele>
      </trkpt>
      <trkpt lat="47.78451" lon="-1.87679">
        <ele>49.7</ele>
      </trkpt>
      <trkpt lat="47.78448" lon="-1.8767">
        <ele>49.7</ele>
      </trkpt>
      <trkpt lat="47.78446" lon="-1.8766">
        <ele>49.6</ele>
      </trkpt>
      <trkpt lat="47.78455" lon="-1.87654">
        <ele>49.3</ele>
      </trkpt>
      <trkpt lat="47.78458" lon="-1.87632">
        <ele>48.9</ele>
      </trkpt>
      <trkpt lat="47.78464" lon="-1.87636">
        <ele>48.8</ele>
      </trkpt>
      <trkpt lat="47.78473" lon="-1.8762">
        <ele>48.2</ele>
      </trkpt>
      <trkpt lat="47.78463" lon="-1.8761">
        <ele>48.3</ele>
      </trkpt>
      <trkpt lat="47.78453" lon="-1.87612">
        <ele>48.7</ele>
      </trkpt>
      <trkpt lat="47.7845" lon="-1.87608">
        <ele>48.8</ele>
      </trkpt>
      <trkpt lat="47.78443" lon="-1.87602">
        <ele>49</ele>
      </trkpt>
      <trkpt lat="47.78437" lon="-1.87601">
        <ele>49.2</ele>
      </trkpt>
      <trkpt lat="47.78431" lon="-1.87604">
        <ele>49.4</ele>
      </trkpt>
      <trkpt lat="47.78437" lon="-1.87587">
        <ele>49.1</ele>
      </trkpt>
      <trkpt lat="47.78445" lon="-1.87587">
        <ele>48.7</ele>
      </trkpt>
      <trkpt lat="47.78452" lon="-1.87569">
        <ele>48.4</ele>
      </trkpt>
      <trkpt lat="47.78462" lon="-1.87563">
        <ele>47.9</ele>
      </trkpt>
      <trkpt lat="47.78454" lon="-1.87555">
        <ele>48.3</ele>
      </trkpt>
      <trkpt lat="47.7844" lon="-1.87564">
        <ele>48.9</ele>
      </trkpt>
      <trkpt lat="47.78432" lon="-1.87549">
        <ele>49.3</ele>
      </trkpt>
      <trkpt lat="47.78422" lon="-1.87546">
        <ele>49.8</ele>
      </trkpt>
      <trkpt lat="47.78415" lon="-1.87542">
        <ele>49.8</ele>
      </trkpt>
      <trkpt lat="47.78413" lon="-1.87535">
        <ele>49.6</ele>
      </trkpt>
      <trkpt lat="47.78409" lon="-1.87498">
        <ele>49.2</ele>
      </trkpt>
      <trkpt lat="47.78409" lon="-1.87489">
        <ele>48.8</ele>
      </trkpt>
      <trkpt lat="47.78409" lon="-1.87483">
        <ele>48.6</ele>
      </trkpt>
      <trkpt lat="47.78402" lon="-1.8746">
        <ele>47.2</ele>
      </trkpt>
      <trkpt lat="47.78401" lon="-1.87448">
        <ele>46.7</ele>
      </trkpt>
      <trkpt lat="47.784" lon="-1.87441">
        <ele>46.4</ele>
      </trkpt>
      <trkpt lat="47.78394" lon="-1.874">
        <ele>44.5</ele>
      </trkpt>
      <trkpt lat="47.78395" lon="-1.87394">
        <ele>44.3</ele>
      </trkpt>
      <trkpt lat="47.78391" lon="-1.87367">
        <ele>43</ele>
      </trkpt>
      <trkpt lat="47.78389" lon="-1.87361">
        <ele>42.7</ele>
      </trkpt>
      <trkpt lat="47.78388" lon="-1.87332">
        <ele>41.5</ele>
      </trkpt>
      <trkpt lat="47.78379" lon="-1.87312">
        <ele>39.4</ele>
      </trkpt>
      <trkpt lat="47.78363" lon="-1.87307">
        <ele>38.3</ele>
      </trkpt>
      <trkpt lat="47.7835" lon="-1.87312">
        <ele>38.1</ele>
      </trkpt>
      <trkpt lat="47.78334" lon="-1.87309">
        <ele>37.3</ele>
      </trkpt>
      <trkpt lat="47.78326" lon="-1.87291">
        <ele>35.6</ele>
      </trkpt>
      <trkpt lat="47.78305" lon="-1.86892">
        <ele>28.6</ele>
      </trkpt>
      <trkpt lat="47.78309" lon="-1.86894">
        <ele>28.8</ele>
      </trkpt>
      <trkpt lat="47.78313" lon="-1.86896">
        <ele>29</ele>
      </trkpt>
      <trkpt lat="47.78317" lon="-1.86897">
        <ele>29.1</ele>
      </trkpt>
      <trkpt lat="47.78321" lon="-1.86899">
        <ele>29.3</ele>
      </trkpt>
      <trkpt lat="47.78325" lon="-1.86899">
        <ele>29.5</ele>
      </trkpt>
      <trkpt lat="47.78329" lon="-1.86898">
        <ele>29.6</ele>
      </trkpt>
      <trkpt lat="47.78333" lon="-1.86894">
        <ele>29.7</ele>
      </trkpt>
      <trkpt lat="47.78336" lon="-1.86888">
        <ele>29.7</ele>
      </trkpt>
      <trkpt lat="47.78338" lon="-1.86874">
        <ele>29.5</ele>
      </trkpt>
      <trkpt lat="47.78338" lon="-1.8687">
        <ele>29.5</ele>
      </trkpt>
      <trkpt lat="47.78338" lon="-1.86866">
        <ele>29.4</ele>
      </trkpt>
      <trkpt lat="47.78338" lon="-1.86858">
        <ele>29.3</ele>
      </trkpt>
      <trkpt lat="47.78337" lon="-1.86851">
        <ele>29.2</ele>
      </trkpt>
      <trkpt lat="47.78336" lon="-1.86842">
        <ele>29.1</ele>
      </trkpt>
      <trkpt lat="47.78335" lon="-1.86834">
        <ele>29</ele>
      </trkpt>
      <trkpt lat="47.78334" lon="-1.86827">
        <ele>28.9</ele>
      </trkpt>
      <trkpt lat="47.78334" lon="-1.86819">
        <ele>28.8</ele>
      </trkpt>
      <trkpt lat="47.78333" lon="-1.86811">
        <ele>28.7</ele>
      </trkpt>
      <trkpt lat="47.78333" lon="-1.86803">
        <ele>28.6</ele>
      </trkpt>
      <trkpt lat="47.78332" lon="-1.86796">
        <ele>28.5</ele>
      </trkpt>
      <trkpt lat="47.78332" lon="-1.86789">
        <ele>28.4</ele>
      </trkpt>
      <trkpt lat="47.78332" lon="-1.86781">
        <ele>28.3</ele>
      </trkpt>
      <trkpt lat="47.78331" lon="-1.86774">
        <ele>28.2</ele>
      </trkpt>
      <trkpt lat="47.78331" lon="-1.86767">
        <ele>28.1</ele>
      </trkpt>
      <trkpt lat="47.7833" lon="-1.8676">
        <ele>28</ele>
      </trkpt>
      <trkpt lat="47.7833" lon="-1.86753">
        <ele>28</ele>
      </trkpt>
      <trkpt lat="47.7833" lon="-1.86746">
        <ele>28</ele>
      </trkpt>
      <trkpt lat="47.7833" lon="-1.86739">
        <ele>28.1</ele>
      </trkpt>
      <trkpt lat="47.78329" lon="-1.86733">
        <ele>28.2</ele>
      </trkpt>
      <trkpt lat="47.78329" lon="-1.86727">
        <ele>28.2</ele>
      </trkpt>
      <trkpt lat="47.78329" lon="-1.86722">
        <ele>28.3</ele>
      </trkpt>
      <trkpt lat="47.78329" lon="-1.86719">
        <ele>28.4</ele>
      </trkpt>
      <trkpt lat="47.78329" lon="-1.86716">
        <ele>28.4</ele>
      </trkpt>
      <trkpt lat="47.78329" lon="-1.86715">
        <ele>28.4</ele>
      </trkpt>
      <trkpt lat="47.78329" lon="-1.86715">
        <ele>28.4</ele>
      </trkpt>
      <trkpt lat="47.7833" lon="-1.86715">
        <ele>28.4</ele>
      </trkpt>
      <trkpt lat="47.7833" lon="-1.86715">
        <ele>28.4</ele>
      </trkpt>
      <trkpt lat="47.7833" lon="-1.86715">
        <ele>28.4</ele>
      </trkpt>
      <trkpt lat="47.7833" lon="-1.86715">
        <ele>28.4</ele>
      </trkpt>
      <trkpt lat="47.7833" lon="-1.86715">
        <ele>28.4</ele>
      </trkpt>
      <trkpt lat="47.7833" lon="-1.86715">
        <ele>28.4</ele>
      </trkpt>
      <trkpt lat="47.7833" lon="-1.86715">
        <ele>28.4</ele>
      </trkpt>
      <trkpt lat="47.7833" lon="-1.86715">
        <ele>28.4</ele>
      </trkpt>
      <trkpt lat="47.7833" lon="-1.86715">
        <ele>28.4</ele>
      </trkpt>
      <trkpt lat="47.7833" lon="-1.86715">
        <ele>28.4</ele>
      </trkpt>
      <trkpt lat="47.7833" lon="-1.86715">
        <ele>28.4</ele>
      </trkpt>
      <trkpt lat="47.7833" lon="-1.86715">
        <ele>28.4</ele>
      </trkpt>
      <trkpt lat="47.7833" lon="-1.86715">
        <ele>28.4</ele>
      </trkpt>
      <trkpt lat="47.7833" lon="-1.86715">
        <ele>28.4</ele>
      </trkpt>
      <trkpt lat="47.7833" lon="-1.86715">
        <ele>28.4</ele>
      </trkpt>
      <trkpt lat="47.7833" lon="-1.86715">
        <ele>28.4</ele>
      </trkpt>
      <trkpt lat="47.7833" lon="-1.86715">
        <ele>28.4</ele>
      </trkpt>
      <trkpt lat="47.7833" lon="-1.86715">
        <ele>28.4</ele>
      </trkpt>
      <trkpt lat="47.7833" lon="-1.86715">
        <ele>28.4</ele>
      </trkpt>
      <trkpt lat="47.7833" lon="-1.86715">
        <ele>28.4</ele>
      </trkpt>
      <trkpt lat="47.7833" lon="-1.86714">
        <ele>28.4</ele>
      </trkpt>
      <trkpt lat="47.7833" lon="-1.8671">
        <ele>28.5</ele>
      </trkpt>
      <trkpt lat="47.7833" lon="-1.86706">
        <ele>28.6</ele>
      </trkpt>
      <trkpt lat="47.7833" lon="-1.867">
        <ele>28.6</ele>
      </trkpt>
      <trkpt lat="47.7833" lon="-1.86696">
        <ele>28.7</ele>
      </trkpt>
      <trkpt lat="47.7833" lon="-1.86692">
        <ele>28.8</ele>
      </trkpt>
      <trkpt lat="47.7833" lon="-1.86688">
        <ele>28.8</ele>
      </trkpt>
      <trkpt lat="47.78329" lon="-1.86683">
        <ele>28.9</ele>
      </trkpt>
      <trkpt lat="47.78329" lon="-1.86679">
        <ele>29</ele>
      </trkpt>
      <trkpt lat="47.78328" lon="-1.86674">
        <ele>29.1</ele>
      </trkpt>
      <trkpt lat="47.78327" lon="-1.86669">
        <ele>29.2</ele>
      </trkpt>
      <trkpt lat="47.78327" lon="-1.86664">
        <ele>29.3</ele>
      </trkpt>
      <trkpt lat="47.78326" lon="-1.86658">
        <ele>29.6</ele>
      </trkpt>
      <trkpt lat="47.78326" lon="-1.86652">
        <ele>29.8</ele>
      </trkpt>
      <trkpt lat="47.78325" lon="-1.86646">
        <ele>30.1</ele>
      </trkpt>
      <trkpt lat="47.78324" lon="-1.8664">
        <ele>30.4</ele>
      </trkpt>
      <trkpt lat="47.78323" lon="-1.86633">
        <ele>30.7</ele>
      </trkpt>
      <trkpt lat="47.78322" lon="-1.86627">
        <ele>31</ele>
      </trkpt>
      <trkpt lat="47.78321" lon="-1.86621">
        <ele>31.3</ele>
      </trkpt>
      <trkpt lat="47.7832" lon="-1.86614">
        <ele>31.6</ele>
      </trkpt>
      <trkpt lat="47.7832" lon="-1.86608">
        <ele>31.9</ele>
      </trkpt>
      <trkpt lat="47.78319" lon="-1.86601">
        <ele>32.2</ele>
      </trkpt>
      <trkpt lat="47.78318" lon="-1.86596">
        <ele>32.4</ele>
      </trkpt>
      <trkpt lat="47.78317" lon="-1.8659">
        <ele>32.7</ele>
      </trkpt>
      <trkpt lat="47.78317" lon="-1.86583">
        <ele>33</ele>
      </trkpt>
      <trkpt lat="47.78317" lon="-1.86577">
        <ele>33.3</ele>
      </trkpt>
      <trkpt lat="47.78314" lon="-1.86571">
        <ele>33.7</ele>
      </trkpt>
      <trkpt lat="47.78304" lon="-1.86572">
        <ele>34.2</ele>
      </trkpt>
      <trkpt lat="47.78293" lon="-1.86572">
        <ele>34.8</ele>
      </trkpt>
      <trkpt lat="47.78281" lon="-1.86573">
        <ele>35.5</ele>
      </trkpt>
      <trkpt lat="47.78279" lon="-1.86573">
        <ele>35.6</ele>
      </trkpt>
      <trkpt lat="47.78266" lon="-1.86574">
        <ele>36.3</ele>
      </trkpt>
      <trkpt lat="47.78259" lon="-1.8657">
        <ele>36.8</ele>
      </trkpt>
      <trkpt lat="47.78252" lon="-1.86565">
        <ele>37.3</ele>
      </trkpt>
      <trkpt lat="47.78252" lon="-1.86563">
        <ele>37.4</ele>
      </trkpt>
      <trkpt lat="47.7825" lon="-1.86553">
        <ele>37.7</ele>
      </trkpt>
      <trkpt lat="47.78252" lon="-1.86551">
        <ele>37.7</ele>
      </trkpt>
      <trkpt lat="47.78261" lon="-1.86551">
        <ele>37.2</ele>
      </trkpt>
      <trkpt lat="47.78262" lon="-1.86543">
        <ele>37.4</ele>
      </trkpt>
      <trkpt lat="47.78265" lon="-1.86532">
        <ele>37.6</ele>
      </trkpt>
      <trkpt lat="47.78267" lon="-1.8652">
        <ele>37.8</ele>
      </trkpt>
      <trkpt lat="47.78263" lon="-1.86515">
        <ele>38.1</ele>
      </trkpt>
      <trkpt lat="47.78259" lon="-1.86513">
        <ele>38.3</ele>
      </trkpt>
      <trkpt lat="47.78254" lon="-1.86516">
        <ele>38.5</ele>
      </trkpt>
      <trkpt lat="47.78249" lon="-1.86519">
        <ele>38.5</ele>
      </trkpt>
      <trkpt lat="47.78247" lon="-1.86523">
        <ele>38.2</ele>
      </trkpt>
      <trkpt lat="47.78245" lon="-1.86526">
        <ele>38</ele>
      </trkpt>
      <trkpt lat="47.78241" lon="-1.86527">
        <ele>37.6</ele>
      </trkpt>
      <trkpt lat="47.78238" lon="-1.86525">
        <ele>37.4</ele>
      </trkpt>
      <trkpt lat="47.78238" lon="-1.86523">
        <ele>37.4</ele>
      </trkpt>
      <trkpt lat="47.78238" lon="-1.86516">
        <ele>37.6</ele>
      </trkpt>
      <trkpt lat="47.7824" lon="-1.86511">
        <ele>37.8</ele>
      </trkpt>
      <trkpt lat="47.78238" lon="-1.865">
        <ele>37.9</ele>
      </trkpt>
      <trkpt lat="47.78228" lon="-1.86499">
        <ele>36.8</ele>
      </trkpt>
      <trkpt lat="47.78221" lon="-1.86499">
        <ele>36.2</ele>
      </trkpt>
      <trkpt lat="47.78216" lon="-1.86497">
        <ele>35.5</ele>
      </trkpt>
      <trkpt lat="47.78218" lon="-1.86489">
        <ele>34.9</ele>
      </trkpt>
      <trkpt lat="47.78232" lon="-1.86486">
        <ele>35.9</ele>
      </trkpt>
      <trkpt lat="47.78244" lon="-1.86482">
        <ele>36.6</ele>
      </trkpt>
      <trkpt lat="47.78254" lon="-1.8648">
        <ele>36.7</ele>
      </trkpt>
      <trkpt lat="47.78254" lon="-1.86477">
        <ele>36.4</ele>
      </trkpt>
      <trkpt lat="47.78253" lon="-1.86466">
        <ele>35.3</ele>
      </trkpt>
      <trkpt lat="47.78241" lon="-1.86466">
        <ele>34.6</ele>
      </trkpt>
      <trkpt lat="47.78239" lon="-1.86465">
        <ele>34.4</ele>
      </trkpt>
      <trkpt lat="47.78233" lon="-1.86464">
        <ele>33.9</ele>
      </trkpt>
      <trkpt lat="47.78226" lon="-1.86469">
        <ele>33.8</ele>
      </trkpt>
      <trkpt lat="47.78222" lon="-1.86472">
        <ele>33.7</ele>
      </trkpt>
      <trkpt lat="47.78215" lon="-1.86463">
        <ele>32.4</ele>
      </trkpt>
      <trkpt lat="47.78214" lon="-1.86461">
        <ele>32.1</ele>
      </trkpt>
      <trkpt lat="47.78211" lon="-1.86457">
        <ele>31.5</ele>
      </trkpt>
      <trkpt lat="47.78202" lon="-1.86456">
        <ele>30.9</ele>
      </trkpt>
      <trkpt lat="47.78196" lon="-1.86456">
        <ele>30.5</ele>
      </trkpt>
      <trkpt lat="47.78194" lon="-1.86456">
        <ele>30.3</ele>
      </trkpt>
      <trkpt lat="47.78191" lon="-1.86454">
        <ele>29.9</ele>
      </trkpt>
      <trkpt lat="47.78194" lon="-1.86447">
        <ele>29.6</ele>
      </trkpt>
      <trkpt lat="47.78196" lon="-1.86442">
        <ele>29.4</ele>
      </trkpt>
      <trkpt lat="47.78198" lon="-1.86443">
        <ele>29.6</ele>
      </trkpt>
      <trkpt lat="47.78206" lon="-1.86445">
        <ele>30.2</ele>
      </trkpt>
      <trkpt lat="47.78207" lon="-1.86446">
        <ele>30.4</ele>
      </trkpt>
      <trkpt lat="47.78211" lon="-1.86449">
        <ele>30.9</ele>
      </trkpt>
      <trkpt lat="47.7822" lon="-1.86443">
        <ele>31</ele>
      </trkpt>
      <trkpt lat="47.78228" lon="-1.86439">
        <ele>31.1</ele>
      </trkpt>
      <trkpt lat="47.7823" lon="-1.86441">
        <ele>31.4</ele>
      </trkpt>
      <trkpt lat="47.78236" lon="-1.86444">
        <ele>32.1</ele>
      </trkpt>
      <trkpt lat="47.78238" lon="-1.86446">
        <ele>32.3</ele>
      </trkpt>
      <trkpt lat="47.7824" lon="-1.86445">
        <ele>32.5</ele>
      </trkpt>
      <trkpt lat="47.7825" lon="-1.86439">
        <ele>32.4</ele>
      </trkpt>
      <trkpt lat="47.78257" lon="-1.86444">
        <ele>32.9</ele>
      </trkpt>
      <trkpt lat="47.78257" lon="-1.86447">
        <ele>33.2</ele>
      </trkpt>
      <trkpt lat="47.78257" lon="-1.86452">
        <ele>33.7</ele>
      </trkpt>
      <trkpt lat="47.78265" lon="-1.86452">
        <ele>33.6</ele>
      </trkpt>
      <trkpt lat="47.78266" lon="-1.86447">
        <ele>33.1</ele>
      </trkpt>
      <trkpt lat="47.78266" lon="-1.86438">
        <ele>32.2</ele>
      </trkpt>
      <trkpt lat="47.7826" lon="-1.8643">
        <ele>31.4</ele>
      </trkpt>
      <trkpt lat="47.78254" lon="-1.86422">
        <ele>30.6</ele>
      </trkpt>
      <trkpt lat="47.78252" lon="-1.86422">
        <ele>30.6</ele>
      </trkpt>
      <trkpt lat="47.78244" lon="-1.8642">
        <ele>30</ele>
      </trkpt>
      <trkpt lat="47.78242" lon="-1.8642">
        <ele>29.9</ele>
      </trkpt>
      <trkpt lat="47.78233" lon="-1.86422">
        <ele>29.7</ele>
      </trkpt>
      <trkpt lat="47.78224" lon="-1.86422">
        <ele>29.3</ele>
      </trkpt>
      <trkpt lat="47.78217" lon="-1.8642">
        <ele>28.7</ele>
      </trkpt>
      <trkpt lat="47.78216" lon="-1.86414">
        <ele>28.2</ele>
      </trkpt>
      <trkpt lat="47.78218" lon="-1.86413">
        <ele>28.2</ele>
      </trkpt>
      <trkpt lat="47.7822" lon="-1.86412">
        <ele>28.2</ele>
      </trkpt>
      <trkpt lat="47.78222" lon="-1.86412">
        <ele>28.3</ele>
      </trkpt>
      <trkpt lat="47.78228" lon="-1.86411">
        <ele>28.5</ele>
      </trkpt>
      <trkpt lat="47.78239" lon="-1.86404">
        <ele>28.3</ele>
      </trkpt>
      <trkpt lat="47.7825" lon="-1.86406">
        <ele>29</ele>
      </trkpt>
      <trkpt lat="47.78252" lon="-1.86406">
        <ele>29</ele>
      </trkpt>
      <trkpt lat="47.7826" lon="-1.8641">
        <ele>29.4</ele>
      </trkpt>
      <trkpt lat="47.78271" lon="-1.86417">
        <ele>30</ele>
      </trkpt>
      <trkpt lat="47.7828" lon="-1.86418">
        <ele>30.1</ele>
      </trkpt>
      <trkpt lat="47.78286" lon="-1.86417">
        <ele>30.1</ele>
      </trkpt>
      <trkpt lat="47.78297" lon="-1.86424">
        <ele>30.7</ele>
      </trkpt>
      <trkpt lat="47.78294" lon="-1.86432">
        <ele>31.4</ele>
      </trkpt>
      <trkpt lat="47.78289" lon="-1.86439">
        <ele>32.1</ele>
      </trkpt>
      <trkpt lat="47.78295" lon="-1.86446">
        <ele>32.6</ele>
      </trkpt>
      <trkpt lat="47.78295" lon="-1.86449">
        <ele>32.8</ele>
      </trkpt>
      <trkpt lat="47.783" lon="-1.86458">
        <ele>33.5</ele>
      </trkpt>
      <trkpt lat="47.78298" lon="-1.86471">
        <ele>34.8</ele>
      </trkpt>
      <trkpt lat="47.78304" lon="-1.8648">
        <ele>35.4</ele>
      </trkpt>
      <trkpt lat="47.78311" lon="-1.86477">
        <ele>34.9</ele>
      </trkpt>
      <trkpt lat="47.78312" lon="-1.86469">
        <ele>34.2</ele>
      </trkpt>
      <trkpt lat="47.78315" lon="-1.8647">
        <ele>34.3</ele>
      </trkpt>
      <trkpt lat="47.78323" lon="-1.86472">
        <ele>34.2</ele>
      </trkpt>
      <trkpt lat="47.78324" lon="-1.86475">
        <ele>34.4</ele>
      </trkpt>
      <trkpt lat="47.78327" lon="-1.8648">
        <ele>34.7</ele>
      </trkpt>
      <trkpt lat="47.78339" lon="-1.86484">
        <ele>34.3</ele>
      </trkpt>
      <trkpt lat="47.78345" lon="-1.86486">
        <ele>33.8</ele>
      </trkpt>
      <trkpt lat="47.78359" lon="-1.86484">
        <ele>32.2</ele>
      </trkpt>
      <trkpt lat="47.78373" lon="-1.86479">
        <ele>30.3</ele>
      </trkpt>
      <trkpt lat="47.78385" lon="-1.86474">
        <ele>28.7</ele>
      </trkpt>
      <trkpt lat="47.78394" lon="-1.86471">
        <ele>27.6</ele>
      </trkpt>
      <trkpt lat="47.784" lon="-1.86481">
        <ele>27.6</ele>
      </trkpt>
      <trkpt lat="47.78409" lon="-1.86478">
        <ele>26.5</ele>
      </trkpt>
      <trkpt lat="47.7842" lon="-1.86489">
        <ele>26.1</ele>
      </trkpt>
      <trkpt lat="47.78431" lon="-1.86489">
        <ele>25.4</ele>
      </trkpt>
      <trkpt lat="47.78438" lon="-1.86497">
        <ele>25.3</ele>
      </trkpt>
      <trkpt lat="47.78449" lon="-1.86499">
        <ele>24.6</ele>
      </trkpt>
      <trkpt lat="47.78454" lon="-1.86499">
        <ele>24.3</ele>
      </trkpt>
      <trkpt lat="47.7846" lon="-1.86503">
        <ele>23.8</ele>
      </trkpt>
      <trkpt lat="47.78463" lon="-1.86506">
        <ele>23.6</ele>
      </trkpt>
      <trkpt lat="47.78465" lon="-1.86512">
        <ele>23.3</ele>
      </trkpt>
      <trkpt lat="47.78469" lon="-1.86527">
        <ele>22.9</ele>
      </trkpt>
      <trkpt lat="47.7847" lon="-1.86514">
        <ele>22.9</ele>
      </trkpt>
      <trkpt lat="47.78471" lon="-1.86514">
        <ele>22.9</ele>
      </trkpt>
      <trkpt lat="47.78472" lon="-1.86514">
        <ele>22.8</ele>
      </trkpt>
      <trkpt lat="47.78472" lon="-1.86514">
        <ele>22.8</ele>
      </trkpt>
      <trkpt lat="47.78472" lon="-1.8651">
        <ele>22.9</ele>
      </trkpt>
      <trkpt lat="47.78473" lon="-1.86506">
        <ele>22.9</ele>
      </trkpt>
      <trkpt lat="47.78473" lon="-1.86502">
        <ele>23</ele>
      </trkpt>
      <trkpt lat="47.78473" lon="-1.86495">
        <ele>22.8</ele>
      </trkpt>
      <trkpt lat="47.78473" lon="-1.86488">
        <ele>22.5</ele>
      </trkpt>
      <trkpt lat="47.78474" lon="-1.8648">
        <ele>22.2</ele>
      </trkpt>
      <trkpt lat="47.78474" lon="-1.86475">
        <ele>22</ele>
      </trkpt>
      <trkpt lat="47.78475" lon="-1.86469">
        <ele>21.7</ele>
      </trkpt>
      <trkpt lat="47.78476" lon="-1.8646">
        <ele>21.4</ele>
      </trkpt>
      <trkpt lat="47.78476" lon="-1.86453">
        <ele>21.1</ele>
      </trkpt>
      <trkpt lat="47.78476" lon="-1.86446">
        <ele>20.9</ele>
      </trkpt>
      <trkpt lat="47.78476" lon="-1.8644">
        <ele>20.7</ele>
      </trkpt>
      <trkpt lat="47.78477" lon="-1.86433">
        <ele>20.4</ele>
      </trkpt>
      <trkpt lat="47.78477" lon="-1.86425">
        <ele>20.1</ele>
      </trkpt>
      <trkpt lat="47.78478" lon="-1.86417">
        <ele>19.8</ele>
      </trkpt>
      <trkpt lat="47.78479" lon="-1.86409">
        <ele>19.6</ele>
      </trkpt>
      <trkpt lat="47.78479" lon="-1.86402">
        <ele>19.5</ele>
      </trkpt>
      <trkpt lat="47.78479" lon="-1.86394">
        <ele>19.3</ele>
      </trkpt>
      <trkpt lat="47.7848" lon="-1.86384">
        <ele>19.1</ele>
      </trkpt>
      <trkpt lat="47.78481" lon="-1.86376">
        <ele>19</ele>
      </trkpt>
      <trkpt lat="47.78481" lon="-1.86368">
        <ele>18.8</ele>
      </trkpt>
      <trkpt lat="47.78481" lon="-1.86361">
        <ele>18.7</ele>
      </trkpt>
      <trkpt lat="47.78482" lon="-1.86353">
        <ele>18.6</ele>
      </trkpt>
      <trkpt lat="47.78482" lon="-1.86343">
        <ele>18.4</ele>
      </trkpt>
      <trkpt lat="47.78482" lon="-1.86335">
        <ele>18.2</ele>
      </trkpt>
      <trkpt lat="47.78483" lon="-1.86329">
        <ele>18.2</ele>
      </trkpt>
      <trkpt lat="47.78483" lon="-1.86321">
        <ele>18.2</ele>
      </trkpt>
      <trkpt lat="47.78483" lon="-1.86313">
        <ele>18.2</ele>
      </trkpt>
      <trkpt lat="47.78484" lon="-1.86303">
        <ele>18.2</ele>
      </trkpt>
      <trkpt lat="47.78484" lon="-1.86295">
        <ele>18.2</ele>
      </trkpt>
      <trkpt lat="47.78484" lon="-1.86288">
        <ele>18.2</ele>
      </trkpt>
      <trkpt lat="47.78484" lon="-1.86279">
        <ele>18.2</ele>
      </trkpt>
      <trkpt lat="47.78485" lon="-1.86269">
        <ele>18.2</ele>
      </trkpt>
      <trkpt lat="47.78485" lon="-1.86261">
        <ele>18.2</ele>
      </trkpt>
      <trkpt lat="47.78485" lon="-1.86252">
        <ele>18.2</ele>
      </trkpt>
      <trkpt lat="47.78484" lon="-1.86243">
        <ele>18.2</ele>
      </trkpt>
      <trkpt lat="47.78485" lon="-1.86236">
        <ele>18.2</ele>
      </trkpt>
      <trkpt lat="47.78485" lon="-1.86226">
        <ele>18.1</ele>
      </trkpt>
      <trkpt lat="47.78485" lon="-1.86217">
        <ele>18.1</ele>
      </trkpt>
      <trkpt lat="47.78485" lon="-1.86209">
        <ele>18.1</ele>
      </trkpt>
      <trkpt lat="47.78485" lon="-1.86202">
        <ele>18.1</ele>
      </trkpt>
      <trkpt lat="47.78486" lon="-1.86193">
        <ele>18.1</ele>
      </trkpt>
      <trkpt lat="47.78486" lon="-1.86184">
        <ele>18</ele>
      </trkpt>
      <trkpt lat="47.78486" lon="-1.86173">
        <ele>18</ele>
      </trkpt>
      <trkpt lat="47.78486" lon="-1.86165">
        <ele>18</ele>
      </trkpt>
      <trkpt lat="47.78487" lon="-1.86156">
        <ele>17.9</ele>
      </trkpt>
      <trkpt lat="47.78487" lon="-1.86148">
        <ele>17.8</ele>
      </trkpt>
      <trkpt lat="47.78487" lon="-1.8614">
        <ele>17.7</ele>
      </trkpt>
      <trkpt lat="47.78488" lon="-1.86132">
        <ele>17.6</ele>
      </trkpt>
      <trkpt lat="47.78488" lon="-1.86122">
        <ele>17.5</ele>
      </trkpt>
      <trkpt lat="47.78489" lon="-1.86113">
        <ele>17.4</ele>
      </trkpt>
      <trkpt lat="47.7849" lon="-1.86107">
        <ele>17.4</ele>
      </trkpt>
      <trkpt lat="47.78492" lon="-1.86099">
        <ele>17.3</ele>
      </trkpt>
      <trkpt lat="47.78494" lon="-1.86092">
        <ele>17.2</ele>
      </trkpt>
      <trkpt lat="47.78499" lon="-1.86086">
        <ele>17</ele>
      </trkpt>
      <trkpt lat="47.78504" lon="-1.86082">
        <ele>17.1</ele>
      </trkpt>
      <trkpt lat="47.78509" lon="-1.8608">
        <ele>17.2</ele>
      </trkpt>
      <trkpt lat="47.78513" lon="-1.8608">
        <ele>17.3</ele>
      </trkpt>
      <trkpt lat="47.78517" lon="-1.8608">
        <ele>17.4</ele>
      </trkpt>
      <trkpt lat="47.78527" lon="-1.86081">
        <ele>17.6</ele>
      </trkpt>
      <trkpt lat="47.78529" lon="-1.86082">
        <ele>17.7</ele>
      </trkpt>
      <trkpt lat="47.78531" lon="-1.86082">
        <ele>17.7</ele>
      </trkpt>
      <trkpt lat="47.78535" lon="-1.86083">
        <ele>17.8</ele>
      </trkpt>
      <trkpt lat="47.7854" lon="-1.86084">
        <ele>18</ele>
      </trkpt>
      <trkpt lat="47.78547" lon="-1.86085">
        <ele>18.1</ele>
      </trkpt>
      <trkpt lat="47.78552" lon="-1.86086">
        <ele>18.2</ele>
      </trkpt>
      <trkpt lat="47.78557" lon="-1.86087">
        <ele>18.4</ele>
      </trkpt>
      <trkpt lat="47.78562" lon="-1.86087">
        <ele>18.5</ele>
      </trkpt>
      <trkpt lat="47.78566" lon="-1.86088">
        <ele>18.6</ele>
      </trkpt>
      <trkpt lat="47.78571" lon="-1.86089">
        <ele>18.6</ele>
      </trkpt>
      <trkpt lat="47.78576" lon="-1.8609">
        <ele>18.8</ele>
      </trkpt>
      <trkpt lat="47.78581" lon="-1.86091">
        <ele>18.9</ele>
      </trkpt>
      <trkpt lat="47.78586" lon="-1.86092">
        <ele>19</ele>
      </trkpt>
      <trkpt lat="47.7859" lon="-1.86092">
        <ele>19.1</ele>
      </trkpt>
      <trkpt lat="47.78594" lon="-1.86092">
        <ele>19.3</ele>
      </trkpt>
      <trkpt lat="47.78599" lon="-1.86092">
        <ele>19.5</ele>
      </trkpt>
      <trkpt lat="47.78603" lon="-1.8609">
        <ele>19.6</ele>
      </trkpt>
      <trkpt lat="47.78608" lon="-1.86089">
        <ele>19.8</ele>
      </trkpt>
      <trkpt lat="47.78612" lon="-1.86085">
        <ele>20</ele>
      </trkpt>
      <trkpt lat="47.78615" lon="-1.8608">
        <ele>20</ele>
      </trkpt>
      <trkpt lat="47.78616" lon="-1.86073">
        <ele>20</ele>
      </trkpt>
      <trkpt lat="47.78618" lon="-1.86066">
        <ele>19.9</ele>
      </trkpt>
      <trkpt lat="47.78618" lon="-1.86059">
        <ele>19.8</ele>
      </trkpt>
      <trkpt lat="47.78619" lon="-1.86052">
        <ele>19.6</ele>
      </trkpt>
      <trkpt lat="47.78619" lon="-1.86044">
        <ele>19.5</ele>
      </trkpt>
      <trkpt lat="47.78619" lon="-1.86037">
        <ele>19.3</ele>
      </trkpt>
      <trkpt lat="47.7862" lon="-1.86029">
        <ele>19.2</ele>
      </trkpt>
      <trkpt lat="47.7862" lon="-1.86021">
        <ele>19.1</ele>
      </trkpt>
      <trkpt lat="47.7862" lon="-1.86014">
        <ele>18.9</ele>
      </trkpt>
      <trkpt lat="47.7862" lon="-1.86006">
        <ele>18.8</ele>
      </trkpt>
      <trkpt lat="47.7862" lon="-1.85998">
        <ele>18.6</ele>
      </trkpt>
      <trkpt lat="47.7862" lon="-1.8599">
        <ele>18.6</ele>
      </trkpt>
      <trkpt lat="47.7862" lon="-1.85982">
        <ele>18.5</ele>
      </trkpt>
      <trkpt lat="47.7862" lon="-1.85974">
        <ele>18.5</ele>
      </trkpt>
      <trkpt lat="47.7862" lon="-1.85967">
        <ele>18.5</ele>
      </trkpt>
      <trkpt lat="47.78621" lon="-1.85959">
        <ele>18.5</ele>
      </trkpt>
      <trkpt lat="47.78621" lon="-1.85951">
        <ele>18.4</ele>
      </trkpt>
      <trkpt lat="47.78621" lon="-1.85944">
        <ele>18.4</ele>
      </trkpt>
      <trkpt lat="47.78621" lon="-1.85936">
        <ele>18.4</ele>
      </trkpt>
      <trkpt lat="47.78622" lon="-1.85928">
        <ele>18.4</ele>
      </trkpt>
      <trkpt lat="47.78622" lon="-1.85921">
        <ele>18.3</ele>
      </trkpt>
      <trkpt lat="47.78622" lon="-1.85913">
        <ele>18.3</ele>
      </trkpt>
      <trkpt lat="47.78622" lon="-1.85906">
        <ele>18.3</ele>
      </trkpt>
      <trkpt lat="47.78622" lon="-1.85898">
        <ele>18.4</ele>
      </trkpt>
      <trkpt lat="47.78623" lon="-1.85891">
        <ele>18.4</ele>
      </trkpt>
      <trkpt lat="47.78624" lon="-1.85884">
        <ele>18.4</ele>
      </trkpt>
      <trkpt lat="47.78624" lon="-1.85877">
        <ele>18.4</ele>
      </trkpt>
      <trkpt lat="47.78624" lon="-1.8587">
        <ele>18.4</ele>
      </trkpt>
      <trkpt lat="47.78624" lon="-1.85863">
        <ele>18.5</ele>
      </trkpt>
      <trkpt lat="47.78625" lon="-1.85856">
        <ele>18.5</ele>
      </trkpt>
      <trkpt lat="47.78625" lon="-1.85849">
        <ele>18.5</ele>
      </trkpt>
      <trkpt lat="47.78626" lon="-1.85843">
        <ele>18.5</ele>
      </trkpt>
      <trkpt lat="47.78626" lon="-1.85836">
        <ele>18.5</ele>
      </trkpt>
      <trkpt lat="47.78626" lon="-1.8583">
        <ele>18.5</ele>
      </trkpt>
      <trkpt lat="47.78626" lon="-1.85824">
        <ele>18.5</ele>
      </trkpt>
      <trkpt lat="47.78626" lon="-1.85819">
        <ele>18.5</ele>
      </trkpt>
      <trkpt lat="47.78626" lon="-1.85814">
        <ele>18.5</ele>
      </trkpt>
      <trkpt lat="47.78626" lon="-1.8581">
        <ele>18.5</ele>
      </trkpt>
      <trkpt lat="47.78626" lon="-1.85805">
        <ele>18.5</ele>
      </trkpt>
      <trkpt lat="47.78626" lon="-1.858">
        <ele>18.5</ele>
      </trkpt>
      <trkpt lat="47.78626" lon="-1.85794">
        <ele>18.5</ele>
      </trkpt>
      <trkpt lat="47.78626" lon="-1.85785">
        <ele>18.5</ele>
      </trkpt>
      <trkpt lat="47.78626" lon="-1.85785">
        <ele>18.5</ele>
      </trkpt>
      <trkpt lat="47.78626" lon="-1.8578">
        <ele>18.5</ele>
      </trkpt>
      <trkpt lat="47.78627" lon="-1.85775">
        <ele>18.5</ele>
      </trkpt>
      <trkpt lat="47.78628" lon="-1.8577">
        <ele>18.5</ele>
      </trkpt>
      <trkpt lat="47.78628" lon="-1.85765">
        <ele>18.5</ele>
      </trkpt>
      <trkpt lat="47.78628" lon="-1.85759">
        <ele>18.5</ele>
      </trkpt>
      <trkpt lat="47.78628" lon="-1.85754">
        <ele>18.5</ele>
      </trkpt>
      <trkpt lat="47.78628" lon="-1.8575">
        <ele>18.5</ele>
      </trkpt>
      <trkpt lat="47.78628" lon="-1.85746">
        <ele>18.6</ele>
      </trkpt>
      <trkpt lat="47.78627" lon="-1.85742">
        <ele>18.7</ele>
      </trkpt>
      <trkpt lat="47.78626" lon="-1.85739">
        <ele>18.8</ele>
      </trkpt>
      <trkpt lat="47.78624" lon="-1.85738">
        <ele>18.8</ele>
      </trkpt>
      <trkpt lat="47.78622" lon="-1.85738">
        <ele>18.8</ele>
      </trkpt>
      <trkpt lat="47.78619" lon="-1.85738">
        <ele>18.7</ele>
      </trkpt>
      <trkpt lat="47.78616" lon="-1.85738">
        <ele>18.7</ele>
      </trkpt>
      <trkpt lat="47.78612" lon="-1.85738">
        <ele>18.6</ele>
      </trkpt>
      <trkpt lat="47.78606" lon="-1.85738">
        <ele>18.6</ele>
      </trkpt>
      <trkpt lat="47.786" lon="-1.85738">
        <ele>18.5</ele>
      </trkpt>
      <trkpt lat="47.78593" lon="-1.85738">
        <ele>18.4</ele>
      </trkpt>
      <trkpt lat="47.78586" lon="-1.85738">
        <ele>18.3</ele>
      </trkpt>
      <trkpt lat="47.78578" lon="-1.85737">
        <ele>18.2</ele>
      </trkpt>
      <trkpt lat="47.7857" lon="-1.85735">
        <ele>18.2</ele>
      </trkpt>
      <trkpt lat="47.78563" lon="-1.85734">
        <ele>18.1</ele>
      </trkpt>
      <trkpt lat="47.78555" lon="-1.85733">
        <ele>18</ele>
      </trkpt>
      <trkpt lat="47.78548" lon="-1.85731">
        <ele>18</ele>
      </trkpt>
      <trkpt lat="47.78542" lon="-1.85731">
        <ele>17.9</ele>
      </trkpt>
      <trkpt lat="47.78536" lon="-1.8573">
        <ele>17.9</ele>
      </trkpt>
      <trkpt lat="47.78529" lon="-1.85729">
        <ele>17.9</ele>
      </trkpt>
      <trkpt lat="47.78523" lon="-1.85727">
        <ele>17.9</ele>
      </trkpt>
      <trkpt lat="47.78516" lon="-1.85726">
        <ele>17.9</ele>
      </trkpt>
      <trkpt lat="47.7851" lon="-1.85726">
        <ele>17.8</ele>
      </trkpt>
      <trkpt lat="47.78504" lon="-1.85726">
        <ele>17.7</ele>
      </trkpt>
      <trkpt lat="47.78499" lon="-1.85727">
        <ele>17.6</ele>
      </trkpt>
      <trkpt lat="47.78494" lon="-1.85728">
        <ele>17.4</ele>
      </trkpt>
      <trkpt lat="47.7849" lon="-1.8573">
        <ele>17.2</ele>
      </trkpt>
      <trkpt lat="47.78484" lon="-1.85731">
        <ele>17</ele>
      </trkpt>
      <trkpt lat="47.7848" lon="-1.8573">
        <ele>17</ele>
      </trkpt>
      <trkpt lat="47.78477" lon="-1.85728">
        <ele>17</ele>
      </trkpt>
      <trkpt lat="47.78473" lon="-1.85725">
        <ele>17.1</ele>
      </trkpt>
      <trkpt lat="47.78471" lon="-1.85723">
        <ele>17.2</ele>
      </trkpt>
      <trkpt lat="47.78468" lon="-1.85721">
        <ele>17.1</ele>
      </trkpt>
      <trkpt lat="47.78464" lon="-1.8572">
        <ele>17.1</ele>
      </trkpt>
      <trkpt lat="47.78461" lon="-1.85718">
        <ele>17.1</ele>
      </trkpt>
      <trkpt lat="47.78459" lon="-1.85716">
        <ele>17.1</ele>
      </trkpt>
      <trkpt lat="47.78457" lon="-1.85715">
        <ele>17.1</ele>
      </trkpt>
      <trkpt lat="47.78454" lon="-1.85713">
        <ele>17.1</ele>
      </trkpt>
      <trkpt lat="47.78451" lon="-1.8571">
        <ele>17.2</ele>
      </trkpt>
      <trkpt lat="47.78449" lon="-1.85708">
        <ele>17.2</ele>
      </trkpt>
      <trkpt lat="47.78446" lon="-1.85706">
        <ele>17.2</ele>
      </trkpt>
      <trkpt lat="47.78442" lon="-1.85703">
        <ele>17.1</ele>
      </trkpt>
      <trkpt lat="47.78442" lon="-1.85699">
        <ele>17.2</ele>
      </trkpt>
      <trkpt lat="47.78441" lon="-1.85696">
        <ele>17.4</ele>
      </trkpt>
      <trkpt lat="47.7844" lon="-1.85692">
        <ele>17.5</ele>
      </trkpt>
      <trkpt lat="47.78439" lon="-1.85688">
        <ele>17.6</ele>
      </trkpt>
      <trkpt lat="47.78439" lon="-1.85684">
        <ele>17.7</ele>
      </trkpt>
      <trkpt lat="47.78438" lon="-1.85681">
        <ele>17.8</ele>
      </trkpt>
      <trkpt lat="47.78437" lon="-1.85678">
        <ele>17.8</ele>
      </trkpt>
      <trkpt lat="47.78435" lon="-1.85675">
        <ele>17.8</ele>
      </trkpt>
      <trkpt lat="47.78434" lon="-1.85671">
        <ele>17.9</ele>
      </trkpt>
      <trkpt lat="47.78433" lon="-1.85668">
        <ele>17.9</ele>
      </trkpt>
      <trkpt lat="47.78432" lon="-1.85666">
        <ele>18</ele>
      </trkpt>
      <trkpt lat="47.78431" lon="-1.85663">
        <ele>18</ele>
      </trkpt>
      <trkpt lat="47.78431" lon="-1.85663">
        <ele>18</ele>
      </trkpt>
      <trkpt lat="47.78431" lon="-1.85663">
        <ele>18</ele>
      </trkpt>
      <trkpt lat="47.78431" lon="-1.85663">
        <ele>18</ele>
      </trkpt>
      <trkpt lat="47.78431" lon="-1.85663">
        <ele>18</ele>
      </trkpt>
      <trkpt lat="47.78431" lon="-1.85663">
        <ele>18</ele>
      </trkpt>
      <trkpt lat="47.78431" lon="-1.85663">
        <ele>18</ele>
      </trkpt>
      <trkpt lat="47.78431" lon="-1.85663">
        <ele>18</ele>
      </trkpt>
      <trkpt lat="47.78431" lon="-1.85663">
        <ele>18</ele>
      </trkpt>
      <trkpt lat="47.78431" lon="-1.85664">
        <ele>18</ele>
      </trkpt>
      <trkpt lat="47.78431" lon="-1.85664">
        <ele>17.9</ele>
      </trkpt>
      <trkpt lat="47.78431" lon="-1.85663">
        <ele>18</ele>
      </trkpt>
      <trkpt lat="47.78431" lon="-1.85663">
        <ele>18</ele>
      </trkpt>
      <trkpt lat="47.78431" lon="-1.85663">
        <ele>18</ele>
      </trkpt>
      <trkpt lat="47.78431" lon="-1.85663">
        <ele>18</ele>
      </trkpt>
      <trkpt lat="47.78431" lon="-1.85663">
        <ele>18</ele>
      </trkpt>
      <trkpt lat="47.78431" lon="-1.85663">
        <ele>18</ele>
      </trkpt>
      <trkpt lat="47.78431" lon="-1.85663">
        <ele>18</ele>
      </trkpt>
      <trkpt lat="47.78431" lon="-1.85663">
        <ele>18</ele>
      </trkpt>
      <trkpt lat="47.78431" lon="-1.85663">
        <ele>18</ele>
      </trkpt>
      <trkpt lat="47.78431" lon="-1.85663">
        <ele>18</ele>
      </trkpt>
      <trkpt lat="47.78431" lon="-1.85663">
        <ele>18</ele>
      </trkpt>
      <trkpt lat="47.78431" lon="-1.85663">
        <ele>18</ele>
      </trkpt>
      <trkpt lat="47.78431" lon="-1.85663">
        <ele>18</ele>
      </trkpt>
      <trkpt lat="47.78431" lon="-1.85663">
        <ele>18</ele>
      </trkpt>
      <trkpt lat="47.78431" lon="-1.85663">
        <ele>18</ele>
      </trkpt>
      <trkpt lat="47.78431" lon="-1.85663">
        <ele>18</ele>
      </trkpt>
      <trkpt lat="47.78431" lon="-1.85663">
        <ele>18</ele>
      </trkpt>
      <trkpt lat="47.78431" lon="-1.85663">
        <ele>18</ele>
      </trkpt>
      <trkpt lat="47.78431" lon="-1.85663">
        <ele>18</ele>
      </trkpt>
      <trkpt lat="47.78431" lon="-1.85663">
        <ele>18</ele>
      </trkpt>
      <trkpt lat="47.78431" lon="-1.85663">
        <ele>18</ele>
      </trkpt>
      <trkpt lat="47.78431" lon="-1.85663">
        <ele>18</ele>
      </trkpt>
      <trkpt lat="47.78431" lon="-1.85663">
        <ele>18</ele>
      </trkpt>
      <trkpt lat="47.78431" lon="-1.85663">
        <ele>18</ele>
      </trkpt>
      <trkpt lat="47.78431" lon="-1.85663">
        <ele>18</ele>
      </trkpt>
      <trkpt lat="47.78431" lon="-1.85663">
        <ele>18</ele>
      </trkpt>
      <trkpt lat="47.78431" lon="-1.85663">
        <ele>18</ele>
      </trkpt>
      <trkpt lat="47.78431" lon="-1.85663">
        <ele>18</ele>
      </trkpt>
      <trkpt lat="47.78431" lon="-1.85663">
        <ele>18</ele>
      </trkpt>
      <trkpt lat="47.78431" lon="-1.85663">
        <ele>18</ele>
      </trkpt>
      <trkpt lat="47.78431" lon="-1.85663">
        <ele>18</ele>
      </trkpt>
      <trkpt lat="47.78431" lon="-1.85663">
        <ele>18</ele>
      </trkpt>
      <trkpt lat="47.78431" lon="-1.85663">
        <ele>18</ele>
      </trkpt>
      <trkpt lat="47.78431" lon="-1.85663">
        <ele>18</ele>
      </trkpt>
      <trkpt lat="47.78431" lon="-1.85663">
        <ele>18</ele>
      </trkpt>
      <trkpt lat="47.78431" lon="-1.85664">
        <ele>18</ele>
      </trkpt>
      <trkpt lat="47.78431" lon="-1.85664">
        <ele>18</ele>
      </trkpt>
      <trkpt lat="47.78431" lon="-1.85664">
        <ele>18</ele>
      </trkpt>
      <trkpt lat="47.78431" lon="-1.85664">
        <ele>18</ele>
      </trkpt>
      <trkpt lat="47.78431" lon="-1.85664">
        <ele>18</ele>
      </trkpt>
      <trkpt lat="47.78431" lon="-1.85664">
        <ele>18</ele>
      </trkpt>
      <trkpt lat="47.78431" lon="-1.85664">
        <ele>18</ele>
      </trkpt>
      <trkpt lat="47.78431" lon="-1.85664">
        <ele>18</ele>
      </trkpt>
      <trkpt lat="47.78431" lon="-1.85664">
        <ele>18</ele>
      </trkpt>
      <trkpt lat="47.78431" lon="-1.85664">
        <ele>18</ele>
      </trkpt>
      <trkpt lat="47.78431" lon="-1.85664">
        <ele>18</ele>
      </trkpt>
      <trkpt lat="47.78431" lon="-1.85664">
        <ele>18</ele>
      </trkpt>
      <trkpt lat="47.78431" lon="-1.85664">
        <ele>18</ele>
      </trkpt>
      <trkpt lat="47.78431" lon="-1.85664">
        <ele>18</ele>
      </trkpt>
      <trkpt lat="47.78431" lon="-1.85664">
        <ele>18</ele>
      </trkpt>
      <trkpt lat="47.78431" lon="-1.85664">
        <ele>18</ele>
      </trkpt>
      <trkpt lat="47.78431" lon="-1.85664">
        <ele>18</ele>
      </trkpt>
      <trkpt lat="47.78431" lon="-1.85664">
        <ele>18</ele>
      </trkpt>
      <trkpt lat="47.78431" lon="-1.85664">
        <ele>18</ele>
      </trkpt>
      <trkpt lat="47.78431" lon="-1.85664">
        <ele>18</ele>
      </trkpt>
      <trkpt lat="47.78431" lon="-1.85664">
        <ele>18</ele>
      </trkpt>
      <trkpt lat="47.78431" lon="-1.85664">
        <ele>18</ele>
      </trkpt>
      <trkpt lat="47.78431" lon="-1.85664">
        <ele>18</ele>
      </trkpt>
      <trkpt lat="47.78431" lon="-1.85664">
        <ele>18</ele>
      </trkpt>
      <trkpt lat="47.78431" lon="-1.85664">
        <ele>18</ele>
      </trkpt>
      <trkpt lat="47.78431" lon="-1.85664">
        <ele>18</ele>
      </trkpt>
      <trkpt lat="47.78431" lon="-1.85664">
        <ele>18</ele>
      </trkpt>
      <trkpt lat="47.78431" lon="-1.85664">
        <ele>18</ele>
      </trkpt>
      <trkpt lat="47.78431" lon="-1.85664">
        <ele>18</ele>
      </trkpt>
      <trkpt lat="47.78431" lon="-1.85664">
        <ele>18</ele>
      </trkpt>
      <trkpt lat="47.78431" lon="-1.85664">
        <ele>18</ele>
      </trkpt>
      <trkpt lat="47.78431" lon="-1.85664">
        <ele>18</ele>
      </trkpt>
      <trkpt lat="47.7843" lon="-1.85663">
        <ele>18</ele>
      </trkpt>
      <trkpt lat="47.78429" lon="-1.8566">
        <ele>18</ele>
      </trkpt>
      <trkpt lat="47.78428" lon="-1.85658">
        <ele>18</ele>
      </trkpt>
      <trkpt lat="47.78428" lon="-1.85658">
        <ele>18</ele>
      </trkpt>
      <trkpt lat="47.78428" lon="-1.85657">
        <ele>18</ele>
      </trkpt>
      <trkpt lat="47.78428" lon="-1.85656">
        <ele>18</ele>
      </trkpt>
      <trkpt lat="47.78427" lon="-1.85656">
        <ele>18.1</ele>
      </trkpt>
      <trkpt lat="47.78427" lon="-1.85655">
        <ele>18.1</ele>
      </trkpt>
      <trkpt lat="47.78427" lon="-1.85654">
        <ele>18.1</ele>
      </trkpt>
      <trkpt lat="47.78426" lon="-1.85653">
        <ele>18.1</ele>
      </trkpt>
      <trkpt lat="47.78426" lon="-1.85653">
        <ele>18.1</ele>
      </trkpt>
      <trkpt lat="47.78426" lon="-1.85652">
        <ele>18.1</ele>
      </trkpt>
      <trkpt lat="47.78426" lon="-1.85651">
        <ele>18.1</ele>
      </trkpt>
      <trkpt lat="47.78425" lon="-1.85651">
        <ele>18.1</ele>
      </trkpt>
      <trkpt lat="47.78425" lon="-1.8565">
        <ele>18.1</ele>
      </trkpt>
      <trkpt lat="47.78425" lon="-1.8565">
        <ele>18.1</ele>
      </trkpt>
      <trkpt lat="47.78424" lon="-1.85645">
        <ele>18.2</ele>
      </trkpt>
      <trkpt lat="47.78423" lon="-1.8564">
        <ele>18.4</ele>
      </trkpt>
      <trkpt lat="47.78421" lon="-1.85635">
        <ele>18.5</ele>
      </trkpt>
      <trkpt lat="47.78419" lon="-1.85629">
        <ele>18.5</ele>
      </trkpt>
      <trkpt lat="47.78418" lon="-1.85624">
        <ele>18.6</ele>
      </trkpt>
      <trkpt lat="47.78416" lon="-1.85618">
        <ele>18.8</ele>
      </trkpt>
      <trkpt lat="47.78414" lon="-1.85611">
        <ele>19</ele>
      </trkpt>
      <trkpt lat="47.78413" lon="-1.85605">
        <ele>19.2</ele>
      </trkpt>
      <trkpt lat="47.78412" lon="-1.856">
        <ele>19.4</ele>
      </trkpt>
      <trkpt lat="47.7841" lon="-1.85594">
        <ele>19.5</ele>
      </trkpt>
      <trkpt lat="47.78409" lon="-1.8559">
        <ele>19.7</ele>
      </trkpt>
      <trkpt lat="47.78408" lon="-1.85584">
        <ele>19.9</ele>
      </trkpt>
      <trkpt lat="47.78408" lon="-1.85581">
        <ele>20.2</ele>
      </trkpt>
      <trkpt lat="47.78405" lon="-1.85576">
        <ele>20.7</ele>
      </trkpt>
      <trkpt lat="47.78403" lon="-1.8557">
        <ele>21.4</ele>
      </trkpt>
      <trkpt lat="47.78402" lon="-1.85565">
        <ele>21.8</ele>
      </trkpt>
      <trkpt lat="47.78402" lon="-1.85562">
        <ele>22.2</ele>
      </trkpt>
      <trkpt lat="47.78401" lon="-1.85558">
        <ele>22.7</ele>
      </trkpt>
      <trkpt lat="47.784" lon="-1.85554">
        <ele>23.1</ele>
      </trkpt>
      <trkpt lat="47.78399" lon="-1.85549">
        <ele>23.6</ele>
      </trkpt>
      <trkpt lat="47.78399" lon="-1.85545">
        <ele>24</ele>
      </trkpt>
      <trkpt lat="47.78398" lon="-1.85542">
        <ele>24.3</ele>
      </trkpt>
      <trkpt lat="47.78397" lon="-1.85538">
        <ele>24.8</ele>
      </trkpt>
      <trkpt lat="47.78396" lon="-1.85533">
        <ele>25.2</ele>
      </trkpt>
      <trkpt lat="47.78395" lon="-1.85529">
        <ele>25.5</ele>
      </trkpt>
      <trkpt lat="47.78394" lon="-1.85526">
        <ele>25.9</ele>
      </trkpt>
      <trkpt lat="47.78391" lon="-1.85522">
        <ele>26.2</ele>
      </trkpt>
      <trkpt lat="47.7839" lon="-1.85518">
        <ele>26.5</ele>
      </trkpt>
      <trkpt lat="47.78388" lon="-1.85513">
        <ele>26.9</ele>
      </trkpt>
      <trkpt lat="47.78386" lon="-1.8551">
        <ele>27.2</ele>
      </trkpt>
      <trkpt lat="47.78385" lon="-1.85505">
        <ele>27.6</ele>
      </trkpt>
      <trkpt lat="47.78383" lon="-1.855">
        <ele>28</ele>
      </trkpt>
      <trkpt lat="47.78382" lon="-1.85498">
        <ele>28.1</ele>
      </trkpt>
      <trkpt lat="47.78381" lon="-1.85494">
        <ele>28.1</ele>
      </trkpt>
      <trkpt lat="47.78379" lon="-1.85491">
        <ele>28.2</ele>
      </trkpt>
      <trkpt lat="47.78379" lon="-1.85489">
        <ele>28.3</ele>
      </trkpt>
      <trkpt lat="47.78379" lon="-1.85488">
        <ele>28.4</ele>
      </trkpt>
      <trkpt lat="47.78379" lon="-1.85486">
        <ele>28.5</ele>
      </trkpt>
      <trkpt lat="47.78379" lon="-1.85485">
        <ele>28.6</ele>
      </trkpt>
      <trkpt lat="47.78381" lon="-1.85485">
        <ele>28.6</ele>
      </trkpt>
      <trkpt lat="47.78381" lon="-1.85485">
        <ele>28.7</ele>
      </trkpt>
      <trkpt lat="47.78382" lon="-1.85486">
        <ele>28.7</ele>
      </trkpt>
      <trkpt lat="47.78382" lon="-1.85486">
        <ele>28.7</ele>
      </trkpt>
      <trkpt lat="47.78383" lon="-1.85485">
        <ele>28.7</ele>
      </trkpt>
      <trkpt lat="47.78382" lon="-1.85484">
        <ele>28.8</ele>
      </trkpt>
      <trkpt lat="47.78383" lon="-1.85484">
        <ele>28.8</ele>
      </trkpt>
      <trkpt lat="47.78384" lon="-1.85485">
        <ele>28.9</ele>
      </trkpt>
      <trkpt lat="47.78385" lon="-1.85486">
        <ele>28.8</ele>
      </trkpt>
      <trkpt lat="47.78386" lon="-1.85488">
        <ele>28.8</ele>
      </trkpt>
      <trkpt lat="47.78387" lon="-1.85491">
        <ele>28.7</ele>
      </trkpt>
      <trkpt lat="47.78388" lon="-1.85493">
        <ele>28.6</ele>
      </trkpt>
      <trkpt lat="47.78389" lon="-1.85495">
        <ele>28.6</ele>
      </trkpt>
      <trkpt lat="47.7839" lon="-1.85496">
        <ele>28.6</ele>
      </trkpt>
      <trkpt lat="47.78392" lon="-1.85497">
        <ele>28.7</ele>
      </trkpt>
      <trkpt lat="47.78393" lon="-1.855">
        <ele>28.6</ele>
      </trkpt>
      <trkpt lat="47.78395" lon="-1.85503">
        <ele>28.4</ele>
      </trkpt>
      <trkpt lat="47.78397" lon="-1.85504">
        <ele>28.3</ele>
      </trkpt>
      <trkpt lat="47.78398" lon="-1.85506">
        <ele>28.2</ele>
      </trkpt>
      <trkpt lat="47.78399" lon="-1.85507">
        <ele>28.1</ele>
      </trkpt>
      <trkpt lat="47.78401" lon="-1.85508">
        <ele>28.2</ele>
      </trkpt>
      <trkpt lat="47.78402" lon="-1.85507">
        <ele>28.3</ele>
      </trkpt>
      <trkpt lat="47.78403" lon="-1.85505">
        <ele>28.6</ele>
      </trkpt>
      <trkpt lat="47.78403" lon="-1.85504">
        <ele>28.7</ele>
      </trkpt>
      <trkpt lat="47.78403" lon="-1.85503">
        <ele>28.9</ele>
      </trkpt>
      <trkpt lat="47.78402" lon="-1.85501">
        <ele>29</ele>
      </trkpt>
      <trkpt lat="47.784" lon="-1.85499">
        <ele>29.1</ele>
      </trkpt>
      <trkpt lat="47.78399" lon="-1.85497">
        <ele>29.1</ele>
      </trkpt>
      <trkpt lat="47.78397" lon="-1.85495">
        <ele>29.1</ele>
      </trkpt>
      <trkpt lat="47.78395" lon="-1.85493">
        <ele>29.1</ele>
      </trkpt>
      <trkpt lat="47.78394" lon="-1.85491">
        <ele>29.1</ele>
      </trkpt>
      <trkpt lat="47.78393" lon="-1.85488">
        <ele>29.2</ele>
      </trkpt>
      <trkpt lat="47.78391" lon="-1.85485">
        <ele>29.3</ele>
      </trkpt>
      <trkpt lat="47.78391" lon="-1.85482">
        <ele>29.4</ele>
      </trkpt>
      <trkpt lat="47.78392" lon="-1.8548">
        <ele>29.5</ele>
      </trkpt>
      <trkpt lat="47.78392" lon="-1.85478">
        <ele>29.7</ele>
      </trkpt>
      <trkpt lat="47.78391" lon="-1.85474">
        <ele>29.8</ele>
      </trkpt>
      <trkpt lat="47.7839" lon="-1.85471">
        <ele>29.9</ele>
      </trkpt>
      <trkpt lat="47.78389" lon="-1.85468">
        <ele>30</ele>
      </trkpt>
      <trkpt lat="47.78389" lon="-1.85466">
        <ele>30.1</ele>
      </trkpt>
      <trkpt lat="47.78388" lon="-1.85465">
        <ele>30.1</ele>
      </trkpt>
      <trkpt lat="47.78386" lon="-1.85462">
        <ele>30.2</ele>
      </trkpt>
      <trkpt lat="47.78385" lon="-1.8546">
        <ele>30.2</ele>
      </trkpt>
      <trkpt lat="47.78383" lon="-1.85458">
        <ele>30.2</ele>
      </trkpt>
      <trkpt lat="47.78381" lon="-1.85454">
        <ele>30.3</ele>
      </trkpt>
      <trkpt lat="47.78382" lon="-1.85452">
        <ele>30.4</ele>
      </trkpt>
      <trkpt lat="47.78382" lon="-1.85451">
        <ele>30.5</ele>
      </trkpt>
      <trkpt lat="47.78382" lon="-1.85449">
        <ele>30.6</ele>
      </trkpt>
      <trkpt lat="47.78383" lon="-1.85448">
        <ele>30.7</ele>
      </trkpt>
      <trkpt lat="47.78383" lon="-1.85448">
        <ele>30.7</ele>
      </trkpt>
      <trkpt lat="47.78384" lon="-1.8545">
        <ele>30.7</ele>
      </trkpt>
      <trkpt lat="47.78385" lon="-1.85453">
        <ele>30.6</ele>
      </trkpt>
      <trkpt lat="47.78386" lon="-1.85454">
        <ele>30.6</ele>
      </trkpt>
      <trkpt lat="47.78388" lon="-1.85455">
        <ele>30.6</ele>
      </trkpt>
      <trkpt lat="47.78388" lon="-1.85456">
        <ele>30.6</ele>
      </trkpt>
      <trkpt lat="47.78389" lon="-1.85455">
        <ele>30.7</ele>
      </trkpt>
      <trkpt lat="47.7839" lon="-1.85455">
        <ele>30.8</ele>
      </trkpt>
      <trkpt lat="47.78392" lon="-1.85456">
        <ele>30.8</ele>
      </trkpt>
      <trkpt lat="47.78393" lon="-1.85459">
        <ele>30.7</ele>
      </trkpt>
      <trkpt lat="47.78394" lon="-1.85462">
        <ele>30.6</ele>
      </trkpt>
      <trkpt lat="47.78395" lon="-1.85465">
        <ele>30.5</ele>
      </trkpt>
      <trkpt lat="47.78398" lon="-1.85468">
        <ele>30.5</ele>
      </trkpt>
      <trkpt lat="47.784" lon="-1.85471">
        <ele>30.5</ele>
      </trkpt>
      <trkpt lat="47.78402" lon="-1.85473">
        <ele>30.5</ele>
      </trkpt>
      <trkpt lat="47.78403" lon="-1.85475">
        <ele>30.4</ele>
      </trkpt>
      <trkpt lat="47.78405" lon="-1.85477">
        <ele>30.4</ele>
      </trkpt>
      <trkpt lat="47.78406" lon="-1.85478">
        <ele>30.5</ele>
      </trkpt>
      <trkpt lat="47.78408" lon="-1.85479">
        <ele>30.5</ele>
      </trkpt>
      <trkpt lat="47.7841" lon="-1.85481">
        <ele>30.6</ele>
      </trkpt>
      <trkpt lat="47.78412" lon="-1.85481">
        <ele>30.6</ele>
      </trkpt>
      <trkpt lat="47.78414" lon="-1.85482">
        <ele>30.7</ele>
      </trkpt>
      <trkpt lat="47.78415" lon="-1.85482">
        <ele>30.8</ele>
      </trkpt>
      <trkpt lat="47.78417" lon="-1.85481">
        <ele>30.9</ele>
      </trkpt>
      <trkpt lat="47.78418" lon="-1.85479">
        <ele>31</ele>
      </trkpt>
      <trkpt lat="47.78418" lon="-1.85477">
        <ele>31.1</ele>
      </trkpt>
      <trkpt lat="47.78418" lon="-1.85473">
        <ele>31.2</ele>
      </trkpt>
      <trkpt lat="47.78418" lon="-1.8547">
        <ele>31.4</ele>
      </trkpt>
      <trkpt lat="47.78416" lon="-1.85467">
        <ele>31.5</ele>
      </trkpt>
      <trkpt lat="47.78415" lon="-1.85466">
        <ele>31.5</ele>
      </trkpt>
      <trkpt lat="47.78413" lon="-1.85466">
        <ele>31.5</ele>
      </trkpt>
      <trkpt lat="47.78411" lon="-1.85466">
        <ele>31.3</ele>
      </trkpt>
      <trkpt lat="47.78409" lon="-1.85466">
        <ele>31.2</ele>
      </trkpt>
      <trkpt lat="47.78406" lon="-1.85464">
        <ele>31.1</ele>
      </trkpt>
      <trkpt lat="47.78403" lon="-1.85461">
        <ele>31.1</ele>
      </trkpt>
      <trkpt lat="47.784" lon="-1.85458">
        <ele>31.1</ele>
      </trkpt>
      <trkpt lat="47.78398" lon="-1.85454">
        <ele>31.2</ele>
      </trkpt>
      <trkpt lat="47.78397" lon="-1.85451">
        <ele>31.3</ele>
      </trkpt>
      <trkpt lat="47.78396" lon="-1.85447">
        <ele>31.4</ele>
      </trkpt>
      <trkpt lat="47.78395" lon="-1.85444">
        <ele>31.6</ele>
      </trkpt>
      <trkpt lat="47.78394" lon="-1.8544">
        <ele>31.7</ele>
      </trkpt>
      <trkpt lat="47.78393" lon="-1.85437">
        <ele>31.8</ele>
      </trkpt>
      <trkpt lat="47.78393" lon="-1.85435">
        <ele>31.9</ele>
      </trkpt>
      <trkpt lat="47.78392" lon="-1.85432">
        <ele>32</ele>
      </trkpt>
      <trkpt lat="47.78391" lon="-1.8543">
        <ele>32.1</ele>
      </trkpt>
      <trkpt lat="47.7839" lon="-1.85426">
        <ele>32.3</ele>
      </trkpt>
      <trkpt lat="47.78391" lon="-1.85423">
        <ele>32.5</ele>
      </trkpt>
      <trkpt lat="47.78392" lon="-1.8542">
        <ele>32.6</ele>
      </trkpt>
      <trkpt lat="47.78393" lon="-1.85418">
        <ele>32.8</ele>
      </trkpt>
      <trkpt lat="47.78392" lon="-1.85416">
        <ele>32.8</ele>
      </trkpt>
      <trkpt lat="47.78393" lon="-1.85413">
        <ele>32.6</ele>
      </trkpt>
      <trkpt lat="47.78392" lon="-1.8541">
        <ele>32.4</ele>
      </trkpt>
      <trkpt lat="47.78391" lon="-1.85408">
        <ele>32.3</ele>
      </trkpt>
      <trkpt lat="47.7839" lon="-1.85406">
        <ele>32.2</ele>
      </trkpt>
      <trkpt lat="47.7839" lon="-1.85404">
        <ele>32</ele>
      </trkpt>
      <trkpt lat="47.78389" lon="-1.85401">
        <ele>31.9</ele>
      </trkpt>
      <trkpt lat="47.78388" lon="-1.854">
        <ele>31.8</ele>
      </trkpt>
      <trkpt lat="47.78388" lon="-1.85399">
        <ele>31.7</ele>
      </trkpt>
      <trkpt lat="47.78387" lon="-1.85398">
        <ele>31.7</ele>
      </trkpt>
      <trkpt lat="47.78386" lon="-1.85395">
        <ele>31.5</ele>
      </trkpt>
      <trkpt lat="47.78385" lon="-1.85393">
        <ele>31.4</ele>
      </trkpt>
      <trkpt lat="47.78384" lon="-1.85391">
        <ele>31.4</ele>
      </trkpt>
      <trkpt lat="47.78383" lon="-1.85389">
        <ele>31.3</ele>
      </trkpt>
      <trkpt lat="47.78382" lon="-1.85388">
        <ele>31.2</ele>
      </trkpt>
      <trkpt lat="47.78381" lon="-1.85387">
        <ele>31.2</ele>
      </trkpt>
      <trkpt lat="47.78381" lon="-1.85386">
        <ele>31.2</ele>
      </trkpt>
      <trkpt lat="47.78381" lon="-1.85386">
        <ele>31.2</ele>
      </trkpt>
      <trkpt lat="47.78381" lon="-1.85386">
        <ele>31.2</ele>
      </trkpt>
      <trkpt lat="47.78381" lon="-1.85386">
        <ele>31.2</ele>
      </trkpt>
      <trkpt lat="47.78381" lon="-1.85386">
        <ele>31.2</ele>
      </trkpt>
      <trkpt lat="47.78381" lon="-1.85386">
        <ele>31.2</ele>
      </trkpt>
      <trkpt lat="47.78381" lon="-1.85386">
        <ele>31.2</ele>
      </trkpt>
      <trkpt lat="47.78381" lon="-1.85384">
        <ele>31.1</ele>
      </trkpt>
      <trkpt lat="47.78381" lon="-1.85384">
        <ele>31.1</ele>
      </trkpt>
      <trkpt lat="47.78381" lon="-1.85384">
        <ele>31.1</ele>
      </trkpt>
      <trkpt lat="47.78381" lon="-1.85384">
        <ele>31.1</ele>
      </trkpt>
      <trkpt lat="47.78381" lon="-1.85384">
        <ele>31.1</ele>
      </trkpt>
      <trkpt lat="47.78381" lon="-1.85384">
        <ele>31.1</ele>
      </trkpt>
      <trkpt lat="47.78381" lon="-1.85384">
        <ele>31.1</ele>
      </trkpt>
      <trkpt lat="47.78381" lon="-1.85384">
        <ele>31.1</ele>
      </trkpt>
      <trkpt lat="47.78381" lon="-1.85384">
        <ele>31.1</ele>
      </trkpt>
      <trkpt lat="47.78381" lon="-1.85384">
        <ele>31.1</ele>
      </trkpt>
      <trkpt lat="47.78381" lon="-1.85384">
        <ele>31.1</ele>
      </trkpt>
      <trkpt lat="47.78381" lon="-1.85384">
        <ele>31.1</ele>
      </trkpt>
      <trkpt lat="47.78381" lon="-1.85384">
        <ele>31.1</ele>
      </trkpt>
      <trkpt lat="47.78381" lon="-1.85384">
        <ele>31.1</ele>
      </trkpt>
      <trkpt lat="47.78381" lon="-1.85384">
        <ele>31.1</ele>
      </trkpt>
      <trkpt lat="47.78381" lon="-1.85384">
        <ele>31.1</ele>
      </trkpt>
      <trkpt lat="47.78381" lon="-1.85384">
        <ele>31.1</ele>
      </trkpt>
      <trkpt lat="47.78381" lon="-1.85384">
        <ele>31.1</ele>
      </trkpt>
      <trkpt lat="47.78381" lon="-1.85384">
        <ele>31.1</ele>
      </trkpt>
      <trkpt lat="47.78381" lon="-1.85384">
        <ele>31.1</ele>
      </trkpt>
      <trkpt lat="47.7838" lon="-1.85383">
        <ele>31.1</ele>
      </trkpt>
      <trkpt lat="47.78378" lon="-1.85381">
        <ele>31.1</ele>
      </trkpt>
      <trkpt lat="47.78377" lon="-1.85379">
        <ele>31</ele>
      </trkpt>
      <trkpt lat="47.78376" lon="-1.85377">
        <ele>31</ele>
      </trkpt>
      <trkpt lat="47.78374" lon="-1.85375">
        <ele>31</ele>
      </trkpt>
      <trkpt lat="47.78373" lon="-1.85373">
        <ele>31</ele>
      </trkpt>
      <trkpt lat="47.78371" lon="-1.8537">
        <ele>31.1</ele>
      </trkpt>
      <trkpt lat="47.78369" lon="-1.85368">
        <ele>31.1</ele>
      </trkpt>
      <trkpt lat="47.78367" lon="-1.85366">
        <ele>31.2</ele>
      </trkpt>
      <trkpt lat="47.78365" lon="-1.85364">
        <ele>31.3</ele>
      </trkpt>
      <trkpt lat="47.78364" lon="-1.85363">
        <ele>31.4</ele>
      </trkpt>
      <trkpt lat="47.78362" lon="-1.85362">
        <ele>31.5</ele>
      </trkpt>
      <trkpt lat="47.7836" lon="-1.8536">
        <ele>31.7</ele>
      </trkpt>
      <trkpt lat="47.78358" lon="-1.85358">
        <ele>31.8</ele>
      </trkpt>
      <trkpt lat="47.78355" lon="-1.85356">
        <ele>32</ele>
      </trkpt>
      <trkpt lat="47.78353" lon="-1.85354">
        <ele>32.2</ele>
      </trkpt>
      <trkpt lat="47.78351" lon="-1.85352">
        <ele>32.4</ele>
      </trkpt>
      <trkpt lat="47.78349" lon="-1.8535">
        <ele>32.7</ele>
      </trkpt>
      <trkpt lat="47.78347" lon="-1.85347">
        <ele>33</ele>
      </trkpt>
      <trkpt lat="47.78344" lon="-1.85344">
        <ele>33.3</ele>
      </trkpt>
      <trkpt lat="47.78342" lon="-1.85341">
        <ele>33.7</ele>
      </trkpt>
      <trkpt lat="47.7834" lon="-1.85338">
        <ele>33.9</ele>
      </trkpt>
      <trkpt lat="47.78338" lon="-1.85336">
        <ele>34.3</ele>
      </trkpt>
      <trkpt lat="47.78336" lon="-1.85334">
        <ele>34.7</ele>
      </trkpt>
      <trkpt lat="47.78334" lon="-1.85333">
        <ele>35</ele>
      </trkpt>
      <trkpt lat="47.7833" lon="-1.85329">
        <ele>34.7</ele>
      </trkpt>
      <trkpt lat="47.78327" lon="-1.85326">
        <ele>34.3</ele>
      </trkpt>
      <trkpt lat="47.78324" lon="-1.85323">
        <ele>34.1</ele>
      </trkpt>
      <trkpt lat="47.78322" lon="-1.8532">
        <ele>33.9</ele>
      </trkpt>
      <trkpt lat="47.78319" lon="-1.85317">
        <ele>33.6</ele>
      </trkpt>
      <trkpt lat="47.78319" lon="-1.85316">
        <ele>33.6</ele>
      </trkpt>
      <trkpt lat="47.78317" lon="-1.85315">
        <ele>33.5</ele>
      </trkpt>
      <trkpt lat="47.78314" lon="-1.85313">
        <ele>33.2</ele>
      </trkpt>
      <trkpt lat="47.78313" lon="-1.85311">
        <ele>33.1</ele>
      </trkpt>
      <trkpt lat="47.78311" lon="-1.85308">
        <ele>33</ele>
      </trkpt>
      <trkpt lat="47.78309" lon="-1.85304">
        <ele>32.8</ele>
      </trkpt>
      <trkpt lat="47.78306" lon="-1.85299">
        <ele>32.6</ele>
      </trkpt>
      <trkpt lat="47.78302" lon="-1.85294">
        <ele>32.4</ele>
      </trkpt>
      <trkpt lat="47.78299" lon="-1.8529">
        <ele>32.3</ele>
      </trkpt>
      <trkpt lat="47.78295" lon="-1.85284">
        <ele>32.1</ele>
      </trkpt>
      <trkpt lat="47.78291" lon="-1.85279">
        <ele>31.9</ele>
      </trkpt>
      <trkpt lat="47.78287" lon="-1.85271">
        <ele>31.9</ele>
      </trkpt>
      <trkpt lat="47.78285" lon="-1.85265">
        <ele>31.9</ele>
      </trkpt>
      <trkpt lat="47.78282" lon="-1.85258">
        <ele>32</ele>
      </trkpt>
      <trkpt lat="47.78279" lon="-1.85249">
        <ele>31.9</ele>
      </trkpt>
      <trkpt lat="47.78276" lon="-1.85239">
        <ele>30.7</ele>
      </trkpt>
      <trkpt lat="47.78273" lon="-1.8523">
        <ele>29.6</ele>
      </trkpt>
      <trkpt lat="47.78274" lon="-1.85223">
        <ele>28.7</ele>
      </trkpt>
      <trkpt lat="47.78275" lon="-1.85215">
        <ele>27.8</ele>
      </trkpt>
      <trkpt lat="47.78274" lon="-1.85208">
        <ele>27</ele>
      </trkpt>
      <trkpt lat="47.78273" lon="-1.85203">
        <ele>26.5</ele>
      </trkpt>
      <trkpt lat="47.78271" lon="-1.85202">
        <ele>26.4</ele>
      </trkpt>
      <trkpt lat="47.78269" lon="-1.85202">
        <ele>26.5</ele>
      </trkpt>
      <trkpt lat="47.78267" lon="-1.85205">
        <ele>26.8</ele>
      </trkpt>
      <trkpt lat="47.78265" lon="-1.85207">
        <ele>27.1</ele>
      </trkpt>
      <trkpt lat="47.78261" lon="-1.85211">
        <ele>27.6</ele>
      </trkpt>
      <trkpt lat="47.78258" lon="-1.85215">
        <ele>27.9</ele>
      </trkpt>
      <trkpt lat="47.78254" lon="-1.8522">
        <ele>28.5</ele>
      </trkpt>
      <trkpt lat="47.78249" lon="-1.85224">
        <ele>28.7</ele>
      </trkpt>
      <trkpt lat="47.78244" lon="-1.85225">
        <ele>28.5</ele>
      </trkpt>
      <trkpt lat="47.7824" lon="-1.85224">
        <ele>28.2</ele>
      </trkpt>
      <trkpt lat="47.78238" lon="-1.85221">
        <ele>27.8</ele>
      </trkpt>
      <trkpt lat="47.78235" lon="-1.85216">
        <ele>27.3</ele>
      </trkpt>
      <trkpt lat="47.78234" lon="-1.85209">
        <ele>26.7</ele>
      </trkpt>
      <trkpt lat="47.78232" lon="-1.85202">
        <ele>26.1</ele>
      </trkpt>
      <trkpt lat="47.78232" lon="-1.85196">
        <ele>25.7</ele>
      </trkpt>
      <trkpt lat="47.78233" lon="-1.85189">
        <ele>25.3</ele>
      </trkpt>
      <trkpt lat="47.78232" lon="-1.85182">
        <ele>24.8</ele>
      </trkpt>
      <trkpt lat="47.7823" lon="-1.85177">
        <ele>24.4</ele>
      </trkpt>
      <trkpt lat="47.78228" lon="-1.85174">
        <ele>24.2</ele>
      </trkpt>
      <trkpt lat="47.78229" lon="-1.85171">
        <ele>24</ele>
      </trkpt>
      <trkpt lat="47.7823" lon="-1.8517">
        <ele>24</ele>
      </trkpt>
      <trkpt lat="47.78231" lon="-1.85166">
        <ele>23.7</ele>
      </trkpt>
      <trkpt lat="47.78232" lon="-1.85163">
        <ele>23.4</ele>
      </trkpt>
      <trkpt lat="47.78234" lon="-1.85161">
        <ele>23.2</ele>
      </trkpt>
      <trkpt lat="47.78235" lon="-1.85158">
        <ele>22.8</ele>
      </trkpt>
      <trkpt lat="47.78235" lon="-1.85154">
        <ele>22.4</ele>
      </trkpt>
      <trkpt lat="47.78235" lon="-1.8515">
        <ele>21.9</ele>
      </trkpt>
      <trkpt lat="47.78236" lon="-1.85146">
        <ele>21.5</ele>
      </trkpt>
      <trkpt lat="47.78235" lon="-1.85143">
        <ele>21.2</ele>
      </trkpt>
      <trkpt lat="47.78234" lon="-1.85145">
        <ele>21.4</ele>
      </trkpt>
      <trkpt lat="47.78233" lon="-1.85147">
        <ele>21.7</ele>
      </trkpt>
      <trkpt lat="47.78231" lon="-1.85147">
        <ele>21.7</ele>
      </trkpt>
      <trkpt lat="47.78229" lon="-1.85144">
        <ele>21.5</ele>
      </trkpt>
      <trkpt lat="47.78228" lon="-1.8514">
        <ele>21.1</ele>
      </trkpt>
      <trkpt lat="47.78229" lon="-1.85135">
        <ele>20.5</ele>
      </trkpt>
      <trkpt lat="47.78229" lon="-1.85131">
        <ele>20.1</ele>
      </trkpt>
      <trkpt lat="47.78231" lon="-1.85126">
        <ele>19.5</ele>
      </trkpt>
      <trkpt lat="47.78231" lon="-1.85121">
        <ele>19</ele>
      </trkpt>
      <trkpt lat="47.7823" lon="-1.85118">
        <ele>18.8</ele>
      </trkpt>
      <trkpt lat="47.78228" lon="-1.85118">
        <ele>18.8</ele>
      </trkpt>
      <trkpt lat="47.78227" lon="-1.85119">
        <ele>19</ele>
      </trkpt>
      <trkpt lat="47.78226" lon="-1.85121">
        <ele>19.3</ele>
      </trkpt>
      <trkpt lat="47.78224" lon="-1.85125">
        <ele>19.8</ele>
      </trkpt>
      <trkpt lat="47.78223" lon="-1.85128">
        <ele>20.1</ele>
      </trkpt>
      <trkpt lat="47.78222" lon="-1.85132">
        <ele>20.5</ele>
      </trkpt>
      <trkpt lat="47.78221" lon="-1.85134">
        <ele>20.7</ele>
      </trkpt>
      <trkpt lat="47.7822" lon="-1.85137">
        <ele>21</ele>
      </trkpt>
      <trkpt lat="47.78219" lon="-1.85142">
        <ele>21.5</ele>
      </trkpt>
      <trkpt lat="47.78218" lon="-1.85146">
        <ele>21.9</ele>
      </trkpt>
      <trkpt lat="47.78217" lon="-1.85151">
        <ele>22.2</ele>
      </trkpt>
      <trkpt lat="47.78215" lon="-1.85155">
        <ele>22.6</ele>
      </trkpt>
      <trkpt lat="47.78213" lon="-1.85159">
        <ele>23</ele>
      </trkpt>
      <trkpt lat="47.78211" lon="-1.85163">
        <ele>23.3</ele>
      </trkpt>
      <trkpt lat="47.78209" lon="-1.85169">
        <ele>23.6</ele>
      </trkpt>
      <trkpt lat="47.78208" lon="-1.85174">
        <ele>23.8</ele>
      </trkpt>
      <trkpt lat="47.78206" lon="-1.85179">
        <ele>24</ele>
      </trkpt>
      <trkpt lat="47.78205" lon="-1.85185">
        <ele>24.2</ele>
      </trkpt>
      <trkpt lat="47.78204" lon="-1.8519">
        <ele>24.3</ele>
      </trkpt>
      <trkpt lat="47.78202" lon="-1.85196">
        <ele>24.5</ele>
      </trkpt>
      <trkpt lat="47.78201" lon="-1.852">
        <ele>24.6</ele>
      </trkpt>
      <trkpt lat="47.78199" lon="-1.85206">
        <ele>24.7</ele>
      </trkpt>
      <trkpt lat="47.78198" lon="-1.8521">
        <ele>24.8</ele>
      </trkpt>
      <trkpt lat="47.78196" lon="-1.85216">
        <ele>24.8</ele>
      </trkpt>
      <trkpt lat="47.78195" lon="-1.85222">
        <ele>24.9</ele>
      </trkpt>
      <trkpt lat="47.78194" lon="-1.85225">
        <ele>24.9</ele>
      </trkpt>
      <trkpt lat="47.78192" lon="-1.8523">
        <ele>24.9</ele>
      </trkpt>
      <trkpt lat="47.7819" lon="-1.85233">
        <ele>24.9</ele>
      </trkpt>
      <trkpt lat="47.78188" lon="-1.85237">
        <ele>24.7</ele>
      </trkpt>
      <trkpt lat="47.78185" lon="-1.8524">
        <ele>24.5</ele>
      </trkpt>
      <trkpt lat="47.78181" lon="-1.85244">
        <ele>24.3</ele>
      </trkpt>
      <trkpt lat="47.78176" lon="-1.85248">
        <ele>23.9</ele>
      </trkpt>
      <trkpt lat="47.78173" lon="-1.85252">
        <ele>23.6</ele>
      </trkpt>
      <trkpt lat="47.78171" lon="-1.85256">
        <ele>23.6</ele>
      </trkpt>
      <trkpt lat="47.7817" lon="-1.85261">
        <ele>23.7</ele>
      </trkpt>
      <trkpt lat="47.78169" lon="-1.85267">
        <ele>23.8</ele>
      </trkpt>
      <trkpt lat="47.78168" lon="-1.85271">
        <ele>23.9</ele>
      </trkpt>
      <trkpt lat="47.78167" lon="-1.85274">
        <ele>23.9</ele>
      </trkpt>
      <trkpt lat="47.78166" lon="-1.85276">
        <ele>24.1</ele>
      </trkpt>
      <trkpt lat="47.78163" lon="-1.85277">
        <ele>24.4</ele>
      </trkpt>
      <trkpt lat="47.78161" lon="-1.85276">
        <ele>24.7</ele>
      </trkpt>
      <trkpt lat="47.7816" lon="-1.85275">
        <ele>24.7</ele>
      </trkpt>
      <trkpt lat="47.7816" lon="-1.85273">
        <ele>24.6</ele>
      </trkpt>
      <trkpt lat="47.78161" lon="-1.85271">
        <ele>24.4</ele>
      </trkpt>
      <trkpt lat="47.78162" lon="-1.85267">
        <ele>24.1</ele>
      </trkpt>
      <trkpt lat="47.78164" lon="-1.85263">
        <ele>23.8</ele>
      </trkpt>
      <trkpt lat="47.78165" lon="-1.85259">
        <ele>23.5</ele>
      </trkpt>
      <trkpt lat="47.78166" lon="-1.85254">
        <ele>23.2</ele>
      </trkpt>
      <trkpt lat="47.78167" lon="-1.8525">
        <ele>23</ele>
      </trkpt>
      <trkpt lat="47.78167" lon="-1.85245">
        <ele>23</ele>
      </trkpt>
      <trkpt lat="47.78166" lon="-1.85241">
        <ele>23.1</ele>
      </trkpt>
      <trkpt lat="47.78165" lon="-1.85237">
        <ele>23.2</ele>
      </trkpt>
      <trkpt lat="47.78163" lon="-1.85235">
        <ele>23.4</ele>
      </trkpt>
      <trkpt lat="47.78162" lon="-1.85233">
        <ele>23.5</ele>
      </trkpt>
      <trkpt lat="47.78161" lon="-1.85232">
        <ele>23.7</ele>
      </trkpt>
      <trkpt lat="47.7816" lon="-1.85231">
        <ele>23.9</ele>
      </trkpt>
      <trkpt lat="47.78158" lon="-1.8523">
        <ele>24.1</ele>
      </trkpt>
      <trkpt lat="47.78157" lon="-1.85229">
        <ele>24.2</ele>
      </trkpt>
      <trkpt lat="47.78156" lon="-1.85227">
        <ele>24.4</ele>
      </trkpt>
      <trkpt lat="47.78155" lon="-1.85224">
        <ele>24.5</ele>
      </trkpt>
      <trkpt lat="47.78154" lon="-1.85221">
        <ele>24.6</ele>
      </trkpt>
      <trkpt lat="47.78153" lon="-1.85218">
        <ele>24.7</ele>
      </trkpt>
      <trkpt lat="47.78153" lon="-1.85216">
        <ele>24.8</ele>
      </trkpt>
      <trkpt lat="47.78153" lon="-1.85212">
        <ele>24.7</ele>
      </trkpt>
      <trkpt lat="47.78154" lon="-1.85207">
        <ele>24.7</ele>
      </trkpt>
      <trkpt lat="47.78155" lon="-1.85202">
        <ele>24.5</ele>
      </trkpt>
      <trkpt lat="47.78156" lon="-1.85196">
        <ele>24.5</ele>
      </trkpt>
      <trkpt lat="47.78157" lon="-1.85189">
        <ele>24.4</ele>
      </trkpt>
      <trkpt lat="47.78158" lon="-1.85182">
        <ele>24.3</ele>
      </trkpt>
      <trkpt lat="47.78158" lon="-1.85176">
        <ele>24.2</ele>
      </trkpt>
      <trkpt lat="47.78158" lon="-1.8517">
        <ele>24.2</ele>
      </trkpt>
      <trkpt lat="47.78157" lon="-1.85164">
        <ele>24.3</ele>
      </trkpt>
      <trkpt lat="47.78157" lon="-1.85159">
        <ele>24.3</ele>
      </trkpt>
      <trkpt lat="47.78157" lon="-1.85154">
        <ele>24.2</ele>
      </trkpt>
      <trkpt lat="47.78157" lon="-1.85151">
        <ele>24.2</ele>
      </trkpt>
      <trkpt lat="47.78157" lon="-1.85147">
        <ele>24.2</ele>
      </trkpt>
      <trkpt lat="47.78158" lon="-1.85145">
        <ele>24.1</ele>
      </trkpt>
      <trkpt lat="47.78158" lon="-1.85145">
        <ele>24.1</ele>
      </trkpt>
      <trkpt lat="47.78158" lon="-1.85145">
        <ele>24.1</ele>
      </trkpt>
      <trkpt lat="47.78158" lon="-1.85145">
        <ele>24.1</ele>
      </trkpt>
      <trkpt lat="47.78158" lon="-1.85145">
        <ele>24.1</ele>
      </trkpt>
      <trkpt lat="47.78158" lon="-1.85145">
        <ele>24.1</ele>
      </trkpt>
      <trkpt lat="47.78158" lon="-1.85145">
        <ele>24.1</ele>
      </trkpt>
      <trkpt lat="47.78158" lon="-1.85145">
        <ele>24.1</ele>
      </trkpt>
      <trkpt lat="47.78158" lon="-1.85145">
        <ele>24.1</ele>
      </trkpt>
      <trkpt lat="47.78158" lon="-1.85145">
        <ele>24.1</ele>
      </trkpt>
      <trkpt lat="47.78158" lon="-1.85145">
        <ele>24.1</ele>
      </trkpt>
      <trkpt lat="47.78158" lon="-1.85143">
        <ele>24.1</ele>
      </trkpt>
      <trkpt lat="47.78158" lon="-1.85142">
        <ele>24</ele>
      </trkpt>
      <trkpt lat="47.78158" lon="-1.85139">
        <ele>24</ele>
      </trkpt>
      <trkpt lat="47.78158" lon="-1.85135">
        <ele>24</ele>
      </trkpt>
      <trkpt lat="47.78158" lon="-1.85131">
        <ele>24</ele>
      </trkpt>
      <trkpt lat="47.78158" lon="-1.85126">
        <ele>23.9</ele>
      </trkpt>
      <trkpt lat="47.7816" lon="-1.85121">
        <ele>23.6</ele>
      </trkpt>
      <trkpt lat="47.78161" lon="-1.85117">
        <ele>23.4</ele>
      </trkpt>
      <trkpt lat="47.78161" lon="-1.85112">
        <ele>23.2</ele>
      </trkpt>
      <trkpt lat="47.78162" lon="-1.85109">
        <ele>23.1</ele>
      </trkpt>
      <trkpt lat="47.78162" lon="-1.85106">
        <ele>23</ele>
      </trkpt>
      <trkpt lat="47.78163" lon="-1.85103">
        <ele>22.9</ele>
      </trkpt>
      <trkpt lat="47.78162" lon="-1.85099">
        <ele>22.9</ele>
      </trkpt>
      <trkpt lat="47.78163" lon="-1.85096">
        <ele>22.9</ele>
      </trkpt>
      <trkpt lat="47.78164" lon="-1.85091">
        <ele>22.5</ele>
      </trkpt>
      <trkpt lat="47.78163" lon="-1.85087">
        <ele>22.7</ele>
      </trkpt>
      <trkpt lat="47.78162" lon="-1.85083">
        <ele>22.9</ele>
      </trkpt>
      <trkpt lat="47.78161" lon="-1.85079">
        <ele>22.9</ele>
      </trkpt>
      <trkpt lat="47.78162" lon="-1.85076">
        <ele>22.7</ele>
      </trkpt>
      <trkpt lat="47.78164" lon="-1.85072">
        <ele>22.2</ele>
      </trkpt>
      <trkpt lat="47.78166" lon="-1.85069">
        <ele>21.7</ele>
      </trkpt>
      <trkpt lat="47.78167" lon="-1.85066">
        <ele>21.5</ele>
      </trkpt>
      <trkpt lat="47.78167" lon="-1.85063">
        <ele>21.4</ele>
      </trkpt>
      <trkpt lat="47.78167" lon="-1.8506">
        <ele>21.5</ele>
      </trkpt>
      <trkpt lat="47.78169" lon="-1.85056">
        <ele>21</ele>
      </trkpt>
      <trkpt lat="47.78173" lon="-1.85053">
        <ele>20.5</ele>
      </trkpt>
      <trkpt lat="47.78175" lon="-1.85049">
        <ele>20.2</ele>
      </trkpt>
      <trkpt lat="47.78178" lon="-1.85045">
        <ele>19.7</ele>
      </trkpt>
      <trkpt lat="47.7818" lon="-1.85042">
        <ele>19.3</ele>
      </trkpt>
      <trkpt lat="47.78183" lon="-1.85038">
        <ele>18.8</ele>
      </trkpt>
      <trkpt lat="47.78186" lon="-1.85034">
        <ele>18.3</ele>
      </trkpt>
      <trkpt lat="47.7819" lon="-1.85029">
        <ele>17.6</ele>
      </trkpt>
      <trkpt lat="47.78192" lon="-1.85025">
        <ele>17.2</ele>
      </trkpt>
      <trkpt lat="47.78194" lon="-1.85022">
        <ele>16.8</ele>
      </trkpt>
      <trkpt lat="47.78194" lon="-1.85019">
        <ele>16.7</ele>
      </trkpt>
      <trkpt lat="47.78194" lon="-1.85018">
        <ele>16.7</ele>
      </trkpt>
      <trkpt lat="47.78194" lon="-1.85018">
        <ele>16.7</ele>
      </trkpt>
      <trkpt lat="47.78194" lon="-1.85018">
        <ele>16.7</ele>
      </trkpt>
      <trkpt lat="47.78194" lon="-1.85018">
        <ele>16.7</ele>
      </trkpt>
      <trkpt lat="47.78194" lon="-1.85018">
        <ele>16.7</ele>
      </trkpt>
      <trkpt lat="47.78194" lon="-1.85018">
        <ele>16.7</ele>
      </trkpt>
      <trkpt lat="47.78194" lon="-1.85018">
        <ele>16.7</ele>
      </trkpt>
      <trkpt lat="47.78194" lon="-1.85018">
        <ele>16.7</ele>
      </trkpt>
      <trkpt lat="47.78194" lon="-1.85018">
        <ele>16.7</ele>
      </trkpt>
      <trkpt lat="47.78194" lon="-1.85018">
        <ele>16.7</ele>
      </trkpt>
      <trkpt lat="47.78194" lon="-1.85018">
        <ele>16.7</ele>
      </trkpt>
      <trkpt lat="47.78194" lon="-1.85018">
        <ele>16.7</ele>
      </trkpt>
      <trkpt lat="47.78194" lon="-1.85018">
        <ele>16.7</ele>
      </trkpt>
      <trkpt lat="47.78193" lon="-1.85017">
        <ele>16.8</ele>
      </trkpt>
      <trkpt lat="47.78193" lon="-1.85016">
        <ele>16.8</ele>
      </trkpt>
      <trkpt lat="47.78192" lon="-1.85016">
        <ele>16.9</ele>
      </trkpt>
      <trkpt lat="47.78191" lon="-1.85016">
        <ele>17</ele>
      </trkpt>
      <trkpt lat="47.7819" lon="-1.85016">
        <ele>17.1</ele>
      </trkpt>
      <trkpt lat="47.7819" lon="-1.85015">
        <ele>17.1</ele>
      </trkpt>
      <trkpt lat="47.7819" lon="-1.85015">
        <ele>17.1</ele>
      </trkpt>
      <trkpt lat="47.7819" lon="-1.85015">
        <ele>17.1</ele>
      </trkpt>
      <trkpt lat="47.7819" lon="-1.85015">
        <ele>17.1</ele>
      </trkpt>
      <trkpt lat="47.7819" lon="-1.85015">
        <ele>17.1</ele>
      </trkpt>
      <trkpt lat="47.7819" lon="-1.85015">
        <ele>17.1</ele>
      </trkpt>
      <trkpt lat="47.7819" lon="-1.85015">
        <ele>17.1</ele>
      </trkpt>
      <trkpt lat="47.7819" lon="-1.85015">
        <ele>17.1</ele>
      </trkpt>
      <trkpt lat="47.7819" lon="-1.85015">
        <ele>17.1</ele>
      </trkpt>
      <trkpt lat="47.7819" lon="-1.85015">
        <ele>17.1</ele>
      </trkpt>
      <trkpt lat="47.7819" lon="-1.85015">
        <ele>17.1</ele>
      </trkpt>
      <trkpt lat="47.7819" lon="-1.85015">
        <ele>17.1</ele>
      </trkpt>
      <trkpt lat="47.7819" lon="-1.85015">
        <ele>17.1</ele>
      </trkpt>
      <trkpt lat="47.7819" lon="-1.85015">
        <ele>17.1</ele>
      </trkpt>
      <trkpt lat="47.7819" lon="-1.85015">
        <ele>17.1</ele>
      </trkpt>
      <trkpt lat="47.7819" lon="-1.85015">
        <ele>17.1</ele>
      </trkpt>
      <trkpt lat="47.7819" lon="-1.85015">
        <ele>17.2</ele>
      </trkpt>
      <trkpt lat="47.7819" lon="-1.85015">
        <ele>17.2</ele>
      </trkpt>
      <trkpt lat="47.7819" lon="-1.85016">
        <ele>17.2</ele>
      </trkpt>
      <trkpt lat="47.78188" lon="-1.85017">
        <ele>17.5</ele>
      </trkpt>
      <trkpt lat="47.78186" lon="-1.85018">
        <ele>17.8</ele>
      </trkpt>
      <trkpt lat="47.78185" lon="-1.8502">
        <ele>18</ele>
      </trkpt>
      <trkpt lat="47.78184" lon="-1.85022">
        <ele>18.2</ele>
      </trkpt>
      <trkpt lat="47.78182" lon="-1.85024">
        <ele>18.5</ele>
      </trkpt>
      <trkpt lat="47.7818" lon="-1.85026">
        <ele>18.9</ele>
      </trkpt>
      <trkpt lat="47.78178" lon="-1.85028">
        <ele>19.2</ele>
      </trkpt>
      <trkpt lat="47.78175" lon="-1.8503">
        <ele>19.6</ele>
      </trkpt>
      <trkpt lat="47.78173" lon="-1.85032">
        <ele>20</ele>
      </trkpt>
      <trkpt lat="47.78171" lon="-1.85034">
        <ele>20.3</ele>
      </trkpt>
      <trkpt lat="47.78169" lon="-1.85035">
        <ele>20.5</ele>
      </trkpt>
      <trkpt lat="47.78168" lon="-1.85037">
        <ele>20.7</ele>
      </trkpt>
      <trkpt lat="47.78166" lon="-1.85039">
        <ele>21</ele>
      </trkpt>
      <trkpt lat="47.78164" lon="-1.85041">
        <ele>21.5</ele>
      </trkpt>
      <trkpt lat="47.78162" lon="-1.85044">
        <ele>21.9</ele>
      </trkpt>
      <trkpt lat="47.7816" lon="-1.85048">
        <ele>22.4</ele>
      </trkpt>
      <trkpt lat="47.78158" lon="-1.85049">
        <ele>22.8</ele>
      </trkpt>
      <trkpt lat="47.78156" lon="-1.85051">
        <ele>23.2</ele>
      </trkpt>
      <trkpt lat="47.78154" lon="-1.85053">
        <ele>23.6</ele>
      </trkpt>
      <trkpt lat="47.78151" lon="-1.85057">
        <ele>24.2</ele>
      </trkpt>
      <trkpt lat="47.7815" lon="-1.85059">
        <ele>24.5</ele>
      </trkpt>
      <trkpt lat="47.78149" lon="-1.85061">
        <ele>24.7</ele>
      </trkpt>
      <trkpt lat="47.78148" lon="-1.85064">
        <ele>24.9</ele>
      </trkpt>
      <trkpt lat="47.78147" lon="-1.85069">
        <ele>25.2</ele>
      </trkpt>
      <trkpt lat="47.78148" lon="-1.85077">
        <ele>25.3</ele>
      </trkpt>
      <trkpt lat="47.78146" lon="-1.85084">
        <ele>25.7</ele>
      </trkpt>
      <trkpt lat="47.78147" lon="-1.85089">
        <ele>25.5</ele>
      </trkpt>
      <trkpt lat="47.78147" lon="-1.85095">
        <ele>25.5</ele>
      </trkpt>
      <trkpt lat="47.78146" lon="-1.851">
        <ele>25.7</ele>
      </trkpt>
      <trkpt lat="47.78145" lon="-1.85104">
        <ele>26</ele>
      </trkpt>
      <trkpt lat="47.78143" lon="-1.85107">
        <ele>26.2</ele>
      </trkpt>
      <trkpt lat="47.78143" lon="-1.85109">
        <ele>26.4</ele>
      </trkpt>
      <trkpt lat="47.78142" lon="-1.85112">
        <ele>26.5</ele>
      </trkpt>
      <trkpt lat="47.78143" lon="-1.85115">
        <ele>26.3</ele>
      </trkpt>
      <trkpt lat="47.78143" lon="-1.85117">
        <ele>26.4</ele>
      </trkpt>
      <trkpt lat="47.78142" lon="-1.85119">
        <ele>26.5</ele>
      </trkpt>
      <trkpt lat="47.78141" lon="-1.85122">
        <ele>26.7</ele>
      </trkpt>
      <trkpt lat="47.78139" lon="-1.85124">
        <ele>27</ele>
      </trkpt>
      <trkpt lat="47.78138" lon="-1.85127">
        <ele>27.2</ele>
      </trkpt>
      <trkpt lat="47.78137" lon="-1.85129">
        <ele>27.3</ele>
      </trkpt>
      <trkpt lat="47.78137" lon="-1.85132">
        <ele>27.3</ele>
      </trkpt>
      <trkpt lat="47.78137" lon="-1.85135">
        <ele>27.4</ele>
      </trkpt>
      <trkpt lat="47.78136" lon="-1.85139">
        <ele>27.4</ele>
      </trkpt>
      <trkpt lat="47.78136" lon="-1.85142">
        <ele>27.4</ele>
      </trkpt>
      <trkpt lat="47.78137" lon="-1.85146">
        <ele>27.3</ele>
      </trkpt>
      <trkpt lat="47.78139" lon="-1.8515">
        <ele>27</ele>
      </trkpt>
      <trkpt lat="47.78141" lon="-1.85155">
        <ele>26.6</ele>
      </trkpt>
      <trkpt lat="47.78143" lon="-1.85161">
        <ele>26.4</ele>
      </trkpt>
      <trkpt lat="47.78144" lon="-1.85165">
        <ele>26.3</ele>
      </trkpt>
      <trkpt lat="47.78145" lon="-1.8517">
        <ele>26.2</ele>
      </trkpt>
      <trkpt lat="47.78145" lon="-1.8517">
        <ele>26.1</ele>
      </trkpt>
      <trkpt lat="47.78145" lon="-1.85172">
        <ele>26</ele>
      </trkpt>
      <trkpt lat="47.78146" lon="-1.85174">
        <ele>25.9</ele>
      </trkpt>
      <trkpt lat="47.78147" lon="-1.85178">
        <ele>25.8</ele>
      </trkpt>
      <trkpt lat="47.78147" lon="-1.85183">
        <ele>25.7</ele>
      </trkpt>
      <trkpt lat="47.78146" lon="-1.85186">
        <ele>25.8</ele>
      </trkpt>
      <trkpt lat="47.78146" lon="-1.85189">
        <ele>25.9</ele>
      </trkpt>
      <trkpt lat="47.78146" lon="-1.85192">
        <ele>25.8</ele>
      </trkpt>
      <trkpt lat="47.78147" lon="-1.85197">
        <ele>25.6</ele>
      </trkpt>
      <trkpt lat="47.78147" lon="-1.85199">
        <ele>25.6</ele>
      </trkpt>
      <trkpt lat="47.78146" lon="-1.85201">
        <ele>25.7</ele>
      </trkpt>
      <trkpt lat="47.78146" lon="-1.85204">
        <ele>25.8</ele>
      </trkpt>
      <trkpt lat="47.78145" lon="-1.85207">
        <ele>25.8</ele>
      </trkpt>
      <trkpt lat="47.78146" lon="-1.8521">
        <ele>25.7</ele>
      </trkpt>
      <trkpt lat="47.78145" lon="-1.85212">
        <ele>25.8</ele>
      </trkpt>
      <trkpt lat="47.78144" lon="-1.85215">
        <ele>25.9</ele>
      </trkpt>
      <trkpt lat="47.78143" lon="-1.85219">
        <ele>26.1</ele>
      </trkpt>
      <trkpt lat="47.78142" lon="-1.85222">
        <ele>26.1</ele>
      </trkpt>
      <trkpt lat="47.78142" lon="-1.85225">
        <ele>26.2</ele>
      </trkpt>
      <trkpt lat="47.7814" lon="-1.85227">
        <ele>26.4</ele>
      </trkpt>
      <trkpt lat="47.78138" lon="-1.85232">
        <ele>26.5</ele>
      </trkpt>
      <trkpt lat="47.78138" lon="-1.85235">
        <ele>26.6</ele>
      </trkpt>
      <trkpt lat="47.78138" lon="-1.85237">
        <ele>26.6</ele>
      </trkpt>
      <trkpt lat="47.78138" lon="-1.85238">
        <ele>26.6</ele>
      </trkpt>
      <trkpt lat="47.78137" lon="-1.85238">
        <ele>26.6</ele>
      </trkpt>
      <trkpt lat="47.78136" lon="-1.8524">
        <ele>26.7</ele>
      </trkpt>
      <trkpt lat="47.78136" lon="-1.85242">
        <ele>26.8</ele>
      </trkpt>
      <trkpt lat="47.78135" lon="-1.85245">
        <ele>26.8</ele>
      </trkpt>
      <trkpt lat="47.78136" lon="-1.85247">
        <ele>26.7</ele>
      </trkpt>
      <trkpt lat="47.78136" lon="-1.85249">
        <ele>26.7</ele>
      </trkpt>
      <trkpt lat="47.78136" lon="-1.85251">
        <ele>26.7</ele>
      </trkpt>
      <trkpt lat="47.78137" lon="-1.85253">
        <ele>26.7</ele>
      </trkpt>
      <trkpt lat="47.78136" lon="-1.85255">
        <ele>26.9</ele>
      </trkpt>
      <trkpt lat="47.78136" lon="-1.85257">
        <ele>26.9</ele>
      </trkpt>
      <trkpt lat="47.78136" lon="-1.85259">
        <ele>27</ele>
      </trkpt>
      <trkpt lat="47.78136" lon="-1.85261">
        <ele>27.1</ele>
      </trkpt>
      <trkpt lat="47.78135" lon="-1.85263">
        <ele>27.3</ele>
      </trkpt>
      <trkpt lat="47.78134" lon="-1.85266">
        <ele>27.5</ele>
      </trkpt>
      <trkpt lat="47.78133" lon="-1.85268">
        <ele>27.6</ele>
      </trkpt>
      <trkpt lat="47.78132" lon="-1.85271">
        <ele>27.8</ele>
      </trkpt>
      <trkpt lat="47.78132" lon="-1.85274">
        <ele>28</ele>
      </trkpt>
      <trkpt lat="47.78132" lon="-1.85276">
        <ele>28.1</ele>
      </trkpt>
      <trkpt lat="47.78131" lon="-1.85279">
        <ele>28.3</ele>
      </trkpt>
      <trkpt lat="47.7813" lon="-1.85284">
        <ele>28.6</ele>
      </trkpt>
      <trkpt lat="47.7813" lon="-1.85287">
        <ele>28.8</ele>
      </trkpt>
      <trkpt lat="47.7813" lon="-1.8529">
        <ele>28.8</ele>
      </trkpt>
      <trkpt lat="47.7813" lon="-1.85292">
        <ele>28.9</ele>
      </trkpt>
      <trkpt lat="47.78129" lon="-1.85295">
        <ele>29.2</ele>
      </trkpt>
      <trkpt lat="47.78127" lon="-1.85298">
        <ele>29.5</ele>
      </trkpt>
      <trkpt lat="47.78125" lon="-1.853">
        <ele>29.8</ele>
      </trkpt>
      <trkpt lat="47.78124" lon="-1.85303">
        <ele>30</ele>
      </trkpt>
      <trkpt lat="47.78123" lon="-1.85304">
        <ele>30.1</ele>
      </trkpt>
      <trkpt lat="47.78123" lon="-1.85305">
        <ele>30.2</ele>
      </trkpt>
      <trkpt lat="47.78123" lon="-1.85305">
        <ele>30.3</ele>
      </trkpt>
      <trkpt lat="47.78121" lon="-1.85304">
        <ele>30.4</ele>
      </trkpt>
      <trkpt lat="47.7812" lon="-1.85303">
        <ele>30.5</ele>
      </trkpt>
      <trkpt lat="47.78119" lon="-1.85302">
        <ele>30.6</ele>
      </trkpt>
      <trkpt lat="47.7812" lon="-1.85301">
        <ele>30.5</ele>
      </trkpt>
      <trkpt lat="47.7812" lon="-1.85301">
        <ele>30.4</ele>
      </trkpt>
      <trkpt lat="47.78118" lon="-1.85299">
        <ele>30.5</ele>
      </trkpt>
      <trkpt lat="47.78117" lon="-1.85295">
        <ele>30.5</ele>
      </trkpt>
      <trkpt lat="47.78117" lon="-1.85293">
        <ele>30.5</ele>
      </trkpt>
      <trkpt lat="47.78118" lon="-1.85289">
        <ele>30.3</ele>
      </trkpt>
      <trkpt lat="47.78117" lon="-1.85285">
        <ele>30.2</ele>
      </trkpt>
      <trkpt lat="47.78116" lon="-1.85282">
        <ele>30.2</ele>
      </trkpt>
      <trkpt lat="47.78116" lon="-1.8528">
        <ele>30.2</ele>
      </trkpt>
      <trkpt lat="47.78116" lon="-1.85277">
        <ele>30.1</ele>
      </trkpt>
      <trkpt lat="47.78115" lon="-1.85273">
        <ele>30.1</ele>
      </trkpt>
      <trkpt lat="47.78114" lon="-1.85271">
        <ele>30</ele>
      </trkpt>
      <trkpt lat="47.78114" lon="-1.85269">
        <ele>30</ele>
      </trkpt>
      <trkpt lat="47.78114" lon="-1.85266">
        <ele>29.9</ele>
      </trkpt>
      <trkpt lat="47.78114" lon="-1.85263">
        <ele>29.8</ele>
      </trkpt>
      <trkpt lat="47.78113" lon="-1.85259">
        <ele>29.7</ele>
      </trkpt>
      <trkpt lat="47.78114" lon="-1.85256">
        <ele>29.6</ele>
      </trkpt>
      <trkpt lat="47.78113" lon="-1.85253">
        <ele>29.6</ele>
      </trkpt>
      <trkpt lat="47.78113" lon="-1.8525">
        <ele>29.5</ele>
      </trkpt>
      <trkpt lat="47.78113" lon="-1.85248">
        <ele>29.4</ele>
      </trkpt>
      <trkpt lat="47.78115" lon="-1.85242">
        <ele>29.3</ele>
      </trkpt>
      <trkpt lat="47.78116" lon="-1.85239">
        <ele>29.2</ele>
      </trkpt>
      <trkpt lat="47.78116" lon="-1.85234">
        <ele>29.3</ele>
      </trkpt>
      <trkpt lat="47.78115" lon="-1.8523">
        <ele>29.5</ele>
      </trkpt>
      <trkpt lat="47.78114" lon="-1.85225">
        <ele>29.7</ele>
      </trkpt>
      <trkpt lat="47.78114" lon="-1.85222">
        <ele>29.8</ele>
      </trkpt>
      <trkpt lat="47.78114" lon="-1.85217">
        <ele>29.8</ele>
      </trkpt>
      <trkpt lat="47.78114" lon="-1.85212">
        <ele>29.8</ele>
      </trkpt>
      <trkpt lat="47.78115" lon="-1.85206">
        <ele>29.9</ele>
      </trkpt>
      <trkpt lat="47.78116" lon="-1.85202">
        <ele>29.8</ele>
      </trkpt>
      <trkpt lat="47.78117" lon="-1.85198">
        <ele>29.7</ele>
      </trkpt>
      <trkpt lat="47.78117" lon="-1.85193">
        <ele>29.7</ele>
      </trkpt>
      <trkpt lat="47.78118" lon="-1.85188">
        <ele>29.7</ele>
      </trkpt>
      <trkpt lat="47.78118" lon="-1.85183">
        <ele>29.8</ele>
      </trkpt>
      <trkpt lat="47.78117" lon="-1.85179">
        <ele>30</ele>
      </trkpt>
      <trkpt lat="47.78116" lon="-1.85175">
        <ele>30.2</ele>
      </trkpt>
      <trkpt lat="47.78114" lon="-1.85171">
        <ele>30.6</ele>
      </trkpt>
      <trkpt lat="47.78112" lon="-1.85168">
        <ele>30.9</ele>
      </trkpt>
      <trkpt lat="47.78114" lon="-1.85163">
        <ele>30.6</ele>
      </trkpt>
      <trkpt lat="47.78114" lon="-1.85159">
        <ele>30.7</ele>
      </trkpt>
      <trkpt lat="47.78117" lon="-1.85152">
        <ele>30.3</ele>
      </trkpt>
      <trkpt lat="47.7812" lon="-1.85145">
        <ele>29.9</ele>
      </trkpt>
      <trkpt lat="47.7812" lon="-1.8514">
        <ele>29.9</ele>
      </trkpt>
      <trkpt lat="47.7812" lon="-1.85135">
        <ele>29.9</ele>
      </trkpt>
      <trkpt lat="47.78119" lon="-1.8513">
        <ele>30.2</ele>
      </trkpt>
      <trkpt lat="47.78118" lon="-1.85126">
        <ele>30.4</ele>
      </trkpt>
      <trkpt lat="47.78116" lon="-1.85123">
        <ele>30.7</ele>
      </trkpt>
      <trkpt lat="47.78115" lon="-1.8512">
        <ele>30.9</ele>
      </trkpt>
      <trkpt lat="47.78114" lon="-1.85114">
        <ele>31.1</ele>
      </trkpt>
      <trkpt lat="47.78115" lon="-1.8511">
        <ele>31</ele>
      </trkpt>
      <trkpt lat="47.78116" lon="-1.85106">
        <ele>30.9</ele>
      </trkpt>
      <trkpt lat="47.78118" lon="-1.85101">
        <ele>30.6</ele>
      </trkpt>
      <trkpt lat="47.7812" lon="-1.85097">
        <ele>30.3</ele>
      </trkpt>
      <trkpt lat="47.78122" lon="-1.85091">
        <ele>30</ele>
      </trkpt>
      <trkpt lat="47.78123" lon="-1.85085">
        <ele>29.8</ele>
      </trkpt>
      <trkpt lat="47.78125" lon="-1.85079">
        <ele>29.4</ele>
      </trkpt>
      <trkpt lat="47.78126" lon="-1.85075">
        <ele>29.2</ele>
      </trkpt>
      <trkpt lat="47.78127" lon="-1.8507">
        <ele>28.9</ele>
      </trkpt>
      <trkpt lat="47.78129" lon="-1.85064">
        <ele>28.4</ele>
      </trkpt>
      <trkpt lat="47.78132" lon="-1.85058">
        <ele>27.7</ele>
      </trkpt>
      <trkpt lat="47.78135" lon="-1.85052">
        <ele>27.1</ele>
      </trkpt>
      <trkpt lat="47.78137" lon="-1.85045">
        <ele>26.5</ele>
      </trkpt>
      <trkpt lat="47.7814" lon="-1.8504">
        <ele>25.9</ele>
      </trkpt>
      <trkpt lat="47.78144" lon="-1.85032">
        <ele>25</ele>
      </trkpt>
      <trkpt lat="47.78147" lon="-1.85024">
        <ele>24.3</ele>
      </trkpt>
      <trkpt lat="47.78152" lon="-1.85017">
        <ele>23.2</ele>
      </trkpt>
      <trkpt lat="47.78157" lon="-1.8501">
        <ele>22.1</ele>
      </trkpt>
      <trkpt lat="47.7816" lon="-1.85005">
        <ele>21.4</ele>
      </trkpt>
      <trkpt lat="47.78164" lon="-1.85">
        <ele>20.5</ele>
      </trkpt>
      <trkpt lat="47.78169" lon="-1.84993">
        <ele>19.3</ele>
      </trkpt>
      <trkpt lat="47.78173" lon="-1.84989">
        <ele>18.6</ele>
      </trkpt>
      <trkpt lat="47.78176" lon="-1.84986">
        <ele>18.1</ele>
      </trkpt>
      <trkpt lat="47.78178" lon="-1.84982">
        <ele>17.6</ele>
      </trkpt>
      <trkpt lat="47.78179" lon="-1.84977">
        <ele>17.2</ele>
      </trkpt>
      <trkpt lat="47.78179" lon="-1.84972">
        <ele>17</ele>
      </trkpt>
      <trkpt lat="47.78177" lon="-1.84969">
        <ele>17.1</ele>
      </trkpt>
      <trkpt lat="47.78176" lon="-1.84966">
        <ele>17.1</ele>
      </trkpt>
      <trkpt lat="47.78175" lon="-1.84964">
        <ele>17.2</ele>
      </trkpt>
      <trkpt lat="47.78173" lon="-1.84961">
        <ele>17.3</ele>
      </trkpt>
      <trkpt lat="47.78172" lon="-1.8496">
        <ele>17.4</ele>
      </trkpt>
      <trkpt lat="47.7817" lon="-1.84958">
        <ele>17.5</ele>
      </trkpt>
      <trkpt lat="47.78169" lon="-1.84956">
        <ele>17.5</ele>
      </trkpt>
      <trkpt lat="47.78167" lon="-1.84955">
        <ele>17.9</ele>
      </trkpt>
      <trkpt lat="47.78164" lon="-1.84953">
        <ele>18.3</ele>
      </trkpt>
      <trkpt lat="47.78161" lon="-1.84951">
        <ele>18.7</ele>
      </trkpt>
      <trkpt lat="47.7816" lon="-1.8495">
        <ele>19</ele>
      </trkpt>
      <trkpt lat="47.78158" lon="-1.84949">
        <ele>19.2</ele>
      </trkpt>
      <trkpt lat="47.78156" lon="-1.84948">
        <ele>19.5</ele>
      </trkpt>
      <trkpt lat="47.78155" lon="-1.84948">
        <ele>19.8</ele>
      </trkpt>
      <trkpt lat="47.78153" lon="-1.84946">
        <ele>20.1</ele>
      </trkpt>
      <trkpt lat="47.78151" lon="-1.84945">
        <ele>20.3</ele>
      </trkpt>
      <trkpt lat="47.7815" lon="-1.84943">
        <ele>20.6</ele>
      </trkpt>
      <trkpt lat="47.78148" lon="-1.84942">
        <ele>20.9</ele>
      </trkpt>
      <trkpt lat="47.78146" lon="-1.84941">
        <ele>21.1</ele>
      </trkpt>
      <trkpt lat="47.78144" lon="-1.8494">
        <ele>21.4</ele>
      </trkpt>
      <trkpt lat="47.78142" lon="-1.8494">
        <ele>21.8</ele>
      </trkpt>
      <trkpt lat="47.7814" lon="-1.84939">
        <ele>22.1</ele>
      </trkpt>
      <trkpt lat="47.78139" lon="-1.84938">
        <ele>22.4</ele>
      </trkpt>
      <trkpt lat="47.78138" lon="-1.84938">
        <ele>22.6</ele>
      </trkpt>
      <trkpt lat="47.78137" lon="-1.84937">
        <ele>22.8</ele>
      </trkpt>
      <trkpt lat="47.78135" lon="-1.84937">
        <ele>23</ele>
      </trkpt>
      <trkpt lat="47.78133" lon="-1.84936">
        <ele>23.4</ele>
      </trkpt>
      <trkpt lat="47.78131" lon="-1.84934">
        <ele>23.7</ele>
      </trkpt>
      <trkpt lat="47.78129" lon="-1.84933">
        <ele>24</ele>
      </trkpt>
      <trkpt lat="47.78128" lon="-1.84932">
        <ele>24.2</ele>
      </trkpt>
      <trkpt lat="47.78127" lon="-1.84932">
        <ele>24.4</ele>
      </trkpt>
      <trkpt lat="47.78125" lon="-1.8493">
        <ele>24.7</ele>
      </trkpt>
      <trkpt lat="47.78122" lon="-1.84929">
        <ele>25.1</ele>
      </trkpt>
      <trkpt lat="47.78121" lon="-1.84927">
        <ele>25.4</ele>
      </trkpt>
      <trkpt lat="47.78119" lon="-1.84926">
        <ele>25.6</ele>
      </trkpt>
      <trkpt lat="47.78117" lon="-1.84925">
        <ele>25.9</ele>
      </trkpt>
      <trkpt lat="47.78116" lon="-1.84924">
        <ele>26.2</ele>
      </trkpt>
      <trkpt lat="47.78114" lon="-1.84923">
        <ele>26.5</ele>
      </trkpt>
      <trkpt lat="47.78112" lon="-1.84922">
        <ele>26.8</ele>
      </trkpt>
      <trkpt lat="47.78111" lon="-1.84922">
        <ele>27</ele>
      </trkpt>
      <trkpt lat="47.78109" lon="-1.8492">
        <ele>27.3</ele>
      </trkpt>
      <trkpt lat="47.78107" lon="-1.84919">
        <ele>27.6</ele>
      </trkpt>
      <trkpt lat="47.78105" lon="-1.84917">
        <ele>27.9</ele>
      </trkpt>
      <trkpt lat="47.78103" lon="-1.84916">
        <ele>28.1</ele>
      </trkpt>
      <trkpt lat="47.78101" lon="-1.84915">
        <ele>28.4</ele>
      </trkpt>
      <trkpt lat="47.781" lon="-1.84914">
        <ele>28.6</ele>
      </trkpt>
      <trkpt lat="47.78098" lon="-1.84912">
        <ele>28.9</ele>
      </trkpt>
      <trkpt lat="47.78096" lon="-1.84911">
        <ele>29.2</ele>
      </trkpt>
      <trkpt lat="47.78094" lon="-1.84911">
        <ele>29.6</ele>
      </trkpt>
      <trkpt lat="47.7809" lon="-1.84908">
        <ele>30.2</ele>
      </trkpt>
      <trkpt lat="47.78087" lon="-1.84906">
        <ele>30.6</ele>
      </trkpt>
      <trkpt lat="47.78087" lon="-1.84906">
        <ele>30.6</ele>
      </trkpt>
      <trkpt lat="47.78084" lon="-1.84904">
        <ele>31</ele>
      </trkpt>
      <trkpt lat="47.78082" lon="-1.84903">
        <ele>31.2</ele>
      </trkpt>
      <trkpt lat="47.7808" lon="-1.84902">
        <ele>31.3</ele>
      </trkpt>
      <trkpt lat="47.78078" lon="-1.84901">
        <ele>31.5</ele>
      </trkpt>
      <trkpt lat="47.78076" lon="-1.849">
        <ele>31.6</ele>
      </trkpt>
      <trkpt lat="47.78074" lon="-1.84899">
        <ele>31.7</ele>
      </trkpt>
      <trkpt lat="47.7807" lon="-1.84897">
        <ele>32.1</ele>
      </trkpt>
      <trkpt lat="47.78066" lon="-1.84894">
        <ele>32.3</ele>
      </trkpt>
      <trkpt lat="47.78064" lon="-1.84892">
        <ele>32.4</ele>
      </trkpt>
      <trkpt lat="47.78063" lon="-1.84892">
        <ele>32.4</ele>
      </trkpt>
      <trkpt lat="47.78062" lon="-1.84891">
        <ele>32.5</ele>
      </trkpt>
      <trkpt lat="47.7806" lon="-1.84889">
        <ele>32.6</ele>
      </trkpt>
      <trkpt lat="47.78058" lon="-1.84888">
        <ele>32.7</ele>
      </trkpt>
      <trkpt lat="47.78057" lon="-1.84888">
        <ele>32.9</ele>
      </trkpt>
      <trkpt lat="47.78055" lon="-1.84886">
        <ele>33</ele>
      </trkpt>
      <trkpt lat="47.78053" lon="-1.84885">
        <ele>33.1</ele>
      </trkpt>
      <trkpt lat="47.78051" lon="-1.84884">
        <ele>33.3</ele>
      </trkpt>
      <trkpt lat="47.78048" lon="-1.84882">
        <ele>33.5</ele>
      </trkpt>
      <trkpt lat="47.78046" lon="-1.84881">
        <ele>33.7</ele>
      </trkpt>
      <trkpt lat="47.78044" lon="-1.8488">
        <ele>33.8</ele>
      </trkpt>
      <trkpt lat="47.78042" lon="-1.84879">
        <ele>33.9</ele>
      </trkpt>
      <trkpt lat="47.7804" lon="-1.84878">
        <ele>34.1</ele>
      </trkpt>
      <trkpt lat="47.78038" lon="-1.84877">
        <ele>34.3</ele>
      </trkpt>
      <trkpt lat="47.78036" lon="-1.84876">
        <ele>34.4</ele>
      </trkpt>
      <trkpt lat="47.78034" lon="-1.84875">
        <ele>34.6</ele>
      </trkpt>
      <trkpt lat="47.78031" lon="-1.84873">
        <ele>34.8</ele>
      </trkpt>
      <trkpt lat="47.7803" lon="-1.84872">
        <ele>34.9</ele>
      </trkpt>
      <trkpt lat="47.78027" lon="-1.8487">
        <ele>35.1</ele>
      </trkpt>
      <trkpt lat="47.78026" lon="-1.84869">
        <ele>35.2</ele>
      </trkpt>
      <trkpt lat="47.78024" lon="-1.84868">
        <ele>35.3</ele>
      </trkpt>
      <trkpt lat="47.78023" lon="-1.84868">
        <ele>35.5</ele>
      </trkpt>
      <trkpt lat="47.78021" lon="-1.8487">
        <ele>35.7</ele>
      </trkpt>
      <trkpt lat="47.78021" lon="-1.84872">
        <ele>36</ele>
      </trkpt>
      <trkpt lat="47.7802" lon="-1.84876">
        <ele>36.2</ele>
      </trkpt>
      <trkpt lat="47.78019" lon="-1.84878">
        <ele>36.5</ele>
      </trkpt>
      <trkpt lat="47.78019" lon="-1.84881">
        <ele>36.7</ele>
      </trkpt>
      <trkpt lat="47.78018" lon="-1.84883">
        <ele>37</ele>
      </trkpt>
      <trkpt lat="47.78017" lon="-1.84885">
        <ele>37.2</ele>
      </trkpt>
      <trkpt lat="47.78016" lon="-1.84887">
        <ele>37.4</ele>
      </trkpt>
      <trkpt lat="47.78015" lon="-1.84888">
        <ele>37.5</ele>
      </trkpt>
      <trkpt lat="47.78015" lon="-1.84888">
        <ele>37.6</ele>
      </trkpt>
      <trkpt lat="47.78014" lon="-1.84888">
        <ele>37.7</ele>
      </trkpt>
      <trkpt lat="47.78013" lon="-1.84888">
        <ele>37.8</ele>
      </trkpt>
      <trkpt lat="47.78012" lon="-1.84888">
        <ele>38</ele>
      </trkpt>
      <trkpt lat="47.78011" lon="-1.84888">
        <ele>38.1</ele>
      </trkpt>
      <trkpt lat="47.78009" lon="-1.84888">
        <ele>38.2</ele>
      </trkpt>
      <trkpt lat="47.78007" lon="-1.84888">
        <ele>38.5</ele>
      </trkpt>
      <trkpt lat="47.78005" lon="-1.84888">
        <ele>38.7</ele>
      </trkpt>
      <trkpt lat="47.78003" lon="-1.84888">
        <ele>38.9</ele>
      </trkpt>
      <trkpt lat="47.78002" lon="-1.84887">
        <ele>39</ele>
      </trkpt>
      <trkpt lat="47.77999" lon="-1.84885">
        <ele>39.3</ele>
      </trkpt>
      <trkpt lat="47.77998" lon="-1.84882">
        <ele>39.6</ele>
      </trkpt>
      <trkpt lat="47.77996" lon="-1.8488">
        <ele>39.9</ele>
      </trkpt>
      <trkpt lat="47.77994" lon="-1.84878">
        <ele>40.3</ele>
      </trkpt>
      <trkpt lat="47.77992" lon="-1.84877">
        <ele>40.6</ele>
      </trkpt>
      <trkpt lat="47.77991" lon="-1.84876">
        <ele>41</ele>
      </trkpt>
      <trkpt lat="47.77989" lon="-1.84876">
        <ele>41.5</ele>
      </trkpt>
      <trkpt lat="47.77986" lon="-1.84877">
        <ele>42.1</ele>
      </trkpt>
      <trkpt lat="47.77985" lon="-1.84879">
        <ele>42.6</ele>
      </trkpt>
      <trkpt lat="47.77983" lon="-1.8488">
        <ele>43.1</ele>
      </trkpt>
      <trkpt lat="47.77981" lon="-1.84881">
        <ele>43.7</ele>
      </trkpt>
      <trkpt lat="47.77979" lon="-1.84881">
        <ele>44.2</ele>
      </trkpt>
      <trkpt lat="47.77978" lon="-1.84882">
        <ele>44.6</ele>
      </trkpt>
      <trkpt lat="47.77976" lon="-1.84883">
        <ele>45.1</ele>
      </trkpt>
      <trkpt lat="47.77975" lon="-1.84883">
        <ele>45.5</ele>
      </trkpt>
      <trkpt lat="47.77973" lon="-1.84883">
        <ele>46</ele>
      </trkpt>
      <trkpt lat="47.77971" lon="-1.84882">
        <ele>46.5</ele>
      </trkpt>
      <trkpt lat="47.77969" lon="-1.84881">
        <ele>46.7</ele>
      </trkpt>
      <trkpt lat="47.77969" lon="-1.84878">
        <ele>46.8</ele>
      </trkpt>
      <trkpt lat="47.77967" lon="-1.84875">
        <ele>46.9</ele>
      </trkpt>
      <trkpt lat="47.77966" lon="-1.84871">
        <ele>47</ele>
      </trkpt>
      <trkpt lat="47.77965" lon="-1.84869">
        <ele>47.2</ele>
      </trkpt>
      <trkpt lat="47.77964" lon="-1.84867">
        <ele>47.3</ele>
      </trkpt>
      <trkpt lat="47.77963" lon="-1.84866">
        <ele>47.5</ele>
      </trkpt>
      <trkpt lat="47.77961" lon="-1.84866">
        <ele>47.9</ele>
      </trkpt>
      <trkpt lat="47.77961" lon="-1.84868">
        <ele>48.2</ele>
      </trkpt>
      <trkpt lat="47.7796" lon="-1.8487">
        <ele>48.5</ele>
      </trkpt>
      <trkpt lat="47.7796" lon="-1.84872">
        <ele>48.7</ele>
      </trkpt>
      <trkpt lat="47.77959" lon="-1.84874">
        <ele>49</ele>
      </trkpt>
      <trkpt lat="47.77958" lon="-1.84875">
        <ele>49.3</ele>
      </trkpt>
      <trkpt lat="47.77958" lon="-1.84876">
        <ele>49.5</ele>
      </trkpt>
      <trkpt lat="47.77957" lon="-1.84878">
        <ele>49.8</ele>
      </trkpt>
      <trkpt lat="47.77956" lon="-1.8488">
        <ele>50.3</ele>
      </trkpt>
      <trkpt lat="47.77954" lon="-1.84882">
        <ele>50.8</ele>
      </trkpt>
      <trkpt lat="47.77953" lon="-1.84884">
        <ele>51.2</ele>
      </trkpt>
      <trkpt lat="47.77952" lon="-1.84886">
        <ele>51.6</ele>
      </trkpt>
      <trkpt lat="47.77951" lon="-1.84887">
        <ele>51.9</ele>
      </trkpt>
      <trkpt lat="47.7795" lon="-1.84887">
        <ele>52.3</ele>
      </trkpt>
      <trkpt lat="47.77949" lon="-1.84888">
        <ele>52.6</ele>
      </trkpt>
      <trkpt lat="47.77947" lon="-1.84887">
        <ele>52.9</ele>
      </trkpt>
      <trkpt lat="47.77946" lon="-1.84885">
        <ele>53</ele>
      </trkpt>
      <trkpt lat="47.77946" lon="-1.84883">
        <ele>53.1</ele>
      </trkpt>
      <trkpt lat="47.77945" lon="-1.8488">
        <ele>53.1</ele>
      </trkpt>
      <trkpt lat="47.77944" lon="-1.84879">
        <ele>53.3</ele>
      </trkpt>
      <trkpt lat="47.77942" lon="-1.84878">
        <ele>53.7</ele>
      </trkpt>
      <trkpt lat="47.7794" lon="-1.84877">
        <ele>54</ele>
      </trkpt>
      <trkpt lat="47.77939" lon="-1.84874">
        <ele>54.2</ele>
      </trkpt>
      <trkpt lat="47.77938" lon="-1.84872">
        <ele>54.3</ele>
      </trkpt>
      <trkpt lat="47.77937" lon="-1.84871">
        <ele>54.5</ele>
      </trkpt>
      <trkpt lat="47.77936" lon="-1.84869">
        <ele>54.7</ele>
      </trkpt>
      <trkpt lat="47.77934" lon="-1.84869">
        <ele>55.1</ele>
      </trkpt>
      <trkpt lat="47.77933" lon="-1.84869">
        <ele>55.2</ele>
      </trkpt>
      <trkpt lat="47.77932" lon="-1.84868">
        <ele>55.6</ele>
      </trkpt>
      <trkpt lat="47.77929" lon="-1.84868">
        <ele>56.3</ele>
      </trkpt>
      <trkpt lat="47.77928" lon="-1.84869">
        <ele>56.6</ele>
      </trkpt>
      <trkpt lat="47.77927" lon="-1.8487">
        <ele>57</ele>
      </trkpt>
      <trkpt lat="47.77926" lon="-1.84871">
        <ele>57.3</ele>
      </trkpt>
      <trkpt lat="47.77925" lon="-1.84871">
        <ele>57.7</ele>
      </trkpt>
      <trkpt lat="47.77924" lon="-1.84872">
        <ele>58</ele>
      </trkpt>
      <trkpt lat="47.77923" lon="-1.84872">
        <ele>58.2</ele>
      </trkpt>
      <trkpt lat="47.77922" lon="-1.84872">
        <ele>58.4</ele>
      </trkpt>
      <trkpt lat="47.77921" lon="-1.84872">
        <ele>58.6</ele>
      </trkpt>
      <trkpt lat="47.7792" lon="-1.84871">
        <ele>58.9</ele>
      </trkpt>
      <trkpt lat="47.77919" lon="-1.8487">
        <ele>59</ele>
      </trkpt>
      <trkpt lat="47.77919" lon="-1.8487">
        <ele>59.1</ele>
      </trkpt>
      <trkpt lat="47.77918" lon="-1.84869">
        <ele>59.3</ele>
      </trkpt>
      <trkpt lat="47.77916" lon="-1.84868">
        <ele>59.6</ele>
      </trkpt>
      <trkpt lat="47.77915" lon="-1.84866">
        <ele>59.7</ele>
      </trkpt>
      <trkpt lat="47.77914" lon="-1.84865">
        <ele>59.9</ele>
      </trkpt>
      <trkpt lat="47.77913" lon="-1.84864">
        <ele>60</ele>
      </trkpt>
      <trkpt lat="47.77912" lon="-1.84862">
        <ele>60.1</ele>
      </trkpt>
      <trkpt lat="47.77911" lon="-1.84858">
        <ele>60.1</ele>
      </trkpt>
      <trkpt lat="47.77911" lon="-1.84856">
        <ele>59.9</ele>
      </trkpt>
      <trkpt lat="47.77911" lon="-1.84854">
        <ele>59.9</ele>
      </trkpt>
      <trkpt lat="47.77909" lon="-1.84852">
        <ele>60.1</ele>
      </trkpt>
      <trkpt lat="47.77908" lon="-1.84851">
        <ele>60.3</ele>
      </trkpt>
      <trkpt lat="47.77906" lon="-1.84849">
        <ele>60.6</ele>
      </trkpt>
      <trkpt lat="47.77905" lon="-1.84847">
        <ele>60.9</ele>
      </trkpt>
      <trkpt lat="47.77903" lon="-1.84846">
        <ele>61.2</ele>
      </trkpt>
      <trkpt lat="47.77902" lon="-1.84845">
        <ele>61.4</ele>
      </trkpt>
      <trkpt lat="47.77901" lon="-1.84844">
        <ele>61.6</ele>
      </trkpt>
      <trkpt lat="47.779" lon="-1.84843">
        <ele>61.7</ele>
      </trkpt>
      <trkpt lat="47.77899" lon="-1.84842">
        <ele>61.9</ele>
      </trkpt>
      <trkpt lat="47.77898" lon="-1.8484">
        <ele>62</ele>
      </trkpt>
      <trkpt lat="47.77898" lon="-1.84839">
        <ele>62</ele>
      </trkpt>
      <trkpt lat="47.77898" lon="-1.84837">
        <ele>61.9</ele>
      </trkpt>
      <trkpt lat="47.77897" lon="-1.84834">
        <ele>62</ele>
      </trkpt>
      <trkpt lat="47.77896" lon="-1.84833">
        <ele>62.2</ele>
      </trkpt>
      <trkpt lat="47.77894" lon="-1.84833">
        <ele>62.6</ele>
      </trkpt>
      <trkpt lat="47.77893" lon="-1.84833">
        <ele>63</ele>
      </trkpt>
      <trkpt lat="47.77891" lon="-1.84833">
        <ele>63.4</ele>
      </trkpt>
      <trkpt lat="47.7789" lon="-1.84834">
        <ele>63.6</ele>
      </trkpt>
      <trkpt lat="47.7789" lon="-1.84834">
        <ele>63.9</ele>
      </trkpt>
      <trkpt lat="47.77889" lon="-1.84834">
        <ele>64</ele>
      </trkpt>
      <trkpt lat="47.77889" lon="-1.84835">
        <ele>64.1</ele>
      </trkpt>
      <trkpt lat="47.77889" lon="-1.84835">
        <ele>64.1</ele>
      </trkpt>
      <trkpt lat="47.77889" lon="-1.84835">
        <ele>64.1</ele>
      </trkpt>
      <trkpt lat="47.77889" lon="-1.84835">
        <ele>64.1</ele>
      </trkpt>
      <trkpt lat="47.77889" lon="-1.84835">
        <ele>64.1</ele>
      </trkpt>
      <trkpt lat="47.77888" lon="-1.84835">
        <ele>64.2</ele>
      </trkpt>
      <trkpt lat="47.77887" lon="-1.84838">
        <ele>64.7</ele>
      </trkpt>
      <trkpt lat="47.77886" lon="-1.84839">
        <ele>65.1</ele>
      </trkpt>
      <trkpt lat="47.77884" lon="-1.84839">
        <ele>65.5</ele>
      </trkpt>
      <trkpt lat="47.77883" lon="-1.8484">
        <ele>65.8</ele>
      </trkpt>
      <trkpt lat="47.77883" lon="-1.8484">
        <ele>65.9</ele>
      </trkpt>
      <trkpt lat="47.77883" lon="-1.84839">
        <ele>65.9</ele>
      </trkpt>
      <trkpt lat="47.77881" lon="-1.84837">
        <ele>66.2</ele>
      </trkpt>
      <trkpt lat="47.7788" lon="-1.84835">
        <ele>66.4</ele>
      </trkpt>
      <trkpt lat="47.77879" lon="-1.84834">
        <ele>66.6</ele>
      </trkpt>
      <trkpt lat="47.77877" lon="-1.84833">
        <ele>67</ele>
      </trkpt>
      <trkpt lat="47.77876" lon="-1.84832">
        <ele>67.3</ele>
      </trkpt>
      <trkpt lat="47.77874" lon="-1.8483">
        <ele>67.7</ele>
      </trkpt>
      <trkpt lat="47.77873" lon="-1.84829">
        <ele>68</ele>
      </trkpt>
      <trkpt lat="47.77871" lon="-1.84828">
        <ele>68.3</ele>
      </trkpt>
      <trkpt lat="47.7787" lon="-1.84827">
        <ele>68.7</ele>
      </trkpt>
      <trkpt lat="47.7787" lon="-1.84825">
        <ele>68.7</ele>
      </trkpt>
      <trkpt lat="47.77871" lon="-1.84822">
        <ele>68.3</ele>
      </trkpt>
      <trkpt lat="47.77873" lon="-1.84819">
        <ele>67.7</ele>
      </trkpt>
      <trkpt lat="47.77875" lon="-1.84815">
        <ele>67.1</ele>
      </trkpt>
      <trkpt lat="47.77877" lon="-1.84811">
        <ele>66.7</ele>
      </trkpt>
      <trkpt lat="47.77876" lon="-1.84806">
        <ele>66.7</ele>
      </trkpt>
      <trkpt lat="47.77875" lon="-1.84803">
        <ele>67</ele>
      </trkpt>
      <trkpt lat="47.77873" lon="-1.848">
        <ele>67.3</ele>
      </trkpt>
      <trkpt lat="47.77872" lon="-1.84797">
        <ele>67.7</ele>
      </trkpt>
      <trkpt lat="47.7787" lon="-1.84795">
        <ele>68</ele>
      </trkpt>
      <trkpt lat="47.77869" lon="-1.84793">
        <ele>68.2</ele>
      </trkpt>
      <trkpt lat="47.77868" lon="-1.84792">
        <ele>68.6</ele>
      </trkpt>
      <trkpt lat="47.77866" lon="-1.84792">
        <ele>68.9</ele>
      </trkpt>
      <trkpt lat="47.77865" lon="-1.84792">
        <ele>69.3</ele>
      </trkpt>
      <trkpt lat="47.77863" lon="-1.84792">
        <ele>69.7</ele>
      </trkpt>
      <trkpt lat="47.77861" lon="-1.84793">
        <ele>70.1</ele>
      </trkpt>
      <trkpt lat="47.77861" lon="-1.84795">
        <ele>70.4</ele>
      </trkpt>
      <trkpt lat="47.7786" lon="-1.84797">
        <ele>70.6</ele>
      </trkpt>
      <trkpt lat="47.7786" lon="-1.84799">
        <ele>70.6</ele>
      </trkpt>
      <trkpt lat="47.77861" lon="-1.84802">
        <ele>70.5</ele>
      </trkpt>
      <trkpt lat="47.77861" lon="-1.84804">
        <ele>70.4</ele>
      </trkpt>
      <trkpt lat="47.77861" lon="-1.84806">
        <ele>70.4</ele>
      </trkpt>
      <trkpt lat="47.7786" lon="-1.84808">
        <ele>70.8</ele>
      </trkpt>
      <trkpt lat="47.77858" lon="-1.8481">
        <ele>71.2</ele>
      </trkpt>
      <trkpt lat="47.77857" lon="-1.8481">
        <ele>71.6</ele>
      </trkpt>
      <trkpt lat="47.77855" lon="-1.84808">
        <ele>72</ele>
      </trkpt>
      <trkpt lat="47.77854" lon="-1.84807">
        <ele>72.2</ele>
      </trkpt>
      <trkpt lat="47.77854" lon="-1.84804">
        <ele>72.3</ele>
      </trkpt>
      <trkpt lat="47.77852" lon="-1.84801">
        <ele>72.5</ele>
      </trkpt>
      <trkpt lat="47.77851" lon="-1.84798">
        <ele>72.8</ele>
      </trkpt>
      <trkpt lat="47.7785" lon="-1.84795">
        <ele>73.1</ele>
      </trkpt>
      <trkpt lat="47.77848" lon="-1.84792">
        <ele>73.5</ele>
      </trkpt>
      <trkpt lat="47.77846" lon="-1.84789">
        <ele>73.9</ele>
      </trkpt>
      <trkpt lat="47.77844" lon="-1.84787">
        <ele>74.2</ele>
      </trkpt>
      <trkpt lat="47.77843" lon="-1.84786">
        <ele>74.5</ele>
      </trkpt>
      <trkpt lat="47.77841" lon="-1.84786">
        <ele>74.9</ele>
      </trkpt>
      <trkpt lat="47.77839" lon="-1.84784">
        <ele>75.4</ele>
      </trkpt>
      <trkpt lat="47.77838" lon="-1.84782">
        <ele>75.7</ele>
      </trkpt>
      <trkpt lat="47.77836" lon="-1.8478">
        <ele>76.1</ele>
      </trkpt>
      <trkpt lat="47.77834" lon="-1.84779">
        <ele>76.5</ele>
      </trkpt>
      <trkpt lat="47.77832" lon="-1.84781">
        <ele>76.8</ele>
      </trkpt>
      <trkpt lat="47.77831" lon="-1.84782">
        <ele>76.9</ele>
      </trkpt>
      <trkpt lat="47.77831" lon="-1.84785">
        <ele>77</ele>
      </trkpt>
      <trkpt lat="47.7783" lon="-1.84787">
        <ele>77.1</ele>
      </trkpt>
      <trkpt lat="47.77829" lon="-1.84789">
        <ele>77.3</ele>
      </trkpt>
      <trkpt lat="47.77828" lon="-1.8479">
        <ele>77.4</ele>
      </trkpt>
      <trkpt lat="47.77827" lon="-1.84791">
        <ele>77.5</ele>
      </trkpt>
      <trkpt lat="47.77826" lon="-1.84792">
        <ele>77.6</ele>
      </trkpt>
      <trkpt lat="47.77825" lon="-1.84791">
        <ele>77.7</ele>
      </trkpt>
      <trkpt lat="47.77823" lon="-1.8479">
        <ele>77.8</ele>
      </trkpt>
      <trkpt lat="47.77821" lon="-1.84788">
        <ele>77.9</ele>
      </trkpt>
      <trkpt lat="47.7782" lon="-1.84785">
        <ele>78</ele>
      </trkpt>
      <trkpt lat="47.77818" lon="-1.84782">
        <ele>78</ele>
      </trkpt>
      <trkpt lat="47.77816" lon="-1.84779">
        <ele>78.1</ele>
      </trkpt>
      <trkpt lat="47.77815" lon="-1.84776">
        <ele>78.1</ele>
      </trkpt>
      <trkpt lat="47.77814" lon="-1.84772">
        <ele>78</ele>
      </trkpt>
      <trkpt lat="47.77814" lon="-1.84769">
        <ele>78</ele>
      </trkpt>
      <trkpt lat="47.77814" lon="-1.84767">
        <ele>77.9</ele>
      </trkpt>
      <trkpt lat="47.77812" lon="-1.84765">
        <ele>78</ele>
      </trkpt>
      <trkpt lat="47.77809" lon="-1.84763">
        <ele>78.1</ele>
      </trkpt>
      <trkpt lat="47.77808" lon="-1.84762">
        <ele>78.2</ele>
      </trkpt>
      <trkpt lat="47.77806" lon="-1.84762">
        <ele>78.3</ele>
      </trkpt>
      <trkpt lat="47.77805" lon="-1.84762">
        <ele>78.5</ele>
      </trkpt>
      <trkpt lat="47.77804" lon="-1.84763">
        <ele>78.6</ele>
      </trkpt>
      <trkpt lat="47.77803" lon="-1.84764">
        <ele>78.6</ele>
      </trkpt>
      <trkpt lat="47.77803" lon="-1.84763">
        <ele>78.6</ele>
      </trkpt>
      <trkpt lat="47.77802" lon="-1.84764">
        <ele>78.8</ele>
      </trkpt>
      <trkpt lat="47.778" lon="-1.84765">
        <ele>78.9</ele>
      </trkpt>
      <trkpt lat="47.77799" lon="-1.84766">
        <ele>79</ele>
      </trkpt>
      <trkpt lat="47.77798" lon="-1.84766">
        <ele>79.1</ele>
      </trkpt>
      <trkpt lat="47.77796" lon="-1.84768">
        <ele>79.3</ele>
      </trkpt>
      <trkpt lat="47.77794" lon="-1.84768">
        <ele>79.4</ele>
      </trkpt>
      <trkpt lat="47.77792" lon="-1.84768">
        <ele>79.6</ele>
      </trkpt>
      <trkpt lat="47.7779" lon="-1.84768">
        <ele>79.7</ele>
      </trkpt>
      <trkpt lat="47.77789" lon="-1.84767">
        <ele>79.9</ele>
      </trkpt>
      <trkpt lat="47.77786" lon="-1.84767">
        <ele>80</ele>
      </trkpt>
      <trkpt lat="47.77784" lon="-1.84768">
        <ele>80.2</ele>
      </trkpt>
      <trkpt lat="47.77782" lon="-1.84768">
        <ele>80.4</ele>
      </trkpt>
      <trkpt lat="47.7778" lon="-1.84767">
        <ele>80.5</ele>
      </trkpt>
      <trkpt lat="47.77779" lon="-1.84765">
        <ele>80.5</ele>
      </trkpt>
      <trkpt lat="47.77779" lon="-1.84762">
        <ele>80.4</ele>
      </trkpt>
      <trkpt lat="47.77778" lon="-1.84759">
        <ele>80.3</ele>
      </trkpt>
      <trkpt lat="47.77777" lon="-1.84757">
        <ele>80.3</ele>
      </trkpt>
      <trkpt lat="47.77776" lon="-1.84753">
        <ele>80.3</ele>
      </trkpt>
      <trkpt lat="47.77775" lon="-1.8475">
        <ele>80.2</ele>
      </trkpt>
      <trkpt lat="47.77773" lon="-1.84748">
        <ele>80.2</ele>
      </trkpt>
      <trkpt lat="47.77771" lon="-1.84746">
        <ele>80.3</ele>
      </trkpt>
      <trkpt lat="47.77769" lon="-1.84746">
        <ele>80.5</ele>
      </trkpt>
      <trkpt lat="47.77767" lon="-1.84748">
        <ele>80.7</ele>
      </trkpt>
      <trkpt lat="47.77766" lon="-1.84751">
        <ele>80.9</ele>
      </trkpt>
      <trkpt lat="47.77765" lon="-1.84754">
        <ele>81.1</ele>
      </trkpt>
      <trkpt lat="47.77765" lon="-1.84757">
        <ele>81.2</ele>
      </trkpt>
      <trkpt lat="47.77765" lon="-1.8476">
        <ele>81.4</ele>
      </trkpt>
      <trkpt lat="47.77763" lon="-1.84763">
        <ele>81.6</ele>
      </trkpt>
      <trkpt lat="47.77762" lon="-1.84764">
        <ele>81.8</ele>
      </trkpt>
      <trkpt lat="47.77759" lon="-1.84764">
        <ele>82</ele>
      </trkpt>
      <trkpt lat="47.77755" lon="-1.84763">
        <ele>82.2</ele>
      </trkpt>
      <trkpt lat="47.77752" lon="-1.84762">
        <ele>82.4</ele>
      </trkpt>
      <trkpt lat="47.77749" lon="-1.84762">
        <ele>82.5</ele>
      </trkpt>
      <trkpt lat="47.77746" lon="-1.8476">
        <ele>82.4</ele>
      </trkpt>
      <trkpt lat="47.77743" lon="-1.8476">
        <ele>82.3</ele>
      </trkpt>
      <trkpt lat="47.7774" lon="-1.8476">
        <ele>82.1</ele>
      </trkpt>
      <trkpt lat="47.77737" lon="-1.8476">
        <ele>82.1</ele>
      </trkpt>
      <trkpt lat="47.77735" lon="-1.8476">
        <ele>82</ele>
      </trkpt>
      <trkpt lat="47.77733" lon="-1.84759">
        <ele>81.8</ele>
      </trkpt>
      <trkpt lat="47.7773" lon="-1.84757">
        <ele>81.7</ele>
      </trkpt>
      <trkpt lat="47.77727" lon="-1.84754">
        <ele>81.4</ele>
      </trkpt>
      <trkpt lat="47.77725" lon="-1.84752">
        <ele>81.2</ele>
      </trkpt>
      <trkpt lat="47.77724" lon="-1.84752">
        <ele>81.2</ele>
      </trkpt>
      <trkpt lat="47.77724" lon="-1.84752">
        <ele>81.2</ele>
      </trkpt>
      <trkpt lat="47.77724" lon="-1.84752">
        <ele>81.2</ele>
      </trkpt>
      <trkpt lat="47.77724" lon="-1.84752">
        <ele>81.2</ele>
      </trkpt>
      <trkpt lat="47.77724" lon="-1.84752">
        <ele>81.2</ele>
      </trkpt>
      <trkpt lat="47.77724" lon="-1.84752">
        <ele>81.2</ele>
      </trkpt>
      <trkpt lat="47.77724" lon="-1.84752">
        <ele>81.2</ele>
      </trkpt>
      <trkpt lat="47.77724" lon="-1.84752">
        <ele>81.2</ele>
      </trkpt>
      <trkpt lat="47.77724" lon="-1.84752">
        <ele>81.2</ele>
      </trkpt>
      <trkpt lat="47.77723" lon="-1.84753">
        <ele>81.2</ele>
      </trkpt>
      <trkpt lat="47.77721" lon="-1.84754">
        <ele>81.2</ele>
      </trkpt>
      <trkpt lat="47.77719" lon="-1.84756">
        <ele>81.3</ele>
      </trkpt>
      <trkpt lat="47.77717" lon="-1.84758">
        <ele>81.3</ele>
      </trkpt>
      <trkpt lat="47.77715" lon="-1.84761">
        <ele>81.4</ele>
      </trkpt>
      <trkpt lat="47.77713" lon="-1.84764">
        <ele>81.6</ele>
      </trkpt>
      <trkpt lat="47.7771" lon="-1.84767">
        <ele>81.7</ele>
      </trkpt>
      <trkpt lat="47.77707" lon="-1.8477">
        <ele>81.8</ele>
      </trkpt>
      <trkpt lat="47.77706" lon="-1.84772">
        <ele>81.9</ele>
      </trkpt>
      <trkpt lat="47.77704" lon="-1.84774">
        <ele>82</ele>
      </trkpt>
      <trkpt lat="47.77702" lon="-1.84777">
        <ele>82.1</ele>
      </trkpt>
      <trkpt lat="47.77701" lon="-1.84778">
        <ele>82.2</ele>
      </trkpt>
      <trkpt lat="47.77699" lon="-1.84779">
        <ele>82.2</ele>
      </trkpt>
      <trkpt lat="47.77698" lon="-1.84781">
        <ele>82.3</ele>
      </trkpt>
      <trkpt lat="47.77696" lon="-1.84782">
        <ele>82.4</ele>
      </trkpt>
      <trkpt lat="47.77696" lon="-1.84784">
        <ele>82.5</ele>
      </trkpt>
      <trkpt lat="47.77694" lon="-1.84786">
        <ele>82.6</ele>
      </trkpt>
      <trkpt lat="47.77693" lon="-1.84787">
        <ele>82.7</ele>
      </trkpt>
      <trkpt lat="47.77693" lon="-1.84788">
        <ele>82.7</ele>
      </trkpt>
      <trkpt lat="47.77693" lon="-1.84788">
        <ele>82.7</ele>
      </trkpt>
      <trkpt lat="47.77693" lon="-1.84788">
        <ele>82.7</ele>
      </trkpt>
      <trkpt lat="47.77693" lon="-1.84788">
        <ele>82.7</ele>
      </trkpt>
      <trkpt lat="47.77693" lon="-1.84788">
        <ele>82.7</ele>
      </trkpt>
      <trkpt lat="47.77693" lon="-1.84788">
        <ele>82.7</ele>
      </trkpt>
      <trkpt lat="47.77693" lon="-1.84788">
        <ele>82.7</ele>
      </trkpt>
      <trkpt lat="47.77693" lon="-1.84788">
        <ele>82.7</ele>
      </trkpt>
      <trkpt lat="47.77693" lon="-1.84788">
        <ele>82.7</ele>
      </trkpt>
      <trkpt lat="47.77693" lon="-1.84788">
        <ele>82.7</ele>
      </trkpt>
      <trkpt lat="47.77693" lon="-1.84788">
        <ele>82.7</ele>
      </trkpt>
      <trkpt lat="47.77693" lon="-1.84788">
        <ele>82.7</ele>
      </trkpt>
      <trkpt lat="47.77693" lon="-1.84788">
        <ele>82.7</ele>
      </trkpt>
      <trkpt lat="47.77693" lon="-1.84788">
        <ele>82.7</ele>
      </trkpt>
      <trkpt lat="47.77693" lon="-1.84788">
        <ele>82.7</ele>
      </trkpt>
      <trkpt lat="47.77693" lon="-1.84788">
        <ele>82.7</ele>
      </trkpt>
      <trkpt lat="47.77693" lon="-1.84788">
        <ele>82.7</ele>
      </trkpt>
      <trkpt lat="47.77693" lon="-1.84788">
        <ele>82.7</ele>
      </trkpt>
      <trkpt lat="47.77693" lon="-1.84788">
        <ele>82.7</ele>
      </trkpt>
      <trkpt lat="47.77693" lon="-1.84788">
        <ele>82.7</ele>
      </trkpt>
      <trkpt lat="47.77693" lon="-1.84788">
        <ele>82.7</ele>
      </trkpt>
      <trkpt lat="47.77693" lon="-1.84788">
        <ele>82.7</ele>
      </trkpt>
      <trkpt lat="47.77693" lon="-1.84788">
        <ele>82.7</ele>
      </trkpt>
      <trkpt lat="47.77693" lon="-1.84788">
        <ele>82.7</ele>
      </trkpt>
      <trkpt lat="47.77693" lon="-1.84788">
        <ele>82.7</ele>
      </trkpt>
      <trkpt lat="47.77693" lon="-1.84788">
        <ele>82.7</ele>
      </trkpt>
      <trkpt lat="47.77693" lon="-1.84788">
        <ele>82.7</ele>
      </trkpt>
      <trkpt lat="47.77693" lon="-1.84788">
        <ele>82.7</ele>
      </trkpt>
      <trkpt lat="47.77693" lon="-1.84788">
        <ele>82.7</ele>
      </trkpt>
      <trkpt lat="47.77693" lon="-1.84788">
        <ele>82.7</ele>
      </trkpt>
      <trkpt lat="47.77693" lon="-1.84788">
        <ele>82.7</ele>
      </trkpt>
      <trkpt lat="47.77693" lon="-1.84788">
        <ele>82.7</ele>
      </trkpt>
      <trkpt lat="47.77693" lon="-1.84788">
        <ele>82.7</ele>
      </trkpt>
      <trkpt lat="47.77693" lon="-1.84788">
        <ele>82.7</ele>
      </trkpt>
      <trkpt lat="47.77693" lon="-1.84788">
        <ele>82.7</ele>
      </trkpt>
      <trkpt lat="47.77693" lon="-1.84788">
        <ele>82.7</ele>
      </trkpt>
      <trkpt lat="47.77693" lon="-1.84788">
        <ele>82.7</ele>
      </trkpt>
      <trkpt lat="47.77693" lon="-1.84788">
        <ele>82.7</ele>
      </trkpt>
      <trkpt lat="47.77693" lon="-1.84788">
        <ele>82.7</ele>
      </trkpt>
      <trkpt lat="47.77693" lon="-1.84788">
        <ele>82.7</ele>
      </trkpt>
      <trkpt lat="47.77693" lon="-1.84788">
        <ele>82.7</ele>
      </trkpt>
      <trkpt lat="47.77693" lon="-1.84788">
        <ele>82.7</ele>
      </trkpt>
      <trkpt lat="47.77693" lon="-1.84788">
        <ele>82.7</ele>
      </trkpt>
      <trkpt lat="47.77693" lon="-1.84788">
        <ele>82.7</ele>
      </trkpt>
      <trkpt lat="47.77693" lon="-1.84788">
        <ele>82.7</ele>
      </trkpt>
      <trkpt lat="47.77693" lon="-1.84788">
        <ele>82.7</ele>
      </trkpt>
      <trkpt lat="47.77693" lon="-1.84788">
        <ele>82.7</ele>
      </trkpt>
      <trkpt lat="47.77693" lon="-1.84788">
        <ele>82.7</ele>
      </trkpt>
      <trkpt lat="47.77693" lon="-1.84788">
        <ele>82.7</ele>
      </trkpt>
      <trkpt lat="47.77693" lon="-1.84788">
        <ele>82.7</ele>
      </trkpt>
      <trkpt lat="47.77693" lon="-1.84788">
        <ele>82.7</ele>
      </trkpt>
      <trkpt lat="47.77693" lon="-1.84788">
        <ele>82.7</ele>
      </trkpt>
      <trkpt lat="47.77693" lon="-1.84788">
        <ele>82.7</ele>
      </trkpt>
      <trkpt lat="47.77693" lon="-1.84788">
        <ele>82.7</ele>
      </trkpt>
      <trkpt lat="47.77693" lon="-1.84788">
        <ele>82.7</ele>
      </trkpt>
      <trkpt lat="47.77693" lon="-1.84788">
        <ele>82.7</ele>
      </trkpt>
      <trkpt lat="47.77693" lon="-1.84788">
        <ele>82.7</ele>
      </trkpt>
      <trkpt lat="47.77693" lon="-1.84788">
        <ele>82.7</ele>
      </trkpt>
      <trkpt lat="47.77693" lon="-1.84788">
        <ele>82.7</ele>
      </trkpt>
      <trkpt lat="47.77693" lon="-1.84788">
        <ele>82.7</ele>
      </trkpt>
      <trkpt lat="47.77693" lon="-1.84788">
        <ele>82.7</ele>
      </trkpt>
      <trkpt lat="47.77693" lon="-1.84788">
        <ele>82.7</ele>
      </trkpt>
      <trkpt lat="47.77693" lon="-1.84788">
        <ele>82.7</ele>
      </trkpt>
      <trkpt lat="47.77693" lon="-1.84788">
        <ele>82.7</ele>
      </trkpt>
      <trkpt lat="47.77693" lon="-1.84788">
        <ele>82.7</ele>
      </trkpt>
      <trkpt lat="47.77693" lon="-1.84788">
        <ele>82.7</ele>
      </trkpt>
      <trkpt lat="47.77693" lon="-1.84788">
        <ele>82.7</ele>
      </trkpt>
      <trkpt lat="47.77693" lon="-1.84788">
        <ele>82.7</ele>
      </trkpt>
      <trkpt lat="47.77693" lon="-1.84788">
        <ele>82.7</ele>
      </trkpt>
      <trkpt lat="47.77693" lon="-1.84788">
        <ele>82.7</ele>
      </trkpt>
      <trkpt lat="47.77693" lon="-1.84788">
        <ele>82.7</ele>
      </trkpt>
      <trkpt lat="47.77693" lon="-1.84788">
        <ele>82.7</ele>
      </trkpt>
      <trkpt lat="47.77693" lon="-1.84788">
        <ele>82.7</ele>
      </trkpt>
      <trkpt lat="47.77693" lon="-1.84788">
        <ele>82.7</ele>
      </trkpt>
      <trkpt lat="47.77693" lon="-1.84788">
        <ele>82.7</ele>
      </trkpt>
      <trkpt lat="47.77693" lon="-1.84788">
        <ele>82.7</ele>
      </trkpt>
      <trkpt lat="47.77693" lon="-1.84788">
        <ele>82.7</ele>
      </trkpt>
      <trkpt lat="47.77693" lon="-1.84788">
        <ele>82.7</ele>
      </trkpt>
      <trkpt lat="47.77693" lon="-1.84788">
        <ele>82.7</ele>
      </trkpt>
      <trkpt lat="47.77693" lon="-1.84788">
        <ele>82.7</ele>
      </trkpt>
      <trkpt lat="47.77693" lon="-1.84788">
        <ele>82.7</ele>
      </trkpt>
      <trkpt lat="47.77693" lon="-1.84788">
        <ele>82.7</ele>
      </trkpt>
      <trkpt lat="47.77693" lon="-1.84788">
        <ele>82.7</ele>
      </trkpt>
      <trkpt lat="47.77693" lon="-1.84788">
        <ele>82.7</ele>
      </trkpt>
      <trkpt lat="47.77693" lon="-1.84788">
        <ele>82.7</ele>
      </trkpt>
      <trkpt lat="47.77693" lon="-1.84788">
        <ele>82.7</ele>
      </trkpt>
      <trkpt lat="47.77693" lon="-1.84788">
        <ele>82.7</ele>
      </trkpt>
      <trkpt lat="47.77693" lon="-1.84788">
        <ele>82.7</ele>
      </trkpt>
      <trkpt lat="47.77693" lon="-1.84788">
        <ele>82.7</ele>
      </trkpt>
      <trkpt lat="47.77693" lon="-1.84788">
        <ele>82.7</ele>
      </trkpt>
      <trkpt lat="47.77693" lon="-1.84788">
        <ele>82.7</ele>
      </trkpt>
      <trkpt lat="47.77693" lon="-1.84788">
        <ele>82.7</ele>
      </trkpt>
      <trkpt lat="47.77693" lon="-1.84788">
        <ele>82.7</ele>
      </trkpt>
      <trkpt lat="47.77693" lon="-1.84788">
        <ele>82.7</ele>
      </trkpt>
      <trkpt lat="47.77693" lon="-1.84788">
        <ele>82.7</ele>
      </trkpt>
      <trkpt lat="47.77693" lon="-1.84788">
        <ele>82.7</ele>
      </trkpt>
      <trkpt lat="47.77693" lon="-1.84788">
        <ele>82.7</ele>
      </trkpt>
      <trkpt lat="47.77693" lon="-1.84788">
        <ele>82.7</ele>
      </trkpt>
      <trkpt lat="47.77693" lon="-1.84788">
        <ele>82.7</ele>
      </trkpt>
      <trkpt lat="47.77693" lon="-1.84788">
        <ele>82.7</ele>
      </trkpt>
      <trkpt lat="47.77693" lon="-1.84788">
        <ele>82.7</ele>
      </trkpt>
      <trkpt lat="47.77693" lon="-1.84788">
        <ele>82.7</ele>
      </trkpt>
      <trkpt lat="47.77693" lon="-1.84788">
        <ele>82.7</ele>
      </trkpt>
      <trkpt lat="47.77693" lon="-1.84788">
        <ele>82.7</ele>
      </trkpt>
      <trkpt lat="47.77693" lon="-1.84788">
        <ele>82.7</ele>
      </trkpt>
      <trkpt lat="47.77693" lon="-1.84788">
        <ele>82.7</ele>
      </trkpt>
      <trkpt lat="47.77693" lon="-1.84788">
        <ele>82.7</ele>
      </trkpt>
      <trkpt lat="47.77693" lon="-1.84788">
        <ele>82.7</ele>
      </trkpt>
      <trkpt lat="47.77693" lon="-1.84787">
        <ele>82.7</ele>
      </trkpt>
      <trkpt lat="47.77695" lon="-1.84786">
        <ele>82.6</ele>
      </trkpt>
      <trkpt lat="47.77697" lon="-1.84785">
        <ele>82.6</ele>
      </trkpt>
      <trkpt lat="47.77699" lon="-1.84783">
        <ele>82.5</ele>
      </trkpt>
      <trkpt lat="47.77702" lon="-1.8478">
        <ele>82.4</ele>
      </trkpt>
      <trkpt lat="47.77704" lon="-1.84778">
        <ele>82.3</ele>
      </trkpt>
      <trkpt lat="47.77706" lon="-1.84775">
        <ele>82.1</ele>
      </trkpt>
      <trkpt lat="47.77709" lon="-1.84772">
        <ele>81.9</ele>
      </trkpt>
      <trkpt lat="47.77711" lon="-1.84769">
        <ele>81.8</ele>
      </trkpt>
      <trkpt lat="47.77714" lon="-1.84766">
        <ele>81.7</ele>
      </trkpt>
      <trkpt lat="47.77716" lon="-1.84763">
        <ele>81.6</ele>
      </trkpt>
      <trkpt lat="47.77719" lon="-1.8476">
        <ele>81.5</ele>
      </trkpt>
      <trkpt lat="47.77721" lon="-1.84757">
        <ele>81.4</ele>
      </trkpt>
      <trkpt lat="47.77723" lon="-1.84754">
        <ele>81.3</ele>
      </trkpt>
      <trkpt lat="47.77726" lon="-1.84751">
        <ele>81.2</ele>
      </trkpt>
      <trkpt lat="47.7773" lon="-1.84747">
        <ele>81.1</ele>
      </trkpt>
      <trkpt lat="47.77733" lon="-1.84743">
        <ele>81</ele>
      </trkpt>
      <trkpt lat="47.77736" lon="-1.84739">
        <ele>80.9</ele>
      </trkpt>
      <trkpt lat="47.77739" lon="-1.84736">
        <ele>80.9</ele>
      </trkpt>
      <trkpt lat="47.77742" lon="-1.84733">
        <ele>80.8</ele>
      </trkpt>
      <trkpt lat="47.77746" lon="-1.8473">
        <ele>80.9</ele>
      </trkpt>
      <trkpt lat="47.7775" lon="-1.84728">
        <ele>80.9</ele>
      </trkpt>
      <trkpt lat="47.77752" lon="-1.84726">
        <ele>80.7</ele>
      </trkpt>
      <trkpt lat="47.77756" lon="-1.84724">
        <ele>80.3</ele>
      </trkpt>
      <trkpt lat="47.7776" lon="-1.84723">
        <ele>80</ele>
      </trkpt>
      <trkpt lat="47.77765" lon="-1.84722">
        <ele>79.6</ele>
      </trkpt>
      <trkpt lat="47.77768" lon="-1.84722">
        <ele>79.3</ele>
      </trkpt>
      <trkpt lat="47.77772" lon="-1.84722">
        <ele>79.1</ele>
      </trkpt>
      <trkpt lat="47.77777" lon="-1.84723">
        <ele>78.8</ele>
      </trkpt>
      <trkpt lat="47.77781" lon="-1.84724">
        <ele>78.5</ele>
      </trkpt>
      <trkpt lat="47.77786" lon="-1.84726">
        <ele>78.2</ele>
      </trkpt>
      <trkpt lat="47.77791" lon="-1.84728">
        <ele>78</ele>
      </trkpt>
      <trkpt lat="47.77797" lon="-1.84731">
        <ele>77.7</ele>
      </trkpt>
      <trkpt lat="47.77801" lon="-1.84733">
        <ele>77.5</ele>
      </trkpt>
      <trkpt lat="47.77807" lon="-1.84736">
        <ele>77.2</ele>
      </trkpt>
      <trkpt lat="47.77814" lon="-1.8474">
        <ele>76.9</ele>
      </trkpt>
      <trkpt lat="47.7782" lon="-1.84743">
        <ele>76.7</ele>
      </trkpt>
      <trkpt lat="47.77825" lon="-1.84746">
        <ele>76.4</ele>
      </trkpt>
      <trkpt lat="47.7783" lon="-1.84748">
        <ele>76.2</ele>
      </trkpt>
      <trkpt lat="47.77835" lon="-1.84751">
        <ele>75.5</ele>
      </trkpt>
      <trkpt lat="47.77843" lon="-1.84755">
        <ele>73.8</ele>
      </trkpt>
      <trkpt lat="47.77849" lon="-1.84759">
        <ele>72.5</ele>
      </trkpt>
      <trkpt lat="47.77856" lon="-1.84763">
        <ele>70.9</ele>
      </trkpt>
      <trkpt lat="47.77862" lon="-1.84767">
        <ele>69.4</ele>
      </trkpt>
      <trkpt lat="47.77869" lon="-1.84771">
        <ele>67.8</ele>
      </trkpt>
      <trkpt lat="47.77875" lon="-1.84775">
        <ele>66.4</ele>
      </trkpt>
      <trkpt lat="47.77882" lon="-1.8478">
        <ele>64.8</ele>
      </trkpt>
      <trkpt lat="47.77887" lon="-1.84783">
        <ele>63.6</ele>
      </trkpt>
      <trkpt lat="47.77893" lon="-1.84787">
        <ele>62.2</ele>
      </trkpt>
      <trkpt lat="47.77897" lon="-1.84789">
        <ele>61.4</ele>
      </trkpt>
      <trkpt lat="47.77899" lon="-1.84791">
        <ele>60.8</ele>
      </trkpt>
      <trkpt lat="47.77899" lon="-1.84791">
        <ele>60.7</ele>
      </trkpt>
      <trkpt lat="47.77899" lon="-1.84791">
        <ele>60.7</ele>
      </trkpt>
      <trkpt lat="47.77899" lon="-1.84791">
        <ele>60.7</ele>
      </trkpt>
      <trkpt lat="47.77899" lon="-1.84791">
        <ele>60.7</ele>
      </trkpt>
      <trkpt lat="47.77899" lon="-1.84791">
        <ele>60.7</ele>
      </trkpt>
      <trkpt lat="47.77899" lon="-1.84791">
        <ele>60.8</ele>
      </trkpt>
      <trkpt lat="47.77899" lon="-1.8479">
        <ele>60.9</ele>
      </trkpt>
      <trkpt lat="47.77899" lon="-1.84789">
        <ele>60.8</ele>
      </trkpt>
      <trkpt lat="47.77898" lon="-1.84788">
        <ele>60.9</ele>
      </trkpt>
      <trkpt lat="47.77898" lon="-1.84787">
        <ele>61.1</ele>
      </trkpt>
      <trkpt lat="47.77897" lon="-1.84785">
        <ele>61.2</ele>
      </trkpt>
      <trkpt lat="47.77897" lon="-1.84783">
        <ele>61.2</ele>
      </trkpt>
      <trkpt lat="47.77897" lon="-1.84779">
        <ele>61.1</ele>
      </trkpt>
      <trkpt lat="47.77898" lon="-1.84774">
        <ele>60.9</ele>
      </trkpt>
      <trkpt lat="47.77898" lon="-1.84767">
        <ele>60.7</ele>
      </trkpt>
      <trkpt lat="47.77898" lon="-1.84763">
        <ele>60.6</ele>
      </trkpt>
      <trkpt lat="47.77899" lon="-1.84761">
        <ele>60.4</ele>
      </trkpt>
      <trkpt lat="47.77902" lon="-1.84762">
        <ele>59.7</ele>
      </trkpt>
      <trkpt lat="47.77905" lon="-1.84764">
        <ele>59.1</ele>
      </trkpt>
      <trkpt lat="47.77906" lon="-1.84766">
        <ele>58.8</ele>
      </trkpt>
      <trkpt lat="47.77907" lon="-1.84768">
        <ele>58.5</ele>
      </trkpt>
      <trkpt lat="47.77908" lon="-1.84771">
        <ele>58.3</ele>
      </trkpt>
      <trkpt lat="47.7791" lon="-1.84773">
        <ele>58</ele>
      </trkpt>
      <trkpt lat="47.7791" lon="-1.84778">
        <ele>57.9</ele>
      </trkpt>
      <trkpt lat="47.77911" lon="-1.84782">
        <ele>57.7</ele>
      </trkpt>
      <trkpt lat="47.77912" lon="-1.84786">
        <ele>57.7</ele>
      </trkpt>
      <trkpt lat="47.77913" lon="-1.84788">
        <ele>57.4</ele>
      </trkpt>
      <trkpt lat="47.77915" lon="-1.84789">
        <ele>56.8</ele>
      </trkpt>
      <trkpt lat="47.77918" lon="-1.8479">
        <ele>56.1</ele>
      </trkpt>
      <trkpt lat="47.77921" lon="-1.8479">
        <ele>55.5</ele>
      </trkpt>
      <trkpt lat="47.77923" lon="-1.8479">
        <ele>54.9</ele>
      </trkpt>
      <trkpt lat="47.77926" lon="-1.8479">
        <ele>54.2</ele>
      </trkpt>
      <trkpt lat="47.77929" lon="-1.84791">
        <ele>53.5</ele>
      </trkpt>
      <trkpt lat="47.77932" lon="-1.84795">
        <ele>52.8</ele>
      </trkpt>
      <trkpt lat="47.77935" lon="-1.84801">
        <ele>52.1</ele>
      </trkpt>
      <trkpt lat="47.77938" lon="-1.84806">
        <ele>51.3</ele>
      </trkpt>
      <trkpt lat="47.7794" lon="-1.84808">
        <ele>50.8</ele>
      </trkpt>
      <trkpt lat="47.77942" lon="-1.84808">
        <ele>50.4</ele>
      </trkpt>
      <trkpt lat="47.77943" lon="-1.84806">
        <ele>50.1</ele>
      </trkpt>
      <trkpt lat="47.77944" lon="-1.84802">
        <ele>49.7</ele>
      </trkpt>
      <trkpt lat="47.77945" lon="-1.84797">
        <ele>49.5</ele>
      </trkpt>
      <trkpt lat="47.77945" lon="-1.84791">
        <ele>49.4</ele>
      </trkpt>
      <trkpt lat="47.77945" lon="-1.84785">
        <ele>49.3</ele>
      </trkpt>
      <trkpt lat="47.77946" lon="-1.84779">
        <ele>48.9</ele>
      </trkpt>
      <trkpt lat="47.77948" lon="-1.84773">
        <ele>48.5</ele>
      </trkpt>
      <trkpt lat="47.77949" lon="-1.84767">
        <ele>48.1</ele>
      </trkpt>
      <trkpt lat="47.7795" lon="-1.84762">
        <ele>47.6</ele>
      </trkpt>
      <trkpt lat="47.77952" lon="-1.84755">
        <ele>47.3</ele>
      </trkpt>
      <trkpt lat="47.77953" lon="-1.84749">
        <ele>47</ele>
      </trkpt>
      <trkpt lat="47.77954" lon="-1.84744">
        <ele>46.7</ele>
      </trkpt>
      <trkpt lat="47.77955" lon="-1.84739">
        <ele>46.2</ele>
      </trkpt>
      <trkpt lat="47.77957" lon="-1.84734">
        <ele>45.9</ele>
      </trkpt>
      <trkpt lat="47.77958" lon="-1.84728">
        <ele>45.6</ele>
      </trkpt>
      <trkpt lat="47.77959" lon="-1.84723">
        <ele>45.3</ele>
      </trkpt>
      <trkpt lat="47.7796" lon="-1.84718">
        <ele>45.1</ele>
      </trkpt>
      <trkpt lat="47.77961" lon="-1.84714">
        <ele>44.8</ele>
      </trkpt>
      <trkpt lat="47.77962" lon="-1.84709">
        <ele>44.7</ele>
      </trkpt>
      <trkpt lat="47.77961" lon="-1.84703">
        <ele>44.9</ele>
      </trkpt>
      <trkpt lat="47.77961" lon="-1.84699">
        <ele>44.8</ele>
      </trkpt>
      <trkpt lat="47.77963" lon="-1.84695">
        <ele>44.5</ele>
      </trkpt>
      <trkpt lat="47.77965" lon="-1.84691">
        <ele>44</ele>
      </trkpt>
      <trkpt lat="47.77967" lon="-1.84686">
        <ele>43.6</ele>
      </trkpt>
      <trkpt lat="47.7797" lon="-1.84679">
        <ele>42.8</ele>
      </trkpt>
      <trkpt lat="47.77974" lon="-1.84674">
        <ele>42</ele>
      </trkpt>
      <trkpt lat="47.77975" lon="-1.8467">
        <ele>41.7</ele>
      </trkpt>
      <trkpt lat="47.77976" lon="-1.84668">
        <ele>41.5</ele>
      </trkpt>
      <trkpt lat="47.77976" lon="-1.84668">
        <ele>41.4</ele>
      </trkpt>
      <trkpt lat="47.77976" lon="-1.84668">
        <ele>41.4</ele>
      </trkpt>
      <trkpt lat="47.77977" lon="-1.84667">
        <ele>41.3</ele>
      </trkpt>
      <trkpt lat="47.77978" lon="-1.84666">
        <ele>41.1</ele>
      </trkpt>
      <trkpt lat="47.77978" lon="-1.84665">
        <ele>40.8</ele>
      </trkpt>
      <trkpt lat="47.77979" lon="-1.84664">
        <ele>40.5</ele>
      </trkpt>
      <trkpt lat="47.77979" lon="-1.84663">
        <ele>40.6</ele>
      </trkpt>
      <trkpt lat="47.77979" lon="-1.84663">
        <ele>40.5</ele>
      </trkpt>
      <trkpt lat="47.77979" lon="-1.84663">
        <ele>40.5</ele>
      </trkpt>
      <trkpt lat="47.77979" lon="-1.84663">
        <ele>40.5</ele>
      </trkpt>
      <trkpt lat="47.77979" lon="-1.84663">
        <ele>40.5</ele>
      </trkpt>
      <trkpt lat="47.77979" lon="-1.84663">
        <ele>40.5</ele>
      </trkpt>
      <trkpt lat="47.7798" lon="-1.84662">
        <ele>40.4</ele>
      </trkpt>
      <trkpt lat="47.7798" lon="-1.8466">
        <ele>40</ele>
      </trkpt>
      <trkpt lat="47.77981" lon="-1.84656">
        <ele>39.7</ele>
      </trkpt>
      <trkpt lat="47.77982" lon="-1.84653">
        <ele>39.3</ele>
      </trkpt>
      <trkpt lat="47.77984" lon="-1.84649">
        <ele>38.8</ele>
      </trkpt>
      <trkpt lat="47.77986" lon="-1.84645">
        <ele>38.2</ele>
      </trkpt>
      <trkpt lat="47.77989" lon="-1.84642">
        <ele>37.4</ele>
      </trkpt>
      <trkpt lat="47.77992" lon="-1.84638">
        <ele>36.6</ele>
      </trkpt>
      <trkpt lat="47.77993" lon="-1.84636">
        <ele>36.3</ele>
      </trkpt>
      <trkpt lat="47.77993" lon="-1.84636">
        <ele>36.1</ele>
      </trkpt>
      <trkpt lat="47.77993" lon="-1.84636">
        <ele>36.1</ele>
      </trkpt>
      <trkpt lat="47.77993" lon="-1.84636">
        <ele>36.1</ele>
      </trkpt>
      <trkpt lat="47.77993" lon="-1.84636">
        <ele>36.1</ele>
      </trkpt>
      <trkpt lat="47.77993" lon="-1.84636">
        <ele>36.1</ele>
      </trkpt>
      <trkpt lat="47.77993" lon="-1.84636">
        <ele>36.1</ele>
      </trkpt>
      <trkpt lat="47.77993" lon="-1.84636">
        <ele>36.1</ele>
      </trkpt>
      <trkpt lat="47.77993" lon="-1.84635">
        <ele>36.2</ele>
      </trkpt>
      <trkpt lat="47.77993" lon="-1.84635">
        <ele>36.2</ele>
      </trkpt>
      <trkpt lat="47.77993" lon="-1.84636">
        <ele>36.2</ele>
      </trkpt>
      <trkpt lat="47.77994" lon="-1.84638">
        <ele>36.1</ele>
      </trkpt>
      <trkpt lat="47.77995" lon="-1.84639">
        <ele>36.1</ele>
      </trkpt>
      <trkpt lat="47.77995" lon="-1.84641">
        <ele>36.2</ele>
      </trkpt>
      <trkpt lat="47.77995" lon="-1.84644">
        <ele>36.1</ele>
      </trkpt>
      <trkpt lat="47.77997" lon="-1.84647">
        <ele>35.9</ele>
      </trkpt>
      <trkpt lat="47.77998" lon="-1.84647">
        <ele>35.7</ele>
      </trkpt>
      <trkpt lat="47.77999" lon="-1.84645">
        <ele>35.4</ele>
      </trkpt>
      <trkpt lat="47.78001" lon="-1.84642">
        <ele>35</ele>
      </trkpt>
      <trkpt lat="47.78" lon="-1.84638">
        <ele>34.9</ele>
      </trkpt>
      <trkpt lat="47.77999" lon="-1.84635">
        <ele>35.1</ele>
      </trkpt>
      <trkpt lat="47.77998" lon="-1.84633">
        <ele>35.3</ele>
      </trkpt>
      <trkpt lat="47.77995" lon="-1.8463">
        <ele>35.5</ele>
      </trkpt>
      <trkpt lat="47.77993" lon="-1.84626">
        <ele>35.8</ele>
      </trkpt>
      <trkpt lat="47.77992" lon="-1.84624">
        <ele>36</ele>
      </trkpt>
      <trkpt lat="47.77989" lon="-1.84619">
        <ele>36.1</ele>
      </trkpt>
      <trkpt lat="47.77987" lon="-1.84616">
        <ele>36.3</ele>
      </trkpt>
      <trkpt lat="47.77986" lon="-1.84612">
        <ele>36.3</ele>
      </trkpt>
      <trkpt lat="47.77985" lon="-1.84609">
        <ele>36.3</ele>
      </trkpt>
      <trkpt lat="47.77983" lon="-1.84605">
        <ele>36.4</ele>
      </trkpt>
      <trkpt lat="47.77981" lon="-1.84601">
        <ele>36.5</ele>
      </trkpt>
      <trkpt lat="47.77978" lon="-1.84596">
        <ele>36.7</ele>
      </trkpt>
      <trkpt lat="47.77976" lon="-1.84591">
        <ele>36.7</ele>
      </trkpt>
      <trkpt lat="47.77975" lon="-1.84587">
        <ele>36.5</ele>
      </trkpt>
      <trkpt lat="47.77976" lon="-1.84585">
        <ele>36.2</ele>
      </trkpt>
      <trkpt lat="47.77979" lon="-1.84582">
        <ele>35.6</ele>
      </trkpt>
      <trkpt lat="47.77982" lon="-1.84579">
        <ele>34.6</ele>
      </trkpt>
      <trkpt lat="47.77985" lon="-1.84574">
        <ele>33.4</ele>
      </trkpt>
      <trkpt lat="47.77989" lon="-1.84571">
        <ele>32.3</ele>
      </trkpt>
      <trkpt lat="47.77992" lon="-1.84569">
        <ele>31.6</ele>
      </trkpt>
      <trkpt lat="47.77994" lon="-1.8457">
        <ele>31.4</ele>
      </trkpt>
      <trkpt lat="47.77996" lon="-1.84573">
        <ele>31.6</ele>
      </trkpt>
      <trkpt lat="47.77997" lon="-1.84576">
        <ele>32</ele>
      </trkpt>
      <trkpt lat="47.77998" lon="-1.84579">
        <ele>32.6</ele>
      </trkpt>
      <trkpt lat="47.77998" lon="-1.84582">
        <ele>33.2</ele>
      </trkpt>
      <trkpt lat="47.77997" lon="-1.84586">
        <ele>33.5</ele>
      </trkpt>
      <trkpt lat="47.77997" lon="-1.84589">
        <ele>33.6</ele>
      </trkpt>
      <trkpt lat="47.77998" lon="-1.84592">
        <ele>33.6</ele>
      </trkpt>
      <trkpt lat="47.77999" lon="-1.84594">
        <ele>33.5</ele>
      </trkpt>
      <trkpt lat="47.78001" lon="-1.84596">
        <ele>33.2</ele>
      </trkpt>
      <trkpt lat="47.78003" lon="-1.84596">
        <ele>32.9</ele>
      </trkpt>
      <trkpt lat="47.78005" lon="-1.84594">
        <ele>32.2</ele>
      </trkpt>
      <trkpt lat="47.78007" lon="-1.8459">
        <ele>31.7</ele>
      </trkpt>
      <trkpt lat="47.78007" lon="-1.84587">
        <ele>31.6</ele>
      </trkpt>
      <trkpt lat="47.78006" lon="-1.84584">
        <ele>31.6</ele>
      </trkpt>
      <trkpt lat="47.78006" lon="-1.84581">
        <ele>31.2</ele>
      </trkpt>
      <trkpt lat="47.78005" lon="-1.84577">
        <ele>30.6</ele>
      </trkpt>
      <trkpt lat="47.78005" lon="-1.84573">
        <ele>30.1</ele>
      </trkpt>
      <trkpt lat="47.78004" lon="-1.84569">
        <ele>29.6</ele>
      </trkpt>
      <trkpt lat="47.78002" lon="-1.84566">
        <ele>29.3</ele>
      </trkpt>
      <trkpt lat="47.78001" lon="-1.84563">
        <ele>29.2</ele>
      </trkpt>
      <trkpt lat="47.78" lon="-1.84561">
        <ele>29</ele>
      </trkpt>
      <trkpt lat="47.77999" lon="-1.8456">
        <ele>28.8</ele>
      </trkpt>
      <trkpt lat="47.77999" lon="-1.84559">
        <ele>28.8</ele>
      </trkpt>
      <trkpt lat="47.77999" lon="-1.84559">
        <ele>28.8</ele>
      </trkpt>
      <trkpt lat="47.77999" lon="-1.84559">
        <ele>28.8</ele>
      </trkpt>
      <trkpt lat="47.78" lon="-1.84558">
        <ele>28.4</ele>
      </trkpt>
      <trkpt lat="47.78" lon="-1.84555">
        <ele>27.9</ele>
      </trkpt>
      <trkpt lat="47.78" lon="-1.84553">
        <ele>27.5</ele>
      </trkpt>
      <trkpt lat="47.78" lon="-1.84552">
        <ele>27.4</ele>
      </trkpt>
      <trkpt lat="47.78" lon="-1.84552">
        <ele>27.4</ele>
      </trkpt>
      <trkpt lat="47.78" lon="-1.84552">
        <ele>27.4</ele>
      </trkpt>
      <trkpt lat="47.77999" lon="-1.84551">
        <ele>27.4</ele>
      </trkpt>
      <trkpt lat="47.77999" lon="-1.84551">
        <ele>27.4</ele>
      </trkpt>
      <trkpt lat="47.77999" lon="-1.84551">
        <ele>27.4</ele>
      </trkpt>
      <trkpt lat="47.77999" lon="-1.84549">
        <ele>27</ele>
      </trkpt>
      <trkpt lat="47.77999" lon="-1.84549">
        <ele>26.9</ele>
      </trkpt>
      <trkpt lat="47.77998" lon="-1.84547">
        <ele>26.7</ele>
      </trkpt>
      <trkpt lat="47.77997" lon="-1.84545">
        <ele>26.5</ele>
      </trkpt>
      <trkpt lat="47.77997" lon="-1.84541">
        <ele>25.9</ele>
      </trkpt>
      <trkpt lat="47.77998" lon="-1.84538">
        <ele>25.3</ele>
      </trkpt>
      <trkpt lat="47.77998" lon="-1.84534">
        <ele>24.5</ele>
      </trkpt>
      <trkpt lat="47.77996" lon="-1.84529">
        <ele>23.8</ele>
      </trkpt>
      <trkpt lat="47.77996" lon="-1.84525">
        <ele>23.2</ele>
      </trkpt>
      <trkpt lat="47.77995" lon="-1.84524">
        <ele>23</ele>
      </trkpt>
      <trkpt lat="47.77995" lon="-1.84524">
        <ele>23</ele>
      </trkpt>
      <trkpt lat="47.77995" lon="-1.84524">
        <ele>23</ele>
      </trkpt>
      <trkpt lat="47.77995" lon="-1.84524">
        <ele>23</ele>
      </trkpt>
      <trkpt lat="47.77995" lon="-1.84524">
        <ele>23</ele>
      </trkpt>
      <trkpt lat="47.77995" lon="-1.84524">
        <ele>23</ele>
      </trkpt>
      <trkpt lat="47.77995" lon="-1.84524">
        <ele>23</ele>
      </trkpt>
      <trkpt lat="47.77995" lon="-1.84524">
        <ele>23</ele>
      </trkpt>
      <trkpt lat="47.77995" lon="-1.84524">
        <ele>23</ele>
      </trkpt>
      <trkpt lat="47.77995" lon="-1.84524">
        <ele>23</ele>
      </trkpt>
      <trkpt lat="47.77995" lon="-1.84524">
        <ele>23</ele>
      </trkpt>
      <trkpt lat="47.77995" lon="-1.84524">
        <ele>23</ele>
      </trkpt>
      <trkpt lat="47.77995" lon="-1.84524">
        <ele>23</ele>
      </trkpt>
      <trkpt lat="47.77995" lon="-1.84524">
        <ele>23</ele>
      </trkpt>
      <trkpt lat="47.77995" lon="-1.84524">
        <ele>23</ele>
      </trkpt>
      <trkpt lat="47.77995" lon="-1.84524">
        <ele>23</ele>
      </trkpt>
      <trkpt lat="47.77995" lon="-1.84524">
        <ele>23</ele>
      </trkpt>
      <trkpt lat="47.77995" lon="-1.84524">
        <ele>23</ele>
      </trkpt>
      <trkpt lat="47.77995" lon="-1.84524">
        <ele>23</ele>
      </trkpt>
      <trkpt lat="47.77995" lon="-1.84524">
        <ele>23</ele>
      </trkpt>
      <trkpt lat="47.77996" lon="-1.84524">
        <ele>23</ele>
      </trkpt>
      <trkpt lat="47.77998" lon="-1.84526">
        <ele>23.1</ele>
      </trkpt>
      <trkpt lat="47.78" lon="-1.84528">
        <ele>23</ele>
      </trkpt>
      <trkpt lat="47.78001" lon="-1.84529">
        <ele>23.1</ele>
      </trkpt>
      <trkpt lat="47.78003" lon="-1.8453">
        <ele>23</ele>
      </trkpt>
      <trkpt lat="47.78005" lon="-1.84533">
        <ele>23.2</ele>
      </trkpt>
      <trkpt lat="47.78006" lon="-1.84536">
        <ele>23.4</ele>
      </trkpt>
      <trkpt lat="47.78008" lon="-1.84538">
        <ele>23.5</ele>
      </trkpt>
      <trkpt lat="47.7801" lon="-1.84541">
        <ele>23.7</ele>
      </trkpt>
      <trkpt lat="47.78013" lon="-1.84545">
        <ele>23.9</ele>
      </trkpt>
      <trkpt lat="47.78014" lon="-1.84547">
        <ele>24.1</ele>
      </trkpt>
      <trkpt lat="47.78015" lon="-1.8455">
        <ele>24.3</ele>
      </trkpt>
      <trkpt lat="47.78016" lon="-1.84552">
        <ele>24.5</ele>
      </trkpt>
      <trkpt lat="47.78018" lon="-1.84554">
        <ele>24.6</ele>
      </trkpt>
      <trkpt lat="47.78021" lon="-1.84558">
        <ele>24.5</ele>
      </trkpt>
      <trkpt lat="47.78024" lon="-1.84562">
        <ele>24.4</ele>
      </trkpt>
      <trkpt lat="47.78027" lon="-1.84565">
        <ele>24.3</ele>
      </trkpt>
      <trkpt lat="47.78029" lon="-1.84567">
        <ele>24.1</ele>
      </trkpt>
      <trkpt lat="47.78031" lon="-1.84569">
        <ele>24</ele>
      </trkpt>
      <trkpt lat="47.78033" lon="-1.84572">
        <ele>24</ele>
      </trkpt>
      <trkpt lat="47.78036" lon="-1.84574">
        <ele>23.7</ele>
      </trkpt>
      <trkpt lat="47.78039" lon="-1.84576">
        <ele>23.3</ele>
      </trkpt>
      <trkpt lat="47.78043" lon="-1.84579">
        <ele>22.8</ele>
      </trkpt>
      <trkpt lat="47.78045" lon="-1.84582">
        <ele>22.5</ele>
      </trkpt>
      <trkpt lat="47.78048" lon="-1.84585">
        <ele>22.2</ele>
      </trkpt>
      <trkpt lat="47.78049" lon="-1.84586">
        <ele>22</ele>
      </trkpt>
      <trkpt lat="47.78049" lon="-1.84587">
        <ele>22</ele>
      </trkpt>
      <trkpt lat="47.78049" lon="-1.84587">
        <ele>22</ele>
      </trkpt>
      <trkpt lat="47.78049" lon="-1.84587">
        <ele>22</ele>
      </trkpt>
      <trkpt lat="47.7805" lon="-1.84587">
        <ele>21.8</ele>
      </trkpt>
      <trkpt lat="47.78051" lon="-1.84588">
        <ele>21.5</ele>
      </trkpt>
      <trkpt lat="47.78053" lon="-1.8459">
        <ele>21.3</ele>
      </trkpt>
      <trkpt lat="47.78054" lon="-1.84592">
        <ele>21</ele>
      </trkpt>
      <trkpt lat="47.78056" lon="-1.84595">
        <ele>20.7</ele>
      </trkpt>
      <trkpt lat="47.78059" lon="-1.84598">
        <ele>20.1</ele>
      </trkpt>
      <trkpt lat="47.78062" lon="-1.84602">
        <ele>19.7</ele>
      </trkpt>
      <trkpt lat="47.78063" lon="-1.84604">
        <ele>19.6</ele>
      </trkpt>
      <trkpt lat="47.78063" lon="-1.84606">
        <ele>19.6</ele>
      </trkpt>
      <trkpt lat="47.78063" lon="-1.84608">
        <ele>19.6</ele>
      </trkpt>
      <trkpt lat="47.78063" lon="-1.8461">
        <ele>19.8</ele>
      </trkpt>
      <trkpt lat="47.78062" lon="-1.84613">
        <ele>20.2</ele>
      </trkpt>
      <trkpt lat="47.78063" lon="-1.84615">
        <ele>20.1</ele>
      </trkpt>
      <trkpt lat="47.78066" lon="-1.84617">
        <ele>19.6</ele>
      </trkpt>
      <trkpt lat="47.78068" lon="-1.8462">
        <ele>19.1</ele>
      </trkpt>
      <trkpt lat="47.7807" lon="-1.84623">
        <ele>18.8</ele>
      </trkpt>
      <trkpt lat="47.78072" lon="-1.84626">
        <ele>18.6</ele>
      </trkpt>
      <trkpt lat="47.78073" lon="-1.84629">
        <ele>18.4</ele>
      </trkpt>
      <trkpt lat="47.78074" lon="-1.84631">
        <ele>18.3</ele>
      </trkpt>
      <trkpt lat="47.78075" lon="-1.84634">
        <ele>18.2</ele>
      </trkpt>
      <trkpt lat="47.78075" lon="-1.84634">
        <ele>18.2</ele>
      </trkpt>
      <trkpt lat="47.78075" lon="-1.84634">
        <ele>18.2</ele>
      </trkpt>
      <trkpt lat="47.78075" lon="-1.84634">
        <ele>18.2</ele>
      </trkpt>
      <trkpt lat="47.78075" lon="-1.84633">
        <ele>18.1</ele>
      </trkpt>
      <trkpt lat="47.78076" lon="-1.84632">
        <ele>18</ele>
      </trkpt>
      <trkpt lat="47.78076" lon="-1.84631">
        <ele>17.9</ele>
      </trkpt>
      <trkpt lat="47.78077" lon="-1.84631">
        <ele>17.8</ele>
      </trkpt>
      <trkpt lat="47.78077" lon="-1.84631">
        <ele>17.8</ele>
      </trkpt>
      <trkpt lat="47.78077" lon="-1.84631">
        <ele>17.8</ele>
      </trkpt>
      <trkpt lat="47.78077" lon="-1.84631">
        <ele>17.7</ele>
      </trkpt>
      <trkpt lat="47.78078" lon="-1.84632">
        <ele>17.6</ele>
      </trkpt>
      <trkpt lat="47.78078" lon="-1.84633">
        <ele>17.5</ele>
      </trkpt>
      <trkpt lat="47.78078" lon="-1.84633">
        <ele>17.5</ele>
      </trkpt>
      <trkpt lat="47.78078" lon="-1.84633">
        <ele>17.5</ele>
      </trkpt>
      <trkpt lat="47.78078" lon="-1.84633">
        <ele>17.5</ele>
      </trkpt>
      <trkpt lat="47.78078" lon="-1.84633">
        <ele>17.5</ele>
      </trkpt>
      <trkpt lat="47.78078" lon="-1.84633">
        <ele>17.5</ele>
      </trkpt>
      <trkpt lat="47.78078" lon="-1.84633">
        <ele>17.5</ele>
      </trkpt>
      <trkpt lat="47.78078" lon="-1.84633">
        <ele>17.5</ele>
      </trkpt>
      <trkpt lat="47.78078" lon="-1.84633">
        <ele>17.5</ele>
      </trkpt>
      <trkpt lat="47.78078" lon="-1.84633">
        <ele>17.5</ele>
      </trkpt>
      <trkpt lat="47.78078" lon="-1.84633">
        <ele>17.5</ele>
      </trkpt>
      <trkpt lat="47.7808" lon="-1.84635">
        <ele>17.1</ele>
      </trkpt>
      <trkpt lat="47.78082" lon="-1.84637">
        <ele>16.8</ele>
      </trkpt>
      <trkpt lat="47.78084" lon="-1.8464">
        <ele>16.7</ele>
      </trkpt>
      <trkpt lat="47.78086" lon="-1.84643">
        <ele>16.7</ele>
      </trkpt>
      <trkpt lat="47.78087" lon="-1.84646">
        <ele>16.8</ele>
      </trkpt>
      <trkpt lat="47.78089" lon="-1.8465">
        <ele>16.9</ele>
      </trkpt>
      <trkpt lat="47.78091" lon="-1.84655">
        <ele>17</ele>
      </trkpt>
      <trkpt lat="47.78094" lon="-1.8466">
        <ele>17.1</ele>
      </trkpt>
      <trkpt lat="47.78096" lon="-1.84665">
        <ele>17.2</ele>
      </trkpt>
      <trkpt lat="47.78097" lon="-1.84669">
        <ele>17.3</ele>
      </trkpt>
      <trkpt lat="47.78099" lon="-1.84672">
        <ele>17.2</ele>
      </trkpt>
      <trkpt lat="47.78101" lon="-1.84676">
        <ele>17.2</ele>
      </trkpt>
      <trkpt lat="47.78102" lon="-1.84683">
        <ele>17.3</ele>
      </trkpt>
      <trkpt lat="47.78102" lon="-1.84688">
        <ele>17.4</ele>
      </trkpt>
      <trkpt lat="47.78104" lon="-1.84693">
        <ele>17.4</ele>
      </trkpt>
      <trkpt lat="47.78107" lon="-1.847">
        <ele>17.3</ele>
      </trkpt>
      <trkpt lat="47.7811" lon="-1.84706">
        <ele>17.2</ele>
      </trkpt>
      <trkpt lat="47.78111" lon="-1.8471">
        <ele>17.2</ele>
      </trkpt>
      <trkpt lat="47.78115" lon="-1.84716">
        <ele>17</ele>
      </trkpt>
      <trkpt lat="47.78116" lon="-1.8472">
        <ele>16.9</ele>
      </trkpt>
      <trkpt lat="47.78117" lon="-1.84723">
        <ele>17</ele>
      </trkpt>
      <trkpt lat="47.78119" lon="-1.84728">
        <ele>16.8</ele>
      </trkpt>
      <trkpt lat="47.78121" lon="-1.84735">
        <ele>16.7</ele>
      </trkpt>
      <trkpt lat="47.78125" lon="-1.84741">
        <ele>16.4</ele>
      </trkpt>
      <trkpt lat="47.78129" lon="-1.84746">
        <ele>16</ele>
      </trkpt>
      <trkpt lat="47.78132" lon="-1.84754">
        <ele>15.8</ele>
      </trkpt>
      <trkpt lat="47.78134" lon="-1.8476">
        <ele>15.7</ele>
      </trkpt>
      <trkpt lat="47.78138" lon="-1.84768">
        <ele>15.5</ele>
      </trkpt>
      <trkpt lat="47.78141" lon="-1.84774">
        <ele>15.3</ele>
      </trkpt>
      <trkpt lat="47.78143" lon="-1.8478">
        <ele>15.1</ele>
      </trkpt>
      <trkpt lat="47.78145" lon="-1.84786">
        <ele>14.9</ele>
      </trkpt>
      <trkpt lat="47.78149" lon="-1.84795">
        <ele>14.5</ele>
      </trkpt>
      <trkpt lat="47.78152" lon="-1.84802">
        <ele>14.2</ele>
      </trkpt>
      <trkpt lat="47.78153" lon="-1.84809">
        <ele>14.1</ele>
      </trkpt>
      <trkpt lat="47.78152" lon="-1.84816">
        <ele>14.3</ele>
      </trkpt>
      <trkpt lat="47.78153" lon="-1.84824">
        <ele>14.2</ele>
      </trkpt>
      <trkpt lat="47.78156" lon="-1.84828">
        <ele>13.8</ele>
      </trkpt>
      <trkpt lat="47.78159" lon="-1.84834">
        <ele>13.4</ele>
      </trkpt>
      <trkpt lat="47.78158" lon="-1.84844">
        <ele>13.9</ele>
      </trkpt>
      <trkpt lat="47.78157" lon="-1.8485">
        <ele>14.4</ele>
      </trkpt>
      <trkpt lat="47.7816" lon="-1.84855">
        <ele>14.2</ele>
      </trkpt>
      <trkpt lat="47.78162" lon="-1.8486">
        <ele>14</ele>
      </trkpt>
      <trkpt lat="47.78165" lon="-1.84867">
        <ele>14</ele>
      </trkpt>
      <trkpt lat="47.78166" lon="-1.84873">
        <ele>14</ele>
      </trkpt>
      <trkpt lat="47.78169" lon="-1.84879">
        <ele>14</ele>
      </trkpt>
      <trkpt lat="47.78173" lon="-1.84885">
        <ele>13.8</ele>
      </trkpt>
      <trkpt lat="47.78176" lon="-1.84889">
        <ele>13.7</ele>
      </trkpt>
      <trkpt lat="47.78179" lon="-1.84895">
        <ele>13.7</ele>
      </trkpt>
      <trkpt lat="47.78181" lon="-1.84901">
        <ele>13.7</ele>
      </trkpt>
      <trkpt lat="47.78183" lon="-1.84907">
        <ele>13.6</ele>
      </trkpt>
      <trkpt lat="47.78186" lon="-1.84913">
        <ele>13.6</ele>
      </trkpt>
      <trkpt lat="47.78188" lon="-1.84919">
        <ele>13.5</ele>
      </trkpt>
      <trkpt lat="47.7819" lon="-1.84925">
        <ele>13.5</ele>
      </trkpt>
      <trkpt lat="47.78192" lon="-1.84931">
        <ele>13.5</ele>
      </trkpt>
      <trkpt lat="47.78194" lon="-1.84937">
        <ele>13.5</ele>
      </trkpt>
      <trkpt lat="47.78196" lon="-1.84942">
        <ele>13.4</ele>
      </trkpt>
      <trkpt lat="47.78199" lon="-1.84946">
        <ele>13.3</ele>
      </trkpt>
      <trkpt lat="47.78201" lon="-1.84947">
        <ele>13</ele>
      </trkpt>
      <trkpt lat="47.78204" lon="-1.84946">
        <ele>12.6</ele>
      </trkpt>
      <trkpt lat="47.78208" lon="-1.84942">
        <ele>12</ele>
      </trkpt>
      <trkpt lat="47.78211" lon="-1.84937">
        <ele>11.4</ele>
      </trkpt>
      <trkpt lat="47.78214" lon="-1.84932">
        <ele>10.8</ele>
      </trkpt>
      <trkpt lat="47.78217" lon="-1.84926">
        <ele>10.2</ele>
      </trkpt>
      <trkpt lat="47.7822" lon="-1.84921">
        <ele>9.8</ele>
      </trkpt>
      <trkpt lat="47.78223" lon="-1.84916">
        <ele>9.2</ele>
      </trkpt>
      <trkpt lat="47.78226" lon="-1.8491">
        <ele>8.7</ele>
      </trkpt>
      <trkpt lat="47.78229" lon="-1.84905">
        <ele>8.4</ele>
      </trkpt>
      <trkpt lat="47.78231" lon="-1.84901">
        <ele>8.1</ele>
      </trkpt>
      <trkpt lat="47.78234" lon="-1.84896">
        <ele>7.8</ele>
      </trkpt>
      <trkpt lat="47.78237" lon="-1.8489">
        <ele>7.3</ele>
      </trkpt>
      <trkpt lat="47.7824" lon="-1.84884">
        <ele>7</ele>
      </trkpt>
      <trkpt lat="47.78243" lon="-1.84879">
        <ele>6.7</ele>
      </trkpt>
      <trkpt lat="47.78246" lon="-1.84875">
        <ele>6.4</ele>
      </trkpt>
      <trkpt lat="47.78249" lon="-1.84869">
        <ele>6.1</ele>
      </trkpt>
      <trkpt lat="47.78253" lon="-1.84863">
        <ele>6</ele>
      </trkpt>
      <trkpt lat="47.78256" lon="-1.84857">
        <ele>6</ele>
      </trkpt>
      <trkpt lat="47.78258" lon="-1.84853">
        <ele>6</ele>
      </trkpt>
      <trkpt lat="47.78261" lon="-1.84848">
        <ele>6</ele>
      </trkpt>
      <trkpt lat="47.78263" lon="-1.84843">
        <ele>6</ele>
      </trkpt>
      <trkpt lat="47.78266" lon="-1.84838">
        <ele>6</ele>
      </trkpt>
      <trkpt lat="47.78269" lon="-1.84833">
        <ele>6</ele>
      </trkpt>
      <trkpt lat="47.78273" lon="-1.84828">
        <ele>6.1</ele>
      </trkpt>
      <trkpt lat="47.78276" lon="-1.84822">
        <ele>6.1</ele>
      </trkpt>
      <trkpt lat="47.78279" lon="-1.84816">
        <ele>6.2</ele>
      </trkpt>
      <trkpt lat="47.78281" lon="-1.8481">
        <ele>6.3</ele>
      </trkpt>
      <trkpt lat="47.78284" lon="-1.84804">
        <ele>6.4</ele>
      </trkpt>
      <trkpt lat="47.78286" lon="-1.84798">
        <ele>6.4</ele>
      </trkpt>
      <trkpt lat="47.78289" lon="-1.84792">
        <ele>6.5</ele>
      </trkpt>
      <trkpt lat="47.78291" lon="-1.84786">
        <ele>6.6</ele>
      </trkpt>
      <trkpt lat="47.78294" lon="-1.8478">
        <ele>6.6</ele>
      </trkpt>
      <trkpt lat="47.78297" lon="-1.84774">
        <ele>6.7</ele>
      </trkpt>
      <trkpt lat="47.78299" lon="-1.84768">
        <ele>6.8</ele>
      </trkpt>
      <trkpt lat="47.78301" lon="-1.84762">
        <ele>6.9</ele>
      </trkpt>
      <trkpt lat="47.78304" lon="-1.84756">
        <ele>6.9</ele>
      </trkpt>
      <trkpt lat="47.78306" lon="-1.8475">
        <ele>7</ele>
      </trkpt>
      <trkpt lat="47.7831" lon="-1.84744">
        <ele>7.1</ele>
      </trkpt>
      <trkpt lat="47.78313" lon="-1.84738">
        <ele>7.1</ele>
      </trkpt>
      <trkpt lat="47.78316" lon="-1.84732">
        <ele>7.2</ele>
      </trkpt>
      <trkpt lat="47.78318" lon="-1.84727">
        <ele>7.2</ele>
      </trkpt>
      <trkpt lat="47.78321" lon="-1.84721">
        <ele>7.2</ele>
      </trkpt>
      <trkpt lat="47.78324" lon="-1.84714">
        <ele>7.2</ele>
      </trkpt>
      <trkpt lat="47.78327" lon="-1.84708">
        <ele>7.2</ele>
      </trkpt>
      <trkpt lat="47.7833" lon="-1.84703">
        <ele>7.1</ele>
      </trkpt>
      <trkpt lat="47.78331" lon="-1.84696">
        <ele>7.1</ele>
      </trkpt>
      <trkpt lat="47.78331" lon="-1.84689">
        <ele>7.1</ele>
      </trkpt>
      <trkpt lat="47.78329" lon="-1.84684">
        <ele>7.2</ele>
      </trkpt>
      <trkpt lat="47.78326" lon="-1.8468">
        <ele>7.3</ele>
      </trkpt>
      <trkpt lat="47.78322" lon="-1.84677">
        <ele>7.5</ele>
      </trkpt>
      <trkpt lat="47.78318" lon="-1.84674">
        <ele>7.7</ele>
      </trkpt>
      <trkpt lat="47.78313" lon="-1.84671">
        <ele>7.9</ele>
      </trkpt>
      <trkpt lat="47.7831" lon="-1.84667">
        <ele>8.1</ele>
      </trkpt>
      <trkpt lat="47.78302" lon="-1.84661">
        <ele>8.3</ele>
      </trkpt>
      <trkpt lat="47.783" lon="-1.8466">
        <ele>8.3</ele>
      </trkpt>
      <trkpt lat="47.78298" lon="-1.84658">
        <ele>8.4</ele>
      </trkpt>
      <trkpt lat="47.78295" lon="-1.84655">
        <ele>8.4</ele>
      </trkpt>
      <trkpt lat="47.78291" lon="-1.84653">
        <ele>8.5</ele>
      </trkpt>
      <trkpt lat="47.78288" lon="-1.8465">
        <ele>8.6</ele>
      </trkpt>
      <trkpt lat="47.78283" lon="-1.84647">
        <ele>8.7</ele>
      </trkpt>
      <trkpt lat="47.78279" lon="-1.84644">
        <ele>8.8</ele>
      </trkpt>
      <trkpt lat="47.78275" lon="-1.84639">
        <ele>8.8</ele>
      </trkpt>
      <trkpt lat="47.78271" lon="-1.84636">
        <ele>8.9</ele>
      </trkpt>
      <trkpt lat="47.78266" lon="-1.84633">
        <ele>9</ele>
      </trkpt>
      <trkpt lat="47.78262" lon="-1.8463">
        <ele>9.1</ele>
      </trkpt>
      <trkpt lat="47.78257" lon="-1.84626">
        <ele>9.2</ele>
      </trkpt>
      <trkpt lat="47.78253" lon="-1.84623">
        <ele>9.3</ele>
      </trkpt>
      <trkpt lat="47.78248" lon="-1.8462">
        <ele>9.4</ele>
      </trkpt>
      <trkpt lat="47.78244" lon="-1.84617">
        <ele>9.4</ele>
      </trkpt>
      <trkpt lat="47.7824" lon="-1.84614">
        <ele>9.3</ele>
      </trkpt>
      <trkpt lat="47.78236" lon="-1.84611">
        <ele>9.3</ele>
      </trkpt>
      <trkpt lat="47.78232" lon="-1.84607">
        <ele>9.3</ele>
      </trkpt>
      <trkpt lat="47.78228" lon="-1.84604">
        <ele>9.3</ele>
      </trkpt>
      <trkpt lat="47.78223" lon="-1.846">
        <ele>9.3</ele>
      </trkpt>
      <trkpt lat="47.78219" lon="-1.84597">
        <ele>9.2</ele>
      </trkpt>
      <trkpt lat="47.78214" lon="-1.84593">
        <ele>9.2</ele>
      </trkpt>
      <trkpt lat="47.7821" lon="-1.84589">
        <ele>9.2</ele>
      </trkpt>
      <trkpt lat="47.78205" lon="-1.84585">
        <ele>9.1</ele>
      </trkpt>
      <trkpt lat="47.78201" lon="-1.84581">
        <ele>9.1</ele>
      </trkpt>
      <trkpt lat="47.78197" lon="-1.84577">
        <ele>9.1</ele>
      </trkpt>
      <trkpt lat="47.78193" lon="-1.84574">
        <ele>9</ele>
      </trkpt>
      <trkpt lat="47.78189" lon="-1.84571">
        <ele>9</ele>
      </trkpt>
      <trkpt lat="47.78184" lon="-1.84567">
        <ele>9</ele>
      </trkpt>
      <trkpt lat="47.7818" lon="-1.84563">
        <ele>9</ele>
      </trkpt>
      <trkpt lat="47.78175" lon="-1.8456">
        <ele>8.9</ele>
      </trkpt>
      <trkpt lat="47.78171" lon="-1.84556">
        <ele>8.9</ele>
      </trkpt>
      <trkpt lat="47.78166" lon="-1.84552">
        <ele>8.9</ele>
      </trkpt>
      <trkpt lat="47.78161" lon="-1.84548">
        <ele>9</ele>
      </trkpt>
      <trkpt lat="47.78157" lon="-1.84544">
        <ele>9</ele>
      </trkpt>
      <trkpt lat="47.78152" lon="-1.84541">
        <ele>9.1</ele>
      </trkpt>
      <trkpt lat="47.78147" lon="-1.84537">
        <ele>9.1</ele>
      </trkpt>
      <trkpt lat="47.78143" lon="-1.84533">
        <ele>9.2</ele>
      </trkpt>
      <trkpt lat="47.78138" lon="-1.8453">
        <ele>9.2</ele>
      </trkpt>
      <trkpt lat="47.78133" lon="-1.84526">
        <ele>9.3</ele>
      </trkpt>
      <trkpt lat="47.78129" lon="-1.84522">
        <ele>9.3</ele>
      </trkpt>
      <trkpt lat="47.78124" lon="-1.84518">
        <ele>9.3</ele>
      </trkpt>
      <trkpt lat="47.78119" lon="-1.84513">
        <ele>9.3</ele>
      </trkpt>
      <trkpt lat="47.78114" lon="-1.84509">
        <ele>9.3</ele>
      </trkpt>
      <trkpt lat="47.78109" lon="-1.84505">
        <ele>9.3</ele>
      </trkpt>
      <trkpt lat="47.78104" lon="-1.845">
        <ele>9.3</ele>
      </trkpt>
      <trkpt lat="47.781" lon="-1.84496">
        <ele>9.2</ele>
      </trkpt>
      <trkpt lat="47.78095" lon="-1.84491">
        <ele>9.2</ele>
      </trkpt>
      <trkpt lat="47.7809" lon="-1.84487">
        <ele>9.2</ele>
      </trkpt>
      <trkpt lat="47.78084" lon="-1.84482">
        <ele>9.1</ele>
      </trkpt>
      <trkpt lat="47.7808" lon="-1.84478">
        <ele>9.2</ele>
      </trkpt>
      <trkpt lat="47.78075" lon="-1.84474">
        <ele>9.3</ele>
      </trkpt>
      <trkpt lat="47.7807" lon="-1.8447">
        <ele>9.4</ele>
      </trkpt>
      <trkpt lat="47.78065" lon="-1.84465">
        <ele>9.4</ele>
      </trkpt>
      <trkpt lat="47.7806" lon="-1.8446">
        <ele>9.4</ele>
      </trkpt>
      <trkpt lat="47.78055" lon="-1.84455">
        <ele>9.3</ele>
      </trkpt>
      <trkpt lat="47.7805" lon="-1.84451">
        <ele>9.2</ele>
      </trkpt>
      <trkpt lat="47.78045" lon="-1.84447">
        <ele>9</ele>
      </trkpt>
      <trkpt lat="47.78041" lon="-1.84442">
        <ele>8.8</ele>
      </trkpt>
      <trkpt lat="47.78036" lon="-1.84437">
        <ele>8.5</ele>
      </trkpt>
      <trkpt lat="47.78031" lon="-1.84432">
        <ele>8.2</ele>
      </trkpt>
      <trkpt lat="47.78025" lon="-1.84427">
        <ele>7.7</ele>
      </trkpt>
      <trkpt lat="47.7802" lon="-1.84421">
        <ele>7.2</ele>
      </trkpt>
      <trkpt lat="47.78015" lon="-1.84416">
        <ele>6.8</ele>
      </trkpt>
      <trkpt lat="47.78011" lon="-1.84412">
        <ele>6.9</ele>
      </trkpt>
      <trkpt lat="47.78005" lon="-1.84407">
        <ele>6.9</ele>
      </trkpt>
      <trkpt lat="47.78" lon="-1.84403">
        <ele>7</ele>
      </trkpt>
      <trkpt lat="47.77995" lon="-1.84398">
        <ele>7.4</ele>
      </trkpt>
      <trkpt lat="47.7799" lon="-1.84393">
        <ele>7.8</ele>
      </trkpt>
      <trkpt lat="47.77984" lon="-1.84389">
        <ele>8.1</ele>
      </trkpt>
      <trkpt lat="47.77979" lon="-1.84384">
        <ele>8.4</ele>
      </trkpt>
      <trkpt lat="47.77973" lon="-1.84379">
        <ele>8.6</ele>
      </trkpt>
      <trkpt lat="47.77968" lon="-1.84375">
        <ele>8.8</ele>
      </trkpt>
      <trkpt lat="47.77962" lon="-1.84371">
        <ele>8.8</ele>
      </trkpt>
      <trkpt lat="47.77957" lon="-1.84365">
        <ele>8.8</ele>
      </trkpt>
      <trkpt lat="47.77952" lon="-1.8436">
        <ele>8.7</ele>
      </trkpt>
      <trkpt lat="47.77947" lon="-1.84356">
        <ele>8.6</ele>
      </trkpt>
      <trkpt lat="47.77942" lon="-1.84353">
        <ele>8.5</ele>
      </trkpt>
      <trkpt lat="47.77937" lon="-1.84347">
        <ele>8.1</ele>
      </trkpt>
      <trkpt lat="47.77932" lon="-1.84343">
        <ele>7.8</ele>
      </trkpt>
      <trkpt lat="47.77927" lon="-1.84338">
        <ele>7.4</ele>
      </trkpt>
      <trkpt lat="47.77923" lon="-1.84333">
        <ele>7</ele>
      </trkpt>
      <trkpt lat="47.77917" lon="-1.84329">
        <ele>6.9</ele>
      </trkpt>
      <trkpt lat="47.77913" lon="-1.84324">
        <ele>7.1</ele>
      </trkpt>
      <trkpt lat="47.77907" lon="-1.8432">
        <ele>7.3</ele>
      </trkpt>
      <trkpt lat="47.77902" lon="-1.84315">
        <ele>7.5</ele>
      </trkpt>
      <trkpt lat="47.77897" lon="-1.84311">
        <ele>7.6</ele>
      </trkpt>
      <trkpt lat="47.77892" lon="-1.84307">
        <ele>7.8</ele>
      </trkpt>
      <trkpt lat="47.77887" lon="-1.84303">
        <ele>7.9</ele>
      </trkpt>
      <trkpt lat="47.77882" lon="-1.84299">
        <ele>8</ele>
      </trkpt>
      <trkpt lat="47.77877" lon="-1.84294">
        <ele>8</ele>
      </trkpt>
      <trkpt lat="47.77872" lon="-1.8429">
        <ele>8.1</ele>
      </trkpt>
      <trkpt lat="47.77867" lon="-1.84286">
        <ele>8.1</ele>
      </trkpt>
      <trkpt lat="47.77861" lon="-1.84282">
        <ele>8.1</ele>
      </trkpt>
      <trkpt lat="47.77856" lon="-1.84278">
        <ele>8.1</ele>
      </trkpt>
      <trkpt lat="47.77851" lon="-1.84274">
        <ele>8.1</ele>
      </trkpt>
      <trkpt lat="47.77846" lon="-1.84271">
        <ele>8.1</ele>
      </trkpt>
      <trkpt lat="47.77841" lon="-1.84267">
        <ele>8</ele>
      </trkpt>
      <trkpt lat="47.77836" lon="-1.84263">
        <ele>7.9</ele>
      </trkpt>
      <trkpt lat="47.77829" lon="-1.84259">
        <ele>7.9</ele>
      </trkpt>
      <trkpt lat="47.77825" lon="-1.84257">
        <ele>7.9</ele>
      </trkpt>
      <trkpt lat="47.77819" lon="-1.84254">
        <ele>7.9</ele>
      </trkpt>
      <trkpt lat="47.77813" lon="-1.8425">
        <ele>8</ele>
      </trkpt>
      <trkpt lat="47.77808" lon="-1.84247">
        <ele>8.1</ele>
      </trkpt>
      <trkpt lat="47.77803" lon="-1.84244">
        <ele>8.2</ele>
      </trkpt>
      <trkpt lat="47.77798" lon="-1.8424">
        <ele>8.3</ele>
      </trkpt>
      <trkpt lat="47.77793" lon="-1.84236">
        <ele>8.3</ele>
      </trkpt>
      <trkpt lat="47.77789" lon="-1.84232">
        <ele>8.4</ele>
      </trkpt>
      <trkpt lat="47.77784" lon="-1.84229">
        <ele>8.4</ele>
      </trkpt>
      <trkpt lat="47.7778" lon="-1.84226">
        <ele>8.5</ele>
      </trkpt>
      <trkpt lat="47.77775" lon="-1.84223">
        <ele>8.6</ele>
      </trkpt>
      <trkpt lat="47.77771" lon="-1.84221">
        <ele>8.7</ele>
      </trkpt>
      <trkpt lat="47.77767" lon="-1.84217">
        <ele>8.7</ele>
      </trkpt>
      <trkpt lat="47.77762" lon="-1.84213">
        <ele>8.7</ele>
      </trkpt>
      <trkpt lat="47.77758" lon="-1.84209">
        <ele>8.7</ele>
      </trkpt>
      <trkpt lat="47.77753" lon="-1.84205">
        <ele>8.7</ele>
      </trkpt>
      <trkpt lat="47.77748" lon="-1.84201">
        <ele>8.7</ele>
      </trkpt>
      <trkpt lat="47.77744" lon="-1.84196">
        <ele>8.5</ele>
      </trkpt>
      <trkpt lat="47.77739" lon="-1.84192">
        <ele>8.4</ele>
      </trkpt>
      <trkpt lat="47.77735" lon="-1.84188">
        <ele>8.3</ele>
      </trkpt>
      <trkpt lat="47.7773" lon="-1.84184">
        <ele>8.2</ele>
      </trkpt>
      <trkpt lat="47.77726" lon="-1.84179">
        <ele>8.1</ele>
      </trkpt>
      <trkpt lat="47.77722" lon="-1.84175">
        <ele>8</ele>
      </trkpt>
      <trkpt lat="47.77718" lon="-1.8417">
        <ele>7.9</ele>
      </trkpt>
      <trkpt lat="47.77714" lon="-1.84166">
        <ele>7.8</ele>
      </trkpt>
      <trkpt lat="47.7771" lon="-1.84162">
        <ele>7.8</ele>
      </trkpt>
      <trkpt lat="47.77705" lon="-1.84158">
        <ele>7.7</ele>
      </trkpt>
      <trkpt lat="47.77701" lon="-1.84154">
        <ele>7.7</ele>
      </trkpt>
      <trkpt lat="47.77697" lon="-1.8415">
        <ele>7.6</ele>
      </trkpt>
      <trkpt lat="47.77693" lon="-1.84145">
        <ele>7.5</ele>
      </trkpt>
      <trkpt lat="47.77689" lon="-1.84141">
        <ele>7.5</ele>
      </trkpt>
      <trkpt lat="47.77684" lon="-1.84136">
        <ele>7.4</ele>
      </trkpt>
      <trkpt lat="47.77678" lon="-1.84132">
        <ele>7.4</ele>
      </trkpt>
      <trkpt lat="47.77672" lon="-1.84127">
        <ele>7.4</ele>
      </trkpt>
      <trkpt lat="47.77667" lon="-1.84122">
        <ele>7.4</ele>
      </trkpt>
      <trkpt lat="47.77662" lon="-1.84117">
        <ele>7.3</ele>
      </trkpt>
      <trkpt lat="47.77657" lon="-1.84113">
        <ele>7.4</ele>
      </trkpt>
      <trkpt lat="47.77651" lon="-1.84108">
        <ele>7.4</ele>
      </trkpt>
      <trkpt lat="47.77645" lon="-1.84102">
        <ele>7.5</ele>
      </trkpt>
      <trkpt lat="47.77641" lon="-1.84097">
        <ele>7.5</ele>
      </trkpt>
      <trkpt lat="47.77635" lon="-1.84094">
        <ele>7.7</ele>
      </trkpt>
      <trkpt lat="47.7763" lon="-1.84089">
        <ele>7.9</ele>
      </trkpt>
      <trkpt lat="47.77626" lon="-1.84083">
        <ele>7.9</ele>
      </trkpt>
      <trkpt lat="47.77622" lon="-1.84076">
        <ele>7.9</ele>
      </trkpt>
      <trkpt lat="47.77619" lon="-1.8407">
        <ele>7.8</ele>
      </trkpt>
      <trkpt lat="47.77615" lon="-1.84066">
        <ele>7.9</ele>
      </trkpt>
      <trkpt lat="47.7761" lon="-1.84061">
        <ele>7.9</ele>
      </trkpt>
      <trkpt lat="47.77605" lon="-1.84056">
        <ele>8</ele>
      </trkpt>
      <trkpt lat="47.77601" lon="-1.84051">
        <ele>8</ele>
      </trkpt>
      <trkpt lat="47.77596" lon="-1.84047">
        <ele>8.1</ele>
      </trkpt>
      <trkpt lat="47.77592" lon="-1.84042">
        <ele>8.1</ele>
      </trkpt>
      <trkpt lat="47.77587" lon="-1.84037">
        <ele>8.2</ele>
      </trkpt>
      <trkpt lat="47.77582" lon="-1.84033">
        <ele>8.1</ele>
      </trkpt>
      <trkpt lat="47.77577" lon="-1.84028">
        <ele>7.9</ele>
      </trkpt>
      <trkpt lat="47.77573" lon="-1.84024">
        <ele>7.7</ele>
      </trkpt>
      <trkpt lat="47.77569" lon="-1.84021">
        <ele>7.5</ele>
      </trkpt>
      <trkpt lat="47.77564" lon="-1.84017">
        <ele>7.3</ele>
      </trkpt>
      <trkpt lat="47.7756" lon="-1.84014">
        <ele>7.1</ele>
      </trkpt>
      <trkpt lat="47.77556" lon="-1.8401">
        <ele>7</ele>
      </trkpt>
      <trkpt lat="47.77551" lon="-1.84007">
        <ele>6.8</ele>
      </trkpt>
      <trkpt lat="47.77547" lon="-1.84003">
        <ele>6.6</ele>
      </trkpt>
      <trkpt lat="47.77542" lon="-1.83999">
        <ele>6.5</ele>
      </trkpt>
      <trkpt lat="47.77537" lon="-1.83996">
        <ele>6.3</ele>
      </trkpt>
      <trkpt lat="47.77532" lon="-1.83993">
        <ele>6.2</ele>
      </trkpt>
      <trkpt lat="47.77527" lon="-1.8399">
        <ele>6</ele>
      </trkpt>
      <trkpt lat="47.77522" lon="-1.83986">
        <ele>5.9</ele>
      </trkpt>
      <trkpt lat="47.77518" lon="-1.83983">
        <ele>5.8</ele>
      </trkpt>
      <trkpt lat="47.77513" lon="-1.8398">
        <ele>5.6</ele>
      </trkpt>
      <trkpt lat="47.77508" lon="-1.83977">
        <ele>5.5</ele>
      </trkpt>
      <trkpt lat="47.77503" lon="-1.83975">
        <ele>5.4</ele>
      </trkpt>
      <trkpt lat="47.77499" lon="-1.83975">
        <ele>5.4</ele>
      </trkpt>
      <trkpt lat="47.77497" lon="-1.83978">
        <ele>5.5</ele>
      </trkpt>
      <trkpt lat="47.77495" lon="-1.83981">
        <ele>5.5</ele>
      </trkpt>
      <trkpt lat="47.77494" lon="-1.83984">
        <ele>5.6</ele>
      </trkpt>
      <trkpt lat="47.77493" lon="-1.83986">
        <ele>5.6</ele>
      </trkpt>
      <trkpt lat="47.77491" lon="-1.83989">
        <ele>5.7</ele>
      </trkpt>
      <trkpt lat="47.77491" lon="-1.83991">
        <ele>5.7</ele>
      </trkpt>
      <trkpt lat="47.7749" lon="-1.83993">
        <ele>5.7</ele>
      </trkpt>
      <trkpt lat="47.77489" lon="-1.83996">
        <ele>5.8</ele>
      </trkpt>
      <trkpt lat="47.77488" lon="-1.83999">
        <ele>5.8</ele>
      </trkpt>
      <trkpt lat="47.77487" lon="-1.84001">
        <ele>5.9</ele>
      </trkpt>
      <trkpt lat="47.77486" lon="-1.84002">
        <ele>5.9</ele>
      </trkpt>
      <trkpt lat="47.77484" lon="-1.84002">
        <ele>5.8</ele>
      </trkpt>
      <trkpt lat="47.77483" lon="-1.84">
        <ele>5.8</ele>
      </trkpt>
      <trkpt lat="47.77482" lon="-1.83997">
        <ele>5.7</ele>
      </trkpt>
      <trkpt lat="47.77483" lon="-1.83994">
        <ele>5.7</ele>
      </trkpt>
      <trkpt lat="47.77484" lon="-1.83991">
        <ele>5.6</ele>
      </trkpt>
      <trkpt lat="47.77484" lon="-1.83986">
        <ele>5.6</ele>
      </trkpt>
      <trkpt lat="47.77485" lon="-1.83981">
        <ele>5.5</ele>
      </trkpt>
      <trkpt lat="47.77486" lon="-1.83976">
        <ele>5.4</ele>
      </trkpt>
      <trkpt lat="47.77486" lon="-1.83972">
        <ele>5.3</ele>
      </trkpt>
      <trkpt lat="47.77487" lon="-1.83966">
        <ele>5.2</ele>
      </trkpt>
      <trkpt lat="47.77487" lon="-1.83961">
        <ele>5.1</ele>
      </trkpt>
      <trkpt lat="47.77488" lon="-1.83955">
        <ele>5</ele>
      </trkpt>
      <trkpt lat="47.77489" lon="-1.83949">
        <ele>4.9</ele>
      </trkpt>
      <trkpt lat="47.7749" lon="-1.83944">
        <ele>4.8</ele>
      </trkpt>
      <trkpt lat="47.7749" lon="-1.83939">
        <ele>4.7</ele>
      </trkpt>
      <trkpt lat="47.77491" lon="-1.83933">
        <ele>4.5</ele>
      </trkpt>
      <trkpt lat="47.77492" lon="-1.83927">
        <ele>4.4</ele>
      </trkpt>
      <trkpt lat="47.77493" lon="-1.83922">
        <ele>4.3</ele>
      </trkpt>
      <trkpt lat="47.77494" lon="-1.83915">
        <ele>4.2</ele>
      </trkpt>
      <trkpt lat="47.77494" lon="-1.83909">
        <ele>4.3</ele>
      </trkpt>
      <trkpt lat="47.77495" lon="-1.83903">
        <ele>4.5</ele>
      </trkpt>
      <trkpt lat="47.77496" lon="-1.83897">
        <ele>4.6</ele>
      </trkpt>
      <trkpt lat="47.77496" lon="-1.83891">
        <ele>4.7</ele>
      </trkpt>
      <trkpt lat="47.77497" lon="-1.83885">
        <ele>4.9</ele>
      </trkpt>
      <trkpt lat="47.77499" lon="-1.83878">
        <ele>5</ele>
      </trkpt>
      <trkpt lat="47.77499" lon="-1.83872">
        <ele>5.1</ele>
      </trkpt>
      <trkpt lat="47.77499" lon="-1.83865">
        <ele>5.3</ele>
      </trkpt>
      <trkpt lat="47.775" lon="-1.83858">
        <ele>5.4</ele>
      </trkpt>
      <trkpt lat="47.775" lon="-1.83853">
        <ele>5.5</ele>
      </trkpt>
      <trkpt lat="47.77501" lon="-1.83847">
        <ele>5.7</ele>
      </trkpt>
      <trkpt lat="47.77502" lon="-1.83839">
        <ele>5.8</ele>
      </trkpt>
      <trkpt lat="47.77503" lon="-1.83834">
        <ele>5.9</ele>
      </trkpt>
      <trkpt lat="47.77504" lon="-1.83827">
        <ele>6.8</ele>
      </trkpt>
      <trkpt lat="47.77505" lon="-1.83822">
        <ele>7.5</ele>
      </trkpt>
      <trkpt lat="47.77506" lon="-1.83816">
        <ele>8.4</ele>
      </trkpt>
      <trkpt lat="47.77508" lon="-1.83809">
        <ele>9.3</ele>
      </trkpt>
      <trkpt lat="47.7751" lon="-1.838">
        <ele>10.3</ele>
      </trkpt>
      <trkpt lat="47.77512" lon="-1.83793">
        <ele>11.1</ele>
      </trkpt>
      <trkpt lat="47.77514" lon="-1.83787">
        <ele>11.7</ele>
      </trkpt>
      <trkpt lat="47.77518" lon="-1.83781">
        <ele>12.3</ele>
      </trkpt>
      <trkpt lat="47.77521" lon="-1.83775">
        <ele>12.8</ele>
      </trkpt>
      <trkpt lat="47.77526" lon="-1.83768">
        <ele>13.2</ele>
      </trkpt>
      <trkpt lat="47.77529" lon="-1.83762">
        <ele>13.5</ele>
      </trkpt>
      <trkpt lat="47.77532" lon="-1.83758">
        <ele>13.7</ele>
      </trkpt>
      <trkpt lat="47.77536" lon="-1.83753">
        <ele>13.8</ele>
      </trkpt>
      <trkpt lat="47.7754" lon="-1.83749">
        <ele>14</ele>
      </trkpt>
      <trkpt lat="47.77544" lon="-1.83745">
        <ele>14.3</ele>
      </trkpt>
      <trkpt lat="47.77548" lon="-1.83741">
        <ele>14.5</ele>
      </trkpt>
      <trkpt lat="47.77552" lon="-1.83738">
        <ele>14.6</ele>
      </trkpt>
      <trkpt lat="47.77557" lon="-1.83733">
        <ele>14.7</ele>
      </trkpt>
      <trkpt lat="47.77561" lon="-1.8373">
        <ele>14.9</ele>
      </trkpt>
      <trkpt lat="47.77566" lon="-1.83725">
        <ele>14.9</ele>
      </trkpt>
      <trkpt lat="47.7757" lon="-1.83722">
        <ele>14.9</ele>
      </trkpt>
      <trkpt lat="47.77573" lon="-1.83719">
        <ele>15</ele>
      </trkpt>
      <trkpt lat="47.77578" lon="-1.83715">
        <ele>14.9</ele>
      </trkpt>
      <trkpt lat="47.77582" lon="-1.83712">
        <ele>14.8</ele>
      </trkpt>
      <trkpt lat="47.77586" lon="-1.83707">
        <ele>14.9</ele>
      </trkpt>
      <trkpt lat="47.7759" lon="-1.83704">
        <ele>15.1</ele>
      </trkpt>
      <trkpt lat="47.77593" lon="-1.83701">
        <ele>15.3</ele>
      </trkpt>
      <trkpt lat="47.77597" lon="-1.83698">
        <ele>15.4</ele>
      </trkpt>
      <trkpt lat="47.77601" lon="-1.83695">
        <ele>15.5</ele>
      </trkpt>
      <trkpt lat="47.77605" lon="-1.83691">
        <ele>15.6</ele>
      </trkpt>
      <trkpt lat="47.77609" lon="-1.83687">
        <ele>15.7</ele>
      </trkpt>
      <trkpt lat="47.77611" lon="-1.83684">
        <ele>15.8</ele>
      </trkpt>
      <trkpt lat="47.77616" lon="-1.8368">
        <ele>15.9</ele>
      </trkpt>
      <trkpt lat="47.77619" lon="-1.83677">
        <ele>16</ele>
      </trkpt>
      <trkpt lat="47.77622" lon="-1.83674">
        <ele>16</ele>
      </trkpt>
      <trkpt lat="47.77626" lon="-1.83671">
        <ele>15.9</ele>
      </trkpt>
      <trkpt lat="47.7763" lon="-1.83668">
        <ele>15.9</ele>
      </trkpt>
      <trkpt lat="47.77634" lon="-1.83665">
        <ele>15.9</ele>
      </trkpt>
      <trkpt lat="47.77637" lon="-1.83662">
        <ele>16.2</ele>
      </trkpt>
      <trkpt lat="47.77641" lon="-1.83659">
        <ele>16.5</ele>
      </trkpt>
      <trkpt lat="47.77646" lon="-1.83656">
        <ele>16.7</ele>
      </trkpt>
      <trkpt lat="47.77649" lon="-1.83653">
        <ele>16.9</ele>
      </trkpt>
      <trkpt lat="47.77654" lon="-1.8365">
        <ele>16.9</ele>
      </trkpt>
      <trkpt lat="47.77657" lon="-1.83648">
        <ele>17</ele>
      </trkpt>
      <trkpt lat="47.77662" lon="-1.83645">
        <ele>16.9</ele>
      </trkpt>
      <trkpt lat="47.77666" lon="-1.83643">
        <ele>16.9</ele>
      </trkpt>
      <trkpt lat="47.7767" lon="-1.8364">
        <ele>17.1</ele>
      </trkpt>
      <trkpt lat="47.77675" lon="-1.83638">
        <ele>17.2</ele>
      </trkpt>
      <trkpt lat="47.77679" lon="-1.83636">
        <ele>17.3</ele>
      </trkpt>
      <trkpt lat="47.77683" lon="-1.83634">
        <ele>17.3</ele>
      </trkpt>
      <trkpt lat="47.77687" lon="-1.83633">
        <ele>17.2</ele>
      </trkpt>
      <trkpt lat="47.77691" lon="-1.83631">
        <ele>17.1</ele>
      </trkpt>
      <trkpt lat="47.77694" lon="-1.83631">
        <ele>16.9</ele>
      </trkpt>
      <trkpt lat="47.77699" lon="-1.8363">
        <ele>16.7</ele>
      </trkpt>
      <trkpt lat="47.77703" lon="-1.83628">
        <ele>16.5</ele>
      </trkpt>
      <trkpt lat="47.77708" lon="-1.83627">
        <ele>16.3</ele>
      </trkpt>
      <trkpt lat="47.77711" lon="-1.83626">
        <ele>16.1</ele>
      </trkpt>
      <trkpt lat="47.77714" lon="-1.83625">
        <ele>15.9</ele>
      </trkpt>
      <trkpt lat="47.77718" lon="-1.83624">
        <ele>15.7</ele>
      </trkpt>
      <trkpt lat="47.77722" lon="-1.83622">
        <ele>15.6</ele>
      </trkpt>
      <trkpt lat="47.77725" lon="-1.8362">
        <ele>15.5</ele>
      </trkpt>
      <trkpt lat="47.77728" lon="-1.83617">
        <ele>15.5</ele>
      </trkpt>
      <trkpt lat="47.77731" lon="-1.83614">
        <ele>15.5</ele>
      </trkpt>
      <trkpt lat="47.77733" lon="-1.8361">
        <ele>15.7</ele>
      </trkpt>
      <trkpt lat="47.77735" lon="-1.83605">
        <ele>16</ele>
      </trkpt>
      <trkpt lat="47.77737" lon="-1.83601">
        <ele>16.3</ele>
      </trkpt>
      <trkpt lat="47.77737" lon="-1.83597">
        <ele>16.6</ele>
      </trkpt>
      <trkpt lat="47.77739" lon="-1.83591">
        <ele>17</ele>
      </trkpt>
      <trkpt lat="47.77739" lon="-1.83587">
        <ele>17.3</ele>
      </trkpt>
      <trkpt lat="47.7774" lon="-1.83583">
        <ele>17.7</ele>
      </trkpt>
      <trkpt lat="47.7774" lon="-1.83576">
        <ele>18.6</ele>
      </trkpt>
      <trkpt lat="47.77741" lon="-1.83572">
        <ele>19.1</ele>
      </trkpt>
      <trkpt lat="47.77742" lon="-1.83566">
        <ele>19.9</ele>
      </trkpt>
      <trkpt lat="47.77744" lon="-1.83561">
        <ele>20.3</ele>
      </trkpt>
      <trkpt lat="47.77745" lon="-1.83557">
        <ele>20.7</ele>
      </trkpt>
      <trkpt lat="47.77746" lon="-1.83554">
        <ele>21</ele>
      </trkpt>
      <trkpt lat="47.77748" lon="-1.83549">
        <ele>21.3</ele>
      </trkpt>
      <trkpt lat="47.7775" lon="-1.83545">
        <ele>21.5</ele>
      </trkpt>
      <trkpt lat="47.77753" lon="-1.83541">
        <ele>21.8</ele>
      </trkpt>
      <trkpt lat="47.77754" lon="-1.83539">
        <ele>22</ele>
      </trkpt>
      <trkpt lat="47.77757" lon="-1.83535">
        <ele>22.2</ele>
      </trkpt>
      <trkpt lat="47.77759" lon="-1.83532">
        <ele>22.4</ele>
      </trkpt>
      <trkpt lat="47.77761" lon="-1.83529">
        <ele>22.5</ele>
      </trkpt>
      <trkpt lat="47.77763" lon="-1.83526">
        <ele>22.7</ele>
      </trkpt>
      <trkpt lat="47.77765" lon="-1.83523">
        <ele>22.9</ele>
      </trkpt>
      <trkpt lat="47.77767" lon="-1.8352">
        <ele>23</ele>
      </trkpt>
      <trkpt lat="47.77769" lon="-1.83518">
        <ele>23</ele>
      </trkpt>
      <trkpt lat="47.77772" lon="-1.83514">
        <ele>23.1</ele>
      </trkpt>
      <trkpt lat="47.77774" lon="-1.83511">
        <ele>23.3</ele>
      </trkpt>
      <trkpt lat="47.77776" lon="-1.83508">
        <ele>23.3</ele>
      </trkpt>
      <trkpt lat="47.77778" lon="-1.83506">
        <ele>23.3</ele>
      </trkpt>
      <trkpt lat="47.7778" lon="-1.83502">
        <ele>23.4</ele>
      </trkpt>
      <trkpt lat="47.77782" lon="-1.83499">
        <ele>23.4</ele>
      </trkpt>
      <trkpt lat="47.77784" lon="-1.83496">
        <ele>23.6</ele>
      </trkpt>
      <trkpt lat="47.77786" lon="-1.83493">
        <ele>23.7</ele>
      </trkpt>
      <trkpt lat="47.77788" lon="-1.8349">
        <ele>23.7</ele>
      </trkpt>
      <trkpt lat="47.77791" lon="-1.83487">
        <ele>23.7</ele>
      </trkpt>
      <trkpt lat="47.77792" lon="-1.83484">
        <ele>23.8</ele>
      </trkpt>
      <trkpt lat="47.77794" lon="-1.83482">
        <ele>23.8</ele>
      </trkpt>
      <trkpt lat="47.77796" lon="-1.83479">
        <ele>23.8</ele>
      </trkpt>
      <trkpt lat="47.77799" lon="-1.83476">
        <ele>23.7</ele>
      </trkpt>
      <trkpt lat="47.77802" lon="-1.83473">
        <ele>23.6</ele>
      </trkpt>
      <trkpt lat="47.77804" lon="-1.8347">
        <ele>23.6</ele>
      </trkpt>
      <trkpt lat="47.77806" lon="-1.83467">
        <ele>23.6</ele>
      </trkpt>
      <trkpt lat="47.77808" lon="-1.83464">
        <ele>23.5</ele>
      </trkpt>
      <trkpt lat="47.77811" lon="-1.83461">
        <ele>23.5</ele>
      </trkpt>
      <trkpt lat="47.77813" lon="-1.83457">
        <ele>23.5</ele>
      </trkpt>
      <trkpt lat="47.77815" lon="-1.83454">
        <ele>23.5</ele>
      </trkpt>
      <trkpt lat="47.77818" lon="-1.83451">
        <ele>23.4</ele>
      </trkpt>
      <trkpt lat="47.7782" lon="-1.83448">
        <ele>23.4</ele>
      </trkpt>
      <trkpt lat="47.77822" lon="-1.83445">
        <ele>23.3</ele>
      </trkpt>
      <trkpt lat="47.77824" lon="-1.83442">
        <ele>23.2</ele>
      </trkpt>
      <trkpt lat="47.77827" lon="-1.83438">
        <ele>23</ele>
      </trkpt>
      <trkpt lat="47.7783" lon="-1.83436">
        <ele>22.9</ele>
      </trkpt>
      <trkpt lat="47.77832" lon="-1.83433">
        <ele>22.7</ele>
      </trkpt>
      <trkpt lat="47.77834" lon="-1.83429">
        <ele>22.8</ele>
      </trkpt>
      <trkpt lat="47.77834" lon="-1.83424">
        <ele>23.2</ele>
      </trkpt>
      <trkpt lat="47.77835" lon="-1.8342">
        <ele>23.6</ele>
      </trkpt>
      <trkpt lat="47.77834" lon="-1.83416">
        <ele>24.1</ele>
      </trkpt>
      <trkpt lat="47.77832" lon="-1.83412">
        <ele>24.6</ele>
      </trkpt>
      <trkpt lat="47.77831" lon="-1.83408">
        <ele>25.2</ele>
      </trkpt>
      <trkpt lat="47.7783" lon="-1.83404">
        <ele>25.9</ele>
      </trkpt>
      <trkpt lat="47.77829" lon="-1.83401">
        <ele>26.5</ele>
      </trkpt>
      <trkpt lat="47.77827" lon="-1.83398">
        <ele>27</ele>
      </trkpt>
      <trkpt lat="47.77826" lon="-1.83395">
        <ele>27.5</ele>
      </trkpt>
      <trkpt lat="47.77825" lon="-1.83392">
        <ele>28.1</ele>
      </trkpt>
      <trkpt lat="47.77824" lon="-1.8339">
        <ele>28.5</ele>
      </trkpt>
      <trkpt lat="47.77822" lon="-1.83386">
        <ele>29.1</ele>
      </trkpt>
      <trkpt lat="47.77821" lon="-1.83384">
        <ele>29.6</ele>
      </trkpt>
      <trkpt lat="47.77819" lon="-1.83381">
        <ele>30.2</ele>
      </trkpt>
      <trkpt lat="47.77818" lon="-1.83378">
        <ele>30.8</ele>
      </trkpt>
      <trkpt lat="47.77816" lon="-1.83375">
        <ele>31.4</ele>
      </trkpt>
      <trkpt lat="47.77815" lon="-1.83371">
        <ele>32.1</ele>
      </trkpt>
      <trkpt lat="47.77813" lon="-1.83369">
        <ele>32.5</ele>
      </trkpt>
      <trkpt lat="47.77812" lon="-1.83366">
        <ele>33</ele>
      </trkpt>
      <trkpt lat="47.7781" lon="-1.83363">
        <ele>33.8</ele>
      </trkpt>
      <trkpt lat="47.77809" lon="-1.83361">
        <ele>34.2</ele>
      </trkpt>
      <trkpt lat="47.77807" lon="-1.83358">
        <ele>34.9</ele>
      </trkpt>
      <trkpt lat="47.77806" lon="-1.83356">
        <ele>35.4</ele>
      </trkpt>
      <trkpt lat="47.77805" lon="-1.83352">
        <ele>35.9</ele>
      </trkpt>
      <trkpt lat="47.77804" lon="-1.83349">
        <ele>36.5</ele>
      </trkpt>
      <trkpt lat="47.77802" lon="-1.83346">
        <ele>37.1</ele>
      </trkpt>
      <trkpt lat="47.778" lon="-1.83342">
        <ele>37.8</ele>
      </trkpt>
      <trkpt lat="47.77799" lon="-1.83339">
        <ele>38.3</ele>
      </trkpt>
      <trkpt lat="47.77799" lon="-1.83336">
        <ele>38.8</ele>
      </trkpt>
      <trkpt lat="47.77798" lon="-1.83331">
        <ele>39.2</ele>
      </trkpt>
      <trkpt lat="47.77799" lon="-1.83327">
        <ele>39.2</ele>
      </trkpt>
      <trkpt lat="47.77799" lon="-1.83323">
        <ele>39.3</ele>
      </trkpt>
      <trkpt lat="47.77799" lon="-1.83319">
        <ele>39.4</ele>
      </trkpt>
      <trkpt lat="47.77797" lon="-1.83316">
        <ele>39.8</ele>
      </trkpt>
      <trkpt lat="47.77796" lon="-1.8331">
        <ele>40.2</ele>
      </trkpt>
      <trkpt lat="47.77796" lon="-1.83307">
        <ele>40.3</ele>
      </trkpt>
      <trkpt lat="47.77795" lon="-1.83303">
        <ele>40.6</ele>
      </trkpt>
      <trkpt lat="47.77795" lon="-1.833">
        <ele>40.7</ele>
      </trkpt>
      <trkpt lat="47.77794" lon="-1.83296">
        <ele>41</ele>
      </trkpt>
      <trkpt lat="47.77793" lon="-1.83293">
        <ele>41.3</ele>
      </trkpt>
      <trkpt lat="47.77792" lon="-1.8329">
        <ele>41.8</ele>
      </trkpt>
      <trkpt lat="47.77789" lon="-1.83289">
        <ele>42.4</ele>
      </trkpt>
      <trkpt lat="47.77788" lon="-1.83287">
        <ele>42.8</ele>
      </trkpt>
      <trkpt lat="47.77786" lon="-1.83287">
        <ele>43.2</ele>
      </trkpt>
      <trkpt lat="47.77784" lon="-1.83289">
        <ele>43.7</ele>
      </trkpt>
      <trkpt lat="47.77782" lon="-1.83291">
        <ele>44</ele>
      </trkpt>
      <trkpt lat="47.77781" lon="-1.83295">
        <ele>44.3</ele>
      </trkpt>
      <trkpt lat="47.77779" lon="-1.83299">
        <ele>44.5</ele>
      </trkpt>
      <trkpt lat="47.77778" lon="-1.83303">
        <ele>44.6</ele>
      </trkpt>
      <trkpt lat="47.77777" lon="-1.83308">
        <ele>44.6</ele>
      </trkpt>
      <trkpt lat="47.77776" lon="-1.83312">
        <ele>44.6</ele>
      </trkpt>
      <trkpt lat="47.77775" lon="-1.83317">
        <ele>44.6</ele>
      </trkpt>
      <trkpt lat="47.77774" lon="-1.83322">
        <ele>44.6</ele>
      </trkpt>
      <trkpt lat="47.77773" lon="-1.83327">
        <ele>44.7</ele>
      </trkpt>
      <trkpt lat="47.77772" lon="-1.83331">
        <ele>44.7</ele>
      </trkpt>
      <trkpt lat="47.7777" lon="-1.83335">
        <ele>44.6</ele>
      </trkpt>
      <trkpt lat="47.77769" lon="-1.8334">
        <ele>44.4</ele>
      </trkpt>
      <trkpt lat="47.77768" lon="-1.83344">
        <ele>44.3</ele>
      </trkpt>
      <trkpt lat="47.77766" lon="-1.83348">
        <ele>44.2</ele>
      </trkpt>
      <trkpt lat="47.77763" lon="-1.83352">
        <ele>44.3</ele>
      </trkpt>
      <trkpt lat="47.77761" lon="-1.83357">
        <ele>44.3</ele>
      </trkpt>
      <trkpt lat="47.77759" lon="-1.83361">
        <ele>44.3</ele>
      </trkpt>
      <trkpt lat="47.77757" lon="-1.83364">
        <ele>44.3</ele>
      </trkpt>
      <trkpt lat="47.77755" lon="-1.83368">
        <ele>44.4</ele>
      </trkpt>
      <trkpt lat="47.77752" lon="-1.83371">
        <ele>44.5</ele>
      </trkpt>
      <trkpt lat="47.77749" lon="-1.83374">
        <ele>44.8</ele>
      </trkpt>
      <trkpt lat="47.77747" lon="-1.83378">
        <ele>45</ele>
      </trkpt>
      <trkpt lat="47.77746" lon="-1.8338">
        <ele>45.1</ele>
      </trkpt>
      <trkpt lat="47.77744" lon="-1.83383">
        <ele>45.2</ele>
      </trkpt>
      <trkpt lat="47.77742" lon="-1.83387">
        <ele>45.4</ele>
      </trkpt>
      <trkpt lat="47.7774" lon="-1.83389">
        <ele>45.6</ele>
      </trkpt>
      <trkpt lat="47.77738" lon="-1.83391">
        <ele>45.9</ele>
      </trkpt>
      <trkpt lat="47.77736" lon="-1.83394">
        <ele>46.2</ele>
      </trkpt>
      <trkpt lat="47.77733" lon="-1.83397">
        <ele>46.5</ele>
      </trkpt>
      <trkpt lat="47.77731" lon="-1.834">
        <ele>46.8</ele>
      </trkpt>
      <trkpt lat="47.77729" lon="-1.83403">
        <ele>46.9</ele>
      </trkpt>
      <trkpt lat="47.77727" lon="-1.83406">
        <ele>47.3</ele>
      </trkpt>
      <trkpt lat="47.77724" lon="-1.83409">
        <ele>47.5</ele>
      </trkpt>
      <trkpt lat="47.77723" lon="-1.83412">
        <ele>47.7</ele>
      </trkpt>
      <trkpt lat="47.77721" lon="-1.83415">
        <ele>47.8</ele>
      </trkpt>
      <trkpt lat="47.77719" lon="-1.83418">
        <ele>47.9</ele>
      </trkpt>
      <trkpt lat="47.77717" lon="-1.83421">
        <ele>47.9</ele>
      </trkpt>
      <trkpt lat="47.77716" lon="-1.83425">
        <ele>47.9</ele>
      </trkpt>
      <trkpt lat="47.77713" lon="-1.83429">
        <ele>47.8</ele>
      </trkpt>
      <trkpt lat="47.77712" lon="-1.83433">
        <ele>47.8</ele>
      </trkpt>
      <trkpt lat="47.7771" lon="-1.83436">
        <ele>47.7</ele>
      </trkpt>
      <trkpt lat="47.77709" lon="-1.8344">
        <ele>47.5</ele>
      </trkpt>
      <trkpt lat="47.77708" lon="-1.83444">
        <ele>47.2</ele>
      </trkpt>
      <trkpt lat="47.77706" lon="-1.83449">
        <ele>46.9</ele>
      </trkpt>
      <trkpt lat="47.77704" lon="-1.83453">
        <ele>46.7</ele>
      </trkpt>
      <trkpt lat="47.77703" lon="-1.83457">
        <ele>46.6</ele>
      </trkpt>
      <trkpt lat="47.77701" lon="-1.8346">
        <ele>46.5</ele>
      </trkpt>
      <trkpt lat="47.777" lon="-1.83464">
        <ele>46.4</ele>
      </trkpt>
      <trkpt lat="47.77698" lon="-1.83469">
        <ele>46.3</ele>
      </trkpt>
      <trkpt lat="47.77696" lon="-1.83473">
        <ele>46.1</ele>
      </trkpt>
      <trkpt lat="47.77695" lon="-1.83476">
        <ele>46</ele>
      </trkpt>
      <trkpt lat="47.77693" lon="-1.8348">
        <ele>45.9</ele>
      </trkpt>
      <trkpt lat="47.77691" lon="-1.83484">
        <ele>45.7</ele>
      </trkpt>
      <trkpt lat="47.7769" lon="-1.83487">
        <ele>45.6</ele>
      </trkpt>
      <trkpt lat="47.77688" lon="-1.83491">
        <ele>45.6</ele>
      </trkpt>
      <trkpt lat="47.77687" lon="-1.83494">
        <ele>45.6</ele>
      </trkpt>
      <trkpt lat="47.77685" lon="-1.83497">
        <ele>45.7</ele>
      </trkpt>
      <trkpt lat="47.77684" lon="-1.835">
        <ele>45.5</ele>
      </trkpt>
      <trkpt lat="47.77682" lon="-1.83504">
        <ele>45</ele>
      </trkpt>
      <trkpt lat="47.7768" lon="-1.83507">
        <ele>44.7</ele>
      </trkpt>
      <trkpt lat="47.77679" lon="-1.83509">
        <ele>44.5</ele>
      </trkpt>
      <trkpt lat="47.77677" lon="-1.83512">
        <ele>44.4</ele>
      </trkpt>
      <trkpt lat="47.77675" lon="-1.83514">
        <ele>44.3</ele>
      </trkpt>
      <trkpt lat="47.77674" lon="-1.83516">
        <ele>44.2</ele>
      </trkpt>
      <trkpt lat="47.77672" lon="-1.83518">
        <ele>44.3</ele>
      </trkpt>
      <trkpt lat="47.7767" lon="-1.83519">
        <ele>44.3</ele>
      </trkpt>
      <trkpt lat="47.77668" lon="-1.83522">
        <ele>44.3</ele>
      </trkpt>
      <trkpt lat="47.77665" lon="-1.83524">
        <ele>44.1</ele>
      </trkpt>
      <trkpt lat="47.77662" lon="-1.83526">
        <ele>44</ele>
      </trkpt>
      <trkpt lat="47.7766" lon="-1.83528">
        <ele>44</ele>
      </trkpt>
      <trkpt lat="47.77658" lon="-1.83529">
        <ele>43.9</ele>
      </trkpt>
      <trkpt lat="47.77655" lon="-1.8353">
        <ele>44</ele>
      </trkpt>
      <trkpt lat="47.77652" lon="-1.83532">
        <ele>44</ele>
      </trkpt>
      <trkpt lat="47.77649" lon="-1.83533">
        <ele>44.2</ele>
      </trkpt>
      <trkpt lat="47.77647" lon="-1.83533">
        <ele>44.3</ele>
      </trkpt>
      <trkpt lat="47.77644" lon="-1.83535">
        <ele>44.4</ele>
      </trkpt>
      <trkpt lat="47.77641" lon="-1.83536">
        <ele>44.6</ele>
      </trkpt>
      <trkpt lat="47.77638" lon="-1.83536">
        <ele>44.9</ele>
      </trkpt>
      <trkpt lat="47.77635" lon="-1.83537">
        <ele>45.1</ele>
      </trkpt>
      <trkpt lat="47.77633" lon="-1.83538">
        <ele>45.2</ele>
      </trkpt>
      <trkpt lat="47.77631" lon="-1.83538">
        <ele>45.5</ele>
      </trkpt>
      <trkpt lat="47.77628" lon="-1.83538">
        <ele>45.8</ele>
      </trkpt>
      <trkpt lat="47.77625" lon="-1.83539">
        <ele>46</ele>
      </trkpt>
      <trkpt lat="47.77622" lon="-1.8354">
        <ele>46.3</ele>
      </trkpt>
      <trkpt lat="47.77619" lon="-1.83541">
        <ele>46.6</ele>
      </trkpt>
      <trkpt lat="47.77616" lon="-1.83541">
        <ele>47</ele>
      </trkpt>
      <trkpt lat="47.77614" lon="-1.83541">
        <ele>47.3</ele>
      </trkpt>
      <trkpt lat="47.77612" lon="-1.8354">
        <ele>47.9</ele>
      </trkpt>
      <trkpt lat="47.77611" lon="-1.83539">
        <ele>48.2</ele>
      </trkpt>
      <trkpt lat="47.77609" lon="-1.83539">
        <ele>48.5</ele>
      </trkpt>
      <trkpt lat="47.77608" lon="-1.83538">
        <ele>48.6</ele>
      </trkpt>
      <trkpt lat="47.77607" lon="-1.83538">
        <ele>48.8</ele>
      </trkpt>
      <trkpt lat="47.77605" lon="-1.83536">
        <ele>49.6</ele>
      </trkpt>
      <trkpt lat="47.77604" lon="-1.83534">
        <ele>50.2</ele>
      </trkpt>
      <trkpt lat="47.77603" lon="-1.83532">
        <ele>50.8</ele>
      </trkpt>
      <trkpt lat="47.77601" lon="-1.83529">
        <ele>51.7</ele>
      </trkpt>
      <trkpt lat="47.77598" lon="-1.83526">
        <ele>52.7</ele>
      </trkpt>
      <trkpt lat="47.77597" lon="-1.83524">
        <ele>53.2</ele>
      </trkpt>
      <trkpt lat="47.77597" lon="-1.83522">
        <ele>53.7</ele>
      </trkpt>
      <trkpt lat="47.77598" lon="-1.83521">
        <ele>53.9</ele>
      </trkpt>
      <trkpt lat="47.77598" lon="-1.8352">
        <ele>54</ele>
      </trkpt>
      <trkpt lat="47.77598" lon="-1.83519">
        <ele>54.1</ele>
      </trkpt>
      <trkpt lat="47.77599" lon="-1.8352">
        <ele>53.8</ele>
      </trkpt>
      <trkpt lat="47.776" lon="-1.83519">
        <ele>53.8</ele>
      </trkpt>
      <trkpt lat="47.77602" lon="-1.83517">
        <ele>54.2</ele>
      </trkpt>
      <trkpt lat="47.77603" lon="-1.83513">
        <ele>54.8</ele>
      </trkpt>
      <trkpt lat="47.77604" lon="-1.8351">
        <ele>55.4</ele>
      </trkpt>
      <trkpt lat="47.77605" lon="-1.83507">
        <ele>55.9</ele>
      </trkpt>
      <trkpt lat="47.77606" lon="-1.83504">
        <ele>56.4</ele>
      </trkpt>
      <trkpt lat="47.77608" lon="-1.83502">
        <ele>56.7</ele>
      </trkpt>
      <trkpt lat="47.77609" lon="-1.83499">
        <ele>57.1</ele>
      </trkpt>
      <trkpt lat="47.7761" lon="-1.83497">
        <ele>57.2</ele>
      </trkpt>
      <trkpt lat="47.77611" lon="-1.83496">
        <ele>57.2</ele>
      </trkpt>
      <trkpt lat="47.77611" lon="-1.83495">
        <ele>57.3</ele>
      </trkpt>
      <trkpt lat="47.77614" lon="-1.83493">
        <ele>57.2</ele>
      </trkpt>
      <trkpt lat="47.77615" lon="-1.83492">
        <ele>57.3</ele>
      </trkpt>
      <trkpt lat="47.77616" lon="-1.8349">
        <ele>57.4</ele>
      </trkpt>
      <trkpt lat="47.77617" lon="-1.83487">
        <ele>57.7</ele>
      </trkpt>
      <trkpt lat="47.77616" lon="-1.83485">
        <ele>58.1</ele>
      </trkpt>
      <trkpt lat="47.77616" lon="-1.83483">
        <ele>58.4</ele>
      </trkpt>
      <trkpt lat="47.77617" lon="-1.83481">
        <ele>58.6</ele>
      </trkpt>
      <trkpt lat="47.77617" lon="-1.83479">
        <ele>58.8</ele>
      </trkpt>
      <trkpt lat="47.77617" lon="-1.83478">
        <ele>59</ele>
      </trkpt>
      <trkpt lat="47.77618" lon="-1.83476">
        <ele>59.1</ele>
      </trkpt>
      <trkpt lat="47.77619" lon="-1.83476">
        <ele>59.1</ele>
      </trkpt>
      <trkpt lat="47.7762" lon="-1.83474">
        <ele>59.1</ele>
      </trkpt>
      <trkpt lat="47.77622" lon="-1.83472">
        <ele>59.2</ele>
      </trkpt>
      <trkpt lat="47.77625" lon="-1.8347">
        <ele>59.2</ele>
      </trkpt>
      <trkpt lat="47.77625" lon="-1.83469">
        <ele>59.2</ele>
      </trkpt>
      <trkpt lat="47.77626" lon="-1.83468">
        <ele>59.3</ele>
      </trkpt>
      <trkpt lat="47.77628" lon="-1.83466">
        <ele>59.4</ele>
      </trkpt>
      <trkpt lat="47.7763" lon="-1.83463">
        <ele>59.5</ele>
      </trkpt>
      <trkpt lat="47.77631" lon="-1.8346">
        <ele>59.7</ele>
      </trkpt>
      <trkpt lat="47.77633" lon="-1.83459">
        <ele>59.8</ele>
      </trkpt>
      <trkpt lat="47.77634" lon="-1.83456">
        <ele>60.1</ele>
      </trkpt>
      <trkpt lat="47.77636" lon="-1.83453">
        <ele>60.3</ele>
      </trkpt>
      <trkpt lat="47.77639" lon="-1.83449">
        <ele>60.5</ele>
      </trkpt>
      <trkpt lat="47.77642" lon="-1.83446">
        <ele>60.5</ele>
      </trkpt>
      <trkpt lat="47.77645" lon="-1.83443">
        <ele>60.7</ele>
      </trkpt>
      <trkpt lat="47.77648" lon="-1.8344">
        <ele>60.8</ele>
      </trkpt>
      <trkpt lat="47.7765" lon="-1.83436">
        <ele>61</ele>
      </trkpt>
      <trkpt lat="47.77654" lon="-1.83432">
        <ele>61.2</ele>
      </trkpt>
      <trkpt lat="47.77656" lon="-1.83429">
        <ele>61.4</ele>
      </trkpt>
      <trkpt lat="47.77657" lon="-1.83426">
        <ele>61.7</ele>
      </trkpt>
      <trkpt lat="47.77659" lon="-1.83421">
        <ele>62.1</ele>
      </trkpt>
      <trkpt lat="47.77661" lon="-1.83418">
        <ele>62.4</ele>
      </trkpt>
      <trkpt lat="47.77663" lon="-1.83414">
        <ele>62.7</ele>
      </trkpt>
      <trkpt lat="47.77664" lon="-1.8341">
        <ele>63</ele>
      </trkpt>
      <trkpt lat="47.77666" lon="-1.83406">
        <ele>63.3</ele>
      </trkpt>
      <trkpt lat="47.77666" lon="-1.83402">
        <ele>63.6</ele>
      </trkpt>
      <trkpt lat="47.77666" lon="-1.83399">
        <ele>64</ele>
      </trkpt>
      <trkpt lat="47.77666" lon="-1.83395">
        <ele>64.4</ele>
      </trkpt>
      <trkpt lat="47.77666" lon="-1.83392">
        <ele>64.7</ele>
      </trkpt>
      <trkpt lat="47.77665" lon="-1.8339">
        <ele>65</ele>
      </trkpt>
      <trkpt lat="47.77665" lon="-1.83388">
        <ele>65.3</ele>
      </trkpt>
      <trkpt lat="47.77664" lon="-1.83384">
        <ele>65.9</ele>
      </trkpt>
      <trkpt lat="47.77663" lon="-1.83381">
        <ele>66.3</ele>
      </trkpt>
      <trkpt lat="47.77661" lon="-1.83377">
        <ele>66.9</ele>
      </trkpt>
      <trkpt lat="47.77661" lon="-1.83374">
        <ele>67.2</ele>
      </trkpt>
      <trkpt lat="47.77662" lon="-1.8337">
        <ele>67.6</ele>
      </trkpt>
      <trkpt lat="47.77661" lon="-1.83367">
        <ele>68</ele>
      </trkpt>
      <trkpt lat="47.7766" lon="-1.83365">
        <ele>68.4</ele>
      </trkpt>
      <trkpt lat="47.77659" lon="-1.83362">
        <ele>68.9</ele>
      </trkpt>
      <trkpt lat="47.77658" lon="-1.8336">
        <ele>69.1</ele>
      </trkpt>
      <trkpt lat="47.77658" lon="-1.83358">
        <ele>69.4</ele>
      </trkpt>
      <trkpt lat="47.77658" lon="-1.83357">
        <ele>69.5</ele>
      </trkpt>
      <trkpt lat="47.77657" lon="-1.83355">
        <ele>69.9</ele>
      </trkpt>
      <trkpt lat="47.77656" lon="-1.83352">
        <ele>70.2</ele>
      </trkpt>
      <trkpt lat="47.77656" lon="-1.8335">
        <ele>70.5</ele>
      </trkpt>
      <trkpt lat="47.77656" lon="-1.83348">
        <ele>70.7</ele>
      </trkpt>
      <trkpt lat="47.77656" lon="-1.83345">
        <ele>71</ele>
      </trkpt>
      <trkpt lat="47.77657" lon="-1.83342">
        <ele>71.2</ele>
      </trkpt>
      <trkpt lat="47.77657" lon="-1.83339">
        <ele>71.5</ele>
      </trkpt>
      <trkpt lat="47.77657" lon="-1.83336">
        <ele>71.8</ele>
      </trkpt>
      <trkpt lat="47.77657" lon="-1.83333">
        <ele>72.2</ele>
      </trkpt>
      <trkpt lat="47.77657" lon="-1.8333">
        <ele>72.4</ele>
      </trkpt>
      <trkpt lat="47.77656" lon="-1.83328">
        <ele>72.6</ele>
      </trkpt>
      <trkpt lat="47.77655" lon="-1.83325">
        <ele>72.8</ele>
      </trkpt>
      <trkpt lat="47.77654" lon="-1.83324">
        <ele>73</ele>
      </trkpt>
      <trkpt lat="47.77653" lon="-1.83322">
        <ele>73.2</ele>
      </trkpt>
      <trkpt lat="47.77652" lon="-1.83321">
        <ele>73.4</ele>
      </trkpt>
      <trkpt lat="47.77651" lon="-1.83321">
        <ele>73.6</ele>
      </trkpt>
      <trkpt lat="47.7765" lon="-1.83321">
        <ele>73.7</ele>
      </trkpt>
      <trkpt lat="47.77649" lon="-1.83321">
        <ele>73.8</ele>
      </trkpt>
      <trkpt lat="47.77648" lon="-1.8332">
        <ele>74</ele>
      </trkpt>
      <trkpt lat="47.77647" lon="-1.8332">
        <ele>74.1</ele>
      </trkpt>
      <trkpt lat="47.77645" lon="-1.83319">
        <ele>74.3</ele>
      </trkpt>
      <trkpt lat="47.77644" lon="-1.83319">
        <ele>74.5</ele>
      </trkpt>
      <trkpt lat="47.77643" lon="-1.83318">
        <ele>74.6</ele>
      </trkpt>
      <trkpt lat="47.77643" lon="-1.83316">
        <ele>74.8</ele>
      </trkpt>
      <trkpt lat="47.77642" lon="-1.83315">
        <ele>74.9</ele>
      </trkpt>
      <trkpt lat="47.77641" lon="-1.83314">
        <ele>75</ele>
      </trkpt>
      <trkpt lat="47.7764" lon="-1.83312">
        <ele>75.3</ele>
      </trkpt>
      <trkpt lat="47.77639" lon="-1.83311">
        <ele>75.5</ele>
      </trkpt>
      <trkpt lat="47.77639" lon="-1.83309">
        <ele>75.6</ele>
      </trkpt>
      <trkpt lat="47.77639" lon="-1.83306">
        <ele>75.8</ele>
      </trkpt>
      <trkpt lat="47.7764" lon="-1.83302">
        <ele>75.8</ele>
      </trkpt>
      <trkpt lat="47.77641" lon="-1.833">
        <ele>75.8</ele>
      </trkpt>
      <trkpt lat="47.77643" lon="-1.83297">
        <ele>75.8</ele>
      </trkpt>
      <trkpt lat="47.77643" lon="-1.83294">
        <ele>76</ele>
      </trkpt>
      <trkpt lat="47.77642" lon="-1.83291">
        <ele>76.2</ele>
      </trkpt>
      <trkpt lat="47.77642" lon="-1.83289">
        <ele>76.4</ele>
      </trkpt>
      <trkpt lat="47.77642" lon="-1.83285">
        <ele>76.5</ele>
      </trkpt>
      <trkpt lat="47.77643" lon="-1.83283">
        <ele>76.5</ele>
      </trkpt>
      <trkpt lat="47.77644" lon="-1.8328">
        <ele>76.5</ele>
      </trkpt>
      <trkpt lat="47.77646" lon="-1.83276">
        <ele>76.6</ele>
      </trkpt>
      <trkpt lat="47.77648" lon="-1.83272">
        <ele>76.6</ele>
      </trkpt>
      <trkpt lat="47.77649" lon="-1.83266">
        <ele>76.8</ele>
      </trkpt>
      <trkpt lat="47.77649" lon="-1.83263">
        <ele>77</ele>
      </trkpt>
      <trkpt lat="47.77649" lon="-1.8326">
        <ele>77.1</ele>
      </trkpt>
      <trkpt lat="47.7765" lon="-1.83257">
        <ele>77.2</ele>
      </trkpt>
      <trkpt lat="47.77652" lon="-1.83253">
        <ele>77.3</ele>
      </trkpt>
      <trkpt lat="47.77653" lon="-1.83248">
        <ele>77.3</ele>
      </trkpt>
      <trkpt lat="47.77653" lon="-1.83245">
        <ele>77.3</ele>
      </trkpt>
      <trkpt lat="47.77654" lon="-1.83241">
        <ele>77.1</ele>
      </trkpt>
      <trkpt lat="47.77655" lon="-1.83238">
        <ele>77</ele>
      </trkpt>
      <trkpt lat="47.77656" lon="-1.83235">
        <ele>76.8</ele>
      </trkpt>
      <trkpt lat="47.77656" lon="-1.83234">
        <ele>76.8</ele>
      </trkpt>
      <trkpt lat="47.77656" lon="-1.83234">
        <ele>76.8</ele>
      </trkpt>
      <trkpt lat="47.77656" lon="-1.83234">
        <ele>76.8</ele>
      </trkpt>
      <trkpt lat="47.77656" lon="-1.83234">
        <ele>76.8</ele>
      </trkpt>
      <trkpt lat="47.77656" lon="-1.83234">
        <ele>76.8</ele>
      </trkpt>
      <trkpt lat="47.77656" lon="-1.83234">
        <ele>76.8</ele>
      </trkpt>
      <trkpt lat="47.77656" lon="-1.83234">
        <ele>76.8</ele>
      </trkpt>
      <trkpt lat="47.77656" lon="-1.83234">
        <ele>76.8</ele>
      </trkpt>
      <trkpt lat="47.77655" lon="-1.83232">
        <ele>76.9</ele>
      </trkpt>
      <trkpt lat="47.77655" lon="-1.83231">
        <ele>76.9</ele>
      </trkpt>
      <trkpt lat="47.77655" lon="-1.83231">
        <ele>76.9</ele>
      </trkpt>
      <trkpt lat="47.77655" lon="-1.83231">
        <ele>76.9</ele>
      </trkpt>
      <trkpt lat="47.77655" lon="-1.83231">
        <ele>76.9</ele>
      </trkpt>
      <trkpt lat="47.77655" lon="-1.83231">
        <ele>76.9</ele>
      </trkpt>
      <trkpt lat="47.77655" lon="-1.83231">
        <ele>76.9</ele>
      </trkpt>
      <trkpt lat="47.77655" lon="-1.83231">
        <ele>76.9</ele>
      </trkpt>
      <trkpt lat="47.77655" lon="-1.83231">
        <ele>76.9</ele>
      </trkpt>
      <trkpt lat="47.77655" lon="-1.83231">
        <ele>76.9</ele>
      </trkpt>
      <trkpt lat="47.77655" lon="-1.83228">
        <ele>76.8</ele>
      </trkpt>
      <trkpt lat="47.77655" lon="-1.83225">
        <ele>76.8</ele>
      </trkpt>
      <trkpt lat="47.77655" lon="-1.83222">
        <ele>76.8</ele>
      </trkpt>
      <trkpt lat="47.77655" lon="-1.8322">
        <ele>76.7</ele>
      </trkpt>
      <trkpt lat="47.77656" lon="-1.83218">
        <ele>76.6</ele>
      </trkpt>
      <trkpt lat="47.77657" lon="-1.83215">
        <ele>76.5</ele>
      </trkpt>
      <trkpt lat="47.77658" lon="-1.83211">
        <ele>76.3</ele>
      </trkpt>
      <trkpt lat="47.77659" lon="-1.83207">
        <ele>76.2</ele>
      </trkpt>
      <trkpt lat="47.7766" lon="-1.83204">
        <ele>76.1</ele>
      </trkpt>
      <trkpt lat="47.7766" lon="-1.83201">
        <ele>76</ele>
      </trkpt>
      <trkpt lat="47.7766" lon="-1.83197">
        <ele>76</ele>
      </trkpt>
      <trkpt lat="47.77661" lon="-1.83193">
        <ele>75.8</ele>
      </trkpt>
      <trkpt lat="47.77662" lon="-1.83188">
        <ele>75.6</ele>
      </trkpt>
      <trkpt lat="47.77662" lon="-1.83182">
        <ele>75.6</ele>
      </trkpt>
      <trkpt lat="47.77665" lon="-1.83176">
        <ele>75.3</ele>
      </trkpt>
      <trkpt lat="47.77667" lon="-1.83169">
        <ele>75</ele>
      </trkpt>
      <trkpt lat="47.77668" lon="-1.83161">
        <ele>74.7</ele>
      </trkpt>
      <trkpt lat="47.7767" lon="-1.83153">
        <ele>74.5</ele>
      </trkpt>
      <trkpt lat="47.77671" lon="-1.83145">
        <ele>74.2</ele>
      </trkpt>
      <trkpt lat="47.77674" lon="-1.83135">
        <ele>73.7</ele>
      </trkpt>
      <trkpt lat="47.77676" lon="-1.83126">
        <ele>73.2</ele>
      </trkpt>
      <trkpt lat="47.77678" lon="-1.83118">
        <ele>72.9</ele>
      </trkpt>
      <trkpt lat="47.77678" lon="-1.83111">
        <ele>72.9</ele>
      </trkpt>
      <trkpt lat="47.77679" lon="-1.83105">
        <ele>72.7</ele>
      </trkpt>
      <trkpt lat="47.77682" lon="-1.83098">
        <ele>72.2</ele>
      </trkpt>
      <trkpt lat="47.77681" lon="-1.83094">
        <ele>72.4</ele>
      </trkpt>
      <trkpt lat="47.7768" lon="-1.83089">
        <ele>72.5</ele>
      </trkpt>
      <trkpt lat="47.7768" lon="-1.83086">
        <ele>72.5</ele>
      </trkpt>
      <trkpt lat="47.7768" lon="-1.83083">
        <ele>72.5</ele>
      </trkpt>
      <trkpt lat="47.77681" lon="-1.8308">
        <ele>72.6</ele>
      </trkpt>
      <trkpt lat="47.77684" lon="-1.83072">
        <ele>72.4</ele>
      </trkpt>
      <trkpt lat="47.77684" lon="-1.83067">
        <ele>72.5</ele>
      </trkpt>
      <trkpt lat="47.77685" lon="-1.83062">
        <ele>72.5</ele>
      </trkpt>
      <trkpt lat="47.77685" lon="-1.83058">
        <ele>72.7</ele>
      </trkpt>
      <trkpt lat="47.77686" lon="-1.83054">
        <ele>72.8</ele>
      </trkpt>
      <trkpt lat="47.77687" lon="-1.83046">
        <ele>72.9</ele>
      </trkpt>
      <trkpt lat="47.77688" lon="-1.83041">
        <ele>72.8</ele>
      </trkpt>
      <trkpt lat="47.77688" lon="-1.83037">
        <ele>72.9</ele>
      </trkpt>
      <trkpt lat="47.77689" lon="-1.83033">
        <ele>72.9</ele>
      </trkpt>
      <trkpt lat="47.7769" lon="-1.83029">
        <ele>72.9</ele>
      </trkpt>
      <trkpt lat="47.77691" lon="-1.83026">
        <ele>72.9</ele>
      </trkpt>
      <trkpt lat="47.77691" lon="-1.83024">
        <ele>72.8</ele>
      </trkpt>
      <trkpt lat="47.77692" lon="-1.83022">
        <ele>72.8</ele>
      </trkpt>
      <trkpt lat="47.77693" lon="-1.83018">
        <ele>72.7</ele>
      </trkpt>
      <trkpt lat="47.77693" lon="-1.83015">
        <ele>72.7</ele>
      </trkpt>
      <trkpt lat="47.77694" lon="-1.8301">
        <ele>72.8</ele>
      </trkpt>
      <trkpt lat="47.77694" lon="-1.83005">
        <ele>72.8</ele>
      </trkpt>
      <trkpt lat="47.77695" lon="-1.83001">
        <ele>72.8</ele>
      </trkpt>
      <trkpt lat="47.77697" lon="-1.82996">
        <ele>72.7</ele>
      </trkpt>
      <trkpt lat="47.777" lon="-1.8299">
        <ele>72.3</ele>
      </trkpt>
      <trkpt lat="47.777" lon="-1.82986">
        <ele>72.4</ele>
      </trkpt>
      <trkpt lat="47.77701" lon="-1.82982">
        <ele>72.4</ele>
      </trkpt>
      <trkpt lat="47.77702" lon="-1.82978">
        <ele>72.4</ele>
      </trkpt>
      <trkpt lat="47.77702" lon="-1.82975">
        <ele>72.5</ele>
      </trkpt>
      <trkpt lat="47.77702" lon="-1.82971">
        <ele>72.8</ele>
      </trkpt>
      <trkpt lat="47.77703" lon="-1.82966">
        <ele>72.8</ele>
      </trkpt>
      <trkpt lat="47.77703" lon="-1.82962">
        <ele>73</ele>
      </trkpt>
      <trkpt lat="47.77702" lon="-1.82958">
        <ele>73.3</ele>
      </trkpt>
      <trkpt lat="47.77706" lon="-1.82952">
        <ele>72.8</ele>
      </trkpt>
      <trkpt lat="47.77707" lon="-1.82946">
        <ele>72.9</ele>
      </trkpt>
      <trkpt lat="47.77709" lon="-1.82941">
        <ele>72.8</ele>
      </trkpt>
      <trkpt lat="47.7771" lon="-1.82937">
        <ele>72.7</ele>
      </trkpt>
      <trkpt lat="47.77713" lon="-1.8293">
        <ele>72.3</ele>
      </trkpt>
      <trkpt lat="47.77717" lon="-1.82921">
        <ele>71.9</ele>
      </trkpt>
      <trkpt lat="47.77718" lon="-1.82916">
        <ele>71.9</ele>
      </trkpt>
      <trkpt lat="47.77718" lon="-1.82912">
        <ele>72</ele>
      </trkpt>
      <trkpt lat="47.77717" lon="-1.82908">
        <ele>72.1</ele>
      </trkpt>
      <trkpt lat="47.77717" lon="-1.82905">
        <ele>72.1</ele>
      </trkpt>
      <trkpt lat="47.77718" lon="-1.82902">
        <ele>72</ele>
      </trkpt>
      <trkpt lat="47.7772" lon="-1.82897">
        <ele>71.6</ele>
      </trkpt>
      <trkpt lat="47.77721" lon="-1.82892">
        <ele>71.4</ele>
      </trkpt>
      <trkpt lat="47.77722" lon="-1.82888">
        <ele>71.4</ele>
      </trkpt>
      <trkpt lat="47.77722" lon="-1.82884">
        <ele>71.3</ele>
      </trkpt>
      <trkpt lat="47.77723" lon="-1.8288">
        <ele>71.2</ele>
      </trkpt>
      <trkpt lat="47.77723" lon="-1.82876">
        <ele>71.3</ele>
      </trkpt>
      <trkpt lat="47.77723" lon="-1.82872">
        <ele>71.2</ele>
      </trkpt>
      <trkpt lat="47.77724" lon="-1.82868">
        <ele>71.1</ele>
      </trkpt>
      <trkpt lat="47.77726" lon="-1.82863">
        <ele>70.8</ele>
      </trkpt>
      <trkpt lat="47.77726" lon="-1.82859">
        <ele>70.8</ele>
      </trkpt>
      <trkpt lat="47.77726" lon="-1.82855">
        <ele>70.8</ele>
      </trkpt>
      <trkpt lat="47.77727" lon="-1.82851">
        <ele>70.7</ele>
      </trkpt>
      <trkpt lat="47.77727" lon="-1.82848">
        <ele>70.8</ele>
      </trkpt>
      <trkpt lat="47.77726" lon="-1.82845">
        <ele>70.9</ele>
      </trkpt>
      <trkpt lat="47.77727" lon="-1.82842">
        <ele>70.8</ele>
      </trkpt>
      <trkpt lat="47.77728" lon="-1.8284">
        <ele>70.6</ele>
      </trkpt>
      <trkpt lat="47.77729" lon="-1.82837">
        <ele>70.5</ele>
      </trkpt>
      <trkpt lat="47.7773" lon="-1.82836">
        <ele>70.4</ele>
      </trkpt>
      <trkpt lat="47.7773" lon="-1.82836">
        <ele>70.4</ele>
      </trkpt>
      <trkpt lat="47.7773" lon="-1.82834">
        <ele>70.3</ele>
      </trkpt>
      <trkpt lat="47.7773" lon="-1.82832">
        <ele>70.4</ele>
      </trkpt>
      <trkpt lat="47.77732" lon="-1.82829">
        <ele>70.3</ele>
      </trkpt>
      <trkpt lat="47.77733" lon="-1.82826">
        <ele>70.2</ele>
      </trkpt>
      <trkpt lat="47.77734" lon="-1.82823">
        <ele>70.2</ele>
      </trkpt>
      <trkpt lat="47.77734" lon="-1.82819">
        <ele>70.3</ele>
      </trkpt>
      <trkpt lat="47.77735" lon="-1.82814">
        <ele>70.5</ele>
      </trkpt>
      <trkpt lat="47.77735" lon="-1.8281">
        <ele>70.6</ele>
      </trkpt>
      <trkpt lat="47.77736" lon="-1.82806">
        <ele>70.7</ele>
      </trkpt>
      <trkpt lat="47.77738" lon="-1.828">
        <ele>70.6</ele>
      </trkpt>
      <trkpt lat="47.77739" lon="-1.82794">
        <ele>70.7</ele>
      </trkpt>
      <trkpt lat="47.7774" lon="-1.82789">
        <ele>70.9</ele>
      </trkpt>
      <trkpt lat="47.77739" lon="-1.82784">
        <ele>71.2</ele>
      </trkpt>
      <trkpt lat="47.7774" lon="-1.82779">
        <ele>71.3</ele>
      </trkpt>
      <trkpt lat="47.77742" lon="-1.82773">
        <ele>71.3</ele>
      </trkpt>
      <trkpt lat="47.77744" lon="-1.82766">
        <ele>71.2</ele>
      </trkpt>
      <trkpt lat="47.77744" lon="-1.8276">
        <ele>71.5</ele>
      </trkpt>
      <trkpt lat="47.77746" lon="-1.82757">
        <ele>71.4</ele>
      </trkpt>
      <trkpt lat="47.77748" lon="-1.82752">
        <ele>71.3</ele>
      </trkpt>
      <trkpt lat="47.77749" lon="-1.82748">
        <ele>71.4</ele>
      </trkpt>
      <trkpt lat="47.77749" lon="-1.82745">
        <ele>71.5</ele>
      </trkpt>
      <trkpt lat="47.77751" lon="-1.8274">
        <ele>71.5</ele>
      </trkpt>
      <trkpt lat="47.77752" lon="-1.82735">
        <ele>71.6</ele>
      </trkpt>
      <trkpt lat="47.77753" lon="-1.82731">
        <ele>71.5</ele>
      </trkpt>
      <trkpt lat="47.77753" lon="-1.82727">
        <ele>71.7</ele>
      </trkpt>
      <trkpt lat="47.77755" lon="-1.82721">
        <ele>71.6</ele>
      </trkpt>
      <trkpt lat="47.77756" lon="-1.82718">
        <ele>71.7</ele>
      </trkpt>
      <trkpt lat="47.77756" lon="-1.82715">
        <ele>71.8</ele>
      </trkpt>
      <trkpt lat="47.77755" lon="-1.82712">
        <ele>72.2</ele>
      </trkpt>
      <trkpt lat="47.77755" lon="-1.82709">
        <ele>72.4</ele>
      </trkpt>
      <trkpt lat="47.77756" lon="-1.82706">
        <ele>72.4</ele>
      </trkpt>
      <trkpt lat="47.77757" lon="-1.82704">
        <ele>72.3</ele>
      </trkpt>
      <trkpt lat="47.77757" lon="-1.82703">
        <ele>72.3</ele>
      </trkpt>
      <trkpt lat="47.77757" lon="-1.82702">
        <ele>72.4</ele>
      </trkpt>
      <trkpt lat="47.77756" lon="-1.82702">
        <ele>72.6</ele>
      </trkpt>
      <trkpt lat="47.77756" lon="-1.82702">
        <ele>72.6</ele>
      </trkpt>
      <trkpt lat="47.77756" lon="-1.82702">
        <ele>72.6</ele>
      </trkpt>
      <trkpt lat="47.77756" lon="-1.82702">
        <ele>72.6</ele>
      </trkpt>
      <trkpt lat="47.77756" lon="-1.82702">
        <ele>72.6</ele>
      </trkpt>
      <trkpt lat="47.77756" lon="-1.82702">
        <ele>72.6</ele>
      </trkpt>
      <trkpt lat="47.77756" lon="-1.82702">
        <ele>72.6</ele>
      </trkpt>
      <trkpt lat="47.77756" lon="-1.82702">
        <ele>72.6</ele>
      </trkpt>
      <trkpt lat="47.77756" lon="-1.82701">
        <ele>72.6</ele>
      </trkpt>
      <trkpt lat="47.77756" lon="-1.82701">
        <ele>72.8</ele>
      </trkpt>
      <trkpt lat="47.77755" lon="-1.82701">
        <ele>73</ele>
      </trkpt>
      <trkpt lat="47.77755" lon="-1.82701">
        <ele>73.2</ele>
      </trkpt>
      <trkpt lat="47.77753" lon="-1.82701">
        <ele>73.5</ele>
      </trkpt>
      <trkpt lat="47.77753" lon="-1.82702">
        <ele>73.6</ele>
      </trkpt>
      <trkpt lat="47.77752" lon="-1.82703">
        <ele>73.7</ele>
      </trkpt>
      <trkpt lat="47.77752" lon="-1.82704">
        <ele>73.7</ele>
      </trkpt>
      <trkpt lat="47.77752" lon="-1.82704">
        <ele>73.7</ele>
      </trkpt>
      <trkpt lat="47.77752" lon="-1.82704">
        <ele>73.7</ele>
      </trkpt>
      <trkpt lat="47.77752" lon="-1.82704">
        <ele>73.7</ele>
      </trkpt>
      <trkpt lat="47.77752" lon="-1.82704">
        <ele>73.8</ele>
      </trkpt>
      <trkpt lat="47.77751" lon="-1.82705">
        <ele>73.8</ele>
      </trkpt>
      <trkpt lat="47.77751" lon="-1.82705">
        <ele>73.8</ele>
      </trkpt>
      <trkpt lat="47.77751" lon="-1.82705">
        <ele>73.8</ele>
      </trkpt>
      <trkpt lat="47.77751" lon="-1.82705">
        <ele>73.8</ele>
      </trkpt>
      <trkpt lat="47.77751" lon="-1.82706">
        <ele>73.9</ele>
      </trkpt>
      <trkpt lat="47.77749" lon="-1.82708">
        <ele>74.1</ele>
      </trkpt>
      <trkpt lat="47.77748" lon="-1.8271">
        <ele>74.2</ele>
      </trkpt>
      <trkpt lat="47.77746" lon="-1.82713">
        <ele>74.2</ele>
      </trkpt>
      <trkpt lat="47.77745" lon="-1.82716">
        <ele>74.2</ele>
      </trkpt>
      <trkpt lat="47.77743" lon="-1.8272">
        <ele>74.3</ele>
      </trkpt>
      <trkpt lat="47.77741" lon="-1.82723">
        <ele>74.3</ele>
      </trkpt>
      <trkpt lat="47.77739" lon="-1.82726">
        <ele>74.4</ele>
      </trkpt>
      <trkpt lat="47.77737" lon="-1.82729">
        <ele>74.5</ele>
      </trkpt>
      <trkpt lat="47.77736" lon="-1.82732">
        <ele>74.6</ele>
      </trkpt>
      <trkpt lat="47.77735" lon="-1.82734">
        <ele>74.6</ele>
      </trkpt>
      <trkpt lat="47.77735" lon="-1.82734">
        <ele>74.6</ele>
      </trkpt>
      <trkpt lat="47.77733" lon="-1.82738">
        <ele>74.6</ele>
      </trkpt>
      <trkpt lat="47.77732" lon="-1.82739">
        <ele>74.7</ele>
      </trkpt>
      <trkpt lat="47.77731" lon="-1.82739">
        <ele>74.9</ele>
      </trkpt>
      <trkpt lat="47.7773" lon="-1.8274">
        <ele>75.1</ele>
      </trkpt>
      <trkpt lat="47.77729" lon="-1.82741">
        <ele>75.2</ele>
      </trkpt>
      <trkpt lat="47.77728" lon="-1.82741">
        <ele>75.3</ele>
      </trkpt>
      <trkpt lat="47.77727" lon="-1.82741">
        <ele>75.4</ele>
      </trkpt>
      <trkpt lat="47.77726" lon="-1.8274">
        <ele>75.7</ele>
      </trkpt>
      <trkpt lat="47.77724" lon="-1.82739">
        <ele>76.1</ele>
      </trkpt>
      <trkpt lat="47.77722" lon="-1.82737">
        <ele>76.5</ele>
      </trkpt>
      <trkpt lat="47.77721" lon="-1.82735">
        <ele>76.8</ele>
      </trkpt>
      <trkpt lat="47.77719" lon="-1.82733">
        <ele>77.2</ele>
      </trkpt>
      <trkpt lat="47.77718" lon="-1.82731">
        <ele>77.5</ele>
      </trkpt>
      <trkpt lat="47.77717" lon="-1.82728">
        <ele>77.9</ele>
      </trkpt>
      <trkpt lat="47.77716" lon="-1.82725">
        <ele>78.1</ele>
      </trkpt>
      <trkpt lat="47.77716" lon="-1.82722">
        <ele>78.3</ele>
      </trkpt>
      <trkpt lat="47.77716" lon="-1.8272">
        <ele>78.4</ele>
      </trkpt>
      <trkpt lat="47.77716" lon="-1.82717">
        <ele>78.5</ele>
      </trkpt>
      <trkpt lat="47.77717" lon="-1.82714">
        <ele>78.6</ele>
      </trkpt>
      <trkpt lat="47.77719" lon="-1.8271">
        <ele>78.6</ele>
      </trkpt>
      <trkpt lat="47.77719" lon="-1.82705">
        <ele>78.9</ele>
      </trkpt>
      <trkpt lat="47.77718" lon="-1.82702">
        <ele>79.2</ele>
      </trkpt>
      <trkpt lat="47.77717" lon="-1.82698">
        <ele>79.6</ele>
      </trkpt>
      <trkpt lat="47.77715" lon="-1.82695">
        <ele>80</ele>
      </trkpt>
      <trkpt lat="47.77713" lon="-1.82694">
        <ele>80.4</ele>
      </trkpt>
      <trkpt lat="47.77711" lon="-1.82694">
        <ele>80.6</ele>
      </trkpt>
      <trkpt lat="47.7771" lon="-1.82695">
        <ele>80.8</ele>
      </trkpt>
      <trkpt lat="47.77708" lon="-1.82696">
        <ele>80.9</ele>
      </trkpt>
      <trkpt lat="47.77706" lon="-1.82697">
        <ele>81.2</ele>
      </trkpt>
      <trkpt lat="47.77703" lon="-1.82697">
        <ele>81.7</ele>
      </trkpt>
      <trkpt lat="47.77701" lon="-1.82697">
        <ele>82</ele>
      </trkpt>
      <trkpt lat="47.777" lon="-1.82695">
        <ele>82.2</ele>
      </trkpt>
      <trkpt lat="47.777" lon="-1.82692">
        <ele>82.4</ele>
      </trkpt>
      <trkpt lat="47.77699" lon="-1.82689">
        <ele>82.6</ele>
      </trkpt>
      <trkpt lat="47.77698" lon="-1.82686">
        <ele>83</ele>
      </trkpt>
      <trkpt lat="47.77696" lon="-1.82681">
        <ele>83.4</ele>
      </trkpt>
      <trkpt lat="47.77695" lon="-1.82678">
        <ele>83.7</ele>
      </trkpt>
      <trkpt lat="47.77693" lon="-1.82675">
        <ele>84.1</ele>
      </trkpt>
      <trkpt lat="47.77693" lon="-1.82672">
        <ele>84.3</ele>
      </trkpt>
      <trkpt lat="47.77692" lon="-1.82669">
        <ele>84.6</ele>
      </trkpt>
      <trkpt lat="47.77691" lon="-1.82665">
        <ele>84.9</ele>
      </trkpt>
      <trkpt lat="47.7769" lon="-1.82663">
        <ele>85.2</ele>
      </trkpt>
      <trkpt lat="47.77688" lon="-1.82661">
        <ele>85.6</ele>
      </trkpt>
      <trkpt lat="47.77686" lon="-1.82658">
        <ele>86.1</ele>
      </trkpt>
      <trkpt lat="47.77683" lon="-1.82654">
        <ele>86.7</ele>
      </trkpt>
      <trkpt lat="47.77681" lon="-1.82653">
        <ele>87.1</ele>
      </trkpt>
      <trkpt lat="47.77679" lon="-1.82652">
        <ele>87.4</ele>
      </trkpt>
      <trkpt lat="47.77677" lon="-1.8265">
        <ele>87.8</ele>
      </trkpt>
      <trkpt lat="47.77677" lon="-1.82647">
        <ele>88.1</ele>
      </trkpt>
      <trkpt lat="47.77675" lon="-1.82644">
        <ele>88.5</ele>
      </trkpt>
      <trkpt lat="47.77674" lon="-1.82644">
        <ele>88.7</ele>
      </trkpt>
      <trkpt lat="47.77673" lon="-1.82645">
        <ele>88.8</ele>
      </trkpt>
      <trkpt lat="47.77671" lon="-1.82646">
        <ele>88.8</ele>
      </trkpt>
      <trkpt lat="47.7767" lon="-1.82648">
        <ele>88.9</ele>
      </trkpt>
      <trkpt lat="47.77668" lon="-1.82651">
        <ele>89</ele>
      </trkpt>
      <trkpt lat="47.77666" lon="-1.82654">
        <ele>88.9</ele>
      </trkpt>
      <trkpt lat="47.77665" lon="-1.82657">
        <ele>88.6</ele>
      </trkpt>
      <trkpt lat="47.77663" lon="-1.82659">
        <ele>88.4</ele>
      </trkpt>
      <trkpt lat="47.77661" lon="-1.82661">
        <ele>88.2</ele>
      </trkpt>
      <trkpt lat="47.77659" lon="-1.82661">
        <ele>88.1</ele>
      </trkpt>
      <trkpt lat="47.77656" lon="-1.8266">
        <ele>88</ele>
      </trkpt>
      <trkpt lat="47.77653" lon="-1.82658">
        <ele>88</ele>
      </trkpt>
      <trkpt lat="47.77651" lon="-1.82656">
        <ele>88.1</ele>
      </trkpt>
      <trkpt lat="47.77649" lon="-1.82653">
        <ele>88.1</ele>
      </trkpt>
      <trkpt lat="47.77648" lon="-1.82651">
        <ele>88.2</ele>
      </trkpt>
      <trkpt lat="47.77648" lon="-1.82648">
        <ele>88.4</ele>
      </trkpt>
      <trkpt lat="47.77649" lon="-1.82646">
        <ele>88.5</ele>
      </trkpt>
      <trkpt lat="47.77651" lon="-1.82643">
        <ele>88.8</ele>
      </trkpt>
      <trkpt lat="47.77654" lon="-1.8264">
        <ele>89.2</ele>
      </trkpt>
      <trkpt lat="47.77655" lon="-1.82636">
        <ele>89.5</ele>
      </trkpt>
      <trkpt lat="47.77654" lon="-1.82633">
        <ele>89.6</ele>
      </trkpt>
      <trkpt lat="47.77652" lon="-1.8263">
        <ele>89.7</ele>
      </trkpt>
      <trkpt lat="47.7765" lon="-1.82626">
        <ele>89.8</ele>
      </trkpt>
      <trkpt lat="47.77649" lon="-1.82623">
        <ele>89.9</ele>
      </trkpt>
      <trkpt lat="47.77648" lon="-1.82621">
        <ele>89.9</ele>
      </trkpt>
      <trkpt lat="47.77647" lon="-1.82621">
        <ele>89.8</ele>
      </trkpt>
      <trkpt lat="47.77644" lon="-1.82623">
        <ele>89.5</ele>
      </trkpt>
      <trkpt lat="47.77642" lon="-1.82626">
        <ele>89.2</ele>
      </trkpt>
      <trkpt lat="47.77639" lon="-1.82628">
        <ele>88.9</ele>
      </trkpt>
      <trkpt lat="47.77635" lon="-1.82629">
        <ele>88.5</ele>
      </trkpt>
      <trkpt lat="47.77632" lon="-1.82628">
        <ele>88.4</ele>
      </trkpt>
      <trkpt lat="47.7763" lon="-1.82625">
        <ele>88.3</ele>
      </trkpt>
      <trkpt lat="47.77627" lon="-1.82621">
        <ele>88.3</ele>
      </trkpt>
      <trkpt lat="47.77624" lon="-1.82616">
        <ele>88.2</ele>
      </trkpt>
      <trkpt lat="47.7762" lon="-1.82613">
        <ele>88</ele>
      </trkpt>
      <trkpt lat="47.77617" lon="-1.82613">
        <ele>87.8</ele>
      </trkpt>
      <trkpt lat="47.77614" lon="-1.82615">
        <ele>87.4</ele>
      </trkpt>
      <trkpt lat="47.77611" lon="-1.82617">
        <ele>87.2</ele>
      </trkpt>
      <trkpt lat="47.77609" lon="-1.82619">
        <ele>87</ele>
      </trkpt>
      <trkpt lat="47.77606" lon="-1.8262">
        <ele>86.7</ele>
      </trkpt>
      <trkpt lat="47.77603" lon="-1.8262">
        <ele>86.5</ele>
      </trkpt>
      <trkpt lat="47.77599" lon="-1.82618">
        <ele>86.2</ele>
      </trkpt>
      <trkpt lat="47.77596" lon="-1.82616">
        <ele>86</ele>
      </trkpt>
      <trkpt lat="47.77596" lon="-1.82616">
        <ele>86</ele>
      </trkpt>
      <trkpt lat="47.77596" lon="-1.82616">
        <ele>86</ele>
      </trkpt>
      <trkpt lat="47.77596" lon="-1.82616">
        <ele>86</ele>
      </trkpt>
      <trkpt lat="47.77596" lon="-1.82616">
        <ele>86</ele>
      </trkpt>
      <trkpt lat="47.77596" lon="-1.82616">
        <ele>86</ele>
      </trkpt>
      <trkpt lat="47.77594" lon="-1.82617">
        <ele>85.9</ele>
      </trkpt>
      <trkpt lat="47.77593" lon="-1.82616">
        <ele>85.8</ele>
      </trkpt>
      <trkpt lat="47.77591" lon="-1.82615">
        <ele>85.6</ele>
      </trkpt>
      <trkpt lat="47.77591" lon="-1.82614">
        <ele>85.6</ele>
      </trkpt>
      <trkpt lat="47.77591" lon="-1.82614">
        <ele>85.6</ele>
      </trkpt>
      <trkpt lat="47.77591" lon="-1.82614">
        <ele>85.6</ele>
      </trkpt>
      <trkpt lat="47.77591" lon="-1.82614">
        <ele>85.6</ele>
      </trkpt>
      <trkpt lat="47.77591" lon="-1.82614">
        <ele>85.6</ele>
      </trkpt>
      <trkpt lat="47.77591" lon="-1.82614">
        <ele>85.6</ele>
      </trkpt>
      <trkpt lat="47.77591" lon="-1.82614">
        <ele>85.6</ele>
      </trkpt>
      <trkpt lat="47.77591" lon="-1.82614">
        <ele>85.6</ele>
      </trkpt>
      <trkpt lat="47.77591" lon="-1.82614">
        <ele>85.6</ele>
      </trkpt>
      <trkpt lat="47.77591" lon="-1.82614">
        <ele>85.6</ele>
      </trkpt>
      <trkpt lat="47.77591" lon="-1.82614">
        <ele>85.6</ele>
      </trkpt>
      <trkpt lat="47.77591" lon="-1.82614">
        <ele>85.6</ele>
      </trkpt>
      <trkpt lat="47.77591" lon="-1.82614">
        <ele>85.6</ele>
      </trkpt>
      <trkpt lat="47.77591" lon="-1.82614">
        <ele>85.6</ele>
      </trkpt>
      <trkpt lat="47.77589" lon="-1.82614">
        <ele>85.5</ele>
      </trkpt>
      <trkpt lat="47.77588" lon="-1.82613">
        <ele>85.4</ele>
      </trkpt>
      <trkpt lat="47.77587" lon="-1.82611">
        <ele>85.3</ele>
      </trkpt>
      <trkpt lat="47.77586" lon="-1.82609">
        <ele>85.2</ele>
      </trkpt>
      <trkpt lat="47.77586" lon="-1.82607">
        <ele>85.2</ele>
      </trkpt>
      <trkpt lat="47.77586" lon="-1.82604">
        <ele>85.2</ele>
      </trkpt>
      <trkpt lat="47.77586" lon="-1.826">
        <ele>85.2</ele>
      </trkpt>
      <trkpt lat="47.77586" lon="-1.82597">
        <ele>85.3</ele>
      </trkpt>
      <trkpt lat="47.77586" lon="-1.82593">
        <ele>85.3</ele>
      </trkpt>
      <trkpt lat="47.77586" lon="-1.82589">
        <ele>85.2</ele>
      </trkpt>
      <trkpt lat="47.77584" lon="-1.82586">
        <ele>85.1</ele>
      </trkpt>
      <trkpt lat="47.77582" lon="-1.82583">
        <ele>84.9</ele>
      </trkpt>
      <trkpt lat="47.7758" lon="-1.8258">
        <ele>84.6</ele>
      </trkpt>
      <trkpt lat="47.77579" lon="-1.82577">
        <ele>84.4</ele>
      </trkpt>
      <trkpt lat="47.77576" lon="-1.82575">
        <ele>84.2</ele>
      </trkpt>
      <trkpt lat="47.77574" lon="-1.82574">
        <ele>83.9</ele>
      </trkpt>
      <trkpt lat="47.77571" lon="-1.82574">
        <ele>83.6</ele>
      </trkpt>
      <trkpt lat="47.77569" lon="-1.82572">
        <ele>83.2</ele>
      </trkpt>
      <trkpt lat="47.77565" lon="-1.82571">
        <ele>82.8</ele>
      </trkpt>
      <trkpt lat="47.77562" lon="-1.82569">
        <ele>82.4</ele>
      </trkpt>
      <trkpt lat="47.77559" lon="-1.82566">
        <ele>82.1</ele>
      </trkpt>
      <trkpt lat="47.77557" lon="-1.82564">
        <ele>81.8</ele>
      </trkpt>
      <trkpt lat="47.77555" lon="-1.82564">
        <ele>81.6</ele>
      </trkpt>
      <trkpt lat="47.77553" lon="-1.82567">
        <ele>81.4</ele>
      </trkpt>
      <trkpt lat="47.77551" lon="-1.82571">
        <ele>81.1</ele>
      </trkpt>
      <trkpt lat="47.77549" lon="-1.82576">
        <ele>80.8</ele>
      </trkpt>
      <trkpt lat="47.77546" lon="-1.82581">
        <ele>80.5</ele>
      </trkpt>
      <trkpt lat="47.77543" lon="-1.82585">
        <ele>80.2</ele>
      </trkpt>
      <trkpt lat="47.7754" lon="-1.82589">
        <ele>79.9</ele>
      </trkpt>
      <trkpt lat="47.77538" lon="-1.82593">
        <ele>79.6</ele>
      </trkpt>
      <trkpt lat="47.77533" lon="-1.82596">
        <ele>79</ele>
      </trkpt>
      <trkpt lat="47.7753" lon="-1.82601">
        <ele>78.7</ele>
      </trkpt>
      <trkpt lat="47.77527" lon="-1.82606">
        <ele>78.4</ele>
      </trkpt>
      <trkpt lat="47.77526" lon="-1.82611">
        <ele>78.4</ele>
      </trkpt>
      <trkpt lat="47.77524" lon="-1.82616">
        <ele>78.2</ele>
      </trkpt>
      <trkpt lat="47.77523" lon="-1.82622">
        <ele>78</ele>
      </trkpt>
      <trkpt lat="47.77521" lon="-1.82627">
        <ele>77.9</ele>
      </trkpt>
      <trkpt lat="47.77518" lon="-1.82632">
        <ele>77.6</ele>
      </trkpt>
      <trkpt lat="47.77515" lon="-1.82638">
        <ele>77.4</ele>
      </trkpt>
      <trkpt lat="47.77513" lon="-1.82644">
        <ele>77.1</ele>
      </trkpt>
      <trkpt lat="47.7751" lon="-1.8265">
        <ele>76.9</ele>
      </trkpt>
      <trkpt lat="47.77507" lon="-1.82656">
        <ele>76.6</ele>
      </trkpt>
      <trkpt lat="47.77505" lon="-1.82662">
        <ele>76.5</ele>
      </trkpt>
      <trkpt lat="47.77503" lon="-1.82669">
        <ele>76.5</ele>
      </trkpt>
      <trkpt lat="47.77501" lon="-1.82676">
        <ele>76.6</ele>
      </trkpt>
      <trkpt lat="47.77497" lon="-1.82682">
        <ele>76.7</ele>
      </trkpt>
      <trkpt lat="47.77494" lon="-1.82689">
        <ele>76.7</ele>
      </trkpt>
      <trkpt lat="47.77492" lon="-1.82695">
        <ele>76.7</ele>
      </trkpt>
      <trkpt lat="47.77489" lon="-1.82701">
        <ele>76.7</ele>
      </trkpt>
      <trkpt lat="47.77487" lon="-1.82707">
        <ele>76.8</ele>
      </trkpt>
      <trkpt lat="47.77485" lon="-1.82712">
        <ele>76.8</ele>
      </trkpt>
      <trkpt lat="47.77483" lon="-1.82717">
        <ele>76.9</ele>
      </trkpt>
      <trkpt lat="47.77482" lon="-1.82722">
        <ele>76.9</ele>
      </trkpt>
      <trkpt lat="47.7748" lon="-1.82726">
        <ele>76.9</ele>
      </trkpt>
      <trkpt lat="47.77478" lon="-1.82731">
        <ele>76.9</ele>
      </trkpt>
      <trkpt lat="47.77476" lon="-1.82736">
        <ele>76.9</ele>
      </trkpt>
      <trkpt lat="47.77475" lon="-1.82742">
        <ele>76.9</ele>
      </trkpt>
      <trkpt lat="47.77473" lon="-1.82748">
        <ele>77</ele>
      </trkpt>
      <trkpt lat="47.77471" lon="-1.82754">
        <ele>77</ele>
      </trkpt>
      <trkpt lat="47.77469" lon="-1.8276">
        <ele>76.9</ele>
      </trkpt>
      <trkpt lat="47.77467" lon="-1.82765">
        <ele>76.8</ele>
      </trkpt>
      <trkpt lat="47.77465" lon="-1.8277">
        <ele>76.7</ele>
      </trkpt>
      <trkpt lat="47.77462" lon="-1.82775">
        <ele>76.5</ele>
      </trkpt>
      <trkpt lat="47.7746" lon="-1.8278">
        <ele>76.4</ele>
      </trkpt>
      <trkpt lat="47.77458" lon="-1.82786">
        <ele>76.3</ele>
      </trkpt>
      <trkpt lat="47.77457" lon="-1.82791">
        <ele>76.2</ele>
      </trkpt>
      <trkpt lat="47.77454" lon="-1.82796">
        <ele>76.1</ele>
      </trkpt>
      <trkpt lat="47.77452" lon="-1.82802">
        <ele>75.9</ele>
      </trkpt>
      <trkpt lat="47.7745" lon="-1.82808">
        <ele>75.8</ele>
      </trkpt>
      <trkpt lat="47.77448" lon="-1.82814">
        <ele>75.6</ele>
      </trkpt>
      <trkpt lat="47.77445" lon="-1.8282">
        <ele>75.3</ele>
      </trkpt>
      <trkpt lat="47.77442" lon="-1.82827">
        <ele>75.1</ele>
      </trkpt>
      <trkpt lat="47.7744" lon="-1.82833">
        <ele>75</ele>
      </trkpt>
      <trkpt lat="47.77438" lon="-1.82839">
        <ele>74.7</ele>
      </trkpt>
      <trkpt lat="47.77437" lon="-1.82846">
        <ele>74.6</ele>
      </trkpt>
      <trkpt lat="47.77434" lon="-1.82852">
        <ele>74.3</ele>
      </trkpt>
      <trkpt lat="47.77433" lon="-1.82858">
        <ele>74.2</ele>
      </trkpt>
      <trkpt lat="47.7743" lon="-1.82865">
        <ele>73.8</ele>
      </trkpt>
      <trkpt lat="47.77427" lon="-1.82872">
        <ele>73.6</ele>
      </trkpt>
      <trkpt lat="47.77425" lon="-1.82877">
        <ele>73.3</ele>
      </trkpt>
      <trkpt lat="47.77423" lon="-1.82884">
        <ele>73.2</ele>
      </trkpt>
      <trkpt lat="47.77421" lon="-1.8289">
        <ele>73</ele>
      </trkpt>
      <trkpt lat="47.77418" lon="-1.82896">
        <ele>72.8</ele>
      </trkpt>
      <trkpt lat="47.77415" lon="-1.82902">
        <ele>72.5</ele>
      </trkpt>
      <trkpt lat="47.77412" lon="-1.82907">
        <ele>72.4</ele>
      </trkpt>
      <trkpt lat="47.7741" lon="-1.82913">
        <ele>72.4</ele>
      </trkpt>
      <trkpt lat="47.7741" lon="-1.82919">
        <ele>72.6</ele>
      </trkpt>
      <trkpt lat="47.77409" lon="-1.82926">
        <ele>72.8</ele>
      </trkpt>
      <trkpt lat="47.77408" lon="-1.82932">
        <ele>73.1</ele>
      </trkpt>
      <trkpt lat="47.77407" lon="-1.82939">
        <ele>73.3</ele>
      </trkpt>
      <trkpt lat="47.77403" lon="-1.82946">
        <ele>73.4</ele>
      </trkpt>
      <trkpt lat="47.774" lon="-1.82953">
        <ele>73.5</ele>
      </trkpt>
      <trkpt lat="47.77397" lon="-1.8296">
        <ele>73.7</ele>
      </trkpt>
      <trkpt lat="47.77394" lon="-1.82965">
        <ele>73.8</ele>
      </trkpt>
      <trkpt lat="47.77391" lon="-1.82971">
        <ele>73.8</ele>
      </trkpt>
      <trkpt lat="47.7739" lon="-1.82975">
        <ele>74</ele>
      </trkpt>
      <trkpt lat="47.77388" lon="-1.82981">
        <ele>74.2</ele>
      </trkpt>
      <trkpt lat="47.77386" lon="-1.82988">
        <ele>74.5</ele>
      </trkpt>
      <trkpt lat="47.77384" lon="-1.82993">
        <ele>74.6</ele>
      </trkpt>
      <trkpt lat="47.77382" lon="-1.82999">
        <ele>74.8</ele>
      </trkpt>
      <trkpt lat="47.7738" lon="-1.83004">
        <ele>75</ele>
      </trkpt>
      <trkpt lat="47.77378" lon="-1.83009">
        <ele>75.2</ele>
      </trkpt>
      <trkpt lat="47.77376" lon="-1.83015">
        <ele>75.5</ele>
      </trkpt>
      <trkpt lat="47.77375" lon="-1.83019">
        <ele>75.7</ele>
      </trkpt>
      <trkpt lat="47.77374" lon="-1.83023">
        <ele>75.8</ele>
      </trkpt>
      <trkpt lat="47.77374" lon="-1.83024">
        <ele>75.9</ele>
      </trkpt>
      <trkpt lat="47.77375" lon="-1.83027">
        <ele>76.1</ele>
      </trkpt>
      <trkpt lat="47.77376" lon="-1.83028">
        <ele>76.2</ele>
      </trkpt>
      <trkpt lat="47.77377" lon="-1.8303">
        <ele>76.4</ele>
      </trkpt>
      <trkpt lat="47.77378" lon="-1.8303">
        <ele>76.5</ele>
      </trkpt>
      <trkpt lat="47.7738" lon="-1.8303">
        <ele>76.6</ele>
      </trkpt>
      <trkpt lat="47.77382" lon="-1.8303">
        <ele>76.7</ele>
      </trkpt>
      <trkpt lat="47.77385" lon="-1.8303">
        <ele>76.8</ele>
      </trkpt>
      <trkpt lat="47.77388" lon="-1.8303">
        <ele>77</ele>
      </trkpt>
      <trkpt lat="47.77392" lon="-1.83031">
        <ele>77.2</ele>
      </trkpt>
      <trkpt lat="47.77395" lon="-1.83033">
        <ele>77.5</ele>
      </trkpt>
      <trkpt lat="47.77396" lon="-1.83035">
        <ele>77.7</ele>
      </trkpt>
      <trkpt lat="47.77399" lon="-1.83037">
        <ele>77.9</ele>
      </trkpt>
      <trkpt lat="47.77405" lon="-1.83043">
        <ele>78.5</ele>
      </trkpt>
      <trkpt lat="47.77407" lon="-1.83044">
        <ele>78.7</ele>
      </trkpt>
      <trkpt lat="47.77408" lon="-1.83046">
        <ele>78.8</ele>
      </trkpt>
      <trkpt lat="47.7741" lon="-1.83049">
        <ele>79</ele>
      </trkpt>
      <trkpt lat="47.77412" lon="-1.83051">
        <ele>79.2</ele>
      </trkpt>
      <trkpt lat="47.77414" lon="-1.83053">
        <ele>79.4</ele>
      </trkpt>
      <trkpt lat="47.77416" lon="-1.83055">
        <ele>79.6</ele>
      </trkpt>
      <trkpt lat="47.77419" lon="-1.83056">
        <ele>79.7</ele>
      </trkpt>
      <trkpt lat="47.77422" lon="-1.83058">
        <ele>79.9</ele>
      </trkpt>
      <trkpt lat="47.77425" lon="-1.8306">
        <ele>80</ele>
      </trkpt>
      <trkpt lat="47.77429" lon="-1.83062">
        <ele>80.1</ele>
      </trkpt>
      <trkpt lat="47.77431" lon="-1.83064">
        <ele>80.2</ele>
      </trkpt>
      <trkpt lat="47.77435" lon="-1.83066">
        <ele>80.4</ele>
      </trkpt>
      <trkpt lat="47.77439" lon="-1.83068">
        <ele>80.5</ele>
      </trkpt>
      <trkpt lat="47.77441" lon="-1.83069">
        <ele>80.5</ele>
      </trkpt>
      <trkpt lat="47.77444" lon="-1.8307">
        <ele>80.6</ele>
      </trkpt>
      <trkpt lat="47.77447" lon="-1.83073">
        <ele>80.7</ele>
      </trkpt>
      <trkpt lat="47.7745" lon="-1.83075">
        <ele>80.8</ele>
      </trkpt>
      <trkpt lat="47.77452" lon="-1.83077">
        <ele>80.8</ele>
      </trkpt>
      <trkpt lat="47.77454" lon="-1.8308">
        <ele>80.9</ele>
      </trkpt>
      <trkpt lat="47.77456" lon="-1.83082">
        <ele>81</ele>
      </trkpt>
      <trkpt lat="47.77459" lon="-1.83084">
        <ele>81</ele>
      </trkpt>
      <trkpt lat="47.77462" lon="-1.83086">
        <ele>81.1</ele>
      </trkpt>
      <trkpt lat="47.77465" lon="-1.83087">
        <ele>81.2</ele>
      </trkpt>
      <trkpt lat="47.77467" lon="-1.8309">
        <ele>81.4</ele>
      </trkpt>
      <trkpt lat="47.77467" lon="-1.83093">
        <ele>81.6</ele>
      </trkpt>
      <trkpt lat="47.77464" lon="-1.83099">
        <ele>81.8</ele>
      </trkpt>
      <trkpt lat="47.77465" lon="-1.83104">
        <ele>82.1</ele>
      </trkpt>
      <trkpt lat="47.77464" lon="-1.83109">
        <ele>82.4</ele>
      </trkpt>
      <trkpt lat="47.77464" lon="-1.83113">
        <ele>82.6</ele>
      </trkpt>
      <trkpt lat="47.77463" lon="-1.83116">
        <ele>82.8</ele>
      </trkpt>
      <trkpt lat="47.77461" lon="-1.83119">
        <ele>82.9</ele>
      </trkpt>
      <trkpt lat="47.77459" lon="-1.83123">
        <ele>83.1</ele>
      </trkpt>
      <trkpt lat="47.77458" lon="-1.83126">
        <ele>83.3</ele>
      </trkpt>
      <trkpt lat="47.77457" lon="-1.83131">
        <ele>83.6</ele>
      </trkpt>
      <trkpt lat="47.77458" lon="-1.83136">
        <ele>83.8</ele>
      </trkpt>
      <trkpt lat="47.77459" lon="-1.83141">
        <ele>84.1</ele>
      </trkpt>
      <trkpt lat="47.77462" lon="-1.83145">
        <ele>84.4</ele>
      </trkpt>
      <trkpt lat="47.77463" lon="-1.8315">
        <ele>84.6</ele>
      </trkpt>
      <trkpt lat="47.77464" lon="-1.83155">
        <ele>84.9</ele>
      </trkpt>
      <trkpt lat="47.77462" lon="-1.8316">
        <ele>85.2</ele>
      </trkpt>
      <trkpt lat="47.77461" lon="-1.83165">
        <ele>85.5</ele>
      </trkpt>
      <trkpt lat="47.7746" lon="-1.8317">
        <ele>85.7</ele>
      </trkpt>
      <trkpt lat="47.7746" lon="-1.83176">
        <ele>85.9</ele>
      </trkpt>
      <trkpt lat="47.77459" lon="-1.83181">
        <ele>86</ele>
      </trkpt>
      <trkpt lat="47.77458" lon="-1.83187">
        <ele>86.2</ele>
      </trkpt>
      <trkpt lat="47.77456" lon="-1.83192">
        <ele>86.4</ele>
      </trkpt>
      <trkpt lat="47.77452" lon="-1.83198">
        <ele>86.6</ele>
      </trkpt>
      <trkpt lat="47.7745" lon="-1.83204">
        <ele>86.8</ele>
      </trkpt>
      <trkpt lat="47.77448" lon="-1.83209">
        <ele>87</ele>
      </trkpt>
      <trkpt lat="47.77447" lon="-1.83215">
        <ele>87.3</ele>
      </trkpt>
      <trkpt lat="47.77445" lon="-1.83219">
        <ele>87.4</ele>
      </trkpt>
      <trkpt lat="47.77443" lon="-1.83223">
        <ele>87.6</ele>
      </trkpt>
      <trkpt lat="47.77439" lon="-1.83225">
        <ele>87.7</ele>
      </trkpt>
      <trkpt lat="47.77435" lon="-1.83226">
        <ele>87.8</ele>
      </trkpt>
      <trkpt lat="47.77432" lon="-1.8323">
        <ele>87.9</ele>
      </trkpt>
      <trkpt lat="47.77433" lon="-1.83235">
        <ele>88.2</ele>
      </trkpt>
      <trkpt lat="47.77434" lon="-1.83242">
        <ele>88.4</ele>
      </trkpt>
      <trkpt lat="47.77435" lon="-1.83249">
        <ele>88.7</ele>
      </trkpt>
      <trkpt lat="47.77435" lon="-1.83253">
        <ele>88.6</ele>
      </trkpt>
      <trkpt lat="47.77433" lon="-1.83258">
        <ele>88.2</ele>
      </trkpt>
      <trkpt lat="47.7743" lon="-1.83263">
        <ele>87.8</ele>
      </trkpt>
      <trkpt lat="47.77428" lon="-1.83269">
        <ele>87.5</ele>
      </trkpt>
      <trkpt lat="47.77427" lon="-1.83274">
        <ele>87.1</ele>
      </trkpt>
      <trkpt lat="47.77423" lon="-1.83281">
        <ele>86.6</ele>
      </trkpt>
      <trkpt lat="47.77421" lon="-1.83287">
        <ele>86.3</ele>
      </trkpt>
      <trkpt lat="47.77421" lon="-1.83292">
        <ele>85.9</ele>
      </trkpt>
      <trkpt lat="47.7742" lon="-1.83298">
        <ele>85.5</ele>
      </trkpt>
      <trkpt lat="47.77418" lon="-1.83305">
        <ele>85</ele>
      </trkpt>
      <trkpt lat="47.77418" lon="-1.83311">
        <ele>84.6</ele>
      </trkpt>
      <trkpt lat="47.77418" lon="-1.83317">
        <ele>84.1</ele>
      </trkpt>
      <trkpt lat="47.77417" lon="-1.83322">
        <ele>83.8</ele>
      </trkpt>
      <trkpt lat="47.77414" lon="-1.83326">
        <ele>83.2</ele>
      </trkpt>
      <trkpt lat="47.77411" lon="-1.83329">
        <ele>82.4</ele>
      </trkpt>
      <trkpt lat="47.77408" lon="-1.83332">
        <ele>81.7</ele>
      </trkpt>
      <trkpt lat="47.77406" lon="-1.83337">
        <ele>80.9</ele>
      </trkpt>
      <trkpt lat="47.77404" lon="-1.83342">
        <ele>80.1</ele>
      </trkpt>
      <trkpt lat="47.77405" lon="-1.83347">
        <ele>79.6</ele>
      </trkpt>
      <trkpt lat="47.77405" lon="-1.83353">
        <ele>79.1</ele>
      </trkpt>
      <trkpt lat="47.77403" lon="-1.83358">
        <ele>78.4</ele>
      </trkpt>
      <trkpt lat="47.77402" lon="-1.83365">
        <ele>77.5</ele>
      </trkpt>
      <trkpt lat="47.77402" lon="-1.83372">
        <ele>76.7</ele>
      </trkpt>
      <trkpt lat="47.77401" lon="-1.83379">
        <ele>75.8</ele>
      </trkpt>
      <trkpt lat="47.77399" lon="-1.83386">
        <ele>74.9</ele>
      </trkpt>
      <trkpt lat="47.77399" lon="-1.83394">
        <ele>74.1</ele>
      </trkpt>
      <trkpt lat="47.77398" lon="-1.83401">
        <ele>73.1</ele>
      </trkpt>
      <trkpt lat="47.77395" lon="-1.83407">
        <ele>72.2</ele>
      </trkpt>
      <trkpt lat="47.77392" lon="-1.83412">
        <ele>71.2</ele>
      </trkpt>
      <trkpt lat="47.77388" lon="-1.83418">
        <ele>70.1</ele>
      </trkpt>
      <trkpt lat="47.77383" lon="-1.83422">
        <ele>69</ele>
      </trkpt>
      <trkpt lat="47.77378" lon="-1.83425">
        <ele>68.1</ele>
      </trkpt>
      <trkpt lat="47.77375" lon="-1.83427">
        <ele>67.4</ele>
      </trkpt>
      <trkpt lat="47.77372" lon="-1.8343">
        <ele>66.6</ele>
      </trkpt>
      <trkpt lat="47.7737" lon="-1.83435">
        <ele>65.9</ele>
      </trkpt>
      <trkpt lat="47.77368" lon="-1.8344">
        <ele>65.3</ele>
      </trkpt>
      <trkpt lat="47.77368" lon="-1.83446">
        <ele>64.5</ele>
      </trkpt>
      <trkpt lat="47.77366" lon="-1.83452">
        <ele>63.7</ele>
      </trkpt>
      <trkpt lat="47.77363" lon="-1.83455">
        <ele>63</ele>
      </trkpt>
      <trkpt lat="47.77361" lon="-1.83457">
        <ele>62.5</ele>
      </trkpt>
      <trkpt lat="47.77357" lon="-1.83462">
        <ele>61.7</ele>
      </trkpt>
      <trkpt lat="47.77355" lon="-1.83468">
        <ele>60.9</ele>
      </trkpt>
      <trkpt lat="47.77354" lon="-1.83474">
        <ele>60.2</ele>
      </trkpt>
      <trkpt lat="47.77352" lon="-1.8348">
        <ele>59.5</ele>
      </trkpt>
      <trkpt lat="47.7735" lon="-1.83484">
        <ele>58.9</ele>
      </trkpt>
      <trkpt lat="47.77349" lon="-1.83488">
        <ele>58.5</ele>
      </trkpt>
      <trkpt lat="47.77349" lon="-1.83493">
        <ele>58</ele>
      </trkpt>
      <trkpt lat="47.7735" lon="-1.83498">
        <ele>57.6</ele>
      </trkpt>
      <trkpt lat="47.77352" lon="-1.83503">
        <ele>57.3</ele>
      </trkpt>
      <trkpt lat="47.77352" lon="-1.83509">
        <ele>56.9</ele>
      </trkpt>
      <trkpt lat="47.77351" lon="-1.83515">
        <ele>56.5</ele>
      </trkpt>
      <trkpt lat="47.77349" lon="-1.83519">
        <ele>55.9</ele>
      </trkpt>
      <trkpt lat="47.77348" lon="-1.83525">
        <ele>55.5</ele>
      </trkpt>
      <trkpt lat="47.77345" lon="-1.8353">
        <ele>55</ele>
      </trkpt>
      <trkpt lat="47.77343" lon="-1.83533">
        <ele>54.6</ele>
      </trkpt>
      <trkpt lat="47.77341" lon="-1.83534">
        <ele>54.4</ele>
      </trkpt>
      <trkpt lat="47.77339" lon="-1.83536">
        <ele>54.2</ele>
      </trkpt>
      <trkpt lat="47.77336" lon="-1.8354">
        <ele>53.7</ele>
      </trkpt>
      <trkpt lat="47.77333" lon="-1.83544">
        <ele>53.4</ele>
      </trkpt>
      <trkpt lat="47.77331" lon="-1.83547">
        <ele>53.2</ele>
      </trkpt>
      <trkpt lat="47.77329" lon="-1.83548">
        <ele>53.1</ele>
      </trkpt>
      <trkpt lat="47.77325" lon="-1.83549">
        <ele>53.1</ele>
      </trkpt>
      <trkpt lat="47.77323" lon="-1.83549">
        <ele>53.1</ele>
      </trkpt>
      <trkpt lat="47.7732" lon="-1.83549">
        <ele>53.1</ele>
      </trkpt>
      <trkpt lat="47.77317" lon="-1.8355">
        <ele>53</ele>
      </trkpt>
      <trkpt lat="47.77314" lon="-1.83552">
        <ele>53</ele>
      </trkpt>
      <trkpt lat="47.77312" lon="-1.83552">
        <ele>52.9</ele>
      </trkpt>
      <trkpt lat="47.77309" lon="-1.83554">
        <ele>52.9</ele>
      </trkpt>
      <trkpt lat="47.77305" lon="-1.83555">
        <ele>52.8</ele>
      </trkpt>
      <trkpt lat="47.77303" lon="-1.83556">
        <ele>52.8</ele>
      </trkpt>
      <trkpt lat="47.77299" lon="-1.83556">
        <ele>52.8</ele>
      </trkpt>
      <trkpt lat="47.77296" lon="-1.83557">
        <ele>52.7</ele>
      </trkpt>
      <trkpt lat="47.77293" lon="-1.83558">
        <ele>52.7</ele>
      </trkpt>
      <trkpt lat="47.77289" lon="-1.83558">
        <ele>52.7</ele>
      </trkpt>
      <trkpt lat="47.77285" lon="-1.83559">
        <ele>52.7</ele>
      </trkpt>
      <trkpt lat="47.77281" lon="-1.83561">
        <ele>52.7</ele>
      </trkpt>
      <trkpt lat="47.77278" lon="-1.83561">
        <ele>52.6</ele>
      </trkpt>
      <trkpt lat="47.77275" lon="-1.83563">
        <ele>52.6</ele>
      </trkpt>
      <trkpt lat="47.77271" lon="-1.83564">
        <ele>52.6</ele>
      </trkpt>
      <trkpt lat="47.77267" lon="-1.83565">
        <ele>52.5</ele>
      </trkpt>
      <trkpt lat="47.77265" lon="-1.83566">
        <ele>52.5</ele>
      </trkpt>
      <trkpt lat="47.77261" lon="-1.83567">
        <ele>52.5</ele>
      </trkpt>
      <trkpt lat="47.77257" lon="-1.83569">
        <ele>52.5</ele>
      </trkpt>
      <trkpt lat="47.77254" lon="-1.8357">
        <ele>52.4</ele>
      </trkpt>
      <trkpt lat="47.7725" lon="-1.83571">
        <ele>52.4</ele>
      </trkpt>
      <trkpt lat="47.77245" lon="-1.83573">
        <ele>52.5</ele>
      </trkpt>
      <trkpt lat="47.77241" lon="-1.83572">
        <ele>52.6</ele>
      </trkpt>
      <trkpt lat="47.77237" lon="-1.83572">
        <ele>52.7</ele>
      </trkpt>
      <trkpt lat="47.77234" lon="-1.83571">
        <ele>52.8</ele>
      </trkpt>
      <trkpt lat="47.77232" lon="-1.83569">
        <ele>52.9</ele>
      </trkpt>
      <trkpt lat="47.77221" lon="-1.83562">
        <ele>53.4</ele>
      </trkpt>
      <trkpt lat="47.7722" lon="-1.83563">
        <ele>53.4</ele>
      </trkpt>
      <trkpt lat="47.77217" lon="-1.83562">
        <ele>53.5</ele>
      </trkpt>
      <trkpt lat="47.77215" lon="-1.8356">
        <ele>53.5</ele>
      </trkpt>
      <trkpt lat="47.77213" lon="-1.83558">
        <ele>53.7</ele>
      </trkpt>
      <trkpt lat="47.7721" lon="-1.83556">
        <ele>53.8</ele>
      </trkpt>
      <trkpt lat="47.77208" lon="-1.83555">
        <ele>53.9</ele>
      </trkpt>
      <trkpt lat="47.77206" lon="-1.83552">
        <ele>54</ele>
      </trkpt>
      <trkpt lat="47.77203" lon="-1.8355">
        <ele>54.1</ele>
      </trkpt>
      <trkpt lat="47.77201" lon="-1.83547">
        <ele>54.2</ele>
      </trkpt>
      <trkpt lat="47.77198" lon="-1.83544">
        <ele>54.4</ele>
      </trkpt>
      <trkpt lat="47.77196" lon="-1.83541">
        <ele>54.5</ele>
      </trkpt>
      <trkpt lat="47.77193" lon="-1.83536">
        <ele>54.7</ele>
      </trkpt>
      <trkpt lat="47.77189" lon="-1.83532">
        <ele>54.9</ele>
      </trkpt>
      <trkpt lat="47.77187" lon="-1.83528">
        <ele>55</ele>
      </trkpt>
      <trkpt lat="47.77185" lon="-1.83523">
        <ele>55.2</ele>
      </trkpt>
      <trkpt lat="47.77182" lon="-1.83519">
        <ele>55.3</ele>
      </trkpt>
      <trkpt lat="47.7718" lon="-1.83516">
        <ele>55.4</ele>
      </trkpt>
      <trkpt lat="47.77177" lon="-1.83512">
        <ele>55.6</ele>
      </trkpt>
      <trkpt lat="47.77175" lon="-1.83509">
        <ele>55.7</ele>
      </trkpt>
      <trkpt lat="47.77172" lon="-1.83505">
        <ele>55.8</ele>
      </trkpt>
      <trkpt lat="47.7717" lon="-1.83502">
        <ele>55.9</ele>
      </trkpt>
      <trkpt lat="47.77168" lon="-1.83499">
        <ele>56</ele>
      </trkpt>
      <trkpt lat="47.77167" lon="-1.83497">
        <ele>56.1</ele>
      </trkpt>
      <trkpt lat="47.77164" lon="-1.83493">
        <ele>55.9</ele>
      </trkpt>
      <trkpt lat="47.7716" lon="-1.8349">
        <ele>55.7</ele>
      </trkpt>
      <trkpt lat="47.77156" lon="-1.83485">
        <ele>55.4</ele>
      </trkpt>
      <trkpt lat="47.77153" lon="-1.83479">
        <ele>55.3</ele>
      </trkpt>
      <trkpt lat="47.7715" lon="-1.83475">
        <ele>55.2</ele>
      </trkpt>
      <trkpt lat="47.77147" lon="-1.8347">
        <ele>55.1</ele>
      </trkpt>
      <trkpt lat="47.77143" lon="-1.83464">
        <ele>55</ele>
      </trkpt>
      <trkpt lat="47.77141" lon="-1.83458">
        <ele>55</ele>
      </trkpt>
      <trkpt lat="47.77139" lon="-1.83453">
        <ele>55.1</ele>
      </trkpt>
      <trkpt lat="47.77137" lon="-1.83448">
        <ele>55.1</ele>
      </trkpt>
      <trkpt lat="47.77134" lon="-1.83443">
        <ele>55</ele>
      </trkpt>
      <trkpt lat="47.77132" lon="-1.83436">
        <ele>55.2</ele>
      </trkpt>
      <trkpt lat="47.77129" lon="-1.83432">
        <ele>55.1</ele>
      </trkpt>
      <trkpt lat="47.77125" lon="-1.83427">
        <ele>55.1</ele>
      </trkpt>
      <trkpt lat="47.77121" lon="-1.83422">
        <ele>55</ele>
      </trkpt>
      <trkpt lat="47.77117" lon="-1.83417">
        <ele>55</ele>
      </trkpt>
      <trkpt lat="47.77113" lon="-1.83411">
        <ele>55.1</ele>
      </trkpt>
      <trkpt lat="47.77111" lon="-1.83406">
        <ele>55.2</ele>
      </trkpt>
      <trkpt lat="47.77108" lon="-1.83403">
        <ele>55.2</ele>
      </trkpt>
      <trkpt lat="47.77105" lon="-1.834">
        <ele>55.2</ele>
      </trkpt>
      <trkpt lat="47.77102" lon="-1.83394">
        <ele>55.2</ele>
      </trkpt>
      <trkpt lat="47.77099" lon="-1.83389">
        <ele>55.4</ele>
      </trkpt>
      <trkpt lat="47.77096" lon="-1.83384">
        <ele>55.4</ele>
      </trkpt>
      <trkpt lat="47.77093" lon="-1.83379">
        <ele>55.4</ele>
      </trkpt>
      <trkpt lat="47.77089" lon="-1.83375">
        <ele>55.4</ele>
      </trkpt>
      <trkpt lat="47.77086" lon="-1.8337">
        <ele>55.4</ele>
      </trkpt>
      <trkpt lat="47.77082" lon="-1.83365">
        <ele>55.3</ele>
      </trkpt>
      <trkpt lat="47.77079" lon="-1.83359">
        <ele>55.1</ele>
      </trkpt>
      <trkpt lat="47.77075" lon="-1.83354">
        <ele>54.8</ele>
      </trkpt>
      <trkpt lat="47.77072" lon="-1.83349">
        <ele>54.5</ele>
      </trkpt>
      <trkpt lat="47.77068" lon="-1.83344">
        <ele>54.1</ele>
      </trkpt>
      <trkpt lat="47.77066" lon="-1.83338">
        <ele>54.1</ele>
      </trkpt>
      <trkpt lat="47.77063" lon="-1.83332">
        <ele>53.9</ele>
      </trkpt>
      <trkpt lat="47.77061" lon="-1.83326">
        <ele>53.7</ele>
      </trkpt>
      <trkpt lat="47.77057" lon="-1.8332">
        <ele>53.3</ele>
      </trkpt>
      <trkpt lat="47.77053" lon="-1.83314">
        <ele>52.8</ele>
      </trkpt>
      <trkpt lat="47.77051" lon="-1.83308">
        <ele>52.6</ele>
      </trkpt>
      <trkpt lat="47.77047" lon="-1.83301">
        <ele>52.3</ele>
      </trkpt>
      <trkpt lat="47.77045" lon="-1.83295">
        <ele>52.2</ele>
      </trkpt>
      <trkpt lat="47.77044" lon="-1.83286">
        <ele>52.2</ele>
      </trkpt>
      <trkpt lat="47.77041" lon="-1.83281">
        <ele>51.9</ele>
      </trkpt>
      <trkpt lat="47.77037" lon="-1.83274">
        <ele>51.6</ele>
      </trkpt>
      <trkpt lat="47.77034" lon="-1.83266">
        <ele>51.5</ele>
      </trkpt>
      <trkpt lat="47.77031" lon="-1.8326">
        <ele>51.2</ele>
      </trkpt>
      <trkpt lat="47.77029" lon="-1.83253">
        <ele>51.1</ele>
      </trkpt>
      <trkpt lat="47.77028" lon="-1.83247">
        <ele>51.2</ele>
      </trkpt>
      <trkpt lat="47.77028" lon="-1.83239">
        <ele>51.8</ele>
      </trkpt>
      <trkpt lat="47.77027" lon="-1.83232">
        <ele>52.2</ele>
      </trkpt>
      <trkpt lat="47.77026" lon="-1.83224">
        <ele>52.5</ele>
      </trkpt>
      <trkpt lat="47.77026" lon="-1.83216">
        <ele>53</ele>
      </trkpt>
      <trkpt lat="47.77026" lon="-1.83209">
        <ele>53.5</ele>
      </trkpt>
      <trkpt lat="47.77028" lon="-1.83201">
        <ele>54.3</ele>
      </trkpt>
      <trkpt lat="47.77031" lon="-1.83191">
        <ele>55.4</ele>
      </trkpt>
      <trkpt lat="47.77035" lon="-1.83183">
        <ele>56.3</ele>
      </trkpt>
      <trkpt lat="47.77037" lon="-1.83174">
        <ele>57.1</ele>
      </trkpt>
      <trkpt lat="47.77039" lon="-1.83166">
        <ele>57.8</ele>
      </trkpt>
      <trkpt lat="47.77041" lon="-1.83156">
        <ele>58.4</ele>
      </trkpt>
      <trkpt lat="47.77042" lon="-1.83147">
        <ele>58.8</ele>
      </trkpt>
      <trkpt lat="47.77042" lon="-1.83138">
        <ele>59.2</ele>
      </trkpt>
      <trkpt lat="47.77039" lon="-1.83129">
        <ele>59.5</ele>
      </trkpt>
      <trkpt lat="47.77037" lon="-1.83122">
        <ele>59.7</ele>
      </trkpt>
      <trkpt lat="47.77035" lon="-1.83117">
        <ele>59.9</ele>
      </trkpt>
      <trkpt lat="47.77033" lon="-1.83114">
        <ele>60</ele>
      </trkpt>
      <trkpt lat="47.7703" lon="-1.83112">
        <ele>60</ele>
      </trkpt>
      <trkpt lat="47.77027" lon="-1.83112">
        <ele>59.9</ele>
      </trkpt>
      <trkpt lat="47.77025" lon="-1.83113">
        <ele>59.8</ele>
      </trkpt>
      <trkpt lat="47.77022" lon="-1.83114">
        <ele>59.7</ele>
      </trkpt>
      <trkpt lat="47.77018" lon="-1.83116">
        <ele>59.4</ele>
      </trkpt>
      <trkpt lat="47.77017" lon="-1.83117">
        <ele>59.3</ele>
      </trkpt>
      <trkpt lat="47.77015" lon="-1.83119">
        <ele>59.1</ele>
      </trkpt>
      <trkpt lat="47.77013" lon="-1.83121">
        <ele>58.9</ele>
      </trkpt>
      <trkpt lat="47.77011" lon="-1.83122">
        <ele>58.7</ele>
      </trkpt>
      <trkpt lat="47.77009" lon="-1.83123">
        <ele>58.5</ele>
      </trkpt>
      <trkpt lat="47.77007" lon="-1.83125">
        <ele>58.3</ele>
      </trkpt>
      <trkpt lat="47.77005" lon="-1.83126">
        <ele>58.1</ele>
      </trkpt>
      <trkpt lat="47.77002" lon="-1.83128">
        <ele>57.8</ele>
      </trkpt>
      <trkpt lat="47.76999" lon="-1.83129">
        <ele>57.7</ele>
      </trkpt>
      <trkpt lat="47.76996" lon="-1.8313">
        <ele>57.8</ele>
      </trkpt>
      <trkpt lat="47.76994" lon="-1.83131">
        <ele>57.9</ele>
      </trkpt>
      <trkpt lat="47.76992" lon="-1.83132">
        <ele>58.1</ele>
      </trkpt>
      <trkpt lat="47.7699" lon="-1.83133">
        <ele>58.2</ele>
      </trkpt>
      <trkpt lat="47.76988" lon="-1.83134">
        <ele>58.3</ele>
      </trkpt>
      <trkpt lat="47.76986" lon="-1.83134">
        <ele>58.5</ele>
      </trkpt>
      <trkpt lat="47.76984" lon="-1.83135">
        <ele>58.7</ele>
      </trkpt>
      <trkpt lat="47.76981" lon="-1.83135">
        <ele>59</ele>
      </trkpt>
      <trkpt lat="47.76978" lon="-1.83135">
        <ele>59.2</ele>
      </trkpt>
      <trkpt lat="47.76976" lon="-1.83135">
        <ele>59.5</ele>
      </trkpt>
      <trkpt lat="47.76974" lon="-1.83133">
        <ele>59.8</ele>
      </trkpt>
      <trkpt lat="47.76972" lon="-1.83131">
        <ele>60.1</ele>
      </trkpt>
      <trkpt lat="47.76972" lon="-1.83129">
        <ele>60.4</ele>
      </trkpt>
      <trkpt lat="47.76971" lon="-1.83127">
        <ele>60.6</ele>
      </trkpt>
      <trkpt lat="47.76972" lon="-1.83124">
        <ele>60.8</ele>
      </trkpt>
      <trkpt lat="47.76973" lon="-1.83122">
        <ele>60.9</ele>
      </trkpt>
      <trkpt lat="47.76973" lon="-1.83119">
        <ele>61.1</ele>
      </trkpt>
      <trkpt lat="47.76974" lon="-1.83116">
        <ele>61.3</ele>
      </trkpt>
      <trkpt lat="47.76976" lon="-1.83113">
        <ele>61.4</ele>
      </trkpt>
      <trkpt lat="47.76977" lon="-1.8311">
        <ele>61.5</ele>
      </trkpt>
      <trkpt lat="47.76978" lon="-1.83107">
        <ele>61.7</ele>
      </trkpt>
      <trkpt lat="47.76979" lon="-1.83103">
        <ele>62</ele>
      </trkpt>
      <trkpt lat="47.76979" lon="-1.831">
        <ele>62.2</ele>
      </trkpt>
      <trkpt lat="47.7698" lon="-1.83097">
        <ele>62.4</ele>
      </trkpt>
      <trkpt lat="47.76981" lon="-1.83094">
        <ele>62.7</ele>
      </trkpt>
      <trkpt lat="47.76982" lon="-1.83091">
        <ele>62.9</ele>
      </trkpt>
      <trkpt lat="47.76982" lon="-1.83088">
        <ele>63.1</ele>
      </trkpt>
      <trkpt lat="47.76982" lon="-1.83084">
        <ele>63.4</ele>
      </trkpt>
      <trkpt lat="47.76982" lon="-1.8308">
        <ele>63.7</ele>
      </trkpt>
      <trkpt lat="47.76982" lon="-1.83078">
        <ele>63.9</ele>
      </trkpt>
      <trkpt lat="47.76983" lon="-1.83074">
        <ele>64</ele>
      </trkpt>
      <trkpt lat="47.76983" lon="-1.8307">
        <ele>64.3</ele>
      </trkpt>
      <trkpt lat="47.76983" lon="-1.83066">
        <ele>64.5</ele>
      </trkpt>
      <trkpt lat="47.76984" lon="-1.83063">
        <ele>64.7</ele>
      </trkpt>
      <trkpt lat="47.76984" lon="-1.8306">
        <ele>64.9</ele>
      </trkpt>
      <trkpt lat="47.76984" lon="-1.83056">
        <ele>65.1</ele>
      </trkpt>
      <trkpt lat="47.76984" lon="-1.83053">
        <ele>65.3</ele>
      </trkpt>
      <trkpt lat="47.76985" lon="-1.83049">
        <ele>65.5</ele>
      </trkpt>
      <trkpt lat="47.76986" lon="-1.83046">
        <ele>65.7</ele>
      </trkpt>
      <trkpt lat="47.76986" lon="-1.83043">
        <ele>65.9</ele>
      </trkpt>
      <trkpt lat="47.76985" lon="-1.83039">
        <ele>66.1</ele>
      </trkpt>
      <trkpt lat="47.76986" lon="-1.83036">
        <ele>66.3</ele>
      </trkpt>
      <trkpt lat="47.76986" lon="-1.83033">
        <ele>66.5</ele>
      </trkpt>
      <trkpt lat="47.76987" lon="-1.83029">
        <ele>66.7</ele>
      </trkpt>
      <trkpt lat="47.76988" lon="-1.83025">
        <ele>66.9</ele>
      </trkpt>
      <trkpt lat="47.76988" lon="-1.83022">
        <ele>67.1</ele>
      </trkpt>
      <trkpt lat="47.76989" lon="-1.83018">
        <ele>67.3</ele>
      </trkpt>
      <trkpt lat="47.76989" lon="-1.83014">
        <ele>67.6</ele>
      </trkpt>
      <trkpt lat="47.76989" lon="-1.8301">
        <ele>67.9</ele>
      </trkpt>
      <trkpt lat="47.7699" lon="-1.83007">
        <ele>68.1</ele>
      </trkpt>
      <trkpt lat="47.76991" lon="-1.83003">
        <ele>68.2</ele>
      </trkpt>
      <trkpt lat="47.76991" lon="-1.83">
        <ele>68.4</ele>
      </trkpt>
      <trkpt lat="47.76991" lon="-1.82996">
        <ele>68.7</ele>
      </trkpt>
      <trkpt lat="47.76991" lon="-1.82992">
        <ele>68.9</ele>
      </trkpt>
      <trkpt lat="47.76991" lon="-1.82986">
        <ele>69.1</ele>
      </trkpt>
      <trkpt lat="47.76991" lon="-1.82982">
        <ele>69.4</ele>
      </trkpt>
      <trkpt lat="47.76991" lon="-1.82978">
        <ele>69.6</ele>
      </trkpt>
      <trkpt lat="47.76991" lon="-1.82975">
        <ele>69.7</ele>
      </trkpt>
      <trkpt lat="47.76991" lon="-1.82971">
        <ele>69.9</ele>
      </trkpt>
      <trkpt lat="47.76992" lon="-1.82968">
        <ele>70.1</ele>
      </trkpt>
      <trkpt lat="47.76992" lon="-1.82964">
        <ele>70.3</ele>
      </trkpt>
      <trkpt lat="47.76994" lon="-1.8296">
        <ele>70.5</ele>
      </trkpt>
      <trkpt lat="47.76995" lon="-1.82957">
        <ele>70.6</ele>
      </trkpt>
      <trkpt lat="47.76995" lon="-1.82954">
        <ele>70.8</ele>
      </trkpt>
      <trkpt lat="47.76995" lon="-1.8295">
        <ele>71</ele>
      </trkpt>
      <trkpt lat="47.76995" lon="-1.82948">
        <ele>71.2</ele>
      </trkpt>
      <trkpt lat="47.76994" lon="-1.82945">
        <ele>71.3</ele>
      </trkpt>
      <trkpt lat="47.76994" lon="-1.82941">
        <ele>71.5</ele>
      </trkpt>
      <trkpt lat="47.76994" lon="-1.82939">
        <ele>71.7</ele>
      </trkpt>
      <trkpt lat="47.76994" lon="-1.82936">
        <ele>71.8</ele>
      </trkpt>
      <trkpt lat="47.76994" lon="-1.82933">
        <ele>72</ele>
      </trkpt>
      <trkpt lat="47.76995" lon="-1.82929">
        <ele>72.2</ele>
      </trkpt>
      <trkpt lat="47.76996" lon="-1.82924">
        <ele>72.5</ele>
      </trkpt>
      <trkpt lat="47.77" lon="-1.82919">
        <ele>72.9</ele>
      </trkpt>
      <trkpt lat="47.77003" lon="-1.82913">
        <ele>73.2</ele>
      </trkpt>
      <trkpt lat="47.77004" lon="-1.8291">
        <ele>73.5</ele>
      </trkpt>
      <trkpt lat="47.77003" lon="-1.82907">
        <ele>73.8</ele>
      </trkpt>
      <trkpt lat="47.77003" lon="-1.82903">
        <ele>74.1</ele>
      </trkpt>
      <trkpt lat="47.77005" lon="-1.82898">
        <ele>74.5</ele>
      </trkpt>
      <trkpt lat="47.77006" lon="-1.82895">
        <ele>74.8</ele>
      </trkpt>
      <trkpt lat="47.77006" lon="-1.82892">
        <ele>75</ele>
      </trkpt>
      <trkpt lat="47.77007" lon="-1.82889">
        <ele>75.2</ele>
      </trkpt>
      <trkpt lat="47.77008" lon="-1.82886">
        <ele>75.5</ele>
      </trkpt>
      <trkpt lat="47.77009" lon="-1.82883">
        <ele>75.7</ele>
      </trkpt>
      <trkpt lat="47.7701" lon="-1.8288">
        <ele>76</ele>
      </trkpt>
      <trkpt lat="47.77011" lon="-1.82877">
        <ele>76.2</ele>
      </trkpt>
      <trkpt lat="47.77011" lon="-1.82873">
        <ele>76.6</ele>
      </trkpt>
      <trkpt lat="47.77012" lon="-1.82869">
        <ele>76.9</ele>
      </trkpt>
      <trkpt lat="47.77013" lon="-1.82865">
        <ele>77.2</ele>
      </trkpt>
      <trkpt lat="47.77014" lon="-1.82862">
        <ele>77.5</ele>
      </trkpt>
      <trkpt lat="47.77014" lon="-1.82858">
        <ele>77.7</ele>
      </trkpt>
      <trkpt lat="47.77014" lon="-1.82855">
        <ele>78</ele>
      </trkpt>
      <trkpt lat="47.77015" lon="-1.82851">
        <ele>78.3</ele>
      </trkpt>
      <trkpt lat="47.77016" lon="-1.82847">
        <ele>78.6</ele>
      </trkpt>
      <trkpt lat="47.77017" lon="-1.82844">
        <ele>78.9</ele>
      </trkpt>
      <trkpt lat="47.77016" lon="-1.8284">
        <ele>79.2</ele>
      </trkpt>
      <trkpt lat="47.77017" lon="-1.82836">
        <ele>79.6</ele>
      </trkpt>
      <trkpt lat="47.77018" lon="-1.82832">
        <ele>79.9</ele>
      </trkpt>
      <trkpt lat="47.77018" lon="-1.82828">
        <ele>80</ele>
      </trkpt>
      <trkpt lat="47.77019" lon="-1.82824">
        <ele>80.2</ele>
      </trkpt>
      <trkpt lat="47.77018" lon="-1.8282">
        <ele>80.4</ele>
      </trkpt>
      <trkpt lat="47.77019" lon="-1.82816">
        <ele>80.6</ele>
      </trkpt>
      <trkpt lat="47.77018" lon="-1.82811">
        <ele>80.8</ele>
      </trkpt>
      <trkpt lat="47.77019" lon="-1.82807">
        <ele>81</ele>
      </trkpt>
      <trkpt lat="47.77019" lon="-1.82802">
        <ele>81.3</ele>
      </trkpt>
      <trkpt lat="47.77019" lon="-1.82799">
        <ele>81.4</ele>
      </trkpt>
      <trkpt lat="47.77019" lon="-1.82794">
        <ele>81.6</ele>
      </trkpt>
      <trkpt lat="47.7702" lon="-1.8279">
        <ele>81.9</ele>
      </trkpt>
      <trkpt lat="47.77023" lon="-1.82781">
        <ele>82.2</ele>
      </trkpt>
      <trkpt lat="47.77022" lon="-1.82777">
        <ele>82.4</ele>
      </trkpt>
      <trkpt lat="47.77022" lon="-1.82773">
        <ele>82.6</ele>
      </trkpt>
      <trkpt lat="47.77022" lon="-1.82769">
        <ele>82.8</ele>
      </trkpt>
      <trkpt lat="47.77022" lon="-1.82765">
        <ele>83</ele>
      </trkpt>
      <trkpt lat="47.77022" lon="-1.82761">
        <ele>83.2</ele>
      </trkpt>
      <trkpt lat="47.77022" lon="-1.82755">
        <ele>83.5</ele>
      </trkpt>
      <trkpt lat="47.77022" lon="-1.8275">
        <ele>83.7</ele>
      </trkpt>
      <trkpt lat="47.77021" lon="-1.82745">
        <ele>83.7</ele>
      </trkpt>
      <trkpt lat="47.7702" lon="-1.82741">
        <ele>83.6</ele>
      </trkpt>
      <trkpt lat="47.77021" lon="-1.82736">
        <ele>83.6</ele>
      </trkpt>
      <trkpt lat="47.77022" lon="-1.8273">
        <ele>83.5</ele>
      </trkpt>
      <trkpt lat="47.77021" lon="-1.82725">
        <ele>83.4</ele>
      </trkpt>
      <trkpt lat="47.77021" lon="-1.8272">
        <ele>83.4</ele>
      </trkpt>
      <trkpt lat="47.77021" lon="-1.82715">
        <ele>83.3</ele>
      </trkpt>
      <trkpt lat="47.77021" lon="-1.82709">
        <ele>83.3</ele>
      </trkpt>
      <trkpt lat="47.7702" lon="-1.82703">
        <ele>83.2</ele>
      </trkpt>
      <trkpt lat="47.77019" lon="-1.82698">
        <ele>83.1</ele>
      </trkpt>
      <trkpt lat="47.77018" lon="-1.82692">
        <ele>83.1</ele>
      </trkpt>
      <trkpt lat="47.77017" lon="-1.82688">
        <ele>83</ele>
      </trkpt>
      <trkpt lat="47.77016" lon="-1.82683">
        <ele>83</ele>
      </trkpt>
      <trkpt lat="47.77014" lon="-1.82678">
        <ele>83</ele>
      </trkpt>
      <trkpt lat="47.77012" lon="-1.82674">
        <ele>82.9</ele>
      </trkpt>
      <trkpt lat="47.77011" lon="-1.82669">
        <ele>82.9</ele>
      </trkpt>
      <trkpt lat="47.7701" lon="-1.82665">
        <ele>82.8</ele>
      </trkpt>
      <trkpt lat="47.7701" lon="-1.8266">
        <ele>82.6</ele>
      </trkpt>
      <trkpt lat="47.77009" lon="-1.82657">
        <ele>82.5</ele>
      </trkpt>
      <trkpt lat="47.77009" lon="-1.82652">
        <ele>82.3</ele>
      </trkpt>
      <trkpt lat="47.77009" lon="-1.82646">
        <ele>82.1</ele>
      </trkpt>
      <trkpt lat="47.77008" lon="-1.82641">
        <ele>81.9</ele>
      </trkpt>
      <trkpt lat="47.77008" lon="-1.82636">
        <ele>81.7</ele>
      </trkpt>
      <trkpt lat="47.77007" lon="-1.82631">
        <ele>81.5</ele>
      </trkpt>
      <trkpt lat="47.77007" lon="-1.82626">
        <ele>81.3</ele>
      </trkpt>
      <trkpt lat="47.77008" lon="-1.8262">
        <ele>81.1</ele>
      </trkpt>
      <trkpt lat="47.77008" lon="-1.82616">
        <ele>80.9</ele>
      </trkpt>
      <trkpt lat="47.77008" lon="-1.8261">
        <ele>80.7</ele>
      </trkpt>
      <trkpt lat="47.77007" lon="-1.82605">
        <ele>80.5</ele>
      </trkpt>
      <trkpt lat="47.77007" lon="-1.826">
        <ele>80.3</ele>
      </trkpt>
      <trkpt lat="47.77007" lon="-1.82594">
        <ele>80.1</ele>
      </trkpt>
      <trkpt lat="47.77007" lon="-1.82589">
        <ele>79.9</ele>
      </trkpt>
      <trkpt lat="47.77007" lon="-1.82584">
        <ele>79.7</ele>
      </trkpt>
      <trkpt lat="47.77007" lon="-1.82579">
        <ele>79.9</ele>
      </trkpt>
      <trkpt lat="47.77006" lon="-1.82574">
        <ele>80.2</ele>
      </trkpt>
      <trkpt lat="47.77005" lon="-1.82563">
        <ele>80.9</ele>
      </trkpt>
      <trkpt lat="47.77005" lon="-1.8256">
        <ele>81.1</ele>
      </trkpt>
      <trkpt lat="47.77005" lon="-1.82557">
        <ele>81.3</ele>
      </trkpt>
      <trkpt lat="47.77005" lon="-1.8255">
        <ele>81.7</ele>
      </trkpt>
      <trkpt lat="47.77005" lon="-1.82544">
        <ele>82</ele>
      </trkpt>
      <trkpt lat="47.77004" lon="-1.82538">
        <ele>82.4</ele>
      </trkpt>
      <trkpt lat="47.77004" lon="-1.82533">
        <ele>82.7</ele>
      </trkpt>
      <trkpt lat="47.77003" lon="-1.82528">
        <ele>83</ele>
      </trkpt>
      <trkpt lat="47.77003" lon="-1.82521">
        <ele>83.5</ele>
      </trkpt>
      <trkpt lat="47.77004" lon="-1.82515">
        <ele>83.8</ele>
      </trkpt>
      <trkpt lat="47.77004" lon="-1.8251">
        <ele>84.1</ele>
      </trkpt>
      <trkpt lat="47.77004" lon="-1.82504">
        <ele>84.4</ele>
      </trkpt>
      <trkpt lat="47.77004" lon="-1.82498">
        <ele>84.7</ele>
      </trkpt>
      <trkpt lat="47.77004" lon="-1.82492">
        <ele>85</ele>
      </trkpt>
      <trkpt lat="47.77003" lon="-1.82485">
        <ele>85.2</ele>
      </trkpt>
      <trkpt lat="47.77003" lon="-1.82479">
        <ele>85.4</ele>
      </trkpt>
      <trkpt lat="47.77002" lon="-1.82473">
        <ele>85.8</ele>
      </trkpt>
      <trkpt lat="47.77002" lon="-1.82466">
        <ele>86.1</ele>
      </trkpt>
      <trkpt lat="47.77003" lon="-1.82459">
        <ele>86.2</ele>
      </trkpt>
      <trkpt lat="47.77003" lon="-1.82452">
        <ele>86.4</ele>
      </trkpt>
      <trkpt lat="47.77003" lon="-1.82446">
        <ele>86.6</ele>
      </trkpt>
      <trkpt lat="47.77003" lon="-1.8244">
        <ele>86.9</ele>
      </trkpt>
      <trkpt lat="47.77003" lon="-1.82434">
        <ele>87</ele>
      </trkpt>
      <trkpt lat="47.77004" lon="-1.82427">
        <ele>87.2</ele>
      </trkpt>
      <trkpt lat="47.77004" lon="-1.82421">
        <ele>87.5</ele>
      </trkpt>
      <trkpt lat="47.77004" lon="-1.82415">
        <ele>87.5</ele>
      </trkpt>
      <trkpt lat="47.77003" lon="-1.82409">
        <ele>87.3</ele>
      </trkpt>
      <trkpt lat="47.77003" lon="-1.82403">
        <ele>87.1</ele>
      </trkpt>
      <trkpt lat="47.77003" lon="-1.82395">
        <ele>86.6</ele>
      </trkpt>
      <trkpt lat="47.77003" lon="-1.82387">
        <ele>86.3</ele>
      </trkpt>
      <trkpt lat="47.77002" lon="-1.8238">
        <ele>86.1</ele>
      </trkpt>
      <trkpt lat="47.77002" lon="-1.82374">
        <ele>85.7</ele>
      </trkpt>
      <trkpt lat="47.77003" lon="-1.82368">
        <ele>85.4</ele>
      </trkpt>
      <trkpt lat="47.77002" lon="-1.82362">
        <ele>85.1</ele>
      </trkpt>
      <trkpt lat="47.77002" lon="-1.82357">
        <ele>85</ele>
      </trkpt>
      <trkpt lat="47.77001" lon="-1.82352">
        <ele>84.8</ele>
      </trkpt>
      <trkpt lat="47.77001" lon="-1.82347">
        <ele>84.6</ele>
      </trkpt>
      <trkpt lat="47.77004" lon="-1.82338">
        <ele>83.9</ele>
      </trkpt>
      <trkpt lat="47.77006" lon="-1.82331">
        <ele>83.4</ele>
      </trkpt>
      <trkpt lat="47.77007" lon="-1.82324">
        <ele>83.4</ele>
      </trkpt>
      <trkpt lat="47.77008" lon="-1.82318">
        <ele>83.3</ele>
      </trkpt>
      <trkpt lat="47.77007" lon="-1.82312">
        <ele>83.5</ele>
      </trkpt>
      <trkpt lat="47.77007" lon="-1.82301">
        <ele>83.5</ele>
      </trkpt>
      <trkpt lat="47.77008" lon="-1.82298">
        <ele>83.5</ele>
      </trkpt>
      <trkpt lat="47.77008" lon="-1.82294">
        <ele>83.6</ele>
      </trkpt>
      <trkpt lat="47.77008" lon="-1.82288">
        <ele>83.6</ele>
      </trkpt>
      <trkpt lat="47.77008" lon="-1.82282">
        <ele>83.6</ele>
      </trkpt>
      <trkpt lat="47.77009" lon="-1.82276">
        <ele>83.6</ele>
      </trkpt>
      <trkpt lat="47.7701" lon="-1.8227">
        <ele>83.6</ele>
      </trkpt>
      <trkpt lat="47.77011" lon="-1.82264">
        <ele>83.5</ele>
      </trkpt>
      <trkpt lat="47.77012" lon="-1.82258">
        <ele>83.4</ele>
      </trkpt>
      <trkpt lat="47.77013" lon="-1.82252">
        <ele>83.3</ele>
      </trkpt>
      <trkpt lat="47.77013" lon="-1.82246">
        <ele>83.4</ele>
      </trkpt>
      <trkpt lat="47.77014" lon="-1.8224">
        <ele>83.4</ele>
      </trkpt>
      <trkpt lat="47.77016" lon="-1.82233">
        <ele>83.5</ele>
      </trkpt>
      <trkpt lat="47.77017" lon="-1.82228">
        <ele>83.6</ele>
      </trkpt>
      <trkpt lat="47.77018" lon="-1.82222">
        <ele>83.7</ele>
      </trkpt>
      <trkpt lat="47.77019" lon="-1.82216">
        <ele>83.7</ele>
      </trkpt>
      <trkpt lat="47.7702" lon="-1.8221">
        <ele>83.8</ele>
      </trkpt>
      <trkpt lat="47.7702" lon="-1.82204">
        <ele>84.1</ele>
      </trkpt>
      <trkpt lat="47.7702" lon="-1.82197">
        <ele>84.2</ele>
      </trkpt>
      <trkpt lat="47.77022" lon="-1.8219">
        <ele>84.3</ele>
      </trkpt>
      <trkpt lat="47.77022" lon="-1.82184">
        <ele>84.4</ele>
      </trkpt>
      <trkpt lat="47.77023" lon="-1.82178">
        <ele>84.6</ele>
      </trkpt>
      <trkpt lat="47.77024" lon="-1.82171">
        <ele>84.6</ele>
      </trkpt>
      <trkpt lat="47.77026" lon="-1.82165">
        <ele>84.6</ele>
      </trkpt>
      <trkpt lat="47.77027" lon="-1.8216">
        <ele>84.7</ele>
      </trkpt>
      <trkpt lat="47.77028" lon="-1.82155">
        <ele>84.8</ele>
      </trkpt>
      <trkpt lat="47.77029" lon="-1.82149">
        <ele>84.9</ele>
      </trkpt>
      <trkpt lat="47.7703" lon="-1.82144">
        <ele>85.1</ele>
      </trkpt>
      <trkpt lat="47.77031" lon="-1.82138">
        <ele>85.1</ele>
      </trkpt>
      <trkpt lat="47.77032" lon="-1.82131">
        <ele>85.3</ele>
      </trkpt>
      <trkpt lat="47.77032" lon="-1.82125">
        <ele>85.6</ele>
      </trkpt>
      <trkpt lat="47.77032" lon="-1.82119">
        <ele>85.8</ele>
      </trkpt>
      <trkpt lat="47.77034" lon="-1.82113">
        <ele>85.9</ele>
      </trkpt>
      <trkpt lat="47.77035" lon="-1.82108">
        <ele>85.9</ele>
      </trkpt>
      <trkpt lat="47.77037" lon="-1.82101">
        <ele>85.9</ele>
      </trkpt>
      <trkpt lat="47.77039" lon="-1.82095">
        <ele>86</ele>
      </trkpt>
      <trkpt lat="47.7704" lon="-1.82089">
        <ele>86</ele>
      </trkpt>
      <trkpt lat="47.77041" lon="-1.82084">
        <ele>86.1</ele>
      </trkpt>
      <trkpt lat="47.77042" lon="-1.82078">
        <ele>86.2</ele>
      </trkpt>
      <trkpt lat="47.77043" lon="-1.82074">
        <ele>86.3</ele>
      </trkpt>
      <trkpt lat="47.77044" lon="-1.82068">
        <ele>86.4</ele>
      </trkpt>
      <trkpt lat="47.77044" lon="-1.82063">
        <ele>86.5</ele>
      </trkpt>
      <trkpt lat="47.77046" lon="-1.82058">
        <ele>86.5</ele>
      </trkpt>
      <trkpt lat="47.77047" lon="-1.82052">
        <ele>86.6</ele>
      </trkpt>
      <trkpt lat="47.77048" lon="-1.82048">
        <ele>86.6</ele>
      </trkpt>
      <trkpt lat="47.7705" lon="-1.82043">
        <ele>86.5</ele>
      </trkpt>
      <trkpt lat="47.77052" lon="-1.82039">
        <ele>86.5</ele>
      </trkpt>
      <trkpt lat="47.77053" lon="-1.82035">
        <ele>86.5</ele>
      </trkpt>
      <trkpt lat="47.77054" lon="-1.8203">
        <ele>86.6</ele>
      </trkpt>
      <trkpt lat="47.77055" lon="-1.82025">
        <ele>86.7</ele>
      </trkpt>
      <trkpt lat="47.77056" lon="-1.82019">
        <ele>86.8</ele>
      </trkpt>
      <trkpt lat="47.77057" lon="-1.82013">
        <ele>86.9</ele>
      </trkpt>
      <trkpt lat="47.77058" lon="-1.82007">
        <ele>87.1</ele>
      </trkpt>
      <trkpt lat="47.77059" lon="-1.82002">
        <ele>87.1</ele>
      </trkpt>
      <trkpt lat="47.7706" lon="-1.81997">
        <ele>87.2</ele>
      </trkpt>
      <trkpt lat="47.77061" lon="-1.8199">
        <ele>87.3</ele>
      </trkpt>
      <trkpt lat="47.77062" lon="-1.81982">
        <ele>87.4</ele>
      </trkpt>
      <trkpt lat="47.77063" lon="-1.81974">
        <ele>87.5</ele>
      </trkpt>
      <trkpt lat="47.77066" lon="-1.81965">
        <ele>87.5</ele>
      </trkpt>
      <trkpt lat="47.77067" lon="-1.8196">
        <ele>87.5</ele>
      </trkpt>
      <trkpt lat="47.77067" lon="-1.81956">
        <ele>87.7</ele>
      </trkpt>
      <trkpt lat="47.77067" lon="-1.81951">
        <ele>87.8</ele>
      </trkpt>
      <trkpt lat="47.7707" lon="-1.81946">
        <ele>87.6</ele>
      </trkpt>
      <trkpt lat="47.77071" lon="-1.8194">
        <ele>87.7</ele>
      </trkpt>
      <trkpt lat="47.77073" lon="-1.81934">
        <ele>87.6</ele>
      </trkpt>
      <trkpt lat="47.77074" lon="-1.81928">
        <ele>87.7</ele>
      </trkpt>
      <trkpt lat="47.77075" lon="-1.81922">
        <ele>87.9</ele>
      </trkpt>
      <trkpt lat="47.77076" lon="-1.81916">
        <ele>87.9</ele>
      </trkpt>
      <trkpt lat="47.77077" lon="-1.8191">
        <ele>87.9</ele>
      </trkpt>
      <trkpt lat="47.77078" lon="-1.81905">
        <ele>87.9</ele>
      </trkpt>
      <trkpt lat="47.77079" lon="-1.81901">
        <ele>87.9</ele>
      </trkpt>
      <trkpt lat="47.77079" lon="-1.81896">
        <ele>88</ele>
      </trkpt>
      <trkpt lat="47.77079" lon="-1.81891">
        <ele>88.1</ele>
      </trkpt>
      <trkpt lat="47.77078" lon="-1.81886">
        <ele>88.3</ele>
      </trkpt>
      <trkpt lat="47.77077" lon="-1.81882">
        <ele>88.5</ele>
      </trkpt>
      <trkpt lat="47.77076" lon="-1.81878">
        <ele>88.7</ele>
      </trkpt>
      <trkpt lat="47.77075" lon="-1.81873">
        <ele>88.9</ele>
      </trkpt>
      <trkpt lat="47.77074" lon="-1.8187">
        <ele>89.2</ele>
      </trkpt>
      <trkpt lat="47.77072" lon="-1.81866">
        <ele>89.4</ele>
      </trkpt>
      <trkpt lat="47.77071" lon="-1.81862">
        <ele>89.6</ele>
      </trkpt>
      <trkpt lat="47.7707" lon="-1.81857">
        <ele>89.8</ele>
      </trkpt>
      <trkpt lat="47.77067" lon="-1.81853">
        <ele>90.2</ele>
      </trkpt>
      <trkpt lat="47.77065" lon="-1.8185">
        <ele>90.4</ele>
      </trkpt>
      <trkpt lat="47.77064" lon="-1.81848">
        <ele>90.6</ele>
      </trkpt>
      <trkpt lat="47.77063" lon="-1.81846">
        <ele>90.7</ele>
      </trkpt>
      <trkpt lat="47.77062" lon="-1.81844">
        <ele>90.9</ele>
      </trkpt>
      <trkpt lat="47.7706" lon="-1.81842">
        <ele>91</ele>
      </trkpt>
      <trkpt lat="47.77059" lon="-1.8184">
        <ele>91.2</ele>
      </trkpt>
      <trkpt lat="47.77057" lon="-1.81838">
        <ele>91.4</ele>
      </trkpt>
      <trkpt lat="47.77055" lon="-1.81835">
        <ele>91.7</ele>
      </trkpt>
      <trkpt lat="47.77052" lon="-1.81832">
        <ele>92</ele>
      </trkpt>
      <trkpt lat="47.77049" lon="-1.8183">
        <ele>92.3</ele>
      </trkpt>
      <trkpt lat="47.77046" lon="-1.81827">
        <ele>92.6</ele>
      </trkpt>
      <trkpt lat="47.77043" lon="-1.81824">
        <ele>92.9</ele>
      </trkpt>
      <trkpt lat="47.77039" lon="-1.81822">
        <ele>93.3</ele>
      </trkpt>
      <trkpt lat="47.77035" lon="-1.8182">
        <ele>93.6</ele>
      </trkpt>
      <trkpt lat="47.7703" lon="-1.81819">
        <ele>94</ele>
      </trkpt>
      <trkpt lat="47.77026" lon="-1.81817">
        <ele>94.4</ele>
      </trkpt>
      <trkpt lat="47.77022" lon="-1.81815">
        <ele>94.8</ele>
      </trkpt>
      <trkpt lat="47.77018" lon="-1.81814">
        <ele>95.2</ele>
      </trkpt>
      <trkpt lat="47.77013" lon="-1.81811">
        <ele>95.5</ele>
      </trkpt>
      <trkpt lat="47.77009" lon="-1.81809">
        <ele>95.9</ele>
      </trkpt>
      <trkpt lat="47.77004" lon="-1.81806">
        <ele>96.3</ele>
      </trkpt>
      <trkpt lat="47.77" lon="-1.81803">
        <ele>96.6</ele>
      </trkpt>
      <trkpt lat="47.76995" lon="-1.81799">
        <ele>96.4</ele>
      </trkpt>
      <trkpt lat="47.7699" lon="-1.81795">
        <ele>96.1</ele>
      </trkpt>
      <trkpt lat="47.76986" lon="-1.81791">
        <ele>95.9</ele>
      </trkpt>
      <trkpt lat="47.76982" lon="-1.81787">
        <ele>95.7</ele>
      </trkpt>
      <trkpt lat="47.76978" lon="-1.81783">
        <ele>95.4</ele>
      </trkpt>
      <trkpt lat="47.76974" lon="-1.8178">
        <ele>95.2</ele>
      </trkpt>
      <trkpt lat="47.76969" lon="-1.81777">
        <ele>95</ele>
      </trkpt>
      <trkpt lat="47.76965" lon="-1.81774">
        <ele>94.7</ele>
      </trkpt>
      <trkpt lat="47.7696" lon="-1.81771">
        <ele>94.5</ele>
      </trkpt>
      <trkpt lat="47.76956" lon="-1.81769">
        <ele>94.2</ele>
      </trkpt>
      <trkpt lat="47.76952" lon="-1.81767">
        <ele>94</ele>
      </trkpt>
      <trkpt lat="47.76947" lon="-1.81765">
        <ele>93.7</ele>
      </trkpt>
      <trkpt lat="47.76943" lon="-1.81763">
        <ele>93.5</ele>
      </trkpt>
      <trkpt lat="47.76939" lon="-1.81761">
        <ele>93.3</ele>
      </trkpt>
      <trkpt lat="47.76935" lon="-1.8176">
        <ele>93.1</ele>
      </trkpt>
      <trkpt lat="47.7693" lon="-1.81758">
        <ele>92.8</ele>
      </trkpt>
      <trkpt lat="47.76927" lon="-1.81756">
        <ele>92.6</ele>
      </trkpt>
      <trkpt lat="47.76922" lon="-1.81754">
        <ele>92.4</ele>
      </trkpt>
      <trkpt lat="47.76918" lon="-1.81752">
        <ele>92.1</ele>
      </trkpt>
      <trkpt lat="47.76913" lon="-1.81751">
        <ele>91.5</ele>
      </trkpt>
      <trkpt lat="47.76908" lon="-1.81749">
        <ele>90.7</ele>
      </trkpt>
      <trkpt lat="47.76903" lon="-1.81748">
        <ele>89.9</ele>
      </trkpt>
      <trkpt lat="47.76899" lon="-1.81746">
        <ele>89.2</ele>
      </trkpt>
      <trkpt lat="47.76894" lon="-1.81743">
        <ele>88.5</ele>
      </trkpt>
      <trkpt lat="47.76889" lon="-1.81739">
        <ele>87.8</ele>
      </trkpt>
      <trkpt lat="47.76885" lon="-1.81735">
        <ele>87.2</ele>
      </trkpt>
      <trkpt lat="47.76881" lon="-1.8173">
        <ele>86.7</ele>
      </trkpt>
      <trkpt lat="47.76877" lon="-1.81726">
        <ele>86.2</ele>
      </trkpt>
      <trkpt lat="47.76873" lon="-1.81721">
        <ele>85.7</ele>
      </trkpt>
      <trkpt lat="47.76869" lon="-1.81717">
        <ele>85.3</ele>
      </trkpt>
      <trkpt lat="47.76864" lon="-1.81712">
        <ele>84.8</ele>
      </trkpt>
      <trkpt lat="47.76861" lon="-1.81708">
        <ele>84.5</ele>
      </trkpt>
      <trkpt lat="47.76857" lon="-1.81704">
        <ele>84.1</ele>
      </trkpt>
      <trkpt lat="47.76854" lon="-1.817">
        <ele>83.9</ele>
      </trkpt>
      <trkpt lat="47.7685" lon="-1.81696">
        <ele>83.6</ele>
      </trkpt>
      <trkpt lat="47.76845" lon="-1.8169">
        <ele>83.2</ele>
      </trkpt>
      <trkpt lat="47.7684" lon="-1.81685">
        <ele>82.9</ele>
      </trkpt>
      <trkpt lat="47.76836" lon="-1.8168">
        <ele>82.6</ele>
      </trkpt>
      <trkpt lat="47.76831" lon="-1.81675">
        <ele>82.3</ele>
      </trkpt>
      <trkpt lat="47.76826" lon="-1.81669">
        <ele>81.9</ele>
      </trkpt>
      <trkpt lat="47.76821" lon="-1.81664">
        <ele>81.5</ele>
      </trkpt>
      <trkpt lat="47.76815" lon="-1.81658">
        <ele>81</ele>
      </trkpt>
      <trkpt lat="47.7681" lon="-1.81651">
        <ele>80.6</ele>
      </trkpt>
      <trkpt lat="47.76805" lon="-1.81645">
        <ele>80.3</ele>
      </trkpt>
      <trkpt lat="47.768" lon="-1.81638">
        <ele>79.9</ele>
      </trkpt>
      <trkpt lat="47.76794" lon="-1.81631">
        <ele>79.5</ele>
      </trkpt>
      <trkpt lat="47.7679" lon="-1.81624">
        <ele>79.2</ele>
      </trkpt>
      <trkpt lat="47.76784" lon="-1.81617">
        <ele>78.9</ele>
      </trkpt>
      <trkpt lat="47.76778" lon="-1.8161">
        <ele>78.3</ele>
      </trkpt>
      <trkpt lat="47.76771" lon="-1.81604">
        <ele>77.5</ele>
      </trkpt>
      <trkpt lat="47.76765" lon="-1.81598">
        <ele>76.7</ele>
      </trkpt>
      <trkpt lat="47.76757" lon="-1.81594">
        <ele>75.7</ele>
      </trkpt>
      <trkpt lat="47.7675" lon="-1.81589">
        <ele>74.8</ele>
      </trkpt>
      <trkpt lat="47.76743" lon="-1.81582">
        <ele>74.2</ele>
      </trkpt>
      <trkpt lat="47.76735" lon="-1.81576">
        <ele>73.6</ele>
      </trkpt>
      <trkpt lat="47.76728" lon="-1.81568">
        <ele>73</ele>
      </trkpt>
      <trkpt lat="47.7672" lon="-1.81561">
        <ele>72.5</ele>
      </trkpt>
      <trkpt lat="47.76713" lon="-1.81554">
        <ele>72</ele>
      </trkpt>
      <trkpt lat="47.76708" lon="-1.81548">
        <ele>71.7</ele>
      </trkpt>
      <trkpt lat="47.76702" lon="-1.81541">
        <ele>71.2</ele>
      </trkpt>
      <trkpt lat="47.76695" lon="-1.81534">
        <ele>70.8</ele>
      </trkpt>
      <trkpt lat="47.76689" lon="-1.81527">
        <ele>70.4</ele>
      </trkpt>
      <trkpt lat="47.76684" lon="-1.8152">
        <ele>70.1</ele>
      </trkpt>
      <trkpt lat="47.76678" lon="-1.81514">
        <ele>69.6</ele>
      </trkpt>
      <trkpt lat="47.76671" lon="-1.81508">
        <ele>69.2</ele>
      </trkpt>
      <trkpt lat="47.76666" lon="-1.81502">
        <ele>68.9</ele>
      </trkpt>
      <trkpt lat="47.76662" lon="-1.81498">
        <ele>68.9</ele>
      </trkpt>
      <trkpt lat="47.76658" lon="-1.81494">
        <ele>68.9</ele>
      </trkpt>
      <trkpt lat="47.76655" lon="-1.8149">
        <ele>68.9</ele>
      </trkpt>
      <trkpt lat="47.76653" lon="-1.81487">
        <ele>68.9</ele>
      </trkpt>
      <trkpt lat="47.7665" lon="-1.81484">
        <ele>68.9</ele>
      </trkpt>
      <trkpt lat="47.76647" lon="-1.81481">
        <ele>68.8</ele>
      </trkpt>
      <trkpt lat="47.76645" lon="-1.81479">
        <ele>68.8</ele>
      </trkpt>
      <trkpt lat="47.76642" lon="-1.81477">
        <ele>68.7</ele>
      </trkpt>
      <trkpt lat="47.76639" lon="-1.81476">
        <ele>68.6</ele>
      </trkpt>
      <trkpt lat="47.76636" lon="-1.81475">
        <ele>68.5</ele>
      </trkpt>
      <trkpt lat="47.76633" lon="-1.81474">
        <ele>68.4</ele>
      </trkpt>
      <trkpt lat="47.76629" lon="-1.81472">
        <ele>68.2</ele>
      </trkpt>
      <trkpt lat="47.76625" lon="-1.81471">
        <ele>68.1</ele>
      </trkpt>
      <trkpt lat="47.76621" lon="-1.81469">
        <ele>67.9</ele>
      </trkpt>
      <trkpt lat="47.76616" lon="-1.81467">
        <ele>67.7</ele>
      </trkpt>
      <trkpt lat="47.76611" lon="-1.81466">
        <ele>67.4</ele>
      </trkpt>
      <trkpt lat="47.76606" lon="-1.81463">
        <ele>67.2</ele>
      </trkpt>
      <trkpt lat="47.76602" lon="-1.8146">
        <ele>67</ele>
      </trkpt>
      <trkpt lat="47.76596" lon="-1.81458">
        <ele>66.8</ele>
      </trkpt>
      <trkpt lat="47.76591" lon="-1.81455">
        <ele>66.6</ele>
      </trkpt>
      <trkpt lat="47.76587" lon="-1.81453">
        <ele>66.4</ele>
      </trkpt>
      <trkpt lat="47.76583" lon="-1.81451">
        <ele>66.2</ele>
      </trkpt>
      <trkpt lat="47.7658" lon="-1.81451">
        <ele>66.1</ele>
      </trkpt>
      <trkpt lat="47.76575" lon="-1.81451">
        <ele>66.1</ele>
      </trkpt>
      <trkpt lat="47.7657" lon="-1.81451">
        <ele>66</ele>
      </trkpt>
      <trkpt lat="47.76565" lon="-1.81452">
        <ele>65.9</ele>
      </trkpt>
      <trkpt lat="47.76561" lon="-1.81452">
        <ele>65.8</ele>
      </trkpt>
      <trkpt lat="47.76555" lon="-1.81452">
        <ele>65.8</ele>
      </trkpt>
      <trkpt lat="47.76551" lon="-1.81452">
        <ele>65.7</ele>
      </trkpt>
      <trkpt lat="47.76547" lon="-1.81452">
        <ele>65.6</ele>
      </trkpt>
      <trkpt lat="47.76542" lon="-1.81452">
        <ele>65.6</ele>
      </trkpt>
      <trkpt lat="47.76537" lon="-1.81454">
        <ele>65.5</ele>
      </trkpt>
      <trkpt lat="47.76533" lon="-1.81455">
        <ele>65.4</ele>
      </trkpt>
      <trkpt lat="47.76529" lon="-1.81456">
        <ele>65.4</ele>
      </trkpt>
      <trkpt lat="47.76524" lon="-1.81458">
        <ele>65.3</ele>
      </trkpt>
      <trkpt lat="47.7652" lon="-1.81458">
        <ele>65.2</ele>
      </trkpt>
      <trkpt lat="47.76515" lon="-1.81458">
        <ele>65.2</ele>
      </trkpt>
      <trkpt lat="47.76511" lon="-1.81459">
        <ele>65.1</ele>
      </trkpt>
      <trkpt lat="47.76506" lon="-1.81459">
        <ele>65.1</ele>
      </trkpt>
      <trkpt lat="47.76501" lon="-1.8146">
        <ele>65</ele>
      </trkpt>
      <trkpt lat="47.76497" lon="-1.81459">
        <ele>64.6</ele>
      </trkpt>
      <trkpt lat="47.76492" lon="-1.81457">
        <ele>64</ele>
      </trkpt>
      <trkpt lat="47.76486" lon="-1.81454">
        <ele>63.2</ele>
      </trkpt>
      <trkpt lat="47.76479" lon="-1.81451">
        <ele>62.4</ele>
      </trkpt>
      <trkpt lat="47.76472" lon="-1.81448">
        <ele>61.4</ele>
      </trkpt>
      <trkpt lat="47.76466" lon="-1.81446">
        <ele>60.7</ele>
      </trkpt>
      <trkpt lat="47.76461" lon="-1.81446">
        <ele>60.1</ele>
      </trkpt>
      <trkpt lat="47.76454" lon="-1.81448">
        <ele>59.3</ele>
      </trkpt>
      <trkpt lat="47.76445" lon="-1.81448">
        <ele>58.1</ele>
      </trkpt>
      <trkpt lat="47.76439" lon="-1.81448">
        <ele>57.3</ele>
      </trkpt>
      <trkpt lat="47.76432" lon="-1.81447">
        <ele>56.3</ele>
      </trkpt>
      <trkpt lat="47.76425" lon="-1.81444">
        <ele>55.4</ele>
      </trkpt>
      <trkpt lat="47.76419" lon="-1.81442">
        <ele>54.6</ele>
      </trkpt>
      <trkpt lat="47.76416" lon="-1.81441">
        <ele>53.9</ele>
      </trkpt>
      <trkpt lat="47.76412" lon="-1.81439">
        <ele>53.1</ele>
      </trkpt>
      <trkpt lat="47.76409" lon="-1.81435">
        <ele>52.2</ele>
      </trkpt>
      <trkpt lat="47.76407" lon="-1.81432">
        <ele>51.6</ele>
      </trkpt>
      <trkpt lat="47.76405" lon="-1.81431">
        <ele>51</ele>
      </trkpt>
      <trkpt lat="47.76402" lon="-1.81433">
        <ele>50.4</ele>
      </trkpt>
      <trkpt lat="47.76399" lon="-1.81436">
        <ele>49.9</ele>
      </trkpt>
      <trkpt lat="47.76396" lon="-1.8144">
        <ele>49.5</ele>
      </trkpt>
      <trkpt lat="47.76395" lon="-1.81446">
        <ele>49.4</ele>
      </trkpt>
      <trkpt lat="47.76394" lon="-1.81451">
        <ele>49.6</ele>
      </trkpt>
      <trkpt lat="47.76395" lon="-1.81457">
        <ele>49.9</ele>
      </trkpt>
      <trkpt lat="47.76395" lon="-1.81462">
        <ele>50.2</ele>
      </trkpt>
      <trkpt lat="47.76395" lon="-1.81468">
        <ele>50.5</ele>
      </trkpt>
      <trkpt lat="47.76395" lon="-1.81474">
        <ele>50.9</ele>
      </trkpt>
      <trkpt lat="47.76396" lon="-1.8148">
        <ele>51.3</ele>
      </trkpt>
      <trkpt lat="47.76396" lon="-1.81486">
        <ele>51.7</ele>
      </trkpt>
      <trkpt lat="47.76397" lon="-1.81492">
        <ele>52.1</ele>
      </trkpt>
      <trkpt lat="47.76397" lon="-1.81498">
        <ele>52.6</ele>
      </trkpt>
      <trkpt lat="47.76397" lon="-1.81504">
        <ele>52.6</ele>
      </trkpt>
      <trkpt lat="47.76396" lon="-1.8151">
        <ele>52.3</ele>
      </trkpt>
      <trkpt lat="47.76395" lon="-1.81515">
        <ele>52.1</ele>
      </trkpt>
      <trkpt lat="47.76394" lon="-1.81521">
        <ele>51.9</ele>
      </trkpt>
      <trkpt lat="47.76394" lon="-1.81528">
        <ele>51.9</ele>
      </trkpt>
      <trkpt lat="47.76394" lon="-1.81534">
        <ele>51.9</ele>
      </trkpt>
      <trkpt lat="47.76393" lon="-1.8154">
        <ele>51.7</ele>
      </trkpt>
      <trkpt lat="47.76391" lon="-1.81548">
        <ele>51.3</ele>
      </trkpt>
      <trkpt lat="47.76389" lon="-1.81555">
        <ele>51</ele>
      </trkpt>
      <trkpt lat="47.76388" lon="-1.81562">
        <ele>50.7</ele>
      </trkpt>
      <trkpt lat="47.76387" lon="-1.8157">
        <ele>50.6</ele>
      </trkpt>
      <trkpt lat="47.76387" lon="-1.81577">
        <ele>50.7</ele>
      </trkpt>
      <trkpt lat="47.76389" lon="-1.81584">
        <ele>50.9</ele>
      </trkpt>
      <trkpt lat="47.76391" lon="-1.8159">
        <ele>50.8</ele>
      </trkpt>
      <trkpt lat="47.76394" lon="-1.81595">
        <ele>50.7</ele>
      </trkpt>
      <trkpt lat="47.76396" lon="-1.81601">
        <ele>50.6</ele>
      </trkpt>
      <trkpt lat="47.76398" lon="-1.81605">
        <ele>50.6</ele>
      </trkpt>
      <trkpt lat="47.76401" lon="-1.81609">
        <ele>50.8</ele>
      </trkpt>
      <trkpt lat="47.76405" lon="-1.81612">
        <ele>51.1</ele>
      </trkpt>
      <trkpt lat="47.76407" lon="-1.81615">
        <ele>51.3</ele>
      </trkpt>
      <trkpt lat="47.76409" lon="-1.81619">
        <ele>51.2</ele>
      </trkpt>
      <trkpt lat="47.76411" lon="-1.81622">
        <ele>51.1</ele>
      </trkpt>
      <trkpt lat="47.76412" lon="-1.81626">
        <ele>51.1</ele>
      </trkpt>
      <trkpt lat="47.76414" lon="-1.81628">
        <ele>51</ele>
      </trkpt>
      <trkpt lat="47.76415" lon="-1.81631">
        <ele>50.9</ele>
      </trkpt>
      <trkpt lat="47.76416" lon="-1.81635">
        <ele>50.7</ele>
      </trkpt>
      <trkpt lat="47.76418" lon="-1.81638">
        <ele>50.5</ele>
      </trkpt>
      <trkpt lat="47.7642" lon="-1.81642">
        <ele>50.3</ele>
      </trkpt>
      <trkpt lat="47.76421" lon="-1.81644">
        <ele>50.1</ele>
      </trkpt>
      <trkpt lat="47.76423" lon="-1.81647">
        <ele>49.8</ele>
      </trkpt>
      <trkpt lat="47.76424" lon="-1.81651">
        <ele>49.5</ele>
      </trkpt>
      <trkpt lat="47.76425" lon="-1.81654">
        <ele>49.2</ele>
      </trkpt>
      <trkpt lat="47.76427" lon="-1.81656">
        <ele>49</ele>
      </trkpt>
      <trkpt lat="47.76428" lon="-1.81658">
        <ele>48.9</ele>
      </trkpt>
      <trkpt lat="47.76428" lon="-1.81658">
        <ele>48.9</ele>
      </trkpt>
      <trkpt lat="47.76428" lon="-1.81658">
        <ele>48.9</ele>
      </trkpt>
      <trkpt lat="47.76428" lon="-1.81658">
        <ele>48.9</ele>
      </trkpt>
      <trkpt lat="47.76428" lon="-1.81658">
        <ele>48.9</ele>
      </trkpt>
      <trkpt lat="47.76428" lon="-1.81658">
        <ele>48.9</ele>
      </trkpt>
      <trkpt lat="47.76428" lon="-1.81658">
        <ele>48.9</ele>
      </trkpt>
      <trkpt lat="47.76428" lon="-1.81658">
        <ele>48.9</ele>
      </trkpt>
      <trkpt lat="47.76428" lon="-1.81658">
        <ele>48.9</ele>
      </trkpt>
      <trkpt lat="47.76428" lon="-1.81658">
        <ele>48.9</ele>
      </trkpt>
      <trkpt lat="47.76428" lon="-1.81658">
        <ele>48.9</ele>
      </trkpt>
      <trkpt lat="47.76428" lon="-1.81658">
        <ele>48.9</ele>
      </trkpt>
      <trkpt lat="47.76428" lon="-1.81658">
        <ele>48.9</ele>
      </trkpt>
      <trkpt lat="47.76428" lon="-1.81658">
        <ele>48.9</ele>
      </trkpt>
      <trkpt lat="47.76428" lon="-1.81658">
        <ele>48.9</ele>
      </trkpt>
      <trkpt lat="47.76428" lon="-1.81658">
        <ele>48.9</ele>
      </trkpt>
      <trkpt lat="47.76428" lon="-1.81658">
        <ele>48.9</ele>
      </trkpt>
      <trkpt lat="47.76428" lon="-1.81658">
        <ele>48.9</ele>
      </trkpt>
      <trkpt lat="47.76428" lon="-1.81658">
        <ele>48.9</ele>
      </trkpt>
      <trkpt lat="47.76428" lon="-1.81658">
        <ele>48.9</ele>
      </trkpt>
      <trkpt lat="47.76428" lon="-1.81658">
        <ele>48.9</ele>
      </trkpt>
      <trkpt lat="47.76428" lon="-1.81658">
        <ele>48.9</ele>
      </trkpt>
      <trkpt lat="47.76428" lon="-1.81658">
        <ele>48.9</ele>
      </trkpt>
      <trkpt lat="47.76428" lon="-1.81658">
        <ele>48.9</ele>
      </trkpt>
      <trkpt lat="47.76428" lon="-1.81658">
        <ele>48.9</ele>
      </trkpt>
      <trkpt lat="47.76428" lon="-1.81658">
        <ele>48.9</ele>
      </trkpt>
      <trkpt lat="47.76428" lon="-1.81658">
        <ele>48.9</ele>
      </trkpt>
      <trkpt lat="47.76428" lon="-1.81658">
        <ele>48.9</ele>
      </trkpt>
      <trkpt lat="47.76428" lon="-1.81658">
        <ele>48.9</ele>
      </trkpt>
      <trkpt lat="47.76428" lon="-1.81658">
        <ele>48.9</ele>
      </trkpt>
      <trkpt lat="47.76428" lon="-1.81658">
        <ele>48.9</ele>
      </trkpt>
      <trkpt lat="47.76428" lon="-1.81658">
        <ele>48.9</ele>
      </trkpt>
      <trkpt lat="47.76428" lon="-1.81658">
        <ele>48.9</ele>
      </trkpt>
      <trkpt lat="47.76428" lon="-1.81658">
        <ele>48.9</ele>
      </trkpt>
      <trkpt lat="47.76428" lon="-1.81658">
        <ele>48.9</ele>
      </trkpt>
      <trkpt lat="47.76428" lon="-1.81658">
        <ele>48.9</ele>
      </trkpt>
      <trkpt lat="47.76428" lon="-1.81658">
        <ele>48.9</ele>
      </trkpt>
      <trkpt lat="47.76428" lon="-1.81658">
        <ele>48.9</ele>
      </trkpt>
      <trkpt lat="47.76428" lon="-1.81658">
        <ele>48.9</ele>
      </trkpt>
      <trkpt lat="47.76428" lon="-1.81658">
        <ele>48.9</ele>
      </trkpt>
      <trkpt lat="47.76428" lon="-1.81658">
        <ele>48.9</ele>
      </trkpt>
      <trkpt lat="47.76428" lon="-1.81658">
        <ele>48.9</ele>
      </trkpt>
      <trkpt lat="47.76428" lon="-1.81658">
        <ele>48.9</ele>
      </trkpt>
      <trkpt lat="47.76428" lon="-1.81658">
        <ele>48.9</ele>
      </trkpt>
      <trkpt lat="47.76428" lon="-1.81658">
        <ele>48.9</ele>
      </trkpt>
      <trkpt lat="47.76428" lon="-1.81658">
        <ele>48.9</ele>
      </trkpt>
      <trkpt lat="47.76428" lon="-1.81658">
        <ele>48.9</ele>
      </trkpt>
      <trkpt lat="47.76428" lon="-1.81658">
        <ele>48.9</ele>
      </trkpt>
      <trkpt lat="47.76428" lon="-1.81658">
        <ele>48.9</ele>
      </trkpt>
      <trkpt lat="47.76428" lon="-1.81658">
        <ele>48.9</ele>
      </trkpt>
      <trkpt lat="47.76428" lon="-1.81658">
        <ele>48.9</ele>
      </trkpt>
      <trkpt lat="47.76428" lon="-1.81658">
        <ele>48.9</ele>
      </trkpt>
      <trkpt lat="47.76428" lon="-1.81658">
        <ele>48.9</ele>
      </trkpt>
      <trkpt lat="47.76428" lon="-1.81658">
        <ele>48.9</ele>
      </trkpt>
      <trkpt lat="47.76428" lon="-1.81658">
        <ele>48.9</ele>
      </trkpt>
      <trkpt lat="47.76428" lon="-1.81658">
        <ele>48.9</ele>
      </trkpt>
      <trkpt lat="47.76428" lon="-1.81658">
        <ele>48.9</ele>
      </trkpt>
      <trkpt lat="47.76428" lon="-1.81658">
        <ele>48.9</ele>
      </trkpt>
      <trkpt lat="47.76428" lon="-1.81658">
        <ele>48.9</ele>
      </trkpt>
      <trkpt lat="47.76428" lon="-1.81658">
        <ele>48.9</ele>
      </trkpt>
      <trkpt lat="47.76428" lon="-1.81658">
        <ele>48.9</ele>
      </trkpt>
      <trkpt lat="47.76428" lon="-1.81658">
        <ele>48.9</ele>
      </trkpt>
      <trkpt lat="47.76428" lon="-1.81658">
        <ele>48.9</ele>
      </trkpt>
      <trkpt lat="47.76428" lon="-1.81658">
        <ele>48.9</ele>
      </trkpt>
      <trkpt lat="47.76428" lon="-1.81658">
        <ele>48.9</ele>
      </trkpt>
      <trkpt lat="47.76428" lon="-1.81658">
        <ele>48.9</ele>
      </trkpt>
      <trkpt lat="47.76428" lon="-1.81658">
        <ele>48.9</ele>
      </trkpt>
      <trkpt lat="47.76428" lon="-1.81658">
        <ele>48.9</ele>
      </trkpt>
      <trkpt lat="47.76428" lon="-1.81658">
        <ele>48.9</ele>
      </trkpt>
      <trkpt lat="47.76428" lon="-1.81658">
        <ele>48.9</ele>
      </trkpt>
      <trkpt lat="47.76428" lon="-1.81658">
        <ele>48.9</ele>
      </trkpt>
      <trkpt lat="47.76428" lon="-1.81658">
        <ele>48.9</ele>
      </trkpt>
      <trkpt lat="47.76428" lon="-1.81658">
        <ele>48.9</ele>
      </trkpt>
      <trkpt lat="47.76428" lon="-1.81658">
        <ele>48.8</ele>
      </trkpt>
      <trkpt lat="47.76428" lon="-1.81658">
        <ele>48.8</ele>
      </trkpt>
      <trkpt lat="47.76428" lon="-1.81658">
        <ele>48.8</ele>
      </trkpt>
      <trkpt lat="47.76428" lon="-1.81658">
        <ele>48.8</ele>
      </trkpt>
      <trkpt lat="47.76428" lon="-1.81658">
        <ele>48.8</ele>
      </trkpt>
      <trkpt lat="47.76428" lon="-1.81658">
        <ele>48.8</ele>
      </trkpt>
      <trkpt lat="47.76428" lon="-1.81658">
        <ele>48.8</ele>
      </trkpt>
      <trkpt lat="47.76428" lon="-1.81658">
        <ele>48.8</ele>
      </trkpt>
      <trkpt lat="47.76428" lon="-1.81659">
        <ele>48.8</ele>
      </trkpt>
      <trkpt lat="47.76428" lon="-1.81663">
        <ele>48.3</ele>
      </trkpt>
      <trkpt lat="47.76428" lon="-1.81666">
        <ele>47.9</ele>
      </trkpt>
      <trkpt lat="47.76428" lon="-1.8167">
        <ele>46.9</ele>
      </trkpt>
      <trkpt lat="47.76428" lon="-1.81673">
        <ele>46.2</ele>
      </trkpt>
      <trkpt lat="47.76427" lon="-1.81677">
        <ele>45.2</ele>
      </trkpt>
      <trkpt lat="47.76426" lon="-1.81683">
        <ele>43.7</ele>
      </trkpt>
      <trkpt lat="47.76426" lon="-1.81687">
        <ele>42.7</ele>
      </trkpt>
      <trkpt lat="47.76426" lon="-1.81692">
        <ele>41.5</ele>
      </trkpt>
      <trkpt lat="47.76426" lon="-1.81694">
        <ele>40.8</ele>
      </trkpt>
      <trkpt lat="47.76427" lon="-1.81697">
        <ele>40.2</ele>
      </trkpt>
      <trkpt lat="47.76427" lon="-1.817">
        <ele>39.5</ele>
      </trkpt>
      <trkpt lat="47.76428" lon="-1.81702">
        <ele>39.2</ele>
      </trkpt>
      <trkpt lat="47.76429" lon="-1.81703">
        <ele>38.9</ele>
      </trkpt>
      <trkpt lat="47.76429" lon="-1.81704">
        <ele>38.7</ele>
      </trkpt>
      <trkpt lat="47.76429" lon="-1.81704">
        <ele>38.7</ele>
      </trkpt>
      <trkpt lat="47.76429" lon="-1.81704">
        <ele>38.7</ele>
      </trkpt>
      <trkpt lat="47.76429" lon="-1.81704">
        <ele>38.7</ele>
      </trkpt>
      <trkpt lat="47.76429" lon="-1.81704">
        <ele>38.7</ele>
      </trkpt>
      <trkpt lat="47.76429" lon="-1.81703">
        <ele>38.9</ele>
      </trkpt>
      <trkpt lat="47.7643" lon="-1.81704">
        <ele>38.9</ele>
      </trkpt>
      <trkpt lat="47.76432" lon="-1.81704">
        <ele>38.8</ele>
      </trkpt>
      <trkpt lat="47.76434" lon="-1.81705">
        <ele>38.8</ele>
      </trkpt>
      <trkpt lat="47.76436" lon="-1.81707">
        <ele>38.7</ele>
      </trkpt>
      <trkpt lat="47.76439" lon="-1.81708">
        <ele>38.6</ele>
      </trkpt>
      <trkpt lat="47.76443" lon="-1.81709">
        <ele>38.7</ele>
      </trkpt>
      <trkpt lat="47.76446" lon="-1.81709">
        <ele>39</ele>
      </trkpt>
      <trkpt lat="47.76448" lon="-1.81708">
        <ele>39.3</ele>
      </trkpt>
      <trkpt lat="47.76451" lon="-1.81708">
        <ele>39.6</ele>
      </trkpt>
      <trkpt lat="47.76453" lon="-1.81707">
        <ele>40.2</ele>
      </trkpt>
      <trkpt lat="47.76454" lon="-1.81704">
        <ele>40.8</ele>
      </trkpt>
      <trkpt lat="47.76456" lon="-1.81702">
        <ele>41.5</ele>
      </trkpt>
      <trkpt lat="47.76458" lon="-1.817">
        <ele>42.1</ele>
      </trkpt>
      <trkpt lat="47.76459" lon="-1.81699">
        <ele>42.4</ele>
      </trkpt>
      <trkpt lat="47.7646" lon="-1.81699">
        <ele>42.6</ele>
      </trkpt>
      <trkpt lat="47.7646" lon="-1.81699">
        <ele>42.7</ele>
      </trkpt>
      <trkpt lat="47.7646" lon="-1.81699">
        <ele>42.7</ele>
      </trkpt>
      <trkpt lat="47.7646" lon="-1.81699">
        <ele>42.7</ele>
      </trkpt>
      <trkpt lat="47.7646" lon="-1.81699">
        <ele>42.7</ele>
      </trkpt>
      <trkpt lat="47.7646" lon="-1.81699">
        <ele>42.7</ele>
      </trkpt>
      <trkpt lat="47.76461" lon="-1.81698">
        <ele>42.8</ele>
      </trkpt>
      <trkpt lat="47.76462" lon="-1.81697">
        <ele>43.2</ele>
      </trkpt>
      <trkpt lat="47.76463" lon="-1.81695">
        <ele>43.7</ele>
      </trkpt>
      <trkpt lat="47.76465" lon="-1.81693">
        <ele>44.5</ele>
      </trkpt>
      <trkpt lat="47.76467" lon="-1.8169">
        <ele>45.3</ele>
      </trkpt>
      <trkpt lat="47.76468" lon="-1.81687">
        <ele>46</ele>
      </trkpt>
      <trkpt lat="47.76469" lon="-1.81684">
        <ele>46.7</ele>
      </trkpt>
      <trkpt lat="47.76471" lon="-1.81682">
        <ele>47.5</ele>
      </trkpt>
      <trkpt lat="47.76474" lon="-1.81681">
        <ele>47.9</ele>
      </trkpt>
      <trkpt lat="47.76477" lon="-1.8168">
        <ele>48.3</ele>
      </trkpt>
      <trkpt lat="47.76479" lon="-1.81681">
        <ele>48.2</ele>
      </trkpt>
      <trkpt lat="47.76481" lon="-1.81683">
        <ele>48</ele>
      </trkpt>
      <trkpt lat="47.76483" lon="-1.81684">
        <ele>47.8</ele>
      </trkpt>
      <trkpt lat="47.76485" lon="-1.81685">
        <ele>47.8</ele>
      </trkpt>
      <trkpt lat="47.76487" lon="-1.81687">
        <ele>47.6</ele>
      </trkpt>
      <trkpt lat="47.76489" lon="-1.81689">
        <ele>47.3</ele>
      </trkpt>
      <trkpt lat="47.76491" lon="-1.81691">
        <ele>47.1</ele>
      </trkpt>
      <trkpt lat="47.76494" lon="-1.81693">
        <ele>46.9</ele>
      </trkpt>
      <trkpt lat="47.76495" lon="-1.81694">
        <ele>46.6</ele>
      </trkpt>
      <trkpt lat="47.76497" lon="-1.81697">
        <ele>46.1</ele>
      </trkpt>
      <trkpt lat="47.76499" lon="-1.81701">
        <ele>45.5</ele>
      </trkpt>
      <trkpt lat="47.76501" lon="-1.81705">
        <ele>44.8</ele>
      </trkpt>
      <trkpt lat="47.76503" lon="-1.81708">
        <ele>44.2</ele>
      </trkpt>
      <trkpt lat="47.76504" lon="-1.81712">
        <ele>43.5</ele>
      </trkpt>
      <trkpt lat="47.76505" lon="-1.81716">
        <ele>42.7</ele>
      </trkpt>
      <trkpt lat="47.76506" lon="-1.8172">
        <ele>41.9</ele>
      </trkpt>
      <trkpt lat="47.76508" lon="-1.81724">
        <ele>41.2</ele>
      </trkpt>
      <trkpt lat="47.76507" lon="-1.81727">
        <ele>40.6</ele>
      </trkpt>
      <trkpt lat="47.76506" lon="-1.81731">
        <ele>39.6</ele>
      </trkpt>
      <trkpt lat="47.76505" lon="-1.81734">
        <ele>38.8</ele>
      </trkpt>
      <trkpt lat="47.76504" lon="-1.81738">
        <ele>38</ele>
      </trkpt>
      <trkpt lat="47.76503" lon="-1.81742">
        <ele>37.1</ele>
      </trkpt>
      <trkpt lat="47.76502" lon="-1.81744">
        <ele>36.6</ele>
      </trkpt>
      <trkpt lat="47.76502" lon="-1.81744">
        <ele>36.5</ele>
      </trkpt>
      <trkpt lat="47.76502" lon="-1.81744">
        <ele>36.5</ele>
      </trkpt>
      <trkpt lat="47.76502" lon="-1.81744">
        <ele>36.5</ele>
      </trkpt>
      <trkpt lat="47.76502" lon="-1.81744">
        <ele>36.5</ele>
      </trkpt>
      <trkpt lat="47.76502" lon="-1.81744">
        <ele>36.5</ele>
      </trkpt>
      <trkpt lat="47.76502" lon="-1.81744">
        <ele>36.5</ele>
      </trkpt>
      <trkpt lat="47.76502" lon="-1.81744">
        <ele>36.5</ele>
      </trkpt>
      <trkpt lat="47.76502" lon="-1.81744">
        <ele>36.5</ele>
      </trkpt>
      <trkpt lat="47.76502" lon="-1.81744">
        <ele>36.5</ele>
      </trkpt>
      <trkpt lat="47.76502" lon="-1.81744">
        <ele>36.5</ele>
      </trkpt>
      <trkpt lat="47.76502" lon="-1.81744">
        <ele>36.5</ele>
      </trkpt>
      <trkpt lat="47.76502" lon="-1.81744">
        <ele>36.5</ele>
      </trkpt>
      <trkpt lat="47.76502" lon="-1.81744">
        <ele>36.5</ele>
      </trkpt>
      <trkpt lat="47.76502" lon="-1.81744">
        <ele>36.5</ele>
      </trkpt>
      <trkpt lat="47.76502" lon="-1.81744">
        <ele>36.5</ele>
      </trkpt>
      <trkpt lat="47.76502" lon="-1.81744">
        <ele>36.5</ele>
      </trkpt>
      <trkpt lat="47.76502" lon="-1.81744">
        <ele>36.5</ele>
      </trkpt>
      <trkpt lat="47.76502" lon="-1.81744">
        <ele>36.5</ele>
      </trkpt>
      <trkpt lat="47.76502" lon="-1.81744">
        <ele>36.5</ele>
      </trkpt>
      <trkpt lat="47.76502" lon="-1.81744">
        <ele>36.5</ele>
      </trkpt>
      <trkpt lat="47.76502" lon="-1.81744">
        <ele>36.5</ele>
      </trkpt>
      <trkpt lat="47.76502" lon="-1.81744">
        <ele>36.5</ele>
      </trkpt>
      <trkpt lat="47.76502" lon="-1.81744">
        <ele>36.5</ele>
      </trkpt>
      <trkpt lat="47.76502" lon="-1.81744">
        <ele>36.5</ele>
      </trkpt>
      <trkpt lat="47.76502" lon="-1.81744">
        <ele>36.5</ele>
      </trkpt>
      <trkpt lat="47.76502" lon="-1.81744">
        <ele>36.5</ele>
      </trkpt>
      <trkpt lat="47.76502" lon="-1.81744">
        <ele>36.5</ele>
      </trkpt>
      <trkpt lat="47.76502" lon="-1.81744">
        <ele>36.5</ele>
      </trkpt>
      <trkpt lat="47.76502" lon="-1.81744">
        <ele>36.5</ele>
      </trkpt>
      <trkpt lat="47.76502" lon="-1.81744">
        <ele>36.5</ele>
      </trkpt>
      <trkpt lat="47.76502" lon="-1.81744">
        <ele>36.5</ele>
      </trkpt>
      <trkpt lat="47.76502" lon="-1.81744">
        <ele>36.5</ele>
      </trkpt>
      <trkpt lat="47.76502" lon="-1.81744">
        <ele>36.5</ele>
      </trkpt>
      <trkpt lat="47.76502" lon="-1.81744">
        <ele>36.5</ele>
      </trkpt>
      <trkpt lat="47.76502" lon="-1.81744">
        <ele>36.5</ele>
      </trkpt>
      <trkpt lat="47.76502" lon="-1.81744">
        <ele>36.5</ele>
      </trkpt>
      <trkpt lat="47.76502" lon="-1.81744">
        <ele>36.5</ele>
      </trkpt>
      <trkpt lat="47.76502" lon="-1.81743">
        <ele>36.7</ele>
      </trkpt>
      <trkpt lat="47.76502" lon="-1.81743">
        <ele>36.7</ele>
      </trkpt>
      <trkpt lat="47.76502" lon="-1.81743">
        <ele>36.7</ele>
      </trkpt>
      <trkpt lat="47.76503" lon="-1.81743">
        <ele>36.9</ele>
      </trkpt>
      <trkpt lat="47.76504" lon="-1.81741">
        <ele>37.3</ele>
      </trkpt>
      <trkpt lat="47.76505" lon="-1.8174">
        <ele>37.7</ele>
      </trkpt>
      <trkpt lat="47.76506" lon="-1.81739">
        <ele>38.1</ele>
      </trkpt>
      <trkpt lat="47.76508" lon="-1.81737">
        <ele>38.5</ele>
      </trkpt>
      <trkpt lat="47.76509" lon="-1.81736">
        <ele>38.8</ele>
      </trkpt>
      <trkpt lat="47.7651" lon="-1.81736">
        <ele>39</ele>
      </trkpt>
      <trkpt lat="47.7651" lon="-1.81736">
        <ele>39.1</ele>
      </trkpt>
      <trkpt lat="47.7651" lon="-1.81735">
        <ele>39.2</ele>
      </trkpt>
      <trkpt lat="47.76511" lon="-1.81735">
        <ele>39.3</ele>
      </trkpt>
      <trkpt lat="47.76512" lon="-1.81734">
        <ele>39.6</ele>
      </trkpt>
      <trkpt lat="47.76513" lon="-1.81733">
        <ele>39.9</ele>
      </trkpt>
      <trkpt lat="47.76513" lon="-1.81732">
        <ele>40</ele>
      </trkpt>
      <trkpt lat="47.76513" lon="-1.81732">
        <ele>40</ele>
      </trkpt>
      <trkpt lat="47.76513" lon="-1.81732">
        <ele>40</ele>
      </trkpt>
      <trkpt lat="47.76513" lon="-1.81732">
        <ele>40</ele>
      </trkpt>
      <trkpt lat="47.76513" lon="-1.81732">
        <ele>40</ele>
      </trkpt>
      <trkpt lat="47.76513" lon="-1.81732">
        <ele>40</ele>
      </trkpt>
      <trkpt lat="47.76513" lon="-1.81732">
        <ele>40</ele>
      </trkpt>
      <trkpt lat="47.76513" lon="-1.81732">
        <ele>40</ele>
      </trkpt>
      <trkpt lat="47.76513" lon="-1.81732">
        <ele>40</ele>
      </trkpt>
      <trkpt lat="47.76513" lon="-1.81732">
        <ele>40</ele>
      </trkpt>
      <trkpt lat="47.76513" lon="-1.81732">
        <ele>40</ele>
      </trkpt>
      <trkpt lat="47.76513" lon="-1.81732">
        <ele>40</ele>
      </trkpt>
      <trkpt lat="47.76513" lon="-1.81732">
        <ele>40</ele>
      </trkpt>
      <trkpt lat="47.76513" lon="-1.81732">
        <ele>40</ele>
      </trkpt>
      <trkpt lat="47.76513" lon="-1.81732">
        <ele>40</ele>
      </trkpt>
      <trkpt lat="47.76513" lon="-1.81732">
        <ele>40</ele>
      </trkpt>
      <trkpt lat="47.76513" lon="-1.81732">
        <ele>40</ele>
      </trkpt>
      <trkpt lat="47.76513" lon="-1.81732">
        <ele>40</ele>
      </trkpt>
      <trkpt lat="47.76513" lon="-1.81732">
        <ele>40</ele>
      </trkpt>
      <trkpt lat="47.76513" lon="-1.81732">
        <ele>40</ele>
      </trkpt>
      <trkpt lat="47.76513" lon="-1.81732">
        <ele>40.1</ele>
      </trkpt>
      <trkpt lat="47.76513" lon="-1.81732">
        <ele>40.1</ele>
      </trkpt>
      <trkpt lat="47.76513" lon="-1.81732">
        <ele>40.1</ele>
      </trkpt>
      <trkpt lat="47.76513" lon="-1.81731">
        <ele>40.1</ele>
      </trkpt>
      <trkpt lat="47.76513" lon="-1.81731">
        <ele>40.1</ele>
      </trkpt>
      <trkpt lat="47.76513" lon="-1.81731">
        <ele>40.1</ele>
      </trkpt>
      <trkpt lat="47.76513" lon="-1.81731">
        <ele>40.1</ele>
      </trkpt>
      <trkpt lat="47.76513" lon="-1.81731">
        <ele>40.1</ele>
      </trkpt>
      <trkpt lat="47.76513" lon="-1.81731">
        <ele>40.1</ele>
      </trkpt>
      <trkpt lat="47.76513" lon="-1.81731">
        <ele>40.1</ele>
      </trkpt>
      <trkpt lat="47.76513" lon="-1.81731">
        <ele>40.1</ele>
      </trkpt>
      <trkpt lat="47.76513" lon="-1.81731">
        <ele>40.1</ele>
      </trkpt>
      <trkpt lat="47.76513" lon="-1.81731">
        <ele>40.2</ele>
      </trkpt>
      <trkpt lat="47.76512" lon="-1.8173">
        <ele>40.4</ele>
      </trkpt>
      <trkpt lat="47.76511" lon="-1.81728">
        <ele>40.7</ele>
      </trkpt>
      <trkpt lat="47.76511" lon="-1.81727">
        <ele>40.9</ele>
      </trkpt>
      <trkpt lat="47.76511" lon="-1.81726">
        <ele>41.1</ele>
      </trkpt>
      <trkpt lat="47.76511" lon="-1.81726">
        <ele>41.1</ele>
      </trkpt>
      <trkpt lat="47.76511" lon="-1.81726">
        <ele>41.1</ele>
      </trkpt>
      <trkpt lat="47.76511" lon="-1.81726">
        <ele>41.1</ele>
      </trkpt>
      <trkpt lat="47.76511" lon="-1.81726">
        <ele>41.1</ele>
      </trkpt>
      <trkpt lat="47.76511" lon="-1.81726">
        <ele>41.1</ele>
      </trkpt>
      <trkpt lat="47.76511" lon="-1.81726">
        <ele>41.1</ele>
      </trkpt>
      <trkpt lat="47.76511" lon="-1.81726">
        <ele>41.1</ele>
      </trkpt>
      <trkpt lat="47.76511" lon="-1.81726">
        <ele>41.1</ele>
      </trkpt>
      <trkpt lat="47.76511" lon="-1.81726">
        <ele>41.1</ele>
      </trkpt>
      <trkpt lat="47.76511" lon="-1.81725">
        <ele>41.2</ele>
      </trkpt>
      <trkpt lat="47.76511" lon="-1.81726">
        <ele>41.1</ele>
      </trkpt>
      <trkpt lat="47.76511" lon="-1.81726">
        <ele>41.1</ele>
      </trkpt>
      <trkpt lat="47.76511" lon="-1.81726">
        <ele>41.1</ele>
      </trkpt>
      <trkpt lat="47.76511" lon="-1.81725">
        <ele>41.2</ele>
      </trkpt>
      <trkpt lat="47.76511" lon="-1.81725">
        <ele>41.2</ele>
      </trkpt>
      <trkpt lat="47.76511" lon="-1.81725">
        <ele>41.2</ele>
      </trkpt>
      <trkpt lat="47.76511" lon="-1.81725">
        <ele>41.2</ele>
      </trkpt>
      <trkpt lat="47.76511" lon="-1.81725">
        <ele>41.2</ele>
      </trkpt>
      <trkpt lat="47.76511" lon="-1.81725">
        <ele>41.2</ele>
      </trkpt>
      <trkpt lat="47.76511" lon="-1.81727">
        <ele>40.9</ele>
      </trkpt>
      <trkpt lat="47.7651" lon="-1.81727">
        <ele>40.8</ele>
      </trkpt>
      <trkpt lat="47.7651" lon="-1.81727">
        <ele>40.8</ele>
      </trkpt>
      <trkpt lat="47.7651" lon="-1.81727">
        <ele>40.8</ele>
      </trkpt>
      <trkpt lat="47.7651" lon="-1.81727">
        <ele>40.8</ele>
      </trkpt>
      <trkpt lat="47.76509" lon="-1.8173">
        <ele>40.2</ele>
      </trkpt>
      <trkpt lat="47.76509" lon="-1.81732">
        <ele>39.7</ele>
      </trkpt>
      <trkpt lat="47.76508" lon="-1.81733">
        <ele>39.3</ele>
      </trkpt>
      <trkpt lat="47.76507" lon="-1.81735">
        <ele>38.8</ele>
      </trkpt>
      <trkpt lat="47.76506" lon="-1.81737">
        <ele>38.4</ele>
      </trkpt>
      <trkpt lat="47.76505" lon="-1.81739">
        <ele>38</ele>
      </trkpt>
      <trkpt lat="47.76505" lon="-1.81739">
        <ele>37.9</ele>
      </trkpt>
      <trkpt lat="47.76505" lon="-1.81739">
        <ele>37.8</ele>
      </trkpt>
      <trkpt lat="47.76505" lon="-1.8174">
        <ele>37.8</ele>
      </trkpt>
      <trkpt lat="47.76506" lon="-1.8174">
        <ele>37.7</ele>
      </trkpt>
      <trkpt lat="47.76506" lon="-1.8174">
        <ele>37.7</ele>
      </trkpt>
      <trkpt lat="47.76506" lon="-1.8174">
        <ele>37.7</ele>
      </trkpt>
      <trkpt lat="47.76506" lon="-1.81741">
        <ele>37.6</ele>
      </trkpt>
      <trkpt lat="47.76507" lon="-1.81742">
        <ele>37.5</ele>
      </trkpt>
      <trkpt lat="47.76507" lon="-1.81742">
        <ele>37.5</ele>
      </trkpt>
      <trkpt lat="47.76507" lon="-1.81742">
        <ele>37.5</ele>
      </trkpt>
      <trkpt lat="47.76508" lon="-1.81742">
        <ele>37.5</ele>
      </trkpt>
      <trkpt lat="47.76509" lon="-1.81742">
        <ele>37.7</ele>
      </trkpt>
      <trkpt lat="47.7651" lon="-1.81741">
        <ele>37.9</ele>
      </trkpt>
      <trkpt lat="47.7651" lon="-1.81741">
        <ele>37.9</ele>
      </trkpt>
      <trkpt lat="47.7651" lon="-1.81741">
        <ele>37.9</ele>
      </trkpt>
      <trkpt lat="47.7651" lon="-1.81741">
        <ele>37.9</ele>
      </trkpt>
      <trkpt lat="47.7651" lon="-1.81741">
        <ele>37.9</ele>
      </trkpt>
      <trkpt lat="47.7651" lon="-1.81741">
        <ele>38</ele>
      </trkpt>
      <trkpt lat="47.76512" lon="-1.8174">
        <ele>38.4</ele>
      </trkpt>
      <trkpt lat="47.76513" lon="-1.8174">
        <ele>38.5</ele>
      </trkpt>
      <trkpt lat="47.76513" lon="-1.8174">
        <ele>38.5</ele>
      </trkpt>
      <trkpt lat="47.76514" lon="-1.8174">
        <ele>38.6</ele>
      </trkpt>
      <trkpt lat="47.76514" lon="-1.8174">
        <ele>38.7</ele>
      </trkpt>
      <trkpt lat="47.76514" lon="-1.8174">
        <ele>38.7</ele>
      </trkpt>
      <trkpt lat="47.76514" lon="-1.8174">
        <ele>38.7</ele>
      </trkpt>
      <trkpt lat="47.76514" lon="-1.8174">
        <ele>38.7</ele>
      </trkpt>
      <trkpt lat="47.76514" lon="-1.8174">
        <ele>38.7</ele>
      </trkpt>
      <trkpt lat="47.76514" lon="-1.8174">
        <ele>38.7</ele>
      </trkpt>
      <trkpt lat="47.76514" lon="-1.8174">
        <ele>38.7</ele>
      </trkpt>
      <trkpt lat="47.76514" lon="-1.8174">
        <ele>38.7</ele>
      </trkpt>
      <trkpt lat="47.76514" lon="-1.8174">
        <ele>38.7</ele>
      </trkpt>
      <trkpt lat="47.76514" lon="-1.8174">
        <ele>38.7</ele>
      </trkpt>
      <trkpt lat="47.76514" lon="-1.8174">
        <ele>38.7</ele>
      </trkpt>
      <trkpt lat="47.76514" lon="-1.8174">
        <ele>38.7</ele>
      </trkpt>
      <trkpt lat="47.76515" lon="-1.8174">
        <ele>38.8</ele>
      </trkpt>
      <trkpt lat="47.76516" lon="-1.8174">
        <ele>38.9</ele>
      </trkpt>
      <trkpt lat="47.76516" lon="-1.8174">
        <ele>38.9</ele>
      </trkpt>
      <trkpt lat="47.76516" lon="-1.8174">
        <ele>38.9</ele>
      </trkpt>
      <trkpt lat="47.76516" lon="-1.8174">
        <ele>38.9</ele>
      </trkpt>
      <trkpt lat="47.76516" lon="-1.8174">
        <ele>38.9</ele>
      </trkpt>
      <trkpt lat="47.76516" lon="-1.8174">
        <ele>38.9</ele>
      </trkpt>
      <trkpt lat="47.76516" lon="-1.8174">
        <ele>38.9</ele>
      </trkpt>
      <trkpt lat="47.76516" lon="-1.8174">
        <ele>38.9</ele>
      </trkpt>
      <trkpt lat="47.76517" lon="-1.81739">
        <ele>39.1</ele>
      </trkpt>
      <trkpt lat="47.76517" lon="-1.81739">
        <ele>39.1</ele>
      </trkpt>
      <trkpt lat="47.76517" lon="-1.81739">
        <ele>39.1</ele>
      </trkpt>
      <trkpt lat="47.76517" lon="-1.81739">
        <ele>39.1</ele>
      </trkpt>
      <trkpt lat="47.76517" lon="-1.81739">
        <ele>39.1</ele>
      </trkpt>
      <trkpt lat="47.76517" lon="-1.81739">
        <ele>39.1</ele>
      </trkpt>
      <trkpt lat="47.76517" lon="-1.81739">
        <ele>39.1</ele>
      </trkpt>
      <trkpt lat="47.76517" lon="-1.81739">
        <ele>39.1</ele>
      </trkpt>
      <trkpt lat="47.76517" lon="-1.81739">
        <ele>39.2</ele>
      </trkpt>
      <trkpt lat="47.76519" lon="-1.81737">
        <ele>39.6</ele>
      </trkpt>
      <trkpt lat="47.7652" lon="-1.81736">
        <ele>39.9</ele>
      </trkpt>
      <trkpt lat="47.76522" lon="-1.81734">
        <ele>40.5</ele>
      </trkpt>
      <trkpt lat="47.76525" lon="-1.81733">
        <ele>41</ele>
      </trkpt>
      <trkpt lat="47.76527" lon="-1.81731">
        <ele>41.5</ele>
      </trkpt>
      <trkpt lat="47.76529" lon="-1.8173">
        <ele>41.9</ele>
      </trkpt>
      <trkpt lat="47.76531" lon="-1.81728">
        <ele>42.3</ele>
      </trkpt>
      <trkpt lat="47.76532" lon="-1.81725">
        <ele>42.8</ele>
      </trkpt>
      <trkpt lat="47.76534" lon="-1.81723">
        <ele>43.3</ele>
      </trkpt>
      <trkpt lat="47.76536" lon="-1.81723">
        <ele>43.6</ele>
      </trkpt>
      <trkpt lat="47.76538" lon="-1.81721">
        <ele>43.8</ele>
      </trkpt>
      <trkpt lat="47.7654" lon="-1.8172">
        <ele>44.2</ele>
      </trkpt>
      <trkpt lat="47.76542" lon="-1.81718">
        <ele>44.6</ele>
      </trkpt>
      <trkpt lat="47.76544" lon="-1.81717">
        <ele>45</ele>
      </trkpt>
      <trkpt lat="47.76547" lon="-1.81715">
        <ele>45.4</ele>
      </trkpt>
      <trkpt lat="47.7655" lon="-1.81713">
        <ele>45.8</ele>
      </trkpt>
      <trkpt lat="47.76552" lon="-1.81712">
        <ele>46.1</ele>
      </trkpt>
      <trkpt lat="47.76555" lon="-1.81711">
        <ele>46.3</ele>
      </trkpt>
      <trkpt lat="47.76558" lon="-1.81711">
        <ele>46.4</ele>
      </trkpt>
      <trkpt lat="47.76559" lon="-1.81711">
        <ele>46.5</ele>
      </trkpt>
      <trkpt lat="47.76559" lon="-1.8171">
        <ele>46.6</ele>
      </trkpt>
      <trkpt lat="47.76562" lon="-1.81708">
        <ele>47</ele>
      </trkpt>
      <trkpt lat="47.76563" lon="-1.81705">
        <ele>47.4</ele>
      </trkpt>
      <trkpt lat="47.76566" lon="-1.81702">
        <ele>47.8</ele>
      </trkpt>
      <trkpt lat="47.76566" lon="-1.81701">
        <ele>48</ele>
      </trkpt>
      <trkpt lat="47.76568" lon="-1.81699">
        <ele>48.2</ele>
      </trkpt>
      <trkpt lat="47.76568" lon="-1.81697">
        <ele>48.4</ele>
      </trkpt>
      <trkpt lat="47.76569" lon="-1.81695">
        <ele>48.6</ele>
      </trkpt>
      <trkpt lat="47.7657" lon="-1.81694">
        <ele>48.8</ele>
      </trkpt>
      <trkpt lat="47.76571" lon="-1.81692">
        <ele>48.9</ele>
      </trkpt>
      <trkpt lat="47.76571" lon="-1.81691">
        <ele>49</ele>
      </trkpt>
      <trkpt lat="47.76573" lon="-1.8169">
        <ele>49.2</ele>
      </trkpt>
      <trkpt lat="47.76574" lon="-1.81689">
        <ele>49.3</ele>
      </trkpt>
      <trkpt lat="47.76575" lon="-1.81688">
        <ele>49.4</ele>
      </trkpt>
      <trkpt lat="47.76575" lon="-1.81688">
        <ele>49.4</ele>
      </trkpt>
      <trkpt lat="47.76575" lon="-1.81688">
        <ele>49.4</ele>
      </trkpt>
      <trkpt lat="47.76575" lon="-1.81688">
        <ele>49.4</ele>
      </trkpt>
      <trkpt lat="47.76575" lon="-1.81688">
        <ele>49.4</ele>
      </trkpt>
      <trkpt lat="47.76575" lon="-1.81688">
        <ele>49.4</ele>
      </trkpt>
      <trkpt lat="47.76576" lon="-1.81687">
        <ele>49.4</ele>
      </trkpt>
      <trkpt lat="47.76576" lon="-1.81687">
        <ele>49.4</ele>
      </trkpt>
      <trkpt lat="47.76576" lon="-1.81687">
        <ele>49.4</ele>
      </trkpt>
      <trkpt lat="47.76577" lon="-1.81687">
        <ele>49.4</ele>
      </trkpt>
      <trkpt lat="47.76579" lon="-1.81687">
        <ele>49.5</ele>
      </trkpt>
      <trkpt lat="47.76579" lon="-1.81687">
        <ele>49.5</ele>
      </trkpt>
      <trkpt lat="47.76579" lon="-1.81687">
        <ele>49.5</ele>
      </trkpt>
      <trkpt lat="47.76579" lon="-1.81687">
        <ele>49.5</ele>
      </trkpt>
      <trkpt lat="47.76579" lon="-1.81687">
        <ele>49.5</ele>
      </trkpt>
      <trkpt lat="47.76579" lon="-1.81687">
        <ele>49.5</ele>
      </trkpt>
      <trkpt lat="47.76579" lon="-1.81687">
        <ele>49.5</ele>
      </trkpt>
      <trkpt lat="47.76579" lon="-1.81687">
        <ele>49.5</ele>
      </trkpt>
      <trkpt lat="47.7658" lon="-1.81688">
        <ele>49.4</ele>
      </trkpt>
      <trkpt lat="47.7658" lon="-1.81688">
        <ele>49.4</ele>
      </trkpt>
      <trkpt lat="47.7658" lon="-1.81688">
        <ele>49.4</ele>
      </trkpt>
      <trkpt lat="47.7658" lon="-1.81688">
        <ele>49.4</ele>
      </trkpt>
      <trkpt lat="47.7658" lon="-1.81688">
        <ele>49.4</ele>
      </trkpt>
      <trkpt lat="47.7658" lon="-1.81688">
        <ele>49.4</ele>
      </trkpt>
      <trkpt lat="47.7658" lon="-1.81688">
        <ele>49.4</ele>
      </trkpt>
      <trkpt lat="47.76581" lon="-1.81689">
        <ele>49.3</ele>
      </trkpt>
      <trkpt lat="47.76581" lon="-1.81689">
        <ele>49.3</ele>
      </trkpt>
      <trkpt lat="47.76581" lon="-1.81689">
        <ele>49.3</ele>
      </trkpt>
      <trkpt lat="47.76582" lon="-1.8169">
        <ele>49.3</ele>
      </trkpt>
      <trkpt lat="47.76583" lon="-1.8169">
        <ele>49.3</ele>
      </trkpt>
      <trkpt lat="47.76584" lon="-1.81691">
        <ele>49.4</ele>
      </trkpt>
      <trkpt lat="47.76585" lon="-1.81693">
        <ele>49.4</ele>
      </trkpt>
      <trkpt lat="47.76586" lon="-1.81694">
        <ele>49.5</ele>
      </trkpt>
      <trkpt lat="47.76588" lon="-1.81695">
        <ele>49.6</ele>
      </trkpt>
      <trkpt lat="47.76589" lon="-1.81697">
        <ele>49.7</ele>
      </trkpt>
      <trkpt lat="47.76591" lon="-1.81699">
        <ele>49.8</ele>
      </trkpt>
      <trkpt lat="47.76593" lon="-1.81701">
        <ele>49.9</ele>
      </trkpt>
      <trkpt lat="47.76594" lon="-1.81703">
        <ele>50</ele>
      </trkpt>
      <trkpt lat="47.76594" lon="-1.81703">
        <ele>50</ele>
      </trkpt>
      <trkpt lat="47.76594" lon="-1.81704">
        <ele>49.9</ele>
      </trkpt>
      <trkpt lat="47.76595" lon="-1.81705">
        <ele>49.9</ele>
      </trkpt>
      <trkpt lat="47.76595" lon="-1.81706">
        <ele>50</ele>
      </trkpt>
      <trkpt lat="47.76596" lon="-1.81706">
        <ele>50</ele>
      </trkpt>
      <trkpt lat="47.76596" lon="-1.81706">
        <ele>50</ele>
      </trkpt>
      <trkpt lat="47.76596" lon="-1.81706">
        <ele>50</ele>
      </trkpt>
      <trkpt lat="47.76596" lon="-1.81706">
        <ele>50</ele>
      </trkpt>
      <trkpt lat="47.76596" lon="-1.81706">
        <ele>50</ele>
      </trkpt>
      <trkpt lat="47.76596" lon="-1.81706">
        <ele>50</ele>
      </trkpt>
      <trkpt lat="47.76596" lon="-1.81706">
        <ele>50</ele>
      </trkpt>
      <trkpt lat="47.76596" lon="-1.81706">
        <ele>50.1</ele>
      </trkpt>
      <trkpt lat="47.76598" lon="-1.81708">
        <ele>50.2</ele>
      </trkpt>
      <trkpt lat="47.76599" lon="-1.81709">
        <ele>50.4</ele>
      </trkpt>
      <trkpt lat="47.766" lon="-1.81709">
        <ele>50.5</ele>
      </trkpt>
      <trkpt lat="47.76601" lon="-1.8171">
        <ele>50.5</ele>
      </trkpt>
      <trkpt lat="47.76602" lon="-1.81712">
        <ele>50.6</ele>
      </trkpt>
      <trkpt lat="47.76604" lon="-1.81713">
        <ele>50.8</ele>
      </trkpt>
      <trkpt lat="47.76605" lon="-1.81713">
        <ele>51</ele>
      </trkpt>
      <trkpt lat="47.76607" lon="-1.81715">
        <ele>51.2</ele>
      </trkpt>
      <trkpt lat="47.76609" lon="-1.81717">
        <ele>51.3</ele>
      </trkpt>
      <trkpt lat="47.7661" lon="-1.81721">
        <ele>51.4</ele>
      </trkpt>
      <trkpt lat="47.7661" lon="-1.81723">
        <ele>51.2</ele>
      </trkpt>
      <trkpt lat="47.76609" lon="-1.81725">
        <ele>50.9</ele>
      </trkpt>
      <trkpt lat="47.76607" lon="-1.81728">
        <ele>50.5</ele>
      </trkpt>
      <trkpt lat="47.76603" lon="-1.8173">
        <ele>49.6</ele>
      </trkpt>
      <trkpt lat="47.766" lon="-1.81732">
        <ele>49.1</ele>
      </trkpt>
      <trkpt lat="47.76598" lon="-1.81734">
        <ele>48.6</ele>
      </trkpt>
      <trkpt lat="47.76597" lon="-1.81734">
        <ele>48.4</ele>
      </trkpt>
      <trkpt lat="47.76594" lon="-1.81735">
        <ele>47.9</ele>
      </trkpt>
      <trkpt lat="47.76592" lon="-1.81737">
        <ele>47.4</ele>
      </trkpt>
      <trkpt lat="47.7659" lon="-1.81738">
        <ele>47</ele>
      </trkpt>
      <trkpt lat="47.76588" lon="-1.81739">
        <ele>46.6</ele>
      </trkpt>
      <trkpt lat="47.76588" lon="-1.81739">
        <ele>46.6</ele>
      </trkpt>
      <trkpt lat="47.76588" lon="-1.81739">
        <ele>46.6</ele>
      </trkpt>
      <trkpt lat="47.76588" lon="-1.81739">
        <ele>46.6</ele>
      </trkpt>
      <trkpt lat="47.76588" lon="-1.81739">
        <ele>46.6</ele>
      </trkpt>
      <trkpt lat="47.76588" lon="-1.81739">
        <ele>46.6</ele>
      </trkpt>
      <trkpt lat="47.76588" lon="-1.81739">
        <ele>46.6</ele>
      </trkpt>
      <trkpt lat="47.76587" lon="-1.81739">
        <ele>46.5</ele>
      </trkpt>
      <trkpt lat="47.76586" lon="-1.81738">
        <ele>46.3</ele>
      </trkpt>
      <trkpt lat="47.76584" lon="-1.81738">
        <ele>45.9</ele>
      </trkpt>
      <trkpt lat="47.76581" lon="-1.81738">
        <ele>45.6</ele>
      </trkpt>
      <trkpt lat="47.76579" lon="-1.81739">
        <ele>45.4</ele>
      </trkpt>
      <trkpt lat="47.76578" lon="-1.81739">
        <ele>45.3</ele>
      </trkpt>
      <trkpt lat="47.76577" lon="-1.81738">
        <ele>45.2</ele>
      </trkpt>
      <trkpt lat="47.76577" lon="-1.81737">
        <ele>45.3</ele>
      </trkpt>
      <trkpt lat="47.76577" lon="-1.81736">
        <ele>45.5</ele>
      </trkpt>
      <trkpt lat="47.76578" lon="-1.81734">
        <ele>45.7</ele>
      </trkpt>
      <trkpt lat="47.76578" lon="-1.81731">
        <ele>45.9</ele>
      </trkpt>
      <trkpt lat="47.76577" lon="-1.81729">
        <ele>46</ele>
      </trkpt>
      <trkpt lat="47.76575" lon="-1.81727">
        <ele>46</ele>
      </trkpt>
      <trkpt lat="47.76572" lon="-1.81727">
        <ele>45.8</ele>
      </trkpt>
      <trkpt lat="47.7657" lon="-1.81728">
        <ele>45.4</ele>
      </trkpt>
      <trkpt lat="47.76567" lon="-1.81731">
        <ele>44.9</ele>
      </trkpt>
      <trkpt lat="47.76564" lon="-1.81735">
        <ele>44.2</ele>
      </trkpt>
      <trkpt lat="47.7656" lon="-1.81738">
        <ele>43.6</ele>
      </trkpt>
      <trkpt lat="47.76557" lon="-1.8174">
        <ele>43</ele>
      </trkpt>
      <trkpt lat="47.76555" lon="-1.81743">
        <ele>42.4</ele>
      </trkpt>
      <trkpt lat="47.76553" lon="-1.81744">
        <ele>42.1</ele>
      </trkpt>
      <trkpt lat="47.7655" lon="-1.81746">
        <ele>41.6</ele>
      </trkpt>
      <trkpt lat="47.76546" lon="-1.81747">
        <ele>41</ele>
      </trkpt>
      <trkpt lat="47.76544" lon="-1.81748">
        <ele>40.5</ele>
      </trkpt>
      <trkpt lat="47.76541" lon="-1.81749">
        <ele>40.1</ele>
      </trkpt>
      <trkpt lat="47.76538" lon="-1.81751">
        <ele>39.6</ele>
      </trkpt>
      <trkpt lat="47.76535" lon="-1.81755">
        <ele>39.3</ele>
      </trkpt>
      <trkpt lat="47.76532" lon="-1.8176">
        <ele>38.8</ele>
      </trkpt>
      <trkpt lat="47.76531" lon="-1.81763">
        <ele>38.7</ele>
      </trkpt>
      <trkpt lat="47.76531" lon="-1.81766">
        <ele>38.6</ele>
      </trkpt>
      <trkpt lat="47.7653" lon="-1.8177">
        <ele>38.4</ele>
      </trkpt>
      <trkpt lat="47.76528" lon="-1.81773">
        <ele>38.1</ele>
      </trkpt>
      <trkpt lat="47.76526" lon="-1.81777">
        <ele>37.8</ele>
      </trkpt>
      <trkpt lat="47.76524" lon="-1.8178">
        <ele>37.3</ele>
      </trkpt>
      <trkpt lat="47.76522" lon="-1.81782">
        <ele>37</ele>
      </trkpt>
      <trkpt lat="47.76521" lon="-1.81783">
        <ele>36.6</ele>
      </trkpt>
      <trkpt lat="47.76518" lon="-1.81784">
        <ele>36.1</ele>
      </trkpt>
      <trkpt lat="47.76514" lon="-1.81785">
        <ele>35.4</ele>
      </trkpt>
      <trkpt lat="47.76511" lon="-1.81785">
        <ele>34.8</ele>
      </trkpt>
      <trkpt lat="47.76508" lon="-1.81784">
        <ele>34.3</ele>
      </trkpt>
      <trkpt lat="47.76504" lon="-1.81783">
        <ele>33.8</ele>
      </trkpt>
      <trkpt lat="47.765" lon="-1.81786">
        <ele>32.8</ele>
      </trkpt>
      <trkpt lat="47.76495" lon="-1.81791">
        <ele>31.7</ele>
      </trkpt>
      <trkpt lat="47.7649" lon="-1.81792">
        <ele>30.9</ele>
      </trkpt>
      <trkpt lat="47.76486" lon="-1.81794">
        <ele>30.2</ele>
      </trkpt>
      <trkpt lat="47.76483" lon="-1.81794">
        <ele>29.7</ele>
      </trkpt>
      <trkpt lat="47.76476" lon="-1.81797">
        <ele>28.4</ele>
      </trkpt>
      <trkpt lat="47.76468" lon="-1.81798">
        <ele>26.8</ele>
      </trkpt>
      <trkpt lat="47.76462" lon="-1.81799">
        <ele>25.8</ele>
      </trkpt>
      <trkpt lat="47.76457" lon="-1.81799">
        <ele>25</ele>
      </trkpt>
      <trkpt lat="47.76452" lon="-1.81803">
        <ele>23.8</ele>
      </trkpt>
      <trkpt lat="47.76448" lon="-1.81806">
        <ele>22.6</ele>
      </trkpt>
      <trkpt lat="47.76439" lon="-1.81808">
        <ele>20.9</ele>
      </trkpt>
      <trkpt lat="47.76439" lon="-1.81808">
        <ele>20.9</ele>
      </trkpt>
      <trkpt lat="47.76437" lon="-1.81808">
        <ele>20.5</ele>
      </trkpt>
      <trkpt lat="47.76433" lon="-1.81808">
        <ele>19.9</ele>
      </trkpt>
      <trkpt lat="47.7643" lon="-1.8181">
        <ele>19</ele>
      </trkpt>
      <trkpt lat="47.76428" lon="-1.81813">
        <ele>18.2</ele>
      </trkpt>
      <trkpt lat="47.76427" lon="-1.81814">
        <ele>17.9</ele>
      </trkpt>
      <trkpt lat="47.76426" lon="-1.81815">
        <ele>17.6</ele>
      </trkpt>
      <trkpt lat="47.76424" lon="-1.81816">
        <ele>17.1</ele>
      </trkpt>
      <trkpt lat="47.76424" lon="-1.81819">
        <ele>16.6</ele>
      </trkpt>
      <trkpt lat="47.76424" lon="-1.81821">
        <ele>16.2</ele>
      </trkpt>
      <trkpt lat="47.76425" lon="-1.81824">
        <ele>16.1</ele>
      </trkpt>
      <trkpt lat="47.76427" lon="-1.81827">
        <ele>16.1</ele>
      </trkpt>
      <trkpt lat="47.7643" lon="-1.81829">
        <ele>16.3</ele>
      </trkpt>
      <trkpt lat="47.76432" lon="-1.81831">
        <ele>16.5</ele>
      </trkpt>
      <trkpt lat="47.76435" lon="-1.81835">
        <ele>16.7</ele>
      </trkpt>
      <trkpt lat="47.76437" lon="-1.81838">
        <ele>16.9</ele>
      </trkpt>
      <trkpt lat="47.7644" lon="-1.81842">
        <ele>17</ele>
      </trkpt>
      <trkpt lat="47.76442" lon="-1.81846">
        <ele>17</ele>
      </trkpt>
      <trkpt lat="47.76444" lon="-1.8185">
        <ele>17</ele>
      </trkpt>
      <trkpt lat="47.76447" lon="-1.81854">
        <ele>17.2</ele>
      </trkpt>
      <trkpt lat="47.76449" lon="-1.81857">
        <ele>17.3</ele>
      </trkpt>
      <trkpt lat="47.76451" lon="-1.8186">
        <ele>17.4</ele>
      </trkpt>
      <trkpt lat="47.76453" lon="-1.81864">
        <ele>17.4</ele>
      </trkpt>
      <trkpt lat="47.76454" lon="-1.81867">
        <ele>17.2</ele>
      </trkpt>
      <trkpt lat="47.76455" lon="-1.81871">
        <ele>17.1</ele>
      </trkpt>
      <trkpt lat="47.76457" lon="-1.81873">
        <ele>17.2</ele>
      </trkpt>
      <trkpt lat="47.7646" lon="-1.81877">
        <ele>17.2</ele>
      </trkpt>
      <trkpt lat="47.76462" lon="-1.81883">
        <ele>17.1</ele>
      </trkpt>
      <trkpt lat="47.76466" lon="-1.81888">
        <ele>17.1</ele>
      </trkpt>
      <trkpt lat="47.76469" lon="-1.81893">
        <ele>17.1</ele>
      </trkpt>
      <trkpt lat="47.76474" lon="-1.81899">
        <ele>17.3</ele>
      </trkpt>
      <trkpt lat="47.76477" lon="-1.81904">
        <ele>17.2</ele>
      </trkpt>
      <trkpt lat="47.76479" lon="-1.8191">
        <ele>16.8</ele>
      </trkpt>
      <trkpt lat="47.76481" lon="-1.81915">
        <ele>16.4</ele>
      </trkpt>
      <trkpt lat="47.76483" lon="-1.81919">
        <ele>16.3</ele>
      </trkpt>
      <trkpt lat="47.76485" lon="-1.81926">
        <ele>16.1</ele>
      </trkpt>
      <trkpt lat="47.76488" lon="-1.81932">
        <ele>15.9</ele>
      </trkpt>
      <trkpt lat="47.76492" lon="-1.81937">
        <ele>15.8</ele>
      </trkpt>
      <trkpt lat="47.76496" lon="-1.81941">
        <ele>15.8</ele>
      </trkpt>
      <trkpt lat="47.76499" lon="-1.81946">
        <ele>15.6</ele>
      </trkpt>
      <trkpt lat="47.765" lon="-1.81951">
        <ele>15.2</ele>
      </trkpt>
      <trkpt lat="47.76504" lon="-1.81957">
        <ele>15.8</ele>
      </trkpt>
      <trkpt lat="47.76506" lon="-1.81961">
        <ele>15.8</ele>
      </trkpt>
      <trkpt lat="47.76509" lon="-1.81967">
        <ele>16</ele>
      </trkpt>
      <trkpt lat="47.76511" lon="-1.8197">
        <ele>16.3</ele>
      </trkpt>
      <trkpt lat="47.76513" lon="-1.81972">
        <ele>16.4</ele>
      </trkpt>
      <trkpt lat="47.76516" lon="-1.81978">
        <ele>16.7</ele>
      </trkpt>
      <trkpt lat="47.76518" lon="-1.81983">
        <ele>16.5</ele>
      </trkpt>
      <trkpt lat="47.7652" lon="-1.8199">
        <ele>16.2</ele>
      </trkpt>
      <trkpt lat="47.76521" lon="-1.81994">
        <ele>15.7</ele>
      </trkpt>
      <trkpt lat="47.76522" lon="-1.81999">
        <ele>15.5</ele>
      </trkpt>
      <trkpt lat="47.76525" lon="-1.82006">
        <ele>15.7</ele>
      </trkpt>
      <trkpt lat="47.76528" lon="-1.82013">
        <ele>15.8</ele>
      </trkpt>
      <trkpt lat="47.76531" lon="-1.8202">
        <ele>15.8</ele>
      </trkpt>
      <trkpt lat="47.76533" lon="-1.82026">
        <ele>15.8</ele>
      </trkpt>
      <trkpt lat="47.76535" lon="-1.82032">
        <ele>15.7</ele>
      </trkpt>
      <trkpt lat="47.76537" lon="-1.82038">
        <ele>15.7</ele>
      </trkpt>
      <trkpt lat="47.76539" lon="-1.82042">
        <ele>15.7</ele>
      </trkpt>
      <trkpt lat="47.76544" lon="-1.82048">
        <ele>16</ele>
      </trkpt>
      <trkpt lat="47.76547" lon="-1.82052">
        <ele>16.2</ele>
      </trkpt>
      <trkpt lat="47.76551" lon="-1.82056">
        <ele>16.6</ele>
      </trkpt>
      <trkpt lat="47.76556" lon="-1.82061">
        <ele>17.1</ele>
      </trkpt>
      <trkpt lat="47.76559" lon="-1.82065">
        <ele>17.2</ele>
      </trkpt>
      <trkpt lat="47.76561" lon="-1.82072">
        <ele>16.8</ele>
      </trkpt>
      <trkpt lat="47.76562" lon="-1.82077">
        <ele>16.3</ele>
      </trkpt>
      <trkpt lat="47.76564" lon="-1.82081">
        <ele>16.2</ele>
      </trkpt>
      <trkpt lat="47.76566" lon="-1.82085">
        <ele>16.3</ele>
      </trkpt>
      <trkpt lat="47.7657" lon="-1.8209">
        <ele>16.6</ele>
      </trkpt>
      <trkpt lat="47.76572" lon="-1.82094">
        <ele>16.7</ele>
      </trkpt>
      <trkpt lat="47.76574" lon="-1.821">
        <ele>16.8</ele>
      </trkpt>
      <trkpt lat="47.76577" lon="-1.82105">
        <ele>17</ele>
      </trkpt>
      <trkpt lat="47.7658" lon="-1.82111">
        <ele>17.1</ele>
      </trkpt>
      <trkpt lat="47.76581" lon="-1.82115">
        <ele>17.2</ele>
      </trkpt>
      <trkpt lat="47.76584" lon="-1.8212">
        <ele>17.3</ele>
      </trkpt>
      <trkpt lat="47.76587" lon="-1.82125">
        <ele>18.2</ele>
      </trkpt>
      <trkpt lat="47.76589" lon="-1.82129">
        <ele>18.9</ele>
      </trkpt>
      <trkpt lat="47.7659" lon="-1.82135">
        <ele>19</ele>
      </trkpt>
      <trkpt lat="47.76592" lon="-1.8214">
        <ele>19.4</ele>
      </trkpt>
      <trkpt lat="47.76594" lon="-1.82145">
        <ele>19.8</ele>
      </trkpt>
      <trkpt lat="47.76596" lon="-1.82149">
        <ele>20.1</ele>
      </trkpt>
      <trkpt lat="47.76597" lon="-1.82153">
        <ele>20.3</ele>
      </trkpt>
      <trkpt lat="47.76599" lon="-1.82157">
        <ele>20.7</ele>
      </trkpt>
      <trkpt lat="47.76601" lon="-1.82162">
        <ele>21.2</ele>
      </trkpt>
      <trkpt lat="47.76604" lon="-1.82166">
        <ele>21.7</ele>
      </trkpt>
      <trkpt lat="47.76606" lon="-1.82169">
        <ele>22.2</ele>
      </trkpt>
      <trkpt lat="47.76608" lon="-1.82172">
        <ele>22.3</ele>
      </trkpt>
      <trkpt lat="47.76609" lon="-1.82177">
        <ele>22.3</ele>
      </trkpt>
      <trkpt lat="47.76611" lon="-1.82182">
        <ele>22.2</ele>
      </trkpt>
      <trkpt lat="47.76613" lon="-1.82187">
        <ele>22.2</ele>
      </trkpt>
      <trkpt lat="47.76617" lon="-1.82193">
        <ele>22.5</ele>
      </trkpt>
      <trkpt lat="47.7662" lon="-1.82199">
        <ele>22.5</ele>
      </trkpt>
      <trkpt lat="47.76622" lon="-1.82207">
        <ele>22.3</ele>
      </trkpt>
      <trkpt lat="47.76624" lon="-1.82213">
        <ele>21.9</ele>
      </trkpt>
      <trkpt lat="47.76626" lon="-1.82218">
        <ele>21.7</ele>
      </trkpt>
      <trkpt lat="47.76628" lon="-1.82223">
        <ele>21.3</ele>
      </trkpt>
      <trkpt lat="47.7663" lon="-1.82229">
        <ele>21</ele>
      </trkpt>
      <trkpt lat="47.76632" lon="-1.82235">
        <ele>20.8</ele>
      </trkpt>
      <trkpt lat="47.76633" lon="-1.82236">
        <ele>20.9</ele>
      </trkpt>
      <trkpt lat="47.76634" lon="-1.82237">
        <ele>21</ele>
      </trkpt>
      <trkpt lat="47.76634" lon="-1.82237">
        <ele>21</ele>
      </trkpt>
      <trkpt lat="47.76634" lon="-1.82237">
        <ele>21</ele>
      </trkpt>
      <trkpt lat="47.76634" lon="-1.82237">
        <ele>21</ele>
      </trkpt>
      <trkpt lat="47.76634" lon="-1.82237">
        <ele>21</ele>
      </trkpt>
      <trkpt lat="47.76634" lon="-1.82237">
        <ele>21</ele>
      </trkpt>
      <trkpt lat="47.76634" lon="-1.82237">
        <ele>21</ele>
      </trkpt>
      <trkpt lat="47.76634" lon="-1.82237">
        <ele>21</ele>
      </trkpt>
      <trkpt lat="47.76634" lon="-1.82237">
        <ele>21</ele>
      </trkpt>
      <trkpt lat="47.76634" lon="-1.82237">
        <ele>21</ele>
      </trkpt>
      <trkpt lat="47.76634" lon="-1.82237">
        <ele>21</ele>
      </trkpt>
      <trkpt lat="47.76634" lon="-1.82237">
        <ele>21</ele>
      </trkpt>
      <trkpt lat="47.76634" lon="-1.82237">
        <ele>21</ele>
      </trkpt>
      <trkpt lat="47.76634" lon="-1.82237">
        <ele>21</ele>
      </trkpt>
      <trkpt lat="47.76634" lon="-1.82237">
        <ele>21</ele>
      </trkpt>
      <trkpt lat="47.76634" lon="-1.82237">
        <ele>21</ele>
      </trkpt>
      <trkpt lat="47.76634" lon="-1.82237">
        <ele>21</ele>
      </trkpt>
      <trkpt lat="47.76634" lon="-1.82237">
        <ele>21</ele>
      </trkpt>
      <trkpt lat="47.76634" lon="-1.82237">
        <ele>21</ele>
      </trkpt>
      <trkpt lat="47.76634" lon="-1.82237">
        <ele>21</ele>
      </trkpt>
      <trkpt lat="47.76634" lon="-1.82237">
        <ele>21</ele>
      </trkpt>
      <trkpt lat="47.76634" lon="-1.82237">
        <ele>21</ele>
      </trkpt>
      <trkpt lat="47.76634" lon="-1.82237">
        <ele>21</ele>
      </trkpt>
      <trkpt lat="47.76634" lon="-1.82237">
        <ele>21</ele>
      </trkpt>
      <trkpt lat="47.76634" lon="-1.82237">
        <ele>21</ele>
      </trkpt>
      <trkpt lat="47.76634" lon="-1.82237">
        <ele>21</ele>
      </trkpt>
      <trkpt lat="47.76634" lon="-1.82237">
        <ele>21</ele>
      </trkpt>
      <trkpt lat="47.76634" lon="-1.82237">
        <ele>21</ele>
      </trkpt>
      <trkpt lat="47.76634" lon="-1.82237">
        <ele>21</ele>
      </trkpt>
      <trkpt lat="47.76634" lon="-1.82237">
        <ele>21</ele>
      </trkpt>
      <trkpt lat="47.76634" lon="-1.82237">
        <ele>21</ele>
      </trkpt>
      <trkpt lat="47.76634" lon="-1.82237">
        <ele>21</ele>
      </trkpt>
      <trkpt lat="47.76634" lon="-1.82237">
        <ele>21</ele>
      </trkpt>
      <trkpt lat="47.76634" lon="-1.82237">
        <ele>21</ele>
      </trkpt>
      <trkpt lat="47.76634" lon="-1.82237">
        <ele>21</ele>
      </trkpt>
      <trkpt lat="47.76634" lon="-1.82237">
        <ele>21</ele>
      </trkpt>
      <trkpt lat="47.76634" lon="-1.82237">
        <ele>21</ele>
      </trkpt>
      <trkpt lat="47.76634" lon="-1.82237">
        <ele>21</ele>
      </trkpt>
      <trkpt lat="47.76634" lon="-1.82237">
        <ele>21</ele>
      </trkpt>
      <trkpt lat="47.76634" lon="-1.82237">
        <ele>21</ele>
      </trkpt>
      <trkpt lat="47.76634" lon="-1.82237">
        <ele>21</ele>
      </trkpt>
      <trkpt lat="47.76634" lon="-1.82237">
        <ele>21</ele>
      </trkpt>
      <trkpt lat="47.76634" lon="-1.82237">
        <ele>21</ele>
      </trkpt>
      <trkpt lat="47.76634" lon="-1.82237">
        <ele>21</ele>
      </trkpt>
      <trkpt lat="47.76634" lon="-1.82237">
        <ele>21</ele>
      </trkpt>
      <trkpt lat="47.76634" lon="-1.82237">
        <ele>21</ele>
      </trkpt>
      <trkpt lat="47.76634" lon="-1.82237">
        <ele>21</ele>
      </trkpt>
      <trkpt lat="47.76634" lon="-1.82237">
        <ele>21</ele>
      </trkpt>
      <trkpt lat="47.76634" lon="-1.82237">
        <ele>21</ele>
      </trkpt>
      <trkpt lat="47.76634" lon="-1.82237">
        <ele>21</ele>
      </trkpt>
      <trkpt lat="47.76634" lon="-1.82237">
        <ele>21</ele>
      </trkpt>
      <trkpt lat="47.76634" lon="-1.82237">
        <ele>21</ele>
      </trkpt>
      <trkpt lat="47.76634" lon="-1.82237">
        <ele>21</ele>
      </trkpt>
      <trkpt lat="47.76634" lon="-1.82237">
        <ele>21</ele>
      </trkpt>
      <trkpt lat="47.76634" lon="-1.82237">
        <ele>21</ele>
      </trkpt>
      <trkpt lat="47.76634" lon="-1.82237">
        <ele>21</ele>
      </trkpt>
      <trkpt lat="47.76634" lon="-1.82237">
        <ele>21</ele>
      </trkpt>
      <trkpt lat="47.76634" lon="-1.82237">
        <ele>21</ele>
      </trkpt>
      <trkpt lat="47.76634" lon="-1.82237">
        <ele>21</ele>
      </trkpt>
      <trkpt lat="47.76634" lon="-1.82237">
        <ele>21</ele>
      </trkpt>
      <trkpt lat="47.76634" lon="-1.82237">
        <ele>21</ele>
      </trkpt>
      <trkpt lat="47.76634" lon="-1.82237">
        <ele>21</ele>
      </trkpt>
      <trkpt lat="47.76634" lon="-1.82237">
        <ele>21</ele>
      </trkpt>
      <trkpt lat="47.76634" lon="-1.82237">
        <ele>21</ele>
      </trkpt>
      <trkpt lat="47.76634" lon="-1.82237">
        <ele>21</ele>
      </trkpt>
      <trkpt lat="47.76634" lon="-1.82237">
        <ele>21</ele>
      </trkpt>
      <trkpt lat="47.76634" lon="-1.82237">
        <ele>21</ele>
      </trkpt>
      <trkpt lat="47.76634" lon="-1.82237">
        <ele>21</ele>
      </trkpt>
      <trkpt lat="47.76634" lon="-1.82237">
        <ele>21</ele>
      </trkpt>
      <trkpt lat="47.76634" lon="-1.82237">
        <ele>21</ele>
      </trkpt>
      <trkpt lat="47.76634" lon="-1.82237">
        <ele>21</ele>
      </trkpt>
      <trkpt lat="47.76634" lon="-1.82237">
        <ele>21</ele>
      </trkpt>
      <trkpt lat="47.76634" lon="-1.82237">
        <ele>21</ele>
      </trkpt>
      <trkpt lat="47.76634" lon="-1.82237">
        <ele>21</ele>
      </trkpt>
      <trkpt lat="47.76634" lon="-1.82237">
        <ele>21</ele>
      </trkpt>
      <trkpt lat="47.76634" lon="-1.82237">
        <ele>21</ele>
      </trkpt>
      <trkpt lat="47.76634" lon="-1.82237">
        <ele>21</ele>
      </trkpt>
      <trkpt lat="47.76634" lon="-1.82237">
        <ele>21</ele>
      </trkpt>
      <trkpt lat="47.76634" lon="-1.82237">
        <ele>21</ele>
      </trkpt>
      <trkpt lat="47.76634" lon="-1.82237">
        <ele>21</ele>
      </trkpt>
      <trkpt lat="47.76634" lon="-1.82237">
        <ele>21</ele>
      </trkpt>
      <trkpt lat="47.76634" lon="-1.82237">
        <ele>21</ele>
      </trkpt>
      <trkpt lat="47.76634" lon="-1.82237">
        <ele>21</ele>
      </trkpt>
      <trkpt lat="47.76634" lon="-1.82237">
        <ele>21</ele>
      </trkpt>
      <trkpt lat="47.76634" lon="-1.82237">
        <ele>21</ele>
      </trkpt>
      <trkpt lat="47.76634" lon="-1.82237">
        <ele>21</ele>
      </trkpt>
      <trkpt lat="47.76634" lon="-1.82237">
        <ele>21</ele>
      </trkpt>
      <trkpt lat="47.76634" lon="-1.82237">
        <ele>21</ele>
      </trkpt>
      <trkpt lat="47.76634" lon="-1.82237">
        <ele>21</ele>
      </trkpt>
      <trkpt lat="47.76634" lon="-1.82237">
        <ele>21</ele>
      </trkpt>
      <trkpt lat="47.76634" lon="-1.82237">
        <ele>21</ele>
      </trkpt>
      <trkpt lat="47.76634" lon="-1.82237">
        <ele>21</ele>
      </trkpt>
      <trkpt lat="47.76634" lon="-1.82237">
        <ele>21</ele>
      </trkpt>
      <trkpt lat="47.76634" lon="-1.82237">
        <ele>21</ele>
      </trkpt>
      <trkpt lat="47.76634" lon="-1.82237">
        <ele>21</ele>
      </trkpt>
      <trkpt lat="47.76634" lon="-1.82237">
        <ele>21</ele>
      </trkpt>
      <trkpt lat="47.76634" lon="-1.82237">
        <ele>21</ele>
      </trkpt>
      <trkpt lat="47.76634" lon="-1.82237">
        <ele>21</ele>
      </trkpt>
      <trkpt lat="47.76634" lon="-1.82237">
        <ele>21</ele>
      </trkpt>
      <trkpt lat="47.76634" lon="-1.82237">
        <ele>21</ele>
      </trkpt>
      <trkpt lat="47.76634" lon="-1.82237">
        <ele>21</ele>
      </trkpt>
      <trkpt lat="47.76634" lon="-1.82237">
        <ele>21</ele>
      </trkpt>
      <trkpt lat="47.76634" lon="-1.82237">
        <ele>21</ele>
      </trkpt>
      <trkpt lat="47.76634" lon="-1.82237">
        <ele>21</ele>
      </trkpt>
      <trkpt lat="47.76634" lon="-1.82237">
        <ele>21</ele>
      </trkpt>
      <trkpt lat="47.76634" lon="-1.82237">
        <ele>21</ele>
      </trkpt>
      <trkpt lat="47.76634" lon="-1.82237">
        <ele>21</ele>
      </trkpt>
      <trkpt lat="47.76634" lon="-1.82237">
        <ele>21</ele>
      </trkpt>
      <trkpt lat="47.76634" lon="-1.82237">
        <ele>21</ele>
      </trkpt>
      <trkpt lat="47.76634" lon="-1.82237">
        <ele>21</ele>
      </trkpt>
      <trkpt lat="47.76634" lon="-1.82237">
        <ele>21</ele>
      </trkpt>
      <trkpt lat="47.76634" lon="-1.82237">
        <ele>21</ele>
      </trkpt>
      <trkpt lat="47.76634" lon="-1.82237">
        <ele>21</ele>
      </trkpt>
      <trkpt lat="47.76634" lon="-1.82237">
        <ele>21</ele>
      </trkpt>
      <trkpt lat="47.76634" lon="-1.82237">
        <ele>21</ele>
      </trkpt>
      <trkpt lat="47.76634" lon="-1.82237">
        <ele>21</ele>
      </trkpt>
      <trkpt lat="47.76636" lon="-1.82239">
        <ele>21</ele>
      </trkpt>
      <trkpt lat="47.76638" lon="-1.8224">
        <ele>21.3</ele>
      </trkpt>
      <trkpt lat="47.7664" lon="-1.82242">
        <ele>21.4</ele>
      </trkpt>
      <trkpt lat="47.76642" lon="-1.82244">
        <ele>21.6</ele>
      </trkpt>
      <trkpt lat="47.76643" lon="-1.82246">
        <ele>21.6</ele>
      </trkpt>
      <trkpt lat="47.76646" lon="-1.8225">
        <ele>21.5</ele>
      </trkpt>
      <trkpt lat="47.76648" lon="-1.82253">
        <ele>21.6</ele>
      </trkpt>
      <trkpt lat="47.76651" lon="-1.82256">
        <ele>21.9</ele>
      </trkpt>
      <trkpt lat="47.76653" lon="-1.82259">
        <ele>22</ele>
      </trkpt>
      <trkpt lat="47.76655" lon="-1.82261">
        <ele>22</ele>
      </trkpt>
      <trkpt lat="47.76657" lon="-1.82265">
        <ele>21.8</ele>
      </trkpt>
      <trkpt lat="47.76659" lon="-1.82268">
        <ele>21.7</ele>
      </trkpt>
      <trkpt lat="47.76661" lon="-1.82271">
        <ele>21.7</ele>
      </trkpt>
      <trkpt lat="47.76663" lon="-1.82275">
        <ele>21.5</ele>
      </trkpt>
      <trkpt lat="47.76667" lon="-1.82281">
        <ele>21.2</ele>
      </trkpt>
      <trkpt lat="47.7667" lon="-1.82287">
        <ele>21.7</ele>
      </trkpt>
      <trkpt lat="47.76674" lon="-1.82292">
        <ele>22.1</ele>
      </trkpt>
      <trkpt lat="47.76676" lon="-1.82295">
        <ele>22.7</ele>
      </trkpt>
      <trkpt lat="47.76679" lon="-1.82298">
        <ele>23.1</ele>
      </trkpt>
      <trkpt lat="47.7668" lon="-1.82301">
        <ele>23.3</ele>
      </trkpt>
      <trkpt lat="47.76682" lon="-1.82306">
        <ele>23.3</ele>
      </trkpt>
      <trkpt lat="47.76684" lon="-1.82311">
        <ele>23.1</ele>
      </trkpt>
      <trkpt lat="47.76687" lon="-1.82317">
        <ele>23.2</ele>
      </trkpt>
      <trkpt lat="47.76689" lon="-1.82321">
        <ele>23.5</ele>
      </trkpt>
      <trkpt lat="47.76692" lon="-1.82324">
        <ele>24</ele>
      </trkpt>
      <trkpt lat="47.76695" lon="-1.82329">
        <ele>24.1</ele>
      </trkpt>
      <trkpt lat="47.76698" lon="-1.82337">
        <ele>24.2</ele>
      </trkpt>
      <trkpt lat="47.76701" lon="-1.82342">
        <ele>24.5</ele>
      </trkpt>
      <trkpt lat="47.76703" lon="-1.82347">
        <ele>24.5</ele>
      </trkpt>
      <trkpt lat="47.76707" lon="-1.82353">
        <ele>24.7</ele>
      </trkpt>
      <trkpt lat="47.76709" lon="-1.82359">
        <ele>24.5</ele>
      </trkpt>
      <trkpt lat="47.76711" lon="-1.82363">
        <ele>24.6</ele>
      </trkpt>
      <trkpt lat="47.76714" lon="-1.82367">
        <ele>24.7</ele>
      </trkpt>
      <trkpt lat="47.76716" lon="-1.82372">
        <ele>24.5</ele>
      </trkpt>
      <trkpt lat="47.76716" lon="-1.82378">
        <ele>23.7</ele>
      </trkpt>
      <trkpt lat="47.76719" lon="-1.82385">
        <ele>23.3</ele>
      </trkpt>
      <trkpt lat="47.76722" lon="-1.82391">
        <ele>23.1</ele>
      </trkpt>
      <trkpt lat="47.76725" lon="-1.82396">
        <ele>22.9</ele>
      </trkpt>
      <trkpt lat="47.76727" lon="-1.824">
        <ele>22.6</ele>
      </trkpt>
      <trkpt lat="47.76729" lon="-1.82404">
        <ele>22.3</ele>
      </trkpt>
      <trkpt lat="47.7673" lon="-1.8241">
        <ele>21.6</ele>
      </trkpt>
      <trkpt lat="47.76732" lon="-1.82414">
        <ele>21.2</ele>
      </trkpt>
      <trkpt lat="47.76733" lon="-1.82417">
        <ele>20.9</ele>
      </trkpt>
      <trkpt lat="47.76735" lon="-1.82423">
        <ele>20.9</ele>
      </trkpt>
      <trkpt lat="47.76736" lon="-1.82429">
        <ele>20.6</ele>
      </trkpt>
      <trkpt lat="47.76737" lon="-1.82435">
        <ele>20.2</ele>
      </trkpt>
      <trkpt lat="47.76738" lon="-1.82442">
        <ele>19.9</ele>
      </trkpt>
      <trkpt lat="47.76739" lon="-1.82449">
        <ele>19.7</ele>
      </trkpt>
      <trkpt lat="47.76741" lon="-1.82455">
        <ele>19.6</ele>
      </trkpt>
      <trkpt lat="47.76743" lon="-1.82459">
        <ele>19.5</ele>
      </trkpt>
      <trkpt lat="47.76745" lon="-1.82463">
        <ele>19.5</ele>
      </trkpt>
      <trkpt lat="47.76747" lon="-1.82467">
        <ele>19.5</ele>
      </trkpt>
      <trkpt lat="47.76748" lon="-1.82471">
        <ele>19.4</ele>
      </trkpt>
      <trkpt lat="47.76749" lon="-1.82476">
        <ele>19.1</ele>
      </trkpt>
      <trkpt lat="47.76749" lon="-1.82482">
        <ele>18.6</ele>
      </trkpt>
      <trkpt lat="47.7675" lon="-1.82489">
        <ele>18.1</ele>
      </trkpt>
      <trkpt lat="47.76751" lon="-1.82497">
        <ele>17.7</ele>
      </trkpt>
      <trkpt lat="47.76751" lon="-1.82504">
        <ele>17.3</ele>
      </trkpt>
      <trkpt lat="47.76752" lon="-1.8251">
        <ele>17.5</ele>
      </trkpt>
      <trkpt lat="47.76753" lon="-1.82516">
        <ele>17.7</ele>
      </trkpt>
      <trkpt lat="47.76753" lon="-1.82522">
        <ele>17.7</ele>
      </trkpt>
      <trkpt lat="47.76753" lon="-1.82528">
        <ele>17.6</ele>
      </trkpt>
      <trkpt lat="47.76753" lon="-1.82536">
        <ele>17.4</ele>
      </trkpt>
      <trkpt lat="47.76754" lon="-1.82542">
        <ele>17.4</ele>
      </trkpt>
      <trkpt lat="47.76754" lon="-1.82548">
        <ele>17.5</ele>
      </trkpt>
      <trkpt lat="47.76755" lon="-1.82554">
        <ele>17.4</ele>
      </trkpt>
      <trkpt lat="47.76755" lon="-1.8256">
        <ele>17.5</ele>
      </trkpt>
      <trkpt lat="47.76756" lon="-1.82566">
        <ele>17.6</ele>
      </trkpt>
      <trkpt lat="47.76757" lon="-1.82572">
        <ele>17.8</ele>
      </trkpt>
      <trkpt lat="47.76756" lon="-1.82577">
        <ele>17.3</ele>
      </trkpt>
      <trkpt lat="47.76756" lon="-1.82584">
        <ele>17.2</ele>
      </trkpt>
      <trkpt lat="47.76755" lon="-1.8259">
        <ele>17.1</ele>
      </trkpt>
      <trkpt lat="47.76753" lon="-1.82597">
        <ele>16.5</ele>
      </trkpt>
      <trkpt lat="47.76752" lon="-1.82605">
        <ele>16.4</ele>
      </trkpt>
      <trkpt lat="47.76751" lon="-1.82611">
        <ele>16.2</ele>
      </trkpt>
      <trkpt lat="47.7675" lon="-1.82619">
        <ele>15.9</ele>
      </trkpt>
      <trkpt lat="47.76749" lon="-1.82625">
        <ele>15.9</ele>
      </trkpt>
      <trkpt lat="47.76748" lon="-1.82633">
        <ele>15.8</ele>
      </trkpt>
      <trkpt lat="47.76745" lon="-1.82639">
        <ele>15.7</ele>
      </trkpt>
      <trkpt lat="47.76743" lon="-1.82645">
        <ele>15.5</ele>
      </trkpt>
      <trkpt lat="47.76741" lon="-1.82651">
        <ele>15.3</ele>
      </trkpt>
      <trkpt lat="47.76739" lon="-1.82658">
        <ele>15.2</ele>
      </trkpt>
      <trkpt lat="47.76738" lon="-1.82664">
        <ele>15.1</ele>
      </trkpt>
      <trkpt lat="47.76736" lon="-1.82672">
        <ele>15.2</ele>
      </trkpt>
      <trkpt lat="47.76734" lon="-1.82679">
        <ele>15.1</ele>
      </trkpt>
      <trkpt lat="47.76732" lon="-1.82685">
        <ele>15.2</ele>
      </trkpt>
      <trkpt lat="47.7673" lon="-1.82692">
        <ele>15.1</ele>
      </trkpt>
      <trkpt lat="47.76729" lon="-1.82699">
        <ele>15.3</ele>
      </trkpt>
      <trkpt lat="47.76729" lon="-1.82704">
        <ele>15.5</ele>
      </trkpt>
      <trkpt lat="47.76729" lon="-1.8271">
        <ele>15.8</ele>
      </trkpt>
      <trkpt lat="47.76729" lon="-1.82717">
        <ele>16</ele>
      </trkpt>
      <trkpt lat="47.76728" lon="-1.82724">
        <ele>16.2</ele>
      </trkpt>
      <trkpt lat="47.76727" lon="-1.82731">
        <ele>16.3</ele>
      </trkpt>
      <trkpt lat="47.76727" lon="-1.82738">
        <ele>16.6</ele>
      </trkpt>
      <trkpt lat="47.76727" lon="-1.82745">
        <ele>17</ele>
      </trkpt>
      <trkpt lat="47.76728" lon="-1.82753">
        <ele>17.4</ele>
      </trkpt>
      <trkpt lat="47.76727" lon="-1.82761">
        <ele>17.6</ele>
      </trkpt>
      <trkpt lat="47.76725" lon="-1.82769">
        <ele>17.8</ele>
      </trkpt>
      <trkpt lat="47.76724" lon="-1.82776">
        <ele>18</ele>
      </trkpt>
      <trkpt lat="47.76722" lon="-1.82783">
        <ele>18.1</ele>
      </trkpt>
      <trkpt lat="47.76721" lon="-1.8279">
        <ele>18.2</ele>
      </trkpt>
      <trkpt lat="47.76719" lon="-1.82798">
        <ele>18.2</ele>
      </trkpt>
      <trkpt lat="47.76716" lon="-1.82806">
        <ele>18.3</ele>
      </trkpt>
      <trkpt lat="47.76715" lon="-1.82812">
        <ele>18.5</ele>
      </trkpt>
      <trkpt lat="47.76715" lon="-1.82818">
        <ele>18.7</ele>
      </trkpt>
      <trkpt lat="47.76714" lon="-1.82824">
        <ele>18.9</ele>
      </trkpt>
      <trkpt lat="47.76713" lon="-1.82829">
        <ele>19</ele>
      </trkpt>
      <trkpt lat="47.76711" lon="-1.82835">
        <ele>19.1</ele>
      </trkpt>
      <trkpt lat="47.7671" lon="-1.82841">
        <ele>19.4</ele>
      </trkpt>
      <trkpt lat="47.76709" lon="-1.82846">
        <ele>19.6</ele>
      </trkpt>
      <trkpt lat="47.76708" lon="-1.82851">
        <ele>19.8</ele>
      </trkpt>
      <trkpt lat="47.76705" lon="-1.82856">
        <ele>19.8</ele>
      </trkpt>
      <trkpt lat="47.76701" lon="-1.82862">
        <ele>19.5</ele>
      </trkpt>
      <trkpt lat="47.76699" lon="-1.82867">
        <ele>19.5</ele>
      </trkpt>
      <trkpt lat="47.76696" lon="-1.82873">
        <ele>19.4</ele>
      </trkpt>
      <trkpt lat="47.76693" lon="-1.82879">
        <ele>19.4</ele>
      </trkpt>
      <trkpt lat="47.76691" lon="-1.82885">
        <ele>19.5</ele>
      </trkpt>
      <trkpt lat="47.76688" lon="-1.82893">
        <ele>19.4</ele>
      </trkpt>
      <trkpt lat="47.76685" lon="-1.82899">
        <ele>19.3</ele>
      </trkpt>
      <trkpt lat="47.76683" lon="-1.82906">
        <ele>19.4</ele>
      </trkpt>
      <trkpt lat="47.76682" lon="-1.82912">
        <ele>19.5</ele>
      </trkpt>
      <trkpt lat="47.7668" lon="-1.82918">
        <ele>19.6</ele>
      </trkpt>
      <trkpt lat="47.76678" lon="-1.82925">
        <ele>19.3</ele>
      </trkpt>
      <trkpt lat="47.76675" lon="-1.82932">
        <ele>18.9</ele>
      </trkpt>
      <trkpt lat="47.76673" lon="-1.82939">
        <ele>18.5</ele>
      </trkpt>
      <trkpt lat="47.7667" lon="-1.82944">
        <ele>17.9</ele>
      </trkpt>
      <trkpt lat="47.76668" lon="-1.82951">
        <ele>17.2</ele>
      </trkpt>
      <trkpt lat="47.76665" lon="-1.82959">
        <ele>16.8</ele>
      </trkpt>
      <trkpt lat="47.76664" lon="-1.82965">
        <ele>16.7</ele>
      </trkpt>
      <trkpt lat="47.76662" lon="-1.82971">
        <ele>16.3</ele>
      </trkpt>
      <trkpt lat="47.76659" lon="-1.82976">
        <ele>15.9</ele>
      </trkpt>
      <trkpt lat="47.76657" lon="-1.82984">
        <ele>15.6</ele>
      </trkpt>
      <trkpt lat="47.76657" lon="-1.82991">
        <ele>15.6</ele>
      </trkpt>
      <trkpt lat="47.76658" lon="-1.83">
        <ele>15.7</ele>
      </trkpt>
      <trkpt lat="47.76659" lon="-1.83008">
        <ele>15.9</ele>
      </trkpt>
      <trkpt lat="47.7666" lon="-1.83015">
        <ele>16.2</ele>
      </trkpt>
      <trkpt lat="47.76662" lon="-1.83021">
        <ele>16.5</ele>
      </trkpt>
      <trkpt lat="47.76663" lon="-1.83028">
        <ele>16.7</ele>
      </trkpt>
      <trkpt lat="47.76663" lon="-1.83036">
        <ele>16.9</ele>
      </trkpt>
      <trkpt lat="47.76663" lon="-1.83044">
        <ele>17</ele>
      </trkpt>
      <trkpt lat="47.76664" lon="-1.83052">
        <ele>17.2</ele>
      </trkpt>
      <trkpt lat="47.76663" lon="-1.83057">
        <ele>17.2</ele>
      </trkpt>
      <trkpt lat="47.7666" lon="-1.83065">
        <ele>16.8</ele>
      </trkpt>
      <trkpt lat="47.76659" lon="-1.83073">
        <ele>16.7</ele>
      </trkpt>
      <trkpt lat="47.76656" lon="-1.8308">
        <ele>16.4</ele>
      </trkpt>
      <trkpt lat="47.76655" lon="-1.83087">
        <ele>16.4</ele>
      </trkpt>
      <trkpt lat="47.76654" lon="-1.83094">
        <ele>16.6</ele>
      </trkpt>
      <trkpt lat="47.76652" lon="-1.83099">
        <ele>16.5</ele>
      </trkpt>
      <trkpt lat="47.7665" lon="-1.83105">
        <ele>16.4</ele>
      </trkpt>
      <trkpt lat="47.76646" lon="-1.83112">
        <ele>16.2</ele>
      </trkpt>
      <trkpt lat="47.76644" lon="-1.83118">
        <ele>16.2</ele>
      </trkpt>
      <trkpt lat="47.76643" lon="-1.83128">
        <ele>16.2</ele>
      </trkpt>
      <trkpt lat="47.76641" lon="-1.83136">
        <ele>16.3</ele>
      </trkpt>
      <trkpt lat="47.76641" lon="-1.83144">
        <ele>16.6</ele>
      </trkpt>
      <trkpt lat="47.76641" lon="-1.83151">
        <ele>16.9</ele>
      </trkpt>
      <trkpt lat="47.7664" lon="-1.83159">
        <ele>16.9</ele>
      </trkpt>
      <trkpt lat="47.7664" lon="-1.83165">
        <ele>17.1</ele>
      </trkpt>
      <trkpt lat="47.76639" lon="-1.83173">
        <ele>17.4</ele>
      </trkpt>
      <trkpt lat="47.76638" lon="-1.83181">
        <ele>17.8</ele>
      </trkpt>
      <trkpt lat="47.76638" lon="-1.83189">
        <ele>18.1</ele>
      </trkpt>
      <trkpt lat="47.76638" lon="-1.83196">
        <ele>18.5</ele>
      </trkpt>
      <trkpt lat="47.76636" lon="-1.83202">
        <ele>18.5</ele>
      </trkpt>
      <trkpt lat="47.76633" lon="-1.8321">
        <ele>18.5</ele>
      </trkpt>
      <trkpt lat="47.76634" lon="-1.83218">
        <ele>19</ele>
      </trkpt>
      <trkpt lat="47.76634" lon="-1.83223">
        <ele>19.5</ele>
      </trkpt>
      <trkpt lat="47.76634" lon="-1.8323">
        <ele>19.7</ele>
      </trkpt>
      <trkpt lat="47.76632" lon="-1.83235">
        <ele>19.6</ele>
      </trkpt>
      <trkpt lat="47.76629" lon="-1.83242">
        <ele>19.4</ele>
      </trkpt>
      <trkpt lat="47.76627" lon="-1.83247">
        <ele>19.3</ele>
      </trkpt>
      <trkpt lat="47.76626" lon="-1.83251">
        <ele>19.1</ele>
      </trkpt>
      <trkpt lat="47.76623" lon="-1.83257">
        <ele>18.9</ele>
      </trkpt>
      <trkpt lat="47.76622" lon="-1.83264">
        <ele>18.8</ele>
      </trkpt>
      <trkpt lat="47.7662" lon="-1.83271">
        <ele>18.9</ele>
      </trkpt>
      <trkpt lat="47.76619" lon="-1.83277">
        <ele>18.8</ele>
      </trkpt>
      <trkpt lat="47.76617" lon="-1.83282">
        <ele>18.6</ele>
      </trkpt>
      <trkpt lat="47.76616" lon="-1.83289">
        <ele>18.5</ele>
      </trkpt>
      <trkpt lat="47.76613" lon="-1.83296">
        <ele>18.2</ele>
      </trkpt>
      <trkpt lat="47.76612" lon="-1.83302">
        <ele>18</ele>
      </trkpt>
      <trkpt lat="47.7661" lon="-1.83308">
        <ele>17.9</ele>
      </trkpt>
      <trkpt lat="47.76607" lon="-1.83315">
        <ele>17.5</ele>
      </trkpt>
      <trkpt lat="47.76604" lon="-1.83322">
        <ele>17</ele>
      </trkpt>
      <trkpt lat="47.76602" lon="-1.83331">
        <ele>16.6</ele>
      </trkpt>
      <trkpt lat="47.76601" lon="-1.83338">
        <ele>16.5</ele>
      </trkpt>
      <trkpt lat="47.76599" lon="-1.83347">
        <ele>16.4</ele>
      </trkpt>
      <trkpt lat="47.76597" lon="-1.83353">
        <ele>16.2</ele>
      </trkpt>
      <trkpt lat="47.76595" lon="-1.8336">
        <ele>15.9</ele>
      </trkpt>
      <trkpt lat="47.76593" lon="-1.8337">
        <ele>15.6</ele>
      </trkpt>
      <trkpt lat="47.76591" lon="-1.83378">
        <ele>15.4</ele>
      </trkpt>
      <trkpt lat="47.7659" lon="-1.83385">
        <ele>15.2</ele>
      </trkpt>
      <trkpt lat="47.7659" lon="-1.83392">
        <ele>15.3</ele>
      </trkpt>
      <trkpt lat="47.7659" lon="-1.83399">
        <ele>15.6</ele>
      </trkpt>
      <trkpt lat="47.76589" lon="-1.83405">
        <ele>15.5</ele>
      </trkpt>
      <trkpt lat="47.76588" lon="-1.83412">
        <ele>15.3</ele>
      </trkpt>
      <trkpt lat="47.76586" lon="-1.8342">
        <ele>14.9</ele>
      </trkpt>
      <trkpt lat="47.76583" lon="-1.83428">
        <ele>14.4</ele>
      </trkpt>
      <trkpt lat="47.7658" lon="-1.83435">
        <ele>14.4</ele>
      </trkpt>
      <trkpt lat="47.76579" lon="-1.83443">
        <ele>14.6</ele>
      </trkpt>
      <trkpt lat="47.76579" lon="-1.83449">
        <ele>14.8</ele>
      </trkpt>
      <trkpt lat="47.76578" lon="-1.83457">
        <ele>15</ele>
      </trkpt>
      <trkpt lat="47.76577" lon="-1.83464">
        <ele>15.1</ele>
      </trkpt>
      <trkpt lat="47.76575" lon="-1.83473">
        <ele>15.2</ele>
      </trkpt>
      <trkpt lat="47.76573" lon="-1.83482">
        <ele>15.3</ele>
      </trkpt>
      <trkpt lat="47.76573" lon="-1.83491">
        <ele>15.6</ele>
      </trkpt>
      <trkpt lat="47.76567" lon="-1.835">
        <ele>15.2</ele>
      </trkpt>
      <trkpt lat="47.76561" lon="-1.83504">
        <ele>14.9</ele>
      </trkpt>
      <trkpt lat="47.76558" lon="-1.83509">
        <ele>14.8</ele>
      </trkpt>
      <trkpt lat="47.76556" lon="-1.83516">
        <ele>15</ele>
      </trkpt>
      <trkpt lat="47.76556" lon="-1.83525">
        <ele>15.4</ele>
      </trkpt>
      <trkpt lat="47.76555" lon="-1.83533">
        <ele>15.8</ele>
      </trkpt>
      <trkpt lat="47.76552" lon="-1.83539">
        <ele>15.8</ele>
      </trkpt>
      <trkpt lat="47.76551" lon="-1.83546">
        <ele>15.9</ele>
      </trkpt>
      <trkpt lat="47.76549" lon="-1.83552">
        <ele>16</ele>
      </trkpt>
      <trkpt lat="47.76546" lon="-1.83559">
        <ele>16</ele>
      </trkpt>
      <trkpt lat="47.76544" lon="-1.83565">
        <ele>15.9</ele>
      </trkpt>
      <trkpt lat="47.76542" lon="-1.8357">
        <ele>15.8</ele>
      </trkpt>
      <trkpt lat="47.76539" lon="-1.83578">
        <ele>15.9</ele>
      </trkpt>
      <trkpt lat="47.76538" lon="-1.83585">
        <ele>16.1</ele>
      </trkpt>
      <trkpt lat="47.76538" lon="-1.83591">
        <ele>16.3</ele>
      </trkpt>
      <trkpt lat="47.76536" lon="-1.83599">
        <ele>16.4</ele>
      </trkpt>
      <trkpt lat="47.76535" lon="-1.83605">
        <ele>16.6</ele>
      </trkpt>
      <trkpt lat="47.76534" lon="-1.83613">
        <ele>16.8</ele>
      </trkpt>
      <trkpt lat="47.76532" lon="-1.83621">
        <ele>16.9</ele>
      </trkpt>
      <trkpt lat="47.7653" lon="-1.83628">
        <ele>17</ele>
      </trkpt>
      <trkpt lat="47.76528" lon="-1.83635">
        <ele>17</ele>
      </trkpt>
      <trkpt lat="47.76526" lon="-1.83641">
        <ele>17.1</ele>
      </trkpt>
      <trkpt lat="47.76526" lon="-1.83647">
        <ele>17.3</ele>
      </trkpt>
      <trkpt lat="47.76524" lon="-1.83653">
        <ele>17.4</ele>
      </trkpt>
      <trkpt lat="47.76523" lon="-1.8366">
        <ele>17.6</ele>
      </trkpt>
      <trkpt lat="47.76522" lon="-1.83666">
        <ele>17.6</ele>
      </trkpt>
      <trkpt lat="47.7652" lon="-1.83673">
        <ele>17.3</ele>
      </trkpt>
      <trkpt lat="47.76517" lon="-1.83679">
        <ele>16.8</ele>
      </trkpt>
      <trkpt lat="47.76514" lon="-1.83685">
        <ele>16.3</ele>
      </trkpt>
      <trkpt lat="47.76512" lon="-1.83692">
        <ele>16</ele>
      </trkpt>
      <trkpt lat="47.76509" lon="-1.83698">
        <ele>15.5</ele>
      </trkpt>
      <trkpt lat="47.76507" lon="-1.83705">
        <ele>15.2</ele>
      </trkpt>
      <trkpt lat="47.76507" lon="-1.83713">
        <ele>15.1</ele>
      </trkpt>
      <trkpt lat="47.76506" lon="-1.83721">
        <ele>15</ele>
      </trkpt>
      <trkpt lat="47.76506" lon="-1.8373">
        <ele>15</ele>
      </trkpt>
      <trkpt lat="47.76506" lon="-1.8374">
        <ele>15</ele>
      </trkpt>
      <trkpt lat="47.76506" lon="-1.83746">
        <ele>15</ele>
      </trkpt>
      <trkpt lat="47.76506" lon="-1.83754">
        <ele>14.9</ele>
      </trkpt>
      <trkpt lat="47.76505" lon="-1.83762">
        <ele>14.8</ele>
      </trkpt>
      <trkpt lat="47.76502" lon="-1.8377">
        <ele>14.5</ele>
      </trkpt>
      <trkpt lat="47.76503" lon="-1.83778">
        <ele>14.7</ele>
      </trkpt>
      <trkpt lat="47.76502" lon="-1.83786">
        <ele>14.7</ele>
      </trkpt>
      <trkpt lat="47.76502" lon="-1.83794">
        <ele>14.8</ele>
      </trkpt>
      <trkpt lat="47.76502" lon="-1.838">
        <ele>14.8</ele>
      </trkpt>
      <trkpt lat="47.76502" lon="-1.83805">
        <ele>14.8</ele>
      </trkpt>
      <trkpt lat="47.76503" lon="-1.8381">
        <ele>15</ele>
      </trkpt>
      <trkpt lat="47.76504" lon="-1.83814">
        <ele>15.1</ele>
      </trkpt>
      <trkpt lat="47.76505" lon="-1.83818">
        <ele>15.2</ele>
      </trkpt>
      <trkpt lat="47.76507" lon="-1.83823">
        <ele>15.3</ele>
      </trkpt>
      <trkpt lat="47.76508" lon="-1.83827">
        <ele>15.4</ele>
      </trkpt>
      <trkpt lat="47.76508" lon="-1.83832">
        <ele>15.5</ele>
      </trkpt>
      <trkpt lat="47.76506" lon="-1.83835">
        <ele>15.6</ele>
      </trkpt>
      <trkpt lat="47.76507" lon="-1.83839">
        <ele>15.9</ele>
      </trkpt>
      <trkpt lat="47.76507" lon="-1.83844">
        <ele>16.5</ele>
      </trkpt>
      <trkpt lat="47.76507" lon="-1.83847">
        <ele>16.7</ele>
      </trkpt>
      <trkpt lat="47.76505" lon="-1.83847">
        <ele>16.5</ele>
      </trkpt>
      <trkpt lat="47.76501" lon="-1.83847">
        <ele>16.2</ele>
      </trkpt>
      <trkpt lat="47.76496" lon="-1.83846">
        <ele>15.8</ele>
      </trkpt>
      <trkpt lat="47.76493" lon="-1.83846">
        <ele>15.6</ele>
      </trkpt>
      <trkpt lat="47.76489" lon="-1.83846">
        <ele>15.4</ele>
      </trkpt>
      <trkpt lat="47.76484" lon="-1.83848">
        <ele>15.2</ele>
      </trkpt>
      <trkpt lat="47.76481" lon="-1.8385">
        <ele>15.1</ele>
      </trkpt>
      <trkpt lat="47.7648" lon="-1.83853">
        <ele>15.1</ele>
      </trkpt>
      <trkpt lat="47.76478" lon="-1.83856">
        <ele>15.2</ele>
      </trkpt>
      <trkpt lat="47.76474" lon="-1.83862">
        <ele>15.2</ele>
      </trkpt>
      <trkpt lat="47.76472" lon="-1.83866">
        <ele>15.2</ele>
      </trkpt>
      <trkpt lat="47.7647" lon="-1.83871">
        <ele>15.3</ele>
      </trkpt>
      <trkpt lat="47.76469" lon="-1.83876">
        <ele>15.4</ele>
      </trkpt>
      <trkpt lat="47.76468" lon="-1.83881">
        <ele>15.5</ele>
      </trkpt>
      <trkpt lat="47.76467" lon="-1.83888">
        <ele>15.7</ele>
      </trkpt>
      <trkpt lat="47.76466" lon="-1.83895">
        <ele>15.9</ele>
      </trkpt>
      <trkpt lat="47.76465" lon="-1.83901">
        <ele>16</ele>
      </trkpt>
      <trkpt lat="47.76464" lon="-1.83907">
        <ele>16</ele>
      </trkpt>
      <trkpt lat="47.76462" lon="-1.83913">
        <ele>16</ele>
      </trkpt>
      <trkpt lat="47.76461" lon="-1.83919">
        <ele>15.9</ele>
      </trkpt>
      <trkpt lat="47.7646" lon="-1.83925">
        <ele>15.9</ele>
      </trkpt>
      <trkpt lat="47.76459" lon="-1.83931">
        <ele>15.9</ele>
      </trkpt>
      <trkpt lat="47.76458" lon="-1.83936">
        <ele>15.9</ele>
      </trkpt>
      <trkpt lat="47.76456" lon="-1.83942">
        <ele>15.8</ele>
      </trkpt>
      <trkpt lat="47.76455" lon="-1.83949">
        <ele>15.7</ele>
      </trkpt>
      <trkpt lat="47.76455" lon="-1.83956">
        <ele>15.8</ele>
      </trkpt>
      <trkpt lat="47.76455" lon="-1.83962">
        <ele>16</ele>
      </trkpt>
      <trkpt lat="47.76455" lon="-1.83967">
        <ele>16.1</ele>
      </trkpt>
      <trkpt lat="47.76454" lon="-1.83973">
        <ele>15.9</ele>
      </trkpt>
      <trkpt lat="47.76453" lon="-1.83978">
        <ele>15.8</ele>
      </trkpt>
      <trkpt lat="47.76452" lon="-1.83986">
        <ele>15.8</ele>
      </trkpt>
      <trkpt lat="47.7645" lon="-1.83992">
        <ele>15.6</ele>
      </trkpt>
      <trkpt lat="47.76449" lon="-1.84001">
        <ele>15.5</ele>
      </trkpt>
      <trkpt lat="47.76449" lon="-1.8401">
        <ele>15.5</ele>
      </trkpt>
      <trkpt lat="47.76449" lon="-1.84019">
        <ele>15.7</ele>
      </trkpt>
      <trkpt lat="47.76449" lon="-1.84027">
        <ele>15.9</ele>
      </trkpt>
      <trkpt lat="47.76448" lon="-1.84035">
        <ele>15.9</ele>
      </trkpt>
      <trkpt lat="47.76448" lon="-1.84043">
        <ele>16</ele>
      </trkpt>
      <trkpt lat="47.76449" lon="-1.84049">
        <ele>16.3</ele>
      </trkpt>
      <trkpt lat="47.7645" lon="-1.84058">
        <ele>16.6</ele>
      </trkpt>
      <trkpt lat="47.7645" lon="-1.84067">
        <ele>16.9</ele>
      </trkpt>
      <trkpt lat="47.76449" lon="-1.84075">
        <ele>16.9</ele>
      </trkpt>
      <trkpt lat="47.76449" lon="-1.8408">
        <ele>16.9</ele>
      </trkpt>
      <trkpt lat="47.76448" lon="-1.84088">
        <ele>16.7</ele>
      </trkpt>
      <trkpt lat="47.76448" lon="-1.84095">
        <ele>16.5</ele>
      </trkpt>
      <trkpt lat="47.76448" lon="-1.84103">
        <ele>16.4</ele>
      </trkpt>
      <trkpt lat="47.76447" lon="-1.84111">
        <ele>16</ele>
      </trkpt>
      <trkpt lat="47.76445" lon="-1.84118">
        <ele>15.6</ele>
      </trkpt>
      <trkpt lat="47.76445" lon="-1.84126">
        <ele>15.5</ele>
      </trkpt>
      <trkpt lat="47.76446" lon="-1.84134">
        <ele>15.5</ele>
      </trkpt>
      <trkpt lat="47.76445" lon="-1.84143">
        <ele>15.3</ele>
      </trkpt>
      <trkpt lat="47.76446" lon="-1.8415">
        <ele>15.2</ele>
      </trkpt>
      <trkpt lat="47.76447" lon="-1.84156">
        <ele>15.4</ele>
      </trkpt>
      <trkpt lat="47.76445" lon="-1.84162">
        <ele>14.9</ele>
      </trkpt>
      <trkpt lat="47.76443" lon="-1.8417">
        <ele>14.3</ele>
      </trkpt>
      <trkpt lat="47.76443" lon="-1.84179">
        <ele>14.2</ele>
      </trkpt>
      <trkpt lat="47.76445" lon="-1.84186">
        <ele>14.5</ele>
      </trkpt>
      <trkpt lat="47.76445" lon="-1.84193">
        <ele>14.5</ele>
      </trkpt>
      <trkpt lat="47.76446" lon="-1.842">
        <ele>14.6</ele>
      </trkpt>
      <trkpt lat="47.76446" lon="-1.84208">
        <ele>14.6</ele>
      </trkpt>
      <trkpt lat="47.76447" lon="-1.84215">
        <ele>14.7</ele>
      </trkpt>
      <trkpt lat="47.76447" lon="-1.84222">
        <ele>14.7</ele>
      </trkpt>
      <trkpt lat="47.76448" lon="-1.84228">
        <ele>14.8</ele>
      </trkpt>
      <trkpt lat="47.76449" lon="-1.84234">
        <ele>14.9</ele>
      </trkpt>
      <trkpt lat="47.7645" lon="-1.8424">
        <ele>15</ele>
      </trkpt>
      <trkpt lat="47.76451" lon="-1.84246">
        <ele>15.2</ele>
      </trkpt>
      <trkpt lat="47.76452" lon="-1.84252">
        <ele>15.5</ele>
      </trkpt>
      <trkpt lat="47.76453" lon="-1.84258">
        <ele>15.6</ele>
      </trkpt>
      <trkpt lat="47.76454" lon="-1.84265">
        <ele>15.7</ele>
      </trkpt>
      <trkpt lat="47.76455" lon="-1.8427">
        <ele>15.6</ele>
      </trkpt>
      <trkpt lat="47.76455" lon="-1.84275">
        <ele>15.5</ele>
      </trkpt>
      <trkpt lat="47.76455" lon="-1.84279">
        <ele>15.4</ele>
      </trkpt>
      <trkpt lat="47.76455" lon="-1.84282">
        <ele>15.4</ele>
      </trkpt>
      <trkpt lat="47.76456" lon="-1.84285">
        <ele>15.5</ele>
      </trkpt>
      <trkpt lat="47.76458" lon="-1.84288">
        <ele>15.7</ele>
      </trkpt>
      <trkpt lat="47.7646" lon="-1.84291">
        <ele>16</ele>
      </trkpt>
      <trkpt lat="47.76461" lon="-1.84293">
        <ele>16.2</ele>
      </trkpt>
      <trkpt lat="47.76462" lon="-1.84295">
        <ele>16.4</ele>
      </trkpt>
      <trkpt lat="47.76463" lon="-1.84295">
        <ele>16.6</ele>
      </trkpt>
      <trkpt lat="47.76464" lon="-1.84297">
        <ele>16.7</ele>
      </trkpt>
      <trkpt lat="47.76466" lon="-1.843">
        <ele>16.9</ele>
      </trkpt>
      <trkpt lat="47.76467" lon="-1.84301">
        <ele>17.2</ele>
      </trkpt>
      <trkpt lat="47.76469" lon="-1.84302">
        <ele>17.4</ele>
      </trkpt>
      <trkpt lat="47.7647" lon="-1.84304">
        <ele>17.6</ele>
      </trkpt>
      <trkpt lat="47.76471" lon="-1.84305">
        <ele>17.7</ele>
      </trkpt>
      <trkpt lat="47.76472" lon="-1.84307">
        <ele>17.9</ele>
      </trkpt>
      <trkpt lat="47.76473" lon="-1.84309">
        <ele>17.9</ele>
      </trkpt>
      <trkpt lat="47.76474" lon="-1.84311">
        <ele>18</ele>
      </trkpt>
      <trkpt lat="47.76475" lon="-1.84313">
        <ele>18.1</ele>
      </trkpt>
      <trkpt lat="47.76476" lon="-1.84314">
        <ele>18.2</ele>
      </trkpt>
      <trkpt lat="47.76478" lon="-1.84317">
        <ele>18.4</ele>
      </trkpt>
      <trkpt lat="47.7648" lon="-1.84319">
        <ele>18.7</ele>
      </trkpt>
      <trkpt lat="47.76481" lon="-1.8432">
        <ele>18.8</ele>
      </trkpt>
      <trkpt lat="47.76482" lon="-1.84321">
        <ele>18.8</ele>
      </trkpt>
      <trkpt lat="47.76484" lon="-1.84322">
        <ele>19.2</ele>
      </trkpt>
      <trkpt lat="47.76485" lon="-1.84323">
        <ele>19.3</ele>
      </trkpt>
      <trkpt lat="47.76488" lon="-1.84326">
        <ele>19.6</ele>
      </trkpt>
      <trkpt lat="47.76489" lon="-1.84328">
        <ele>19.6</ele>
      </trkpt>
      <trkpt lat="47.76487" lon="-1.84329">
        <ele>19.2</ele>
      </trkpt>
      <trkpt lat="47.76489" lon="-1.84331">
        <ele>19.3</ele>
      </trkpt>
      <trkpt lat="47.76489" lon="-1.84332">
        <ele>19.4</ele>
      </trkpt>
      <trkpt lat="47.76491" lon="-1.84333">
        <ele>19.6</ele>
      </trkpt>
      <trkpt lat="47.76492" lon="-1.84333">
        <ele>19.8</ele>
      </trkpt>
      <trkpt lat="47.76494" lon="-1.84333">
        <ele>20.1</ele>
      </trkpt>
      <trkpt lat="47.76495" lon="-1.84334">
        <ele>20.2</ele>
      </trkpt>
      <trkpt lat="47.76497" lon="-1.84335">
        <ele>20.4</ele>
      </trkpt>
      <trkpt lat="47.76499" lon="-1.84336">
        <ele>20.7</ele>
      </trkpt>
      <trkpt lat="47.765" lon="-1.84337">
        <ele>20.7</ele>
      </trkpt>
      <trkpt lat="47.76502" lon="-1.84338">
        <ele>20.8</ele>
      </trkpt>
      <trkpt lat="47.76503" lon="-1.84338">
        <ele>20.8</ele>
      </trkpt>
      <trkpt lat="47.76504" lon="-1.84339">
        <ele>20.9</ele>
      </trkpt>
      <trkpt lat="47.76506" lon="-1.84339">
        <ele>21</ele>
      </trkpt>
      <trkpt lat="47.76507" lon="-1.8434">
        <ele>21</ele>
      </trkpt>
      <trkpt lat="47.76508" lon="-1.8434">
        <ele>21.1</ele>
      </trkpt>
      <trkpt lat="47.76511" lon="-1.84342">
        <ele>21.2</ele>
      </trkpt>
      <trkpt lat="47.76512" lon="-1.84343">
        <ele>21.2</ele>
      </trkpt>
      <trkpt lat="47.76515" lon="-1.84344">
        <ele>21.3</ele>
      </trkpt>
      <trkpt lat="47.76516" lon="-1.84345">
        <ele>21.4</ele>
      </trkpt>
      <trkpt lat="47.76518" lon="-1.84345">
        <ele>21.5</ele>
      </trkpt>
      <trkpt lat="47.7652" lon="-1.84346">
        <ele>21.6</ele>
      </trkpt>
      <trkpt lat="47.76523" lon="-1.84348">
        <ele>21.7</ele>
      </trkpt>
      <trkpt lat="47.76525" lon="-1.84349">
        <ele>21.8</ele>
      </trkpt>
      <trkpt lat="47.76528" lon="-1.84349">
        <ele>22</ele>
      </trkpt>
      <trkpt lat="47.76531" lon="-1.8435">
        <ele>22.1</ele>
      </trkpt>
      <trkpt lat="47.76534" lon="-1.84352">
        <ele>22.3</ele>
      </trkpt>
      <trkpt lat="47.76537" lon="-1.84353">
        <ele>22.5</ele>
      </trkpt>
      <trkpt lat="47.76541" lon="-1.84354">
        <ele>22.6</ele>
      </trkpt>
      <trkpt lat="47.76544" lon="-1.84355">
        <ele>22.8</ele>
      </trkpt>
      <trkpt lat="47.76546" lon="-1.84356">
        <ele>23</ele>
      </trkpt>
      <trkpt lat="47.76549" lon="-1.84356">
        <ele>23.2</ele>
      </trkpt>
      <trkpt lat="47.76552" lon="-1.84357">
        <ele>23.3</ele>
      </trkpt>
      <trkpt lat="47.76554" lon="-1.84358">
        <ele>23.5</ele>
      </trkpt>
      <trkpt lat="47.76557" lon="-1.84359">
        <ele>23.7</ele>
      </trkpt>
      <trkpt lat="47.76561" lon="-1.8436">
        <ele>23.9</ele>
      </trkpt>
      <trkpt lat="47.76564" lon="-1.84361">
        <ele>24.1</ele>
      </trkpt>
      <trkpt lat="47.76567" lon="-1.84361">
        <ele>24.3</ele>
      </trkpt>
      <trkpt lat="47.76571" lon="-1.84362">
        <ele>24.5</ele>
      </trkpt>
      <trkpt lat="47.76574" lon="-1.84363">
        <ele>24.7</ele>
      </trkpt>
      <trkpt lat="47.76577" lon="-1.84362">
        <ele>25.1</ele>
      </trkpt>
      <trkpt lat="47.7658" lon="-1.84361">
        <ele>25.4</ele>
      </trkpt>
      <trkpt lat="47.76584" lon="-1.84363">
        <ele>25.5</ele>
      </trkpt>
      <trkpt lat="47.76586" lon="-1.84364">
        <ele>25.4</ele>
      </trkpt>
      <trkpt lat="47.7659" lon="-1.84365">
        <ele>25.4</ele>
      </trkpt>
      <trkpt lat="47.76593" lon="-1.84366">
        <ele>25.3</ele>
      </trkpt>
      <trkpt lat="47.76597" lon="-1.84366">
        <ele>25.2</ele>
      </trkpt>
      <trkpt lat="47.76601" lon="-1.84365">
        <ele>25.3</ele>
      </trkpt>
      <trkpt lat="47.76605" lon="-1.84366">
        <ele>25.2</ele>
      </trkpt>
      <trkpt lat="47.76608" lon="-1.84367">
        <ele>25.2</ele>
      </trkpt>
      <trkpt lat="47.76612" lon="-1.84367">
        <ele>25.2</ele>
      </trkpt>
      <trkpt lat="47.76615" lon="-1.84368">
        <ele>25.1</ele>
      </trkpt>
      <trkpt lat="47.76619" lon="-1.84368">
        <ele>25.1</ele>
      </trkpt>
      <trkpt lat="47.76623" lon="-1.84369">
        <ele>25</ele>
      </trkpt>
      <trkpt lat="47.76626" lon="-1.84369">
        <ele>25</ele>
      </trkpt>
      <trkpt lat="47.7663" lon="-1.84369">
        <ele>25</ele>
      </trkpt>
      <trkpt lat="47.76633" lon="-1.84369">
        <ele>25</ele>
      </trkpt>
      <trkpt lat="47.76637" lon="-1.84368">
        <ele>25.1</ele>
      </trkpt>
      <trkpt lat="47.7664" lon="-1.84368">
        <ele>25.1</ele>
      </trkpt>
      <trkpt lat="47.76643" lon="-1.84368">
        <ele>25.1</ele>
      </trkpt>
      <trkpt lat="47.76646" lon="-1.84368">
        <ele>25.1</ele>
      </trkpt>
      <trkpt lat="47.7665" lon="-1.84368">
        <ele>25.1</ele>
      </trkpt>
      <trkpt lat="47.76654" lon="-1.84368">
        <ele>25.1</ele>
      </trkpt>
      <trkpt lat="47.76657" lon="-1.84369">
        <ele>25</ele>
      </trkpt>
      <trkpt lat="47.7666" lon="-1.84369">
        <ele>25</ele>
      </trkpt>
      <trkpt lat="47.76664" lon="-1.84369">
        <ele>25</ele>
      </trkpt>
      <trkpt lat="47.76668" lon="-1.84369">
        <ele>25</ele>
      </trkpt>
      <trkpt lat="47.76672" lon="-1.84369">
        <ele>24.9</ele>
      </trkpt>
      <trkpt lat="47.76676" lon="-1.84369">
        <ele>24.9</ele>
      </trkpt>
      <trkpt lat="47.7668" lon="-1.84369">
        <ele>24.9</ele>
      </trkpt>
      <trkpt lat="47.76684" lon="-1.84369">
        <ele>24.9</ele>
      </trkpt>
      <trkpt lat="47.76689" lon="-1.84368">
        <ele>24.9</ele>
      </trkpt>
      <trkpt lat="47.76694" lon="-1.84368">
        <ele>24.9</ele>
      </trkpt>
      <trkpt lat="47.76698" lon="-1.84368">
        <ele>24.9</ele>
      </trkpt>
      <trkpt lat="47.76702" lon="-1.84368">
        <ele>24.9</ele>
      </trkpt>
      <trkpt lat="47.76707" lon="-1.84368">
        <ele>24.8</ele>
      </trkpt>
      <trkpt lat="47.76713" lon="-1.84367">
        <ele>24.8</ele>
      </trkpt>
      <trkpt lat="47.76717" lon="-1.84367">
        <ele>24.8</ele>
      </trkpt>
      <trkpt lat="47.76722" lon="-1.84366">
        <ele>24.9</ele>
      </trkpt>
      <trkpt lat="47.76725" lon="-1.84365">
        <ele>24.9</ele>
      </trkpt>
      <trkpt lat="47.7673" lon="-1.84365">
        <ele>24.9</ele>
      </trkpt>
      <trkpt lat="47.76735" lon="-1.84365">
        <ele>24.9</ele>
      </trkpt>
      <trkpt lat="47.7674" lon="-1.84364">
        <ele>24.9</ele>
      </trkpt>
      <trkpt lat="47.76745" lon="-1.84363">
        <ele>24.9</ele>
      </trkpt>
      <trkpt lat="47.76749" lon="-1.84363">
        <ele>24.9</ele>
      </trkpt>
      <trkpt lat="47.76754" lon="-1.84362">
        <ele>24.9</ele>
      </trkpt>
      <trkpt lat="47.76759" lon="-1.84361">
        <ele>25</ele>
      </trkpt>
      <trkpt lat="47.76764" lon="-1.8436">
        <ele>25</ele>
      </trkpt>
      <trkpt lat="47.76768" lon="-1.84359">
        <ele>25.1</ele>
      </trkpt>
      <trkpt lat="47.76772" lon="-1.84358">
        <ele>25.1</ele>
      </trkpt>
      <trkpt lat="47.76777" lon="-1.84357">
        <ele>25.2</ele>
      </trkpt>
      <trkpt lat="47.76781" lon="-1.84357">
        <ele>25.2</ele>
      </trkpt>
      <trkpt lat="47.76786" lon="-1.84356">
        <ele>25.3</ele>
      </trkpt>
      <trkpt lat="47.7679" lon="-1.84355">
        <ele>25.3</ele>
      </trkpt>
      <trkpt lat="47.76794" lon="-1.84353">
        <ele>25.4</ele>
      </trkpt>
      <trkpt lat="47.76798" lon="-1.84352">
        <ele>25.5</ele>
      </trkpt>
      <trkpt lat="47.76802" lon="-1.84351">
        <ele>25.6</ele>
      </trkpt>
      <trkpt lat="47.76807" lon="-1.84349">
        <ele>25.7</ele>
      </trkpt>
      <trkpt lat="47.76811" lon="-1.84348">
        <ele>25.8</ele>
      </trkpt>
      <trkpt lat="47.76816" lon="-1.84346">
        <ele>26</ele>
      </trkpt>
      <trkpt lat="47.7682" lon="-1.84345">
        <ele>26.1</ele>
      </trkpt>
      <trkpt lat="47.76824" lon="-1.84343">
        <ele>26.2</ele>
      </trkpt>
      <trkpt lat="47.76829" lon="-1.84342">
        <ele>26.3</ele>
      </trkpt>
      <trkpt lat="47.76834" lon="-1.84341">
        <ele>26.4</ele>
      </trkpt>
      <trkpt lat="47.76838" lon="-1.84339">
        <ele>26.3</ele>
      </trkpt>
      <trkpt lat="47.76842" lon="-1.84337">
        <ele>26.2</ele>
      </trkpt>
      <trkpt lat="47.76847" lon="-1.84336">
        <ele>26.2</ele>
      </trkpt>
      <trkpt lat="47.76851" lon="-1.84334">
        <ele>26.1</ele>
      </trkpt>
      <trkpt lat="47.76855" lon="-1.84333">
        <ele>26.1</ele>
      </trkpt>
      <trkpt lat="47.76859" lon="-1.84331">
        <ele>26.2</ele>
      </trkpt>
      <trkpt lat="47.76863" lon="-1.84329">
        <ele>26.2</ele>
      </trkpt>
      <trkpt lat="47.76867" lon="-1.84327">
        <ele>26.3</ele>
      </trkpt>
      <trkpt lat="47.76872" lon="-1.84325">
        <ele>26.4</ele>
      </trkpt>
      <trkpt lat="47.76876" lon="-1.84324">
        <ele>26.5</ele>
      </trkpt>
      <trkpt lat="47.7688" lon="-1.84322">
        <ele>26.5</ele>
      </trkpt>
      <trkpt lat="47.76884" lon="-1.8432">
        <ele>26.6</ele>
      </trkpt>
      <trkpt lat="47.76888" lon="-1.84319">
        <ele>26.7</ele>
      </trkpt>
      <trkpt lat="47.76893" lon="-1.84316">
        <ele>26.9</ele>
      </trkpt>
      <trkpt lat="47.76897" lon="-1.84314">
        <ele>27</ele>
      </trkpt>
      <trkpt lat="47.76901" lon="-1.84312">
        <ele>27.1</ele>
      </trkpt>
      <trkpt lat="47.76905" lon="-1.8431">
        <ele>27.3</ele>
      </trkpt>
      <trkpt lat="47.76909" lon="-1.84307">
        <ele>27.4</ele>
      </trkpt>
      <trkpt lat="47.76913" lon="-1.84305">
        <ele>27.5</ele>
      </trkpt>
      <trkpt lat="47.76917" lon="-1.84303">
        <ele>27.7</ele>
      </trkpt>
      <trkpt lat="47.76921" lon="-1.84301">
        <ele>27.8</ele>
      </trkpt>
      <trkpt lat="47.76924" lon="-1.84299">
        <ele>28</ele>
      </trkpt>
      <trkpt lat="47.76927" lon="-1.84297">
        <ele>28</ele>
      </trkpt>
      <trkpt lat="47.7693" lon="-1.84295">
        <ele>28.1</ele>
      </trkpt>
      <trkpt lat="47.76932" lon="-1.84294">
        <ele>28.2</ele>
      </trkpt>
      <trkpt lat="47.76934" lon="-1.84292">
        <ele>28.3</ele>
      </trkpt>
      <trkpt lat="47.76936" lon="-1.8429">
        <ele>28.5</ele>
      </trkpt>
      <trkpt lat="47.76937" lon="-1.84288">
        <ele>28.6</ele>
      </trkpt>
      <trkpt lat="47.76939" lon="-1.84287">
        <ele>28.8</ele>
      </trkpt>
      <trkpt lat="47.7694" lon="-1.84285">
        <ele>28.8</ele>
      </trkpt>
      <trkpt lat="47.76942" lon="-1.84284">
        <ele>28.9</ele>
      </trkpt>
      <trkpt lat="47.76943" lon="-1.84283">
        <ele>29</ele>
      </trkpt>
      <trkpt lat="47.76944" lon="-1.84281">
        <ele>29.1</ele>
      </trkpt>
      <trkpt lat="47.76946" lon="-1.8428">
        <ele>29.1</ele>
      </trkpt>
      <trkpt lat="47.76947" lon="-1.84278">
        <ele>29.2</ele>
      </trkpt>
      <trkpt lat="47.76949" lon="-1.84277">
        <ele>29.3</ele>
      </trkpt>
      <trkpt lat="47.7695" lon="-1.84275">
        <ele>29.4</ele>
      </trkpt>
      <trkpt lat="47.76952" lon="-1.84274">
        <ele>29.5</ele>
      </trkpt>
      <trkpt lat="47.76953" lon="-1.84273">
        <ele>29.5</ele>
      </trkpt>
      <trkpt lat="47.76954" lon="-1.84271">
        <ele>29.7</ele>
      </trkpt>
      <trkpt lat="47.76955" lon="-1.84269">
        <ele>29.9</ele>
      </trkpt>
      <trkpt lat="47.76955" lon="-1.84268">
        <ele>30</ele>
      </trkpt>
      <trkpt lat="47.76957" lon="-1.84267">
        <ele>30</ele>
      </trkpt>
      <trkpt lat="47.76958" lon="-1.84265">
        <ele>30.1</ele>
      </trkpt>
      <trkpt lat="47.7696" lon="-1.84263">
        <ele>30.2</ele>
      </trkpt>
      <trkpt lat="47.76962" lon="-1.84261">
        <ele>30.3</ele>
      </trkpt>
      <trkpt lat="47.76963" lon="-1.8426">
        <ele>30.3</ele>
      </trkpt>
      <trkpt lat="47.76965" lon="-1.84258">
        <ele>30.3</ele>
      </trkpt>
      <trkpt lat="47.76967" lon="-1.84257">
        <ele>30.4</ele>
      </trkpt>
      <trkpt lat="47.76969" lon="-1.84255">
        <ele>30.4</ele>
      </trkpt>
      <trkpt lat="47.76971" lon="-1.84253">
        <ele>30.4</ele>
      </trkpt>
      <trkpt lat="47.76972" lon="-1.84252">
        <ele>30.4</ele>
      </trkpt>
      <trkpt lat="47.76974" lon="-1.8425">
        <ele>30.5</ele>
      </trkpt>
      <trkpt lat="47.76976" lon="-1.84248">
        <ele>30.6</ele>
      </trkpt>
      <trkpt lat="47.76978" lon="-1.84246">
        <ele>30.6</ele>
      </trkpt>
      <trkpt lat="47.7698" lon="-1.84245">
        <ele>30.7</ele>
      </trkpt>
      <trkpt lat="47.76981" lon="-1.84243">
        <ele>30.7</ele>
      </trkpt>
      <trkpt lat="47.76983" lon="-1.84241">
        <ele>30.8</ele>
      </trkpt>
      <trkpt lat="47.76985" lon="-1.8424">
        <ele>30.8</ele>
      </trkpt>
      <trkpt lat="47.76987" lon="-1.84238">
        <ele>30.9</ele>
      </trkpt>
      <trkpt lat="47.76988" lon="-1.84237">
        <ele>31</ele>
      </trkpt>
      <trkpt lat="47.76989" lon="-1.84235">
        <ele>31.1</ele>
      </trkpt>
      <trkpt lat="47.76991" lon="-1.84233">
        <ele>31.3</ele>
      </trkpt>
      <trkpt lat="47.76991" lon="-1.84232">
        <ele>31.4</ele>
      </trkpt>
      <trkpt lat="47.76993" lon="-1.8423">
        <ele>31.5</ele>
      </trkpt>
      <trkpt lat="47.76995" lon="-1.84228">
        <ele>31.6</ele>
      </trkpt>
      <trkpt lat="47.76997" lon="-1.84226">
        <ele>31.7</ele>
      </trkpt>
      <trkpt lat="47.76998" lon="-1.84223">
        <ele>32.1</ele>
      </trkpt>
      <trkpt lat="47.76999" lon="-1.8422">
        <ele>32.4</ele>
      </trkpt>
      <trkpt lat="47.76999" lon="-1.84217">
        <ele>32.8</ele>
      </trkpt>
      <trkpt lat="47.76999" lon="-1.84214">
        <ele>33.3</ele>
      </trkpt>
      <trkpt lat="47.76998" lon="-1.8421">
        <ele>33.8</ele>
      </trkpt>
      <trkpt lat="47.76997" lon="-1.84207">
        <ele>34.4</ele>
      </trkpt>
      <trkpt lat="47.76996" lon="-1.84204">
        <ele>35</ele>
      </trkpt>
      <trkpt lat="47.76994" lon="-1.842">
        <ele>35.6</ele>
      </trkpt>
      <trkpt lat="47.76992" lon="-1.84198">
        <ele>36.1</ele>
      </trkpt>
      <trkpt lat="47.76991" lon="-1.84195">
        <ele>36.6</ele>
      </trkpt>
      <trkpt lat="47.76989" lon="-1.84192">
        <ele>37.1</ele>
      </trkpt>
      <trkpt lat="47.76988" lon="-1.84189">
        <ele>37.6</ele>
      </trkpt>
      <trkpt lat="47.76986" lon="-1.84186">
        <ele>38.1</ele>
      </trkpt>
      <trkpt lat="47.76986" lon="-1.84182">
        <ele>38.7</ele>
      </trkpt>
      <trkpt lat="47.76986" lon="-1.84178">
        <ele>39.3</ele>
      </trkpt>
      <trkpt lat="47.76986" lon="-1.84174">
        <ele>39.8</ele>
      </trkpt>
      <trkpt lat="47.76986" lon="-1.84171">
        <ele>40.2</ele>
      </trkpt>
      <trkpt lat="47.76987" lon="-1.84169">
        <ele>40.5</ele>
      </trkpt>
      <trkpt lat="47.76987" lon="-1.84166">
        <ele>40.8</ele>
      </trkpt>
      <trkpt lat="47.76986" lon="-1.84164">
        <ele>41</ele>
      </trkpt>
      <trkpt lat="47.76986" lon="-1.84164">
        <ele>41</ele>
      </trkpt>
      <trkpt lat="47.76986" lon="-1.84164">
        <ele>41</ele>
      </trkpt>
      <trkpt lat="47.76986" lon="-1.84164">
        <ele>41</ele>
      </trkpt>
      <trkpt lat="47.76987" lon="-1.84162">
        <ele>41.1</ele>
      </trkpt>
      <trkpt lat="47.76987" lon="-1.8416">
        <ele>41.1</ele>
      </trkpt>
      <trkpt lat="47.76988" lon="-1.84158">
        <ele>41.3</ele>
      </trkpt>
      <trkpt lat="47.76988" lon="-1.84155">
        <ele>41.4</ele>
      </trkpt>
      <trkpt lat="47.76989" lon="-1.84151">
        <ele>41.6</ele>
      </trkpt>
      <trkpt lat="47.7699" lon="-1.84147">
        <ele>41.8</ele>
      </trkpt>
      <trkpt lat="47.76991" lon="-1.84144">
        <ele>42</ele>
      </trkpt>
      <trkpt lat="47.76993" lon="-1.84142">
        <ele>42</ele>
      </trkpt>
      <trkpt lat="47.76995" lon="-1.8414">
        <ele>42.1</ele>
      </trkpt>
      <trkpt lat="47.76997" lon="-1.84137">
        <ele>42.2</ele>
      </trkpt>
      <trkpt lat="47.76998" lon="-1.84135">
        <ele>42.3</ele>
      </trkpt>
      <trkpt lat="47.76999" lon="-1.84133">
        <ele>42.4</ele>
      </trkpt>
      <trkpt lat="47.77" lon="-1.84132">
        <ele>42.5</ele>
      </trkpt>
      <trkpt lat="47.77001" lon="-1.8413">
        <ele>42.4</ele>
      </trkpt>
      <trkpt lat="47.77002" lon="-1.8413">
        <ele>42.3</ele>
      </trkpt>
      <trkpt lat="47.77002" lon="-1.8413">
        <ele>42.3</ele>
      </trkpt>
      <trkpt lat="47.77002" lon="-1.8413">
        <ele>42.3</ele>
      </trkpt>
      <trkpt lat="47.77003" lon="-1.8413">
        <ele>42.2</ele>
      </trkpt>
      <trkpt lat="47.77003" lon="-1.8413">
        <ele>42.2</ele>
      </trkpt>
      <trkpt lat="47.77004" lon="-1.84128">
        <ele>42.2</ele>
      </trkpt>
      <trkpt lat="47.77004" lon="-1.84127">
        <ele>42.3</ele>
      </trkpt>
      <trkpt lat="47.77005" lon="-1.84124">
        <ele>42.4</ele>
      </trkpt>
      <trkpt lat="47.77006" lon="-1.84122">
        <ele>42.5</ele>
      </trkpt>
      <trkpt lat="47.77006" lon="-1.84119">
        <ele>42.7</ele>
      </trkpt>
      <trkpt lat="47.77007" lon="-1.84115">
        <ele>42.9</ele>
      </trkpt>
      <trkpt lat="47.77008" lon="-1.84112">
        <ele>43.1</ele>
      </trkpt>
      <trkpt lat="47.77009" lon="-1.84109">
        <ele>43.1</ele>
      </trkpt>
      <trkpt lat="47.77017" lon="-1.84098">
        <ele>43.5</ele>
      </trkpt>
      <trkpt lat="47.77018" lon="-1.8409">
        <ele>44.2</ele>
      </trkpt>
      <trkpt lat="47.77021" lon="-1.84089">
        <ele>44.1</ele>
      </trkpt>
      <trkpt lat="47.77028" lon="-1.84091">
        <ele>43.5</ele>
      </trkpt>
      <trkpt lat="47.77049" lon="-1.84094">
        <ele>41.3</ele>
      </trkpt>
      <trkpt lat="47.77052" lon="-1.84093">
        <ele>41.2</ele>
      </trkpt>
      <trkpt lat="47.77056" lon="-1.84092">
        <ele>41.1</ele>
      </trkpt>
      <trkpt lat="47.7706" lon="-1.84091">
        <ele>41</ele>
      </trkpt>
      <trkpt lat="47.77063" lon="-1.84089">
        <ele>41.1</ele>
      </trkpt>
      <trkpt lat="47.77066" lon="-1.84087">
        <ele>41.3</ele>
      </trkpt>
      <trkpt lat="47.7707" lon="-1.84085">
        <ele>41.6</ele>
      </trkpt>
      <trkpt lat="47.77073" lon="-1.84083">
        <ele>41.7</ele>
      </trkpt>
      <trkpt lat="47.77076" lon="-1.8408">
        <ele>41.7</ele>
      </trkpt>
      <trkpt lat="47.77079" lon="-1.84078">
        <ele>41.6</ele>
      </trkpt>
      <trkpt lat="47.77083" lon="-1.84076">
        <ele>41.6</ele>
      </trkpt>
      <trkpt lat="47.77086" lon="-1.84073">
        <ele>41.1</ele>
      </trkpt>
      <trkpt lat="47.7709" lon="-1.8407">
        <ele>40.4</ele>
      </trkpt>
      <trkpt lat="47.77093" lon="-1.84068">
        <ele>39.9</ele>
      </trkpt>
      <trkpt lat="47.77096" lon="-1.84065">
        <ele>39.5</ele>
      </trkpt>
      <trkpt lat="47.77099" lon="-1.84061">
        <ele>39.2</ele>
      </trkpt>
      <trkpt lat="47.77101" lon="-1.84057">
        <ele>39</ele>
      </trkpt>
      <trkpt lat="47.77105" lon="-1.84053">
        <ele>38.8</ele>
      </trkpt>
      <trkpt lat="47.77106" lon="-1.84048">
        <ele>38.9</ele>
      </trkpt>
      <trkpt lat="47.77109" lon="-1.84044">
        <ele>38.8</ele>
      </trkpt>
      <trkpt lat="47.77112" lon="-1.84041">
        <ele>38.5</ele>
      </trkpt>
      <trkpt lat="47.77115" lon="-1.84038">
        <ele>38.5</ele>
      </trkpt>
      <trkpt lat="47.77116" lon="-1.84034">
        <ele>38.6</ele>
      </trkpt>
      <trkpt lat="47.77117" lon="-1.8403">
        <ele>38.9</ele>
      </trkpt>
      <trkpt lat="47.77119" lon="-1.84025">
        <ele>39.2</ele>
      </trkpt>
      <trkpt lat="47.77121" lon="-1.84021">
        <ele>39.4</ele>
      </trkpt>
      <trkpt lat="47.77122" lon="-1.84017">
        <ele>39.7</ele>
      </trkpt>
      <trkpt lat="47.77123" lon="-1.84012">
        <ele>40.2</ele>
      </trkpt>
      <trkpt lat="47.77122" lon="-1.84008">
        <ele>40.9</ele>
      </trkpt>
      <trkpt lat="47.77122" lon="-1.84005">
        <ele>41.3</ele>
      </trkpt>
      <trkpt lat="47.77122" lon="-1.84001">
        <ele>41.7</ele>
      </trkpt>
      <trkpt lat="47.77122" lon="-1.83999">
        <ele>42</ele>
      </trkpt>
      <trkpt lat="47.77122" lon="-1.83997">
        <ele>42.3</ele>
      </trkpt>
      <trkpt lat="47.77122" lon="-1.83994">
        <ele>42.5</ele>
      </trkpt>
      <trkpt lat="47.77122" lon="-1.83991">
        <ele>42.7</ele>
      </trkpt>
      <trkpt lat="47.77122" lon="-1.83989">
        <ele>43</ele>
      </trkpt>
      <trkpt lat="47.77121" lon="-1.83986">
        <ele>43.3</ele>
      </trkpt>
      <trkpt lat="47.77122" lon="-1.83984">
        <ele>43.5</ele>
      </trkpt>
      <trkpt lat="47.77122" lon="-1.8398">
        <ele>43.8</ele>
      </trkpt>
      <trkpt lat="47.77122" lon="-1.83977">
        <ele>44.1</ele>
      </trkpt>
      <trkpt lat="47.77122" lon="-1.83974">
        <ele>44.4</ele>
      </trkpt>
      <trkpt lat="47.77122" lon="-1.83971">
        <ele>44.7</ele>
      </trkpt>
      <trkpt lat="47.77122" lon="-1.83968">
        <ele>45.1</ele>
      </trkpt>
      <trkpt lat="47.77122" lon="-1.83964">
        <ele>45.4</ele>
      </trkpt>
      <trkpt lat="47.77123" lon="-1.8396">
        <ele>45.7</ele>
      </trkpt>
      <trkpt lat="47.77125" lon="-1.83955">
        <ele>46.1</ele>
      </trkpt>
      <trkpt lat="47.77126" lon="-1.83951">
        <ele>46.5</ele>
      </trkpt>
      <trkpt lat="47.77126" lon="-1.83946">
        <ele>46.9</ele>
      </trkpt>
      <trkpt lat="47.77127" lon="-1.83942">
        <ele>47.4</ele>
      </trkpt>
      <trkpt lat="47.77129" lon="-1.83938">
        <ele>47.8</ele>
      </trkpt>
      <trkpt lat="47.7713" lon="-1.83933">
        <ele>48.3</ele>
      </trkpt>
      <trkpt lat="47.77132" lon="-1.83925">
        <ele>49.2</ele>
      </trkpt>
      <trkpt lat="47.77132" lon="-1.83925">
        <ele>49.2</ele>
      </trkpt>
      <trkpt lat="47.77134" lon="-1.83922">
        <ele>49.6</ele>
      </trkpt>
      <trkpt lat="47.77135" lon="-1.83918">
        <ele>50</ele>
      </trkpt>
      <trkpt lat="47.77136" lon="-1.83915">
        <ele>50.3</ele>
      </trkpt>
      <trkpt lat="47.77137" lon="-1.83911">
        <ele>50.4</ele>
      </trkpt>
      <trkpt lat="47.77139" lon="-1.83908">
        <ele>50.6</ele>
      </trkpt>
      <trkpt lat="47.7714" lon="-1.83904">
        <ele>50.7</ele>
      </trkpt>
      <trkpt lat="47.77142" lon="-1.839">
        <ele>50.9</ele>
      </trkpt>
      <trkpt lat="47.77143" lon="-1.83896">
        <ele>51.1</ele>
      </trkpt>
      <trkpt lat="47.77145" lon="-1.83892">
        <ele>51.3</ele>
      </trkpt>
      <trkpt lat="47.77147" lon="-1.83889">
        <ele>51.5</ele>
      </trkpt>
      <trkpt lat="47.77148" lon="-1.83884">
        <ele>51.7</ele>
      </trkpt>
      <trkpt lat="47.77149" lon="-1.83879">
        <ele>51.9</ele>
      </trkpt>
      <trkpt lat="47.7715" lon="-1.83875">
        <ele>52.1</ele>
      </trkpt>
      <trkpt lat="47.77152" lon="-1.83871">
        <ele>52.3</ele>
      </trkpt>
      <trkpt lat="47.77154" lon="-1.83868">
        <ele>52.6</ele>
      </trkpt>
      <trkpt lat="47.77157" lon="-1.83865">
        <ele>52.9</ele>
      </trkpt>
      <trkpt lat="47.77159" lon="-1.83863">
        <ele>53.1</ele>
      </trkpt>
      <trkpt lat="47.77161" lon="-1.83861">
        <ele>53.3</ele>
      </trkpt>
      <trkpt lat="47.77163" lon="-1.8386">
        <ele>53.5</ele>
      </trkpt>
      <trkpt lat="47.77166" lon="-1.8386">
        <ele>53.7</ele>
      </trkpt>
      <trkpt lat="47.77169" lon="-1.83859">
        <ele>53.4</ele>
      </trkpt>
      <trkpt lat="47.77174" lon="-1.83858">
        <ele>52.6</ele>
      </trkpt>
      <trkpt lat="47.77177" lon="-1.83857">
        <ele>52.2</ele>
      </trkpt>
      <trkpt lat="47.77178" lon="-1.83857">
        <ele>52</ele>
      </trkpt>
      <trkpt lat="47.7718" lon="-1.83857">
        <ele>51.7</ele>
      </trkpt>
      <trkpt lat="47.77184" lon="-1.83856">
        <ele>51.2</ele>
      </trkpt>
      <trkpt lat="47.77188" lon="-1.83856">
        <ele>50.5</ele>
      </trkpt>
      <trkpt lat="47.77191" lon="-1.83856">
        <ele>50.1</ele>
      </trkpt>
      <trkpt lat="47.77194" lon="-1.83856">
        <ele>49.7</ele>
      </trkpt>
      <trkpt lat="47.77198" lon="-1.83855">
        <ele>49.1</ele>
      </trkpt>
      <trkpt lat="47.77203" lon="-1.83851">
        <ele>48.6</ele>
      </trkpt>
      <trkpt lat="47.77207" lon="-1.83848">
        <ele>48.5</ele>
      </trkpt>
      <trkpt lat="47.77208" lon="-1.83848">
        <ele>48.3</ele>
      </trkpt>
      <trkpt lat="47.77211" lon="-1.83848">
        <ele>47.9</ele>
      </trkpt>
      <trkpt lat="47.77213" lon="-1.83848">
        <ele>47.5</ele>
      </trkpt>
      <trkpt lat="47.77216" lon="-1.83847">
        <ele>47.2</ele>
      </trkpt>
      <trkpt lat="47.7722" lon="-1.83845">
        <ele>47</ele>
      </trkpt>
      <trkpt lat="47.77225" lon="-1.83842">
        <ele>46.7</ele>
      </trkpt>
      <trkpt lat="47.77229" lon="-1.83839">
        <ele>46.6</ele>
      </trkpt>
      <trkpt lat="47.77233" lon="-1.83838">
        <ele>46.3</ele>
      </trkpt>
      <trkpt lat="47.77237" lon="-1.83837">
        <ele>46</ele>
      </trkpt>
      <trkpt lat="47.77241" lon="-1.83835">
        <ele>45.8</ele>
      </trkpt>
      <trkpt lat="47.77248" lon="-1.83831">
        <ele>45.4</ele>
      </trkpt>
      <trkpt lat="47.77252" lon="-1.83827">
        <ele>44.9</ele>
      </trkpt>
      <trkpt lat="47.77256" lon="-1.83821">
        <ele>44.3</ele>
      </trkpt>
      <trkpt lat="47.77259" lon="-1.83815">
        <ele>44</ele>
      </trkpt>
      <trkpt lat="47.77262" lon="-1.83809">
        <ele>43.8</ele>
      </trkpt>
      <trkpt lat="47.77266" lon="-1.83805">
        <ele>43.2</ele>
      </trkpt>
      <trkpt lat="47.7727" lon="-1.83802">
        <ele>42.6</ele>
      </trkpt>
      <trkpt lat="47.77274" lon="-1.83797">
        <ele>42.2</ele>
      </trkpt>
      <trkpt lat="47.77278" lon="-1.83791">
        <ele>41.9</ele>
      </trkpt>
      <trkpt lat="47.77282" lon="-1.83785">
        <ele>41.7</ele>
      </trkpt>
      <trkpt lat="47.77285" lon="-1.83778">
        <ele>41.7</ele>
      </trkpt>
      <trkpt lat="47.77289" lon="-1.83771">
        <ele>41.8</ele>
      </trkpt>
      <trkpt lat="47.77291" lon="-1.83764">
        <ele>42.1</ele>
      </trkpt>
      <trkpt lat="47.77294" lon="-1.83759">
        <ele>42.2</ele>
      </trkpt>
      <trkpt lat="47.77298" lon="-1.83755">
        <ele>42</ele>
      </trkpt>
      <trkpt lat="47.77303" lon="-1.83752">
        <ele>41.6</ele>
      </trkpt>
      <trkpt lat="47.77307" lon="-1.8375">
        <ele>41.2</ele>
      </trkpt>
      <trkpt lat="47.7731" lon="-1.83749">
        <ele>40.7</ele>
      </trkpt>
      <trkpt lat="47.77313" lon="-1.83749">
        <ele>40.3</ele>
      </trkpt>
      <trkpt lat="47.77316" lon="-1.83751">
        <ele>39.6</ele>
      </trkpt>
      <trkpt lat="47.77319" lon="-1.83753">
        <ele>38.7</ele>
      </trkpt>
      <trkpt lat="47.77325" lon="-1.83756">
        <ele>37.4</ele>
      </trkpt>
      <trkpt lat="47.7733" lon="-1.83759">
        <ele>36.1</ele>
      </trkpt>
      <trkpt lat="47.77334" lon="-1.83761">
        <ele>35.3</ele>
      </trkpt>
      <trkpt lat="47.77336" lon="-1.83762">
        <ele>34.8</ele>
      </trkpt>
      <trkpt lat="47.77339" lon="-1.83763">
        <ele>34.2</ele>
      </trkpt>
      <trkpt lat="47.77341" lon="-1.83762">
        <ele>33.9</ele>
      </trkpt>
      <trkpt lat="47.77343" lon="-1.83761">
        <ele>33.8</ele>
      </trkpt>
      <trkpt lat="47.77347" lon="-1.83762">
        <ele>32.9</ele>
      </trkpt>
      <trkpt lat="47.77351" lon="-1.83764">
        <ele>32</ele>
      </trkpt>
      <trkpt lat="47.77353" lon="-1.83765">
        <ele>31.4</ele>
      </trkpt>
      <trkpt lat="47.77355" lon="-1.83768">
        <ele>30.6</ele>
      </trkpt>
      <trkpt lat="47.77357" lon="-1.83771">
        <ele>29.8</ele>
      </trkpt>
      <trkpt lat="47.77359" lon="-1.83773">
        <ele>29.3</ele>
      </trkpt>
      <trkpt lat="47.77362" lon="-1.83774">
        <ele>28.6</ele>
      </trkpt>
      <trkpt lat="47.77365" lon="-1.83775">
        <ele>27.9</ele>
      </trkpt>
      <trkpt lat="47.77372" lon="-1.83775">
        <ele>26.8</ele>
      </trkpt>
      <trkpt lat="47.77378" lon="-1.83771">
        <ele>26.3</ele>
      </trkpt>
      <trkpt lat="47.77381" lon="-1.83769">
        <ele>26.1</ele>
      </trkpt>
      <trkpt lat="47.77384" lon="-1.83766">
        <ele>26.1</ele>
      </trkpt>
      <trkpt lat="47.77386" lon="-1.83762">
        <ele>26.3</ele>
      </trkpt>
      <trkpt lat="47.77388" lon="-1.83758">
        <ele>26.6</ele>
      </trkpt>
      <trkpt lat="47.77389" lon="-1.83753">
        <ele>27</ele>
      </trkpt>
      <trkpt lat="47.77393" lon="-1.83745">
        <ele>27.8</ele>
      </trkpt>
      <trkpt lat="47.77393" lon="-1.83745">
        <ele>27.8</ele>
      </trkpt>
      <trkpt lat="47.77394" lon="-1.83743">
        <ele>28.1</ele>
      </trkpt>
      <trkpt lat="47.77397" lon="-1.83742">
        <ele>27.9</ele>
      </trkpt>
      <trkpt lat="47.77399" lon="-1.83741">
        <ele>27.9</ele>
      </trkpt>
      <trkpt lat="47.77403" lon="-1.83738">
        <ele>27.9</ele>
      </trkpt>
      <trkpt lat="47.77406" lon="-1.83736">
        <ele>27.8</ele>
      </trkpt>
      <trkpt lat="47.77409" lon="-1.83736">
        <ele>27.5</ele>
      </trkpt>
      <trkpt lat="47.77412" lon="-1.83736">
        <ele>26.9</ele>
      </trkpt>
      <trkpt lat="47.77416" lon="-1.83737">
        <ele>26.3</ele>
      </trkpt>
      <trkpt lat="47.77421" lon="-1.83738">
        <ele>25.6</ele>
      </trkpt>
      <trkpt lat="47.77422" lon="-1.83741">
        <ele>24.9</ele>
      </trkpt>
      <trkpt lat="47.77425" lon="-1.83745">
        <ele>23.7</ele>
      </trkpt>
      <trkpt lat="47.77426" lon="-1.83748">
        <ele>22.9</ele>
      </trkpt>
      <trkpt lat="47.77426" lon="-1.83751">
        <ele>22.3</ele>
      </trkpt>
      <trkpt lat="47.77426" lon="-1.83755">
        <ele>21.8</ele>
      </trkpt>
      <trkpt lat="47.77426" lon="-1.83758">
        <ele>21.3</ele>
      </trkpt>
      <trkpt lat="47.77427" lon="-1.83761">
        <ele>20.8</ele>
      </trkpt>
      <trkpt lat="47.77427" lon="-1.83766">
        <ele>20.1</ele>
      </trkpt>
      <trkpt lat="47.7743" lon="-1.83772">
        <ele>19.1</ele>
      </trkpt>
      <trkpt lat="47.77432" lon="-1.83776">
        <ele>18.4</ele>
      </trkpt>
      <trkpt lat="47.77435" lon="-1.83777">
        <ele>18</ele>
      </trkpt>
      <trkpt lat="47.77439" lon="-1.83777">
        <ele>17.8</ele>
      </trkpt>
      <trkpt lat="47.77443" lon="-1.83777">
        <ele>17.5</ele>
      </trkpt>
      <trkpt lat="47.77448" lon="-1.83777">
        <ele>17.2</ele>
      </trkpt>
      <trkpt lat="47.77453" lon="-1.83776">
        <ele>17.1</ele>
      </trkpt>
      <trkpt lat="47.77458" lon="-1.83774">
        <ele>17</ele>
      </trkpt>
      <trkpt lat="47.77463" lon="-1.83773">
        <ele>16.9</ele>
      </trkpt>
      <trkpt lat="47.77469" lon="-1.83772">
        <ele>16.6</ele>
      </trkpt>
      <trkpt lat="47.77475" lon="-1.8377">
        <ele>16.6</ele>
      </trkpt>
      <trkpt lat="47.7748" lon="-1.83769">
        <ele>16.5</ele>
      </trkpt>
      <trkpt lat="47.77487" lon="-1.83769">
        <ele>16</ele>
      </trkpt>
      <trkpt lat="47.77492" lon="-1.83769">
        <ele>15.7</ele>
      </trkpt>
      <trkpt lat="47.77497" lon="-1.83769">
        <ele>15.4</ele>
      </trkpt>
      <trkpt lat="47.77502" lon="-1.83768">
        <ele>15.2</ele>
      </trkpt>
      <trkpt lat="47.77506" lon="-1.83768">
        <ele>14.8</ele>
      </trkpt>
      <trkpt lat="47.77506" lon="-1.83768">
        <ele>14.8</ele>
      </trkpt>
      <trkpt lat="47.77506" lon="-1.83768">
        <ele>14.8</ele>
      </trkpt>
      <trkpt lat="47.77506" lon="-1.83768">
        <ele>14.8</ele>
      </trkpt>
      <trkpt lat="47.77506" lon="-1.83768">
        <ele>14.8</ele>
      </trkpt>
      <trkpt lat="47.77506" lon="-1.83768">
        <ele>14.8</ele>
      </trkpt>
      <trkpt lat="47.77506" lon="-1.83768">
        <ele>14.8</ele>
      </trkpt>
      <trkpt lat="47.77506" lon="-1.83768">
        <ele>14.8</ele>
      </trkpt>
      <trkpt lat="47.77506" lon="-1.83768">
        <ele>14.8</ele>
      </trkpt>
      <trkpt lat="47.77506" lon="-1.83768">
        <ele>14.8</ele>
      </trkpt>
      <trkpt lat="47.77506" lon="-1.83768">
        <ele>14.8</ele>
      </trkpt>
      <trkpt lat="47.77507" lon="-1.83768">
        <ele>14.8</ele>
      </trkpt>
      <trkpt lat="47.77508" lon="-1.83768">
        <ele>14.7</ele>
      </trkpt>
      <trkpt lat="47.7751" lon="-1.83769">
        <ele>14.4</ele>
      </trkpt>
      <trkpt lat="47.77513" lon="-1.83769">
        <ele>14.1</ele>
      </trkpt>
      <trkpt lat="47.77515" lon="-1.83766">
        <ele>14.3</ele>
      </trkpt>
      <trkpt lat="47.77516" lon="-1.83765">
        <ele>14.4</ele>
      </trkpt>
      <trkpt lat="47.77517" lon="-1.83763">
        <ele>14.5</ele>
      </trkpt>
      <trkpt lat="47.77519" lon="-1.83761">
        <ele>14.6</ele>
      </trkpt>
      <trkpt lat="47.77521" lon="-1.8376">
        <ele>14.6</ele>
      </trkpt>
      <trkpt lat="47.77522" lon="-1.83758">
        <ele>14.6</ele>
      </trkpt>
      <trkpt lat="47.77524" lon="-1.83757">
        <ele>14.7</ele>
      </trkpt>
      <trkpt lat="47.77525" lon="-1.83755">
        <ele>14.7</ele>
      </trkpt>
      <trkpt lat="47.77527" lon="-1.83753">
        <ele>14.8</ele>
      </trkpt>
      <trkpt lat="47.77528" lon="-1.83751">
        <ele>14.9</ele>
      </trkpt>
      <trkpt lat="47.77529" lon="-1.83749">
        <ele>15</ele>
      </trkpt>
      <trkpt lat="47.77531" lon="-1.83747">
        <ele>15.2</ele>
      </trkpt>
      <trkpt lat="47.77532" lon="-1.83747">
        <ele>15.2</ele>
      </trkpt>
      <trkpt lat="47.77534" lon="-1.83747">
        <ele>14.9</ele>
      </trkpt>
      <trkpt lat="47.77535" lon="-1.83749">
        <ele>14.4</ele>
      </trkpt>
      <trkpt lat="47.77536" lon="-1.83751">
        <ele>14</ele>
      </trkpt>
      <trkpt lat="47.77535" lon="-1.83753">
        <ele>13.9</ele>
      </trkpt>
      <trkpt lat="47.77533" lon="-1.83756">
        <ele>13.8</ele>
      </trkpt>
      <trkpt lat="47.77531" lon="-1.8376">
        <ele>13.6</ele>
      </trkpt>
      <trkpt lat="47.77529" lon="-1.83763">
        <ele>13.5</ele>
      </trkpt>
      <trkpt lat="47.77526" lon="-1.83766">
        <ele>13.3</ele>
      </trkpt>
      <trkpt lat="47.77524" lon="-1.83769">
        <ele>13.2</ele>
      </trkpt>
      <trkpt lat="47.77521" lon="-1.83773">
        <ele>13</ele>
      </trkpt>
      <trkpt lat="47.77519" lon="-1.83777">
        <ele>12.6</ele>
      </trkpt>
      <trkpt lat="47.77516" lon="-1.83782">
        <ele>12.3</ele>
      </trkpt>
      <trkpt lat="47.77514" lon="-1.83786">
        <ele>11.8</ele>
      </trkpt>
      <trkpt lat="47.77512" lon="-1.83791">
        <ele>11.4</ele>
      </trkpt>
      <trkpt lat="47.7751" lon="-1.83795">
        <ele>10.9</ele>
      </trkpt>
      <trkpt lat="47.77509" lon="-1.838">
        <ele>10.4</ele>
      </trkpt>
      <trkpt lat="47.77508" lon="-1.83805">
        <ele>9.8</ele>
      </trkpt>
      <trkpt lat="47.77507" lon="-1.8381">
        <ele>9.1</ele>
      </trkpt>
      <trkpt lat="47.77506" lon="-1.83815">
        <ele>8.4</ele>
      </trkpt>
      <trkpt lat="47.77504" lon="-1.8382">
        <ele>7.7</ele>
      </trkpt>
      <trkpt lat="47.77503" lon="-1.83826">
        <ele>7</ele>
      </trkpt>
      <trkpt lat="47.77502" lon="-1.83831">
        <ele>6.2</ele>
      </trkpt>
      <trkpt lat="47.77501" lon="-1.83837">
        <ele>5.9</ele>
      </trkpt>
      <trkpt lat="47.775" lon="-1.83843">
        <ele>5.8</ele>
      </trkpt>
      <trkpt lat="47.77499" lon="-1.83849">
        <ele>5.7</ele>
      </trkpt>
      <trkpt lat="47.77498" lon="-1.83854">
        <ele>5.6</ele>
      </trkpt>
      <trkpt lat="47.77498" lon="-1.8386">
        <ele>5.5</ele>
      </trkpt>
      <trkpt lat="47.77497" lon="-1.83866">
        <ele>5.4</ele>
      </trkpt>
      <trkpt lat="47.77496" lon="-1.83871">
        <ele>5.3</ele>
      </trkpt>
      <trkpt lat="47.77495" lon="-1.83877">
        <ele>5.2</ele>
      </trkpt>
      <trkpt lat="47.77494" lon="-1.83882">
        <ele>5.1</ele>
      </trkpt>
      <trkpt lat="47.77494" lon="-1.83887">
        <ele>4.9</ele>
      </trkpt>
      <trkpt lat="47.77493" lon="-1.83893">
        <ele>4.8</ele>
      </trkpt>
      <trkpt lat="47.77492" lon="-1.83898">
        <ele>4.7</ele>
      </trkpt>
      <trkpt lat="47.77491" lon="-1.83904">
        <ele>4.5</ele>
      </trkpt>
      <trkpt lat="47.77491" lon="-1.83911">
        <ele>4.4</ele>
      </trkpt>
      <trkpt lat="47.7749" lon="-1.83917">
        <ele>4.2</ele>
      </trkpt>
      <trkpt lat="47.77489" lon="-1.83924">
        <ele>4.4</ele>
      </trkpt>
      <trkpt lat="47.77488" lon="-1.8393">
        <ele>4.5</ele>
      </trkpt>
      <trkpt lat="47.77487" lon="-1.83937">
        <ele>4.7</ele>
      </trkpt>
      <trkpt lat="47.77486" lon="-1.83944">
        <ele>4.8</ele>
      </trkpt>
      <trkpt lat="47.77485" lon="-1.83951">
        <ele>5</ele>
      </trkpt>
      <trkpt lat="47.77484" lon="-1.83957">
        <ele>5.1</ele>
      </trkpt>
      <trkpt lat="47.77483" lon="-1.83964">
        <ele>5.2</ele>
      </trkpt>
      <trkpt lat="47.77483" lon="-1.83971">
        <ele>5.3</ele>
      </trkpt>
      <trkpt lat="47.77481" lon="-1.83978">
        <ele>5.4</ele>
      </trkpt>
      <trkpt lat="47.7748" lon="-1.83985">
        <ele>5.5</ele>
      </trkpt>
      <trkpt lat="47.77479" lon="-1.83992">
        <ele>5.6</ele>
      </trkpt>
      <trkpt lat="47.77478" lon="-1.83999">
        <ele>5.7</ele>
      </trkpt>
      <trkpt lat="47.77477" lon="-1.84007">
        <ele>5.8</ele>
      </trkpt>
      <trkpt lat="47.77476" lon="-1.84014">
        <ele>5.8</ele>
      </trkpt>
      <trkpt lat="47.77475" lon="-1.84022">
        <ele>5.9</ele>
      </trkpt>
      <trkpt lat="47.77475" lon="-1.8403">
        <ele>5.9</ele>
      </trkpt>
      <trkpt lat="47.77474" lon="-1.84037">
        <ele>6</ele>
      </trkpt>
      <trkpt lat="47.77473" lon="-1.84045">
        <ele>6</ele>
      </trkpt>
      <trkpt lat="47.77472" lon="-1.84053">
        <ele>6.1</ele>
      </trkpt>
      <trkpt lat="47.77471" lon="-1.84061">
        <ele>6.1</ele>
      </trkpt>
      <trkpt lat="47.77469" lon="-1.84069">
        <ele>6.2</ele>
      </trkpt>
      <trkpt lat="47.77468" lon="-1.84077">
        <ele>6.2</ele>
      </trkpt>
      <trkpt lat="47.77467" lon="-1.84086">
        <ele>6.2</ele>
      </trkpt>
      <trkpt lat="47.77466" lon="-1.84094">
        <ele>6.2</ele>
      </trkpt>
      <trkpt lat="47.77465" lon="-1.84103">
        <ele>6.1</ele>
      </trkpt>
      <trkpt lat="47.77464" lon="-1.84112">
        <ele>6.1</ele>
      </trkpt>
      <trkpt lat="47.77462" lon="-1.84121">
        <ele>6.1</ele>
      </trkpt>
      <trkpt lat="47.77461" lon="-1.8413">
        <ele>6</ele>
      </trkpt>
      <trkpt lat="47.7746" lon="-1.84138">
        <ele>6</ele>
      </trkpt>
      <trkpt lat="47.77458" lon="-1.84147">
        <ele>6</ele>
      </trkpt>
      <trkpt lat="47.77457" lon="-1.84156">
        <ele>6</ele>
      </trkpt>
      <trkpt lat="47.77456" lon="-1.84164">
        <ele>6</ele>
      </trkpt>
      <trkpt lat="47.77454" lon="-1.84173">
        <ele>6.2</ele>
      </trkpt>
      <trkpt lat="47.77453" lon="-1.84182">
        <ele>6.4</ele>
      </trkpt>
      <trkpt lat="47.77452" lon="-1.8419">
        <ele>6.6</ele>
      </trkpt>
      <trkpt lat="47.7745" lon="-1.84199">
        <ele>6.8</ele>
      </trkpt>
      <trkpt lat="47.77449" lon="-1.84207">
        <ele>7</ele>
      </trkpt>
      <trkpt lat="47.77448" lon="-1.84215">
        <ele>7.2</ele>
      </trkpt>
      <trkpt lat="47.77448" lon="-1.84223">
        <ele>7.4</ele>
      </trkpt>
      <trkpt lat="47.77446" lon="-1.84231">
        <ele>7.6</ele>
      </trkpt>
      <trkpt lat="47.77445" lon="-1.84239">
        <ele>7.7</ele>
      </trkpt>
      <trkpt lat="47.77444" lon="-1.84248">
        <ele>7.9</ele>
      </trkpt>
      <trkpt lat="47.77443" lon="-1.84256">
        <ele>8.1</ele>
      </trkpt>
      <trkpt lat="47.77442" lon="-1.84266">
        <ele>8.2</ele>
      </trkpt>
      <trkpt lat="47.77441" lon="-1.84273">
        <ele>8.2</ele>
      </trkpt>
      <trkpt lat="47.7744" lon="-1.84281">
        <ele>8.3</ele>
      </trkpt>
      <trkpt lat="47.77438" lon="-1.8429">
        <ele>8.4</ele>
      </trkpt>
      <trkpt lat="47.77437" lon="-1.84299">
        <ele>8.4</ele>
      </trkpt>
      <trkpt lat="47.77436" lon="-1.84308">
        <ele>8.5</ele>
      </trkpt>
      <trkpt lat="47.77435" lon="-1.84316">
        <ele>8.5</ele>
      </trkpt>
      <trkpt lat="47.77434" lon="-1.84325">
        <ele>8.6</ele>
      </trkpt>
      <trkpt lat="47.77433" lon="-1.84334">
        <ele>8.6</ele>
      </trkpt>
      <trkpt lat="47.77431" lon="-1.84343">
        <ele>9.3</ele>
      </trkpt>
      <trkpt lat="47.7743" lon="-1.84351">
        <ele>10</ele>
      </trkpt>
      <trkpt lat="47.77428" lon="-1.84359">
        <ele>10.7</ele>
      </trkpt>
      <trkpt lat="47.77427" lon="-1.84368">
        <ele>11.4</ele>
      </trkpt>
      <trkpt lat="47.77425" lon="-1.84376">
        <ele>12</ele>
      </trkpt>
      <trkpt lat="47.77423" lon="-1.84384">
        <ele>12.6</ele>
      </trkpt>
      <trkpt lat="47.77421" lon="-1.84392">
        <ele>13.2</ele>
      </trkpt>
      <trkpt lat="47.77419" lon="-1.844">
        <ele>13.7</ele>
      </trkpt>
      <trkpt lat="47.77417" lon="-1.84407">
        <ele>14.2</ele>
      </trkpt>
      <trkpt lat="47.77415" lon="-1.84415">
        <ele>14.7</ele>
      </trkpt>
      <trkpt lat="47.77412" lon="-1.84421">
        <ele>15.2</ele>
      </trkpt>
      <trkpt lat="47.77409" lon="-1.84428">
        <ele>15.7</ele>
      </trkpt>
      <trkpt lat="47.77406" lon="-1.84434">
        <ele>16.2</ele>
      </trkpt>
      <trkpt lat="47.77402" lon="-1.8444">
        <ele>16.6</ele>
      </trkpt>
      <trkpt lat="47.77399" lon="-1.84445">
        <ele>16.9</ele>
      </trkpt>
      <trkpt lat="47.77397" lon="-1.84452">
        <ele>17.4</ele>
      </trkpt>
      <trkpt lat="47.77397" lon="-1.84457">
        <ele>17.9</ele>
      </trkpt>
      <trkpt lat="47.77399" lon="-1.84459">
        <ele>18.3</ele>
      </trkpt>
      <trkpt lat="47.77402" lon="-1.8446">
        <ele>18.6</ele>
      </trkpt>
      <trkpt lat="47.77405" lon="-1.84459">
        <ele>18.7</ele>
      </trkpt>
      <trkpt lat="47.77409" lon="-1.84458">
        <ele>18.9</ele>
      </trkpt>
      <trkpt lat="47.77412" lon="-1.84457">
        <ele>19</ele>
      </trkpt>
      <trkpt lat="47.77416" lon="-1.84455">
        <ele>19.1</ele>
      </trkpt>
      <trkpt lat="47.7742" lon="-1.84453">
        <ele>19.1</ele>
      </trkpt>
      <trkpt lat="47.77424" lon="-1.84451">
        <ele>19.1</ele>
      </trkpt>
      <trkpt lat="47.77429" lon="-1.84448">
        <ele>19.1</ele>
      </trkpt>
      <trkpt lat="47.77433" lon="-1.84446">
        <ele>19.2</ele>
      </trkpt>
      <trkpt lat="47.77438" lon="-1.84444">
        <ele>19.3</ele>
      </trkpt>
      <trkpt lat="47.77443" lon="-1.84442">
        <ele>19.3</ele>
      </trkpt>
      <trkpt lat="47.77448" lon="-1.8444">
        <ele>19.4</ele>
      </trkpt>
      <trkpt lat="47.77453" lon="-1.84438">
        <ele>19.5</ele>
      </trkpt>
      <trkpt lat="47.77458" lon="-1.84436">
        <ele>19.5</ele>
      </trkpt>
      <trkpt lat="47.77463" lon="-1.84434">
        <ele>19.6</ele>
      </trkpt>
      <trkpt lat="47.77467" lon="-1.84431">
        <ele>19.6</ele>
      </trkpt>
      <trkpt lat="47.77472" lon="-1.84429">
        <ele>19.7</ele>
      </trkpt>
      <trkpt lat="47.77477" lon="-1.84427">
        <ele>19.7</ele>
      </trkpt>
      <trkpt lat="47.77481" lon="-1.84425">
        <ele>19.8</ele>
      </trkpt>
      <trkpt lat="47.77486" lon="-1.84422">
        <ele>19.8</ele>
      </trkpt>
      <trkpt lat="47.77491" lon="-1.84419">
        <ele>19.8</ele>
      </trkpt>
      <trkpt lat="47.77497" lon="-1.84417">
        <ele>19.8</ele>
      </trkpt>
      <trkpt lat="47.77502" lon="-1.84414">
        <ele>19.9</ele>
      </trkpt>
      <trkpt lat="47.77508" lon="-1.84412">
        <ele>19.8</ele>
      </trkpt>
      <trkpt lat="47.77512" lon="-1.8441">
        <ele>19.8</ele>
      </trkpt>
      <trkpt lat="47.77516" lon="-1.84407">
        <ele>19.7</ele>
      </trkpt>
      <trkpt lat="47.77521" lon="-1.84405">
        <ele>19.8</ele>
      </trkpt>
      <trkpt lat="47.77526" lon="-1.84403">
        <ele>19.8</ele>
      </trkpt>
      <trkpt lat="47.77529" lon="-1.844">
        <ele>19.6</ele>
      </trkpt>
      <trkpt lat="47.77533" lon="-1.84397">
        <ele>19.5</ele>
      </trkpt>
      <trkpt lat="47.77538" lon="-1.84395">
        <ele>19.5</ele>
      </trkpt>
      <trkpt lat="47.77543" lon="-1.84393">
        <ele>19.5</ele>
      </trkpt>
      <trkpt lat="47.77548" lon="-1.84391">
        <ele>19.5</ele>
      </trkpt>
      <trkpt lat="47.77552" lon="-1.84388">
        <ele>19.4</ele>
      </trkpt>
      <trkpt lat="47.77556" lon="-1.84386">
        <ele>19.3</ele>
      </trkpt>
      <trkpt lat="47.77559" lon="-1.84384">
        <ele>19.3</ele>
      </trkpt>
      <trkpt lat="47.77562" lon="-1.84383">
        <ele>19.3</ele>
      </trkpt>
      <trkpt lat="47.77565" lon="-1.84381">
        <ele>19.3</ele>
      </trkpt>
      <trkpt lat="47.77569" lon="-1.84379">
        <ele>19.2</ele>
      </trkpt>
      <trkpt lat="47.77572" lon="-1.84377">
        <ele>19.2</ele>
      </trkpt>
      <trkpt lat="47.77576" lon="-1.84375">
        <ele>19.2</ele>
      </trkpt>
      <trkpt lat="47.7758" lon="-1.84374">
        <ele>19.2</ele>
      </trkpt>
      <trkpt lat="47.77583" lon="-1.84374">
        <ele>19.4</ele>
      </trkpt>
      <trkpt lat="47.77587" lon="-1.84375">
        <ele>19.7</ele>
      </trkpt>
      <trkpt lat="47.7759" lon="-1.84377">
        <ele>20.1</ele>
      </trkpt>
      <trkpt lat="47.77593" lon="-1.84378">
        <ele>20.4</ele>
      </trkpt>
      <trkpt lat="47.77595" lon="-1.84379">
        <ele>20.6</ele>
      </trkpt>
      <trkpt lat="47.77598" lon="-1.8438">
        <ele>20.8</ele>
      </trkpt>
      <trkpt lat="47.776" lon="-1.8438">
        <ele>21</ele>
      </trkpt>
      <trkpt lat="47.77601" lon="-1.84382">
        <ele>21.3</ele>
      </trkpt>
      <trkpt lat="47.77603" lon="-1.84383">
        <ele>21.6</ele>
      </trkpt>
      <trkpt lat="47.77604" lon="-1.84385">
        <ele>21.8</ele>
      </trkpt>
      <trkpt lat="47.77606" lon="-1.84387">
        <ele>22.2</ele>
      </trkpt>
      <trkpt lat="47.77608" lon="-1.84389">
        <ele>22.5</ele>
      </trkpt>
      <trkpt lat="47.77609" lon="-1.84391">
        <ele>22.9</ele>
      </trkpt>
      <trkpt lat="47.7761" lon="-1.84393">
        <ele>23.2</ele>
      </trkpt>
      <trkpt lat="47.77611" lon="-1.84395">
        <ele>23.6</ele>
      </trkpt>
      <trkpt lat="47.77612" lon="-1.84397">
        <ele>23.9</ele>
      </trkpt>
      <trkpt lat="47.77614" lon="-1.844">
        <ele>24.4</ele>
      </trkpt>
      <trkpt lat="47.77617" lon="-1.84402">
        <ele>24.9</ele>
      </trkpt>
      <trkpt lat="47.77619" lon="-1.84405">
        <ele>25.3</ele>
      </trkpt>
      <trkpt lat="47.7762" lon="-1.84406">
        <ele>25.7</ele>
      </trkpt>
      <trkpt lat="47.77621" lon="-1.84408">
        <ele>25.9</ele>
      </trkpt>
      <trkpt lat="47.77622" lon="-1.84409">
        <ele>26.2</ele>
      </trkpt>
      <trkpt lat="47.77622" lon="-1.84411">
        <ele>26.6</ele>
      </trkpt>
      <trkpt lat="47.77623" lon="-1.84414">
        <ele>26.9</ele>
      </trkpt>
      <trkpt lat="47.77624" lon="-1.84415">
        <ele>27.3</ele>
      </trkpt>
      <trkpt lat="47.77625" lon="-1.84418">
        <ele>27.7</ele>
      </trkpt>
      <trkpt lat="47.77626" lon="-1.84419">
        <ele>28</ele>
      </trkpt>
      <trkpt lat="47.77626" lon="-1.84421">
        <ele>28.4</ele>
      </trkpt>
      <trkpt lat="47.77626" lon="-1.84424">
        <ele>28.8</ele>
      </trkpt>
      <trkpt lat="47.77626" lon="-1.84426">
        <ele>29.1</ele>
      </trkpt>
      <trkpt lat="47.77627" lon="-1.84428">
        <ele>29.6</ele>
      </trkpt>
      <trkpt lat="47.77627" lon="-1.84429">
        <ele>29.8</ele>
      </trkpt>
      <trkpt lat="47.77628" lon="-1.84431">
        <ele>30.2</ele>
      </trkpt>
      <trkpt lat="47.77628" lon="-1.84434">
        <ele>30.6</ele>
      </trkpt>
      <trkpt lat="47.77628" lon="-1.84436">
        <ele>30.9</ele>
      </trkpt>
      <trkpt lat="47.77628" lon="-1.84437">
        <ele>31</ele>
      </trkpt>
      <trkpt lat="47.77628" lon="-1.84438">
        <ele>31.2</ele>
      </trkpt>
      <trkpt lat="47.77629" lon="-1.84439">
        <ele>31.4</ele>
      </trkpt>
      <trkpt lat="47.77629" lon="-1.84439">
        <ele>31.6</ele>
      </trkpt>
      <trkpt lat="47.77629" lon="-1.8444">
        <ele>31.7</ele>
      </trkpt>
      <trkpt lat="47.7763" lon="-1.84442">
        <ele>32</ele>
      </trkpt>
      <trkpt lat="47.7763" lon="-1.84444">
        <ele>32.4</ele>
      </trkpt>
      <trkpt lat="47.77631" lon="-1.84445">
        <ele>32.8</ele>
      </trkpt>
      <trkpt lat="47.77632" lon="-1.84447">
        <ele>33.1</ele>
      </trkpt>
      <trkpt lat="47.77634" lon="-1.84448">
        <ele>33.5</ele>
      </trkpt>
      <trkpt lat="47.77635" lon="-1.84449">
        <ele>33.8</ele>
      </trkpt>
      <trkpt lat="47.77636" lon="-1.84449">
        <ele>34</ele>
      </trkpt>
      <trkpt lat="47.77638" lon="-1.84449">
        <ele>34.1</ele>
      </trkpt>
      <trkpt lat="47.77639" lon="-1.84449">
        <ele>34.3</ele>
      </trkpt>
      <trkpt lat="47.77641" lon="-1.8445">
        <ele>34.5</ele>
      </trkpt>
      <trkpt lat="47.77642" lon="-1.8445">
        <ele>34.6</ele>
      </trkpt>
      <trkpt lat="47.77643" lon="-1.84449">
        <ele>34.7</ele>
      </trkpt>
      <trkpt lat="47.77644" lon="-1.84449">
        <ele>34.8</ele>
      </trkpt>
      <trkpt lat="47.77645" lon="-1.84451">
        <ele>35.1</ele>
      </trkpt>
      <trkpt lat="47.77646" lon="-1.84451">
        <ele>35.3</ele>
      </trkpt>
      <trkpt lat="47.77648" lon="-1.84451">
        <ele>35.6</ele>
      </trkpt>
      <trkpt lat="47.77651" lon="-1.84452">
        <ele>36</ele>
      </trkpt>
      <trkpt lat="47.77652" lon="-1.84452">
        <ele>36.2</ele>
      </trkpt>
      <trkpt lat="47.77654" lon="-1.84452">
        <ele>36.5</ele>
      </trkpt>
      <trkpt lat="47.77656" lon="-1.84451">
        <ele>36.5</ele>
      </trkpt>
      <trkpt lat="47.77658" lon="-1.84451">
        <ele>36.5</ele>
      </trkpt>
      <trkpt lat="47.7766" lon="-1.8445">
        <ele>36.6</ele>
      </trkpt>
      <trkpt lat="47.77662" lon="-1.8445">
        <ele>36.8</ele>
      </trkpt>
      <trkpt lat="47.77664" lon="-1.8445">
        <ele>37.1</ele>
      </trkpt>
      <trkpt lat="47.77667" lon="-1.84451">
        <ele>37.5</ele>
      </trkpt>
      <trkpt lat="47.77668" lon="-1.8445">
        <ele>37.4</ele>
      </trkpt>
      <trkpt lat="47.77669" lon="-1.84449">
        <ele>37.2</ele>
      </trkpt>
      <trkpt lat="47.7767" lon="-1.84448">
        <ele>37.2</ele>
      </trkpt>
      <trkpt lat="47.77672" lon="-1.84449">
        <ele>37.3</ele>
      </trkpt>
      <trkpt lat="47.77674" lon="-1.84448">
        <ele>37.2</ele>
      </trkpt>
      <trkpt lat="47.77676" lon="-1.84447">
        <ele>37.1</ele>
      </trkpt>
      <trkpt lat="47.77679" lon="-1.84447">
        <ele>37.1</ele>
      </trkpt>
      <trkpt lat="47.77682" lon="-1.84447">
        <ele>37.1</ele>
      </trkpt>
      <trkpt lat="47.77684" lon="-1.84445">
        <ele>36.8</ele>
      </trkpt>
      <trkpt lat="47.77686" lon="-1.84445">
        <ele>36.8</ele>
      </trkpt>
      <trkpt lat="47.77688" lon="-1.84445">
        <ele>36.8</ele>
      </trkpt>
      <trkpt lat="47.7769" lon="-1.84445">
        <ele>37</ele>
      </trkpt>
      <trkpt lat="47.77691" lon="-1.84447">
        <ele>37.3</ele>
      </trkpt>
      <trkpt lat="47.77694" lon="-1.84447">
        <ele>37.3</ele>
      </trkpt>
      <trkpt lat="47.77696" lon="-1.84447">
        <ele>37.4</ele>
      </trkpt>
      <trkpt lat="47.77697" lon="-1.84446">
        <ele>37.3</ele>
      </trkpt>
      <trkpt lat="47.77699" lon="-1.84447">
        <ele>37.5</ele>
      </trkpt>
      <trkpt lat="47.77702" lon="-1.84448">
        <ele>37.7</ele>
      </trkpt>
      <trkpt lat="47.77704" lon="-1.84447">
        <ele>37.6</ele>
      </trkpt>
      <trkpt lat="47.77708" lon="-1.84447">
        <ele>37.7</ele>
      </trkpt>
      <trkpt lat="47.77712" lon="-1.84448">
        <ele>38</ele>
      </trkpt>
      <trkpt lat="47.77715" lon="-1.84449">
        <ele>38.2</ele>
      </trkpt>
      <trkpt lat="47.77717" lon="-1.84449">
        <ele>38.4</ele>
      </trkpt>
      <trkpt lat="47.77719" lon="-1.84449">
        <ele>38.4</ele>
      </trkpt>
      <trkpt lat="47.7772" lon="-1.84449">
        <ele>38.3</ele>
      </trkpt>
      <trkpt lat="47.77722" lon="-1.84449">
        <ele>38.3</ele>
      </trkpt>
      <trkpt lat="47.77724" lon="-1.84449">
        <ele>38.5</ele>
      </trkpt>
      <trkpt lat="47.77727" lon="-1.84449">
        <ele>38.5</ele>
      </trkpt>
      <trkpt lat="47.77728" lon="-1.84449">
        <ele>38.5</ele>
      </trkpt>
      <trkpt lat="47.7773" lon="-1.84449">
        <ele>38.5</ele>
      </trkpt>
      <trkpt lat="47.77731" lon="-1.84448">
        <ele>38.4</ele>
      </trkpt>
      <trkpt lat="47.77733" lon="-1.84448">
        <ele>38.4</ele>
      </trkpt>
      <trkpt lat="47.77735" lon="-1.84447">
        <ele>38.2</ele>
      </trkpt>
      <trkpt lat="47.77738" lon="-1.84446">
        <ele>38</ele>
      </trkpt>
      <trkpt lat="47.77739" lon="-1.84446">
        <ele>38.1</ele>
      </trkpt>
      <trkpt lat="47.7774" lon="-1.84446">
        <ele>38</ele>
      </trkpt>
      <trkpt lat="47.77742" lon="-1.84445">
        <ele>38</ele>
      </trkpt>
      <trkpt lat="47.77744" lon="-1.84445">
        <ele>37.9</ele>
      </trkpt>
      <trkpt lat="47.77746" lon="-1.84444">
        <ele>37.9</ele>
      </trkpt>
      <trkpt lat="47.77747" lon="-1.84444">
        <ele>37.9</ele>
      </trkpt>
      <trkpt lat="47.77748" lon="-1.84444">
        <ele>37.9</ele>
      </trkpt>
      <trkpt lat="47.7775" lon="-1.84445">
        <ele>38</ele>
      </trkpt>
      <trkpt lat="47.77752" lon="-1.84445">
        <ele>37.9</ele>
      </trkpt>
      <trkpt lat="47.77754" lon="-1.84444">
        <ele>37.7</ele>
      </trkpt>
      <trkpt lat="47.77756" lon="-1.84444">
        <ele>37.5</ele>
      </trkpt>
      <trkpt lat="47.77758" lon="-1.84444">
        <ele>37.3</ele>
      </trkpt>
      <trkpt lat="47.7776" lon="-1.84445">
        <ele>37.4</ele>
      </trkpt>
      <trkpt lat="47.77762" lon="-1.84446">
        <ele>37.5</ele>
      </trkpt>
      <trkpt lat="47.77763" lon="-1.84447">
        <ele>37.7</ele>
      </trkpt>
      <trkpt lat="47.77765" lon="-1.84448">
        <ele>37.8</ele>
      </trkpt>
      <trkpt lat="47.77765" lon="-1.84448">
        <ele>37.9</ele>
      </trkpt>
      <trkpt lat="47.77765" lon="-1.84448">
        <ele>37.9</ele>
      </trkpt>
      <trkpt lat="47.77765" lon="-1.84448">
        <ele>37.9</ele>
      </trkpt>
      <trkpt lat="47.77765" lon="-1.84448">
        <ele>37.9</ele>
      </trkpt>
      <trkpt lat="47.77765" lon="-1.84448">
        <ele>37.9</ele>
      </trkpt>
      <trkpt lat="47.77765" lon="-1.84448">
        <ele>37.9</ele>
      </trkpt>
      <trkpt lat="47.77765" lon="-1.84448">
        <ele>37.9</ele>
      </trkpt>
      <trkpt lat="47.77765" lon="-1.84448">
        <ele>37.9</ele>
      </trkpt>
      <trkpt lat="47.77765" lon="-1.84448">
        <ele>37.9</ele>
      </trkpt>
      <trkpt lat="47.77765" lon="-1.84448">
        <ele>37.9</ele>
      </trkpt>
      <trkpt lat="47.77765" lon="-1.84448">
        <ele>37.9</ele>
      </trkpt>
      <trkpt lat="47.77766" lon="-1.84448">
        <ele>37.8</ele>
      </trkpt>
      <trkpt lat="47.77767" lon="-1.84449">
        <ele>37.9</ele>
      </trkpt>
      <trkpt lat="47.77769" lon="-1.8445">
        <ele>37.9</ele>
      </trkpt>
      <trkpt lat="47.77771" lon="-1.84451">
        <ele>37.9</ele>
      </trkpt>
      <trkpt lat="47.77773" lon="-1.84451">
        <ele>37.9</ele>
      </trkpt>
      <trkpt lat="47.77774" lon="-1.84451">
        <ele>37.9</ele>
      </trkpt>
      <trkpt lat="47.77775" lon="-1.84452">
        <ele>37.9</ele>
      </trkpt>
      <trkpt lat="47.77777" lon="-1.84453">
        <ele>37.9</ele>
      </trkpt>
      <trkpt lat="47.7778" lon="-1.84453">
        <ele>37.8</ele>
      </trkpt>
      <trkpt lat="47.77782" lon="-1.84453">
        <ele>37.6</ele>
      </trkpt>
      <trkpt lat="47.77785" lon="-1.84452">
        <ele>37.4</ele>
      </trkpt>
      <trkpt lat="47.77787" lon="-1.84452">
        <ele>37</ele>
      </trkpt>
      <trkpt lat="47.7779" lon="-1.84451">
        <ele>36.8</ele>
      </trkpt>
      <trkpt lat="47.77792" lon="-1.84452">
        <ele>36.7</ele>
      </trkpt>
      <trkpt lat="47.77796" lon="-1.84452">
        <ele>36.6</ele>
      </trkpt>
      <trkpt lat="47.77799" lon="-1.84454">
        <ele>36.6</ele>
      </trkpt>
      <trkpt lat="47.77802" lon="-1.84454">
        <ele>36.5</ele>
      </trkpt>
      <trkpt lat="47.77804" lon="-1.84455">
        <ele>36.5</ele>
      </trkpt>
      <trkpt lat="47.77806" lon="-1.84455">
        <ele>36.5</ele>
      </trkpt>
      <trkpt lat="47.77808" lon="-1.84457">
        <ele>36.5</ele>
      </trkpt>
      <trkpt lat="47.7781" lon="-1.84458">
        <ele>36.6</ele>
      </trkpt>
      <trkpt lat="47.77813" lon="-1.84459">
        <ele>36.6</ele>
      </trkpt>
      <trkpt lat="47.77814" lon="-1.84461">
        <ele>36.8</ele>
      </trkpt>
      <trkpt lat="47.77815" lon="-1.84463">
        <ele>37.1</ele>
      </trkpt>
      <trkpt lat="47.77816" lon="-1.84464">
        <ele>37.3</ele>
      </trkpt>
      <trkpt lat="47.77814" lon="-1.84466">
        <ele>37.7</ele>
      </trkpt>
      <trkpt lat="47.77813" lon="-1.84466">
        <ele>37.9</ele>
      </trkpt>
      <trkpt lat="47.77811" lon="-1.84467">
        <ele>38.1</ele>
      </trkpt>
      <trkpt lat="47.7781" lon="-1.84467">
        <ele>38.3</ele>
      </trkpt>
      <trkpt lat="47.77808" lon="-1.84468">
        <ele>38.5</ele>
      </trkpt>
      <trkpt lat="47.77807" lon="-1.84468">
        <ele>38.7</ele>
      </trkpt>
      <trkpt lat="47.77806" lon="-1.84469">
        <ele>38.9</ele>
      </trkpt>
      <trkpt lat="47.77804" lon="-1.84469">
        <ele>39</ele>
      </trkpt>
      <trkpt lat="47.77802" lon="-1.84469">
        <ele>39.2</ele>
      </trkpt>
      <trkpt lat="47.77801" lon="-1.8447">
        <ele>39.4</ele>
      </trkpt>
      <trkpt lat="47.778" lon="-1.84471">
        <ele>39.8</ele>
      </trkpt>
      <trkpt lat="47.77799" lon="-1.84472">
        <ele>40</ele>
      </trkpt>
      <trkpt lat="47.77798" lon="-1.84473">
        <ele>40.3</ele>
      </trkpt>
      <trkpt lat="47.77797" lon="-1.84474">
        <ele>40.5</ele>
      </trkpt>
      <trkpt lat="47.77796" lon="-1.84475">
        <ele>40.8</ele>
      </trkpt>
      <trkpt lat="47.77795" lon="-1.84476">
        <ele>41.1</ele>
      </trkpt>
      <trkpt lat="47.77794" lon="-1.84477">
        <ele>41.3</ele>
      </trkpt>
      <trkpt lat="47.77792" lon="-1.84477">
        <ele>41.6</ele>
      </trkpt>
      <trkpt lat="47.7779" lon="-1.84477">
        <ele>41.8</ele>
      </trkpt>
      <trkpt lat="47.77787" lon="-1.84477">
        <ele>42</ele>
      </trkpt>
      <trkpt lat="47.77785" lon="-1.84478">
        <ele>42.3</ele>
      </trkpt>
      <trkpt lat="47.77783" lon="-1.84478">
        <ele>42.5</ele>
      </trkpt>
      <trkpt lat="47.77781" lon="-1.84479">
        <ele>42.8</ele>
      </trkpt>
      <trkpt lat="47.77779" lon="-1.8448">
        <ele>43.2</ele>
      </trkpt>
      <trkpt lat="47.77778" lon="-1.84481">
        <ele>43.5</ele>
      </trkpt>
      <trkpt lat="47.77776" lon="-1.84482">
        <ele>43.8</ele>
      </trkpt>
      <trkpt lat="47.77774" lon="-1.84483">
        <ele>44.2</ele>
      </trkpt>
      <trkpt lat="47.77772" lon="-1.84484">
        <ele>44.7</ele>
      </trkpt>
      <trkpt lat="47.77772" lon="-1.84486">
        <ele>45.1</ele>
      </trkpt>
      <trkpt lat="47.77771" lon="-1.84488">
        <ele>45.6</ele>
      </trkpt>
      <trkpt lat="47.7777" lon="-1.8449">
        <ele>46.1</ele>
      </trkpt>
      <trkpt lat="47.7777" lon="-1.84492">
        <ele>46.5</ele>
      </trkpt>
      <trkpt lat="47.7777" lon="-1.84494">
        <ele>46.9</ele>
      </trkpt>
      <trkpt lat="47.7777" lon="-1.84496">
        <ele>47.3</ele>
      </trkpt>
      <trkpt lat="47.77771" lon="-1.84497">
        <ele>47.5</ele>
      </trkpt>
      <trkpt lat="47.77771" lon="-1.84499">
        <ele>47.8</ele>
      </trkpt>
      <trkpt lat="47.77772" lon="-1.845">
        <ele>47.9</ele>
      </trkpt>
      <trkpt lat="47.77773" lon="-1.845">
        <ele>47.8</ele>
      </trkpt>
      <trkpt lat="47.77775" lon="-1.84501">
        <ele>47.8</ele>
      </trkpt>
      <trkpt lat="47.77777" lon="-1.84501">
        <ele>47.7</ele>
      </trkpt>
      <trkpt lat="47.77779" lon="-1.84503">
        <ele>47.8</ele>
      </trkpt>
      <trkpt lat="47.77781" lon="-1.84504">
        <ele>47.8</ele>
      </trkpt>
      <trkpt lat="47.77782" lon="-1.84506">
        <ele>48.1</ele>
      </trkpt>
      <trkpt lat="47.77783" lon="-1.84508">
        <ele>48.3</ele>
      </trkpt>
      <trkpt lat="47.77784" lon="-1.84509">
        <ele>48.5</ele>
      </trkpt>
      <trkpt lat="47.77786" lon="-1.8451">
        <ele>48.6</ele>
      </trkpt>
      <trkpt lat="47.77787" lon="-1.84512">
        <ele>48.9</ele>
      </trkpt>
      <trkpt lat="47.77788" lon="-1.84515">
        <ele>49.3</ele>
      </trkpt>
      <trkpt lat="47.77789" lon="-1.84518">
        <ele>49.8</ele>
      </trkpt>
      <trkpt lat="47.77789" lon="-1.84521">
        <ele>50.3</ele>
      </trkpt>
      <trkpt lat="47.7779" lon="-1.84524">
        <ele>50.8</ele>
      </trkpt>
      <trkpt lat="47.7779" lon="-1.84525">
        <ele>51.2</ele>
      </trkpt>
      <trkpt lat="47.77789" lon="-1.84527">
        <ele>51.6</ele>
      </trkpt>
      <trkpt lat="47.77788" lon="-1.84529">
        <ele>52.1</ele>
      </trkpt>
      <trkpt lat="47.77786" lon="-1.8453">
        <ele>52.4</ele>
      </trkpt>
      <trkpt lat="47.77785" lon="-1.84532">
        <ele>52.9</ele>
      </trkpt>
      <trkpt lat="47.77783" lon="-1.84533">
        <ele>53.3</ele>
      </trkpt>
      <trkpt lat="47.77783" lon="-1.84535">
        <ele>53.8</ele>
      </trkpt>
      <trkpt lat="47.77782" lon="-1.84537">
        <ele>54.2</ele>
      </trkpt>
      <trkpt lat="47.77781" lon="-1.84538">
        <ele>54.5</ele>
      </trkpt>
      <trkpt lat="47.7778" lon="-1.8454">
        <ele>55</ele>
      </trkpt>
      <trkpt lat="47.77778" lon="-1.84542">
        <ele>55.5</ele>
      </trkpt>
      <trkpt lat="47.77778" lon="-1.84544">
        <ele>55.9</ele>
      </trkpt>
      <trkpt lat="47.77778" lon="-1.84546">
        <ele>56.3</ele>
      </trkpt>
      <trkpt lat="47.77779" lon="-1.84548">
        <ele>56.6</ele>
      </trkpt>
      <trkpt lat="47.77779" lon="-1.84549">
        <ele>56.9</ele>
      </trkpt>
      <trkpt lat="47.7778" lon="-1.84551">
        <ele>57.1</ele>
      </trkpt>
      <trkpt lat="47.7778" lon="-1.84552">
        <ele>57.4</ele>
      </trkpt>
      <trkpt lat="47.77781" lon="-1.84554">
        <ele>57.6</ele>
      </trkpt>
      <trkpt lat="47.77782" lon="-1.84555">
        <ele>57.8</ele>
      </trkpt>
      <trkpt lat="47.77783" lon="-1.84557">
        <ele>58.2</ele>
      </trkpt>
      <trkpt lat="47.77784" lon="-1.84559">
        <ele>58.4</ele>
      </trkpt>
      <trkpt lat="47.77786" lon="-1.84562">
        <ele>58.7</ele>
      </trkpt>
      <trkpt lat="47.77786" lon="-1.84564">
        <ele>59.1</ele>
      </trkpt>
      <trkpt lat="47.77785" lon="-1.84565">
        <ele>59.5</ele>
      </trkpt>
      <trkpt lat="47.77784" lon="-1.84566">
        <ele>59.8</ele>
      </trkpt>
      <trkpt lat="47.77784" lon="-1.84567">
        <ele>60</ele>
      </trkpt>
      <trkpt lat="47.77783" lon="-1.84567">
        <ele>60.1</ele>
      </trkpt>
      <trkpt lat="47.77782" lon="-1.84569">
        <ele>60.6</ele>
      </trkpt>
      <trkpt lat="47.77781" lon="-1.84571">
        <ele>61</ele>
      </trkpt>
      <trkpt lat="47.7778" lon="-1.84572">
        <ele>61.3</ele>
      </trkpt>
      <trkpt lat="47.77779" lon="-1.84573">
        <ele>61.6</ele>
      </trkpt>
      <trkpt lat="47.77778" lon="-1.84574">
        <ele>61.9</ele>
      </trkpt>
      <trkpt lat="47.77777" lon="-1.84576">
        <ele>62.3</ele>
      </trkpt>
      <trkpt lat="47.77777" lon="-1.84579">
        <ele>62.8</ele>
      </trkpt>
      <trkpt lat="47.77777" lon="-1.8458">
        <ele>63.1</ele>
      </trkpt>
      <trkpt lat="47.77778" lon="-1.84583">
        <ele>63.6</ele>
      </trkpt>
      <trkpt lat="47.77779" lon="-1.84585">
        <ele>63.8</ele>
      </trkpt>
      <trkpt lat="47.7778" lon="-1.84587">
        <ele>64.1</ele>
      </trkpt>
      <trkpt lat="47.77781" lon="-1.8459">
        <ele>64.4</ele>
      </trkpt>
      <trkpt lat="47.77782" lon="-1.84592">
        <ele>64.6</ele>
      </trkpt>
      <trkpt lat="47.77783" lon="-1.84594">
        <ele>64.8</ele>
      </trkpt>
      <trkpt lat="47.77784" lon="-1.84596">
        <ele>65.1</ele>
      </trkpt>
      <trkpt lat="47.77784" lon="-1.84598">
        <ele>65.4</ele>
      </trkpt>
      <trkpt lat="47.77784" lon="-1.84601">
        <ele>65.7</ele>
      </trkpt>
      <trkpt lat="47.77784" lon="-1.84603">
        <ele>66</ele>
      </trkpt>
      <trkpt lat="47.77783" lon="-1.84604">
        <ele>66.3</ele>
      </trkpt>
      <trkpt lat="47.77782" lon="-1.84607">
        <ele>66.8</ele>
      </trkpt>
      <trkpt lat="47.77782" lon="-1.84609">
        <ele>67.2</ele>
      </trkpt>
      <trkpt lat="47.77782" lon="-1.84612">
        <ele>67.5</ele>
      </trkpt>
      <trkpt lat="47.77782" lon="-1.84614">
        <ele>67.9</ele>
      </trkpt>
      <trkpt lat="47.77781" lon="-1.84616">
        <ele>68.3</ele>
      </trkpt>
      <trkpt lat="47.77781" lon="-1.84619">
        <ele>68.6</ele>
      </trkpt>
      <trkpt lat="47.77782" lon="-1.84622">
        <ele>69</ele>
      </trkpt>
      <trkpt lat="47.77782" lon="-1.84624">
        <ele>69.3</ele>
      </trkpt>
      <trkpt lat="47.77783" lon="-1.84626">
        <ele>69.6</ele>
      </trkpt>
      <trkpt lat="47.77782" lon="-1.84628">
        <ele>69.9</ele>
      </trkpt>
      <trkpt lat="47.77781" lon="-1.84629">
        <ele>70.2</ele>
      </trkpt>
      <trkpt lat="47.7778" lon="-1.8463">
        <ele>70.4</ele>
      </trkpt>
      <trkpt lat="47.7778" lon="-1.84632">
        <ele>70.6</ele>
      </trkpt>
      <trkpt lat="47.7778" lon="-1.84633">
        <ele>70.8</ele>
      </trkpt>
      <trkpt lat="47.77779" lon="-1.84635">
        <ele>71.2</ele>
      </trkpt>
      <trkpt lat="47.77779" lon="-1.84636">
        <ele>71.4</ele>
      </trkpt>
      <trkpt lat="47.77779" lon="-1.84638">
        <ele>71.7</ele>
      </trkpt>
      <trkpt lat="47.77778" lon="-1.8464">
        <ele>72</ele>
      </trkpt>
      <trkpt lat="47.77778" lon="-1.84642">
        <ele>72.3</ele>
      </trkpt>
      <trkpt lat="47.77777" lon="-1.84644">
        <ele>72.7</ele>
      </trkpt>
      <trkpt lat="47.77776" lon="-1.84645">
        <ele>72.9</ele>
      </trkpt>
      <trkpt lat="47.77774" lon="-1.84645">
        <ele>73.1</ele>
      </trkpt>
      <trkpt lat="47.77773" lon="-1.84646">
        <ele>73.3</ele>
      </trkpt>
      <trkpt lat="47.77772" lon="-1.84646">
        <ele>73.4</ele>
      </trkpt>
      <trkpt lat="47.7777" lon="-1.84646">
        <ele>73.5</ele>
      </trkpt>
      <trkpt lat="47.77769" lon="-1.84646">
        <ele>73.6</ele>
      </trkpt>
      <trkpt lat="47.77768" lon="-1.84647">
        <ele>73.9</ele>
      </trkpt>
      <trkpt lat="47.77766" lon="-1.84649">
        <ele>74.2</ele>
      </trkpt>
      <trkpt lat="47.77765" lon="-1.84651">
        <ele>74.6</ele>
      </trkpt>
      <trkpt lat="47.77764" lon="-1.84652">
        <ele>74.9</ele>
      </trkpt>
      <trkpt lat="47.77764" lon="-1.84654">
        <ele>75.1</ele>
      </trkpt>
      <trkpt lat="47.77764" lon="-1.84656">
        <ele>75.4</ele>
      </trkpt>
      <trkpt lat="47.77765" lon="-1.84658">
        <ele>75.7</ele>
      </trkpt>
      <trkpt lat="47.77766" lon="-1.84661">
        <ele>76</ele>
      </trkpt>
      <trkpt lat="47.77767" lon="-1.84663">
        <ele>76.3</ele>
      </trkpt>
      <trkpt lat="47.77768" lon="-1.84665">
        <ele>76.5</ele>
      </trkpt>
      <trkpt lat="47.77768" lon="-1.84667">
        <ele>76.7</ele>
      </trkpt>
      <trkpt lat="47.77768" lon="-1.84669">
        <ele>76.8</ele>
      </trkpt>
      <trkpt lat="47.77768" lon="-1.84671">
        <ele>76.9</ele>
      </trkpt>
      <trkpt lat="47.77768" lon="-1.84674">
        <ele>77</ele>
      </trkpt>
      <trkpt lat="47.77768" lon="-1.84676">
        <ele>77.2</ele>
      </trkpt>
      <trkpt lat="47.77768" lon="-1.84679">
        <ele>77.3</ele>
      </trkpt>
      <trkpt lat="47.77768" lon="-1.84681">
        <ele>77.4</ele>
      </trkpt>
      <trkpt lat="47.77767" lon="-1.84683">
        <ele>77.6</ele>
      </trkpt>
      <trkpt lat="47.77765" lon="-1.84685">
        <ele>77.8</ele>
      </trkpt>
      <trkpt lat="47.77763" lon="-1.84686">
        <ele>78</ele>
      </trkpt>
      <trkpt lat="47.77761" lon="-1.84687">
        <ele>78.2</ele>
      </trkpt>
      <trkpt lat="47.77759" lon="-1.84688">
        <ele>78.4</ele>
      </trkpt>
      <trkpt lat="47.77757" lon="-1.8469">
        <ele>78.6</ele>
      </trkpt>
      <trkpt lat="47.77756" lon="-1.84692">
        <ele>78.8</ele>
      </trkpt>
      <trkpt lat="47.77755" lon="-1.84694">
        <ele>78.9</ele>
      </trkpt>
      <trkpt lat="47.77754" lon="-1.84694">
        <ele>79</ele>
      </trkpt>
      <trkpt lat="47.77753" lon="-1.84695">
        <ele>79.1</ele>
      </trkpt>
      <trkpt lat="47.77752" lon="-1.84697">
        <ele>79.3</ele>
      </trkpt>
      <trkpt lat="47.77751" lon="-1.84699">
        <ele>79.5</ele>
      </trkpt>
      <trkpt lat="47.7775" lon="-1.84701">
        <ele>79.6</ele>
      </trkpt>
      <trkpt lat="47.77749" lon="-1.84704">
        <ele>79.7</ele>
      </trkpt>
      <trkpt lat="47.77748" lon="-1.84705">
        <ele>79.8</ele>
      </trkpt>
      <trkpt lat="47.77748" lon="-1.84708">
        <ele>79.9</ele>
      </trkpt>
      <trkpt lat="47.77748" lon="-1.8471">
        <ele>80</ele>
      </trkpt>
      <trkpt lat="47.77748" lon="-1.84712">
        <ele>80.1</ele>
      </trkpt>
      <trkpt lat="47.77748" lon="-1.84714">
        <ele>80.2</ele>
      </trkpt>
      <trkpt lat="47.77748" lon="-1.84716">
        <ele>80.2</ele>
      </trkpt>
      <trkpt lat="47.77748" lon="-1.84717">
        <ele>80.3</ele>
      </trkpt>
      <trkpt lat="47.77748" lon="-1.84717">
        <ele>80.3</ele>
      </trkpt>
      <trkpt lat="47.77748" lon="-1.84717">
        <ele>80.3</ele>
      </trkpt>
      <trkpt lat="47.77748" lon="-1.84717">
        <ele>80.3</ele>
      </trkpt>
      <trkpt lat="47.77748" lon="-1.84717">
        <ele>80.3</ele>
      </trkpt>
      <trkpt lat="47.77748" lon="-1.84717">
        <ele>80.3</ele>
      </trkpt>
      <trkpt lat="47.77748" lon="-1.84717">
        <ele>80.3</ele>
      </trkpt>
      <trkpt lat="47.77748" lon="-1.84717">
        <ele>80.3</ele>
      </trkpt>
      <trkpt lat="47.77748" lon="-1.84717">
        <ele>80.3</ele>
      </trkpt>
      <trkpt lat="47.77748" lon="-1.84717">
        <ele>80.3</ele>
      </trkpt>
      <trkpt lat="47.77748" lon="-1.84717">
        <ele>80.3</ele>
      </trkpt>
      <trkpt lat="47.77748" lon="-1.84717">
        <ele>80.3</ele>
      </trkpt>
      <trkpt lat="47.77748" lon="-1.84717">
        <ele>80.3</ele>
      </trkpt>
      <trkpt lat="47.77748" lon="-1.84717">
        <ele>80.3</ele>
      </trkpt>
      <trkpt lat="47.77748" lon="-1.84717">
        <ele>80.3</ele>
      </trkpt>
      <trkpt lat="47.77748" lon="-1.84717">
        <ele>80.3</ele>
      </trkpt>
      <trkpt lat="47.77748" lon="-1.84717">
        <ele>80.3</ele>
      </trkpt>
      <trkpt lat="47.77748" lon="-1.84717">
        <ele>80.3</ele>
      </trkpt>
      <trkpt lat="47.77748" lon="-1.84717">
        <ele>80.3</ele>
      </trkpt>
      <trkpt lat="47.77748" lon="-1.84717">
        <ele>80.3</ele>
      </trkpt>
      <trkpt lat="47.77748" lon="-1.84717">
        <ele>80.3</ele>
      </trkpt>
      <trkpt lat="47.77748" lon="-1.84717">
        <ele>80.3</ele>
      </trkpt>
      <trkpt lat="47.77748" lon="-1.84717">
        <ele>80.3</ele>
      </trkpt>
      <trkpt lat="47.77747" lon="-1.8472">
        <ele>80.4</ele>
      </trkpt>
      <trkpt lat="47.77745" lon="-1.84722">
        <ele>80.4</ele>
      </trkpt>
      <trkpt lat="47.77743" lon="-1.84724">
        <ele>80.4</ele>
      </trkpt>
      <trkpt lat="47.77739" lon="-1.84726">
        <ele>80.4</ele>
      </trkpt>
      <trkpt lat="47.77737" lon="-1.84728">
        <ele>80.4</ele>
      </trkpt>
      <trkpt lat="47.77735" lon="-1.84731">
        <ele>80.4</ele>
      </trkpt>
      <trkpt lat="47.77733" lon="-1.84735">
        <ele>80.5</ele>
      </trkpt>
      <trkpt lat="47.77729" lon="-1.84739">
        <ele>80.6</ele>
      </trkpt>
      <trkpt lat="47.77726" lon="-1.84743">
        <ele>80.7</ele>
      </trkpt>
      <trkpt lat="47.77724" lon="-1.84745">
        <ele>80.8</ele>
      </trkpt>
      <trkpt lat="47.77722" lon="-1.84748">
        <ele>80.9</ele>
      </trkpt>
      <trkpt lat="47.77719" lon="-1.84752">
        <ele>81</ele>
      </trkpt>
      <trkpt lat="47.77716" lon="-1.84753">
        <ele>81</ele>
      </trkpt>
      <trkpt lat="47.77713" lon="-1.84756">
        <ele>81.1</ele>
      </trkpt>
      <trkpt lat="47.7771" lon="-1.84759">
        <ele>81.2</ele>
      </trkpt>
      <trkpt lat="47.77708" lon="-1.84763">
        <ele>81.3</ele>
      </trkpt>
      <trkpt lat="47.77707" lon="-1.84766">
        <ele>81.5</ele>
      </trkpt>
      <trkpt lat="47.77703" lon="-1.8477">
        <ele>81.7</ele>
      </trkpt>
      <trkpt lat="47.77698" lon="-1.84774">
        <ele>81.9</ele>
      </trkpt>
      <trkpt lat="47.77695" lon="-1.84778">
        <ele>82</ele>
      </trkpt>
      <trkpt lat="47.77691" lon="-1.84781">
        <ele>82.1</ele>
      </trkpt>
      <trkpt lat="47.77687" lon="-1.84782">
        <ele>82.2</ele>
      </trkpt>
      <trkpt lat="47.77683" lon="-1.84785">
        <ele>82.2</ele>
      </trkpt>
      <trkpt lat="47.7768" lon="-1.84787">
        <ele>82.4</ele>
      </trkpt>
      <trkpt lat="47.77676" lon="-1.84789">
        <ele>82.5</ele>
      </trkpt>
      <trkpt lat="47.77673" lon="-1.84791">
        <ele>82.6</ele>
      </trkpt>
      <trkpt lat="47.77669" lon="-1.84793">
        <ele>82.7</ele>
      </trkpt>
      <trkpt lat="47.77665" lon="-1.84795">
        <ele>82.7</ele>
      </trkpt>
      <trkpt lat="47.77661" lon="-1.84797">
        <ele>82.5</ele>
      </trkpt>
      <trkpt lat="47.77656" lon="-1.848">
        <ele>82.4</ele>
      </trkpt>
      <trkpt lat="47.77653" lon="-1.84802">
        <ele>82.3</ele>
      </trkpt>
      <trkpt lat="47.7765" lon="-1.84804">
        <ele>82.1</ele>
      </trkpt>
      <trkpt lat="47.77646" lon="-1.84805">
        <ele>82</ele>
      </trkpt>
      <trkpt lat="47.77643" lon="-1.84806">
        <ele>81.8</ele>
      </trkpt>
      <trkpt lat="47.7764" lon="-1.84806">
        <ele>81.6</ele>
      </trkpt>
      <trkpt lat="47.77636" lon="-1.84806">
        <ele>81.3</ele>
      </trkpt>
      <trkpt lat="47.77632" lon="-1.84806">
        <ele>81</ele>
      </trkpt>
      <trkpt lat="47.77628" lon="-1.84807">
        <ele>80.7</ele>
      </trkpt>
      <trkpt lat="47.77624" lon="-1.84808">
        <ele>80.4</ele>
      </trkpt>
      <trkpt lat="47.7762" lon="-1.84808">
        <ele>80.2</ele>
      </trkpt>
      <trkpt lat="47.77617" lon="-1.84808">
        <ele>79.9</ele>
      </trkpt>
      <trkpt lat="47.77612" lon="-1.84807">
        <ele>79.5</ele>
      </trkpt>
      <trkpt lat="47.77607" lon="-1.84806">
        <ele>78.9</ele>
      </trkpt>
      <trkpt lat="47.77602" lon="-1.84805">
        <ele>78.4</ele>
      </trkpt>
      <trkpt lat="47.77598" lon="-1.84805">
        <ele>78.1</ele>
      </trkpt>
      <trkpt lat="47.77595" lon="-1.84805">
        <ele>77.8</ele>
      </trkpt>
      <trkpt lat="47.77589" lon="-1.84805">
        <ele>77.3</ele>
      </trkpt>
      <trkpt lat="47.77585" lon="-1.84804">
        <ele>76.9</ele>
      </trkpt>
      <trkpt lat="47.7758" lon="-1.84804">
        <ele>76.6</ele>
      </trkpt>
      <trkpt lat="47.77576" lon="-1.84804">
        <ele>76.5</ele>
      </trkpt>
      <trkpt lat="47.77573" lon="-1.84804">
        <ele>76.4</ele>
      </trkpt>
      <trkpt lat="47.77568" lon="-1.84804">
        <ele>76.3</ele>
      </trkpt>
      <trkpt lat="47.77564" lon="-1.84805">
        <ele>76.1</ele>
      </trkpt>
      <trkpt lat="47.7756" lon="-1.84804">
        <ele>76</ele>
      </trkpt>
      <trkpt lat="47.77555" lon="-1.84804">
        <ele>75.7</ele>
      </trkpt>
      <trkpt lat="47.7755" lon="-1.84803">
        <ele>75.5</ele>
      </trkpt>
      <trkpt lat="47.77546" lon="-1.84804">
        <ele>75.4</ele>
      </trkpt>
      <trkpt lat="47.77541" lon="-1.84804">
        <ele>75.3</ele>
      </trkpt>
      <trkpt lat="47.77535" lon="-1.84805">
        <ele>75.1</ele>
      </trkpt>
      <trkpt lat="47.7753" lon="-1.84805">
        <ele>75</ele>
      </trkpt>
      <trkpt lat="47.77526" lon="-1.84806">
        <ele>75</ele>
      </trkpt>
      <trkpt lat="47.77519" lon="-1.84807">
        <ele>74.9</ele>
      </trkpt>
      <trkpt lat="47.77514" lon="-1.84807">
        <ele>74.8</ele>
      </trkpt>
      <trkpt lat="47.77508" lon="-1.84809">
        <ele>74.7</ele>
      </trkpt>
      <trkpt lat="47.77504" lon="-1.8481">
        <ele>74.8</ele>
      </trkpt>
      <trkpt lat="47.77499" lon="-1.84811">
        <ele>74.8</ele>
      </trkpt>
      <trkpt lat="47.77493" lon="-1.84813">
        <ele>74.9</ele>
      </trkpt>
      <trkpt lat="47.77488" lon="-1.84815">
        <ele>74.9</ele>
      </trkpt>
      <trkpt lat="47.77482" lon="-1.84817">
        <ele>75</ele>
      </trkpt>
      <trkpt lat="47.77477" lon="-1.84818">
        <ele>75</ele>
      </trkpt>
      <trkpt lat="47.77471" lon="-1.84819">
        <ele>75</ele>
      </trkpt>
      <trkpt lat="47.77467" lon="-1.84821">
        <ele>75.1</ele>
      </trkpt>
      <trkpt lat="47.77463" lon="-1.84822">
        <ele>75.1</ele>
      </trkpt>
      <trkpt lat="47.77458" lon="-1.84824">
        <ele>75.4</ele>
      </trkpt>
      <trkpt lat="47.77454" lon="-1.84827">
        <ele>75.7</ele>
      </trkpt>
      <trkpt lat="47.77451" lon="-1.8483">
        <ele>76.2</ele>
      </trkpt>
      <trkpt lat="47.77446" lon="-1.84834">
        <ele>76.7</ele>
      </trkpt>
      <trkpt lat="47.77441" lon="-1.84838">
        <ele>76.9</ele>
      </trkpt>
      <trkpt lat="47.77437" lon="-1.84842">
        <ele>77</ele>
      </trkpt>
      <trkpt lat="47.77434" lon="-1.84846">
        <ele>77.2</ele>
      </trkpt>
      <trkpt lat="47.77429" lon="-1.84851">
        <ele>77.3</ele>
      </trkpt>
      <trkpt lat="47.77425" lon="-1.84854">
        <ele>77.4</ele>
      </trkpt>
      <trkpt lat="47.77422" lon="-1.84858">
        <ele>77.6</ele>
      </trkpt>
      <trkpt lat="47.77419" lon="-1.84863">
        <ele>77.8</ele>
      </trkpt>
      <trkpt lat="47.77411" lon="-1.84872">
        <ele>77.8</ele>
      </trkpt>
      <trkpt lat="47.7741" lon="-1.84875">
        <ele>77.8</ele>
      </trkpt>
      <trkpt lat="47.77408" lon="-1.84877">
        <ele>77.8</ele>
      </trkpt>
      <trkpt lat="47.77405" lon="-1.84882">
        <ele>77.8</ele>
      </trkpt>
      <trkpt lat="47.77401" lon="-1.84888">
        <ele>77.8</ele>
      </trkpt>
      <trkpt lat="47.77399" lon="-1.84893">
        <ele>77.9</ele>
      </trkpt>
      <trkpt lat="47.77396" lon="-1.84898">
        <ele>78</ele>
      </trkpt>
      <trkpt lat="47.77393" lon="-1.84904">
        <ele>78.1</ele>
      </trkpt>
      <trkpt lat="47.7739" lon="-1.84911">
        <ele>78.3</ele>
      </trkpt>
      <trkpt lat="47.77387" lon="-1.84917">
        <ele>78.5</ele>
      </trkpt>
      <trkpt lat="47.77384" lon="-1.84923">
        <ele>78.5</ele>
      </trkpt>
      <trkpt lat="47.77383" lon="-1.84927">
        <ele>78.6</ele>
      </trkpt>
      <trkpt lat="47.77381" lon="-1.84934">
        <ele>78.8</ele>
      </trkpt>
      <trkpt lat="47.77378" lon="-1.84941">
        <ele>78.9</ele>
      </trkpt>
      <trkpt lat="47.77376" lon="-1.84947">
        <ele>79</ele>
      </trkpt>
      <trkpt lat="47.77374" lon="-1.84953">
        <ele>79.2</ele>
      </trkpt>
      <trkpt lat="47.77372" lon="-1.8496">
        <ele>79.4</ele>
      </trkpt>
      <trkpt lat="47.77369" lon="-1.84969">
        <ele>79.7</ele>
      </trkpt>
      <trkpt lat="47.77367" lon="-1.84975">
        <ele>79.9</ele>
      </trkpt>
      <trkpt lat="47.77365" lon="-1.84981">
        <ele>80.2</ele>
      </trkpt>
      <trkpt lat="47.77364" lon="-1.84987">
        <ele>80.4</ele>
      </trkpt>
      <trkpt lat="47.77362" lon="-1.84993">
        <ele>80.6</ele>
      </trkpt>
      <trkpt lat="47.7736" lon="-1.84999">
        <ele>80.9</ele>
      </trkpt>
      <trkpt lat="47.77358" lon="-1.85004">
        <ele>80.9</ele>
      </trkpt>
      <trkpt lat="47.77357" lon="-1.85007">
        <ele>80.9</ele>
      </trkpt>
      <trkpt lat="47.77356" lon="-1.85006">
        <ele>80.9</ele>
      </trkpt>
      <trkpt lat="47.77354" lon="-1.85005">
        <ele>80.8</ele>
      </trkpt>
      <trkpt lat="47.77353" lon="-1.85003">
        <ele>80.7</ele>
      </trkpt>
      <trkpt lat="47.77351" lon="-1.85">
        <ele>80.6</ele>
      </trkpt>
      <trkpt lat="47.7735" lon="-1.85">
        <ele>80.6</ele>
      </trkpt>
      <trkpt lat="47.77349" lon="-1.84999">
        <ele>80.5</ele>
      </trkpt>
      <trkpt lat="47.77349" lon="-1.84999">
        <ele>80.5</ele>
      </trkpt>
      <trkpt lat="47.77349" lon="-1.84999">
        <ele>80.5</ele>
      </trkpt>
      <trkpt lat="47.77349" lon="-1.84999">
        <ele>80.5</ele>
      </trkpt>
      <trkpt lat="47.77349" lon="-1.84999">
        <ele>80.5</ele>
      </trkpt>
      <trkpt lat="47.77349" lon="-1.84999">
        <ele>80.5</ele>
      </trkpt>
      <trkpt lat="47.77349" lon="-1.84999">
        <ele>80.5</ele>
      </trkpt>
      <trkpt lat="47.77348" lon="-1.84999">
        <ele>80.5</ele>
      </trkpt>
      <trkpt lat="47.77347" lon="-1.84998">
        <ele>80.4</ele>
      </trkpt>
      <trkpt lat="47.77346" lon="-1.84997">
        <ele>80.3</ele>
      </trkpt>
      <trkpt lat="47.77345" lon="-1.84995">
        <ele>80.1</ele>
      </trkpt>
      <trkpt lat="47.77343" lon="-1.84992">
        <ele>79.8</ele>
      </trkpt>
      <trkpt lat="47.77342" lon="-1.84989">
        <ele>79.6</ele>
      </trkpt>
      <trkpt lat="47.7734" lon="-1.84987">
        <ele>79.4</ele>
      </trkpt>
      <trkpt lat="47.77339" lon="-1.84985">
        <ele>79.2</ele>
      </trkpt>
      <trkpt lat="47.77336" lon="-1.84983">
        <ele>79</ele>
      </trkpt>
      <trkpt lat="47.77333" lon="-1.8498">
        <ele>78.5</ele>
      </trkpt>
      <trkpt lat="47.77329" lon="-1.84977">
        <ele>78.1</ele>
      </trkpt>
      <trkpt lat="47.77326" lon="-1.84975">
        <ele>77.7</ele>
      </trkpt>
      <trkpt lat="47.77323" lon="-1.84972">
        <ele>77.2</ele>
      </trkpt>
      <trkpt lat="47.77319" lon="-1.84971">
        <ele>76.8</ele>
      </trkpt>
      <trkpt lat="47.77314" lon="-1.84967">
        <ele>76.2</ele>
      </trkpt>
      <trkpt lat="47.77311" lon="-1.84963">
        <ele>75.5</ele>
      </trkpt>
      <trkpt lat="47.77306" lon="-1.84954">
        <ele>74.5</ele>
      </trkpt>
      <trkpt lat="47.77304" lon="-1.84952">
        <ele>74.2</ele>
      </trkpt>
      <trkpt lat="47.77302" lon="-1.8495">
        <ele>73.9</ele>
      </trkpt>
      <trkpt lat="47.77296" lon="-1.84945">
        <ele>73.1</ele>
      </trkpt>
      <trkpt lat="47.77289" lon="-1.8494">
        <ele>72.1</ele>
      </trkpt>
      <trkpt lat="47.77283" lon="-1.84936">
        <ele>71.3</ele>
      </trkpt>
      <trkpt lat="47.77278" lon="-1.84932">
        <ele>70.6</ele>
      </trkpt>
      <trkpt lat="47.77271" lon="-1.84926">
        <ele>69.6</ele>
      </trkpt>
      <trkpt lat="47.77262" lon="-1.84921">
        <ele>68.4</ele>
      </trkpt>
      <trkpt lat="47.77255" lon="-1.84918">
        <ele>67.5</ele>
      </trkpt>
      <trkpt lat="47.77248" lon="-1.84918">
        <ele>67</ele>
      </trkpt>
      <trkpt lat="47.77245" lon="-1.8492">
        <ele>66.6</ele>
      </trkpt>
      <trkpt lat="47.77239" lon="-1.84921">
        <ele>66</ele>
      </trkpt>
      <trkpt lat="47.77234" lon="-1.84921">
        <ele>65.4</ele>
      </trkpt>
      <trkpt lat="47.77229" lon="-1.84918">
        <ele>64.6</ele>
      </trkpt>
      <trkpt lat="47.77225" lon="-1.84917">
        <ele>64.1</ele>
      </trkpt>
      <trkpt lat="47.7722" lon="-1.84917">
        <ele>63.5</ele>
      </trkpt>
      <trkpt lat="47.77216" lon="-1.84917">
        <ele>63</ele>
      </trkpt>
      <trkpt lat="47.77212" lon="-1.84921">
        <ele>62.8</ele>
      </trkpt>
      <trkpt lat="47.77209" lon="-1.84925">
        <ele>62.8</ele>
      </trkpt>
      <trkpt lat="47.77205" lon="-1.84928">
        <ele>62.7</ele>
      </trkpt>
      <trkpt lat="47.77201" lon="-1.84931">
        <ele>62.5</ele>
      </trkpt>
      <trkpt lat="47.77196" lon="-1.84934">
        <ele>62.2</ele>
      </trkpt>
      <trkpt lat="47.7719" lon="-1.84937">
        <ele>61.7</ele>
      </trkpt>
      <trkpt lat="47.77183" lon="-1.84938">
        <ele>61</ele>
      </trkpt>
      <trkpt lat="47.77178" lon="-1.84939">
        <ele>60.5</ele>
      </trkpt>
      <trkpt lat="47.77173" lon="-1.8494">
        <ele>60</ele>
      </trkpt>
      <trkpt lat="47.77167" lon="-1.84941">
        <ele>59.4</ele>
      </trkpt>
      <trkpt lat="47.77161" lon="-1.84943">
        <ele>59.1</ele>
      </trkpt>
      <trkpt lat="47.77155" lon="-1.84943">
        <ele>58.6</ele>
      </trkpt>
      <trkpt lat="47.77152" lon="-1.84942">
        <ele>58.3</ele>
      </trkpt>
      <trkpt lat="47.77147" lon="-1.8494">
        <ele>57.8</ele>
      </trkpt>
      <trkpt lat="47.77142" lon="-1.84938">
        <ele>57.1</ele>
      </trkpt>
      <trkpt lat="47.77137" lon="-1.84935">
        <ele>56.4</ele>
      </trkpt>
      <trkpt lat="47.77134" lon="-1.84931">
        <ele>55.9</ele>
      </trkpt>
      <trkpt lat="47.77132" lon="-1.84927">
        <ele>55.4</ele>
      </trkpt>
      <trkpt lat="47.77129" lon="-1.84921">
        <ele>54.6</ele>
      </trkpt>
      <trkpt lat="47.77127" lon="-1.84914">
        <ele>53.9</ele>
      </trkpt>
      <trkpt lat="47.77125" lon="-1.84906">
        <ele>53.3</ele>
      </trkpt>
      <trkpt lat="47.77123" lon="-1.84901">
        <ele>52.9</ele>
      </trkpt>
      <trkpt lat="47.7712" lon="-1.84898">
        <ele>52.5</ele>
      </trkpt>
      <trkpt lat="47.77117" lon="-1.84896">
        <ele>52.1</ele>
      </trkpt>
      <trkpt lat="47.77113" lon="-1.84893">
        <ele>51.5</ele>
      </trkpt>
      <trkpt lat="47.77108" lon="-1.84884">
        <ele>50.5</ele>
      </trkpt>
      <trkpt lat="47.77108" lon="-1.84884">
        <ele>50.5</ele>
      </trkpt>
      <trkpt lat="47.77107" lon="-1.84881">
        <ele>50.2</ele>
      </trkpt>
      <trkpt lat="47.77105" lon="-1.84878">
        <ele>49.9</ele>
      </trkpt>
      <trkpt lat="47.77103" lon="-1.84878">
        <ele>49.6</ele>
      </trkpt>
      <trkpt lat="47.771" lon="-1.84879">
        <ele>49.3</ele>
      </trkpt>
      <trkpt lat="47.77096" lon="-1.8488">
        <ele>49.1</ele>
      </trkpt>
      <trkpt lat="47.77094" lon="-1.8488">
        <ele>48.9</ele>
      </trkpt>
      <trkpt lat="47.77092" lon="-1.84881">
        <ele>48.8</ele>
      </trkpt>
      <trkpt lat="47.77089" lon="-1.84883">
        <ele>48.7</ele>
      </trkpt>
      <trkpt lat="47.77086" lon="-1.84885">
        <ele>48.6</ele>
      </trkpt>
      <trkpt lat="47.77083" lon="-1.84886">
        <ele>48.4</ele>
      </trkpt>
      <trkpt lat="47.77081" lon="-1.84886">
        <ele>48.2</ele>
      </trkpt>
      <trkpt lat="47.77077" lon="-1.84885">
        <ele>47.9</ele>
      </trkpt>
      <trkpt lat="47.77073" lon="-1.84883">
        <ele>47.4</ele>
      </trkpt>
      <trkpt lat="47.77069" lon="-1.8488">
        <ele>47</ele>
      </trkpt>
      <trkpt lat="47.77065" lon="-1.84876">
        <ele>46.3</ele>
      </trkpt>
      <trkpt lat="47.77061" lon="-1.84872">
        <ele>45.6</ele>
      </trkpt>
      <trkpt lat="47.77059" lon="-1.84869">
        <ele>45.2</ele>
      </trkpt>
      <trkpt lat="47.77056" lon="-1.84865">
        <ele>44.6</ele>
      </trkpt>
      <trkpt lat="47.77049" lon="-1.84861">
        <ele>43.5</ele>
      </trkpt>
      <trkpt lat="47.77044" lon="-1.84857">
        <ele>42.7</ele>
      </trkpt>
      <trkpt lat="47.7704" lon="-1.84854">
        <ele>42</ele>
      </trkpt>
      <trkpt lat="47.77036" lon="-1.8485">
        <ele>41.3</ele>
      </trkpt>
      <trkpt lat="47.77031" lon="-1.8485">
        <ele>40.9</ele>
      </trkpt>
      <trkpt lat="47.77027" lon="-1.84849">
        <ele>40.5</ele>
      </trkpt>
      <trkpt lat="47.77023" lon="-1.84849">
        <ele>40</ele>
      </trkpt>
      <trkpt lat="47.7702" lon="-1.84846">
        <ele>39.5</ele>
      </trkpt>
      <trkpt lat="47.77016" lon="-1.84845">
        <ele>38.9</ele>
      </trkpt>
      <trkpt lat="47.7701" lon="-1.84843">
        <ele>38.2</ele>
      </trkpt>
      <trkpt lat="47.77004" lon="-1.84839">
        <ele>37.1</ele>
      </trkpt>
      <trkpt lat="47.76998" lon="-1.84835">
        <ele>35.9</ele>
      </trkpt>
      <trkpt lat="47.76994" lon="-1.84832">
        <ele>34.8</ele>
      </trkpt>
      <trkpt lat="47.76988" lon="-1.84831">
        <ele>34</ele>
      </trkpt>
      <trkpt lat="47.76981" lon="-1.84831">
        <ele>33</ele>
      </trkpt>
      <trkpt lat="47.76975" lon="-1.84832">
        <ele>32.3</ele>
      </trkpt>
      <trkpt lat="47.7697" lon="-1.84834">
        <ele>31.7</ele>
      </trkpt>
      <trkpt lat="47.76966" lon="-1.84834">
        <ele>31.2</ele>
      </trkpt>
      <trkpt lat="47.76964" lon="-1.84836">
        <ele>31</ele>
      </trkpt>
      <trkpt lat="47.76962" lon="-1.84836">
        <ele>30.8</ele>
      </trkpt>
      <trkpt lat="47.76961" lon="-1.84837">
        <ele>30.6</ele>
      </trkpt>
      <trkpt lat="47.76959" lon="-1.84838">
        <ele>30.5</ele>
      </trkpt>
      <trkpt lat="47.76957" lon="-1.8484">
        <ele>30.4</ele>
      </trkpt>
      <trkpt lat="47.76954" lon="-1.84841">
        <ele>30</ele>
      </trkpt>
      <trkpt lat="47.76952" lon="-1.84843">
        <ele>29.8</ele>
      </trkpt>
      <trkpt lat="47.7695" lon="-1.84845">
        <ele>29.7</ele>
      </trkpt>
      <trkpt lat="47.76949" lon="-1.84847">
        <ele>29.7</ele>
      </trkpt>
      <trkpt lat="47.76949" lon="-1.84849">
        <ele>29.9</ele>
      </trkpt>
      <trkpt lat="47.76949" lon="-1.84852">
        <ele>30</ele>
      </trkpt>
      <trkpt lat="47.76948" lon="-1.84856">
        <ele>30.1</ele>
      </trkpt>
      <trkpt lat="47.76947" lon="-1.84858">
        <ele>30.2</ele>
      </trkpt>
      <trkpt lat="47.76947" lon="-1.84861">
        <ele>30.3</ele>
      </trkpt>
      <trkpt lat="47.76946" lon="-1.84863">
        <ele>30.4</ele>
      </trkpt>
      <trkpt lat="47.76947" lon="-1.84865">
        <ele>30.7</ele>
      </trkpt>
      <trkpt lat="47.76948" lon="-1.84868">
        <ele>31</ele>
      </trkpt>
      <trkpt lat="47.76949" lon="-1.84872">
        <ele>31.5</ele>
      </trkpt>
      <trkpt lat="47.7695" lon="-1.84874">
        <ele>31.8</ele>
      </trkpt>
      <trkpt lat="47.7695" lon="-1.84878">
        <ele>32.1</ele>
      </trkpt>
      <trkpt lat="47.7695" lon="-1.84884">
        <ele>32.5</ele>
      </trkpt>
      <trkpt lat="47.76949" lon="-1.84889">
        <ele>32.7</ele>
      </trkpt>
      <trkpt lat="47.76949" lon="-1.84894">
        <ele>33.1</ele>
      </trkpt>
      <trkpt lat="47.76949" lon="-1.84899">
        <ele>33.5</ele>
      </trkpt>
      <trkpt lat="47.76949" lon="-1.84903">
        <ele>33.8</ele>
      </trkpt>
      <trkpt lat="47.7695" lon="-1.84908">
        <ele>34.4</ele>
      </trkpt>
      <trkpt lat="47.76951" lon="-1.84914">
        <ele>35.1</ele>
      </trkpt>
      <trkpt lat="47.76951" lon="-1.84919">
        <ele>35.4</ele>
      </trkpt>
      <trkpt lat="47.76951" lon="-1.84922">
        <ele>35.2</ele>
      </trkpt>
      <trkpt lat="47.76951" lon="-1.84926">
        <ele>35.3</ele>
      </trkpt>
      <trkpt lat="47.76951" lon="-1.84931">
        <ele>35.5</ele>
      </trkpt>
      <trkpt lat="47.76951" lon="-1.84938">
        <ele>35.5</ele>
      </trkpt>
      <trkpt lat="47.7695" lon="-1.84944">
        <ele>35.3</ele>
      </trkpt>
      <trkpt lat="47.76948" lon="-1.84949">
        <ele>35</ele>
      </trkpt>
      <trkpt lat="47.76946" lon="-1.84956">
        <ele>34.4</ele>
      </trkpt>
      <trkpt lat="47.76944" lon="-1.84963">
        <ele>34.2</ele>
      </trkpt>
      <trkpt lat="47.76942" lon="-1.8497">
        <ele>33.6</ele>
      </trkpt>
      <trkpt lat="47.76941" lon="-1.84977">
        <ele>33.4</ele>
      </trkpt>
      <trkpt lat="47.7694" lon="-1.84984">
        <ele>33.4</ele>
      </trkpt>
      <trkpt lat="47.76942" lon="-1.84992">
        <ele>34.1</ele>
      </trkpt>
      <trkpt lat="47.76944" lon="-1.84997">
        <ele>34.6</ele>
      </trkpt>
      <trkpt lat="47.76944" lon="-1.85001">
        <ele>34.6</ele>
      </trkpt>
      <trkpt lat="47.76944" lon="-1.85005">
        <ele>34.6</ele>
      </trkpt>
      <trkpt lat="47.76943" lon="-1.85011">
        <ele>34.6</ele>
      </trkpt>
      <trkpt lat="47.76942" lon="-1.85017">
        <ele>34.6</ele>
      </trkpt>
      <trkpt lat="47.7694" lon="-1.85021">
        <ele>34.4</ele>
      </trkpt>
      <trkpt lat="47.7694" lon="-1.85029">
        <ele>34.7</ele>
      </trkpt>
      <trkpt lat="47.76938" lon="-1.85032">
        <ele>34.3</ele>
      </trkpt>
      <trkpt lat="47.76936" lon="-1.85038">
        <ele>34.1</ele>
      </trkpt>
      <trkpt lat="47.76935" lon="-1.85045">
        <ele>33.9</ele>
      </trkpt>
      <trkpt lat="47.76932" lon="-1.85052">
        <ele>33.6</ele>
      </trkpt>
      <trkpt lat="47.76934" lon="-1.85056">
        <ele>34.2</ele>
      </trkpt>
      <trkpt lat="47.76938" lon="-1.85062">
        <ele>35.2</ele>
      </trkpt>
      <trkpt lat="47.76938" lon="-1.85065">
        <ele>35.4</ele>
      </trkpt>
      <trkpt lat="47.76939" lon="-1.85066">
        <ele>35.7</ele>
      </trkpt>
      <trkpt lat="47.7694" lon="-1.8507">
        <ele>36.2</ele>
      </trkpt>
      <trkpt lat="47.76941" lon="-1.85073">
        <ele>36.4</ele>
      </trkpt>
      <trkpt lat="47.7694" lon="-1.85077">
        <ele>36.4</ele>
      </trkpt>
      <trkpt lat="47.76939" lon="-1.8508">
        <ele>36.3</ele>
      </trkpt>
      <trkpt lat="47.76939" lon="-1.85086">
        <ele>36.7</ele>
      </trkpt>
      <trkpt lat="47.76939" lon="-1.85091">
        <ele>37.1</ele>
      </trkpt>
      <trkpt lat="47.76937" lon="-1.85096">
        <ele>37.2</ele>
      </trkpt>
      <trkpt lat="47.76936" lon="-1.85101">
        <ele>37.5</ele>
      </trkpt>
      <trkpt lat="47.76936" lon="-1.85107">
        <ele>38</ele>
      </trkpt>
      <trkpt lat="47.76934" lon="-1.85115">
        <ele>38.3</ele>
      </trkpt>
      <trkpt lat="47.76932" lon="-1.85122">
        <ele>38.5</ele>
      </trkpt>
      <trkpt lat="47.76929" lon="-1.85128">
        <ele>38.4</ele>
      </trkpt>
      <trkpt lat="47.76926" lon="-1.85134">
        <ele>38.2</ele>
      </trkpt>
      <trkpt lat="47.76922" lon="-1.85141">
        <ele>37.8</ele>
      </trkpt>
      <trkpt lat="47.76919" lon="-1.85145">
        <ele>37.4</ele>
      </trkpt>
      <trkpt lat="47.76915" lon="-1.85149">
        <ele>37.6</ele>
      </trkpt>
      <trkpt lat="47.76912" lon="-1.85155">
        <ele>38.7</ele>
      </trkpt>
      <trkpt lat="47.76911" lon="-1.85161">
        <ele>39.4</ele>
      </trkpt>
      <trkpt lat="47.76909" lon="-1.85168">
        <ele>40.2</ele>
      </trkpt>
      <trkpt lat="47.76908" lon="-1.85173">
        <ele>40.8</ele>
      </trkpt>
      <trkpt lat="47.76908" lon="-1.85176">
        <ele>41.1</ele>
      </trkpt>
      <trkpt lat="47.76907" lon="-1.8518">
        <ele>41.4</ele>
      </trkpt>
      <trkpt lat="47.76906" lon="-1.85183">
        <ele>41.9</ele>
      </trkpt>
      <trkpt lat="47.76905" lon="-1.85184">
        <ele>42</ele>
      </trkpt>
      <trkpt lat="47.76904" lon="-1.85186">
        <ele>42.2</ele>
      </trkpt>
      <trkpt lat="47.76902" lon="-1.85188">
        <ele>42.7</ele>
      </trkpt>
      <trkpt lat="47.76899" lon="-1.85193">
        <ele>43.4</ele>
      </trkpt>
      <trkpt lat="47.76895" lon="-1.85195">
        <ele>43.9</ele>
      </trkpt>
      <trkpt lat="47.76892" lon="-1.85196">
        <ele>44.3</ele>
      </trkpt>
      <trkpt lat="47.76892" lon="-1.85195">
        <ele>44.2</ele>
      </trkpt>
      <trkpt lat="47.76892" lon="-1.85193">
        <ele>44.1</ele>
      </trkpt>
      <trkpt lat="47.76893" lon="-1.8519">
        <ele>43.9</ele>
      </trkpt>
      <trkpt lat="47.76893" lon="-1.85186">
        <ele>43.6</ele>
      </trkpt>
      <trkpt lat="47.76894" lon="-1.85182">
        <ele>43.3</ele>
      </trkpt>
      <trkpt lat="47.76894" lon="-1.85176">
        <ele>43</ele>
      </trkpt>
      <trkpt lat="47.76894" lon="-1.85171">
        <ele>42.8</ele>
      </trkpt>
      <trkpt lat="47.76895" lon="-1.85166">
        <ele>42.3</ele>
      </trkpt>
      <trkpt lat="47.76896" lon="-1.85161">
        <ele>41.7</ele>
      </trkpt>
      <trkpt lat="47.76897" lon="-1.85157">
        <ele>41.3</ele>
      </trkpt>
      <trkpt lat="47.76898" lon="-1.85151">
        <ele>40.7</ele>
      </trkpt>
      <trkpt lat="47.76899" lon="-1.85144">
        <ele>39.8</ele>
      </trkpt>
      <trkpt lat="47.76901" lon="-1.85138">
        <ele>39</ele>
      </trkpt>
      <trkpt lat="47.76902" lon="-1.85132">
        <ele>38.4</ele>
      </trkpt>
      <trkpt lat="47.76903" lon="-1.85125">
        <ele>37.6</ele>
      </trkpt>
      <trkpt lat="47.76903" lon="-1.85115">
        <ele>36.6</ele>
      </trkpt>
      <trkpt lat="47.76903" lon="-1.85106">
        <ele>35.9</ele>
      </trkpt>
      <trkpt lat="47.76903" lon="-1.85097">
        <ele>35.2</ele>
      </trkpt>
      <trkpt lat="47.76903" lon="-1.85089">
        <ele>34.4</ele>
      </trkpt>
      <trkpt lat="47.76903" lon="-1.8508">
        <ele>33.9</ele>
      </trkpt>
      <trkpt lat="47.76903" lon="-1.85071">
        <ele>33.4</ele>
      </trkpt>
      <trkpt lat="47.76903" lon="-1.85062">
        <ele>33</ele>
      </trkpt>
      <trkpt lat="47.76902" lon="-1.85053">
        <ele>32.8</ele>
      </trkpt>
      <trkpt lat="47.76901" lon="-1.85043">
        <ele>32.7</ele>
      </trkpt>
      <trkpt lat="47.769" lon="-1.85032">
        <ele>32.5</ele>
      </trkpt>
      <trkpt lat="47.76899" lon="-1.85022">
        <ele>32.1</ele>
      </trkpt>
      <trkpt lat="47.76899" lon="-1.85011">
        <ele>31.7</ele>
      </trkpt>
      <trkpt lat="47.76898" lon="-1.85">
        <ele>31.4</ele>
      </trkpt>
      <trkpt lat="47.76896" lon="-1.84992">
        <ele>31.4</ele>
      </trkpt>
      <trkpt lat="47.76894" lon="-1.84981">
        <ele>31.4</ele>
      </trkpt>
      <trkpt lat="47.76892" lon="-1.84969">
        <ele>31.2</ele>
      </trkpt>
      <trkpt lat="47.7689" lon="-1.84958">
        <ele>31.1</ele>
      </trkpt>
      <trkpt lat="47.76889" lon="-1.84947">
        <ele>30.9</ele>
      </trkpt>
      <trkpt lat="47.76888" lon="-1.84939">
        <ele>30.6</ele>
      </trkpt>
      <trkpt lat="47.76887" lon="-1.84928">
        <ele>30.3</ele>
      </trkpt>
      <trkpt lat="47.76886" lon="-1.84915">
        <ele>29.8</ele>
      </trkpt>
      <trkpt lat="47.76885" lon="-1.84904">
        <ele>29</ele>
      </trkpt>
      <trkpt lat="47.76884" lon="-1.84893">
        <ele>28.2</ele>
      </trkpt>
      <trkpt lat="47.76883" lon="-1.84884">
        <ele>27.4</ele>
      </trkpt>
      <trkpt lat="47.76882" lon="-1.84872">
        <ele>26.5</ele>
      </trkpt>
      <trkpt lat="47.7688" lon="-1.84859">
        <ele>25.4</ele>
      </trkpt>
      <trkpt lat="47.76878" lon="-1.84848">
        <ele>24.4</ele>
      </trkpt>
      <trkpt lat="47.76876" lon="-1.84838">
        <ele>23.5</ele>
      </trkpt>
      <trkpt lat="47.76874" lon="-1.84827">
        <ele>22.4</ele>
      </trkpt>
      <trkpt lat="47.76873" lon="-1.84815">
        <ele>21.5</ele>
      </trkpt>
      <trkpt lat="47.76872" lon="-1.84804">
        <ele>20.5</ele>
      </trkpt>
      <trkpt lat="47.76871" lon="-1.84793">
        <ele>19.6</ele>
      </trkpt>
      <trkpt lat="47.7687" lon="-1.8478">
        <ele>18.5</ele>
      </trkpt>
      <trkpt lat="47.7687" lon="-1.84773">
        <ele>17.9</ele>
      </trkpt>
      <trkpt lat="47.76871" lon="-1.84764">
        <ele>17.2</ele>
      </trkpt>
      <trkpt lat="47.76871" lon="-1.84755">
        <ele>16.4</ele>
      </trkpt>
      <trkpt lat="47.76869" lon="-1.84751">
        <ele>16.1</ele>
      </trkpt>
      <trkpt lat="47.76866" lon="-1.84749">
        <ele>15.9</ele>
      </trkpt>
      <trkpt lat="47.76862" lon="-1.84748">
        <ele>15.9</ele>
      </trkpt>
      <trkpt lat="47.76858" lon="-1.8475">
        <ele>16</ele>
      </trkpt>
      <trkpt lat="47.76854" lon="-1.84752">
        <ele>16.2</ele>
      </trkpt>
      <trkpt lat="47.76849" lon="-1.84755">
        <ele>16.4</ele>
      </trkpt>
      <trkpt lat="47.76846" lon="-1.84756">
        <ele>16.5</ele>
      </trkpt>
      <trkpt lat="47.76842" lon="-1.84759">
        <ele>16.7</ele>
      </trkpt>
      <trkpt lat="47.76838" lon="-1.84762">
        <ele>16.9</ele>
      </trkpt>
      <trkpt lat="47.76834" lon="-1.84764">
        <ele>17</ele>
      </trkpt>
      <trkpt lat="47.76831" lon="-1.84766">
        <ele>17.1</ele>
      </trkpt>
      <trkpt lat="47.76827" lon="-1.84769">
        <ele>17.3</ele>
      </trkpt>
      <trkpt lat="47.76824" lon="-1.84771">
        <ele>17.4</ele>
      </trkpt>
      <trkpt lat="47.76819" lon="-1.84774">
        <ele>17.6</ele>
      </trkpt>
      <trkpt lat="47.76815" lon="-1.84776">
        <ele>17.8</ele>
      </trkpt>
      <trkpt lat="47.76813" lon="-1.84778">
        <ele>18</ele>
      </trkpt>
      <trkpt lat="47.76809" lon="-1.8478">
        <ele>18.2</ele>
      </trkpt>
      <trkpt lat="47.76806" lon="-1.84783">
        <ele>18.5</ele>
      </trkpt>
      <trkpt lat="47.76802" lon="-1.84785">
        <ele>18.8</ele>
      </trkpt>
      <trkpt lat="47.76799" lon="-1.84788">
        <ele>19.2</ele>
      </trkpt>
      <trkpt lat="47.76796" lon="-1.8479">
        <ele>19.5</ele>
      </trkpt>
      <trkpt lat="47.76794" lon="-1.84791">
        <ele>19.7</ele>
      </trkpt>
      <trkpt lat="47.7679" lon="-1.84793">
        <ele>19.9</ele>
      </trkpt>
      <trkpt lat="47.76787" lon="-1.84795">
        <ele>20.2</ele>
      </trkpt>
      <trkpt lat="47.76784" lon="-1.84797">
        <ele>20.6</ele>
      </trkpt>
      <trkpt lat="47.76781" lon="-1.84799">
        <ele>21</ele>
      </trkpt>
      <trkpt lat="47.76777" lon="-1.84801">
        <ele>21.3</ele>
      </trkpt>
      <trkpt lat="47.76774" lon="-1.84802">
        <ele>21.6</ele>
      </trkpt>
      <trkpt lat="47.76771" lon="-1.84805">
        <ele>22.1</ele>
      </trkpt>
      <trkpt lat="47.76768" lon="-1.84806">
        <ele>22.5</ele>
      </trkpt>
      <trkpt lat="47.76765" lon="-1.84808">
        <ele>22.9</ele>
      </trkpt>
      <trkpt lat="47.76762" lon="-1.8481">
        <ele>23.3</ele>
      </trkpt>
      <trkpt lat="47.76759" lon="-1.84811">
        <ele>23.6</ele>
      </trkpt>
      <trkpt lat="47.76755" lon="-1.84813">
        <ele>24.1</ele>
      </trkpt>
      <trkpt lat="47.76752" lon="-1.84814">
        <ele>24.4</ele>
      </trkpt>
      <trkpt lat="47.76749" lon="-1.84815">
        <ele>24.7</ele>
      </trkpt>
      <trkpt lat="47.76747" lon="-1.84816">
        <ele>24.9</ele>
      </trkpt>
      <trkpt lat="47.76744" lon="-1.84818">
        <ele>25.1</ele>
      </trkpt>
      <trkpt lat="47.76742" lon="-1.8482">
        <ele>25.3</ele>
      </trkpt>
      <trkpt lat="47.76739" lon="-1.84821">
        <ele>25.5</ele>
      </trkpt>
      <trkpt lat="47.76736" lon="-1.84823">
        <ele>25.7</ele>
      </trkpt>
      <trkpt lat="47.76733" lon="-1.84825">
        <ele>26</ele>
      </trkpt>
      <trkpt lat="47.76731" lon="-1.84827">
        <ele>26.4</ele>
      </trkpt>
      <trkpt lat="47.76729" lon="-1.84829">
        <ele>26.6</ele>
      </trkpt>
      <trkpt lat="47.76726" lon="-1.84829">
        <ele>26.7</ele>
      </trkpt>
      <trkpt lat="47.76723" lon="-1.84831">
        <ele>26.8</ele>
      </trkpt>
      <trkpt lat="47.76722" lon="-1.84832">
        <ele>27.1</ele>
      </trkpt>
      <trkpt lat="47.76719" lon="-1.84834">
        <ele>27.4</ele>
      </trkpt>
      <trkpt lat="47.76718" lon="-1.84835">
        <ele>27.7</ele>
      </trkpt>
      <trkpt lat="47.76716" lon="-1.84837">
        <ele>28</ele>
      </trkpt>
      <trkpt lat="47.76715" lon="-1.84838">
        <ele>28.4</ele>
      </trkpt>
      <trkpt lat="47.76715" lon="-1.84839">
        <ele>28.6</ele>
      </trkpt>
      <trkpt lat="47.76714" lon="-1.8484">
        <ele>28.7</ele>
      </trkpt>
      <trkpt lat="47.76713" lon="-1.84841">
        <ele>28.9</ele>
      </trkpt>
      <trkpt lat="47.76711" lon="-1.84842">
        <ele>29.2</ele>
      </trkpt>
      <trkpt lat="47.76709" lon="-1.84843">
        <ele>29.3</ele>
      </trkpt>
      <trkpt lat="47.76708" lon="-1.84844">
        <ele>29.5</ele>
      </trkpt>
      <trkpt lat="47.76706" lon="-1.84845">
        <ele>29.6</ele>
      </trkpt>
      <trkpt lat="47.76705" lon="-1.84845">
        <ele>29.6</ele>
      </trkpt>
      <trkpt lat="47.76703" lon="-1.84845">
        <ele>29.7</ele>
      </trkpt>
      <trkpt lat="47.767" lon="-1.84845">
        <ele>29.5</ele>
      </trkpt>
      <trkpt lat="47.76698" lon="-1.84845">
        <ele>29.4</ele>
      </trkpt>
      <trkpt lat="47.76696" lon="-1.84845">
        <ele>29.4</ele>
      </trkpt>
      <trkpt lat="47.76695" lon="-1.84845">
        <ele>29.4</ele>
      </trkpt>
      <trkpt lat="47.76692" lon="-1.84844">
        <ele>29.1</ele>
      </trkpt>
      <trkpt lat="47.7669" lon="-1.84843">
        <ele>28.9</ele>
      </trkpt>
      <trkpt lat="47.76689" lon="-1.84843">
        <ele>28.8</ele>
      </trkpt>
      <trkpt lat="47.76688" lon="-1.84843">
        <ele>28.8</ele>
      </trkpt>
      <trkpt lat="47.76685" lon="-1.84843">
        <ele>28.7</ele>
      </trkpt>
      <trkpt lat="47.76683" lon="-1.84843">
        <ele>28.7</ele>
      </trkpt>
      <trkpt lat="47.7668" lon="-1.84842">
        <ele>28.5</ele>
      </trkpt>
      <trkpt lat="47.76677" lon="-1.84841">
        <ele>28.2</ele>
      </trkpt>
      <trkpt lat="47.76673" lon="-1.8484">
        <ele>27.8</ele>
      </trkpt>
      <trkpt lat="47.76669" lon="-1.8484">
        <ele>27.7</ele>
      </trkpt>
      <trkpt lat="47.76665" lon="-1.84839">
        <ele>27.3</ele>
      </trkpt>
      <trkpt lat="47.7666" lon="-1.84836">
        <ele>26.8</ele>
      </trkpt>
      <trkpt lat="47.76655" lon="-1.84833">
        <ele>26.3</ele>
      </trkpt>
      <trkpt lat="47.76649" lon="-1.84832">
        <ele>26.1</ele>
      </trkpt>
      <trkpt lat="47.76643" lon="-1.8483">
        <ele>25.8</ele>
      </trkpt>
      <trkpt lat="47.76637" lon="-1.84827">
        <ele>25.5</ele>
      </trkpt>
      <trkpt lat="47.76631" lon="-1.84825">
        <ele>25.2</ele>
      </trkpt>
      <trkpt lat="47.76625" lon="-1.84824">
        <ele>25.1</ele>
      </trkpt>
      <trkpt lat="47.76617" lon="-1.84822">
        <ele>24.8</ele>
      </trkpt>
      <trkpt lat="47.76609" lon="-1.84819">
        <ele>24.4</ele>
      </trkpt>
      <trkpt lat="47.76602" lon="-1.84817">
        <ele>24</ele>
      </trkpt>
      <trkpt lat="47.76595" lon="-1.84815">
        <ele>23.6</ele>
      </trkpt>
      <trkpt lat="47.76589" lon="-1.84812">
        <ele>23.1</ele>
      </trkpt>
      <trkpt lat="47.76581" lon="-1.84809">
        <ele>22.8</ele>
      </trkpt>
      <trkpt lat="47.76571" lon="-1.84803">
        <ele>22.6</ele>
      </trkpt>
      <trkpt lat="47.76564" lon="-1.84798">
        <ele>22.2</ele>
      </trkpt>
      <trkpt lat="47.76558" lon="-1.84795">
        <ele>22.2</ele>
      </trkpt>
      <trkpt lat="47.76553" lon="-1.8479">
        <ele>21.5</ele>
      </trkpt>
      <trkpt lat="47.76547" lon="-1.84785">
        <ele>20.9</ele>
      </trkpt>
      <trkpt lat="47.7654" lon="-1.84779">
        <ele>20.2</ele>
      </trkpt>
      <trkpt lat="47.76534" lon="-1.84776">
        <ele>20.2</ele>
      </trkpt>
      <trkpt lat="47.76529" lon="-1.84776">
        <ele>20.8</ele>
      </trkpt>
      <trkpt lat="47.76525" lon="-1.84777">
        <ele>21.4</ele>
      </trkpt>
      <trkpt lat="47.76519" lon="-1.84775">
        <ele>21.4</ele>
      </trkpt>
      <trkpt lat="47.76514" lon="-1.84772">
        <ele>21.2</ele>
      </trkpt>
      <trkpt lat="47.76509" lon="-1.84769">
        <ele>20.9</ele>
      </trkpt>
      <trkpt lat="47.76505" lon="-1.84765">
        <ele>20.5</ele>
      </trkpt>
      <trkpt lat="47.76501" lon="-1.84763">
        <ele>20.3</ele>
      </trkpt>
      <trkpt lat="47.76497" lon="-1.8476">
        <ele>20.5</ele>
      </trkpt>
      <trkpt lat="47.76493" lon="-1.84758">
        <ele>21</ele>
      </trkpt>
      <trkpt lat="47.7649" lon="-1.84756">
        <ele>21.4</ele>
      </trkpt>
      <trkpt lat="47.76486" lon="-1.84753">
        <ele>21.8</ele>
      </trkpt>
      <trkpt lat="47.76483" lon="-1.8475">
        <ele>22</ele>
      </trkpt>
      <trkpt lat="47.7648" lon="-1.84746">
        <ele>22.6</ele>
      </trkpt>
      <trkpt lat="47.76476" lon="-1.84742">
        <ele>23.2</ele>
      </trkpt>
      <trkpt lat="47.76472" lon="-1.84738">
        <ele>23.8</ele>
      </trkpt>
      <trkpt lat="47.76468" lon="-1.84734">
        <ele>24.5</ele>
      </trkpt>
      <trkpt lat="47.76464" lon="-1.8473">
        <ele>25.2</ele>
      </trkpt>
      <trkpt lat="47.7646" lon="-1.84726">
        <ele>25.8</ele>
      </trkpt>
      <trkpt lat="47.76456" lon="-1.84721">
        <ele>26.2</ele>
      </trkpt>
      <trkpt lat="47.76452" lon="-1.84716">
        <ele>26.5</ele>
      </trkpt>
      <trkpt lat="47.76446" lon="-1.8471">
        <ele>27</ele>
      </trkpt>
      <trkpt lat="47.76443" lon="-1.84706">
        <ele>27.1</ele>
      </trkpt>
      <trkpt lat="47.7644" lon="-1.84701">
        <ele>27.2</ele>
      </trkpt>
      <trkpt lat="47.76435" lon="-1.84695">
        <ele>27.3</ele>
      </trkpt>
      <trkpt lat="47.76432" lon="-1.8469">
        <ele>27.1</ele>
      </trkpt>
      <trkpt lat="47.7643" lon="-1.84684">
        <ele>26.5</ele>
      </trkpt>
      <trkpt lat="47.76426" lon="-1.84677">
        <ele>26.1</ele>
      </trkpt>
      <trkpt lat="47.76423" lon="-1.84672">
        <ele>25.8</ele>
      </trkpt>
      <trkpt lat="47.76419" lon="-1.84666">
        <ele>25.4</ele>
      </trkpt>
      <trkpt lat="47.76415" lon="-1.84659">
        <ele>25.6</ele>
      </trkpt>
      <trkpt lat="47.76413" lon="-1.84654">
        <ele>26.1</ele>
      </trkpt>
      <trkpt lat="47.7641" lon="-1.84647">
        <ele>26.6</ele>
      </trkpt>
      <trkpt lat="47.76407" lon="-1.8464">
        <ele>27</ele>
      </trkpt>
      <trkpt lat="47.76405" lon="-1.84633">
        <ele>27.2</ele>
      </trkpt>
      <trkpt lat="47.76402" lon="-1.84624">
        <ele>27.3</ele>
      </trkpt>
      <trkpt lat="47.764" lon="-1.84616">
        <ele>27.4</ele>
      </trkpt>
      <trkpt lat="47.76397" lon="-1.84608">
        <ele>27.7</ele>
      </trkpt>
      <trkpt lat="47.76396" lon="-1.84602">
        <ele>27.9</ele>
      </trkpt>
      <trkpt lat="47.76393" lon="-1.84594">
        <ele>28</ele>
      </trkpt>
      <trkpt lat="47.76391" lon="-1.84585">
        <ele>28</ele>
      </trkpt>
      <trkpt lat="47.7639" lon="-1.84578">
        <ele>28</ele>
      </trkpt>
      <trkpt lat="47.76388" lon="-1.84568">
        <ele>27.8</ele>
      </trkpt>
      <trkpt lat="47.76388" lon="-1.84562">
        <ele>27.5</ele>
      </trkpt>
      <trkpt lat="47.76387" lon="-1.84555">
        <ele>27.1</ele>
      </trkpt>
      <trkpt lat="47.76387" lon="-1.84547">
        <ele>26.5</ele>
      </trkpt>
      <trkpt lat="47.76387" lon="-1.84541">
        <ele>26.1</ele>
      </trkpt>
      <trkpt lat="47.76386" lon="-1.84534">
        <ele>25.7</ele>
      </trkpt>
      <trkpt lat="47.76386" lon="-1.84529">
        <ele>25.3</ele>
      </trkpt>
      <trkpt lat="47.76386" lon="-1.84522">
        <ele>24.7</ele>
      </trkpt>
      <trkpt lat="47.76386" lon="-1.84514">
        <ele>24.1</ele>
      </trkpt>
      <trkpt lat="47.76386" lon="-1.84508">
        <ele>23.5</ele>
      </trkpt>
      <trkpt lat="47.76386" lon="-1.84502">
        <ele>23</ele>
      </trkpt>
      <trkpt lat="47.76385" lon="-1.84496">
        <ele>22.8</ele>
      </trkpt>
      <trkpt lat="47.76384" lon="-1.84489">
        <ele>22.8</ele>
      </trkpt>
      <trkpt lat="47.76384" lon="-1.84483">
        <ele>22.7</ele>
      </trkpt>
      <trkpt lat="47.76383" lon="-1.84476">
        <ele>22.6</ele>
      </trkpt>
      <trkpt lat="47.76383" lon="-1.84469">
        <ele>22.6</ele>
      </trkpt>
      <trkpt lat="47.76382" lon="-1.84463">
        <ele>22.4</ele>
      </trkpt>
      <trkpt lat="47.76382" lon="-1.84455">
        <ele>22.3</ele>
      </trkpt>
      <trkpt lat="47.76381" lon="-1.84448">
        <ele>22.2</ele>
      </trkpt>
      <trkpt lat="47.7638" lon="-1.84441">
        <ele>22.1</ele>
      </trkpt>
      <trkpt lat="47.76379" lon="-1.84433">
        <ele>22</ele>
      </trkpt>
      <trkpt lat="47.76379" lon="-1.84427">
        <ele>21.8</ele>
      </trkpt>
      <trkpt lat="47.76378" lon="-1.8442">
        <ele>21.8</ele>
      </trkpt>
      <trkpt lat="47.76377" lon="-1.84412">
        <ele>21.7</ele>
      </trkpt>
      <trkpt lat="47.76376" lon="-1.84406">
        <ele>21.6</ele>
      </trkpt>
      <trkpt lat="47.76375" lon="-1.844">
        <ele>21.7</ele>
      </trkpt>
      <trkpt lat="47.76373" lon="-1.84394">
        <ele>21.8</ele>
      </trkpt>
      <trkpt lat="47.76371" lon="-1.84388">
        <ele>22.2</ele>
      </trkpt>
      <trkpt lat="47.76368" lon="-1.84382">
        <ele>22.6</ele>
      </trkpt>
      <trkpt lat="47.76365" lon="-1.84376">
        <ele>23</ele>
      </trkpt>
      <trkpt lat="47.76362" lon="-1.84368">
        <ele>23.4</ele>
      </trkpt>
      <trkpt lat="47.76361" lon="-1.84362">
        <ele>23.4</ele>
      </trkpt>
      <trkpt lat="47.76358" lon="-1.84355">
        <ele>23.7</ele>
      </trkpt>
      <trkpt lat="47.76355" lon="-1.84347">
        <ele>23.8</ele>
      </trkpt>
      <trkpt lat="47.76352" lon="-1.8434">
        <ele>23.9</ele>
      </trkpt>
      <trkpt lat="47.7635" lon="-1.84331">
        <ele>23.8</ele>
      </trkpt>
      <trkpt lat="47.7635" lon="-1.84323">
        <ele>23.3</ele>
      </trkpt>
      <trkpt lat="47.7635" lon="-1.84315">
        <ele>22.5</ele>
      </trkpt>
      <trkpt lat="47.7635" lon="-1.84307">
        <ele>21.9</ele>
      </trkpt>
      <trkpt lat="47.76349" lon="-1.84299">
        <ele>21.4</ele>
      </trkpt>
      <trkpt lat="47.76348" lon="-1.84291">
        <ele>21</ele>
      </trkpt>
      <trkpt lat="47.76347" lon="-1.84284">
        <ele>20.7</ele>
      </trkpt>
      <trkpt lat="47.76346" lon="-1.84277">
        <ele>20.2</ele>
      </trkpt>
      <trkpt lat="47.76344" lon="-1.84269">
        <ele>19.9</ele>
      </trkpt>
      <trkpt lat="47.76343" lon="-1.84261">
        <ele>19.6</ele>
      </trkpt>
      <trkpt lat="47.76341" lon="-1.84255">
        <ele>19.3</ele>
      </trkpt>
      <trkpt lat="47.76339" lon="-1.84248">
        <ele>19</ele>
      </trkpt>
      <trkpt lat="47.76337" lon="-1.84242">
        <ele>19.2</ele>
      </trkpt>
      <trkpt lat="47.76334" lon="-1.84235">
        <ele>19.5</ele>
      </trkpt>
      <trkpt lat="47.76331" lon="-1.84228">
        <ele>20.6</ele>
      </trkpt>
      <trkpt lat="47.76329" lon="-1.84221">
        <ele>21.4</ele>
      </trkpt>
      <trkpt lat="47.76328" lon="-1.84213">
        <ele>22</ele>
      </trkpt>
      <trkpt lat="47.76326" lon="-1.84206">
        <ele>22.7</ele>
      </trkpt>
      <trkpt lat="47.76324" lon="-1.84197">
        <ele>23.3</ele>
      </trkpt>
      <trkpt lat="47.76323" lon="-1.84189">
        <ele>23.6</ele>
      </trkpt>
      <trkpt lat="47.76322" lon="-1.8418">
        <ele>24</ele>
      </trkpt>
      <trkpt lat="47.76321" lon="-1.84173">
        <ele>24.3</ele>
      </trkpt>
      <trkpt lat="47.7632" lon="-1.84166">
        <ele>24.4</ele>
      </trkpt>
      <trkpt lat="47.76319" lon="-1.84159">
        <ele>24.6</ele>
      </trkpt>
      <trkpt lat="47.76319" lon="-1.84151">
        <ele>24.8</ele>
      </trkpt>
      <trkpt lat="47.76318" lon="-1.84144">
        <ele>25.1</ele>
      </trkpt>
      <trkpt lat="47.76317" lon="-1.84136">
        <ele>25.5</ele>
      </trkpt>
      <trkpt lat="47.76316" lon="-1.84128">
        <ele>25.9</ele>
      </trkpt>
      <trkpt lat="47.76315" lon="-1.8412">
        <ele>26</ele>
      </trkpt>
      <trkpt lat="47.76315" lon="-1.84111">
        <ele>25.7</ele>
      </trkpt>
      <trkpt lat="47.76316" lon="-1.84103">
        <ele>25.2</ele>
      </trkpt>
      <trkpt lat="47.76318" lon="-1.84097">
        <ele>24.4</ele>
      </trkpt>
      <trkpt lat="47.76319" lon="-1.84089">
        <ele>23.6</ele>
      </trkpt>
      <trkpt lat="47.76321" lon="-1.8408">
        <ele>22.8</ele>
      </trkpt>
      <trkpt lat="47.76322" lon="-1.84072">
        <ele>22.5</ele>
      </trkpt>
      <trkpt lat="47.76324" lon="-1.84065">
        <ele>22</ele>
      </trkpt>
      <trkpt lat="47.76326" lon="-1.8406">
        <ele>21.4</ele>
      </trkpt>
      <trkpt lat="47.76328" lon="-1.84054">
        <ele>20.7</ele>
      </trkpt>
      <trkpt lat="47.76331" lon="-1.84047">
        <ele>19.8</ele>
      </trkpt>
      <trkpt lat="47.76333" lon="-1.8404">
        <ele>19.5</ele>
      </trkpt>
      <trkpt lat="47.76334" lon="-1.84034">
        <ele>19.5</ele>
      </trkpt>
      <trkpt lat="47.76335" lon="-1.84027">
        <ele>19.8</ele>
      </trkpt>
      <trkpt lat="47.76336" lon="-1.84022">
        <ele>20</ele>
      </trkpt>
      <trkpt lat="47.76337" lon="-1.84015">
        <ele>20.4</ele>
      </trkpt>
      <trkpt lat="47.76338" lon="-1.84008">
        <ele>20.7</ele>
      </trkpt>
      <trkpt lat="47.7634" lon="-1.84002">
        <ele>20.7</ele>
      </trkpt>
      <trkpt lat="47.76342" lon="-1.83996">
        <ele>20.7</ele>
      </trkpt>
      <trkpt lat="47.76344" lon="-1.83989">
        <ele>20.6</ele>
      </trkpt>
      <trkpt lat="47.76345" lon="-1.83983">
        <ele>20.6</ele>
      </trkpt>
      <trkpt lat="47.76346" lon="-1.83975">
        <ele>20.6</ele>
      </trkpt>
      <trkpt lat="47.76347" lon="-1.83969">
        <ele>20.7</ele>
      </trkpt>
      <trkpt lat="47.76348" lon="-1.83961">
        <ele>20.8</ele>
      </trkpt>
      <trkpt lat="47.76349" lon="-1.83953">
        <ele>20.9</ele>
      </trkpt>
      <trkpt lat="47.76349" lon="-1.83945">
        <ele>21.1</ele>
      </trkpt>
      <trkpt lat="47.7635" lon="-1.83938">
        <ele>21.1</ele>
      </trkpt>
      <trkpt lat="47.76351" lon="-1.83931">
        <ele>21.1</ele>
      </trkpt>
      <trkpt lat="47.76352" lon="-1.83923">
        <ele>21.1</ele>
      </trkpt>
      <trkpt lat="47.76354" lon="-1.83916">
        <ele>21.1</ele>
      </trkpt>
      <trkpt lat="47.76355" lon="-1.8391">
        <ele>21.3</ele>
      </trkpt>
      <trkpt lat="47.76357" lon="-1.83901">
        <ele>21.6</ele>
      </trkpt>
      <trkpt lat="47.76358" lon="-1.83894">
        <ele>21.7</ele>
      </trkpt>
      <trkpt lat="47.7636" lon="-1.83889">
        <ele>21.7</ele>
      </trkpt>
      <trkpt lat="47.76362" lon="-1.83882">
        <ele>21.7</ele>
      </trkpt>
      <trkpt lat="47.76364" lon="-1.83876">
        <ele>21.7</ele>
      </trkpt>
      <trkpt lat="47.76365" lon="-1.83868">
        <ele>21.9</ele>
      </trkpt>
      <trkpt lat="47.76366" lon="-1.83862">
        <ele>22</ele>
      </trkpt>
      <trkpt lat="47.76368" lon="-1.83856">
        <ele>22</ele>
      </trkpt>
      <trkpt lat="47.76369" lon="-1.83851">
        <ele>22</ele>
      </trkpt>
      <trkpt lat="47.76371" lon="-1.83845">
        <ele>21.7</ele>
      </trkpt>
      <trkpt lat="47.76374" lon="-1.83841">
        <ele>21.5</ele>
      </trkpt>
      <trkpt lat="47.76374" lon="-1.83837">
        <ele>21.5</ele>
      </trkpt>
      <trkpt lat="47.76374" lon="-1.83834">
        <ele>21.8</ele>
      </trkpt>
      <trkpt lat="47.76374" lon="-1.83832">
        <ele>21.8</ele>
      </trkpt>
      <trkpt lat="47.76373" lon="-1.83831">
        <ele>22</ele>
      </trkpt>
      <trkpt lat="47.76372" lon="-1.83831">
        <ele>22.3</ele>
      </trkpt>
      <trkpt lat="47.76371" lon="-1.83831">
        <ele>22.6</ele>
      </trkpt>
      <trkpt lat="47.7637" lon="-1.83832">
        <ele>22.9</ele>
      </trkpt>
      <trkpt lat="47.76368" lon="-1.83832">
        <ele>23.2</ele>
      </trkpt>
      <trkpt lat="47.76368" lon="-1.83833">
        <ele>23.4</ele>
      </trkpt>
      <trkpt lat="47.76367" lon="-1.83834">
        <ele>23.6</ele>
      </trkpt>
      <trkpt lat="47.76366" lon="-1.83835">
        <ele>23.7</ele>
      </trkpt>
      <trkpt lat="47.76365" lon="-1.83837">
        <ele>23.7</ele>
      </trkpt>
      <trkpt lat="47.76365" lon="-1.83838">
        <ele>23.8</ele>
      </trkpt>
      <trkpt lat="47.76364" lon="-1.83839">
        <ele>24</ele>
      </trkpt>
      <trkpt lat="47.76363" lon="-1.83841">
        <ele>24.1</ele>
      </trkpt>
      <trkpt lat="47.76361" lon="-1.83842">
        <ele>24.3</ele>
      </trkpt>
      <trkpt lat="47.7636" lon="-1.83844">
        <ele>24.5</ele>
      </trkpt>
      <trkpt lat="47.76355" lon="-1.83846">
        <ele>25.6</ele>
      </trkpt>
      <trkpt lat="47.76353" lon="-1.83848">
        <ele>26.1</ele>
      </trkpt>
      <trkpt lat="47.76351" lon="-1.8385">
        <ele>26.3</ele>
      </trkpt>
      <trkpt lat="47.7635" lon="-1.83852">
        <ele>26.4</ele>
      </trkpt>
      <trkpt lat="47.7635" lon="-1.83853">
        <ele>26.4</ele>
      </trkpt>
      <trkpt lat="47.76349" lon="-1.83856">
        <ele>26.4</ele>
      </trkpt>
      <trkpt lat="47.76348" lon="-1.83858">
        <ele>26.4</ele>
      </trkpt>
      <trkpt lat="47.76347" lon="-1.83861">
        <ele>26.6</ele>
      </trkpt>
      <trkpt lat="47.76344" lon="-1.83863">
        <ele>27</ele>
      </trkpt>
      <trkpt lat="47.76343" lon="-1.83866">
        <ele>27.1</ele>
      </trkpt>
      <trkpt lat="47.76342" lon="-1.83869">
        <ele>27.1</ele>
      </trkpt>
      <trkpt lat="47.76341" lon="-1.83871">
        <ele>27.2</ele>
      </trkpt>
      <trkpt lat="47.7634" lon="-1.83873">
        <ele>27.3</ele>
      </trkpt>
      <trkpt lat="47.76339" lon="-1.83875">
        <ele>27.2</ele>
      </trkpt>
      <trkpt lat="47.76338" lon="-1.83878">
        <ele>27.1</ele>
      </trkpt>
      <trkpt lat="47.76338" lon="-1.83882">
        <ele>27</ele>
      </trkpt>
      <trkpt lat="47.76337" lon="-1.83884">
        <ele>27</ele>
      </trkpt>
      <trkpt lat="47.76335" lon="-1.83888">
        <ele>27.1</ele>
      </trkpt>
      <trkpt lat="47.76334" lon="-1.8389">
        <ele>27</ele>
      </trkpt>
      <trkpt lat="47.76334" lon="-1.83894">
        <ele>26.8</ele>
      </trkpt>
      <trkpt lat="47.76334" lon="-1.83896">
        <ele>26.5</ele>
      </trkpt>
      <trkpt lat="47.76334" lon="-1.83899">
        <ele>26.4</ele>
      </trkpt>
      <trkpt lat="47.76332" lon="-1.83902">
        <ele>26.6</ele>
      </trkpt>
      <trkpt lat="47.76331" lon="-1.83905">
        <ele>26.8</ele>
      </trkpt>
      <trkpt lat="47.7633" lon="-1.83908">
        <ele>27.1</ele>
      </trkpt>
      <trkpt lat="47.76329" lon="-1.83911">
        <ele>27.2</ele>
      </trkpt>
      <trkpt lat="47.76329" lon="-1.83914">
        <ele>27.2</ele>
      </trkpt>
      <trkpt lat="47.76329" lon="-1.83916">
        <ele>27.2</ele>
      </trkpt>
      <trkpt lat="47.76328" lon="-1.83918">
        <ele>27.6</ele>
      </trkpt>
      <trkpt lat="47.76328" lon="-1.8392">
        <ele>27.6</ele>
      </trkpt>
      <trkpt lat="47.76328" lon="-1.83923">
        <ele>27.5</ele>
      </trkpt>
      <trkpt lat="47.76327" lon="-1.83925">
        <ele>27.9</ele>
      </trkpt>
      <trkpt lat="47.76324" lon="-1.83927">
        <ele>29</ele>
      </trkpt>
      <trkpt lat="47.76322" lon="-1.83928">
        <ele>30.1</ele>
      </trkpt>
      <trkpt lat="47.76319" lon="-1.83929">
        <ele>31.3</ele>
      </trkpt>
      <trkpt lat="47.76318" lon="-1.83931">
        <ele>31.6</ele>
      </trkpt>
      <trkpt lat="47.76318" lon="-1.83933">
        <ele>31.6</ele>
      </trkpt>
      <trkpt lat="47.76318" lon="-1.83934">
        <ele>31.7</ele>
      </trkpt>
      <trkpt lat="47.76318" lon="-1.83936">
        <ele>31.7</ele>
      </trkpt>
      <trkpt lat="47.76318" lon="-1.83938">
        <ele>31.7</ele>
      </trkpt>
      <trkpt lat="47.76318" lon="-1.83939">
        <ele>31.6</ele>
      </trkpt>
      <trkpt lat="47.76317" lon="-1.8394">
        <ele>31.8</ele>
      </trkpt>
      <trkpt lat="47.76317" lon="-1.83942">
        <ele>32</ele>
      </trkpt>
      <trkpt lat="47.76317" lon="-1.83945">
        <ele>31.9</ele>
      </trkpt>
      <trkpt lat="47.76317" lon="-1.83947">
        <ele>31.7</ele>
      </trkpt>
      <trkpt lat="47.76318" lon="-1.83949">
        <ele>31.5</ele>
      </trkpt>
      <trkpt lat="47.76318" lon="-1.83952">
        <ele>31.2</ele>
      </trkpt>
      <trkpt lat="47.76317" lon="-1.83955">
        <ele>31.3</ele>
      </trkpt>
      <trkpt lat="47.76317" lon="-1.83957">
        <ele>31.7</ele>
      </trkpt>
      <trkpt lat="47.76316" lon="-1.83961">
        <ele>31.8</ele>
      </trkpt>
      <trkpt lat="47.76315" lon="-1.83963">
        <ele>32</ele>
      </trkpt>
      <trkpt lat="47.76315" lon="-1.83966">
        <ele>32.3</ele>
      </trkpt>
      <trkpt lat="47.76314" lon="-1.83969">
        <ele>32.9</ele>
      </trkpt>
      <trkpt lat="47.76312" lon="-1.83971">
        <ele>33.6</ele>
      </trkpt>
      <trkpt lat="47.76311" lon="-1.83974">
        <ele>33.8</ele>
      </trkpt>
      <trkpt lat="47.76312" lon="-1.83977">
        <ele>33.5</ele>
      </trkpt>
      <trkpt lat="47.76311" lon="-1.83979">
        <ele>33.6</ele>
      </trkpt>
      <trkpt lat="47.76311" lon="-1.83983">
        <ele>33.7</ele>
      </trkpt>
      <trkpt lat="47.76312" lon="-1.83986">
        <ele>33.2</ele>
      </trkpt>
      <trkpt lat="47.76312" lon="-1.8399">
        <ele>32.8</ele>
      </trkpt>
      <trkpt lat="47.76312" lon="-1.83993">
        <ele>32.7</ele>
      </trkpt>
      <trkpt lat="47.76312" lon="-1.83997">
        <ele>32.9</ele>
      </trkpt>
      <trkpt lat="47.76312" lon="-1.84001">
        <ele>32.7</ele>
      </trkpt>
      <trkpt lat="47.76312" lon="-1.84005">
        <ele>32.6</ele>
      </trkpt>
      <trkpt lat="47.76311" lon="-1.84007">
        <ele>32.6</ele>
      </trkpt>
      <trkpt lat="47.76311" lon="-1.84009">
        <ele>32.9</ele>
      </trkpt>
      <trkpt lat="47.7631" lon="-1.84014">
        <ele>33</ele>
      </trkpt>
      <trkpt lat="47.7631" lon="-1.84017">
        <ele>32.5</ele>
      </trkpt>
      <trkpt lat="47.7631" lon="-1.84022">
        <ele>32.2</ele>
      </trkpt>
      <trkpt lat="47.76309" lon="-1.84024">
        <ele>32.7</ele>
      </trkpt>
      <trkpt lat="47.76308" lon="-1.84026">
        <ele>33.2</ele>
      </trkpt>
      <trkpt lat="47.76307" lon="-1.84028">
        <ele>33.6</ele>
      </trkpt>
      <trkpt lat="47.76305" lon="-1.84031">
        <ele>34.2</ele>
      </trkpt>
      <trkpt lat="47.76303" lon="-1.84035">
        <ele>34.9</ele>
      </trkpt>
      <trkpt lat="47.76302" lon="-1.84039">
        <ele>35.4</ele>
      </trkpt>
      <trkpt lat="47.763" lon="-1.84041">
        <ele>36.2</ele>
      </trkpt>
      <trkpt lat="47.76299" lon="-1.84042">
        <ele>36.6</ele>
      </trkpt>
      <trkpt lat="47.76297" lon="-1.84044">
        <ele>37.2</ele>
      </trkpt>
      <trkpt lat="47.76297" lon="-1.84046">
        <ele>37.5</ele>
      </trkpt>
      <trkpt lat="47.76296" lon="-1.84048">
        <ele>37.7</ele>
      </trkpt>
      <trkpt lat="47.76295" lon="-1.8405">
        <ele>37.7</ele>
      </trkpt>
      <trkpt lat="47.76295" lon="-1.84051">
        <ele>37.8</ele>
      </trkpt>
      <trkpt lat="47.76295" lon="-1.84051">
        <ele>37.9</ele>
      </trkpt>
      <trkpt lat="47.76295" lon="-1.84052">
        <ele>38.1</ele>
      </trkpt>
      <trkpt lat="47.76294" lon="-1.84053">
        <ele>38.5</ele>
      </trkpt>
      <trkpt lat="47.76293" lon="-1.84053">
        <ele>38.7</ele>
      </trkpt>
      <trkpt lat="47.76293" lon="-1.84053">
        <ele>38.7</ele>
      </trkpt>
      <trkpt lat="47.76293" lon="-1.84053">
        <ele>38.7</ele>
      </trkpt>
      <trkpt lat="47.76293" lon="-1.84053">
        <ele>38.7</ele>
      </trkpt>
      <trkpt lat="47.76293" lon="-1.84053">
        <ele>38.7</ele>
      </trkpt>
      <trkpt lat="47.76293" lon="-1.84053">
        <ele>38.7</ele>
      </trkpt>
      <trkpt lat="47.76293" lon="-1.84053">
        <ele>38.7</ele>
      </trkpt>
      <trkpt lat="47.76293" lon="-1.84053">
        <ele>38.7</ele>
      </trkpt>
      <trkpt lat="47.76293" lon="-1.84053">
        <ele>38.7</ele>
      </trkpt>
      <trkpt lat="47.76293" lon="-1.84053">
        <ele>38.7</ele>
      </trkpt>
      <trkpt lat="47.76293" lon="-1.84053">
        <ele>38.7</ele>
      </trkpt>
      <trkpt lat="47.76293" lon="-1.84053">
        <ele>38.7</ele>
      </trkpt>
      <trkpt lat="47.76293" lon="-1.84053">
        <ele>38.8</ele>
      </trkpt>
      <trkpt lat="47.76293" lon="-1.84053">
        <ele>38.8</ele>
      </trkpt>
      <trkpt lat="47.76293" lon="-1.84053">
        <ele>38.8</ele>
      </trkpt>
      <trkpt lat="47.76293" lon="-1.84053">
        <ele>38.8</ele>
      </trkpt>
      <trkpt lat="47.76293" lon="-1.84053">
        <ele>38.8</ele>
      </trkpt>
      <trkpt lat="47.76293" lon="-1.84051">
        <ele>39</ele>
      </trkpt>
      <trkpt lat="47.76293" lon="-1.84051">
        <ele>39.1</ele>
      </trkpt>
      <trkpt lat="47.76293" lon="-1.84051">
        <ele>39.1</ele>
      </trkpt>
      <trkpt lat="47.76293" lon="-1.84051">
        <ele>39.1</ele>
      </trkpt>
      <trkpt lat="47.76293" lon="-1.84051">
        <ele>39.1</ele>
      </trkpt>
      <trkpt lat="47.76293" lon="-1.84051">
        <ele>39.1</ele>
      </trkpt>
      <trkpt lat="47.76293" lon="-1.84051">
        <ele>39.1</ele>
      </trkpt>
      <trkpt lat="47.76293" lon="-1.84051">
        <ele>39.1</ele>
      </trkpt>
      <trkpt lat="47.76293" lon="-1.84051">
        <ele>39.1</ele>
      </trkpt>
      <trkpt lat="47.76292" lon="-1.84051">
        <ele>39.3</ele>
      </trkpt>
      <trkpt lat="47.76292" lon="-1.84051">
        <ele>39.4</ele>
      </trkpt>
      <trkpt lat="47.76292" lon="-1.84051">
        <ele>39.5</ele>
      </trkpt>
      <trkpt lat="47.76292" lon="-1.84051">
        <ele>39.5</ele>
      </trkpt>
      <trkpt lat="47.76292" lon="-1.84051">
        <ele>39.5</ele>
      </trkpt>
      <trkpt lat="47.76292" lon="-1.8405">
        <ele>39.5</ele>
      </trkpt>
      <trkpt lat="47.76292" lon="-1.8405">
        <ele>39.6</ele>
      </trkpt>
      <trkpt lat="47.76292" lon="-1.84049">
        <ele>39.6</ele>
      </trkpt>
      <trkpt lat="47.76292" lon="-1.84048">
        <ele>39.6</ele>
      </trkpt>
      <trkpt lat="47.76292" lon="-1.84046">
        <ele>39.8</ele>
      </trkpt>
      <trkpt lat="47.76292" lon="-1.84044">
        <ele>39.9</ele>
      </trkpt>
      <trkpt lat="47.76292" lon="-1.84042">
        <ele>40</ele>
      </trkpt>
      <trkpt lat="47.76292" lon="-1.84039">
        <ele>40.1</ele>
      </trkpt>
      <trkpt lat="47.76293" lon="-1.84036">
        <ele>40.1</ele>
      </trkpt>
      <trkpt lat="47.76293" lon="-1.84033">
        <ele>40.3</ele>
      </trkpt>
      <trkpt lat="47.76293" lon="-1.8403">
        <ele>40.3</ele>
      </trkpt>
      <trkpt lat="47.76293" lon="-1.84028">
        <ele>40.3</ele>
      </trkpt>
      <trkpt lat="47.76294" lon="-1.84025">
        <ele>40.3</ele>
      </trkpt>
      <trkpt lat="47.76294" lon="-1.84023">
        <ele>40.3</ele>
      </trkpt>
      <trkpt lat="47.76294" lon="-1.84021">
        <ele>40.4</ele>
      </trkpt>
      <trkpt lat="47.76295" lon="-1.84019">
        <ele>40.3</ele>
      </trkpt>
      <trkpt lat="47.76295" lon="-1.84017">
        <ele>40.3</ele>
      </trkpt>
      <trkpt lat="47.76297" lon="-1.84014">
        <ele>39.6</ele>
      </trkpt>
      <trkpt lat="47.76297" lon="-1.84008">
        <ele>39.8</ele>
      </trkpt>
      <trkpt lat="47.76296" lon="-1.84004">
        <ele>40.4</ele>
      </trkpt>
      <trkpt lat="47.76296" lon="-1.84001">
        <ele>40.7</ele>
      </trkpt>
      <trkpt lat="47.76296" lon="-1.83998">
        <ele>41</ele>
      </trkpt>
      <trkpt lat="47.76295" lon="-1.83995">
        <ele>41.2</ele>
      </trkpt>
      <trkpt lat="47.76295" lon="-1.83991">
        <ele>41.4</ele>
      </trkpt>
      <trkpt lat="47.76295" lon="-1.83986">
        <ele>41.4</ele>
      </trkpt>
      <trkpt lat="47.76296" lon="-1.83983">
        <ele>41.3</ele>
      </trkpt>
      <trkpt lat="47.76296" lon="-1.8398">
        <ele>41.1</ele>
      </trkpt>
      <trkpt lat="47.76297" lon="-1.83978">
        <ele>40.9</ele>
      </trkpt>
      <trkpt lat="47.76298" lon="-1.83975">
        <ele>40.2</ele>
      </trkpt>
      <trkpt lat="47.76298" lon="-1.83972">
        <ele>40.3</ele>
      </trkpt>
      <trkpt lat="47.76297" lon="-1.8397">
        <ele>41</ele>
      </trkpt>
      <trkpt lat="47.76298" lon="-1.83967">
        <ele>40.5</ele>
      </trkpt>
      <trkpt lat="47.76299" lon="-1.83964">
        <ele>40</ele>
      </trkpt>
      <trkpt lat="47.76301" lon="-1.83961">
        <ele>39.2</ele>
      </trkpt>
      <trkpt lat="47.76302" lon="-1.83956">
        <ele>38.8</ele>
      </trkpt>
      <trkpt lat="47.76302" lon="-1.83951">
        <ele>38.7</ele>
      </trkpt>
      <trkpt lat="47.76302" lon="-1.83948">
        <ele>39.1</ele>
      </trkpt>
      <trkpt lat="47.76301" lon="-1.83943">
        <ele>39.6</ele>
      </trkpt>
      <trkpt lat="47.76302" lon="-1.83938">
        <ele>39.1</ele>
      </trkpt>
      <trkpt lat="47.76302" lon="-1.83932">
        <ele>39.3</ele>
      </trkpt>
      <trkpt lat="47.76305" lon="-1.83926">
        <ele>37.9</ele>
      </trkpt>
      <trkpt lat="47.76306" lon="-1.83919">
        <ele>37.8</ele>
      </trkpt>
      <trkpt lat="47.76308" lon="-1.83915">
        <ele>37.2</ele>
      </trkpt>
      <trkpt lat="47.76308" lon="-1.83906">
        <ele>37.5</ele>
      </trkpt>
      <trkpt lat="47.76308" lon="-1.83901">
        <ele>37.8</ele>
      </trkpt>
      <trkpt lat="47.76308" lon="-1.83896">
        <ele>37.8</ele>
      </trkpt>
      <trkpt lat="47.76309" lon="-1.83893">
        <ele>37.8</ele>
      </trkpt>
      <trkpt lat="47.76309" lon="-1.8389">
        <ele>37.8</ele>
      </trkpt>
      <trkpt lat="47.76311" lon="-1.83887">
        <ele>37</ele>
      </trkpt>
      <trkpt lat="47.76312" lon="-1.83884">
        <ele>36.9</ele>
      </trkpt>
      <trkpt lat="47.76311" lon="-1.83881">
        <ele>37.5</ele>
      </trkpt>
      <trkpt lat="47.76311" lon="-1.83878">
        <ele>37.8</ele>
      </trkpt>
      <trkpt lat="47.76311" lon="-1.83874">
        <ele>38.1</ele>
      </trkpt>
      <trkpt lat="47.76311" lon="-1.8387">
        <ele>38.3</ele>
      </trkpt>
      <trkpt lat="47.76311" lon="-1.83865">
        <ele>38.5</ele>
      </trkpt>
      <trkpt lat="47.76311" lon="-1.83862">
        <ele>38.7</ele>
      </trkpt>
      <trkpt lat="47.76311" lon="-1.83859">
        <ele>38.8</ele>
      </trkpt>
      <trkpt lat="47.76311" lon="-1.83856">
        <ele>38.8</ele>
      </trkpt>
      <trkpt lat="47.76312" lon="-1.83853">
        <ele>38.9</ele>
      </trkpt>
      <trkpt lat="47.76312" lon="-1.83849">
        <ele>39</ele>
      </trkpt>
      <trkpt lat="47.76313" lon="-1.83845">
        <ele>39</ele>
      </trkpt>
      <trkpt lat="47.76313" lon="-1.83842">
        <ele>38.9</ele>
      </trkpt>
      <trkpt lat="47.76313" lon="-1.83839">
        <ele>39.1</ele>
      </trkpt>
      <trkpt lat="47.76313" lon="-1.83835">
        <ele>39.5</ele>
      </trkpt>
      <trkpt lat="47.76312" lon="-1.83831">
        <ele>39.8</ele>
      </trkpt>
      <trkpt lat="47.76312" lon="-1.83828">
        <ele>39.9</ele>
      </trkpt>
      <trkpt lat="47.76312" lon="-1.83825">
        <ele>40</ele>
      </trkpt>
      <trkpt lat="47.76312" lon="-1.83821">
        <ele>40.3</ele>
      </trkpt>
      <trkpt lat="47.76312" lon="-1.83818">
        <ele>40.3</ele>
      </trkpt>
      <trkpt lat="47.76312" lon="-1.83816">
        <ele>40.3</ele>
      </trkpt>
      <trkpt lat="47.76312" lon="-1.83813">
        <ele>40.4</ele>
      </trkpt>
      <trkpt lat="47.76312" lon="-1.83811">
        <ele>40.5</ele>
      </trkpt>
      <trkpt lat="47.76312" lon="-1.83808">
        <ele>40.6</ele>
      </trkpt>
      <trkpt lat="47.76312" lon="-1.83804">
        <ele>40.6</ele>
      </trkpt>
      <trkpt lat="47.76312" lon="-1.83799">
        <ele>40.6</ele>
      </trkpt>
      <trkpt lat="47.76313" lon="-1.83797">
        <ele>40.4</ele>
      </trkpt>
      <trkpt lat="47.76314" lon="-1.83794">
        <ele>40.2</ele>
      </trkpt>
      <trkpt lat="47.76314" lon="-1.83791">
        <ele>40.1</ele>
      </trkpt>
      <trkpt lat="47.76315" lon="-1.83787">
        <ele>39.9</ele>
      </trkpt>
      <trkpt lat="47.76315" lon="-1.83784">
        <ele>39.9</ele>
      </trkpt>
      <trkpt lat="47.76315" lon="-1.83781">
        <ele>40</ele>
      </trkpt>
      <trkpt lat="47.76315" lon="-1.83777">
        <ele>40</ele>
      </trkpt>
      <trkpt lat="47.76315" lon="-1.83774">
        <ele>40.2</ele>
      </trkpt>
      <trkpt lat="47.76315" lon="-1.83772">
        <ele>40.2</ele>
      </trkpt>
      <trkpt lat="47.76316" lon="-1.8377">
        <ele>40.2</ele>
      </trkpt>
      <trkpt lat="47.76315" lon="-1.83768">
        <ele>40.2</ele>
      </trkpt>
      <trkpt lat="47.76315" lon="-1.83766">
        <ele>40.3</ele>
      </trkpt>
      <trkpt lat="47.76314" lon="-1.83763">
        <ele>40.9</ele>
      </trkpt>
      <trkpt lat="47.76311" lon="-1.83762">
        <ele>41.6</ele>
      </trkpt>
      <trkpt lat="47.76309" lon="-1.83761">
        <ele>42.1</ele>
      </trkpt>
      <trkpt lat="47.76307" lon="-1.83761">
        <ele>42.7</ele>
      </trkpt>
      <trkpt lat="47.76306" lon="-1.83761">
        <ele>43.2</ele>
      </trkpt>
      <trkpt lat="47.76305" lon="-1.83762">
        <ele>43.3</ele>
      </trkpt>
      <trkpt lat="47.76304" lon="-1.83764">
        <ele>43.5</ele>
      </trkpt>
      <trkpt lat="47.76304" lon="-1.83765">
        <ele>43.7</ele>
      </trkpt>
      <trkpt lat="47.76303" lon="-1.83766">
        <ele>43.9</ele>
      </trkpt>
      <trkpt lat="47.76302" lon="-1.83767">
        <ele>44</ele>
      </trkpt>
      <trkpt lat="47.76302" lon="-1.83768">
        <ele>44.2</ele>
      </trkpt>
      <trkpt lat="47.76301" lon="-1.8377">
        <ele>44.4</ele>
      </trkpt>
      <trkpt lat="47.76301" lon="-1.83771">
        <ele>44.6</ele>
      </trkpt>
      <trkpt lat="47.763" lon="-1.83773">
        <ele>44.7</ele>
      </trkpt>
      <trkpt lat="47.76299" lon="-1.83775">
        <ele>44.9</ele>
      </trkpt>
      <trkpt lat="47.76298" lon="-1.83776">
        <ele>45.2</ele>
      </trkpt>
      <trkpt lat="47.76298" lon="-1.83778">
        <ele>45.4</ele>
      </trkpt>
      <trkpt lat="47.76298" lon="-1.83778">
        <ele>45.4</ele>
      </trkpt>
      <trkpt lat="47.76298" lon="-1.83778">
        <ele>45.4</ele>
      </trkpt>
      <trkpt lat="47.76298" lon="-1.83778">
        <ele>45.4</ele>
      </trkpt>
      <trkpt lat="47.76298" lon="-1.83778">
        <ele>45.4</ele>
      </trkpt>
      <trkpt lat="47.76298" lon="-1.83778">
        <ele>45.4</ele>
      </trkpt>
      <trkpt lat="47.76298" lon="-1.83778">
        <ele>45.4</ele>
      </trkpt>
      <trkpt lat="47.76298" lon="-1.83778">
        <ele>45.4</ele>
      </trkpt>
      <trkpt lat="47.76298" lon="-1.83778">
        <ele>45.4</ele>
      </trkpt>
      <trkpt lat="47.76298" lon="-1.83778">
        <ele>45.4</ele>
      </trkpt>
      <trkpt lat="47.76298" lon="-1.83779">
        <ele>45.3</ele>
      </trkpt>
      <trkpt lat="47.76298" lon="-1.8378">
        <ele>45.1</ele>
      </trkpt>
      <trkpt lat="47.76298" lon="-1.83782">
        <ele>45.1</ele>
      </trkpt>
      <trkpt lat="47.76298" lon="-1.83783">
        <ele>45.4</ele>
      </trkpt>
      <trkpt lat="47.76296" lon="-1.83785">
        <ele>45.8</ele>
      </trkpt>
      <trkpt lat="47.76295" lon="-1.83787">
        <ele>46.1</ele>
      </trkpt>
      <trkpt lat="47.76295" lon="-1.83788">
        <ele>46.3</ele>
      </trkpt>
      <trkpt lat="47.76294" lon="-1.8379">
        <ele>46.6</ele>
      </trkpt>
      <trkpt lat="47.76292" lon="-1.83791">
        <ele>47</ele>
      </trkpt>
      <trkpt lat="47.76291" lon="-1.83793">
        <ele>47.6</ele>
      </trkpt>
      <trkpt lat="47.76289" lon="-1.83795">
        <ele>48.2</ele>
      </trkpt>
      <trkpt lat="47.76288" lon="-1.83797">
        <ele>48.5</ele>
      </trkpt>
      <trkpt lat="47.76287" lon="-1.83799">
        <ele>48.7</ele>
      </trkpt>
      <trkpt lat="47.76287" lon="-1.83802">
        <ele>48.9</ele>
      </trkpt>
      <trkpt lat="47.76286" lon="-1.83803">
        <ele>49.1</ele>
      </trkpt>
      <trkpt lat="47.76285" lon="-1.83806">
        <ele>49.6</ele>
      </trkpt>
      <trkpt lat="47.76285" lon="-1.83809">
        <ele>49.8</ele>
      </trkpt>
      <trkpt lat="47.76284" lon="-1.83812">
        <ele>49.9</ele>
      </trkpt>
      <trkpt lat="47.76284" lon="-1.83814">
        <ele>50</ele>
      </trkpt>
      <trkpt lat="47.76284" lon="-1.83816">
        <ele>50</ele>
      </trkpt>
      <trkpt lat="47.76283" lon="-1.83818">
        <ele>50.5</ele>
      </trkpt>
      <trkpt lat="47.76283" lon="-1.8382">
        <ele>50.6</ele>
      </trkpt>
      <trkpt lat="47.76282" lon="-1.83822">
        <ele>50.9</ele>
      </trkpt>
      <trkpt lat="47.76282" lon="-1.83824">
        <ele>51</ele>
      </trkpt>
      <trkpt lat="47.76281" lon="-1.83826">
        <ele>51.3</ele>
      </trkpt>
      <trkpt lat="47.7628" lon="-1.83828">
        <ele>51.6</ele>
      </trkpt>
      <trkpt lat="47.7628" lon="-1.8383">
        <ele>51.9</ele>
      </trkpt>
      <trkpt lat="47.7628" lon="-1.83832">
        <ele>52</ele>
      </trkpt>
      <trkpt lat="47.76279" lon="-1.83834">
        <ele>52.1</ele>
      </trkpt>
      <trkpt lat="47.76279" lon="-1.83835">
        <ele>52.1</ele>
      </trkpt>
      <trkpt lat="47.76279" lon="-1.83837">
        <ele>52.3</ele>
      </trkpt>
      <trkpt lat="47.76278" lon="-1.83839">
        <ele>52.6</ele>
      </trkpt>
      <trkpt lat="47.76277" lon="-1.83844">
        <ele>52.8</ele>
      </trkpt>
      <trkpt lat="47.76277" lon="-1.83844">
        <ele>52.8</ele>
      </trkpt>
      <trkpt lat="47.76277" lon="-1.83846">
        <ele>52.7</ele>
      </trkpt>
      <trkpt lat="47.76277" lon="-1.83848">
        <ele>52.8</ele>
      </trkpt>
      <trkpt lat="47.76276" lon="-1.8385">
        <ele>53</ele>
      </trkpt>
      <trkpt lat="47.76275" lon="-1.83852">
        <ele>53.2</ele>
      </trkpt>
      <trkpt lat="47.76275" lon="-1.83854">
        <ele>53.4</ele>
      </trkpt>
      <trkpt lat="47.76275" lon="-1.83856">
        <ele>53.5</ele>
      </trkpt>
      <trkpt lat="47.76274" lon="-1.83858">
        <ele>53.6</ele>
      </trkpt>
      <trkpt lat="47.76274" lon="-1.8386">
        <ele>53.8</ele>
      </trkpt>
      <trkpt lat="47.76273" lon="-1.83863">
        <ele>54.1</ele>
      </trkpt>
      <trkpt lat="47.76272" lon="-1.83865">
        <ele>54.3</ele>
      </trkpt>
      <trkpt lat="47.76272" lon="-1.83867">
        <ele>54.5</ele>
      </trkpt>
      <trkpt lat="47.76271" lon="-1.83869">
        <ele>54.6</ele>
      </trkpt>
      <trkpt lat="47.76271" lon="-1.83872">
        <ele>54.8</ele>
      </trkpt>
      <trkpt lat="47.7627" lon="-1.83873">
        <ele>55.2</ele>
      </trkpt>
      <trkpt lat="47.76269" lon="-1.83875">
        <ele>55.4</ele>
      </trkpt>
      <trkpt lat="47.76269" lon="-1.83878">
        <ele>55.6</ele>
      </trkpt>
      <trkpt lat="47.76268" lon="-1.83879">
        <ele>55.7</ele>
      </trkpt>
      <trkpt lat="47.76268" lon="-1.83881">
        <ele>56</ele>
      </trkpt>
      <trkpt lat="47.76267" lon="-1.83883">
        <ele>56.4</ele>
      </trkpt>
      <trkpt lat="47.76266" lon="-1.83885">
        <ele>56.7</ele>
      </trkpt>
      <trkpt lat="47.76265" lon="-1.83888">
        <ele>57</ele>
      </trkpt>
      <trkpt lat="47.76264" lon="-1.8389">
        <ele>57.4</ele>
      </trkpt>
      <trkpt lat="47.76264" lon="-1.83892">
        <ele>57.6</ele>
      </trkpt>
      <trkpt lat="47.76263" lon="-1.83895">
        <ele>57.8</ele>
      </trkpt>
      <trkpt lat="47.76263" lon="-1.83897">
        <ele>57.8</ele>
      </trkpt>
      <trkpt lat="47.76263" lon="-1.83899">
        <ele>57.9</ele>
      </trkpt>
      <trkpt lat="47.76262" lon="-1.83902">
        <ele>58.2</ele>
      </trkpt>
      <trkpt lat="47.76262" lon="-1.83904">
        <ele>58.6</ele>
      </trkpt>
      <trkpt lat="47.76261" lon="-1.83906">
        <ele>59</ele>
      </trkpt>
      <trkpt lat="47.7626" lon="-1.83909">
        <ele>59.4</ele>
      </trkpt>
      <trkpt lat="47.76259" lon="-1.83911">
        <ele>59.7</ele>
      </trkpt>
      <trkpt lat="47.76259" lon="-1.83914">
        <ele>59.7</ele>
      </trkpt>
      <trkpt lat="47.76259" lon="-1.83917">
        <ele>59.7</ele>
      </trkpt>
      <trkpt lat="47.76259" lon="-1.83919">
        <ele>59.9</ele>
      </trkpt>
      <trkpt lat="47.76259" lon="-1.83922">
        <ele>60</ele>
      </trkpt>
      <trkpt lat="47.76258" lon="-1.83925">
        <ele>60.2</ele>
      </trkpt>
      <trkpt lat="47.76257" lon="-1.83927">
        <ele>60.5</ele>
      </trkpt>
      <trkpt lat="47.76257" lon="-1.83929">
        <ele>60.6</ele>
      </trkpt>
      <trkpt lat="47.76257" lon="-1.83932">
        <ele>60.8</ele>
      </trkpt>
      <trkpt lat="47.76257" lon="-1.83934">
        <ele>60.8</ele>
      </trkpt>
      <trkpt lat="47.76256" lon="-1.83936">
        <ele>61</ele>
      </trkpt>
      <trkpt lat="47.76257" lon="-1.83939">
        <ele>60.8</ele>
      </trkpt>
      <trkpt lat="47.76258" lon="-1.83942">
        <ele>60.4</ele>
      </trkpt>
      <trkpt lat="47.76257" lon="-1.83946">
        <ele>60.5</ele>
      </trkpt>
      <trkpt lat="47.76257" lon="-1.83949">
        <ele>60.6</ele>
      </trkpt>
      <trkpt lat="47.76257" lon="-1.83952">
        <ele>60.8</ele>
      </trkpt>
      <trkpt lat="47.76256" lon="-1.83956">
        <ele>60.8</ele>
      </trkpt>
      <trkpt lat="47.76257" lon="-1.83961">
        <ele>60.7</ele>
      </trkpt>
      <trkpt lat="47.76257" lon="-1.83964">
        <ele>60.4</ele>
      </trkpt>
      <trkpt lat="47.76256" lon="-1.83967">
        <ele>60.9</ele>
      </trkpt>
      <trkpt lat="47.76255" lon="-1.83971">
        <ele>61.4</ele>
      </trkpt>
      <trkpt lat="47.76254" lon="-1.83973">
        <ele>61.9</ele>
      </trkpt>
      <trkpt lat="47.76254" lon="-1.83976">
        <ele>61.9</ele>
      </trkpt>
      <trkpt lat="47.76254" lon="-1.83979">
        <ele>62</ele>
      </trkpt>
      <trkpt lat="47.76253" lon="-1.83981">
        <ele>62.3</ele>
      </trkpt>
      <trkpt lat="47.76253" lon="-1.83982">
        <ele>62.5</ele>
      </trkpt>
      <trkpt lat="47.76253" lon="-1.83982">
        <ele>62.5</ele>
      </trkpt>
      <trkpt lat="47.76253" lon="-1.83982">
        <ele>62.5</ele>
      </trkpt>
      <trkpt lat="47.76253" lon="-1.83982">
        <ele>62.5</ele>
      </trkpt>
      <trkpt lat="47.76253" lon="-1.83982">
        <ele>62.5</ele>
      </trkpt>
      <trkpt lat="47.76253" lon="-1.83982">
        <ele>62.5</ele>
      </trkpt>
      <trkpt lat="47.76253" lon="-1.83982">
        <ele>62.5</ele>
      </trkpt>
      <trkpt lat="47.76253" lon="-1.83982">
        <ele>62.5</ele>
      </trkpt>
      <trkpt lat="47.76253" lon="-1.83982">
        <ele>62.5</ele>
      </trkpt>
      <trkpt lat="47.76253" lon="-1.83982">
        <ele>62.5</ele>
      </trkpt>
      <trkpt lat="47.76253" lon="-1.83982">
        <ele>62.5</ele>
      </trkpt>
      <trkpt lat="47.76253" lon="-1.83982">
        <ele>62.5</ele>
      </trkpt>
      <trkpt lat="47.76253" lon="-1.83982">
        <ele>62.5</ele>
      </trkpt>
      <trkpt lat="47.76253" lon="-1.83982">
        <ele>62.5</ele>
      </trkpt>
      <trkpt lat="47.76253" lon="-1.83982">
        <ele>62.5</ele>
      </trkpt>
      <trkpt lat="47.76253" lon="-1.83982">
        <ele>62.5</ele>
      </trkpt>
      <trkpt lat="47.76253" lon="-1.83982">
        <ele>62.5</ele>
      </trkpt>
      <trkpt lat="47.76253" lon="-1.83982">
        <ele>62.5</ele>
      </trkpt>
      <trkpt lat="47.76253" lon="-1.83982">
        <ele>62.5</ele>
      </trkpt>
      <trkpt lat="47.76253" lon="-1.83982">
        <ele>62.5</ele>
      </trkpt>
      <trkpt lat="47.76253" lon="-1.83982">
        <ele>62.5</ele>
      </trkpt>
      <trkpt lat="47.76253" lon="-1.83982">
        <ele>62.5</ele>
      </trkpt>
      <trkpt lat="47.76253" lon="-1.83982">
        <ele>62.5</ele>
      </trkpt>
      <trkpt lat="47.76253" lon="-1.83982">
        <ele>62.5</ele>
      </trkpt>
      <trkpt lat="47.76253" lon="-1.83982">
        <ele>62.5</ele>
      </trkpt>
      <trkpt lat="47.76253" lon="-1.83982">
        <ele>62.5</ele>
      </trkpt>
      <trkpt lat="47.76253" lon="-1.83982">
        <ele>62.5</ele>
      </trkpt>
      <trkpt lat="47.76253" lon="-1.83982">
        <ele>62.5</ele>
      </trkpt>
      <trkpt lat="47.76253" lon="-1.83982">
        <ele>62.5</ele>
      </trkpt>
      <trkpt lat="47.76253" lon="-1.83982">
        <ele>62.5</ele>
      </trkpt>
      <trkpt lat="47.76253" lon="-1.83982">
        <ele>62.5</ele>
      </trkpt>
      <trkpt lat="47.76253" lon="-1.83982">
        <ele>62.5</ele>
      </trkpt>
      <trkpt lat="47.76253" lon="-1.83982">
        <ele>62.5</ele>
      </trkpt>
      <trkpt lat="47.76253" lon="-1.83982">
        <ele>62.5</ele>
      </trkpt>
      <trkpt lat="47.76253" lon="-1.83982">
        <ele>62.5</ele>
      </trkpt>
      <trkpt lat="47.76253" lon="-1.83982">
        <ele>62.5</ele>
      </trkpt>
      <trkpt lat="47.76253" lon="-1.83982">
        <ele>62.5</ele>
      </trkpt>
      <trkpt lat="47.76253" lon="-1.83982">
        <ele>62.5</ele>
      </trkpt>
      <trkpt lat="47.76253" lon="-1.83982">
        <ele>62.5</ele>
      </trkpt>
      <trkpt lat="47.76253" lon="-1.83982">
        <ele>62.5</ele>
      </trkpt>
      <trkpt lat="47.76253" lon="-1.83982">
        <ele>62.5</ele>
      </trkpt>
      <trkpt lat="47.76253" lon="-1.83982">
        <ele>62.5</ele>
      </trkpt>
      <trkpt lat="47.76253" lon="-1.83982">
        <ele>62.5</ele>
      </trkpt>
      <trkpt lat="47.76253" lon="-1.83982">
        <ele>62.5</ele>
      </trkpt>
      <trkpt lat="47.76253" lon="-1.83982">
        <ele>62.5</ele>
      </trkpt>
      <trkpt lat="47.76253" lon="-1.83982">
        <ele>62.5</ele>
      </trkpt>
      <trkpt lat="47.76253" lon="-1.83982">
        <ele>62.5</ele>
      </trkpt>
      <trkpt lat="47.76253" lon="-1.83982">
        <ele>62.5</ele>
      </trkpt>
      <trkpt lat="47.76253" lon="-1.83982">
        <ele>62.5</ele>
      </trkpt>
      <trkpt lat="47.76253" lon="-1.83983">
        <ele>62.5</ele>
      </trkpt>
      <trkpt lat="47.76253" lon="-1.83983">
        <ele>62.5</ele>
      </trkpt>
      <trkpt lat="47.76252" lon="-1.83985">
        <ele>62.9</ele>
      </trkpt>
      <trkpt lat="47.76251" lon="-1.83987">
        <ele>63.3</ele>
      </trkpt>
      <trkpt lat="47.76251" lon="-1.8399">
        <ele>63.7</ele>
      </trkpt>
      <trkpt lat="47.7625" lon="-1.83992">
        <ele>64</ele>
      </trkpt>
      <trkpt lat="47.76248" lon="-1.83995">
        <ele>64.1</ele>
      </trkpt>
      <trkpt lat="47.76247" lon="-1.83998">
        <ele>64.3</ele>
      </trkpt>
      <trkpt lat="47.76246" lon="-1.84001">
        <ele>64.3</ele>
      </trkpt>
      <trkpt lat="47.76245" lon="-1.84004">
        <ele>64.3</ele>
      </trkpt>
      <trkpt lat="47.76243" lon="-1.84007">
        <ele>64.3</ele>
      </trkpt>
      <trkpt lat="47.76241" lon="-1.84011">
        <ele>64.3</ele>
      </trkpt>
      <trkpt lat="47.76239" lon="-1.84014">
        <ele>64.3</ele>
      </trkpt>
      <trkpt lat="47.76238" lon="-1.84017">
        <ele>64.4</ele>
      </trkpt>
      <trkpt lat="47.76236" lon="-1.8402">
        <ele>64.5</ele>
      </trkpt>
      <trkpt lat="47.76234" lon="-1.84023">
        <ele>64.5</ele>
      </trkpt>
      <trkpt lat="47.76233" lon="-1.84028">
        <ele>64.5</ele>
      </trkpt>
      <trkpt lat="47.76232" lon="-1.84034">
        <ele>64.4</ele>
      </trkpt>
      <trkpt lat="47.76229" lon="-1.84039">
        <ele>64.6</ele>
      </trkpt>
      <trkpt lat="47.76227" lon="-1.84044">
        <ele>64.7</ele>
      </trkpt>
      <trkpt lat="47.76226" lon="-1.84048">
        <ele>64.7</ele>
      </trkpt>
      <trkpt lat="47.76225" lon="-1.84053">
        <ele>64.8</ele>
      </trkpt>
      <trkpt lat="47.76223" lon="-1.84064">
        <ele>64.8</ele>
      </trkpt>
      <trkpt lat="47.76223" lon="-1.84064">
        <ele>64.8</ele>
      </trkpt>
      <trkpt lat="47.76223" lon="-1.84069">
        <ele>64.7</ele>
      </trkpt>
      <trkpt lat="47.76222" lon="-1.84073">
        <ele>64.7</ele>
      </trkpt>
      <trkpt lat="47.76221" lon="-1.84077">
        <ele>64.7</ele>
      </trkpt>
      <trkpt lat="47.7622" lon="-1.84082">
        <ele>64.8</ele>
      </trkpt>
      <trkpt lat="47.7622" lon="-1.84088">
        <ele>64.9</ele>
      </trkpt>
      <trkpt lat="47.76219" lon="-1.84093">
        <ele>65.1</ele>
      </trkpt>
      <trkpt lat="47.76219" lon="-1.84098">
        <ele>65.2</ele>
      </trkpt>
      <trkpt lat="47.76218" lon="-1.84103">
        <ele>65.5</ele>
      </trkpt>
      <trkpt lat="47.76217" lon="-1.84109">
        <ele>65.8</ele>
      </trkpt>
      <trkpt lat="47.76216" lon="-1.84114">
        <ele>66</ele>
      </trkpt>
      <trkpt lat="47.76216" lon="-1.84119">
        <ele>66.2</ele>
      </trkpt>
      <trkpt lat="47.76215" lon="-1.84123">
        <ele>66.5</ele>
      </trkpt>
      <trkpt lat="47.76214" lon="-1.8413">
        <ele>66.8</ele>
      </trkpt>
      <trkpt lat="47.76214" lon="-1.84137">
        <ele>67</ele>
      </trkpt>
      <trkpt lat="47.76214" lon="-1.84143">
        <ele>67.1</ele>
      </trkpt>
      <trkpt lat="47.76213" lon="-1.84149">
        <ele>67.4</ele>
      </trkpt>
      <trkpt lat="47.76213" lon="-1.84153">
        <ele>67.6</ele>
      </trkpt>
      <trkpt lat="47.76212" lon="-1.84157">
        <ele>67.9</ele>
      </trkpt>
      <trkpt lat="47.76212" lon="-1.84161">
        <ele>68.1</ele>
      </trkpt>
      <trkpt lat="47.76211" lon="-1.84164">
        <ele>68.3</ele>
      </trkpt>
      <trkpt lat="47.7621" lon="-1.84165">
        <ele>68.6</ele>
      </trkpt>
      <trkpt lat="47.76208" lon="-1.84165">
        <ele>69</ele>
      </trkpt>
      <trkpt lat="47.76206" lon="-1.84163">
        <ele>69.6</ele>
      </trkpt>
      <trkpt lat="47.76204" lon="-1.84163">
        <ele>70</ele>
      </trkpt>
      <trkpt lat="47.76202" lon="-1.84162">
        <ele>70.4</ele>
      </trkpt>
      <trkpt lat="47.762" lon="-1.84161">
        <ele>70.7</ele>
      </trkpt>
      <trkpt lat="47.76198" lon="-1.8416">
        <ele>71.3</ele>
      </trkpt>
      <trkpt lat="47.76195" lon="-1.8416">
        <ele>71.9</ele>
      </trkpt>
      <trkpt lat="47.76192" lon="-1.84161">
        <ele>72.6</ele>
      </trkpt>
      <trkpt lat="47.7619" lon="-1.84162">
        <ele>73.3</ele>
      </trkpt>
      <trkpt lat="47.76187" lon="-1.84162">
        <ele>73.9</ele>
      </trkpt>
      <trkpt lat="47.76184" lon="-1.84162">
        <ele>74.6</ele>
      </trkpt>
      <trkpt lat="47.76181" lon="-1.84161">
        <ele>75.2</ele>
      </trkpt>
      <trkpt lat="47.7618" lon="-1.84159">
        <ele>75.5</ele>
      </trkpt>
      <trkpt lat="47.7618" lon="-1.84157">
        <ele>75.4</ele>
      </trkpt>
      <trkpt lat="47.7618" lon="-1.84153">
        <ele>75.3</ele>
      </trkpt>
      <trkpt lat="47.7618" lon="-1.8415">
        <ele>75</ele>
      </trkpt>
      <trkpt lat="47.76181" lon="-1.84146">
        <ele>74.8</ele>
      </trkpt>
      <trkpt lat="47.7618" lon="-1.84143">
        <ele>74.8</ele>
      </trkpt>
      <trkpt lat="47.7618" lon="-1.84139">
        <ele>74.8</ele>
      </trkpt>
      <trkpt lat="47.7618" lon="-1.84135">
        <ele>74.6</ele>
      </trkpt>
      <trkpt lat="47.76181" lon="-1.84132">
        <ele>74.1</ele>
      </trkpt>
      <trkpt lat="47.76183" lon="-1.84129">
        <ele>73.7</ele>
      </trkpt>
      <trkpt lat="47.76184" lon="-1.84127">
        <ele>73.2</ele>
      </trkpt>
      <trkpt lat="47.76186" lon="-1.84125">
        <ele>72.9</ele>
      </trkpt>
      <trkpt lat="47.76187" lon="-1.84122">
        <ele>72.6</ele>
      </trkpt>
      <trkpt lat="47.76187" lon="-1.84119">
        <ele>72.3</ele>
      </trkpt>
      <trkpt lat="47.76188" lon="-1.84114">
        <ele>72</ele>
      </trkpt>
      <trkpt lat="47.76189" lon="-1.8411">
        <ele>71.7</ele>
      </trkpt>
      <trkpt lat="47.7619" lon="-1.84106">
        <ele>71.3</ele>
      </trkpt>
      <trkpt lat="47.76191" lon="-1.841">
        <ele>70.9</ele>
      </trkpt>
      <trkpt lat="47.76192" lon="-1.84095">
        <ele>70.5</ele>
      </trkpt>
      <trkpt lat="47.76193" lon="-1.8409">
        <ele>70.2</ele>
      </trkpt>
      <trkpt lat="47.76194" lon="-1.84085">
        <ele>69.8</ele>
      </trkpt>
      <trkpt lat="47.76195" lon="-1.8408">
        <ele>69.5</ele>
      </trkpt>
      <trkpt lat="47.76197" lon="-1.84075">
        <ele>69.2</ele>
      </trkpt>
      <trkpt lat="47.76198" lon="-1.8407">
        <ele>68.9</ele>
      </trkpt>
      <trkpt lat="47.76201" lon="-1.84066">
        <ele>68.5</ele>
      </trkpt>
      <trkpt lat="47.76203" lon="-1.84064">
        <ele>68.1</ele>
      </trkpt>
      <trkpt lat="47.76205" lon="-1.8406">
        <ele>67.8</ele>
      </trkpt>
      <trkpt lat="47.76208" lon="-1.84056">
        <ele>67.4</ele>
      </trkpt>
      <trkpt lat="47.76214" lon="-1.8405">
        <ele>66.5</ele>
      </trkpt>
      <trkpt lat="47.76217" lon="-1.84047">
        <ele>66.2</ele>
      </trkpt>
      <trkpt lat="47.76219" lon="-1.84043">
        <ele>66</ele>
      </trkpt>
      <trkpt lat="47.76221" lon="-1.84039">
        <ele>65.8</ele>
      </trkpt>
      <trkpt lat="47.76222" lon="-1.84034">
        <ele>65.7</ele>
      </trkpt>
      <trkpt lat="47.76224" lon="-1.84029">
        <ele>65.6</ele>
      </trkpt>
      <trkpt lat="47.76224" lon="-1.84025">
        <ele>65.7</ele>
      </trkpt>
      <trkpt lat="47.76225" lon="-1.8402">
        <ele>65.8</ele>
      </trkpt>
      <trkpt lat="47.76225" lon="-1.84016">
        <ele>65.8</ele>
      </trkpt>
      <trkpt lat="47.76226" lon="-1.84012">
        <ele>66</ele>
      </trkpt>
      <trkpt lat="47.76227" lon="-1.84008">
        <ele>66</ele>
      </trkpt>
      <trkpt lat="47.76228" lon="-1.84001">
        <ele>66</ele>
      </trkpt>
      <trkpt lat="47.76229" lon="-1.83997">
        <ele>65.9</ele>
      </trkpt>
      <trkpt lat="47.7623" lon="-1.83994">
        <ele>65.8</ele>
      </trkpt>
      <trkpt lat="47.76232" lon="-1.8399">
        <ele>65.6</ele>
      </trkpt>
      <trkpt lat="47.76233" lon="-1.83985">
        <ele>65.4</ele>
      </trkpt>
      <trkpt lat="47.76233" lon="-1.83981">
        <ele>65.3</ele>
      </trkpt>
      <trkpt lat="47.76233" lon="-1.83976">
        <ele>65.3</ele>
      </trkpt>
      <trkpt lat="47.76234" lon="-1.83972">
        <ele>65.2</ele>
      </trkpt>
      <trkpt lat="47.76234" lon="-1.83968">
        <ele>65.1</ele>
      </trkpt>
      <trkpt lat="47.76234" lon="-1.83963">
        <ele>65</ele>
      </trkpt>
      <trkpt lat="47.76234" lon="-1.83958">
        <ele>64.9</ele>
      </trkpt>
      <trkpt lat="47.76234" lon="-1.83952">
        <ele>64.9</ele>
      </trkpt>
      <trkpt lat="47.76235" lon="-1.83947">
        <ele>64.7</ele>
      </trkpt>
      <trkpt lat="47.76235" lon="-1.83941">
        <ele>64.7</ele>
      </trkpt>
      <trkpt lat="47.76235" lon="-1.83936">
        <ele>64.6</ele>
      </trkpt>
      <trkpt lat="47.76234" lon="-1.83931">
        <ele>64.6</ele>
      </trkpt>
      <trkpt lat="47.76233" lon="-1.83926">
        <ele>64.5</ele>
      </trkpt>
      <trkpt lat="47.76233" lon="-1.83922">
        <ele>64.5</ele>
      </trkpt>
      <trkpt lat="47.76232" lon="-1.83917">
        <ele>64.5</ele>
      </trkpt>
      <trkpt lat="47.7623" lon="-1.83913">
        <ele>64.4</ele>
      </trkpt>
      <trkpt lat="47.76229" lon="-1.83908">
        <ele>64.4</ele>
      </trkpt>
      <trkpt lat="47.76229" lon="-1.83903">
        <ele>64.3</ele>
      </trkpt>
      <trkpt lat="47.76229" lon="-1.839">
        <ele>64.3</ele>
      </trkpt>
      <trkpt lat="47.7623" lon="-1.83896">
        <ele>64.2</ele>
      </trkpt>
      <trkpt lat="47.7623" lon="-1.83891">
        <ele>64.1</ele>
      </trkpt>
      <trkpt lat="47.76232" lon="-1.83885">
        <ele>64</ele>
      </trkpt>
      <trkpt lat="47.76233" lon="-1.83883">
        <ele>63.9</ele>
      </trkpt>
      <trkpt lat="47.76234" lon="-1.8388">
        <ele>63.9</ele>
      </trkpt>
      <trkpt lat="47.76235" lon="-1.83877">
        <ele>63.8</ele>
      </trkpt>
      <trkpt lat="47.76237" lon="-1.83875">
        <ele>63.7</ele>
      </trkpt>
      <trkpt lat="47.7624" lon="-1.83874">
        <ele>63.7</ele>
      </trkpt>
      <trkpt lat="47.76243" lon="-1.83873">
        <ele>63.6</ele>
      </trkpt>
      <trkpt lat="47.76245" lon="-1.83872">
        <ele>63.6</ele>
      </trkpt>
      <trkpt lat="47.76246" lon="-1.83869">
        <ele>63.5</ele>
      </trkpt>
      <trkpt lat="47.76247" lon="-1.83862">
        <ele>63.4</ele>
      </trkpt>
      <trkpt lat="47.76248" lon="-1.83857">
        <ele>63.3</ele>
      </trkpt>
      <trkpt lat="47.76248" lon="-1.83853">
        <ele>63.3</ele>
      </trkpt>
      <trkpt lat="47.76248" lon="-1.8385">
        <ele>63.2</ele>
      </trkpt>
      <trkpt lat="47.76248" lon="-1.83847">
        <ele>63.2</ele>
      </trkpt>
      <trkpt lat="47.76248" lon="-1.83841">
        <ele>63.1</ele>
      </trkpt>
      <trkpt lat="47.76248" lon="-1.83837">
        <ele>63.1</ele>
      </trkpt>
      <trkpt lat="47.76248" lon="-1.83833">
        <ele>63</ele>
      </trkpt>
      <trkpt lat="47.76249" lon="-1.83829">
        <ele>62.8</ele>
      </trkpt>
      <trkpt lat="47.76249" lon="-1.83827">
        <ele>62.6</ele>
      </trkpt>
      <trkpt lat="47.76249" lon="-1.83824">
        <ele>62.4</ele>
      </trkpt>
      <trkpt lat="47.7625" lon="-1.83821">
        <ele>62.2</ele>
      </trkpt>
      <trkpt lat="47.76252" lon="-1.83815">
        <ele>61.3</ele>
      </trkpt>
      <trkpt lat="47.76253" lon="-1.83807">
        <ele>60.4</ele>
      </trkpt>
      <trkpt lat="47.76255" lon="-1.83799">
        <ele>59.2</ele>
      </trkpt>
      <trkpt lat="47.76258" lon="-1.83792">
        <ele>57.8</ele>
      </trkpt>
      <trkpt lat="47.76262" lon="-1.83787">
        <ele>56.5</ele>
      </trkpt>
      <trkpt lat="47.76263" lon="-1.83781">
        <ele>55.8</ele>
      </trkpt>
      <trkpt lat="47.76264" lon="-1.83777">
        <ele>55.4</ele>
      </trkpt>
      <trkpt lat="47.76264" lon="-1.83772">
        <ele>55.1</ele>
      </trkpt>
      <trkpt lat="47.76265" lon="-1.83767">
        <ele>54.6</ele>
      </trkpt>
      <trkpt lat="47.76268" lon="-1.83761">
        <ele>53.7</ele>
      </trkpt>
      <trkpt lat="47.76269" lon="-1.83756">
        <ele>53.2</ele>
      </trkpt>
      <trkpt lat="47.76271" lon="-1.83752">
        <ele>52.5</ele>
      </trkpt>
      <trkpt lat="47.76272" lon="-1.83747">
        <ele>51.9</ele>
      </trkpt>
      <trkpt lat="47.76272" lon="-1.83742">
        <ele>51.3</ele>
      </trkpt>
      <trkpt lat="47.76274" lon="-1.83739">
        <ele>50.7</ele>
      </trkpt>
      <trkpt lat="47.76275" lon="-1.83738">
        <ele>50.3</ele>
      </trkpt>
      <trkpt lat="47.76278" lon="-1.83738">
        <ele>49.7</ele>
      </trkpt>
      <trkpt lat="47.76281" lon="-1.83739">
        <ele>48.9</ele>
      </trkpt>
      <trkpt lat="47.76285" lon="-1.83741">
        <ele>48</ele>
      </trkpt>
      <trkpt lat="47.7629" lon="-1.83741">
        <ele>46.9</ele>
      </trkpt>
      <trkpt lat="47.76294" lon="-1.83742">
        <ele>45.9</ele>
      </trkpt>
      <trkpt lat="47.76298" lon="-1.83742">
        <ele>45</ele>
      </trkpt>
      <trkpt lat="47.76302" lon="-1.8374">
        <ele>43.8</ele>
      </trkpt>
      <trkpt lat="47.76306" lon="-1.83735">
        <ele>42.4</ele>
      </trkpt>
      <trkpt lat="47.7631" lon="-1.83729">
        <ele>41.2</ele>
      </trkpt>
      <trkpt lat="47.76312" lon="-1.83721">
        <ele>40.5</ele>
      </trkpt>
      <trkpt lat="47.76312" lon="-1.83712">
        <ele>40</ele>
      </trkpt>
      <trkpt lat="47.76312" lon="-1.83701">
        <ele>39.6</ele>
      </trkpt>
      <trkpt lat="47.76312" lon="-1.83689">
        <ele>39.2</ele>
      </trkpt>
      <trkpt lat="47.76311" lon="-1.83677">
        <ele>38.9</ele>
      </trkpt>
      <trkpt lat="47.7631" lon="-1.83664">
        <ele>38.5</ele>
      </trkpt>
      <trkpt lat="47.76309" lon="-1.83652">
        <ele>38.1</ele>
      </trkpt>
      <trkpt lat="47.76309" lon="-1.8364">
        <ele>37.7</ele>
      </trkpt>
      <trkpt lat="47.76308" lon="-1.83627">
        <ele>37.2</ele>
      </trkpt>
      <trkpt lat="47.76308" lon="-1.83616">
        <ele>36.7</ele>
      </trkpt>
      <trkpt lat="47.76308" lon="-1.83605">
        <ele>36.2</ele>
      </trkpt>
      <trkpt lat="47.76308" lon="-1.83594">
        <ele>35.8</ele>
      </trkpt>
      <trkpt lat="47.76307" lon="-1.83585">
        <ele>35.5</ele>
      </trkpt>
      <trkpt lat="47.76307" lon="-1.83576">
        <ele>35.1</ele>
      </trkpt>
      <trkpt lat="47.76308" lon="-1.8357">
        <ele>34.8</ele>
      </trkpt>
      <trkpt lat="47.76308" lon="-1.83564">
        <ele>34.5</ele>
      </trkpt>
      <trkpt lat="47.76309" lon="-1.83559">
        <ele>34.2</ele>
      </trkpt>
      <trkpt lat="47.7631" lon="-1.83555">
        <ele>33.9</ele>
      </trkpt>
      <trkpt lat="47.76309" lon="-1.83552">
        <ele>33.8</ele>
      </trkpt>
      <trkpt lat="47.76309" lon="-1.83549">
        <ele>33.7</ele>
      </trkpt>
      <trkpt lat="47.76309" lon="-1.83546">
        <ele>33.7</ele>
      </trkpt>
      <trkpt lat="47.76308" lon="-1.83543">
        <ele>33.7</ele>
      </trkpt>
      <trkpt lat="47.76306" lon="-1.8354">
        <ele>33.6</ele>
      </trkpt>
      <trkpt lat="47.76305" lon="-1.83536">
        <ele>33.7</ele>
      </trkpt>
      <trkpt lat="47.76304" lon="-1.83532">
        <ele>33.6</ele>
      </trkpt>
      <trkpt lat="47.76303" lon="-1.83527">
        <ele>33.5</ele>
      </trkpt>
      <trkpt lat="47.76302" lon="-1.83524">
        <ele>33.5</ele>
      </trkpt>
      <trkpt lat="47.763" lon="-1.83522">
        <ele>33.6</ele>
      </trkpt>
      <trkpt lat="47.76299" lon="-1.8352">
        <ele>33.6</ele>
      </trkpt>
      <trkpt lat="47.76298" lon="-1.83519">
        <ele>33.6</ele>
      </trkpt>
      <trkpt lat="47.76298" lon="-1.83517">
        <ele>33.6</ele>
      </trkpt>
      <trkpt lat="47.76298" lon="-1.83517">
        <ele>33.6</ele>
      </trkpt>
      <trkpt lat="47.76298" lon="-1.83517">
        <ele>33.6</ele>
      </trkpt>
      <trkpt lat="47.76298" lon="-1.83517">
        <ele>33.6</ele>
      </trkpt>
      <trkpt lat="47.76298" lon="-1.83517">
        <ele>33.6</ele>
      </trkpt>
      <trkpt lat="47.76298" lon="-1.83517">
        <ele>33.6</ele>
      </trkpt>
      <trkpt lat="47.76298" lon="-1.83517">
        <ele>33.6</ele>
      </trkpt>
      <trkpt lat="47.76298" lon="-1.83517">
        <ele>33.6</ele>
      </trkpt>
      <trkpt lat="47.76298" lon="-1.83517">
        <ele>33.6</ele>
      </trkpt>
      <trkpt lat="47.76298" lon="-1.83517">
        <ele>33.6</ele>
      </trkpt>
      <trkpt lat="47.76298" lon="-1.83517">
        <ele>33.6</ele>
      </trkpt>
      <trkpt lat="47.76297" lon="-1.83516">
        <ele>33.7</ele>
      </trkpt>
      <trkpt lat="47.76296" lon="-1.83514">
        <ele>33.7</ele>
      </trkpt>
      <trkpt lat="47.76295" lon="-1.83513">
        <ele>33.8</ele>
      </trkpt>
      <trkpt lat="47.76294" lon="-1.8351">
        <ele>33.8</ele>
      </trkpt>
      <trkpt lat="47.76293" lon="-1.83509">
        <ele>33.8</ele>
      </trkpt>
      <trkpt lat="47.76292" lon="-1.83506">
        <ele>33.7</ele>
      </trkpt>
      <trkpt lat="47.76292" lon="-1.83503">
        <ele>33.7</ele>
      </trkpt>
      <trkpt lat="47.76291" lon="-1.83502">
        <ele>33.7</ele>
      </trkpt>
      <trkpt lat="47.7629" lon="-1.835">
        <ele>33.7</ele>
      </trkpt>
      <trkpt lat="47.76288" lon="-1.83497">
        <ele>33.8</ele>
      </trkpt>
      <trkpt lat="47.76288" lon="-1.83497">
        <ele>33.8</ele>
      </trkpt>
      <trkpt lat="47.76288" lon="-1.83494">
        <ele>33.7</ele>
      </trkpt>
      <trkpt lat="47.76287" lon="-1.8349">
        <ele>33.6</ele>
      </trkpt>
      <trkpt lat="47.76286" lon="-1.83486">
        <ele>33.6</ele>
      </trkpt>
      <trkpt lat="47.76285" lon="-1.83483">
        <ele>33.6</ele>
      </trkpt>
      <trkpt lat="47.76285" lon="-1.83482">
        <ele>33.6</ele>
      </trkpt>
      <trkpt lat="47.76284" lon="-1.83481">
        <ele>33.6</ele>
      </trkpt>
      <trkpt lat="47.76282" lon="-1.83475">
        <ele>33.7</ele>
      </trkpt>
      <trkpt lat="47.76282" lon="-1.83474">
        <ele>33.6</ele>
      </trkpt>
      <trkpt lat="47.76281" lon="-1.83473">
        <ele>33.7</ele>
      </trkpt>
      <trkpt lat="47.7628" lon="-1.8347">
        <ele>33.6</ele>
      </trkpt>
      <trkpt lat="47.7628" lon="-1.83468">
        <ele>33.6</ele>
      </trkpt>
      <trkpt lat="47.76281" lon="-1.83466">
        <ele>33.5</ele>
      </trkpt>
      <trkpt lat="47.7628" lon="-1.83464">
        <ele>33.4</ele>
      </trkpt>
      <trkpt lat="47.7628" lon="-1.83463">
        <ele>33.4</ele>
      </trkpt>
      <trkpt lat="47.7628" lon="-1.83461">
        <ele>33.4</ele>
      </trkpt>
      <trkpt lat="47.76279" lon="-1.8346">
        <ele>33.4</ele>
      </trkpt>
      <trkpt lat="47.76279" lon="-1.83459">
        <ele>33.4</ele>
      </trkpt>
      <trkpt lat="47.76279" lon="-1.83458">
        <ele>33.4</ele>
      </trkpt>
      <trkpt lat="47.76279" lon="-1.83458">
        <ele>33.4</ele>
      </trkpt>
      <trkpt lat="47.76279" lon="-1.83458">
        <ele>33.4</ele>
      </trkpt>
      <trkpt lat="47.76279" lon="-1.83458">
        <ele>33.4</ele>
      </trkpt>
      <trkpt lat="47.76279" lon="-1.83457">
        <ele>33.4</ele>
      </trkpt>
      <trkpt lat="47.76278" lon="-1.83456">
        <ele>33.4</ele>
      </trkpt>
      <trkpt lat="47.76277" lon="-1.83454">
        <ele>33.4</ele>
      </trkpt>
      <trkpt lat="47.76277" lon="-1.83453">
        <ele>33.4</ele>
      </trkpt>
      <trkpt lat="47.76276" lon="-1.83452">
        <ele>33.5</ele>
      </trkpt>
      <trkpt lat="47.76275" lon="-1.8345">
        <ele>33.4</ele>
      </trkpt>
      <trkpt lat="47.76275" lon="-1.83449">
        <ele>33.4</ele>
      </trkpt>
      <trkpt lat="47.76275" lon="-1.83447">
        <ele>33.4</ele>
      </trkpt>
      <trkpt lat="47.76275" lon="-1.83445">
        <ele>33.4</ele>
      </trkpt>
      <trkpt lat="47.76275" lon="-1.83443">
        <ele>33.3</ele>
      </trkpt>
      <trkpt lat="47.76275" lon="-1.83441">
        <ele>33.2</ele>
      </trkpt>
      <trkpt lat="47.76275" lon="-1.83439">
        <ele>33.1</ele>
      </trkpt>
      <trkpt lat="47.76275" lon="-1.83438">
        <ele>33.1</ele>
      </trkpt>
      <trkpt lat="47.76274" lon="-1.83437">
        <ele>33.1</ele>
      </trkpt>
      <trkpt lat="47.76272" lon="-1.83437">
        <ele>33.3</ele>
      </trkpt>
      <trkpt lat="47.76271" lon="-1.83437">
        <ele>33.5</ele>
      </trkpt>
      <trkpt lat="47.76269" lon="-1.83437">
        <ele>33.7</ele>
      </trkpt>
      <trkpt lat="47.76268" lon="-1.83437">
        <ele>33.8</ele>
      </trkpt>
      <trkpt lat="47.76266" lon="-1.83436">
        <ele>34</ele>
      </trkpt>
      <trkpt lat="47.76266" lon="-1.83437">
        <ele>34</ele>
      </trkpt>
      <trkpt lat="47.76266" lon="-1.83437">
        <ele>34</ele>
      </trkpt>
      <trkpt lat="47.76266" lon="-1.83437">
        <ele>34</ele>
      </trkpt>
      <trkpt lat="47.76266" lon="-1.83437">
        <ele>34</ele>
      </trkpt>
      <trkpt lat="47.76266" lon="-1.83437">
        <ele>34</ele>
      </trkpt>
      <trkpt lat="47.76266" lon="-1.83437">
        <ele>34</ele>
      </trkpt>
      <trkpt lat="47.76266" lon="-1.83437">
        <ele>34</ele>
      </trkpt>
      <trkpt lat="47.76266" lon="-1.83437">
        <ele>34</ele>
      </trkpt>
      <trkpt lat="47.76266" lon="-1.83437">
        <ele>34</ele>
      </trkpt>
      <trkpt lat="47.76266" lon="-1.83437">
        <ele>34</ele>
      </trkpt>
      <trkpt lat="47.76266" lon="-1.83437">
        <ele>34</ele>
      </trkpt>
      <trkpt lat="47.76266" lon="-1.83437">
        <ele>34</ele>
      </trkpt>
      <trkpt lat="47.76266" lon="-1.83437">
        <ele>34</ele>
      </trkpt>
      <trkpt lat="47.76266" lon="-1.83437">
        <ele>34</ele>
      </trkpt>
      <trkpt lat="47.76266" lon="-1.83437">
        <ele>34</ele>
      </trkpt>
      <trkpt lat="47.76266" lon="-1.83437">
        <ele>34</ele>
      </trkpt>
      <trkpt lat="47.76266" lon="-1.83437">
        <ele>34</ele>
      </trkpt>
      <trkpt lat="47.76266" lon="-1.83437">
        <ele>34</ele>
      </trkpt>
      <trkpt lat="47.76266" lon="-1.83437">
        <ele>34</ele>
      </trkpt>
      <trkpt lat="47.76266" lon="-1.83437">
        <ele>34</ele>
      </trkpt>
      <trkpt lat="47.76266" lon="-1.83437">
        <ele>34</ele>
      </trkpt>
      <trkpt lat="47.76266" lon="-1.83437">
        <ele>34</ele>
      </trkpt>
      <trkpt lat="47.76266" lon="-1.83437">
        <ele>34</ele>
      </trkpt>
      <trkpt lat="47.76266" lon="-1.83437">
        <ele>34</ele>
      </trkpt>
      <trkpt lat="47.76266" lon="-1.83437">
        <ele>34</ele>
      </trkpt>
      <trkpt lat="47.76266" lon="-1.83437">
        <ele>34</ele>
      </trkpt>
      <trkpt lat="47.76266" lon="-1.83437">
        <ele>34</ele>
      </trkpt>
      <trkpt lat="47.76266" lon="-1.83437">
        <ele>34</ele>
      </trkpt>
      <trkpt lat="47.76266" lon="-1.83437">
        <ele>34</ele>
      </trkpt>
      <trkpt lat="47.76266" lon="-1.83437">
        <ele>34</ele>
      </trkpt>
      <trkpt lat="47.76266" lon="-1.83437">
        <ele>34</ele>
      </trkpt>
      <trkpt lat="47.76266" lon="-1.83437">
        <ele>34</ele>
      </trkpt>
      <trkpt lat="47.76266" lon="-1.83437">
        <ele>34</ele>
      </trkpt>
      <trkpt lat="47.76266" lon="-1.83437">
        <ele>34</ele>
      </trkpt>
      <trkpt lat="47.76266" lon="-1.83437">
        <ele>34</ele>
      </trkpt>
      <trkpt lat="47.76266" lon="-1.83437">
        <ele>34</ele>
      </trkpt>
      <trkpt lat="47.76266" lon="-1.83437">
        <ele>34</ele>
      </trkpt>
      <trkpt lat="47.76266" lon="-1.83437">
        <ele>34</ele>
      </trkpt>
      <trkpt lat="47.76266" lon="-1.83437">
        <ele>34</ele>
      </trkpt>
      <trkpt lat="47.76266" lon="-1.83437">
        <ele>34</ele>
      </trkpt>
      <trkpt lat="47.76266" lon="-1.83437">
        <ele>34</ele>
      </trkpt>
      <trkpt lat="47.76266" lon="-1.83437">
        <ele>34</ele>
      </trkpt>
      <trkpt lat="47.76266" lon="-1.83437">
        <ele>34</ele>
      </trkpt>
      <trkpt lat="47.76266" lon="-1.83437">
        <ele>34</ele>
      </trkpt>
      <trkpt lat="47.76266" lon="-1.83437">
        <ele>34</ele>
      </trkpt>
      <trkpt lat="47.76266" lon="-1.83437">
        <ele>34</ele>
      </trkpt>
      <trkpt lat="47.76266" lon="-1.83437">
        <ele>34</ele>
      </trkpt>
      <trkpt lat="47.76266" lon="-1.83437">
        <ele>34</ele>
      </trkpt>
      <trkpt lat="47.76266" lon="-1.83437">
        <ele>34</ele>
      </trkpt>
      <trkpt lat="47.76266" lon="-1.83437">
        <ele>34</ele>
      </trkpt>
      <trkpt lat="47.76266" lon="-1.83437">
        <ele>34</ele>
      </trkpt>
      <trkpt lat="47.76266" lon="-1.83437">
        <ele>34</ele>
      </trkpt>
      <trkpt lat="47.76266" lon="-1.83437">
        <ele>34</ele>
      </trkpt>
      <trkpt lat="47.76266" lon="-1.83437">
        <ele>34</ele>
      </trkpt>
      <trkpt lat="47.76266" lon="-1.83437">
        <ele>34</ele>
      </trkpt>
      <trkpt lat="47.76266" lon="-1.83437">
        <ele>34</ele>
      </trkpt>
      <trkpt lat="47.76266" lon="-1.83437">
        <ele>34</ele>
      </trkpt>
      <trkpt lat="47.76266" lon="-1.83437">
        <ele>34</ele>
      </trkpt>
      <trkpt lat="47.76266" lon="-1.83437">
        <ele>34</ele>
      </trkpt>
      <trkpt lat="47.76266" lon="-1.83437">
        <ele>34</ele>
      </trkpt>
      <trkpt lat="47.76266" lon="-1.83437">
        <ele>34</ele>
      </trkpt>
      <trkpt lat="47.76266" lon="-1.83437">
        <ele>34</ele>
      </trkpt>
      <trkpt lat="47.76266" lon="-1.83437">
        <ele>34</ele>
      </trkpt>
      <trkpt lat="47.76265" lon="-1.83437">
        <ele>34.1</ele>
      </trkpt>
      <trkpt lat="47.76264" lon="-1.83438">
        <ele>34.3</ele>
      </trkpt>
      <trkpt lat="47.76263" lon="-1.8344">
        <ele>34.5</ele>
      </trkpt>
      <trkpt lat="47.76261" lon="-1.83441">
        <ele>34.6</ele>
      </trkpt>
      <trkpt lat="47.7626" lon="-1.83443">
        <ele>34.8</ele>
      </trkpt>
      <trkpt lat="47.76259" lon="-1.83445">
        <ele>35</ele>
      </trkpt>
      <trkpt lat="47.76258" lon="-1.83447">
        <ele>35.2</ele>
      </trkpt>
      <trkpt lat="47.76256" lon="-1.83448">
        <ele>35.4</ele>
      </trkpt>
      <trkpt lat="47.76255" lon="-1.83449">
        <ele>35.7</ele>
      </trkpt>
      <trkpt lat="47.76253" lon="-1.8345">
        <ele>35.9</ele>
      </trkpt>
      <trkpt lat="47.76251" lon="-1.83451">
        <ele>36.1</ele>
      </trkpt>
      <trkpt lat="47.76249" lon="-1.83451">
        <ele>36.3</ele>
      </trkpt>
      <trkpt lat="47.76248" lon="-1.83452">
        <ele>36.4</ele>
      </trkpt>
      <trkpt lat="47.76246" lon="-1.83452">
        <ele>36.6</ele>
      </trkpt>
      <trkpt lat="47.76244" lon="-1.83453">
        <ele>36.7</ele>
      </trkpt>
      <trkpt lat="47.76242" lon="-1.83454">
        <ele>36.9</ele>
      </trkpt>
      <trkpt lat="47.7624" lon="-1.83455">
        <ele>37</ele>
      </trkpt>
      <trkpt lat="47.76238" lon="-1.83456">
        <ele>37.2</ele>
      </trkpt>
      <trkpt lat="47.76236" lon="-1.83457">
        <ele>37.3</ele>
      </trkpt>
      <trkpt lat="47.76235" lon="-1.83457">
        <ele>37.5</ele>
      </trkpt>
      <trkpt lat="47.76233" lon="-1.83459">
        <ele>37.6</ele>
      </trkpt>
      <trkpt lat="47.76232" lon="-1.83461">
        <ele>37.8</ele>
      </trkpt>
      <trkpt lat="47.76231" lon="-1.83463">
        <ele>37.9</ele>
      </trkpt>
      <trkpt lat="47.7623" lon="-1.83466">
        <ele>38</ele>
      </trkpt>
      <trkpt lat="47.76229" lon="-1.83467">
        <ele>38.1</ele>
      </trkpt>
      <trkpt lat="47.76227" lon="-1.83469">
        <ele>38.3</ele>
      </trkpt>
      <trkpt lat="47.76226" lon="-1.8347">
        <ele>38.4</ele>
      </trkpt>
      <trkpt lat="47.76225" lon="-1.83472">
        <ele>38.5</ele>
      </trkpt>
      <trkpt lat="47.76223" lon="-1.83475">
        <ele>38.7</ele>
      </trkpt>
      <trkpt lat="47.76223" lon="-1.83478">
        <ele>38.8</ele>
      </trkpt>
      <trkpt lat="47.76221" lon="-1.8348">
        <ele>38.9</ele>
      </trkpt>
      <trkpt lat="47.7622" lon="-1.83482">
        <ele>39.1</ele>
      </trkpt>
      <trkpt lat="47.76218" lon="-1.83484">
        <ele>39.2</ele>
      </trkpt>
      <trkpt lat="47.76217" lon="-1.83487">
        <ele>39.3</ele>
      </trkpt>
      <trkpt lat="47.76216" lon="-1.83491">
        <ele>39.5</ele>
      </trkpt>
      <trkpt lat="47.76214" lon="-1.83494">
        <ele>39.6</ele>
      </trkpt>
      <trkpt lat="47.76212" lon="-1.83496">
        <ele>39.7</ele>
      </trkpt>
      <trkpt lat="47.7621" lon="-1.83497">
        <ele>39.8</ele>
      </trkpt>
      <trkpt lat="47.76209" lon="-1.83499">
        <ele>39.9</ele>
      </trkpt>
      <trkpt lat="47.76207" lon="-1.83499">
        <ele>40</ele>
      </trkpt>
      <trkpt lat="47.76206" lon="-1.83501">
        <ele>40.1</ele>
      </trkpt>
      <trkpt lat="47.76204" lon="-1.83502">
        <ele>40.3</ele>
      </trkpt>
      <trkpt lat="47.76203" lon="-1.83503">
        <ele>40.4</ele>
      </trkpt>
      <trkpt lat="47.76202" lon="-1.83505">
        <ele>40.5</ele>
      </trkpt>
      <trkpt lat="47.76201" lon="-1.83505">
        <ele>40.5</ele>
      </trkpt>
      <trkpt lat="47.76199" lon="-1.83505">
        <ele>40.6</ele>
      </trkpt>
      <trkpt lat="47.76198" lon="-1.83505">
        <ele>40.7</ele>
      </trkpt>
      <trkpt lat="47.76196" lon="-1.83504">
        <ele>40.7</ele>
      </trkpt>
      <trkpt lat="47.76194" lon="-1.83503">
        <ele>40.8</ele>
      </trkpt>
      <trkpt lat="47.76193" lon="-1.83503">
        <ele>40.8</ele>
      </trkpt>
      <trkpt lat="47.76191" lon="-1.83504">
        <ele>40.9</ele>
      </trkpt>
      <trkpt lat="47.7619" lon="-1.83506">
        <ele>41</ele>
      </trkpt>
      <trkpt lat="47.76189" lon="-1.83508">
        <ele>41.1</ele>
      </trkpt>
      <trkpt lat="47.76187" lon="-1.83509">
        <ele>41.2</ele>
      </trkpt>
      <trkpt lat="47.76186" lon="-1.8351">
        <ele>41.3</ele>
      </trkpt>
      <trkpt lat="47.76186" lon="-1.8351">
        <ele>41.3</ele>
      </trkpt>
      <trkpt lat="47.76186" lon="-1.8351">
        <ele>41.3</ele>
      </trkpt>
      <trkpt lat="47.76186" lon="-1.8351">
        <ele>41.3</ele>
      </trkpt>
      <trkpt lat="47.76186" lon="-1.8351">
        <ele>41.3</ele>
      </trkpt>
      <trkpt lat="47.76186" lon="-1.8351">
        <ele>41.3</ele>
      </trkpt>
      <trkpt lat="47.76186" lon="-1.8351">
        <ele>41.3</ele>
      </trkpt>
      <trkpt lat="47.76186" lon="-1.8351">
        <ele>41.3</ele>
      </trkpt>
      <trkpt lat="47.76185" lon="-1.83511">
        <ele>41.3</ele>
      </trkpt>
      <trkpt lat="47.76185" lon="-1.83512">
        <ele>41.4</ele>
      </trkpt>
      <trkpt lat="47.76184" lon="-1.83512">
        <ele>41.4</ele>
      </trkpt>
      <trkpt lat="47.76184" lon="-1.83512">
        <ele>41.4</ele>
      </trkpt>
      <trkpt lat="47.76184" lon="-1.83512">
        <ele>41.4</ele>
      </trkpt>
      <trkpt lat="47.76184" lon="-1.83512">
        <ele>41.4</ele>
      </trkpt>
      <trkpt lat="47.76184" lon="-1.83512">
        <ele>41.4</ele>
      </trkpt>
      <trkpt lat="47.76184" lon="-1.83512">
        <ele>41.4</ele>
      </trkpt>
      <trkpt lat="47.76184" lon="-1.83512">
        <ele>41.4</ele>
      </trkpt>
      <trkpt lat="47.76184" lon="-1.83512">
        <ele>41.4</ele>
      </trkpt>
      <trkpt lat="47.76184" lon="-1.83512">
        <ele>41.4</ele>
      </trkpt>
      <trkpt lat="47.76184" lon="-1.83512">
        <ele>41.4</ele>
      </trkpt>
      <trkpt lat="47.76184" lon="-1.83512">
        <ele>41.4</ele>
      </trkpt>
      <trkpt lat="47.76184" lon="-1.83512">
        <ele>41.4</ele>
      </trkpt>
      <trkpt lat="47.76184" lon="-1.83512">
        <ele>41.4</ele>
      </trkpt>
      <trkpt lat="47.76183" lon="-1.83512">
        <ele>41.5</ele>
      </trkpt>
      <trkpt lat="47.76182" lon="-1.83513">
        <ele>41.6</ele>
      </trkpt>
      <trkpt lat="47.76181" lon="-1.83514">
        <ele>41.6</ele>
      </trkpt>
      <trkpt lat="47.76181" lon="-1.83514">
        <ele>41.6</ele>
      </trkpt>
      <trkpt lat="47.76181" lon="-1.83514">
        <ele>41.6</ele>
      </trkpt>
      <trkpt lat="47.76181" lon="-1.83514">
        <ele>41.6</ele>
      </trkpt>
      <trkpt lat="47.7618" lon="-1.83516">
        <ele>41.7</ele>
      </trkpt>
      <trkpt lat="47.76178" lon="-1.83518">
        <ele>41.8</ele>
      </trkpt>
      <trkpt lat="47.76177" lon="-1.83519">
        <ele>41.8</ele>
      </trkpt>
      <trkpt lat="47.76176" lon="-1.83521">
        <ele>41.9</ele>
      </trkpt>
      <trkpt lat="47.76175" lon="-1.83523">
        <ele>42</ele>
      </trkpt>
      <trkpt lat="47.76173" lon="-1.83525">
        <ele>42.1</ele>
      </trkpt>
      <trkpt lat="47.76171" lon="-1.83528">
        <ele>42.2</ele>
      </trkpt>
      <trkpt lat="47.7617" lon="-1.8353">
        <ele>42.3</ele>
      </trkpt>
      <trkpt lat="47.76168" lon="-1.83533">
        <ele>42.4</ele>
      </trkpt>
      <trkpt lat="47.76167" lon="-1.83536">
        <ele>42.5</ele>
      </trkpt>
      <trkpt lat="47.76166" lon="-1.83539">
        <ele>42.6</ele>
      </trkpt>
      <trkpt lat="47.76164" lon="-1.83542">
        <ele>42.8</ele>
      </trkpt>
      <trkpt lat="47.76163" lon="-1.83546">
        <ele>43</ele>
      </trkpt>
      <trkpt lat="47.76161" lon="-1.83551">
        <ele>43.2</ele>
      </trkpt>
      <trkpt lat="47.7616" lon="-1.83555">
        <ele>43.4</ele>
      </trkpt>
      <trkpt lat="47.76159" lon="-1.83558">
        <ele>43.6</ele>
      </trkpt>
      <trkpt lat="47.76157" lon="-1.83563">
        <ele>43.9</ele>
      </trkpt>
      <trkpt lat="47.76156" lon="-1.83567">
        <ele>44.1</ele>
      </trkpt>
      <trkpt lat="47.76154" lon="-1.8357">
        <ele>44.3</ele>
      </trkpt>
      <trkpt lat="47.76153" lon="-1.83573">
        <ele>44.5</ele>
      </trkpt>
      <trkpt lat="47.76152" lon="-1.83577">
        <ele>44.7</ele>
      </trkpt>
      <trkpt lat="47.7615" lon="-1.8358">
        <ele>44.9</ele>
      </trkpt>
      <trkpt lat="47.7615" lon="-1.83584">
        <ele>45</ele>
      </trkpt>
      <trkpt lat="47.76148" lon="-1.83587">
        <ele>45.4</ele>
      </trkpt>
      <trkpt lat="47.76147" lon="-1.8359">
        <ele>45.7</ele>
      </trkpt>
      <trkpt lat="47.76146" lon="-1.83593">
        <ele>46</ele>
      </trkpt>
      <trkpt lat="47.76144" lon="-1.83595">
        <ele>46.3</ele>
      </trkpt>
      <trkpt lat="47.76143" lon="-1.83598">
        <ele>46.7</ele>
      </trkpt>
      <trkpt lat="47.76141" lon="-1.83601">
        <ele>47</ele>
      </trkpt>
      <trkpt lat="47.7614" lon="-1.83604">
        <ele>47.3</ele>
      </trkpt>
      <trkpt lat="47.76139" lon="-1.83607">
        <ele>47.6</ele>
      </trkpt>
      <trkpt lat="47.76137" lon="-1.83609">
        <ele>47.9</ele>
      </trkpt>
      <trkpt lat="47.76136" lon="-1.83612">
        <ele>48.1</ele>
      </trkpt>
      <trkpt lat="47.76135" lon="-1.83615">
        <ele>48.4</ele>
      </trkpt>
      <trkpt lat="47.76134" lon="-1.83619">
        <ele>48.7</ele>
      </trkpt>
      <trkpt lat="47.76134" lon="-1.83622">
        <ele>48.9</ele>
      </trkpt>
      <trkpt lat="47.76133" lon="-1.83626">
        <ele>49.1</ele>
      </trkpt>
      <trkpt lat="47.76133" lon="-1.83629">
        <ele>49.4</ele>
      </trkpt>
      <trkpt lat="47.76132" lon="-1.83633">
        <ele>49.6</ele>
      </trkpt>
      <trkpt lat="47.76131" lon="-1.83636">
        <ele>49.9</ele>
      </trkpt>
      <trkpt lat="47.7613" lon="-1.83639">
        <ele>50.1</ele>
      </trkpt>
      <trkpt lat="47.7613" lon="-1.83643">
        <ele>50.3</ele>
      </trkpt>
      <trkpt lat="47.7613" lon="-1.83646">
        <ele>50.5</ele>
      </trkpt>
      <trkpt lat="47.7613" lon="-1.8365">
        <ele>50.7</ele>
      </trkpt>
      <trkpt lat="47.7613" lon="-1.83653">
        <ele>50.8</ele>
      </trkpt>
      <trkpt lat="47.7613" lon="-1.83656">
        <ele>51</ele>
      </trkpt>
      <trkpt lat="47.7613" lon="-1.83659">
        <ele>51.1</ele>
      </trkpt>
      <trkpt lat="47.7613" lon="-1.83663">
        <ele>51.3</ele>
      </trkpt>
      <trkpt lat="47.7613" lon="-1.83666">
        <ele>51.5</ele>
      </trkpt>
      <trkpt lat="47.76131" lon="-1.83669">
        <ele>51.7</ele>
      </trkpt>
      <trkpt lat="47.76131" lon="-1.83672">
        <ele>52</ele>
      </trkpt>
      <trkpt lat="47.76131" lon="-1.83675">
        <ele>52.2</ele>
      </trkpt>
      <trkpt lat="47.76132" lon="-1.83678">
        <ele>52.4</ele>
      </trkpt>
      <trkpt lat="47.76132" lon="-1.83682">
        <ele>52.7</ele>
      </trkpt>
      <trkpt lat="47.76133" lon="-1.83685">
        <ele>53</ele>
      </trkpt>
      <trkpt lat="47.76134" lon="-1.83688">
        <ele>53.2</ele>
      </trkpt>
      <trkpt lat="47.76135" lon="-1.83691">
        <ele>53.5</ele>
      </trkpt>
      <trkpt lat="47.76135" lon="-1.83694">
        <ele>53.7</ele>
      </trkpt>
      <trkpt lat="47.76136" lon="-1.83697">
        <ele>54</ele>
      </trkpt>
      <trkpt lat="47.76137" lon="-1.837">
        <ele>54.2</ele>
      </trkpt>
      <trkpt lat="47.76138" lon="-1.83703">
        <ele>54.5</ele>
      </trkpt>
      <trkpt lat="47.76139" lon="-1.83706">
        <ele>54.8</ele>
      </trkpt>
      <trkpt lat="47.7614" lon="-1.83709">
        <ele>55</ele>
      </trkpt>
      <trkpt lat="47.76141" lon="-1.83712">
        <ele>55.3</ele>
      </trkpt>
      <trkpt lat="47.76142" lon="-1.83715">
        <ele>55.6</ele>
      </trkpt>
      <trkpt lat="47.76143" lon="-1.83717">
        <ele>55.9</ele>
      </trkpt>
      <trkpt lat="47.76144" lon="-1.8372">
        <ele>56.1</ele>
      </trkpt>
      <trkpt lat="47.76145" lon="-1.83723">
        <ele>56.4</ele>
      </trkpt>
      <trkpt lat="47.76146" lon="-1.83726">
        <ele>56.8</ele>
      </trkpt>
      <trkpt lat="47.76147" lon="-1.83729">
        <ele>57.1</ele>
      </trkpt>
      <trkpt lat="47.76148" lon="-1.83732">
        <ele>57.4</ele>
      </trkpt>
      <trkpt lat="47.76149" lon="-1.83735">
        <ele>57.8</ele>
      </trkpt>
      <trkpt lat="47.7615" lon="-1.83738">
        <ele>58.1</ele>
      </trkpt>
      <trkpt lat="47.7615" lon="-1.83741">
        <ele>58.5</ele>
      </trkpt>
      <trkpt lat="47.76151" lon="-1.83744">
        <ele>58.9</ele>
      </trkpt>
      <trkpt lat="47.76152" lon="-1.83747">
        <ele>59.2</ele>
      </trkpt>
      <trkpt lat="47.76153" lon="-1.8375">
        <ele>59.6</ele>
      </trkpt>
      <trkpt lat="47.76154" lon="-1.83753">
        <ele>59.8</ele>
      </trkpt>
      <trkpt lat="47.76155" lon="-1.83756">
        <ele>60</ele>
      </trkpt>
      <trkpt lat="47.76156" lon="-1.83759">
        <ele>60.2</ele>
      </trkpt>
      <trkpt lat="47.76157" lon="-1.83762">
        <ele>60.3</ele>
      </trkpt>
      <trkpt lat="47.76157" lon="-1.83764">
        <ele>60.4</ele>
      </trkpt>
      <trkpt lat="47.76158" lon="-1.83766">
        <ele>60.6</ele>
      </trkpt>
      <trkpt lat="47.76159" lon="-1.83769">
        <ele>60.7</ele>
      </trkpt>
      <trkpt lat="47.7616" lon="-1.83772">
        <ele>60.9</ele>
      </trkpt>
      <trkpt lat="47.76161" lon="-1.83775">
        <ele>61.1</ele>
      </trkpt>
      <trkpt lat="47.76162" lon="-1.83778">
        <ele>61.2</ele>
      </trkpt>
      <trkpt lat="47.76164" lon="-1.83782">
        <ele>61.4</ele>
      </trkpt>
      <trkpt lat="47.76165" lon="-1.83785">
        <ele>61.6</ele>
      </trkpt>
      <trkpt lat="47.76166" lon="-1.83788">
        <ele>61.8</ele>
      </trkpt>
      <trkpt lat="47.76167" lon="-1.83792">
        <ele>62</ele>
      </trkpt>
      <trkpt lat="47.76167" lon="-1.83795">
        <ele>62.1</ele>
      </trkpt>
      <trkpt lat="47.76168" lon="-1.83798">
        <ele>62.3</ele>
      </trkpt>
      <trkpt lat="47.76169" lon="-1.83801">
        <ele>62.4</ele>
      </trkpt>
      <trkpt lat="47.7617" lon="-1.83804">
        <ele>62.5</ele>
      </trkpt>
      <trkpt lat="47.76171" lon="-1.83807">
        <ele>62.7</ele>
      </trkpt>
      <trkpt lat="47.76171" lon="-1.8381">
        <ele>62.8</ele>
      </trkpt>
      <trkpt lat="47.76172" lon="-1.83813">
        <ele>63</ele>
      </trkpt>
      <trkpt lat="47.76173" lon="-1.83817">
        <ele>63.1</ele>
      </trkpt>
      <trkpt lat="47.76174" lon="-1.8382">
        <ele>63.3</ele>
      </trkpt>
      <trkpt lat="47.76174" lon="-1.83823">
        <ele>63.4</ele>
      </trkpt>
      <trkpt lat="47.76175" lon="-1.83826">
        <ele>63.5</ele>
      </trkpt>
      <trkpt lat="47.76176" lon="-1.83829">
        <ele>63.7</ele>
      </trkpt>
      <trkpt lat="47.76176" lon="-1.83833">
        <ele>63.9</ele>
      </trkpt>
      <trkpt lat="47.76176" lon="-1.83836">
        <ele>64</ele>
      </trkpt>
      <trkpt lat="47.76177" lon="-1.8384">
        <ele>64</ele>
      </trkpt>
      <trkpt lat="47.76177" lon="-1.83844">
        <ele>64.1</ele>
      </trkpt>
      <trkpt lat="47.76177" lon="-1.83849">
        <ele>64.2</ele>
      </trkpt>
      <trkpt lat="47.76177" lon="-1.83853">
        <ele>64.3</ele>
      </trkpt>
      <trkpt lat="47.76177" lon="-1.83857">
        <ele>64.4</ele>
      </trkpt>
      <trkpt lat="47.76177" lon="-1.83861">
        <ele>64.5</ele>
      </trkpt>
      <trkpt lat="47.76178" lon="-1.83866">
        <ele>64.6</ele>
      </trkpt>
      <trkpt lat="47.76178" lon="-1.8387">
        <ele>64.7</ele>
      </trkpt>
      <trkpt lat="47.76178" lon="-1.83874">
        <ele>64.8</ele>
      </trkpt>
      <trkpt lat="47.76177" lon="-1.83878">
        <ele>64.9</ele>
      </trkpt>
      <trkpt lat="47.76176" lon="-1.83882">
        <ele>65</ele>
      </trkpt>
      <trkpt lat="47.76176" lon="-1.83886">
        <ele>65.1</ele>
      </trkpt>
      <trkpt lat="47.76176" lon="-1.8389">
        <ele>65.2</ele>
      </trkpt>
      <trkpt lat="47.76177" lon="-1.83895">
        <ele>65.3</ele>
      </trkpt>
      <trkpt lat="47.76177" lon="-1.83899">
        <ele>65.4</ele>
      </trkpt>
      <trkpt lat="47.76177" lon="-1.83904">
        <ele>65.5</ele>
      </trkpt>
      <trkpt lat="47.76177" lon="-1.83908">
        <ele>65.6</ele>
      </trkpt>
      <trkpt lat="47.76177" lon="-1.83912">
        <ele>65.7</ele>
      </trkpt>
      <trkpt lat="47.76176" lon="-1.83916">
        <ele>65.8</ele>
      </trkpt>
      <trkpt lat="47.76176" lon="-1.83921">
        <ele>66.1</ele>
      </trkpt>
      <trkpt lat="47.76176" lon="-1.83925">
        <ele>66.3</ele>
      </trkpt>
      <trkpt lat="47.76175" lon="-1.8393">
        <ele>66.6</ele>
      </trkpt>
      <trkpt lat="47.76173" lon="-1.83934">
        <ele>67</ele>
      </trkpt>
      <trkpt lat="47.76173" lon="-1.83939">
        <ele>67.3</ele>
      </trkpt>
      <trkpt lat="47.76172" lon="-1.83943">
        <ele>67.6</ele>
      </trkpt>
      <trkpt lat="47.76172" lon="-1.83947">
        <ele>67.9</ele>
      </trkpt>
      <trkpt lat="47.76172" lon="-1.83952">
        <ele>68.3</ele>
      </trkpt>
      <trkpt lat="47.76172" lon="-1.83956">
        <ele>68.6</ele>
      </trkpt>
      <trkpt lat="47.76171" lon="-1.83961">
        <ele>68.9</ele>
      </trkpt>
      <trkpt lat="47.76171" lon="-1.83965">
        <ele>69.2</ele>
      </trkpt>
      <trkpt lat="47.76171" lon="-1.83969">
        <ele>69.5</ele>
      </trkpt>
      <trkpt lat="47.76171" lon="-1.83974">
        <ele>69.8</ele>
      </trkpt>
      <trkpt lat="47.76171" lon="-1.83979">
        <ele>70.1</ele>
      </trkpt>
      <trkpt lat="47.76171" lon="-1.83984">
        <ele>70.5</ele>
      </trkpt>
      <trkpt lat="47.7617" lon="-1.83988">
        <ele>70.8</ele>
      </trkpt>
      <trkpt lat="47.76169" lon="-1.83992">
        <ele>71.2</ele>
      </trkpt>
      <trkpt lat="47.76168" lon="-1.83997">
        <ele>71.6</ele>
      </trkpt>
      <trkpt lat="47.76168" lon="-1.84001">
        <ele>71.9</ele>
      </trkpt>
      <trkpt lat="47.76167" lon="-1.84006">
        <ele>72.2</ele>
      </trkpt>
      <trkpt lat="47.76167" lon="-1.8401">
        <ele>72.4</ele>
      </trkpt>
      <trkpt lat="47.76167" lon="-1.84015">
        <ele>72.5</ele>
      </trkpt>
      <trkpt lat="47.76167" lon="-1.8402">
        <ele>72.7</ele>
      </trkpt>
      <trkpt lat="47.76166" lon="-1.84025">
        <ele>72.9</ele>
      </trkpt>
      <trkpt lat="47.76166" lon="-1.8403">
        <ele>73</ele>
      </trkpt>
      <trkpt lat="47.76165" lon="-1.84034">
        <ele>73.2</ele>
      </trkpt>
      <trkpt lat="47.76165" lon="-1.8404">
        <ele>73.3</ele>
      </trkpt>
      <trkpt lat="47.76165" lon="-1.84045">
        <ele>73.5</ele>
      </trkpt>
      <trkpt lat="47.76165" lon="-1.84049">
        <ele>73.7</ele>
      </trkpt>
      <trkpt lat="47.76165" lon="-1.84054">
        <ele>73.8</ele>
      </trkpt>
      <trkpt lat="47.76165" lon="-1.84059">
        <ele>74</ele>
      </trkpt>
      <trkpt lat="47.76164" lon="-1.84064">
        <ele>74.2</ele>
      </trkpt>
      <trkpt lat="47.76164" lon="-1.8407">
        <ele>74.4</ele>
      </trkpt>
      <trkpt lat="47.76163" lon="-1.84075">
        <ele>74.5</ele>
      </trkpt>
      <trkpt lat="47.76163" lon="-1.84081">
        <ele>74.7</ele>
      </trkpt>
      <trkpt lat="47.76162" lon="-1.84086">
        <ele>74.9</ele>
      </trkpt>
      <trkpt lat="47.76161" lon="-1.84092">
        <ele>75.1</ele>
      </trkpt>
      <trkpt lat="47.76161" lon="-1.84098">
        <ele>75.4</ele>
      </trkpt>
      <trkpt lat="47.7616" lon="-1.84103">
        <ele>75.6</ele>
      </trkpt>
      <trkpt lat="47.7616" lon="-1.84109">
        <ele>75.8</ele>
      </trkpt>
      <trkpt lat="47.7616" lon="-1.84114">
        <ele>76.1</ele>
      </trkpt>
      <trkpt lat="47.76159" lon="-1.84119">
        <ele>76.3</ele>
      </trkpt>
      <trkpt lat="47.76157" lon="-1.84125">
        <ele>76.5</ele>
      </trkpt>
      <trkpt lat="47.76156" lon="-1.84131">
        <ele>76.7</ele>
      </trkpt>
      <trkpt lat="47.76155" lon="-1.84136">
        <ele>76.9</ele>
      </trkpt>
      <trkpt lat="47.76155" lon="-1.84142">
        <ele>77.2</ele>
      </trkpt>
      <trkpt lat="47.76154" lon="-1.84148">
        <ele>77.5</ele>
      </trkpt>
      <trkpt lat="47.76153" lon="-1.84153">
        <ele>77.7</ele>
      </trkpt>
      <trkpt lat="47.76152" lon="-1.84159">
        <ele>77.9</ele>
      </trkpt>
      <trkpt lat="47.76151" lon="-1.84165">
        <ele>78.1</ele>
      </trkpt>
      <trkpt lat="47.7615" lon="-1.84169">
        <ele>78.3</ele>
      </trkpt>
      <trkpt lat="47.76149" lon="-1.84173">
        <ele>78.4</ele>
      </trkpt>
      <trkpt lat="47.76148" lon="-1.84177">
        <ele>78.5</ele>
      </trkpt>
      <trkpt lat="47.76149" lon="-1.84179">
        <ele>78.6</ele>
      </trkpt>
      <trkpt lat="47.76148" lon="-1.8418">
        <ele>78.6</ele>
      </trkpt>
      <trkpt lat="47.76148" lon="-1.84179">
        <ele>78.5</ele>
      </trkpt>
      <trkpt lat="47.76148" lon="-1.84179">
        <ele>78.5</ele>
      </trkpt>
      <trkpt lat="47.76148" lon="-1.84178">
        <ele>78.5</ele>
      </trkpt>
      <trkpt lat="47.76148" lon="-1.84178">
        <ele>78.5</ele>
      </trkpt>
      <trkpt lat="47.76148" lon="-1.84176">
        <ele>78.4</ele>
      </trkpt>
      <trkpt lat="47.76146" lon="-1.84174">
        <ele>78.3</ele>
      </trkpt>
      <trkpt lat="47.76144" lon="-1.84172">
        <ele>78.1</ele>
      </trkpt>
      <trkpt lat="47.76141" lon="-1.84171">
        <ele>77.9</ele>
      </trkpt>
      <trkpt lat="47.76138" lon="-1.84171">
        <ele>77.8</ele>
      </trkpt>
      <trkpt lat="47.76135" lon="-1.84172">
        <ele>77.6</ele>
      </trkpt>
      <trkpt lat="47.76133" lon="-1.84172">
        <ele>77.6</ele>
      </trkpt>
      <trkpt lat="47.76132" lon="-1.84174">
        <ele>77.5</ele>
      </trkpt>
      <trkpt lat="47.7613" lon="-1.84176">
        <ele>77.5</ele>
      </trkpt>
      <trkpt lat="47.76128" lon="-1.84178">
        <ele>77.5</ele>
      </trkpt>
      <trkpt lat="47.76125" lon="-1.84181">
        <ele>77.5</ele>
      </trkpt>
      <trkpt lat="47.76124" lon="-1.84184">
        <ele>77.5</ele>
      </trkpt>
      <trkpt lat="47.76123" lon="-1.84187">
        <ele>77.5</ele>
      </trkpt>
      <trkpt lat="47.76121" lon="-1.84191">
        <ele>77.5</ele>
      </trkpt>
      <trkpt lat="47.76118" lon="-1.84195">
        <ele>77.5</ele>
      </trkpt>
      <trkpt lat="47.76114" lon="-1.84198">
        <ele>77.4</ele>
      </trkpt>
      <trkpt lat="47.76111" lon="-1.84198">
        <ele>77.2</ele>
      </trkpt>
      <trkpt lat="47.76107" lon="-1.84199">
        <ele>77</ele>
      </trkpt>
      <trkpt lat="47.76103" lon="-1.84197">
        <ele>76.8</ele>
      </trkpt>
      <trkpt lat="47.76099" lon="-1.84195">
        <ele>76.5</ele>
      </trkpt>
      <trkpt lat="47.76094" lon="-1.84195">
        <ele>76.2</ele>
      </trkpt>
      <trkpt lat="47.76089" lon="-1.84195">
        <ele>76</ele>
      </trkpt>
      <trkpt lat="47.76086" lon="-1.84195">
        <ele>75.8</ele>
      </trkpt>
      <trkpt lat="47.76081" lon="-1.84194">
        <ele>75.5</ele>
      </trkpt>
      <trkpt lat="47.76077" lon="-1.84192">
        <ele>75.2</ele>
      </trkpt>
      <trkpt lat="47.76074" lon="-1.8419">
        <ele>74.9</ele>
      </trkpt>
      <trkpt lat="47.76072" lon="-1.84187">
        <ele>74.7</ele>
      </trkpt>
      <trkpt lat="47.7607" lon="-1.84183">
        <ele>74.5</ele>
      </trkpt>
      <trkpt lat="47.76068" lon="-1.84179">
        <ele>74.4</ele>
      </trkpt>
      <trkpt lat="47.76065" lon="-1.84177">
        <ele>74.1</ele>
      </trkpt>
      <trkpt lat="47.76062" lon="-1.84176">
        <ele>73.9</ele>
      </trkpt>
      <trkpt lat="47.76059" lon="-1.84176">
        <ele>73.7</ele>
      </trkpt>
      <trkpt lat="47.76055" lon="-1.84175">
        <ele>73.4</ele>
      </trkpt>
      <trkpt lat="47.76051" lon="-1.84175">
        <ele>73.2</ele>
      </trkpt>
      <trkpt lat="47.76046" lon="-1.84175">
        <ele>72.9</ele>
      </trkpt>
      <trkpt lat="47.76042" lon="-1.84177">
        <ele>72.6</ele>
      </trkpt>
      <trkpt lat="47.76038" lon="-1.84178">
        <ele>72.4</ele>
      </trkpt>
      <trkpt lat="47.76033" lon="-1.84178">
        <ele>72.1</ele>
      </trkpt>
      <trkpt lat="47.76029" lon="-1.84176">
        <ele>71.8</ele>
      </trkpt>
      <trkpt lat="47.76024" lon="-1.84174">
        <ele>71.5</ele>
      </trkpt>
      <trkpt lat="47.76021" lon="-1.8417">
        <ele>71.3</ele>
      </trkpt>
      <trkpt lat="47.76019" lon="-1.84167">
        <ele>71.1</ele>
      </trkpt>
      <trkpt lat="47.76016" lon="-1.84163">
        <ele>70.8</ele>
      </trkpt>
      <trkpt lat="47.76012" lon="-1.84159">
        <ele>70.5</ele>
      </trkpt>
      <trkpt lat="47.76008" lon="-1.84155">
        <ele>70.2</ele>
      </trkpt>
      <trkpt lat="47.76004" lon="-1.84153">
        <ele>69.9</ele>
      </trkpt>
      <trkpt lat="47.76001" lon="-1.84151">
        <ele>69.7</ele>
      </trkpt>
      <trkpt lat="47.75997" lon="-1.84148">
        <ele>69.2</ele>
      </trkpt>
      <trkpt lat="47.75992" lon="-1.84144">
        <ele>68.7</ele>
      </trkpt>
      <trkpt lat="47.75986" lon="-1.8414">
        <ele>68</ele>
      </trkpt>
      <trkpt lat="47.75979" lon="-1.84138">
        <ele>67.3</ele>
      </trkpt>
      <trkpt lat="47.75971" lon="-1.84136">
        <ele>66.5</ele>
      </trkpt>
      <trkpt lat="47.75963" lon="-1.84133">
        <ele>65.7</ele>
      </trkpt>
      <trkpt lat="47.75957" lon="-1.84131">
        <ele>65</ele>
      </trkpt>
      <trkpt lat="47.75952" lon="-1.84131">
        <ele>64.6</ele>
      </trkpt>
      <trkpt lat="47.75949" lon="-1.84133">
        <ele>64.3</ele>
      </trkpt>
      <trkpt lat="47.75945" lon="-1.84136">
        <ele>64</ele>
      </trkpt>
      <trkpt lat="47.75942" lon="-1.84137">
        <ele>63.7</ele>
      </trkpt>
      <trkpt lat="47.75939" lon="-1.84137">
        <ele>63.4</ele>
      </trkpt>
      <trkpt lat="47.75936" lon="-1.84137">
        <ele>63.2</ele>
      </trkpt>
      <trkpt lat="47.75933" lon="-1.84134">
        <ele>62.7</ele>
      </trkpt>
      <trkpt lat="47.7593" lon="-1.84129">
        <ele>62.4</ele>
      </trkpt>
      <trkpt lat="47.75927" lon="-1.84122">
        <ele>61.9</ele>
      </trkpt>
      <trkpt lat="47.75925" lon="-1.84117">
        <ele>61.6</ele>
      </trkpt>
      <trkpt lat="47.75921" lon="-1.84112">
        <ele>61.1</ele>
      </trkpt>
      <trkpt lat="47.75916" lon="-1.84107">
        <ele>60.5</ele>
      </trkpt>
      <trkpt lat="47.75911" lon="-1.84102">
        <ele>59.8</ele>
      </trkpt>
      <trkpt lat="47.75906" lon="-1.84098">
        <ele>59</ele>
      </trkpt>
      <trkpt lat="47.75899" lon="-1.84093">
        <ele>58.1</ele>
      </trkpt>
      <trkpt lat="47.75895" lon="-1.84089">
        <ele>57.5</ele>
      </trkpt>
      <trkpt lat="47.75889" lon="-1.84083">
        <ele>56.7</ele>
      </trkpt>
      <trkpt lat="47.75884" lon="-1.84077">
        <ele>56.1</ele>
      </trkpt>
      <trkpt lat="47.75878" lon="-1.84069">
        <ele>55.5</ele>
      </trkpt>
      <trkpt lat="47.75872" lon="-1.84063">
        <ele>54.9</ele>
      </trkpt>
      <trkpt lat="47.75866" lon="-1.84059">
        <ele>54.3</ele>
      </trkpt>
      <trkpt lat="47.75859" lon="-1.84056">
        <ele>53.7</ele>
      </trkpt>
      <trkpt lat="47.75852" lon="-1.84054">
        <ele>53</ele>
      </trkpt>
      <trkpt lat="47.75845" lon="-1.84053">
        <ele>52.3</ele>
      </trkpt>
      <trkpt lat="47.75829" lon="-1.84052">
        <ele>50.8</ele>
      </trkpt>
      <trkpt lat="47.75825" lon="-1.84051">
        <ele>50.4</ele>
      </trkpt>
      <trkpt lat="47.75821" lon="-1.84051">
        <ele>50</ele>
      </trkpt>
      <trkpt lat="47.75812" lon="-1.84049">
        <ele>49.3</ele>
      </trkpt>
      <trkpt lat="47.75804" lon="-1.84046">
        <ele>48.5</ele>
      </trkpt>
      <trkpt lat="47.75798" lon="-1.84041">
        <ele>47.9</ele>
      </trkpt>
      <trkpt lat="47.75792" lon="-1.84035">
        <ele>47.3</ele>
      </trkpt>
      <trkpt lat="47.75788" lon="-1.84027">
        <ele>46.7</ele>
      </trkpt>
      <trkpt lat="47.75784" lon="-1.8402">
        <ele>46.2</ele>
      </trkpt>
      <trkpt lat="47.75782" lon="-1.84012">
        <ele>45.8</ele>
      </trkpt>
      <trkpt lat="47.75779" lon="-1.84004">
        <ele>45.3</ele>
      </trkpt>
      <trkpt lat="47.75776" lon="-1.83996">
        <ele>45.2</ele>
      </trkpt>
      <trkpt lat="47.75774" lon="-1.8399">
        <ele>45.3</ele>
      </trkpt>
      <trkpt lat="47.75772" lon="-1.83984">
        <ele>45.6</ele>
      </trkpt>
      <trkpt lat="47.75769" lon="-1.83978">
        <ele>45.8</ele>
      </trkpt>
      <trkpt lat="47.75766" lon="-1.83974">
        <ele>45.8</ele>
      </trkpt>
      <trkpt lat="47.7576" lon="-1.8397">
        <ele>45.5</ele>
      </trkpt>
      <trkpt lat="47.75757" lon="-1.83968">
        <ele>45.2</ele>
      </trkpt>
      <trkpt lat="47.75752" lon="-1.83964">
        <ele>45.1</ele>
      </trkpt>
      <trkpt lat="47.75747" lon="-1.83959">
        <ele>45.3</ele>
      </trkpt>
      <trkpt lat="47.75742" lon="-1.83955">
        <ele>45.4</ele>
      </trkpt>
      <trkpt lat="47.75738" lon="-1.83951">
        <ele>45.7</ele>
      </trkpt>
      <trkpt lat="47.75736" lon="-1.83946">
        <ele>46</ele>
      </trkpt>
      <trkpt lat="47.75732" lon="-1.83944">
        <ele>46</ele>
      </trkpt>
      <trkpt lat="47.75729" lon="-1.83942">
        <ele>45.9</ele>
      </trkpt>
      <trkpt lat="47.75726" lon="-1.83941">
        <ele>45.8</ele>
      </trkpt>
      <trkpt lat="47.75723" lon="-1.8394">
        <ele>45.8</ele>
      </trkpt>
      <trkpt lat="47.7572" lon="-1.83938">
        <ele>45.7</ele>
      </trkpt>
      <trkpt lat="47.75718" lon="-1.83936">
        <ele>45.7</ele>
      </trkpt>
      <trkpt lat="47.75716" lon="-1.83935">
        <ele>45.7</ele>
      </trkpt>
      <trkpt lat="47.75715" lon="-1.83934">
        <ele>45.7</ele>
      </trkpt>
      <trkpt lat="47.75714" lon="-1.83933">
        <ele>45.7</ele>
      </trkpt>
      <trkpt lat="47.75713" lon="-1.83932">
        <ele>45.7</ele>
      </trkpt>
      <trkpt lat="47.75711" lon="-1.83931">
        <ele>45.6</ele>
      </trkpt>
      <trkpt lat="47.75708" lon="-1.8393">
        <ele>45.5</ele>
      </trkpt>
      <trkpt lat="47.75705" lon="-1.83929">
        <ele>45.4</ele>
      </trkpt>
      <trkpt lat="47.75703" lon="-1.83927">
        <ele>45.4</ele>
      </trkpt>
      <trkpt lat="47.75701" lon="-1.83925">
        <ele>45.3</ele>
      </trkpt>
      <trkpt lat="47.75698" lon="-1.83924">
        <ele>45.2</ele>
      </trkpt>
      <trkpt lat="47.75695" lon="-1.83922">
        <ele>45</ele>
      </trkpt>
      <trkpt lat="47.75692" lon="-1.8392">
        <ele>44.9</ele>
      </trkpt>
      <trkpt lat="47.75689" lon="-1.83918">
        <ele>44.8</ele>
      </trkpt>
      <trkpt lat="47.75687" lon="-1.83917">
        <ele>44.7</ele>
      </trkpt>
      <trkpt lat="47.75685" lon="-1.83915">
        <ele>44.7</ele>
      </trkpt>
      <trkpt lat="47.75682" lon="-1.83914">
        <ele>44.6</ele>
      </trkpt>
      <trkpt lat="47.75679" lon="-1.83913">
        <ele>44.3</ele>
      </trkpt>
      <trkpt lat="47.75677" lon="-1.83913">
        <ele>44.2</ele>
      </trkpt>
      <trkpt lat="47.75673" lon="-1.83913">
        <ele>44</ele>
      </trkpt>
      <trkpt lat="47.7567" lon="-1.83912">
        <ele>43.8</ele>
      </trkpt>
      <trkpt lat="47.75666" lon="-1.8391">
        <ele>43.6</ele>
      </trkpt>
      <trkpt lat="47.75661" lon="-1.83909">
        <ele>43.3</ele>
      </trkpt>
      <trkpt lat="47.75658" lon="-1.83908">
        <ele>43.1</ele>
      </trkpt>
      <trkpt lat="47.75656" lon="-1.83906">
        <ele>43.1</ele>
      </trkpt>
      <trkpt lat="47.75655" lon="-1.83905">
        <ele>43.1</ele>
      </trkpt>
      <trkpt lat="47.75653" lon="-1.83902">
        <ele>43.2</ele>
      </trkpt>
      <trkpt lat="47.75651" lon="-1.83899">
        <ele>43.3</ele>
      </trkpt>
      <trkpt lat="47.7565" lon="-1.83896">
        <ele>43.6</ele>
      </trkpt>
      <trkpt lat="47.7565" lon="-1.83893">
        <ele>43.9</ele>
      </trkpt>
      <trkpt lat="47.75648" lon="-1.8389">
        <ele>44</ele>
      </trkpt>
      <trkpt lat="47.75646" lon="-1.83888">
        <ele>43.9</ele>
      </trkpt>
      <trkpt lat="47.75642" lon="-1.83886">
        <ele>43.8</ele>
      </trkpt>
      <trkpt lat="47.75641" lon="-1.83884">
        <ele>43.8</ele>
      </trkpt>
      <trkpt lat="47.75639" lon="-1.83882">
        <ele>43.8</ele>
      </trkpt>
      <trkpt lat="47.75635" lon="-1.83878">
        <ele>43.8</ele>
      </trkpt>
      <trkpt lat="47.75633" lon="-1.83876">
        <ele>43.8</ele>
      </trkpt>
      <trkpt lat="47.75631" lon="-1.83873">
        <ele>43.8</ele>
      </trkpt>
      <trkpt lat="47.75628" lon="-1.83871">
        <ele>43.6</ele>
      </trkpt>
      <trkpt lat="47.75624" lon="-1.83869">
        <ele>43.5</ele>
      </trkpt>
      <trkpt lat="47.75619" lon="-1.83866">
        <ele>43.2</ele>
      </trkpt>
      <trkpt lat="47.75615" lon="-1.83865">
        <ele>42.8</ele>
      </trkpt>
      <trkpt lat="47.75609" lon="-1.83865">
        <ele>42.3</ele>
      </trkpt>
      <trkpt lat="47.75606" lon="-1.83865">
        <ele>41.9</ele>
      </trkpt>
      <trkpt lat="47.75602" lon="-1.83865">
        <ele>41.4</ele>
      </trkpt>
      <trkpt lat="47.75596" lon="-1.83864">
        <ele>40.8</ele>
      </trkpt>
      <trkpt lat="47.75593" lon="-1.83862">
        <ele>40.6</ele>
      </trkpt>
      <trkpt lat="47.75584" lon="-1.83858">
        <ele>40</ele>
      </trkpt>
      <trkpt lat="47.75584" lon="-1.83858">
        <ele>40</ele>
      </trkpt>
      <trkpt lat="47.75581" lon="-1.83857">
        <ele>39.9</ele>
      </trkpt>
      <trkpt lat="47.75578" lon="-1.83856">
        <ele>39.9</ele>
      </trkpt>
      <trkpt lat="47.75574" lon="-1.83854">
        <ele>39.9</ele>
      </trkpt>
      <trkpt lat="47.75571" lon="-1.83853">
        <ele>39.9</ele>
      </trkpt>
      <trkpt lat="47.75569" lon="-1.83851">
        <ele>39.9</ele>
      </trkpt>
      <trkpt lat="47.75566" lon="-1.8385">
        <ele>39.9</ele>
      </trkpt>
      <trkpt lat="47.75562" lon="-1.83847">
        <ele>39.9</ele>
      </trkpt>
      <trkpt lat="47.7556" lon="-1.83846">
        <ele>40</ele>
      </trkpt>
      <trkpt lat="47.75556" lon="-1.83844">
        <ele>39.9</ele>
      </trkpt>
      <trkpt lat="47.75553" lon="-1.83842">
        <ele>39.9</ele>
      </trkpt>
      <trkpt lat="47.75549" lon="-1.83841">
        <ele>39.8</ele>
      </trkpt>
      <trkpt lat="47.75546" lon="-1.83839">
        <ele>39.8</ele>
      </trkpt>
      <trkpt lat="47.75542" lon="-1.83838">
        <ele>39.7</ele>
      </trkpt>
      <trkpt lat="47.75538" lon="-1.83835">
        <ele>39.7</ele>
      </trkpt>
      <trkpt lat="47.75535" lon="-1.83833">
        <ele>39.7</ele>
      </trkpt>
      <trkpt lat="47.75531" lon="-1.83831">
        <ele>39.7</ele>
      </trkpt>
      <trkpt lat="47.75527" lon="-1.8383">
        <ele>39.7</ele>
      </trkpt>
      <trkpt lat="47.75523" lon="-1.83831">
        <ele>39.4</ele>
      </trkpt>
      <trkpt lat="47.7552" lon="-1.83834">
        <ele>38.9</ele>
      </trkpt>
      <trkpt lat="47.75515" lon="-1.83836">
        <ele>38.6</ele>
      </trkpt>
      <trkpt lat="47.7551" lon="-1.83838">
        <ele>38.2</ele>
      </trkpt>
      <trkpt lat="47.75504" lon="-1.83838">
        <ele>38</ele>
      </trkpt>
      <trkpt lat="47.755" lon="-1.83836">
        <ele>37.9</ele>
      </trkpt>
      <trkpt lat="47.75495" lon="-1.83832">
        <ele>37.8</ele>
      </trkpt>
      <trkpt lat="47.7549" lon="-1.83828">
        <ele>37.8</ele>
      </trkpt>
      <trkpt lat="47.75487" lon="-1.83825">
        <ele>37.9</ele>
      </trkpt>
      <trkpt lat="47.75483" lon="-1.83822">
        <ele>37.9</ele>
      </trkpt>
      <trkpt lat="47.75479" lon="-1.83819">
        <ele>37.8</ele>
      </trkpt>
      <trkpt lat="47.75475" lon="-1.83817">
        <ele>37.8</ele>
      </trkpt>
      <trkpt lat="47.75471" lon="-1.83814">
        <ele>37.7</ele>
      </trkpt>
      <trkpt lat="47.75468" lon="-1.83812">
        <ele>37.7</ele>
      </trkpt>
      <trkpt lat="47.75465" lon="-1.8381">
        <ele>37.7</ele>
      </trkpt>
      <trkpt lat="47.75462" lon="-1.83809">
        <ele>37.6</ele>
      </trkpt>
      <trkpt lat="47.75457" lon="-1.83805">
        <ele>37.6</ele>
      </trkpt>
      <trkpt lat="47.75453" lon="-1.83802">
        <ele>37.5</ele>
      </trkpt>
      <trkpt lat="47.75448" lon="-1.83799">
        <ele>37.6</ele>
      </trkpt>
      <trkpt lat="47.75445" lon="-1.83796">
        <ele>37.6</ele>
      </trkpt>
      <trkpt lat="47.7544" lon="-1.83792">
        <ele>37.7</ele>
      </trkpt>
      <trkpt lat="47.75436" lon="-1.83788">
        <ele>37.7</ele>
      </trkpt>
      <trkpt lat="47.75432" lon="-1.83786">
        <ele>37.6</ele>
      </trkpt>
      <trkpt lat="47.75429" lon="-1.83784">
        <ele>37.6</ele>
      </trkpt>
      <trkpt lat="47.75427" lon="-1.83784">
        <ele>37.5</ele>
      </trkpt>
      <trkpt lat="47.75427" lon="-1.83784">
        <ele>37.5</ele>
      </trkpt>
      <trkpt lat="47.75425" lon="-1.83782">
        <ele>37.5</ele>
      </trkpt>
      <trkpt lat="47.75423" lon="-1.83781">
        <ele>37.5</ele>
      </trkpt>
      <trkpt lat="47.75421" lon="-1.83781">
        <ele>37.3</ele>
      </trkpt>
      <trkpt lat="47.75419" lon="-1.83781">
        <ele>37.2</ele>
      </trkpt>
      <trkpt lat="47.75417" lon="-1.83782">
        <ele>37</ele>
      </trkpt>
      <trkpt lat="47.75415" lon="-1.83782">
        <ele>36.8</ele>
      </trkpt>
      <trkpt lat="47.75412" lon="-1.83781">
        <ele>36.6</ele>
      </trkpt>
      <trkpt lat="47.75411" lon="-1.83781">
        <ele>36.5</ele>
      </trkpt>
      <trkpt lat="47.7541" lon="-1.83779">
        <ele>36.6</ele>
      </trkpt>
      <trkpt lat="47.7541" lon="-1.83779">
        <ele>36.6</ele>
      </trkpt>
      <trkpt lat="47.7541" lon="-1.83779">
        <ele>36.6</ele>
      </trkpt>
      <trkpt lat="47.7541" lon="-1.83779">
        <ele>36.6</ele>
      </trkpt>
      <trkpt lat="47.7541" lon="-1.83779">
        <ele>36.6</ele>
      </trkpt>
      <trkpt lat="47.7541" lon="-1.83779">
        <ele>36.6</ele>
      </trkpt>
      <trkpt lat="47.7541" lon="-1.83779">
        <ele>36.6</ele>
      </trkpt>
      <trkpt lat="47.7541" lon="-1.83779">
        <ele>36.6</ele>
      </trkpt>
      <trkpt lat="47.7541" lon="-1.83779">
        <ele>36.6</ele>
      </trkpt>
      <trkpt lat="47.7541" lon="-1.83779">
        <ele>36.6</ele>
      </trkpt>
      <trkpt lat="47.7541" lon="-1.83779">
        <ele>36.6</ele>
      </trkpt>
      <trkpt lat="47.7541" lon="-1.83779">
        <ele>36.6</ele>
      </trkpt>
      <trkpt lat="47.75411" lon="-1.8378">
        <ele>36.6</ele>
      </trkpt>
      <trkpt lat="47.75412" lon="-1.83781">
        <ele>36.6</ele>
      </trkpt>
      <trkpt lat="47.75413" lon="-1.83781">
        <ele>36.7</ele>
      </trkpt>
      <trkpt lat="47.75415" lon="-1.83781">
        <ele>36.8</ele>
      </trkpt>
      <trkpt lat="47.75416" lon="-1.83781">
        <ele>36.9</ele>
      </trkpt>
      <trkpt lat="47.75417" lon="-1.83781">
        <ele>37</ele>
      </trkpt>
      <trkpt lat="47.75418" lon="-1.83781">
        <ele>37.2</ele>
      </trkpt>
      <trkpt lat="47.75419" lon="-1.83779">
        <ele>37.4</ele>
      </trkpt>
      <trkpt lat="47.75419" lon="-1.83778">
        <ele>37.5</ele>
      </trkpt>
      <trkpt lat="47.75419" lon="-1.83776">
        <ele>37.7</ele>
      </trkpt>
      <trkpt lat="47.75419" lon="-1.83775">
        <ele>37.7</ele>
      </trkpt>
      <trkpt lat="47.75418" lon="-1.83773">
        <ele>37.9</ele>
      </trkpt>
      <trkpt lat="47.75418" lon="-1.83771">
        <ele>38.1</ele>
      </trkpt>
      <trkpt lat="47.75418" lon="-1.8377">
        <ele>38.2</ele>
      </trkpt>
      <trkpt lat="47.75418" lon="-1.83769">
        <ele>38.3</ele>
      </trkpt>
      <trkpt lat="47.75418" lon="-1.83767">
        <ele>38.5</ele>
      </trkpt>
      <trkpt lat="47.75417" lon="-1.83765">
        <ele>38.6</ele>
      </trkpt>
      <trkpt lat="47.75417" lon="-1.83763">
        <ele>38.7</ele>
      </trkpt>
      <trkpt lat="47.75417" lon="-1.83763">
        <ele>38.8</ele>
      </trkpt>
      <trkpt lat="47.75417" lon="-1.83763">
        <ele>38.8</ele>
      </trkpt>
      <trkpt lat="47.75417" lon="-1.83763">
        <ele>38.8</ele>
      </trkpt>
      <trkpt lat="47.75417" lon="-1.83763">
        <ele>38.8</ele>
      </trkpt>
      <trkpt lat="47.75417" lon="-1.83763">
        <ele>38.8</ele>
      </trkpt>
      <trkpt lat="47.75417" lon="-1.83763">
        <ele>38.8</ele>
      </trkpt>
      <trkpt lat="47.75417" lon="-1.83763">
        <ele>38.8</ele>
      </trkpt>
      <trkpt lat="47.75417" lon="-1.83763">
        <ele>38.8</ele>
      </trkpt>
      <trkpt lat="47.75417" lon="-1.83763">
        <ele>38.8</ele>
      </trkpt>
      <trkpt lat="47.75417" lon="-1.83763">
        <ele>38.8</ele>
      </trkpt>
      <trkpt lat="47.75417" lon="-1.83763">
        <ele>38.8</ele>
      </trkpt>
      <trkpt lat="47.75417" lon="-1.83763">
        <ele>38.8</ele>
      </trkpt>
      <trkpt lat="47.75417" lon="-1.83763">
        <ele>38.8</ele>
      </trkpt>
      <trkpt lat="47.75417" lon="-1.83763">
        <ele>38.8</ele>
      </trkpt>
      <trkpt lat="47.75417" lon="-1.83763">
        <ele>38.8</ele>
      </trkpt>
      <trkpt lat="47.75417" lon="-1.8376">
        <ele>39.1</ele>
      </trkpt>
      <trkpt lat="47.75417" lon="-1.83757">
        <ele>39.3</ele>
      </trkpt>
      <trkpt lat="47.75418" lon="-1.83755">
        <ele>39.6</ele>
      </trkpt>
      <trkpt lat="47.75418" lon="-1.83754">
        <ele>39.8</ele>
      </trkpt>
      <trkpt lat="47.75419" lon="-1.83752">
        <ele>39.9</ele>
      </trkpt>
      <trkpt lat="47.75419" lon="-1.83751">
        <ele>40.1</ele>
      </trkpt>
      <trkpt lat="47.75419" lon="-1.83749">
        <ele>40.3</ele>
      </trkpt>
      <trkpt lat="47.7542" lon="-1.83748">
        <ele>40.6</ele>
      </trkpt>
      <trkpt lat="47.7542" lon="-1.83745">
        <ele>40.9</ele>
      </trkpt>
      <trkpt lat="47.7542" lon="-1.83745">
        <ele>41</ele>
      </trkpt>
      <trkpt lat="47.7542" lon="-1.83745">
        <ele>41</ele>
      </trkpt>
      <trkpt lat="47.7542" lon="-1.83745">
        <ele>41</ele>
      </trkpt>
      <trkpt lat="47.7542" lon="-1.83745">
        <ele>41</ele>
      </trkpt>
      <trkpt lat="47.7542" lon="-1.83745">
        <ele>41</ele>
      </trkpt>
      <trkpt lat="47.7542" lon="-1.83745">
        <ele>41</ele>
      </trkpt>
      <trkpt lat="47.7542" lon="-1.83745">
        <ele>41</ele>
      </trkpt>
      <trkpt lat="47.7542" lon="-1.83745">
        <ele>41</ele>
      </trkpt>
      <trkpt lat="47.7542" lon="-1.83745">
        <ele>41</ele>
      </trkpt>
      <trkpt lat="47.75421" lon="-1.83744">
        <ele>41.1</ele>
      </trkpt>
      <trkpt lat="47.75421" lon="-1.83743">
        <ele>41.3</ele>
      </trkpt>
      <trkpt lat="47.75422" lon="-1.83741">
        <ele>41.6</ele>
      </trkpt>
      <trkpt lat="47.75422" lon="-1.83739">
        <ele>42</ele>
      </trkpt>
      <trkpt lat="47.75423" lon="-1.83737">
        <ele>42.3</ele>
      </trkpt>
      <trkpt lat="47.75422" lon="-1.83735">
        <ele>42.5</ele>
      </trkpt>
      <trkpt lat="47.75422" lon="-1.83735">
        <ele>42.4</ele>
      </trkpt>
      <trkpt lat="47.7542" lon="-1.83734">
        <ele>42.5</ele>
      </trkpt>
      <trkpt lat="47.75418" lon="-1.83732">
        <ele>42.7</ele>
      </trkpt>
      <trkpt lat="47.75415" lon="-1.8373">
        <ele>42.6</ele>
      </trkpt>
      <trkpt lat="47.75413" lon="-1.8373">
        <ele>42.2</ele>
      </trkpt>
      <trkpt lat="47.7541" lon="-1.83731">
        <ele>41.8</ele>
      </trkpt>
      <trkpt lat="47.75408" lon="-1.83732">
        <ele>41.3</ele>
      </trkpt>
      <trkpt lat="47.75405" lon="-1.83733">
        <ele>40.9</ele>
      </trkpt>
      <trkpt lat="47.75402" lon="-1.83732">
        <ele>40.5</ele>
      </trkpt>
      <trkpt lat="47.75399" lon="-1.8373">
        <ele>40.4</ele>
      </trkpt>
      <trkpt lat="47.75396" lon="-1.83726">
        <ele>40.5</ele>
      </trkpt>
      <trkpt lat="47.75394" lon="-1.83723">
        <ele>40.6</ele>
      </trkpt>
      <trkpt lat="47.75392" lon="-1.8372">
        <ele>40.8</ele>
      </trkpt>
      <trkpt lat="47.75391" lon="-1.83717">
        <ele>41</ele>
      </trkpt>
      <trkpt lat="47.75389" lon="-1.83715">
        <ele>41.1</ele>
      </trkpt>
      <trkpt lat="47.75388" lon="-1.83713">
        <ele>41.2</ele>
      </trkpt>
      <trkpt lat="47.75387" lon="-1.83711">
        <ele>41.4</ele>
      </trkpt>
      <trkpt lat="47.75386" lon="-1.83709">
        <ele>41.5</ele>
      </trkpt>
      <trkpt lat="47.75386" lon="-1.83707">
        <ele>41.8</ele>
      </trkpt>
      <trkpt lat="47.75386" lon="-1.83705">
        <ele>42</ele>
      </trkpt>
      <trkpt lat="47.75386" lon="-1.83704">
        <ele>42.3</ele>
      </trkpt>
      <trkpt lat="47.75386" lon="-1.83702">
        <ele>42.5</ele>
      </trkpt>
      <trkpt lat="47.75386" lon="-1.837">
        <ele>42.8</ele>
      </trkpt>
      <trkpt lat="47.75387" lon="-1.83698">
        <ele>43.2</ele>
      </trkpt>
      <trkpt lat="47.75387" lon="-1.83697">
        <ele>43.4</ele>
      </trkpt>
      <trkpt lat="47.75387" lon="-1.83695">
        <ele>43.6</ele>
      </trkpt>
      <trkpt lat="47.75387" lon="-1.83693">
        <ele>43.9</ele>
      </trkpt>
      <trkpt lat="47.75387" lon="-1.83692">
        <ele>44.2</ele>
      </trkpt>
      <trkpt lat="47.75387" lon="-1.8369">
        <ele>44.4</ele>
      </trkpt>
      <trkpt lat="47.75387" lon="-1.83689">
        <ele>44.6</ele>
      </trkpt>
      <trkpt lat="47.75386" lon="-1.83687">
        <ele>44.7</ele>
      </trkpt>
      <trkpt lat="47.75386" lon="-1.83687">
        <ele>44.6</ele>
      </trkpt>
      <trkpt lat="47.75384" lon="-1.83686">
        <ele>44.5</ele>
      </trkpt>
      <trkpt lat="47.75382" lon="-1.83684">
        <ele>44.4</ele>
      </trkpt>
      <trkpt lat="47.75381" lon="-1.83683">
        <ele>44.5</ele>
      </trkpt>
      <trkpt lat="47.7538" lon="-1.83681">
        <ele>44.7</ele>
      </trkpt>
      <trkpt lat="47.7538" lon="-1.8368">
        <ele>44.8</ele>
      </trkpt>
      <trkpt lat="47.75379" lon="-1.83678">
        <ele>45</ele>
      </trkpt>
      <trkpt lat="47.75378" lon="-1.83675">
        <ele>45.1</ele>
      </trkpt>
      <trkpt lat="47.75376" lon="-1.83673">
        <ele>45.2</ele>
      </trkpt>
      <trkpt lat="47.75375" lon="-1.83672">
        <ele>45.3</ele>
      </trkpt>
      <trkpt lat="47.75373" lon="-1.8367">
        <ele>45.3</ele>
      </trkpt>
      <trkpt lat="47.75371" lon="-1.83669">
        <ele>45.1</ele>
      </trkpt>
      <trkpt lat="47.75368" lon="-1.83667">
        <ele>44.9</ele>
      </trkpt>
      <trkpt lat="47.75365" lon="-1.83665">
        <ele>44.8</ele>
      </trkpt>
      <trkpt lat="47.75363" lon="-1.83664">
        <ele>44.7</ele>
      </trkpt>
      <trkpt lat="47.75362" lon="-1.83662">
        <ele>44.9</ele>
      </trkpt>
      <trkpt lat="47.75361" lon="-1.8366">
        <ele>45</ele>
      </trkpt>
      <trkpt lat="47.7536" lon="-1.83658">
        <ele>45</ele>
      </trkpt>
      <trkpt lat="47.75359" lon="-1.83657">
        <ele>45</ele>
      </trkpt>
      <trkpt lat="47.75358" lon="-1.83656">
        <ele>45</ele>
      </trkpt>
      <trkpt lat="47.75356" lon="-1.83654">
        <ele>45</ele>
      </trkpt>
      <trkpt lat="47.75354" lon="-1.83652">
        <ele>45</ele>
      </trkpt>
      <trkpt lat="47.75352" lon="-1.83649">
        <ele>45.1</ele>
      </trkpt>
      <trkpt lat="47.75349" lon="-1.83648">
        <ele>44.9</ele>
      </trkpt>
      <trkpt lat="47.75347" lon="-1.83646">
        <ele>44.7</ele>
      </trkpt>
      <trkpt lat="47.75344" lon="-1.83646">
        <ele>44.4</ele>
      </trkpt>
      <trkpt lat="47.75341" lon="-1.83645">
        <ele>44</ele>
      </trkpt>
      <trkpt lat="47.75339" lon="-1.83645">
        <ele>43.7</ele>
      </trkpt>
      <trkpt lat="47.75336" lon="-1.83646">
        <ele>43.1</ele>
      </trkpt>
      <trkpt lat="47.75333" lon="-1.83646">
        <ele>42.6</ele>
      </trkpt>
      <trkpt lat="47.7533" lon="-1.83646">
        <ele>42.2</ele>
      </trkpt>
      <trkpt lat="47.75328" lon="-1.83646">
        <ele>41.7</ele>
      </trkpt>
      <trkpt lat="47.75326" lon="-1.83648">
        <ele>41.1</ele>
      </trkpt>
      <trkpt lat="47.75324" lon="-1.8365">
        <ele>40.6</ele>
      </trkpt>
      <trkpt lat="47.75322" lon="-1.8365">
        <ele>40.1</ele>
      </trkpt>
      <trkpt lat="47.75319" lon="-1.83651">
        <ele>39.5</ele>
      </trkpt>
      <trkpt lat="47.75318" lon="-1.83653">
        <ele>39.1</ele>
      </trkpt>
      <trkpt lat="47.75318" lon="-1.83655">
        <ele>38.8</ele>
      </trkpt>
      <trkpt lat="47.75318" lon="-1.83659">
        <ele>38.5</ele>
      </trkpt>
      <trkpt lat="47.75318" lon="-1.83662">
        <ele>38.1</ele>
      </trkpt>
      <trkpt lat="47.75318" lon="-1.83666">
        <ele>37.8</ele>
      </trkpt>
      <trkpt lat="47.7532" lon="-1.83669">
        <ele>37.6</ele>
      </trkpt>
      <trkpt lat="47.7532" lon="-1.8367">
        <ele>37.6</ele>
      </trkpt>
      <trkpt lat="47.7532" lon="-1.8367">
        <ele>37.6</ele>
      </trkpt>
      <trkpt lat="47.7532" lon="-1.83669">
        <ele>37.6</ele>
      </trkpt>
      <trkpt lat="47.75318" lon="-1.83668">
        <ele>37.4</ele>
      </trkpt>
      <trkpt lat="47.75316" lon="-1.83667">
        <ele>37.3</ele>
      </trkpt>
      <trkpt lat="47.75314" lon="-1.83666">
        <ele>37.1</ele>
      </trkpt>
      <trkpt lat="47.75313" lon="-1.83665">
        <ele>36.9</ele>
      </trkpt>
      <trkpt lat="47.75309" lon="-1.83663">
        <ele>36.6</ele>
      </trkpt>
      <trkpt lat="47.75305" lon="-1.83661">
        <ele>36.1</ele>
      </trkpt>
      <trkpt lat="47.75303" lon="-1.8366">
        <ele>35.8</ele>
      </trkpt>
      <trkpt lat="47.75301" lon="-1.8366">
        <ele>35.6</ele>
      </trkpt>
      <trkpt lat="47.75299" lon="-1.83658">
        <ele>35.4</ele>
      </trkpt>
      <trkpt lat="47.75298" lon="-1.83657">
        <ele>35.3</ele>
      </trkpt>
      <trkpt lat="47.75297" lon="-1.83656">
        <ele>35.3</ele>
      </trkpt>
      <trkpt lat="47.75297" lon="-1.83654">
        <ele>35.3</ele>
      </trkpt>
      <trkpt lat="47.75297" lon="-1.83652">
        <ele>35.4</ele>
      </trkpt>
      <trkpt lat="47.75296" lon="-1.8365">
        <ele>35.5</ele>
      </trkpt>
      <trkpt lat="47.75295" lon="-1.83648">
        <ele>35.5</ele>
      </trkpt>
      <trkpt lat="47.75294" lon="-1.83646">
        <ele>35.4</ele>
      </trkpt>
      <trkpt lat="47.75294" lon="-1.83644">
        <ele>35.6</ele>
      </trkpt>
      <trkpt lat="47.75294" lon="-1.83642">
        <ele>35.6</ele>
      </trkpt>
      <trkpt lat="47.75291" lon="-1.8364">
        <ele>35.3</ele>
      </trkpt>
      <trkpt lat="47.75289" lon="-1.83638">
        <ele>35</ele>
      </trkpt>
      <trkpt lat="47.75286" lon="-1.83636">
        <ele>34.6</ele>
      </trkpt>
      <trkpt lat="47.75284" lon="-1.83632">
        <ele>34.5</ele>
      </trkpt>
      <trkpt lat="47.75284" lon="-1.8363">
        <ele>34.5</ele>
      </trkpt>
      <trkpt lat="47.75283" lon="-1.83627">
        <ele>34.5</ele>
      </trkpt>
      <trkpt lat="47.75282" lon="-1.83625">
        <ele>34.4</ele>
      </trkpt>
      <trkpt lat="47.75281" lon="-1.83622">
        <ele>34.4</ele>
      </trkpt>
      <trkpt lat="47.75281" lon="-1.8362">
        <ele>34.4</ele>
      </trkpt>
      <trkpt lat="47.7528" lon="-1.83618">
        <ele>34.3</ele>
      </trkpt>
      <trkpt lat="47.75276" lon="-1.83615">
        <ele>33.7</ele>
      </trkpt>
      <trkpt lat="47.75272" lon="-1.83611">
        <ele>32.8</ele>
      </trkpt>
      <trkpt lat="47.75268" lon="-1.83607">
        <ele>32.1</ele>
      </trkpt>
      <trkpt lat="47.75265" lon="-1.83603">
        <ele>31.4</ele>
      </trkpt>
      <trkpt lat="47.75263" lon="-1.836">
        <ele>31</ele>
      </trkpt>
      <trkpt lat="47.75259" lon="-1.83597">
        <ele>30.2</ele>
      </trkpt>
      <trkpt lat="47.75256" lon="-1.83594">
        <ele>29.5</ele>
      </trkpt>
      <trkpt lat="47.75252" lon="-1.8359">
        <ele>28.5</ele>
      </trkpt>
      <trkpt lat="47.75249" lon="-1.83586">
        <ele>27.9</ele>
      </trkpt>
      <trkpt lat="47.75248" lon="-1.83583">
        <ele>27.8</ele>
      </trkpt>
      <trkpt lat="47.75246" lon="-1.83579">
        <ele>27.6</ele>
      </trkpt>
      <trkpt lat="47.75245" lon="-1.83576">
        <ele>27.5</ele>
      </trkpt>
      <trkpt lat="47.75243" lon="-1.83573">
        <ele>27.4</ele>
      </trkpt>
      <trkpt lat="47.75242" lon="-1.83571">
        <ele>27.4</ele>
      </trkpt>
      <trkpt lat="47.75241" lon="-1.83568">
        <ele>27.3</ele>
      </trkpt>
      <trkpt lat="47.75239" lon="-1.83565">
        <ele>27.1</ele>
      </trkpt>
      <trkpt lat="47.75237" lon="-1.83561">
        <ele>27</ele>
      </trkpt>
      <trkpt lat="47.75235" lon="-1.83556">
        <ele>26.9</ele>
      </trkpt>
      <trkpt lat="47.75233" lon="-1.83551">
        <ele>26.7</ele>
      </trkpt>
      <trkpt lat="47.7523" lon="-1.83545">
        <ele>26.5</ele>
      </trkpt>
      <trkpt lat="47.75228" lon="-1.83539">
        <ele>26.3</ele>
      </trkpt>
      <trkpt lat="47.75225" lon="-1.83531">
        <ele>26.1</ele>
      </trkpt>
      <trkpt lat="47.75221" lon="-1.8352">
        <ele>25.7</ele>
      </trkpt>
      <trkpt lat="47.75217" lon="-1.83511">
        <ele>25.3</ele>
      </trkpt>
      <trkpt lat="47.75212" lon="-1.835">
        <ele>24.6</ele>
      </trkpt>
      <trkpt lat="47.75208" lon="-1.83492">
        <ele>23.7</ele>
      </trkpt>
      <trkpt lat="47.75202" lon="-1.83484">
        <ele>22.6</ele>
      </trkpt>
      <trkpt lat="47.75196" lon="-1.83475">
        <ele>21.4</ele>
      </trkpt>
      <trkpt lat="47.7519" lon="-1.83467">
        <ele>20.2</ele>
      </trkpt>
      <trkpt lat="47.75183" lon="-1.83459">
        <ele>19.1</ele>
      </trkpt>
      <trkpt lat="47.75177" lon="-1.83451">
        <ele>18</ele>
      </trkpt>
      <trkpt lat="47.75171" lon="-1.83443">
        <ele>16.9</ele>
      </trkpt>
      <trkpt lat="47.75165" lon="-1.83437">
        <ele>16.2</ele>
      </trkpt>
      <trkpt lat="47.75159" lon="-1.83429">
        <ele>15.7</ele>
      </trkpt>
      <trkpt lat="47.75153" lon="-1.83421">
        <ele>15.2</ele>
      </trkpt>
      <trkpt lat="47.75149" lon="-1.83415">
        <ele>15</ele>
      </trkpt>
      <trkpt lat="47.75144" lon="-1.83408">
        <ele>14.7</ele>
      </trkpt>
      <trkpt lat="47.75139" lon="-1.834">
        <ele>14.3</ele>
      </trkpt>
      <trkpt lat="47.75134" lon="-1.83395">
        <ele>14.1</ele>
      </trkpt>
      <trkpt lat="47.75129" lon="-1.83389">
        <ele>13.7</ele>
      </trkpt>
      <trkpt lat="47.75123" lon="-1.83382">
        <ele>13.4</ele>
      </trkpt>
      <trkpt lat="47.75119" lon="-1.83376">
        <ele>13.1</ele>
      </trkpt>
      <trkpt lat="47.75114" lon="-1.8337">
        <ele>12.8</ele>
      </trkpt>
      <trkpt lat="47.75108" lon="-1.83363">
        <ele>12.5</ele>
      </trkpt>
      <trkpt lat="47.75104" lon="-1.83357">
        <ele>12.2</ele>
      </trkpt>
      <trkpt lat="47.751" lon="-1.83352">
        <ele>12</ele>
      </trkpt>
      <trkpt lat="47.75095" lon="-1.83346">
        <ele>11.7</ele>
      </trkpt>
      <trkpt lat="47.7509" lon="-1.83339">
        <ele>11.4</ele>
      </trkpt>
      <trkpt lat="47.75085" lon="-1.83333">
        <ele>11.1</ele>
      </trkpt>
      <trkpt lat="47.75081" lon="-1.83328">
        <ele>10.9</ele>
      </trkpt>
      <trkpt lat="47.75076" lon="-1.83325">
        <ele>10.7</ele>
      </trkpt>
      <trkpt lat="47.75071" lon="-1.83323">
        <ele>10.5</ele>
      </trkpt>
      <trkpt lat="47.75065" lon="-1.83324">
        <ele>10.3</ele>
      </trkpt>
      <trkpt lat="47.75061" lon="-1.83329">
        <ele>10.2</ele>
      </trkpt>
      <trkpt lat="47.75058" lon="-1.83335">
        <ele>10.1</ele>
      </trkpt>
      <trkpt lat="47.75056" lon="-1.8334">
        <ele>10</ele>
      </trkpt>
      <trkpt lat="47.75053" lon="-1.83347">
        <ele>10</ele>
      </trkpt>
      <trkpt lat="47.75051" lon="-1.83354">
        <ele>9.9</ele>
      </trkpt>
      <trkpt lat="47.75048" lon="-1.83363">
        <ele>9.9</ele>
      </trkpt>
      <trkpt lat="47.75047" lon="-1.83369">
        <ele>9.9</ele>
      </trkpt>
      <trkpt lat="47.75044" lon="-1.83377">
        <ele>9.8</ele>
      </trkpt>
      <trkpt lat="47.75042" lon="-1.83385">
        <ele>9.8</ele>
      </trkpt>
      <trkpt lat="47.7504" lon="-1.83393">
        <ele>9.8</ele>
      </trkpt>
      <trkpt lat="47.75037" lon="-1.834">
        <ele>9.8</ele>
      </trkpt>
      <trkpt lat="47.75035" lon="-1.83408">
        <ele>9.8</ele>
      </trkpt>
      <trkpt lat="47.75033" lon="-1.83415">
        <ele>9.8</ele>
      </trkpt>
      <trkpt lat="47.75031" lon="-1.83421">
        <ele>9.9</ele>
      </trkpt>
      <trkpt lat="47.75029" lon="-1.83428">
        <ele>10.1</ele>
      </trkpt>
      <trkpt lat="47.75027" lon="-1.83435">
        <ele>10.2</ele>
      </trkpt>
      <trkpt lat="47.75025" lon="-1.83442">
        <ele>10.4</ele>
      </trkpt>
      <trkpt lat="47.75022" lon="-1.8345">
        <ele>10.6</ele>
      </trkpt>
      <trkpt lat="47.7502" lon="-1.83457">
        <ele>10.8</ele>
      </trkpt>
      <trkpt lat="47.75017" lon="-1.83464">
        <ele>11</ele>
      </trkpt>
      <trkpt lat="47.75015" lon="-1.83472">
        <ele>11.2</ele>
      </trkpt>
      <trkpt lat="47.75011" lon="-1.83479">
        <ele>11.4</ele>
      </trkpt>
      <trkpt lat="47.75008" lon="-1.83486">
        <ele>11.6</ele>
      </trkpt>
      <trkpt lat="47.75005" lon="-1.83493">
        <ele>11.8</ele>
      </trkpt>
      <trkpt lat="47.75002" lon="-1.835">
        <ele>12</ele>
      </trkpt>
      <trkpt lat="47.74998" lon="-1.83506">
        <ele>12.2</ele>
      </trkpt>
      <trkpt lat="47.74995" lon="-1.83511">
        <ele>12.3</ele>
      </trkpt>
      <trkpt lat="47.74991" lon="-1.83517">
        <ele>12.4</ele>
      </trkpt>
      <trkpt lat="47.74987" lon="-1.83522">
        <ele>12.5</ele>
      </trkpt>
      <trkpt lat="47.74982" lon="-1.83527">
        <ele>12.6</ele>
      </trkpt>
      <trkpt lat="47.74978" lon="-1.83531">
        <ele>12.7</ele>
      </trkpt>
      <trkpt lat="47.74973" lon="-1.83536">
        <ele>12.7</ele>
      </trkpt>
      <trkpt lat="47.74968" lon="-1.83542">
        <ele>12.7</ele>
      </trkpt>
      <trkpt lat="47.74964" lon="-1.83545">
        <ele>12.7</ele>
      </trkpt>
      <trkpt lat="47.7496" lon="-1.8355">
        <ele>12.7</ele>
      </trkpt>
      <trkpt lat="47.74955" lon="-1.83555">
        <ele>12.7</ele>
      </trkpt>
      <trkpt lat="47.74951" lon="-1.83559">
        <ele>12.7</ele>
      </trkpt>
      <trkpt lat="47.74946" lon="-1.83565">
        <ele>12.7</ele>
      </trkpt>
      <trkpt lat="47.74942" lon="-1.83568">
        <ele>12.6</ele>
      </trkpt>
      <trkpt lat="47.74938" lon="-1.83573">
        <ele>12.6</ele>
      </trkpt>
      <trkpt lat="47.74933" lon="-1.83577">
        <ele>12.5</ele>
      </trkpt>
      <trkpt lat="47.74928" lon="-1.83583">
        <ele>12.4</ele>
      </trkpt>
      <trkpt lat="47.74923" lon="-1.83588">
        <ele>12.2</ele>
      </trkpt>
      <trkpt lat="47.7492" lon="-1.83592">
        <ele>12.1</ele>
      </trkpt>
      <trkpt lat="47.74916" lon="-1.83597">
        <ele>12</ele>
      </trkpt>
      <trkpt lat="47.74911" lon="-1.83602">
        <ele>11.8</ele>
      </trkpt>
      <trkpt lat="47.74907" lon="-1.83608">
        <ele>11.6</ele>
      </trkpt>
      <trkpt lat="47.74902" lon="-1.83615">
        <ele>11.4</ele>
      </trkpt>
      <trkpt lat="47.74899" lon="-1.8362">
        <ele>11.3</ele>
      </trkpt>
      <trkpt lat="47.74895" lon="-1.83627">
        <ele>11.1</ele>
      </trkpt>
      <trkpt lat="47.74891" lon="-1.83634">
        <ele>11</ele>
      </trkpt>
      <trkpt lat="47.74887" lon="-1.83641">
        <ele>10.8</ele>
      </trkpt>
      <trkpt lat="47.74884" lon="-1.83649">
        <ele>10.7</ele>
      </trkpt>
      <trkpt lat="47.74881" lon="-1.83656">
        <ele>10.7</ele>
      </trkpt>
      <trkpt lat="47.74878" lon="-1.83663">
        <ele>10.6</ele>
      </trkpt>
      <trkpt lat="47.74874" lon="-1.8367">
        <ele>10.6</ele>
      </trkpt>
      <trkpt lat="47.74871" lon="-1.83677">
        <ele>10.7</ele>
      </trkpt>
      <trkpt lat="47.74868" lon="-1.83684">
        <ele>10.8</ele>
      </trkpt>
      <trkpt lat="47.74865" lon="-1.8369">
        <ele>10.8</ele>
      </trkpt>
      <trkpt lat="47.74862" lon="-1.83698">
        <ele>10.9</ele>
      </trkpt>
      <trkpt lat="47.74859" lon="-1.83705">
        <ele>11</ele>
      </trkpt>
      <trkpt lat="47.74856" lon="-1.83712">
        <ele>11.1</ele>
      </trkpt>
      <trkpt lat="47.74854" lon="-1.8372">
        <ele>11.2</ele>
      </trkpt>
      <trkpt lat="47.74851" lon="-1.83728">
        <ele>11.3</ele>
      </trkpt>
      <trkpt lat="47.7485" lon="-1.83736">
        <ele>11.4</ele>
      </trkpt>
      <trkpt lat="47.74848" lon="-1.83744">
        <ele>11.5</ele>
      </trkpt>
      <trkpt lat="47.74848" lon="-1.83752">
        <ele>11.8</ele>
      </trkpt>
      <trkpt lat="47.74848" lon="-1.8376">
        <ele>12</ele>
      </trkpt>
      <trkpt lat="47.74848" lon="-1.83767">
        <ele>12.2</ele>
      </trkpt>
      <trkpt lat="47.74849" lon="-1.83773">
        <ele>12.5</ele>
      </trkpt>
      <trkpt lat="47.7485" lon="-1.83778">
        <ele>12.7</ele>
      </trkpt>
      <trkpt lat="47.74851" lon="-1.83785">
        <ele>12.9</ele>
      </trkpt>
      <trkpt lat="47.74853" lon="-1.8379">
        <ele>13.1</ele>
      </trkpt>
      <trkpt lat="47.74854" lon="-1.83795">
        <ele>13.3</ele>
      </trkpt>
      <trkpt lat="47.74855" lon="-1.838">
        <ele>13.5</ele>
      </trkpt>
      <trkpt lat="47.74855" lon="-1.83806">
        <ele>13.7</ele>
      </trkpt>
      <trkpt lat="47.74857" lon="-1.83814">
        <ele>14</ele>
      </trkpt>
      <trkpt lat="47.74858" lon="-1.8382">
        <ele>14.2</ele>
      </trkpt>
      <trkpt lat="47.74859" lon="-1.83826">
        <ele>14.4</ele>
      </trkpt>
      <trkpt lat="47.7486" lon="-1.83831">
        <ele>14.6</ele>
      </trkpt>
      <trkpt lat="47.74865" lon="-1.83828">
        <ele>14.6</ele>
      </trkpt>
      <trkpt lat="47.74869" lon="-1.83829">
        <ele>14.7</ele>
      </trkpt>
      <trkpt lat="47.74872" lon="-1.83829">
        <ele>14.8</ele>
      </trkpt>
      <trkpt lat="47.74874" lon="-1.83829">
        <ele>14.9</ele>
      </trkpt>
      <trkpt lat="47.74877" lon="-1.83828">
        <ele>14.9</ele>
      </trkpt>
      <trkpt lat="47.74879" lon="-1.83827">
        <ele>14.9</ele>
      </trkpt>
      <trkpt lat="47.74879" lon="-1.83826">
        <ele>14.9</ele>
      </trkpt>
      <trkpt lat="47.74879" lon="-1.83826">
        <ele>14.9</ele>
      </trkpt>
      <trkpt lat="47.74879" lon="-1.83826">
        <ele>14.9</ele>
      </trkpt>
      <trkpt lat="47.74879" lon="-1.83826">
        <ele>14.9</ele>
      </trkpt>
      <trkpt lat="47.74879" lon="-1.83826">
        <ele>14.9</ele>
      </trkpt>
      <trkpt lat="47.74879" lon="-1.83826">
        <ele>14.9</ele>
      </trkpt>
      <trkpt lat="47.74879" lon="-1.83826">
        <ele>14.9</ele>
      </trkpt>
      <trkpt lat="47.74879" lon="-1.83826">
        <ele>14.9</ele>
      </trkpt>
      <trkpt lat="47.74879" lon="-1.83826">
        <ele>14.9</ele>
      </trkpt>
      <trkpt lat="47.74879" lon="-1.83826">
        <ele>14.9</ele>
      </trkpt>
      <trkpt lat="47.74879" lon="-1.83826">
        <ele>14.9</ele>
      </trkpt>
      <trkpt lat="47.74879" lon="-1.83826">
        <ele>14.9</ele>
      </trkpt>
      <trkpt lat="47.74879" lon="-1.83826">
        <ele>14.9</ele>
      </trkpt>
      <trkpt lat="47.74879" lon="-1.83826">
        <ele>14.9</ele>
      </trkpt>
      <trkpt lat="47.74879" lon="-1.83826">
        <ele>14.9</ele>
      </trkpt>
      <trkpt lat="47.74879" lon="-1.83826">
        <ele>14.9</ele>
      </trkpt>
      <trkpt lat="47.74879" lon="-1.83826">
        <ele>14.9</ele>
      </trkpt>
      <trkpt lat="47.74879" lon="-1.83826">
        <ele>14.9</ele>
      </trkpt>
      <trkpt lat="47.74879" lon="-1.83826">
        <ele>14.9</ele>
      </trkpt>
      <trkpt lat="47.74879" lon="-1.83826">
        <ele>14.9</ele>
      </trkpt>
      <trkpt lat="47.74879" lon="-1.83826">
        <ele>14.9</ele>
      </trkpt>
      <trkpt lat="47.74879" lon="-1.83826">
        <ele>14.9</ele>
      </trkpt>
      <trkpt lat="47.74879" lon="-1.83826">
        <ele>14.9</ele>
      </trkpt>
      <trkpt lat="47.74879" lon="-1.83826">
        <ele>14.9</ele>
      </trkpt>
      <trkpt lat="47.74879" lon="-1.83826">
        <ele>14.9</ele>
      </trkpt>
      <trkpt lat="47.74879" lon="-1.83826">
        <ele>14.9</ele>
      </trkpt>
      <trkpt lat="47.74879" lon="-1.83826">
        <ele>14.9</ele>
      </trkpt>
      <trkpt lat="47.74879" lon="-1.83826">
        <ele>14.9</ele>
      </trkpt>
      <trkpt lat="47.74879" lon="-1.83826">
        <ele>14.9</ele>
      </trkpt>
      <trkpt lat="47.74879" lon="-1.83826">
        <ele>14.9</ele>
      </trkpt>
      <trkpt lat="47.74879" lon="-1.83826">
        <ele>14.9</ele>
      </trkpt>
      <trkpt lat="47.74879" lon="-1.83826">
        <ele>14.9</ele>
      </trkpt>
      <trkpt lat="47.74879" lon="-1.83826">
        <ele>14.9</ele>
      </trkpt>
      <trkpt lat="47.74879" lon="-1.83826">
        <ele>14.9</ele>
      </trkpt>
      <trkpt lat="47.74879" lon="-1.83826">
        <ele>14.9</ele>
      </trkpt>
      <trkpt lat="47.74879" lon="-1.83826">
        <ele>14.9</ele>
      </trkpt>
      <trkpt lat="47.74879" lon="-1.83826">
        <ele>14.9</ele>
      </trkpt>
      <trkpt lat="47.74879" lon="-1.83826">
        <ele>14.9</ele>
      </trkpt>
      <trkpt lat="47.74879" lon="-1.83826">
        <ele>14.9</ele>
      </trkpt>
      <trkpt lat="47.74879" lon="-1.83826">
        <ele>14.9</ele>
      </trkpt>
      <trkpt lat="47.74879" lon="-1.83826">
        <ele>14.9</ele>
      </trkpt>
      <trkpt lat="47.74879" lon="-1.83826">
        <ele>14.9</ele>
      </trkpt>
      <trkpt lat="47.74879" lon="-1.83826">
        <ele>14.9</ele>
      </trkpt>
      <trkpt lat="47.74879" lon="-1.83826">
        <ele>14.9</ele>
      </trkpt>
      <trkpt lat="47.74879" lon="-1.83826">
        <ele>14.9</ele>
      </trkpt>
      <trkpt lat="47.74879" lon="-1.83826">
        <ele>14.9</ele>
      </trkpt>
      <trkpt lat="47.74879" lon="-1.83826">
        <ele>14.9</ele>
      </trkpt>
      <trkpt lat="47.74879" lon="-1.83826">
        <ele>14.9</ele>
      </trkpt>
      <trkpt lat="47.74879" lon="-1.83826">
        <ele>14.9</ele>
      </trkpt>
      <trkpt lat="47.74879" lon="-1.83826">
        <ele>14.9</ele>
      </trkpt>
      <trkpt lat="47.74879" lon="-1.83826">
        <ele>14.9</ele>
      </trkpt>
      <trkpt lat="47.74879" lon="-1.83826">
        <ele>14.9</ele>
      </trkpt>
      <trkpt lat="47.74879" lon="-1.83826">
        <ele>14.9</ele>
      </trkpt>
      <trkpt lat="47.74879" lon="-1.83826">
        <ele>14.9</ele>
      </trkpt>
      <trkpt lat="47.74879" lon="-1.83826">
        <ele>14.9</ele>
      </trkpt>
      <trkpt lat="47.74879" lon="-1.83826">
        <ele>14.9</ele>
      </trkpt>
      <trkpt lat="47.74879" lon="-1.83826">
        <ele>14.9</ele>
      </trkpt>
      <trkpt lat="47.74881" lon="-1.83825">
        <ele>15</ele>
      </trkpt>
      <trkpt lat="47.74884" lon="-1.83824">
        <ele>15</ele>
      </trkpt>
      <trkpt lat="47.74886" lon="-1.83823">
        <ele>15.1</ele>
      </trkpt>
      <trkpt lat="47.74888" lon="-1.83822">
        <ele>15.1</ele>
      </trkpt>
      <trkpt lat="47.74891" lon="-1.8382">
        <ele>15.1</ele>
      </trkpt>
      <trkpt lat="47.74894" lon="-1.83818">
        <ele>15.2</ele>
      </trkpt>
      <trkpt lat="47.74897" lon="-1.83817">
        <ele>15.2</ele>
      </trkpt>
      <trkpt lat="47.74899" lon="-1.83816">
        <ele>15.3</ele>
      </trkpt>
      <trkpt lat="47.74903" lon="-1.83814">
        <ele>15.4</ele>
      </trkpt>
      <trkpt lat="47.74906" lon="-1.83813">
        <ele>15.4</ele>
      </trkpt>
      <trkpt lat="47.74909" lon="-1.83811">
        <ele>15.5</ele>
      </trkpt>
      <trkpt lat="47.74913" lon="-1.83809">
        <ele>15.6</ele>
      </trkpt>
      <trkpt lat="47.74916" lon="-1.83808">
        <ele>15.7</ele>
      </trkpt>
      <trkpt lat="47.74918" lon="-1.83807">
        <ele>15.8</ele>
      </trkpt>
      <trkpt lat="47.74921" lon="-1.83806">
        <ele>15.9</ele>
      </trkpt>
      <trkpt lat="47.74925" lon="-1.83804">
        <ele>16.1</ele>
      </trkpt>
      <trkpt lat="47.74929" lon="-1.83803">
        <ele>16.3</ele>
      </trkpt>
      <trkpt lat="47.74932" lon="-1.83802">
        <ele>16.5</ele>
      </trkpt>
      <trkpt lat="47.74934" lon="-1.83801">
        <ele>16.6</ele>
      </trkpt>
      <trkpt lat="47.74937" lon="-1.83799">
        <ele>16.7</ele>
      </trkpt>
      <trkpt lat="47.74941" lon="-1.83798">
        <ele>16.9</ele>
      </trkpt>
      <trkpt lat="47.74944" lon="-1.83796">
        <ele>17</ele>
      </trkpt>
      <trkpt lat="47.74947" lon="-1.83795">
        <ele>17.2</ele>
      </trkpt>
      <trkpt lat="47.7495" lon="-1.83793">
        <ele>17.3</ele>
      </trkpt>
      <trkpt lat="47.74954" lon="-1.83791">
        <ele>17.5</ele>
      </trkpt>
      <trkpt lat="47.74956" lon="-1.8379">
        <ele>17.6</ele>
      </trkpt>
      <trkpt lat="47.7496" lon="-1.83788">
        <ele>17.8</ele>
      </trkpt>
      <trkpt lat="47.74963" lon="-1.83788">
        <ele>17.9</ele>
      </trkpt>
      <trkpt lat="47.74965" lon="-1.83787">
        <ele>18</ele>
      </trkpt>
      <trkpt lat="47.74968" lon="-1.83786">
        <ele>18.2</ele>
      </trkpt>
      <trkpt lat="47.74971" lon="-1.83785">
        <ele>18.3</ele>
      </trkpt>
      <trkpt lat="47.74974" lon="-1.83785">
        <ele>18.5</ele>
      </trkpt>
      <trkpt lat="47.74977" lon="-1.83785">
        <ele>18.6</ele>
      </trkpt>
      <trkpt lat="47.7498" lon="-1.83785">
        <ele>18.8</ele>
      </trkpt>
      <trkpt lat="47.74983" lon="-1.83785">
        <ele>18.9</ele>
      </trkpt>
      <trkpt lat="47.74986" lon="-1.83785">
        <ele>19.1</ele>
      </trkpt>
      <trkpt lat="47.7499" lon="-1.83784">
        <ele>19.3</ele>
      </trkpt>
      <trkpt lat="47.74993" lon="-1.83782">
        <ele>19.4</ele>
      </trkpt>
      <trkpt lat="47.74997" lon="-1.83781">
        <ele>19.6</ele>
      </trkpt>
      <trkpt lat="47.75" lon="-1.83781">
        <ele>19.8</ele>
      </trkpt>
      <trkpt lat="47.75003" lon="-1.83781">
        <ele>19.9</ele>
      </trkpt>
      <trkpt lat="47.75007" lon="-1.83781">
        <ele>20.1</ele>
      </trkpt>
      <trkpt lat="47.75008" lon="-1.83782">
        <ele>20.2</ele>
      </trkpt>
      <trkpt lat="47.75011" lon="-1.83782">
        <ele>20.4</ele>
      </trkpt>
      <trkpt lat="47.75016" lon="-1.83783">
        <ele>20.6</ele>
      </trkpt>
      <trkpt lat="47.75019" lon="-1.83782">
        <ele>20.8</ele>
      </trkpt>
      <trkpt lat="47.75023" lon="-1.83781">
        <ele>21</ele>
      </trkpt>
      <trkpt lat="47.75027" lon="-1.8378">
        <ele>21.1</ele>
      </trkpt>
      <trkpt lat="47.7503" lon="-1.83779">
        <ele>21.3</ele>
      </trkpt>
      <trkpt lat="47.75034" lon="-1.83779">
        <ele>21.5</ele>
      </trkpt>
      <trkpt lat="47.75036" lon="-1.83779">
        <ele>21.6</ele>
      </trkpt>
      <trkpt lat="47.75039" lon="-1.83779">
        <ele>21.7</ele>
      </trkpt>
      <trkpt lat="47.75041" lon="-1.83778">
        <ele>21.8</ele>
      </trkpt>
      <trkpt lat="47.75044" lon="-1.83778">
        <ele>22</ele>
      </trkpt>
      <trkpt lat="47.75046" lon="-1.83778">
        <ele>22.1</ele>
      </trkpt>
      <trkpt lat="47.75051" lon="-1.83778">
        <ele>22.3</ele>
      </trkpt>
      <trkpt lat="47.75054" lon="-1.83777">
        <ele>22.4</ele>
      </trkpt>
      <trkpt lat="47.75057" lon="-1.83777">
        <ele>22.6</ele>
      </trkpt>
      <trkpt lat="47.75059" lon="-1.83776">
        <ele>22.7</ele>
      </trkpt>
      <trkpt lat="47.75063" lon="-1.83776">
        <ele>22.9</ele>
      </trkpt>
      <trkpt lat="47.75066" lon="-1.83777">
        <ele>23.1</ele>
      </trkpt>
      <trkpt lat="47.7507" lon="-1.83778">
        <ele>23.3</ele>
      </trkpt>
      <trkpt lat="47.75072" lon="-1.83778">
        <ele>23.4</ele>
      </trkpt>
      <trkpt lat="47.75075" lon="-1.83778">
        <ele>23.6</ele>
      </trkpt>
      <trkpt lat="47.75079" lon="-1.83778">
        <ele>23.8</ele>
      </trkpt>
      <trkpt lat="47.75082" lon="-1.83779">
        <ele>24</ele>
      </trkpt>
      <trkpt lat="47.75085" lon="-1.83778">
        <ele>24.1</ele>
      </trkpt>
      <trkpt lat="47.75088" lon="-1.83778">
        <ele>24.2</ele>
      </trkpt>
      <trkpt lat="47.75091" lon="-1.83778">
        <ele>24.4</ele>
      </trkpt>
      <trkpt lat="47.75093" lon="-1.83778">
        <ele>24.6</ele>
      </trkpt>
      <trkpt lat="47.75096" lon="-1.83779">
        <ele>24.7</ele>
      </trkpt>
      <trkpt lat="47.75098" lon="-1.83779">
        <ele>24.9</ele>
      </trkpt>
      <trkpt lat="47.75101" lon="-1.83779">
        <ele>25.1</ele>
      </trkpt>
      <trkpt lat="47.75104" lon="-1.83779">
        <ele>25.2</ele>
      </trkpt>
      <trkpt lat="47.75107" lon="-1.8378">
        <ele>25.4</ele>
      </trkpt>
      <trkpt lat="47.75109" lon="-1.83781">
        <ele>25.6</ele>
      </trkpt>
      <trkpt lat="47.75112" lon="-1.83781">
        <ele>25.8</ele>
      </trkpt>
      <trkpt lat="47.75114" lon="-1.83781">
        <ele>25.9</ele>
      </trkpt>
      <trkpt lat="47.75117" lon="-1.83781">
        <ele>26.1</ele>
      </trkpt>
      <trkpt lat="47.7512" lon="-1.83781">
        <ele>26.2</ele>
      </trkpt>
      <trkpt lat="47.75121" lon="-1.83781">
        <ele>26.4</ele>
      </trkpt>
      <trkpt lat="47.75124" lon="-1.83782">
        <ele>26.5</ele>
      </trkpt>
      <trkpt lat="47.75126" lon="-1.83782">
        <ele>26.7</ele>
      </trkpt>
      <trkpt lat="47.75129" lon="-1.83783">
        <ele>26.9</ele>
      </trkpt>
      <trkpt lat="47.75131" lon="-1.83783">
        <ele>27.1</ele>
      </trkpt>
      <trkpt lat="47.75134" lon="-1.83783">
        <ele>27.2</ele>
      </trkpt>
      <trkpt lat="47.75136" lon="-1.83784">
        <ele>27.4</ele>
      </trkpt>
      <trkpt lat="47.75138" lon="-1.83785">
        <ele>27.6</ele>
      </trkpt>
      <trkpt lat="47.7514" lon="-1.83785">
        <ele>27.8</ele>
      </trkpt>
      <trkpt lat="47.75142" lon="-1.83786">
        <ele>27.9</ele>
      </trkpt>
      <trkpt lat="47.75145" lon="-1.83786">
        <ele>28.1</ele>
      </trkpt>
      <trkpt lat="47.75147" lon="-1.83787">
        <ele>28.3</ele>
      </trkpt>
      <trkpt lat="47.75149" lon="-1.83788">
        <ele>28.5</ele>
      </trkpt>
      <trkpt lat="47.75151" lon="-1.83789">
        <ele>28.7</ele>
      </trkpt>
      <trkpt lat="47.75153" lon="-1.8379">
        <ele>29</ele>
      </trkpt>
      <trkpt lat="47.75155" lon="-1.83791">
        <ele>29.2</ele>
      </trkpt>
      <trkpt lat="47.75157" lon="-1.83791">
        <ele>29.3</ele>
      </trkpt>
      <trkpt lat="47.75159" lon="-1.83791">
        <ele>29.5</ele>
      </trkpt>
      <trkpt lat="47.75161" lon="-1.83792">
        <ele>29.7</ele>
      </trkpt>
      <trkpt lat="47.75163" lon="-1.83794">
        <ele>29.9</ele>
      </trkpt>
      <trkpt lat="47.75165" lon="-1.83795">
        <ele>30.2</ele>
      </trkpt>
      <trkpt lat="47.75166" lon="-1.83796">
        <ele>30.4</ele>
      </trkpt>
      <trkpt lat="47.75168" lon="-1.83798">
        <ele>30.6</ele>
      </trkpt>
      <trkpt lat="47.7517" lon="-1.83799">
        <ele>30.8</ele>
      </trkpt>
      <trkpt lat="47.75172" lon="-1.83799">
        <ele>31</ele>
      </trkpt>
      <trkpt lat="47.75174" lon="-1.838">
        <ele>31.2</ele>
      </trkpt>
      <trkpt lat="47.75176" lon="-1.83801">
        <ele>31.3</ele>
      </trkpt>
      <trkpt lat="47.75178" lon="-1.83801">
        <ele>31.5</ele>
      </trkpt>
      <trkpt lat="47.7518" lon="-1.83802">
        <ele>31.6</ele>
      </trkpt>
      <trkpt lat="47.75182" lon="-1.83802">
        <ele>31.7</ele>
      </trkpt>
      <trkpt lat="47.75185" lon="-1.83803">
        <ele>31.9</ele>
      </trkpt>
      <trkpt lat="47.75187" lon="-1.83804">
        <ele>32.1</ele>
      </trkpt>
      <trkpt lat="47.75189" lon="-1.83805">
        <ele>32.4</ele>
      </trkpt>
      <trkpt lat="47.75191" lon="-1.83806">
        <ele>32.5</ele>
      </trkpt>
      <trkpt lat="47.75193" lon="-1.83807">
        <ele>32.7</ele>
      </trkpt>
      <trkpt lat="47.75196" lon="-1.83807">
        <ele>32.9</ele>
      </trkpt>
      <trkpt lat="47.75198" lon="-1.83808">
        <ele>33.1</ele>
      </trkpt>
      <trkpt lat="47.752" lon="-1.83809">
        <ele>33.4</ele>
      </trkpt>
      <trkpt lat="47.75203" lon="-1.8381">
        <ele>33.6</ele>
      </trkpt>
      <trkpt lat="47.75204" lon="-1.83811">
        <ele>33.8</ele>
      </trkpt>
      <trkpt lat="47.75206" lon="-1.83812">
        <ele>33.9</ele>
      </trkpt>
      <trkpt lat="47.75208" lon="-1.83812">
        <ele>34</ele>
      </trkpt>
      <trkpt lat="47.75209" lon="-1.83812">
        <ele>34.2</ele>
      </trkpt>
      <trkpt lat="47.75212" lon="-1.83813">
        <ele>34.3</ele>
      </trkpt>
      <trkpt lat="47.75213" lon="-1.83814">
        <ele>34.5</ele>
      </trkpt>
      <trkpt lat="47.75216" lon="-1.83815">
        <ele>34.8</ele>
      </trkpt>
      <trkpt lat="47.75217" lon="-1.83815">
        <ele>34.9</ele>
      </trkpt>
      <trkpt lat="47.75219" lon="-1.83816">
        <ele>35.1</ele>
      </trkpt>
      <trkpt lat="47.75221" lon="-1.83817">
        <ele>35.3</ele>
      </trkpt>
      <trkpt lat="47.75223" lon="-1.83818">
        <ele>35.5</ele>
      </trkpt>
      <trkpt lat="47.75225" lon="-1.83818">
        <ele>35.7</ele>
      </trkpt>
      <trkpt lat="47.75227" lon="-1.83819">
        <ele>35.9</ele>
      </trkpt>
      <trkpt lat="47.75229" lon="-1.8382">
        <ele>36.1</ele>
      </trkpt>
      <trkpt lat="47.75232" lon="-1.83821">
        <ele>36.4</ele>
      </trkpt>
      <trkpt lat="47.75234" lon="-1.83823">
        <ele>36.7</ele>
      </trkpt>
      <trkpt lat="47.75235" lon="-1.83825">
        <ele>37</ele>
      </trkpt>
      <trkpt lat="47.75237" lon="-1.83826">
        <ele>37.3</ele>
      </trkpt>
      <trkpt lat="47.75239" lon="-1.83828">
        <ele>37.7</ele>
      </trkpt>
      <trkpt lat="47.75242" lon="-1.8383">
        <ele>38.1</ele>
      </trkpt>
      <trkpt lat="47.75244" lon="-1.83833">
        <ele>38.5</ele>
      </trkpt>
      <trkpt lat="47.75245" lon="-1.83835">
        <ele>39</ele>
      </trkpt>
      <trkpt lat="47.75247" lon="-1.83838">
        <ele>39.6</ele>
      </trkpt>
      <trkpt lat="47.75248" lon="-1.83841">
        <ele>40.2</ele>
      </trkpt>
      <trkpt lat="47.7525" lon="-1.83843">
        <ele>40.7</ele>
      </trkpt>
      <trkpt lat="47.75252" lon="-1.83846">
        <ele>41.2</ele>
      </trkpt>
      <trkpt lat="47.75253" lon="-1.83848">
        <ele>41.5</ele>
      </trkpt>
      <trkpt lat="47.75255" lon="-1.83852">
        <ele>41.9</ele>
      </trkpt>
      <trkpt lat="47.75256" lon="-1.83855">
        <ele>42.3</ele>
      </trkpt>
      <trkpt lat="47.75257" lon="-1.83858">
        <ele>42.8</ele>
      </trkpt>
      <trkpt lat="47.75258" lon="-1.83861">
        <ele>43.2</ele>
      </trkpt>
      <trkpt lat="47.75259" lon="-1.83865">
        <ele>43.8</ele>
      </trkpt>
      <trkpt lat="47.7526" lon="-1.83867">
        <ele>44.2</ele>
      </trkpt>
      <trkpt lat="47.75261" lon="-1.83871">
        <ele>44.7</ele>
      </trkpt>
      <trkpt lat="47.75261" lon="-1.83873">
        <ele>45.2</ele>
      </trkpt>
      <trkpt lat="47.75262" lon="-1.83876">
        <ele>45.6</ele>
      </trkpt>
      <trkpt lat="47.75262" lon="-1.83878">
        <ele>46</ele>
      </trkpt>
      <trkpt lat="47.75262" lon="-1.83881">
        <ele>46.5</ele>
      </trkpt>
      <trkpt lat="47.75263" lon="-1.83885">
        <ele>47.1</ele>
      </trkpt>
      <trkpt lat="47.75263" lon="-1.83889">
        <ele>47.7</ele>
      </trkpt>
      <trkpt lat="47.75263" lon="-1.83893">
        <ele>48.5</ele>
      </trkpt>
      <trkpt lat="47.75263" lon="-1.83897">
        <ele>49.2</ele>
      </trkpt>
      <trkpt lat="47.75263" lon="-1.83901">
        <ele>49.9</ele>
      </trkpt>
      <trkpt lat="47.75263" lon="-1.83904">
        <ele>50.6</ele>
      </trkpt>
      <trkpt lat="47.75262" lon="-1.83908">
        <ele>51.2</ele>
      </trkpt>
      <trkpt lat="47.75262" lon="-1.83912">
        <ele>52</ele>
      </trkpt>
      <trkpt lat="47.75261" lon="-1.83916">
        <ele>52.7</ele>
      </trkpt>
      <trkpt lat="47.75261" lon="-1.83919">
        <ele>53</ele>
      </trkpt>
      <trkpt lat="47.7526" lon="-1.83923">
        <ele>53</ele>
      </trkpt>
      <trkpt lat="47.7526" lon="-1.83926">
        <ele>53.1</ele>
      </trkpt>
      <trkpt lat="47.75259" lon="-1.8393">
        <ele>53.1</ele>
      </trkpt>
      <trkpt lat="47.75259" lon="-1.83934">
        <ele>53.2</ele>
      </trkpt>
      <trkpt lat="47.75258" lon="-1.83938">
        <ele>53.2</ele>
      </trkpt>
      <trkpt lat="47.75257" lon="-1.83942">
        <ele>53.3</ele>
      </trkpt>
      <trkpt lat="47.75257" lon="-1.83946">
        <ele>53.4</ele>
      </trkpt>
      <trkpt lat="47.75256" lon="-1.83949">
        <ele>53.4</ele>
      </trkpt>
      <trkpt lat="47.75255" lon="-1.83953">
        <ele>53.5</ele>
      </trkpt>
      <trkpt lat="47.75254" lon="-1.83956">
        <ele>53.6</ele>
      </trkpt>
      <trkpt lat="47.75254" lon="-1.8396">
        <ele>53.7</ele>
      </trkpt>
      <trkpt lat="47.75253" lon="-1.83964">
        <ele>53.7</ele>
      </trkpt>
      <trkpt lat="47.75252" lon="-1.83967">
        <ele>53.8</ele>
      </trkpt>
      <trkpt lat="47.75251" lon="-1.83971">
        <ele>53.9</ele>
      </trkpt>
      <trkpt lat="47.75251" lon="-1.83975">
        <ele>53.9</ele>
      </trkpt>
      <trkpt lat="47.7525" lon="-1.83978">
        <ele>54</ele>
      </trkpt>
      <trkpt lat="47.7525" lon="-1.83981">
        <ele>54</ele>
      </trkpt>
      <trkpt lat="47.75249" lon="-1.83984">
        <ele>53.9</ele>
      </trkpt>
      <trkpt lat="47.75249" lon="-1.83988">
        <ele>53.8</ele>
      </trkpt>
      <trkpt lat="47.75248" lon="-1.83992">
        <ele>53.8</ele>
      </trkpt>
      <trkpt lat="47.75248" lon="-1.83995">
        <ele>53.8</ele>
      </trkpt>
      <trkpt lat="47.75247" lon="-1.84">
        <ele>53.7</ele>
      </trkpt>
      <trkpt lat="47.75247" lon="-1.84003">
        <ele>53.7</ele>
      </trkpt>
      <trkpt lat="47.75246" lon="-1.84007">
        <ele>53.7</ele>
      </trkpt>
      <trkpt lat="47.75245" lon="-1.84011">
        <ele>53.7</ele>
      </trkpt>
      <trkpt lat="47.75245" lon="-1.84016">
        <ele>53.8</ele>
      </trkpt>
      <trkpt lat="47.75245" lon="-1.84021">
        <ele>53.9</ele>
      </trkpt>
      <trkpt lat="47.75244" lon="-1.84026">
        <ele>54</ele>
      </trkpt>
      <trkpt lat="47.75244" lon="-1.8403">
        <ele>54</ele>
      </trkpt>
      <trkpt lat="47.75243" lon="-1.84035">
        <ele>54.1</ele>
      </trkpt>
      <trkpt lat="47.75243" lon="-1.84041">
        <ele>54.2</ele>
      </trkpt>
      <trkpt lat="47.75242" lon="-1.84045">
        <ele>54.3</ele>
      </trkpt>
      <trkpt lat="47.75241" lon="-1.8405">
        <ele>54.3</ele>
      </trkpt>
      <trkpt lat="47.75241" lon="-1.84054">
        <ele>54.4</ele>
      </trkpt>
      <trkpt lat="47.75239" lon="-1.84059">
        <ele>54.4</ele>
      </trkpt>
      <trkpt lat="47.75239" lon="-1.84064">
        <ele>54.5</ele>
      </trkpt>
      <trkpt lat="47.75238" lon="-1.84069">
        <ele>54.6</ele>
      </trkpt>
      <trkpt lat="47.75237" lon="-1.84074">
        <ele>54.6</ele>
      </trkpt>
      <trkpt lat="47.75237" lon="-1.84079">
        <ele>54.8</ele>
      </trkpt>
      <trkpt lat="47.75236" lon="-1.84084">
        <ele>54.9</ele>
      </trkpt>
      <trkpt lat="47.75235" lon="-1.84089">
        <ele>54.9</ele>
      </trkpt>
      <trkpt lat="47.75235" lon="-1.84094">
        <ele>55</ele>
      </trkpt>
      <trkpt lat="47.75234" lon="-1.84099">
        <ele>55</ele>
      </trkpt>
      <trkpt lat="47.75233" lon="-1.84104">
        <ele>55.1</ele>
      </trkpt>
      <trkpt lat="47.75232" lon="-1.84109">
        <ele>55.2</ele>
      </trkpt>
      <trkpt lat="47.75231" lon="-1.84113">
        <ele>55.2</ele>
      </trkpt>
      <trkpt lat="47.75231" lon="-1.84119">
        <ele>55.3</ele>
      </trkpt>
      <trkpt lat="47.7523" lon="-1.84123">
        <ele>55.4</ele>
      </trkpt>
      <trkpt lat="47.75229" lon="-1.84128">
        <ele>55.5</ele>
      </trkpt>
      <trkpt lat="47.75228" lon="-1.84133">
        <ele>55.5</ele>
      </trkpt>
      <trkpt lat="47.75227" lon="-1.84138">
        <ele>55.6</ele>
      </trkpt>
      <trkpt lat="47.75226" lon="-1.84143">
        <ele>55.6</ele>
      </trkpt>
      <trkpt lat="47.75225" lon="-1.84148">
        <ele>55.7</ele>
      </trkpt>
      <trkpt lat="47.75225" lon="-1.84152">
        <ele>55.8</ele>
      </trkpt>
      <trkpt lat="47.75224" lon="-1.84156">
        <ele>55.8</ele>
      </trkpt>
      <trkpt lat="47.75223" lon="-1.84162">
        <ele>55.9</ele>
      </trkpt>
      <trkpt lat="47.75222" lon="-1.84166">
        <ele>56</ele>
      </trkpt>
      <trkpt lat="47.75221" lon="-1.84171">
        <ele>56</ele>
      </trkpt>
      <trkpt lat="47.7522" lon="-1.84175">
        <ele>56</ele>
      </trkpt>
      <trkpt lat="47.75219" lon="-1.84179">
        <ele>56</ele>
      </trkpt>
      <trkpt lat="47.75219" lon="-1.84185">
        <ele>56</ele>
      </trkpt>
      <trkpt lat="47.75218" lon="-1.8419">
        <ele>56</ele>
      </trkpt>
      <trkpt lat="47.75216" lon="-1.84195">
        <ele>56</ele>
      </trkpt>
      <trkpt lat="47.75216" lon="-1.84201">
        <ele>56</ele>
      </trkpt>
      <trkpt lat="47.75215" lon="-1.84206">
        <ele>56.1</ele>
      </trkpt>
      <trkpt lat="47.75215" lon="-1.84211">
        <ele>56.1</ele>
      </trkpt>
      <trkpt lat="47.75214" lon="-1.84217">
        <ele>56.2</ele>
      </trkpt>
      <trkpt lat="47.75213" lon="-1.84222">
        <ele>56.2</ele>
      </trkpt>
      <trkpt lat="47.75212" lon="-1.84228">
        <ele>56.3</ele>
      </trkpt>
      <trkpt lat="47.75211" lon="-1.84234">
        <ele>56.3</ele>
      </trkpt>
      <trkpt lat="47.7521" lon="-1.8424">
        <ele>56.4</ele>
      </trkpt>
      <trkpt lat="47.75209" lon="-1.84246">
        <ele>56.5</ele>
      </trkpt>
      <trkpt lat="47.75209" lon="-1.84252">
        <ele>56.6</ele>
      </trkpt>
      <trkpt lat="47.75209" lon="-1.84257">
        <ele>56.6</ele>
      </trkpt>
      <trkpt lat="47.75208" lon="-1.84263">
        <ele>56.7</ele>
      </trkpt>
      <trkpt lat="47.75207" lon="-1.84268">
        <ele>56.8</ele>
      </trkpt>
      <trkpt lat="47.75206" lon="-1.84272">
        <ele>56.8</ele>
      </trkpt>
      <trkpt lat="47.75205" lon="-1.84279">
        <ele>56.9</ele>
      </trkpt>
      <trkpt lat="47.75205" lon="-1.84285">
        <ele>57</ele>
      </trkpt>
      <trkpt lat="47.75204" lon="-1.8429">
        <ele>57</ele>
      </trkpt>
      <trkpt lat="47.75203" lon="-1.84296">
        <ele>57.1</ele>
      </trkpt>
      <trkpt lat="47.75202" lon="-1.84301">
        <ele>57.2</ele>
      </trkpt>
      <trkpt lat="47.75201" lon="-1.84307">
        <ele>57.2</ele>
      </trkpt>
      <trkpt lat="47.75201" lon="-1.84313">
        <ele>57.3</ele>
      </trkpt>
      <trkpt lat="47.752" lon="-1.84319">
        <ele>57.4</ele>
      </trkpt>
      <trkpt lat="47.752" lon="-1.84326">
        <ele>57.5</ele>
      </trkpt>
      <trkpt lat="47.75199" lon="-1.84332">
        <ele>57.5</ele>
      </trkpt>
      <trkpt lat="47.75198" lon="-1.84338">
        <ele>57.6</ele>
      </trkpt>
      <trkpt lat="47.75198" lon="-1.84344">
        <ele>57.7</ele>
      </trkpt>
      <trkpt lat="47.75197" lon="-1.84351">
        <ele>57.8</ele>
      </trkpt>
      <trkpt lat="47.75196" lon="-1.84357">
        <ele>58</ele>
      </trkpt>
      <trkpt lat="47.75195" lon="-1.84364">
        <ele>58.1</ele>
      </trkpt>
      <trkpt lat="47.75194" lon="-1.84371">
        <ele>58.2</ele>
      </trkpt>
      <trkpt lat="47.75194" lon="-1.84377">
        <ele>58.3</ele>
      </trkpt>
      <trkpt lat="47.75193" lon="-1.84383">
        <ele>58.5</ele>
      </trkpt>
      <trkpt lat="47.75192" lon="-1.84389">
        <ele>58.6</ele>
      </trkpt>
      <trkpt lat="47.75192" lon="-1.84395">
        <ele>58.7</ele>
      </trkpt>
      <trkpt lat="47.75191" lon="-1.84401">
        <ele>58.9</ele>
      </trkpt>
      <trkpt lat="47.7519" lon="-1.84408">
        <ele>59.1</ele>
      </trkpt>
      <trkpt lat="47.7519" lon="-1.84415">
        <ele>59.2</ele>
      </trkpt>
      <trkpt lat="47.7519" lon="-1.84423">
        <ele>59.3</ele>
      </trkpt>
      <trkpt lat="47.75191" lon="-1.8443">
        <ele>59.3</ele>
      </trkpt>
      <trkpt lat="47.75192" lon="-1.84438">
        <ele>59.3</ele>
      </trkpt>
      <trkpt lat="47.75194" lon="-1.84445">
        <ele>59.3</ele>
      </trkpt>
      <trkpt lat="47.75195" lon="-1.84452">
        <ele>59.3</ele>
      </trkpt>
      <trkpt lat="47.75196" lon="-1.84459">
        <ele>59.4</ele>
      </trkpt>
      <trkpt lat="47.75197" lon="-1.84466">
        <ele>59.4</ele>
      </trkpt>
      <trkpt lat="47.75198" lon="-1.84473">
        <ele>59.4</ele>
      </trkpt>
      <trkpt lat="47.75198" lon="-1.8448">
        <ele>59.4</ele>
      </trkpt>
      <trkpt lat="47.75199" lon="-1.84486">
        <ele>59.4</ele>
      </trkpt>
      <trkpt lat="47.75199" lon="-1.84493">
        <ele>59.4</ele>
      </trkpt>
      <trkpt lat="47.752" lon="-1.845">
        <ele>59.4</ele>
      </trkpt>
      <trkpt lat="47.752" lon="-1.84508">
        <ele>59.5</ele>
      </trkpt>
      <trkpt lat="47.752" lon="-1.84515">
        <ele>59.7</ele>
      </trkpt>
      <trkpt lat="47.75201" lon="-1.84523">
        <ele>59.8</ele>
      </trkpt>
      <trkpt lat="47.75201" lon="-1.8453">
        <ele>60</ele>
      </trkpt>
      <trkpt lat="47.75202" lon="-1.84538">
        <ele>60.1</ele>
      </trkpt>
      <trkpt lat="47.75202" lon="-1.84545">
        <ele>60.3</ele>
      </trkpt>
      <trkpt lat="47.75203" lon="-1.84553">
        <ele>60.4</ele>
      </trkpt>
      <trkpt lat="47.75203" lon="-1.8456">
        <ele>60.6</ele>
      </trkpt>
      <trkpt lat="47.75203" lon="-1.84566">
        <ele>60.7</ele>
      </trkpt>
      <trkpt lat="47.75204" lon="-1.84573">
        <ele>60.8</ele>
      </trkpt>
      <trkpt lat="47.75204" lon="-1.8458">
        <ele>60.9</ele>
      </trkpt>
      <trkpt lat="47.75205" lon="-1.84587">
        <ele>61.1</ele>
      </trkpt>
      <trkpt lat="47.75205" lon="-1.84595">
        <ele>61.3</ele>
      </trkpt>
      <trkpt lat="47.75206" lon="-1.84603">
        <ele>61.6</ele>
      </trkpt>
      <trkpt lat="47.75207" lon="-1.8461">
        <ele>61.8</ele>
      </trkpt>
      <trkpt lat="47.75208" lon="-1.84615">
        <ele>62</ele>
      </trkpt>
      <trkpt lat="47.75209" lon="-1.84621">
        <ele>62.1</ele>
      </trkpt>
      <trkpt lat="47.75209" lon="-1.84623">
        <ele>62.2</ele>
      </trkpt>
      <trkpt lat="47.75209" lon="-1.84624">
        <ele>62.2</ele>
      </trkpt>
      <trkpt lat="47.75209" lon="-1.84624">
        <ele>62.2</ele>
      </trkpt>
      <trkpt lat="47.75209" lon="-1.84624">
        <ele>62.2</ele>
      </trkpt>
      <trkpt lat="47.75209" lon="-1.84624">
        <ele>62.2</ele>
      </trkpt>
      <trkpt lat="47.75209" lon="-1.84624">
        <ele>62.2</ele>
      </trkpt>
      <trkpt lat="47.75209" lon="-1.84624">
        <ele>62.2</ele>
      </trkpt>
      <trkpt lat="47.75209" lon="-1.84624">
        <ele>62.2</ele>
      </trkpt>
      <trkpt lat="47.75209" lon="-1.84624">
        <ele>62.2</ele>
      </trkpt>
      <trkpt lat="47.75209" lon="-1.84624">
        <ele>62.2</ele>
      </trkpt>
      <trkpt lat="47.75209" lon="-1.84624">
        <ele>62.2</ele>
      </trkpt>
      <trkpt lat="47.75209" lon="-1.84624">
        <ele>62.2</ele>
      </trkpt>
      <trkpt lat="47.75209" lon="-1.84624">
        <ele>62.2</ele>
      </trkpt>
      <trkpt lat="47.75209" lon="-1.84624">
        <ele>62.2</ele>
      </trkpt>
      <trkpt lat="47.75209" lon="-1.84624">
        <ele>62.2</ele>
      </trkpt>
      <trkpt lat="47.75209" lon="-1.84624">
        <ele>62.2</ele>
      </trkpt>
      <trkpt lat="47.75209" lon="-1.84624">
        <ele>62.2</ele>
      </trkpt>
      <trkpt lat="47.75209" lon="-1.84624">
        <ele>62.2</ele>
      </trkpt>
      <trkpt lat="47.75209" lon="-1.84624">
        <ele>62.2</ele>
      </trkpt>
      <trkpt lat="47.75209" lon="-1.84624">
        <ele>62.2</ele>
      </trkpt>
      <trkpt lat="47.75209" lon="-1.84624">
        <ele>62.2</ele>
      </trkpt>
      <trkpt lat="47.75209" lon="-1.84624">
        <ele>62.2</ele>
      </trkpt>
      <trkpt lat="47.75209" lon="-1.84624">
        <ele>62.2</ele>
      </trkpt>
      <trkpt lat="47.75209" lon="-1.84624">
        <ele>62.2</ele>
      </trkpt>
      <trkpt lat="47.75209" lon="-1.84624">
        <ele>62.2</ele>
      </trkpt>
      <trkpt lat="47.75209" lon="-1.84624">
        <ele>62.2</ele>
      </trkpt>
      <trkpt lat="47.75209" lon="-1.84624">
        <ele>62.2</ele>
      </trkpt>
      <trkpt lat="47.75209" lon="-1.84624">
        <ele>62.2</ele>
      </trkpt>
      <trkpt lat="47.75209" lon="-1.84624">
        <ele>62.2</ele>
      </trkpt>
      <trkpt lat="47.75209" lon="-1.84624">
        <ele>62.2</ele>
      </trkpt>
      <trkpt lat="47.75209" lon="-1.84624">
        <ele>62.2</ele>
      </trkpt>
      <trkpt lat="47.75209" lon="-1.84624">
        <ele>62.2</ele>
      </trkpt>
      <trkpt lat="47.75209" lon="-1.84624">
        <ele>62.2</ele>
      </trkpt>
      <trkpt lat="47.75209" lon="-1.84624">
        <ele>62.2</ele>
      </trkpt>
      <trkpt lat="47.75209" lon="-1.84624">
        <ele>62.2</ele>
      </trkpt>
      <trkpt lat="47.75209" lon="-1.84624">
        <ele>62.2</ele>
      </trkpt>
      <trkpt lat="47.75209" lon="-1.84624">
        <ele>62.2</ele>
      </trkpt>
      <trkpt lat="47.75209" lon="-1.84624">
        <ele>62.2</ele>
      </trkpt>
      <trkpt lat="47.75209" lon="-1.84624">
        <ele>62.2</ele>
      </trkpt>
      <trkpt lat="47.75209" lon="-1.84624">
        <ele>62.2</ele>
      </trkpt>
      <trkpt lat="47.75209" lon="-1.84624">
        <ele>62.2</ele>
      </trkpt>
      <trkpt lat="47.75209" lon="-1.84624">
        <ele>62.2</ele>
      </trkpt>
      <trkpt lat="47.75209" lon="-1.84624">
        <ele>62.2</ele>
      </trkpt>
      <trkpt lat="47.75209" lon="-1.84624">
        <ele>62.2</ele>
      </trkpt>
      <trkpt lat="47.75209" lon="-1.84624">
        <ele>62.2</ele>
      </trkpt>
      <trkpt lat="47.75209" lon="-1.84624">
        <ele>62.2</ele>
      </trkpt>
      <trkpt lat="47.75209" lon="-1.84624">
        <ele>62.2</ele>
      </trkpt>
      <trkpt lat="47.75209" lon="-1.84624">
        <ele>62.2</ele>
      </trkpt>
      <trkpt lat="47.75209" lon="-1.84624">
        <ele>62.2</ele>
      </trkpt>
      <trkpt lat="47.75209" lon="-1.84624">
        <ele>62.2</ele>
      </trkpt>
      <trkpt lat="47.75209" lon="-1.84624">
        <ele>62.2</ele>
      </trkpt>
      <trkpt lat="47.75209" lon="-1.84624">
        <ele>62.2</ele>
      </trkpt>
      <trkpt lat="47.75209" lon="-1.84624">
        <ele>62.2</ele>
      </trkpt>
      <trkpt lat="47.75209" lon="-1.84624">
        <ele>62.2</ele>
      </trkpt>
      <trkpt lat="47.75209" lon="-1.84624">
        <ele>62.2</ele>
      </trkpt>
      <trkpt lat="47.75209" lon="-1.84624">
        <ele>62.2</ele>
      </trkpt>
      <trkpt lat="47.75209" lon="-1.84624">
        <ele>62.2</ele>
      </trkpt>
      <trkpt lat="47.75209" lon="-1.84624">
        <ele>62.2</ele>
      </trkpt>
      <trkpt lat="47.75209" lon="-1.84624">
        <ele>62.2</ele>
      </trkpt>
      <trkpt lat="47.75209" lon="-1.84624">
        <ele>62.2</ele>
      </trkpt>
      <trkpt lat="47.75209" lon="-1.84624">
        <ele>62.2</ele>
      </trkpt>
      <trkpt lat="47.75209" lon="-1.84624">
        <ele>62.2</ele>
      </trkpt>
      <trkpt lat="47.75209" lon="-1.84624">
        <ele>62.2</ele>
      </trkpt>
      <trkpt lat="47.75209" lon="-1.84624">
        <ele>62.2</ele>
      </trkpt>
      <trkpt lat="47.75209" lon="-1.84624">
        <ele>62.2</ele>
      </trkpt>
      <trkpt lat="47.75209" lon="-1.84624">
        <ele>62.2</ele>
      </trkpt>
      <trkpt lat="47.75209" lon="-1.84624">
        <ele>62.2</ele>
      </trkpt>
      <trkpt lat="47.75209" lon="-1.84624">
        <ele>62.2</ele>
      </trkpt>
      <trkpt lat="47.75209" lon="-1.84624">
        <ele>62.2</ele>
      </trkpt>
      <trkpt lat="47.75209" lon="-1.84624">
        <ele>62.2</ele>
      </trkpt>
      <trkpt lat="47.75209" lon="-1.84624">
        <ele>62.2</ele>
      </trkpt>
      <trkpt lat="47.75209" lon="-1.84624">
        <ele>62.2</ele>
      </trkpt>
      <trkpt lat="47.75209" lon="-1.84624">
        <ele>62.2</ele>
      </trkpt>
      <trkpt lat="47.75209" lon="-1.84624">
        <ele>62.2</ele>
      </trkpt>
      <trkpt lat="47.75209" lon="-1.84624">
        <ele>62.2</ele>
      </trkpt>
      <trkpt lat="47.75209" lon="-1.84624">
        <ele>62.2</ele>
      </trkpt>
      <trkpt lat="47.75209" lon="-1.84624">
        <ele>62.2</ele>
      </trkpt>
      <trkpt lat="47.75209" lon="-1.84624">
        <ele>62.2</ele>
      </trkpt>
      <trkpt lat="47.75209" lon="-1.84624">
        <ele>62.2</ele>
      </trkpt>
      <trkpt lat="47.75209" lon="-1.84626">
        <ele>62.3</ele>
      </trkpt>
      <trkpt lat="47.7521" lon="-1.84629">
        <ele>62.4</ele>
      </trkpt>
      <trkpt lat="47.7521" lon="-1.84633">
        <ele>62.5</ele>
      </trkpt>
      <trkpt lat="47.75211" lon="-1.84636">
        <ele>62.6</ele>
      </trkpt>
      <trkpt lat="47.75211" lon="-1.8464">
        <ele>62.7</ele>
      </trkpt>
      <trkpt lat="47.75212" lon="-1.84644">
        <ele>62.9</ele>
      </trkpt>
      <trkpt lat="47.75213" lon="-1.8465">
        <ele>63</ele>
      </trkpt>
      <trkpt lat="47.75214" lon="-1.84655">
        <ele>63.2</ele>
      </trkpt>
      <trkpt lat="47.75215" lon="-1.84661">
        <ele>63.4</ele>
      </trkpt>
      <trkpt lat="47.75215" lon="-1.84667">
        <ele>63.6</ele>
      </trkpt>
      <trkpt lat="47.75216" lon="-1.84673">
        <ele>63.6</ele>
      </trkpt>
      <trkpt lat="47.75218" lon="-1.84679">
        <ele>63.6</ele>
      </trkpt>
      <trkpt lat="47.75219" lon="-1.84684">
        <ele>63.7</ele>
      </trkpt>
      <trkpt lat="47.7522" lon="-1.84689">
        <ele>63.7</ele>
      </trkpt>
      <trkpt lat="47.75222" lon="-1.84694">
        <ele>63.8</ele>
      </trkpt>
      <trkpt lat="47.75223" lon="-1.847">
        <ele>63.8</ele>
      </trkpt>
      <trkpt lat="47.75224" lon="-1.84705">
        <ele>63.9</ele>
      </trkpt>
      <trkpt lat="47.75225" lon="-1.84711">
        <ele>63.9</ele>
      </trkpt>
      <trkpt lat="47.75227" lon="-1.84717">
        <ele>64</ele>
      </trkpt>
      <trkpt lat="47.75228" lon="-1.84723">
        <ele>64.1</ele>
      </trkpt>
      <trkpt lat="47.75229" lon="-1.84728">
        <ele>64.1</ele>
      </trkpt>
      <trkpt lat="47.7523" lon="-1.84734">
        <ele>64.2</ele>
      </trkpt>
      <trkpt lat="47.75231" lon="-1.84741">
        <ele>64.3</ele>
      </trkpt>
      <trkpt lat="47.75232" lon="-1.84747">
        <ele>64.3</ele>
      </trkpt>
      <trkpt lat="47.75232" lon="-1.84753">
        <ele>64.4</ele>
      </trkpt>
      <trkpt lat="47.75232" lon="-1.8476">
        <ele>64.3</ele>
      </trkpt>
      <trkpt lat="47.75233" lon="-1.84766">
        <ele>64.3</ele>
      </trkpt>
      <trkpt lat="47.75233" lon="-1.84773">
        <ele>64.3</ele>
      </trkpt>
      <trkpt lat="47.75234" lon="-1.84779">
        <ele>64.4</ele>
      </trkpt>
      <trkpt lat="47.75235" lon="-1.84786">
        <ele>64.4</ele>
      </trkpt>
      <trkpt lat="47.75236" lon="-1.84793">
        <ele>64.4</ele>
      </trkpt>
      <trkpt lat="47.75237" lon="-1.84799">
        <ele>64.4</ele>
      </trkpt>
      <trkpt lat="47.7524" lon="-1.84806">
        <ele>64.5</ele>
      </trkpt>
      <trkpt lat="47.75243" lon="-1.84811">
        <ele>64.7</ele>
      </trkpt>
      <trkpt lat="47.75246" lon="-1.84817">
        <ele>64.8</ele>
      </trkpt>
      <trkpt lat="47.7525" lon="-1.84822">
        <ele>65</ele>
      </trkpt>
      <trkpt lat="47.75255" lon="-1.84826">
        <ele>65</ele>
      </trkpt>
      <trkpt lat="47.75259" lon="-1.8483">
        <ele>65</ele>
      </trkpt>
      <trkpt lat="47.75263" lon="-1.84833">
        <ele>65</ele>
      </trkpt>
      <trkpt lat="47.75268" lon="-1.84836">
        <ele>65</ele>
      </trkpt>
      <trkpt lat="47.75272" lon="-1.84839">
        <ele>65</ele>
      </trkpt>
      <trkpt lat="47.75277" lon="-1.84842">
        <ele>65</ele>
      </trkpt>
      <trkpt lat="47.75281" lon="-1.84846">
        <ele>65</ele>
      </trkpt>
      <trkpt lat="47.75284" lon="-1.84851">
        <ele>65</ele>
      </trkpt>
      <trkpt lat="47.75287" lon="-1.84856">
        <ele>65</ele>
      </trkpt>
      <trkpt lat="47.75289" lon="-1.84863">
        <ele>65</ele>
      </trkpt>
      <trkpt lat="47.7529" lon="-1.84871">
        <ele>65</ele>
      </trkpt>
      <trkpt lat="47.7529" lon="-1.84878">
        <ele>65</ele>
      </trkpt>
      <trkpt lat="47.7529" lon="-1.84887">
        <ele>65</ele>
      </trkpt>
      <trkpt lat="47.75289" lon="-1.84895">
        <ele>64.9</ele>
      </trkpt>
      <trkpt lat="47.75288" lon="-1.84904">
        <ele>64.9</ele>
      </trkpt>
      <trkpt lat="47.75287" lon="-1.84914">
        <ele>64.9</ele>
      </trkpt>
      <trkpt lat="47.75286" lon="-1.84925">
        <ele>65</ele>
      </trkpt>
      <trkpt lat="47.75285" lon="-1.84933">
        <ele>65.1</ele>
      </trkpt>
      <trkpt lat="47.75284" lon="-1.84943">
        <ele>65.2</ele>
      </trkpt>
      <trkpt lat="47.75283" lon="-1.84954">
        <ele>65.3</ele>
      </trkpt>
      <trkpt lat="47.75282" lon="-1.84964">
        <ele>65.5</ele>
      </trkpt>
      <trkpt lat="47.75281" lon="-1.84973">
        <ele>65.6</ele>
      </trkpt>
      <trkpt lat="47.7528" lon="-1.84981">
        <ele>65.7</ele>
      </trkpt>
      <trkpt lat="47.7528" lon="-1.84986">
        <ele>65.8</ele>
      </trkpt>
      <trkpt lat="47.75278" lon="-1.84988">
        <ele>65.8</ele>
      </trkpt>
      <trkpt lat="47.75276" lon="-1.84989">
        <ele>65.8</ele>
      </trkpt>
      <trkpt lat="47.75274" lon="-1.84989">
        <ele>65.8</ele>
      </trkpt>
      <trkpt lat="47.7527" lon="-1.84989">
        <ele>65.8</ele>
      </trkpt>
      <trkpt lat="47.75266" lon="-1.84989">
        <ele>65.8</ele>
      </trkpt>
      <trkpt lat="47.75262" lon="-1.84989">
        <ele>65.8</ele>
      </trkpt>
      <trkpt lat="47.75257" lon="-1.84987">
        <ele>65.7</ele>
      </trkpt>
      <trkpt lat="47.75252" lon="-1.84985">
        <ele>65.7</ele>
      </trkpt>
      <trkpt lat="47.75247" lon="-1.84984">
        <ele>65.5</ele>
      </trkpt>
      <trkpt lat="47.75242" lon="-1.84981">
        <ele>65.2</ele>
      </trkpt>
      <trkpt lat="47.75238" lon="-1.84979">
        <ele>65</ele>
      </trkpt>
      <trkpt lat="47.75234" lon="-1.84977">
        <ele>64.8</ele>
      </trkpt>
      <trkpt lat="47.7523" lon="-1.84977">
        <ele>64.6</ele>
      </trkpt>
      <trkpt lat="47.75227" lon="-1.8498">
        <ele>64.6</ele>
      </trkpt>
      <trkpt lat="47.75224" lon="-1.84984">
        <ele>64.5</ele>
      </trkpt>
      <trkpt lat="47.75221" lon="-1.84986">
        <ele>64.5</ele>
      </trkpt>
      <trkpt lat="47.75218" lon="-1.84988">
        <ele>64.5</ele>
      </trkpt>
      <trkpt lat="47.75215" lon="-1.8499">
        <ele>64.4</ele>
      </trkpt>
      <trkpt lat="47.75213" lon="-1.84994">
        <ele>64.4</ele>
      </trkpt>
      <trkpt lat="47.75212" lon="-1.84998">
        <ele>64.6</ele>
      </trkpt>
      <trkpt lat="47.75212" lon="-1.85001">
        <ele>64.7</ele>
      </trkpt>
      <trkpt lat="47.75214" lon="-1.85005">
        <ele>64.8</ele>
      </trkpt>
      <trkpt lat="47.75215" lon="-1.85009">
        <ele>64.9</ele>
      </trkpt>
      <trkpt lat="47.75215" lon="-1.85013">
        <ele>65</ele>
      </trkpt>
      <trkpt lat="47.75215" lon="-1.85016">
        <ele>65</ele>
      </trkpt>
      <trkpt lat="47.75213" lon="-1.85018">
        <ele>65</ele>
      </trkpt>
      <trkpt lat="47.75211" lon="-1.85019">
        <ele>64.9</ele>
      </trkpt>
      <trkpt lat="47.75208" lon="-1.85022">
        <ele>64.9</ele>
      </trkpt>
      <trkpt lat="47.75206" lon="-1.85023">
        <ele>64.8</ele>
      </trkpt>
      <trkpt lat="47.75203" lon="-1.85024">
        <ele>64.8</ele>
      </trkpt>
      <trkpt lat="47.752" lon="-1.85026">
        <ele>64.7</ele>
      </trkpt>
      <trkpt lat="47.75197" lon="-1.85027">
        <ele>64.6</ele>
      </trkpt>
      <trkpt lat="47.75195" lon="-1.85028">
        <ele>64.6</ele>
      </trkpt>
      <trkpt lat="47.75191" lon="-1.85029">
        <ele>64.5</ele>
      </trkpt>
      <trkpt lat="47.75186" lon="-1.85028">
        <ele>64.3</ele>
      </trkpt>
      <trkpt lat="47.75182" lon="-1.85028">
        <ele>64.1</ele>
      </trkpt>
      <trkpt lat="47.75177" lon="-1.8503">
        <ele>64</ele>
      </trkpt>
      <trkpt lat="47.75173" lon="-1.85034">
        <ele>64</ele>
      </trkpt>
      <trkpt lat="47.75171" lon="-1.85039">
        <ele>64.1</ele>
      </trkpt>
      <trkpt lat="47.75168" lon="-1.85045">
        <ele>64.1</ele>
      </trkpt>
      <trkpt lat="47.75165" lon="-1.85049">
        <ele>63.8</ele>
      </trkpt>
      <trkpt lat="47.75161" lon="-1.85053">
        <ele>63.4</ele>
      </trkpt>
      <trkpt lat="47.75158" lon="-1.85055">
        <ele>62.8</ele>
      </trkpt>
      <trkpt lat="47.75153" lon="-1.85057">
        <ele>62.1</ele>
      </trkpt>
      <trkpt lat="47.75148" lon="-1.8506">
        <ele>61.3</ele>
      </trkpt>
      <trkpt lat="47.75144" lon="-1.85059">
        <ele>60.6</ele>
      </trkpt>
      <trkpt lat="47.7514" lon="-1.85056">
        <ele>59.8</ele>
      </trkpt>
      <trkpt lat="47.75137" lon="-1.85053">
        <ele>59.3</ele>
      </trkpt>
      <trkpt lat="47.75135" lon="-1.85048">
        <ele>58.9</ele>
      </trkpt>
      <trkpt lat="47.75134" lon="-1.85043">
        <ele>58.7</ele>
      </trkpt>
      <trkpt lat="47.75134" lon="-1.85038">
        <ele>58.7</ele>
      </trkpt>
      <trkpt lat="47.75133" lon="-1.85033">
        <ele>58.5</ele>
      </trkpt>
      <trkpt lat="47.75131" lon="-1.85028">
        <ele>58.1</ele>
      </trkpt>
      <trkpt lat="47.75128" lon="-1.85023">
        <ele>57.6</ele>
      </trkpt>
      <trkpt lat="47.75125" lon="-1.8502">
        <ele>57.1</ele>
      </trkpt>
      <trkpt lat="47.75121" lon="-1.85019">
        <ele>56.5</ele>
      </trkpt>
      <trkpt lat="47.75118" lon="-1.85017">
        <ele>56</ele>
      </trkpt>
      <trkpt lat="47.75115" lon="-1.85014">
        <ele>55.6</ele>
      </trkpt>
      <trkpt lat="47.75115" lon="-1.85011">
        <ele>55.5</ele>
      </trkpt>
      <trkpt lat="47.75115" lon="-1.85008">
        <ele>55.6</ele>
      </trkpt>
      <trkpt lat="47.75117" lon="-1.85005">
        <ele>55.9</ele>
      </trkpt>
      <trkpt lat="47.75119" lon="-1.85003">
        <ele>56.2</ele>
      </trkpt>
      <trkpt lat="47.75121" lon="-1.85002">
        <ele>56.5</ele>
      </trkpt>
      <trkpt lat="47.75124" lon="-1.85002">
        <ele>56.8</ele>
      </trkpt>
      <trkpt lat="47.75127" lon="-1.85003">
        <ele>57.3</ele>
      </trkpt>
      <trkpt lat="47.75129" lon="-1.85005">
        <ele>57.6</ele>
      </trkpt>
      <trkpt lat="47.75131" lon="-1.85006">
        <ele>57.9</ele>
      </trkpt>
      <trkpt lat="47.75133" lon="-1.85008">
        <ele>58.2</ele>
      </trkpt>
      <trkpt lat="47.75135" lon="-1.85008">
        <ele>58.5</ele>
      </trkpt>
      <trkpt lat="47.75137" lon="-1.85008">
        <ele>58.9</ele>
      </trkpt>
      <trkpt lat="47.7514" lon="-1.85008">
        <ele>59.3</ele>
      </trkpt>
      <trkpt lat="47.75143" lon="-1.85008">
        <ele>59.7</ele>
      </trkpt>
      <trkpt lat="47.75146" lon="-1.85007">
        <ele>60.1</ele>
      </trkpt>
      <trkpt lat="47.75148" lon="-1.85006">
        <ele>60.4</ele>
      </trkpt>
      <trkpt lat="47.7515" lon="-1.85003">
        <ele>60.7</ele>
      </trkpt>
      <trkpt lat="47.75152" lon="-1.85001">
        <ele>60.9</ele>
      </trkpt>
      <trkpt lat="47.75155" lon="-1.84998">
        <ele>61.2</ele>
      </trkpt>
      <trkpt lat="47.75158" lon="-1.84996">
        <ele>61.5</ele>
      </trkpt>
      <trkpt lat="47.7516" lon="-1.84993">
        <ele>61.7</ele>
      </trkpt>
      <trkpt lat="47.75162" lon="-1.84989">
        <ele>61.8</ele>
      </trkpt>
      <trkpt lat="47.75163" lon="-1.84985">
        <ele>61.8</ele>
      </trkpt>
      <trkpt lat="47.75164" lon="-1.84981">
        <ele>61.7</ele>
      </trkpt>
      <trkpt lat="47.75163" lon="-1.84978">
        <ele>61.4</ele>
      </trkpt>
      <trkpt lat="47.75159" lon="-1.84979">
        <ele>60.9</ele>
      </trkpt>
      <trkpt lat="47.75159" lon="-1.84979">
        <ele>60.9</ele>
      </trkpt>
      <trkpt lat="47.75158" lon="-1.84979">
        <ele>60.7</ele>
      </trkpt>
      <trkpt lat="47.75157" lon="-1.84977">
        <ele>60.6</ele>
      </trkpt>
      <trkpt lat="47.75158" lon="-1.84973">
        <ele>60.5</ele>
      </trkpt>
      <trkpt lat="47.75159" lon="-1.84971">
        <ele>60.5</ele>
      </trkpt>
      <trkpt lat="47.75162" lon="-1.84968">
        <ele>60.8</ele>
      </trkpt>
      <trkpt lat="47.75166" lon="-1.84966">
        <ele>61.2</ele>
      </trkpt>
      <trkpt lat="47.75168" lon="-1.84963">
        <ele>61.3</ele>
      </trkpt>
      <trkpt lat="47.75169" lon="-1.84959">
        <ele>61.2</ele>
      </trkpt>
      <trkpt lat="47.75168" lon="-1.84957">
        <ele>61</ele>
      </trkpt>
      <trkpt lat="47.75166" lon="-1.84957">
        <ele>60.8</ele>
      </trkpt>
      <trkpt lat="47.75162" lon="-1.84957">
        <ele>60.4</ele>
      </trkpt>
      <trkpt lat="47.75159" lon="-1.84958">
        <ele>60</ele>
      </trkpt>
      <trkpt lat="47.75156" lon="-1.84958">
        <ele>59.5</ele>
      </trkpt>
      <trkpt lat="47.75153" lon="-1.84957">
        <ele>59</ele>
      </trkpt>
      <trkpt lat="47.75148" lon="-1.84957">
        <ele>58.4</ele>
      </trkpt>
      <trkpt lat="47.75146" lon="-1.84959">
        <ele>58.2</ele>
      </trkpt>
      <trkpt lat="47.75144" lon="-1.84961">
        <ele>58</ele>
      </trkpt>
      <trkpt lat="47.75142" lon="-1.84963">
        <ele>57.8</ele>
      </trkpt>
      <trkpt lat="47.75139" lon="-1.84964">
        <ele>57.4</ele>
      </trkpt>
      <trkpt lat="47.75137" lon="-1.84966">
        <ele>57.2</ele>
      </trkpt>
      <trkpt lat="47.75134" lon="-1.84968">
        <ele>56.9</ele>
      </trkpt>
      <trkpt lat="47.75131" lon="-1.84971">
        <ele>56.6</ele>
      </trkpt>
      <trkpt lat="47.75128" lon="-1.84973">
        <ele>56.3</ele>
      </trkpt>
      <trkpt lat="47.75126" lon="-1.84975">
        <ele>56</ele>
      </trkpt>
      <trkpt lat="47.75123" lon="-1.84977">
        <ele>55.8</ele>
      </trkpt>
      <trkpt lat="47.7512" lon="-1.8498">
        <ele>55.4</ele>
      </trkpt>
      <trkpt lat="47.75116" lon="-1.84982">
        <ele>54.9</ele>
      </trkpt>
      <trkpt lat="47.75111" lon="-1.84983">
        <ele>54.3</ele>
      </trkpt>
      <trkpt lat="47.75108" lon="-1.84983">
        <ele>53.9</ele>
      </trkpt>
      <trkpt lat="47.75105" lon="-1.84981">
        <ele>53.3</ele>
      </trkpt>
      <trkpt lat="47.75104" lon="-1.84978">
        <ele>53.1</ele>
      </trkpt>
      <trkpt lat="47.75103" lon="-1.84975">
        <ele>52.9</ele>
      </trkpt>
      <trkpt lat="47.75104" lon="-1.84972">
        <ele>53</ele>
      </trkpt>
      <trkpt lat="47.75106" lon="-1.84969">
        <ele>53.1</ele>
      </trkpt>
      <trkpt lat="47.75108" lon="-1.84966">
        <ele>53.2</ele>
      </trkpt>
      <trkpt lat="47.75109" lon="-1.84962">
        <ele>53.1</ele>
      </trkpt>
      <trkpt lat="47.75107" lon="-1.84959">
        <ele>52.9</ele>
      </trkpt>
      <trkpt lat="47.75105" lon="-1.84957">
        <ele>52.4</ele>
      </trkpt>
      <trkpt lat="47.75102" lon="-1.84958">
        <ele>52</ele>
      </trkpt>
      <trkpt lat="47.75099" lon="-1.8496">
        <ele>51.8</ele>
      </trkpt>
      <trkpt lat="47.75096" lon="-1.84963">
        <ele>51.5</ele>
      </trkpt>
      <trkpt lat="47.75094" lon="-1.84966">
        <ele>51.2</ele>
      </trkpt>
      <trkpt lat="47.75092" lon="-1.8497">
        <ele>51.1</ele>
      </trkpt>
      <trkpt lat="47.75089" lon="-1.84973">
        <ele>50.9</ele>
      </trkpt>
      <trkpt lat="47.75088" lon="-1.84976">
        <ele>50.8</ele>
      </trkpt>
      <trkpt lat="47.75089" lon="-1.84979">
        <ele>51</ele>
      </trkpt>
      <trkpt lat="47.75091" lon="-1.84982">
        <ele>51.4</ele>
      </trkpt>
      <trkpt lat="47.75093" lon="-1.84983">
        <ele>51.7</ele>
      </trkpt>
      <trkpt lat="47.75095" lon="-1.84985">
        <ele>52</ele>
      </trkpt>
      <trkpt lat="47.75096" lon="-1.84986">
        <ele>52.3</ele>
      </trkpt>
      <trkpt lat="47.75098" lon="-1.84989">
        <ele>52.6</ele>
      </trkpt>
      <trkpt lat="47.75099" lon="-1.84991">
        <ele>52.9</ele>
      </trkpt>
      <trkpt lat="47.751" lon="-1.84994">
        <ele>53.1</ele>
      </trkpt>
      <trkpt lat="47.751" lon="-1.84997">
        <ele>53.3</ele>
      </trkpt>
      <trkpt lat="47.751" lon="-1.85">
        <ele>53.4</ele>
      </trkpt>
      <trkpt lat="47.751" lon="-1.85003">
        <ele>53.3</ele>
      </trkpt>
      <trkpt lat="47.75099" lon="-1.85006">
        <ele>53.2</ele>
      </trkpt>
      <trkpt lat="47.75099" lon="-1.85009">
        <ele>53.2</ele>
      </trkpt>
      <trkpt lat="47.75098" lon="-1.85012">
        <ele>53.1</ele>
      </trkpt>
      <trkpt lat="47.75098" lon="-1.85015">
        <ele>53</ele>
      </trkpt>
      <trkpt lat="47.75096" lon="-1.85019">
        <ele>52.7</ele>
      </trkpt>
      <trkpt lat="47.75096" lon="-1.85023">
        <ele>52.6</ele>
      </trkpt>
      <trkpt lat="47.75094" lon="-1.85028">
        <ele>52.4</ele>
      </trkpt>
      <trkpt lat="47.75093" lon="-1.85033">
        <ele>52.1</ele>
      </trkpt>
      <trkpt lat="47.7509" lon="-1.85038">
        <ele>51.6</ele>
      </trkpt>
      <trkpt lat="47.75087" lon="-1.85042">
        <ele>51.1</ele>
      </trkpt>
      <trkpt lat="47.75085" lon="-1.85047">
        <ele>50.7</ele>
      </trkpt>
      <trkpt lat="47.75083" lon="-1.85052">
        <ele>50.4</ele>
      </trkpt>
      <trkpt lat="47.75082" lon="-1.85057">
        <ele>50.3</ele>
      </trkpt>
      <trkpt lat="47.75081" lon="-1.8506">
        <ele>50.2</ele>
      </trkpt>
      <trkpt lat="47.7508" lon="-1.85061">
        <ele>50.2</ele>
      </trkpt>
      <trkpt lat="47.75079" lon="-1.85059">
        <ele>50.2</ele>
      </trkpt>
      <trkpt lat="47.75077" lon="-1.85055">
        <ele>50.1</ele>
      </trkpt>
      <trkpt lat="47.75077" lon="-1.85051">
        <ele>50.2</ele>
      </trkpt>
      <trkpt lat="47.75076" lon="-1.85046">
        <ele>50.2</ele>
      </trkpt>
      <trkpt lat="47.75075" lon="-1.85041">
        <ele>50.1</ele>
      </trkpt>
      <trkpt lat="47.75074" lon="-1.85036">
        <ele>50.1</ele>
      </trkpt>
      <trkpt lat="47.75072" lon="-1.8503">
        <ele>50.1</ele>
      </trkpt>
      <trkpt lat="47.75071" lon="-1.85024">
        <ele>50</ele>
      </trkpt>
      <trkpt lat="47.75068" lon="-1.85019">
        <ele>49.9</ele>
      </trkpt>
      <trkpt lat="47.75065" lon="-1.85015">
        <ele>49.7</ele>
      </trkpt>
      <trkpt lat="47.75063" lon="-1.85012">
        <ele>49.6</ele>
      </trkpt>
      <trkpt lat="47.75061" lon="-1.85009">
        <ele>49.4</ele>
      </trkpt>
      <trkpt lat="47.7506" lon="-1.8501">
        <ele>49.4</ele>
      </trkpt>
      <trkpt lat="47.7506" lon="-1.85012">
        <ele>49.3</ele>
      </trkpt>
      <trkpt lat="47.7506" lon="-1.85017">
        <ele>49.4</ele>
      </trkpt>
      <trkpt lat="47.7506" lon="-1.85022">
        <ele>49.4</ele>
      </trkpt>
      <trkpt lat="47.7506" lon="-1.85027">
        <ele>49.4</ele>
      </trkpt>
      <trkpt lat="47.75059" lon="-1.85029">
        <ele>49.4</ele>
      </trkpt>
      <trkpt lat="47.75058" lon="-1.85029">
        <ele>49.4</ele>
      </trkpt>
      <trkpt lat="47.75057" lon="-1.85028">
        <ele>49.3</ele>
      </trkpt>
      <trkpt lat="47.75057" lon="-1.85025">
        <ele>49.3</ele>
      </trkpt>
      <trkpt lat="47.75057" lon="-1.85022">
        <ele>49.3</ele>
      </trkpt>
      <trkpt lat="47.75058" lon="-1.85019">
        <ele>49.3</ele>
      </trkpt>
      <trkpt lat="47.75058" lon="-1.85017">
        <ele>49.3</ele>
      </trkpt>
      <trkpt lat="47.75057" lon="-1.85014">
        <ele>49.2</ele>
      </trkpt>
      <trkpt lat="47.75056" lon="-1.85012">
        <ele>49.1</ele>
      </trkpt>
      <trkpt lat="47.75056" lon="-1.85008">
        <ele>49.1</ele>
      </trkpt>
      <trkpt lat="47.75056" lon="-1.85005">
        <ele>49</ele>
      </trkpt>
      <trkpt lat="47.75055" lon="-1.85001">
        <ele>49</ele>
      </trkpt>
      <trkpt lat="47.75055" lon="-1.84997">
        <ele>48.9</ele>
      </trkpt>
      <trkpt lat="47.75055" lon="-1.84993">
        <ele>48.8</ele>
      </trkpt>
      <trkpt lat="47.75055" lon="-1.8499">
        <ele>48.6</ele>
      </trkpt>
      <trkpt lat="47.75056" lon="-1.84986">
        <ele>48.6</ele>
      </trkpt>
      <trkpt lat="47.75057" lon="-1.84983">
        <ele>48.6</ele>
      </trkpt>
      <trkpt lat="47.75058" lon="-1.84981">
        <ele>48.6</ele>
      </trkpt>
      <trkpt lat="47.75059" lon="-1.84979">
        <ele>48.6</ele>
      </trkpt>
      <trkpt lat="47.7506" lon="-1.84977">
        <ele>48.5</ele>
      </trkpt>
      <trkpt lat="47.7506" lon="-1.84974">
        <ele>48.5</ele>
      </trkpt>
      <trkpt lat="47.75061" lon="-1.84971">
        <ele>48.5</ele>
      </trkpt>
      <trkpt lat="47.75062" lon="-1.84969">
        <ele>48.4</ele>
      </trkpt>
      <trkpt lat="47.75062" lon="-1.84965">
        <ele>48.3</ele>
      </trkpt>
      <trkpt lat="47.75063" lon="-1.84962">
        <ele>48.3</ele>
      </trkpt>
      <trkpt lat="47.75063" lon="-1.84958">
        <ele>48.2</ele>
      </trkpt>
      <trkpt lat="47.75064" lon="-1.84955">
        <ele>48.1</ele>
      </trkpt>
      <trkpt lat="47.75065" lon="-1.84951">
        <ele>48.1</ele>
      </trkpt>
      <trkpt lat="47.75066" lon="-1.84948">
        <ele>48</ele>
      </trkpt>
      <trkpt lat="47.75067" lon="-1.84944">
        <ele>47.9</ele>
      </trkpt>
      <trkpt lat="47.75065" lon="-1.8494">
        <ele>47.7</ele>
      </trkpt>
      <trkpt lat="47.75064" lon="-1.84935">
        <ele>47.5</ele>
      </trkpt>
      <trkpt lat="47.75063" lon="-1.8493">
        <ele>47.2</ele>
      </trkpt>
      <trkpt lat="47.75061" lon="-1.84926">
        <ele>46.9</ele>
      </trkpt>
      <trkpt lat="47.75057" lon="-1.84924">
        <ele>46.7</ele>
      </trkpt>
      <trkpt lat="47.75054" lon="-1.84921">
        <ele>46.4</ele>
      </trkpt>
      <trkpt lat="47.75052" lon="-1.84919">
        <ele>46.2</ele>
      </trkpt>
      <trkpt lat="47.7505" lon="-1.84917">
        <ele>46</ele>
      </trkpt>
      <trkpt lat="47.75047" lon="-1.84915">
        <ele>45.8</ele>
      </trkpt>
      <trkpt lat="47.75044" lon="-1.84914">
        <ele>45.7</ele>
      </trkpt>
      <trkpt lat="47.75041" lon="-1.84912">
        <ele>45.5</ele>
      </trkpt>
      <trkpt lat="47.75039" lon="-1.8491">
        <ele>45.4</ele>
      </trkpt>
      <trkpt lat="47.75038" lon="-1.84908">
        <ele>45.3</ele>
      </trkpt>
      <trkpt lat="47.75037" lon="-1.84907">
        <ele>45.2</ele>
      </trkpt>
      <trkpt lat="47.75037" lon="-1.84906">
        <ele>45.2</ele>
      </trkpt>
      <trkpt lat="47.75037" lon="-1.84906">
        <ele>45.2</ele>
      </trkpt>
      <trkpt lat="47.75037" lon="-1.84906">
        <ele>45.2</ele>
      </trkpt>
      <trkpt lat="47.75037" lon="-1.84906">
        <ele>45.2</ele>
      </trkpt>
      <trkpt lat="47.75037" lon="-1.84906">
        <ele>45.2</ele>
      </trkpt>
      <trkpt lat="47.75037" lon="-1.84906">
        <ele>45.2</ele>
      </trkpt>
      <trkpt lat="47.75037" lon="-1.84906">
        <ele>45.2</ele>
      </trkpt>
      <trkpt lat="47.75037" lon="-1.84906">
        <ele>45.2</ele>
      </trkpt>
      <trkpt lat="47.75037" lon="-1.84906">
        <ele>45.2</ele>
      </trkpt>
      <trkpt lat="47.75037" lon="-1.84906">
        <ele>45.2</ele>
      </trkpt>
      <trkpt lat="47.75037" lon="-1.84906">
        <ele>45.2</ele>
      </trkpt>
      <trkpt lat="47.75037" lon="-1.84906">
        <ele>45.2</ele>
      </trkpt>
      <trkpt lat="47.75037" lon="-1.84906">
        <ele>45.2</ele>
      </trkpt>
      <trkpt lat="47.75037" lon="-1.84906">
        <ele>45.2</ele>
      </trkpt>
      <trkpt lat="47.75037" lon="-1.84906">
        <ele>45.2</ele>
      </trkpt>
      <trkpt lat="47.75037" lon="-1.84906">
        <ele>45.2</ele>
      </trkpt>
      <trkpt lat="47.75037" lon="-1.84906">
        <ele>45.2</ele>
      </trkpt>
      <trkpt lat="47.75037" lon="-1.84906">
        <ele>45.2</ele>
      </trkpt>
      <trkpt lat="47.75037" lon="-1.84906">
        <ele>45.2</ele>
      </trkpt>
      <trkpt lat="47.75037" lon="-1.84906">
        <ele>45.2</ele>
      </trkpt>
      <trkpt lat="47.75036" lon="-1.84904">
        <ele>45.2</ele>
      </trkpt>
      <trkpt lat="47.75036" lon="-1.84901">
        <ele>45.2</ele>
      </trkpt>
      <trkpt lat="47.75036" lon="-1.84897">
        <ele>45.2</ele>
      </trkpt>
      <trkpt lat="47.75036" lon="-1.84893">
        <ele>45.3</ele>
      </trkpt>
      <trkpt lat="47.75036" lon="-1.84889">
        <ele>45.3</ele>
      </trkpt>
      <trkpt lat="47.75036" lon="-1.84885">
        <ele>45.3</ele>
      </trkpt>
      <trkpt lat="47.75036" lon="-1.84881">
        <ele>45.3</ele>
      </trkpt>
      <trkpt lat="47.75035" lon="-1.84878">
        <ele>45.2</ele>
      </trkpt>
      <trkpt lat="47.75035" lon="-1.84874">
        <ele>45.2</ele>
      </trkpt>
      <trkpt lat="47.75035" lon="-1.8487">
        <ele>45.3</ele>
      </trkpt>
      <trkpt lat="47.75036" lon="-1.84865">
        <ele>45.3</ele>
      </trkpt>
      <trkpt lat="47.75036" lon="-1.84861">
        <ele>45.4</ele>
      </trkpt>
      <trkpt lat="47.75037" lon="-1.84857">
        <ele>45.4</ele>
      </trkpt>
      <trkpt lat="47.75037" lon="-1.84853">
        <ele>45.5</ele>
      </trkpt>
      <trkpt lat="47.75038" lon="-1.84849">
        <ele>45.5</ele>
      </trkpt>
      <trkpt lat="47.75038" lon="-1.84846">
        <ele>45.6</ele>
      </trkpt>
      <trkpt lat="47.75038" lon="-1.84842">
        <ele>45.6</ele>
      </trkpt>
      <trkpt lat="47.75039" lon="-1.84839">
        <ele>45.8</ele>
      </trkpt>
      <trkpt lat="47.7504" lon="-1.84835">
        <ele>45.8</ele>
      </trkpt>
      <trkpt lat="47.7504" lon="-1.84831">
        <ele>45.8</ele>
      </trkpt>
      <trkpt lat="47.75041" lon="-1.84827">
        <ele>45.8</ele>
      </trkpt>
      <trkpt lat="47.75041" lon="-1.84823">
        <ele>45.7</ele>
      </trkpt>
      <trkpt lat="47.75042" lon="-1.84819">
        <ele>45.7</ele>
      </trkpt>
      <trkpt lat="47.75042" lon="-1.84816">
        <ele>45.6</ele>
      </trkpt>
      <trkpt lat="47.75042" lon="-1.84812">
        <ele>45.5</ele>
      </trkpt>
      <trkpt lat="47.75041" lon="-1.84809">
        <ele>45.4</ele>
      </trkpt>
      <trkpt lat="47.75041" lon="-1.84805">
        <ele>45.3</ele>
      </trkpt>
      <trkpt lat="47.75043" lon="-1.84802">
        <ele>45.4</ele>
      </trkpt>
      <trkpt lat="47.75044" lon="-1.84798">
        <ele>45.4</ele>
      </trkpt>
      <trkpt lat="47.75044" lon="-1.84795">
        <ele>45.4</ele>
      </trkpt>
      <trkpt lat="47.75044" lon="-1.84791">
        <ele>45.3</ele>
      </trkpt>
      <trkpt lat="47.75045" lon="-1.84788">
        <ele>45.3</ele>
      </trkpt>
      <trkpt lat="47.75046" lon="-1.84784">
        <ele>45.3</ele>
      </trkpt>
      <trkpt lat="47.75046" lon="-1.84781">
        <ele>45.3</ele>
      </trkpt>
      <trkpt lat="47.75047" lon="-1.84777">
        <ele>45.3</ele>
      </trkpt>
      <trkpt lat="47.75047" lon="-1.84774">
        <ele>45.2</ele>
      </trkpt>
      <trkpt lat="47.75047" lon="-1.84771">
        <ele>45.2</ele>
      </trkpt>
      <trkpt lat="47.75048" lon="-1.84767">
        <ele>45.3</ele>
      </trkpt>
      <trkpt lat="47.75049" lon="-1.84763">
        <ele>45.3</ele>
      </trkpt>
      <trkpt lat="47.75049" lon="-1.8476">
        <ele>45.3</ele>
      </trkpt>
      <trkpt lat="47.7505" lon="-1.84758">
        <ele>45.3</ele>
      </trkpt>
      <trkpt lat="47.7505" lon="-1.84755">
        <ele>45.3</ele>
      </trkpt>
      <trkpt lat="47.75052" lon="-1.84751">
        <ele>45.4</ele>
      </trkpt>
      <trkpt lat="47.75052" lon="-1.84748">
        <ele>45.6</ele>
      </trkpt>
      <trkpt lat="47.75053" lon="-1.84744">
        <ele>45.8</ele>
      </trkpt>
      <trkpt lat="47.75054" lon="-1.84741">
        <ele>45.9</ele>
      </trkpt>
      <trkpt lat="47.75055" lon="-1.84738">
        <ele>46.2</ele>
      </trkpt>
      <trkpt lat="47.75056" lon="-1.84734">
        <ele>46.4</ele>
      </trkpt>
      <trkpt lat="47.75057" lon="-1.84731">
        <ele>46.6</ele>
      </trkpt>
      <trkpt lat="47.75058" lon="-1.84728">
        <ele>46.9</ele>
      </trkpt>
      <trkpt lat="47.75059" lon="-1.84726">
        <ele>47.1</ele>
      </trkpt>
      <trkpt lat="47.7506" lon="-1.84723">
        <ele>47.3</ele>
      </trkpt>
      <trkpt lat="47.7506" lon="-1.8472">
        <ele>47.4</ele>
      </trkpt>
      <trkpt lat="47.75059" lon="-1.84718">
        <ele>47.4</ele>
      </trkpt>
      <trkpt lat="47.75058" lon="-1.84716">
        <ele>47.2</ele>
      </trkpt>
      <trkpt lat="47.75056" lon="-1.84714">
        <ele>46.9</ele>
      </trkpt>
      <trkpt lat="47.75054" lon="-1.84713">
        <ele>46.6</ele>
      </trkpt>
      <trkpt lat="47.75051" lon="-1.84711">
        <ele>46.2</ele>
      </trkpt>
      <trkpt lat="47.75048" lon="-1.84709">
        <ele>45.8</ele>
      </trkpt>
      <trkpt lat="47.75045" lon="-1.84709">
        <ele>45.3</ele>
      </trkpt>
      <trkpt lat="47.75042" lon="-1.8471">
        <ele>44.9</ele>
      </trkpt>
      <trkpt lat="47.7504" lon="-1.84711">
        <ele>44.4</ele>
      </trkpt>
      <trkpt lat="47.75035" lon="-1.8471">
        <ele>43.7</ele>
      </trkpt>
      <trkpt lat="47.75031" lon="-1.84707">
        <ele>43.1</ele>
      </trkpt>
      <trkpt lat="47.75027" lon="-1.84705">
        <ele>42.4</ele>
      </trkpt>
      <trkpt lat="47.75023" lon="-1.84703">
        <ele>41.8</ele>
      </trkpt>
      <trkpt lat="47.7502" lon="-1.84702">
        <ele>41.3</ele>
      </trkpt>
      <trkpt lat="47.75017" lon="-1.847">
        <ele>40.8</ele>
      </trkpt>
      <trkpt lat="47.75014" lon="-1.84696">
        <ele>40.3</ele>
      </trkpt>
      <trkpt lat="47.75012" lon="-1.84692">
        <ele>40</ele>
      </trkpt>
      <trkpt lat="47.7501" lon="-1.84688">
        <ele>39.8</ele>
      </trkpt>
      <trkpt lat="47.75008" lon="-1.84683">
        <ele>39.3</ele>
      </trkpt>
      <trkpt lat="47.75005" lon="-1.84679">
        <ele>38.9</ele>
      </trkpt>
      <trkpt lat="47.75002" lon="-1.84676">
        <ele>38.4</ele>
      </trkpt>
      <trkpt lat="47.75001" lon="-1.84674">
        <ele>38.2</ele>
      </trkpt>
      <trkpt lat="47.74999" lon="-1.84673">
        <ele>38</ele>
      </trkpt>
      <trkpt lat="47.74999" lon="-1.84673">
        <ele>38</ele>
      </trkpt>
      <trkpt lat="47.74997" lon="-1.84673">
        <ele>37.9</ele>
      </trkpt>
      <trkpt lat="47.74995" lon="-1.84673">
        <ele>37.8</ele>
      </trkpt>
      <trkpt lat="47.74993" lon="-1.84673">
        <ele>37.8</ele>
      </trkpt>
      <trkpt lat="47.7499" lon="-1.84672">
        <ele>37.7</ele>
      </trkpt>
      <trkpt lat="47.74989" lon="-1.8467">
        <ele>37.6</ele>
      </trkpt>
      <trkpt lat="47.74986" lon="-1.84668">
        <ele>37.5</ele>
      </trkpt>
      <trkpt lat="47.74984" lon="-1.84668">
        <ele>37.4</ele>
      </trkpt>
      <trkpt lat="47.74983" lon="-1.84669">
        <ele>37.4</ele>
      </trkpt>
      <trkpt lat="47.74983" lon="-1.84671">
        <ele>37.5</ele>
      </trkpt>
      <trkpt lat="47.74984" lon="-1.84674">
        <ele>37.5</ele>
      </trkpt>
      <trkpt lat="47.74985" lon="-1.84677">
        <ele>37.6</ele>
      </trkpt>
      <trkpt lat="47.74985" lon="-1.8468">
        <ele>37.6</ele>
      </trkpt>
      <trkpt lat="47.74986" lon="-1.84685">
        <ele>37.7</ele>
      </trkpt>
      <trkpt lat="47.74988" lon="-1.84691">
        <ele>37.8</ele>
      </trkpt>
      <trkpt lat="47.74989" lon="-1.84696">
        <ele>37.8</ele>
      </trkpt>
      <trkpt lat="47.7499" lon="-1.847">
        <ele>37.9</ele>
      </trkpt>
      <trkpt lat="47.74991" lon="-1.84704">
        <ele>37.9</ele>
      </trkpt>
      <trkpt lat="47.74991" lon="-1.84709">
        <ele>38</ele>
      </trkpt>
      <trkpt lat="47.74991" lon="-1.84712">
        <ele>38</ele>
      </trkpt>
      <trkpt lat="47.74991" lon="-1.84716">
        <ele>38</ele>
      </trkpt>
      <trkpt lat="47.74991" lon="-1.8472">
        <ele>38</ele>
      </trkpt>
      <trkpt lat="47.74992" lon="-1.84724">
        <ele>38</ele>
      </trkpt>
      <trkpt lat="47.74994" lon="-1.84727">
        <ele>38</ele>
      </trkpt>
      <trkpt lat="47.74994" lon="-1.8473">
        <ele>38.1</ele>
      </trkpt>
      <trkpt lat="47.74994" lon="-1.84733">
        <ele>38.1</ele>
      </trkpt>
      <trkpt lat="47.74993" lon="-1.84736">
        <ele>38.1</ele>
      </trkpt>
      <trkpt lat="47.74994" lon="-1.84739">
        <ele>38.1</ele>
      </trkpt>
      <trkpt lat="47.74995" lon="-1.84743">
        <ele>38.1</ele>
      </trkpt>
      <trkpt lat="47.74995" lon="-1.84748">
        <ele>38.1</ele>
      </trkpt>
      <trkpt lat="47.74996" lon="-1.84752">
        <ele>38.2</ele>
      </trkpt>
      <trkpt lat="47.74997" lon="-1.84755">
        <ele>38.3</ele>
      </trkpt>
      <trkpt lat="47.74998" lon="-1.8476">
        <ele>38.5</ele>
      </trkpt>
      <trkpt lat="47.74999" lon="-1.84765">
        <ele>38.7</ele>
      </trkpt>
      <trkpt lat="47.74999" lon="-1.84769">
        <ele>38.9</ele>
      </trkpt>
      <trkpt lat="47.75" lon="-1.84771">
        <ele>39</ele>
      </trkpt>
      <trkpt lat="47.75001" lon="-1.84772">
        <ele>39.1</ele>
      </trkpt>
      <trkpt lat="47.75002" lon="-1.84772">
        <ele>39.3</ele>
      </trkpt>
      <trkpt lat="47.75003" lon="-1.84771">
        <ele>39.4</ele>
      </trkpt>
      <trkpt lat="47.75004" lon="-1.84769">
        <ele>39.4</ele>
      </trkpt>
      <trkpt lat="47.75004" lon="-1.84767">
        <ele>39.3</ele>
      </trkpt>
      <trkpt lat="47.75004" lon="-1.84765">
        <ele>39.3</ele>
      </trkpt>
      <trkpt lat="47.75004" lon="-1.84763">
        <ele>39.2</ele>
      </trkpt>
      <trkpt lat="47.75004" lon="-1.84762">
        <ele>39.2</ele>
      </trkpt>
      <trkpt lat="47.75005" lon="-1.8476">
        <ele>39.1</ele>
      </trkpt>
      <trkpt lat="47.75005" lon="-1.84759">
        <ele>39.1</ele>
      </trkpt>
      <trkpt lat="47.75005" lon="-1.84758">
        <ele>39.1</ele>
      </trkpt>
      <trkpt lat="47.75005" lon="-1.84757">
        <ele>39</ele>
      </trkpt>
      <trkpt lat="47.75005" lon="-1.84757">
        <ele>39</ele>
      </trkpt>
      <trkpt lat="47.75005" lon="-1.84757">
        <ele>39</ele>
      </trkpt>
      <trkpt lat="47.75005" lon="-1.84757">
        <ele>39</ele>
      </trkpt>
      <trkpt lat="47.75005" lon="-1.84757">
        <ele>39</ele>
      </trkpt>
      <trkpt lat="47.75005" lon="-1.84754">
        <ele>39</ele>
      </trkpt>
      <trkpt lat="47.75006" lon="-1.84752">
        <ele>38.9</ele>
      </trkpt>
      <trkpt lat="47.75006" lon="-1.8475">
        <ele>38.8</ele>
      </trkpt>
      <trkpt lat="47.75006" lon="-1.84747">
        <ele>38.9</ele>
      </trkpt>
      <trkpt lat="47.75006" lon="-1.84745">
        <ele>38.9</ele>
      </trkpt>
      <trkpt lat="47.75006" lon="-1.84743">
        <ele>38.8</ele>
      </trkpt>
      <trkpt lat="47.75005" lon="-1.84741">
        <ele>38.8</ele>
      </trkpt>
      <trkpt lat="47.75006" lon="-1.84739">
        <ele>38.9</ele>
      </trkpt>
      <trkpt lat="47.75006" lon="-1.84738">
        <ele>39</ele>
      </trkpt>
      <trkpt lat="47.75007" lon="-1.84738">
        <ele>39.1</ele>
      </trkpt>
      <trkpt lat="47.75008" lon="-1.84738">
        <ele>39.2</ele>
      </trkpt>
      <trkpt lat="47.75009" lon="-1.84739">
        <ele>39.3</ele>
      </trkpt>
      <trkpt lat="47.7501" lon="-1.84741">
        <ele>39.5</ele>
      </trkpt>
      <trkpt lat="47.75011" lon="-1.84742">
        <ele>39.6</ele>
      </trkpt>
      <trkpt lat="47.75012" lon="-1.84743">
        <ele>39.8</ele>
      </trkpt>
      <trkpt lat="47.75013" lon="-1.84744">
        <ele>39.9</ele>
      </trkpt>
      <trkpt lat="47.75014" lon="-1.84744">
        <ele>40</ele>
      </trkpt>
      <trkpt lat="47.75015" lon="-1.84745">
        <ele>40.1</ele>
      </trkpt>
      <trkpt lat="47.75015" lon="-1.84745">
        <ele>40.2</ele>
      </trkpt>
      <trkpt lat="47.75016" lon="-1.84746">
        <ele>40.3</ele>
      </trkpt>
      <trkpt lat="47.75017" lon="-1.84747">
        <ele>40.4</ele>
      </trkpt>
      <trkpt lat="47.75018" lon="-1.84749">
        <ele>40.6</ele>
      </trkpt>
      <trkpt lat="47.75018" lon="-1.8475">
        <ele>40.6</ele>
      </trkpt>
      <trkpt lat="47.75019" lon="-1.84751">
        <ele>40.8</ele>
      </trkpt>
      <trkpt lat="47.7502" lon="-1.84753">
        <ele>41</ele>
      </trkpt>
      <trkpt lat="47.7502" lon="-1.84754">
        <ele>41</ele>
      </trkpt>
      <trkpt lat="47.7502" lon="-1.84754">
        <ele>41</ele>
      </trkpt>
      <trkpt lat="47.7502" lon="-1.84754">
        <ele>41</ele>
      </trkpt>
      <trkpt lat="47.7502" lon="-1.84754">
        <ele>41</ele>
      </trkpt>
      <trkpt lat="47.7502" lon="-1.84754">
        <ele>41</ele>
      </trkpt>
      <trkpt lat="47.7502" lon="-1.84754">
        <ele>41</ele>
      </trkpt>
      <trkpt lat="47.7502" lon="-1.84754">
        <ele>41</ele>
      </trkpt>
      <trkpt lat="47.7502" lon="-1.84754">
        <ele>41</ele>
      </trkpt>
      <trkpt lat="47.7502" lon="-1.84754">
        <ele>41</ele>
      </trkpt>
      <trkpt lat="47.7502" lon="-1.84754">
        <ele>41</ele>
      </trkpt>
      <trkpt lat="47.7502" lon="-1.84754">
        <ele>41</ele>
      </trkpt>
      <trkpt lat="47.7502" lon="-1.84754">
        <ele>41</ele>
      </trkpt>
      <trkpt lat="47.7502" lon="-1.84754">
        <ele>41</ele>
      </trkpt>
      <trkpt lat="47.7502" lon="-1.84754">
        <ele>41</ele>
      </trkpt>
      <trkpt lat="47.7502" lon="-1.84754">
        <ele>41</ele>
      </trkpt>
      <trkpt lat="47.7502" lon="-1.84754">
        <ele>41</ele>
      </trkpt>
      <trkpt lat="47.7502" lon="-1.84754">
        <ele>41</ele>
      </trkpt>
      <trkpt lat="47.7502" lon="-1.84754">
        <ele>41</ele>
      </trkpt>
      <trkpt lat="47.7502" lon="-1.84754">
        <ele>41</ele>
      </trkpt>
      <trkpt lat="47.75021" lon="-1.84754">
        <ele>41.2</ele>
      </trkpt>
      <trkpt lat="47.75022" lon="-1.84754">
        <ele>41.3</ele>
      </trkpt>
      <trkpt lat="47.75022" lon="-1.84754">
        <ele>41.3</ele>
      </trkpt>
      <trkpt lat="47.75022" lon="-1.84754">
        <ele>41.3</ele>
      </trkpt>
      <trkpt lat="47.75022" lon="-1.84755">
        <ele>41.3</ele>
      </trkpt>
      <trkpt lat="47.75023" lon="-1.84755">
        <ele>41.5</ele>
      </trkpt>
      <trkpt lat="47.75024" lon="-1.84756">
        <ele>41.6</ele>
      </trkpt>
      <trkpt lat="47.75025" lon="-1.84757">
        <ele>41.8</ele>
      </trkpt>
      <trkpt lat="47.75025" lon="-1.84758">
        <ele>41.9</ele>
      </trkpt>
      <trkpt lat="47.75025" lon="-1.84758">
        <ele>41.9</ele>
      </trkpt>
      <trkpt lat="47.75025" lon="-1.84758">
        <ele>41.9</ele>
      </trkpt>
      <trkpt lat="47.75025" lon="-1.84758">
        <ele>41.9</ele>
      </trkpt>
      <trkpt lat="47.75025" lon="-1.84758">
        <ele>41.9</ele>
      </trkpt>
      <trkpt lat="47.75025" lon="-1.84758">
        <ele>41.9</ele>
      </trkpt>
      <trkpt lat="47.75025" lon="-1.84758">
        <ele>41.9</ele>
      </trkpt>
      <trkpt lat="47.75026" lon="-1.84759">
        <ele>42.1</ele>
      </trkpt>
      <trkpt lat="47.75028" lon="-1.84762">
        <ele>42.4</ele>
      </trkpt>
      <trkpt lat="47.75029" lon="-1.84764">
        <ele>42.6</ele>
      </trkpt>
      <trkpt lat="47.75029" lon="-1.84765">
        <ele>42.7</ele>
      </trkpt>
      <trkpt lat="47.75029" lon="-1.84767">
        <ele>42.8</ele>
      </trkpt>
      <trkpt lat="47.75029" lon="-1.8477">
        <ele>42.8</ele>
      </trkpt>
      <trkpt lat="47.75028" lon="-1.84772">
        <ele>42.7</ele>
      </trkpt>
      <trkpt lat="47.75028" lon="-1.84774">
        <ele>42.8</ele>
      </trkpt>
      <trkpt lat="47.75027" lon="-1.84777">
        <ele>42.7</ele>
      </trkpt>
      <trkpt lat="47.75026" lon="-1.84779">
        <ele>42.7</ele>
      </trkpt>
      <trkpt lat="47.75025" lon="-1.84781">
        <ele>42.7</ele>
      </trkpt>
      <trkpt lat="47.75025" lon="-1.84783">
        <ele>42.7</ele>
      </trkpt>
      <trkpt lat="47.75024" lon="-1.84786">
        <ele>42.7</ele>
      </trkpt>
      <trkpt lat="47.75024" lon="-1.84789">
        <ele>42.7</ele>
      </trkpt>
      <trkpt lat="47.75023" lon="-1.84792">
        <ele>42.7</ele>
      </trkpt>
      <trkpt lat="47.75022" lon="-1.84796">
        <ele>42.8</ele>
      </trkpt>
      <trkpt lat="47.75022" lon="-1.848">
        <ele>42.9</ele>
      </trkpt>
      <trkpt lat="47.75022" lon="-1.84805">
        <ele>43.1</ele>
      </trkpt>
      <trkpt lat="47.75024" lon="-1.84808">
        <ele>43.4</ele>
      </trkpt>
      <trkpt lat="47.75024" lon="-1.84811">
        <ele>43.6</ele>
      </trkpt>
      <trkpt lat="47.75025" lon="-1.84815">
        <ele>43.8</ele>
      </trkpt>
      <trkpt lat="47.75025" lon="-1.84821">
        <ele>44</ele>
      </trkpt>
      <trkpt lat="47.75026" lon="-1.84826">
        <ele>44.3</ele>
      </trkpt>
      <trkpt lat="47.75026" lon="-1.8483">
        <ele>44.4</ele>
      </trkpt>
      <trkpt lat="47.75025" lon="-1.84834">
        <ele>44.4</ele>
      </trkpt>
      <trkpt lat="47.75024" lon="-1.84838">
        <ele>44.3</ele>
      </trkpt>
      <trkpt lat="47.75022" lon="-1.84842">
        <ele>44.2</ele>
      </trkpt>
      <trkpt lat="47.75022" lon="-1.84847">
        <ele>44.2</ele>
      </trkpt>
      <trkpt lat="47.75022" lon="-1.84852">
        <ele>44.1</ele>
      </trkpt>
      <trkpt lat="47.75021" lon="-1.84856">
        <ele>44.1</ele>
      </trkpt>
      <trkpt lat="47.75021" lon="-1.8486">
        <ele>44.1</ele>
      </trkpt>
      <trkpt lat="47.75021" lon="-1.84863">
        <ele>44.1</ele>
      </trkpt>
      <trkpt lat="47.75021" lon="-1.84868">
        <ele>44.1</ele>
      </trkpt>
      <trkpt lat="47.75021" lon="-1.84873">
        <ele>44.2</ele>
      </trkpt>
      <trkpt lat="47.75024" lon="-1.84882">
        <ele>44.4</ele>
      </trkpt>
      <trkpt lat="47.75025" lon="-1.84891">
        <ele>44.5</ele>
      </trkpt>
      <trkpt lat="47.75027" lon="-1.84897">
        <ele>44.6</ele>
      </trkpt>
      <trkpt lat="47.75028" lon="-1.849">
        <ele>44.7</ele>
      </trkpt>
      <trkpt lat="47.75029" lon="-1.84903">
        <ele>44.8</ele>
      </trkpt>
      <trkpt lat="47.75031" lon="-1.84905">
        <ele>44.9</ele>
      </trkpt>
      <trkpt lat="47.75033" lon="-1.84905">
        <ele>45</ele>
      </trkpt>
      <trkpt lat="47.75035" lon="-1.84907">
        <ele>45.1</ele>
      </trkpt>
      <trkpt lat="47.75037" lon="-1.84909">
        <ele>45.2</ele>
      </trkpt>
      <trkpt lat="47.75038" lon="-1.84911">
        <ele>45.3</ele>
      </trkpt>
      <trkpt lat="47.75038" lon="-1.84914">
        <ele>45.3</ele>
      </trkpt>
      <trkpt lat="47.75038" lon="-1.84918">
        <ele>45.3</ele>
      </trkpt>
      <trkpt lat="47.75037" lon="-1.84921">
        <ele>45.3</ele>
      </trkpt>
      <trkpt lat="47.75036" lon="-1.84922">
        <ele>45.3</ele>
      </trkpt>
      <trkpt lat="47.75035" lon="-1.84925">
        <ele>45.3</ele>
      </trkpt>
      <trkpt lat="47.75033" lon="-1.8493">
        <ele>45.4</ele>
      </trkpt>
      <trkpt lat="47.75033" lon="-1.84936">
        <ele>45.5</ele>
      </trkpt>
      <trkpt lat="47.75033" lon="-1.8494">
        <ele>45.6</ele>
      </trkpt>
      <trkpt lat="47.75033" lon="-1.84945">
        <ele>45.8</ele>
      </trkpt>
      <trkpt lat="47.75033" lon="-1.8495">
        <ele>45.9</ele>
      </trkpt>
      <trkpt lat="47.75033" lon="-1.84954">
        <ele>46</ele>
      </trkpt>
      <trkpt lat="47.75033" lon="-1.84958">
        <ele>46.2</ele>
      </trkpt>
      <trkpt lat="47.75033" lon="-1.84963">
        <ele>46.3</ele>
      </trkpt>
      <trkpt lat="47.75034" lon="-1.84968">
        <ele>46.5</ele>
      </trkpt>
      <trkpt lat="47.75034" lon="-1.84972">
        <ele>46.6</ele>
      </trkpt>
      <trkpt lat="47.75035" lon="-1.84976">
        <ele>46.8</ele>
      </trkpt>
      <trkpt lat="47.75036" lon="-1.84981">
        <ele>47</ele>
      </trkpt>
      <trkpt lat="47.75037" lon="-1.84987">
        <ele>47.3</ele>
      </trkpt>
      <trkpt lat="47.75038" lon="-1.8499">
        <ele>47.5</ele>
      </trkpt>
      <trkpt lat="47.7504" lon="-1.84994">
        <ele>47.7</ele>
      </trkpt>
      <trkpt lat="47.75042" lon="-1.84998">
        <ele>47.9</ele>
      </trkpt>
      <trkpt lat="47.75043" lon="-1.85002">
        <ele>48.1</ele>
      </trkpt>
      <trkpt lat="47.75044" lon="-1.85006">
        <ele>48.3</ele>
      </trkpt>
      <trkpt lat="47.75045" lon="-1.8501">
        <ele>48.4</ele>
      </trkpt>
      <trkpt lat="47.75047" lon="-1.85015">
        <ele>48.6</ele>
      </trkpt>
      <trkpt lat="47.75048" lon="-1.8502">
        <ele>48.7</ele>
      </trkpt>
      <trkpt lat="47.75048" lon="-1.85025">
        <ele>48.8</ele>
      </trkpt>
      <trkpt lat="47.7505" lon="-1.85029">
        <ele>48.9</ele>
      </trkpt>
      <trkpt lat="47.75051" lon="-1.85034">
        <ele>49.1</ele>
      </trkpt>
      <trkpt lat="47.75052" lon="-1.85038">
        <ele>49.1</ele>
      </trkpt>
      <trkpt lat="47.75053" lon="-1.85042">
        <ele>49.2</ele>
      </trkpt>
      <trkpt lat="47.75054" lon="-1.85046">
        <ele>49.3</ele>
      </trkpt>
      <trkpt lat="47.75054" lon="-1.8505">
        <ele>49.4</ele>
      </trkpt>
      <trkpt lat="47.75055" lon="-1.85054">
        <ele>49.4</ele>
      </trkpt>
      <trkpt lat="47.75056" lon="-1.85058">
        <ele>49.5</ele>
      </trkpt>
      <trkpt lat="47.75057" lon="-1.85062">
        <ele>49.5</ele>
      </trkpt>
      <trkpt lat="47.75058" lon="-1.85066">
        <ele>49.6</ele>
      </trkpt>
      <trkpt lat="47.75059" lon="-1.8507">
        <ele>49.6</ele>
      </trkpt>
      <trkpt lat="47.75059" lon="-1.85074">
        <ele>49.7</ele>
      </trkpt>
      <trkpt lat="47.7506" lon="-1.85078">
        <ele>49.7</ele>
      </trkpt>
      <trkpt lat="47.75061" lon="-1.85082">
        <ele>49.7</ele>
      </trkpt>
      <trkpt lat="47.75062" lon="-1.85086">
        <ele>49.8</ele>
      </trkpt>
      <trkpt lat="47.75063" lon="-1.8509">
        <ele>49.9</ele>
      </trkpt>
      <trkpt lat="47.75064" lon="-1.85094">
        <ele>50</ele>
      </trkpt>
      <trkpt lat="47.75065" lon="-1.85099">
        <ele>50.1</ele>
      </trkpt>
      <trkpt lat="47.75066" lon="-1.85103">
        <ele>50.2</ele>
      </trkpt>
      <trkpt lat="47.75067" lon="-1.85107">
        <ele>50.3</ele>
      </trkpt>
      <trkpt lat="47.75067" lon="-1.85111">
        <ele>50.4</ele>
      </trkpt>
      <trkpt lat="47.75068" lon="-1.85115">
        <ele>50.5</ele>
      </trkpt>
      <trkpt lat="47.75069" lon="-1.85119">
        <ele>50.6</ele>
      </trkpt>
      <trkpt lat="47.7507" lon="-1.85123">
        <ele>50.6</ele>
      </trkpt>
      <trkpt lat="47.7507" lon="-1.85127">
        <ele>50.7</ele>
      </trkpt>
      <trkpt lat="47.75071" lon="-1.85131">
        <ele>50.8</ele>
      </trkpt>
      <trkpt lat="47.7507" lon="-1.85134">
        <ele>50.8</ele>
      </trkpt>
      <trkpt lat="47.7507" lon="-1.85138">
        <ele>50.9</ele>
      </trkpt>
      <trkpt lat="47.75071" lon="-1.85143">
        <ele>51</ele>
      </trkpt>
      <trkpt lat="47.75071" lon="-1.85146">
        <ele>51.1</ele>
      </trkpt>
      <trkpt lat="47.75071" lon="-1.8515">
        <ele>51.1</ele>
      </trkpt>
      <trkpt lat="47.75071" lon="-1.85155">
        <ele>51.2</ele>
      </trkpt>
      <trkpt lat="47.75072" lon="-1.8516">
        <ele>51.3</ele>
      </trkpt>
      <trkpt lat="47.75072" lon="-1.85164">
        <ele>51.4</ele>
      </trkpt>
      <trkpt lat="47.75072" lon="-1.85168">
        <ele>51.4</ele>
      </trkpt>
      <trkpt lat="47.75072" lon="-1.85172">
        <ele>51.5</ele>
      </trkpt>
      <trkpt lat="47.75072" lon="-1.85177">
        <ele>51.5</ele>
      </trkpt>
      <trkpt lat="47.75073" lon="-1.85182">
        <ele>51.6</ele>
      </trkpt>
      <trkpt lat="47.75073" lon="-1.85185">
        <ele>51.6</ele>
      </trkpt>
      <trkpt lat="47.75073" lon="-1.8519">
        <ele>51.7</ele>
      </trkpt>
      <trkpt lat="47.75073" lon="-1.85194">
        <ele>51.7</ele>
      </trkpt>
      <trkpt lat="47.75074" lon="-1.85199">
        <ele>51.8</ele>
      </trkpt>
      <trkpt lat="47.75074" lon="-1.85203">
        <ele>51.8</ele>
      </trkpt>
      <trkpt lat="47.75074" lon="-1.85207">
        <ele>51.9</ele>
      </trkpt>
      <trkpt lat="47.75074" lon="-1.85212">
        <ele>51.9</ele>
      </trkpt>
      <trkpt lat="47.75074" lon="-1.85216">
        <ele>52</ele>
      </trkpt>
      <trkpt lat="47.75075" lon="-1.85221">
        <ele>52</ele>
      </trkpt>
      <trkpt lat="47.75075" lon="-1.85224">
        <ele>52.1</ele>
      </trkpt>
      <trkpt lat="47.75075" lon="-1.85229">
        <ele>52.1</ele>
      </trkpt>
      <trkpt lat="47.75075" lon="-1.85233">
        <ele>52.2</ele>
      </trkpt>
      <trkpt lat="47.75075" lon="-1.85237">
        <ele>52.2</ele>
      </trkpt>
      <trkpt lat="47.75075" lon="-1.85242">
        <ele>52.3</ele>
      </trkpt>
      <trkpt lat="47.75076" lon="-1.85246">
        <ele>52.3</ele>
      </trkpt>
      <trkpt lat="47.75076" lon="-1.85251">
        <ele>52.4</ele>
      </trkpt>
      <trkpt lat="47.75077" lon="-1.85255">
        <ele>52.5</ele>
      </trkpt>
      <trkpt lat="47.75077" lon="-1.85259">
        <ele>52.7</ele>
      </trkpt>
      <trkpt lat="47.75077" lon="-1.85264">
        <ele>52.8</ele>
      </trkpt>
      <trkpt lat="47.75077" lon="-1.85268">
        <ele>53</ele>
      </trkpt>
      <trkpt lat="47.75078" lon="-1.85272">
        <ele>53.1</ele>
      </trkpt>
      <trkpt lat="47.75078" lon="-1.85277">
        <ele>53.2</ele>
      </trkpt>
      <trkpt lat="47.75078" lon="-1.85281">
        <ele>53.4</ele>
      </trkpt>
      <trkpt lat="47.75078" lon="-1.85285">
        <ele>53.5</ele>
      </trkpt>
      <trkpt lat="47.75079" lon="-1.8529">
        <ele>53.7</ele>
      </trkpt>
      <trkpt lat="47.75079" lon="-1.85294">
        <ele>53.9</ele>
      </trkpt>
      <trkpt lat="47.75079" lon="-1.85298">
        <ele>54</ele>
      </trkpt>
      <trkpt lat="47.75079" lon="-1.85303">
        <ele>54.1</ele>
      </trkpt>
      <trkpt lat="47.7508" lon="-1.85307">
        <ele>54.3</ele>
      </trkpt>
      <trkpt lat="47.7508" lon="-1.85311">
        <ele>54.4</ele>
      </trkpt>
      <trkpt lat="47.7508" lon="-1.85315">
        <ele>54.5</ele>
      </trkpt>
      <trkpt lat="47.75081" lon="-1.8532">
        <ele>54.7</ele>
      </trkpt>
      <trkpt lat="47.75081" lon="-1.85324">
        <ele>54.8</ele>
      </trkpt>
      <trkpt lat="47.75081" lon="-1.85329">
        <ele>55</ele>
      </trkpt>
      <trkpt lat="47.75082" lon="-1.85333">
        <ele>55.1</ele>
      </trkpt>
      <trkpt lat="47.75082" lon="-1.85337">
        <ele>55.2</ele>
      </trkpt>
      <trkpt lat="47.75082" lon="-1.85342">
        <ele>55.3</ele>
      </trkpt>
      <trkpt lat="47.75083" lon="-1.85347">
        <ele>55.3</ele>
      </trkpt>
      <trkpt lat="47.75084" lon="-1.85351">
        <ele>55.5</ele>
      </trkpt>
      <trkpt lat="47.75084" lon="-1.85356">
        <ele>55.6</ele>
      </trkpt>
      <trkpt lat="47.75085" lon="-1.85361">
        <ele>55.8</ele>
      </trkpt>
      <trkpt lat="47.75086" lon="-1.85366">
        <ele>56</ele>
      </trkpt>
      <trkpt lat="47.75086" lon="-1.8537">
        <ele>56.2</ele>
      </trkpt>
      <trkpt lat="47.75086" lon="-1.85376">
        <ele>56.3</ele>
      </trkpt>
      <trkpt lat="47.75086" lon="-1.85381">
        <ele>56.5</ele>
      </trkpt>
      <trkpt lat="47.75087" lon="-1.85386">
        <ele>56.6</ele>
      </trkpt>
      <trkpt lat="47.75087" lon="-1.85391">
        <ele>56.8</ele>
      </trkpt>
      <trkpt lat="47.75087" lon="-1.85396">
        <ele>56.9</ele>
      </trkpt>
      <trkpt lat="47.75088" lon="-1.85402">
        <ele>57.1</ele>
      </trkpt>
      <trkpt lat="47.75088" lon="-1.85407">
        <ele>57.2</ele>
      </trkpt>
      <trkpt lat="47.75088" lon="-1.85412">
        <ele>57.4</ele>
      </trkpt>
      <trkpt lat="47.75088" lon="-1.85417">
        <ele>57.6</ele>
      </trkpt>
      <trkpt lat="47.75089" lon="-1.85423">
        <ele>57.7</ele>
      </trkpt>
      <trkpt lat="47.7509" lon="-1.85428">
        <ele>57.9</ele>
      </trkpt>
      <trkpt lat="47.7509" lon="-1.85433">
        <ele>58.1</ele>
      </trkpt>
      <trkpt lat="47.7509" lon="-1.85439">
        <ele>58.2</ele>
      </trkpt>
      <trkpt lat="47.75091" lon="-1.85445">
        <ele>58.4</ele>
      </trkpt>
      <trkpt lat="47.75091" lon="-1.8545">
        <ele>58.5</ele>
      </trkpt>
      <trkpt lat="47.75091" lon="-1.85456">
        <ele>58.7</ele>
      </trkpt>
      <trkpt lat="47.75092" lon="-1.85461">
        <ele>58.8</ele>
      </trkpt>
      <trkpt lat="47.75093" lon="-1.85467">
        <ele>59</ele>
      </trkpt>
      <trkpt lat="47.75093" lon="-1.85473">
        <ele>59.2</ele>
      </trkpt>
      <trkpt lat="47.75093" lon="-1.85479">
        <ele>59.3</ele>
      </trkpt>
      <trkpt lat="47.75094" lon="-1.85484">
        <ele>59.4</ele>
      </trkpt>
      <trkpt lat="47.75094" lon="-1.8549">
        <ele>59.6</ele>
      </trkpt>
      <trkpt lat="47.75094" lon="-1.85496">
        <ele>59.7</ele>
      </trkpt>
      <trkpt lat="47.75095" lon="-1.85502">
        <ele>59.9</ele>
      </trkpt>
      <trkpt lat="47.75095" lon="-1.85507">
        <ele>60.1</ele>
      </trkpt>
      <trkpt lat="47.75095" lon="-1.85513">
        <ele>60.3</ele>
      </trkpt>
      <trkpt lat="47.75096" lon="-1.85519">
        <ele>60.5</ele>
      </trkpt>
      <trkpt lat="47.75096" lon="-1.85524">
        <ele>60.7</ele>
      </trkpt>
      <trkpt lat="47.75096" lon="-1.85528">
        <ele>60.9</ele>
      </trkpt>
      <trkpt lat="47.75097" lon="-1.85534">
        <ele>61.1</ele>
      </trkpt>
      <trkpt lat="47.75098" lon="-1.8554">
        <ele>61.3</ele>
      </trkpt>
      <trkpt lat="47.75099" lon="-1.85545">
        <ele>61.5</ele>
      </trkpt>
      <trkpt lat="47.751" lon="-1.8555">
        <ele>61.8</ele>
      </trkpt>
      <trkpt lat="47.75101" lon="-1.85555">
        <ele>62</ele>
      </trkpt>
      <trkpt lat="47.75103" lon="-1.85558">
        <ele>62.2</ele>
      </trkpt>
      <trkpt lat="47.75105" lon="-1.85561">
        <ele>62.4</ele>
      </trkpt>
      <trkpt lat="47.75108" lon="-1.85564">
        <ele>62.6</ele>
      </trkpt>
      <trkpt lat="47.7511" lon="-1.85566">
        <ele>62.8</ele>
      </trkpt>
      <trkpt lat="47.75113" lon="-1.85568">
        <ele>63</ele>
      </trkpt>
      <trkpt lat="47.75115" lon="-1.85569">
        <ele>63.1</ele>
      </trkpt>
      <trkpt lat="47.75117" lon="-1.85569">
        <ele>63.2</ele>
      </trkpt>
      <trkpt lat="47.7512" lon="-1.85569">
        <ele>63.4</ele>
      </trkpt>
      <trkpt lat="47.75123" lon="-1.8557">
        <ele>63.6</ele>
      </trkpt>
      <trkpt lat="47.75125" lon="-1.8557">
        <ele>63.7</ele>
      </trkpt>
      <trkpt lat="47.75127" lon="-1.8557">
        <ele>63.8</ele>
      </trkpt>
      <trkpt lat="47.7513" lon="-1.8557">
        <ele>63.9</ele>
      </trkpt>
      <trkpt lat="47.75133" lon="-1.8557">
        <ele>64.1</ele>
      </trkpt>
      <trkpt lat="47.75135" lon="-1.85571">
        <ele>64.2</ele>
      </trkpt>
      <trkpt lat="47.75138" lon="-1.85571">
        <ele>64.4</ele>
      </trkpt>
      <trkpt lat="47.75141" lon="-1.85571">
        <ele>64.5</ele>
      </trkpt>
      <trkpt lat="47.75143" lon="-1.85572">
        <ele>64.6</ele>
      </trkpt>
      <trkpt lat="47.75145" lon="-1.85572">
        <ele>64.8</ele>
      </trkpt>
      <trkpt lat="47.75149" lon="-1.85572">
        <ele>64.9</ele>
      </trkpt>
      <trkpt lat="47.75151" lon="-1.85573">
        <ele>65.1</ele>
      </trkpt>
      <trkpt lat="47.75154" lon="-1.85573">
        <ele>65.2</ele>
      </trkpt>
      <trkpt lat="47.75156" lon="-1.85573">
        <ele>65.3</ele>
      </trkpt>
      <trkpt lat="47.75158" lon="-1.85573">
        <ele>65.5</ele>
      </trkpt>
      <trkpt lat="47.75161" lon="-1.85574">
        <ele>65.6</ele>
      </trkpt>
      <trkpt lat="47.75164" lon="-1.85574">
        <ele>65.7</ele>
      </trkpt>
      <trkpt lat="47.75166" lon="-1.85574">
        <ele>65.9</ele>
      </trkpt>
      <trkpt lat="47.75168" lon="-1.85574">
        <ele>66</ele>
      </trkpt>
      <trkpt lat="47.75171" lon="-1.85575">
        <ele>66.2</ele>
      </trkpt>
      <trkpt lat="47.75174" lon="-1.85575">
        <ele>66.4</ele>
      </trkpt>
      <trkpt lat="47.75176" lon="-1.85575">
        <ele>66.6</ele>
      </trkpt>
      <trkpt lat="47.75179" lon="-1.85576">
        <ele>66.8</ele>
      </trkpt>
      <trkpt lat="47.75181" lon="-1.85576">
        <ele>67</ele>
      </trkpt>
      <trkpt lat="47.75183" lon="-1.85576">
        <ele>67.1</ele>
      </trkpt>
      <trkpt lat="47.75186" lon="-1.85577">
        <ele>67.3</ele>
      </trkpt>
      <trkpt lat="47.75189" lon="-1.85577">
        <ele>67.5</ele>
      </trkpt>
      <trkpt lat="47.75191" lon="-1.85578">
        <ele>67.7</ele>
      </trkpt>
      <trkpt lat="47.75194" lon="-1.85579">
        <ele>67.9</ele>
      </trkpt>
      <trkpt lat="47.75196" lon="-1.85579">
        <ele>68.1</ele>
      </trkpt>
      <trkpt lat="47.75198" lon="-1.85579">
        <ele>68.2</ele>
      </trkpt>
      <trkpt lat="47.75201" lon="-1.85579">
        <ele>68.4</ele>
      </trkpt>
      <trkpt lat="47.75203" lon="-1.8558">
        <ele>68.6</ele>
      </trkpt>
      <trkpt lat="47.75205" lon="-1.85581">
        <ele>68.8</ele>
      </trkpt>
      <trkpt lat="47.75207" lon="-1.85581">
        <ele>68.9</ele>
      </trkpt>
      <trkpt lat="47.75209" lon="-1.85582">
        <ele>69.1</ele>
      </trkpt>
      <trkpt lat="47.75212" lon="-1.85583">
        <ele>69.2</ele>
      </trkpt>
      <trkpt lat="47.75213" lon="-1.85586">
        <ele>69.4</ele>
      </trkpt>
      <trkpt lat="47.75215" lon="-1.85588">
        <ele>69.6</ele>
      </trkpt>
      <trkpt lat="47.75216" lon="-1.85591">
        <ele>69.7</ele>
      </trkpt>
      <trkpt lat="47.75216" lon="-1.85594">
        <ele>69.8</ele>
      </trkpt>
      <trkpt lat="47.75217" lon="-1.85597">
        <ele>69.9</ele>
      </trkpt>
      <trkpt lat="47.75217" lon="-1.85602">
        <ele>70</ele>
      </trkpt>
      <trkpt lat="47.75217" lon="-1.85606">
        <ele>70.1</ele>
      </trkpt>
      <trkpt lat="47.75217" lon="-1.85611">
        <ele>70.1</ele>
      </trkpt>
      <trkpt lat="47.75217" lon="-1.85614">
        <ele>70.2</ele>
      </trkpt>
      <trkpt lat="47.75216" lon="-1.85618">
        <ele>70.2</ele>
      </trkpt>
      <trkpt lat="47.75216" lon="-1.85623">
        <ele>70.3</ele>
      </trkpt>
      <trkpt lat="47.75215" lon="-1.85626">
        <ele>70.3</ele>
      </trkpt>
      <trkpt lat="47.75215" lon="-1.85631">
        <ele>70.4</ele>
      </trkpt>
      <trkpt lat="47.75215" lon="-1.85635">
        <ele>70.4</ele>
      </trkpt>
      <trkpt lat="47.75214" lon="-1.85639">
        <ele>70.5</ele>
      </trkpt>
      <trkpt lat="47.75214" lon="-1.85644">
        <ele>70.5</ele>
      </trkpt>
      <trkpt lat="47.75213" lon="-1.8565">
        <ele>70.6</ele>
      </trkpt>
      <trkpt lat="47.75212" lon="-1.85654">
        <ele>70.6</ele>
      </trkpt>
      <trkpt lat="47.75212" lon="-1.85661">
        <ele>70.7</ele>
      </trkpt>
      <trkpt lat="47.75212" lon="-1.85665">
        <ele>70.7</ele>
      </trkpt>
      <trkpt lat="47.75211" lon="-1.8567">
        <ele>70.7</ele>
      </trkpt>
      <trkpt lat="47.7521" lon="-1.85676">
        <ele>70.7</ele>
      </trkpt>
      <trkpt lat="47.7521" lon="-1.85682">
        <ele>70.7</ele>
      </trkpt>
      <trkpt lat="47.75209" lon="-1.85686">
        <ele>70.7</ele>
      </trkpt>
      <trkpt lat="47.75209" lon="-1.85692">
        <ele>70.7</ele>
      </trkpt>
      <trkpt lat="47.75208" lon="-1.85698">
        <ele>70.7</ele>
      </trkpt>
      <trkpt lat="47.75208" lon="-1.85703">
        <ele>70.7</ele>
      </trkpt>
      <trkpt lat="47.75207" lon="-1.85709">
        <ele>70.6</ele>
      </trkpt>
      <trkpt lat="47.75206" lon="-1.85715">
        <ele>70.6</ele>
      </trkpt>
      <trkpt lat="47.75206" lon="-1.85721">
        <ele>70.6</ele>
      </trkpt>
      <trkpt lat="47.75205" lon="-1.85727">
        <ele>70.6</ele>
      </trkpt>
      <trkpt lat="47.75204" lon="-1.85733">
        <ele>70.5</ele>
      </trkpt>
      <trkpt lat="47.75204" lon="-1.85737">
        <ele>70.5</ele>
      </trkpt>
      <trkpt lat="47.75204" lon="-1.85743">
        <ele>70.5</ele>
      </trkpt>
      <trkpt lat="47.75203" lon="-1.85748">
        <ele>70.5</ele>
      </trkpt>
      <trkpt lat="47.75203" lon="-1.85754">
        <ele>70.6</ele>
      </trkpt>
      <trkpt lat="47.75202" lon="-1.8576">
        <ele>70.7</ele>
      </trkpt>
      <trkpt lat="47.75202" lon="-1.85766">
        <ele>70.8</ele>
      </trkpt>
      <trkpt lat="47.75201" lon="-1.85772">
        <ele>71</ele>
      </trkpt>
      <trkpt lat="47.75201" lon="-1.85777">
        <ele>71.1</ele>
      </trkpt>
      <trkpt lat="47.752" lon="-1.85784">
        <ele>71.2</ele>
      </trkpt>
      <trkpt lat="47.75199" lon="-1.85789">
        <ele>71.4</ele>
      </trkpt>
      <trkpt lat="47.75199" lon="-1.85797">
        <ele>71.5</ele>
      </trkpt>
      <trkpt lat="47.75198" lon="-1.85802">
        <ele>71.7</ele>
      </trkpt>
      <trkpt lat="47.75197" lon="-1.85808">
        <ele>71.8</ele>
      </trkpt>
      <trkpt lat="47.75196" lon="-1.85813">
        <ele>71.8</ele>
      </trkpt>
      <trkpt lat="47.75196" lon="-1.8582">
        <ele>72</ele>
      </trkpt>
      <trkpt lat="47.75195" lon="-1.85826">
        <ele>72.2</ele>
      </trkpt>
      <trkpt lat="47.75195" lon="-1.85833">
        <ele>72.3</ele>
      </trkpt>
      <trkpt lat="47.75194" lon="-1.85839">
        <ele>72.4</ele>
      </trkpt>
      <trkpt lat="47.75193" lon="-1.85846">
        <ele>72.4</ele>
      </trkpt>
      <trkpt lat="47.75193" lon="-1.85853">
        <ele>72.4</ele>
      </trkpt>
      <trkpt lat="47.75192" lon="-1.8586">
        <ele>72.5</ele>
      </trkpt>
      <trkpt lat="47.75192" lon="-1.85866">
        <ele>72.5</ele>
      </trkpt>
      <trkpt lat="47.75191" lon="-1.85873">
        <ele>72.5</ele>
      </trkpt>
      <trkpt lat="47.7519" lon="-1.85879">
        <ele>72.5</ele>
      </trkpt>
      <trkpt lat="47.75189" lon="-1.85886">
        <ele>72.5</ele>
      </trkpt>
      <trkpt lat="47.75188" lon="-1.85893">
        <ele>72.5</ele>
      </trkpt>
      <trkpt lat="47.75187" lon="-1.859">
        <ele>72.5</ele>
      </trkpt>
      <trkpt lat="47.75186" lon="-1.85906">
        <ele>72.5</ele>
      </trkpt>
      <trkpt lat="47.75186" lon="-1.85913">
        <ele>72.5</ele>
      </trkpt>
      <trkpt lat="47.75185" lon="-1.85921">
        <ele>72.6</ele>
      </trkpt>
      <trkpt lat="47.75184" lon="-1.85928">
        <ele>72.7</ele>
      </trkpt>
      <trkpt lat="47.75183" lon="-1.85936">
        <ele>72.7</ele>
      </trkpt>
      <trkpt lat="47.75182" lon="-1.85942">
        <ele>72.7</ele>
      </trkpt>
      <trkpt lat="47.75182" lon="-1.85949">
        <ele>72.8</ele>
      </trkpt>
      <trkpt lat="47.75182" lon="-1.85957">
        <ele>72.9</ele>
      </trkpt>
      <trkpt lat="47.75181" lon="-1.85964">
        <ele>72.9</ele>
      </trkpt>
      <trkpt lat="47.7518" lon="-1.85971">
        <ele>73</ele>
      </trkpt>
      <trkpt lat="47.75179" lon="-1.85976">
        <ele>73</ele>
      </trkpt>
      <trkpt lat="47.75179" lon="-1.85982">
        <ele>73</ele>
      </trkpt>
      <trkpt lat="47.75178" lon="-1.85988">
        <ele>73.1</ele>
      </trkpt>
      <trkpt lat="47.75178" lon="-1.85993">
        <ele>73.1</ele>
      </trkpt>
      <trkpt lat="47.75177" lon="-1.86">
        <ele>73.1</ele>
      </trkpt>
      <trkpt lat="47.75176" lon="-1.86007">
        <ele>73.3</ele>
      </trkpt>
      <trkpt lat="47.75175" lon="-1.86014">
        <ele>73.5</ele>
      </trkpt>
      <trkpt lat="47.75175" lon="-1.86021">
        <ele>73.8</ele>
      </trkpt>
      <trkpt lat="47.75174" lon="-1.86028">
        <ele>74</ele>
      </trkpt>
      <trkpt lat="47.75173" lon="-1.86035">
        <ele>74.2</ele>
      </trkpt>
      <trkpt lat="47.75173" lon="-1.86043">
        <ele>74.5</ele>
      </trkpt>
      <trkpt lat="47.75172" lon="-1.86051">
        <ele>74.8</ele>
      </trkpt>
      <trkpt lat="47.75171" lon="-1.86058">
        <ele>75.1</ele>
      </trkpt>
      <trkpt lat="47.75171" lon="-1.86066">
        <ele>75.4</ele>
      </trkpt>
      <trkpt lat="47.75171" lon="-1.86073">
        <ele>75.7</ele>
      </trkpt>
      <trkpt lat="47.7517" lon="-1.86081">
        <ele>76</ele>
      </trkpt>
      <trkpt lat="47.75169" lon="-1.86088">
        <ele>76.1</ele>
      </trkpt>
      <trkpt lat="47.75168" lon="-1.86096">
        <ele>76.2</ele>
      </trkpt>
      <trkpt lat="47.75166" lon="-1.86102">
        <ele>76.2</ele>
      </trkpt>
      <trkpt lat="47.75164" lon="-1.86106">
        <ele>76.2</ele>
      </trkpt>
      <trkpt lat="47.7516" lon="-1.86111">
        <ele>76.2</ele>
      </trkpt>
      <trkpt lat="47.75156" lon="-1.86114">
        <ele>76.2</ele>
      </trkpt>
      <trkpt lat="47.75153" lon="-1.86116">
        <ele>76.2</ele>
      </trkpt>
      <trkpt lat="47.75148" lon="-1.86116">
        <ele>76.1</ele>
      </trkpt>
      <trkpt lat="47.75143" lon="-1.86116">
        <ele>76.1</ele>
      </trkpt>
      <trkpt lat="47.75138" lon="-1.86114">
        <ele>75.9</ele>
      </trkpt>
      <trkpt lat="47.75133" lon="-1.86113">
        <ele>75.8</ele>
      </trkpt>
      <trkpt lat="47.75129" lon="-1.86112">
        <ele>75.7</ele>
      </trkpt>
      <trkpt lat="47.75125" lon="-1.8611">
        <ele>75.6</ele>
      </trkpt>
      <trkpt lat="47.75119" lon="-1.86109">
        <ele>75.5</ele>
      </trkpt>
      <trkpt lat="47.75115" lon="-1.86108">
        <ele>75.4</ele>
      </trkpt>
      <trkpt lat="47.7511" lon="-1.86106">
        <ele>75.3</ele>
      </trkpt>
      <trkpt lat="47.75106" lon="-1.86106">
        <ele>75.2</ele>
      </trkpt>
      <trkpt lat="47.75101" lon="-1.86104">
        <ele>75.1</ele>
      </trkpt>
      <trkpt lat="47.75096" lon="-1.86103">
        <ele>74.9</ele>
      </trkpt>
      <trkpt lat="47.75092" lon="-1.86102">
        <ele>74.8</ele>
      </trkpt>
      <trkpt lat="47.75087" lon="-1.861">
        <ele>74.7</ele>
      </trkpt>
      <trkpt lat="47.75082" lon="-1.86099">
        <ele>74.6</ele>
      </trkpt>
      <trkpt lat="47.75077" lon="-1.86098">
        <ele>74.6</ele>
      </trkpt>
      <trkpt lat="47.75073" lon="-1.86097">
        <ele>74.6</ele>
      </trkpt>
      <trkpt lat="47.75068" lon="-1.86096">
        <ele>74.6</ele>
      </trkpt>
      <trkpt lat="47.75064" lon="-1.86094">
        <ele>74.6</ele>
      </trkpt>
      <trkpt lat="47.75059" lon="-1.86093">
        <ele>74.6</ele>
      </trkpt>
      <trkpt lat="47.75054" lon="-1.86091">
        <ele>74.6</ele>
      </trkpt>
      <trkpt lat="47.7505" lon="-1.86089">
        <ele>74.6</ele>
      </trkpt>
      <trkpt lat="47.75045" lon="-1.86088">
        <ele>74.6</ele>
      </trkpt>
      <trkpt lat="47.75039" lon="-1.86087">
        <ele>74.6</ele>
      </trkpt>
      <trkpt lat="47.75036" lon="-1.86086">
        <ele>74.6</ele>
      </trkpt>
      <trkpt lat="47.75026" lon="-1.86089">
        <ele>74.8</ele>
      </trkpt>
      <trkpt lat="47.75025" lon="-1.86092">
        <ele>74.9</ele>
      </trkpt>
      <trkpt lat="47.75024" lon="-1.86094">
        <ele>74.9</ele>
      </trkpt>
      <trkpt lat="47.75024" lon="-1.86099">
        <ele>75</ele>
      </trkpt>
      <trkpt lat="47.75025" lon="-1.86105">
        <ele>75.1</ele>
      </trkpt>
      <trkpt lat="47.75027" lon="-1.86112">
        <ele>75.2</ele>
      </trkpt>
      <trkpt lat="47.75029" lon="-1.8612">
        <ele>75.4</ele>
      </trkpt>
      <trkpt lat="47.75032" lon="-1.86127">
        <ele>75.5</ele>
      </trkpt>
      <trkpt lat="47.75034" lon="-1.86134">
        <ele>75.7</ele>
      </trkpt>
      <trkpt lat="47.75036" lon="-1.8614">
        <ele>75.8</ele>
      </trkpt>
      <trkpt lat="47.75038" lon="-1.86147">
        <ele>76</ele>
      </trkpt>
      <trkpt lat="47.75041" lon="-1.86155">
        <ele>76.2</ele>
      </trkpt>
      <trkpt lat="47.75044" lon="-1.86163">
        <ele>76.4</ele>
      </trkpt>
      <trkpt lat="47.75046" lon="-1.86169">
        <ele>76.6</ele>
      </trkpt>
      <trkpt lat="47.75048" lon="-1.86175">
        <ele>76.7</ele>
      </trkpt>
      <trkpt lat="47.7505" lon="-1.86182">
        <ele>76.8</ele>
      </trkpt>
      <trkpt lat="47.75053" lon="-1.86191">
        <ele>76.9</ele>
      </trkpt>
      <trkpt lat="47.75055" lon="-1.86198">
        <ele>77</ele>
      </trkpt>
      <trkpt lat="47.75057" lon="-1.86205">
        <ele>77.1</ele>
      </trkpt>
      <trkpt lat="47.7506" lon="-1.86212">
        <ele>77.3</ele>
      </trkpt>
      <trkpt lat="47.75062" lon="-1.86219">
        <ele>77.4</ele>
      </trkpt>
      <trkpt lat="47.75064" lon="-1.86226">
        <ele>77.5</ele>
      </trkpt>
      <trkpt lat="47.75066" lon="-1.86233">
        <ele>77.6</ele>
      </trkpt>
      <trkpt lat="47.75068" lon="-1.8624">
        <ele>77.7</ele>
      </trkpt>
      <trkpt lat="47.75071" lon="-1.86247">
        <ele>77.8</ele>
      </trkpt>
      <trkpt lat="47.75073" lon="-1.86254">
        <ele>77.9</ele>
      </trkpt>
      <trkpt lat="47.75075" lon="-1.86261">
        <ele>77.9</ele>
      </trkpt>
      <trkpt lat="47.75077" lon="-1.86268">
        <ele>77.9</ele>
      </trkpt>
      <trkpt lat="47.7508" lon="-1.86275">
        <ele>77.9</ele>
      </trkpt>
      <trkpt lat="47.75082" lon="-1.86282">
        <ele>78</ele>
      </trkpt>
      <trkpt lat="47.75084" lon="-1.86289">
        <ele>78</ele>
      </trkpt>
      <trkpt lat="47.75086" lon="-1.86296">
        <ele>78</ele>
      </trkpt>
      <trkpt lat="47.75088" lon="-1.86302">
        <ele>78.1</ele>
      </trkpt>
      <trkpt lat="47.7509" lon="-1.86309">
        <ele>78.1</ele>
      </trkpt>
      <trkpt lat="47.75092" lon="-1.86315">
        <ele>78.1</ele>
      </trkpt>
      <trkpt lat="47.75094" lon="-1.86322">
        <ele>78.1</ele>
      </trkpt>
      <trkpt lat="47.75096" lon="-1.86328">
        <ele>78.2</ele>
      </trkpt>
      <trkpt lat="47.75098" lon="-1.86335">
        <ele>78.2</ele>
      </trkpt>
      <trkpt lat="47.751" lon="-1.86342">
        <ele>78.2</ele>
      </trkpt>
      <trkpt lat="47.75102" lon="-1.86349">
        <ele>78.1</ele>
      </trkpt>
      <trkpt lat="47.75104" lon="-1.86356">
        <ele>78.1</ele>
      </trkpt>
      <trkpt lat="47.75106" lon="-1.86362">
        <ele>78.1</ele>
      </trkpt>
      <trkpt lat="47.75108" lon="-1.86369">
        <ele>78</ele>
      </trkpt>
      <trkpt lat="47.7511" lon="-1.86375">
        <ele>78</ele>
      </trkpt>
      <trkpt lat="47.75112" lon="-1.86382">
        <ele>77.9</ele>
      </trkpt>
      <trkpt lat="47.75114" lon="-1.86389">
        <ele>77.9</ele>
      </trkpt>
      <trkpt lat="47.75116" lon="-1.86397">
        <ele>77.8</ele>
      </trkpt>
      <trkpt lat="47.75119" lon="-1.86404">
        <ele>77.7</ele>
      </trkpt>
      <trkpt lat="47.75121" lon="-1.86411">
        <ele>77.6</ele>
      </trkpt>
      <trkpt lat="47.75124" lon="-1.86419">
        <ele>77.5</ele>
      </trkpt>
      <trkpt lat="47.75126" lon="-1.86427">
        <ele>77.2</ele>
      </trkpt>
      <trkpt lat="47.75129" lon="-1.86436">
        <ele>77</ele>
      </trkpt>
      <trkpt lat="47.75132" lon="-1.86444">
        <ele>76.7</ele>
      </trkpt>
      <trkpt lat="47.75134" lon="-1.86454">
        <ele>76.4</ele>
      </trkpt>
      <trkpt lat="47.75137" lon="-1.86463">
        <ele>76.1</ele>
      </trkpt>
      <trkpt lat="47.7514" lon="-1.86473">
        <ele>75.7</ele>
      </trkpt>
      <trkpt lat="47.75143" lon="-1.86483">
        <ele>75.3</ele>
      </trkpt>
      <trkpt lat="47.75147" lon="-1.86494">
        <ele>74.9</ele>
      </trkpt>
      <trkpt lat="47.7515" lon="-1.86504">
        <ele>74.4</ele>
      </trkpt>
      <trkpt lat="47.75154" lon="-1.86516">
        <ele>73.9</ele>
      </trkpt>
      <trkpt lat="47.75157" lon="-1.86527">
        <ele>73.4</ele>
      </trkpt>
      <trkpt lat="47.7516" lon="-1.86539">
        <ele>72.8</ele>
      </trkpt>
      <trkpt lat="47.75163" lon="-1.86552">
        <ele>72.3</ele>
      </trkpt>
      <trkpt lat="47.75164" lon="-1.86564">
        <ele>71.8</ele>
      </trkpt>
      <trkpt lat="47.75165" lon="-1.86577">
        <ele>71.3</ele>
      </trkpt>
      <trkpt lat="47.75165" lon="-1.86589">
        <ele>70.7</ele>
      </trkpt>
      <trkpt lat="47.75165" lon="-1.86602">
        <ele>69.9</ele>
      </trkpt>
      <trkpt lat="47.75166" lon="-1.86615">
        <ele>69.1</ele>
      </trkpt>
      <trkpt lat="47.75166" lon="-1.86628">
        <ele>68.3</ele>
      </trkpt>
      <trkpt lat="47.75166" lon="-1.86642">
        <ele>67.5</ele>
      </trkpt>
      <trkpt lat="47.75166" lon="-1.86656">
        <ele>66.7</ele>
      </trkpt>
      <trkpt lat="47.75166" lon="-1.86671">
        <ele>65.7</ele>
      </trkpt>
      <trkpt lat="47.75166" lon="-1.86686">
        <ele>64.7</ele>
      </trkpt>
      <trkpt lat="47.75166" lon="-1.86701">
        <ele>63.6</ele>
      </trkpt>
      <trkpt lat="47.75166" lon="-1.86717">
        <ele>62.4</ele>
      </trkpt>
      <trkpt lat="47.75166" lon="-1.86733">
        <ele>61.3</ele>
      </trkpt>
      <trkpt lat="47.75166" lon="-1.86749">
        <ele>60.1</ele>
      </trkpt>
      <trkpt lat="47.75166" lon="-1.86766">
        <ele>58.9</ele>
      </trkpt>
      <trkpt lat="47.75165" lon="-1.86784">
        <ele>57.7</ele>
      </trkpt>
      <trkpt lat="47.75165" lon="-1.86801">
        <ele>56.4</ele>
      </trkpt>
      <trkpt lat="47.75165" lon="-1.86818">
        <ele>55.2</ele>
      </trkpt>
      <trkpt lat="47.75165" lon="-1.86835">
        <ele>54</ele>
      </trkpt>
      <trkpt lat="47.75165" lon="-1.86851">
        <ele>53.2</ele>
      </trkpt>
      <trkpt lat="47.75165" lon="-1.86865">
        <ele>52.5</ele>
      </trkpt>
      <trkpt lat="47.75166" lon="-1.86878">
        <ele>51.9</ele>
      </trkpt>
      <trkpt lat="47.75165" lon="-1.86889">
        <ele>51.3</ele>
      </trkpt>
      <trkpt lat="47.75164" lon="-1.869">
        <ele>50.8</ele>
      </trkpt>
      <trkpt lat="47.75162" lon="-1.8691">
        <ele>50.3</ele>
      </trkpt>
      <trkpt lat="47.75159" lon="-1.86918">
        <ele>49.7</ele>
      </trkpt>
      <trkpt lat="47.75153" lon="-1.86926">
        <ele>49</ele>
      </trkpt>
      <trkpt lat="47.75147" lon="-1.8693">
        <ele>48.5</ele>
      </trkpt>
      <trkpt lat="47.75141" lon="-1.86933">
        <ele>48.1</ele>
      </trkpt>
      <trkpt lat="47.75134" lon="-1.86936">
        <ele>47.9</ele>
      </trkpt>
      <trkpt lat="47.75128" lon="-1.86937">
        <ele>47.7</ele>
      </trkpt>
      <trkpt lat="47.75122" lon="-1.86939">
        <ele>47.5</ele>
      </trkpt>
      <trkpt lat="47.75116" lon="-1.8694">
        <ele>47.3</ele>
      </trkpt>
      <trkpt lat="47.7511" lon="-1.86941">
        <ele>47.2</ele>
      </trkpt>
      <trkpt lat="47.75104" lon="-1.86942">
        <ele>47</ele>
      </trkpt>
      <trkpt lat="47.75098" lon="-1.86943">
        <ele>46.9</ele>
      </trkpt>
      <trkpt lat="47.75092" lon="-1.86945">
        <ele>46.7</ele>
      </trkpt>
      <trkpt lat="47.75086" lon="-1.86946">
        <ele>46.5</ele>
      </trkpt>
      <trkpt lat="47.75079" lon="-1.86947">
        <ele>46.3</ele>
      </trkpt>
      <trkpt lat="47.75073" lon="-1.86948">
        <ele>46</ele>
      </trkpt>
      <trkpt lat="47.75066" lon="-1.86948">
        <ele>45.7</ele>
      </trkpt>
      <trkpt lat="47.75059" lon="-1.86948">
        <ele>45.5</ele>
      </trkpt>
      <trkpt lat="47.75052" lon="-1.86947">
        <ele>45.3</ele>
      </trkpt>
      <trkpt lat="47.75046" lon="-1.86946">
        <ele>45.2</ele>
      </trkpt>
      <trkpt lat="47.7504" lon="-1.86945">
        <ele>45.1</ele>
      </trkpt>
      <trkpt lat="47.75033" lon="-1.86944">
        <ele>44.9</ele>
      </trkpt>
      <trkpt lat="47.75027" lon="-1.86942">
        <ele>44.8</ele>
      </trkpt>
      <trkpt lat="47.75021" lon="-1.86941">
        <ele>44.7</ele>
      </trkpt>
      <trkpt lat="47.75014" lon="-1.8694">
        <ele>44.6</ele>
      </trkpt>
      <trkpt lat="47.75008" lon="-1.86939">
        <ele>44.4</ele>
      </trkpt>
      <trkpt lat="47.75002" lon="-1.86937">
        <ele>44.3</ele>
      </trkpt>
      <trkpt lat="47.74996" lon="-1.86936">
        <ele>44.1</ele>
      </trkpt>
      <trkpt lat="47.7499" lon="-1.86935">
        <ele>43.9</ele>
      </trkpt>
      <trkpt lat="47.74984" lon="-1.86933">
        <ele>43.6</ele>
      </trkpt>
      <trkpt lat="47.74978" lon="-1.86932">
        <ele>43.4</ele>
      </trkpt>
      <trkpt lat="47.74972" lon="-1.86931">
        <ele>43.2</ele>
      </trkpt>
      <trkpt lat="47.74969" lon="-1.8693">
        <ele>43</ele>
      </trkpt>
      <trkpt lat="47.74966" lon="-1.8693">
        <ele>42.9</ele>
      </trkpt>
      <trkpt lat="47.74964" lon="-1.86929">
        <ele>42.7</ele>
      </trkpt>
      <trkpt lat="47.74962" lon="-1.86929">
        <ele>42.7</ele>
      </trkpt>
      <trkpt lat="47.74962" lon="-1.86929">
        <ele>42.7</ele>
      </trkpt>
      <trkpt lat="47.74962" lon="-1.86929">
        <ele>42.7</ele>
      </trkpt>
      <trkpt lat="47.74962" lon="-1.86929">
        <ele>42.7</ele>
      </trkpt>
      <trkpt lat="47.74962" lon="-1.86929">
        <ele>42.7</ele>
      </trkpt>
      <trkpt lat="47.74962" lon="-1.86929">
        <ele>42.7</ele>
      </trkpt>
      <trkpt lat="47.74962" lon="-1.86929">
        <ele>42.7</ele>
      </trkpt>
      <trkpt lat="47.74962" lon="-1.86929">
        <ele>42.7</ele>
      </trkpt>
      <trkpt lat="47.74962" lon="-1.86929">
        <ele>42.7</ele>
      </trkpt>
      <trkpt lat="47.74962" lon="-1.86929">
        <ele>42.7</ele>
      </trkpt>
      <trkpt lat="47.74962" lon="-1.86929">
        <ele>42.7</ele>
      </trkpt>
      <trkpt lat="47.74962" lon="-1.86928">
        <ele>42.7</ele>
      </trkpt>
      <trkpt lat="47.74961" lon="-1.86927">
        <ele>42.8</ele>
      </trkpt>
      <trkpt lat="47.74961" lon="-1.86926">
        <ele>42.9</ele>
      </trkpt>
      <trkpt lat="47.7496" lon="-1.86923">
        <ele>43.1</ele>
      </trkpt>
      <trkpt lat="47.7496" lon="-1.8692">
        <ele>43.3</ele>
      </trkpt>
      <trkpt lat="47.74959" lon="-1.86918">
        <ele>43.4</ele>
      </trkpt>
      <trkpt lat="47.74958" lon="-1.86916">
        <ele>43.7</ele>
      </trkpt>
      <trkpt lat="47.74958" lon="-1.86913">
        <ele>44.1</ele>
      </trkpt>
      <trkpt lat="47.74958" lon="-1.86911">
        <ele>44.5</ele>
      </trkpt>
      <trkpt lat="47.74956" lon="-1.86908">
        <ele>44.9</ele>
      </trkpt>
      <trkpt lat="47.74955" lon="-1.86904">
        <ele>45.4</ele>
      </trkpt>
      <trkpt lat="47.74955" lon="-1.86901">
        <ele>46</ele>
      </trkpt>
      <trkpt lat="47.74954" lon="-1.86898">
        <ele>46.5</ele>
      </trkpt>
      <trkpt lat="47.74954" lon="-1.86895">
        <ele>47</ele>
      </trkpt>
      <trkpt lat="47.74953" lon="-1.86893">
        <ele>47.3</ele>
      </trkpt>
      <trkpt lat="47.74952" lon="-1.86891">
        <ele>47.5</ele>
      </trkpt>
      <trkpt lat="47.7495" lon="-1.8689">
        <ele>47.6</ele>
      </trkpt>
      <trkpt lat="47.74948" lon="-1.86888">
        <ele>47.7</ele>
      </trkpt>
      <trkpt lat="47.74946" lon="-1.86886">
        <ele>47.9</ele>
      </trkpt>
      <trkpt lat="47.74944" lon="-1.86884">
        <ele>48.1</ele>
      </trkpt>
      <trkpt lat="47.74943" lon="-1.86882">
        <ele>48.3</ele>
      </trkpt>
      <trkpt lat="47.74942" lon="-1.8688">
        <ele>48.6</ele>
      </trkpt>
      <trkpt lat="47.74939" lon="-1.86877">
        <ele>48.8</ele>
      </trkpt>
      <trkpt lat="47.74937" lon="-1.86876">
        <ele>48.9</ele>
      </trkpt>
      <trkpt lat="47.74935" lon="-1.86876">
        <ele>48.8</ele>
      </trkpt>
      <trkpt lat="47.74932" lon="-1.86875">
        <ele>48.7</ele>
      </trkpt>
      <trkpt lat="47.74929" lon="-1.86874">
        <ele>48.6</ele>
      </trkpt>
      <trkpt lat="47.74925" lon="-1.86872">
        <ele>48.7</ele>
      </trkpt>
      <trkpt lat="47.74922" lon="-1.8687">
        <ele>48.7</ele>
      </trkpt>
      <trkpt lat="47.74918" lon="-1.86868">
        <ele>48.7</ele>
      </trkpt>
      <trkpt lat="47.74914" lon="-1.86866">
        <ele>48.6</ele>
      </trkpt>
      <trkpt lat="47.74911" lon="-1.86863">
        <ele>48.6</ele>
      </trkpt>
      <trkpt lat="47.74908" lon="-1.8686">
        <ele>48.6</ele>
      </trkpt>
      <trkpt lat="47.74906" lon="-1.86857">
        <ele>48.7</ele>
      </trkpt>
      <trkpt lat="47.74905" lon="-1.86855">
        <ele>48.8</ele>
      </trkpt>
      <trkpt lat="47.74903" lon="-1.86852">
        <ele>49</ele>
      </trkpt>
      <trkpt lat="47.74902" lon="-1.86849">
        <ele>49.3</ele>
      </trkpt>
      <trkpt lat="47.74902" lon="-1.86846">
        <ele>49.6</ele>
      </trkpt>
      <trkpt lat="47.74902" lon="-1.86843">
        <ele>50</ele>
      </trkpt>
      <trkpt lat="47.74903" lon="-1.86841">
        <ele>50.5</ele>
      </trkpt>
      <trkpt lat="47.74905" lon="-1.86841">
        <ele>51</ele>
      </trkpt>
      <trkpt lat="47.74907" lon="-1.8684">
        <ele>51.4</ele>
      </trkpt>
      <trkpt lat="47.74908" lon="-1.86839">
        <ele>51.8</ele>
      </trkpt>
      <trkpt lat="47.7491" lon="-1.86837">
        <ele>52.2</ele>
      </trkpt>
      <trkpt lat="47.74911" lon="-1.86836">
        <ele>52.7</ele>
      </trkpt>
      <trkpt lat="47.74913" lon="-1.86835">
        <ele>53.1</ele>
      </trkpt>
      <trkpt lat="47.74914" lon="-1.86834">
        <ele>53.6</ele>
      </trkpt>
      <trkpt lat="47.74916" lon="-1.86832">
        <ele>54.1</ele>
      </trkpt>
      <trkpt lat="47.74917" lon="-1.86831">
        <ele>54.4</ele>
      </trkpt>
      <trkpt lat="47.74919" lon="-1.8683">
        <ele>54.7</ele>
      </trkpt>
      <trkpt lat="47.7492" lon="-1.8683">
        <ele>55</ele>
      </trkpt>
      <trkpt lat="47.74922" lon="-1.86829">
        <ele>55.2</ele>
      </trkpt>
      <trkpt lat="47.74924" lon="-1.86829">
        <ele>55.4</ele>
      </trkpt>
      <trkpt lat="47.74925" lon="-1.86828">
        <ele>55.7</ele>
      </trkpt>
      <trkpt lat="47.74926" lon="-1.86826">
        <ele>56.1</ele>
      </trkpt>
      <trkpt lat="47.74927" lon="-1.86824">
        <ele>56.5</ele>
      </trkpt>
      <trkpt lat="47.74929" lon="-1.86823">
        <ele>56.9</ele>
      </trkpt>
      <trkpt lat="47.74929" lon="-1.86822">
        <ele>57</ele>
      </trkpt>
      <trkpt lat="47.74929" lon="-1.86822">
        <ele>57</ele>
      </trkpt>
      <trkpt lat="47.74929" lon="-1.86822">
        <ele>57</ele>
      </trkpt>
      <trkpt lat="47.74929" lon="-1.86822">
        <ele>57</ele>
      </trkpt>
      <trkpt lat="47.74929" lon="-1.86822">
        <ele>57</ele>
      </trkpt>
      <trkpt lat="47.74929" lon="-1.86822">
        <ele>57</ele>
      </trkpt>
      <trkpt lat="47.74929" lon="-1.86822">
        <ele>57</ele>
      </trkpt>
      <trkpt lat="47.74929" lon="-1.86822">
        <ele>57</ele>
      </trkpt>
      <trkpt lat="47.74929" lon="-1.86822">
        <ele>57</ele>
      </trkpt>
      <trkpt lat="47.74929" lon="-1.86822">
        <ele>57</ele>
      </trkpt>
      <trkpt lat="47.74929" lon="-1.86822">
        <ele>57</ele>
      </trkpt>
      <trkpt lat="47.7493" lon="-1.86822">
        <ele>57.1</ele>
      </trkpt>
      <trkpt lat="47.74931" lon="-1.86821">
        <ele>57.3</ele>
      </trkpt>
      <trkpt lat="47.74932" lon="-1.86821">
        <ele>57.6</ele>
      </trkpt>
      <trkpt lat="47.74933" lon="-1.86821">
        <ele>57.7</ele>
      </trkpt>
      <trkpt lat="47.74935" lon="-1.86822">
        <ele>57.7</ele>
      </trkpt>
      <trkpt lat="47.74937" lon="-1.86824">
        <ele>57.6</ele>
      </trkpt>
      <trkpt lat="47.74939" lon="-1.86825">
        <ele>57.5</ele>
      </trkpt>
      <trkpt lat="47.74941" lon="-1.86826">
        <ele>57.5</ele>
      </trkpt>
      <trkpt lat="47.74943" lon="-1.86828">
        <ele>57.4</ele>
      </trkpt>
      <trkpt lat="47.74944" lon="-1.8683">
        <ele>57.3</ele>
      </trkpt>
      <trkpt lat="47.74946" lon="-1.86831">
        <ele>57.2</ele>
      </trkpt>
      <trkpt lat="47.74948" lon="-1.86832">
        <ele>57.2</ele>
      </trkpt>
      <trkpt lat="47.74949" lon="-1.86832">
        <ele>57.4</ele>
      </trkpt>
      <trkpt lat="47.74951" lon="-1.86832">
        <ele>57.5</ele>
      </trkpt>
      <trkpt lat="47.74952" lon="-1.86832">
        <ele>57.7</ele>
      </trkpt>
      <trkpt lat="47.74954" lon="-1.86832">
        <ele>57.8</ele>
      </trkpt>
      <trkpt lat="47.74955" lon="-1.86832">
        <ele>57.9</ele>
      </trkpt>
      <trkpt lat="47.74956" lon="-1.86832">
        <ele>58</ele>
      </trkpt>
      <trkpt lat="47.74958" lon="-1.86832">
        <ele>58.2</ele>
      </trkpt>
      <trkpt lat="47.74959" lon="-1.86832">
        <ele>58.3</ele>
      </trkpt>
      <trkpt lat="47.74961" lon="-1.86833">
        <ele>58.4</ele>
      </trkpt>
      <trkpt lat="47.74963" lon="-1.86834">
        <ele>58.4</ele>
      </trkpt>
      <trkpt lat="47.74965" lon="-1.86834">
        <ele>58.5</ele>
      </trkpt>
      <trkpt lat="47.74967" lon="-1.86835">
        <ele>58.5</ele>
      </trkpt>
      <trkpt lat="47.74969" lon="-1.86834">
        <ele>58.8</ele>
      </trkpt>
      <trkpt lat="47.7497" lon="-1.86834">
        <ele>59.1</ele>
      </trkpt>
      <trkpt lat="47.74972" lon="-1.86833">
        <ele>59.3</ele>
      </trkpt>
      <trkpt lat="47.74973" lon="-1.86832">
        <ele>59.6</ele>
      </trkpt>
      <trkpt lat="47.74975" lon="-1.86831">
        <ele>59.9</ele>
      </trkpt>
      <trkpt lat="47.74975" lon="-1.86829">
        <ele>60.4</ele>
      </trkpt>
      <trkpt lat="47.74975" lon="-1.86827">
        <ele>60.7</ele>
      </trkpt>
      <trkpt lat="47.74975" lon="-1.86824">
        <ele>61</ele>
      </trkpt>
      <trkpt lat="47.74974" lon="-1.86822">
        <ele>61.3</ele>
      </trkpt>
      <trkpt lat="47.74973" lon="-1.8682">
        <ele>61.6</ele>
      </trkpt>
      <trkpt lat="47.74973" lon="-1.86818">
        <ele>61.9</ele>
      </trkpt>
      <trkpt lat="47.74972" lon="-1.86815">
        <ele>62.2</ele>
      </trkpt>
      <trkpt lat="47.74972" lon="-1.86814">
        <ele>62.5</ele>
      </trkpt>
      <trkpt lat="47.74973" lon="-1.86812">
        <ele>62.8</ele>
      </trkpt>
      <trkpt lat="47.74974" lon="-1.86811">
        <ele>63.1</ele>
      </trkpt>
      <trkpt lat="47.74976" lon="-1.8681">
        <ele>63.3</ele>
      </trkpt>
      <trkpt lat="47.74977" lon="-1.8681">
        <ele>63.6</ele>
      </trkpt>
      <trkpt lat="47.74979" lon="-1.86809">
        <ele>63.9</ele>
      </trkpt>
      <trkpt lat="47.74979" lon="-1.86807">
        <ele>64.2</ele>
      </trkpt>
      <trkpt lat="47.7498" lon="-1.86805">
        <ele>64.5</ele>
      </trkpt>
      <trkpt lat="47.7498" lon="-1.86803">
        <ele>64.9</ele>
      </trkpt>
      <trkpt lat="47.7498" lon="-1.86802">
        <ele>65.1</ele>
      </trkpt>
      <trkpt lat="47.7498" lon="-1.868">
        <ele>65.4</ele>
      </trkpt>
      <trkpt lat="47.74979" lon="-1.86798">
        <ele>65.7</ele>
      </trkpt>
      <trkpt lat="47.74978" lon="-1.86795">
        <ele>65.9</ele>
      </trkpt>
      <trkpt lat="47.74978" lon="-1.86793">
        <ele>66.2</ele>
      </trkpt>
      <trkpt lat="47.74977" lon="-1.86792">
        <ele>66.5</ele>
      </trkpt>
      <trkpt lat="47.74977" lon="-1.86789">
        <ele>66.8</ele>
      </trkpt>
      <trkpt lat="47.74977" lon="-1.86787">
        <ele>67.1</ele>
      </trkpt>
      <trkpt lat="47.74976" lon="-1.86785">
        <ele>67.4</ele>
      </trkpt>
      <trkpt lat="47.74976" lon="-1.86783">
        <ele>67.7</ele>
      </trkpt>
      <trkpt lat="47.74975" lon="-1.86781">
        <ele>67.9</ele>
      </trkpt>
      <trkpt lat="47.74974" lon="-1.86779">
        <ele>68.2</ele>
      </trkpt>
      <trkpt lat="47.74973" lon="-1.86777">
        <ele>68.4</ele>
      </trkpt>
      <trkpt lat="47.74972" lon="-1.86775">
        <ele>68.7</ele>
      </trkpt>
      <trkpt lat="47.74971" lon="-1.86773">
        <ele>68.9</ele>
      </trkpt>
      <trkpt lat="47.7497" lon="-1.86771">
        <ele>69.1</ele>
      </trkpt>
      <trkpt lat="47.74969" lon="-1.86769">
        <ele>69.3</ele>
      </trkpt>
      <trkpt lat="47.74968" lon="-1.86767">
        <ele>69.5</ele>
      </trkpt>
      <trkpt lat="47.74966" lon="-1.86765">
        <ele>69.7</ele>
      </trkpt>
      <trkpt lat="47.74965" lon="-1.86764">
        <ele>69.7</ele>
      </trkpt>
      <trkpt lat="47.74962" lon="-1.86763">
        <ele>69.7</ele>
      </trkpt>
      <trkpt lat="47.7496" lon="-1.86763">
        <ele>69.6</ele>
      </trkpt>
      <trkpt lat="47.74958" lon="-1.86761">
        <ele>69.7</ele>
      </trkpt>
      <trkpt lat="47.74957" lon="-1.86759">
        <ele>70</ele>
      </trkpt>
      <trkpt lat="47.74956" lon="-1.86756">
        <ele>70.3</ele>
      </trkpt>
      <trkpt lat="47.74955" lon="-1.86753">
        <ele>70.6</ele>
      </trkpt>
      <trkpt lat="47.74954" lon="-1.86751">
        <ele>71</ele>
      </trkpt>
      <trkpt lat="47.74953" lon="-1.86748">
        <ele>71.2</ele>
      </trkpt>
      <trkpt lat="47.74952" lon="-1.86745">
        <ele>71.4</ele>
      </trkpt>
      <trkpt lat="47.74952" lon="-1.86742">
        <ele>71.6</ele>
      </trkpt>
      <trkpt lat="47.74952" lon="-1.8674">
        <ele>71.8</ele>
      </trkpt>
      <trkpt lat="47.74952" lon="-1.86737">
        <ele>72.1</ele>
      </trkpt>
      <trkpt lat="47.74953" lon="-1.86735">
        <ele>72.3</ele>
      </trkpt>
      <trkpt lat="47.74955" lon="-1.86735">
        <ele>72.5</ele>
      </trkpt>
      <trkpt lat="47.74956" lon="-1.86735">
        <ele>72.6</ele>
      </trkpt>
      <trkpt lat="47.74958" lon="-1.86736">
        <ele>72.7</ele>
      </trkpt>
      <trkpt lat="47.74959" lon="-1.86736">
        <ele>72.8</ele>
      </trkpt>
      <trkpt lat="47.74961" lon="-1.86736">
        <ele>72.9</ele>
      </trkpt>
      <trkpt lat="47.74962" lon="-1.86735">
        <ele>73.1</ele>
      </trkpt>
      <trkpt lat="47.74963" lon="-1.86733">
        <ele>73.3</ele>
      </trkpt>
      <trkpt lat="47.74964" lon="-1.86731">
        <ele>73.6</ele>
      </trkpt>
      <trkpt lat="47.74964" lon="-1.86728">
        <ele>73.8</ele>
      </trkpt>
      <trkpt lat="47.74963" lon="-1.86726">
        <ele>74</ele>
      </trkpt>
      <trkpt lat="47.74963" lon="-1.86723">
        <ele>74.1</ele>
      </trkpt>
      <trkpt lat="47.74961" lon="-1.8672">
        <ele>74.2</ele>
      </trkpt>
      <trkpt lat="47.7496" lon="-1.86718">
        <ele>74.4</ele>
      </trkpt>
      <trkpt lat="47.74959" lon="-1.86715">
        <ele>74.5</ele>
      </trkpt>
      <trkpt lat="47.74958" lon="-1.86712">
        <ele>74.7</ele>
      </trkpt>
      <trkpt lat="47.74958" lon="-1.86709">
        <ele>74.9</ele>
      </trkpt>
      <trkpt lat="47.74958" lon="-1.86707">
        <ele>75.1</ele>
      </trkpt>
      <trkpt lat="47.74959" lon="-1.86704">
        <ele>75.4</ele>
      </trkpt>
      <trkpt lat="47.74959" lon="-1.86701">
        <ele>75.6</ele>
      </trkpt>
      <trkpt lat="47.74958" lon="-1.86698">
        <ele>75.8</ele>
      </trkpt>
      <trkpt lat="47.74957" lon="-1.86695">
        <ele>76</ele>
      </trkpt>
      <trkpt lat="47.74956" lon="-1.86693">
        <ele>76.1</ele>
      </trkpt>
      <trkpt lat="47.74954" lon="-1.8669">
        <ele>76.2</ele>
      </trkpt>
      <trkpt lat="47.74953" lon="-1.86688">
        <ele>76.3</ele>
      </trkpt>
      <trkpt lat="47.74952" lon="-1.86685">
        <ele>76.4</ele>
      </trkpt>
      <trkpt lat="47.7495" lon="-1.86682">
        <ele>76.5</ele>
      </trkpt>
      <trkpt lat="47.74949" lon="-1.86679">
        <ele>76.7</ele>
      </trkpt>
      <trkpt lat="47.74948" lon="-1.86676">
        <ele>76.8</ele>
      </trkpt>
      <trkpt lat="47.74947" lon="-1.86673">
        <ele>77</ele>
      </trkpt>
      <trkpt lat="47.74945" lon="-1.86671">
        <ele>77.1</ele>
      </trkpt>
      <trkpt lat="47.74944" lon="-1.86668">
        <ele>77.2</ele>
      </trkpt>
      <trkpt lat="47.74942" lon="-1.86665">
        <ele>77.2</ele>
      </trkpt>
      <trkpt lat="47.7494" lon="-1.86663">
        <ele>77.1</ele>
      </trkpt>
      <trkpt lat="47.74938" lon="-1.86661">
        <ele>77</ele>
      </trkpt>
      <trkpt lat="47.74936" lon="-1.86659">
        <ele>76.9</ele>
      </trkpt>
      <trkpt lat="47.74934" lon="-1.86657">
        <ele>76.8</ele>
      </trkpt>
      <trkpt lat="47.74931" lon="-1.86654">
        <ele>76.7</ele>
      </trkpt>
      <trkpt lat="47.74929" lon="-1.86652">
        <ele>76.7</ele>
      </trkpt>
      <trkpt lat="47.74927" lon="-1.86649">
        <ele>76.6</ele>
      </trkpt>
      <trkpt lat="47.74925" lon="-1.86646">
        <ele>76.6</ele>
      </trkpt>
      <trkpt lat="47.74923" lon="-1.86644">
        <ele>76.6</ele>
      </trkpt>
      <trkpt lat="47.74922" lon="-1.86641">
        <ele>76.6</ele>
      </trkpt>
      <trkpt lat="47.74919" lon="-1.86639">
        <ele>76.5</ele>
      </trkpt>
      <trkpt lat="47.74917" lon="-1.86635">
        <ele>76.5</ele>
      </trkpt>
      <trkpt lat="47.74915" lon="-1.86632">
        <ele>76.4</ele>
      </trkpt>
      <trkpt lat="47.74912" lon="-1.86629">
        <ele>76.2</ele>
      </trkpt>
      <trkpt lat="47.7491" lon="-1.86626">
        <ele>76</ele>
      </trkpt>
      <trkpt lat="47.74907" lon="-1.86625">
        <ele>75.6</ele>
      </trkpt>
      <trkpt lat="47.74904" lon="-1.86623">
        <ele>75.4</ele>
      </trkpt>
      <trkpt lat="47.74902" lon="-1.86619">
        <ele>75.2</ele>
      </trkpt>
      <trkpt lat="47.749" lon="-1.86617">
        <ele>75</ele>
      </trkpt>
      <trkpt lat="47.74897" lon="-1.86615">
        <ele>74.6</ele>
      </trkpt>
      <trkpt lat="47.74894" lon="-1.86616">
        <ele>74.1</ele>
      </trkpt>
      <trkpt lat="47.7489" lon="-1.86617">
        <ele>73.6</ele>
      </trkpt>
      <trkpt lat="47.74887" lon="-1.86618">
        <ele>73</ele>
      </trkpt>
      <trkpt lat="47.74882" lon="-1.86617">
        <ele>72.4</ele>
      </trkpt>
      <trkpt lat="47.74878" lon="-1.86617">
        <ele>71.8</ele>
      </trkpt>
      <trkpt lat="47.74874" lon="-1.86616">
        <ele>71.2</ele>
      </trkpt>
      <trkpt lat="47.74869" lon="-1.86614">
        <ele>70.6</ele>
      </trkpt>
      <trkpt lat="47.74865" lon="-1.86612">
        <ele>70.1</ele>
      </trkpt>
      <trkpt lat="47.74862" lon="-1.86609">
        <ele>69.9</ele>
      </trkpt>
      <trkpt lat="47.7486" lon="-1.86604">
        <ele>69.8</ele>
      </trkpt>
      <trkpt lat="47.74858" lon="-1.86598">
        <ele>69.9</ele>
      </trkpt>
      <trkpt lat="47.74856" lon="-1.86593">
        <ele>69.8</ele>
      </trkpt>
      <trkpt lat="47.74853" lon="-1.86589">
        <ele>69.6</ele>
      </trkpt>
      <trkpt lat="47.74849" lon="-1.86585">
        <ele>69.2</ele>
      </trkpt>
      <trkpt lat="47.74847" lon="-1.86586">
        <ele>68.8</ele>
      </trkpt>
      <trkpt lat="47.74845" lon="-1.8659">
        <ele>68.3</ele>
      </trkpt>
      <trkpt lat="47.74843" lon="-1.86595">
        <ele>67.8</ele>
      </trkpt>
      <trkpt lat="47.74841" lon="-1.866">
        <ele>67.3</ele>
      </trkpt>
      <trkpt lat="47.7484" lon="-1.86606">
        <ele>66.9</ele>
      </trkpt>
      <trkpt lat="47.74839" lon="-1.8661">
        <ele>66.5</ele>
      </trkpt>
      <trkpt lat="47.74838" lon="-1.86611">
        <ele>66.4</ele>
      </trkpt>
      <trkpt lat="47.74838" lon="-1.86611">
        <ele>66.3</ele>
      </trkpt>
      <trkpt lat="47.74838" lon="-1.86608">
        <ele>66.4</ele>
      </trkpt>
      <trkpt lat="47.74837" lon="-1.86605">
        <ele>66.5</ele>
      </trkpt>
      <trkpt lat="47.74837" lon="-1.866">
        <ele>66.7</ele>
      </trkpt>
      <trkpt lat="47.74837" lon="-1.86596">
        <ele>66.9</ele>
      </trkpt>
      <trkpt lat="47.74836" lon="-1.86591">
        <ele>67</ele>
      </trkpt>
      <trkpt lat="47.74835" lon="-1.86587">
        <ele>67.1</ele>
      </trkpt>
      <trkpt lat="47.74835" lon="-1.86582">
        <ele>67.1</ele>
      </trkpt>
      <trkpt lat="47.74835" lon="-1.86577">
        <ele>66.8</ele>
      </trkpt>
      <trkpt lat="47.74835" lon="-1.86572">
        <ele>66.6</ele>
      </trkpt>
      <trkpt lat="47.74836" lon="-1.86567">
        <ele>66.4</ele>
      </trkpt>
      <trkpt lat="47.74836" lon="-1.86562">
        <ele>66.1</ele>
      </trkpt>
      <trkpt lat="47.74836" lon="-1.86558">
        <ele>65.9</ele>
      </trkpt>
      <trkpt lat="47.74836" lon="-1.86554">
        <ele>65.6</ele>
      </trkpt>
      <trkpt lat="47.74835" lon="-1.8655">
        <ele>65.2</ele>
      </trkpt>
      <trkpt lat="47.74834" lon="-1.86545">
        <ele>64.7</ele>
      </trkpt>
      <trkpt lat="47.74833" lon="-1.86539">
        <ele>64.3</ele>
      </trkpt>
      <trkpt lat="47.74832" lon="-1.86535">
        <ele>63.8</ele>
      </trkpt>
      <trkpt lat="47.7483" lon="-1.86532">
        <ele>63.2</ele>
      </trkpt>
      <trkpt lat="47.74827" lon="-1.86531">
        <ele>62.5</ele>
      </trkpt>
      <trkpt lat="47.74825" lon="-1.86533">
        <ele>62.1</ele>
      </trkpt>
      <trkpt lat="47.74823" lon="-1.86536">
        <ele>62</ele>
      </trkpt>
      <trkpt lat="47.74823" lon="-1.8654">
        <ele>62.2</ele>
      </trkpt>
      <trkpt lat="47.74822" lon="-1.86545">
        <ele>62.4</ele>
      </trkpt>
      <trkpt lat="47.74821" lon="-1.86549">
        <ele>62.4</ele>
      </trkpt>
      <trkpt lat="47.7482" lon="-1.86553">
        <ele>62.3</ele>
      </trkpt>
      <trkpt lat="47.74819" lon="-1.86557">
        <ele>62.4</ele>
      </trkpt>
      <trkpt lat="47.7482" lon="-1.86561">
        <ele>62.8</ele>
      </trkpt>
      <trkpt lat="47.7482" lon="-1.86567">
        <ele>63.2</ele>
      </trkpt>
      <trkpt lat="47.74821" lon="-1.86572">
        <ele>63.6</ele>
      </trkpt>
      <trkpt lat="47.74822" lon="-1.86577">
        <ele>64.1</ele>
      </trkpt>
      <trkpt lat="47.74822" lon="-1.86582">
        <ele>64.6</ele>
      </trkpt>
      <trkpt lat="47.74824" lon="-1.86588">
        <ele>64.7</ele>
      </trkpt>
      <trkpt lat="47.74825" lon="-1.86593">
        <ele>64.6</ele>
      </trkpt>
      <trkpt lat="47.74826" lon="-1.86598">
        <ele>64.7</ele>
      </trkpt>
      <trkpt lat="47.74827" lon="-1.86604">
        <ele>64.7</ele>
      </trkpt>
      <trkpt lat="47.74828" lon="-1.86609">
        <ele>64.7</ele>
      </trkpt>
      <trkpt lat="47.74829" lon="-1.86614">
        <ele>64.6</ele>
      </trkpt>
      <trkpt lat="47.74829" lon="-1.86618">
        <ele>64.3</ele>
      </trkpt>
      <trkpt lat="47.74828" lon="-1.86623">
        <ele>63.8</ele>
      </trkpt>
      <trkpt lat="47.74826" lon="-1.86629">
        <ele>63.1</ele>
      </trkpt>
      <trkpt lat="47.74827" lon="-1.86636">
        <ele>62.8</ele>
      </trkpt>
      <trkpt lat="47.74827" lon="-1.86642">
        <ele>62.6</ele>
      </trkpt>
      <trkpt lat="47.74828" lon="-1.86649">
        <ele>62.4</ele>
      </trkpt>
      <trkpt lat="47.7483" lon="-1.86654">
        <ele>62.7</ele>
      </trkpt>
      <trkpt lat="47.74832" lon="-1.86657">
        <ele>63.1</ele>
      </trkpt>
      <trkpt lat="47.74835" lon="-1.8666">
        <ele>63.6</ele>
      </trkpt>
      <trkpt lat="47.74838" lon="-1.86663">
        <ele>63.9</ele>
      </trkpt>
      <trkpt lat="47.74841" lon="-1.86666">
        <ele>64.2</ele>
      </trkpt>
      <trkpt lat="47.74844" lon="-1.86668">
        <ele>64.4</ele>
      </trkpt>
      <trkpt lat="47.74847" lon="-1.8667">
        <ele>64.6</ele>
      </trkpt>
      <trkpt lat="47.74849" lon="-1.86672">
        <ele>64.6</ele>
      </trkpt>
      <trkpt lat="47.7485" lon="-1.86676">
        <ele>64.4</ele>
      </trkpt>
      <trkpt lat="47.7485" lon="-1.8668">
        <ele>63.9</ele>
      </trkpt>
      <trkpt lat="47.74849" lon="-1.86683">
        <ele>63.4</ele>
      </trkpt>
      <trkpt lat="47.74847" lon="-1.86685">
        <ele>62.9</ele>
      </trkpt>
      <trkpt lat="47.74843" lon="-1.86686">
        <ele>62.2</ele>
      </trkpt>
      <trkpt lat="47.74839" lon="-1.86687">
        <ele>61.4</ele>
      </trkpt>
      <trkpt lat="47.74836" lon="-1.86688">
        <ele>60.9</ele>
      </trkpt>
      <trkpt lat="47.74833" lon="-1.86685">
        <ele>60.7</ele>
      </trkpt>
      <trkpt lat="47.74831" lon="-1.86682">
        <ele>60.4</ele>
      </trkpt>
      <trkpt lat="47.74828" lon="-1.86679">
        <ele>60.2</ele>
      </trkpt>
      <trkpt lat="47.74825" lon="-1.86675">
        <ele>60</ele>
      </trkpt>
      <trkpt lat="47.74824" lon="-1.86672">
        <ele>59.9</ele>
      </trkpt>
      <trkpt lat="47.74823" lon="-1.86668">
        <ele>60.1</ele>
      </trkpt>
      <trkpt lat="47.74822" lon="-1.86664">
        <ele>60.2</ele>
      </trkpt>
      <trkpt lat="47.74822" lon="-1.8666">
        <ele>60.3</ele>
      </trkpt>
      <trkpt lat="47.74821" lon="-1.86657">
        <ele>60.4</ele>
      </trkpt>
      <trkpt lat="47.74821" lon="-1.86654">
        <ele>60.3</ele>
      </trkpt>
      <trkpt lat="47.74819" lon="-1.86651">
        <ele>60.1</ele>
      </trkpt>
      <trkpt lat="47.74817" lon="-1.86647">
        <ele>59.9</ele>
      </trkpt>
      <trkpt lat="47.74815" lon="-1.86644">
        <ele>59.5</ele>
      </trkpt>
      <trkpt lat="47.74813" lon="-1.86641">
        <ele>59.1</ele>
      </trkpt>
      <trkpt lat="47.7481" lon="-1.86638">
        <ele>58.7</ele>
      </trkpt>
      <trkpt lat="47.74808" lon="-1.86634">
        <ele>58.4</ele>
      </trkpt>
      <trkpt lat="47.74806" lon="-1.86629">
        <ele>58.3</ele>
      </trkpt>
      <trkpt lat="47.74804" lon="-1.86623">
        <ele>58.2</ele>
      </trkpt>
      <trkpt lat="47.74802" lon="-1.86619">
        <ele>57.8</ele>
      </trkpt>
      <trkpt lat="47.74798" lon="-1.86616">
        <ele>57.2</ele>
      </trkpt>
      <trkpt lat="47.74795" lon="-1.86612">
        <ele>56.6</ele>
      </trkpt>
      <trkpt lat="47.74792" lon="-1.86609">
        <ele>56.3</ele>
      </trkpt>
      <trkpt lat="47.74791" lon="-1.86605">
        <ele>56.2</ele>
      </trkpt>
      <trkpt lat="47.74789" lon="-1.86601">
        <ele>56.1</ele>
      </trkpt>
      <trkpt lat="47.74787" lon="-1.86598">
        <ele>55.8</ele>
      </trkpt>
      <trkpt lat="47.74784" lon="-1.86597">
        <ele>55.3</ele>
      </trkpt>
      <trkpt lat="47.74781" lon="-1.86597">
        <ele>54.6</ele>
      </trkpt>
      <trkpt lat="47.74778" lon="-1.86597">
        <ele>54</ele>
      </trkpt>
      <trkpt lat="47.74775" lon="-1.86594">
        <ele>53.6</ele>
      </trkpt>
      <trkpt lat="47.74772" lon="-1.8659">
        <ele>53.3</ele>
      </trkpt>
      <trkpt lat="47.7477" lon="-1.86586">
        <ele>53</ele>
      </trkpt>
      <trkpt lat="47.74767" lon="-1.86584">
        <ele>52.6</ele>
      </trkpt>
      <trkpt lat="47.74764" lon="-1.86583">
        <ele>52</ele>
      </trkpt>
      <trkpt lat="47.7476" lon="-1.86582">
        <ele>51.1</ele>
      </trkpt>
      <trkpt lat="47.74757" lon="-1.8658">
        <ele>50.3</ele>
      </trkpt>
      <trkpt lat="47.74754" lon="-1.86578">
        <ele>49.6</ele>
      </trkpt>
      <trkpt lat="47.74751" lon="-1.86575">
        <ele>48.8</ele>
      </trkpt>
      <trkpt lat="47.74748" lon="-1.86572">
        <ele>48</ele>
      </trkpt>
      <trkpt lat="47.74745" lon="-1.86571">
        <ele>47.2</ele>
      </trkpt>
      <trkpt lat="47.74742" lon="-1.86572">
        <ele>46.6</ele>
      </trkpt>
      <trkpt lat="47.7474" lon="-1.86573">
        <ele>46</ele>
      </trkpt>
      <trkpt lat="47.74738" lon="-1.86573">
        <ele>45.6</ele>
      </trkpt>
      <trkpt lat="47.74735" lon="-1.86573">
        <ele>44.9</ele>
      </trkpt>
      <trkpt lat="47.74733" lon="-1.86571">
        <ele>44.2</ele>
      </trkpt>
      <trkpt lat="47.74732" lon="-1.86568">
        <ele>43.9</ele>
      </trkpt>
      <trkpt lat="47.74732" lon="-1.86564">
        <ele>43.7</ele>
      </trkpt>
      <trkpt lat="47.74732" lon="-1.8656">
        <ele>43.6</ele>
      </trkpt>
      <trkpt lat="47.74733" lon="-1.86556">
        <ele>43.6</ele>
      </trkpt>
      <trkpt lat="47.74733" lon="-1.86552">
        <ele>43.5</ele>
      </trkpt>
      <trkpt lat="47.74733" lon="-1.86549">
        <ele>43.4</ele>
      </trkpt>
      <trkpt lat="47.74733" lon="-1.86547">
        <ele>43.4</ele>
      </trkpt>
      <trkpt lat="47.74733" lon="-1.86547">
        <ele>43.4</ele>
      </trkpt>
      <trkpt lat="47.74733" lon="-1.86547">
        <ele>43.4</ele>
      </trkpt>
      <trkpt lat="47.74733" lon="-1.86547">
        <ele>43.4</ele>
      </trkpt>
      <trkpt lat="47.74733" lon="-1.86547">
        <ele>43.4</ele>
      </trkpt>
      <trkpt lat="47.74733" lon="-1.86547">
        <ele>43.4</ele>
      </trkpt>
      <trkpt lat="47.74733" lon="-1.86547">
        <ele>43.4</ele>
      </trkpt>
      <trkpt lat="47.74733" lon="-1.86547">
        <ele>43.4</ele>
      </trkpt>
      <trkpt lat="47.74733" lon="-1.86547">
        <ele>43.4</ele>
      </trkpt>
      <trkpt lat="47.74733" lon="-1.86547">
        <ele>43.4</ele>
      </trkpt>
      <trkpt lat="47.74733" lon="-1.86547">
        <ele>43.4</ele>
      </trkpt>
      <trkpt lat="47.74733" lon="-1.86547">
        <ele>43.4</ele>
      </trkpt>
      <trkpt lat="47.74733" lon="-1.86547">
        <ele>43.4</ele>
      </trkpt>
      <trkpt lat="47.74733" lon="-1.86547">
        <ele>43.4</ele>
      </trkpt>
      <trkpt lat="47.74733" lon="-1.86547">
        <ele>43.4</ele>
      </trkpt>
      <trkpt lat="47.74733" lon="-1.86547">
        <ele>43.4</ele>
      </trkpt>
      <trkpt lat="47.74733" lon="-1.86547">
        <ele>43.4</ele>
      </trkpt>
      <trkpt lat="47.74733" lon="-1.86549">
        <ele>43.3</ele>
      </trkpt>
      <trkpt lat="47.74732" lon="-1.86552">
        <ele>43.3</ele>
      </trkpt>
      <trkpt lat="47.74732" lon="-1.86555">
        <ele>43.3</ele>
      </trkpt>
      <trkpt lat="47.74731" lon="-1.86557">
        <ele>43.3</ele>
      </trkpt>
      <trkpt lat="47.74731" lon="-1.8656">
        <ele>43.3</ele>
      </trkpt>
      <trkpt lat="47.7473" lon="-1.86563">
        <ele>43.3</ele>
      </trkpt>
      <trkpt lat="47.7473" lon="-1.86567">
        <ele>43.3</ele>
      </trkpt>
      <trkpt lat="47.7473" lon="-1.86571">
        <ele>43.5</ele>
      </trkpt>
      <trkpt lat="47.74731" lon="-1.86576">
        <ele>43.9</ele>
      </trkpt>
      <trkpt lat="47.74731" lon="-1.86581">
        <ele>44.2</ele>
      </trkpt>
      <trkpt lat="47.74732" lon="-1.86587">
        <ele>44.1</ele>
      </trkpt>
      <trkpt lat="47.74732" lon="-1.86593">
        <ele>43.7</ele>
      </trkpt>
      <trkpt lat="47.74732" lon="-1.86597">
        <ele>43.4</ele>
      </trkpt>
      <trkpt lat="47.74733" lon="-1.86603">
        <ele>43.1</ele>
      </trkpt>
      <trkpt lat="47.74733" lon="-1.86608">
        <ele>42.9</ele>
      </trkpt>
      <trkpt lat="47.74734" lon="-1.86614">
        <ele>42.5</ele>
      </trkpt>
      <trkpt lat="47.74735" lon="-1.86619">
        <ele>42.3</ele>
      </trkpt>
      <trkpt lat="47.74736" lon="-1.86625">
        <ele>42.1</ele>
      </trkpt>
      <trkpt lat="47.74736" lon="-1.8663">
        <ele>41.8</ele>
      </trkpt>
      <trkpt lat="47.74737" lon="-1.86635">
        <ele>41.5</ele>
      </trkpt>
      <trkpt lat="47.74738" lon="-1.86641">
        <ele>41.3</ele>
      </trkpt>
      <trkpt lat="47.7474" lon="-1.86647">
        <ele>41.1</ele>
      </trkpt>
      <trkpt lat="47.74742" lon="-1.86654">
        <ele>40.8</ele>
      </trkpt>
      <trkpt lat="47.74743" lon="-1.86661">
        <ele>40.4</ele>
      </trkpt>
      <trkpt lat="47.74745" lon="-1.86668">
        <ele>40.1</ele>
      </trkpt>
      <trkpt lat="47.74746" lon="-1.86676">
        <ele>39.9</ele>
      </trkpt>
      <trkpt lat="47.74747" lon="-1.86683">
        <ele>39.6</ele>
      </trkpt>
      <trkpt lat="47.74749" lon="-1.86691">
        <ele>39.3</ele>
      </trkpt>
      <trkpt lat="47.74751" lon="-1.867">
        <ele>39.2</ele>
      </trkpt>
      <trkpt lat="47.74753" lon="-1.86707">
        <ele>39.2</ele>
      </trkpt>
      <trkpt lat="47.74754" lon="-1.86716">
        <ele>39.1</ele>
      </trkpt>
      <trkpt lat="47.74756" lon="-1.86724">
        <ele>38.8</ele>
      </trkpt>
      <trkpt lat="47.74757" lon="-1.86733">
        <ele>38.5</ele>
      </trkpt>
      <trkpt lat="47.74758" lon="-1.86742">
        <ele>38.3</ele>
      </trkpt>
      <trkpt lat="47.74758" lon="-1.86749">
        <ele>37.8</ele>
      </trkpt>
      <trkpt lat="47.74758" lon="-1.86755">
        <ele>37.4</ele>
      </trkpt>
      <trkpt lat="47.74756" lon="-1.86758">
        <ele>36.9</ele>
      </trkpt>
      <trkpt lat="47.74753" lon="-1.8676">
        <ele>36.2</ele>
      </trkpt>
      <trkpt lat="47.7475" lon="-1.86761">
        <ele>35.4</ele>
      </trkpt>
      <trkpt lat="47.74746" lon="-1.86761">
        <ele>35.2</ele>
      </trkpt>
      <trkpt lat="47.74742" lon="-1.86759">
        <ele>34.9</ele>
      </trkpt>
      <trkpt lat="47.74739" lon="-1.86756">
        <ele>34.8</ele>
      </trkpt>
      <trkpt lat="47.74735" lon="-1.86754">
        <ele>34.6</ele>
      </trkpt>
      <trkpt lat="47.74732" lon="-1.86751">
        <ele>34.5</ele>
      </trkpt>
      <trkpt lat="47.74729" lon="-1.86747">
        <ele>34.3</ele>
      </trkpt>
      <trkpt lat="47.74725" lon="-1.86744">
        <ele>34.1</ele>
      </trkpt>
      <trkpt lat="47.74722" lon="-1.8674">
        <ele>34</ele>
      </trkpt>
      <trkpt lat="47.74718" lon="-1.86736">
        <ele>33.8</ele>
      </trkpt>
      <trkpt lat="47.74715" lon="-1.86732">
        <ele>33.6</ele>
      </trkpt>
      <trkpt lat="47.74711" lon="-1.86729">
        <ele>33.3</ele>
      </trkpt>
      <trkpt lat="47.74707" lon="-1.86727">
        <ele>32.9</ele>
      </trkpt>
      <trkpt lat="47.74703" lon="-1.86725">
        <ele>32.5</ele>
      </trkpt>
      <trkpt lat="47.74698" lon="-1.86724">
        <ele>32</ele>
      </trkpt>
      <trkpt lat="47.74693" lon="-1.86725">
        <ele>31.5</ele>
      </trkpt>
      <trkpt lat="47.74689" lon="-1.86726">
        <ele>31</ele>
      </trkpt>
      <trkpt lat="47.74684" lon="-1.86727">
        <ele>30.5</ele>
      </trkpt>
      <trkpt lat="47.74679" lon="-1.86729">
        <ele>30</ele>
      </trkpt>
      <trkpt lat="47.74675" lon="-1.8673">
        <ele>29.6</ele>
      </trkpt>
      <trkpt lat="47.7467" lon="-1.86731">
        <ele>29.1</ele>
      </trkpt>
      <trkpt lat="47.74666" lon="-1.86732">
        <ele>28.8</ele>
      </trkpt>
      <trkpt lat="47.74661" lon="-1.86733">
        <ele>28.9</ele>
      </trkpt>
      <trkpt lat="47.74657" lon="-1.86734">
        <ele>28.9</ele>
      </trkpt>
      <trkpt lat="47.74653" lon="-1.86734">
        <ele>28.9</ele>
      </trkpt>
      <trkpt lat="47.74648" lon="-1.86735">
        <ele>29</ele>
      </trkpt>
      <trkpt lat="47.74644" lon="-1.86737">
        <ele>29.1</ele>
      </trkpt>
      <trkpt lat="47.7464" lon="-1.86739">
        <ele>29.2</ele>
      </trkpt>
      <trkpt lat="47.74636" lon="-1.86743">
        <ele>29.3</ele>
      </trkpt>
      <trkpt lat="47.74634" lon="-1.86749">
        <ele>29.4</ele>
      </trkpt>
      <trkpt lat="47.74633" lon="-1.86755">
        <ele>29.4</ele>
      </trkpt>
      <trkpt lat="47.74634" lon="-1.86762">
        <ele>29.3</ele>
      </trkpt>
      <trkpt lat="47.74635" lon="-1.86768">
        <ele>29.2</ele>
      </trkpt>
      <trkpt lat="47.74636" lon="-1.86774">
        <ele>29.1</ele>
      </trkpt>
      <trkpt lat="47.74637" lon="-1.8678">
        <ele>29</ele>
      </trkpt>
      <trkpt lat="47.74638" lon="-1.86786">
        <ele>28.9</ele>
      </trkpt>
      <trkpt lat="47.74639" lon="-1.86792">
        <ele>28.8</ele>
      </trkpt>
      <trkpt lat="47.7464" lon="-1.86798">
        <ele>28.7</ele>
      </trkpt>
      <trkpt lat="47.74642" lon="-1.86805">
        <ele>28.6</ele>
      </trkpt>
      <trkpt lat="47.74643" lon="-1.86811">
        <ele>28.5</ele>
      </trkpt>
      <trkpt lat="47.74644" lon="-1.86818">
        <ele>28.3</ele>
      </trkpt>
      <trkpt lat="47.74645" lon="-1.86825">
        <ele>28.2</ele>
      </trkpt>
      <trkpt lat="47.74647" lon="-1.86831">
        <ele>28</ele>
      </trkpt>
      <trkpt lat="47.74648" lon="-1.86838">
        <ele>28</ele>
      </trkpt>
      <trkpt lat="47.74649" lon="-1.86845">
        <ele>28</ele>
      </trkpt>
      <trkpt lat="47.7465" lon="-1.86852">
        <ele>28</ele>
      </trkpt>
      <trkpt lat="47.74652" lon="-1.86858">
        <ele>28.1</ele>
      </trkpt>
      <trkpt lat="47.74653" lon="-1.86865">
        <ele>28.1</ele>
      </trkpt>
      <trkpt lat="47.74655" lon="-1.86872">
        <ele>28.1</ele>
      </trkpt>
      <trkpt lat="47.74656" lon="-1.86879">
        <ele>28.1</ele>
      </trkpt>
      <trkpt lat="47.74657" lon="-1.86886">
        <ele>28.1</ele>
      </trkpt>
      <trkpt lat="47.74659" lon="-1.86892">
        <ele>28.2</ele>
      </trkpt>
      <trkpt lat="47.7466" lon="-1.86899">
        <ele>28.2</ele>
      </trkpt>
      <trkpt lat="47.74662" lon="-1.86906">
        <ele>28.2</ele>
      </trkpt>
      <trkpt lat="47.74663" lon="-1.86912">
        <ele>28.2</ele>
      </trkpt>
      <trkpt lat="47.74664" lon="-1.86919">
        <ele>28.2</ele>
      </trkpt>
      <trkpt lat="47.74666" lon="-1.86925">
        <ele>28.3</ele>
      </trkpt>
      <trkpt lat="47.74667" lon="-1.86932">
        <ele>28.4</ele>
      </trkpt>
      <trkpt lat="47.74668" lon="-1.86939">
        <ele>28.6</ele>
      </trkpt>
      <trkpt lat="47.74669" lon="-1.86945">
        <ele>28.7</ele>
      </trkpt>
      <trkpt lat="47.7467" lon="-1.86952">
        <ele>28.9</ele>
      </trkpt>
      <trkpt lat="47.74671" lon="-1.86958">
        <ele>29</ele>
      </trkpt>
      <trkpt lat="47.74671" lon="-1.86964">
        <ele>29.2</ele>
      </trkpt>
      <trkpt lat="47.74673" lon="-1.8697">
        <ele>29.3</ele>
      </trkpt>
      <trkpt lat="47.74675" lon="-1.86978">
        <ele>29.5</ele>
      </trkpt>
      <trkpt lat="47.74678" lon="-1.86983">
        <ele>29.7</ele>
      </trkpt>
      <trkpt lat="47.7468" lon="-1.86989">
        <ele>29.8</ele>
      </trkpt>
      <trkpt lat="47.74683" lon="-1.86995">
        <ele>29.9</ele>
      </trkpt>
      <trkpt lat="47.74686" lon="-1.87001">
        <ele>30</ele>
      </trkpt>
      <trkpt lat="47.74688" lon="-1.87007">
        <ele>30.1</ele>
      </trkpt>
      <trkpt lat="47.74691" lon="-1.87012">
        <ele>30.2</ele>
      </trkpt>
      <trkpt lat="47.74693" lon="-1.87018">
        <ele>30.3</ele>
      </trkpt>
      <trkpt lat="47.74696" lon="-1.87023">
        <ele>30.4</ele>
      </trkpt>
      <trkpt lat="47.74698" lon="-1.87029">
        <ele>30.5</ele>
      </trkpt>
      <trkpt lat="47.747" lon="-1.87034">
        <ele>30.6</ele>
      </trkpt>
      <trkpt lat="47.74702" lon="-1.87039">
        <ele>30.7</ele>
      </trkpt>
      <trkpt lat="47.74704" lon="-1.87044">
        <ele>30.8</ele>
      </trkpt>
      <trkpt lat="47.74706" lon="-1.87048">
        <ele>30.9</ele>
      </trkpt>
      <trkpt lat="47.74708" lon="-1.87054">
        <ele>31</ele>
      </trkpt>
      <trkpt lat="47.7471" lon="-1.87059">
        <ele>31.1</ele>
      </trkpt>
      <trkpt lat="47.74712" lon="-1.87063">
        <ele>31.2</ele>
      </trkpt>
      <trkpt lat="47.74714" lon="-1.87068">
        <ele>31.3</ele>
      </trkpt>
      <trkpt lat="47.74716" lon="-1.87073">
        <ele>31.4</ele>
      </trkpt>
      <trkpt lat="47.74717" lon="-1.87077">
        <ele>31.5</ele>
      </trkpt>
      <trkpt lat="47.74719" lon="-1.87081">
        <ele>31.6</ele>
      </trkpt>
      <trkpt lat="47.74721" lon="-1.87086">
        <ele>31.7</ele>
      </trkpt>
      <trkpt lat="47.74723" lon="-1.8709">
        <ele>31.9</ele>
      </trkpt>
      <trkpt lat="47.74724" lon="-1.87094">
        <ele>32</ele>
      </trkpt>
      <trkpt lat="47.74726" lon="-1.87098">
        <ele>32.2</ele>
      </trkpt>
      <trkpt lat="47.74727" lon="-1.87101">
        <ele>32.3</ele>
      </trkpt>
      <trkpt lat="47.74729" lon="-1.87105">
        <ele>32.5</ele>
      </trkpt>
      <trkpt lat="47.7473" lon="-1.87109">
        <ele>32.6</ele>
      </trkpt>
      <trkpt lat="47.74732" lon="-1.87112">
        <ele>32.7</ele>
      </trkpt>
      <trkpt lat="47.74733" lon="-1.87116">
        <ele>32.9</ele>
      </trkpt>
      <trkpt lat="47.74734" lon="-1.8712">
        <ele>33</ele>
      </trkpt>
      <trkpt lat="47.74735" lon="-1.87123">
        <ele>33.2</ele>
      </trkpt>
      <trkpt lat="47.74736" lon="-1.87127">
        <ele>33.3</ele>
      </trkpt>
      <trkpt lat="47.74737" lon="-1.87131">
        <ele>33.5</ele>
      </trkpt>
      <trkpt lat="47.74737" lon="-1.87135">
        <ele>33.6</ele>
      </trkpt>
      <trkpt lat="47.74738" lon="-1.87139">
        <ele>33.8</ele>
      </trkpt>
      <trkpt lat="47.74738" lon="-1.87143">
        <ele>33.9</ele>
      </trkpt>
      <trkpt lat="47.74739" lon="-1.87148">
        <ele>34.1</ele>
      </trkpt>
      <trkpt lat="47.74739" lon="-1.87152">
        <ele>34.2</ele>
      </trkpt>
      <trkpt lat="47.7474" lon="-1.87155">
        <ele>34.4</ele>
      </trkpt>
      <trkpt lat="47.7474" lon="-1.87158">
        <ele>34.5</ele>
      </trkpt>
      <trkpt lat="47.7474" lon="-1.8716">
        <ele>34.5</ele>
      </trkpt>
      <trkpt lat="47.7474" lon="-1.8716">
        <ele>34.5</ele>
      </trkpt>
      <trkpt lat="47.7474" lon="-1.8716">
        <ele>34.5</ele>
      </trkpt>
      <trkpt lat="47.7474" lon="-1.8716">
        <ele>34.5</ele>
      </trkpt>
      <trkpt lat="47.7474" lon="-1.8716">
        <ele>34.5</ele>
      </trkpt>
      <trkpt lat="47.7474" lon="-1.8716">
        <ele>34.5</ele>
      </trkpt>
      <trkpt lat="47.7474" lon="-1.8716">
        <ele>34.5</ele>
      </trkpt>
      <trkpt lat="47.7474" lon="-1.8716">
        <ele>34.5</ele>
      </trkpt>
      <trkpt lat="47.7474" lon="-1.8716">
        <ele>34.5</ele>
      </trkpt>
      <trkpt lat="47.7474" lon="-1.8716">
        <ele>34.5</ele>
      </trkpt>
      <trkpt lat="47.7474" lon="-1.8716">
        <ele>34.5</ele>
      </trkpt>
      <trkpt lat="47.7474" lon="-1.8716">
        <ele>34.5</ele>
      </trkpt>
      <trkpt lat="47.7474" lon="-1.8716">
        <ele>34.5</ele>
      </trkpt>
      <trkpt lat="47.7474" lon="-1.8716">
        <ele>34.5</ele>
      </trkpt>
      <trkpt lat="47.7474" lon="-1.8716">
        <ele>34.5</ele>
      </trkpt>
      <trkpt lat="47.7474" lon="-1.8716">
        <ele>34.5</ele>
      </trkpt>
      <trkpt lat="47.7474" lon="-1.8716">
        <ele>34.5</ele>
      </trkpt>
      <trkpt lat="47.7474" lon="-1.8716">
        <ele>34.5</ele>
      </trkpt>
      <trkpt lat="47.7474" lon="-1.8716">
        <ele>34.5</ele>
      </trkpt>
      <trkpt lat="47.74741" lon="-1.87163">
        <ele>34.7</ele>
      </trkpt>
      <trkpt lat="47.74742" lon="-1.87167">
        <ele>34.8</ele>
      </trkpt>
      <trkpt lat="47.74742" lon="-1.8717">
        <ele>35</ele>
      </trkpt>
      <trkpt lat="47.74743" lon="-1.87174">
        <ele>35.2</ele>
      </trkpt>
      <trkpt lat="47.74744" lon="-1.87178">
        <ele>35.4</ele>
      </trkpt>
      <trkpt lat="47.74745" lon="-1.87183">
        <ele>35.6</ele>
      </trkpt>
      <trkpt lat="47.74746" lon="-1.87187">
        <ele>35.9</ele>
      </trkpt>
      <trkpt lat="47.74746" lon="-1.87192">
        <ele>36.1</ele>
      </trkpt>
      <trkpt lat="47.74747" lon="-1.87196">
        <ele>36.3</ele>
      </trkpt>
      <trkpt lat="47.74748" lon="-1.87199">
        <ele>36.5</ele>
      </trkpt>
      <trkpt lat="47.74748" lon="-1.87204">
        <ele>36.7</ele>
      </trkpt>
      <trkpt lat="47.74749" lon="-1.87208">
        <ele>36.9</ele>
      </trkpt>
      <trkpt lat="47.7475" lon="-1.87211">
        <ele>37.1</ele>
      </trkpt>
      <trkpt lat="47.74751" lon="-1.87215">
        <ele>37.4</ele>
      </trkpt>
      <trkpt lat="47.74751" lon="-1.87218">
        <ele>37.6</ele>
      </trkpt>
      <trkpt lat="47.74752" lon="-1.87223">
        <ele>37.9</ele>
      </trkpt>
      <trkpt lat="47.74753" lon="-1.87227">
        <ele>38.1</ele>
      </trkpt>
      <trkpt lat="47.74753" lon="-1.87231">
        <ele>38.4</ele>
      </trkpt>
      <trkpt lat="47.74754" lon="-1.87234">
        <ele>38.6</ele>
      </trkpt>
      <trkpt lat="47.74754" lon="-1.87238">
        <ele>38.8</ele>
      </trkpt>
      <trkpt lat="47.74755" lon="-1.87242">
        <ele>39</ele>
      </trkpt>
      <trkpt lat="47.74755" lon="-1.87246">
        <ele>39.2</ele>
      </trkpt>
      <trkpt lat="47.74755" lon="-1.8725">
        <ele>39.4</ele>
      </trkpt>
      <trkpt lat="47.74754" lon="-1.87254">
        <ele>39.8</ele>
      </trkpt>
      <trkpt lat="47.74754" lon="-1.87258">
        <ele>40.1</ele>
      </trkpt>
      <trkpt lat="47.74754" lon="-1.87261">
        <ele>40.4</ele>
      </trkpt>
      <trkpt lat="47.74753" lon="-1.87265">
        <ele>40.8</ele>
      </trkpt>
      <trkpt lat="47.74752" lon="-1.87269">
        <ele>41.1</ele>
      </trkpt>
      <trkpt lat="47.74752" lon="-1.87273">
        <ele>41.4</ele>
      </trkpt>
      <trkpt lat="47.74751" lon="-1.87277">
        <ele>41.6</ele>
      </trkpt>
      <trkpt lat="47.74749" lon="-1.87281">
        <ele>41.9</ele>
      </trkpt>
      <trkpt lat="47.74748" lon="-1.87284">
        <ele>42.2</ele>
      </trkpt>
      <trkpt lat="47.74748" lon="-1.87288">
        <ele>42.5</ele>
      </trkpt>
      <trkpt lat="47.74746" lon="-1.87291">
        <ele>42.8</ele>
      </trkpt>
      <trkpt lat="47.74745" lon="-1.87295">
        <ele>43</ele>
      </trkpt>
      <trkpt lat="47.74743" lon="-1.87298">
        <ele>43.2</ele>
      </trkpt>
      <trkpt lat="47.74741" lon="-1.87301">
        <ele>43.4</ele>
      </trkpt>
      <trkpt lat="47.74739" lon="-1.87304">
        <ele>43.5</ele>
      </trkpt>
      <trkpt lat="47.74737" lon="-1.87307">
        <ele>43.6</ele>
      </trkpt>
      <trkpt lat="47.74735" lon="-1.8731">
        <ele>43.7</ele>
      </trkpt>
      <trkpt lat="47.74733" lon="-1.87313">
        <ele>43.8</ele>
      </trkpt>
      <trkpt lat="47.7473" lon="-1.87316">
        <ele>43.8</ele>
      </trkpt>
      <trkpt lat="47.74728" lon="-1.87318">
        <ele>43.9</ele>
      </trkpt>
      <trkpt lat="47.74726" lon="-1.8732">
        <ele>43.9</ele>
      </trkpt>
      <trkpt lat="47.74723" lon="-1.87323">
        <ele>43.9</ele>
      </trkpt>
      <trkpt lat="47.7472" lon="-1.87325">
        <ele>43.8</ele>
      </trkpt>
      <trkpt lat="47.74718" lon="-1.87327">
        <ele>43.8</ele>
      </trkpt>
      <trkpt lat="47.74715" lon="-1.87329">
        <ele>43.7</ele>
      </trkpt>
      <trkpt lat="47.74713" lon="-1.87331">
        <ele>43.7</ele>
      </trkpt>
      <trkpt lat="47.74711" lon="-1.87333">
        <ele>43.7</ele>
      </trkpt>
      <trkpt lat="47.74709" lon="-1.87336">
        <ele>43.8</ele>
      </trkpt>
      <trkpt lat="47.74707" lon="-1.8734">
        <ele>43.9</ele>
      </trkpt>
      <trkpt lat="47.74706" lon="-1.87343">
        <ele>44.1</ele>
      </trkpt>
      <trkpt lat="47.74704" lon="-1.87347">
        <ele>44.4</ele>
      </trkpt>
      <trkpt lat="47.74703" lon="-1.8735">
        <ele>44.5</ele>
      </trkpt>
      <trkpt lat="47.74702" lon="-1.87353">
        <ele>44.7</ele>
      </trkpt>
      <trkpt lat="47.74702" lon="-1.87356">
        <ele>44.9</ele>
      </trkpt>
      <trkpt lat="47.74701" lon="-1.87359">
        <ele>45.1</ele>
      </trkpt>
      <trkpt lat="47.74701" lon="-1.87362">
        <ele>45.4</ele>
      </trkpt>
      <trkpt lat="47.74701" lon="-1.87365">
        <ele>45.6</ele>
      </trkpt>
      <trkpt lat="47.74702" lon="-1.87366">
        <ele>45.8</ele>
      </trkpt>
      <trkpt lat="47.74703" lon="-1.87368">
        <ele>46</ele>
      </trkpt>
      <trkpt lat="47.74703" lon="-1.87368">
        <ele>46.1</ele>
      </trkpt>
      <trkpt lat="47.74703" lon="-1.87369">
        <ele>46.2</ele>
      </trkpt>
      <trkpt lat="47.74703" lon="-1.87369">
        <ele>46.2</ele>
      </trkpt>
      <trkpt lat="47.74704" lon="-1.87368">
        <ele>46.2</ele>
      </trkpt>
      <trkpt lat="47.74704" lon="-1.87368">
        <ele>46.3</ele>
      </trkpt>
      <trkpt lat="47.74705" lon="-1.87369">
        <ele>46.3</ele>
      </trkpt>
      <trkpt lat="47.74705" lon="-1.87369">
        <ele>46.3</ele>
      </trkpt>
      <trkpt lat="47.74705" lon="-1.87369">
        <ele>46.3</ele>
      </trkpt>
      <trkpt lat="47.74705" lon="-1.87369">
        <ele>46.3</ele>
      </trkpt>
      <trkpt lat="47.74705" lon="-1.87369">
        <ele>46.3</ele>
      </trkpt>
      <trkpt lat="47.74705" lon="-1.87369">
        <ele>46.4</ele>
      </trkpt>
      <trkpt lat="47.74705" lon="-1.87369">
        <ele>46.4</ele>
      </trkpt>
      <trkpt lat="47.74705" lon="-1.87369">
        <ele>46.4</ele>
      </trkpt>
      <trkpt lat="47.74705" lon="-1.87369">
        <ele>46.4</ele>
      </trkpt>
      <trkpt lat="47.74705" lon="-1.87369">
        <ele>46.4</ele>
      </trkpt>
      <trkpt lat="47.74705" lon="-1.87369">
        <ele>46.4</ele>
      </trkpt>
      <trkpt lat="47.74705" lon="-1.87369">
        <ele>46.4</ele>
      </trkpt>
      <trkpt lat="47.74705" lon="-1.87369">
        <ele>46.4</ele>
      </trkpt>
      <trkpt lat="47.74705" lon="-1.87369">
        <ele>46.4</ele>
      </trkpt>
      <trkpt lat="47.74705" lon="-1.87369">
        <ele>46.4</ele>
      </trkpt>
      <trkpt lat="47.74705" lon="-1.87369">
        <ele>46.4</ele>
      </trkpt>
      <trkpt lat="47.74705" lon="-1.87369">
        <ele>46.4</ele>
      </trkpt>
      <trkpt lat="47.74705" lon="-1.87369">
        <ele>46.4</ele>
      </trkpt>
      <trkpt lat="47.74705" lon="-1.87369">
        <ele>46.4</ele>
      </trkpt>
      <trkpt lat="47.74705" lon="-1.87369">
        <ele>46.4</ele>
      </trkpt>
      <trkpt lat="47.74705" lon="-1.87369">
        <ele>46.4</ele>
      </trkpt>
      <trkpt lat="47.74705" lon="-1.87369">
        <ele>46.4</ele>
      </trkpt>
      <trkpt lat="47.74705" lon="-1.87369">
        <ele>46.4</ele>
      </trkpt>
      <trkpt lat="47.74705" lon="-1.87369">
        <ele>46.4</ele>
      </trkpt>
      <trkpt lat="47.74705" lon="-1.87369">
        <ele>46.4</ele>
      </trkpt>
      <trkpt lat="47.74705" lon="-1.87369">
        <ele>46.4</ele>
      </trkpt>
      <trkpt lat="47.74705" lon="-1.87369">
        <ele>46.4</ele>
      </trkpt>
      <trkpt lat="47.74705" lon="-1.87369">
        <ele>46.4</ele>
      </trkpt>
      <trkpt lat="47.74705" lon="-1.87369">
        <ele>46.4</ele>
      </trkpt>
      <trkpt lat="47.74705" lon="-1.87369">
        <ele>46.4</ele>
      </trkpt>
      <trkpt lat="47.74705" lon="-1.87369">
        <ele>46.4</ele>
      </trkpt>
      <trkpt lat="47.74705" lon="-1.87369">
        <ele>46.4</ele>
      </trkpt>
      <trkpt lat="47.74705" lon="-1.87369">
        <ele>46.4</ele>
      </trkpt>
      <trkpt lat="47.74705" lon="-1.87369">
        <ele>46.4</ele>
      </trkpt>
      <trkpt lat="47.74705" lon="-1.87369">
        <ele>46.4</ele>
      </trkpt>
      <trkpt lat="47.74705" lon="-1.87369">
        <ele>46.4</ele>
      </trkpt>
      <trkpt lat="47.74705" lon="-1.87369">
        <ele>46.4</ele>
      </trkpt>
      <trkpt lat="47.74705" lon="-1.87369">
        <ele>46.4</ele>
      </trkpt>
      <trkpt lat="47.74705" lon="-1.87369">
        <ele>46.4</ele>
      </trkpt>
      <trkpt lat="47.74705" lon="-1.87369">
        <ele>46.4</ele>
      </trkpt>
      <trkpt lat="47.74705" lon="-1.87369">
        <ele>46.4</ele>
      </trkpt>
      <trkpt lat="47.74705" lon="-1.87369">
        <ele>46.4</ele>
      </trkpt>
      <trkpt lat="47.74705" lon="-1.87369">
        <ele>46.4</ele>
      </trkpt>
      <trkpt lat="47.74705" lon="-1.87369">
        <ele>46.4</ele>
      </trkpt>
      <trkpt lat="47.74705" lon="-1.87369">
        <ele>46.4</ele>
      </trkpt>
      <trkpt lat="47.74705" lon="-1.87369">
        <ele>46.4</ele>
      </trkpt>
      <trkpt lat="47.74705" lon="-1.87369">
        <ele>46.4</ele>
      </trkpt>
      <trkpt lat="47.74705" lon="-1.87369">
        <ele>46.4</ele>
      </trkpt>
      <trkpt lat="47.74705" lon="-1.87369">
        <ele>46.4</ele>
      </trkpt>
      <trkpt lat="47.74705" lon="-1.87369">
        <ele>46.4</ele>
      </trkpt>
      <trkpt lat="47.74705" lon="-1.87369">
        <ele>46.4</ele>
      </trkpt>
      <trkpt lat="47.74705" lon="-1.87369">
        <ele>46.4</ele>
      </trkpt>
      <trkpt lat="47.74705" lon="-1.87369">
        <ele>46.4</ele>
      </trkpt>
      <trkpt lat="47.74705" lon="-1.87369">
        <ele>46.4</ele>
      </trkpt>
      <trkpt lat="47.74705" lon="-1.87369">
        <ele>46.4</ele>
      </trkpt>
      <trkpt lat="47.74705" lon="-1.87369">
        <ele>46.4</ele>
      </trkpt>
      <trkpt lat="47.74705" lon="-1.87369">
        <ele>46.4</ele>
      </trkpt>
      <trkpt lat="47.74705" lon="-1.87369">
        <ele>46.4</ele>
      </trkpt>
      <trkpt lat="47.74705" lon="-1.87369">
        <ele>46.4</ele>
      </trkpt>
      <trkpt lat="47.74705" lon="-1.87369">
        <ele>46.4</ele>
      </trkpt>
      <trkpt lat="47.74705" lon="-1.87369">
        <ele>46.4</ele>
      </trkpt>
      <trkpt lat="47.74705" lon="-1.87369">
        <ele>46.4</ele>
      </trkpt>
      <trkpt lat="47.74705" lon="-1.87369">
        <ele>46.4</ele>
      </trkpt>
      <trkpt lat="47.74705" lon="-1.87369">
        <ele>46.4</ele>
      </trkpt>
      <trkpt lat="47.74705" lon="-1.87369">
        <ele>46.4</ele>
      </trkpt>
      <trkpt lat="47.74705" lon="-1.87369">
        <ele>46.4</ele>
      </trkpt>
      <trkpt lat="47.74705" lon="-1.87369">
        <ele>46.4</ele>
      </trkpt>
      <trkpt lat="47.74705" lon="-1.87369">
        <ele>46.4</ele>
      </trkpt>
      <trkpt lat="47.74706" lon="-1.87369">
        <ele>46.4</ele>
      </trkpt>
      <trkpt lat="47.74706" lon="-1.8737">
        <ele>46.6</ele>
      </trkpt>
      <trkpt lat="47.74708" lon="-1.87371">
        <ele>46.8</ele>
      </trkpt>
      <trkpt lat="47.7471" lon="-1.87372">
        <ele>47.1</ele>
      </trkpt>
      <trkpt lat="47.74712" lon="-1.87372">
        <ele>47.4</ele>
      </trkpt>
      <trkpt lat="47.74714" lon="-1.87373">
        <ele>47.6</ele>
      </trkpt>
      <trkpt lat="47.74716" lon="-1.87374">
        <ele>47.9</ele>
      </trkpt>
      <trkpt lat="47.74718" lon="-1.87375">
        <ele>48.2</ele>
      </trkpt>
      <trkpt lat="47.7472" lon="-1.87376">
        <ele>48.5</ele>
      </trkpt>
      <trkpt lat="47.74722" lon="-1.87376">
        <ele>48.7</ele>
      </trkpt>
      <trkpt lat="47.74723" lon="-1.87376">
        <ele>48.8</ele>
      </trkpt>
      <trkpt lat="47.74724" lon="-1.87378">
        <ele>49.1</ele>
      </trkpt>
      <trkpt lat="47.74725" lon="-1.87378">
        <ele>49.3</ele>
      </trkpt>
      <trkpt lat="47.74726" lon="-1.87379">
        <ele>49.4</ele>
      </trkpt>
      <trkpt lat="47.74727" lon="-1.8738">
        <ele>49.7</ele>
      </trkpt>
      <trkpt lat="47.74729" lon="-1.87385">
        <ele>50.2</ele>
      </trkpt>
      <trkpt lat="47.74729" lon="-1.87385">
        <ele>50.2</ele>
      </trkpt>
      <trkpt lat="47.74729" lon="-1.87386">
        <ele>50.5</ele>
      </trkpt>
      <trkpt lat="47.7473" lon="-1.87387">
        <ele>50.6</ele>
      </trkpt>
      <trkpt lat="47.74731" lon="-1.87388">
        <ele>50.8</ele>
      </trkpt>
      <trkpt lat="47.74732" lon="-1.87389">
        <ele>51</ele>
      </trkpt>
      <trkpt lat="47.74732" lon="-1.8739">
        <ele>51.2</ele>
      </trkpt>
      <trkpt lat="47.74732" lon="-1.87391">
        <ele>51.3</ele>
      </trkpt>
      <trkpt lat="47.74732" lon="-1.87393">
        <ele>51.4</ele>
      </trkpt>
      <trkpt lat="47.74733" lon="-1.87396">
        <ele>51.8</ele>
      </trkpt>
      <trkpt lat="47.74733" lon="-1.87398">
        <ele>52.1</ele>
      </trkpt>
      <trkpt lat="47.74733" lon="-1.87401">
        <ele>52.3</ele>
      </trkpt>
      <trkpt lat="47.74732" lon="-1.87402">
        <ele>52.4</ele>
      </trkpt>
      <trkpt lat="47.74732" lon="-1.87403">
        <ele>52.6</ele>
      </trkpt>
      <trkpt lat="47.74733" lon="-1.87405">
        <ele>52.8</ele>
      </trkpt>
      <trkpt lat="47.74733" lon="-1.87407">
        <ele>53</ele>
      </trkpt>
      <trkpt lat="47.74734" lon="-1.87409">
        <ele>53.2</ele>
      </trkpt>
      <trkpt lat="47.74733" lon="-1.8741">
        <ele>53.4</ele>
      </trkpt>
      <trkpt lat="47.74733" lon="-1.87412">
        <ele>53.5</ele>
      </trkpt>
      <trkpt lat="47.74732" lon="-1.87416">
        <ele>53.8</ele>
      </trkpt>
      <trkpt lat="47.74733" lon="-1.87419">
        <ele>54.1</ele>
      </trkpt>
      <trkpt lat="47.74733" lon="-1.87422">
        <ele>54.4</ele>
      </trkpt>
      <trkpt lat="47.74733" lon="-1.87423">
        <ele>54.6</ele>
      </trkpt>
      <trkpt lat="47.74733" lon="-1.87424">
        <ele>54.7</ele>
      </trkpt>
      <trkpt lat="47.74733" lon="-1.87425">
        <ele>54.8</ele>
      </trkpt>
      <trkpt lat="47.74733" lon="-1.87426">
        <ele>54.9</ele>
      </trkpt>
      <trkpt lat="47.74732" lon="-1.87429">
        <ele>55</ele>
      </trkpt>
      <trkpt lat="47.74732" lon="-1.87432">
        <ele>55.4</ele>
      </trkpt>
      <trkpt lat="47.74732" lon="-1.87433">
        <ele>55.4</ele>
      </trkpt>
      <trkpt lat="47.74733" lon="-1.87435">
        <ele>55.7</ele>
      </trkpt>
      <trkpt lat="47.74734" lon="-1.87437">
        <ele>56.1</ele>
      </trkpt>
      <trkpt lat="47.74736" lon="-1.8744">
        <ele>56.6</ele>
      </trkpt>
      <trkpt lat="47.74738" lon="-1.87444">
        <ele>57.2</ele>
      </trkpt>
      <trkpt lat="47.74738" lon="-1.87447">
        <ele>57.5</ele>
      </trkpt>
      <trkpt lat="47.74739" lon="-1.87449">
        <ele>57.8</ele>
      </trkpt>
      <trkpt lat="47.74739" lon="-1.87452">
        <ele>58.1</ele>
      </trkpt>
      <trkpt lat="47.7474" lon="-1.87455">
        <ele>58.5</ele>
      </trkpt>
      <trkpt lat="47.74742" lon="-1.87458">
        <ele>58.9</ele>
      </trkpt>
      <trkpt lat="47.74743" lon="-1.87462">
        <ele>59.6</ele>
      </trkpt>
      <trkpt lat="47.74743" lon="-1.87464">
        <ele>59.8</ele>
      </trkpt>
      <trkpt lat="47.74744" lon="-1.87466">
        <ele>60</ele>
      </trkpt>
      <trkpt lat="47.74746" lon="-1.87467">
        <ele>60.3</ele>
      </trkpt>
      <trkpt lat="47.74748" lon="-1.87468">
        <ele>60.7</ele>
      </trkpt>
      <trkpt lat="47.7475" lon="-1.87469">
        <ele>60.9</ele>
      </trkpt>
      <trkpt lat="47.74751" lon="-1.87468">
        <ele>61</ele>
      </trkpt>
      <trkpt lat="47.74752" lon="-1.87469">
        <ele>61.1</ele>
      </trkpt>
      <trkpt lat="47.74753" lon="-1.87468">
        <ele>61.1</ele>
      </trkpt>
      <trkpt lat="47.74753" lon="-1.87469">
        <ele>61.1</ele>
      </trkpt>
      <trkpt lat="47.74755" lon="-1.87468">
        <ele>61.1</ele>
      </trkpt>
      <trkpt lat="47.74756" lon="-1.87467">
        <ele>61</ele>
      </trkpt>
      <trkpt lat="47.74758" lon="-1.87466">
        <ele>61</ele>
      </trkpt>
      <trkpt lat="47.74759" lon="-1.87465">
        <ele>61</ele>
      </trkpt>
      <trkpt lat="47.7476" lon="-1.87465">
        <ele>61</ele>
      </trkpt>
      <trkpt lat="47.74762" lon="-1.87464">
        <ele>61</ele>
      </trkpt>
      <trkpt lat="47.74763" lon="-1.87464">
        <ele>61</ele>
      </trkpt>
      <trkpt lat="47.74764" lon="-1.87464">
        <ele>61.1</ele>
      </trkpt>
      <trkpt lat="47.74766" lon="-1.87462">
        <ele>61</ele>
      </trkpt>
      <trkpt lat="47.74768" lon="-1.87461">
        <ele>60.9</ele>
      </trkpt>
      <trkpt lat="47.7477" lon="-1.8746">
        <ele>60.9</ele>
      </trkpt>
      <trkpt lat="47.74771" lon="-1.87459">
        <ele>61</ele>
      </trkpt>
      <trkpt lat="47.74773" lon="-1.8746">
        <ele>61.1</ele>
      </trkpt>
      <trkpt lat="47.74774" lon="-1.87462">
        <ele>61.3</ele>
      </trkpt>
      <trkpt lat="47.74775" lon="-1.87464">
        <ele>61.5</ele>
      </trkpt>
      <trkpt lat="47.74776" lon="-1.87467">
        <ele>61.7</ele>
      </trkpt>
      <trkpt lat="47.74777" lon="-1.87469">
        <ele>62</ele>
      </trkpt>
      <trkpt lat="47.74779" lon="-1.87471">
        <ele>62.2</ele>
      </trkpt>
      <trkpt lat="47.7478" lon="-1.87473">
        <ele>62.4</ele>
      </trkpt>
      <trkpt lat="47.74781" lon="-1.87475">
        <ele>62.6</ele>
      </trkpt>
      <trkpt lat="47.74783" lon="-1.87477">
        <ele>62.7</ele>
      </trkpt>
      <trkpt lat="47.74785" lon="-1.87479">
        <ele>62.9</ele>
      </trkpt>
      <trkpt lat="47.74786" lon="-1.8748">
        <ele>63</ele>
      </trkpt>
      <trkpt lat="47.74787" lon="-1.87481">
        <ele>63.2</ele>
      </trkpt>
      <trkpt lat="47.74789" lon="-1.87483">
        <ele>63.3</ele>
      </trkpt>
      <trkpt lat="47.7479" lon="-1.87485">
        <ele>63.5</ele>
      </trkpt>
      <trkpt lat="47.74792" lon="-1.87486">
        <ele>63.6</ele>
      </trkpt>
      <trkpt lat="47.74794" lon="-1.87489">
        <ele>63.8</ele>
      </trkpt>
      <trkpt lat="47.74796" lon="-1.8749">
        <ele>63.9</ele>
      </trkpt>
      <trkpt lat="47.74797" lon="-1.87491">
        <ele>64</ele>
      </trkpt>
      <trkpt lat="47.74799" lon="-1.87491">
        <ele>64.1</ele>
      </trkpt>
      <trkpt lat="47.74801" lon="-1.87493">
        <ele>64.2</ele>
      </trkpt>
      <trkpt lat="47.74803" lon="-1.87494">
        <ele>64.3</ele>
      </trkpt>
      <trkpt lat="47.74806" lon="-1.87494">
        <ele>64.3</ele>
      </trkpt>
      <trkpt lat="47.74808" lon="-1.87494">
        <ele>64.4</ele>
      </trkpt>
      <trkpt lat="47.7481" lon="-1.87494">
        <ele>64.4</ele>
      </trkpt>
      <trkpt lat="47.74812" lon="-1.87494">
        <ele>64.4</ele>
      </trkpt>
      <trkpt lat="47.74816" lon="-1.87497">
        <ele>64.7</ele>
      </trkpt>
      <trkpt lat="47.74816" lon="-1.87497">
        <ele>64.7</ele>
      </trkpt>
      <trkpt lat="47.74819" lon="-1.87499">
        <ele>64.8</ele>
      </trkpt>
      <trkpt lat="47.74822" lon="-1.87497">
        <ele>64.7</ele>
      </trkpt>
      <trkpt lat="47.74824" lon="-1.87493">
        <ele>64.6</ele>
      </trkpt>
      <trkpt lat="47.74825" lon="-1.8749">
        <ele>64.5</ele>
      </trkpt>
      <trkpt lat="47.74826" lon="-1.87485">
        <ele>64.3</ele>
      </trkpt>
      <trkpt lat="47.74827" lon="-1.8748">
        <ele>64.1</ele>
      </trkpt>
      <trkpt lat="47.74828" lon="-1.87478">
        <ele>64.1</ele>
      </trkpt>
      <trkpt lat="47.7483" lon="-1.87476">
        <ele>64</ele>
      </trkpt>
      <trkpt lat="47.74832" lon="-1.87475">
        <ele>64.1</ele>
      </trkpt>
      <trkpt lat="47.74834" lon="-1.87477">
        <ele>63.9</ele>
      </trkpt>
      <trkpt lat="47.74837" lon="-1.87479">
        <ele>63.6</ele>
      </trkpt>
      <trkpt lat="47.74841" lon="-1.8748">
        <ele>62.8</ele>
      </trkpt>
      <trkpt lat="47.74845" lon="-1.87482">
        <ele>62.1</ele>
      </trkpt>
      <trkpt lat="47.74847" lon="-1.87483">
        <ele>61.8</ele>
      </trkpt>
      <trkpt lat="47.74848" lon="-1.87486">
        <ele>61.7</ele>
      </trkpt>
      <trkpt lat="47.74847" lon="-1.87489">
        <ele>61.9</ele>
      </trkpt>
      <trkpt lat="47.74847" lon="-1.87492">
        <ele>62.1</ele>
      </trkpt>
      <trkpt lat="47.74847" lon="-1.87494">
        <ele>62.1</ele>
      </trkpt>
      <trkpt lat="47.74847" lon="-1.87494">
        <ele>62.1</ele>
      </trkpt>
      <trkpt lat="47.74847" lon="-1.87494">
        <ele>62.1</ele>
      </trkpt>
      <trkpt lat="47.74847" lon="-1.87494">
        <ele>62.1</ele>
      </trkpt>
      <trkpt lat="47.74847" lon="-1.87494">
        <ele>62.1</ele>
      </trkpt>
      <trkpt lat="47.74847" lon="-1.87494">
        <ele>62.1</ele>
      </trkpt>
      <trkpt lat="47.74847" lon="-1.87494">
        <ele>62.1</ele>
      </trkpt>
      <trkpt lat="47.74847" lon="-1.87494">
        <ele>62.1</ele>
      </trkpt>
      <trkpt lat="47.74847" lon="-1.87494">
        <ele>62.1</ele>
      </trkpt>
      <trkpt lat="47.74847" lon="-1.87494">
        <ele>62.1</ele>
      </trkpt>
      <trkpt lat="47.74847" lon="-1.87494">
        <ele>62.1</ele>
      </trkpt>
      <trkpt lat="47.74847" lon="-1.87494">
        <ele>62.1</ele>
      </trkpt>
      <trkpt lat="47.74847" lon="-1.87494">
        <ele>62.1</ele>
      </trkpt>
      <trkpt lat="47.74847" lon="-1.87494">
        <ele>62.1</ele>
      </trkpt>
      <trkpt lat="47.74847" lon="-1.87494">
        <ele>62.1</ele>
      </trkpt>
      <trkpt lat="47.74847" lon="-1.87494">
        <ele>62.1</ele>
      </trkpt>
      <trkpt lat="47.74847" lon="-1.87494">
        <ele>62.1</ele>
      </trkpt>
      <trkpt lat="47.74847" lon="-1.87494">
        <ele>62.1</ele>
      </trkpt>
      <trkpt lat="47.74847" lon="-1.87494">
        <ele>62.1</ele>
      </trkpt>
      <trkpt lat="47.74847" lon="-1.87494">
        <ele>62.1</ele>
      </trkpt>
      <trkpt lat="47.74847" lon="-1.87494">
        <ele>62.1</ele>
      </trkpt>
      <trkpt lat="47.74847" lon="-1.87494">
        <ele>62.1</ele>
      </trkpt>
      <trkpt lat="47.74847" lon="-1.87494">
        <ele>62.1</ele>
      </trkpt>
      <trkpt lat="47.74847" lon="-1.87494">
        <ele>62.1</ele>
      </trkpt>
      <trkpt lat="47.74847" lon="-1.87494">
        <ele>62.1</ele>
      </trkpt>
      <trkpt lat="47.74847" lon="-1.87494">
        <ele>62.1</ele>
      </trkpt>
      <trkpt lat="47.74847" lon="-1.87494">
        <ele>62.1</ele>
      </trkpt>
      <trkpt lat="47.74847" lon="-1.87495">
        <ele>62.2</ele>
      </trkpt>
      <trkpt lat="47.74847" lon="-1.87495">
        <ele>62.2</ele>
      </trkpt>
      <trkpt lat="47.74847" lon="-1.87495">
        <ele>62.2</ele>
      </trkpt>
      <trkpt lat="47.74847" lon="-1.87495">
        <ele>62.2</ele>
      </trkpt>
      <trkpt lat="47.74847" lon="-1.87496">
        <ele>62.2</ele>
      </trkpt>
      <trkpt lat="47.74847" lon="-1.87496">
        <ele>62.2</ele>
      </trkpt>
      <trkpt lat="47.74847" lon="-1.87496">
        <ele>62.2</ele>
      </trkpt>
      <trkpt lat="47.74847" lon="-1.87496">
        <ele>62.2</ele>
      </trkpt>
      <trkpt lat="47.74848" lon="-1.87497">
        <ele>62.1</ele>
      </trkpt>
      <trkpt lat="47.74848" lon="-1.87497">
        <ele>62.1</ele>
      </trkpt>
      <trkpt lat="47.74848" lon="-1.87497">
        <ele>62.1</ele>
      </trkpt>
      <trkpt lat="47.74848" lon="-1.87499">
        <ele>62.1</ele>
      </trkpt>
      <trkpt lat="47.74849" lon="-1.87501">
        <ele>62</ele>
      </trkpt>
      <trkpt lat="47.74849" lon="-1.87501">
        <ele>62</ele>
      </trkpt>
      <trkpt lat="47.74849" lon="-1.87501">
        <ele>62</ele>
      </trkpt>
      <trkpt lat="47.7485" lon="-1.87505">
        <ele>61.8</ele>
      </trkpt>
      <trkpt lat="47.7485" lon="-1.87507">
        <ele>61.7</ele>
      </trkpt>
      <trkpt lat="47.74851" lon="-1.87511">
        <ele>61.5</ele>
      </trkpt>
      <trkpt lat="47.74853" lon="-1.87515">
        <ele>61.2</ele>
      </trkpt>
      <trkpt lat="47.74854" lon="-1.8752">
        <ele>60.9</ele>
      </trkpt>
      <trkpt lat="47.74856" lon="-1.87524">
        <ele>60.6</ele>
      </trkpt>
      <trkpt lat="47.74858" lon="-1.87527">
        <ele>60.2</ele>
      </trkpt>
      <trkpt lat="47.7486" lon="-1.87528">
        <ele>59.8</ele>
      </trkpt>
      <trkpt lat="47.74863" lon="-1.87529">
        <ele>59.3</ele>
      </trkpt>
      <trkpt lat="47.74864" lon="-1.87527">
        <ele>58.9</ele>
      </trkpt>
      <trkpt lat="47.74866" lon="-1.87525">
        <ele>58.6</ele>
      </trkpt>
      <trkpt lat="47.74868" lon="-1.87523">
        <ele>58.1</ele>
      </trkpt>
      <trkpt lat="47.74871" lon="-1.87518">
        <ele>57.7</ele>
      </trkpt>
      <trkpt lat="47.74872" lon="-1.87514">
        <ele>57.4</ele>
      </trkpt>
      <trkpt lat="47.74874" lon="-1.8751">
        <ele>57.2</ele>
      </trkpt>
      <trkpt lat="47.74874" lon="-1.87507">
        <ele>57.1</ele>
      </trkpt>
      <trkpt lat="47.74874" lon="-1.87504">
        <ele>57.2</ele>
      </trkpt>
      <trkpt lat="47.74873" lon="-1.87502">
        <ele>57.4</ele>
      </trkpt>
      <trkpt lat="47.74872" lon="-1.87501">
        <ele>57.6</ele>
      </trkpt>
      <trkpt lat="47.74871" lon="-1.87499">
        <ele>57.7</ele>
      </trkpt>
      <trkpt lat="47.7487" lon="-1.87497">
        <ele>57.8</ele>
      </trkpt>
      <trkpt lat="47.7487" lon="-1.87495">
        <ele>57.8</ele>
      </trkpt>
      <trkpt lat="47.74871" lon="-1.87493">
        <ele>57.5</ele>
      </trkpt>
      <trkpt lat="47.74871" lon="-1.8749">
        <ele>57.3</ele>
      </trkpt>
      <trkpt lat="47.74872" lon="-1.87486">
        <ele>56.9</ele>
      </trkpt>
      <trkpt lat="47.74872" lon="-1.87482">
        <ele>56.8</ele>
      </trkpt>
      <trkpt lat="47.74872" lon="-1.87478">
        <ele>56.6</ele>
      </trkpt>
      <trkpt lat="47.74872" lon="-1.87474">
        <ele>56.5</ele>
      </trkpt>
      <trkpt lat="47.74872" lon="-1.8747">
        <ele>56.3</ele>
      </trkpt>
      <trkpt lat="47.74875" lon="-1.87466">
        <ele>55.7</ele>
      </trkpt>
      <trkpt lat="47.74876" lon="-1.87463">
        <ele>55.2</ele>
      </trkpt>
      <trkpt lat="47.74877" lon="-1.87455">
        <ele>54.7</ele>
      </trkpt>
      <trkpt lat="47.74878" lon="-1.87451">
        <ele>54.3</ele>
      </trkpt>
      <trkpt lat="47.7488" lon="-1.87447">
        <ele>53.8</ele>
      </trkpt>
      <trkpt lat="47.7488" lon="-1.87446">
        <ele>53.7</ele>
      </trkpt>
      <trkpt lat="47.7488" lon="-1.87446">
        <ele>53.7</ele>
      </trkpt>
      <trkpt lat="47.7488" lon="-1.87446">
        <ele>53.7</ele>
      </trkpt>
      <trkpt lat="47.7488" lon="-1.87446">
        <ele>53.7</ele>
      </trkpt>
      <trkpt lat="47.7488" lon="-1.87446">
        <ele>53.7</ele>
      </trkpt>
      <trkpt lat="47.7488" lon="-1.87446">
        <ele>53.7</ele>
      </trkpt>
      <trkpt lat="47.7488" lon="-1.87446">
        <ele>53.7</ele>
      </trkpt>
      <trkpt lat="47.7488" lon="-1.87446">
        <ele>53.7</ele>
      </trkpt>
      <trkpt lat="47.7488" lon="-1.87446">
        <ele>53.7</ele>
      </trkpt>
      <trkpt lat="47.7488" lon="-1.87446">
        <ele>53.7</ele>
      </trkpt>
      <trkpt lat="47.7488" lon="-1.87446">
        <ele>53.7</ele>
      </trkpt>
      <trkpt lat="47.7488" lon="-1.87446">
        <ele>53.7</ele>
      </trkpt>
      <trkpt lat="47.7488" lon="-1.87446">
        <ele>53.7</ele>
      </trkpt>
      <trkpt lat="47.7488" lon="-1.87446">
        <ele>53.7</ele>
      </trkpt>
      <trkpt lat="47.7488" lon="-1.87446">
        <ele>53.7</ele>
      </trkpt>
      <trkpt lat="47.7488" lon="-1.87446">
        <ele>53.7</ele>
      </trkpt>
      <trkpt lat="47.74879" lon="-1.87443">
        <ele>53.8</ele>
      </trkpt>
      <trkpt lat="47.74878" lon="-1.87441">
        <ele>53.9</ele>
      </trkpt>
      <trkpt lat="47.74877" lon="-1.87439">
        <ele>54</ele>
      </trkpt>
      <trkpt lat="47.74876" lon="-1.87437">
        <ele>54.1</ele>
      </trkpt>
      <trkpt lat="47.74875" lon="-1.87435">
        <ele>54.2</ele>
      </trkpt>
      <trkpt lat="47.74875" lon="-1.87432">
        <ele>54.2</ele>
      </trkpt>
      <trkpt lat="47.74874" lon="-1.87429">
        <ele>54.2</ele>
      </trkpt>
      <trkpt lat="47.74874" lon="-1.87427">
        <ele>54.2</ele>
      </trkpt>
      <trkpt lat="47.74873" lon="-1.87425">
        <ele>54.4</ele>
      </trkpt>
      <trkpt lat="47.74871" lon="-1.87424">
        <ele>54.5</ele>
      </trkpt>
      <trkpt lat="47.7487" lon="-1.87422">
        <ele>54.7</ele>
      </trkpt>
      <trkpt lat="47.74869" lon="-1.87418">
        <ele>54.8</ele>
      </trkpt>
      <trkpt lat="47.74869" lon="-1.87415">
        <ele>54.7</ele>
      </trkpt>
      <trkpt lat="47.74869" lon="-1.87412">
        <ele>54.4</ele>
      </trkpt>
      <trkpt lat="47.74868" lon="-1.87409">
        <ele>54.4</ele>
      </trkpt>
      <trkpt lat="47.74866" lon="-1.87406">
        <ele>54.5</ele>
      </trkpt>
      <trkpt lat="47.74865" lon="-1.87404">
        <ele>54.5</ele>
      </trkpt>
      <trkpt lat="47.74865" lon="-1.87402">
        <ele>54.4</ele>
      </trkpt>
      <trkpt lat="47.74866" lon="-1.87399">
        <ele>54</ele>
      </trkpt>
      <trkpt lat="47.74867" lon="-1.87396">
        <ele>53.5</ele>
      </trkpt>
      <trkpt lat="47.74868" lon="-1.87392">
        <ele>53.1</ele>
      </trkpt>
      <trkpt lat="47.74867" lon="-1.87387">
        <ele>52.8</ele>
      </trkpt>
      <trkpt lat="47.74866" lon="-1.87382">
        <ele>52.6</ele>
      </trkpt>
      <trkpt lat="47.74865" lon="-1.87377">
        <ele>52.4</ele>
      </trkpt>
      <trkpt lat="47.74866" lon="-1.87374">
        <ele>51.9</ele>
      </trkpt>
      <trkpt lat="47.74868" lon="-1.8737">
        <ele>51.2</ele>
      </trkpt>
      <trkpt lat="47.7487" lon="-1.87365">
        <ele>50.4</ele>
      </trkpt>
      <trkpt lat="47.74871" lon="-1.87359">
        <ele>49.9</ele>
      </trkpt>
      <trkpt lat="47.74871" lon="-1.87355">
        <ele>49.5</ele>
      </trkpt>
      <trkpt lat="47.74871" lon="-1.8735">
        <ele>49.2</ele>
      </trkpt>
      <trkpt lat="47.74868" lon="-1.87344">
        <ele>49.2</ele>
      </trkpt>
      <trkpt lat="47.74867" lon="-1.87338">
        <ele>49</ele>
      </trkpt>
      <trkpt lat="47.74867" lon="-1.87337">
        <ele>48.7</ele>
      </trkpt>
      <trkpt lat="47.74867" lon="-1.87336">
        <ele>48.7</ele>
      </trkpt>
      <trkpt lat="47.74867" lon="-1.87334">
        <ele>48.6</ele>
      </trkpt>
      <trkpt lat="47.74867" lon="-1.87332">
        <ele>48.4</ele>
      </trkpt>
      <trkpt lat="47.74867" lon="-1.8733">
        <ele>48.4</ele>
      </trkpt>
      <trkpt lat="47.74866" lon="-1.87327">
        <ele>48.2</ele>
      </trkpt>
      <trkpt lat="47.74866" lon="-1.87324">
        <ele>48.1</ele>
      </trkpt>
      <trkpt lat="47.74865" lon="-1.87321">
        <ele>48.1</ele>
      </trkpt>
      <trkpt lat="47.74864" lon="-1.87319">
        <ele>48.1</ele>
      </trkpt>
      <trkpt lat="47.74863" lon="-1.87316">
        <ele>48</ele>
      </trkpt>
      <trkpt lat="47.74863" lon="-1.87315">
        <ele>48</ele>
      </trkpt>
      <trkpt lat="47.74863" lon="-1.87314">
        <ele>47.8</ele>
      </trkpt>
      <trkpt lat="47.74862" lon="-1.87312">
        <ele>48</ele>
      </trkpt>
      <trkpt lat="47.74861" lon="-1.87311">
        <ele>48</ele>
      </trkpt>
      <trkpt lat="47.7486" lon="-1.8731">
        <ele>48</ele>
      </trkpt>
      <trkpt lat="47.74859" lon="-1.87308">
        <ele>48.1</ele>
      </trkpt>
      <trkpt lat="47.74858" lon="-1.87307">
        <ele>48.2</ele>
      </trkpt>
      <trkpt lat="47.74858" lon="-1.87306">
        <ele>48.2</ele>
      </trkpt>
      <trkpt lat="47.74857" lon="-1.87305">
        <ele>48.2</ele>
      </trkpt>
      <trkpt lat="47.74856" lon="-1.87304">
        <ele>48.3</ele>
      </trkpt>
      <trkpt lat="47.74855" lon="-1.87302">
        <ele>48.4</ele>
      </trkpt>
      <trkpt lat="47.74854" lon="-1.873">
        <ele>48.3</ele>
      </trkpt>
      <trkpt lat="47.74854" lon="-1.87298">
        <ele>48.1</ele>
      </trkpt>
      <trkpt lat="47.74854" lon="-1.87295">
        <ele>47.9</ele>
      </trkpt>
      <trkpt lat="47.74854" lon="-1.87291">
        <ele>47.7</ele>
      </trkpt>
      <trkpt lat="47.74853" lon="-1.87288">
        <ele>47.4</ele>
      </trkpt>
      <trkpt lat="47.74854" lon="-1.87285">
        <ele>47.1</ele>
      </trkpt>
      <trkpt lat="47.74855" lon="-1.87284">
        <ele>46.8</ele>
      </trkpt>
      <trkpt lat="47.74856" lon="-1.87283">
        <ele>46.5</ele>
      </trkpt>
      <trkpt lat="47.74857" lon="-1.87282">
        <ele>46.5</ele>
      </trkpt>
      <trkpt lat="47.74857" lon="-1.87282">
        <ele>46.5</ele>
      </trkpt>
      <trkpt lat="47.74857" lon="-1.87282">
        <ele>46.5</ele>
      </trkpt>
      <trkpt lat="47.74857" lon="-1.87282">
        <ele>46.5</ele>
      </trkpt>
      <trkpt lat="47.74857" lon="-1.87282">
        <ele>46.5</ele>
      </trkpt>
      <trkpt lat="47.74857" lon="-1.87282">
        <ele>46.5</ele>
      </trkpt>
      <trkpt lat="47.74857" lon="-1.87282">
        <ele>46.5</ele>
      </trkpt>
      <trkpt lat="47.74857" lon="-1.87282">
        <ele>46.5</ele>
      </trkpt>
      <trkpt lat="47.74857" lon="-1.87282">
        <ele>46.5</ele>
      </trkpt>
      <trkpt lat="47.74857" lon="-1.87282">
        <ele>46.5</ele>
      </trkpt>
      <trkpt lat="47.74857" lon="-1.87282">
        <ele>46.5</ele>
      </trkpt>
      <trkpt lat="47.74857" lon="-1.87282">
        <ele>46.5</ele>
      </trkpt>
      <trkpt lat="47.74857" lon="-1.87282">
        <ele>46.5</ele>
      </trkpt>
      <trkpt lat="47.74857" lon="-1.87282">
        <ele>46.4</ele>
      </trkpt>
      <trkpt lat="47.74859" lon="-1.87281">
        <ele>46.1</ele>
      </trkpt>
      <trkpt lat="47.7486" lon="-1.8728">
        <ele>45.7</ele>
      </trkpt>
      <trkpt lat="47.74862" lon="-1.87278">
        <ele>45.3</ele>
      </trkpt>
      <trkpt lat="47.74862" lon="-1.87276">
        <ele>45.2</ele>
      </trkpt>
      <trkpt lat="47.74861" lon="-1.87275">
        <ele>45.2</ele>
      </trkpt>
      <trkpt lat="47.7486" lon="-1.87274">
        <ele>45.3</ele>
      </trkpt>
      <trkpt lat="47.7486" lon="-1.87274">
        <ele>45.4</ele>
      </trkpt>
      <trkpt lat="47.74859" lon="-1.87273">
        <ele>45.3</ele>
      </trkpt>
      <trkpt lat="47.74858" lon="-1.87271">
        <ele>45.3</ele>
      </trkpt>
      <trkpt lat="47.74857" lon="-1.87268">
        <ele>45.4</ele>
      </trkpt>
      <trkpt lat="47.74856" lon="-1.87266">
        <ele>45.3</ele>
      </trkpt>
      <trkpt lat="47.74855" lon="-1.87263">
        <ele>45.2</ele>
      </trkpt>
      <trkpt lat="47.74855" lon="-1.87261">
        <ele>45</ele>
      </trkpt>
      <trkpt lat="47.74855" lon="-1.87259">
        <ele>44.9</ele>
      </trkpt>
      <trkpt lat="47.74854" lon="-1.87258">
        <ele>44.9</ele>
      </trkpt>
      <trkpt lat="47.74853" lon="-1.87255">
        <ele>44.9</ele>
      </trkpt>
      <trkpt lat="47.74851" lon="-1.87252">
        <ele>44.8</ele>
      </trkpt>
      <trkpt lat="47.7485" lon="-1.87248">
        <ele>44.7</ele>
      </trkpt>
      <trkpt lat="47.7485" lon="-1.87247">
        <ele>44.6</ele>
      </trkpt>
      <trkpt lat="47.7485" lon="-1.87244">
        <ele>44.4</ele>
      </trkpt>
      <trkpt lat="47.7485" lon="-1.87242">
        <ele>44.2</ele>
      </trkpt>
      <trkpt lat="47.74852" lon="-1.87241">
        <ele>44</ele>
      </trkpt>
      <trkpt lat="47.74853" lon="-1.8724">
        <ele>43.7</ele>
      </trkpt>
      <trkpt lat="47.74854" lon="-1.87238">
        <ele>43.5</ele>
      </trkpt>
      <trkpt lat="47.74855" lon="-1.87235">
        <ele>43.1</ele>
      </trkpt>
      <trkpt lat="47.74856" lon="-1.87232">
        <ele>42.8</ele>
      </trkpt>
      <trkpt lat="47.74858" lon="-1.87228">
        <ele>42.3</ele>
      </trkpt>
      <trkpt lat="47.74859" lon="-1.87224">
        <ele>41.9</ele>
      </trkpt>
      <trkpt lat="47.7486" lon="-1.87221">
        <ele>41.6</ele>
      </trkpt>
      <trkpt lat="47.74861" lon="-1.87217">
        <ele>41.2</ele>
      </trkpt>
      <trkpt lat="47.74862" lon="-1.87212">
        <ele>40.8</ele>
      </trkpt>
      <trkpt lat="47.74862" lon="-1.87207">
        <ele>40.5</ele>
      </trkpt>
      <trkpt lat="47.74861" lon="-1.87203">
        <ele>40.3</ele>
      </trkpt>
      <trkpt lat="47.74859" lon="-1.872">
        <ele>40.3</ele>
      </trkpt>
      <trkpt lat="47.74858" lon="-1.87199">
        <ele>40.3</ele>
      </trkpt>
      <trkpt lat="47.74857" lon="-1.87197">
        <ele>40.3</ele>
      </trkpt>
      <trkpt lat="47.74856" lon="-1.87195">
        <ele>40.2</ele>
      </trkpt>
      <trkpt lat="47.74856" lon="-1.87192">
        <ele>40.1</ele>
      </trkpt>
      <trkpt lat="47.74855" lon="-1.8719">
        <ele>40.1</ele>
      </trkpt>
      <trkpt lat="47.74854" lon="-1.87188">
        <ele>40</ele>
      </trkpt>
      <trkpt lat="47.74852" lon="-1.87185">
        <ele>39.9</ele>
      </trkpt>
      <trkpt lat="47.74851" lon="-1.87183">
        <ele>39.9</ele>
      </trkpt>
      <trkpt lat="47.7485" lon="-1.87181">
        <ele>39.8</ele>
      </trkpt>
      <trkpt lat="47.74849" lon="-1.87179">
        <ele>39.8</ele>
      </trkpt>
      <trkpt lat="47.74848" lon="-1.87176">
        <ele>39.6</ele>
      </trkpt>
      <trkpt lat="47.74848" lon="-1.87175">
        <ele>39.6</ele>
      </trkpt>
      <trkpt lat="47.74848" lon="-1.87175">
        <ele>39.6</ele>
      </trkpt>
      <trkpt lat="47.74848" lon="-1.87173">
        <ele>39.5</ele>
      </trkpt>
      <trkpt lat="47.74848" lon="-1.87172">
        <ele>39.4</ele>
      </trkpt>
      <trkpt lat="47.74847" lon="-1.8717">
        <ele>39.3</ele>
      </trkpt>
      <trkpt lat="47.74845" lon="-1.87168">
        <ele>39.2</ele>
      </trkpt>
      <trkpt lat="47.74843" lon="-1.87164">
        <ele>39.1</ele>
      </trkpt>
      <trkpt lat="47.74842" lon="-1.87162">
        <ele>39</ele>
      </trkpt>
      <trkpt lat="47.74841" lon="-1.8716">
        <ele>39</ele>
      </trkpt>
      <trkpt lat="47.74839" lon="-1.87159">
        <ele>39</ele>
      </trkpt>
      <trkpt lat="47.74838" lon="-1.87158">
        <ele>39.1</ele>
      </trkpt>
      <trkpt lat="47.74838" lon="-1.87158">
        <ele>39.1</ele>
      </trkpt>
      <trkpt lat="47.74838" lon="-1.87158">
        <ele>39.1</ele>
      </trkpt>
      <trkpt lat="47.74838" lon="-1.87158">
        <ele>39.1</ele>
      </trkpt>
      <trkpt lat="47.74838" lon="-1.87158">
        <ele>39.1</ele>
      </trkpt>
      <trkpt lat="47.74837" lon="-1.87158">
        <ele>39.2</ele>
      </trkpt>
      <trkpt lat="47.74836" lon="-1.87159">
        <ele>39.3</ele>
      </trkpt>
      <trkpt lat="47.74835" lon="-1.8716">
        <ele>39.4</ele>
      </trkpt>
      <trkpt lat="47.74834" lon="-1.8716">
        <ele>39.4</ele>
      </trkpt>
      <trkpt lat="47.74833" lon="-1.87159">
        <ele>39.5</ele>
      </trkpt>
      <trkpt lat="47.74832" lon="-1.87159">
        <ele>39.4</ele>
      </trkpt>
      <trkpt lat="47.74831" lon="-1.87158">
        <ele>39.2</ele>
      </trkpt>
      <trkpt lat="47.7483" lon="-1.87158">
        <ele>39.2</ele>
      </trkpt>
      <trkpt lat="47.74829" lon="-1.87157">
        <ele>39.1</ele>
      </trkpt>
      <trkpt lat="47.74828" lon="-1.87156">
        <ele>38.9</ele>
      </trkpt>
      <trkpt lat="47.74828" lon="-1.87155">
        <ele>38.9</ele>
      </trkpt>
      <trkpt lat="47.74828" lon="-1.87154">
        <ele>38.8</ele>
      </trkpt>
      <trkpt lat="47.74827" lon="-1.87153">
        <ele>38.7</ele>
      </trkpt>
      <trkpt lat="47.74827" lon="-1.87151">
        <ele>38.5</ele>
      </trkpt>
      <trkpt lat="47.74825" lon="-1.87149">
        <ele>38.3</ele>
      </trkpt>
      <trkpt lat="47.74823" lon="-1.87147">
        <ele>38.1</ele>
      </trkpt>
      <trkpt lat="47.74822" lon="-1.87145">
        <ele>37.8</ele>
      </trkpt>
      <trkpt lat="47.74821" lon="-1.87141">
        <ele>37.6</ele>
      </trkpt>
      <trkpt lat="47.7482" lon="-1.87138">
        <ele>37.3</ele>
      </trkpt>
      <trkpt lat="47.74819" lon="-1.87135">
        <ele>37.1</ele>
      </trkpt>
      <trkpt lat="47.74819" lon="-1.87131">
        <ele>36.8</ele>
      </trkpt>
      <trkpt lat="47.74818" lon="-1.87128">
        <ele>36.6</ele>
      </trkpt>
      <trkpt lat="47.74817" lon="-1.87126">
        <ele>36.4</ele>
      </trkpt>
      <trkpt lat="47.74815" lon="-1.87123">
        <ele>36.1</ele>
      </trkpt>
      <trkpt lat="47.74812" lon="-1.87121">
        <ele>35.8</ele>
      </trkpt>
      <trkpt lat="47.74809" lon="-1.87118">
        <ele>35.6</ele>
      </trkpt>
      <trkpt lat="47.74806" lon="-1.87116">
        <ele>35.3</ele>
      </trkpt>
      <trkpt lat="47.74803" lon="-1.87113">
        <ele>35</ele>
      </trkpt>
      <trkpt lat="47.748" lon="-1.87112">
        <ele>34.8</ele>
      </trkpt>
      <trkpt lat="47.74798" lon="-1.8711">
        <ele>34.7</ele>
      </trkpt>
      <trkpt lat="47.74795" lon="-1.87109">
        <ele>34.5</ele>
      </trkpt>
      <trkpt lat="47.74793" lon="-1.87106">
        <ele>34.2</ele>
      </trkpt>
      <trkpt lat="47.74792" lon="-1.87103">
        <ele>34.1</ele>
      </trkpt>
      <trkpt lat="47.74793" lon="-1.87101">
        <ele>34</ele>
      </trkpt>
      <trkpt lat="47.74794" lon="-1.871">
        <ele>33.9</ele>
      </trkpt>
      <trkpt lat="47.74794" lon="-1.87099">
        <ele>33.9</ele>
      </trkpt>
      <trkpt lat="47.74796" lon="-1.87099">
        <ele>34</ele>
      </trkpt>
      <trkpt lat="47.74799" lon="-1.87099">
        <ele>34</ele>
      </trkpt>
      <trkpt lat="47.74801" lon="-1.87098">
        <ele>34.1</ele>
      </trkpt>
      <trkpt lat="47.74804" lon="-1.87098">
        <ele>34.1</ele>
      </trkpt>
      <trkpt lat="47.74807" lon="-1.87097">
        <ele>34.2</ele>
      </trkpt>
      <trkpt lat="47.7481" lon="-1.87097">
        <ele>34.3</ele>
      </trkpt>
      <trkpt lat="47.74813" lon="-1.87096">
        <ele>34.3</ele>
      </trkpt>
      <trkpt lat="47.74817" lon="-1.87095">
        <ele>34.3</ele>
      </trkpt>
      <trkpt lat="47.7482" lon="-1.87094">
        <ele>34.4</ele>
      </trkpt>
      <trkpt lat="47.74823" lon="-1.87095">
        <ele>34.5</ele>
      </trkpt>
      <trkpt lat="47.74826" lon="-1.87096">
        <ele>34.7</ele>
      </trkpt>
      <trkpt lat="47.74829" lon="-1.87098">
        <ele>34.9</ele>
      </trkpt>
      <trkpt lat="47.74831" lon="-1.87101">
        <ele>35.2</ele>
      </trkpt>
      <trkpt lat="47.74834" lon="-1.87104">
        <ele>35.5</ele>
      </trkpt>
      <trkpt lat="47.74836" lon="-1.87107">
        <ele>35.7</ele>
      </trkpt>
      <trkpt lat="47.74838" lon="-1.87111">
        <ele>35.9</ele>
      </trkpt>
      <trkpt lat="47.7484" lon="-1.87116">
        <ele>36.1</ele>
      </trkpt>
      <trkpt lat="47.74842" lon="-1.87121">
        <ele>36.4</ele>
      </trkpt>
      <trkpt lat="47.74843" lon="-1.87125">
        <ele>36.6</ele>
      </trkpt>
      <trkpt lat="47.74845" lon="-1.87128">
        <ele>36.7</ele>
      </trkpt>
      <trkpt lat="47.74846" lon="-1.87132">
        <ele>36.9</ele>
      </trkpt>
      <trkpt lat="47.74848" lon="-1.87136">
        <ele>37.1</ele>
      </trkpt>
      <trkpt lat="47.7485" lon="-1.8714">
        <ele>37.2</ele>
      </trkpt>
      <trkpt lat="47.74851" lon="-1.87145">
        <ele>37.4</ele>
      </trkpt>
      <trkpt lat="47.74853" lon="-1.87149">
        <ele>37.6</ele>
      </trkpt>
      <trkpt lat="47.74854" lon="-1.87153">
        <ele>37.7</ele>
      </trkpt>
      <trkpt lat="47.74856" lon="-1.87157">
        <ele>37.9</ele>
      </trkpt>
      <trkpt lat="47.74857" lon="-1.87162">
        <ele>38</ele>
      </trkpt>
      <trkpt lat="47.74859" lon="-1.87166">
        <ele>38.2</ele>
      </trkpt>
      <trkpt lat="47.7486" lon="-1.87171">
        <ele>38.4</ele>
      </trkpt>
      <trkpt lat="47.74861" lon="-1.87175">
        <ele>38.5</ele>
      </trkpt>
      <trkpt lat="47.74862" lon="-1.87179">
        <ele>38.7</ele>
      </trkpt>
      <trkpt lat="47.74863" lon="-1.87183">
        <ele>38.9</ele>
      </trkpt>
      <trkpt lat="47.74864" lon="-1.87188">
        <ele>39.1</ele>
      </trkpt>
      <trkpt lat="47.74866" lon="-1.87193">
        <ele>39.2</ele>
      </trkpt>
      <trkpt lat="47.74867" lon="-1.87197">
        <ele>39.4</ele>
      </trkpt>
      <trkpt lat="47.74869" lon="-1.87203">
        <ele>39.6</ele>
      </trkpt>
      <trkpt lat="47.7487" lon="-1.87208">
        <ele>39.7</ele>
      </trkpt>
      <trkpt lat="47.74871" lon="-1.87215">
        <ele>40</ele>
      </trkpt>
      <trkpt lat="47.74872" lon="-1.87221">
        <ele>40.3</ele>
      </trkpt>
      <trkpt lat="47.74873" lon="-1.87225">
        <ele>40.4</ele>
      </trkpt>
      <trkpt lat="47.74874" lon="-1.87232">
        <ele>40.6</ele>
      </trkpt>
      <trkpt lat="47.74875" lon="-1.87237">
        <ele>40.8</ele>
      </trkpt>
      <trkpt lat="47.74877" lon="-1.87243">
        <ele>40.9</ele>
      </trkpt>
      <trkpt lat="47.74877" lon="-1.87248">
        <ele>41.1</ele>
      </trkpt>
      <trkpt lat="47.74878" lon="-1.87253">
        <ele>41.2</ele>
      </trkpt>
      <trkpt lat="47.7488" lon="-1.87258">
        <ele>41.4</ele>
      </trkpt>
      <trkpt lat="47.7488" lon="-1.87264">
        <ele>41.7</ele>
      </trkpt>
      <trkpt lat="47.74881" lon="-1.8727">
        <ele>41.9</ele>
      </trkpt>
      <trkpt lat="47.74883" lon="-1.87276">
        <ele>42</ele>
      </trkpt>
      <trkpt lat="47.74884" lon="-1.87281">
        <ele>42.1</ele>
      </trkpt>
      <trkpt lat="47.74885" lon="-1.87286">
        <ele>42.3</ele>
      </trkpt>
      <trkpt lat="47.74886" lon="-1.87291">
        <ele>42.5</ele>
      </trkpt>
      <trkpt lat="47.74886" lon="-1.87296">
        <ele>42.7</ele>
      </trkpt>
      <trkpt lat="47.74887" lon="-1.87301">
        <ele>42.9</ele>
      </trkpt>
      <trkpt lat="47.74888" lon="-1.87307">
        <ele>43</ele>
      </trkpt>
      <trkpt lat="47.74889" lon="-1.87312">
        <ele>43.2</ele>
      </trkpt>
      <trkpt lat="47.7489" lon="-1.87317">
        <ele>43.3</ele>
      </trkpt>
      <trkpt lat="47.7489" lon="-1.87323">
        <ele>43.6</ele>
      </trkpt>
      <trkpt lat="47.7489" lon="-1.87327">
        <ele>43.8</ele>
      </trkpt>
      <trkpt lat="47.7489" lon="-1.87331">
        <ele>43.9</ele>
      </trkpt>
      <trkpt lat="47.7489" lon="-1.87336">
        <ele>44.3</ele>
      </trkpt>
      <trkpt lat="47.7489" lon="-1.8734">
        <ele>44.6</ele>
      </trkpt>
      <trkpt lat="47.74891" lon="-1.87344">
        <ele>44.8</ele>
      </trkpt>
      <trkpt lat="47.74892" lon="-1.87349">
        <ele>45</ele>
      </trkpt>
      <trkpt lat="47.74893" lon="-1.87354">
        <ele>45.1</ele>
      </trkpt>
      <trkpt lat="47.74894" lon="-1.87358">
        <ele>45.2</ele>
      </trkpt>
      <trkpt lat="47.74894" lon="-1.87362">
        <ele>45.5</ele>
      </trkpt>
      <trkpt lat="47.74893" lon="-1.87367">
        <ele>46</ele>
      </trkpt>
      <trkpt lat="47.74893" lon="-1.87371">
        <ele>46.4</ele>
      </trkpt>
      <trkpt lat="47.74892" lon="-1.87375">
        <ele>46.8</ele>
      </trkpt>
      <trkpt lat="47.74892" lon="-1.87378">
        <ele>47.1</ele>
      </trkpt>
      <trkpt lat="47.74892" lon="-1.87383">
        <ele>47.5</ele>
      </trkpt>
      <trkpt lat="47.74892" lon="-1.87388">
        <ele>47.8</ele>
      </trkpt>
      <trkpt lat="47.74893" lon="-1.87394">
        <ele>48.1</ele>
      </trkpt>
      <trkpt lat="47.74893" lon="-1.87399">
        <ele>48.5</ele>
      </trkpt>
      <trkpt lat="47.74893" lon="-1.87405">
        <ele>48.9</ele>
      </trkpt>
      <trkpt lat="47.74894" lon="-1.8741">
        <ele>49.2</ele>
      </trkpt>
      <trkpt lat="47.74894" lon="-1.87415">
        <ele>49.5</ele>
      </trkpt>
      <trkpt lat="47.74895" lon="-1.87419">
        <ele>49.5</ele>
      </trkpt>
      <trkpt lat="47.74897" lon="-1.87424">
        <ele>49.3</ele>
      </trkpt>
      <trkpt lat="47.74898" lon="-1.87429">
        <ele>49.3</ele>
      </trkpt>
      <trkpt lat="47.74899" lon="-1.87435">
        <ele>49.5</ele>
      </trkpt>
      <trkpt lat="47.74899" lon="-1.87441">
        <ele>49.6</ele>
      </trkpt>
      <trkpt lat="47.749" lon="-1.87445">
        <ele>49.7</ele>
      </trkpt>
      <trkpt lat="47.74899" lon="-1.87449">
        <ele>50</ele>
      </trkpt>
      <trkpt lat="47.749" lon="-1.87453">
        <ele>50.1</ele>
      </trkpt>
      <trkpt lat="47.74901" lon="-1.87458">
        <ele>50.1</ele>
      </trkpt>
      <trkpt lat="47.74901" lon="-1.87463">
        <ele>50.2</ele>
      </trkpt>
      <trkpt lat="47.74902" lon="-1.87469">
        <ele>50.3</ele>
      </trkpt>
      <trkpt lat="47.74903" lon="-1.87474">
        <ele>50.3</ele>
      </trkpt>
      <trkpt lat="47.74904" lon="-1.87478">
        <ele>50.4</ele>
      </trkpt>
      <trkpt lat="47.74904" lon="-1.87484">
        <ele>50.7</ele>
      </trkpt>
      <trkpt lat="47.74902" lon="-1.87489">
        <ele>51.3</ele>
      </trkpt>
      <trkpt lat="47.74902" lon="-1.87494">
        <ele>51.6</ele>
      </trkpt>
      <trkpt lat="47.74902" lon="-1.87499">
        <ele>51.8</ele>
      </trkpt>
      <trkpt lat="47.74901" lon="-1.87503">
        <ele>51.9</ele>
      </trkpt>
      <trkpt lat="47.74901" lon="-1.87507">
        <ele>52</ele>
      </trkpt>
      <trkpt lat="47.749" lon="-1.87512">
        <ele>52</ele>
      </trkpt>
      <trkpt lat="47.749" lon="-1.87517">
        <ele>52</ele>
      </trkpt>
      <trkpt lat="47.749" lon="-1.87521">
        <ele>52</ele>
      </trkpt>
      <trkpt lat="47.749" lon="-1.87525">
        <ele>52</ele>
      </trkpt>
      <trkpt lat="47.749" lon="-1.8753">
        <ele>52</ele>
      </trkpt>
      <trkpt lat="47.74899" lon="-1.87535">
        <ele>52</ele>
      </trkpt>
      <trkpt lat="47.74899" lon="-1.87538">
        <ele>52</ele>
      </trkpt>
      <trkpt lat="47.74899" lon="-1.87544">
        <ele>52.1</ele>
      </trkpt>
      <trkpt lat="47.74898" lon="-1.87549">
        <ele>52.1</ele>
      </trkpt>
      <trkpt lat="47.74898" lon="-1.87553">
        <ele>52.2</ele>
      </trkpt>
      <trkpt lat="47.74897" lon="-1.87559">
        <ele>52.3</ele>
      </trkpt>
      <trkpt lat="47.74896" lon="-1.87564">
        <ele>52.4</ele>
      </trkpt>
      <trkpt lat="47.74895" lon="-1.87569">
        <ele>52.5</ele>
      </trkpt>
      <trkpt lat="47.74895" lon="-1.87575">
        <ele>52.5</ele>
      </trkpt>
      <trkpt lat="47.74894" lon="-1.8758">
        <ele>52.7</ele>
      </trkpt>
      <trkpt lat="47.74893" lon="-1.87584">
        <ele>52.8</ele>
      </trkpt>
      <trkpt lat="47.74892" lon="-1.8759">
        <ele>53</ele>
      </trkpt>
      <trkpt lat="47.74892" lon="-1.87594">
        <ele>53</ele>
      </trkpt>
      <trkpt lat="47.74892" lon="-1.87598">
        <ele>53.1</ele>
      </trkpt>
      <trkpt lat="47.74891" lon="-1.87602">
        <ele>53.2</ele>
      </trkpt>
      <trkpt lat="47.74891" lon="-1.87607">
        <ele>53.3</ele>
      </trkpt>
      <trkpt lat="47.7489" lon="-1.87613">
        <ele>53.4</ele>
      </trkpt>
      <trkpt lat="47.7489" lon="-1.87618">
        <ele>53.4</ele>
      </trkpt>
      <trkpt lat="47.7489" lon="-1.87623">
        <ele>53.4</ele>
      </trkpt>
      <trkpt lat="47.74889" lon="-1.87628">
        <ele>53.6</ele>
      </trkpt>
      <trkpt lat="47.74889" lon="-1.87633">
        <ele>53.7</ele>
      </trkpt>
      <trkpt lat="47.74888" lon="-1.87638">
        <ele>53.8</ele>
      </trkpt>
      <trkpt lat="47.74887" lon="-1.87642">
        <ele>54</ele>
      </trkpt>
      <trkpt lat="47.74886" lon="-1.87646">
        <ele>54.1</ele>
      </trkpt>
      <trkpt lat="47.74886" lon="-1.8765">
        <ele>54.2</ele>
      </trkpt>
      <trkpt lat="47.74886" lon="-1.87655">
        <ele>54.2</ele>
      </trkpt>
      <trkpt lat="47.74885" lon="-1.8766">
        <ele>54.3</ele>
      </trkpt>
      <trkpt lat="47.74885" lon="-1.87665">
        <ele>54.3</ele>
      </trkpt>
      <trkpt lat="47.74885" lon="-1.87669">
        <ele>54.2</ele>
      </trkpt>
      <trkpt lat="47.74885" lon="-1.87674">
        <ele>54.1</ele>
      </trkpt>
      <trkpt lat="47.74885" lon="-1.87678">
        <ele>54</ele>
      </trkpt>
      <trkpt lat="47.74885" lon="-1.87683">
        <ele>54</ele>
      </trkpt>
      <trkpt lat="47.74884" lon="-1.87688">
        <ele>54</ele>
      </trkpt>
      <trkpt lat="47.74884" lon="-1.87693">
        <ele>53.9</ele>
      </trkpt>
      <trkpt lat="47.74884" lon="-1.87698">
        <ele>53.8</ele>
      </trkpt>
      <trkpt lat="47.74884" lon="-1.87703">
        <ele>53.6</ele>
      </trkpt>
      <trkpt lat="47.74884" lon="-1.87708">
        <ele>53.6</ele>
      </trkpt>
      <trkpt lat="47.74883" lon="-1.87714">
        <ele>53.5</ele>
      </trkpt>
      <trkpt lat="47.74883" lon="-1.87719">
        <ele>53.4</ele>
      </trkpt>
      <trkpt lat="47.74882" lon="-1.87724">
        <ele>53.4</ele>
      </trkpt>
      <trkpt lat="47.74882" lon="-1.8773">
        <ele>53.3</ele>
      </trkpt>
      <trkpt lat="47.74881" lon="-1.87737">
        <ele>53.2</ele>
      </trkpt>
      <trkpt lat="47.74881" lon="-1.87743">
        <ele>53.1</ele>
      </trkpt>
      <trkpt lat="47.74881" lon="-1.87749">
        <ele>52.9</ele>
      </trkpt>
      <trkpt lat="47.74881" lon="-1.87753">
        <ele>52.9</ele>
      </trkpt>
      <trkpt lat="47.7488" lon="-1.8776">
        <ele>53</ele>
      </trkpt>
      <trkpt lat="47.7488" lon="-1.87765">
        <ele>53.1</ele>
      </trkpt>
      <trkpt lat="47.74879" lon="-1.87772">
        <ele>53.2</ele>
      </trkpt>
      <trkpt lat="47.74878" lon="-1.87777">
        <ele>53.3</ele>
      </trkpt>
      <trkpt lat="47.74878" lon="-1.87783">
        <ele>53.4</ele>
      </trkpt>
      <trkpt lat="47.74878" lon="-1.87788">
        <ele>53.4</ele>
      </trkpt>
      <trkpt lat="47.74877" lon="-1.87793">
        <ele>53.6</ele>
      </trkpt>
      <trkpt lat="47.74876" lon="-1.87799">
        <ele>53.7</ele>
      </trkpt>
      <trkpt lat="47.74876" lon="-1.87805">
        <ele>53.8</ele>
      </trkpt>
      <trkpt lat="47.74876" lon="-1.87811">
        <ele>53.8</ele>
      </trkpt>
      <trkpt lat="47.74874" lon="-1.87816">
        <ele>54</ele>
      </trkpt>
      <trkpt lat="47.74873" lon="-1.87822">
        <ele>54.1</ele>
      </trkpt>
      <trkpt lat="47.74874" lon="-1.87829">
        <ele>54.1</ele>
      </trkpt>
      <trkpt lat="47.74874" lon="-1.87834">
        <ele>54.1</ele>
      </trkpt>
      <trkpt lat="47.74874" lon="-1.87839">
        <ele>54.2</ele>
      </trkpt>
      <trkpt lat="47.74874" lon="-1.87844">
        <ele>54.3</ele>
      </trkpt>
      <trkpt lat="47.74874" lon="-1.87849">
        <ele>54.4</ele>
      </trkpt>
      <trkpt lat="47.74875" lon="-1.87855">
        <ele>54.5</ele>
      </trkpt>
      <trkpt lat="47.74875" lon="-1.8786">
        <ele>54.6</ele>
      </trkpt>
      <trkpt lat="47.74876" lon="-1.87865">
        <ele>54.7</ele>
      </trkpt>
      <trkpt lat="47.74877" lon="-1.87869">
        <ele>54.7</ele>
      </trkpt>
      <trkpt lat="47.74877" lon="-1.87874">
        <ele>54.8</ele>
      </trkpt>
      <trkpt lat="47.74877" lon="-1.87879">
        <ele>54.9</ele>
      </trkpt>
      <trkpt lat="47.74878" lon="-1.87884">
        <ele>55</ele>
      </trkpt>
      <trkpt lat="47.74878" lon="-1.87888">
        <ele>55.1</ele>
      </trkpt>
      <trkpt lat="47.74879" lon="-1.87891">
        <ele>55.1</ele>
      </trkpt>
      <trkpt lat="47.74879" lon="-1.87894">
        <ele>55.2</ele>
      </trkpt>
      <trkpt lat="47.7488" lon="-1.87899">
        <ele>55.2</ele>
      </trkpt>
      <trkpt lat="47.7488" lon="-1.87903">
        <ele>55.3</ele>
      </trkpt>
      <trkpt lat="47.7488" lon="-1.87907">
        <ele>55.4</ele>
      </trkpt>
      <trkpt lat="47.7488" lon="-1.87911">
        <ele>55.5</ele>
      </trkpt>
      <trkpt lat="47.74881" lon="-1.87915">
        <ele>55.5</ele>
      </trkpt>
      <trkpt lat="47.74881" lon="-1.87919">
        <ele>55.7</ele>
      </trkpt>
      <trkpt lat="47.74882" lon="-1.87923">
        <ele>55.9</ele>
      </trkpt>
      <trkpt lat="47.74882" lon="-1.87927">
        <ele>56</ele>
      </trkpt>
      <trkpt lat="47.74883" lon="-1.87931">
        <ele>56.2</ele>
      </trkpt>
      <trkpt lat="47.74883" lon="-1.87935">
        <ele>56.4</ele>
      </trkpt>
      <trkpt lat="47.74884" lon="-1.87938">
        <ele>56.5</ele>
      </trkpt>
      <trkpt lat="47.74884" lon="-1.87943">
        <ele>56.6</ele>
      </trkpt>
      <trkpt lat="47.74885" lon="-1.87947">
        <ele>56.8</ele>
      </trkpt>
      <trkpt lat="47.74885" lon="-1.8795">
        <ele>57</ele>
      </trkpt>
      <trkpt lat="47.74885" lon="-1.87955">
        <ele>57.1</ele>
      </trkpt>
      <trkpt lat="47.74886" lon="-1.87958">
        <ele>57.3</ele>
      </trkpt>
      <trkpt lat="47.74886" lon="-1.87963">
        <ele>57.5</ele>
      </trkpt>
      <trkpt lat="47.74887" lon="-1.87967">
        <ele>57.6</ele>
      </trkpt>
      <trkpt lat="47.74887" lon="-1.8797">
        <ele>57.7</ele>
      </trkpt>
      <trkpt lat="47.74887" lon="-1.87974">
        <ele>57.9</ele>
      </trkpt>
      <trkpt lat="47.74886" lon="-1.87977">
        <ele>58.2</ele>
      </trkpt>
      <trkpt lat="47.74886" lon="-1.87982">
        <ele>58.4</ele>
      </trkpt>
      <trkpt lat="47.74885" lon="-1.87986">
        <ele>58.7</ele>
      </trkpt>
      <trkpt lat="47.74884" lon="-1.87988">
        <ele>58.9</ele>
      </trkpt>
      <trkpt lat="47.74882" lon="-1.8799">
        <ele>59.3</ele>
      </trkpt>
      <trkpt lat="47.74879" lon="-1.87992">
        <ele>59.6</ele>
      </trkpt>
      <trkpt lat="47.74877" lon="-1.87993">
        <ele>59.9</ele>
      </trkpt>
      <trkpt lat="47.74875" lon="-1.87993">
        <ele>60.2</ele>
      </trkpt>
      <trkpt lat="47.74873" lon="-1.87993">
        <ele>60.4</ele>
      </trkpt>
      <trkpt lat="47.7487" lon="-1.87993">
        <ele>60.6</ele>
      </trkpt>
      <trkpt lat="47.74867" lon="-1.87992">
        <ele>60.9</ele>
      </trkpt>
      <trkpt lat="47.74864" lon="-1.87991">
        <ele>61.2</ele>
      </trkpt>
      <trkpt lat="47.74861" lon="-1.8799">
        <ele>61.4</ele>
      </trkpt>
      <trkpt lat="47.74859" lon="-1.8799">
        <ele>61.6</ele>
      </trkpt>
      <trkpt lat="47.74857" lon="-1.87989">
        <ele>61.8</ele>
      </trkpt>
      <trkpt lat="47.74854" lon="-1.87987">
        <ele>62</ele>
      </trkpt>
      <trkpt lat="47.74851" lon="-1.87987">
        <ele>62.3</ele>
      </trkpt>
      <trkpt lat="47.74848" lon="-1.87986">
        <ele>62.5</ele>
      </trkpt>
      <trkpt lat="47.74847" lon="-1.87986">
        <ele>62.6</ele>
      </trkpt>
      <trkpt lat="47.74844" lon="-1.87985">
        <ele>62.9</ele>
      </trkpt>
      <trkpt lat="47.7484" lon="-1.87984">
        <ele>63.1</ele>
      </trkpt>
      <trkpt lat="47.74838" lon="-1.87983">
        <ele>63.3</ele>
      </trkpt>
      <trkpt lat="47.74835" lon="-1.87982">
        <ele>63.5</ele>
      </trkpt>
      <trkpt lat="47.74833" lon="-1.87981">
        <ele>63.7</ele>
      </trkpt>
      <trkpt lat="47.7483" lon="-1.8798">
        <ele>63.9</ele>
      </trkpt>
      <trkpt lat="47.74828" lon="-1.8798">
        <ele>64.2</ele>
      </trkpt>
      <trkpt lat="47.74825" lon="-1.87979">
        <ele>64.5</ele>
      </trkpt>
      <trkpt lat="47.74822" lon="-1.87978">
        <ele>64.7</ele>
      </trkpt>
      <trkpt lat="47.7482" lon="-1.87977">
        <ele>65</ele>
      </trkpt>
      <trkpt lat="47.74817" lon="-1.87976">
        <ele>65.2</ele>
      </trkpt>
      <trkpt lat="47.74815" lon="-1.87975">
        <ele>65.5</ele>
      </trkpt>
      <trkpt lat="47.74812" lon="-1.87974">
        <ele>65.8</ele>
      </trkpt>
      <trkpt lat="47.74809" lon="-1.87973">
        <ele>66.1</ele>
      </trkpt>
      <trkpt lat="47.74807" lon="-1.87973">
        <ele>66.3</ele>
      </trkpt>
      <trkpt lat="47.74804" lon="-1.87972">
        <ele>66.6</ele>
      </trkpt>
      <trkpt lat="47.74802" lon="-1.87971">
        <ele>66.9</ele>
      </trkpt>
      <trkpt lat="47.74799" lon="-1.8797">
        <ele>67.1</ele>
      </trkpt>
      <trkpt lat="47.74797" lon="-1.8797">
        <ele>67.4</ele>
      </trkpt>
      <trkpt lat="47.74794" lon="-1.87969">
        <ele>67.7</ele>
      </trkpt>
      <trkpt lat="47.74792" lon="-1.87968">
        <ele>68</ele>
      </trkpt>
      <trkpt lat="47.74789" lon="-1.87967">
        <ele>68.3</ele>
      </trkpt>
      <trkpt lat="47.74786" lon="-1.87967">
        <ele>68.6</ele>
      </trkpt>
      <trkpt lat="47.74783" lon="-1.87966">
        <ele>68.9</ele>
      </trkpt>
      <trkpt lat="47.74781" lon="-1.87965">
        <ele>69.2</ele>
      </trkpt>
      <trkpt lat="47.74778" lon="-1.87964">
        <ele>69.5</ele>
      </trkpt>
      <trkpt lat="47.74775" lon="-1.87964">
        <ele>69.8</ele>
      </trkpt>
      <trkpt lat="47.74773" lon="-1.87963">
        <ele>70.1</ele>
      </trkpt>
      <trkpt lat="47.7477" lon="-1.87962">
        <ele>70.4</ele>
      </trkpt>
      <trkpt lat="47.74768" lon="-1.87961">
        <ele>70.8</ele>
      </trkpt>
      <trkpt lat="47.74765" lon="-1.8796">
        <ele>71.1</ele>
      </trkpt>
      <trkpt lat="47.74762" lon="-1.8796">
        <ele>71.4</ele>
      </trkpt>
      <trkpt lat="47.7476" lon="-1.87959">
        <ele>71.7</ele>
      </trkpt>
      <trkpt lat="47.74757" lon="-1.87958">
        <ele>72.1</ele>
      </trkpt>
      <trkpt lat="47.74754" lon="-1.87957">
        <ele>72.4</ele>
      </trkpt>
      <trkpt lat="47.74752" lon="-1.87956">
        <ele>72.7</ele>
      </trkpt>
      <trkpt lat="47.74749" lon="-1.87955">
        <ele>73</ele>
      </trkpt>
      <trkpt lat="47.74746" lon="-1.87954">
        <ele>73.3</ele>
      </trkpt>
      <trkpt lat="47.74744" lon="-1.87953">
        <ele>73.4</ele>
      </trkpt>
      <trkpt lat="47.7474" lon="-1.87952">
        <ele>73.7</ele>
      </trkpt>
      <trkpt lat="47.74737" lon="-1.87951">
        <ele>73.9</ele>
      </trkpt>
      <trkpt lat="47.74734" lon="-1.8795">
        <ele>74.1</ele>
      </trkpt>
      <trkpt lat="47.74731" lon="-1.87949">
        <ele>74.4</ele>
      </trkpt>
      <trkpt lat="47.74728" lon="-1.87948">
        <ele>74.6</ele>
      </trkpt>
      <trkpt lat="47.74726" lon="-1.87948">
        <ele>74.8</ele>
      </trkpt>
      <trkpt lat="47.74723" lon="-1.87947">
        <ele>75</ele>
      </trkpt>
      <trkpt lat="47.7472" lon="-1.87946">
        <ele>75.2</ele>
      </trkpt>
      <trkpt lat="47.74717" lon="-1.87945">
        <ele>75.5</ele>
      </trkpt>
      <trkpt lat="47.74714" lon="-1.87944">
        <ele>75.7</ele>
      </trkpt>
      <trkpt lat="47.74711" lon="-1.87943">
        <ele>75.9</ele>
      </trkpt>
      <trkpt lat="47.74708" lon="-1.87942">
        <ele>76.1</ele>
      </trkpt>
      <trkpt lat="47.74705" lon="-1.87941">
        <ele>76.3</ele>
      </trkpt>
      <trkpt lat="47.74702" lon="-1.8794">
        <ele>76.6</ele>
      </trkpt>
      <trkpt lat="47.747" lon="-1.8794">
        <ele>76.8</ele>
      </trkpt>
      <trkpt lat="47.74697" lon="-1.87939">
        <ele>77</ele>
      </trkpt>
      <trkpt lat="47.74693" lon="-1.87938">
        <ele>77.3</ele>
      </trkpt>
      <trkpt lat="47.7469" lon="-1.87938">
        <ele>77.5</ele>
      </trkpt>
      <trkpt lat="47.74687" lon="-1.87937">
        <ele>77.8</ele>
      </trkpt>
      <trkpt lat="47.74684" lon="-1.87937">
        <ele>78.1</ele>
      </trkpt>
      <trkpt lat="47.74681" lon="-1.87937">
        <ele>78.3</ele>
      </trkpt>
      <trkpt lat="47.74677" lon="-1.87936">
        <ele>78.6</ele>
      </trkpt>
      <trkpt lat="47.74675" lon="-1.87936">
        <ele>78.8</ele>
      </trkpt>
      <trkpt lat="47.74671" lon="-1.87936">
        <ele>79.1</ele>
      </trkpt>
      <trkpt lat="47.74668" lon="-1.87936">
        <ele>79.3</ele>
      </trkpt>
      <trkpt lat="47.74666" lon="-1.87936">
        <ele>79.5</ele>
      </trkpt>
      <trkpt lat="47.74662" lon="-1.87936">
        <ele>79.5</ele>
      </trkpt>
      <trkpt lat="47.74659" lon="-1.87935">
        <ele>79.4</ele>
      </trkpt>
      <trkpt lat="47.74656" lon="-1.87935">
        <ele>79.4</ele>
      </trkpt>
      <trkpt lat="47.74653" lon="-1.87935">
        <ele>79.4</ele>
      </trkpt>
      <trkpt lat="47.74649" lon="-1.87934">
        <ele>79.4</ele>
      </trkpt>
      <trkpt lat="47.74645" lon="-1.87934">
        <ele>79.4</ele>
      </trkpt>
      <trkpt lat="47.74642" lon="-1.87934">
        <ele>79.4</ele>
      </trkpt>
      <trkpt lat="47.74638" lon="-1.87933">
        <ele>79.4</ele>
      </trkpt>
      <trkpt lat="47.74634" lon="-1.87933">
        <ele>79.4</ele>
      </trkpt>
      <trkpt lat="47.74631" lon="-1.87933">
        <ele>79.4</ele>
      </trkpt>
      <trkpt lat="47.74627" lon="-1.87932">
        <ele>79.4</ele>
      </trkpt>
      <trkpt lat="47.74623" lon="-1.87932">
        <ele>79.4</ele>
      </trkpt>
      <trkpt lat="47.7462" lon="-1.87931">
        <ele>79.4</ele>
      </trkpt>
      <trkpt lat="47.74616" lon="-1.87931">
        <ele>79.3</ele>
      </trkpt>
      <trkpt lat="47.74611" lon="-1.87931">
        <ele>79.3</ele>
      </trkpt>
      <trkpt lat="47.74607" lon="-1.87931">
        <ele>79.3</ele>
      </trkpt>
      <trkpt lat="47.74603" lon="-1.87931">
        <ele>79.4</ele>
      </trkpt>
      <trkpt lat="47.746" lon="-1.87933">
        <ele>79.4</ele>
      </trkpt>
      <trkpt lat="47.74596" lon="-1.87935">
        <ele>79.4</ele>
      </trkpt>
      <trkpt lat="47.74593" lon="-1.87939">
        <ele>79.5</ele>
      </trkpt>
      <trkpt lat="47.74591" lon="-1.87944">
        <ele>79.6</ele>
      </trkpt>
      <trkpt lat="47.74589" lon="-1.87948">
        <ele>79.8</ele>
      </trkpt>
      <trkpt lat="47.74588" lon="-1.87954">
        <ele>79.9</ele>
      </trkpt>
      <trkpt lat="47.74587" lon="-1.8796">
        <ele>80</ele>
      </trkpt>
      <trkpt lat="47.74586" lon="-1.87966">
        <ele>80.2</ele>
      </trkpt>
      <trkpt lat="47.74586" lon="-1.87972">
        <ele>80.3</ele>
      </trkpt>
      <trkpt lat="47.74585" lon="-1.87979">
        <ele>80.5</ele>
      </trkpt>
      <trkpt lat="47.74585" lon="-1.87985">
        <ele>80.6</ele>
      </trkpt>
      <trkpt lat="47.74584" lon="-1.87991">
        <ele>80.8</ele>
      </trkpt>
      <trkpt lat="47.74584" lon="-1.87998">
        <ele>80.9</ele>
      </trkpt>
      <trkpt lat="47.74583" lon="-1.88004">
        <ele>81</ele>
      </trkpt>
      <trkpt lat="47.74582" lon="-1.8801">
        <ele>81.1</ele>
      </trkpt>
      <trkpt lat="47.74582" lon="-1.88017">
        <ele>81.1</ele>
      </trkpt>
      <trkpt lat="47.74582" lon="-1.88024">
        <ele>81.2</ele>
      </trkpt>
      <trkpt lat="47.74581" lon="-1.88031">
        <ele>81.2</ele>
      </trkpt>
      <trkpt lat="47.74581" lon="-1.88038">
        <ele>81.3</ele>
      </trkpt>
      <trkpt lat="47.7458" lon="-1.88045">
        <ele>81.4</ele>
      </trkpt>
      <trkpt lat="47.7458" lon="-1.88053">
        <ele>81.4</ele>
      </trkpt>
      <trkpt lat="47.7458" lon="-1.88061">
        <ele>81.5</ele>
      </trkpt>
      <trkpt lat="47.7458" lon="-1.88068">
        <ele>81.6</ele>
      </trkpt>
      <trkpt lat="47.7458" lon="-1.88074">
        <ele>81.7</ele>
      </trkpt>
      <trkpt lat="47.7458" lon="-1.88081">
        <ele>81.8</ele>
      </trkpt>
      <trkpt lat="47.74581" lon="-1.88087">
        <ele>81.9</ele>
      </trkpt>
      <trkpt lat="47.74581" lon="-1.88093">
        <ele>82</ele>
      </trkpt>
      <trkpt lat="47.74582" lon="-1.88099">
        <ele>82.1</ele>
      </trkpt>
      <trkpt lat="47.74582" lon="-1.88106">
        <ele>82.2</ele>
      </trkpt>
      <trkpt lat="47.74583" lon="-1.88113">
        <ele>82.3</ele>
      </trkpt>
      <trkpt lat="47.74584" lon="-1.8812">
        <ele>82.4</ele>
      </trkpt>
      <trkpt lat="47.74584" lon="-1.88127">
        <ele>82.5</ele>
      </trkpt>
      <trkpt lat="47.74585" lon="-1.88134">
        <ele>82.6</ele>
      </trkpt>
      <trkpt lat="47.74586" lon="-1.88141">
        <ele>82.7</ele>
      </trkpt>
      <trkpt lat="47.74587" lon="-1.88148">
        <ele>82.8</ele>
      </trkpt>
      <trkpt lat="47.74587" lon="-1.88155">
        <ele>82.9</ele>
      </trkpt>
      <trkpt lat="47.74588" lon="-1.88163">
        <ele>82.9</ele>
      </trkpt>
      <trkpt lat="47.74589" lon="-1.8817">
        <ele>83</ele>
      </trkpt>
      <trkpt lat="47.7459" lon="-1.88177">
        <ele>83.1</ele>
      </trkpt>
      <trkpt lat="47.7459" lon="-1.88183">
        <ele>83.2</ele>
      </trkpt>
      <trkpt lat="47.7459" lon="-1.8819">
        <ele>83.3</ele>
      </trkpt>
      <trkpt lat="47.7459" lon="-1.88196">
        <ele>83.4</ele>
      </trkpt>
      <trkpt lat="47.74589" lon="-1.88202">
        <ele>83.4</ele>
      </trkpt>
      <trkpt lat="47.74586" lon="-1.88206">
        <ele>83.5</ele>
      </trkpt>
      <trkpt lat="47.74582" lon="-1.88208">
        <ele>83.4</ele>
      </trkpt>
      <trkpt lat="47.74578" lon="-1.88209">
        <ele>83.2</ele>
      </trkpt>
      <trkpt lat="47.74575" lon="-1.88207">
        <ele>83</ele>
      </trkpt>
      <trkpt lat="47.74571" lon="-1.88204">
        <ele>82.7</ele>
      </trkpt>
      <trkpt lat="47.74567" lon="-1.88201">
        <ele>82.5</ele>
      </trkpt>
      <trkpt lat="47.74563" lon="-1.88197">
        <ele>82.2</ele>
      </trkpt>
      <trkpt lat="47.74559" lon="-1.88193">
        <ele>81.9</ele>
      </trkpt>
      <trkpt lat="47.74554" lon="-1.88189">
        <ele>81.5</ele>
      </trkpt>
      <trkpt lat="47.7455" lon="-1.88184">
        <ele>81.2</ele>
      </trkpt>
      <trkpt lat="47.74545" lon="-1.8818">
        <ele>80.9</ele>
      </trkpt>
      <trkpt lat="47.7454" lon="-1.88175">
        <ele>80.5</ele>
      </trkpt>
      <trkpt lat="47.74534" lon="-1.8817">
        <ele>80.1</ele>
      </trkpt>
      <trkpt lat="47.74529" lon="-1.88165">
        <ele>79.7</ele>
      </trkpt>
      <trkpt lat="47.74523" lon="-1.8816">
        <ele>79.3</ele>
      </trkpt>
      <trkpt lat="47.74518" lon="-1.88155">
        <ele>78.9</ele>
      </trkpt>
      <trkpt lat="47.74512" lon="-1.8815">
        <ele>78.5</ele>
      </trkpt>
      <trkpt lat="47.74506" lon="-1.88144">
        <ele>78.1</ele>
      </trkpt>
      <trkpt lat="47.745" lon="-1.88138">
        <ele>77.7</ele>
      </trkpt>
      <trkpt lat="47.74494" lon="-1.88132">
        <ele>77.1</ele>
      </trkpt>
      <trkpt lat="47.74488" lon="-1.88126">
        <ele>76.6</ele>
      </trkpt>
      <trkpt lat="47.74481" lon="-1.8812">
        <ele>76.1</ele>
      </trkpt>
      <trkpt lat="47.74475" lon="-1.88114">
        <ele>75.6</ele>
      </trkpt>
      <trkpt lat="47.74469" lon="-1.8811">
        <ele>75.1</ele>
      </trkpt>
      <trkpt lat="47.74463" lon="-1.88109">
        <ele>74.7</ele>
      </trkpt>
      <trkpt lat="47.74457" lon="-1.88111">
        <ele>74.2</ele>
      </trkpt>
      <trkpt lat="47.74452" lon="-1.88115">
        <ele>73.9</ele>
      </trkpt>
      <trkpt lat="47.7445" lon="-1.88122">
        <ele>73.8</ele>
      </trkpt>
      <trkpt lat="47.74448" lon="-1.8813">
        <ele>73.8</ele>
      </trkpt>
      <trkpt lat="47.74447" lon="-1.88138">
        <ele>73.8</ele>
      </trkpt>
      <trkpt lat="47.74446" lon="-1.88146">
        <ele>73.9</ele>
      </trkpt>
      <trkpt lat="47.74445" lon="-1.88154">
        <ele>73.9</ele>
      </trkpt>
      <trkpt lat="47.74444" lon="-1.88162">
        <ele>73.9</ele>
      </trkpt>
      <trkpt lat="47.74442" lon="-1.88169">
        <ele>73.8</ele>
      </trkpt>
      <trkpt lat="47.7444" lon="-1.88177">
        <ele>73.7</ele>
      </trkpt>
      <trkpt lat="47.74438" lon="-1.88184">
        <ele>73.6</ele>
      </trkpt>
      <trkpt lat="47.74435" lon="-1.88191">
        <ele>73.4</ele>
      </trkpt>
      <trkpt lat="47.74432" lon="-1.88199">
        <ele>73.2</ele>
      </trkpt>
      <trkpt lat="47.74428" lon="-1.88206">
        <ele>72.9</ele>
      </trkpt>
      <trkpt lat="47.74424" lon="-1.88213">
        <ele>72.6</ele>
      </trkpt>
      <trkpt lat="47.7442" lon="-1.8822">
        <ele>72.2</ele>
      </trkpt>
      <trkpt lat="47.74414" lon="-1.88228">
        <ele>71.6</ele>
      </trkpt>
      <trkpt lat="47.74409" lon="-1.88236">
        <ele>70.8</ele>
      </trkpt>
      <trkpt lat="47.74397" lon="-1.88253">
        <ele>68.9</ele>
      </trkpt>
      <trkpt lat="47.74394" lon="-1.88257">
        <ele>68.6</ele>
      </trkpt>
      <trkpt lat="47.74391" lon="-1.88262">
        <ele>68.1</ele>
      </trkpt>
      <trkpt lat="47.74384" lon="-1.88272">
        <ele>67.3</ele>
      </trkpt>
      <trkpt lat="47.74377" lon="-1.88282">
        <ele>66.5</ele>
      </trkpt>
      <trkpt lat="47.74369" lon="-1.88292">
        <ele>65.7</ele>
      </trkpt>
      <trkpt lat="47.74362" lon="-1.88303">
        <ele>64.9</ele>
      </trkpt>
      <trkpt lat="47.74354" lon="-1.88315">
        <ele>64.1</ele>
      </trkpt>
      <trkpt lat="47.74345" lon="-1.88326">
        <ele>63.4</ele>
      </trkpt>
      <trkpt lat="47.74337" lon="-1.88339">
        <ele>62.5</ele>
      </trkpt>
      <trkpt lat="47.74328" lon="-1.88351">
        <ele>61.7</ele>
      </trkpt>
      <trkpt lat="47.7432" lon="-1.88365">
        <ele>61.1</ele>
      </trkpt>
      <trkpt lat="47.74311" lon="-1.88378">
        <ele>60.5</ele>
      </trkpt>
      <trkpt lat="47.74302" lon="-1.8839">
        <ele>60</ele>
      </trkpt>
      <trkpt lat="47.74295" lon="-1.88401">
        <ele>59.6</ele>
      </trkpt>
      <trkpt lat="47.74288" lon="-1.88411">
        <ele>59.3</ele>
      </trkpt>
      <trkpt lat="47.74281" lon="-1.88418">
        <ele>58.9</ele>
      </trkpt>
      <trkpt lat="47.74275" lon="-1.88422">
        <ele>58.6</ele>
      </trkpt>
      <trkpt lat="47.74268" lon="-1.88424">
        <ele>58.3</ele>
      </trkpt>
      <trkpt lat="47.74261" lon="-1.88425">
        <ele>57.9</ele>
      </trkpt>
      <trkpt lat="47.74255" lon="-1.88425">
        <ele>57.5</ele>
      </trkpt>
      <trkpt lat="47.74249" lon="-1.88425">
        <ele>57.3</ele>
      </trkpt>
      <trkpt lat="47.74243" lon="-1.88426">
        <ele>57.5</ele>
      </trkpt>
      <trkpt lat="47.74237" lon="-1.88426">
        <ele>57.7</ele>
      </trkpt>
      <trkpt lat="47.74231" lon="-1.88425">
        <ele>57.8</ele>
      </trkpt>
      <trkpt lat="47.74226" lon="-1.88424">
        <ele>58</ele>
      </trkpt>
      <trkpt lat="47.74221" lon="-1.88423">
        <ele>58.2</ele>
      </trkpt>
      <trkpt lat="47.74217" lon="-1.88423">
        <ele>58.3</ele>
      </trkpt>
      <trkpt lat="47.74212" lon="-1.88423">
        <ele>58.5</ele>
      </trkpt>
      <trkpt lat="47.74208" lon="-1.88422">
        <ele>58.6</ele>
      </trkpt>
      <trkpt lat="47.74204" lon="-1.88421">
        <ele>58.7</ele>
      </trkpt>
      <trkpt lat="47.74201" lon="-1.88421">
        <ele>58.8</ele>
      </trkpt>
      <trkpt lat="47.74198" lon="-1.88421">
        <ele>58.9</ele>
      </trkpt>
      <trkpt lat="47.74194" lon="-1.8842">
        <ele>59.1</ele>
      </trkpt>
      <trkpt lat="47.7419" lon="-1.8842">
        <ele>59.2</ele>
      </trkpt>
      <trkpt lat="47.74187" lon="-1.88421">
        <ele>59.3</ele>
      </trkpt>
      <trkpt lat="47.74184" lon="-1.88422">
        <ele>59.5</ele>
      </trkpt>
      <trkpt lat="47.74182" lon="-1.88426">
        <ele>59.6</ele>
      </trkpt>
      <trkpt lat="47.7418" lon="-1.88434">
        <ele>59.8</ele>
      </trkpt>
      <trkpt lat="47.7418" lon="-1.88434">
        <ele>59.8</ele>
      </trkpt>
      <trkpt lat="47.7418" lon="-1.88438">
        <ele>59.8</ele>
      </trkpt>
      <trkpt lat="47.7418" lon="-1.88442">
        <ele>59.9</ele>
      </trkpt>
      <trkpt lat="47.74181" lon="-1.88446">
        <ele>59.9</ele>
      </trkpt>
      <trkpt lat="47.74181" lon="-1.88449">
        <ele>59.9</ele>
      </trkpt>
      <trkpt lat="47.74182" lon="-1.88453">
        <ele>60</ele>
      </trkpt>
      <trkpt lat="47.74183" lon="-1.88456">
        <ele>60</ele>
      </trkpt>
      <trkpt lat="47.74184" lon="-1.8846">
        <ele>60</ele>
      </trkpt>
      <trkpt lat="47.74184" lon="-1.88463">
        <ele>60</ele>
      </trkpt>
      <trkpt lat="47.74186" lon="-1.88466">
        <ele>60</ele>
      </trkpt>
      <trkpt lat="47.74187" lon="-1.88468">
        <ele>60</ele>
      </trkpt>
      <trkpt lat="47.74188" lon="-1.88469">
        <ele>60</ele>
      </trkpt>
      <trkpt lat="47.7419" lon="-1.88469">
        <ele>60</ele>
      </trkpt>
      <trkpt lat="47.74194" lon="-1.8847">
        <ele>59.9</ele>
      </trkpt>
      <trkpt lat="47.74197" lon="-1.8847">
        <ele>59.8</ele>
      </trkpt>
      <trkpt lat="47.74201" lon="-1.88471">
        <ele>59.7</ele>
      </trkpt>
      <trkpt lat="47.74205" lon="-1.88472">
        <ele>59.6</ele>
      </trkpt>
      <trkpt lat="47.74209" lon="-1.88473">
        <ele>59.5</ele>
      </trkpt>
      <trkpt lat="47.74213" lon="-1.88474">
        <ele>59.4</ele>
      </trkpt>
      <trkpt lat="47.74215" lon="-1.88475">
        <ele>59.4</ele>
      </trkpt>
      <trkpt lat="47.74217" lon="-1.88476">
        <ele>59.3</ele>
      </trkpt>
      <trkpt lat="47.74218" lon="-1.88476">
        <ele>59.3</ele>
      </trkpt>
      <trkpt lat="47.74218" lon="-1.88476">
        <ele>59.3</ele>
      </trkpt>
      <trkpt lat="47.74218" lon="-1.88476">
        <ele>59.3</ele>
      </trkpt>
      <trkpt lat="47.74218" lon="-1.88476">
        <ele>59.3</ele>
      </trkpt>
      <trkpt lat="47.74218" lon="-1.88476">
        <ele>59.3</ele>
      </trkpt>
      <trkpt lat="47.74218" lon="-1.88476">
        <ele>59.3</ele>
      </trkpt>
      <trkpt lat="47.74218" lon="-1.88476">
        <ele>59.3</ele>
      </trkpt>
      <trkpt lat="47.74218" lon="-1.88476">
        <ele>59.3</ele>
      </trkpt>
      <trkpt lat="47.74218" lon="-1.88476">
        <ele>59.3</ele>
      </trkpt>
      <trkpt lat="47.74218" lon="-1.88476">
        <ele>59.3</ele>
      </trkpt>
      <trkpt lat="47.74217" lon="-1.88476">
        <ele>59.3</ele>
      </trkpt>
      <trkpt lat="47.74217" lon="-1.88475">
        <ele>59.3</ele>
      </trkpt>
      <trkpt lat="47.74216" lon="-1.88474">
        <ele>59.3</ele>
      </trkpt>
      <trkpt lat="47.74215" lon="-1.88474">
        <ele>59.4</ele>
      </trkpt>
      <trkpt lat="47.74213" lon="-1.88474">
        <ele>59.4</ele>
      </trkpt>
      <trkpt lat="47.74212" lon="-1.88473">
        <ele>59.4</ele>
      </trkpt>
      <trkpt lat="47.74212" lon="-1.88473">
        <ele>59.4</ele>
      </trkpt>
      <trkpt lat="47.74212" lon="-1.88473">
        <ele>59.4</ele>
      </trkpt>
      <trkpt lat="47.74212" lon="-1.88473">
        <ele>59.4</ele>
      </trkpt>
      <trkpt lat="47.74212" lon="-1.88473">
        <ele>59.4</ele>
      </trkpt>
      <trkpt lat="47.74212" lon="-1.88473">
        <ele>59.4</ele>
      </trkpt>
      <trkpt lat="47.74212" lon="-1.88473">
        <ele>59.4</ele>
      </trkpt>
      <trkpt lat="47.74212" lon="-1.88473">
        <ele>59.4</ele>
      </trkpt>
      <trkpt lat="47.74212" lon="-1.88473">
        <ele>59.4</ele>
      </trkpt>
      <trkpt lat="47.74212" lon="-1.88473">
        <ele>59.4</ele>
      </trkpt>
      <trkpt lat="47.74212" lon="-1.88473">
        <ele>59.4</ele>
      </trkpt>
      <trkpt lat="47.74212" lon="-1.88473">
        <ele>59.4</ele>
      </trkpt>
      <trkpt lat="47.74212" lon="-1.88473">
        <ele>59.4</ele>
      </trkpt>
      <trkpt lat="47.7421" lon="-1.88473">
        <ele>59.5</ele>
      </trkpt>
      <trkpt lat="47.74208" lon="-1.88472">
        <ele>59.5</ele>
      </trkpt>
      <trkpt lat="47.74206" lon="-1.88472">
        <ele>59.6</ele>
      </trkpt>
      <trkpt lat="47.74204" lon="-1.88472">
        <ele>59.6</ele>
      </trkpt>
      <trkpt lat="47.74202" lon="-1.88472">
        <ele>59.7</ele>
      </trkpt>
      <trkpt lat="47.742" lon="-1.88472">
        <ele>59.7</ele>
      </trkpt>
      <trkpt lat="47.74199" lon="-1.88472">
        <ele>59.8</ele>
      </trkpt>
      <trkpt lat="47.74197" lon="-1.88472">
        <ele>59.8</ele>
      </trkpt>
      <trkpt lat="47.74194" lon="-1.88469">
        <ele>59.9</ele>
      </trkpt>
      <trkpt lat="47.74192" lon="-1.88469">
        <ele>59.9</ele>
      </trkpt>
      <trkpt lat="47.7419" lon="-1.88469">
        <ele>60</ele>
      </trkpt>
      <trkpt lat="47.74189" lon="-1.88469">
        <ele>60</ele>
      </trkpt>
      <trkpt lat="47.74188" lon="-1.88471">
        <ele>60.1</ele>
      </trkpt>
      <trkpt lat="47.74187" lon="-1.88474">
        <ele>60.1</ele>
      </trkpt>
      <trkpt lat="47.74187" lon="-1.88477">
        <ele>60.2</ele>
      </trkpt>
      <trkpt lat="47.74187" lon="-1.88482">
        <ele>60.2</ele>
      </trkpt>
      <trkpt lat="47.74186" lon="-1.88488">
        <ele>60.3</ele>
      </trkpt>
      <trkpt lat="47.74186" lon="-1.88492">
        <ele>60.4</ele>
      </trkpt>
      <trkpt lat="47.74186" lon="-1.88496">
        <ele>60.5</ele>
      </trkpt>
      <trkpt lat="47.74187" lon="-1.88501">
        <ele>60.5</ele>
      </trkpt>
      <trkpt lat="47.74187" lon="-1.88505">
        <ele>60.6</ele>
      </trkpt>
      <trkpt lat="47.74187" lon="-1.8851">
        <ele>60.7</ele>
      </trkpt>
      <trkpt lat="47.74187" lon="-1.88514">
        <ele>60.8</ele>
      </trkpt>
      <trkpt lat="47.74187" lon="-1.88518">
        <ele>60.9</ele>
      </trkpt>
      <trkpt lat="47.74187" lon="-1.88522">
        <ele>61</ele>
      </trkpt>
      <trkpt lat="47.74188" lon="-1.88527">
        <ele>61.1</ele>
      </trkpt>
      <trkpt lat="47.74188" lon="-1.88532">
        <ele>61.1</ele>
      </trkpt>
      <trkpt lat="47.74188" lon="-1.88537">
        <ele>61.2</ele>
      </trkpt>
      <trkpt lat="47.74189" lon="-1.88541">
        <ele>61.3</ele>
      </trkpt>
      <trkpt lat="47.7419" lon="-1.88546">
        <ele>61.4</ele>
      </trkpt>
      <trkpt lat="47.74191" lon="-1.88551">
        <ele>61.5</ele>
      </trkpt>
      <trkpt lat="47.74192" lon="-1.88555">
        <ele>61.5</ele>
      </trkpt>
      <trkpt lat="47.74193" lon="-1.8856">
        <ele>61.6</ele>
      </trkpt>
      <trkpt lat="47.74194" lon="-1.8857">
        <ele>61.7</ele>
      </trkpt>
      <trkpt lat="47.74194" lon="-1.8857">
        <ele>61.7</ele>
      </trkpt>
      <trkpt lat="47.74195" lon="-1.88575">
        <ele>61.8</ele>
      </trkpt>
      <trkpt lat="47.74196" lon="-1.8858">
        <ele>61.9</ele>
      </trkpt>
      <trkpt lat="47.74197" lon="-1.88586">
        <ele>62</ele>
      </trkpt>
      <trkpt lat="47.74198" lon="-1.88592">
        <ele>62.1</ele>
      </trkpt>
      <trkpt lat="47.742" lon="-1.88598">
        <ele>62.2</ele>
      </trkpt>
      <trkpt lat="47.742" lon="-1.88602">
        <ele>62.3</ele>
      </trkpt>
      <trkpt lat="47.742" lon="-1.88607">
        <ele>62.5</ele>
      </trkpt>
      <trkpt lat="47.74201" lon="-1.88611">
        <ele>62.6</ele>
      </trkpt>
      <trkpt lat="47.74201" lon="-1.88616">
        <ele>62.7</ele>
      </trkpt>
      <trkpt lat="47.74201" lon="-1.88621">
        <ele>62.9</ele>
      </trkpt>
      <trkpt lat="47.74201" lon="-1.88626">
        <ele>63</ele>
      </trkpt>
      <trkpt lat="47.74202" lon="-1.88631">
        <ele>63.1</ele>
      </trkpt>
      <trkpt lat="47.74202" lon="-1.88636">
        <ele>63.2</ele>
      </trkpt>
      <trkpt lat="47.74203" lon="-1.88642">
        <ele>63.4</ele>
      </trkpt>
      <trkpt lat="47.74203" lon="-1.88648">
        <ele>63.6</ele>
      </trkpt>
      <trkpt lat="47.74203" lon="-1.88653">
        <ele>63.7</ele>
      </trkpt>
      <trkpt lat="47.74203" lon="-1.88658">
        <ele>63.9</ele>
      </trkpt>
      <trkpt lat="47.74202" lon="-1.88663">
        <ele>64</ele>
      </trkpt>
      <trkpt lat="47.74202" lon="-1.88667">
        <ele>64.2</ele>
      </trkpt>
      <trkpt lat="47.74202" lon="-1.88672">
        <ele>64.3</ele>
      </trkpt>
      <trkpt lat="47.74202" lon="-1.88676">
        <ele>64.5</ele>
      </trkpt>
      <trkpt lat="47.74201" lon="-1.8868">
        <ele>64.7</ele>
      </trkpt>
      <trkpt lat="47.742" lon="-1.88684">
        <ele>64.9</ele>
      </trkpt>
      <trkpt lat="47.742" lon="-1.88688">
        <ele>65</ele>
      </trkpt>
      <trkpt lat="47.742" lon="-1.88691">
        <ele>65.2</ele>
      </trkpt>
      <trkpt lat="47.74199" lon="-1.88695">
        <ele>65.3</ele>
      </trkpt>
      <trkpt lat="47.74199" lon="-1.88699">
        <ele>65.5</ele>
      </trkpt>
      <trkpt lat="47.74198" lon="-1.88703">
        <ele>65.7</ele>
      </trkpt>
      <trkpt lat="47.74198" lon="-1.88708">
        <ele>65.9</ele>
      </trkpt>
      <trkpt lat="47.74197" lon="-1.88712">
        <ele>66</ele>
      </trkpt>
      <trkpt lat="47.74196" lon="-1.88715">
        <ele>66.2</ele>
      </trkpt>
      <trkpt lat="47.74194" lon="-1.88718">
        <ele>66.4</ele>
      </trkpt>
      <trkpt lat="47.74192" lon="-1.88722">
        <ele>66.7</ele>
      </trkpt>
      <trkpt lat="47.74192" lon="-1.88728">
        <ele>66.9</ele>
      </trkpt>
      <trkpt lat="47.74192" lon="-1.88732">
        <ele>67.1</ele>
      </trkpt>
      <trkpt lat="47.74192" lon="-1.88736">
        <ele>67.2</ele>
      </trkpt>
      <trkpt lat="47.74192" lon="-1.8874">
        <ele>67.4</ele>
      </trkpt>
      <trkpt lat="47.74196" lon="-1.88745">
        <ele>67.4</ele>
      </trkpt>
      <trkpt lat="47.74194" lon="-1.88749">
        <ele>67.6</ele>
      </trkpt>
      <trkpt lat="47.74193" lon="-1.88752">
        <ele>67.8</ele>
      </trkpt>
      <trkpt lat="47.74191" lon="-1.88755">
        <ele>68</ele>
      </trkpt>
      <trkpt lat="47.74189" lon="-1.88756">
        <ele>68.2</ele>
      </trkpt>
      <trkpt lat="47.74186" lon="-1.88759">
        <ele>68.4</ele>
      </trkpt>
      <trkpt lat="47.74183" lon="-1.88763">
        <ele>68.6</ele>
      </trkpt>
      <trkpt lat="47.74182" lon="-1.88765">
        <ele>68.7</ele>
      </trkpt>
      <trkpt lat="47.7418" lon="-1.88767">
        <ele>68.9</ele>
      </trkpt>
      <trkpt lat="47.74179" lon="-1.8877">
        <ele>69</ele>
      </trkpt>
      <trkpt lat="47.74177" lon="-1.88772">
        <ele>69.2</ele>
      </trkpt>
      <trkpt lat="47.74175" lon="-1.88775">
        <ele>69.3</ele>
      </trkpt>
      <trkpt lat="47.74175" lon="-1.88779">
        <ele>69.4</ele>
      </trkpt>
      <trkpt lat="47.74175" lon="-1.88783">
        <ele>69.5</ele>
      </trkpt>
      <trkpt lat="47.74176" lon="-1.88787">
        <ele>69.6</ele>
      </trkpt>
      <trkpt lat="47.74176" lon="-1.88792">
        <ele>69.7</ele>
      </trkpt>
      <trkpt lat="47.74174" lon="-1.88798">
        <ele>70</ele>
      </trkpt>
      <trkpt lat="47.74174" lon="-1.88802">
        <ele>70.1</ele>
      </trkpt>
      <trkpt lat="47.74174" lon="-1.88806">
        <ele>70.2</ele>
      </trkpt>
      <trkpt lat="47.74175" lon="-1.8881">
        <ele>70.3</ele>
      </trkpt>
      <trkpt lat="47.74176" lon="-1.88813">
        <ele>70.3</ele>
      </trkpt>
      <trkpt lat="47.74178" lon="-1.88817">
        <ele>70.4</ele>
      </trkpt>
      <trkpt lat="47.74177" lon="-1.8882">
        <ele>70.5</ele>
      </trkpt>
      <trkpt lat="47.74178" lon="-1.88824">
        <ele>70.6</ele>
      </trkpt>
      <trkpt lat="47.74178" lon="-1.88828">
        <ele>70.7</ele>
      </trkpt>
      <trkpt lat="47.74179" lon="-1.8883">
        <ele>70.8</ele>
      </trkpt>
      <trkpt lat="47.74179" lon="-1.88832">
        <ele>70.8</ele>
      </trkpt>
      <trkpt lat="47.74179" lon="-1.88833">
        <ele>70.8</ele>
      </trkpt>
      <trkpt lat="47.74179" lon="-1.88833">
        <ele>70.8</ele>
      </trkpt>
      <trkpt lat="47.74179" lon="-1.88833">
        <ele>70.8</ele>
      </trkpt>
      <trkpt lat="47.74179" lon="-1.88833">
        <ele>70.8</ele>
      </trkpt>
      <trkpt lat="47.74179" lon="-1.88833">
        <ele>70.8</ele>
      </trkpt>
      <trkpt lat="47.74179" lon="-1.88833">
        <ele>70.8</ele>
      </trkpt>
      <trkpt lat="47.74179" lon="-1.88833">
        <ele>70.8</ele>
      </trkpt>
      <trkpt lat="47.74179" lon="-1.88833">
        <ele>70.8</ele>
      </trkpt>
      <trkpt lat="47.74179" lon="-1.88833">
        <ele>70.8</ele>
      </trkpt>
      <trkpt lat="47.74179" lon="-1.88833">
        <ele>70.8</ele>
      </trkpt>
      <trkpt lat="47.74179" lon="-1.88833">
        <ele>70.8</ele>
      </trkpt>
      <trkpt lat="47.74179" lon="-1.88833">
        <ele>70.8</ele>
      </trkpt>
      <trkpt lat="47.74179" lon="-1.88833">
        <ele>70.8</ele>
      </trkpt>
      <trkpt lat="47.74179" lon="-1.88833">
        <ele>70.8</ele>
      </trkpt>
      <trkpt lat="47.74179" lon="-1.88833">
        <ele>70.8</ele>
      </trkpt>
      <trkpt lat="47.74179" lon="-1.88834">
        <ele>70.9</ele>
      </trkpt>
      <trkpt lat="47.74179" lon="-1.88834">
        <ele>70.9</ele>
      </trkpt>
      <trkpt lat="47.74179" lon="-1.88834">
        <ele>70.9</ele>
      </trkpt>
      <trkpt lat="47.74179" lon="-1.88834">
        <ele>70.9</ele>
      </trkpt>
      <trkpt lat="47.74179" lon="-1.88834">
        <ele>70.9</ele>
      </trkpt>
      <trkpt lat="47.74179" lon="-1.88834">
        <ele>70.9</ele>
      </trkpt>
      <trkpt lat="47.74179" lon="-1.88834">
        <ele>70.9</ele>
      </trkpt>
      <trkpt lat="47.74178" lon="-1.88835">
        <ele>70.9</ele>
      </trkpt>
      <trkpt lat="47.74178" lon="-1.88835">
        <ele>70.9</ele>
      </trkpt>
      <trkpt lat="47.74176" lon="-1.88834">
        <ele>70.9</ele>
      </trkpt>
      <trkpt lat="47.74174" lon="-1.88833">
        <ele>70.9</ele>
      </trkpt>
      <trkpt lat="47.74172" lon="-1.88832">
        <ele>70.9</ele>
      </trkpt>
      <trkpt lat="47.74169" lon="-1.88832">
        <ele>70.9</ele>
      </trkpt>
      <trkpt lat="47.74166" lon="-1.88833">
        <ele>71.1</ele>
      </trkpt>
      <trkpt lat="47.74164" lon="-1.88834">
        <ele>71.4</ele>
      </trkpt>
      <trkpt lat="47.74161" lon="-1.88835">
        <ele>71.8</ele>
      </trkpt>
      <trkpt lat="47.7416" lon="-1.88837">
        <ele>72.1</ele>
      </trkpt>
      <trkpt lat="47.74159" lon="-1.88839">
        <ele>72.4</ele>
      </trkpt>
      <trkpt lat="47.74158" lon="-1.88841">
        <ele>72.6</ele>
      </trkpt>
      <trkpt lat="47.74157" lon="-1.88842">
        <ele>72.8</ele>
      </trkpt>
      <trkpt lat="47.74156" lon="-1.88843">
        <ele>73</ele>
      </trkpt>
      <trkpt lat="47.74155" lon="-1.88845">
        <ele>73.2</ele>
      </trkpt>
      <trkpt lat="47.74153" lon="-1.88846">
        <ele>73.5</ele>
      </trkpt>
      <trkpt lat="47.74151" lon="-1.88847">
        <ele>73.8</ele>
      </trkpt>
      <trkpt lat="47.7415" lon="-1.88849">
        <ele>74</ele>
      </trkpt>
      <trkpt lat="47.74149" lon="-1.8885">
        <ele>74.2</ele>
      </trkpt>
      <trkpt lat="47.74147" lon="-1.88852">
        <ele>74.6</ele>
      </trkpt>
      <trkpt lat="47.74145" lon="-1.88854">
        <ele>74.9</ele>
      </trkpt>
      <trkpt lat="47.74144" lon="-1.88856">
        <ele>75.2</ele>
      </trkpt>
      <trkpt lat="47.74143" lon="-1.88858">
        <ele>75.3</ele>
      </trkpt>
      <trkpt lat="47.74143" lon="-1.88859">
        <ele>75.4</ele>
      </trkpt>
      <trkpt lat="47.74143" lon="-1.88861">
        <ele>75.5</ele>
      </trkpt>
      <trkpt lat="47.74143" lon="-1.88863">
        <ele>75.6</ele>
      </trkpt>
      <trkpt lat="47.74141" lon="-1.88865">
        <ele>75.9</ele>
      </trkpt>
      <trkpt lat="47.7414" lon="-1.88866">
        <ele>76.1</ele>
      </trkpt>
      <trkpt lat="47.74139" lon="-1.88867">
        <ele>76.3</ele>
      </trkpt>
      <trkpt lat="47.74136" lon="-1.88869">
        <ele>76.7</ele>
      </trkpt>
      <trkpt lat="47.74134" lon="-1.8887">
        <ele>77</ele>
      </trkpt>
      <trkpt lat="47.74133" lon="-1.88872">
        <ele>77.2</ele>
      </trkpt>
      <trkpt lat="47.74132" lon="-1.88873">
        <ele>77.4</ele>
      </trkpt>
      <trkpt lat="47.7413" lon="-1.88872">
        <ele>77.5</ele>
      </trkpt>
      <trkpt lat="47.74129" lon="-1.88871">
        <ele>77.7</ele>
      </trkpt>
      <trkpt lat="47.74128" lon="-1.8887">
        <ele>77.7</ele>
      </trkpt>
      <trkpt lat="47.74126" lon="-1.88869">
        <ele>77.8</ele>
      </trkpt>
      <trkpt lat="47.74126" lon="-1.88868">
        <ele>77.8</ele>
      </trkpt>
      <trkpt lat="47.74126" lon="-1.88867">
        <ele>77.8</ele>
      </trkpt>
      <trkpt lat="47.74123" lon="-1.88865">
        <ele>78</ele>
      </trkpt>
      <trkpt lat="47.74121" lon="-1.88862">
        <ele>78.2</ele>
      </trkpt>
      <trkpt lat="47.7412" lon="-1.8886">
        <ele>78.2</ele>
      </trkpt>
      <trkpt lat="47.74118" lon="-1.88858">
        <ele>78.4</ele>
      </trkpt>
      <trkpt lat="47.74116" lon="-1.88856">
        <ele>78.6</ele>
      </trkpt>
      <trkpt lat="47.74114" lon="-1.88852">
        <ele>78.7</ele>
      </trkpt>
      <trkpt lat="47.74111" lon="-1.8885">
        <ele>78.9</ele>
      </trkpt>
      <trkpt lat="47.74108" lon="-1.88849">
        <ele>79.3</ele>
      </trkpt>
      <trkpt lat="47.74105" lon="-1.88851">
        <ele>79.7</ele>
      </trkpt>
      <trkpt lat="47.74105" lon="-1.88854">
        <ele>79.9</ele>
      </trkpt>
      <trkpt lat="47.74103" lon="-1.88856">
        <ele>80.2</ele>
      </trkpt>
      <trkpt lat="47.74102" lon="-1.88858">
        <ele>80.4</ele>
      </trkpt>
      <trkpt lat="47.74102" lon="-1.88861">
        <ele>80.4</ele>
      </trkpt>
      <trkpt lat="47.74103" lon="-1.88865">
        <ele>80.4</ele>
      </trkpt>
      <trkpt lat="47.74104" lon="-1.88868">
        <ele>80.4</ele>
      </trkpt>
      <trkpt lat="47.74105" lon="-1.88871">
        <ele>80.4</ele>
      </trkpt>
      <trkpt lat="47.74107" lon="-1.88872">
        <ele>80.2</ele>
      </trkpt>
      <trkpt lat="47.74109" lon="-1.88874">
        <ele>80</ele>
      </trkpt>
      <trkpt lat="47.74111" lon="-1.88877">
        <ele>79.9</ele>
      </trkpt>
      <trkpt lat="47.74112" lon="-1.8888">
        <ele>79.9</ele>
      </trkpt>
      <trkpt lat="47.74114" lon="-1.88883">
        <ele>79.8</ele>
      </trkpt>
      <trkpt lat="47.74116" lon="-1.88886">
        <ele>79.7</ele>
      </trkpt>
      <trkpt lat="47.74117" lon="-1.88887">
        <ele>79.6</ele>
      </trkpt>
      <trkpt lat="47.74119" lon="-1.88887">
        <ele>79.4</ele>
      </trkpt>
      <trkpt lat="47.74122" lon="-1.88886">
        <ele>79</ele>
      </trkpt>
      <trkpt lat="47.74125" lon="-1.88886">
        <ele>78.7</ele>
      </trkpt>
      <trkpt lat="47.74128" lon="-1.88886">
        <ele>78.4</ele>
      </trkpt>
      <trkpt lat="47.7413" lon="-1.88886">
        <ele>78.2</ele>
      </trkpt>
      <trkpt lat="47.74132" lon="-1.88886">
        <ele>78</ele>
      </trkpt>
      <trkpt lat="47.74133" lon="-1.88885">
        <ele>77.8</ele>
      </trkpt>
      <trkpt lat="47.74134" lon="-1.88883">
        <ele>77.6</ele>
      </trkpt>
      <trkpt lat="47.74136" lon="-1.8888">
        <ele>77.2</ele>
      </trkpt>
      <trkpt lat="47.74138" lon="-1.88877">
        <ele>76.8</ele>
      </trkpt>
      <trkpt lat="47.74141" lon="-1.88874">
        <ele>76.4</ele>
      </trkpt>
      <trkpt lat="47.74142" lon="-1.88872">
        <ele>76.1</ele>
      </trkpt>
      <trkpt lat="47.74144" lon="-1.8887">
        <ele>75.8</ele>
      </trkpt>
      <trkpt lat="47.74145" lon="-1.88869">
        <ele>75.6</ele>
      </trkpt>
      <trkpt lat="47.74146" lon="-1.88869">
        <ele>75.6</ele>
      </trkpt>
      <trkpt lat="47.74146" lon="-1.88869">
        <ele>75.6</ele>
      </trkpt>
      <trkpt lat="47.74146" lon="-1.88869">
        <ele>75.6</ele>
      </trkpt>
      <trkpt lat="47.74146" lon="-1.88869">
        <ele>75.6</ele>
      </trkpt>
      <trkpt lat="47.74146" lon="-1.88869">
        <ele>75.6</ele>
      </trkpt>
      <trkpt lat="47.74146" lon="-1.88869">
        <ele>75.6</ele>
      </trkpt>
      <trkpt lat="47.74145" lon="-1.88868">
        <ele>75.6</ele>
      </trkpt>
      <trkpt lat="47.74146" lon="-1.88867">
        <ele>75.5</ele>
      </trkpt>
      <trkpt lat="47.74147" lon="-1.88866">
        <ele>75.3</ele>
      </trkpt>
      <trkpt lat="47.7415" lon="-1.88864">
        <ele>74.9</ele>
      </trkpt>
      <trkpt lat="47.74152" lon="-1.88864">
        <ele>74.6</ele>
      </trkpt>
      <trkpt lat="47.74155" lon="-1.88865">
        <ele>74.3</ele>
      </trkpt>
      <trkpt lat="47.74157" lon="-1.88867">
        <ele>74.1</ele>
      </trkpt>
      <trkpt lat="47.7416" lon="-1.8887">
        <ele>74</ele>
      </trkpt>
      <trkpt lat="47.74162" lon="-1.88873">
        <ele>73.9</ele>
      </trkpt>
      <trkpt lat="47.74163" lon="-1.88875">
        <ele>73.9</ele>
      </trkpt>
      <trkpt lat="47.74164" lon="-1.88878">
        <ele>74</ele>
      </trkpt>
      <trkpt lat="47.74163" lon="-1.8888">
        <ele>74.1</ele>
      </trkpt>
      <trkpt lat="47.74162" lon="-1.88881">
        <ele>74.4</ele>
      </trkpt>
      <trkpt lat="47.74161" lon="-1.88884">
        <ele>74.7</ele>
      </trkpt>
      <trkpt lat="47.7416" lon="-1.88888">
        <ele>75</ele>
      </trkpt>
      <trkpt lat="47.7416" lon="-1.88891">
        <ele>75.2</ele>
      </trkpt>
      <trkpt lat="47.74159" lon="-1.88893">
        <ele>75.4</ele>
      </trkpt>
      <trkpt lat="47.74158" lon="-1.88893">
        <ele>75.5</ele>
      </trkpt>
      <trkpt lat="47.74158" lon="-1.88893">
        <ele>75.5</ele>
      </trkpt>
      <trkpt lat="47.74156" lon="-1.88892">
        <ele>75.6</ele>
      </trkpt>
      <trkpt lat="47.74155" lon="-1.88891">
        <ele>75.7</ele>
      </trkpt>
      <trkpt lat="47.74153" lon="-1.8889">
        <ele>75.9</ele>
      </trkpt>
      <trkpt lat="47.74151" lon="-1.8889">
        <ele>76.1</ele>
      </trkpt>
      <trkpt lat="47.74148" lon="-1.88892">
        <ele>76.5</ele>
      </trkpt>
      <trkpt lat="47.74147" lon="-1.88894">
        <ele>76.7</ele>
      </trkpt>
      <trkpt lat="47.74146" lon="-1.88896">
        <ele>76.9</ele>
      </trkpt>
      <trkpt lat="47.74145" lon="-1.88898">
        <ele>77.1</ele>
      </trkpt>
      <trkpt lat="47.74144" lon="-1.889">
        <ele>77.3</ele>
      </trkpt>
      <trkpt lat="47.74143" lon="-1.88901">
        <ele>77.5</ele>
      </trkpt>
      <trkpt lat="47.74142" lon="-1.88903">
        <ele>77.7</ele>
      </trkpt>
      <trkpt lat="47.74142" lon="-1.88905">
        <ele>77.8</ele>
      </trkpt>
      <trkpt lat="47.74142" lon="-1.88907">
        <ele>77.9</ele>
      </trkpt>
      <trkpt lat="47.74141" lon="-1.8891">
        <ele>78.1</ele>
      </trkpt>
      <trkpt lat="47.7414" lon="-1.88913">
        <ele>78.4</ele>
      </trkpt>
      <trkpt lat="47.74139" lon="-1.88914">
        <ele>78.5</ele>
      </trkpt>
      <trkpt lat="47.74138" lon="-1.88916">
        <ele>78.8</ele>
      </trkpt>
      <trkpt lat="47.74135" lon="-1.88915">
        <ele>78.9</ele>
      </trkpt>
      <trkpt lat="47.74134" lon="-1.88914">
        <ele>79</ele>
      </trkpt>
      <trkpt lat="47.74133" lon="-1.88912">
        <ele>79</ele>
      </trkpt>
      <trkpt lat="47.74132" lon="-1.8891">
        <ele>79.1</ele>
      </trkpt>
      <trkpt lat="47.7413" lon="-1.88908">
        <ele>79.1</ele>
      </trkpt>
      <trkpt lat="47.74129" lon="-1.88906">
        <ele>79.2</ele>
      </trkpt>
      <trkpt lat="47.74127" lon="-1.88904">
        <ele>79.3</ele>
      </trkpt>
      <trkpt lat="47.74125" lon="-1.88904">
        <ele>79.5</ele>
      </trkpt>
      <trkpt lat="47.74123" lon="-1.88905">
        <ele>79.7</ele>
      </trkpt>
      <trkpt lat="47.74123" lon="-1.88905">
        <ele>79.7</ele>
      </trkpt>
      <trkpt lat="47.74123" lon="-1.88907">
        <ele>79.8</ele>
      </trkpt>
      <trkpt lat="47.74123" lon="-1.88911">
        <ele>79.9</ele>
      </trkpt>
      <trkpt lat="47.74123" lon="-1.88912">
        <ele>80</ele>
      </trkpt>
      <trkpt lat="47.74122" lon="-1.88914">
        <ele>80.1</ele>
      </trkpt>
      <trkpt lat="47.74121" lon="-1.88915">
        <ele>80.3</ele>
      </trkpt>
      <trkpt lat="47.74119" lon="-1.88917">
        <ele>80.6</ele>
      </trkpt>
      <trkpt lat="47.74118" lon="-1.88917">
        <ele>80.7</ele>
      </trkpt>
      <trkpt lat="47.74116" lon="-1.88917">
        <ele>80.8</ele>
      </trkpt>
      <trkpt lat="47.74114" lon="-1.88917">
        <ele>81</ele>
      </trkpt>
      <trkpt lat="47.74112" lon="-1.88917">
        <ele>81.2</ele>
      </trkpt>
      <trkpt lat="47.7411" lon="-1.88917">
        <ele>81.4</ele>
      </trkpt>
      <trkpt lat="47.74109" lon="-1.88919">
        <ele>81.5</ele>
      </trkpt>
      <trkpt lat="47.74109" lon="-1.8892">
        <ele>81.6</ele>
      </trkpt>
      <trkpt lat="47.74108" lon="-1.88922">
        <ele>81.7</ele>
      </trkpt>
      <trkpt lat="47.74106" lon="-1.88925">
        <ele>81.9</ele>
      </trkpt>
      <trkpt lat="47.74104" lon="-1.88927">
        <ele>82.1</ele>
      </trkpt>
      <trkpt lat="47.74103" lon="-1.88928">
        <ele>82.3</ele>
      </trkpt>
      <trkpt lat="47.74101" lon="-1.8893">
        <ele>82.5</ele>
      </trkpt>
      <trkpt lat="47.74099" lon="-1.8893">
        <ele>82.6</ele>
      </trkpt>
      <trkpt lat="47.74098" lon="-1.88929">
        <ele>82.8</ele>
      </trkpt>
      <trkpt lat="47.74096" lon="-1.88926">
        <ele>82.9</ele>
      </trkpt>
      <trkpt lat="47.74096" lon="-1.88923">
        <ele>82.9</ele>
      </trkpt>
      <trkpt lat="47.74096" lon="-1.88921">
        <ele>82.8</ele>
      </trkpt>
      <trkpt lat="47.74097" lon="-1.88917">
        <ele>82.7</ele>
      </trkpt>
      <trkpt lat="47.74096" lon="-1.88913">
        <ele>82.6</ele>
      </trkpt>
      <trkpt lat="47.74096" lon="-1.88909">
        <ele>82.6</ele>
      </trkpt>
      <trkpt lat="47.74095" lon="-1.88908">
        <ele>82.6</ele>
      </trkpt>
      <trkpt lat="47.74094" lon="-1.88905">
        <ele>82.6</ele>
      </trkpt>
      <trkpt lat="47.74094" lon="-1.889">
        <ele>82.5</ele>
      </trkpt>
      <trkpt lat="47.74094" lon="-1.88897">
        <ele>82.4</ele>
      </trkpt>
      <trkpt lat="47.74095" lon="-1.88892">
        <ele>82.1</ele>
      </trkpt>
      <trkpt lat="47.74096" lon="-1.88887">
        <ele>82</ele>
      </trkpt>
      <trkpt lat="47.74094" lon="-1.88882">
        <ele>82</ele>
      </trkpt>
      <trkpt lat="47.74092" lon="-1.88878">
        <ele>82.1</ele>
      </trkpt>
      <trkpt lat="47.7409" lon="-1.88878">
        <ele>82.3</ele>
      </trkpt>
      <trkpt lat="47.74088" lon="-1.88879">
        <ele>82.6</ele>
      </trkpt>
      <trkpt lat="47.74087" lon="-1.8888">
        <ele>82.7</ele>
      </trkpt>
      <trkpt lat="47.74085" lon="-1.88879">
        <ele>82.9</ele>
      </trkpt>
      <trkpt lat="47.74082" lon="-1.88876">
        <ele>83.1</ele>
      </trkpt>
      <trkpt lat="47.74082" lon="-1.88872">
        <ele>83</ele>
      </trkpt>
      <trkpt lat="47.74081" lon="-1.88867">
        <ele>82.9</ele>
      </trkpt>
      <trkpt lat="47.7408" lon="-1.88862">
        <ele>82.8</ele>
      </trkpt>
      <trkpt lat="47.74079" lon="-1.88856">
        <ele>82.7</ele>
      </trkpt>
      <trkpt lat="47.74078" lon="-1.8885">
        <ele>82.6</ele>
      </trkpt>
      <trkpt lat="47.74076" lon="-1.88844">
        <ele>82.6</ele>
      </trkpt>
      <trkpt lat="47.74075" lon="-1.8884">
        <ele>82.5</ele>
      </trkpt>
      <trkpt lat="47.74073" lon="-1.88837">
        <ele>82.6</ele>
      </trkpt>
      <trkpt lat="47.7407" lon="-1.88837">
        <ele>82.7</ele>
      </trkpt>
      <trkpt lat="47.74067" lon="-1.88838">
        <ele>82.9</ele>
      </trkpt>
      <trkpt lat="47.74064" lon="-1.88839">
        <ele>83</ele>
      </trkpt>
      <trkpt lat="47.74061" lon="-1.88837">
        <ele>83.1</ele>
      </trkpt>
      <trkpt lat="47.74059" lon="-1.88833">
        <ele>83.2</ele>
      </trkpt>
      <trkpt lat="47.74056" lon="-1.8883">
        <ele>83.1</ele>
      </trkpt>
      <trkpt lat="47.74055" lon="-1.88826">
        <ele>83</ele>
      </trkpt>
      <trkpt lat="47.74053" lon="-1.88822">
        <ele>82.9</ele>
      </trkpt>
      <trkpt lat="47.7405" lon="-1.88819">
        <ele>82.9</ele>
      </trkpt>
      <trkpt lat="47.74049" lon="-1.88815">
        <ele>82.9</ele>
      </trkpt>
      <trkpt lat="47.74044" lon="-1.88813">
        <ele>83</ele>
      </trkpt>
      <trkpt lat="47.74042" lon="-1.88813">
        <ele>83.1</ele>
      </trkpt>
      <trkpt lat="47.74039" lon="-1.88812">
        <ele>83.3</ele>
      </trkpt>
      <trkpt lat="47.74035" lon="-1.8881">
        <ele>83.4</ele>
      </trkpt>
      <trkpt lat="47.74034" lon="-1.88806">
        <ele>83.3</ele>
      </trkpt>
      <trkpt lat="47.74031" lon="-1.88801">
        <ele>83.3</ele>
      </trkpt>
      <trkpt lat="47.74029" lon="-1.88796">
        <ele>83.2</ele>
      </trkpt>
      <trkpt lat="47.74028" lon="-1.88791">
        <ele>83.1</ele>
      </trkpt>
      <trkpt lat="47.74026" lon="-1.88787">
        <ele>83.1</ele>
      </trkpt>
      <trkpt lat="47.74024" lon="-1.88783">
        <ele>83.1</ele>
      </trkpt>
      <trkpt lat="47.74022" lon="-1.88778">
        <ele>83.1</ele>
      </trkpt>
      <trkpt lat="47.7402" lon="-1.88774">
        <ele>83.1</ele>
      </trkpt>
      <trkpt lat="47.74018" lon="-1.88771">
        <ele>83.1</ele>
      </trkpt>
      <trkpt lat="47.74017" lon="-1.88766">
        <ele>83.1</ele>
      </trkpt>
      <trkpt lat="47.74015" lon="-1.88762">
        <ele>83.1</ele>
      </trkpt>
      <trkpt lat="47.74012" lon="-1.8876">
        <ele>83.3</ele>
      </trkpt>
      <trkpt lat="47.74009" lon="-1.8876">
        <ele>83.5</ele>
      </trkpt>
      <trkpt lat="47.74007" lon="-1.88762">
        <ele>83.8</ele>
      </trkpt>
      <trkpt lat="47.74004" lon="-1.88765">
        <ele>84</ele>
      </trkpt>
      <trkpt lat="47.74002" lon="-1.88769">
        <ele>84.3</ele>
      </trkpt>
      <trkpt lat="47.74001" lon="-1.88774">
        <ele>84.5</ele>
      </trkpt>
      <trkpt lat="47.73999" lon="-1.88777">
        <ele>84.7</ele>
      </trkpt>
      <trkpt lat="47.73997" lon="-1.88782">
        <ele>84.8</ele>
      </trkpt>
      <trkpt lat="47.73995" lon="-1.88787">
        <ele>85</ele>
      </trkpt>
      <trkpt lat="47.73993" lon="-1.88791">
        <ele>85.1</ele>
      </trkpt>
      <trkpt lat="47.73991" lon="-1.88795">
        <ele>85.2</ele>
      </trkpt>
      <trkpt lat="47.7399" lon="-1.88798">
        <ele>85.3</ele>
      </trkpt>
      <trkpt lat="47.73988" lon="-1.88803">
        <ele>85.5</ele>
      </trkpt>
      <trkpt lat="47.73986" lon="-1.88807">
        <ele>85.6</ele>
      </trkpt>
      <trkpt lat="47.73984" lon="-1.88812">
        <ele>85.7</ele>
      </trkpt>
      <trkpt lat="47.73982" lon="-1.88817">
        <ele>85.9</ele>
      </trkpt>
      <trkpt lat="47.7398" lon="-1.88822">
        <ele>86</ele>
      </trkpt>
      <trkpt lat="47.73978" lon="-1.88827">
        <ele>86.1</ele>
      </trkpt>
      <trkpt lat="47.73975" lon="-1.88832">
        <ele>86.3</ele>
      </trkpt>
      <trkpt lat="47.73973" lon="-1.88838">
        <ele>86.4</ele>
      </trkpt>
      <trkpt lat="47.73971" lon="-1.88843">
        <ele>86.4</ele>
      </trkpt>
      <trkpt lat="47.73969" lon="-1.88849">
        <ele>86.5</ele>
      </trkpt>
      <trkpt lat="47.73966" lon="-1.88854">
        <ele>86.6</ele>
      </trkpt>
      <trkpt lat="47.73964" lon="-1.8886">
        <ele>86.6</ele>
      </trkpt>
      <trkpt lat="47.73961" lon="-1.88866">
        <ele>86.7</ele>
      </trkpt>
      <trkpt lat="47.73959" lon="-1.88872">
        <ele>86.7</ele>
      </trkpt>
      <trkpt lat="47.73956" lon="-1.88877">
        <ele>86.8</ele>
      </trkpt>
      <trkpt lat="47.73954" lon="-1.88883">
        <ele>86.8</ele>
      </trkpt>
      <trkpt lat="47.73951" lon="-1.88889">
        <ele>86.9</ele>
      </trkpt>
      <trkpt lat="47.73949" lon="-1.88895">
        <ele>86.9</ele>
      </trkpt>
      <trkpt lat="47.73946" lon="-1.88902">
        <ele>86.9</ele>
      </trkpt>
      <trkpt lat="47.73944" lon="-1.88908">
        <ele>87</ele>
      </trkpt>
      <trkpt lat="47.73941" lon="-1.88915">
        <ele>87</ele>
      </trkpt>
      <trkpt lat="47.73938" lon="-1.88921">
        <ele>87</ele>
      </trkpt>
      <trkpt lat="47.73936" lon="-1.88927">
        <ele>87.1</ele>
      </trkpt>
      <trkpt lat="47.73933" lon="-1.88933">
        <ele>87.1</ele>
      </trkpt>
      <trkpt lat="47.73931" lon="-1.88939">
        <ele>87.2</ele>
      </trkpt>
      <trkpt lat="47.73928" lon="-1.88945">
        <ele>87.3</ele>
      </trkpt>
      <trkpt lat="47.73925" lon="-1.88951">
        <ele>87.3</ele>
      </trkpt>
      <trkpt lat="47.73922" lon="-1.88957">
        <ele>87.4</ele>
      </trkpt>
      <trkpt lat="47.7392" lon="-1.88964">
        <ele>87.5</ele>
      </trkpt>
      <trkpt lat="47.73917" lon="-1.8897">
        <ele>87.6</ele>
      </trkpt>
      <trkpt lat="47.73914" lon="-1.88977">
        <ele>87.7</ele>
      </trkpt>
      <trkpt lat="47.73911" lon="-1.88983">
        <ele>87.8</ele>
      </trkpt>
      <trkpt lat="47.73909" lon="-1.88989">
        <ele>87.9</ele>
      </trkpt>
      <trkpt lat="47.73906" lon="-1.88995">
        <ele>87.9</ele>
      </trkpt>
      <trkpt lat="47.73904" lon="-1.89001">
        <ele>88</ele>
      </trkpt>
      <trkpt lat="47.73901" lon="-1.89007">
        <ele>88</ele>
      </trkpt>
      <trkpt lat="47.73899" lon="-1.89013">
        <ele>88</ele>
      </trkpt>
      <trkpt lat="47.73896" lon="-1.89019">
        <ele>88</ele>
      </trkpt>
      <trkpt lat="47.73893" lon="-1.89025">
        <ele>88</ele>
      </trkpt>
      <trkpt lat="47.7389" lon="-1.89032">
        <ele>88</ele>
      </trkpt>
      <trkpt lat="47.73888" lon="-1.89038">
        <ele>88</ele>
      </trkpt>
      <trkpt lat="47.73885" lon="-1.89044">
        <ele>88</ele>
      </trkpt>
      <trkpt lat="47.73883" lon="-1.8905">
        <ele>88</ele>
      </trkpt>
      <trkpt lat="47.73881" lon="-1.89056">
        <ele>88</ele>
      </trkpt>
      <trkpt lat="47.73879" lon="-1.89063">
        <ele>88</ele>
      </trkpt>
      <trkpt lat="47.73877" lon="-1.89068">
        <ele>88</ele>
      </trkpt>
      <trkpt lat="47.73876" lon="-1.89073">
        <ele>88</ele>
      </trkpt>
      <trkpt lat="47.73873" lon="-1.89078">
        <ele>88</ele>
      </trkpt>
      <trkpt lat="47.73871" lon="-1.89084">
        <ele>88</ele>
      </trkpt>
      <trkpt lat="47.73868" lon="-1.89089">
        <ele>88</ele>
      </trkpt>
      <trkpt lat="47.73866" lon="-1.89095">
        <ele>88</ele>
      </trkpt>
      <trkpt lat="47.73863" lon="-1.89102">
        <ele>87.9</ele>
      </trkpt>
      <trkpt lat="47.7386" lon="-1.89109">
        <ele>87.9</ele>
      </trkpt>
      <trkpt lat="47.73858" lon="-1.89116">
        <ele>87.8</ele>
      </trkpt>
      <trkpt lat="47.73855" lon="-1.89122">
        <ele>87.8</ele>
      </trkpt>
      <trkpt lat="47.73853" lon="-1.89129">
        <ele>87.7</ele>
      </trkpt>
      <trkpt lat="47.73849" lon="-1.89143">
        <ele>87.6</ele>
      </trkpt>
      <trkpt lat="47.73848" lon="-1.89146">
        <ele>87.5</ele>
      </trkpt>
      <trkpt lat="47.73847" lon="-1.89149">
        <ele>87.5</ele>
      </trkpt>
      <trkpt lat="47.73845" lon="-1.89155">
        <ele>87.4</ele>
      </trkpt>
      <trkpt lat="47.73843" lon="-1.89162">
        <ele>87.3</ele>
      </trkpt>
      <trkpt lat="47.73841" lon="-1.89169">
        <ele>87.2</ele>
      </trkpt>
      <trkpt lat="47.73838" lon="-1.89175">
        <ele>87.3</ele>
      </trkpt>
      <trkpt lat="47.73836" lon="-1.89183">
        <ele>87.4</ele>
      </trkpt>
      <trkpt lat="47.73833" lon="-1.8919">
        <ele>87.6</ele>
      </trkpt>
      <trkpt lat="47.73831" lon="-1.89196">
        <ele>87.6</ele>
      </trkpt>
      <trkpt lat="47.73829" lon="-1.89203">
        <ele>87.7</ele>
      </trkpt>
      <trkpt lat="47.73827" lon="-1.8921">
        <ele>87.8</ele>
      </trkpt>
      <trkpt lat="47.73824" lon="-1.89217">
        <ele>87.9</ele>
      </trkpt>
      <trkpt lat="47.73823" lon="-1.89225">
        <ele>88</ele>
      </trkpt>
      <trkpt lat="47.7382" lon="-1.89232">
        <ele>88.1</ele>
      </trkpt>
      <trkpt lat="47.73818" lon="-1.89239">
        <ele>88.2</ele>
      </trkpt>
      <trkpt lat="47.73815" lon="-1.89246">
        <ele>88.2</ele>
      </trkpt>
      <trkpt lat="47.73813" lon="-1.89253">
        <ele>88.2</ele>
      </trkpt>
      <trkpt lat="47.7381" lon="-1.8926">
        <ele>88.1</ele>
      </trkpt>
      <trkpt lat="47.73808" lon="-1.89267">
        <ele>87.9</ele>
      </trkpt>
      <trkpt lat="47.73805" lon="-1.89274">
        <ele>87.8</ele>
      </trkpt>
      <trkpt lat="47.73803" lon="-1.89282">
        <ele>87.7</ele>
      </trkpt>
      <trkpt lat="47.738" lon="-1.8929">
        <ele>87.5</ele>
      </trkpt>
      <trkpt lat="47.73797" lon="-1.89297">
        <ele>87.4</ele>
      </trkpt>
      <trkpt lat="47.73795" lon="-1.89305">
        <ele>87.3</ele>
      </trkpt>
      <trkpt lat="47.73793" lon="-1.89312">
        <ele>87.1</ele>
      </trkpt>
      <trkpt lat="47.7379" lon="-1.8932">
        <ele>87</ele>
      </trkpt>
      <trkpt lat="47.73787" lon="-1.89327">
        <ele>86.9</ele>
      </trkpt>
      <trkpt lat="47.73785" lon="-1.89335">
        <ele>86.8</ele>
      </trkpt>
      <trkpt lat="47.73782" lon="-1.89343">
        <ele>86.7</ele>
      </trkpt>
      <trkpt lat="47.73779" lon="-1.89351">
        <ele>86.5</ele>
      </trkpt>
      <trkpt lat="47.73776" lon="-1.89358">
        <ele>86.3</ele>
      </trkpt>
      <trkpt lat="47.73774" lon="-1.89365">
        <ele>86.2</ele>
      </trkpt>
      <trkpt lat="47.73771" lon="-1.89373">
        <ele>86</ele>
      </trkpt>
      <trkpt lat="47.73768" lon="-1.89381">
        <ele>85.9</ele>
      </trkpt>
      <trkpt lat="47.73766" lon="-1.89389">
        <ele>85.7</ele>
      </trkpt>
      <trkpt lat="47.73763" lon="-1.89397">
        <ele>85.5</ele>
      </trkpt>
      <trkpt lat="47.73761" lon="-1.89405">
        <ele>85.4</ele>
      </trkpt>
      <trkpt lat="47.73758" lon="-1.89413">
        <ele>85.2</ele>
      </trkpt>
      <trkpt lat="47.73755" lon="-1.89422">
        <ele>85</ele>
      </trkpt>
      <trkpt lat="47.73752" lon="-1.8943">
        <ele>84.7</ele>
      </trkpt>
      <trkpt lat="47.73749" lon="-1.89439">
        <ele>84.4</ele>
      </trkpt>
      <trkpt lat="47.73746" lon="-1.89448">
        <ele>84.2</ele>
      </trkpt>
      <trkpt lat="47.73743" lon="-1.89457">
        <ele>83.9</ele>
      </trkpt>
      <trkpt lat="47.7374" lon="-1.89466">
        <ele>83.6</ele>
      </trkpt>
      <trkpt lat="47.73737" lon="-1.89476">
        <ele>83.3</ele>
      </trkpt>
      <trkpt lat="47.73734" lon="-1.89486">
        <ele>82.9</ele>
      </trkpt>
      <trkpt lat="47.73731" lon="-1.89496">
        <ele>82.6</ele>
      </trkpt>
      <trkpt lat="47.73727" lon="-1.89507">
        <ele>82.3</ele>
      </trkpt>
      <trkpt lat="47.73724" lon="-1.89517">
        <ele>82.1</ele>
      </trkpt>
      <trkpt lat="47.73721" lon="-1.89528">
        <ele>81.9</ele>
      </trkpt>
      <trkpt lat="47.73717" lon="-1.89538">
        <ele>81.7</ele>
      </trkpt>
      <trkpt lat="47.73714" lon="-1.89548">
        <ele>81.5</ele>
      </trkpt>
      <trkpt lat="47.7371" lon="-1.89556">
        <ele>81.3</ele>
      </trkpt>
      <trkpt lat="47.73704" lon="-1.89564">
        <ele>81.2</ele>
      </trkpt>
      <trkpt lat="47.73698" lon="-1.8957">
        <ele>81.1</ele>
      </trkpt>
      <trkpt lat="47.73692" lon="-1.89574">
        <ele>81.1</ele>
      </trkpt>
      <trkpt lat="47.73684" lon="-1.89576">
        <ele>81</ele>
      </trkpt>
      <trkpt lat="47.73677" lon="-1.89577">
        <ele>81</ele>
      </trkpt>
      <trkpt lat="47.73669" lon="-1.89577">
        <ele>81</ele>
      </trkpt>
      <trkpt lat="47.73662" lon="-1.89576">
        <ele>81.3</ele>
      </trkpt>
      <trkpt lat="47.73656" lon="-1.89573">
        <ele>81.7</ele>
      </trkpt>
      <trkpt lat="47.7365" lon="-1.8957">
        <ele>82.1</ele>
      </trkpt>
      <trkpt lat="47.73646" lon="-1.89567">
        <ele>82.3</ele>
      </trkpt>
      <trkpt lat="47.73641" lon="-1.89563">
        <ele>82.6</ele>
      </trkpt>
      <trkpt lat="47.73635" lon="-1.89559">
        <ele>82.9</ele>
      </trkpt>
      <trkpt lat="47.73631" lon="-1.89555">
        <ele>83.1</ele>
      </trkpt>
      <trkpt lat="47.73627" lon="-1.89551">
        <ele>83.3</ele>
      </trkpt>
      <trkpt lat="47.73623" lon="-1.89547">
        <ele>83.4</ele>
      </trkpt>
      <trkpt lat="47.73619" lon="-1.89543">
        <ele>83.6</ele>
      </trkpt>
      <trkpt lat="47.73616" lon="-1.89539">
        <ele>83.7</ele>
      </trkpt>
      <trkpt lat="47.73612" lon="-1.89535">
        <ele>83.8</ele>
      </trkpt>
      <trkpt lat="47.73607" lon="-1.89531">
        <ele>83.9</ele>
      </trkpt>
      <trkpt lat="47.73603" lon="-1.89527">
        <ele>84</ele>
      </trkpt>
      <trkpt lat="47.73599" lon="-1.89523">
        <ele>84.1</ele>
      </trkpt>
      <trkpt lat="47.73594" lon="-1.89519">
        <ele>84.2</ele>
      </trkpt>
      <trkpt lat="47.7359" lon="-1.89515">
        <ele>84.3</ele>
      </trkpt>
      <trkpt lat="47.73585" lon="-1.89511">
        <ele>84.3</ele>
      </trkpt>
      <trkpt lat="47.73581" lon="-1.89508">
        <ele>84.3</ele>
      </trkpt>
      <trkpt lat="47.73576" lon="-1.89503">
        <ele>84.2</ele>
      </trkpt>
      <trkpt lat="47.73572" lon="-1.89499">
        <ele>84.1</ele>
      </trkpt>
      <trkpt lat="47.73568" lon="-1.89496">
        <ele>84</ele>
      </trkpt>
      <trkpt lat="47.73565" lon="-1.89492">
        <ele>84</ele>
      </trkpt>
      <trkpt lat="47.73561" lon="-1.89489">
        <ele>83.9</ele>
      </trkpt>
      <trkpt lat="47.73558" lon="-1.89486">
        <ele>83.8</ele>
      </trkpt>
      <trkpt lat="47.73553" lon="-1.89482">
        <ele>83.7</ele>
      </trkpt>
      <trkpt lat="47.73549" lon="-1.89479">
        <ele>83.6</ele>
      </trkpt>
      <trkpt lat="47.73545" lon="-1.89476">
        <ele>83.5</ele>
      </trkpt>
      <trkpt lat="47.73542" lon="-1.89473">
        <ele>83.4</ele>
      </trkpt>
      <trkpt lat="47.73538" lon="-1.8947">
        <ele>83.2</ele>
      </trkpt>
      <trkpt lat="47.73534" lon="-1.89465">
        <ele>83</ele>
      </trkpt>
      <trkpt lat="47.73529" lon="-1.8946">
        <ele>82.8</ele>
      </trkpt>
      <trkpt lat="47.73525" lon="-1.89456">
        <ele>82.5</ele>
      </trkpt>
      <trkpt lat="47.7352" lon="-1.89452">
        <ele>82.3</ele>
      </trkpt>
      <trkpt lat="47.73515" lon="-1.89448">
        <ele>82</ele>
      </trkpt>
      <trkpt lat="47.7351" lon="-1.89443">
        <ele>81.7</ele>
      </trkpt>
      <trkpt lat="47.73505" lon="-1.89439">
        <ele>81.4</ele>
      </trkpt>
      <trkpt lat="47.73499" lon="-1.89434">
        <ele>81</ele>
      </trkpt>
      <trkpt lat="47.73494" lon="-1.89429">
        <ele>80.6</ele>
      </trkpt>
      <trkpt lat="47.7349" lon="-1.89425">
        <ele>80.2</ele>
      </trkpt>
      <trkpt lat="47.73483" lon="-1.89419">
        <ele>79.7</ele>
      </trkpt>
      <trkpt lat="47.73478" lon="-1.89414">
        <ele>79.4</ele>
      </trkpt>
      <trkpt lat="47.73474" lon="-1.89409">
        <ele>79.2</ele>
      </trkpt>
      <trkpt lat="47.73469" lon="-1.89404">
        <ele>79</ele>
      </trkpt>
      <trkpt lat="47.73464" lon="-1.894">
        <ele>78.9</ele>
      </trkpt>
      <trkpt lat="47.7346" lon="-1.89398">
        <ele>78.7</ele>
      </trkpt>
      <trkpt lat="47.73456" lon="-1.894">
        <ele>78.6</ele>
      </trkpt>
      <trkpt lat="47.73452" lon="-1.89404">
        <ele>78.6</ele>
      </trkpt>
      <trkpt lat="47.73448" lon="-1.89408">
        <ele>78.6</ele>
      </trkpt>
      <trkpt lat="47.73445" lon="-1.89415">
        <ele>78.6</ele>
      </trkpt>
      <trkpt lat="47.73442" lon="-1.89421">
        <ele>78.7</ele>
      </trkpt>
      <trkpt lat="47.73439" lon="-1.89427">
        <ele>78.8</ele>
      </trkpt>
      <trkpt lat="47.73437" lon="-1.89434">
        <ele>78.9</ele>
      </trkpt>
      <trkpt lat="47.73435" lon="-1.89442">
        <ele>79</ele>
      </trkpt>
      <trkpt lat="47.73433" lon="-1.89448">
        <ele>79.1</ele>
      </trkpt>
      <trkpt lat="47.73432" lon="-1.89456">
        <ele>79.2</ele>
      </trkpt>
      <trkpt lat="47.73431" lon="-1.89464">
        <ele>79.3</ele>
      </trkpt>
      <trkpt lat="47.7343" lon="-1.89473">
        <ele>79.4</ele>
      </trkpt>
      <trkpt lat="47.7343" lon="-1.89481">
        <ele>79.6</ele>
      </trkpt>
      <trkpt lat="47.7343" lon="-1.89488">
        <ele>79.7</ele>
      </trkpt>
      <trkpt lat="47.73429" lon="-1.89497">
        <ele>79.9</ele>
      </trkpt>
      <trkpt lat="47.73429" lon="-1.89506">
        <ele>79.9</ele>
      </trkpt>
      <trkpt lat="47.73429" lon="-1.89513">
        <ele>80</ele>
      </trkpt>
      <trkpt lat="47.73429" lon="-1.89521">
        <ele>80.1</ele>
      </trkpt>
      <trkpt lat="47.73429" lon="-1.89529">
        <ele>80.1</ele>
      </trkpt>
      <trkpt lat="47.73429" lon="-1.89538">
        <ele>80.2</ele>
      </trkpt>
      <trkpt lat="47.7343" lon="-1.89546">
        <ele>80.3</ele>
      </trkpt>
      <trkpt lat="47.73431" lon="-1.89555">
        <ele>80.5</ele>
      </trkpt>
      <trkpt lat="47.73431" lon="-1.89563">
        <ele>80.5</ele>
      </trkpt>
      <trkpt lat="47.73431" lon="-1.8957">
        <ele>80.6</ele>
      </trkpt>
      <trkpt lat="47.73432" lon="-1.8958">
        <ele>80.7</ele>
      </trkpt>
      <trkpt lat="47.73432" lon="-1.89589">
        <ele>80.7</ele>
      </trkpt>
      <trkpt lat="47.73432" lon="-1.89598">
        <ele>80.8</ele>
      </trkpt>
      <trkpt lat="47.73432" lon="-1.89607">
        <ele>80.9</ele>
      </trkpt>
      <trkpt lat="47.73432" lon="-1.89617">
        <ele>80.9</ele>
      </trkpt>
      <trkpt lat="47.73432" lon="-1.89626">
        <ele>80.9</ele>
      </trkpt>
      <trkpt lat="47.73432" lon="-1.89636">
        <ele>80.9</ele>
      </trkpt>
      <trkpt lat="47.73431" lon="-1.89645">
        <ele>81</ele>
      </trkpt>
      <trkpt lat="47.73431" lon="-1.89655">
        <ele>81</ele>
      </trkpt>
      <trkpt lat="47.7343" lon="-1.89665">
        <ele>81</ele>
      </trkpt>
      <trkpt lat="47.7343" lon="-1.89675">
        <ele>81</ele>
      </trkpt>
      <trkpt lat="47.7343" lon="-1.89685">
        <ele>81</ele>
      </trkpt>
      <trkpt lat="47.7343" lon="-1.89695">
        <ele>81</ele>
      </trkpt>
      <trkpt lat="47.7343" lon="-1.89705">
        <ele>81</ele>
      </trkpt>
      <trkpt lat="47.7343" lon="-1.89714">
        <ele>81</ele>
      </trkpt>
      <trkpt lat="47.73429" lon="-1.89724">
        <ele>81</ele>
      </trkpt>
      <trkpt lat="47.73429" lon="-1.89733">
        <ele>81</ele>
      </trkpt>
      <trkpt lat="47.73428" lon="-1.89742">
        <ele>80.9</ele>
      </trkpt>
      <trkpt lat="47.73428" lon="-1.8975">
        <ele>80.9</ele>
      </trkpt>
      <trkpt lat="47.73426" lon="-1.89758">
        <ele>80.7</ele>
      </trkpt>
      <trkpt lat="47.73425" lon="-1.89766">
        <ele>80.5</ele>
      </trkpt>
      <trkpt lat="47.73423" lon="-1.89773">
        <ele>80.2</ele>
      </trkpt>
      <trkpt lat="47.7342" lon="-1.89781">
        <ele>79.9</ele>
      </trkpt>
      <trkpt lat="47.73417" lon="-1.89788">
        <ele>79.6</ele>
      </trkpt>
      <trkpt lat="47.73413" lon="-1.89795">
        <ele>79.2</ele>
      </trkpt>
      <trkpt lat="47.73409" lon="-1.898">
        <ele>78.8</ele>
      </trkpt>
      <trkpt lat="47.73405" lon="-1.89804">
        <ele>78.5</ele>
      </trkpt>
      <trkpt lat="47.73402" lon="-1.89806">
        <ele>78.2</ele>
      </trkpt>
      <trkpt lat="47.734" lon="-1.89804">
        <ele>78</ele>
      </trkpt>
      <trkpt lat="47.73397" lon="-1.89804">
        <ele>77.8</ele>
      </trkpt>
      <trkpt lat="47.73395" lon="-1.89802">
        <ele>77.6</ele>
      </trkpt>
      <trkpt lat="47.73393" lon="-1.89799">
        <ele>77.5</ele>
      </trkpt>
      <trkpt lat="47.73389" lon="-1.89799">
        <ele>77.2</ele>
      </trkpt>
      <trkpt lat="47.73384" lon="-1.89798">
        <ele>76.9</ele>
      </trkpt>
      <trkpt lat="47.7338" lon="-1.89797">
        <ele>76.5</ele>
      </trkpt>
      <trkpt lat="47.73374" lon="-1.89796">
        <ele>76.1</ele>
      </trkpt>
      <trkpt lat="47.73369" lon="-1.89796">
        <ele>75.7</ele>
      </trkpt>
      <trkpt lat="47.73365" lon="-1.89795">
        <ele>75.4</ele>
      </trkpt>
      <trkpt lat="47.73361" lon="-1.89793">
        <ele>75.1</ele>
      </trkpt>
      <trkpt lat="47.73357" lon="-1.89792">
        <ele>74.8</ele>
      </trkpt>
      <trkpt lat="47.73354" lon="-1.89792">
        <ele>74.6</ele>
      </trkpt>
      <trkpt lat="47.7335" lon="-1.89794">
        <ele>74.3</ele>
      </trkpt>
      <trkpt lat="47.73347" lon="-1.89797">
        <ele>73.9</ele>
      </trkpt>
      <trkpt lat="47.73343" lon="-1.89799">
        <ele>73.6</ele>
      </trkpt>
      <trkpt lat="47.73339" lon="-1.89802">
        <ele>73.2</ele>
      </trkpt>
      <trkpt lat="47.73336" lon="-1.89804">
        <ele>72.9</ele>
      </trkpt>
      <trkpt lat="47.73333" lon="-1.89804">
        <ele>72.7</ele>
      </trkpt>
      <trkpt lat="47.73329" lon="-1.89802">
        <ele>72.5</ele>
      </trkpt>
      <trkpt lat="47.73326" lon="-1.898">
        <ele>72.4</ele>
      </trkpt>
      <trkpt lat="47.73323" lon="-1.89798">
        <ele>72.2</ele>
      </trkpt>
      <trkpt lat="47.73319" lon="-1.89796">
        <ele>72.1</ele>
      </trkpt>
      <trkpt lat="47.73315" lon="-1.89792">
        <ele>71.9</ele>
      </trkpt>
      <trkpt lat="47.73312" lon="-1.89791">
        <ele>71.8</ele>
      </trkpt>
      <trkpt lat="47.73308" lon="-1.89789">
        <ele>71.5</ele>
      </trkpt>
      <trkpt lat="47.73304" lon="-1.89789">
        <ele>71.3</ele>
      </trkpt>
      <trkpt lat="47.73302" lon="-1.89793">
        <ele>71.1</ele>
      </trkpt>
      <trkpt lat="47.733" lon="-1.89798">
        <ele>70.9</ele>
      </trkpt>
      <trkpt lat="47.73299" lon="-1.89802">
        <ele>70.8</ele>
      </trkpt>
      <trkpt lat="47.73297" lon="-1.89805">
        <ele>70.6</ele>
      </trkpt>
      <trkpt lat="47.73295" lon="-1.89806">
        <ele>70.5</ele>
      </trkpt>
      <trkpt lat="47.73292" lon="-1.89804">
        <ele>70.4</ele>
      </trkpt>
      <trkpt lat="47.73288" lon="-1.89802">
        <ele>70.2</ele>
      </trkpt>
      <trkpt lat="47.73286" lon="-1.89801">
        <ele>70.1</ele>
      </trkpt>
      <trkpt lat="47.73283" lon="-1.898">
        <ele>69.9</ele>
      </trkpt>
      <trkpt lat="47.7328" lon="-1.89802">
        <ele>69.7</ele>
      </trkpt>
      <trkpt lat="47.73274" lon="-1.89804">
        <ele>69.3</ele>
      </trkpt>
      <trkpt lat="47.73272" lon="-1.89807">
        <ele>69.3</ele>
      </trkpt>
      <trkpt lat="47.73271" lon="-1.89809">
        <ele>69.2</ele>
      </trkpt>
      <trkpt lat="47.73269" lon="-1.8981">
        <ele>69.1</ele>
      </trkpt>
      <trkpt lat="47.73267" lon="-1.89806">
        <ele>68.9</ele>
      </trkpt>
      <trkpt lat="47.73266" lon="-1.89802">
        <ele>68.9</ele>
      </trkpt>
      <trkpt lat="47.73266" lon="-1.898">
        <ele>68.9</ele>
      </trkpt>
      <trkpt lat="47.73266" lon="-1.898">
        <ele>68.9</ele>
      </trkpt>
      <trkpt lat="47.73266" lon="-1.898">
        <ele>68.9</ele>
      </trkpt>
      <trkpt lat="47.73266" lon="-1.898">
        <ele>68.9</ele>
      </trkpt>
      <trkpt lat="47.73266" lon="-1.898">
        <ele>68.9</ele>
      </trkpt>
      <trkpt lat="47.73266" lon="-1.898">
        <ele>68.9</ele>
      </trkpt>
      <trkpt lat="47.73265" lon="-1.89799">
        <ele>68.9</ele>
      </trkpt>
      <trkpt lat="47.73265" lon="-1.89797">
        <ele>68.9</ele>
      </trkpt>
      <trkpt lat="47.73264" lon="-1.89794">
        <ele>68.8</ele>
      </trkpt>
      <trkpt lat="47.73262" lon="-1.89792">
        <ele>68.7</ele>
      </trkpt>
      <trkpt lat="47.73259" lon="-1.89791">
        <ele>68.5</ele>
      </trkpt>
      <trkpt lat="47.73255" lon="-1.89791">
        <ele>68.3</ele>
      </trkpt>
      <trkpt lat="47.73253" lon="-1.89791">
        <ele>68.2</ele>
      </trkpt>
      <trkpt lat="47.7325" lon="-1.8979">
        <ele>68</ele>
      </trkpt>
      <trkpt lat="47.73248" lon="-1.89789">
        <ele>67.8</ele>
      </trkpt>
      <trkpt lat="47.73245" lon="-1.89788">
        <ele>67.5</ele>
      </trkpt>
      <trkpt lat="47.73244" lon="-1.89785">
        <ele>67.4</ele>
      </trkpt>
      <trkpt lat="47.73244" lon="-1.89781">
        <ele>67.3</ele>
      </trkpt>
      <trkpt lat="47.73244" lon="-1.89776">
        <ele>67.3</ele>
      </trkpt>
      <trkpt lat="47.73243" lon="-1.89771">
        <ele>67.2</ele>
      </trkpt>
      <trkpt lat="47.73242" lon="-1.89766">
        <ele>67.1</ele>
      </trkpt>
      <trkpt lat="47.7324" lon="-1.89762">
        <ele>66.9</ele>
      </trkpt>
      <trkpt lat="47.73239" lon="-1.89756">
        <ele>66.7</ele>
      </trkpt>
      <trkpt lat="47.73237" lon="-1.89751">
        <ele>66.5</ele>
      </trkpt>
      <trkpt lat="47.73236" lon="-1.89747">
        <ele>66.3</ele>
      </trkpt>
      <trkpt lat="47.73235" lon="-1.89743">
        <ele>66.1</ele>
      </trkpt>
      <trkpt lat="47.73234" lon="-1.89739">
        <ele>66</ele>
      </trkpt>
      <trkpt lat="47.73234" lon="-1.89734">
        <ele>65.9</ele>
      </trkpt>
      <trkpt lat="47.73235" lon="-1.89731">
        <ele>65.9</ele>
      </trkpt>
      <trkpt lat="47.73237" lon="-1.89729">
        <ele>66.2</ele>
      </trkpt>
      <trkpt lat="47.73238" lon="-1.8973">
        <ele>66.4</ele>
      </trkpt>
      <trkpt lat="47.7324" lon="-1.89732">
        <ele>66.6</ele>
      </trkpt>
      <trkpt lat="47.73243" lon="-1.8973">
        <ele>66.9</ele>
      </trkpt>
      <trkpt lat="47.73245" lon="-1.89727">
        <ele>67.1</ele>
      </trkpt>
      <trkpt lat="47.73247" lon="-1.89724">
        <ele>67.3</ele>
      </trkpt>
      <trkpt lat="47.73249" lon="-1.89721">
        <ele>67.5</ele>
      </trkpt>
      <trkpt lat="47.73251" lon="-1.8972">
        <ele>67.7</ele>
      </trkpt>
      <trkpt lat="47.73253" lon="-1.89721">
        <ele>67.8</ele>
      </trkpt>
      <trkpt lat="47.73255" lon="-1.89722">
        <ele>68</ele>
      </trkpt>
      <trkpt lat="47.73258" lon="-1.89723">
        <ele>68.3</ele>
      </trkpt>
      <trkpt lat="47.73261" lon="-1.89723">
        <ele>68.5</ele>
      </trkpt>
      <trkpt lat="47.73264" lon="-1.89723">
        <ele>68.7</ele>
      </trkpt>
      <trkpt lat="47.73267" lon="-1.89723">
        <ele>69</ele>
      </trkpt>
      <trkpt lat="47.7327" lon="-1.89725">
        <ele>69.2</ele>
      </trkpt>
      <trkpt lat="47.73272" lon="-1.89727">
        <ele>69.4</ele>
      </trkpt>
      <trkpt lat="47.73273" lon="-1.89731">
        <ele>69.5</ele>
      </trkpt>
      <trkpt lat="47.73274" lon="-1.89736">
        <ele>69.6</ele>
      </trkpt>
      <trkpt lat="47.73275" lon="-1.8974">
        <ele>69.7</ele>
      </trkpt>
      <trkpt lat="47.73278" lon="-1.89743">
        <ele>69.9</ele>
      </trkpt>
      <trkpt lat="47.73281" lon="-1.89744">
        <ele>70.2</ele>
      </trkpt>
      <trkpt lat="47.73284" lon="-1.89745">
        <ele>70.4</ele>
      </trkpt>
      <trkpt lat="47.73286" lon="-1.89747">
        <ele>70.6</ele>
      </trkpt>
      <trkpt lat="47.73288" lon="-1.89749">
        <ele>70.7</ele>
      </trkpt>
      <trkpt lat="47.73291" lon="-1.89751">
        <ele>70.9</ele>
      </trkpt>
      <trkpt lat="47.73294" lon="-1.89754">
        <ele>71.1</ele>
      </trkpt>
      <trkpt lat="47.73296" lon="-1.89755">
        <ele>71.3</ele>
      </trkpt>
      <trkpt lat="47.73299" lon="-1.89755">
        <ele>71.5</ele>
      </trkpt>
      <trkpt lat="47.73301" lon="-1.89755">
        <ele>71.6</ele>
      </trkpt>
      <trkpt lat="47.73302" lon="-1.89758">
        <ele>71.7</ele>
      </trkpt>
      <trkpt lat="47.73304" lon="-1.8976">
        <ele>71.7</ele>
      </trkpt>
      <trkpt lat="47.73305" lon="-1.89762">
        <ele>71.8</ele>
      </trkpt>
      <trkpt lat="47.73308" lon="-1.89762">
        <ele>71.9</ele>
      </trkpt>
      <trkpt lat="47.7331" lon="-1.89761">
        <ele>72.1</ele>
      </trkpt>
      <trkpt lat="47.73312" lon="-1.89758">
        <ele>72.3</ele>
      </trkpt>
      <trkpt lat="47.73314" lon="-1.89753">
        <ele>72.5</ele>
      </trkpt>
      <trkpt lat="47.73314" lon="-1.8975">
        <ele>72.6</ele>
      </trkpt>
      <trkpt lat="47.73315" lon="-1.89746">
        <ele>72.6</ele>
      </trkpt>
      <trkpt lat="47.73316" lon="-1.89742">
        <ele>72.8</ele>
      </trkpt>
      <trkpt lat="47.73318" lon="-1.89739">
        <ele>72.9</ele>
      </trkpt>
      <trkpt lat="47.73321" lon="-1.89735">
        <ele>73.1</ele>
      </trkpt>
      <trkpt lat="47.73321" lon="-1.89732">
        <ele>73.1</ele>
      </trkpt>
      <trkpt lat="47.73321" lon="-1.89729">
        <ele>73</ele>
      </trkpt>
      <trkpt lat="47.7332" lon="-1.89726">
        <ele>73</ele>
      </trkpt>
      <trkpt lat="47.7332" lon="-1.89722">
        <ele>73</ele>
      </trkpt>
      <trkpt lat="47.73321" lon="-1.89718">
        <ele>73.1</ele>
      </trkpt>
      <trkpt lat="47.73323" lon="-1.89714">
        <ele>73.2</ele>
      </trkpt>
      <trkpt lat="47.73325" lon="-1.89711">
        <ele>73.3</ele>
      </trkpt>
      <trkpt lat="47.73326" lon="-1.89709">
        <ele>73.5</ele>
      </trkpt>
      <trkpt lat="47.73329" lon="-1.89708">
        <ele>73.6</ele>
      </trkpt>
      <trkpt lat="47.73332" lon="-1.89708">
        <ele>73.9</ele>
      </trkpt>
      <trkpt lat="47.73335" lon="-1.89708">
        <ele>74.1</ele>
      </trkpt>
      <trkpt lat="47.73338" lon="-1.89709">
        <ele>74.4</ele>
      </trkpt>
      <trkpt lat="47.73341" lon="-1.89709">
        <ele>74.5</ele>
      </trkpt>
      <trkpt lat="47.73344" lon="-1.8971">
        <ele>74.8</ele>
      </trkpt>
      <trkpt lat="47.73346" lon="-1.89709">
        <ele>74.9</ele>
      </trkpt>
      <trkpt lat="47.7335" lon="-1.8971">
        <ele>75.2</ele>
      </trkpt>
      <trkpt lat="47.73353" lon="-1.89711">
        <ele>75.4</ele>
      </trkpt>
      <trkpt lat="47.73357" lon="-1.89711">
        <ele>75.7</ele>
      </trkpt>
      <trkpt lat="47.73361" lon="-1.89708">
        <ele>76</ele>
      </trkpt>
      <trkpt lat="47.73366" lon="-1.89705">
        <ele>76.4</ele>
      </trkpt>
      <trkpt lat="47.7337" lon="-1.89703">
        <ele>76.6</ele>
      </trkpt>
      <trkpt lat="47.73373" lon="-1.89702">
        <ele>76.8</ele>
      </trkpt>
      <trkpt lat="47.73375" lon="-1.89699">
        <ele>77</ele>
      </trkpt>
      <trkpt lat="47.73377" lon="-1.89695">
        <ele>77.1</ele>
      </trkpt>
      <trkpt lat="47.73378" lon="-1.89691">
        <ele>77.2</ele>
      </trkpt>
      <trkpt lat="47.7338" lon="-1.89688">
        <ele>77.4</ele>
      </trkpt>
      <trkpt lat="47.73382" lon="-1.89684">
        <ele>77.5</ele>
      </trkpt>
      <trkpt lat="47.73383" lon="-1.8968">
        <ele>77.6</ele>
      </trkpt>
      <trkpt lat="47.73384" lon="-1.89676">
        <ele>77.6</ele>
      </trkpt>
      <trkpt lat="47.73385" lon="-1.89671">
        <ele>77.7</ele>
      </trkpt>
      <trkpt lat="47.73387" lon="-1.89668">
        <ele>77.8</ele>
      </trkpt>
      <trkpt lat="47.73389" lon="-1.89666">
        <ele>78</ele>
      </trkpt>
      <trkpt lat="47.73391" lon="-1.89663">
        <ele>78.2</ele>
      </trkpt>
      <trkpt lat="47.73392" lon="-1.89659">
        <ele>78.3</ele>
      </trkpt>
      <trkpt lat="47.73392" lon="-1.89654">
        <ele>78.3</ele>
      </trkpt>
      <trkpt lat="47.73391" lon="-1.8965">
        <ele>78.2</ele>
      </trkpt>
      <trkpt lat="47.73389" lon="-1.89646">
        <ele>78.1</ele>
      </trkpt>
      <trkpt lat="47.73386" lon="-1.89644">
        <ele>78</ele>
      </trkpt>
      <trkpt lat="47.73383" lon="-1.89643">
        <ele>77.8</ele>
      </trkpt>
      <trkpt lat="47.73381" lon="-1.89643">
        <ele>77.7</ele>
      </trkpt>
      <trkpt lat="47.73381" lon="-1.89644">
        <ele>77.6</ele>
      </trkpt>
      <trkpt lat="47.73381" lon="-1.89644">
        <ele>77.6</ele>
      </trkpt>
      <trkpt lat="47.73381" lon="-1.89644">
        <ele>77.6</ele>
      </trkpt>
      <trkpt lat="47.73381" lon="-1.89644">
        <ele>77.6</ele>
      </trkpt>
      <trkpt lat="47.73381" lon="-1.89644">
        <ele>77.6</ele>
      </trkpt>
      <trkpt lat="47.73381" lon="-1.89643">
        <ele>77.7</ele>
      </trkpt>
      <trkpt lat="47.73381" lon="-1.89643">
        <ele>77.7</ele>
      </trkpt>
      <trkpt lat="47.73382" lon="-1.89642">
        <ele>77.7</ele>
      </trkpt>
      <trkpt lat="47.73382" lon="-1.89641">
        <ele>77.8</ele>
      </trkpt>
      <trkpt lat="47.73383" lon="-1.89641">
        <ele>77.8</ele>
      </trkpt>
      <trkpt lat="47.73383" lon="-1.8964">
        <ele>77.9</ele>
      </trkpt>
      <trkpt lat="47.73384" lon="-1.8964">
        <ele>77.9</ele>
      </trkpt>
      <trkpt lat="47.73384" lon="-1.8964">
        <ele>77.9</ele>
      </trkpt>
      <trkpt lat="47.73384" lon="-1.8964">
        <ele>77.9</ele>
      </trkpt>
      <trkpt lat="47.73384" lon="-1.8964">
        <ele>77.9</ele>
      </trkpt>
      <trkpt lat="47.73384" lon="-1.8964">
        <ele>77.9</ele>
      </trkpt>
      <trkpt lat="47.73384" lon="-1.8964">
        <ele>77.9</ele>
      </trkpt>
      <trkpt lat="47.73384" lon="-1.8964">
        <ele>77.9</ele>
      </trkpt>
      <trkpt lat="47.73384" lon="-1.8964">
        <ele>77.9</ele>
      </trkpt>
      <trkpt lat="47.73384" lon="-1.8964">
        <ele>77.9</ele>
      </trkpt>
      <trkpt lat="47.73384" lon="-1.8964">
        <ele>77.9</ele>
      </trkpt>
      <trkpt lat="47.73383" lon="-1.8964">
        <ele>77.9</ele>
      </trkpt>
      <trkpt lat="47.73382" lon="-1.89643">
        <ele>77.7</ele>
      </trkpt>
      <trkpt lat="47.73381" lon="-1.89645">
        <ele>77.6</ele>
      </trkpt>
      <trkpt lat="47.7338" lon="-1.89648">
        <ele>77.5</ele>
      </trkpt>
      <trkpt lat="47.73379" lon="-1.89651">
        <ele>77.5</ele>
      </trkpt>
      <trkpt lat="47.73377" lon="-1.89652">
        <ele>77.3</ele>
      </trkpt>
      <trkpt lat="47.73374" lon="-1.89653">
        <ele>77.1</ele>
      </trkpt>
      <trkpt lat="47.73371" lon="-1.89653">
        <ele>76.9</ele>
      </trkpt>
      <trkpt lat="47.73366" lon="-1.89654">
        <ele>76.6</ele>
      </trkpt>
      <trkpt lat="47.73363" lon="-1.89653">
        <ele>76.3</ele>
      </trkpt>
      <trkpt lat="47.73359" lon="-1.89652">
        <ele>76.1</ele>
      </trkpt>
      <trkpt lat="47.73356" lon="-1.89652">
        <ele>75.9</ele>
      </trkpt>
      <trkpt lat="47.73353" lon="-1.89653">
        <ele>75.6</ele>
      </trkpt>
      <trkpt lat="47.73348" lon="-1.89655">
        <ele>75.3</ele>
      </trkpt>
      <trkpt lat="47.73344" lon="-1.89656">
        <ele>75</ele>
      </trkpt>
      <trkpt lat="47.73342" lon="-1.89654">
        <ele>74.9</ele>
      </trkpt>
      <trkpt lat="47.7334" lon="-1.89649">
        <ele>74.9</ele>
      </trkpt>
      <trkpt lat="47.73338" lon="-1.89644">
        <ele>74.8</ele>
      </trkpt>
      <trkpt lat="47.73335" lon="-1.89642">
        <ele>74.7</ele>
      </trkpt>
      <trkpt lat="47.7333" lon="-1.8964">
        <ele>74.4</ele>
      </trkpt>
      <trkpt lat="47.73325" lon="-1.8964">
        <ele>73.9</ele>
      </trkpt>
      <trkpt lat="47.73321" lon="-1.89638">
        <ele>73.6</ele>
      </trkpt>
      <trkpt lat="47.73318" lon="-1.89637">
        <ele>73.3</ele>
      </trkpt>
      <trkpt lat="47.73315" lon="-1.89636">
        <ele>73.1</ele>
      </trkpt>
      <trkpt lat="47.73312" lon="-1.89634">
        <ele>72.8</ele>
      </trkpt>
      <trkpt lat="47.73309" lon="-1.8963">
        <ele>72.6</ele>
      </trkpt>
      <trkpt lat="47.73306" lon="-1.89627">
        <ele>72.4</ele>
      </trkpt>
      <trkpt lat="47.73301" lon="-1.89624">
        <ele>71.9</ele>
      </trkpt>
      <trkpt lat="47.73295" lon="-1.8962">
        <ele>71.4</ele>
      </trkpt>
      <trkpt lat="47.73289" lon="-1.89616">
        <ele>70.9</ele>
      </trkpt>
      <trkpt lat="47.73284" lon="-1.89615">
        <ele>70.4</ele>
      </trkpt>
      <trkpt lat="47.73279" lon="-1.89616">
        <ele>69.9</ele>
      </trkpt>
      <trkpt lat="47.73275" lon="-1.89616">
        <ele>69.5</ele>
      </trkpt>
      <trkpt lat="47.73271" lon="-1.89613">
        <ele>69</ele>
      </trkpt>
      <trkpt lat="47.73268" lon="-1.89609">
        <ele>68.8</ele>
      </trkpt>
      <trkpt lat="47.73265" lon="-1.89604">
        <ele>68.5</ele>
      </trkpt>
      <trkpt lat="47.73263" lon="-1.89599">
        <ele>68.4</ele>
      </trkpt>
      <trkpt lat="47.73262" lon="-1.89594">
        <ele>68.3</ele>
      </trkpt>
      <trkpt lat="47.73262" lon="-1.89588">
        <ele>68.3</ele>
      </trkpt>
      <trkpt lat="47.7326" lon="-1.89586">
        <ele>68.1</ele>
      </trkpt>
      <trkpt lat="47.73257" lon="-1.89585">
        <ele>67.7</ele>
      </trkpt>
      <trkpt lat="47.73253" lon="-1.89586">
        <ele>67.4</ele>
      </trkpt>
      <trkpt lat="47.7325" lon="-1.89589">
        <ele>67</ele>
      </trkpt>
      <trkpt lat="47.73247" lon="-1.89592">
        <ele>66.6</ele>
      </trkpt>
      <trkpt lat="47.73244" lon="-1.89594">
        <ele>66.3</ele>
      </trkpt>
      <trkpt lat="47.73241" lon="-1.89594">
        <ele>66</ele>
      </trkpt>
      <trkpt lat="47.73238" lon="-1.89595">
        <ele>65.6</ele>
      </trkpt>
      <trkpt lat="47.73235" lon="-1.89596">
        <ele>65.2</ele>
      </trkpt>
      <trkpt lat="47.73231" lon="-1.89595">
        <ele>64.7</ele>
      </trkpt>
      <trkpt lat="47.73228" lon="-1.89593">
        <ele>64.3</ele>
      </trkpt>
      <trkpt lat="47.73226" lon="-1.89591">
        <ele>64.1</ele>
      </trkpt>
      <trkpt lat="47.73225" lon="-1.89588">
        <ele>64</ele>
      </trkpt>
      <trkpt lat="47.73226" lon="-1.89584">
        <ele>64.1</ele>
      </trkpt>
      <trkpt lat="47.73227" lon="-1.89582">
        <ele>64.2</ele>
      </trkpt>
      <trkpt lat="47.73228" lon="-1.89579">
        <ele>64.3</ele>
      </trkpt>
      <trkpt lat="47.73229" lon="-1.89576">
        <ele>64.4</ele>
      </trkpt>
      <trkpt lat="47.7323" lon="-1.89572">
        <ele>64.5</ele>
      </trkpt>
      <trkpt lat="47.7323" lon="-1.89569">
        <ele>64.4</ele>
      </trkpt>
      <trkpt lat="47.73228" lon="-1.89564">
        <ele>64.1</ele>
      </trkpt>
      <trkpt lat="47.73228" lon="-1.89561">
        <ele>64.1</ele>
      </trkpt>
      <trkpt lat="47.73228" lon="-1.89558">
        <ele>64</ele>
      </trkpt>
      <trkpt lat="47.73227" lon="-1.89555">
        <ele>63.9</ele>
      </trkpt>
      <trkpt lat="47.73227" lon="-1.89552">
        <ele>63.9</ele>
      </trkpt>
      <trkpt lat="47.73229" lon="-1.89551">
        <ele>64.1</ele>
      </trkpt>
      <trkpt lat="47.73232" lon="-1.89551">
        <ele>64.4</ele>
      </trkpt>
      <trkpt lat="47.73233" lon="-1.89552">
        <ele>64.6</ele>
      </trkpt>
      <trkpt lat="47.73236" lon="-1.89553">
        <ele>65</ele>
      </trkpt>
      <trkpt lat="47.73239" lon="-1.89553">
        <ele>65.3</ele>
      </trkpt>
      <trkpt lat="47.73242" lon="-1.89554">
        <ele>65.6</ele>
      </trkpt>
      <trkpt lat="47.73245" lon="-1.89555">
        <ele>66</ele>
      </trkpt>
      <trkpt lat="47.73248" lon="-1.89555">
        <ele>66.4</ele>
      </trkpt>
      <trkpt lat="47.73249" lon="-1.89555">
        <ele>66.6</ele>
      </trkpt>
      <trkpt lat="47.73251" lon="-1.89556">
        <ele>66.8</ele>
      </trkpt>
      <trkpt lat="47.73254" lon="-1.89555">
        <ele>67.1</ele>
      </trkpt>
      <trkpt lat="47.73256" lon="-1.89555">
        <ele>67.3</ele>
      </trkpt>
      <trkpt lat="47.73259" lon="-1.89553">
        <ele>67.7</ele>
      </trkpt>
      <trkpt lat="47.73262" lon="-1.89552">
        <ele>67.9</ele>
      </trkpt>
      <trkpt lat="47.73266" lon="-1.89553">
        <ele>68.3</ele>
      </trkpt>
      <trkpt lat="47.73269" lon="-1.89554">
        <ele>68.6</ele>
      </trkpt>
      <trkpt lat="47.73271" lon="-1.89555">
        <ele>69</ele>
      </trkpt>
      <trkpt lat="47.73273" lon="-1.89554">
        <ele>69.1</ele>
      </trkpt>
      <trkpt lat="47.73275" lon="-1.89553">
        <ele>69.4</ele>
      </trkpt>
      <trkpt lat="47.73279" lon="-1.89551">
        <ele>69.7</ele>
      </trkpt>
      <trkpt lat="47.73281" lon="-1.89549">
        <ele>70</ele>
      </trkpt>
      <trkpt lat="47.73284" lon="-1.89549">
        <ele>70.2</ele>
      </trkpt>
      <trkpt lat="47.73286" lon="-1.89549">
        <ele>70.5</ele>
      </trkpt>
      <trkpt lat="47.73289" lon="-1.89551">
        <ele>70.8</ele>
      </trkpt>
      <trkpt lat="47.73291" lon="-1.89554">
        <ele>71.1</ele>
      </trkpt>
      <trkpt lat="47.73293" lon="-1.89558">
        <ele>71.3</ele>
      </trkpt>
      <trkpt lat="47.73295" lon="-1.89561">
        <ele>71.5</ele>
      </trkpt>
      <trkpt lat="47.73296" lon="-1.89565">
        <ele>71.8</ele>
      </trkpt>
      <trkpt lat="47.73298" lon="-1.89566">
        <ele>72</ele>
      </trkpt>
      <trkpt lat="47.73301" lon="-1.89566">
        <ele>72.3</ele>
      </trkpt>
      <trkpt lat="47.73304" lon="-1.89565">
        <ele>72.6</ele>
      </trkpt>
      <trkpt lat="47.73306" lon="-1.89563">
        <ele>72.8</ele>
      </trkpt>
      <trkpt lat="47.73308" lon="-1.89563">
        <ele>73</ele>
      </trkpt>
      <trkpt lat="47.73311" lon="-1.89564">
        <ele>73.3</ele>
      </trkpt>
      <trkpt lat="47.73313" lon="-1.89568">
        <ele>73.6</ele>
      </trkpt>
      <trkpt lat="47.73315" lon="-1.89571">
        <ele>73.8</ele>
      </trkpt>
      <trkpt lat="47.73316" lon="-1.89575">
        <ele>74</ele>
      </trkpt>
      <trkpt lat="47.73317" lon="-1.89578">
        <ele>74.2</ele>
      </trkpt>
      <trkpt lat="47.73319" lon="-1.8958">
        <ele>74.5</ele>
      </trkpt>
      <trkpt lat="47.73321" lon="-1.89581">
        <ele>74.7</ele>
      </trkpt>
      <trkpt lat="47.73323" lon="-1.8958">
        <ele>74.9</ele>
      </trkpt>
      <trkpt lat="47.73325" lon="-1.89579">
        <ele>75.1</ele>
      </trkpt>
      <trkpt lat="47.73327" lon="-1.89578">
        <ele>75.3</ele>
      </trkpt>
      <trkpt lat="47.7333" lon="-1.89577">
        <ele>75.5</ele>
      </trkpt>
      <trkpt lat="47.73332" lon="-1.89576">
        <ele>75.7</ele>
      </trkpt>
      <trkpt lat="47.73334" lon="-1.89574">
        <ele>75.9</ele>
      </trkpt>
      <trkpt lat="47.73336" lon="-1.89573">
        <ele>76</ele>
      </trkpt>
      <trkpt lat="47.73339" lon="-1.89571">
        <ele>76.1</ele>
      </trkpt>
      <trkpt lat="47.73342" lon="-1.89569">
        <ele>76.2</ele>
      </trkpt>
      <trkpt lat="47.73345" lon="-1.89566">
        <ele>76.3</ele>
      </trkpt>
      <trkpt lat="47.73347" lon="-1.89563">
        <ele>76.4</ele>
      </trkpt>
      <trkpt lat="47.73349" lon="-1.89561">
        <ele>76.5</ele>
      </trkpt>
      <trkpt lat="47.73351" lon="-1.89559">
        <ele>76.5</ele>
      </trkpt>
      <trkpt lat="47.73354" lon="-1.89556">
        <ele>76.6</ele>
      </trkpt>
      <trkpt lat="47.73357" lon="-1.89554">
        <ele>76.8</ele>
      </trkpt>
      <trkpt lat="47.7336" lon="-1.89554">
        <ele>76.9</ele>
      </trkpt>
      <trkpt lat="47.73363" lon="-1.89555">
        <ele>77.1</ele>
      </trkpt>
      <trkpt lat="47.73365" lon="-1.89557">
        <ele>77.2</ele>
      </trkpt>
      <trkpt lat="47.73367" lon="-1.8956">
        <ele>77.3</ele>
      </trkpt>
      <trkpt lat="47.73369" lon="-1.89562">
        <ele>77.5</ele>
      </trkpt>
      <trkpt lat="47.73371" lon="-1.89562">
        <ele>77.6</ele>
      </trkpt>
      <trkpt lat="47.73373" lon="-1.8956">
        <ele>77.6</ele>
      </trkpt>
      <trkpt lat="47.73374" lon="-1.89557">
        <ele>77.6</ele>
      </trkpt>
      <trkpt lat="47.73374" lon="-1.89554">
        <ele>77.6</ele>
      </trkpt>
      <trkpt lat="47.73374" lon="-1.89551">
        <ele>77.6</ele>
      </trkpt>
      <trkpt lat="47.73373" lon="-1.89549">
        <ele>77.5</ele>
      </trkpt>
      <trkpt lat="47.73372" lon="-1.89546">
        <ele>77.4</ele>
      </trkpt>
      <trkpt lat="47.73372" lon="-1.89543">
        <ele>77.4</ele>
      </trkpt>
      <trkpt lat="47.73373" lon="-1.89539">
        <ele>77.4</ele>
      </trkpt>
      <trkpt lat="47.73375" lon="-1.89536">
        <ele>77.4</ele>
      </trkpt>
      <trkpt lat="47.73378" lon="-1.89533">
        <ele>77.5</ele>
      </trkpt>
      <trkpt lat="47.73382" lon="-1.8953">
        <ele>77.7</ele>
      </trkpt>
      <trkpt lat="47.73385" lon="-1.89528">
        <ele>77.8</ele>
      </trkpt>
      <trkpt lat="47.73389" lon="-1.89526">
        <ele>78</ele>
      </trkpt>
      <trkpt lat="47.73398" lon="-1.89521">
        <ele>78.3</ele>
      </trkpt>
      <trkpt lat="47.73398" lon="-1.89521">
        <ele>78.3</ele>
      </trkpt>
      <trkpt lat="47.734" lon="-1.89519">
        <ele>78.4</ele>
      </trkpt>
      <trkpt lat="47.73402" lon="-1.89517">
        <ele>78.5</ele>
      </trkpt>
      <trkpt lat="47.73405" lon="-1.89515">
        <ele>78.6</ele>
      </trkpt>
      <trkpt lat="47.73407" lon="-1.89512">
        <ele>78.7</ele>
      </trkpt>
      <trkpt lat="47.73408" lon="-1.89508">
        <ele>78.7</ele>
      </trkpt>
      <trkpt lat="47.73407" lon="-1.89504">
        <ele>78.6</ele>
      </trkpt>
      <trkpt lat="47.73405" lon="-1.89501">
        <ele>78.5</ele>
      </trkpt>
      <trkpt lat="47.73403" lon="-1.89498">
        <ele>78.3</ele>
      </trkpt>
      <trkpt lat="47.73403" lon="-1.89492">
        <ele>78.2</ele>
      </trkpt>
      <trkpt lat="47.73402" lon="-1.89488">
        <ele>78.1</ele>
      </trkpt>
      <trkpt lat="47.734" lon="-1.89486">
        <ele>78</ele>
      </trkpt>
      <trkpt lat="47.73398" lon="-1.89483">
        <ele>77.9</ele>
      </trkpt>
      <trkpt lat="47.73396" lon="-1.8948">
        <ele>77.7</ele>
      </trkpt>
      <trkpt lat="47.73395" lon="-1.89473">
        <ele>77.5</ele>
      </trkpt>
      <trkpt lat="47.73393" lon="-1.89468">
        <ele>77.4</ele>
      </trkpt>
      <trkpt lat="47.73391" lon="-1.89465">
        <ele>77.2</ele>
      </trkpt>
      <trkpt lat="47.73389" lon="-1.8946">
        <ele>77</ele>
      </trkpt>
      <trkpt lat="47.73385" lon="-1.89456">
        <ele>76.8</ele>
      </trkpt>
      <trkpt lat="47.73381" lon="-1.89454">
        <ele>76.5</ele>
      </trkpt>
      <trkpt lat="47.73378" lon="-1.89455">
        <ele>76.4</ele>
      </trkpt>
      <trkpt lat="47.73375" lon="-1.89458">
        <ele>76.2</ele>
      </trkpt>
      <trkpt lat="47.73372" lon="-1.89461">
        <ele>76.1</ele>
      </trkpt>
      <trkpt lat="47.73368" lon="-1.89464">
        <ele>76</ele>
      </trkpt>
      <trkpt lat="47.73361" lon="-1.89467">
        <ele>75.7</ele>
      </trkpt>
      <trkpt lat="47.73356" lon="-1.89468">
        <ele>75.4</ele>
      </trkpt>
      <trkpt lat="47.73352" lon="-1.89468">
        <ele>75.2</ele>
      </trkpt>
      <trkpt lat="47.73348" lon="-1.89465">
        <ele>74.9</ele>
      </trkpt>
      <trkpt lat="47.73343" lon="-1.89464">
        <ele>74.6</ele>
      </trkpt>
      <trkpt lat="47.73339" lon="-1.89464">
        <ele>74.5</ele>
      </trkpt>
      <trkpt lat="47.73337" lon="-1.89464">
        <ele>74.3</ele>
      </trkpt>
      <trkpt lat="47.73335" lon="-1.89465">
        <ele>74.3</ele>
      </trkpt>
      <trkpt lat="47.73333" lon="-1.89465">
        <ele>74.2</ele>
      </trkpt>
      <trkpt lat="47.7333" lon="-1.89463">
        <ele>73.8</ele>
      </trkpt>
      <trkpt lat="47.73327" lon="-1.89459">
        <ele>73.4</ele>
      </trkpt>
      <trkpt lat="47.73325" lon="-1.89456">
        <ele>73.2</ele>
      </trkpt>
      <trkpt lat="47.73325" lon="-1.89451">
        <ele>73</ele>
      </trkpt>
      <trkpt lat="47.73324" lon="-1.89448">
        <ele>72.9</ele>
      </trkpt>
      <trkpt lat="47.73321" lon="-1.89444">
        <ele>72.5</ele>
      </trkpt>
      <trkpt lat="47.73317" lon="-1.89442">
        <ele>72.2</ele>
      </trkpt>
      <trkpt lat="47.73314" lon="-1.89441">
        <ele>71.8</ele>
      </trkpt>
      <trkpt lat="47.73311" lon="-1.89438">
        <ele>71.5</ele>
      </trkpt>
      <trkpt lat="47.73309" lon="-1.89436">
        <ele>71.3</ele>
      </trkpt>
      <trkpt lat="47.73306" lon="-1.89434">
        <ele>71</ele>
      </trkpt>
      <trkpt lat="47.733" lon="-1.89433">
        <ele>70.4</ele>
      </trkpt>
      <trkpt lat="47.73295" lon="-1.89435">
        <ele>70</ele>
      </trkpt>
      <trkpt lat="47.73294" lon="-1.8944">
        <ele>70</ele>
      </trkpt>
      <trkpt lat="47.73293" lon="-1.89443">
        <ele>70</ele>
      </trkpt>
      <trkpt lat="47.73292" lon="-1.89446">
        <ele>69.9</ele>
      </trkpt>
      <trkpt lat="47.73288" lon="-1.89448">
        <ele>69.6</ele>
      </trkpt>
      <trkpt lat="47.73285" lon="-1.89448">
        <ele>69.3</ele>
      </trkpt>
      <trkpt lat="47.73281" lon="-1.89448">
        <ele>68.9</ele>
      </trkpt>
      <trkpt lat="47.73278" lon="-1.89447">
        <ele>68.6</ele>
      </trkpt>
      <trkpt lat="47.73273" lon="-1.89445">
        <ele>68.1</ele>
      </trkpt>
      <trkpt lat="47.73269" lon="-1.89443">
        <ele>67.7</ele>
      </trkpt>
      <trkpt lat="47.73264" lon="-1.89444">
        <ele>67.2</ele>
      </trkpt>
      <trkpt lat="47.73258" lon="-1.89445">
        <ele>66.7</ele>
      </trkpt>
      <trkpt lat="47.73248" lon="-1.89444">
        <ele>65.8</ele>
      </trkpt>
      <trkpt lat="47.73244" lon="-1.89442">
        <ele>65.3</ele>
      </trkpt>
      <trkpt lat="47.73238" lon="-1.89441">
        <ele>64.6</ele>
      </trkpt>
      <trkpt lat="47.73234" lon="-1.89441">
        <ele>64.1</ele>
      </trkpt>
      <trkpt lat="47.73231" lon="-1.89439">
        <ele>63.8</ele>
      </trkpt>
      <trkpt lat="47.7323" lon="-1.89435">
        <ele>63.6</ele>
      </trkpt>
      <trkpt lat="47.73231" lon="-1.89431">
        <ele>63.7</ele>
      </trkpt>
      <trkpt lat="47.73233" lon="-1.89427">
        <ele>63.9</ele>
      </trkpt>
      <trkpt lat="47.73235" lon="-1.89424">
        <ele>64.2</ele>
      </trkpt>
      <trkpt lat="47.73235" lon="-1.89418">
        <ele>64.2</ele>
      </trkpt>
      <trkpt lat="47.73236" lon="-1.89413">
        <ele>64.4</ele>
      </trkpt>
      <trkpt lat="47.73239" lon="-1.89404">
        <ele>64.8</ele>
      </trkpt>
      <trkpt lat="47.73237" lon="-1.89401">
        <ele>64.7</ele>
      </trkpt>
      <trkpt lat="47.73236" lon="-1.89397">
        <ele>64.6</ele>
      </trkpt>
      <trkpt lat="47.73233" lon="-1.8939">
        <ele>64.3</ele>
      </trkpt>
      <trkpt lat="47.73233" lon="-1.8939">
        <ele>64.3</ele>
      </trkpt>
      <trkpt lat="47.73232" lon="-1.89386">
        <ele>64.3</ele>
      </trkpt>
      <trkpt lat="47.73233" lon="-1.89383">
        <ele>64.5</ele>
      </trkpt>
      <trkpt lat="47.73235" lon="-1.89381">
        <ele>64.7</ele>
      </trkpt>
      <trkpt lat="47.73238" lon="-1.89379">
        <ele>65.1</ele>
      </trkpt>
      <trkpt lat="47.73241" lon="-1.89378">
        <ele>65.4</ele>
      </trkpt>
      <trkpt lat="47.73244" lon="-1.89376">
        <ele>65.8</ele>
      </trkpt>
      <trkpt lat="47.73248" lon="-1.89374">
        <ele>66.3</ele>
      </trkpt>
      <trkpt lat="47.73251" lon="-1.89374">
        <ele>66.6</ele>
      </trkpt>
      <trkpt lat="47.73253" lon="-1.89376">
        <ele>66.7</ele>
      </trkpt>
      <trkpt lat="47.73257" lon="-1.8938">
        <ele>66.9</ele>
      </trkpt>
      <trkpt lat="47.73259" lon="-1.89383">
        <ele>67.1</ele>
      </trkpt>
      <trkpt lat="47.73261" lon="-1.89385">
        <ele>67.2</ele>
      </trkpt>
      <trkpt lat="47.73263" lon="-1.89386">
        <ele>67.4</ele>
      </trkpt>
      <trkpt lat="47.73265" lon="-1.89388">
        <ele>67.5</ele>
      </trkpt>
      <trkpt lat="47.73269" lon="-1.89391">
        <ele>67.8</ele>
      </trkpt>
      <trkpt lat="47.73272" lon="-1.89394">
        <ele>68</ele>
      </trkpt>
      <trkpt lat="47.73274" lon="-1.89398">
        <ele>68.1</ele>
      </trkpt>
      <trkpt lat="47.73276" lon="-1.89401">
        <ele>68.3</ele>
      </trkpt>
      <trkpt lat="47.73278" lon="-1.89401">
        <ele>68.4</ele>
      </trkpt>
      <trkpt lat="47.7328" lon="-1.89399">
        <ele>68.6</ele>
      </trkpt>
      <trkpt lat="47.73282" lon="-1.89397">
        <ele>68.7</ele>
      </trkpt>
      <trkpt lat="47.73284" lon="-1.89395">
        <ele>68.9</ele>
      </trkpt>
      <trkpt lat="47.73287" lon="-1.89396">
        <ele>69.1</ele>
      </trkpt>
      <trkpt lat="47.73288" lon="-1.89397">
        <ele>69.2</ele>
      </trkpt>
      <trkpt lat="47.73289" lon="-1.894">
        <ele>69.3</ele>
      </trkpt>
      <trkpt lat="47.73292" lon="-1.89401">
        <ele>69.5</ele>
      </trkpt>
      <trkpt lat="47.73293" lon="-1.89401">
        <ele>69.6</ele>
      </trkpt>
      <trkpt lat="47.73294" lon="-1.89398">
        <ele>69.7</ele>
      </trkpt>
      <trkpt lat="47.73295" lon="-1.89395">
        <ele>69.8</ele>
      </trkpt>
      <trkpt lat="47.73296" lon="-1.89392">
        <ele>69.9</ele>
      </trkpt>
      <trkpt lat="47.73298" lon="-1.89388">
        <ele>70</ele>
      </trkpt>
      <trkpt lat="47.73301" lon="-1.89385">
        <ele>70.2</ele>
      </trkpt>
      <trkpt lat="47.73303" lon="-1.89384">
        <ele>70.3</ele>
      </trkpt>
      <trkpt lat="47.73305" lon="-1.89382">
        <ele>70.5</ele>
      </trkpt>
      <trkpt lat="47.73307" lon="-1.89381">
        <ele>70.6</ele>
      </trkpt>
      <trkpt lat="47.73308" lon="-1.89379">
        <ele>70.7</ele>
      </trkpt>
      <trkpt lat="47.73309" lon="-1.89378">
        <ele>70.7</ele>
      </trkpt>
      <trkpt lat="47.73309" lon="-1.89376">
        <ele>70.8</ele>
      </trkpt>
      <trkpt lat="47.7331" lon="-1.89374">
        <ele>70.8</ele>
      </trkpt>
      <trkpt lat="47.73311" lon="-1.89371">
        <ele>70.9</ele>
      </trkpt>
      <trkpt lat="47.73312" lon="-1.89367">
        <ele>70.9</ele>
      </trkpt>
      <trkpt lat="47.73314" lon="-1.89362">
        <ele>71</ele>
      </trkpt>
      <trkpt lat="47.73316" lon="-1.89359">
        <ele>71.1</ele>
      </trkpt>
      <trkpt lat="47.73319" lon="-1.89358">
        <ele>71.3</ele>
      </trkpt>
      <trkpt lat="47.73321" lon="-1.89357">
        <ele>71.5</ele>
      </trkpt>
      <trkpt lat="47.73324" lon="-1.89357">
        <ele>71.6</ele>
      </trkpt>
      <trkpt lat="47.73326" lon="-1.89358">
        <ele>71.8</ele>
      </trkpt>
      <trkpt lat="47.73329" lon="-1.89361">
        <ele>72</ele>
      </trkpt>
      <trkpt lat="47.73331" lon="-1.89367">
        <ele>72.3</ele>
      </trkpt>
      <trkpt lat="47.73331" lon="-1.89367">
        <ele>72.3</ele>
      </trkpt>
      <trkpt lat="47.73332" lon="-1.89371">
        <ele>72.4</ele>
      </trkpt>
      <trkpt lat="47.73334" lon="-1.89375">
        <ele>72.5</ele>
      </trkpt>
      <trkpt lat="47.73336" lon="-1.89378">
        <ele>72.7</ele>
      </trkpt>
      <trkpt lat="47.73339" lon="-1.89383">
        <ele>72.9</ele>
      </trkpt>
      <trkpt lat="47.73341" lon="-1.89387">
        <ele>73</ele>
      </trkpt>
      <trkpt lat="47.73342" lon="-1.89392">
        <ele>73.2</ele>
      </trkpt>
      <trkpt lat="47.73343" lon="-1.89396">
        <ele>73.3</ele>
      </trkpt>
      <trkpt lat="47.73347" lon="-1.89399">
        <ele>73.6</ele>
      </trkpt>
      <trkpt lat="47.73349" lon="-1.89401">
        <ele>73.7</ele>
      </trkpt>
      <trkpt lat="47.73351" lon="-1.89401">
        <ele>73.9</ele>
      </trkpt>
      <trkpt lat="47.73354" lon="-1.89399">
        <ele>74</ele>
      </trkpt>
      <trkpt lat="47.73357" lon="-1.89395">
        <ele>74.1</ele>
      </trkpt>
      <trkpt lat="47.7336" lon="-1.89392">
        <ele>74.2</ele>
      </trkpt>
      <trkpt lat="47.73361" lon="-1.89389">
        <ele>74.2</ele>
      </trkpt>
      <trkpt lat="47.73363" lon="-1.89385">
        <ele>74.2</ele>
      </trkpt>
      <trkpt lat="47.73364" lon="-1.89381">
        <ele>74.2</ele>
      </trkpt>
      <trkpt lat="47.73364" lon="-1.89378">
        <ele>74.2</ele>
      </trkpt>
      <trkpt lat="47.73365" lon="-1.89373">
        <ele>74.2</ele>
      </trkpt>
      <trkpt lat="47.73368" lon="-1.8937">
        <ele>74.3</ele>
      </trkpt>
      <trkpt lat="47.7337" lon="-1.89369">
        <ele>74.4</ele>
      </trkpt>
      <trkpt lat="47.73373" lon="-1.89369">
        <ele>74.5</ele>
      </trkpt>
      <trkpt lat="47.73375" lon="-1.89369">
        <ele>74.6</ele>
      </trkpt>
      <trkpt lat="47.73378" lon="-1.89369">
        <ele>74.8</ele>
      </trkpt>
      <trkpt lat="47.73381" lon="-1.89369">
        <ele>75</ele>
      </trkpt>
      <trkpt lat="47.73384" lon="-1.8937">
        <ele>75.1</ele>
      </trkpt>
      <trkpt lat="47.73387" lon="-1.89371">
        <ele>75.3</ele>
      </trkpt>
      <trkpt lat="47.7339" lon="-1.89375">
        <ele>75.5</ele>
      </trkpt>
      <trkpt lat="47.73392" lon="-1.89379">
        <ele>75.7</ele>
      </trkpt>
      <trkpt lat="47.73394" lon="-1.89383">
        <ele>75.9</ele>
      </trkpt>
      <trkpt lat="47.73396" lon="-1.89387">
        <ele>76.1</ele>
      </trkpt>
      <trkpt lat="47.73398" lon="-1.8939">
        <ele>76.3</ele>
      </trkpt>
      <trkpt lat="47.73401" lon="-1.89392">
        <ele>76.5</ele>
      </trkpt>
      <trkpt lat="47.73402" lon="-1.8939">
        <ele>76.6</ele>
      </trkpt>
      <trkpt lat="47.73405" lon="-1.89387">
        <ele>76.6</ele>
      </trkpt>
      <trkpt lat="47.73407" lon="-1.89383">
        <ele>76.7</ele>
      </trkpt>
      <trkpt lat="47.7341" lon="-1.89379">
        <ele>76.7</ele>
      </trkpt>
      <trkpt lat="47.73412" lon="-1.89376">
        <ele>76.8</ele>
      </trkpt>
      <trkpt lat="47.73414" lon="-1.89372">
        <ele>76.8</ele>
      </trkpt>
      <trkpt lat="47.73416" lon="-1.8937">
        <ele>76.8</ele>
      </trkpt>
      <trkpt lat="47.73417" lon="-1.89367">
        <ele>76.8</ele>
      </trkpt>
      <trkpt lat="47.73417" lon="-1.89365">
        <ele>76.8</ele>
      </trkpt>
      <trkpt lat="47.73419" lon="-1.89364">
        <ele>76.8</ele>
      </trkpt>
      <trkpt lat="47.73419" lon="-1.89364">
        <ele>76.8</ele>
      </trkpt>
      <trkpt lat="47.73421" lon="-1.89362">
        <ele>76.8</ele>
      </trkpt>
      <trkpt lat="47.73422" lon="-1.89361">
        <ele>76.8</ele>
      </trkpt>
      <trkpt lat="47.73423" lon="-1.89359">
        <ele>76.8</ele>
      </trkpt>
      <trkpt lat="47.73424" lon="-1.89357">
        <ele>76.8</ele>
      </trkpt>
      <trkpt lat="47.73425" lon="-1.89355">
        <ele>76.8</ele>
      </trkpt>
      <trkpt lat="47.73426" lon="-1.89353">
        <ele>76.8</ele>
      </trkpt>
      <trkpt lat="47.73427" lon="-1.89352">
        <ele>76.8</ele>
      </trkpt>
      <trkpt lat="47.73429" lon="-1.89351">
        <ele>76.8</ele>
      </trkpt>
      <trkpt lat="47.73431" lon="-1.89348">
        <ele>76.8</ele>
      </trkpt>
      <trkpt lat="47.73433" lon="-1.89344">
        <ele>76.8</ele>
      </trkpt>
      <trkpt lat="47.73434" lon="-1.89341">
        <ele>76.8</ele>
      </trkpt>
      <trkpt lat="47.73436" lon="-1.89339">
        <ele>76.8</ele>
      </trkpt>
      <trkpt lat="47.73438" lon="-1.89336">
        <ele>76.8</ele>
      </trkpt>
      <trkpt lat="47.73439" lon="-1.89332">
        <ele>76.8</ele>
      </trkpt>
      <trkpt lat="47.7344" lon="-1.89327">
        <ele>76.7</ele>
      </trkpt>
      <trkpt lat="47.73439" lon="-1.89325">
        <ele>76.6</ele>
      </trkpt>
      <trkpt lat="47.73438" lon="-1.89323">
        <ele>76.5</ele>
      </trkpt>
      <trkpt lat="47.73437" lon="-1.8932">
        <ele>76.4</ele>
      </trkpt>
      <trkpt lat="47.73436" lon="-1.89319">
        <ele>76.4</ele>
      </trkpt>
      <trkpt lat="47.73433" lon="-1.89318">
        <ele>76.2</ele>
      </trkpt>
      <trkpt lat="47.7343" lon="-1.89319">
        <ele>76.1</ele>
      </trkpt>
      <trkpt lat="47.73427" lon="-1.89319">
        <ele>76</ele>
      </trkpt>
      <trkpt lat="47.73423" lon="-1.89319">
        <ele>75.9</ele>
      </trkpt>
      <trkpt lat="47.73415" lon="-1.8932">
        <ele>75.6</ele>
      </trkpt>
      <trkpt lat="47.73415" lon="-1.8932">
        <ele>75.6</ele>
      </trkpt>
      <trkpt lat="47.73413" lon="-1.89322">
        <ele>75.5</ele>
      </trkpt>
      <trkpt lat="47.73411" lon="-1.89324">
        <ele>75.5</ele>
      </trkpt>
      <trkpt lat="47.73409" lon="-1.89325">
        <ele>75.4</ele>
      </trkpt>
      <trkpt lat="47.73406" lon="-1.89323">
        <ele>75.3</ele>
      </trkpt>
      <trkpt lat="47.73403" lon="-1.89322">
        <ele>75.1</ele>
      </trkpt>
      <trkpt lat="47.73398" lon="-1.89324">
        <ele>74.9</ele>
      </trkpt>
      <trkpt lat="47.73396" lon="-1.89325">
        <ele>74.8</ele>
      </trkpt>
      <trkpt lat="47.73393" lon="-1.89325">
        <ele>74.7</ele>
      </trkpt>
      <trkpt lat="47.73389" lon="-1.89324">
        <ele>74.5</ele>
      </trkpt>
      <trkpt lat="47.73386" lon="-1.89321">
        <ele>74.2</ele>
      </trkpt>
      <trkpt lat="47.73383" lon="-1.89318">
        <ele>74</ele>
      </trkpt>
      <trkpt lat="47.7338" lon="-1.89318">
        <ele>73.8</ele>
      </trkpt>
      <trkpt lat="47.73375" lon="-1.89319">
        <ele>73.7</ele>
      </trkpt>
      <trkpt lat="47.73371" lon="-1.89322">
        <ele>73.5</ele>
      </trkpt>
      <trkpt lat="47.73367" lon="-1.89326">
        <ele>73.4</ele>
      </trkpt>
      <trkpt lat="47.73364" lon="-1.89328">
        <ele>73.4</ele>
      </trkpt>
      <trkpt lat="47.73363" lon="-1.89329">
        <ele>73.3</ele>
      </trkpt>
      <trkpt lat="47.73361" lon="-1.89329">
        <ele>73.2</ele>
      </trkpt>
      <trkpt lat="47.73359" lon="-1.89328">
        <ele>73.1</ele>
      </trkpt>
      <trkpt lat="47.73356" lon="-1.89325">
        <ele>72.9</ele>
      </trkpt>
      <trkpt lat="47.73354" lon="-1.89321">
        <ele>72.7</ele>
      </trkpt>
      <trkpt lat="47.73351" lon="-1.89316">
        <ele>72.4</ele>
      </trkpt>
      <trkpt lat="47.73348" lon="-1.89312">
        <ele>72.2</ele>
      </trkpt>
      <trkpt lat="47.73345" lon="-1.89308">
        <ele>72</ele>
      </trkpt>
      <trkpt lat="47.73342" lon="-1.89304">
        <ele>71.7</ele>
      </trkpt>
      <trkpt lat="47.73339" lon="-1.89293">
        <ele>71.3</ele>
      </trkpt>
      <trkpt lat="47.73338" lon="-1.89287">
        <ele>71.1</ele>
      </trkpt>
      <trkpt lat="47.73335" lon="-1.89283">
        <ele>70.9</ele>
      </trkpt>
      <trkpt lat="47.73325" lon="-1.89282">
        <ele>70.4</ele>
      </trkpt>
      <trkpt lat="47.73321" lon="-1.89279">
        <ele>70.2</ele>
      </trkpt>
      <trkpt lat="47.73316" lon="-1.89277">
        <ele>69.9</ele>
      </trkpt>
      <trkpt lat="47.73314" lon="-1.89275">
        <ele>69.8</ele>
      </trkpt>
      <trkpt lat="47.7331" lon="-1.8927">
        <ele>69.5</ele>
      </trkpt>
      <trkpt lat="47.73311" lon="-1.89266">
        <ele>69.5</ele>
      </trkpt>
      <trkpt lat="47.73311" lon="-1.89263">
        <ele>69.4</ele>
      </trkpt>
      <trkpt lat="47.7331" lon="-1.89259">
        <ele>69.3</ele>
      </trkpt>
      <trkpt lat="47.73308" lon="-1.89255">
        <ele>69.2</ele>
      </trkpt>
      <trkpt lat="47.73304" lon="-1.8925">
        <ele>68.9</ele>
      </trkpt>
      <trkpt lat="47.73302" lon="-1.89248">
        <ele>68.8</ele>
      </trkpt>
      <trkpt lat="47.73297" lon="-1.89247">
        <ele>68.6</ele>
      </trkpt>
      <trkpt lat="47.73293" lon="-1.89246">
        <ele>68.4</ele>
      </trkpt>
      <trkpt lat="47.7329" lon="-1.89243">
        <ele>68.2</ele>
      </trkpt>
      <trkpt lat="47.73288" lon="-1.89238">
        <ele>68</ele>
      </trkpt>
      <trkpt lat="47.73286" lon="-1.89234">
        <ele>67.8</ele>
      </trkpt>
      <trkpt lat="47.73285" lon="-1.89231">
        <ele>67.7</ele>
      </trkpt>
      <trkpt lat="47.73282" lon="-1.8923">
        <ele>67.5</ele>
      </trkpt>
      <trkpt lat="47.73278" lon="-1.89231">
        <ele>67.4</ele>
      </trkpt>
      <trkpt lat="47.73273" lon="-1.89232">
        <ele>67.2</ele>
      </trkpt>
      <trkpt lat="47.73269" lon="-1.89233">
        <ele>67.1</ele>
      </trkpt>
      <trkpt lat="47.73266" lon="-1.89233">
        <ele>67</ele>
      </trkpt>
      <trkpt lat="47.73261" lon="-1.89233">
        <ele>66.8</ele>
      </trkpt>
      <trkpt lat="47.73257" lon="-1.89231">
        <ele>66.6</ele>
      </trkpt>
      <trkpt lat="47.73252" lon="-1.89226">
        <ele>66.2</ele>
      </trkpt>
      <trkpt lat="47.73249" lon="-1.89221">
        <ele>65.9</ele>
      </trkpt>
      <trkpt lat="47.73247" lon="-1.89216">
        <ele>65.6</ele>
      </trkpt>
      <trkpt lat="47.73246" lon="-1.89209">
        <ele>65.4</ele>
      </trkpt>
      <trkpt lat="47.73245" lon="-1.89203">
        <ele>65.2</ele>
      </trkpt>
      <trkpt lat="47.73243" lon="-1.89197">
        <ele>64.9</ele>
      </trkpt>
      <trkpt lat="47.73241" lon="-1.89193">
        <ele>64.7</ele>
      </trkpt>
      <trkpt lat="47.73244" lon="-1.89189">
        <ele>64.6</ele>
      </trkpt>
      <trkpt lat="47.73246" lon="-1.89184">
        <ele>64.5</ele>
      </trkpt>
      <trkpt lat="47.73247" lon="-1.89179">
        <ele>64.4</ele>
      </trkpt>
      <trkpt lat="47.73248" lon="-1.89174">
        <ele>64.2</ele>
      </trkpt>
      <trkpt lat="47.73249" lon="-1.89169">
        <ele>64.1</ele>
      </trkpt>
      <trkpt lat="47.7325" lon="-1.89166">
        <ele>64</ele>
      </trkpt>
      <trkpt lat="47.7325" lon="-1.89161">
        <ele>64</ele>
      </trkpt>
      <trkpt lat="47.73251" lon="-1.89155">
        <ele>63.9</ele>
      </trkpt>
      <trkpt lat="47.73252" lon="-1.8915">
        <ele>63.9</ele>
      </trkpt>
      <trkpt lat="47.73253" lon="-1.89142">
        <ele>63.9</ele>
      </trkpt>
      <trkpt lat="47.73254" lon="-1.89137">
        <ele>63.8</ele>
      </trkpt>
      <trkpt lat="47.73254" lon="-1.89131">
        <ele>63.8</ele>
      </trkpt>
      <trkpt lat="47.73255" lon="-1.89123">
        <ele>63.7</ele>
      </trkpt>
      <trkpt lat="47.73256" lon="-1.89117">
        <ele>63.7</ele>
      </trkpt>
      <trkpt lat="47.73256" lon="-1.8911">
        <ele>63.6</ele>
      </trkpt>
      <trkpt lat="47.73257" lon="-1.89105">
        <ele>63.6</ele>
      </trkpt>
      <trkpt lat="47.73257" lon="-1.89099">
        <ele>63.5</ele>
      </trkpt>
      <trkpt lat="47.73257" lon="-1.89093">
        <ele>63.5</ele>
      </trkpt>
      <trkpt lat="47.73257" lon="-1.8909">
        <ele>63.4</ele>
      </trkpt>
      <trkpt lat="47.73257" lon="-1.8909">
        <ele>63.4</ele>
      </trkpt>
      <trkpt lat="47.73257" lon="-1.8909">
        <ele>63.4</ele>
      </trkpt>
      <trkpt lat="47.73257" lon="-1.8909">
        <ele>63.4</ele>
      </trkpt>
      <trkpt lat="47.73257" lon="-1.8909">
        <ele>63.4</ele>
      </trkpt>
      <trkpt lat="47.73257" lon="-1.8909">
        <ele>63.4</ele>
      </trkpt>
      <trkpt lat="47.73257" lon="-1.8909">
        <ele>63.4</ele>
      </trkpt>
      <trkpt lat="47.73257" lon="-1.8909">
        <ele>63.4</ele>
      </trkpt>
      <trkpt lat="47.73257" lon="-1.8909">
        <ele>63.4</ele>
      </trkpt>
      <trkpt lat="47.73257" lon="-1.8909">
        <ele>63.4</ele>
      </trkpt>
      <trkpt lat="47.73257" lon="-1.8909">
        <ele>63.4</ele>
      </trkpt>
      <trkpt lat="47.73257" lon="-1.8909">
        <ele>63.4</ele>
      </trkpt>
      <trkpt lat="47.73257" lon="-1.8909">
        <ele>63.4</ele>
      </trkpt>
      <trkpt lat="47.73257" lon="-1.8909">
        <ele>63.4</ele>
      </trkpt>
      <trkpt lat="47.73257" lon="-1.8909">
        <ele>63.4</ele>
      </trkpt>
      <trkpt lat="47.73257" lon="-1.8909">
        <ele>63.4</ele>
      </trkpt>
      <trkpt lat="47.73257" lon="-1.8909">
        <ele>63.4</ele>
      </trkpt>
      <trkpt lat="47.73257" lon="-1.8909">
        <ele>63.4</ele>
      </trkpt>
      <trkpt lat="47.73257" lon="-1.8909">
        <ele>63.4</ele>
      </trkpt>
      <trkpt lat="47.73257" lon="-1.8909">
        <ele>63.4</ele>
      </trkpt>
      <trkpt lat="47.73255" lon="-1.89087">
        <ele>63.3</ele>
      </trkpt>
      <trkpt lat="47.73254" lon="-1.89085">
        <ele>63.2</ele>
      </trkpt>
      <trkpt lat="47.73253" lon="-1.89082">
        <ele>63.1</ele>
      </trkpt>
      <trkpt lat="47.73252" lon="-1.89081">
        <ele>63.1</ele>
      </trkpt>
      <trkpt lat="47.73249" lon="-1.8908">
        <ele>62.9</ele>
      </trkpt>
      <trkpt lat="47.73247" lon="-1.89077">
        <ele>62.9</ele>
      </trkpt>
      <trkpt lat="47.73243" lon="-1.89074">
        <ele>62.8</ele>
      </trkpt>
      <trkpt lat="47.73241" lon="-1.89072">
        <ele>62.7</ele>
      </trkpt>
      <trkpt lat="47.73238" lon="-1.8907">
        <ele>62.7</ele>
      </trkpt>
      <trkpt lat="47.73236" lon="-1.89068">
        <ele>62.6</ele>
      </trkpt>
      <trkpt lat="47.73235" lon="-1.89064">
        <ele>62.6</ele>
      </trkpt>
      <trkpt lat="47.73236" lon="-1.89061">
        <ele>62.5</ele>
      </trkpt>
      <trkpt lat="47.73238" lon="-1.89058">
        <ele>62.5</ele>
      </trkpt>
      <trkpt lat="47.7324" lon="-1.89055">
        <ele>62.5</ele>
      </trkpt>
      <trkpt lat="47.73241" lon="-1.89052">
        <ele>62.5</ele>
      </trkpt>
      <trkpt lat="47.73243" lon="-1.89049">
        <ele>62.5</ele>
      </trkpt>
      <trkpt lat="47.73244" lon="-1.89045">
        <ele>62.4</ele>
      </trkpt>
      <trkpt lat="47.73245" lon="-1.89042">
        <ele>62.4</ele>
      </trkpt>
      <trkpt lat="47.73245" lon="-1.89037">
        <ele>62.3</ele>
      </trkpt>
      <trkpt lat="47.73244" lon="-1.89033">
        <ele>62.3</ele>
      </trkpt>
      <trkpt lat="47.73242" lon="-1.89028">
        <ele>62.2</ele>
      </trkpt>
      <trkpt lat="47.7324" lon="-1.89024">
        <ele>62.1</ele>
      </trkpt>
      <trkpt lat="47.73238" lon="-1.89019">
        <ele>62</ele>
      </trkpt>
      <trkpt lat="47.73235" lon="-1.89016">
        <ele>61.9</ele>
      </trkpt>
      <trkpt lat="47.73232" lon="-1.89015">
        <ele>61.8</ele>
      </trkpt>
      <trkpt lat="47.73229" lon="-1.89015">
        <ele>61.7</ele>
      </trkpt>
      <trkpt lat="47.73224" lon="-1.89016">
        <ele>61.6</ele>
      </trkpt>
      <trkpt lat="47.73222" lon="-1.89015">
        <ele>61.6</ele>
      </trkpt>
      <trkpt lat="47.73218" lon="-1.89014">
        <ele>61.5</ele>
      </trkpt>
      <trkpt lat="47.73218" lon="-1.89012">
        <ele>61.4</ele>
      </trkpt>
      <trkpt lat="47.73219" lon="-1.8901">
        <ele>61.4</ele>
      </trkpt>
      <trkpt lat="47.73221" lon="-1.89005">
        <ele>61.4</ele>
      </trkpt>
      <trkpt lat="47.73222" lon="-1.89">
        <ele>61.3</ele>
      </trkpt>
      <trkpt lat="47.73225" lon="-1.88995">
        <ele>61.3</ele>
      </trkpt>
      <trkpt lat="47.73227" lon="-1.8899">
        <ele>61.2</ele>
      </trkpt>
      <trkpt lat="47.73229" lon="-1.88984">
        <ele>61.1</ele>
      </trkpt>
      <trkpt lat="47.73229" lon="-1.88977">
        <ele>60.9</ele>
      </trkpt>
      <trkpt lat="47.73229" lon="-1.88971">
        <ele>60.8</ele>
      </trkpt>
      <trkpt lat="47.7323" lon="-1.88968">
        <ele>60.8</ele>
      </trkpt>
      <trkpt lat="47.73232" lon="-1.88966">
        <ele>60.7</ele>
      </trkpt>
      <trkpt lat="47.73234" lon="-1.88964">
        <ele>60.8</ele>
      </trkpt>
      <trkpt lat="47.73237" lon="-1.88962">
        <ele>60.8</ele>
      </trkpt>
      <trkpt lat="47.73239" lon="-1.8896">
        <ele>60.8</ele>
      </trkpt>
      <trkpt lat="47.73241" lon="-1.88959">
        <ele>60.8</ele>
      </trkpt>
      <trkpt lat="47.73244" lon="-1.88957">
        <ele>60.8</ele>
      </trkpt>
      <trkpt lat="47.73246" lon="-1.88956">
        <ele>60.9</ele>
      </trkpt>
      <trkpt lat="47.73248" lon="-1.88958">
        <ele>60.9</ele>
      </trkpt>
      <trkpt lat="47.7325" lon="-1.88959">
        <ele>61</ele>
      </trkpt>
      <trkpt lat="47.73252" lon="-1.88957">
        <ele>61</ele>
      </trkpt>
      <trkpt lat="47.73254" lon="-1.88954">
        <ele>61.1</ele>
      </trkpt>
      <trkpt lat="47.73256" lon="-1.88951">
        <ele>61</ele>
      </trkpt>
      <trkpt lat="47.73255" lon="-1.88946">
        <ele>60.9</ele>
      </trkpt>
      <trkpt lat="47.73255" lon="-1.88939">
        <ele>60.7</ele>
      </trkpt>
      <trkpt lat="47.73256" lon="-1.88937">
        <ele>60.7</ele>
      </trkpt>
      <trkpt lat="47.73257" lon="-1.88935">
        <ele>60.7</ele>
      </trkpt>
      <trkpt lat="47.73258" lon="-1.88933">
        <ele>60.6</ele>
      </trkpt>
      <trkpt lat="47.73259" lon="-1.8893">
        <ele>60.6</ele>
      </trkpt>
      <trkpt lat="47.7326" lon="-1.88925">
        <ele>60.5</ele>
      </trkpt>
      <trkpt lat="47.7326" lon="-1.88921">
        <ele>60.4</ele>
      </trkpt>
      <trkpt lat="47.7326" lon="-1.88917">
        <ele>60.2</ele>
      </trkpt>
      <trkpt lat="47.7326" lon="-1.88913">
        <ele>60.1</ele>
      </trkpt>
      <trkpt lat="47.7326" lon="-1.88912">
        <ele>60</ele>
      </trkpt>
      <trkpt lat="47.7326" lon="-1.88909">
        <ele>59.9</ele>
      </trkpt>
      <trkpt lat="47.73259" lon="-1.88908">
        <ele>59.8</ele>
      </trkpt>
      <trkpt lat="47.73257" lon="-1.88908">
        <ele>59.8</ele>
      </trkpt>
      <trkpt lat="47.73255" lon="-1.88909">
        <ele>59.8</ele>
      </trkpt>
      <trkpt lat="47.73253" lon="-1.88911">
        <ele>59.8</ele>
      </trkpt>
      <trkpt lat="47.73251" lon="-1.88915">
        <ele>59.9</ele>
      </trkpt>
      <trkpt lat="47.7325" lon="-1.88918">
        <ele>60</ele>
      </trkpt>
      <trkpt lat="47.73249" lon="-1.88921">
        <ele>60.1</ele>
      </trkpt>
      <trkpt lat="47.73247" lon="-1.88924">
        <ele>60.1</ele>
      </trkpt>
      <trkpt lat="47.73246" lon="-1.88926">
        <ele>60.1</ele>
      </trkpt>
      <trkpt lat="47.73244" lon="-1.88928">
        <ele>60.1</ele>
      </trkpt>
      <trkpt lat="47.73242" lon="-1.88929">
        <ele>60.1</ele>
      </trkpt>
      <trkpt lat="47.7324" lon="-1.88929">
        <ele>60.1</ele>
      </trkpt>
      <trkpt lat="47.73237" lon="-1.88929">
        <ele>60</ele>
      </trkpt>
      <trkpt lat="47.73236" lon="-1.88927">
        <ele>59.9</ele>
      </trkpt>
      <trkpt lat="47.73236" lon="-1.88926">
        <ele>59.9</ele>
      </trkpt>
      <trkpt lat="47.73236" lon="-1.88925">
        <ele>59.9</ele>
      </trkpt>
      <trkpt lat="47.73235" lon="-1.88924">
        <ele>59.8</ele>
      </trkpt>
      <trkpt lat="47.73233" lon="-1.88921">
        <ele>59.7</ele>
      </trkpt>
      <trkpt lat="47.73233" lon="-1.88917">
        <ele>59.6</ele>
      </trkpt>
      <trkpt lat="47.73233" lon="-1.88913">
        <ele>59.4</ele>
      </trkpt>
      <trkpt lat="47.73233" lon="-1.88909">
        <ele>59.2</ele>
      </trkpt>
      <trkpt lat="47.73232" lon="-1.88904">
        <ele>59</ele>
      </trkpt>
      <trkpt lat="47.7323" lon="-1.88901">
        <ele>58.8</ele>
      </trkpt>
      <trkpt lat="47.73227" lon="-1.88899">
        <ele>58.6</ele>
      </trkpt>
      <trkpt lat="47.73222" lon="-1.88899">
        <ele>58.5</ele>
      </trkpt>
      <trkpt lat="47.73219" lon="-1.88901">
        <ele>58.5</ele>
      </trkpt>
      <trkpt lat="47.73215" lon="-1.88904">
        <ele>58.6</ele>
      </trkpt>
      <trkpt lat="47.73212" lon="-1.88906">
        <ele>58.6</ele>
      </trkpt>
      <trkpt lat="47.73209" lon="-1.88906">
        <ele>58.5</ele>
      </trkpt>
      <trkpt lat="47.73206" lon="-1.88905">
        <ele>58.4</ele>
      </trkpt>
      <trkpt lat="47.73203" lon="-1.88903">
        <ele>58.2</ele>
      </trkpt>
      <trkpt lat="47.732" lon="-1.889">
        <ele>58</ele>
      </trkpt>
      <trkpt lat="47.73198" lon="-1.88896">
        <ele>57.8</ele>
      </trkpt>
      <trkpt lat="47.73197" lon="-1.88892">
        <ele>57.6</ele>
      </trkpt>
      <trkpt lat="47.73194" lon="-1.88891">
        <ele>57.4</ele>
      </trkpt>
      <trkpt lat="47.73189" lon="-1.88891">
        <ele>57.3</ele>
      </trkpt>
      <trkpt lat="47.73186" lon="-1.88892">
        <ele>57.3</ele>
      </trkpt>
      <trkpt lat="47.73183" lon="-1.88893">
        <ele>57.3</ele>
      </trkpt>
      <trkpt lat="47.7318" lon="-1.88895">
        <ele>57.3</ele>
      </trkpt>
      <trkpt lat="47.73177" lon="-1.88899">
        <ele>57.4</ele>
      </trkpt>
      <trkpt lat="47.73175" lon="-1.88902">
        <ele>57.5</ele>
      </trkpt>
      <trkpt lat="47.73172" lon="-1.88905">
        <ele>57.6</ele>
      </trkpt>
      <trkpt lat="47.73168" lon="-1.88906">
        <ele>57.5</ele>
      </trkpt>
      <trkpt lat="47.73164" lon="-1.88905">
        <ele>57.3</ele>
      </trkpt>
      <trkpt lat="47.73162" lon="-1.88902">
        <ele>57</ele>
      </trkpt>
      <trkpt lat="47.73161" lon="-1.88898">
        <ele>56.7</ele>
      </trkpt>
      <trkpt lat="47.73161" lon="-1.88892">
        <ele>56.5</ele>
      </trkpt>
      <trkpt lat="47.73162" lon="-1.88888">
        <ele>56.4</ele>
      </trkpt>
      <trkpt lat="47.73163" lon="-1.88882">
        <ele>56.2</ele>
      </trkpt>
      <trkpt lat="47.73163" lon="-1.88878">
        <ele>56</ele>
      </trkpt>
      <trkpt lat="47.73162" lon="-1.88873">
        <ele>55.7</ele>
      </trkpt>
      <trkpt lat="47.7316" lon="-1.88869">
        <ele>55.4</ele>
      </trkpt>
      <trkpt lat="47.7316" lon="-1.88863">
        <ele>55.1</ele>
      </trkpt>
      <trkpt lat="47.73159" lon="-1.88859">
        <ele>55</ele>
      </trkpt>
      <trkpt lat="47.7316" lon="-1.88856">
        <ele>54.9</ele>
      </trkpt>
      <trkpt lat="47.7316" lon="-1.88856">
        <ele>54.8</ele>
      </trkpt>
      <trkpt lat="47.7316" lon="-1.88856">
        <ele>54.8</ele>
      </trkpt>
      <trkpt lat="47.7316" lon="-1.88856">
        <ele>54.8</ele>
      </trkpt>
      <trkpt lat="47.7316" lon="-1.88856">
        <ele>54.8</ele>
      </trkpt>
      <trkpt lat="47.7316" lon="-1.88856">
        <ele>54.8</ele>
      </trkpt>
      <trkpt lat="47.7316" lon="-1.88856">
        <ele>54.8</ele>
      </trkpt>
      <trkpt lat="47.7316" lon="-1.88856">
        <ele>54.8</ele>
      </trkpt>
      <trkpt lat="47.7316" lon="-1.88856">
        <ele>54.8</ele>
      </trkpt>
      <trkpt lat="47.7316" lon="-1.88856">
        <ele>54.8</ele>
      </trkpt>
      <trkpt lat="47.73161" lon="-1.88854">
        <ele>54.8</ele>
      </trkpt>
      <trkpt lat="47.73162" lon="-1.88852">
        <ele>54.7</ele>
      </trkpt>
      <trkpt lat="47.73163" lon="-1.88849">
        <ele>54.6</ele>
      </trkpt>
      <trkpt lat="47.73165" lon="-1.88847">
        <ele>54.6</ele>
      </trkpt>
      <trkpt lat="47.73167" lon="-1.88844">
        <ele>54.5</ele>
      </trkpt>
      <trkpt lat="47.73169" lon="-1.88842">
        <ele>54.5</ele>
      </trkpt>
      <trkpt lat="47.73171" lon="-1.88839">
        <ele>54.4</ele>
      </trkpt>
      <trkpt lat="47.73173" lon="-1.88837">
        <ele>54.3</ele>
      </trkpt>
      <trkpt lat="47.73175" lon="-1.88835">
        <ele>54.3</ele>
      </trkpt>
      <trkpt lat="47.73177" lon="-1.88834">
        <ele>54.3</ele>
      </trkpt>
      <trkpt lat="47.73179" lon="-1.88833">
        <ele>54.3</ele>
      </trkpt>
      <trkpt lat="47.73181" lon="-1.88831">
        <ele>54.4</ele>
      </trkpt>
      <trkpt lat="47.73183" lon="-1.8883">
        <ele>54.4</ele>
      </trkpt>
      <trkpt lat="47.73186" lon="-1.88829">
        <ele>54.5</ele>
      </trkpt>
      <trkpt lat="47.73187" lon="-1.88829">
        <ele>54.6</ele>
      </trkpt>
      <trkpt lat="47.73189" lon="-1.88829">
        <ele>54.6</ele>
      </trkpt>
      <trkpt lat="47.73192" lon="-1.88829">
        <ele>54.7</ele>
      </trkpt>
      <trkpt lat="47.73194" lon="-1.88828">
        <ele>54.7</ele>
      </trkpt>
      <trkpt lat="47.73196" lon="-1.88828">
        <ele>54.8</ele>
      </trkpt>
      <trkpt lat="47.73198" lon="-1.88827">
        <ele>54.8</ele>
      </trkpt>
      <trkpt lat="47.732" lon="-1.88826">
        <ele>54.9</ele>
      </trkpt>
      <trkpt lat="47.732" lon="-1.88826">
        <ele>54.9</ele>
      </trkpt>
      <trkpt lat="47.732" lon="-1.88826">
        <ele>54.9</ele>
      </trkpt>
      <trkpt lat="47.732" lon="-1.88826">
        <ele>54.9</ele>
      </trkpt>
      <trkpt lat="47.732" lon="-1.88826">
        <ele>54.9</ele>
      </trkpt>
      <trkpt lat="47.732" lon="-1.88826">
        <ele>54.9</ele>
      </trkpt>
      <trkpt lat="47.732" lon="-1.88826">
        <ele>54.9</ele>
      </trkpt>
      <trkpt lat="47.732" lon="-1.88826">
        <ele>54.9</ele>
      </trkpt>
      <trkpt lat="47.732" lon="-1.88826">
        <ele>54.9</ele>
      </trkpt>
      <trkpt lat="47.732" lon="-1.88826">
        <ele>54.9</ele>
      </trkpt>
      <trkpt lat="47.732" lon="-1.88826">
        <ele>54.9</ele>
      </trkpt>
      <trkpt lat="47.732" lon="-1.88826">
        <ele>54.9</ele>
      </trkpt>
      <trkpt lat="47.732" lon="-1.88826">
        <ele>54.9</ele>
      </trkpt>
      <trkpt lat="47.732" lon="-1.88826">
        <ele>54.9</ele>
      </trkpt>
      <trkpt lat="47.732" lon="-1.88826">
        <ele>54.9</ele>
      </trkpt>
      <trkpt lat="47.732" lon="-1.88826">
        <ele>54.9</ele>
      </trkpt>
      <trkpt lat="47.732" lon="-1.88826">
        <ele>54.9</ele>
      </trkpt>
      <trkpt lat="47.732" lon="-1.88826">
        <ele>54.9</ele>
      </trkpt>
      <trkpt lat="47.73199" lon="-1.88826">
        <ele>54.9</ele>
      </trkpt>
      <trkpt lat="47.73199" lon="-1.88826">
        <ele>54.9</ele>
      </trkpt>
      <trkpt lat="47.73199" lon="-1.88826">
        <ele>54.9</ele>
      </trkpt>
      <trkpt lat="47.73199" lon="-1.88826">
        <ele>54.9</ele>
      </trkpt>
      <trkpt lat="47.73199" lon="-1.88826">
        <ele>54.9</ele>
      </trkpt>
      <trkpt lat="47.73199" lon="-1.88826">
        <ele>54.9</ele>
      </trkpt>
      <trkpt lat="47.73199" lon="-1.88826">
        <ele>54.9</ele>
      </trkpt>
      <trkpt lat="47.73197" lon="-1.88826">
        <ele>54.8</ele>
      </trkpt>
      <trkpt lat="47.73193" lon="-1.88827">
        <ele>54.7</ele>
      </trkpt>
      <trkpt lat="47.7319" lon="-1.88828">
        <ele>54.6</ele>
      </trkpt>
      <trkpt lat="47.73188" lon="-1.88829">
        <ele>54.6</ele>
      </trkpt>
      <trkpt lat="47.73185" lon="-1.8883">
        <ele>54.5</ele>
      </trkpt>
      <trkpt lat="47.73182" lon="-1.88833">
        <ele>54.4</ele>
      </trkpt>
      <trkpt lat="47.73178" lon="-1.88836">
        <ele>54.4</ele>
      </trkpt>
      <trkpt lat="47.73176" lon="-1.88837">
        <ele>54.4</ele>
      </trkpt>
      <trkpt lat="47.73173" lon="-1.8884">
        <ele>54.5</ele>
      </trkpt>
      <trkpt lat="47.73171" lon="-1.88843">
        <ele>54.6</ele>
      </trkpt>
      <trkpt lat="47.73169" lon="-1.88847">
        <ele>54.7</ele>
      </trkpt>
      <trkpt lat="47.73167" lon="-1.88849">
        <ele>54.8</ele>
      </trkpt>
      <trkpt lat="47.73166" lon="-1.88852">
        <ele>54.8</ele>
      </trkpt>
      <trkpt lat="47.73166" lon="-1.88855">
        <ele>55</ele>
      </trkpt>
      <trkpt lat="47.73167" lon="-1.88856">
        <ele>55.1</ele>
      </trkpt>
      <trkpt lat="47.73168" lon="-1.88857">
        <ele>55.2</ele>
      </trkpt>
      <trkpt lat="47.73171" lon="-1.88858">
        <ele>55.3</ele>
      </trkpt>
      <trkpt lat="47.73174" lon="-1.88858">
        <ele>55.4</ele>
      </trkpt>
      <trkpt lat="47.73177" lon="-1.88859">
        <ele>55.5</ele>
      </trkpt>
      <trkpt lat="47.73179" lon="-1.8886">
        <ele>55.6</ele>
      </trkpt>
      <trkpt lat="47.73182" lon="-1.88861">
        <ele>55.7</ele>
      </trkpt>
      <trkpt lat="47.73185" lon="-1.88862">
        <ele>55.8</ele>
      </trkpt>
      <trkpt lat="47.73189" lon="-1.88863">
        <ele>56</ele>
      </trkpt>
      <trkpt lat="47.73192" lon="-1.88864">
        <ele>56.1</ele>
      </trkpt>
      <trkpt lat="47.73194" lon="-1.88865">
        <ele>56.2</ele>
      </trkpt>
      <trkpt lat="47.73197" lon="-1.88867">
        <ele>56.3</ele>
      </trkpt>
      <trkpt lat="47.732" lon="-1.88868">
        <ele>56.4</ele>
      </trkpt>
      <trkpt lat="47.73203" lon="-1.88868">
        <ele>56.5</ele>
      </trkpt>
      <trkpt lat="47.73206" lon="-1.88869">
        <ele>56.7</ele>
      </trkpt>
      <trkpt lat="47.73209" lon="-1.8887">
        <ele>56.8</ele>
      </trkpt>
      <trkpt lat="47.73212" lon="-1.88872">
        <ele>56.9</ele>
      </trkpt>
      <trkpt lat="47.73214" lon="-1.88873">
        <ele>57</ele>
      </trkpt>
      <trkpt lat="47.73218" lon="-1.88874">
        <ele>57.2</ele>
      </trkpt>
      <trkpt lat="47.73221" lon="-1.88875">
        <ele>57.3</ele>
      </trkpt>
      <trkpt lat="47.73224" lon="-1.88876">
        <ele>57.4</ele>
      </trkpt>
      <trkpt lat="47.73226" lon="-1.88876">
        <ele>57.5</ele>
      </trkpt>
      <trkpt lat="47.73229" lon="-1.88876">
        <ele>57.6</ele>
      </trkpt>
      <trkpt lat="47.73232" lon="-1.88877">
        <ele>57.7</ele>
      </trkpt>
      <trkpt lat="47.73235" lon="-1.88878">
        <ele>57.8</ele>
      </trkpt>
      <trkpt lat="47.73237" lon="-1.88879">
        <ele>57.9</ele>
      </trkpt>
      <trkpt lat="47.7324" lon="-1.88879">
        <ele>58</ele>
      </trkpt>
      <trkpt lat="47.73243" lon="-1.8888">
        <ele>58.1</ele>
      </trkpt>
      <trkpt lat="47.73246" lon="-1.88881">
        <ele>58.2</ele>
      </trkpt>
      <trkpt lat="47.73249" lon="-1.88881">
        <ele>58.3</ele>
      </trkpt>
      <trkpt lat="47.73252" lon="-1.88882">
        <ele>58.4</ele>
      </trkpt>
      <trkpt lat="47.73255" lon="-1.88882">
        <ele>58.5</ele>
      </trkpt>
      <trkpt lat="47.73258" lon="-1.88884">
        <ele>58.7</ele>
      </trkpt>
      <trkpt lat="47.7326" lon="-1.88885">
        <ele>58.9</ele>
      </trkpt>
      <trkpt lat="47.73263" lon="-1.88886">
        <ele>59</ele>
      </trkpt>
      <trkpt lat="47.73266" lon="-1.88887">
        <ele>59.1</ele>
      </trkpt>
      <trkpt lat="47.73268" lon="-1.88888">
        <ele>59.3</ele>
      </trkpt>
      <trkpt lat="47.73271" lon="-1.88888">
        <ele>59.4</ele>
      </trkpt>
      <trkpt lat="47.73274" lon="-1.88889">
        <ele>59.5</ele>
      </trkpt>
      <trkpt lat="47.73276" lon="-1.88889">
        <ele>59.6</ele>
      </trkpt>
      <trkpt lat="47.73279" lon="-1.8889">
        <ele>59.8</ele>
      </trkpt>
      <trkpt lat="47.73282" lon="-1.88892">
        <ele>59.9</ele>
      </trkpt>
      <trkpt lat="47.73285" lon="-1.88892">
        <ele>60.1</ele>
      </trkpt>
      <trkpt lat="47.73288" lon="-1.88893">
        <ele>60.2</ele>
      </trkpt>
      <trkpt lat="47.7329" lon="-1.88893">
        <ele>60.2</ele>
      </trkpt>
      <trkpt lat="47.73293" lon="-1.88892">
        <ele>60.3</ele>
      </trkpt>
      <trkpt lat="47.73296" lon="-1.88891">
        <ele>60.4</ele>
      </trkpt>
      <trkpt lat="47.73299" lon="-1.8889">
        <ele>60.5</ele>
      </trkpt>
      <trkpt lat="47.73302" lon="-1.88889">
        <ele>60.6</ele>
      </trkpt>
      <trkpt lat="47.73306" lon="-1.88887">
        <ele>60.6</ele>
      </trkpt>
      <trkpt lat="47.73309" lon="-1.88885">
        <ele>60.7</ele>
      </trkpt>
      <trkpt lat="47.73311" lon="-1.88884">
        <ele>60.7</ele>
      </trkpt>
      <trkpt lat="47.73313" lon="-1.88883">
        <ele>60.8</ele>
      </trkpt>
      <trkpt lat="47.73316" lon="-1.88881">
        <ele>60.9</ele>
      </trkpt>
      <trkpt lat="47.73319" lon="-1.88879">
        <ele>61</ele>
      </trkpt>
      <trkpt lat="47.73322" lon="-1.88878">
        <ele>61.1</ele>
      </trkpt>
      <trkpt lat="47.73325" lon="-1.88877">
        <ele>61.2</ele>
      </trkpt>
      <trkpt lat="47.73328" lon="-1.88875">
        <ele>61.3</ele>
      </trkpt>
      <trkpt lat="47.73331" lon="-1.88873">
        <ele>61.4</ele>
      </trkpt>
      <trkpt lat="47.73334" lon="-1.88872">
        <ele>61.5</ele>
      </trkpt>
      <trkpt lat="47.73337" lon="-1.8887">
        <ele>61.7</ele>
      </trkpt>
      <trkpt lat="47.73339" lon="-1.88868">
        <ele>61.8</ele>
      </trkpt>
      <trkpt lat="47.73342" lon="-1.88867">
        <ele>61.9</ele>
      </trkpt>
      <trkpt lat="47.73345" lon="-1.88866">
        <ele>62.1</ele>
      </trkpt>
      <trkpt lat="47.73348" lon="-1.88864">
        <ele>62.3</ele>
      </trkpt>
      <trkpt lat="47.73351" lon="-1.88863">
        <ele>62.5</ele>
      </trkpt>
      <trkpt lat="47.73354" lon="-1.88861">
        <ele>62.6</ele>
      </trkpt>
      <trkpt lat="47.73357" lon="-1.88859">
        <ele>62.8</ele>
      </trkpt>
      <trkpt lat="47.73359" lon="-1.88857">
        <ele>63</ele>
      </trkpt>
      <trkpt lat="47.73362" lon="-1.88856">
        <ele>63.1</ele>
      </trkpt>
      <trkpt lat="47.73364" lon="-1.88854">
        <ele>63.3</ele>
      </trkpt>
      <trkpt lat="47.73367" lon="-1.88852">
        <ele>63.5</ele>
      </trkpt>
      <trkpt lat="47.7337" lon="-1.88851">
        <ele>63.7</ele>
      </trkpt>
      <trkpt lat="47.73373" lon="-1.88849">
        <ele>63.8</ele>
      </trkpt>
      <trkpt lat="47.73375" lon="-1.88848">
        <ele>64</ele>
      </trkpt>
      <trkpt lat="47.73378" lon="-1.88846">
        <ele>64.2</ele>
      </trkpt>
      <trkpt lat="47.73381" lon="-1.88844">
        <ele>64.4</ele>
      </trkpt>
      <trkpt lat="47.73384" lon="-1.88842">
        <ele>64.6</ele>
      </trkpt>
      <trkpt lat="47.73387" lon="-1.88841">
        <ele>64.8</ele>
      </trkpt>
      <trkpt lat="47.7339" lon="-1.88839">
        <ele>65</ele>
      </trkpt>
      <trkpt lat="47.73392" lon="-1.88837">
        <ele>65.2</ele>
      </trkpt>
      <trkpt lat="47.73395" lon="-1.88836">
        <ele>65.4</ele>
      </trkpt>
      <trkpt lat="47.73397" lon="-1.88835">
        <ele>65.6</ele>
      </trkpt>
      <trkpt lat="47.734" lon="-1.88833">
        <ele>65.8</ele>
      </trkpt>
      <trkpt lat="47.73402" lon="-1.88832">
        <ele>66</ele>
      </trkpt>
      <trkpt lat="47.73405" lon="-1.8883">
        <ele>66.2</ele>
      </trkpt>
      <trkpt lat="47.73407" lon="-1.88829">
        <ele>66.4</ele>
      </trkpt>
      <trkpt lat="47.7341" lon="-1.88827">
        <ele>66.7</ele>
      </trkpt>
      <trkpt lat="47.73413" lon="-1.88826">
        <ele>66.9</ele>
      </trkpt>
      <trkpt lat="47.73416" lon="-1.88824">
        <ele>67.1</ele>
      </trkpt>
      <trkpt lat="47.73418" lon="-1.88823">
        <ele>67.4</ele>
      </trkpt>
      <trkpt lat="47.7342" lon="-1.88822">
        <ele>67.5</ele>
      </trkpt>
      <trkpt lat="47.73423" lon="-1.88821">
        <ele>67.7</ele>
      </trkpt>
      <trkpt lat="47.73425" lon="-1.88819">
        <ele>67.9</ele>
      </trkpt>
      <trkpt lat="47.73427" lon="-1.88818">
        <ele>68.1</ele>
      </trkpt>
      <trkpt lat="47.7343" lon="-1.88816">
        <ele>68.4</ele>
      </trkpt>
      <trkpt lat="47.73433" lon="-1.88815">
        <ele>68.6</ele>
      </trkpt>
      <trkpt lat="47.73435" lon="-1.88813">
        <ele>68.8</ele>
      </trkpt>
      <trkpt lat="47.73438" lon="-1.88812">
        <ele>69</ele>
      </trkpt>
      <trkpt lat="47.7344" lon="-1.88811">
        <ele>69.2</ele>
      </trkpt>
      <trkpt lat="47.73442" lon="-1.88809">
        <ele>69.4</ele>
      </trkpt>
      <trkpt lat="47.73445" lon="-1.88807">
        <ele>69.7</ele>
      </trkpt>
      <trkpt lat="47.73447" lon="-1.88806">
        <ele>69.9</ele>
      </trkpt>
      <trkpt lat="47.7345" lon="-1.88804">
        <ele>70.1</ele>
      </trkpt>
      <trkpt lat="47.73453" lon="-1.88803">
        <ele>70.3</ele>
      </trkpt>
      <trkpt lat="47.73455" lon="-1.88802">
        <ele>70.5</ele>
      </trkpt>
      <trkpt lat="47.73458" lon="-1.888">
        <ele>70.7</ele>
      </trkpt>
      <trkpt lat="47.7346" lon="-1.88799">
        <ele>71</ele>
      </trkpt>
      <trkpt lat="47.73463" lon="-1.88798">
        <ele>71.2</ele>
      </trkpt>
      <trkpt lat="47.73465" lon="-1.88797">
        <ele>71.4</ele>
      </trkpt>
      <trkpt lat="47.73467" lon="-1.88795">
        <ele>71.6</ele>
      </trkpt>
      <trkpt lat="47.7347" lon="-1.88793">
        <ele>71.8</ele>
      </trkpt>
      <trkpt lat="47.73472" lon="-1.88792">
        <ele>72</ele>
      </trkpt>
      <trkpt lat="47.73475" lon="-1.8879">
        <ele>72.2</ele>
      </trkpt>
      <trkpt lat="47.73478" lon="-1.88789">
        <ele>72.5</ele>
      </trkpt>
      <trkpt lat="47.7348" lon="-1.88788">
        <ele>72.7</ele>
      </trkpt>
      <trkpt lat="47.73483" lon="-1.88786">
        <ele>72.9</ele>
      </trkpt>
      <trkpt lat="47.73486" lon="-1.88784">
        <ele>73.2</ele>
      </trkpt>
      <trkpt lat="47.73489" lon="-1.88783">
        <ele>73.4</ele>
      </trkpt>
      <trkpt lat="47.73491" lon="-1.88782">
        <ele>73.6</ele>
      </trkpt>
      <trkpt lat="47.73494" lon="-1.8878">
        <ele>73.8</ele>
      </trkpt>
      <trkpt lat="47.73496" lon="-1.88778">
        <ele>74.1</ele>
      </trkpt>
      <trkpt lat="47.73499" lon="-1.88777">
        <ele>74.3</ele>
      </trkpt>
      <trkpt lat="47.73502" lon="-1.88776">
        <ele>74.5</ele>
      </trkpt>
      <trkpt lat="47.73504" lon="-1.88775">
        <ele>74.7</ele>
      </trkpt>
      <trkpt lat="47.73507" lon="-1.88773">
        <ele>74.9</ele>
      </trkpt>
      <trkpt lat="47.73509" lon="-1.88772">
        <ele>75.1</ele>
      </trkpt>
      <trkpt lat="47.73512" lon="-1.8877">
        <ele>75.4</ele>
      </trkpt>
      <trkpt lat="47.73515" lon="-1.88768">
        <ele>75.6</ele>
      </trkpt>
      <trkpt lat="47.73518" lon="-1.88766">
        <ele>75.8</ele>
      </trkpt>
      <trkpt lat="47.7352" lon="-1.88763">
        <ele>76.1</ele>
      </trkpt>
      <trkpt lat="47.73522" lon="-1.8876">
        <ele>76.3</ele>
      </trkpt>
      <trkpt lat="47.73523" lon="-1.88757">
        <ele>76.5</ele>
      </trkpt>
      <trkpt lat="47.73523" lon="-1.88753">
        <ele>76.6</ele>
      </trkpt>
      <trkpt lat="47.73523" lon="-1.88748">
        <ele>76.7</ele>
      </trkpt>
      <trkpt lat="47.73522" lon="-1.88744">
        <ele>76.6</ele>
      </trkpt>
      <trkpt lat="47.7352" lon="-1.88741">
        <ele>76.6</ele>
      </trkpt>
      <trkpt lat="47.73518" lon="-1.88738">
        <ele>76.4</ele>
      </trkpt>
      <trkpt lat="47.73515" lon="-1.88735">
        <ele>76.3</ele>
      </trkpt>
      <trkpt lat="47.73512" lon="-1.88733">
        <ele>76.1</ele>
      </trkpt>
      <trkpt lat="47.73509" lon="-1.8873">
        <ele>75.9</ele>
      </trkpt>
      <trkpt lat="47.73506" lon="-1.88728">
        <ele>75.7</ele>
      </trkpt>
      <trkpt lat="47.73503" lon="-1.88725">
        <ele>75.5</ele>
      </trkpt>
      <trkpt lat="47.735" lon="-1.88722">
        <ele>75.3</ele>
      </trkpt>
      <trkpt lat="47.73496" lon="-1.88718">
        <ele>75.1</ele>
      </trkpt>
      <trkpt lat="47.73493" lon="-1.88715">
        <ele>74.8</ele>
      </trkpt>
      <trkpt lat="47.73489" lon="-1.88712">
        <ele>74.6</ele>
      </trkpt>
      <trkpt lat="47.73485" lon="-1.88708">
        <ele>74.3</ele>
      </trkpt>
      <trkpt lat="47.73481" lon="-1.88704">
        <ele>74.1</ele>
      </trkpt>
      <trkpt lat="47.73477" lon="-1.887">
        <ele>73.8</ele>
      </trkpt>
      <trkpt lat="47.73473" lon="-1.88696">
        <ele>73.5</ele>
      </trkpt>
      <trkpt lat="47.73468" lon="-1.88692">
        <ele>73.1</ele>
      </trkpt>
      <trkpt lat="47.73463" lon="-1.88689">
        <ele>72.7</ele>
      </trkpt>
      <trkpt lat="47.73458" lon="-1.88684">
        <ele>72.4</ele>
      </trkpt>
      <trkpt lat="47.73454" lon="-1.8868">
        <ele>72</ele>
      </trkpt>
      <trkpt lat="47.73449" lon="-1.88675">
        <ele>71.7</ele>
      </trkpt>
      <trkpt lat="47.73445" lon="-1.8867">
        <ele>71.3</ele>
      </trkpt>
      <trkpt lat="47.7344" lon="-1.88666">
        <ele>71</ele>
      </trkpt>
      <trkpt lat="47.73435" lon="-1.88661">
        <ele>70.7</ele>
      </trkpt>
      <trkpt lat="47.7343" lon="-1.88656">
        <ele>70.4</ele>
      </trkpt>
      <trkpt lat="47.73425" lon="-1.88651">
        <ele>70.1</ele>
      </trkpt>
      <trkpt lat="47.7342" lon="-1.88647">
        <ele>69.8</ele>
      </trkpt>
      <trkpt lat="47.73416" lon="-1.88642">
        <ele>69.5</ele>
      </trkpt>
      <trkpt lat="47.7341" lon="-1.88638">
        <ele>69.3</ele>
      </trkpt>
      <trkpt lat="47.73405" lon="-1.88633">
        <ele>69.2</ele>
      </trkpt>
      <trkpt lat="47.734" lon="-1.88628">
        <ele>68.9</ele>
      </trkpt>
      <trkpt lat="47.73394" lon="-1.88623">
        <ele>68.7</ele>
      </trkpt>
      <trkpt lat="47.73388" lon="-1.88618">
        <ele>68.4</ele>
      </trkpt>
      <trkpt lat="47.73382" lon="-1.88613">
        <ele>68.1</ele>
      </trkpt>
      <trkpt lat="47.73377" lon="-1.88608">
        <ele>67.9</ele>
      </trkpt>
      <trkpt lat="47.73372" lon="-1.88603">
        <ele>67.6</ele>
      </trkpt>
      <trkpt lat="47.73367" lon="-1.88598">
        <ele>67.3</ele>
      </trkpt>
      <trkpt lat="47.73362" lon="-1.88592">
        <ele>67</ele>
      </trkpt>
      <trkpt lat="47.73358" lon="-1.88587">
        <ele>66.8</ele>
      </trkpt>
      <trkpt lat="47.73354" lon="-1.88583">
        <ele>66.5</ele>
      </trkpt>
      <trkpt lat="47.7335" lon="-1.88579">
        <ele>66.2</ele>
      </trkpt>
      <trkpt lat="47.73346" lon="-1.88574">
        <ele>66</ele>
      </trkpt>
      <trkpt lat="47.73341" lon="-1.8857">
        <ele>65.7</ele>
      </trkpt>
      <trkpt lat="47.73336" lon="-1.88565">
        <ele>65.4</ele>
      </trkpt>
      <trkpt lat="47.73331" lon="-1.8856">
        <ele>65.2</ele>
      </trkpt>
      <trkpt lat="47.73325" lon="-1.88555">
        <ele>65</ele>
      </trkpt>
      <trkpt lat="47.7332" lon="-1.88549">
        <ele>64.9</ele>
      </trkpt>
      <trkpt lat="47.73315" lon="-1.88543">
        <ele>64.8</ele>
      </trkpt>
      <trkpt lat="47.7331" lon="-1.88536">
        <ele>64.7</ele>
      </trkpt>
      <trkpt lat="47.73308" lon="-1.88531">
        <ele>64.7</ele>
      </trkpt>
      <trkpt lat="47.73303" lon="-1.88524">
        <ele>64.6</ele>
      </trkpt>
      <trkpt lat="47.73301" lon="-1.88517">
        <ele>64.6</ele>
      </trkpt>
      <trkpt lat="47.73299" lon="-1.88509">
        <ele>64.7</ele>
      </trkpt>
      <trkpt lat="47.73298" lon="-1.88502">
        <ele>64.7</ele>
      </trkpt>
      <trkpt lat="47.73299" lon="-1.88494">
        <ele>64.8</ele>
      </trkpt>
      <trkpt lat="47.733" lon="-1.88487">
        <ele>64.9</ele>
      </trkpt>
      <trkpt lat="47.73301" lon="-1.8848">
        <ele>65</ele>
      </trkpt>
      <trkpt lat="47.73302" lon="-1.88474">
        <ele>65.2</ele>
      </trkpt>
      <trkpt lat="47.73303" lon="-1.88465">
        <ele>65.3</ele>
      </trkpt>
      <trkpt lat="47.73304" lon="-1.8846">
        <ele>65.4</ele>
      </trkpt>
      <trkpt lat="47.73305" lon="-1.88453">
        <ele>65.5</ele>
      </trkpt>
      <trkpt lat="47.73306" lon="-1.88446">
        <ele>65.7</ele>
      </trkpt>
      <trkpt lat="47.73307" lon="-1.88439">
        <ele>65.8</ele>
      </trkpt>
      <trkpt lat="47.73308" lon="-1.88432">
        <ele>66</ele>
      </trkpt>
      <trkpt lat="47.73308" lon="-1.88425">
        <ele>66.1</ele>
      </trkpt>
      <trkpt lat="47.73309" lon="-1.88418">
        <ele>66.3</ele>
      </trkpt>
      <trkpt lat="47.7331" lon="-1.88411">
        <ele>66.3</ele>
      </trkpt>
      <trkpt lat="47.73311" lon="-1.88404">
        <ele>66.3</ele>
      </trkpt>
      <trkpt lat="47.73312" lon="-1.88396">
        <ele>66.3</ele>
      </trkpt>
      <trkpt lat="47.73313" lon="-1.88389">
        <ele>66.3</ele>
      </trkpt>
      <trkpt lat="47.73314" lon="-1.88381">
        <ele>66.3</ele>
      </trkpt>
      <trkpt lat="47.73315" lon="-1.88374">
        <ele>66.3</ele>
      </trkpt>
      <trkpt lat="47.73316" lon="-1.88367">
        <ele>66.3</ele>
      </trkpt>
      <trkpt lat="47.73317" lon="-1.8836">
        <ele>66.3</ele>
      </trkpt>
      <trkpt lat="47.73318" lon="-1.88353">
        <ele>66.3</ele>
      </trkpt>
      <trkpt lat="47.73319" lon="-1.88345">
        <ele>66.3</ele>
      </trkpt>
      <trkpt lat="47.7332" lon="-1.88338">
        <ele>66.3</ele>
      </trkpt>
      <trkpt lat="47.73321" lon="-1.88331">
        <ele>66.2</ele>
      </trkpt>
      <trkpt lat="47.73321" lon="-1.88323">
        <ele>66.1</ele>
      </trkpt>
      <trkpt lat="47.73322" lon="-1.88316">
        <ele>66.1</ele>
      </trkpt>
      <trkpt lat="47.73323" lon="-1.88308">
        <ele>66.1</ele>
      </trkpt>
      <trkpt lat="47.73324" lon="-1.88301">
        <ele>66.1</ele>
      </trkpt>
      <trkpt lat="47.73324" lon="-1.88293">
        <ele>66</ele>
      </trkpt>
      <trkpt lat="47.73325" lon="-1.88286">
        <ele>66</ele>
      </trkpt>
      <trkpt lat="47.73326" lon="-1.88279">
        <ele>66</ele>
      </trkpt>
      <trkpt lat="47.73328" lon="-1.88271">
        <ele>66</ele>
      </trkpt>
      <trkpt lat="47.73329" lon="-1.88264">
        <ele>65.9</ele>
      </trkpt>
      <trkpt lat="47.73329" lon="-1.88257">
        <ele>65.9</ele>
      </trkpt>
      <trkpt lat="47.73331" lon="-1.88243">
        <ele>65.8</ele>
      </trkpt>
      <trkpt lat="47.73331" lon="-1.88239">
        <ele>65.8</ele>
      </trkpt>
      <trkpt lat="47.73331" lon="-1.88235">
        <ele>65.7</ele>
      </trkpt>
      <trkpt lat="47.73332" lon="-1.88228">
        <ele>65.7</ele>
      </trkpt>
      <trkpt lat="47.73333" lon="-1.8822">
        <ele>65.6</ele>
      </trkpt>
      <trkpt lat="47.73334" lon="-1.88213">
        <ele>65.6</ele>
      </trkpt>
      <trkpt lat="47.73335" lon="-1.88206">
        <ele>65.5</ele>
      </trkpt>
      <trkpt lat="47.73336" lon="-1.88198">
        <ele>65.5</ele>
      </trkpt>
      <trkpt lat="47.73337" lon="-1.88191">
        <ele>65.4</ele>
      </trkpt>
      <trkpt lat="47.73338" lon="-1.88183">
        <ele>65.4</ele>
      </trkpt>
      <trkpt lat="47.73339" lon="-1.88176">
        <ele>65.3</ele>
      </trkpt>
      <trkpt lat="47.7334" lon="-1.88169">
        <ele>65.3</ele>
      </trkpt>
      <trkpt lat="47.73341" lon="-1.88162">
        <ele>65.3</ele>
      </trkpt>
      <trkpt lat="47.73341" lon="-1.88155">
        <ele>65.3</ele>
      </trkpt>
      <trkpt lat="47.73343" lon="-1.88149">
        <ele>65.3</ele>
      </trkpt>
      <trkpt lat="47.73344" lon="-1.88142">
        <ele>65.4</ele>
      </trkpt>
      <trkpt lat="47.73344" lon="-1.88135">
        <ele>65.4</ele>
      </trkpt>
      <trkpt lat="47.73346" lon="-1.88128">
        <ele>65.4</ele>
      </trkpt>
      <trkpt lat="47.73346" lon="-1.88121">
        <ele>65.5</ele>
      </trkpt>
      <trkpt lat="47.73346" lon="-1.88114">
        <ele>65.5</ele>
      </trkpt>
      <trkpt lat="47.73345" lon="-1.88108">
        <ele>65.4</ele>
      </trkpt>
      <trkpt lat="47.73343" lon="-1.88101">
        <ele>65.4</ele>
      </trkpt>
      <trkpt lat="47.7334" lon="-1.88097">
        <ele>65.2</ele>
      </trkpt>
      <trkpt lat="47.73335" lon="-1.88094">
        <ele>65.1</ele>
      </trkpt>
      <trkpt lat="47.7333" lon="-1.88092">
        <ele>64.9</ele>
      </trkpt>
      <trkpt lat="47.73325" lon="-1.88091">
        <ele>64.6</ele>
      </trkpt>
      <trkpt lat="47.7332" lon="-1.88089">
        <ele>64.3</ele>
      </trkpt>
      <trkpt lat="47.73314" lon="-1.88088">
        <ele>64.1</ele>
      </trkpt>
      <trkpt lat="47.73308" lon="-1.88086">
        <ele>63.8</ele>
      </trkpt>
      <trkpt lat="47.73302" lon="-1.88084">
        <ele>63.5</ele>
      </trkpt>
      <trkpt lat="47.73296" lon="-1.88083">
        <ele>63.2</ele>
      </trkpt>
      <trkpt lat="47.7329" lon="-1.88082">
        <ele>62.9</ele>
      </trkpt>
      <trkpt lat="47.73284" lon="-1.88081">
        <ele>62.6</ele>
      </trkpt>
      <trkpt lat="47.73276" lon="-1.88078">
        <ele>62.2</ele>
      </trkpt>
      <trkpt lat="47.73271" lon="-1.88075">
        <ele>61.9</ele>
      </trkpt>
      <trkpt lat="47.73266" lon="-1.88071">
        <ele>61.6</ele>
      </trkpt>
      <trkpt lat="47.73261" lon="-1.88065">
        <ele>61.3</ele>
      </trkpt>
      <trkpt lat="47.73257" lon="-1.88057">
        <ele>61</ele>
      </trkpt>
      <trkpt lat="47.73254" lon="-1.88048">
        <ele>60.8</ele>
      </trkpt>
      <trkpt lat="47.73252" lon="-1.88039">
        <ele>60.6</ele>
      </trkpt>
      <trkpt lat="47.7325" lon="-1.8803">
        <ele>60.3</ele>
      </trkpt>
      <trkpt lat="47.73247" lon="-1.88021">
        <ele>60.2</ele>
      </trkpt>
      <trkpt lat="47.73245" lon="-1.88012">
        <ele>60</ele>
      </trkpt>
      <trkpt lat="47.73244" lon="-1.88003">
        <ele>59.8</ele>
      </trkpt>
      <trkpt lat="47.73243" lon="-1.87994">
        <ele>60</ele>
      </trkpt>
      <trkpt lat="47.73242" lon="-1.87986">
        <ele>60.2</ele>
      </trkpt>
      <trkpt lat="47.73241" lon="-1.87979">
        <ele>60.4</ele>
      </trkpt>
      <trkpt lat="47.7324" lon="-1.87972">
        <ele>60.6</ele>
      </trkpt>
      <trkpt lat="47.7324" lon="-1.87965">
        <ele>60.8</ele>
      </trkpt>
      <trkpt lat="47.7324" lon="-1.87958">
        <ele>61.1</ele>
      </trkpt>
      <trkpt lat="47.7324" lon="-1.87952">
        <ele>61.3</ele>
      </trkpt>
      <trkpt lat="47.7324" lon="-1.87945">
        <ele>61.5</ele>
      </trkpt>
      <trkpt lat="47.73241" lon="-1.87939">
        <ele>61.8</ele>
      </trkpt>
      <trkpt lat="47.73241" lon="-1.87933">
        <ele>62</ele>
      </trkpt>
      <trkpt lat="47.73242" lon="-1.87927">
        <ele>62.2</ele>
      </trkpt>
      <trkpt lat="47.73242" lon="-1.87921">
        <ele>62.4</ele>
      </trkpt>
      <trkpt lat="47.73242" lon="-1.87915">
        <ele>62.6</ele>
      </trkpt>
      <trkpt lat="47.73242" lon="-1.8791">
        <ele>62.7</ele>
      </trkpt>
      <trkpt lat="47.73243" lon="-1.87903">
        <ele>62.8</ele>
      </trkpt>
      <trkpt lat="47.73242" lon="-1.87897">
        <ele>62.9</ele>
      </trkpt>
      <trkpt lat="47.73242" lon="-1.87891">
        <ele>62.9</ele>
      </trkpt>
      <trkpt lat="47.73242" lon="-1.87884">
        <ele>63</ele>
      </trkpt>
      <trkpt lat="47.73242" lon="-1.87878">
        <ele>63.1</ele>
      </trkpt>
      <trkpt lat="47.73243" lon="-1.87872">
        <ele>63.2</ele>
      </trkpt>
      <trkpt lat="47.73243" lon="-1.87867">
        <ele>63.3</ele>
      </trkpt>
      <trkpt lat="47.73243" lon="-1.87863">
        <ele>63.4</ele>
      </trkpt>
      <trkpt lat="47.73244" lon="-1.87858">
        <ele>63.5</ele>
      </trkpt>
      <trkpt lat="47.73244" lon="-1.87854">
        <ele>63.5</ele>
      </trkpt>
      <trkpt lat="47.73244" lon="-1.87849">
        <ele>63.6</ele>
      </trkpt>
      <trkpt lat="47.73245" lon="-1.87844">
        <ele>63.7</ele>
      </trkpt>
      <trkpt lat="47.73245" lon="-1.8784">
        <ele>63.7</ele>
      </trkpt>
      <trkpt lat="47.73244" lon="-1.87836">
        <ele>63.8</ele>
      </trkpt>
      <trkpt lat="47.73242" lon="-1.87833">
        <ele>63.7</ele>
      </trkpt>
      <trkpt lat="47.73239" lon="-1.87832">
        <ele>63.6</ele>
      </trkpt>
      <trkpt lat="47.73236" lon="-1.87831">
        <ele>63.5</ele>
      </trkpt>
      <trkpt lat="47.73233" lon="-1.87831">
        <ele>63.4</ele>
      </trkpt>
      <trkpt lat="47.73231" lon="-1.87828">
        <ele>63.3</ele>
      </trkpt>
      <trkpt lat="47.73229" lon="-1.87824">
        <ele>63.3</ele>
      </trkpt>
      <trkpt lat="47.73226" lon="-1.87822">
        <ele>63.2</ele>
      </trkpt>
      <trkpt lat="47.73222" lon="-1.87823">
        <ele>63</ele>
      </trkpt>
      <trkpt lat="47.73218" lon="-1.87826">
        <ele>62.9</ele>
      </trkpt>
      <trkpt lat="47.73214" lon="-1.87828">
        <ele>62.7</ele>
      </trkpt>
      <trkpt lat="47.73211" lon="-1.87829">
        <ele>62.6</ele>
      </trkpt>
      <trkpt lat="47.73207" lon="-1.8783">
        <ele>62.5</ele>
      </trkpt>
      <trkpt lat="47.73203" lon="-1.8783">
        <ele>62.3</ele>
      </trkpt>
      <trkpt lat="47.73199" lon="-1.87829">
        <ele>62.2</ele>
      </trkpt>
      <trkpt lat="47.73194" lon="-1.87829">
        <ele>62</ele>
      </trkpt>
      <trkpt lat="47.7319" lon="-1.87828">
        <ele>61.9</ele>
      </trkpt>
      <trkpt lat="47.73185" lon="-1.87827">
        <ele>61.7</ele>
      </trkpt>
      <trkpt lat="47.73181" lon="-1.87825">
        <ele>61.6</ele>
      </trkpt>
      <trkpt lat="47.73177" lon="-1.87823">
        <ele>61.5</ele>
      </trkpt>
      <trkpt lat="47.73173" lon="-1.8782">
        <ele>61.4</ele>
      </trkpt>
      <trkpt lat="47.73168" lon="-1.87818">
        <ele>61.2</ele>
      </trkpt>
      <trkpt lat="47.73163" lon="-1.87817">
        <ele>61</ele>
      </trkpt>
      <trkpt lat="47.73159" lon="-1.87818">
        <ele>60.8</ele>
      </trkpt>
      <trkpt lat="47.73155" lon="-1.87821">
        <ele>60.6</ele>
      </trkpt>
      <trkpt lat="47.73153" lon="-1.87826">
        <ele>60.4</ele>
      </trkpt>
      <trkpt lat="47.73151" lon="-1.87832">
        <ele>60.3</ele>
      </trkpt>
      <trkpt lat="47.7315" lon="-1.87838">
        <ele>60.1</ele>
      </trkpt>
      <trkpt lat="47.73148" lon="-1.87845">
        <ele>59.8</ele>
      </trkpt>
      <trkpt lat="47.73146" lon="-1.87851">
        <ele>59.6</ele>
      </trkpt>
      <trkpt lat="47.73144" lon="-1.87856">
        <ele>59.4</ele>
      </trkpt>
      <trkpt lat="47.73141" lon="-1.87859">
        <ele>59.1</ele>
      </trkpt>
      <trkpt lat="47.73138" lon="-1.87861">
        <ele>58.9</ele>
      </trkpt>
      <trkpt lat="47.73134" lon="-1.87863">
        <ele>58.7</ele>
      </trkpt>
      <trkpt lat="47.73127" lon="-1.87864">
        <ele>58.4</ele>
      </trkpt>
      <trkpt lat="47.73121" lon="-1.87864">
        <ele>58.1</ele>
      </trkpt>
      <trkpt lat="47.73114" lon="-1.87861">
        <ele>57.8</ele>
      </trkpt>
      <trkpt lat="47.7311" lon="-1.87856">
        <ele>57.7</ele>
      </trkpt>
      <trkpt lat="47.73108" lon="-1.8785">
        <ele>57.8</ele>
      </trkpt>
      <trkpt lat="47.73106" lon="-1.87843">
        <ele>57.8</ele>
      </trkpt>
      <trkpt lat="47.73102" lon="-1.87839">
        <ele>57.8</ele>
      </trkpt>
      <trkpt lat="47.73098" lon="-1.87836">
        <ele>57.6</ele>
      </trkpt>
      <trkpt lat="47.73093" lon="-1.87835">
        <ele>57.4</ele>
      </trkpt>
      <trkpt lat="47.73088" lon="-1.87834">
        <ele>57.2</ele>
      </trkpt>
      <trkpt lat="47.73083" lon="-1.87832">
        <ele>57</ele>
      </trkpt>
      <trkpt lat="47.73078" lon="-1.87832">
        <ele>56.7</ele>
      </trkpt>
      <trkpt lat="47.73076" lon="-1.87833">
        <ele>56.6</ele>
      </trkpt>
      <trkpt lat="47.73075" lon="-1.87835">
        <ele>56.4</ele>
      </trkpt>
      <trkpt lat="47.73074" lon="-1.87837">
        <ele>56.3</ele>
      </trkpt>
      <trkpt lat="47.73073" lon="-1.8784">
        <ele>56.2</ele>
      </trkpt>
      <trkpt lat="47.73072" lon="-1.87842">
        <ele>56.1</ele>
      </trkpt>
      <trkpt lat="47.7307" lon="-1.87842">
        <ele>56</ele>
      </trkpt>
      <trkpt lat="47.73067" lon="-1.87841">
        <ele>55.9</ele>
      </trkpt>
      <trkpt lat="47.73066" lon="-1.8784">
        <ele>55.8</ele>
      </trkpt>
      <trkpt lat="47.73065" lon="-1.8784">
        <ele>55.7</ele>
      </trkpt>
      <trkpt lat="47.73063" lon="-1.87839">
        <ele>55.7</ele>
      </trkpt>
      <trkpt lat="47.73062" lon="-1.87834">
        <ele>55.7</ele>
      </trkpt>
      <trkpt lat="47.73062" lon="-1.87834">
        <ele>55.7</ele>
      </trkpt>
      <trkpt lat="47.73063" lon="-1.87833">
        <ele>55.8</ele>
      </trkpt>
      <trkpt lat="47.73064" lon="-1.87831">
        <ele>55.8</ele>
      </trkpt>
      <trkpt lat="47.73064" lon="-1.87827">
        <ele>55.9</ele>
      </trkpt>
      <trkpt lat="47.73065" lon="-1.87822">
        <ele>55.9</ele>
      </trkpt>
      <trkpt lat="47.73066" lon="-1.87818">
        <ele>56</ele>
      </trkpt>
      <trkpt lat="47.73066" lon="-1.87815">
        <ele>56</ele>
      </trkpt>
      <trkpt lat="47.73064" lon="-1.87812">
        <ele>55.9</ele>
      </trkpt>
      <trkpt lat="47.73061" lon="-1.8781">
        <ele>55.7</ele>
      </trkpt>
      <trkpt lat="47.73058" lon="-1.87808">
        <ele>55.5</ele>
      </trkpt>
      <trkpt lat="47.73055" lon="-1.87804">
        <ele>55.4</ele>
      </trkpt>
      <trkpt lat="47.73053" lon="-1.87799">
        <ele>55.4</ele>
      </trkpt>
      <trkpt lat="47.73053" lon="-1.87794">
        <ele>55.3</ele>
      </trkpt>
      <trkpt lat="47.73051" lon="-1.87788">
        <ele>55.2</ele>
      </trkpt>
      <trkpt lat="47.73045" lon="-1.87782">
        <ele>55</ele>
      </trkpt>
      <trkpt lat="47.7304" lon="-1.87778">
        <ele>54.8</ele>
      </trkpt>
      <trkpt lat="47.73036" lon="-1.87774">
        <ele>54.6</ele>
      </trkpt>
      <trkpt lat="47.73032" lon="-1.87771">
        <ele>54.4</ele>
      </trkpt>
      <trkpt lat="47.73029" lon="-1.87768">
        <ele>54.2</ele>
      </trkpt>
      <trkpt lat="47.73027" lon="-1.87765">
        <ele>54.2</ele>
      </trkpt>
      <trkpt lat="47.73027" lon="-1.87762">
        <ele>54.2</ele>
      </trkpt>
      <trkpt lat="47.73029" lon="-1.87757">
        <ele>54.4</ele>
      </trkpt>
      <trkpt lat="47.73031" lon="-1.87753">
        <ele>54.5</ele>
      </trkpt>
      <trkpt lat="47.73031" lon="-1.8775">
        <ele>54.5</ele>
      </trkpt>
      <trkpt lat="47.7303" lon="-1.87747">
        <ele>54.5</ele>
      </trkpt>
      <trkpt lat="47.73029" lon="-1.87742">
        <ele>54.5</ele>
      </trkpt>
      <trkpt lat="47.73028" lon="-1.87738">
        <ele>54.5</ele>
      </trkpt>
      <trkpt lat="47.73028" lon="-1.87734">
        <ele>54.6</ele>
      </trkpt>
      <trkpt lat="47.7303" lon="-1.8773">
        <ele>54.8</ele>
      </trkpt>
      <trkpt lat="47.73032" lon="-1.87724">
        <ele>54.9</ele>
      </trkpt>
      <trkpt lat="47.73032" lon="-1.87718">
        <ele>55</ele>
      </trkpt>
      <trkpt lat="47.73034" lon="-1.87713">
        <ele>55.2</ele>
      </trkpt>
      <trkpt lat="47.73036" lon="-1.87707">
        <ele>55.3</ele>
      </trkpt>
      <trkpt lat="47.73036" lon="-1.87704">
        <ele>55.4</ele>
      </trkpt>
      <trkpt lat="47.73037" lon="-1.87698">
        <ele>55.5</ele>
      </trkpt>
      <trkpt lat="47.73039" lon="-1.87693">
        <ele>55.6</ele>
      </trkpt>
      <trkpt lat="47.7304" lon="-1.87688">
        <ele>55.7</ele>
      </trkpt>
      <trkpt lat="47.7304" lon="-1.87682">
        <ele>55.8</ele>
      </trkpt>
      <trkpt lat="47.73042" lon="-1.87678">
        <ele>55.9</ele>
      </trkpt>
      <trkpt lat="47.73043" lon="-1.87674">
        <ele>55.9</ele>
      </trkpt>
      <trkpt lat="47.73044" lon="-1.87668">
        <ele>56</ele>
      </trkpt>
      <trkpt lat="47.73044" lon="-1.87661">
        <ele>56.2</ele>
      </trkpt>
      <trkpt lat="47.73044" lon="-1.87655">
        <ele>56.3</ele>
      </trkpt>
      <trkpt lat="47.73043" lon="-1.87651">
        <ele>56.3</ele>
      </trkpt>
      <trkpt lat="47.73041" lon="-1.87647">
        <ele>56.3</ele>
      </trkpt>
      <trkpt lat="47.73041" lon="-1.87641">
        <ele>56.5</ele>
      </trkpt>
      <trkpt lat="47.73041" lon="-1.87634">
        <ele>56.6</ele>
      </trkpt>
      <trkpt lat="47.73042" lon="-1.87629">
        <ele>56.7</ele>
      </trkpt>
      <trkpt lat="47.73043" lon="-1.87623">
        <ele>56.8</ele>
      </trkpt>
      <trkpt lat="47.73045" lon="-1.8762">
        <ele>56.9</ele>
      </trkpt>
      <trkpt lat="47.73047" lon="-1.87616">
        <ele>57</ele>
      </trkpt>
      <trkpt lat="47.73048" lon="-1.87612">
        <ele>57.1</ele>
      </trkpt>
      <trkpt lat="47.73049" lon="-1.87607">
        <ele>57.2</ele>
      </trkpt>
      <trkpt lat="47.7305" lon="-1.87601">
        <ele>57.3</ele>
      </trkpt>
      <trkpt lat="47.73051" lon="-1.87597">
        <ele>57.4</ele>
      </trkpt>
      <trkpt lat="47.73049" lon="-1.87593">
        <ele>57.4</ele>
      </trkpt>
      <trkpt lat="47.73048" lon="-1.87588">
        <ele>57.5</ele>
      </trkpt>
      <trkpt lat="47.73047" lon="-1.87584">
        <ele>57.6</ele>
      </trkpt>
      <trkpt lat="47.73047" lon="-1.87578">
        <ele>57.5</ele>
      </trkpt>
      <trkpt lat="47.73047" lon="-1.87573">
        <ele>57.5</ele>
      </trkpt>
      <trkpt lat="47.73046" lon="-1.87569">
        <ele>57.5</ele>
      </trkpt>
      <trkpt lat="47.73044" lon="-1.87568">
        <ele>57.4</ele>
      </trkpt>
      <trkpt lat="47.7304" lon="-1.87566">
        <ele>57.4</ele>
      </trkpt>
      <trkpt lat="47.73037" lon="-1.87564">
        <ele>57.3</ele>
      </trkpt>
      <trkpt lat="47.73034" lon="-1.87562">
        <ele>57.3</ele>
      </trkpt>
      <trkpt lat="47.73031" lon="-1.8756">
        <ele>57.3</ele>
      </trkpt>
      <trkpt lat="47.73029" lon="-1.87557">
        <ele>57.2</ele>
      </trkpt>
      <trkpt lat="47.73027" lon="-1.87555">
        <ele>57.2</ele>
      </trkpt>
      <trkpt lat="47.73025" lon="-1.87552">
        <ele>57.2</ele>
      </trkpt>
      <trkpt lat="47.73023" lon="-1.87548">
        <ele>57.2</ele>
      </trkpt>
      <trkpt lat="47.73022" lon="-1.87544">
        <ele>57.1</ele>
      </trkpt>
      <trkpt lat="47.73022" lon="-1.8754">
        <ele>57.1</ele>
      </trkpt>
      <trkpt lat="47.73022" lon="-1.87535">
        <ele>57.1</ele>
      </trkpt>
      <trkpt lat="47.73023" lon="-1.87529">
        <ele>57.1</ele>
      </trkpt>
      <trkpt lat="47.73023" lon="-1.87524">
        <ele>57.1</ele>
      </trkpt>
      <trkpt lat="47.73024" lon="-1.87518">
        <ele>57.1</ele>
      </trkpt>
      <trkpt lat="47.73024" lon="-1.87512">
        <ele>57</ele>
      </trkpt>
      <trkpt lat="47.73024" lon="-1.87506">
        <ele>57</ele>
      </trkpt>
      <trkpt lat="47.73025" lon="-1.87501">
        <ele>57</ele>
      </trkpt>
      <trkpt lat="47.73025" lon="-1.87495">
        <ele>57</ele>
      </trkpt>
      <trkpt lat="47.73026" lon="-1.87489">
        <ele>57</ele>
      </trkpt>
      <trkpt lat="47.73026" lon="-1.87483">
        <ele>57</ele>
      </trkpt>
      <trkpt lat="47.73027" lon="-1.87477">
        <ele>57</ele>
      </trkpt>
      <trkpt lat="47.73027" lon="-1.87472">
        <ele>57</ele>
      </trkpt>
      <trkpt lat="47.73027" lon="-1.87466">
        <ele>57</ele>
      </trkpt>
      <trkpt lat="47.73028" lon="-1.87461">
        <ele>57</ele>
      </trkpt>
      <trkpt lat="47.73028" lon="-1.87458">
        <ele>57</ele>
      </trkpt>
      <trkpt lat="47.73028" lon="-1.87458">
        <ele>57</ele>
      </trkpt>
      <trkpt lat="47.73028" lon="-1.87458">
        <ele>57</ele>
      </trkpt>
      <trkpt lat="47.73028" lon="-1.87458">
        <ele>57</ele>
      </trkpt>
      <trkpt lat="47.73028" lon="-1.87458">
        <ele>57</ele>
      </trkpt>
      <trkpt lat="47.73028" lon="-1.87458">
        <ele>57</ele>
      </trkpt>
      <trkpt lat="47.73028" lon="-1.87458">
        <ele>57</ele>
      </trkpt>
      <trkpt lat="47.73028" lon="-1.87458">
        <ele>57</ele>
      </trkpt>
      <trkpt lat="47.73028" lon="-1.87458">
        <ele>57</ele>
      </trkpt>
      <trkpt lat="47.73028" lon="-1.87458">
        <ele>57</ele>
      </trkpt>
      <trkpt lat="47.73028" lon="-1.87458">
        <ele>57</ele>
      </trkpt>
      <trkpt lat="47.73028" lon="-1.87458">
        <ele>57</ele>
      </trkpt>
      <trkpt lat="47.73028" lon="-1.87458">
        <ele>57</ele>
      </trkpt>
      <trkpt lat="47.73028" lon="-1.87458">
        <ele>57</ele>
      </trkpt>
      <trkpt lat="47.73028" lon="-1.87458">
        <ele>57</ele>
      </trkpt>
      <trkpt lat="47.73028" lon="-1.87458">
        <ele>57</ele>
      </trkpt>
      <trkpt lat="47.73028" lon="-1.87458">
        <ele>57</ele>
      </trkpt>
      <trkpt lat="47.73028" lon="-1.87458">
        <ele>57</ele>
      </trkpt>
      <trkpt lat="47.73029" lon="-1.87458">
        <ele>57</ele>
      </trkpt>
      <trkpt lat="47.7303" lon="-1.87458">
        <ele>57</ele>
      </trkpt>
      <trkpt lat="47.73032" lon="-1.87458">
        <ele>57</ele>
      </trkpt>
      <trkpt lat="47.73034" lon="-1.87458">
        <ele>57</ele>
      </trkpt>
      <trkpt lat="47.73036" lon="-1.87459">
        <ele>57</ele>
      </trkpt>
      <trkpt lat="47.73038" lon="-1.87459">
        <ele>57</ele>
      </trkpt>
      <trkpt lat="47.73041" lon="-1.87457">
        <ele>57</ele>
      </trkpt>
      <trkpt lat="47.73043" lon="-1.87455">
        <ele>57</ele>
      </trkpt>
      <trkpt lat="47.73046" lon="-1.87454">
        <ele>57</ele>
      </trkpt>
      <trkpt lat="47.73048" lon="-1.87453">
        <ele>57</ele>
      </trkpt>
      <trkpt lat="47.7305" lon="-1.87452">
        <ele>57</ele>
      </trkpt>
      <trkpt lat="47.73052" lon="-1.87451">
        <ele>57</ele>
      </trkpt>
      <trkpt lat="47.73054" lon="-1.87448">
        <ele>57</ele>
      </trkpt>
      <trkpt lat="47.73055" lon="-1.87444">
        <ele>57</ele>
      </trkpt>
      <trkpt lat="47.73056" lon="-1.87442">
        <ele>57</ele>
      </trkpt>
      <trkpt lat="47.73058" lon="-1.87439">
        <ele>57</ele>
      </trkpt>
      <trkpt lat="47.73059" lon="-1.87436">
        <ele>57</ele>
      </trkpt>
      <trkpt lat="47.73059" lon="-1.87432">
        <ele>57</ele>
      </trkpt>
      <trkpt lat="47.7306" lon="-1.87429">
        <ele>57</ele>
      </trkpt>
      <trkpt lat="47.7306" lon="-1.87425">
        <ele>57</ele>
      </trkpt>
      <trkpt lat="47.73061" lon="-1.87421">
        <ele>57</ele>
      </trkpt>
      <trkpt lat="47.73061" lon="-1.87418">
        <ele>57</ele>
      </trkpt>
      <trkpt lat="47.73061" lon="-1.87413">
        <ele>57.1</ele>
      </trkpt>
      <trkpt lat="47.73062" lon="-1.87409">
        <ele>57.2</ele>
      </trkpt>
      <trkpt lat="47.73062" lon="-1.87407">
        <ele>57.2</ele>
      </trkpt>
      <trkpt lat="47.73062" lon="-1.87404">
        <ele>57.3</ele>
      </trkpt>
      <trkpt lat="47.73063" lon="-1.87401">
        <ele>57.3</ele>
      </trkpt>
      <trkpt lat="47.73063" lon="-1.87398">
        <ele>57.4</ele>
      </trkpt>
      <trkpt lat="47.73064" lon="-1.87397">
        <ele>57.4</ele>
      </trkpt>
      <trkpt lat="47.73064" lon="-1.87395">
        <ele>57.5</ele>
      </trkpt>
      <trkpt lat="47.73065" lon="-1.87393">
        <ele>57.5</ele>
      </trkpt>
      <trkpt lat="47.73066" lon="-1.87389">
        <ele>57.6</ele>
      </trkpt>
      <trkpt lat="47.73066" lon="-1.87386">
        <ele>57.7</ele>
      </trkpt>
      <trkpt lat="47.73065" lon="-1.87383">
        <ele>57.7</ele>
      </trkpt>
      <trkpt lat="47.73064" lon="-1.87379">
        <ele>57.8</ele>
      </trkpt>
      <trkpt lat="47.73064" lon="-1.87376">
        <ele>57.9</ele>
      </trkpt>
      <trkpt lat="47.73064" lon="-1.87373">
        <ele>57.9</ele>
      </trkpt>
      <trkpt lat="47.73065" lon="-1.87369">
        <ele>58</ele>
      </trkpt>
      <trkpt lat="47.73066" lon="-1.87365">
        <ele>58.1</ele>
      </trkpt>
      <trkpt lat="47.73067" lon="-1.87361">
        <ele>58.2</ele>
      </trkpt>
      <trkpt lat="47.73067" lon="-1.87358">
        <ele>58.3</ele>
      </trkpt>
      <trkpt lat="47.73066" lon="-1.87354">
        <ele>58.4</ele>
      </trkpt>
      <trkpt lat="47.73065" lon="-1.8735">
        <ele>58.4</ele>
      </trkpt>
      <trkpt lat="47.73064" lon="-1.87346">
        <ele>58.5</ele>
      </trkpt>
      <trkpt lat="47.73063" lon="-1.87341">
        <ele>58.6</ele>
      </trkpt>
      <trkpt lat="47.73063" lon="-1.87335">
        <ele>58.7</ele>
      </trkpt>
      <trkpt lat="47.73062" lon="-1.8733">
        <ele>58.8</ele>
      </trkpt>
      <trkpt lat="47.73061" lon="-1.87327">
        <ele>58.8</ele>
      </trkpt>
      <trkpt lat="47.73059" lon="-1.87326">
        <ele>58.8</ele>
      </trkpt>
      <trkpt lat="47.73057" lon="-1.87326">
        <ele>58.8</ele>
      </trkpt>
      <trkpt lat="47.73055" lon="-1.87324">
        <ele>58.7</ele>
      </trkpt>
      <trkpt lat="47.73053" lon="-1.87323">
        <ele>58.7</ele>
      </trkpt>
      <trkpt lat="47.73051" lon="-1.8732">
        <ele>58.7</ele>
      </trkpt>
      <trkpt lat="47.73051" lon="-1.87317">
        <ele>58.7</ele>
      </trkpt>
      <trkpt lat="47.73051" lon="-1.87313">
        <ele>58.8</ele>
      </trkpt>
      <trkpt lat="47.73053" lon="-1.87311">
        <ele>58.8</ele>
      </trkpt>
      <trkpt lat="47.73056" lon="-1.87311">
        <ele>58.8</ele>
      </trkpt>
      <trkpt lat="47.73058" lon="-1.87312">
        <ele>58.9</ele>
      </trkpt>
      <trkpt lat="47.73061" lon="-1.87312">
        <ele>58.9</ele>
      </trkpt>
      <trkpt lat="47.73064" lon="-1.87311">
        <ele>59</ele>
      </trkpt>
      <trkpt lat="47.73065" lon="-1.87308">
        <ele>59</ele>
      </trkpt>
      <trkpt lat="47.73066" lon="-1.87304">
        <ele>59.1</ele>
      </trkpt>
      <trkpt lat="47.73067" lon="-1.87299">
        <ele>59.1</ele>
      </trkpt>
      <trkpt lat="47.73069" lon="-1.87297">
        <ele>59.2</ele>
      </trkpt>
      <trkpt lat="47.73072" lon="-1.87295">
        <ele>59.3</ele>
      </trkpt>
      <trkpt lat="47.73074" lon="-1.87293">
        <ele>59.3</ele>
      </trkpt>
      <trkpt lat="47.73076" lon="-1.87291">
        <ele>59.4</ele>
      </trkpt>
      <trkpt lat="47.73078" lon="-1.87287">
        <ele>59.4</ele>
      </trkpt>
      <trkpt lat="47.73079" lon="-1.87283">
        <ele>59.5</ele>
      </trkpt>
      <trkpt lat="47.7308" lon="-1.87278">
        <ele>59.6</ele>
      </trkpt>
      <trkpt lat="47.73078" lon="-1.87275">
        <ele>59.6</ele>
      </trkpt>
      <trkpt lat="47.73076" lon="-1.87274">
        <ele>59.6</ele>
      </trkpt>
      <trkpt lat="47.73074" lon="-1.87271">
        <ele>59.5</ele>
      </trkpt>
      <trkpt lat="47.73073" lon="-1.87267">
        <ele>59.6</ele>
      </trkpt>
      <trkpt lat="47.73073" lon="-1.87262">
        <ele>59.6</ele>
      </trkpt>
      <trkpt lat="47.73073" lon="-1.87257">
        <ele>59.7</ele>
      </trkpt>
      <trkpt lat="47.73073" lon="-1.87251">
        <ele>59.8</ele>
      </trkpt>
      <trkpt lat="47.73074" lon="-1.87247">
        <ele>59.8</ele>
      </trkpt>
      <trkpt lat="47.73075" lon="-1.87242">
        <ele>60</ele>
      </trkpt>
      <trkpt lat="47.73076" lon="-1.87237">
        <ele>60.1</ele>
      </trkpt>
      <trkpt lat="47.73075" lon="-1.87233">
        <ele>60.2</ele>
      </trkpt>
      <trkpt lat="47.73076" lon="-1.87228">
        <ele>60.3</ele>
      </trkpt>
      <trkpt lat="47.73077" lon="-1.87224">
        <ele>60.5</ele>
      </trkpt>
      <trkpt lat="47.73077" lon="-1.87218">
        <ele>60.6</ele>
      </trkpt>
      <trkpt lat="47.73077" lon="-1.87213">
        <ele>60.7</ele>
      </trkpt>
      <trkpt lat="47.73077" lon="-1.87208">
        <ele>60.8</ele>
      </trkpt>
      <trkpt lat="47.73079" lon="-1.87203">
        <ele>61</ele>
      </trkpt>
      <trkpt lat="47.73079" lon="-1.87199">
        <ele>61.1</ele>
      </trkpt>
      <trkpt lat="47.7308" lon="-1.87194">
        <ele>61.3</ele>
      </trkpt>
      <trkpt lat="47.7308" lon="-1.87189">
        <ele>61.4</ele>
      </trkpt>
      <trkpt lat="47.73081" lon="-1.87183">
        <ele>61.6</ele>
      </trkpt>
      <trkpt lat="47.73082" lon="-1.87177">
        <ele>61.7</ele>
      </trkpt>
      <trkpt lat="47.73081" lon="-1.87173">
        <ele>61.8</ele>
      </trkpt>
      <trkpt lat="47.73081" lon="-1.87169">
        <ele>61.9</ele>
      </trkpt>
      <trkpt lat="47.73081" lon="-1.87165">
        <ele>62</ele>
      </trkpt>
      <trkpt lat="47.73082" lon="-1.87159">
        <ele>62.1</ele>
      </trkpt>
      <trkpt lat="47.73082" lon="-1.87154">
        <ele>62.1</ele>
      </trkpt>
      <trkpt lat="47.73083" lon="-1.8715">
        <ele>62.2</ele>
      </trkpt>
      <trkpt lat="47.73086" lon="-1.87147">
        <ele>62.3</ele>
      </trkpt>
      <trkpt lat="47.73089" lon="-1.87146">
        <ele>62.3</ele>
      </trkpt>
      <trkpt lat="47.73092" lon="-1.87145">
        <ele>62.3</ele>
      </trkpt>
      <trkpt lat="47.73095" lon="-1.87143">
        <ele>62.4</ele>
      </trkpt>
      <trkpt lat="47.73098" lon="-1.8714">
        <ele>62.4</ele>
      </trkpt>
      <trkpt lat="47.73099" lon="-1.87136">
        <ele>62.5</ele>
      </trkpt>
      <trkpt lat="47.73099" lon="-1.87132">
        <ele>62.5</ele>
      </trkpt>
      <trkpt lat="47.73099" lon="-1.87129">
        <ele>62.6</ele>
      </trkpt>
      <trkpt lat="47.73099" lon="-1.87123">
        <ele>62.6</ele>
      </trkpt>
      <trkpt lat="47.731" lon="-1.8712">
        <ele>62.7</ele>
      </trkpt>
      <trkpt lat="47.73101" lon="-1.87114">
        <ele>62.7</ele>
      </trkpt>
      <trkpt lat="47.73102" lon="-1.87108">
        <ele>62.8</ele>
      </trkpt>
      <trkpt lat="47.73104" lon="-1.87103">
        <ele>62.8</ele>
      </trkpt>
      <trkpt lat="47.73105" lon="-1.87099">
        <ele>62.9</ele>
      </trkpt>
      <trkpt lat="47.73106" lon="-1.87093">
        <ele>62.9</ele>
      </trkpt>
      <trkpt lat="47.73107" lon="-1.87088">
        <ele>63</ele>
      </trkpt>
      <trkpt lat="47.73108" lon="-1.87084">
        <ele>63</ele>
      </trkpt>
      <trkpt lat="47.7311" lon="-1.8708">
        <ele>63</ele>
      </trkpt>
      <trkpt lat="47.73112" lon="-1.87074">
        <ele>63.1</ele>
      </trkpt>
      <trkpt lat="47.73112" lon="-1.87069">
        <ele>63.2</ele>
      </trkpt>
      <trkpt lat="47.73112" lon="-1.87065">
        <ele>63.2</ele>
      </trkpt>
      <trkpt lat="47.73112" lon="-1.8706">
        <ele>63.3</ele>
      </trkpt>
      <trkpt lat="47.73111" lon="-1.87056">
        <ele>63.3</ele>
      </trkpt>
      <trkpt lat="47.7311" lon="-1.87053">
        <ele>63.4</ele>
      </trkpt>
      <trkpt lat="47.73108" lon="-1.87051">
        <ele>63.4</ele>
      </trkpt>
      <trkpt lat="47.73106" lon="-1.87048">
        <ele>63.5</ele>
      </trkpt>
      <trkpt lat="47.73104" lon="-1.87044">
        <ele>63.6</ele>
      </trkpt>
      <trkpt lat="47.73104" lon="-1.87041">
        <ele>63.6</ele>
      </trkpt>
      <trkpt lat="47.73104" lon="-1.87037">
        <ele>63.7</ele>
      </trkpt>
      <trkpt lat="47.73105" lon="-1.87032">
        <ele>63.7</ele>
      </trkpt>
      <trkpt lat="47.73107" lon="-1.87027">
        <ele>63.8</ele>
      </trkpt>
      <trkpt lat="47.73108" lon="-1.87024">
        <ele>63.8</ele>
      </trkpt>
      <trkpt lat="47.73111" lon="-1.8702">
        <ele>63.8</ele>
      </trkpt>
      <trkpt lat="47.73113" lon="-1.87017">
        <ele>63.7</ele>
      </trkpt>
      <trkpt lat="47.73116" lon="-1.87013">
        <ele>63.7</ele>
      </trkpt>
      <trkpt lat="47.73119" lon="-1.87009">
        <ele>63.6</ele>
      </trkpt>
      <trkpt lat="47.73123" lon="-1.87003">
        <ele>63.6</ele>
      </trkpt>
      <trkpt lat="47.73126" lon="-1.86999">
        <ele>63.5</ele>
      </trkpt>
      <trkpt lat="47.73129" lon="-1.86995">
        <ele>63.4</ele>
      </trkpt>
      <trkpt lat="47.73132" lon="-1.86991">
        <ele>63.3</ele>
      </trkpt>
      <trkpt lat="47.73135" lon="-1.86988">
        <ele>63.2</ele>
      </trkpt>
      <trkpt lat="47.73138" lon="-1.86983">
        <ele>63.2</ele>
      </trkpt>
      <trkpt lat="47.73139" lon="-1.86979">
        <ele>63.2</ele>
      </trkpt>
      <trkpt lat="47.7314" lon="-1.86974">
        <ele>63.2</ele>
      </trkpt>
      <trkpt lat="47.73142" lon="-1.86971">
        <ele>63.1</ele>
      </trkpt>
      <trkpt lat="47.73144" lon="-1.8697">
        <ele>63.1</ele>
      </trkpt>
      <trkpt lat="47.73147" lon="-1.8697">
        <ele>63</ele>
      </trkpt>
      <trkpt lat="47.73148" lon="-1.86969">
        <ele>62.9</ele>
      </trkpt>
      <trkpt lat="47.7315" lon="-1.86967">
        <ele>62.9</ele>
      </trkpt>
      <trkpt lat="47.73151" lon="-1.86963">
        <ele>62.9</ele>
      </trkpt>
      <trkpt lat="47.73152" lon="-1.86959">
        <ele>62.9</ele>
      </trkpt>
      <trkpt lat="47.73152" lon="-1.86954">
        <ele>63</ele>
      </trkpt>
      <trkpt lat="47.73152" lon="-1.86949">
        <ele>63</ele>
      </trkpt>
      <trkpt lat="47.73153" lon="-1.86946">
        <ele>63</ele>
      </trkpt>
      <trkpt lat="47.73152" lon="-1.86944">
        <ele>63.1</ele>
      </trkpt>
      <trkpt lat="47.73151" lon="-1.86943">
        <ele>63.1</ele>
      </trkpt>
      <trkpt lat="47.73151" lon="-1.8694">
        <ele>63.2</ele>
      </trkpt>
      <trkpt lat="47.7315" lon="-1.86935">
        <ele>63.2</ele>
      </trkpt>
      <trkpt lat="47.73149" lon="-1.86931">
        <ele>63.3</ele>
      </trkpt>
      <trkpt lat="47.7315" lon="-1.86927">
        <ele>63.3</ele>
      </trkpt>
      <trkpt lat="47.73152" lon="-1.86924">
        <ele>63.3</ele>
      </trkpt>
      <trkpt lat="47.73154" lon="-1.86923">
        <ele>63.2</ele>
      </trkpt>
      <trkpt lat="47.73158" lon="-1.86919">
        <ele>63.2</ele>
      </trkpt>
      <trkpt lat="47.7316" lon="-1.86914">
        <ele>63.1</ele>
      </trkpt>
      <trkpt lat="47.73161" lon="-1.8691">
        <ele>63</ele>
      </trkpt>
      <trkpt lat="47.73161" lon="-1.86906">
        <ele>62.8</ele>
      </trkpt>
      <trkpt lat="47.73161" lon="-1.86901">
        <ele>62.7</ele>
      </trkpt>
      <trkpt lat="47.73161" lon="-1.86898">
        <ele>62.7</ele>
      </trkpt>
      <trkpt lat="47.73155" lon="-1.86895">
        <ele>62.7</ele>
      </trkpt>
      <trkpt lat="47.73153" lon="-1.86893">
        <ele>62.7</ele>
      </trkpt>
      <trkpt lat="47.73151" lon="-1.86891">
        <ele>62.6</ele>
      </trkpt>
      <trkpt lat="47.73148" lon="-1.86889">
        <ele>62.6</ele>
      </trkpt>
      <trkpt lat="47.73144" lon="-1.86888">
        <ele>62.7</ele>
      </trkpt>
      <trkpt lat="47.73141" lon="-1.86887">
        <ele>62.7</ele>
      </trkpt>
      <trkpt lat="47.73139" lon="-1.86884">
        <ele>62.6</ele>
      </trkpt>
      <trkpt lat="47.73138" lon="-1.86879">
        <ele>62.5</ele>
      </trkpt>
      <trkpt lat="47.73138" lon="-1.86876">
        <ele>62.4</ele>
      </trkpt>
      <trkpt lat="47.73137" lon="-1.86869">
        <ele>62.2</ele>
      </trkpt>
      <trkpt lat="47.73137" lon="-1.86861">
        <ele>61.9</ele>
      </trkpt>
      <trkpt lat="47.73135" lon="-1.86855">
        <ele>61.7</ele>
      </trkpt>
      <trkpt lat="47.73134" lon="-1.86853">
        <ele>61.6</ele>
      </trkpt>
      <trkpt lat="47.73131" lon="-1.86848">
        <ele>61.5</ele>
      </trkpt>
      <trkpt lat="47.73128" lon="-1.86846">
        <ele>61.4</ele>
      </trkpt>
      <trkpt lat="47.73126" lon="-1.86846">
        <ele>61.4</ele>
      </trkpt>
      <trkpt lat="47.73123" lon="-1.86845">
        <ele>61.4</ele>
      </trkpt>
      <trkpt lat="47.73121" lon="-1.86846">
        <ele>61.5</ele>
      </trkpt>
      <trkpt lat="47.73117" lon="-1.86843">
        <ele>61.4</ele>
      </trkpt>
      <trkpt lat="47.73117" lon="-1.8684">
        <ele>61.2</ele>
      </trkpt>
      <trkpt lat="47.73117" lon="-1.86837">
        <ele>61.1</ele>
      </trkpt>
      <trkpt lat="47.73117" lon="-1.86833">
        <ele>61</ele>
      </trkpt>
      <trkpt lat="47.73116" lon="-1.86829">
        <ele>60.9</ele>
      </trkpt>
      <trkpt lat="47.73114" lon="-1.86827">
        <ele>60.8</ele>
      </trkpt>
      <trkpt lat="47.73111" lon="-1.86828">
        <ele>60.8</ele>
      </trkpt>
      <trkpt lat="47.73109" lon="-1.86829">
        <ele>60.9</ele>
      </trkpt>
      <trkpt lat="47.73107" lon="-1.86831">
        <ele>60.9</ele>
      </trkpt>
      <trkpt lat="47.73105" lon="-1.86831">
        <ele>60.9</ele>
      </trkpt>
      <trkpt lat="47.73103" lon="-1.86831">
        <ele>60.9</ele>
      </trkpt>
      <trkpt lat="47.73101" lon="-1.86831">
        <ele>60.9</ele>
      </trkpt>
      <trkpt lat="47.731" lon="-1.86828">
        <ele>60.8</ele>
      </trkpt>
      <trkpt lat="47.73099" lon="-1.86825">
        <ele>60.7</ele>
      </trkpt>
      <trkpt lat="47.73097" lon="-1.86822">
        <ele>60.5</ele>
      </trkpt>
      <trkpt lat="47.73095" lon="-1.8682">
        <ele>60.4</ele>
      </trkpt>
      <trkpt lat="47.73094" lon="-1.86817">
        <ele>60.3</ele>
      </trkpt>
      <trkpt lat="47.73094" lon="-1.86815">
        <ele>60.2</ele>
      </trkpt>
      <trkpt lat="47.73095" lon="-1.86815">
        <ele>60.2</ele>
      </trkpt>
      <trkpt lat="47.73096" lon="-1.86814">
        <ele>60.2</ele>
      </trkpt>
      <trkpt lat="47.73098" lon="-1.86812">
        <ele>60.1</ele>
      </trkpt>
      <trkpt lat="47.731" lon="-1.86809">
        <ele>60</ele>
      </trkpt>
      <trkpt lat="47.73102" lon="-1.86805">
        <ele>59.9</ele>
      </trkpt>
      <trkpt lat="47.73102" lon="-1.86803">
        <ele>59.8</ele>
      </trkpt>
      <trkpt lat="47.73101" lon="-1.86801">
        <ele>59.7</ele>
      </trkpt>
      <trkpt lat="47.73098" lon="-1.868">
        <ele>59.6</ele>
      </trkpt>
      <trkpt lat="47.73095" lon="-1.86799">
        <ele>59.5</ele>
      </trkpt>
      <trkpt lat="47.73092" lon="-1.86798">
        <ele>59.4</ele>
      </trkpt>
      <trkpt lat="47.73089" lon="-1.86795">
        <ele>59.2</ele>
      </trkpt>
      <trkpt lat="47.73087" lon="-1.86792">
        <ele>59.1</ele>
      </trkpt>
      <trkpt lat="47.73084" lon="-1.86788">
        <ele>58.8</ele>
      </trkpt>
      <trkpt lat="47.73082" lon="-1.86784">
        <ele>58.6</ele>
      </trkpt>
      <trkpt lat="47.73083" lon="-1.86781">
        <ele>58.5</ele>
      </trkpt>
      <trkpt lat="47.73085" lon="-1.86776">
        <ele>58.3</ele>
      </trkpt>
      <trkpt lat="47.73086" lon="-1.86771">
        <ele>58.1</ele>
      </trkpt>
      <trkpt lat="47.73085" lon="-1.86766">
        <ele>57.8</ele>
      </trkpt>
      <trkpt lat="47.73083" lon="-1.86759">
        <ele>57.4</ele>
      </trkpt>
      <trkpt lat="47.73081" lon="-1.86754">
        <ele>57.1</ele>
      </trkpt>
      <trkpt lat="47.7308" lon="-1.86749">
        <ele>56.8</ele>
      </trkpt>
      <trkpt lat="47.7308" lon="-1.86743">
        <ele>56.6</ele>
      </trkpt>
      <trkpt lat="47.73081" lon="-1.86738">
        <ele>56.3</ele>
      </trkpt>
      <trkpt lat="47.73081" lon="-1.86733">
        <ele>56.1</ele>
      </trkpt>
      <trkpt lat="47.73081" lon="-1.86728">
        <ele>55.9</ele>
      </trkpt>
      <trkpt lat="47.73079" lon="-1.86725">
        <ele>55.6</ele>
      </trkpt>
      <trkpt lat="47.73078" lon="-1.86722">
        <ele>55.5</ele>
      </trkpt>
      <trkpt lat="47.73076" lon="-1.86719">
        <ele>55.2</ele>
      </trkpt>
      <trkpt lat="47.73076" lon="-1.86714">
        <ele>55</ele>
      </trkpt>
      <trkpt lat="47.73077" lon="-1.8671">
        <ele>54.8</ele>
      </trkpt>
      <trkpt lat="47.73077" lon="-1.86705">
        <ele>54.6</ele>
      </trkpt>
      <trkpt lat="47.73078" lon="-1.867">
        <ele>54.4</ele>
      </trkpt>
      <trkpt lat="47.73078" lon="-1.86695">
        <ele>54.1</ele>
      </trkpt>
      <trkpt lat="47.73076" lon="-1.8669">
        <ele>53.8</ele>
      </trkpt>
      <trkpt lat="47.73075" lon="-1.86684">
        <ele>53.5</ele>
      </trkpt>
      <trkpt lat="47.73075" lon="-1.86677">
        <ele>53.1</ele>
      </trkpt>
      <trkpt lat="47.73074" lon="-1.86672">
        <ele>52.8</ele>
      </trkpt>
      <trkpt lat="47.73072" lon="-1.86666">
        <ele>52.4</ele>
      </trkpt>
      <trkpt lat="47.73069" lon="-1.86661">
        <ele>52.3</ele>
      </trkpt>
      <trkpt lat="47.73067" lon="-1.86658">
        <ele>52.1</ele>
      </trkpt>
      <trkpt lat="47.73065" lon="-1.86656">
        <ele>52</ele>
      </trkpt>
      <trkpt lat="47.73065" lon="-1.86656">
        <ele>52</ele>
      </trkpt>
      <trkpt lat="47.73065" lon="-1.86656">
        <ele>52</ele>
      </trkpt>
      <trkpt lat="47.73065" lon="-1.86656">
        <ele>52</ele>
      </trkpt>
      <trkpt lat="47.73065" lon="-1.86656">
        <ele>52</ele>
      </trkpt>
      <trkpt lat="47.73065" lon="-1.86656">
        <ele>52</ele>
      </trkpt>
      <trkpt lat="47.73065" lon="-1.86656">
        <ele>52</ele>
      </trkpt>
      <trkpt lat="47.73065" lon="-1.86656">
        <ele>52</ele>
      </trkpt>
      <trkpt lat="47.73064" lon="-1.86654">
        <ele>52</ele>
      </trkpt>
      <trkpt lat="47.73063" lon="-1.86652">
        <ele>51.9</ele>
      </trkpt>
      <trkpt lat="47.7306" lon="-1.8665">
        <ele>51.8</ele>
      </trkpt>
      <trkpt lat="47.73058" lon="-1.86648">
        <ele>51.6</ele>
      </trkpt>
      <trkpt lat="47.73055" lon="-1.86644">
        <ele>51.5</ele>
      </trkpt>
      <trkpt lat="47.73054" lon="-1.86643">
        <ele>51.4</ele>
      </trkpt>
      <trkpt lat="47.73053" lon="-1.86642">
        <ele>51.4</ele>
      </trkpt>
      <trkpt lat="47.73053" lon="-1.86641">
        <ele>51.4</ele>
      </trkpt>
      <trkpt lat="47.73053" lon="-1.86641">
        <ele>51.4</ele>
      </trkpt>
      <trkpt lat="47.73053" lon="-1.86641">
        <ele>51.4</ele>
      </trkpt>
      <trkpt lat="47.73053" lon="-1.86641">
        <ele>51.4</ele>
      </trkpt>
      <trkpt lat="47.73053" lon="-1.86641">
        <ele>51.4</ele>
      </trkpt>
      <trkpt lat="47.73053" lon="-1.86641">
        <ele>51.4</ele>
      </trkpt>
      <trkpt lat="47.73053" lon="-1.86642">
        <ele>51.4</ele>
      </trkpt>
      <trkpt lat="47.73052" lon="-1.86644">
        <ele>51.3</ele>
      </trkpt>
      <trkpt lat="47.73052" lon="-1.86647">
        <ele>51.3</ele>
      </trkpt>
      <trkpt lat="47.73052" lon="-1.8665">
        <ele>51.4</ele>
      </trkpt>
      <trkpt lat="47.73051" lon="-1.86653">
        <ele>51.4</ele>
      </trkpt>
      <trkpt lat="47.73051" lon="-1.86656">
        <ele>51.4</ele>
      </trkpt>
      <trkpt lat="47.7305" lon="-1.8666">
        <ele>51.4</ele>
      </trkpt>
      <trkpt lat="47.7305" lon="-1.86664">
        <ele>51.4</ele>
      </trkpt>
      <trkpt lat="47.73049" lon="-1.86668">
        <ele>51.4</ele>
      </trkpt>
      <trkpt lat="47.73048" lon="-1.86673">
        <ele>51.6</ele>
      </trkpt>
      <trkpt lat="47.73046" lon="-1.86677">
        <ele>51.8</ele>
      </trkpt>
      <trkpt lat="47.73045" lon="-1.8668">
        <ele>51.9</ele>
      </trkpt>
      <trkpt lat="47.73044" lon="-1.86684">
        <ele>52</ele>
      </trkpt>
      <trkpt lat="47.73042" lon="-1.86688">
        <ele>52.2</ele>
      </trkpt>
      <trkpt lat="47.73041" lon="-1.86692">
        <ele>52.3</ele>
      </trkpt>
      <trkpt lat="47.73039" lon="-1.86696">
        <ele>52.5</ele>
      </trkpt>
      <trkpt lat="47.73038" lon="-1.867">
        <ele>52.7</ele>
      </trkpt>
      <trkpt lat="47.73036" lon="-1.86705">
        <ele>52.8</ele>
      </trkpt>
      <trkpt lat="47.73035" lon="-1.8671">
        <ele>53</ele>
      </trkpt>
      <trkpt lat="47.73033" lon="-1.86715">
        <ele>53.2</ele>
      </trkpt>
      <trkpt lat="47.73031" lon="-1.8672">
        <ele>53.4</ele>
      </trkpt>
      <trkpt lat="47.73028" lon="-1.86725">
        <ele>53.6</ele>
      </trkpt>
      <trkpt lat="47.73026" lon="-1.86729">
        <ele>53.7</ele>
      </trkpt>
      <trkpt lat="47.73023" lon="-1.86732">
        <ele>53.8</ele>
      </trkpt>
      <trkpt lat="47.73021" lon="-1.86735">
        <ele>53.9</ele>
      </trkpt>
      <trkpt lat="47.73019" lon="-1.86737">
        <ele>53.9</ele>
      </trkpt>
      <trkpt lat="47.73015" lon="-1.86737">
        <ele>53.8</ele>
      </trkpt>
      <trkpt lat="47.73012" lon="-1.86736">
        <ele>53.6</ele>
      </trkpt>
      <trkpt lat="47.73009" lon="-1.86732">
        <ele>53.3</ele>
      </trkpt>
      <trkpt lat="47.73006" lon="-1.86728">
        <ele>52.9</ele>
      </trkpt>
      <trkpt lat="47.73003" lon="-1.86723">
        <ele>52.5</ele>
      </trkpt>
      <trkpt lat="47.72999" lon="-1.86717">
        <ele>52</ele>
      </trkpt>
      <trkpt lat="47.72996" lon="-1.86711">
        <ele>51.6</ele>
      </trkpt>
      <trkpt lat="47.72993" lon="-1.86705">
        <ele>51.2</ele>
      </trkpt>
      <trkpt lat="47.7299" lon="-1.86697">
        <ele>50.8</ele>
      </trkpt>
      <trkpt lat="47.72986" lon="-1.8669">
        <ele>50.3</ele>
      </trkpt>
      <trkpt lat="47.72983" lon="-1.86683">
        <ele>49.9</ele>
      </trkpt>
      <trkpt lat="47.72979" lon="-1.86676">
        <ele>49.5</ele>
      </trkpt>
      <trkpt lat="47.72974" lon="-1.86668">
        <ele>49.1</ele>
      </trkpt>
      <trkpt lat="47.7297" lon="-1.86661">
        <ele>49</ele>
      </trkpt>
      <trkpt lat="47.72967" lon="-1.86655">
        <ele>48.9</ele>
      </trkpt>
      <trkpt lat="47.72963" lon="-1.86649">
        <ele>48.9</ele>
      </trkpt>
      <trkpt lat="47.7296" lon="-1.86643">
        <ele>48.9</ele>
      </trkpt>
      <trkpt lat="47.72958" lon="-1.86637">
        <ele>48.8</ele>
      </trkpt>
      <trkpt lat="47.72955" lon="-1.86631">
        <ele>48.8</ele>
      </trkpt>
      <trkpt lat="47.72952" lon="-1.86625">
        <ele>48.7</ele>
      </trkpt>
      <trkpt lat="47.72949" lon="-1.86618">
        <ele>48.6</ele>
      </trkpt>
      <trkpt lat="47.72946" lon="-1.86612">
        <ele>48.6</ele>
      </trkpt>
      <trkpt lat="47.72943" lon="-1.86607">
        <ele>48.5</ele>
      </trkpt>
      <trkpt lat="47.72941" lon="-1.86601">
        <ele>48.4</ele>
      </trkpt>
      <trkpt lat="47.72938" lon="-1.86595">
        <ele>48.4</ele>
      </trkpt>
      <trkpt lat="47.72936" lon="-1.86589">
        <ele>48.3</ele>
      </trkpt>
      <trkpt lat="47.72933" lon="-1.86582">
        <ele>48.2</ele>
      </trkpt>
      <trkpt lat="47.7293" lon="-1.86576">
        <ele>48</ele>
      </trkpt>
      <trkpt lat="47.72927" lon="-1.86569">
        <ele>47.8</ele>
      </trkpt>
      <trkpt lat="47.72924" lon="-1.86559">
        <ele>47.5</ele>
      </trkpt>
      <trkpt lat="47.72921" lon="-1.86551">
        <ele>47.3</ele>
      </trkpt>
      <trkpt lat="47.72917" lon="-1.86543">
        <ele>47</ele>
      </trkpt>
      <trkpt lat="47.72914" lon="-1.86535">
        <ele>46.9</ele>
      </trkpt>
      <trkpt lat="47.72911" lon="-1.86527">
        <ele>46.7</ele>
      </trkpt>
      <trkpt lat="47.72908" lon="-1.86518">
        <ele>46.5</ele>
      </trkpt>
      <trkpt lat="47.72905" lon="-1.8651">
        <ele>46.4</ele>
      </trkpt>
      <trkpt lat="47.72902" lon="-1.86502">
        <ele>46.2</ele>
      </trkpt>
      <trkpt lat="47.72899" lon="-1.86493">
        <ele>46.1</ele>
      </trkpt>
      <trkpt lat="47.72896" lon="-1.86485">
        <ele>45.9</ele>
      </trkpt>
      <trkpt lat="47.72894" lon="-1.86477">
        <ele>45.8</ele>
      </trkpt>
      <trkpt lat="47.72891" lon="-1.86469">
        <ele>45.7</ele>
      </trkpt>
      <trkpt lat="47.72888" lon="-1.86461">
        <ele>45.6</ele>
      </trkpt>
      <trkpt lat="47.72886" lon="-1.86452">
        <ele>45.4</ele>
      </trkpt>
      <trkpt lat="47.72883" lon="-1.86444">
        <ele>45.3</ele>
      </trkpt>
      <trkpt lat="47.7288" lon="-1.86436">
        <ele>45.2</ele>
      </trkpt>
      <trkpt lat="47.72877" lon="-1.86428">
        <ele>45.2</ele>
      </trkpt>
      <trkpt lat="47.72874" lon="-1.8642">
        <ele>45.1</ele>
      </trkpt>
      <trkpt lat="47.72871" lon="-1.86412">
        <ele>45</ele>
      </trkpt>
      <trkpt lat="47.72869" lon="-1.86404">
        <ele>44.8</ele>
      </trkpt>
      <trkpt lat="47.72867" lon="-1.86398">
        <ele>44.7</ele>
      </trkpt>
      <trkpt lat="47.72864" lon="-1.86391">
        <ele>44.5</ele>
      </trkpt>
      <trkpt lat="47.72862" lon="-1.86384">
        <ele>44.4</ele>
      </trkpt>
      <trkpt lat="47.72859" lon="-1.86377">
        <ele>44.3</ele>
      </trkpt>
      <trkpt lat="47.72857" lon="-1.86371">
        <ele>44.2</ele>
      </trkpt>
      <trkpt lat="47.72855" lon="-1.86364">
        <ele>44.1</ele>
      </trkpt>
      <trkpt lat="47.72854" lon="-1.86357">
        <ele>43.9</ele>
      </trkpt>
      <trkpt lat="47.72854" lon="-1.8635">
        <ele>43.7</ele>
      </trkpt>
      <trkpt lat="47.72856" lon="-1.86344">
        <ele>43.5</ele>
      </trkpt>
      <trkpt lat="47.72859" lon="-1.86338">
        <ele>43.2</ele>
      </trkpt>
      <trkpt lat="47.72864" lon="-1.86336">
        <ele>43</ele>
      </trkpt>
      <trkpt lat="47.72868" lon="-1.86335">
        <ele>42.8</ele>
      </trkpt>
      <trkpt lat="47.72872" lon="-1.86335">
        <ele>42.6</ele>
      </trkpt>
      <trkpt lat="47.72876" lon="-1.86334">
        <ele>42.5</ele>
      </trkpt>
      <trkpt lat="47.7288" lon="-1.86333">
        <ele>42.3</ele>
      </trkpt>
      <trkpt lat="47.72884" lon="-1.86332">
        <ele>42.2</ele>
      </trkpt>
      <trkpt lat="47.72888" lon="-1.86331">
        <ele>42</ele>
      </trkpt>
      <trkpt lat="47.72892" lon="-1.8633">
        <ele>41.8</ele>
      </trkpt>
      <trkpt lat="47.72897" lon="-1.86329">
        <ele>41.6</ele>
      </trkpt>
      <trkpt lat="47.72902" lon="-1.86328">
        <ele>41.4</ele>
      </trkpt>
      <trkpt lat="47.72907" lon="-1.86327">
        <ele>41.3</ele>
      </trkpt>
      <trkpt lat="47.72912" lon="-1.86327">
        <ele>41.1</ele>
      </trkpt>
      <trkpt lat="47.72917" lon="-1.86326">
        <ele>40.9</ele>
      </trkpt>
      <trkpt lat="47.7292" lon="-1.86325">
        <ele>41.1</ele>
      </trkpt>
      <trkpt lat="47.72922" lon="-1.86322">
        <ele>41.1</ele>
      </trkpt>
      <trkpt lat="47.72924" lon="-1.86319">
        <ele>41.1</ele>
      </trkpt>
      <trkpt lat="47.72923" lon="-1.86316">
        <ele>41.1</ele>
      </trkpt>
      <trkpt lat="47.72921" lon="-1.86315">
        <ele>41</ele>
      </trkpt>
      <trkpt lat="47.72918" lon="-1.86313">
        <ele>40.8</ele>
      </trkpt>
      <trkpt lat="47.72916" lon="-1.8631">
        <ele>40.8</ele>
      </trkpt>
      <trkpt lat="47.72913" lon="-1.86308">
        <ele>40.8</ele>
      </trkpt>
      <trkpt lat="47.7291" lon="-1.86305">
        <ele>40.9</ele>
      </trkpt>
      <trkpt lat="47.72907" lon="-1.86302">
        <ele>40.9</ele>
      </trkpt>
      <trkpt lat="47.72905" lon="-1.86298">
        <ele>40.9</ele>
      </trkpt>
      <trkpt lat="47.72902" lon="-1.86293">
        <ele>41</ele>
      </trkpt>
      <trkpt lat="47.729" lon="-1.86289">
        <ele>41</ele>
      </trkpt>
      <trkpt lat="47.72897" lon="-1.86286">
        <ele>41</ele>
      </trkpt>
      <trkpt lat="47.72893" lon="-1.86283">
        <ele>41.1</ele>
      </trkpt>
      <trkpt lat="47.72889" lon="-1.86279">
        <ele>41.1</ele>
      </trkpt>
      <trkpt lat="47.72886" lon="-1.86275">
        <ele>41.2</ele>
      </trkpt>
      <trkpt lat="47.72882" lon="-1.86272">
        <ele>41.2</ele>
      </trkpt>
      <trkpt lat="47.72878" lon="-1.86268">
        <ele>41.2</ele>
      </trkpt>
      <trkpt lat="47.72875" lon="-1.86263">
        <ele>41.2</ele>
      </trkpt>
      <trkpt lat="47.72874" lon="-1.86257">
        <ele>41.2</ele>
      </trkpt>
      <trkpt lat="47.72872" lon="-1.86251">
        <ele>41.1</ele>
      </trkpt>
      <trkpt lat="47.72871" lon="-1.86244">
        <ele>41.1</ele>
      </trkpt>
      <trkpt lat="47.7287" lon="-1.86237">
        <ele>41</ele>
      </trkpt>
      <trkpt lat="47.72869" lon="-1.8623">
        <ele>41</ele>
      </trkpt>
      <trkpt lat="47.72868" lon="-1.86224">
        <ele>41</ele>
      </trkpt>
      <trkpt lat="47.72867" lon="-1.86217">
        <ele>41</ele>
      </trkpt>
      <trkpt lat="47.72867" lon="-1.86212">
        <ele>40.9</ele>
      </trkpt>
      <trkpt lat="47.72868" lon="-1.86207">
        <ele>40.9</ele>
      </trkpt>
      <trkpt lat="47.7287" lon="-1.86202">
        <ele>40.8</ele>
      </trkpt>
      <trkpt lat="47.7287" lon="-1.86196">
        <ele>40.8</ele>
      </trkpt>
      <trkpt lat="47.72869" lon="-1.86191">
        <ele>40.7</ele>
      </trkpt>
      <trkpt lat="47.72866" lon="-1.86185">
        <ele>40.7</ele>
      </trkpt>
      <trkpt lat="47.72864" lon="-1.86179">
        <ele>40.7</ele>
      </trkpt>
      <trkpt lat="47.72861" lon="-1.86172">
        <ele>40.7</ele>
      </trkpt>
      <trkpt lat="47.72859" lon="-1.86165">
        <ele>40.7</ele>
      </trkpt>
      <trkpt lat="47.72857" lon="-1.86158">
        <ele>40.8</ele>
      </trkpt>
      <trkpt lat="47.72856" lon="-1.86151">
        <ele>40.8</ele>
      </trkpt>
      <trkpt lat="47.72855" lon="-1.86145">
        <ele>40.9</ele>
      </trkpt>
      <trkpt lat="47.72853" lon="-1.86141">
        <ele>40.9</ele>
      </trkpt>
      <trkpt lat="47.7285" lon="-1.86138">
        <ele>41</ele>
      </trkpt>
      <trkpt lat="47.72846" lon="-1.86135">
        <ele>41.1</ele>
      </trkpt>
      <trkpt lat="47.72842" lon="-1.86133">
        <ele>41.2</ele>
      </trkpt>
      <trkpt lat="47.72838" lon="-1.86131">
        <ele>41.3</ele>
      </trkpt>
      <trkpt lat="47.72835" lon="-1.86127">
        <ele>41.4</ele>
      </trkpt>
      <trkpt lat="47.72832" lon="-1.86125">
        <ele>41.5</ele>
      </trkpt>
      <trkpt lat="47.72829" lon="-1.86122">
        <ele>41.6</ele>
      </trkpt>
      <trkpt lat="47.72825" lon="-1.8612">
        <ele>41.6</ele>
      </trkpt>
      <trkpt lat="47.72822" lon="-1.86117">
        <ele>41.6</ele>
      </trkpt>
      <trkpt lat="47.72818" lon="-1.86113">
        <ele>41.7</ele>
      </trkpt>
      <trkpt lat="47.72815" lon="-1.86109">
        <ele>41.7</ele>
      </trkpt>
      <trkpt lat="47.72812" lon="-1.86105">
        <ele>41.7</ele>
      </trkpt>
      <trkpt lat="47.72808" lon="-1.86103">
        <ele>41.7</ele>
      </trkpt>
      <trkpt lat="47.72803" lon="-1.86101">
        <ele>41.7</ele>
      </trkpt>
      <trkpt lat="47.72799" lon="-1.86099">
        <ele>41.6</ele>
      </trkpt>
      <trkpt lat="47.72794" lon="-1.86096">
        <ele>41.6</ele>
      </trkpt>
      <trkpt lat="47.7279" lon="-1.86094">
        <ele>41.6</ele>
      </trkpt>
      <trkpt lat="47.72786" lon="-1.86093">
        <ele>41.5</ele>
      </trkpt>
      <trkpt lat="47.7278" lon="-1.86092">
        <ele>41.5</ele>
      </trkpt>
      <trkpt lat="47.72775" lon="-1.86091">
        <ele>41.4</ele>
      </trkpt>
      <trkpt lat="47.72771" lon="-1.86089">
        <ele>41.3</ele>
      </trkpt>
      <trkpt lat="47.72767" lon="-1.86087">
        <ele>41.3</ele>
      </trkpt>
      <trkpt lat="47.72765" lon="-1.86085">
        <ele>41.2</ele>
      </trkpt>
      <trkpt lat="47.72763" lon="-1.86082">
        <ele>41.2</ele>
      </trkpt>
      <trkpt lat="47.72761" lon="-1.86079">
        <ele>41.1</ele>
      </trkpt>
      <trkpt lat="47.72761" lon="-1.86077">
        <ele>41.1</ele>
      </trkpt>
      <trkpt lat="47.72761" lon="-1.86076">
        <ele>41.1</ele>
      </trkpt>
      <trkpt lat="47.72761" lon="-1.86076">
        <ele>41.1</ele>
      </trkpt>
      <trkpt lat="47.72761" lon="-1.86076">
        <ele>41.1</ele>
      </trkpt>
      <trkpt lat="47.72761" lon="-1.86076">
        <ele>41.1</ele>
      </trkpt>
      <trkpt lat="47.72761" lon="-1.86076">
        <ele>41.1</ele>
      </trkpt>
      <trkpt lat="47.7276" lon="-1.86075">
        <ele>41.1</ele>
      </trkpt>
      <trkpt lat="47.7276" lon="-1.86072">
        <ele>41.1</ele>
      </trkpt>
      <trkpt lat="47.72759" lon="-1.86069">
        <ele>41.1</ele>
      </trkpt>
      <trkpt lat="47.72757" lon="-1.86066">
        <ele>41.1</ele>
      </trkpt>
      <trkpt lat="47.72757" lon="-1.86061">
        <ele>41.1</ele>
      </trkpt>
      <trkpt lat="47.72755" lon="-1.86058">
        <ele>41.1</ele>
      </trkpt>
      <trkpt lat="47.72755" lon="-1.86054">
        <ele>41.1</ele>
      </trkpt>
      <trkpt lat="47.72755" lon="-1.86051">
        <ele>41.1</ele>
      </trkpt>
      <trkpt lat="47.72754" lon="-1.86049">
        <ele>41</ele>
      </trkpt>
      <trkpt lat="47.72754" lon="-1.86047">
        <ele>41.1</ele>
      </trkpt>
      <trkpt lat="47.72755" lon="-1.86045">
        <ele>41.1</ele>
      </trkpt>
      <trkpt lat="47.72756" lon="-1.86043">
        <ele>41.1</ele>
      </trkpt>
      <trkpt lat="47.72757" lon="-1.86041">
        <ele>41.1</ele>
      </trkpt>
      <trkpt lat="47.72757" lon="-1.86038">
        <ele>41.1</ele>
      </trkpt>
      <trkpt lat="47.72757" lon="-1.86037">
        <ele>41.1</ele>
      </trkpt>
      <trkpt lat="47.72758" lon="-1.86036">
        <ele>41.1</ele>
      </trkpt>
      <trkpt lat="47.72758" lon="-1.86035">
        <ele>41.1</ele>
      </trkpt>
      <trkpt lat="47.72759" lon="-1.86035">
        <ele>41.1</ele>
      </trkpt>
      <trkpt lat="47.7276" lon="-1.86034">
        <ele>41.1</ele>
      </trkpt>
      <trkpt lat="47.72761" lon="-1.86032">
        <ele>41.1</ele>
      </trkpt>
      <trkpt lat="47.72763" lon="-1.86029">
        <ele>41.2</ele>
      </trkpt>
      <trkpt lat="47.72764" lon="-1.86023">
        <ele>41.2</ele>
      </trkpt>
      <trkpt lat="47.72765" lon="-1.86018">
        <ele>41.2</ele>
      </trkpt>
      <trkpt lat="47.72766" lon="-1.86015">
        <ele>41.2</ele>
      </trkpt>
      <trkpt lat="47.72769" lon="-1.86013">
        <ele>41.2</ele>
      </trkpt>
      <trkpt lat="47.72772" lon="-1.8601">
        <ele>41.3</ele>
      </trkpt>
      <trkpt lat="47.72774" lon="-1.86007">
        <ele>41.3</ele>
      </trkpt>
      <trkpt lat="47.72776" lon="-1.86006">
        <ele>41.3</ele>
      </trkpt>
      <trkpt lat="47.72778" lon="-1.86005">
        <ele>41.3</ele>
      </trkpt>
      <trkpt lat="47.72779" lon="-1.86006">
        <ele>41.3</ele>
      </trkpt>
      <trkpt lat="47.7278" lon="-1.86008">
        <ele>41.4</ele>
      </trkpt>
      <trkpt lat="47.72781" lon="-1.86007">
        <ele>41.4</ele>
      </trkpt>
      <trkpt lat="47.72783" lon="-1.86007">
        <ele>41.4</ele>
      </trkpt>
      <trkpt lat="47.72784" lon="-1.86005">
        <ele>41.4</ele>
      </trkpt>
      <trkpt lat="47.72786" lon="-1.86004">
        <ele>41.4</ele>
      </trkpt>
      <trkpt lat="47.72788" lon="-1.86003">
        <ele>41.5</ele>
      </trkpt>
      <trkpt lat="47.7279" lon="-1.86004">
        <ele>41.5</ele>
      </trkpt>
      <trkpt lat="47.72791" lon="-1.86007">
        <ele>41.5</ele>
      </trkpt>
      <trkpt lat="47.72793" lon="-1.86009">
        <ele>41.5</ele>
      </trkpt>
      <trkpt lat="47.72795" lon="-1.8601">
        <ele>41.5</ele>
      </trkpt>
      <trkpt lat="47.72797" lon="-1.8601">
        <ele>41.6</ele>
      </trkpt>
      <trkpt lat="47.728" lon="-1.8601">
        <ele>41.6</ele>
      </trkpt>
      <trkpt lat="47.72804" lon="-1.86011">
        <ele>41.6</ele>
      </trkpt>
      <trkpt lat="47.72807" lon="-1.86013">
        <ele>41.7</ele>
      </trkpt>
      <trkpt lat="47.72811" lon="-1.86014">
        <ele>41.7</ele>
      </trkpt>
      <trkpt lat="47.72814" lon="-1.86015">
        <ele>41.8</ele>
      </trkpt>
      <trkpt lat="47.72816" lon="-1.86016">
        <ele>41.8</ele>
      </trkpt>
      <trkpt lat="47.72818" lon="-1.86018">
        <ele>41.8</ele>
      </trkpt>
      <trkpt lat="47.7282" lon="-1.86017">
        <ele>41.8</ele>
      </trkpt>
      <trkpt lat="47.72823" lon="-1.86014">
        <ele>41.9</ele>
      </trkpt>
      <trkpt lat="47.72825" lon="-1.86011">
        <ele>41.9</ele>
      </trkpt>
      <trkpt lat="47.72826" lon="-1.86007">
        <ele>41.9</ele>
      </trkpt>
      <trkpt lat="47.72828" lon="-1.86002">
        <ele>41.9</ele>
      </trkpt>
      <trkpt lat="47.72828" lon="-1.85997">
        <ele>41.9</ele>
      </trkpt>
      <trkpt lat="47.72829" lon="-1.85993">
        <ele>41.9</ele>
      </trkpt>
      <trkpt lat="47.72829" lon="-1.85987">
        <ele>41.8</ele>
      </trkpt>
      <trkpt lat="47.72829" lon="-1.85981">
        <ele>41.8</ele>
      </trkpt>
      <trkpt lat="47.7283" lon="-1.85976">
        <ele>41.7</ele>
      </trkpt>
      <trkpt lat="47.72831" lon="-1.85973">
        <ele>41.7</ele>
      </trkpt>
      <trkpt lat="47.72833" lon="-1.85971">
        <ele>41.7</ele>
      </trkpt>
      <trkpt lat="47.72836" lon="-1.85969">
        <ele>41.5</ele>
      </trkpt>
      <trkpt lat="47.72839" lon="-1.85967">
        <ele>41.3</ele>
      </trkpt>
      <trkpt lat="47.72843" lon="-1.85964">
        <ele>41.1</ele>
      </trkpt>
      <trkpt lat="47.72847" lon="-1.85962">
        <ele>40.8</ele>
      </trkpt>
      <trkpt lat="47.7285" lon="-1.8596">
        <ele>40.6</ele>
      </trkpt>
      <trkpt lat="47.72854" lon="-1.85955">
        <ele>40.3</ele>
      </trkpt>
      <trkpt lat="47.72857" lon="-1.85951">
        <ele>40.1</ele>
      </trkpt>
      <trkpt lat="47.72861" lon="-1.85948">
        <ele>39.9</ele>
      </trkpt>
      <trkpt lat="47.72864" lon="-1.85944">
        <ele>39.6</ele>
      </trkpt>
      <trkpt lat="47.72866" lon="-1.8594">
        <ele>39.4</ele>
      </trkpt>
      <trkpt lat="47.72867" lon="-1.85938">
        <ele>39.3</ele>
      </trkpt>
      <trkpt lat="47.72866" lon="-1.85934">
        <ele>39.3</ele>
      </trkpt>
      <trkpt lat="47.72867" lon="-1.85928">
        <ele>39.2</ele>
      </trkpt>
      <trkpt lat="47.72868" lon="-1.85924">
        <ele>39.1</ele>
      </trkpt>
      <trkpt lat="47.72869" lon="-1.85919">
        <ele>38.9</ele>
      </trkpt>
      <trkpt lat="47.7287" lon="-1.85915">
        <ele>38.8</ele>
      </trkpt>
      <trkpt lat="47.72871" lon="-1.8591">
        <ele>38.7</ele>
      </trkpt>
      <trkpt lat="47.72872" lon="-1.85905">
        <ele>38.5</ele>
      </trkpt>
      <trkpt lat="47.72874" lon="-1.859">
        <ele>38.4</ele>
      </trkpt>
      <trkpt lat="47.72873" lon="-1.85895">
        <ele>38.3</ele>
      </trkpt>
      <trkpt lat="47.72874" lon="-1.85891">
        <ele>38.3</ele>
      </trkpt>
      <trkpt lat="47.72875" lon="-1.85888">
        <ele>38.1</ele>
      </trkpt>
      <trkpt lat="47.72877" lon="-1.85885">
        <ele>38</ele>
      </trkpt>
      <trkpt lat="47.72876" lon="-1.85882">
        <ele>38</ele>
      </trkpt>
      <trkpt lat="47.72876" lon="-1.85879">
        <ele>38</ele>
      </trkpt>
      <trkpt lat="47.72877" lon="-1.85876">
        <ele>37.9</ele>
      </trkpt>
      <trkpt lat="47.72878" lon="-1.85873">
        <ele>37.8</ele>
      </trkpt>
      <trkpt lat="47.7288" lon="-1.85871">
        <ele>37.7</ele>
      </trkpt>
      <trkpt lat="47.72885" lon="-1.85866">
        <ele>37.3</ele>
      </trkpt>
      <trkpt lat="47.72886" lon="-1.85865">
        <ele>37.2</ele>
      </trkpt>
      <trkpt lat="47.72888" lon="-1.85863">
        <ele>37.1</ele>
      </trkpt>
      <trkpt lat="47.72891" lon="-1.8586">
        <ele>36.8</ele>
      </trkpt>
      <trkpt lat="47.72894" lon="-1.85858">
        <ele>36.6</ele>
      </trkpt>
      <trkpt lat="47.72896" lon="-1.85858">
        <ele>36.5</ele>
      </trkpt>
      <trkpt lat="47.72898" lon="-1.85859">
        <ele>36.5</ele>
      </trkpt>
      <trkpt lat="47.72898" lon="-1.85862">
        <ele>36.4</ele>
      </trkpt>
      <trkpt lat="47.72898" lon="-1.85866">
        <ele>36.5</ele>
      </trkpt>
      <trkpt lat="47.72898" lon="-1.8587">
        <ele>36.6</ele>
      </trkpt>
      <trkpt lat="47.72898" lon="-1.85873">
        <ele>36.6</ele>
      </trkpt>
      <trkpt lat="47.72898" lon="-1.85876">
        <ele>36.6</ele>
      </trkpt>
      <trkpt lat="47.72898" lon="-1.85879">
        <ele>36.6</ele>
      </trkpt>
      <trkpt lat="47.72899" lon="-1.85883">
        <ele>36.7</ele>
      </trkpt>
      <trkpt lat="47.72899" lon="-1.85887">
        <ele>36.7</ele>
      </trkpt>
      <trkpt lat="47.72899" lon="-1.85891">
        <ele>36.8</ele>
      </trkpt>
      <trkpt lat="47.72899" lon="-1.85895">
        <ele>36.8</ele>
      </trkpt>
      <trkpt lat="47.72899" lon="-1.859">
        <ele>36.9</ele>
      </trkpt>
      <trkpt lat="47.72899" lon="-1.85904">
        <ele>36.9</ele>
      </trkpt>
      <trkpt lat="47.72899" lon="-1.8591">
        <ele>37</ele>
      </trkpt>
      <trkpt lat="47.729" lon="-1.85914">
        <ele>37</ele>
      </trkpt>
      <trkpt lat="47.729" lon="-1.85918">
        <ele>37</ele>
      </trkpt>
      <trkpt lat="47.729" lon="-1.85922">
        <ele>37.1</ele>
      </trkpt>
      <trkpt lat="47.72899" lon="-1.85926">
        <ele>37.3</ele>
      </trkpt>
      <trkpt lat="47.72899" lon="-1.8593">
        <ele>37.3</ele>
      </trkpt>
      <trkpt lat="47.72902" lon="-1.85932">
        <ele>37.2</ele>
      </trkpt>
      <trkpt lat="47.72905" lon="-1.85934">
        <ele>37.1</ele>
      </trkpt>
      <trkpt lat="47.72909" lon="-1.85935">
        <ele>36.9</ele>
      </trkpt>
      <trkpt lat="47.72912" lon="-1.85937">
        <ele>36.7</ele>
      </trkpt>
      <trkpt lat="47.72914" lon="-1.8594">
        <ele>36.7</ele>
      </trkpt>
      <trkpt lat="47.72916" lon="-1.85944">
        <ele>36.7</ele>
      </trkpt>
      <trkpt lat="47.72919" lon="-1.85947">
        <ele>36.7</ele>
      </trkpt>
      <trkpt lat="47.72921" lon="-1.85951">
        <ele>36.8</ele>
      </trkpt>
      <trkpt lat="47.72923" lon="-1.85955">
        <ele>37</ele>
      </trkpt>
      <trkpt lat="47.72925" lon="-1.85962">
        <ele>37.1</ele>
      </trkpt>
      <trkpt lat="47.72926" lon="-1.85965">
        <ele>37.2</ele>
      </trkpt>
      <trkpt lat="47.72925" lon="-1.85969">
        <ele>37.3</ele>
      </trkpt>
      <trkpt lat="47.72924" lon="-1.85971">
        <ele>37.3</ele>
      </trkpt>
      <trkpt lat="47.72922" lon="-1.85974">
        <ele>37.4</ele>
      </trkpt>
      <trkpt lat="47.7292" lon="-1.85978">
        <ele>37.5</ele>
      </trkpt>
      <trkpt lat="47.7292" lon="-1.85982">
        <ele>37.6</ele>
      </trkpt>
      <trkpt lat="47.72921" lon="-1.85987">
        <ele>37.7</ele>
      </trkpt>
      <trkpt lat="47.72923" lon="-1.85989">
        <ele>37.7</ele>
      </trkpt>
      <trkpt lat="47.72925" lon="-1.8599">
        <ele>37.8</ele>
      </trkpt>
      <trkpt lat="47.72926" lon="-1.85992">
        <ele>37.8</ele>
      </trkpt>
      <trkpt lat="47.72926" lon="-1.85996">
        <ele>37.9</ele>
      </trkpt>
      <trkpt lat="47.72927" lon="-1.86">
        <ele>38</ele>
      </trkpt>
      <trkpt lat="47.72927" lon="-1.86003">
        <ele>38</ele>
      </trkpt>
      <trkpt lat="47.72929" lon="-1.86006">
        <ele>38.1</ele>
      </trkpt>
      <trkpt lat="47.7293" lon="-1.8601">
        <ele>38.1</ele>
      </trkpt>
      <trkpt lat="47.7293" lon="-1.86014">
        <ele>38.2</ele>
      </trkpt>
      <trkpt lat="47.7293" lon="-1.86019">
        <ele>38.2</ele>
      </trkpt>
      <trkpt lat="47.72931" lon="-1.86023">
        <ele>38.3</ele>
      </trkpt>
      <trkpt lat="47.7293" lon="-1.86028">
        <ele>38.3</ele>
      </trkpt>
      <trkpt lat="47.7293" lon="-1.86032">
        <ele>38.4</ele>
      </trkpt>
      <trkpt lat="47.7293" lon="-1.86036">
        <ele>38.4</ele>
      </trkpt>
      <trkpt lat="47.7293" lon="-1.8604">
        <ele>38.5</ele>
      </trkpt>
      <trkpt lat="47.7293" lon="-1.86045">
        <ele>38.5</ele>
      </trkpt>
      <trkpt lat="47.7293" lon="-1.86051">
        <ele>38.6</ele>
      </trkpt>
      <trkpt lat="47.7293" lon="-1.86056">
        <ele>38.7</ele>
      </trkpt>
      <trkpt lat="47.72931" lon="-1.8606">
        <ele>38.7</ele>
      </trkpt>
      <trkpt lat="47.72931" lon="-1.86065">
        <ele>38.8</ele>
      </trkpt>
      <trkpt lat="47.72931" lon="-1.86068">
        <ele>38.8</ele>
      </trkpt>
      <trkpt lat="47.72931" lon="-1.86073">
        <ele>38.9</ele>
      </trkpt>
      <trkpt lat="47.72931" lon="-1.86077">
        <ele>38.9</ele>
      </trkpt>
      <trkpt lat="47.72931" lon="-1.86081">
        <ele>39</ele>
      </trkpt>
      <trkpt lat="47.7293" lon="-1.86086">
        <ele>39</ele>
      </trkpt>
      <trkpt lat="47.7293" lon="-1.86092">
        <ele>39.1</ele>
      </trkpt>
      <trkpt lat="47.7293" lon="-1.86097">
        <ele>39.2</ele>
      </trkpt>
      <trkpt lat="47.7293" lon="-1.86102">
        <ele>39.3</ele>
      </trkpt>
      <trkpt lat="47.72931" lon="-1.86106">
        <ele>39.4</ele>
      </trkpt>
      <trkpt lat="47.72933" lon="-1.86111">
        <ele>39.5</ele>
      </trkpt>
      <trkpt lat="47.72934" lon="-1.86115">
        <ele>39.5</ele>
      </trkpt>
      <trkpt lat="47.72935" lon="-1.86121">
        <ele>39.7</ele>
      </trkpt>
      <trkpt lat="47.72935" lon="-1.86126">
        <ele>39.7</ele>
      </trkpt>
      <trkpt lat="47.72935" lon="-1.86131">
        <ele>39.8</ele>
      </trkpt>
      <trkpt lat="47.72936" lon="-1.86134">
        <ele>39.9</ele>
      </trkpt>
      <trkpt lat="47.72937" lon="-1.86137">
        <ele>39.9</ele>
      </trkpt>
      <trkpt lat="47.72938" lon="-1.8614">
        <ele>40</ele>
      </trkpt>
      <trkpt lat="47.72937" lon="-1.86145">
        <ele>40.1</ele>
      </trkpt>
      <trkpt lat="47.72936" lon="-1.86148">
        <ele>40.1</ele>
      </trkpt>
      <trkpt lat="47.72934" lon="-1.86151">
        <ele>40.2</ele>
      </trkpt>
      <trkpt lat="47.72934" lon="-1.86153">
        <ele>40.2</ele>
      </trkpt>
      <trkpt lat="47.72933" lon="-1.86157">
        <ele>40.2</ele>
      </trkpt>
      <trkpt lat="47.72933" lon="-1.86162">
        <ele>40.3</ele>
      </trkpt>
      <trkpt lat="47.72934" lon="-1.86167">
        <ele>40.4</ele>
      </trkpt>
      <trkpt lat="47.72935" lon="-1.86171">
        <ele>40.5</ele>
      </trkpt>
      <trkpt lat="47.72937" lon="-1.86175">
        <ele>40.5</ele>
      </trkpt>
      <trkpt lat="47.72937" lon="-1.86181">
        <ele>40.5</ele>
      </trkpt>
      <trkpt lat="47.72937" lon="-1.86185">
        <ele>40.5</ele>
      </trkpt>
      <trkpt lat="47.72937" lon="-1.86188">
        <ele>40.6</ele>
      </trkpt>
      <trkpt lat="47.72937" lon="-1.8619">
        <ele>40.6</ele>
      </trkpt>
      <trkpt lat="47.72937" lon="-1.86194">
        <ele>40.6</ele>
      </trkpt>
      <trkpt lat="47.72936" lon="-1.86197">
        <ele>40.6</ele>
      </trkpt>
      <trkpt lat="47.72935" lon="-1.86201">
        <ele>40.5</ele>
      </trkpt>
      <trkpt lat="47.72935" lon="-1.86204">
        <ele>40.5</ele>
      </trkpt>
      <trkpt lat="47.72933" lon="-1.86211">
        <ele>40.5</ele>
      </trkpt>
      <trkpt lat="47.72933" lon="-1.86211">
        <ele>40.5</ele>
      </trkpt>
      <trkpt lat="47.72932" lon="-1.86217">
        <ele>40.5</ele>
      </trkpt>
      <trkpt lat="47.72932" lon="-1.86219">
        <ele>40.5</ele>
      </trkpt>
      <trkpt lat="47.72933" lon="-1.86221">
        <ele>40.5</ele>
      </trkpt>
      <trkpt lat="47.72933" lon="-1.86225">
        <ele>40.5</ele>
      </trkpt>
      <trkpt lat="47.72933" lon="-1.86228">
        <ele>40.5</ele>
      </trkpt>
      <trkpt lat="47.72933" lon="-1.86233">
        <ele>40.6</ele>
      </trkpt>
      <trkpt lat="47.72933" lon="-1.86237">
        <ele>40.6</ele>
      </trkpt>
      <trkpt lat="47.72932" lon="-1.86241">
        <ele>40.5</ele>
      </trkpt>
      <trkpt lat="47.72932" lon="-1.86243">
        <ele>40.5</ele>
      </trkpt>
      <trkpt lat="47.72931" lon="-1.86248">
        <ele>40.5</ele>
      </trkpt>
      <trkpt lat="47.72931" lon="-1.86251">
        <ele>40.5</ele>
      </trkpt>
      <trkpt lat="47.7293" lon="-1.86254">
        <ele>40.5</ele>
      </trkpt>
      <trkpt lat="47.7293" lon="-1.86258">
        <ele>40.6</ele>
      </trkpt>
      <trkpt lat="47.7293" lon="-1.86263">
        <ele>40.7</ele>
      </trkpt>
      <trkpt lat="47.7293" lon="-1.86266">
        <ele>40.7</ele>
      </trkpt>
      <trkpt lat="47.7293" lon="-1.86269">
        <ele>40.7</ele>
      </trkpt>
      <trkpt lat="47.7293" lon="-1.86273">
        <ele>40.8</ele>
      </trkpt>
      <trkpt lat="47.7293" lon="-1.86277">
        <ele>40.8</ele>
      </trkpt>
      <trkpt lat="47.7293" lon="-1.86281">
        <ele>40.9</ele>
      </trkpt>
      <trkpt lat="47.7293" lon="-1.86286">
        <ele>41</ele>
      </trkpt>
      <trkpt lat="47.72931" lon="-1.8629">
        <ele>41.1</ele>
      </trkpt>
      <trkpt lat="47.72931" lon="-1.86295">
        <ele>41.1</ele>
      </trkpt>
      <trkpt lat="47.72931" lon="-1.86299">
        <ele>41.2</ele>
      </trkpt>
      <trkpt lat="47.72931" lon="-1.86302">
        <ele>41.3</ele>
      </trkpt>
      <trkpt lat="47.72931" lon="-1.86306">
        <ele>41.3</ele>
      </trkpt>
      <trkpt lat="47.72932" lon="-1.86309">
        <ele>41.4</ele>
      </trkpt>
      <trkpt lat="47.72933" lon="-1.86312">
        <ele>41.5</ele>
      </trkpt>
      <trkpt lat="47.72934" lon="-1.86313">
        <ele>41.5</ele>
      </trkpt>
      <trkpt lat="47.72934" lon="-1.86314">
        <ele>41.6</ele>
      </trkpt>
      <trkpt lat="47.72936" lon="-1.86315">
        <ele>41.7</ele>
      </trkpt>
      <trkpt lat="47.72938" lon="-1.86316">
        <ele>41.7</ele>
      </trkpt>
      <trkpt lat="47.7294" lon="-1.86316">
        <ele>41.9</ele>
      </trkpt>
      <trkpt lat="47.72943" lon="-1.86316">
        <ele>42</ele>
      </trkpt>
      <trkpt lat="47.72945" lon="-1.86315">
        <ele>42.1</ele>
      </trkpt>
      <trkpt lat="47.72947" lon="-1.86314">
        <ele>42.1</ele>
      </trkpt>
      <trkpt lat="47.7295" lon="-1.86312">
        <ele>42.2</ele>
      </trkpt>
      <trkpt lat="47.72953" lon="-1.8631">
        <ele>42.4</ele>
      </trkpt>
      <trkpt lat="47.72957" lon="-1.86309">
        <ele>42.5</ele>
      </trkpt>
      <trkpt lat="47.7296" lon="-1.86306">
        <ele>42.6</ele>
      </trkpt>
      <trkpt lat="47.72963" lon="-1.86304">
        <ele>42.7</ele>
      </trkpt>
      <trkpt lat="47.72966" lon="-1.86301">
        <ele>42.8</ele>
      </trkpt>
      <trkpt lat="47.72969" lon="-1.86299">
        <ele>42.8</ele>
      </trkpt>
      <trkpt lat="47.72972" lon="-1.86295">
        <ele>42.9</ele>
      </trkpt>
      <trkpt lat="47.72975" lon="-1.86292">
        <ele>43</ele>
      </trkpt>
      <trkpt lat="47.72977" lon="-1.86288">
        <ele>43</ele>
      </trkpt>
      <trkpt lat="47.72979" lon="-1.86285">
        <ele>43</ele>
      </trkpt>
      <trkpt lat="47.72982" lon="-1.86281">
        <ele>43</ele>
      </trkpt>
      <trkpt lat="47.72984" lon="-1.86276">
        <ele>43</ele>
      </trkpt>
      <trkpt lat="47.72986" lon="-1.86272">
        <ele>43</ele>
      </trkpt>
      <trkpt lat="47.72988" lon="-1.86267">
        <ele>42.9</ele>
      </trkpt>
      <trkpt lat="47.7299" lon="-1.86262">
        <ele>42.9</ele>
      </trkpt>
      <trkpt lat="47.72992" lon="-1.86258">
        <ele>42.9</ele>
      </trkpt>
      <trkpt lat="47.72994" lon="-1.86253">
        <ele>42.9</ele>
      </trkpt>
      <trkpt lat="47.72996" lon="-1.86249">
        <ele>42.8</ele>
      </trkpt>
      <trkpt lat="47.72998" lon="-1.86246">
        <ele>42.9</ele>
      </trkpt>
      <trkpt lat="47.73" lon="-1.86243">
        <ele>42.9</ele>
      </trkpt>
      <trkpt lat="47.73001" lon="-1.8624">
        <ele>43.1</ele>
      </trkpt>
      <trkpt lat="47.73003" lon="-1.86236">
        <ele>43.2</ele>
      </trkpt>
      <trkpt lat="47.73004" lon="-1.86233">
        <ele>43.3</ele>
      </trkpt>
      <trkpt lat="47.73006" lon="-1.8623">
        <ele>43.5</ele>
      </trkpt>
      <trkpt lat="47.73007" lon="-1.86227">
        <ele>43.7</ele>
      </trkpt>
      <trkpt lat="47.73008" lon="-1.86224">
        <ele>43.8</ele>
      </trkpt>
      <trkpt lat="47.7301" lon="-1.86221">
        <ele>44</ele>
      </trkpt>
      <trkpt lat="47.73011" lon="-1.86217">
        <ele>44.1</ele>
      </trkpt>
      <trkpt lat="47.73013" lon="-1.86214">
        <ele>44.3</ele>
      </trkpt>
      <trkpt lat="47.73014" lon="-1.86211">
        <ele>44.5</ele>
      </trkpt>
      <trkpt lat="47.73016" lon="-1.86208">
        <ele>44.7</ele>
      </trkpt>
      <trkpt lat="47.73017" lon="-1.86205">
        <ele>44.9</ele>
      </trkpt>
      <trkpt lat="47.73019" lon="-1.86203">
        <ele>45.1</ele>
      </trkpt>
      <trkpt lat="47.73021" lon="-1.862">
        <ele>45.3</ele>
      </trkpt>
      <trkpt lat="47.73023" lon="-1.86198">
        <ele>45.6</ele>
      </trkpt>
      <trkpt lat="47.73025" lon="-1.86195">
        <ele>45.8</ele>
      </trkpt>
      <trkpt lat="47.73027" lon="-1.86193">
        <ele>46.1</ele>
      </trkpt>
      <trkpt lat="47.73028" lon="-1.8619">
        <ele>46.3</ele>
      </trkpt>
      <trkpt lat="47.7303" lon="-1.86188">
        <ele>46.5</ele>
      </trkpt>
      <trkpt lat="47.73032" lon="-1.86186">
        <ele>46.7</ele>
      </trkpt>
      <trkpt lat="47.73033" lon="-1.86184">
        <ele>46.9</ele>
      </trkpt>
      <trkpt lat="47.73035" lon="-1.86182">
        <ele>47.2</ele>
      </trkpt>
      <trkpt lat="47.73037" lon="-1.8618">
        <ele>47.5</ele>
      </trkpt>
      <trkpt lat="47.73039" lon="-1.86177">
        <ele>47.7</ele>
      </trkpt>
      <trkpt lat="47.73041" lon="-1.86175">
        <ele>48</ele>
      </trkpt>
      <trkpt lat="47.73043" lon="-1.86173">
        <ele>48.3</ele>
      </trkpt>
      <trkpt lat="47.73045" lon="-1.86171">
        <ele>48.5</ele>
      </trkpt>
      <trkpt lat="47.73047" lon="-1.86169">
        <ele>48.8</ele>
      </trkpt>
      <trkpt lat="47.73049" lon="-1.86167">
        <ele>49.1</ele>
      </trkpt>
      <trkpt lat="47.73053" lon="-1.86163">
        <ele>49.5</ele>
      </trkpt>
      <trkpt lat="47.73053" lon="-1.86163">
        <ele>49.5</ele>
      </trkpt>
      <trkpt lat="47.73055" lon="-1.86161">
        <ele>49.8</ele>
      </trkpt>
      <trkpt lat="47.73057" lon="-1.86159">
        <ele>50</ele>
      </trkpt>
      <trkpt lat="47.73059" lon="-1.86158">
        <ele>50.3</ele>
      </trkpt>
      <trkpt lat="47.7306" lon="-1.86156">
        <ele>50.5</ele>
      </trkpt>
      <trkpt lat="47.73062" lon="-1.86155">
        <ele>50.8</ele>
      </trkpt>
      <trkpt lat="47.73065" lon="-1.86154">
        <ele>51.1</ele>
      </trkpt>
      <trkpt lat="47.73067" lon="-1.86152">
        <ele>51.4</ele>
      </trkpt>
      <trkpt lat="47.73069" lon="-1.86152">
        <ele>51.7</ele>
      </trkpt>
      <trkpt lat="47.73071" lon="-1.86151">
        <ele>52</ele>
      </trkpt>
      <trkpt lat="47.73073" lon="-1.86151">
        <ele>52.3</ele>
      </trkpt>
      <trkpt lat="47.73075" lon="-1.86151">
        <ele>52.5</ele>
      </trkpt>
      <trkpt lat="47.73075" lon="-1.86151">
        <ele>52.6</ele>
      </trkpt>
      <trkpt lat="47.73075" lon="-1.86151">
        <ele>52.6</ele>
      </trkpt>
      <trkpt lat="47.73075" lon="-1.86151">
        <ele>52.6</ele>
      </trkpt>
      <trkpt lat="47.73075" lon="-1.86151">
        <ele>52.6</ele>
      </trkpt>
      <trkpt lat="47.73075" lon="-1.86151">
        <ele>52.6</ele>
      </trkpt>
      <trkpt lat="47.73075" lon="-1.86151">
        <ele>52.6</ele>
      </trkpt>
      <trkpt lat="47.73075" lon="-1.86151">
        <ele>52.6</ele>
      </trkpt>
      <trkpt lat="47.73075" lon="-1.86151">
        <ele>52.6</ele>
      </trkpt>
      <trkpt lat="47.73075" lon="-1.86151">
        <ele>52.6</ele>
      </trkpt>
      <trkpt lat="47.73075" lon="-1.86151">
        <ele>52.6</ele>
      </trkpt>
      <trkpt lat="47.73075" lon="-1.86151">
        <ele>52.6</ele>
      </trkpt>
      <trkpt lat="47.73075" lon="-1.86151">
        <ele>52.6</ele>
      </trkpt>
      <trkpt lat="47.73075" lon="-1.86151">
        <ele>52.5</ele>
      </trkpt>
      <trkpt lat="47.73075" lon="-1.86151">
        <ele>52.6</ele>
      </trkpt>
      <trkpt lat="47.73075" lon="-1.86151">
        <ele>52.6</ele>
      </trkpt>
      <trkpt lat="47.73075" lon="-1.86151">
        <ele>52.6</ele>
      </trkpt>
      <trkpt lat="47.73075" lon="-1.86151">
        <ele>52.6</ele>
      </trkpt>
      <trkpt lat="47.73075" lon="-1.86151">
        <ele>52.6</ele>
      </trkpt>
      <trkpt lat="47.73075" lon="-1.86151">
        <ele>52.6</ele>
      </trkpt>
    </trkseg>
  </trk>
  <trk>
    <name><![CDATA[Retour StJct]]></name>
    <desc><![CDATA[<p>Heure de départ: 11:59 27 mai 2021<br/>Heure d'arrivée: 17:40 27 mai 2021<br/>Distance: 57,4 km (05:40)<br/>Temps déplacement: 05:02<br/>Vitesse moyenne: 10,1 km/h<br/>Vitesse moyenne mouv.: 11,38 km/h<br/>Vitesse Max.: 33,89 km/h<br/>Altitude minimale: 6 m<br/>Altitude maximale: 79 m<br/>Vitesse de montée: 452,3 m/h<br/>Vitesse de descente: 719,6 m/h<br/>Gain d'altitude: 889 m<br/>Perte d'altitude: 827 m<br/>Temps de montée: 01:58<br/>Temps de descente: 01:08<br/></p><hr align="center" width="480" style="height: 2px; width: 517px"/>]]></desc>
    <trkseg>
      <trkpt lat="47.70627" lon="-2.36567">
        <ele>66.1</ele>
        <time>2021-05-27T12:05:57Z</time>
      </trkpt>
      <trkpt lat="47.70628" lon="-2.36565">
        <ele>66.2</ele>
        <time>2021-05-27T12:05:58Z</time>
      </trkpt>
      <trkpt lat="47.70629" lon="-2.36563">
        <ele>66.3</ele>
        <time>2021-05-27T12:05:59Z</time>
      </trkpt>
      <trkpt lat="47.70629" lon="-2.36561">
        <ele>66.4</ele>
        <time>2021-05-27T12:06:00Z</time>
      </trkpt>
      <trkpt lat="47.7063" lon="-2.36558">
        <ele>66.5</ele>
        <time>2021-05-27T12:06:01Z</time>
      </trkpt>
      <trkpt lat="47.7063" lon="-2.36556">
        <ele>66.5</ele>
        <time>2021-05-27T12:06:02Z</time>
      </trkpt>
      <trkpt lat="47.7063" lon="-2.36553">
        <ele>66.7</ele>
        <time>2021-05-27T12:06:03Z</time>
      </trkpt>
      <trkpt lat="47.70631" lon="-2.3655">
        <ele>66.8</ele>
        <time>2021-05-27T12:06:04Z</time>
      </trkpt>
      <trkpt lat="47.70632" lon="-2.36545">
        <ele>67</ele>
        <time>2021-05-27T12:06:05Z</time>
      </trkpt>
      <trkpt lat="47.70632" lon="-2.36541">
        <ele>67.1</ele>
        <time>2021-05-27T12:06:06Z</time>
      </trkpt>
      <trkpt lat="47.70633" lon="-2.36536">
        <ele>67.3</ele>
        <time>2021-05-27T12:06:07Z</time>
      </trkpt>
      <trkpt lat="47.70634" lon="-2.36532">
        <ele>67.6</ele>
        <time>2021-05-27T12:06:08Z</time>
      </trkpt>
      <trkpt lat="47.70636" lon="-2.36528">
        <ele>67.8</ele>
        <time>2021-05-27T12:06:09Z</time>
      </trkpt>
      <trkpt lat="47.70637" lon="-2.36524">
        <ele>68.1</ele>
        <time>2021-05-27T12:06:10Z</time>
      </trkpt>
      <trkpt lat="47.70638" lon="-2.36519">
        <ele>68.2</ele>
        <time>2021-05-27T12:06:11Z</time>
      </trkpt>
      <trkpt lat="47.70638" lon="-2.36515">
        <ele>68.3</ele>
        <time>2021-05-27T12:06:12Z</time>
      </trkpt>
      <trkpt lat="47.70639" lon="-2.3651">
        <ele>68.6</ele>
        <time>2021-05-27T12:06:13Z</time>
      </trkpt>
      <trkpt lat="47.70639" lon="-2.36507">
        <ele>68.7</ele>
        <time>2021-05-27T12:06:14Z</time>
      </trkpt>
      <trkpt lat="47.70639" lon="-2.36503">
        <ele>68.6</ele>
        <time>2021-05-27T12:06:15Z</time>
      </trkpt>
      <trkpt lat="47.70639" lon="-2.36499">
        <ele>68.8</ele>
        <time>2021-05-27T12:06:16Z</time>
      </trkpt>
      <trkpt lat="47.7064" lon="-2.36497">
        <ele>69</ele>
        <time>2021-05-27T12:06:17Z</time>
      </trkpt>
      <trkpt lat="47.70642" lon="-2.36495">
        <ele>69.2</ele>
        <time>2021-05-27T12:06:18Z</time>
      </trkpt>
      <trkpt lat="47.70643" lon="-2.36493">
        <ele>69.4</ele>
        <time>2021-05-27T12:06:19Z</time>
      </trkpt>
      <trkpt lat="47.70644" lon="-2.36492">
        <ele>69.6</ele>
        <time>2021-05-27T12:06:20Z</time>
      </trkpt>
      <trkpt lat="47.70646" lon="-2.36492">
        <ele>69.9</ele>
        <time>2021-05-27T12:06:21Z</time>
      </trkpt>
      <trkpt lat="47.70647" lon="-2.36491">
        <ele>70.1</ele>
        <time>2021-05-27T12:06:22Z</time>
      </trkpt>
      <trkpt lat="47.7065" lon="-2.36488">
        <ele>70.6</ele>
        <time>2021-05-27T12:06:23Z</time>
      </trkpt>
      <trkpt lat="47.70652" lon="-2.36485">
        <ele>70.8</ele>
        <time>2021-05-27T12:06:24Z</time>
      </trkpt>
      <trkpt lat="47.70653" lon="-2.36483">
        <ele>71.2</ele>
        <time>2021-05-27T12:06:25Z</time>
      </trkpt>
      <trkpt lat="47.70655" lon="-2.36482">
        <ele>71.4</ele>
        <time>2021-05-27T12:06:26Z</time>
      </trkpt>
      <trkpt lat="47.70656" lon="-2.36481">
        <ele>71.6</ele>
        <time>2021-05-27T12:06:27Z</time>
      </trkpt>
      <trkpt lat="47.70658" lon="-2.36478">
        <ele>71.9</ele>
        <time>2021-05-27T12:06:28Z</time>
      </trkpt>
      <trkpt lat="47.70659" lon="-2.36476">
        <ele>72.1</ele>
        <time>2021-05-27T12:06:29Z</time>
      </trkpt>
      <trkpt lat="47.70659" lon="-2.36475">
        <ele>72.2</ele>
        <time>2021-05-27T12:06:30Z</time>
      </trkpt>
      <trkpt lat="47.7066" lon="-2.36472">
        <ele>72.4</ele>
        <time>2021-05-27T12:06:31Z</time>
      </trkpt>
      <trkpt lat="47.70662" lon="-2.36469">
        <ele>72.7</ele>
        <time>2021-05-27T12:06:32Z</time>
      </trkpt>
      <trkpt lat="47.70664" lon="-2.36467">
        <ele>73</ele>
        <time>2021-05-27T12:06:33Z</time>
      </trkpt>
      <trkpt lat="47.70666" lon="-2.36464">
        <ele>73.3</ele>
        <time>2021-05-27T12:06:34Z</time>
      </trkpt>
      <trkpt lat="47.70667" lon="-2.36462">
        <ele>73.4</ele>
        <time>2021-05-27T12:06:35Z</time>
      </trkpt>
      <trkpt lat="47.70668" lon="-2.36459">
        <ele>73.4</ele>
        <time>2021-05-27T12:06:36Z</time>
      </trkpt>
      <trkpt lat="47.70668" lon="-2.36457">
        <ele>73.4</ele>
        <time>2021-05-27T12:06:37Z</time>
      </trkpt>
      <trkpt lat="47.70668" lon="-2.36452">
        <ele>73.5</ele>
        <time>2021-05-27T12:06:38Z</time>
      </trkpt>
      <trkpt lat="47.70668" lon="-2.36449">
        <ele>73.5</ele>
        <time>2021-05-27T12:06:39Z</time>
      </trkpt>
      <trkpt lat="47.70669" lon="-2.36445">
        <ele>73.5</ele>
        <time>2021-05-27T12:06:40Z</time>
      </trkpt>
      <trkpt lat="47.70669" lon="-2.3644">
        <ele>73.5</ele>
        <time>2021-05-27T12:06:41Z</time>
      </trkpt>
      <trkpt lat="47.7067" lon="-2.36437">
        <ele>73.5</ele>
        <time>2021-05-27T12:06:42Z</time>
      </trkpt>
      <trkpt lat="47.7067" lon="-2.36433">
        <ele>73.5</ele>
        <time>2021-05-27T12:06:43Z</time>
      </trkpt>
      <trkpt lat="47.70671" lon="-2.3643">
        <ele>73.5</ele>
        <time>2021-05-27T12:06:44Z</time>
      </trkpt>
      <trkpt lat="47.70672" lon="-2.36427">
        <ele>73.4</ele>
        <time>2021-05-27T12:06:45Z</time>
      </trkpt>
      <trkpt lat="47.70673" lon="-2.36423">
        <ele>73.4</ele>
        <time>2021-05-27T12:06:46Z</time>
      </trkpt>
      <trkpt lat="47.70675" lon="-2.36419">
        <ele>73.3</ele>
        <time>2021-05-27T12:06:47Z</time>
      </trkpt>
      <trkpt lat="47.70675" lon="-2.36415">
        <ele>73.3</ele>
        <time>2021-05-27T12:06:48Z</time>
      </trkpt>
      <trkpt lat="47.70677" lon="-2.36411">
        <ele>73.2</ele>
        <time>2021-05-27T12:06:49Z</time>
      </trkpt>
      <trkpt lat="47.70679" lon="-2.36408">
        <ele>73</ele>
        <time>2021-05-27T12:06:50Z</time>
      </trkpt>
      <trkpt lat="47.70682" lon="-2.36405">
        <ele>72.7</ele>
        <time>2021-05-27T12:06:51Z</time>
      </trkpt>
      <trkpt lat="47.70684" lon="-2.36402">
        <ele>72.5</ele>
        <time>2021-05-27T12:06:52Z</time>
      </trkpt>
      <trkpt lat="47.70686" lon="-2.36397">
        <ele>72.3</ele>
        <time>2021-05-27T12:06:53Z</time>
      </trkpt>
      <trkpt lat="47.70687" lon="-2.36393">
        <ele>72.2</ele>
        <time>2021-05-27T12:06:54Z</time>
      </trkpt>
      <trkpt lat="47.70688" lon="-2.36389">
        <ele>72.2</ele>
        <time>2021-05-27T12:06:55Z</time>
      </trkpt>
      <trkpt lat="47.70688" lon="-2.36384">
        <ele>72.1</ele>
        <time>2021-05-27T12:06:56Z</time>
      </trkpt>
      <trkpt lat="47.70689" lon="-2.3638">
        <ele>72</ele>
        <time>2021-05-27T12:06:57Z</time>
      </trkpt>
      <trkpt lat="47.7069" lon="-2.36375">
        <ele>71.8</ele>
        <time>2021-05-27T12:06:58Z</time>
      </trkpt>
      <trkpt lat="47.70692" lon="-2.36371">
        <ele>71.6</ele>
        <time>2021-05-27T12:06:59Z</time>
      </trkpt>
      <trkpt lat="47.70693" lon="-2.36366">
        <ele>71.4</ele>
        <time>2021-05-27T12:07:00Z</time>
      </trkpt>
      <trkpt lat="47.70695" lon="-2.36361">
        <ele>71.2</ele>
        <time>2021-05-27T12:07:01Z</time>
      </trkpt>
      <trkpt lat="47.70697" lon="-2.36355">
        <ele>70.9</ele>
        <time>2021-05-27T12:07:02Z</time>
      </trkpt>
      <trkpt lat="47.70698" lon="-2.3635">
        <ele>70.7</ele>
        <time>2021-05-27T12:07:03Z</time>
      </trkpt>
      <trkpt lat="47.70698" lon="-2.36344">
        <ele>70.6</ele>
        <time>2021-05-27T12:07:04Z</time>
      </trkpt>
      <trkpt lat="47.70698" lon="-2.36339">
        <ele>70.5</ele>
        <time>2021-05-27T12:07:05Z</time>
      </trkpt>
      <trkpt lat="47.707" lon="-2.36334">
        <ele>70.2</ele>
        <time>2021-05-27T12:07:06Z</time>
      </trkpt>
      <trkpt lat="47.707" lon="-2.36328">
        <ele>70.1</ele>
        <time>2021-05-27T12:07:07Z</time>
      </trkpt>
      <trkpt lat="47.707" lon="-2.36324">
        <ele>70.1</ele>
        <time>2021-05-27T12:07:08Z</time>
      </trkpt>
      <trkpt lat="47.70698" lon="-2.36317">
        <ele>70.2</ele>
        <time>2021-05-27T12:07:09Z</time>
      </trkpt>
      <trkpt lat="47.70698" lon="-2.36311">
        <ele>70.3</ele>
        <time>2021-05-27T12:07:10Z</time>
      </trkpt>
      <trkpt lat="47.70697" lon="-2.36307">
        <ele>70.3</ele>
        <time>2021-05-27T12:07:11Z</time>
      </trkpt>
      <trkpt lat="47.70697" lon="-2.36302">
        <ele>70.3</ele>
        <time>2021-05-27T12:07:12Z</time>
      </trkpt>
      <trkpt lat="47.70696" lon="-2.36298">
        <ele>70.3</ele>
        <time>2021-05-27T12:07:13Z</time>
      </trkpt>
      <trkpt lat="47.70696" lon="-2.36294">
        <ele>70.2</ele>
        <time>2021-05-27T12:07:14Z</time>
      </trkpt>
      <trkpt lat="47.70696" lon="-2.36289">
        <ele>70.2</ele>
        <time>2021-05-27T12:07:15Z</time>
      </trkpt>
      <trkpt lat="47.70696" lon="-2.36284">
        <ele>70.1</ele>
        <time>2021-05-27T12:07:16Z</time>
      </trkpt>
      <trkpt lat="47.70697" lon="-2.36279">
        <ele>69.9</ele>
        <time>2021-05-27T12:07:17Z</time>
      </trkpt>
      <trkpt lat="47.70698" lon="-2.36274">
        <ele>69.7</ele>
        <time>2021-05-27T12:07:18Z</time>
      </trkpt>
      <trkpt lat="47.70698" lon="-2.36268">
        <ele>69.6</ele>
        <time>2021-05-27T12:07:19Z</time>
      </trkpt>
      <trkpt lat="47.70699" lon="-2.36263">
        <ele>69.5</ele>
        <time>2021-05-27T12:07:20Z</time>
      </trkpt>
      <trkpt lat="47.70699" lon="-2.36256">
        <ele>69.4</ele>
        <time>2021-05-27T12:07:21Z</time>
      </trkpt>
      <trkpt lat="47.70699" lon="-2.36251">
        <ele>69.4</ele>
        <time>2021-05-27T12:07:22Z</time>
      </trkpt>
      <trkpt lat="47.70699" lon="-2.36245">
        <ele>69.3</ele>
        <time>2021-05-27T12:07:23Z</time>
      </trkpt>
      <trkpt lat="47.70699" lon="-2.36239">
        <ele>69.3</ele>
        <time>2021-05-27T12:07:24Z</time>
      </trkpt>
      <trkpt lat="47.70699" lon="-2.36233">
        <ele>69.3</ele>
        <time>2021-05-27T12:07:25Z</time>
      </trkpt>
      <trkpt lat="47.70699" lon="-2.36227">
        <ele>69.2</ele>
        <time>2021-05-27T12:07:26Z</time>
      </trkpt>
      <trkpt lat="47.70699" lon="-2.36221">
        <ele>69.1</ele>
        <time>2021-05-27T12:07:27Z</time>
      </trkpt>
      <trkpt lat="47.70699" lon="-2.36215">
        <ele>69.1</ele>
        <time>2021-05-27T12:07:28Z</time>
      </trkpt>
      <trkpt lat="47.70699" lon="-2.36209">
        <ele>69.2</ele>
        <time>2021-05-27T12:07:29Z</time>
      </trkpt>
      <trkpt lat="47.70699" lon="-2.36203">
        <ele>69.2</ele>
        <time>2021-05-27T12:07:30Z</time>
      </trkpt>
      <trkpt lat="47.70698" lon="-2.36198">
        <ele>69.2</ele>
        <time>2021-05-27T12:07:31Z</time>
      </trkpt>
      <trkpt lat="47.70698" lon="-2.36192">
        <ele>69.3</ele>
        <time>2021-05-27T12:07:32Z</time>
      </trkpt>
      <trkpt lat="47.70698" lon="-2.36187">
        <ele>69.2</ele>
        <time>2021-05-27T12:07:33Z</time>
      </trkpt>
      <trkpt lat="47.70697" lon="-2.36181">
        <ele>69.3</ele>
        <time>2021-05-27T12:07:34Z</time>
      </trkpt>
      <trkpt lat="47.70697" lon="-2.36175">
        <ele>69.3</ele>
        <time>2021-05-27T12:07:35Z</time>
      </trkpt>
      <trkpt lat="47.70698" lon="-2.3617">
        <ele>69.2</ele>
        <time>2021-05-27T12:07:36Z</time>
      </trkpt>
      <trkpt lat="47.70697" lon="-2.36165">
        <ele>69.2</ele>
        <time>2021-05-27T12:07:37Z</time>
      </trkpt>
      <trkpt lat="47.70698" lon="-2.3616">
        <ele>69.2</ele>
        <time>2021-05-27T12:07:38Z</time>
      </trkpt>
      <trkpt lat="47.70698" lon="-2.36155">
        <ele>69.1</ele>
        <time>2021-05-27T12:07:39Z</time>
      </trkpt>
      <trkpt lat="47.70699" lon="-2.36151">
        <ele>68.9</ele>
        <time>2021-05-27T12:07:40Z</time>
      </trkpt>
      <trkpt lat="47.707" lon="-2.36147">
        <ele>68.7</ele>
        <time>2021-05-27T12:07:41Z</time>
      </trkpt>
      <trkpt lat="47.70702" lon="-2.36143">
        <ele>68.4</ele>
        <time>2021-05-27T12:07:42Z</time>
      </trkpt>
      <trkpt lat="47.70704" lon="-2.36139">
        <ele>68.1</ele>
        <time>2021-05-27T12:07:43Z</time>
      </trkpt>
      <trkpt lat="47.70705" lon="-2.36135">
        <ele>67.8</ele>
        <time>2021-05-27T12:07:44Z</time>
      </trkpt>
      <trkpt lat="47.70705" lon="-2.3613">
        <ele>67.7</ele>
        <time>2021-05-27T12:07:45Z</time>
      </trkpt>
      <trkpt lat="47.70705" lon="-2.36126">
        <ele>67.8</ele>
        <time>2021-05-27T12:07:46Z</time>
      </trkpt>
      <trkpt lat="47.70702" lon="-2.36123">
        <ele>68.2</ele>
        <time>2021-05-27T12:07:47Z</time>
      </trkpt>
      <trkpt lat="47.70701" lon="-2.36119">
        <ele>68.4</ele>
        <time>2021-05-27T12:07:48Z</time>
      </trkpt>
      <trkpt lat="47.707" lon="-2.36115">
        <ele>68.5</ele>
        <time>2021-05-27T12:07:49Z</time>
      </trkpt>
      <trkpt lat="47.70699" lon="-2.36111">
        <ele>68.6</ele>
        <time>2021-05-27T12:07:50Z</time>
      </trkpt>
      <trkpt lat="47.70698" lon="-2.36106">
        <ele>68.9</ele>
        <time>2021-05-27T12:07:51Z</time>
      </trkpt>
      <trkpt lat="47.70695" lon="-2.361">
        <ele>69.3</ele>
        <time>2021-05-27T12:07:52Z</time>
      </trkpt>
      <trkpt lat="47.70693" lon="-2.36095">
        <ele>69.6</ele>
        <time>2021-05-27T12:07:53Z</time>
      </trkpt>
      <trkpt lat="47.70691" lon="-2.3609">
        <ele>69.9</ele>
        <time>2021-05-27T12:07:54Z</time>
      </trkpt>
      <trkpt lat="47.7069" lon="-2.36086">
        <ele>70.1</ele>
        <time>2021-05-27T12:07:55Z</time>
      </trkpt>
      <trkpt lat="47.7069" lon="-2.36082">
        <ele>70.2</ele>
        <time>2021-05-27T12:07:56Z</time>
      </trkpt>
      <trkpt lat="47.70689" lon="-2.36077">
        <ele>70.5</ele>
        <time>2021-05-27T12:07:57Z</time>
      </trkpt>
      <trkpt lat="47.70689" lon="-2.36073">
        <ele>70.7</ele>
        <time>2021-05-27T12:07:58Z</time>
      </trkpt>
      <trkpt lat="47.70689" lon="-2.36067">
        <ele>70.9</ele>
        <time>2021-05-27T12:07:59Z</time>
      </trkpt>
      <trkpt lat="47.70689" lon="-2.36062">
        <ele>71.1</ele>
        <time>2021-05-27T12:08:00Z</time>
      </trkpt>
      <trkpt lat="47.70688" lon="-2.36058">
        <ele>71.3</ele>
        <time>2021-05-27T12:08:01Z</time>
      </trkpt>
      <trkpt lat="47.70689" lon="-2.36055">
        <ele>71.3</ele>
        <time>2021-05-27T12:08:02Z</time>
      </trkpt>
      <trkpt lat="47.70689" lon="-2.36052">
        <ele>71.3</ele>
        <time>2021-05-27T12:08:03Z</time>
      </trkpt>
      <trkpt lat="47.70689" lon="-2.3605">
        <ele>71.3</ele>
        <time>2021-05-27T12:08:04Z</time>
      </trkpt>
      <trkpt lat="47.7069" lon="-2.36047">
        <ele>71.3</ele>
        <time>2021-05-27T12:08:05Z</time>
      </trkpt>
      <trkpt lat="47.7069" lon="-2.36045">
        <ele>71.4</ele>
        <time>2021-05-27T12:08:06Z</time>
      </trkpt>
      <trkpt lat="47.7069" lon="-2.36042">
        <ele>71.5</ele>
        <time>2021-05-27T12:08:07Z</time>
      </trkpt>
      <trkpt lat="47.7069" lon="-2.36038">
        <ele>71.6</ele>
        <time>2021-05-27T12:08:08Z</time>
      </trkpt>
      <trkpt lat="47.70691" lon="-2.36034">
        <ele>71.7</ele>
        <time>2021-05-27T12:08:09Z</time>
      </trkpt>
      <trkpt lat="47.70691" lon="-2.3603">
        <ele>71.8</ele>
        <time>2021-05-27T12:08:10Z</time>
      </trkpt>
      <trkpt lat="47.70691" lon="-2.36026">
        <ele>71.9</ele>
        <time>2021-05-27T12:08:11Z</time>
      </trkpt>
      <trkpt lat="47.7069" lon="-2.36021">
        <ele>72.2</ele>
        <time>2021-05-27T12:08:12Z</time>
      </trkpt>
      <trkpt lat="47.70689" lon="-2.36017">
        <ele>72.5</ele>
        <time>2021-05-27T12:08:13Z</time>
      </trkpt>
      <trkpt lat="47.70688" lon="-2.36013">
        <ele>72.9</ele>
        <time>2021-05-27T12:08:14Z</time>
      </trkpt>
      <trkpt lat="47.70688" lon="-2.36008">
        <ele>73.1</ele>
        <time>2021-05-27T12:08:15Z</time>
      </trkpt>
      <trkpt lat="47.70687" lon="-2.36004">
        <ele>73.4</ele>
        <time>2021-05-27T12:08:16Z</time>
      </trkpt>
      <trkpt lat="47.70686" lon="-2.36">
        <ele>73.7</ele>
        <time>2021-05-27T12:08:17Z</time>
      </trkpt>
      <trkpt lat="47.70686" lon="-2.35996">
        <ele>73.7</ele>
        <time>2021-05-27T12:08:18Z</time>
      </trkpt>
      <trkpt lat="47.70685" lon="-2.3599">
        <ele>73.8</ele>
        <time>2021-05-27T12:08:19Z</time>
      </trkpt>
      <trkpt lat="47.70684" lon="-2.35985">
        <ele>74</ele>
        <time>2021-05-27T12:08:20Z</time>
      </trkpt>
      <trkpt lat="47.70683" lon="-2.35981">
        <ele>74.2</ele>
        <time>2021-05-27T12:08:21Z</time>
      </trkpt>
      <trkpt lat="47.70682" lon="-2.35977">
        <ele>74.4</ele>
        <time>2021-05-27T12:08:22Z</time>
      </trkpt>
      <trkpt lat="47.70682" lon="-2.35972">
        <ele>74.4</ele>
        <time>2021-05-27T12:08:23Z</time>
      </trkpt>
      <trkpt lat="47.70681" lon="-2.35966">
        <ele>74.6</ele>
        <time>2021-05-27T12:08:24Z</time>
      </trkpt>
      <trkpt lat="47.7068" lon="-2.3596">
        <ele>74.7</ele>
        <time>2021-05-27T12:08:25Z</time>
      </trkpt>
      <trkpt lat="47.70679" lon="-2.35955">
        <ele>75.1</ele>
        <time>2021-05-27T12:08:26Z</time>
      </trkpt>
      <trkpt lat="47.70678" lon="-2.3595">
        <ele>75.2</ele>
        <time>2021-05-27T12:08:27Z</time>
      </trkpt>
      <trkpt lat="47.70679" lon="-2.35946">
        <ele>75.2</ele>
        <time>2021-05-27T12:08:28Z</time>
      </trkpt>
      <trkpt lat="47.70679" lon="-2.35942">
        <ele>75.2</ele>
        <time>2021-05-27T12:08:29Z</time>
      </trkpt>
      <trkpt lat="47.70679" lon="-2.35938">
        <ele>74.8</ele>
        <time>2021-05-27T12:08:30Z</time>
      </trkpt>
      <trkpt lat="47.70681" lon="-2.35934">
        <ele>74.5</ele>
        <time>2021-05-27T12:08:31Z</time>
      </trkpt>
      <trkpt lat="47.70682" lon="-2.35928">
        <ele>74</ele>
        <time>2021-05-27T12:08:32Z</time>
      </trkpt>
      <trkpt lat="47.70682" lon="-2.35923">
        <ele>73.7</ele>
        <time>2021-05-27T12:08:33Z</time>
      </trkpt>
      <trkpt lat="47.70682" lon="-2.35917">
        <ele>73.9</ele>
        <time>2021-05-27T12:08:34Z</time>
      </trkpt>
      <trkpt lat="47.70681" lon="-2.35911">
        <ele>74.1</ele>
        <time>2021-05-27T12:08:35Z</time>
      </trkpt>
      <trkpt lat="47.70679" lon="-2.35905">
        <ele>74.5</ele>
        <time>2021-05-27T12:08:36Z</time>
      </trkpt>
      <trkpt lat="47.70677" lon="-2.35901">
        <ele>74.9</ele>
        <time>2021-05-27T12:08:37Z</time>
      </trkpt>
      <trkpt lat="47.70675" lon="-2.35896">
        <ele>75.4</ele>
        <time>2021-05-27T12:08:38Z</time>
      </trkpt>
      <trkpt lat="47.70673" lon="-2.3589">
        <ele>75.8</ele>
        <time>2021-05-27T12:08:39Z</time>
      </trkpt>
      <trkpt lat="47.70671" lon="-2.35885">
        <ele>76.2</ele>
        <time>2021-05-27T12:08:40Z</time>
      </trkpt>
      <trkpt lat="47.70669" lon="-2.3588">
        <ele>76.7</ele>
        <time>2021-05-27T12:08:41Z</time>
      </trkpt>
      <trkpt lat="47.70669" lon="-2.35876">
        <ele>76.7</ele>
        <time>2021-05-27T12:08:42Z</time>
      </trkpt>
      <trkpt lat="47.70668" lon="-2.35872">
        <ele>76.9</ele>
        <time>2021-05-27T12:08:43Z</time>
      </trkpt>
      <trkpt lat="47.70669" lon="-2.35871">
        <ele>76.7</ele>
        <time>2021-05-27T12:08:44Z</time>
      </trkpt>
      <trkpt lat="47.70669" lon="-2.35868">
        <ele>76.6</ele>
        <time>2021-05-27T12:08:45Z</time>
      </trkpt>
      <trkpt lat="47.70669" lon="-2.35864">
        <ele>76.4</ele>
        <time>2021-05-27T12:08:46Z</time>
      </trkpt>
      <trkpt lat="47.70669" lon="-2.3586">
        <ele>76.2</ele>
        <time>2021-05-27T12:08:47Z</time>
      </trkpt>
      <trkpt lat="47.70668" lon="-2.35855">
        <ele>76.2</ele>
        <time>2021-05-27T12:08:48Z</time>
      </trkpt>
      <trkpt lat="47.70667" lon="-2.35851">
        <ele>76.5</ele>
        <time>2021-05-27T12:08:49Z</time>
      </trkpt>
      <trkpt lat="47.70665" lon="-2.35844">
        <ele>76.3</ele>
        <time>2021-05-27T12:08:50Z</time>
      </trkpt>
      <trkpt lat="47.70663" lon="-2.35838">
        <ele>76.1</ele>
        <time>2021-05-27T12:08:51Z</time>
      </trkpt>
      <trkpt lat="47.70663" lon="-2.35833">
        <ele>75.9</ele>
        <time>2021-05-27T12:08:52Z</time>
      </trkpt>
      <trkpt lat="47.70662" lon="-2.35827">
        <ele>75.7</ele>
        <time>2021-05-27T12:08:53Z</time>
      </trkpt>
      <trkpt lat="47.70661" lon="-2.3582">
        <ele>75.4</ele>
        <time>2021-05-27T12:08:54Z</time>
      </trkpt>
      <trkpt lat="47.7066" lon="-2.35814">
        <ele>75.2</ele>
        <time>2021-05-27T12:08:55Z</time>
      </trkpt>
      <trkpt lat="47.7066" lon="-2.35808">
        <ele>75</ele>
        <time>2021-05-27T12:08:56Z</time>
      </trkpt>
      <trkpt lat="47.70661" lon="-2.35803">
        <ele>74.8</ele>
        <time>2021-05-27T12:08:57Z</time>
      </trkpt>
      <trkpt lat="47.70662" lon="-2.35798">
        <ele>74.7</ele>
        <time>2021-05-27T12:08:58Z</time>
      </trkpt>
      <trkpt lat="47.70662" lon="-2.35794">
        <ele>74.5</ele>
        <time>2021-05-27T12:08:59Z</time>
      </trkpt>
      <trkpt lat="47.70662" lon="-2.35788">
        <ele>74.3</ele>
        <time>2021-05-27T12:09:00Z</time>
      </trkpt>
      <trkpt lat="47.70662" lon="-2.35782">
        <ele>74.1</ele>
        <time>2021-05-27T12:09:01Z</time>
      </trkpt>
      <trkpt lat="47.70661" lon="-2.35776">
        <ele>73.9</ele>
        <time>2021-05-27T12:09:02Z</time>
      </trkpt>
      <trkpt lat="47.70661" lon="-2.3577">
        <ele>73.8</ele>
        <time>2021-05-27T12:09:03Z</time>
      </trkpt>
      <trkpt lat="47.70659" lon="-2.35765">
        <ele>73.6</ele>
        <time>2021-05-27T12:09:04Z</time>
      </trkpt>
      <trkpt lat="47.70656" lon="-2.35758">
        <ele>73.4</ele>
        <time>2021-05-27T12:09:05Z</time>
      </trkpt>
      <trkpt lat="47.70655" lon="-2.35752">
        <ele>73.2</ele>
        <time>2021-05-27T12:09:06Z</time>
      </trkpt>
      <trkpt lat="47.70656" lon="-2.35745">
        <ele>73</ele>
        <time>2021-05-27T12:09:07Z</time>
      </trkpt>
      <trkpt lat="47.70656" lon="-2.3574">
        <ele>72.9</ele>
        <time>2021-05-27T12:09:08Z</time>
      </trkpt>
      <trkpt lat="47.70655" lon="-2.35734">
        <ele>72.8</ele>
        <time>2021-05-27T12:09:09Z</time>
      </trkpt>
      <trkpt lat="47.70654" lon="-2.35729">
        <ele>72.7</ele>
        <time>2021-05-27T12:09:10Z</time>
      </trkpt>
      <trkpt lat="47.70652" lon="-2.35724">
        <ele>72.7</ele>
        <time>2021-05-27T12:09:11Z</time>
      </trkpt>
      <trkpt lat="47.70649" lon="-2.35721">
        <ele>72.7</ele>
        <time>2021-05-27T12:09:12Z</time>
      </trkpt>
      <trkpt lat="47.70645" lon="-2.35719">
        <ele>72.7</ele>
        <time>2021-05-27T12:09:13Z</time>
      </trkpt>
      <trkpt lat="47.70641" lon="-2.35715">
        <ele>72.7</ele>
        <time>2021-05-27T12:09:14Z</time>
      </trkpt>
      <trkpt lat="47.70639" lon="-2.35711">
        <ele>72.7</ele>
        <time>2021-05-27T12:09:15Z</time>
      </trkpt>
      <trkpt lat="47.70636" lon="-2.35707">
        <ele>72.7</ele>
        <time>2021-05-27T12:09:16Z</time>
      </trkpt>
      <trkpt lat="47.70633" lon="-2.35702">
        <ele>72.7</ele>
        <time>2021-05-27T12:09:17Z</time>
      </trkpt>
      <trkpt lat="47.7063" lon="-2.35697">
        <ele>72.7</ele>
        <time>2021-05-27T12:09:18Z</time>
      </trkpt>
      <trkpt lat="47.70629" lon="-2.35691">
        <ele>72.7</ele>
        <time>2021-05-27T12:09:19Z</time>
      </trkpt>
      <trkpt lat="47.70627" lon="-2.35685">
        <ele>72.7</ele>
        <time>2021-05-27T12:09:20Z</time>
      </trkpt>
      <trkpt lat="47.70625" lon="-2.35679">
        <ele>72.6</ele>
        <time>2021-05-27T12:09:21Z</time>
      </trkpt>
      <trkpt lat="47.70623" lon="-2.35674">
        <ele>72.6</ele>
        <time>2021-05-27T12:09:22Z</time>
      </trkpt>
      <trkpt lat="47.70622" lon="-2.35668">
        <ele>72.6</ele>
        <time>2021-05-27T12:09:23Z</time>
      </trkpt>
      <trkpt lat="47.7062" lon="-2.35662">
        <ele>72.8</ele>
        <time>2021-05-27T12:09:24Z</time>
      </trkpt>
      <trkpt lat="47.7062" lon="-2.35656">
        <ele>73.1</ele>
        <time>2021-05-27T12:09:25Z</time>
      </trkpt>
      <trkpt lat="47.7062" lon="-2.3565">
        <ele>73.3</ele>
        <time>2021-05-27T12:09:26Z</time>
      </trkpt>
      <trkpt lat="47.7062" lon="-2.35645">
        <ele>73.5</ele>
        <time>2021-05-27T12:09:27Z</time>
      </trkpt>
      <trkpt lat="47.70619" lon="-2.3564">
        <ele>73.7</ele>
        <time>2021-05-27T12:09:28Z</time>
      </trkpt>
      <trkpt lat="47.70616" lon="-2.35636">
        <ele>74</ele>
        <time>2021-05-27T12:09:29Z</time>
      </trkpt>
      <trkpt lat="47.70615" lon="-2.35632">
        <ele>74.2</ele>
        <time>2021-05-27T12:09:30Z</time>
      </trkpt>
      <trkpt lat="47.70613" lon="-2.35629">
        <ele>74.4</ele>
        <time>2021-05-27T12:09:31Z</time>
      </trkpt>
      <trkpt lat="47.70611" lon="-2.35627">
        <ele>74.6</ele>
        <time>2021-05-27T12:09:32Z</time>
      </trkpt>
      <trkpt lat="47.70609" lon="-2.35625">
        <ele>74.7</ele>
        <time>2021-05-27T12:09:33Z</time>
      </trkpt>
      <trkpt lat="47.70609" lon="-2.35625">
        <ele>74.8</ele>
        <time>2021-05-27T12:09:34Z</time>
      </trkpt>
      <trkpt lat="47.70609" lon="-2.35625">
        <ele>74.8</ele>
        <time>2021-05-27T12:09:35Z</time>
      </trkpt>
      <trkpt lat="47.70609" lon="-2.35625">
        <ele>74.8</ele>
        <time>2021-05-27T12:09:36Z</time>
      </trkpt>
      <trkpt lat="47.70609" lon="-2.35625">
        <ele>74.8</ele>
        <time>2021-05-27T12:09:37Z</time>
      </trkpt>
      <trkpt lat="47.70609" lon="-2.35625">
        <ele>74.8</ele>
        <time>2021-05-27T12:09:38Z</time>
      </trkpt>
      <trkpt lat="47.70609" lon="-2.35625">
        <ele>74.8</ele>
        <time>2021-05-27T12:09:39Z</time>
      </trkpt>
      <trkpt lat="47.70609" lon="-2.35625">
        <ele>74.8</ele>
        <time>2021-05-27T12:09:40Z</time>
      </trkpt>
      <trkpt lat="47.70609" lon="-2.35625">
        <ele>74.8</ele>
        <time>2021-05-27T12:09:41Z</time>
      </trkpt>
      <trkpt lat="47.70609" lon="-2.35625">
        <ele>74.8</ele>
        <time>2021-05-27T12:09:42Z</time>
      </trkpt>
      <trkpt lat="47.70609" lon="-2.35625">
        <ele>74.8</ele>
        <time>2021-05-27T12:09:43Z</time>
      </trkpt>
      <trkpt lat="47.70609" lon="-2.35625">
        <ele>74.8</ele>
        <time>2021-05-27T12:09:44Z</time>
      </trkpt>
      <trkpt lat="47.70609" lon="-2.35625">
        <ele>74.8</ele>
        <time>2021-05-27T12:09:45Z</time>
      </trkpt>
      <trkpt lat="47.70609" lon="-2.35625">
        <ele>74.8</ele>
        <time>2021-05-27T12:09:46Z</time>
      </trkpt>
      <trkpt lat="47.70609" lon="-2.35625">
        <ele>74.8</ele>
        <time>2021-05-27T12:09:47Z</time>
      </trkpt>
      <trkpt lat="47.70609" lon="-2.35625">
        <ele>74.8</ele>
        <time>2021-05-27T12:09:48Z</time>
      </trkpt>
      <trkpt lat="47.70609" lon="-2.35625">
        <ele>74.8</ele>
        <time>2021-05-27T12:09:49Z</time>
      </trkpt>
      <trkpt lat="47.70609" lon="-2.35625">
        <ele>74.8</ele>
        <time>2021-05-27T12:09:50Z</time>
      </trkpt>
      <trkpt lat="47.70609" lon="-2.35625">
        <ele>74.8</ele>
        <time>2021-05-27T12:09:51Z</time>
      </trkpt>
      <trkpt lat="47.70609" lon="-2.35625">
        <ele>74.8</ele>
        <time>2021-05-27T12:09:52Z</time>
      </trkpt>
      <trkpt lat="47.70609" lon="-2.35625">
        <ele>74.8</ele>
        <time>2021-05-27T12:09:53Z</time>
      </trkpt>
      <trkpt lat="47.70609" lon="-2.35625">
        <ele>74.8</ele>
        <time>2021-05-27T12:09:54Z</time>
      </trkpt>
      <trkpt lat="47.70609" lon="-2.35625">
        <ele>74.8</ele>
        <time>2021-05-27T12:09:55Z</time>
      </trkpt>
      <trkpt lat="47.70609" lon="-2.35625">
        <ele>74.8</ele>
        <time>2021-05-27T12:09:56Z</time>
      </trkpt>
      <trkpt lat="47.70609" lon="-2.35625">
        <ele>74.8</ele>
        <time>2021-05-27T12:09:57Z</time>
      </trkpt>
      <trkpt lat="47.70609" lon="-2.35625">
        <ele>74.8</ele>
        <time>2021-05-27T12:09:58Z</time>
      </trkpt>
      <trkpt lat="47.70609" lon="-2.35625">
        <ele>74.8</ele>
        <time>2021-05-27T12:09:59Z</time>
      </trkpt>
      <trkpt lat="47.70609" lon="-2.35625">
        <ele>74.8</ele>
        <time>2021-05-27T12:10:00Z</time>
      </trkpt>
      <trkpt lat="47.70609" lon="-2.35625">
        <ele>74.8</ele>
        <time>2021-05-27T12:10:01Z</time>
      </trkpt>
      <trkpt lat="47.70609" lon="-2.35625">
        <ele>74.8</ele>
        <time>2021-05-27T12:10:02Z</time>
      </trkpt>
      <trkpt lat="47.70609" lon="-2.35625">
        <ele>74.8</ele>
        <time>2021-05-27T12:10:03Z</time>
      </trkpt>
      <trkpt lat="47.70609" lon="-2.35625">
        <ele>74.8</ele>
        <time>2021-05-27T12:10:04Z</time>
      </trkpt>
      <trkpt lat="47.70609" lon="-2.35625">
        <ele>74.8</ele>
        <time>2021-05-27T12:10:05Z</time>
      </trkpt>
      <trkpt lat="47.70609" lon="-2.35625">
        <ele>74.8</ele>
        <time>2021-05-27T12:10:06Z</time>
      </trkpt>
      <trkpt lat="47.70609" lon="-2.35625">
        <ele>74.8</ele>
        <time>2021-05-27T12:10:07Z</time>
      </trkpt>
      <trkpt lat="47.70609" lon="-2.35625">
        <ele>74.8</ele>
        <time>2021-05-27T12:10:08Z</time>
      </trkpt>
      <trkpt lat="47.70609" lon="-2.35625">
        <ele>74.8</ele>
        <time>2021-05-27T12:10:09Z</time>
      </trkpt>
      <trkpt lat="47.70609" lon="-2.35625">
        <ele>74.8</ele>
        <time>2021-05-27T12:10:10Z</time>
      </trkpt>
      <trkpt lat="47.70609" lon="-2.35625">
        <ele>74.8</ele>
        <time>2021-05-27T12:10:11Z</time>
      </trkpt>
      <trkpt lat="47.70609" lon="-2.35625">
        <ele>74.8</ele>
        <time>2021-05-27T12:10:12Z</time>
      </trkpt>
      <trkpt lat="47.70609" lon="-2.35625">
        <ele>74.8</ele>
        <time>2021-05-27T12:10:13Z</time>
      </trkpt>
      <trkpt lat="47.70609" lon="-2.35625">
        <ele>74.8</ele>
        <time>2021-05-27T12:10:14Z</time>
      </trkpt>
      <trkpt lat="47.70609" lon="-2.35625">
        <ele>74.8</ele>
        <time>2021-05-27T12:10:15Z</time>
      </trkpt>
      <trkpt lat="47.70609" lon="-2.35625">
        <ele>74.8</ele>
        <time>2021-05-27T12:10:16Z</time>
      </trkpt>
      <trkpt lat="47.70609" lon="-2.35625">
        <ele>74.8</ele>
        <time>2021-05-27T12:10:17Z</time>
      </trkpt>
      <trkpt lat="47.70609" lon="-2.35625">
        <ele>74.8</ele>
        <time>2021-05-27T12:10:18Z</time>
      </trkpt>
      <trkpt lat="47.70609" lon="-2.35625">
        <ele>74.8</ele>
        <time>2021-05-27T12:10:19Z</time>
      </trkpt>
      <trkpt lat="47.70609" lon="-2.35625">
        <ele>74.8</ele>
        <time>2021-05-27T12:10:20Z</time>
      </trkpt>
      <trkpt lat="47.70609" lon="-2.35625">
        <ele>74.8</ele>
        <time>2021-05-27T12:10:21Z</time>
      </trkpt>
      <trkpt lat="47.70609" lon="-2.35625">
        <ele>74.8</ele>
        <time>2021-05-27T12:10:22Z</time>
      </trkpt>
      <trkpt lat="47.70609" lon="-2.35625">
        <ele>74.8</ele>
        <time>2021-05-27T12:10:23Z</time>
      </trkpt>
      <trkpt lat="47.70609" lon="-2.35625">
        <ele>74.8</ele>
        <time>2021-05-27T12:10:24Z</time>
      </trkpt>
      <trkpt lat="47.70609" lon="-2.35625">
        <ele>74.8</ele>
        <time>2021-05-27T12:10:25Z</time>
      </trkpt>
      <trkpt lat="47.70609" lon="-2.35625">
        <ele>74.8</ele>
        <time>2021-05-27T12:10:26Z</time>
      </trkpt>
      <trkpt lat="47.70609" lon="-2.35625">
        <ele>74.8</ele>
        <time>2021-05-27T12:10:27Z</time>
      </trkpt>
      <trkpt lat="47.70609" lon="-2.35625">
        <ele>74.8</ele>
        <time>2021-05-27T12:10:28Z</time>
      </trkpt>
      <trkpt lat="47.70609" lon="-2.35625">
        <ele>74.8</ele>
        <time>2021-05-27T12:10:29Z</time>
      </trkpt>
      <trkpt lat="47.70609" lon="-2.35625">
        <ele>74.8</ele>
        <time>2021-05-27T12:10:30Z</time>
      </trkpt>
      <trkpt lat="47.70609" lon="-2.35625">
        <ele>74.8</ele>
        <time>2021-05-27T12:10:31Z</time>
      </trkpt>
      <trkpt lat="47.70609" lon="-2.35625">
        <ele>74.8</ele>
        <time>2021-05-27T12:10:32Z</time>
      </trkpt>
      <trkpt lat="47.70609" lon="-2.35625">
        <ele>74.8</ele>
        <time>2021-05-27T12:10:33Z</time>
      </trkpt>
      <trkpt lat="47.70609" lon="-2.35625">
        <ele>74.8</ele>
        <time>2021-05-27T12:10:34Z</time>
      </trkpt>
      <trkpt lat="47.70609" lon="-2.35625">
        <ele>74.8</ele>
        <time>2021-05-27T12:10:35Z</time>
      </trkpt>
      <trkpt lat="47.70609" lon="-2.35625">
        <ele>74.8</ele>
        <time>2021-05-27T12:10:36Z</time>
      </trkpt>
      <trkpt lat="47.70609" lon="-2.35625">
        <ele>74.8</ele>
        <time>2021-05-27T12:10:37Z</time>
      </trkpt>
      <trkpt lat="47.70609" lon="-2.35625">
        <ele>74.8</ele>
        <time>2021-05-27T12:10:38Z</time>
      </trkpt>
      <trkpt lat="47.70609" lon="-2.35625">
        <ele>74.8</ele>
        <time>2021-05-27T12:10:39Z</time>
      </trkpt>
      <trkpt lat="47.70609" lon="-2.35625">
        <ele>74.8</ele>
        <time>2021-05-27T12:10:40Z</time>
      </trkpt>
      <trkpt lat="47.70609" lon="-2.35625">
        <ele>74.8</ele>
        <time>2021-05-27T12:10:41Z</time>
      </trkpt>
      <trkpt lat="47.70609" lon="-2.35625">
        <ele>74.8</ele>
        <time>2021-05-27T12:10:42Z</time>
      </trkpt>
      <trkpt lat="47.70609" lon="-2.35625">
        <ele>74.8</ele>
        <time>2021-05-27T12:10:43Z</time>
      </trkpt>
      <trkpt lat="47.70609" lon="-2.35625">
        <ele>74.8</ele>
        <time>2021-05-27T12:10:44Z</time>
      </trkpt>
      <trkpt lat="47.70609" lon="-2.35625">
        <ele>74.8</ele>
        <time>2021-05-27T12:10:45Z</time>
      </trkpt>
      <trkpt lat="47.70609" lon="-2.35625">
        <ele>74.8</ele>
        <time>2021-05-27T12:10:46Z</time>
      </trkpt>
      <trkpt lat="47.70609" lon="-2.35625">
        <ele>74.8</ele>
        <time>2021-05-27T12:10:47Z</time>
      </trkpt>
      <trkpt lat="47.70609" lon="-2.35625">
        <ele>74.8</ele>
        <time>2021-05-27T12:10:48Z</time>
      </trkpt>
      <trkpt lat="47.70609" lon="-2.35625">
        <ele>74.8</ele>
        <time>2021-05-27T12:10:49Z</time>
      </trkpt>
      <trkpt lat="47.70609" lon="-2.35625">
        <ele>74.8</ele>
        <time>2021-05-27T12:10:50Z</time>
      </trkpt>
      <trkpt lat="47.70609" lon="-2.35625">
        <ele>74.8</ele>
        <time>2021-05-27T12:10:51Z</time>
      </trkpt>
      <trkpt lat="47.70609" lon="-2.35625">
        <ele>74.8</ele>
        <time>2021-05-27T12:10:52Z</time>
      </trkpt>
      <trkpt lat="47.70609" lon="-2.35625">
        <ele>74.8</ele>
        <time>2021-05-27T12:10:53Z</time>
      </trkpt>
      <trkpt lat="47.70609" lon="-2.35625">
        <ele>74.8</ele>
        <time>2021-05-27T12:10:54Z</time>
      </trkpt>
      <trkpt lat="47.70609" lon="-2.35625">
        <ele>74.8</ele>
        <time>2021-05-27T12:10:55Z</time>
      </trkpt>
      <trkpt lat="47.70609" lon="-2.35625">
        <ele>74.8</ele>
        <time>2021-05-27T12:10:56Z</time>
      </trkpt>
      <trkpt lat="47.70609" lon="-2.35625">
        <ele>74.8</ele>
        <time>2021-05-27T12:10:57Z</time>
      </trkpt>
      <trkpt lat="47.70609" lon="-2.35625">
        <ele>74.8</ele>
        <time>2021-05-27T12:10:58Z</time>
      </trkpt>
      <trkpt lat="47.70609" lon="-2.35625">
        <ele>74.8</ele>
        <time>2021-05-27T12:10:59Z</time>
      </trkpt>
      <trkpt lat="47.70609" lon="-2.35625">
        <ele>74.8</ele>
        <time>2021-05-27T12:11:00Z</time>
      </trkpt>
      <trkpt lat="47.70609" lon="-2.35625">
        <ele>74.8</ele>
        <time>2021-05-27T12:11:01Z</time>
      </trkpt>
      <trkpt lat="47.70609" lon="-2.35625">
        <ele>74.8</ele>
        <time>2021-05-27T12:11:02Z</time>
      </trkpt>
      <trkpt lat="47.70609" lon="-2.35625">
        <ele>74.8</ele>
        <time>2021-05-27T12:11:03Z</time>
      </trkpt>
      <trkpt lat="47.70609" lon="-2.35625">
        <ele>74.8</ele>
        <time>2021-05-27T12:11:04Z</time>
      </trkpt>
      <trkpt lat="47.70609" lon="-2.35625">
        <ele>74.8</ele>
        <time>2021-05-27T12:11:05Z</time>
      </trkpt>
      <trkpt lat="47.70609" lon="-2.35625">
        <ele>74.8</ele>
        <time>2021-05-27T12:11:06Z</time>
      </trkpt>
      <trkpt lat="47.70609" lon="-2.35625">
        <ele>74.8</ele>
        <time>2021-05-27T12:11:07Z</time>
      </trkpt>
      <trkpt lat="47.70609" lon="-2.35625">
        <ele>74.8</ele>
        <time>2021-05-27T12:11:08Z</time>
      </trkpt>
      <trkpt lat="47.70609" lon="-2.35625">
        <ele>74.8</ele>
        <time>2021-05-27T12:11:09Z</time>
      </trkpt>
      <trkpt lat="47.70609" lon="-2.35625">
        <ele>74.8</ele>
        <time>2021-05-27T12:11:10Z</time>
      </trkpt>
      <trkpt lat="47.70609" lon="-2.35625">
        <ele>74.8</ele>
        <time>2021-05-27T12:11:11Z</time>
      </trkpt>
      <trkpt lat="47.70609" lon="-2.35625">
        <ele>74.8</ele>
        <time>2021-05-27T12:11:12Z</time>
      </trkpt>
      <trkpt lat="47.70609" lon="-2.35625">
        <ele>74.8</ele>
        <time>2021-05-27T12:11:13Z</time>
      </trkpt>
      <trkpt lat="47.70609" lon="-2.35625">
        <ele>74.8</ele>
        <time>2021-05-27T12:11:14Z</time>
      </trkpt>
      <trkpt lat="47.70609" lon="-2.35625">
        <ele>74.8</ele>
        <time>2021-05-27T12:11:15Z</time>
      </trkpt>
      <trkpt lat="47.70609" lon="-2.35625">
        <ele>74.8</ele>
        <time>2021-05-27T12:11:16Z</time>
      </trkpt>
      <trkpt lat="47.70609" lon="-2.35625">
        <ele>74.8</ele>
        <time>2021-05-27T12:11:17Z</time>
      </trkpt>
      <trkpt lat="47.70609" lon="-2.35625">
        <ele>74.8</ele>
        <time>2021-05-27T12:11:18Z</time>
      </trkpt>
      <trkpt lat="47.70609" lon="-2.35625">
        <ele>74.8</ele>
        <time>2021-05-27T12:11:19Z</time>
      </trkpt>
      <trkpt lat="47.70609" lon="-2.35625">
        <ele>74.8</ele>
        <time>2021-05-27T12:11:20Z</time>
      </trkpt>
      <trkpt lat="47.70609" lon="-2.35625">
        <ele>74.8</ele>
        <time>2021-05-27T12:11:21Z</time>
      </trkpt>
      <trkpt lat="47.70609" lon="-2.35625">
        <ele>74.8</ele>
        <time>2021-05-27T12:11:22Z</time>
      </trkpt>
      <trkpt lat="47.70609" lon="-2.35625">
        <ele>74.8</ele>
        <time>2021-05-27T12:11:23Z</time>
      </trkpt>
      <trkpt lat="47.70609" lon="-2.35625">
        <ele>74.8</ele>
        <time>2021-05-27T12:11:24Z</time>
      </trkpt>
      <trkpt lat="47.70609" lon="-2.35625">
        <ele>74.8</ele>
        <time>2021-05-27T12:11:25Z</time>
      </trkpt>
      <trkpt lat="47.70609" lon="-2.35625">
        <ele>74.8</ele>
        <time>2021-05-27T12:11:26Z</time>
      </trkpt>
      <trkpt lat="47.70609" lon="-2.35625">
        <ele>74.8</ele>
        <time>2021-05-27T12:11:27Z</time>
      </trkpt>
      <trkpt lat="47.70609" lon="-2.35625">
        <ele>74.8</ele>
        <time>2021-05-27T12:11:28Z</time>
      </trkpt>
      <trkpt lat="47.70609" lon="-2.35625">
        <ele>74.8</ele>
        <time>2021-05-27T12:11:29Z</time>
      </trkpt>
      <trkpt lat="47.70609" lon="-2.35625">
        <ele>74.8</ele>
        <time>2021-05-27T12:11:30Z</time>
      </trkpt>
      <trkpt lat="47.70609" lon="-2.35625">
        <ele>74.8</ele>
        <time>2021-05-27T12:11:31Z</time>
      </trkpt>
      <trkpt lat="47.70602" lon="-2.35624">
        <ele>75.2</ele>
        <time>2021-05-27T12:11:32Z</time>
      </trkpt>
      <trkpt lat="47.706" lon="-2.35624">
        <ele>75.3</ele>
        <time>2021-05-27T12:11:33Z</time>
      </trkpt>
      <trkpt lat="47.70597" lon="-2.35624">
        <ele>75.4</ele>
        <time>2021-05-27T12:11:34Z</time>
      </trkpt>
      <trkpt lat="47.70594" lon="-2.35624">
        <ele>75.5</ele>
        <time>2021-05-27T12:11:35Z</time>
      </trkpt>
      <trkpt lat="47.70591" lon="-2.35625">
        <ele>75.6</ele>
        <time>2021-05-27T12:11:36Z</time>
      </trkpt>
      <trkpt lat="47.70589" lon="-2.35627">
        <ele>75.7</ele>
        <time>2021-05-27T12:11:37Z</time>
      </trkpt>
      <trkpt lat="47.70586" lon="-2.35628">
        <ele>75.7</ele>
        <time>2021-05-27T12:11:38Z</time>
      </trkpt>
      <trkpt lat="47.70583" lon="-2.35629">
        <ele>75.8</ele>
        <time>2021-05-27T12:11:39Z</time>
      </trkpt>
      <trkpt lat="47.70582" lon="-2.35627">
        <ele>75.8</ele>
        <time>2021-05-27T12:11:40Z</time>
      </trkpt>
      <trkpt lat="47.70581" lon="-2.35624">
        <ele>75.8</ele>
        <time>2021-05-27T12:11:41Z</time>
      </trkpt>
      <trkpt lat="47.70581" lon="-2.3562">
        <ele>76</ele>
        <time>2021-05-27T12:11:42Z</time>
      </trkpt>
      <trkpt lat="47.7058" lon="-2.35617">
        <ele>76.1</ele>
        <time>2021-05-27T12:11:43Z</time>
      </trkpt>
      <trkpt lat="47.7058" lon="-2.35614">
        <ele>76.1</ele>
        <time>2021-05-27T12:11:44Z</time>
      </trkpt>
      <trkpt lat="47.70579" lon="-2.35612">
        <ele>76.2</ele>
        <time>2021-05-27T12:11:45Z</time>
      </trkpt>
      <trkpt lat="47.70577" lon="-2.35609">
        <ele>76.2</ele>
        <time>2021-05-27T12:11:46Z</time>
      </trkpt>
      <trkpt lat="47.70576" lon="-2.35606">
        <ele>76.1</ele>
        <time>2021-05-27T12:11:47Z</time>
      </trkpt>
      <trkpt lat="47.70574" lon="-2.35606">
        <ele>75.9</ele>
        <time>2021-05-27T12:11:48Z</time>
      </trkpt>
      <trkpt lat="47.70572" lon="-2.35604">
        <ele>75.7</ele>
        <time>2021-05-27T12:11:49Z</time>
      </trkpt>
      <trkpt lat="47.7057" lon="-2.35603">
        <ele>75.7</ele>
        <time>2021-05-27T12:11:50Z</time>
      </trkpt>
      <trkpt lat="47.7057" lon="-2.35601">
        <ele>75.7</ele>
        <time>2021-05-27T12:11:51Z</time>
      </trkpt>
      <trkpt lat="47.7057" lon="-2.35599">
        <ele>75.8</ele>
        <time>2021-05-27T12:11:52Z</time>
      </trkpt>
      <trkpt lat="47.7057" lon="-2.35595">
        <ele>75.9</ele>
        <time>2021-05-27T12:11:53Z</time>
      </trkpt>
      <trkpt lat="47.7057" lon="-2.35592">
        <ele>76</ele>
        <time>2021-05-27T12:11:54Z</time>
      </trkpt>
      <trkpt lat="47.70569" lon="-2.35589">
        <ele>76.1</ele>
        <time>2021-05-27T12:11:55Z</time>
      </trkpt>
      <trkpt lat="47.70569" lon="-2.35586">
        <ele>76.1</ele>
        <time>2021-05-27T12:11:56Z</time>
      </trkpt>
      <trkpt lat="47.70568" lon="-2.35583">
        <ele>76.2</ele>
        <time>2021-05-27T12:11:57Z</time>
      </trkpt>
      <trkpt lat="47.70568" lon="-2.35581">
        <ele>76.1</ele>
        <time>2021-05-27T12:11:58Z</time>
      </trkpt>
      <trkpt lat="47.70567" lon="-2.35579">
        <ele>76</ele>
        <time>2021-05-27T12:11:59Z</time>
      </trkpt>
      <trkpt lat="47.70567" lon="-2.35576">
        <ele>75.8</ele>
        <time>2021-05-27T12:12:00Z</time>
      </trkpt>
      <trkpt lat="47.70566" lon="-2.35574">
        <ele>75.6</ele>
        <time>2021-05-27T12:12:01Z</time>
      </trkpt>
      <trkpt lat="47.70565" lon="-2.35573">
        <ele>75.5</ele>
        <time>2021-05-27T12:12:02Z</time>
      </trkpt>
      <trkpt lat="47.70565" lon="-2.3557">
        <ele>75.4</ele>
        <time>2021-05-27T12:12:03Z</time>
      </trkpt>
      <trkpt lat="47.70565" lon="-2.35567">
        <ele>75.3</ele>
        <time>2021-05-27T12:12:04Z</time>
      </trkpt>
      <trkpt lat="47.70563" lon="-2.35561">
        <ele>74.9</ele>
        <time>2021-05-27T12:12:05Z</time>
      </trkpt>
      <trkpt lat="47.70561" lon="-2.35556">
        <ele>74.5</ele>
        <time>2021-05-27T12:12:06Z</time>
      </trkpt>
      <trkpt lat="47.70559" lon="-2.35551">
        <ele>74.1</ele>
        <time>2021-05-27T12:12:07Z</time>
      </trkpt>
      <trkpt lat="47.70558" lon="-2.35546">
        <ele>73.8</ele>
        <time>2021-05-27T12:12:08Z</time>
      </trkpt>
      <trkpt lat="47.70557" lon="-2.35541">
        <ele>73.5</ele>
        <time>2021-05-27T12:12:09Z</time>
      </trkpt>
      <trkpt lat="47.70556" lon="-2.35536">
        <ele>73.2</ele>
        <time>2021-05-27T12:12:10Z</time>
      </trkpt>
      <trkpt lat="47.70555" lon="-2.35532">
        <ele>72.9</ele>
        <time>2021-05-27T12:12:11Z</time>
      </trkpt>
      <trkpt lat="47.70554" lon="-2.35529">
        <ele>72.8</ele>
        <time>2021-05-27T12:12:12Z</time>
      </trkpt>
      <trkpt lat="47.70554" lon="-2.35524">
        <ele>72.5</ele>
        <time>2021-05-27T12:12:13Z</time>
      </trkpt>
      <trkpt lat="47.70553" lon="-2.35521">
        <ele>72.4</ele>
        <time>2021-05-27T12:12:14Z</time>
      </trkpt>
      <trkpt lat="47.70553" lon="-2.35516">
        <ele>72.1</ele>
        <time>2021-05-27T12:12:15Z</time>
      </trkpt>
      <trkpt lat="47.70551" lon="-2.35511">
        <ele>71.8</ele>
        <time>2021-05-27T12:12:16Z</time>
      </trkpt>
      <trkpt lat="47.70551" lon="-2.35507">
        <ele>71.6</ele>
        <time>2021-05-27T12:12:17Z</time>
      </trkpt>
      <trkpt lat="47.70552" lon="-2.35503">
        <ele>71.5</ele>
        <time>2021-05-27T12:12:18Z</time>
      </trkpt>
      <trkpt lat="47.70553" lon="-2.35498">
        <ele>71.5</ele>
        <time>2021-05-27T12:12:19Z</time>
      </trkpt>
      <trkpt lat="47.70552" lon="-2.35493">
        <ele>71.5</ele>
        <time>2021-05-27T12:12:20Z</time>
      </trkpt>
      <trkpt lat="47.70552" lon="-2.3549">
        <ele>71.4</ele>
        <time>2021-05-27T12:12:21Z</time>
      </trkpt>
      <trkpt lat="47.7055" lon="-2.35488">
        <ele>71.2</ele>
        <time>2021-05-27T12:12:22Z</time>
      </trkpt>
      <trkpt lat="47.70548" lon="-2.35487">
        <ele>70.9</ele>
        <time>2021-05-27T12:12:23Z</time>
      </trkpt>
      <trkpt lat="47.70547" lon="-2.35487">
        <ele>70.6</ele>
        <time>2021-05-27T12:12:24Z</time>
      </trkpt>
      <trkpt lat="47.70544" lon="-2.35487">
        <ele>70.3</ele>
        <time>2021-05-27T12:12:25Z</time>
      </trkpt>
      <trkpt lat="47.70542" lon="-2.35485">
        <ele>70</ele>
        <time>2021-05-27T12:12:26Z</time>
      </trkpt>
      <trkpt lat="47.7054" lon="-2.35481">
        <ele>69.6</ele>
        <time>2021-05-27T12:12:27Z</time>
      </trkpt>
      <trkpt lat="47.70537" lon="-2.35478">
        <ele>69.2</ele>
        <time>2021-05-27T12:12:28Z</time>
      </trkpt>
      <trkpt lat="47.70534" lon="-2.35476">
        <ele>68.8</ele>
        <time>2021-05-27T12:12:29Z</time>
      </trkpt>
      <trkpt lat="47.70531" lon="-2.35472">
        <ele>68.4</ele>
        <time>2021-05-27T12:12:30Z</time>
      </trkpt>
      <trkpt lat="47.70529" lon="-2.35468">
        <ele>68</ele>
        <time>2021-05-27T12:12:31Z</time>
      </trkpt>
      <trkpt lat="47.70528" lon="-2.35464">
        <ele>67.9</ele>
        <time>2021-05-27T12:12:32Z</time>
      </trkpt>
      <trkpt lat="47.70528" lon="-2.35461">
        <ele>67.9</ele>
        <time>2021-05-27T12:12:33Z</time>
      </trkpt>
      <trkpt lat="47.70528" lon="-2.35456">
        <ele>67.9</ele>
        <time>2021-05-27T12:12:34Z</time>
      </trkpt>
      <trkpt lat="47.70528" lon="-2.35452">
        <ele>67.9</ele>
        <time>2021-05-27T12:12:35Z</time>
      </trkpt>
      <trkpt lat="47.70529" lon="-2.35448">
        <ele>68</ele>
        <time>2021-05-27T12:12:36Z</time>
      </trkpt>
      <trkpt lat="47.70529" lon="-2.35445">
        <ele>68</ele>
        <time>2021-05-27T12:12:37Z</time>
      </trkpt>
      <trkpt lat="47.70529" lon="-2.35442">
        <ele>68</ele>
        <time>2021-05-27T12:12:38Z</time>
      </trkpt>
      <trkpt lat="47.70529" lon="-2.35438">
        <ele>68</ele>
        <time>2021-05-27T12:12:39Z</time>
      </trkpt>
      <trkpt lat="47.7053" lon="-2.35435">
        <ele>68</ele>
        <time>2021-05-27T12:12:40Z</time>
      </trkpt>
      <trkpt lat="47.7053" lon="-2.35432">
        <ele>68</ele>
        <time>2021-05-27T12:12:41Z</time>
      </trkpt>
      <trkpt lat="47.70531" lon="-2.35428">
        <ele>68.1</ele>
        <time>2021-05-27T12:12:42Z</time>
      </trkpt>
      <trkpt lat="47.70531" lon="-2.35424">
        <ele>68.1</ele>
        <time>2021-05-27T12:12:43Z</time>
      </trkpt>
      <trkpt lat="47.70531" lon="-2.3542">
        <ele>68.1</ele>
        <time>2021-05-27T12:12:44Z</time>
      </trkpt>
      <trkpt lat="47.7053" lon="-2.35416">
        <ele>68</ele>
        <time>2021-05-27T12:12:45Z</time>
      </trkpt>
      <trkpt lat="47.7053" lon="-2.35412">
        <ele>67.8</ele>
        <time>2021-05-27T12:12:46Z</time>
      </trkpt>
      <trkpt lat="47.70529" lon="-2.35407">
        <ele>67.7</ele>
        <time>2021-05-27T12:12:47Z</time>
      </trkpt>
      <trkpt lat="47.70529" lon="-2.35403">
        <ele>67.7</ele>
        <time>2021-05-27T12:12:48Z</time>
      </trkpt>
      <trkpt lat="47.70528" lon="-2.35399">
        <ele>67.6</ele>
        <time>2021-05-27T12:12:49Z</time>
      </trkpt>
      <trkpt lat="47.70528" lon="-2.35396">
        <ele>67.5</ele>
        <time>2021-05-27T12:12:50Z</time>
      </trkpt>
      <trkpt lat="47.70528" lon="-2.35393">
        <ele>67.4</ele>
        <time>2021-05-27T12:12:51Z</time>
      </trkpt>
      <trkpt lat="47.70528" lon="-2.35389">
        <ele>67.3</ele>
        <time>2021-05-27T12:12:52Z</time>
      </trkpt>
      <trkpt lat="47.70527" lon="-2.35385">
        <ele>67.2</ele>
        <time>2021-05-27T12:12:53Z</time>
      </trkpt>
      <trkpt lat="47.70527" lon="-2.3538">
        <ele>67.1</ele>
        <time>2021-05-27T12:12:54Z</time>
      </trkpt>
      <trkpt lat="47.70527" lon="-2.35375">
        <ele>67</ele>
        <time>2021-05-27T12:12:55Z</time>
      </trkpt>
      <trkpt lat="47.70527" lon="-2.3537">
        <ele>66.9</ele>
        <time>2021-05-27T12:12:56Z</time>
      </trkpt>
      <trkpt lat="47.70526" lon="-2.35365">
        <ele>66.9</ele>
        <time>2021-05-27T12:12:57Z</time>
      </trkpt>
      <trkpt lat="47.70526" lon="-2.35361">
        <ele>66.7</ele>
        <time>2021-05-27T12:12:58Z</time>
      </trkpt>
      <trkpt lat="47.70525" lon="-2.35356">
        <ele>66.6</ele>
        <time>2021-05-27T12:12:59Z</time>
      </trkpt>
      <trkpt lat="47.70525" lon="-2.35352">
        <ele>66.6</ele>
        <time>2021-05-27T12:13:00Z</time>
      </trkpt>
      <trkpt lat="47.70526" lon="-2.35348">
        <ele>66.6</ele>
        <time>2021-05-27T12:13:01Z</time>
      </trkpt>
      <trkpt lat="47.70526" lon="-2.35343">
        <ele>66.6</ele>
        <time>2021-05-27T12:13:02Z</time>
      </trkpt>
      <trkpt lat="47.70526" lon="-2.35338">
        <ele>66.5</ele>
        <time>2021-05-27T12:13:03Z</time>
      </trkpt>
      <trkpt lat="47.70525" lon="-2.35333">
        <ele>66.4</ele>
        <time>2021-05-27T12:13:04Z</time>
      </trkpt>
      <trkpt lat="47.70525" lon="-2.35328">
        <ele>66.4</ele>
        <time>2021-05-27T12:13:05Z</time>
      </trkpt>
      <trkpt lat="47.70525" lon="-2.35324">
        <ele>66.5</ele>
        <time>2021-05-27T12:13:06Z</time>
      </trkpt>
      <trkpt lat="47.70525" lon="-2.35319">
        <ele>66.5</ele>
        <time>2021-05-27T12:13:07Z</time>
      </trkpt>
      <trkpt lat="47.70524" lon="-2.35315">
        <ele>66.6</ele>
        <time>2021-05-27T12:13:08Z</time>
      </trkpt>
      <trkpt lat="47.70525" lon="-2.35311">
        <ele>66.8</ele>
        <time>2021-05-27T12:13:09Z</time>
      </trkpt>
      <trkpt lat="47.70526" lon="-2.35306">
        <ele>67</ele>
        <time>2021-05-27T12:13:10Z</time>
      </trkpt>
      <trkpt lat="47.70526" lon="-2.35301">
        <ele>67.1</ele>
        <time>2021-05-27T12:13:11Z</time>
      </trkpt>
      <trkpt lat="47.70527" lon="-2.35297">
        <ele>67.2</ele>
        <time>2021-05-27T12:13:12Z</time>
      </trkpt>
      <trkpt lat="47.70528" lon="-2.35293">
        <ele>67.5</ele>
        <time>2021-05-27T12:13:13Z</time>
      </trkpt>
      <trkpt lat="47.70529" lon="-2.3529">
        <ele>67.7</ele>
        <time>2021-05-27T12:13:14Z</time>
      </trkpt>
      <trkpt lat="47.70531" lon="-2.35288">
        <ele>68</ele>
        <time>2021-05-27T12:13:15Z</time>
      </trkpt>
      <trkpt lat="47.70533" lon="-2.35286">
        <ele>68.3</ele>
        <time>2021-05-27T12:13:16Z</time>
      </trkpt>
      <trkpt lat="47.70535" lon="-2.35285">
        <ele>68.6</ele>
        <time>2021-05-27T12:13:17Z</time>
      </trkpt>
      <trkpt lat="47.70536" lon="-2.35285">
        <ele>68.7</ele>
        <time>2021-05-27T12:13:18Z</time>
      </trkpt>
      <trkpt lat="47.70537" lon="-2.35284">
        <ele>68.9</ele>
        <time>2021-05-27T12:13:19Z</time>
      </trkpt>
      <trkpt lat="47.70539" lon="-2.35283">
        <ele>69.1</ele>
        <time>2021-05-27T12:13:20Z</time>
      </trkpt>
      <trkpt lat="47.70541" lon="-2.35283">
        <ele>69.3</ele>
        <time>2021-05-27T12:13:21Z</time>
      </trkpt>
      <trkpt lat="47.70543" lon="-2.35282">
        <ele>69.6</ele>
        <time>2021-05-27T12:13:22Z</time>
      </trkpt>
      <trkpt lat="47.70544" lon="-2.3528">
        <ele>69.8</ele>
        <time>2021-05-27T12:13:23Z</time>
      </trkpt>
      <trkpt lat="47.70545" lon="-2.35278">
        <ele>69.9</ele>
        <time>2021-05-27T12:13:24Z</time>
      </trkpt>
      <trkpt lat="47.70547" lon="-2.35276">
        <ele>70.2</ele>
        <time>2021-05-27T12:13:25Z</time>
      </trkpt>
      <trkpt lat="47.70548" lon="-2.35274">
        <ele>70.3</ele>
        <time>2021-05-27T12:13:26Z</time>
      </trkpt>
      <trkpt lat="47.70548" lon="-2.35273">
        <ele>70.4</ele>
        <time>2021-05-27T12:13:27Z</time>
      </trkpt>
      <trkpt lat="47.70548" lon="-2.35273">
        <ele>70.4</ele>
        <time>2021-05-27T12:13:28Z</time>
      </trkpt>
      <trkpt lat="47.70548" lon="-2.35273">
        <ele>70.4</ele>
        <time>2021-05-27T12:13:29Z</time>
      </trkpt>
      <trkpt lat="47.70548" lon="-2.35273">
        <ele>70.4</ele>
        <time>2021-05-27T12:13:30Z</time>
      </trkpt>
      <trkpt lat="47.70548" lon="-2.35273">
        <ele>70.4</ele>
        <time>2021-05-27T12:13:31Z</time>
      </trkpt>
      <trkpt lat="47.70548" lon="-2.35273">
        <ele>70.4</ele>
        <time>2021-05-27T12:13:32Z</time>
      </trkpt>
      <trkpt lat="47.70548" lon="-2.35273">
        <ele>70.4</ele>
        <time>2021-05-27T12:13:33Z</time>
      </trkpt>
      <trkpt lat="47.70548" lon="-2.35273">
        <ele>70.4</ele>
        <time>2021-05-27T12:13:34Z</time>
      </trkpt>
      <trkpt lat="47.70548" lon="-2.35273">
        <ele>70.4</ele>
        <time>2021-05-27T12:13:35Z</time>
      </trkpt>
      <trkpt lat="47.70548" lon="-2.35273">
        <ele>70.4</ele>
        <time>2021-05-27T12:13:36Z</time>
      </trkpt>
      <trkpt lat="47.70548" lon="-2.3527">
        <ele>70.4</ele>
        <time>2021-05-27T12:13:37Z</time>
      </trkpt>
      <trkpt lat="47.70547" lon="-2.35268">
        <ele>70.4</ele>
        <time>2021-05-27T12:13:38Z</time>
      </trkpt>
      <trkpt lat="47.70546" lon="-2.35266">
        <ele>70.3</ele>
        <time>2021-05-27T12:13:39Z</time>
      </trkpt>
      <trkpt lat="47.70545" lon="-2.35264">
        <ele>70.2</ele>
        <time>2021-05-27T12:13:40Z</time>
      </trkpt>
      <trkpt lat="47.70545" lon="-2.35261">
        <ele>70.2</ele>
        <time>2021-05-27T12:13:41Z</time>
      </trkpt>
      <trkpt lat="47.70546" lon="-2.35259">
        <ele>70.3</ele>
        <time>2021-05-27T12:13:42Z</time>
      </trkpt>
      <trkpt lat="47.70546" lon="-2.35256">
        <ele>70.4</ele>
        <time>2021-05-27T12:13:43Z</time>
      </trkpt>
      <trkpt lat="47.70546" lon="-2.35252">
        <ele>70.4</ele>
        <time>2021-05-27T12:13:44Z</time>
      </trkpt>
      <trkpt lat="47.70545" lon="-2.35249">
        <ele>70.4</ele>
        <time>2021-05-27T12:13:45Z</time>
      </trkpt>
      <trkpt lat="47.70544" lon="-2.35247">
        <ele>70.3</ele>
        <time>2021-05-27T12:13:46Z</time>
      </trkpt>
      <trkpt lat="47.70542" lon="-2.35244">
        <ele>70.1</ele>
        <time>2021-05-27T12:13:47Z</time>
      </trkpt>
      <trkpt lat="47.70541" lon="-2.35242">
        <ele>69.9</ele>
        <time>2021-05-27T12:13:48Z</time>
      </trkpt>
      <trkpt lat="47.70538" lon="-2.3524">
        <ele>69.7</ele>
        <time>2021-05-27T12:13:49Z</time>
      </trkpt>
      <trkpt lat="47.70538" lon="-2.35238">
        <ele>69.6</ele>
        <time>2021-05-27T12:13:50Z</time>
      </trkpt>
      <trkpt lat="47.70537" lon="-2.35236">
        <ele>69.6</ele>
        <time>2021-05-27T12:13:51Z</time>
      </trkpt>
      <trkpt lat="47.70537" lon="-2.35233">
        <ele>69.5</ele>
        <time>2021-05-27T12:13:52Z</time>
      </trkpt>
      <trkpt lat="47.70536" lon="-2.3523">
        <ele>69.5</ele>
        <time>2021-05-27T12:13:53Z</time>
      </trkpt>
      <trkpt lat="47.70535" lon="-2.35227">
        <ele>69.4</ele>
        <time>2021-05-27T12:13:54Z</time>
      </trkpt>
      <trkpt lat="47.70534" lon="-2.35223">
        <ele>69.3</ele>
        <time>2021-05-27T12:13:55Z</time>
      </trkpt>
      <trkpt lat="47.70534" lon="-2.35219">
        <ele>69.3</ele>
        <time>2021-05-27T12:13:56Z</time>
      </trkpt>
      <trkpt lat="47.70534" lon="-2.35216">
        <ele>69.4</ele>
        <time>2021-05-27T12:13:57Z</time>
      </trkpt>
      <trkpt lat="47.70536" lon="-2.35214">
        <ele>69.6</ele>
        <time>2021-05-27T12:13:58Z</time>
      </trkpt>
      <trkpt lat="47.70537" lon="-2.35211">
        <ele>69.7</ele>
        <time>2021-05-27T12:13:59Z</time>
      </trkpt>
      <trkpt lat="47.70537" lon="-2.35206">
        <ele>69.8</ele>
        <time>2021-05-27T12:14:00Z</time>
      </trkpt>
      <trkpt lat="47.70537" lon="-2.35202">
        <ele>69.7</ele>
        <time>2021-05-27T12:14:01Z</time>
      </trkpt>
      <trkpt lat="47.70536" lon="-2.35197">
        <ele>69.7</ele>
        <time>2021-05-27T12:14:02Z</time>
      </trkpt>
      <trkpt lat="47.70535" lon="-2.35192">
        <ele>69.6</ele>
        <time>2021-05-27T12:14:03Z</time>
      </trkpt>
      <trkpt lat="47.70535" lon="-2.35189">
        <ele>69.6</ele>
        <time>2021-05-27T12:14:04Z</time>
      </trkpt>
      <trkpt lat="47.70536" lon="-2.35185">
        <ele>69.7</ele>
        <time>2021-05-27T12:14:05Z</time>
      </trkpt>
      <trkpt lat="47.70537" lon="-2.35182">
        <ele>69.9</ele>
        <time>2021-05-27T12:14:06Z</time>
      </trkpt>
      <trkpt lat="47.70537" lon="-2.35179">
        <ele>70</ele>
        <time>2021-05-27T12:14:07Z</time>
      </trkpt>
      <trkpt lat="47.70538" lon="-2.35175">
        <ele>70</ele>
        <time>2021-05-27T12:14:08Z</time>
      </trkpt>
      <trkpt lat="47.70538" lon="-2.35172">
        <ele>70.1</ele>
        <time>2021-05-27T12:14:09Z</time>
      </trkpt>
      <trkpt lat="47.70537" lon="-2.35167">
        <ele>70</ele>
        <time>2021-05-27T12:14:10Z</time>
      </trkpt>
      <trkpt lat="47.70537" lon="-2.35163">
        <ele>70</ele>
        <time>2021-05-27T12:14:11Z</time>
      </trkpt>
      <trkpt lat="47.70536" lon="-2.3516">
        <ele>70</ele>
        <time>2021-05-27T12:14:12Z</time>
      </trkpt>
      <trkpt lat="47.70535" lon="-2.35157">
        <ele>70</ele>
        <time>2021-05-27T12:14:13Z</time>
      </trkpt>
      <trkpt lat="47.70535" lon="-2.35155">
        <ele>70.1</ele>
        <time>2021-05-27T12:14:14Z</time>
      </trkpt>
      <trkpt lat="47.70535" lon="-2.35152">
        <ele>70.1</ele>
        <time>2021-05-27T12:14:15Z</time>
      </trkpt>
      <trkpt lat="47.70535" lon="-2.3515">
        <ele>70.1</ele>
        <time>2021-05-27T12:14:16Z</time>
      </trkpt>
      <trkpt lat="47.70534" lon="-2.35148">
        <ele>70.1</ele>
        <time>2021-05-27T12:14:17Z</time>
      </trkpt>
      <trkpt lat="47.70534" lon="-2.35145">
        <ele>70.1</ele>
        <time>2021-05-27T12:14:18Z</time>
      </trkpt>
      <trkpt lat="47.70534" lon="-2.35143">
        <ele>70.2</ele>
        <time>2021-05-27T12:14:19Z</time>
      </trkpt>
      <trkpt lat="47.70533" lon="-2.3514">
        <ele>70.1</ele>
        <time>2021-05-27T12:14:20Z</time>
      </trkpt>
      <trkpt lat="47.70532" lon="-2.35138">
        <ele>70.1</ele>
        <time>2021-05-27T12:14:21Z</time>
      </trkpt>
      <trkpt lat="47.70531" lon="-2.35136">
        <ele>70</ele>
        <time>2021-05-27T12:14:22Z</time>
      </trkpt>
      <trkpt lat="47.70531" lon="-2.35135">
        <ele>70.1</ele>
        <time>2021-05-27T12:14:23Z</time>
      </trkpt>
      <trkpt lat="47.70532" lon="-2.35133">
        <ele>70.2</ele>
        <time>2021-05-27T12:14:24Z</time>
      </trkpt>
      <trkpt lat="47.70532" lon="-2.3513">
        <ele>70.3</ele>
        <time>2021-05-27T12:14:25Z</time>
      </trkpt>
      <trkpt lat="47.70532" lon="-2.35127">
        <ele>70.4</ele>
        <time>2021-05-27T12:14:26Z</time>
      </trkpt>
      <trkpt lat="47.70533" lon="-2.35124">
        <ele>70.5</ele>
        <time>2021-05-27T12:14:27Z</time>
      </trkpt>
      <trkpt lat="47.70533" lon="-2.35121">
        <ele>70.6</ele>
        <time>2021-05-27T12:14:28Z</time>
      </trkpt>
      <trkpt lat="47.70532" lon="-2.35117">
        <ele>70.6</ele>
        <time>2021-05-27T12:14:29Z</time>
      </trkpt>
      <trkpt lat="47.70532" lon="-2.35113">
        <ele>70.6</ele>
        <time>2021-05-27T12:14:30Z</time>
      </trkpt>
      <trkpt lat="47.70532" lon="-2.3511">
        <ele>70.7</ele>
        <time>2021-05-27T12:14:31Z</time>
      </trkpt>
      <trkpt lat="47.70532" lon="-2.35106">
        <ele>70.8</ele>
        <time>2021-05-27T12:14:32Z</time>
      </trkpt>
      <trkpt lat="47.70534" lon="-2.35103">
        <ele>71</ele>
        <time>2021-05-27T12:14:33Z</time>
      </trkpt>
      <trkpt lat="47.70536" lon="-2.35102">
        <ele>71.2</ele>
        <time>2021-05-27T12:14:34Z</time>
      </trkpt>
      <trkpt lat="47.70538" lon="-2.35102">
        <ele>71.3</ele>
        <time>2021-05-27T12:14:35Z</time>
      </trkpt>
      <trkpt lat="47.70539" lon="-2.35102">
        <ele>71.5</ele>
        <time>2021-05-27T12:14:36Z</time>
      </trkpt>
      <trkpt lat="47.70541" lon="-2.35103">
        <ele>71.6</ele>
        <time>2021-05-27T12:14:37Z</time>
      </trkpt>
      <trkpt lat="47.70542" lon="-2.35102">
        <ele>71.7</ele>
        <time>2021-05-27T12:14:38Z</time>
      </trkpt>
      <trkpt lat="47.70542" lon="-2.351">
        <ele>71.8</ele>
        <time>2021-05-27T12:14:39Z</time>
      </trkpt>
      <trkpt lat="47.70544" lon="-2.35097">
        <ele>71.9</ele>
        <time>2021-05-27T12:14:40Z</time>
      </trkpt>
      <trkpt lat="47.70545" lon="-2.35095">
        <ele>72.1</ele>
        <time>2021-05-27T12:14:41Z</time>
      </trkpt>
      <trkpt lat="47.70547" lon="-2.35094">
        <ele>72.2</ele>
        <time>2021-05-27T12:14:42Z</time>
      </trkpt>
      <trkpt lat="47.70548" lon="-2.35092">
        <ele>72.3</ele>
        <time>2021-05-27T12:14:43Z</time>
      </trkpt>
      <trkpt lat="47.70549" lon="-2.35089">
        <ele>72.4</ele>
        <time>2021-05-27T12:14:44Z</time>
      </trkpt>
      <trkpt lat="47.7055" lon="-2.35087">
        <ele>72.5</ele>
        <time>2021-05-27T12:14:45Z</time>
      </trkpt>
      <trkpt lat="47.7055" lon="-2.35086">
        <ele>72.6</ele>
        <time>2021-05-27T12:14:46Z</time>
      </trkpt>
      <trkpt lat="47.70552" lon="-2.35084">
        <ele>72.7</ele>
        <time>2021-05-27T12:14:47Z</time>
      </trkpt>
      <trkpt lat="47.70554" lon="-2.35083">
        <ele>72.9</ele>
        <time>2021-05-27T12:14:48Z</time>
      </trkpt>
      <trkpt lat="47.70555" lon="-2.35081">
        <ele>73</ele>
        <time>2021-05-27T12:14:49Z</time>
      </trkpt>
      <trkpt lat="47.70557" lon="-2.35079">
        <ele>73.2</ele>
        <time>2021-05-27T12:14:50Z</time>
      </trkpt>
      <trkpt lat="47.70558" lon="-2.35077">
        <ele>73.3</ele>
        <time>2021-05-27T12:14:51Z</time>
      </trkpt>
      <trkpt lat="47.70558" lon="-2.35073">
        <ele>73.4</ele>
        <time>2021-05-27T12:14:52Z</time>
      </trkpt>
      <trkpt lat="47.70559" lon="-2.3507">
        <ele>73.4</ele>
        <time>2021-05-27T12:14:53Z</time>
      </trkpt>
      <trkpt lat="47.70559" lon="-2.35067">
        <ele>73.5</ele>
        <time>2021-05-27T12:14:54Z</time>
      </trkpt>
      <trkpt lat="47.7056" lon="-2.35064">
        <ele>73.6</ele>
        <time>2021-05-27T12:14:55Z</time>
      </trkpt>
      <trkpt lat="47.70561" lon="-2.35062">
        <ele>73.7</ele>
        <time>2021-05-27T12:14:56Z</time>
      </trkpt>
      <trkpt lat="47.70563" lon="-2.3506">
        <ele>73.9</ele>
        <time>2021-05-27T12:14:57Z</time>
      </trkpt>
      <trkpt lat="47.70564" lon="-2.35058">
        <ele>74</ele>
        <time>2021-05-27T12:14:58Z</time>
      </trkpt>
      <trkpt lat="47.70565" lon="-2.35057">
        <ele>74.1</ele>
        <time>2021-05-27T12:14:59Z</time>
      </trkpt>
      <trkpt lat="47.70567" lon="-2.35055">
        <ele>74.2</ele>
        <time>2021-05-27T12:15:00Z</time>
      </trkpt>
      <trkpt lat="47.70567" lon="-2.35053">
        <ele>74.3</ele>
        <time>2021-05-27T12:15:01Z</time>
      </trkpt>
      <trkpt lat="47.70568" lon="-2.35049">
        <ele>74.4</ele>
        <time>2021-05-27T12:15:02Z</time>
      </trkpt>
      <trkpt lat="47.70568" lon="-2.35046">
        <ele>74.4</ele>
        <time>2021-05-27T12:15:03Z</time>
      </trkpt>
      <trkpt lat="47.70567" lon="-2.35043">
        <ele>74.4</ele>
        <time>2021-05-27T12:15:04Z</time>
      </trkpt>
      <trkpt lat="47.70567" lon="-2.35039">
        <ele>74.5</ele>
        <time>2021-05-27T12:15:05Z</time>
      </trkpt>
      <trkpt lat="47.70568" lon="-2.35034">
        <ele>74.6</ele>
        <time>2021-05-27T12:15:06Z</time>
      </trkpt>
      <trkpt lat="47.70568" lon="-2.3503">
        <ele>74.7</ele>
        <time>2021-05-27T12:15:07Z</time>
      </trkpt>
      <trkpt lat="47.70569" lon="-2.35025">
        <ele>74.8</ele>
        <time>2021-05-27T12:15:08Z</time>
      </trkpt>
      <trkpt lat="47.7057" lon="-2.35021">
        <ele>74.9</ele>
        <time>2021-05-27T12:15:09Z</time>
      </trkpt>
      <trkpt lat="47.70571" lon="-2.35018">
        <ele>75</ele>
        <time>2021-05-27T12:15:10Z</time>
      </trkpt>
      <trkpt lat="47.70573" lon="-2.35015">
        <ele>75.2</ele>
        <time>2021-05-27T12:15:11Z</time>
      </trkpt>
      <trkpt lat="47.70574" lon="-2.35012">
        <ele>75.3</ele>
        <time>2021-05-27T12:15:12Z</time>
      </trkpt>
      <trkpt lat="47.70574" lon="-2.35009">
        <ele>75.4</ele>
        <time>2021-05-27T12:15:13Z</time>
      </trkpt>
      <trkpt lat="47.70575" lon="-2.35006">
        <ele>75.4</ele>
        <time>2021-05-27T12:15:14Z</time>
      </trkpt>
      <trkpt lat="47.70576" lon="-2.35002">
        <ele>75.5</ele>
        <time>2021-05-27T12:15:15Z</time>
      </trkpt>
      <trkpt lat="47.70575" lon="-2.34999">
        <ele>75.5</ele>
        <time>2021-05-27T12:15:16Z</time>
      </trkpt>
      <trkpt lat="47.70575" lon="-2.34996">
        <ele>75.6</ele>
        <time>2021-05-27T12:15:17Z</time>
      </trkpt>
      <trkpt lat="47.70574" lon="-2.34992">
        <ele>75.6</ele>
        <time>2021-05-27T12:15:18Z</time>
      </trkpt>
      <trkpt lat="47.70574" lon="-2.34989">
        <ele>75.6</ele>
        <time>2021-05-27T12:15:19Z</time>
      </trkpt>
      <trkpt lat="47.70573" lon="-2.34987">
        <ele>75.6</ele>
        <time>2021-05-27T12:15:20Z</time>
      </trkpt>
      <trkpt lat="47.70572" lon="-2.34985">
        <ele>75.5</ele>
        <time>2021-05-27T12:15:21Z</time>
      </trkpt>
      <trkpt lat="47.70569" lon="-2.34984">
        <ele>75.4</ele>
        <time>2021-05-27T12:15:22Z</time>
      </trkpt>
      <trkpt lat="47.70567" lon="-2.34984">
        <ele>75.3</ele>
        <time>2021-05-27T12:15:23Z</time>
      </trkpt>
      <trkpt lat="47.70565" lon="-2.34984">
        <ele>75.2</ele>
        <time>2021-05-27T12:15:24Z</time>
      </trkpt>
      <trkpt lat="47.70563" lon="-2.34985">
        <ele>75</ele>
        <time>2021-05-27T12:15:25Z</time>
      </trkpt>
      <trkpt lat="47.7056" lon="-2.34987">
        <ele>74.8</ele>
        <time>2021-05-27T12:15:26Z</time>
      </trkpt>
      <trkpt lat="47.70557" lon="-2.34989">
        <ele>74.6</ele>
        <time>2021-05-27T12:15:27Z</time>
      </trkpt>
      <trkpt lat="47.70555" lon="-2.34991">
        <ele>74.5</ele>
        <time>2021-05-27T12:15:28Z</time>
      </trkpt>
      <trkpt lat="47.70554" lon="-2.34992">
        <ele>74.3</ele>
        <time>2021-05-27T12:15:29Z</time>
      </trkpt>
      <trkpt lat="47.70551" lon="-2.34993">
        <ele>74.2</ele>
        <time>2021-05-27T12:15:30Z</time>
      </trkpt>
      <trkpt lat="47.70548" lon="-2.34994">
        <ele>74</ele>
        <time>2021-05-27T12:15:31Z</time>
      </trkpt>
      <trkpt lat="47.70546" lon="-2.34995">
        <ele>73.8</ele>
        <time>2021-05-27T12:15:32Z</time>
      </trkpt>
      <trkpt lat="47.70543" lon="-2.34996">
        <ele>73.6</ele>
        <time>2021-05-27T12:15:33Z</time>
      </trkpt>
      <trkpt lat="47.7054" lon="-2.34997">
        <ele>73.5</ele>
        <time>2021-05-27T12:15:34Z</time>
      </trkpt>
      <trkpt lat="47.70538" lon="-2.34999">
        <ele>73.3</ele>
        <time>2021-05-27T12:15:35Z</time>
      </trkpt>
      <trkpt lat="47.70536" lon="-2.35001">
        <ele>73.1</ele>
        <time>2021-05-27T12:15:36Z</time>
      </trkpt>
      <trkpt lat="47.70533" lon="-2.35003">
        <ele>72.9</ele>
        <time>2021-05-27T12:15:37Z</time>
      </trkpt>
      <trkpt lat="47.7053" lon="-2.35005">
        <ele>72.7</ele>
        <time>2021-05-27T12:15:38Z</time>
      </trkpt>
      <trkpt lat="47.70528" lon="-2.35007">
        <ele>72.5</ele>
        <time>2021-05-27T12:15:39Z</time>
      </trkpt>
      <trkpt lat="47.70525" lon="-2.35009">
        <ele>72.3</ele>
        <time>2021-05-27T12:15:40Z</time>
      </trkpt>
      <trkpt lat="47.70523" lon="-2.3501">
        <ele>72.2</ele>
        <time>2021-05-27T12:15:41Z</time>
      </trkpt>
      <trkpt lat="47.7052" lon="-2.35011">
        <ele>72</ele>
        <time>2021-05-27T12:15:42Z</time>
      </trkpt>
      <trkpt lat="47.70518" lon="-2.35012">
        <ele>71.8</ele>
        <time>2021-05-27T12:15:43Z</time>
      </trkpt>
      <trkpt lat="47.70516" lon="-2.35013">
        <ele>71.7</ele>
        <time>2021-05-27T12:15:44Z</time>
      </trkpt>
      <trkpt lat="47.70514" lon="-2.35015">
        <ele>71.5</ele>
        <time>2021-05-27T12:15:45Z</time>
      </trkpt>
      <trkpt lat="47.70512" lon="-2.35015">
        <ele>71.4</ele>
        <time>2021-05-27T12:15:46Z</time>
      </trkpt>
      <trkpt lat="47.7051" lon="-2.35015">
        <ele>71.3</ele>
        <time>2021-05-27T12:15:47Z</time>
      </trkpt>
      <trkpt lat="47.70509" lon="-2.35014">
        <ele>71.2</ele>
        <time>2021-05-27T12:15:48Z</time>
      </trkpt>
      <trkpt lat="47.70509" lon="-2.35013">
        <ele>71.3</ele>
        <time>2021-05-27T12:15:49Z</time>
      </trkpt>
      <trkpt lat="47.7051" lon="-2.35014">
        <ele>71.3</ele>
        <time>2021-05-27T12:15:50Z</time>
      </trkpt>
      <trkpt lat="47.7051" lon="-2.35014">
        <ele>71.3</ele>
        <time>2021-05-27T12:15:51Z</time>
      </trkpt>
      <trkpt lat="47.7051" lon="-2.35014">
        <ele>71.3</ele>
        <time>2021-05-27T12:15:52Z</time>
      </trkpt>
      <trkpt lat="47.7051" lon="-2.35014">
        <ele>71.3</ele>
        <time>2021-05-27T12:15:53Z</time>
      </trkpt>
      <trkpt lat="47.7051" lon="-2.35014">
        <ele>71.3</ele>
        <time>2021-05-27T12:15:54Z</time>
      </trkpt>
      <trkpt lat="47.7051" lon="-2.35014">
        <ele>71.3</ele>
        <time>2021-05-27T12:15:55Z</time>
      </trkpt>
      <trkpt lat="47.7051" lon="-2.35014">
        <ele>71.3</ele>
        <time>2021-05-27T12:15:56Z</time>
      </trkpt>
      <trkpt lat="47.7051" lon="-2.35014">
        <ele>71.3</ele>
        <time>2021-05-27T12:15:57Z</time>
      </trkpt>
      <trkpt lat="47.7051" lon="-2.35014">
        <ele>71.3</ele>
        <time>2021-05-27T12:15:58Z</time>
      </trkpt>
      <trkpt lat="47.7051" lon="-2.35014">
        <ele>71.3</ele>
        <time>2021-05-27T12:15:59Z</time>
      </trkpt>
      <trkpt lat="47.7051" lon="-2.35014">
        <ele>71.3</ele>
        <time>2021-05-27T12:16:00Z</time>
      </trkpt>
      <trkpt lat="47.7051" lon="-2.35014">
        <ele>71.3</ele>
        <time>2021-05-27T12:16:01Z</time>
      </trkpt>
      <trkpt lat="47.7051" lon="-2.35014">
        <ele>71.3</ele>
        <time>2021-05-27T12:16:02Z</time>
      </trkpt>
      <trkpt lat="47.7051" lon="-2.35014">
        <ele>71.3</ele>
        <time>2021-05-27T12:16:03Z</time>
      </trkpt>
      <trkpt lat="47.7051" lon="-2.35014">
        <ele>71.3</ele>
        <time>2021-05-27T12:16:04Z</time>
      </trkpt>
      <trkpt lat="47.7051" lon="-2.35014">
        <ele>71.3</ele>
        <time>2021-05-27T12:16:05Z</time>
      </trkpt>
      <trkpt lat="47.7051" lon="-2.35014">
        <ele>71.3</ele>
        <time>2021-05-27T12:16:06Z</time>
      </trkpt>
      <trkpt lat="47.7051" lon="-2.35014">
        <ele>71.3</ele>
        <time>2021-05-27T12:16:07Z</time>
      </trkpt>
      <trkpt lat="47.7051" lon="-2.35014">
        <ele>71.3</ele>
        <time>2021-05-27T12:16:08Z</time>
      </trkpt>
      <trkpt lat="47.7051" lon="-2.35014">
        <ele>71.3</ele>
        <time>2021-05-27T12:16:09Z</time>
      </trkpt>
      <trkpt lat="47.7051" lon="-2.35014">
        <ele>71.3</ele>
        <time>2021-05-27T12:16:10Z</time>
      </trkpt>
      <trkpt lat="47.7051" lon="-2.35014">
        <ele>71.3</ele>
        <time>2021-05-27T12:16:11Z</time>
      </trkpt>
      <trkpt lat="47.7051" lon="-2.35014">
        <ele>71.3</ele>
        <time>2021-05-27T12:16:12Z</time>
      </trkpt>
      <trkpt lat="47.7051" lon="-2.35014">
        <ele>71.3</ele>
        <time>2021-05-27T12:16:13Z</time>
      </trkpt>
      <trkpt lat="47.7051" lon="-2.35014">
        <ele>71.3</ele>
        <time>2021-05-27T12:16:14Z</time>
      </trkpt>
      <trkpt lat="47.7051" lon="-2.35014">
        <ele>71.3</ele>
        <time>2021-05-27T12:16:15Z</time>
      </trkpt>
      <trkpt lat="47.70511" lon="-2.3501">
        <ele>71.5</ele>
        <time>2021-05-27T12:16:16Z</time>
      </trkpt>
      <trkpt lat="47.70509" lon="-2.35005">
        <ele>71.5</ele>
        <time>2021-05-27T12:16:17Z</time>
      </trkpt>
      <trkpt lat="47.70508" lon="-2.35001">
        <ele>71.5</ele>
        <time>2021-05-27T12:16:18Z</time>
      </trkpt>
      <trkpt lat="47.70506" lon="-2.34996">
        <ele>71.5</ele>
        <time>2021-05-27T12:16:19Z</time>
      </trkpt>
      <trkpt lat="47.70505" lon="-2.34992">
        <ele>71.5</ele>
        <time>2021-05-27T12:16:20Z</time>
      </trkpt>
      <trkpt lat="47.70503" lon="-2.34988">
        <ele>71.5</ele>
        <time>2021-05-27T12:16:21Z</time>
      </trkpt>
      <trkpt lat="47.70502" lon="-2.34984">
        <ele>71.5</ele>
        <time>2021-05-27T12:16:22Z</time>
      </trkpt>
      <trkpt lat="47.70501" lon="-2.34982">
        <ele>71.5</ele>
        <time>2021-05-27T12:16:23Z</time>
      </trkpt>
      <trkpt lat="47.70501" lon="-2.34981">
        <ele>71.5</ele>
        <time>2021-05-27T12:16:24Z</time>
      </trkpt>
      <trkpt lat="47.70501" lon="-2.34981">
        <ele>71.5</ele>
        <time>2021-05-27T12:16:25Z</time>
      </trkpt>
      <trkpt lat="47.70501" lon="-2.34981">
        <ele>71.5</ele>
        <time>2021-05-27T12:16:26Z</time>
      </trkpt>
      <trkpt lat="47.70501" lon="-2.34981">
        <ele>71.5</ele>
        <time>2021-05-27T12:16:27Z</time>
      </trkpt>
      <trkpt lat="47.70501" lon="-2.34981">
        <ele>71.5</ele>
        <time>2021-05-27T12:16:28Z</time>
      </trkpt>
      <trkpt lat="47.70501" lon="-2.34981">
        <ele>71.5</ele>
        <time>2021-05-27T12:16:29Z</time>
      </trkpt>
      <trkpt lat="47.70501" lon="-2.34981">
        <ele>71.5</ele>
        <time>2021-05-27T12:16:30Z</time>
      </trkpt>
      <trkpt lat="47.70501" lon="-2.34981">
        <ele>71.5</ele>
        <time>2021-05-27T12:16:31Z</time>
      </trkpt>
      <trkpt lat="47.70501" lon="-2.34981">
        <ele>71.5</ele>
        <time>2021-05-27T12:16:32Z</time>
      </trkpt>
      <trkpt lat="47.70501" lon="-2.34981">
        <ele>71.5</ele>
        <time>2021-05-27T12:16:33Z</time>
      </trkpt>
      <trkpt lat="47.70501" lon="-2.34981">
        <ele>71.5</ele>
        <time>2021-05-27T12:16:34Z</time>
      </trkpt>
      <trkpt lat="47.70499" lon="-2.34973">
        <ele>71.4</ele>
        <time>2021-05-27T12:16:35Z</time>
      </trkpt>
      <trkpt lat="47.70499" lon="-2.34972">
        <ele>71.4</ele>
        <time>2021-05-27T12:16:36Z</time>
      </trkpt>
      <trkpt lat="47.70498" lon="-2.3497">
        <ele>71.4</ele>
        <time>2021-05-27T12:16:37Z</time>
      </trkpt>
      <trkpt lat="47.70498" lon="-2.34967">
        <ele>71.4</ele>
        <time>2021-05-27T12:16:38Z</time>
      </trkpt>
      <trkpt lat="47.70499" lon="-2.34965">
        <ele>71.6</ele>
        <time>2021-05-27T12:16:39Z</time>
      </trkpt>
      <trkpt lat="47.705" lon="-2.34963">
        <ele>71.8</ele>
        <time>2021-05-27T12:16:40Z</time>
      </trkpt>
      <trkpt lat="47.70501" lon="-2.34961">
        <ele>72</ele>
        <time>2021-05-27T12:16:41Z</time>
      </trkpt>
      <trkpt lat="47.70501" lon="-2.34959">
        <ele>72</ele>
        <time>2021-05-27T12:16:42Z</time>
      </trkpt>
      <trkpt lat="47.70501" lon="-2.34956">
        <ele>72.1</ele>
        <time>2021-05-27T12:16:43Z</time>
      </trkpt>
      <trkpt lat="47.70501" lon="-2.34952">
        <ele>72.2</ele>
        <time>2021-05-27T12:16:44Z</time>
      </trkpt>
      <trkpt lat="47.70501" lon="-2.3495">
        <ele>72.3</ele>
        <time>2021-05-27T12:16:45Z</time>
      </trkpt>
      <trkpt lat="47.70501" lon="-2.34947">
        <ele>72.3</ele>
        <time>2021-05-27T12:16:46Z</time>
      </trkpt>
      <trkpt lat="47.70501" lon="-2.34943">
        <ele>72.4</ele>
        <time>2021-05-27T12:16:47Z</time>
      </trkpt>
      <trkpt lat="47.70501" lon="-2.3494">
        <ele>72.5</ele>
        <time>2021-05-27T12:16:48Z</time>
      </trkpt>
      <trkpt lat="47.70501" lon="-2.34937">
        <ele>72.6</ele>
        <time>2021-05-27T12:16:49Z</time>
      </trkpt>
      <trkpt lat="47.70501" lon="-2.34933">
        <ele>72.7</ele>
        <time>2021-05-27T12:16:50Z</time>
      </trkpt>
      <trkpt lat="47.70501" lon="-2.3493">
        <ele>72.7</ele>
        <time>2021-05-27T12:16:51Z</time>
      </trkpt>
      <trkpt lat="47.70501" lon="-2.34926">
        <ele>72.8</ele>
        <time>2021-05-27T12:16:52Z</time>
      </trkpt>
      <trkpt lat="47.705" lon="-2.34922">
        <ele>72.9</ele>
        <time>2021-05-27T12:16:53Z</time>
      </trkpt>
      <trkpt lat="47.70499" lon="-2.34918">
        <ele>72.7</ele>
        <time>2021-05-27T12:16:54Z</time>
      </trkpt>
      <trkpt lat="47.70498" lon="-2.34914">
        <ele>72.5</ele>
        <time>2021-05-27T12:16:55Z</time>
      </trkpt>
      <trkpt lat="47.70496" lon="-2.3491">
        <ele>72.2</ele>
        <time>2021-05-27T12:16:56Z</time>
      </trkpt>
      <trkpt lat="47.70495" lon="-2.34906">
        <ele>72</ele>
        <time>2021-05-27T12:16:57Z</time>
      </trkpt>
      <trkpt lat="47.70494" lon="-2.34903">
        <ele>71.9</ele>
        <time>2021-05-27T12:16:58Z</time>
      </trkpt>
      <trkpt lat="47.70494" lon="-2.34899">
        <ele>71.8</ele>
        <time>2021-05-27T12:16:59Z</time>
      </trkpt>
      <trkpt lat="47.70493" lon="-2.34895">
        <ele>71.8</ele>
        <time>2021-05-27T12:17:00Z</time>
      </trkpt>
      <trkpt lat="47.70493" lon="-2.34891">
        <ele>71.9</ele>
        <time>2021-05-27T12:17:01Z</time>
      </trkpt>
      <trkpt lat="47.70493" lon="-2.34887">
        <ele>72.1</ele>
        <time>2021-05-27T12:17:02Z</time>
      </trkpt>
      <trkpt lat="47.70492" lon="-2.34883">
        <ele>72</ele>
        <time>2021-05-27T12:17:03Z</time>
      </trkpt>
      <trkpt lat="47.70492" lon="-2.34882">
        <ele>71.8</ele>
        <time>2021-05-27T12:17:04Z</time>
      </trkpt>
      <trkpt lat="47.70491" lon="-2.3488">
        <ele>71.7</ele>
        <time>2021-05-27T12:17:05Z</time>
      </trkpt>
      <trkpt lat="47.7049" lon="-2.34877">
        <ele>71.6</ele>
        <time>2021-05-27T12:17:06Z</time>
      </trkpt>
      <trkpt lat="47.70489" lon="-2.34874">
        <ele>71.3</ele>
        <time>2021-05-27T12:17:07Z</time>
      </trkpt>
      <trkpt lat="47.70488" lon="-2.3487">
        <ele>71.1</ele>
        <time>2021-05-27T12:17:08Z</time>
      </trkpt>
      <trkpt lat="47.70486" lon="-2.34868">
        <ele>70.8</ele>
        <time>2021-05-27T12:17:09Z</time>
      </trkpt>
      <trkpt lat="47.70483" lon="-2.34867">
        <ele>70.1</ele>
        <time>2021-05-27T12:17:10Z</time>
      </trkpt>
      <trkpt lat="47.70481" lon="-2.34866">
        <ele>69.7</ele>
        <time>2021-05-27T12:17:11Z</time>
      </trkpt>
      <trkpt lat="47.70479" lon="-2.34862">
        <ele>69.5</ele>
        <time>2021-05-27T12:17:12Z</time>
      </trkpt>
      <trkpt lat="47.70478" lon="-2.34858">
        <ele>69.3</ele>
        <time>2021-05-27T12:17:13Z</time>
      </trkpt>
      <trkpt lat="47.70477" lon="-2.34854">
        <ele>69.1</ele>
        <time>2021-05-27T12:17:14Z</time>
      </trkpt>
      <trkpt lat="47.70476" lon="-2.34851">
        <ele>68.9</ele>
        <time>2021-05-27T12:17:15Z</time>
      </trkpt>
      <trkpt lat="47.70475" lon="-2.34848">
        <ele>68.8</ele>
        <time>2021-05-27T12:17:16Z</time>
      </trkpt>
      <trkpt lat="47.70475" lon="-2.34846">
        <ele>68.9</ele>
        <time>2021-05-27T12:17:17Z</time>
      </trkpt>
      <trkpt lat="47.70476" lon="-2.34844">
        <ele>69.2</ele>
        <time>2021-05-27T12:17:18Z</time>
      </trkpt>
      <trkpt lat="47.70477" lon="-2.34844">
        <ele>69.5</ele>
        <time>2021-05-27T12:17:19Z</time>
      </trkpt>
      <trkpt lat="47.70477" lon="-2.34843">
        <ele>69.5</ele>
        <time>2021-05-27T12:17:20Z</time>
      </trkpt>
      <trkpt lat="47.70478" lon="-2.34843">
        <ele>69.8</ele>
        <time>2021-05-27T12:17:21Z</time>
      </trkpt>
      <trkpt lat="47.70479" lon="-2.34842">
        <ele>70</ele>
        <time>2021-05-27T12:17:22Z</time>
      </trkpt>
      <trkpt lat="47.7048" lon="-2.34841">
        <ele>70.3</ele>
        <time>2021-05-27T12:17:23Z</time>
      </trkpt>
      <trkpt lat="47.70482" lon="-2.34841">
        <ele>70.6</ele>
        <time>2021-05-27T12:17:24Z</time>
      </trkpt>
      <trkpt lat="47.70484" lon="-2.3484">
        <ele>71</ele>
        <time>2021-05-27T12:17:25Z</time>
      </trkpt>
      <trkpt lat="47.70485" lon="-2.34838">
        <ele>71.5</ele>
        <time>2021-05-27T12:17:26Z</time>
      </trkpt>
      <trkpt lat="47.70488" lon="-2.34837">
        <ele>72.1</ele>
        <time>2021-05-27T12:17:27Z</time>
      </trkpt>
      <trkpt lat="47.7049" lon="-2.34835">
        <ele>72.6</ele>
        <time>2021-05-27T12:17:28Z</time>
      </trkpt>
      <trkpt lat="47.70491" lon="-2.34833">
        <ele>73</ele>
        <time>2021-05-27T12:17:29Z</time>
      </trkpt>
      <trkpt lat="47.70493" lon="-2.34831">
        <ele>73.3</ele>
        <time>2021-05-27T12:17:30Z</time>
      </trkpt>
      <trkpt lat="47.70494" lon="-2.34829">
        <ele>73.7</ele>
        <time>2021-05-27T12:17:31Z</time>
      </trkpt>
      <trkpt lat="47.70496" lon="-2.34827">
        <ele>74.1</ele>
        <time>2021-05-27T12:17:32Z</time>
      </trkpt>
      <trkpt lat="47.70499" lon="-2.34825">
        <ele>74.6</ele>
        <time>2021-05-27T12:17:33Z</time>
      </trkpt>
      <trkpt lat="47.70501" lon="-2.34824">
        <ele>74.9</ele>
        <time>2021-05-27T12:17:34Z</time>
      </trkpt>
      <trkpt lat="47.70504" lon="-2.34823">
        <ele>75</ele>
        <time>2021-05-27T12:17:35Z</time>
      </trkpt>
      <trkpt lat="47.70507" lon="-2.34823">
        <ele>75</ele>
        <time>2021-05-27T12:17:36Z</time>
      </trkpt>
      <trkpt lat="47.70508" lon="-2.34823">
        <ele>75.1</ele>
        <time>2021-05-27T12:17:37Z</time>
      </trkpt>
      <trkpt lat="47.7051" lon="-2.34824">
        <ele>75.1</ele>
        <time>2021-05-27T12:17:38Z</time>
      </trkpt>
      <trkpt lat="47.70512" lon="-2.34825">
        <ele>75.2</ele>
        <time>2021-05-27T12:17:39Z</time>
      </trkpt>
      <trkpt lat="47.70514" lon="-2.34825">
        <ele>75.2</ele>
        <time>2021-05-27T12:17:40Z</time>
      </trkpt>
      <trkpt lat="47.70517" lon="-2.34825">
        <ele>75.3</ele>
        <time>2021-05-27T12:17:41Z</time>
      </trkpt>
      <trkpt lat="47.7052" lon="-2.34823">
        <ele>75.4</ele>
        <time>2021-05-27T12:17:42Z</time>
      </trkpt>
      <trkpt lat="47.70522" lon="-2.3482">
        <ele>75.4</ele>
        <time>2021-05-27T12:17:43Z</time>
      </trkpt>
      <trkpt lat="47.70523" lon="-2.34817">
        <ele>75.4</ele>
        <time>2021-05-27T12:17:44Z</time>
      </trkpt>
      <trkpt lat="47.70523" lon="-2.34814">
        <ele>75.3</ele>
        <time>2021-05-27T12:17:45Z</time>
      </trkpt>
      <trkpt lat="47.70523" lon="-2.34811">
        <ele>75.3</ele>
        <time>2021-05-27T12:17:46Z</time>
      </trkpt>
      <trkpt lat="47.70523" lon="-2.34808">
        <ele>75.2</ele>
        <time>2021-05-27T12:17:47Z</time>
      </trkpt>
      <trkpt lat="47.70524" lon="-2.34805">
        <ele>75.2</ele>
        <time>2021-05-27T12:17:48Z</time>
      </trkpt>
      <trkpt lat="47.70523" lon="-2.34802">
        <ele>75.2</ele>
        <time>2021-05-27T12:17:49Z</time>
      </trkpt>
      <trkpt lat="47.70522" lon="-2.34799">
        <ele>75.1</ele>
        <time>2021-05-27T12:17:50Z</time>
      </trkpt>
      <trkpt lat="47.70522" lon="-2.34796">
        <ele>75.1</ele>
        <time>2021-05-27T12:17:51Z</time>
      </trkpt>
      <trkpt lat="47.70521" lon="-2.34795">
        <ele>75</ele>
        <time>2021-05-27T12:17:52Z</time>
      </trkpt>
      <trkpt lat="47.70519" lon="-2.34793">
        <ele>75</ele>
        <time>2021-05-27T12:17:53Z</time>
      </trkpt>
      <trkpt lat="47.70518" lon="-2.34792">
        <ele>74.9</ele>
        <time>2021-05-27T12:17:54Z</time>
      </trkpt>
      <trkpt lat="47.70516" lon="-2.34791">
        <ele>74.9</ele>
        <time>2021-05-27T12:17:55Z</time>
      </trkpt>
      <trkpt lat="47.70514" lon="-2.34789">
        <ele>74.8</ele>
        <time>2021-05-27T12:17:56Z</time>
      </trkpt>
      <trkpt lat="47.70512" lon="-2.3479">
        <ele>74.8</ele>
        <time>2021-05-27T12:17:57Z</time>
      </trkpt>
      <trkpt lat="47.70509" lon="-2.3479">
        <ele>74.7</ele>
        <time>2021-05-27T12:17:58Z</time>
      </trkpt>
      <trkpt lat="47.70507" lon="-2.3479">
        <ele>74.6</ele>
        <time>2021-05-27T12:17:59Z</time>
      </trkpt>
      <trkpt lat="47.70505" lon="-2.34789">
        <ele>74.6</ele>
        <time>2021-05-27T12:18:00Z</time>
      </trkpt>
      <trkpt lat="47.70503" lon="-2.34787">
        <ele>74.5</ele>
        <time>2021-05-27T12:18:01Z</time>
      </trkpt>
      <trkpt lat="47.70502" lon="-2.34784">
        <ele>74.5</ele>
        <time>2021-05-27T12:18:02Z</time>
      </trkpt>
      <trkpt lat="47.70502" lon="-2.3478">
        <ele>74.4</ele>
        <time>2021-05-27T12:18:03Z</time>
      </trkpt>
      <trkpt lat="47.70501" lon="-2.34778">
        <ele>74.3</ele>
        <time>2021-05-27T12:18:04Z</time>
      </trkpt>
      <trkpt lat="47.705" lon="-2.34778">
        <ele>74.3</ele>
        <time>2021-05-27T12:18:05Z</time>
      </trkpt>
      <trkpt lat="47.70499" lon="-2.3478">
        <ele>74.1</ele>
        <time>2021-05-27T12:18:06Z</time>
      </trkpt>
      <trkpt lat="47.70497" lon="-2.34781">
        <ele>73.8</ele>
        <time>2021-05-27T12:18:07Z</time>
      </trkpt>
      <trkpt lat="47.70495" lon="-2.34781">
        <ele>73.4</ele>
        <time>2021-05-27T12:18:08Z</time>
      </trkpt>
      <trkpt lat="47.70493" lon="-2.34779">
        <ele>73.1</ele>
        <time>2021-05-27T12:18:09Z</time>
      </trkpt>
      <trkpt lat="47.70491" lon="-2.34776">
        <ele>72.7</ele>
        <time>2021-05-27T12:18:10Z</time>
      </trkpt>
      <trkpt lat="47.70489" lon="-2.34773">
        <ele>72.4</ele>
        <time>2021-05-27T12:18:11Z</time>
      </trkpt>
      <trkpt lat="47.70488" lon="-2.34769">
        <ele>72.2</ele>
        <time>2021-05-27T12:18:12Z</time>
      </trkpt>
      <trkpt lat="47.70487" lon="-2.34765">
        <ele>71.9</ele>
        <time>2021-05-27T12:18:13Z</time>
      </trkpt>
      <trkpt lat="47.70485" lon="-2.34762">
        <ele>71.6</ele>
        <time>2021-05-27T12:18:14Z</time>
      </trkpt>
      <trkpt lat="47.70482" lon="-2.34757">
        <ele>71.2</ele>
        <time>2021-05-27T12:18:15Z</time>
      </trkpt>
      <trkpt lat="47.70481" lon="-2.34752">
        <ele>71</ele>
        <time>2021-05-27T12:18:16Z</time>
      </trkpt>
      <trkpt lat="47.70479" lon="-2.34747">
        <ele>70.7</ele>
        <time>2021-05-27T12:18:17Z</time>
      </trkpt>
      <trkpt lat="47.70477" lon="-2.34743">
        <ele>70.5</ele>
        <time>2021-05-27T12:18:18Z</time>
      </trkpt>
      <trkpt lat="47.70475" lon="-2.34739">
        <ele>70.3</ele>
        <time>2021-05-27T12:18:19Z</time>
      </trkpt>
      <trkpt lat="47.70473" lon="-2.34736">
        <ele>70</ele>
        <time>2021-05-27T12:18:20Z</time>
      </trkpt>
      <trkpt lat="47.70471" lon="-2.34733">
        <ele>69.8</ele>
        <time>2021-05-27T12:18:21Z</time>
      </trkpt>
      <trkpt lat="47.70469" lon="-2.34732">
        <ele>69.5</ele>
        <time>2021-05-27T12:18:22Z</time>
      </trkpt>
      <trkpt lat="47.70466" lon="-2.3473">
        <ele>69.1</ele>
        <time>2021-05-27T12:18:23Z</time>
      </trkpt>
      <trkpt lat="47.70463" lon="-2.34731">
        <ele>68.7</ele>
        <time>2021-05-27T12:18:24Z</time>
      </trkpt>
      <trkpt lat="47.70461" lon="-2.3473">
        <ele>68.3</ele>
        <time>2021-05-27T12:18:25Z</time>
      </trkpt>
      <trkpt lat="47.70459" lon="-2.34729">
        <ele>68</ele>
        <time>2021-05-27T12:18:26Z</time>
      </trkpt>
      <trkpt lat="47.70457" lon="-2.34729">
        <ele>67.8</ele>
        <time>2021-05-27T12:18:27Z</time>
      </trkpt>
      <trkpt lat="47.70455" lon="-2.34728">
        <ele>67.6</ele>
        <time>2021-05-27T12:18:28Z</time>
      </trkpt>
      <trkpt lat="47.70455" lon="-2.34728">
        <ele>67.5</ele>
        <time>2021-05-27T12:18:29Z</time>
      </trkpt>
      <trkpt lat="47.70454" lon="-2.34728">
        <ele>67.4</ele>
        <time>2021-05-27T12:18:30Z</time>
      </trkpt>
      <trkpt lat="47.70454" lon="-2.34728">
        <ele>67.4</ele>
        <time>2021-05-27T12:18:31Z</time>
      </trkpt>
      <trkpt lat="47.70454" lon="-2.34728">
        <ele>67.4</ele>
        <time>2021-05-27T12:18:32Z</time>
      </trkpt>
      <trkpt lat="47.70454" lon="-2.34728">
        <ele>67.4</ele>
        <time>2021-05-27T12:18:33Z</time>
      </trkpt>
      <trkpt lat="47.70454" lon="-2.34728">
        <ele>67.4</ele>
        <time>2021-05-27T12:18:34Z</time>
      </trkpt>
      <trkpt lat="47.70454" lon="-2.34728">
        <ele>67.4</ele>
        <time>2021-05-27T12:18:35Z</time>
      </trkpt>
      <trkpt lat="47.70454" lon="-2.34728">
        <ele>67.4</ele>
        <time>2021-05-27T12:18:36Z</time>
      </trkpt>
      <trkpt lat="47.70454" lon="-2.34728">
        <ele>67.4</ele>
        <time>2021-05-27T12:18:37Z</time>
      </trkpt>
      <trkpt lat="47.70454" lon="-2.34728">
        <ele>67.4</ele>
        <time>2021-05-27T12:18:38Z</time>
      </trkpt>
      <trkpt lat="47.70451" lon="-2.34717">
        <ele>67.2</ele>
        <time>2021-05-27T12:18:39Z</time>
      </trkpt>
      <trkpt lat="47.7045" lon="-2.34713">
        <ele>67.2</ele>
        <time>2021-05-27T12:18:40Z</time>
      </trkpt>
      <trkpt lat="47.7045" lon="-2.34709">
        <ele>67.4</ele>
        <time>2021-05-27T12:18:41Z</time>
      </trkpt>
      <trkpt lat="47.7045" lon="-2.34705">
        <ele>67.5</ele>
        <time>2021-05-27T12:18:42Z</time>
      </trkpt>
      <trkpt lat="47.7045" lon="-2.347">
        <ele>67.7</ele>
        <time>2021-05-27T12:18:43Z</time>
      </trkpt>
      <trkpt lat="47.70451" lon="-2.34697">
        <ele>67.9</ele>
        <time>2021-05-27T12:18:44Z</time>
      </trkpt>
      <trkpt lat="47.70451" lon="-2.34694">
        <ele>67.9</ele>
        <time>2021-05-27T12:18:45Z</time>
      </trkpt>
      <trkpt lat="47.70449" lon="-2.3469">
        <ele>67.9</ele>
        <time>2021-05-27T12:18:46Z</time>
      </trkpt>
      <trkpt lat="47.70447" lon="-2.34687">
        <ele>67.7</ele>
        <time>2021-05-27T12:18:47Z</time>
      </trkpt>
      <trkpt lat="47.70446" lon="-2.34684">
        <ele>67.6</ele>
        <time>2021-05-27T12:18:48Z</time>
      </trkpt>
      <trkpt lat="47.70445" lon="-2.34683">
        <ele>67.6</ele>
        <time>2021-05-27T12:18:49Z</time>
      </trkpt>
      <trkpt lat="47.70445" lon="-2.34683">
        <ele>67.5</ele>
        <time>2021-05-27T12:18:50Z</time>
      </trkpt>
      <trkpt lat="47.70445" lon="-2.34683">
        <ele>67.5</ele>
        <time>2021-05-27T12:18:51Z</time>
      </trkpt>
      <trkpt lat="47.70445" lon="-2.34683">
        <ele>67.5</ele>
        <time>2021-05-27T12:18:52Z</time>
      </trkpt>
      <trkpt lat="47.70445" lon="-2.34683">
        <ele>67.5</ele>
        <time>2021-05-27T12:18:53Z</time>
      </trkpt>
      <trkpt lat="47.70445" lon="-2.34683">
        <ele>67.5</ele>
        <time>2021-05-27T12:18:54Z</time>
      </trkpt>
      <trkpt lat="47.70445" lon="-2.34683">
        <ele>67.5</ele>
        <time>2021-05-27T12:18:55Z</time>
      </trkpt>
      <trkpt lat="47.70445" lon="-2.34683">
        <ele>67.5</ele>
        <time>2021-05-27T12:18:56Z</time>
      </trkpt>
      <trkpt lat="47.70445" lon="-2.34683">
        <ele>67.5</ele>
        <time>2021-05-27T12:18:57Z</time>
      </trkpt>
      <trkpt lat="47.70445" lon="-2.34683">
        <ele>67.5</ele>
        <time>2021-05-27T12:18:58Z</time>
      </trkpt>
      <trkpt lat="47.70445" lon="-2.34683">
        <ele>67.5</ele>
        <time>2021-05-27T12:18:59Z</time>
      </trkpt>
      <trkpt lat="47.70445" lon="-2.34683">
        <ele>67.5</ele>
        <time>2021-05-27T12:19:00Z</time>
      </trkpt>
      <trkpt lat="47.70445" lon="-2.34683">
        <ele>67.5</ele>
        <time>2021-05-27T12:19:01Z</time>
      </trkpt>
      <trkpt lat="47.70445" lon="-2.34683">
        <ele>67.5</ele>
        <time>2021-05-27T12:19:02Z</time>
      </trkpt>
      <trkpt lat="47.70445" lon="-2.34683">
        <ele>67.5</ele>
        <time>2021-05-27T12:19:03Z</time>
      </trkpt>
      <trkpt lat="47.70443" lon="-2.3468">
        <ele>67.4</ele>
        <time>2021-05-27T12:19:04Z</time>
      </trkpt>
      <trkpt lat="47.70442" lon="-2.34677">
        <ele>67.4</ele>
        <time>2021-05-27T12:19:05Z</time>
      </trkpt>
      <trkpt lat="47.70441" lon="-2.34674">
        <ele>67.4</ele>
        <time>2021-05-27T12:19:06Z</time>
      </trkpt>
      <trkpt lat="47.7044" lon="-2.34672">
        <ele>67.3</ele>
        <time>2021-05-27T12:19:07Z</time>
      </trkpt>
      <trkpt lat="47.70439" lon="-2.34669">
        <ele>67.3</ele>
        <time>2021-05-27T12:19:08Z</time>
      </trkpt>
      <trkpt lat="47.70438" lon="-2.34667">
        <ele>67.3</ele>
        <time>2021-05-27T12:19:09Z</time>
      </trkpt>
      <trkpt lat="47.70436" lon="-2.34664">
        <ele>67.3</ele>
        <time>2021-05-27T12:19:10Z</time>
      </trkpt>
      <trkpt lat="47.70434" lon="-2.3466">
        <ele>67.2</ele>
        <time>2021-05-27T12:19:11Z</time>
      </trkpt>
      <trkpt lat="47.70432" lon="-2.34656">
        <ele>67.3</ele>
        <time>2021-05-27T12:19:12Z</time>
      </trkpt>
      <trkpt lat="47.7043" lon="-2.34651">
        <ele>67.3</ele>
        <time>2021-05-27T12:19:13Z</time>
      </trkpt>
      <trkpt lat="47.70429" lon="-2.34647">
        <ele>67.4</ele>
        <time>2021-05-27T12:19:14Z</time>
      </trkpt>
      <trkpt lat="47.70427" lon="-2.34642">
        <ele>67.5</ele>
        <time>2021-05-27T12:19:15Z</time>
      </trkpt>
      <trkpt lat="47.70425" lon="-2.34638">
        <ele>67.5</ele>
        <time>2021-05-27T12:19:16Z</time>
      </trkpt>
      <trkpt lat="47.70423" lon="-2.34635">
        <ele>67.5</ele>
        <time>2021-05-27T12:19:17Z</time>
      </trkpt>
      <trkpt lat="47.70421" lon="-2.34631">
        <ele>67.6</ele>
        <time>2021-05-27T12:19:18Z</time>
      </trkpt>
      <trkpt lat="47.7042" lon="-2.34627">
        <ele>67.7</ele>
        <time>2021-05-27T12:19:19Z</time>
      </trkpt>
      <trkpt lat="47.70418" lon="-2.34623">
        <ele>67.7</ele>
        <time>2021-05-27T12:19:20Z</time>
      </trkpt>
      <trkpt lat="47.70418" lon="-2.34619">
        <ele>68</ele>
        <time>2021-05-27T12:19:21Z</time>
      </trkpt>
      <trkpt lat="47.70417" lon="-2.34615">
        <ele>68.2</ele>
        <time>2021-05-27T12:19:22Z</time>
      </trkpt>
      <trkpt lat="47.70418" lon="-2.34612">
        <ele>68.4</ele>
        <time>2021-05-27T12:19:23Z</time>
      </trkpt>
      <trkpt lat="47.70417" lon="-2.34608">
        <ele>68.6</ele>
        <time>2021-05-27T12:19:24Z</time>
      </trkpt>
      <trkpt lat="47.70417" lon="-2.34605">
        <ele>68.7</ele>
        <time>2021-05-27T12:19:25Z</time>
      </trkpt>
      <trkpt lat="47.70416" lon="-2.34602">
        <ele>68.7</ele>
        <time>2021-05-27T12:19:26Z</time>
      </trkpt>
      <trkpt lat="47.70414" lon="-2.346">
        <ele>68.5</ele>
        <time>2021-05-27T12:19:27Z</time>
      </trkpt>
      <trkpt lat="47.70413" lon="-2.34597">
        <ele>68.4</ele>
        <time>2021-05-27T12:19:28Z</time>
      </trkpt>
      <trkpt lat="47.70411" lon="-2.34594">
        <ele>68.2</ele>
        <time>2021-05-27T12:19:29Z</time>
      </trkpt>
      <trkpt lat="47.7041" lon="-2.3459">
        <ele>68.2</ele>
        <time>2021-05-27T12:19:30Z</time>
      </trkpt>
      <trkpt lat="47.70409" lon="-2.34586">
        <ele>68.3</ele>
        <time>2021-05-27T12:19:31Z</time>
      </trkpt>
      <trkpt lat="47.70407" lon="-2.34581">
        <ele>68.2</ele>
        <time>2021-05-27T12:19:32Z</time>
      </trkpt>
      <trkpt lat="47.70405" lon="-2.34577">
        <ele>68.1</ele>
        <time>2021-05-27T12:19:33Z</time>
      </trkpt>
      <trkpt lat="47.70404" lon="-2.34573">
        <ele>67.9</ele>
        <time>2021-05-27T12:19:34Z</time>
      </trkpt>
      <trkpt lat="47.70403" lon="-2.34568">
        <ele>67.8</ele>
        <time>2021-05-27T12:19:35Z</time>
      </trkpt>
      <trkpt lat="47.70402" lon="-2.34564">
        <ele>67.8</ele>
        <time>2021-05-27T12:19:36Z</time>
      </trkpt>
      <trkpt lat="47.70401" lon="-2.34561">
        <ele>67.8</ele>
        <time>2021-05-27T12:19:37Z</time>
      </trkpt>
      <trkpt lat="47.70401" lon="-2.34557">
        <ele>67.9</ele>
        <time>2021-05-27T12:19:38Z</time>
      </trkpt>
      <trkpt lat="47.704" lon="-2.34553">
        <ele>68</ele>
        <time>2021-05-27T12:19:39Z</time>
      </trkpt>
      <trkpt lat="47.704" lon="-2.34549">
        <ele>68.1</ele>
        <time>2021-05-27T12:19:40Z</time>
      </trkpt>
      <trkpt lat="47.70399" lon="-2.34545">
        <ele>68.1</ele>
        <time>2021-05-27T12:19:41Z</time>
      </trkpt>
      <trkpt lat="47.70398" lon="-2.34541">
        <ele>68</ele>
        <time>2021-05-27T12:19:42Z</time>
      </trkpt>
      <trkpt lat="47.70397" lon="-2.34536">
        <ele>67.9</ele>
        <time>2021-05-27T12:19:43Z</time>
      </trkpt>
      <trkpt lat="47.70396" lon="-2.34532">
        <ele>67.9</ele>
        <time>2021-05-27T12:19:44Z</time>
      </trkpt>
      <trkpt lat="47.70395" lon="-2.34529">
        <ele>67.8</ele>
        <time>2021-05-27T12:19:45Z</time>
      </trkpt>
      <trkpt lat="47.70395" lon="-2.34525">
        <ele>67.9</ele>
        <time>2021-05-27T12:19:46Z</time>
      </trkpt>
      <trkpt lat="47.70394" lon="-2.34521">
        <ele>67.8</ele>
        <time>2021-05-27T12:19:47Z</time>
      </trkpt>
      <trkpt lat="47.70393" lon="-2.34518">
        <ele>67.8</ele>
        <time>2021-05-27T12:19:48Z</time>
      </trkpt>
      <trkpt lat="47.70391" lon="-2.34515">
        <ele>67.6</ele>
        <time>2021-05-27T12:19:49Z</time>
      </trkpt>
      <trkpt lat="47.70389" lon="-2.34512">
        <ele>67.2</ele>
        <time>2021-05-27T12:19:50Z</time>
      </trkpt>
      <trkpt lat="47.70386" lon="-2.3451">
        <ele>66.7</ele>
        <time>2021-05-27T12:19:51Z</time>
      </trkpt>
      <trkpt lat="47.70383" lon="-2.34508">
        <ele>66.3</ele>
        <time>2021-05-27T12:19:52Z</time>
      </trkpt>
      <trkpt lat="47.70381" lon="-2.34507">
        <ele>65.9</ele>
        <time>2021-05-27T12:19:53Z</time>
      </trkpt>
      <trkpt lat="47.70379" lon="-2.34505">
        <ele>65.5</ele>
        <time>2021-05-27T12:19:54Z</time>
      </trkpt>
      <trkpt lat="47.70376" lon="-2.34503">
        <ele>65</ele>
        <time>2021-05-27T12:19:55Z</time>
      </trkpt>
      <trkpt lat="47.70373" lon="-2.34501">
        <ele>64.6</ele>
        <time>2021-05-27T12:19:56Z</time>
      </trkpt>
      <trkpt lat="47.70371" lon="-2.34499">
        <ele>64.3</ele>
        <time>2021-05-27T12:19:57Z</time>
      </trkpt>
      <trkpt lat="47.70369" lon="-2.34496">
        <ele>64</ele>
        <time>2021-05-27T12:19:58Z</time>
      </trkpt>
      <trkpt lat="47.70367" lon="-2.34493">
        <ele>63.7</ele>
        <time>2021-05-27T12:19:59Z</time>
      </trkpt>
      <trkpt lat="47.70366" lon="-2.3449">
        <ele>63.6</ele>
        <time>2021-05-27T12:20:00Z</time>
      </trkpt>
      <trkpt lat="47.70366" lon="-2.34486">
        <ele>63.8</ele>
        <time>2021-05-27T12:20:01Z</time>
      </trkpt>
      <trkpt lat="47.70366" lon="-2.34482">
        <ele>63.9</ele>
        <time>2021-05-27T12:20:02Z</time>
      </trkpt>
      <trkpt lat="47.70367" lon="-2.34477">
        <ele>64.2</ele>
        <time>2021-05-27T12:20:03Z</time>
      </trkpt>
      <trkpt lat="47.70367" lon="-2.34473">
        <ele>64.4</ele>
        <time>2021-05-27T12:20:04Z</time>
      </trkpt>
      <trkpt lat="47.70368" lon="-2.3447">
        <ele>64.7</ele>
        <time>2021-05-27T12:20:05Z</time>
      </trkpt>
      <trkpt lat="47.7037" lon="-2.34466">
        <ele>65.1</ele>
        <time>2021-05-27T12:20:06Z</time>
      </trkpt>
      <trkpt lat="47.70371" lon="-2.34462">
        <ele>65.5</ele>
        <time>2021-05-27T12:20:07Z</time>
      </trkpt>
      <trkpt lat="47.70373" lon="-2.34459">
        <ele>65.8</ele>
        <time>2021-05-27T12:20:08Z</time>
      </trkpt>
      <trkpt lat="47.70374" lon="-2.34455">
        <ele>66.3</ele>
        <time>2021-05-27T12:20:09Z</time>
      </trkpt>
      <trkpt lat="47.70376" lon="-2.34451">
        <ele>66.7</ele>
        <time>2021-05-27T12:20:10Z</time>
      </trkpt>
      <trkpt lat="47.70378" lon="-2.34448">
        <ele>67.1</ele>
        <time>2021-05-27T12:20:11Z</time>
      </trkpt>
      <trkpt lat="47.70379" lon="-2.34445">
        <ele>67.3</ele>
        <time>2021-05-27T12:20:12Z</time>
      </trkpt>
      <trkpt lat="47.7038" lon="-2.34441">
        <ele>67.5</ele>
        <time>2021-05-27T12:20:13Z</time>
      </trkpt>
      <trkpt lat="47.7038" lon="-2.34437">
        <ele>67.7</ele>
        <time>2021-05-27T12:20:14Z</time>
      </trkpt>
      <trkpt lat="47.7038" lon="-2.34432">
        <ele>67.8</ele>
        <time>2021-05-27T12:20:15Z</time>
      </trkpt>
      <trkpt lat="47.70379" lon="-2.34427">
        <ele>67.9</ele>
        <time>2021-05-27T12:20:16Z</time>
      </trkpt>
      <trkpt lat="47.70379" lon="-2.34422">
        <ele>67.9</ele>
        <time>2021-05-27T12:20:17Z</time>
      </trkpt>
      <trkpt lat="47.70378" lon="-2.34416">
        <ele>68</ele>
        <time>2021-05-27T12:20:18Z</time>
      </trkpt>
      <trkpt lat="47.70377" lon="-2.34411">
        <ele>67.8</ele>
        <time>2021-05-27T12:20:19Z</time>
      </trkpt>
      <trkpt lat="47.70375" lon="-2.34405">
        <ele>67.7</ele>
        <time>2021-05-27T12:20:20Z</time>
      </trkpt>
      <trkpt lat="47.70374" lon="-2.34401">
        <ele>67.7</ele>
        <time>2021-05-27T12:20:21Z</time>
      </trkpt>
      <trkpt lat="47.70373" lon="-2.34396">
        <ele>67.6</ele>
        <time>2021-05-27T12:20:22Z</time>
      </trkpt>
      <trkpt lat="47.70372" lon="-2.34392">
        <ele>67.5</ele>
        <time>2021-05-27T12:20:23Z</time>
      </trkpt>
      <trkpt lat="47.70372" lon="-2.34388">
        <ele>67.6</ele>
        <time>2021-05-27T12:20:24Z</time>
      </trkpt>
      <trkpt lat="47.70371" lon="-2.34383">
        <ele>67.6</ele>
        <time>2021-05-27T12:20:25Z</time>
      </trkpt>
      <trkpt lat="47.70371" lon="-2.34379">
        <ele>67.7</ele>
        <time>2021-05-27T12:20:26Z</time>
      </trkpt>
      <trkpt lat="47.70371" lon="-2.34375">
        <ele>67.8</ele>
        <time>2021-05-27T12:20:27Z</time>
      </trkpt>
      <trkpt lat="47.70371" lon="-2.34372">
        <ele>67.8</ele>
        <time>2021-05-27T12:20:28Z</time>
      </trkpt>
      <trkpt lat="47.70372" lon="-2.34368">
        <ele>68</ele>
        <time>2021-05-27T12:20:29Z</time>
      </trkpt>
      <trkpt lat="47.70373" lon="-2.34365">
        <ele>68.2</ele>
        <time>2021-05-27T12:20:30Z</time>
      </trkpt>
      <trkpt lat="47.70373" lon="-2.3436">
        <ele>68.3</ele>
        <time>2021-05-27T12:20:31Z</time>
      </trkpt>
      <trkpt lat="47.70373" lon="-2.34355">
        <ele>68.4</ele>
        <time>2021-05-27T12:20:32Z</time>
      </trkpt>
      <trkpt lat="47.70372" lon="-2.3435">
        <ele>68.4</ele>
        <time>2021-05-27T12:20:33Z</time>
      </trkpt>
      <trkpt lat="47.70371" lon="-2.34345">
        <ele>68.4</ele>
        <time>2021-05-27T12:20:34Z</time>
      </trkpt>
      <trkpt lat="47.70371" lon="-2.34341">
        <ele>68.4</ele>
        <time>2021-05-27T12:20:35Z</time>
      </trkpt>
      <trkpt lat="47.70371" lon="-2.34336">
        <ele>68.5</ele>
        <time>2021-05-27T12:20:36Z</time>
      </trkpt>
      <trkpt lat="47.70371" lon="-2.34331">
        <ele>68.6</ele>
        <time>2021-05-27T12:20:37Z</time>
      </trkpt>
      <trkpt lat="47.7037" lon="-2.34325">
        <ele>68.6</ele>
        <time>2021-05-27T12:20:38Z</time>
      </trkpt>
      <trkpt lat="47.70369" lon="-2.34321">
        <ele>68.4</ele>
        <time>2021-05-27T12:20:39Z</time>
      </trkpt>
      <trkpt lat="47.70367" lon="-2.34319">
        <ele>68.3</ele>
        <time>2021-05-27T12:20:40Z</time>
      </trkpt>
      <trkpt lat="47.70365" lon="-2.34316">
        <ele>68.1</ele>
        <time>2021-05-27T12:20:41Z</time>
      </trkpt>
      <trkpt lat="47.70364" lon="-2.34313">
        <ele>68</ele>
        <time>2021-05-27T12:20:42Z</time>
      </trkpt>
      <trkpt lat="47.70362" lon="-2.34309">
        <ele>67.9</ele>
        <time>2021-05-27T12:20:43Z</time>
      </trkpt>
      <trkpt lat="47.70361" lon="-2.34304">
        <ele>67.8</ele>
        <time>2021-05-27T12:20:44Z</time>
      </trkpt>
      <trkpt lat="47.7036" lon="-2.34299">
        <ele>67.8</ele>
        <time>2021-05-27T12:20:45Z</time>
      </trkpt>
      <trkpt lat="47.70359" lon="-2.34293">
        <ele>67.6</ele>
        <time>2021-05-27T12:20:46Z</time>
      </trkpt>
      <trkpt lat="47.70358" lon="-2.34288">
        <ele>67.6</ele>
        <time>2021-05-27T12:20:47Z</time>
      </trkpt>
      <trkpt lat="47.70357" lon="-2.34283">
        <ele>67.5</ele>
        <time>2021-05-27T12:20:48Z</time>
      </trkpt>
      <trkpt lat="47.70356" lon="-2.34278">
        <ele>67.5</ele>
        <time>2021-05-27T12:20:49Z</time>
      </trkpt>
      <trkpt lat="47.70354" lon="-2.34274">
        <ele>67.3</ele>
        <time>2021-05-27T12:20:50Z</time>
      </trkpt>
      <trkpt lat="47.70351" lon="-2.3427">
        <ele>67.1</ele>
        <time>2021-05-27T12:20:51Z</time>
      </trkpt>
      <trkpt lat="47.70349" lon="-2.34266">
        <ele>67</ele>
        <time>2021-05-27T12:20:52Z</time>
      </trkpt>
      <trkpt lat="47.70347" lon="-2.34262">
        <ele>66.9</ele>
        <time>2021-05-27T12:20:53Z</time>
      </trkpt>
      <trkpt lat="47.70345" lon="-2.34258">
        <ele>66.8</ele>
        <time>2021-05-27T12:20:54Z</time>
      </trkpt>
      <trkpt lat="47.70344" lon="-2.34253">
        <ele>66.8</ele>
        <time>2021-05-27T12:20:55Z</time>
      </trkpt>
      <trkpt lat="47.70344" lon="-2.34248">
        <ele>66.7</ele>
        <time>2021-05-27T12:20:56Z</time>
      </trkpt>
      <trkpt lat="47.70344" lon="-2.34243">
        <ele>66.8</ele>
        <time>2021-05-27T12:20:57Z</time>
      </trkpt>
      <trkpt lat="47.70344" lon="-2.34237">
        <ele>66.8</ele>
        <time>2021-05-27T12:20:58Z</time>
      </trkpt>
      <trkpt lat="47.70344" lon="-2.34232">
        <ele>66.9</ele>
        <time>2021-05-27T12:20:59Z</time>
      </trkpt>
      <trkpt lat="47.70345" lon="-2.34227">
        <ele>66.9</ele>
        <time>2021-05-27T12:21:00Z</time>
      </trkpt>
      <trkpt lat="47.70345" lon="-2.34222">
        <ele>67</ele>
        <time>2021-05-27T12:21:01Z</time>
      </trkpt>
      <trkpt lat="47.70343" lon="-2.34216">
        <ele>66.9</ele>
        <time>2021-05-27T12:21:02Z</time>
      </trkpt>
      <trkpt lat="47.70342" lon="-2.3421">
        <ele>66.9</ele>
        <time>2021-05-27T12:21:03Z</time>
      </trkpt>
      <trkpt lat="47.7034" lon="-2.34203">
        <ele>66.9</ele>
        <time>2021-05-27T12:21:04Z</time>
      </trkpt>
      <trkpt lat="47.70339" lon="-2.34196">
        <ele>66.9</ele>
        <time>2021-05-27T12:21:05Z</time>
      </trkpt>
      <trkpt lat="47.70338" lon="-2.3419">
        <ele>66.9</ele>
        <time>2021-05-27T12:21:06Z</time>
      </trkpt>
      <trkpt lat="47.70339" lon="-2.34184">
        <ele>67</ele>
        <time>2021-05-27T12:21:07Z</time>
      </trkpt>
      <trkpt lat="47.7034" lon="-2.34178">
        <ele>67.1</ele>
        <time>2021-05-27T12:21:08Z</time>
      </trkpt>
      <trkpt lat="47.70341" lon="-2.34173">
        <ele>67.1</ele>
        <time>2021-05-27T12:21:09Z</time>
      </trkpt>
      <trkpt lat="47.70341" lon="-2.34168">
        <ele>67.2</ele>
        <time>2021-05-27T12:21:10Z</time>
      </trkpt>
      <trkpt lat="47.7034" lon="-2.34163">
        <ele>67.4</ele>
        <time>2021-05-27T12:21:11Z</time>
      </trkpt>
      <trkpt lat="47.70338" lon="-2.34152">
        <ele>67.9</ele>
        <time>2021-05-27T12:21:13Z</time>
      </trkpt>
      <trkpt lat="47.70337" lon="-2.34147">
        <ele>68.2</ele>
        <time>2021-05-27T12:21:14Z</time>
      </trkpt>
      <trkpt lat="47.70337" lon="-2.34141">
        <ele>68.6</ele>
        <time>2021-05-27T12:21:15Z</time>
      </trkpt>
      <trkpt lat="47.70335" lon="-2.34135">
        <ele>68.9</ele>
        <time>2021-05-27T12:21:16Z</time>
      </trkpt>
      <trkpt lat="47.70334" lon="-2.34129">
        <ele>69.2</ele>
        <time>2021-05-27T12:21:17Z</time>
      </trkpt>
      <trkpt lat="47.70332" lon="-2.34123">
        <ele>69.4</ele>
        <time>2021-05-27T12:21:18Z</time>
      </trkpt>
      <trkpt lat="47.7033" lon="-2.34118">
        <ele>69.2</ele>
        <time>2021-05-27T12:21:19Z</time>
      </trkpt>
      <trkpt lat="47.70328" lon="-2.34115">
        <ele>69</ele>
        <time>2021-05-27T12:21:20Z</time>
      </trkpt>
      <trkpt lat="47.70327" lon="-2.34114">
        <ele>68.8</ele>
        <time>2021-05-27T12:21:21Z</time>
      </trkpt>
      <trkpt lat="47.70327" lon="-2.34114">
        <ele>68.7</ele>
        <time>2021-05-27T12:21:22Z</time>
      </trkpt>
      <trkpt lat="47.70327" lon="-2.34114">
        <ele>68.7</ele>
        <time>2021-05-27T12:21:23Z</time>
      </trkpt>
      <trkpt lat="47.70327" lon="-2.34114">
        <ele>68.7</ele>
        <time>2021-05-27T12:21:24Z</time>
      </trkpt>
      <trkpt lat="47.70327" lon="-2.34114">
        <ele>68.7</ele>
        <time>2021-05-27T12:21:25Z</time>
      </trkpt>
      <trkpt lat="47.70327" lon="-2.34114">
        <ele>68.7</ele>
        <time>2021-05-27T12:21:26Z</time>
      </trkpt>
      <trkpt lat="47.70327" lon="-2.34114">
        <ele>68.7</ele>
        <time>2021-05-27T12:21:27Z</time>
      </trkpt>
      <trkpt lat="47.70327" lon="-2.34114">
        <ele>68.7</ele>
        <time>2021-05-27T12:21:28Z</time>
      </trkpt>
      <trkpt lat="47.70327" lon="-2.34114">
        <ele>68.7</ele>
        <time>2021-05-27T12:21:29Z</time>
      </trkpt>
      <trkpt lat="47.70327" lon="-2.34114">
        <ele>68.7</ele>
        <time>2021-05-27T12:21:30Z</time>
      </trkpt>
      <trkpt lat="47.70327" lon="-2.34114">
        <ele>68.7</ele>
        <time>2021-05-27T12:21:31Z</time>
      </trkpt>
      <trkpt lat="47.70327" lon="-2.34114">
        <ele>68.7</ele>
        <time>2021-05-27T12:21:32Z</time>
      </trkpt>
      <trkpt lat="47.70327" lon="-2.34114">
        <ele>68.7</ele>
        <time>2021-05-27T12:21:33Z</time>
      </trkpt>
      <trkpt lat="47.70327" lon="-2.34114">
        <ele>68.7</ele>
        <time>2021-05-27T12:21:34Z</time>
      </trkpt>
      <trkpt lat="47.70327" lon="-2.34114">
        <ele>68.7</ele>
        <time>2021-05-27T12:21:35Z</time>
      </trkpt>
      <trkpt lat="47.70327" lon="-2.34114">
        <ele>68.7</ele>
        <time>2021-05-27T12:21:36Z</time>
      </trkpt>
      <trkpt lat="47.70327" lon="-2.34114">
        <ele>68.7</ele>
        <time>2021-05-27T12:21:37Z</time>
      </trkpt>
      <trkpt lat="47.70327" lon="-2.34114">
        <ele>68.7</ele>
        <time>2021-05-27T12:21:38Z</time>
      </trkpt>
      <trkpt lat="47.70327" lon="-2.34114">
        <ele>68.7</ele>
        <time>2021-05-27T12:21:39Z</time>
      </trkpt>
      <trkpt lat="47.70327" lon="-2.34114">
        <ele>68.7</ele>
        <time>2021-05-27T12:21:40Z</time>
      </trkpt>
      <trkpt lat="47.70327" lon="-2.34114">
        <ele>68.7</ele>
        <time>2021-05-27T12:21:41Z</time>
      </trkpt>
      <trkpt lat="47.70327" lon="-2.34114">
        <ele>68.7</ele>
        <time>2021-05-27T12:21:42Z</time>
      </trkpt>
      <trkpt lat="47.70327" lon="-2.34114">
        <ele>68.7</ele>
        <time>2021-05-27T12:21:43Z</time>
      </trkpt>
      <trkpt lat="47.70327" lon="-2.34114">
        <ele>68.7</ele>
        <time>2021-05-27T12:21:44Z</time>
      </trkpt>
      <trkpt lat="47.70327" lon="-2.34114">
        <ele>68.7</ele>
        <time>2021-05-27T12:21:45Z</time>
      </trkpt>
      <trkpt lat="47.70327" lon="-2.34114">
        <ele>68.7</ele>
        <time>2021-05-27T12:21:46Z</time>
      </trkpt>
      <trkpt lat="47.70327" lon="-2.34114">
        <ele>68.7</ele>
        <time>2021-05-27T12:21:47Z</time>
      </trkpt>
      <trkpt lat="47.70327" lon="-2.34114">
        <ele>68.7</ele>
        <time>2021-05-27T12:21:48Z</time>
      </trkpt>
      <trkpt lat="47.70327" lon="-2.34114">
        <ele>68.7</ele>
        <time>2021-05-27T12:21:49Z</time>
      </trkpt>
      <trkpt lat="47.70327" lon="-2.34114">
        <ele>68.7</ele>
        <time>2021-05-27T12:21:50Z</time>
      </trkpt>
      <trkpt lat="47.70327" lon="-2.34114">
        <ele>68.7</ele>
        <time>2021-05-27T12:21:51Z</time>
      </trkpt>
      <trkpt lat="47.70327" lon="-2.34114">
        <ele>68.7</ele>
        <time>2021-05-27T12:21:52Z</time>
      </trkpt>
      <trkpt lat="47.70327" lon="-2.34114">
        <ele>68.7</ele>
        <time>2021-05-27T12:21:53Z</time>
      </trkpt>
      <trkpt lat="47.70327" lon="-2.34114">
        <ele>68.7</ele>
        <time>2021-05-27T12:21:54Z</time>
      </trkpt>
      <trkpt lat="47.70327" lon="-2.34114">
        <ele>68.7</ele>
        <time>2021-05-27T12:21:55Z</time>
      </trkpt>
      <trkpt lat="47.70327" lon="-2.34114">
        <ele>68.7</ele>
        <time>2021-05-27T12:21:56Z</time>
      </trkpt>
      <trkpt lat="47.70327" lon="-2.34114">
        <ele>68.7</ele>
        <time>2021-05-27T12:21:57Z</time>
      </trkpt>
      <trkpt lat="47.70327" lon="-2.34114">
        <ele>68.7</ele>
        <time>2021-05-27T12:21:58Z</time>
      </trkpt>
      <trkpt lat="47.70327" lon="-2.34114">
        <ele>68.7</ele>
        <time>2021-05-27T12:21:59Z</time>
      </trkpt>
      <trkpt lat="47.70327" lon="-2.34114">
        <ele>68.7</ele>
        <time>2021-05-27T12:22:00Z</time>
      </trkpt>
      <trkpt lat="47.70327" lon="-2.34114">
        <ele>68.7</ele>
        <time>2021-05-27T12:22:01Z</time>
      </trkpt>
      <trkpt lat="47.70327" lon="-2.34114">
        <ele>68.7</ele>
        <time>2021-05-27T12:22:02Z</time>
      </trkpt>
      <trkpt lat="47.70327" lon="-2.34114">
        <ele>68.7</ele>
        <time>2021-05-27T12:22:03Z</time>
      </trkpt>
      <trkpt lat="47.70327" lon="-2.34114">
        <ele>68.7</ele>
        <time>2021-05-27T12:22:04Z</time>
      </trkpt>
      <trkpt lat="47.70327" lon="-2.34114">
        <ele>68.7</ele>
        <time>2021-05-27T12:22:05Z</time>
      </trkpt>
      <trkpt lat="47.70327" lon="-2.34114">
        <ele>68.7</ele>
        <time>2021-05-27T12:22:06Z</time>
      </trkpt>
      <trkpt lat="47.70327" lon="-2.34114">
        <ele>68.7</ele>
        <time>2021-05-27T12:22:07Z</time>
      </trkpt>
      <trkpt lat="47.70327" lon="-2.34114">
        <ele>68.7</ele>
        <time>2021-05-27T12:22:08Z</time>
      </trkpt>
      <trkpt lat="47.70327" lon="-2.34114">
        <ele>68.7</ele>
        <time>2021-05-27T12:22:09Z</time>
      </trkpt>
      <trkpt lat="47.70327" lon="-2.34114">
        <ele>68.7</ele>
        <time>2021-05-27T12:22:10Z</time>
      </trkpt>
      <trkpt lat="47.70327" lon="-2.34114">
        <ele>68.7</ele>
        <time>2021-05-27T12:22:11Z</time>
      </trkpt>
      <trkpt lat="47.70327" lon="-2.34114">
        <ele>68.7</ele>
        <time>2021-05-27T12:22:12Z</time>
      </trkpt>
      <trkpt lat="47.70327" lon="-2.34114">
        <ele>68.7</ele>
        <time>2021-05-27T12:22:13Z</time>
      </trkpt>
      <trkpt lat="47.70327" lon="-2.34114">
        <ele>68.7</ele>
        <time>2021-05-27T12:22:14Z</time>
      </trkpt>
      <trkpt lat="47.70327" lon="-2.34114">
        <ele>68.7</ele>
        <time>2021-05-27T12:22:15Z</time>
      </trkpt>
      <trkpt lat="47.70327" lon="-2.34114">
        <ele>68.7</ele>
        <time>2021-05-27T12:22:16Z</time>
      </trkpt>
      <trkpt lat="47.70327" lon="-2.34114">
        <ele>68.7</ele>
        <time>2021-05-27T12:22:17Z</time>
      </trkpt>
      <trkpt lat="47.70327" lon="-2.34114">
        <ele>68.7</ele>
        <time>2021-05-27T12:22:18Z</time>
      </trkpt>
      <trkpt lat="47.70327" lon="-2.34114">
        <ele>68.7</ele>
        <time>2021-05-27T12:22:19Z</time>
      </trkpt>
      <trkpt lat="47.70327" lon="-2.34114">
        <ele>68.7</ele>
        <time>2021-05-27T12:22:20Z</time>
      </trkpt>
      <trkpt lat="47.70327" lon="-2.34114">
        <ele>68.7</ele>
        <time>2021-05-27T12:22:21Z</time>
      </trkpt>
      <trkpt lat="47.70327" lon="-2.34114">
        <ele>68.7</ele>
        <time>2021-05-27T12:22:22Z</time>
      </trkpt>
      <trkpt lat="47.70327" lon="-2.34114">
        <ele>68.7</ele>
        <time>2021-05-27T12:22:23Z</time>
      </trkpt>
      <trkpt lat="47.70327" lon="-2.34114">
        <ele>68.7</ele>
        <time>2021-05-27T12:22:24Z</time>
      </trkpt>
      <trkpt lat="47.70327" lon="-2.34114">
        <ele>68.7</ele>
        <time>2021-05-27T12:22:25Z</time>
      </trkpt>
      <trkpt lat="47.70327" lon="-2.34114">
        <ele>68.7</ele>
        <time>2021-05-27T12:22:26Z</time>
      </trkpt>
      <trkpt lat="47.70327" lon="-2.34114">
        <ele>68.7</ele>
        <time>2021-05-27T12:22:27Z</time>
      </trkpt>
      <trkpt lat="47.70327" lon="-2.34114">
        <ele>68.7</ele>
        <time>2021-05-27T12:22:28Z</time>
      </trkpt>
      <trkpt lat="47.70327" lon="-2.34114">
        <ele>68.7</ele>
        <time>2021-05-27T12:22:29Z</time>
      </trkpt>
      <trkpt lat="47.70327" lon="-2.34114">
        <ele>68.7</ele>
        <time>2021-05-27T12:22:30Z</time>
      </trkpt>
      <trkpt lat="47.70327" lon="-2.34114">
        <ele>68.7</ele>
        <time>2021-05-27T12:22:31Z</time>
      </trkpt>
      <trkpt lat="47.70327" lon="-2.34114">
        <ele>68.7</ele>
        <time>2021-05-27T12:22:32Z</time>
      </trkpt>
      <trkpt lat="47.70327" lon="-2.34114">
        <ele>68.7</ele>
        <time>2021-05-27T12:22:33Z</time>
      </trkpt>
      <trkpt lat="47.70327" lon="-2.34114">
        <ele>68.7</ele>
        <time>2021-05-27T12:22:34Z</time>
      </trkpt>
      <trkpt lat="47.70327" lon="-2.34114">
        <ele>68.7</ele>
        <time>2021-05-27T12:22:35Z</time>
      </trkpt>
      <trkpt lat="47.70327" lon="-2.34114">
        <ele>68.7</ele>
        <time>2021-05-27T12:22:36Z</time>
      </trkpt>
      <trkpt lat="47.70327" lon="-2.34114">
        <ele>68.7</ele>
        <time>2021-05-27T12:22:37Z</time>
      </trkpt>
      <trkpt lat="47.70327" lon="-2.34114">
        <ele>68.7</ele>
        <time>2021-05-27T12:22:38Z</time>
      </trkpt>
      <trkpt lat="47.70327" lon="-2.34114">
        <ele>68.7</ele>
        <time>2021-05-27T12:22:39Z</time>
      </trkpt>
      <trkpt lat="47.70327" lon="-2.34114">
        <ele>68.7</ele>
        <time>2021-05-27T12:22:40Z</time>
      </trkpt>
      <trkpt lat="47.70327" lon="-2.34114">
        <ele>68.7</ele>
        <time>2021-05-27T12:22:41Z</time>
      </trkpt>
      <trkpt lat="47.70327" lon="-2.34114">
        <ele>68.7</ele>
        <time>2021-05-27T12:22:42Z</time>
      </trkpt>
      <trkpt lat="47.70327" lon="-2.34114">
        <ele>68.7</ele>
        <time>2021-05-27T12:22:43Z</time>
      </trkpt>
      <trkpt lat="47.70327" lon="-2.34114">
        <ele>68.7</ele>
        <time>2021-05-27T12:22:44Z</time>
      </trkpt>
      <trkpt lat="47.70323" lon="-2.34111">
        <ele>68.1</ele>
        <time>2021-05-27T12:22:45Z</time>
      </trkpt>
      <trkpt lat="47.70323" lon="-2.34109">
        <ele>68.2</ele>
        <time>2021-05-27T12:22:46Z</time>
      </trkpt>
      <trkpt lat="47.70323" lon="-2.34109">
        <ele>68.2</ele>
        <time>2021-05-27T12:22:47Z</time>
      </trkpt>
      <trkpt lat="47.70322" lon="-2.34109">
        <ele>68.1</ele>
        <time>2021-05-27T12:22:48Z</time>
      </trkpt>
      <trkpt lat="47.70322" lon="-2.34109">
        <ele>68.1</ele>
        <time>2021-05-27T12:22:49Z</time>
      </trkpt>
      <trkpt lat="47.70322" lon="-2.34109">
        <ele>68.1</ele>
        <time>2021-05-27T12:22:50Z</time>
      </trkpt>
      <trkpt lat="47.70321" lon="-2.34104">
        <ele>68.1</ele>
        <time>2021-05-27T12:22:51Z</time>
      </trkpt>
      <trkpt lat="47.7032" lon="-2.34102">
        <ele>68.1</ele>
        <time>2021-05-27T12:22:52Z</time>
      </trkpt>
      <trkpt lat="47.70319" lon="-2.34099">
        <ele>68.1</ele>
        <time>2021-05-27T12:22:53Z</time>
      </trkpt>
      <trkpt lat="47.70317" lon="-2.34097">
        <ele>67.9</ele>
        <time>2021-05-27T12:22:54Z</time>
      </trkpt>
      <trkpt lat="47.70315" lon="-2.34096">
        <ele>67.6</ele>
        <time>2021-05-27T12:22:55Z</time>
      </trkpt>
      <trkpt lat="47.70313" lon="-2.34095">
        <ele>67.3</ele>
        <time>2021-05-27T12:22:56Z</time>
      </trkpt>
      <trkpt lat="47.70311" lon="-2.34093">
        <ele>67.1</ele>
        <time>2021-05-27T12:22:57Z</time>
      </trkpt>
      <trkpt lat="47.70309" lon="-2.34091">
        <ele>66.7</ele>
        <time>2021-05-27T12:22:58Z</time>
      </trkpt>
      <trkpt lat="47.70307" lon="-2.34089">
        <ele>66.5</ele>
        <time>2021-05-27T12:22:59Z</time>
      </trkpt>
      <trkpt lat="47.70305" lon="-2.34087">
        <ele>66.2</ele>
        <time>2021-05-27T12:23:00Z</time>
      </trkpt>
      <trkpt lat="47.70302" lon="-2.34085">
        <ele>65.9</ele>
        <time>2021-05-27T12:23:01Z</time>
      </trkpt>
      <trkpt lat="47.703" lon="-2.34082">
        <ele>65.6</ele>
        <time>2021-05-27T12:23:02Z</time>
      </trkpt>
      <trkpt lat="47.70297" lon="-2.34081">
        <ele>65.1</ele>
        <time>2021-05-27T12:23:03Z</time>
      </trkpt>
      <trkpt lat="47.70295" lon="-2.34078">
        <ele>64.8</ele>
        <time>2021-05-27T12:23:04Z</time>
      </trkpt>
      <trkpt lat="47.70293" lon="-2.34074">
        <ele>64.6</ele>
        <time>2021-05-27T12:23:05Z</time>
      </trkpt>
      <trkpt lat="47.70291" lon="-2.34071">
        <ele>64.4</ele>
        <time>2021-05-27T12:23:06Z</time>
      </trkpt>
      <trkpt lat="47.7029" lon="-2.34068">
        <ele>64.3</ele>
        <time>2021-05-27T12:23:07Z</time>
      </trkpt>
      <trkpt lat="47.70289" lon="-2.34064">
        <ele>64.1</ele>
        <time>2021-05-27T12:23:08Z</time>
      </trkpt>
      <trkpt lat="47.70289" lon="-2.3406">
        <ele>64.2</ele>
        <time>2021-05-27T12:23:09Z</time>
      </trkpt>
      <trkpt lat="47.70289" lon="-2.34056">
        <ele>64.5</ele>
        <time>2021-05-27T12:23:10Z</time>
      </trkpt>
      <trkpt lat="47.7029" lon="-2.34052">
        <ele>64.8</ele>
        <time>2021-05-27T12:23:11Z</time>
      </trkpt>
      <trkpt lat="47.70291" lon="-2.34047">
        <ele>65.2</ele>
        <time>2021-05-27T12:23:12Z</time>
      </trkpt>
      <trkpt lat="47.70293" lon="-2.34043">
        <ele>65.7</ele>
        <time>2021-05-27T12:23:13Z</time>
      </trkpt>
      <trkpt lat="47.70294" lon="-2.34039">
        <ele>66.1</ele>
        <time>2021-05-27T12:23:14Z</time>
      </trkpt>
      <trkpt lat="47.70295" lon="-2.34036">
        <ele>66.3</ele>
        <time>2021-05-27T12:23:15Z</time>
      </trkpt>
      <trkpt lat="47.70295" lon="-2.34032">
        <ele>66.5</ele>
        <time>2021-05-27T12:23:16Z</time>
      </trkpt>
      <trkpt lat="47.70295" lon="-2.34029">
        <ele>66.7</ele>
        <time>2021-05-27T12:23:17Z</time>
      </trkpt>
      <trkpt lat="47.70296" lon="-2.34025">
        <ele>67</ele>
        <time>2021-05-27T12:23:18Z</time>
      </trkpt>
      <trkpt lat="47.70297" lon="-2.34021">
        <ele>67.4</ele>
        <time>2021-05-27T12:23:19Z</time>
      </trkpt>
      <trkpt lat="47.70298" lon="-2.34017">
        <ele>67.7</ele>
        <time>2021-05-27T12:23:20Z</time>
      </trkpt>
      <trkpt lat="47.70297" lon="-2.34012">
        <ele>67.8</ele>
        <time>2021-05-27T12:23:21Z</time>
      </trkpt>
      <trkpt lat="47.70297" lon="-2.34007">
        <ele>67.9</ele>
        <time>2021-05-27T12:23:22Z</time>
      </trkpt>
      <trkpt lat="47.70296" lon="-2.34002">
        <ele>67.8</ele>
        <time>2021-05-27T12:23:23Z</time>
      </trkpt>
      <trkpt lat="47.70295" lon="-2.33996">
        <ele>67.7</ele>
        <time>2021-05-27T12:23:24Z</time>
      </trkpt>
      <trkpt lat="47.70295" lon="-2.33991">
        <ele>67.5</ele>
        <time>2021-05-27T12:23:25Z</time>
      </trkpt>
      <trkpt lat="47.70295" lon="-2.33986">
        <ele>67.3</ele>
        <time>2021-05-27T12:23:26Z</time>
      </trkpt>
      <trkpt lat="47.70295" lon="-2.33981">
        <ele>67.3</ele>
        <time>2021-05-27T12:23:27Z</time>
      </trkpt>
      <trkpt lat="47.70297" lon="-2.33976">
        <ele>67.6</ele>
        <time>2021-05-27T12:23:28Z</time>
      </trkpt>
      <trkpt lat="47.70299" lon="-2.33971">
        <ele>67.8</ele>
        <time>2021-05-27T12:23:29Z</time>
      </trkpt>
      <trkpt lat="47.703" lon="-2.33967">
        <ele>68</ele>
        <time>2021-05-27T12:23:30Z</time>
      </trkpt>
      <trkpt lat="47.70301" lon="-2.33961">
        <ele>68</ele>
        <time>2021-05-27T12:23:31Z</time>
      </trkpt>
      <trkpt lat="47.70301" lon="-2.33956">
        <ele>68</ele>
        <time>2021-05-27T12:23:32Z</time>
      </trkpt>
      <trkpt lat="47.70301" lon="-2.33951">
        <ele>68</ele>
        <time>2021-05-27T12:23:33Z</time>
      </trkpt>
      <trkpt lat="47.70302" lon="-2.33947">
        <ele>68.1</ele>
        <time>2021-05-27T12:23:34Z</time>
      </trkpt>
      <trkpt lat="47.70304" lon="-2.33943">
        <ele>68.3</ele>
        <time>2021-05-27T12:23:35Z</time>
      </trkpt>
      <trkpt lat="47.70304" lon="-2.33939">
        <ele>68.4</ele>
        <time>2021-05-27T12:23:36Z</time>
      </trkpt>
      <trkpt lat="47.70305" lon="-2.33934">
        <ele>68.4</ele>
        <time>2021-05-27T12:23:37Z</time>
      </trkpt>
      <trkpt lat="47.70305" lon="-2.3393">
        <ele>68.5</ele>
        <time>2021-05-27T12:23:38Z</time>
      </trkpt>
      <trkpt lat="47.70306" lon="-2.33925">
        <ele>68.7</ele>
        <time>2021-05-27T12:23:39Z</time>
      </trkpt>
      <trkpt lat="47.70308" lon="-2.33921">
        <ele>69</ele>
        <time>2021-05-27T12:23:40Z</time>
      </trkpt>
      <trkpt lat="47.70308" lon="-2.33916">
        <ele>68.9</ele>
        <time>2021-05-27T12:23:41Z</time>
      </trkpt>
      <trkpt lat="47.70308" lon="-2.33912">
        <ele>68.5</ele>
        <time>2021-05-27T12:23:42Z</time>
      </trkpt>
      <trkpt lat="47.70308" lon="-2.33908">
        <ele>68.2</ele>
        <time>2021-05-27T12:23:43Z</time>
      </trkpt>
      <trkpt lat="47.70308" lon="-2.33904">
        <ele>67.9</ele>
        <time>2021-05-27T12:23:44Z</time>
      </trkpt>
      <trkpt lat="47.70308" lon="-2.33901">
        <ele>67.7</ele>
        <time>2021-05-27T12:23:45Z</time>
      </trkpt>
      <trkpt lat="47.7031" lon="-2.33898">
        <ele>67.9</ele>
        <time>2021-05-27T12:23:46Z</time>
      </trkpt>
      <trkpt lat="47.70312" lon="-2.33895">
        <ele>68.3</ele>
        <time>2021-05-27T12:23:47Z</time>
      </trkpt>
      <trkpt lat="47.70314" lon="-2.33893">
        <ele>68.8</ele>
        <time>2021-05-27T12:23:48Z</time>
      </trkpt>
      <trkpt lat="47.70318" lon="-2.3389">
        <ele>69.5</ele>
        <time>2021-05-27T12:23:49Z</time>
      </trkpt>
      <trkpt lat="47.70321" lon="-2.33889">
        <ele>70.3</ele>
        <time>2021-05-27T12:23:50Z</time>
      </trkpt>
      <trkpt lat="47.70324" lon="-2.33889">
        <ele>71.2</ele>
        <time>2021-05-27T12:23:51Z</time>
      </trkpt>
      <trkpt lat="47.70328" lon="-2.33889">
        <ele>72.1</ele>
        <time>2021-05-27T12:23:52Z</time>
      </trkpt>
      <trkpt lat="47.70331" lon="-2.33888">
        <ele>73</ele>
        <time>2021-05-27T12:23:53Z</time>
      </trkpt>
      <trkpt lat="47.70334" lon="-2.33888">
        <ele>73.6</ele>
        <time>2021-05-27T12:23:54Z</time>
      </trkpt>
      <trkpt lat="47.70337" lon="-2.33888">
        <ele>73.5</ele>
        <time>2021-05-27T12:23:55Z</time>
      </trkpt>
      <trkpt lat="47.70338" lon="-2.3389">
        <ele>73.6</ele>
        <time>2021-05-27T12:23:56Z</time>
      </trkpt>
      <trkpt lat="47.70339" lon="-2.33892">
        <ele>73.7</ele>
        <time>2021-05-27T12:23:57Z</time>
      </trkpt>
      <trkpt lat="47.70339" lon="-2.33893">
        <ele>73.8</ele>
        <time>2021-05-27T12:23:58Z</time>
      </trkpt>
      <trkpt lat="47.7034" lon="-2.33893">
        <ele>73.8</ele>
        <time>2021-05-27T12:23:59Z</time>
      </trkpt>
      <trkpt lat="47.70339" lon="-2.33893">
        <ele>73.8</ele>
        <time>2021-05-27T12:24:00Z</time>
      </trkpt>
      <trkpt lat="47.70339" lon="-2.33893">
        <ele>73.8</ele>
        <time>2021-05-27T12:24:01Z</time>
      </trkpt>
      <trkpt lat="47.70339" lon="-2.33893">
        <ele>73.8</ele>
        <time>2021-05-27T12:24:02Z</time>
      </trkpt>
      <trkpt lat="47.70339" lon="-2.33893">
        <ele>73.8</ele>
        <time>2021-05-27T12:24:03Z</time>
      </trkpt>
      <trkpt lat="47.70339" lon="-2.33893">
        <ele>73.8</ele>
        <time>2021-05-27T12:24:04Z</time>
      </trkpt>
      <trkpt lat="47.70339" lon="-2.33893">
        <ele>73.8</ele>
        <time>2021-05-27T12:24:05Z</time>
      </trkpt>
      <trkpt lat="47.70339" lon="-2.33893">
        <ele>73.8</ele>
        <time>2021-05-27T12:24:06Z</time>
      </trkpt>
      <trkpt lat="47.70344" lon="-2.3389">
        <ele>73.4</ele>
        <time>2021-05-27T12:24:07Z</time>
      </trkpt>
      <trkpt lat="47.70345" lon="-2.33888">
        <ele>73.2</ele>
        <time>2021-05-27T12:24:08Z</time>
      </trkpt>
      <trkpt lat="47.70346" lon="-2.33886">
        <ele>73</ele>
        <time>2021-05-27T12:24:09Z</time>
      </trkpt>
      <trkpt lat="47.70348" lon="-2.33885">
        <ele>72.8</ele>
        <time>2021-05-27T12:24:10Z</time>
      </trkpt>
      <trkpt lat="47.70351" lon="-2.33885">
        <ele>72.8</ele>
        <time>2021-05-27T12:24:11Z</time>
      </trkpt>
      <trkpt lat="47.70353" lon="-2.33887">
        <ele>72.8</ele>
        <time>2021-05-27T12:24:12Z</time>
      </trkpt>
      <trkpt lat="47.70355" lon="-2.33889">
        <ele>72.9</ele>
        <time>2021-05-27T12:24:13Z</time>
      </trkpt>
      <trkpt lat="47.70357" lon="-2.3389">
        <ele>72.9</ele>
        <time>2021-05-27T12:24:14Z</time>
      </trkpt>
      <trkpt lat="47.70358" lon="-2.33892">
        <ele>73</ele>
        <time>2021-05-27T12:24:15Z</time>
      </trkpt>
      <trkpt lat="47.7036" lon="-2.33892">
        <ele>73</ele>
        <time>2021-05-27T12:24:16Z</time>
      </trkpt>
      <trkpt lat="47.70362" lon="-2.33893">
        <ele>72.9</ele>
        <time>2021-05-27T12:24:17Z</time>
      </trkpt>
      <trkpt lat="47.70364" lon="-2.33894">
        <ele>72.9</ele>
        <time>2021-05-27T12:24:18Z</time>
      </trkpt>
      <trkpt lat="47.70367" lon="-2.33894">
        <ele>72.8</ele>
        <time>2021-05-27T12:24:19Z</time>
      </trkpt>
      <trkpt lat="47.7037" lon="-2.33895">
        <ele>72.7</ele>
        <time>2021-05-27T12:24:20Z</time>
      </trkpt>
      <trkpt lat="47.70374" lon="-2.33895">
        <ele>72.6</ele>
        <time>2021-05-27T12:24:21Z</time>
      </trkpt>
      <trkpt lat="47.70376" lon="-2.33894">
        <ele>72.4</ele>
        <time>2021-05-27T12:24:22Z</time>
      </trkpt>
      <trkpt lat="47.70379" lon="-2.33892">
        <ele>72.2</ele>
        <time>2021-05-27T12:24:23Z</time>
      </trkpt>
      <trkpt lat="47.70381" lon="-2.33889">
        <ele>72</ele>
        <time>2021-05-27T12:24:24Z</time>
      </trkpt>
      <trkpt lat="47.70384" lon="-2.33886">
        <ele>71.7</ele>
        <time>2021-05-27T12:24:25Z</time>
      </trkpt>
      <trkpt lat="47.70386" lon="-2.33883">
        <ele>71.4</ele>
        <time>2021-05-27T12:24:26Z</time>
      </trkpt>
      <trkpt lat="47.70387" lon="-2.33882">
        <ele>71.3</ele>
        <time>2021-05-27T12:24:27Z</time>
      </trkpt>
      <trkpt lat="47.70389" lon="-2.3388">
        <ele>71.1</ele>
        <time>2021-05-27T12:24:28Z</time>
      </trkpt>
      <trkpt lat="47.7039" lon="-2.33876">
        <ele>70.9</ele>
        <time>2021-05-27T12:24:29Z</time>
      </trkpt>
      <trkpt lat="47.7039" lon="-2.33872">
        <ele>70.6</ele>
        <time>2021-05-27T12:24:30Z</time>
      </trkpt>
      <trkpt lat="47.70391" lon="-2.33869">
        <ele>70.4</ele>
        <time>2021-05-27T12:24:31Z</time>
      </trkpt>
      <trkpt lat="47.70393" lon="-2.33866">
        <ele>70.2</ele>
        <time>2021-05-27T12:24:32Z</time>
      </trkpt>
      <trkpt lat="47.70396" lon="-2.33862">
        <ele>69.9</ele>
        <time>2021-05-27T12:24:33Z</time>
      </trkpt>
      <trkpt lat="47.70398" lon="-2.33857">
        <ele>69.6</ele>
        <time>2021-05-27T12:24:34Z</time>
      </trkpt>
      <trkpt lat="47.704" lon="-2.33853">
        <ele>69.3</ele>
        <time>2021-05-27T12:24:35Z</time>
      </trkpt>
      <trkpt lat="47.70403" lon="-2.3385">
        <ele>69.1</ele>
        <time>2021-05-27T12:24:36Z</time>
      </trkpt>
      <trkpt lat="47.70406" lon="-2.33847">
        <ele>68.9</ele>
        <time>2021-05-27T12:24:37Z</time>
      </trkpt>
      <trkpt lat="47.7041" lon="-2.33844">
        <ele>68.6</ele>
        <time>2021-05-27T12:24:38Z</time>
      </trkpt>
      <trkpt lat="47.70414" lon="-2.33841">
        <ele>68.4</ele>
        <time>2021-05-27T12:24:39Z</time>
      </trkpt>
      <trkpt lat="47.70418" lon="-2.33837">
        <ele>67.9</ele>
        <time>2021-05-27T12:24:40Z</time>
      </trkpt>
      <trkpt lat="47.7042" lon="-2.33833">
        <ele>67.3</ele>
        <time>2021-05-27T12:24:41Z</time>
      </trkpt>
      <trkpt lat="47.70421" lon="-2.3383">
        <ele>66.3</ele>
        <time>2021-05-27T12:24:42Z</time>
      </trkpt>
      <trkpt lat="47.70423" lon="-2.33826">
        <ele>65.5</ele>
        <time>2021-05-27T12:24:43Z</time>
      </trkpt>
      <trkpt lat="47.70424" lon="-2.33824">
        <ele>64.8</ele>
        <time>2021-05-27T12:24:44Z</time>
      </trkpt>
      <trkpt lat="47.70425" lon="-2.33822">
        <ele>64.1</ele>
        <time>2021-05-27T12:24:45Z</time>
      </trkpt>
      <trkpt lat="47.70427" lon="-2.33819">
        <ele>63.2</ele>
        <time>2021-05-27T12:24:46Z</time>
      </trkpt>
      <trkpt lat="47.70428" lon="-2.33816">
        <ele>62.5</ele>
        <time>2021-05-27T12:24:47Z</time>
      </trkpt>
      <trkpt lat="47.7043" lon="-2.33814">
        <ele>61.8</ele>
        <time>2021-05-27T12:24:48Z</time>
      </trkpt>
      <trkpt lat="47.70432" lon="-2.33812">
        <ele>61.1</ele>
        <time>2021-05-27T12:24:49Z</time>
      </trkpt>
      <trkpt lat="47.70434" lon="-2.33811">
        <ele>60.6</ele>
        <time>2021-05-27T12:24:50Z</time>
      </trkpt>
      <trkpt lat="47.70436" lon="-2.33807">
        <ele>59.6</ele>
        <time>2021-05-27T12:24:51Z</time>
      </trkpt>
      <trkpt lat="47.70438" lon="-2.33803">
        <ele>58.6</ele>
        <time>2021-05-27T12:24:52Z</time>
      </trkpt>
      <trkpt lat="47.70441" lon="-2.338">
        <ele>57.7</ele>
        <time>2021-05-27T12:24:53Z</time>
      </trkpt>
      <trkpt lat="47.70445" lon="-2.33799">
        <ele>56.8</ele>
        <time>2021-05-27T12:24:54Z</time>
      </trkpt>
      <trkpt lat="47.70448" lon="-2.33797">
        <ele>56.1</ele>
        <time>2021-05-27T12:24:55Z</time>
      </trkpt>
      <trkpt lat="47.70452" lon="-2.33797">
        <ele>55.4</ele>
        <time>2021-05-27T12:24:56Z</time>
      </trkpt>
      <trkpt lat="47.70456" lon="-2.33797">
        <ele>54.8</ele>
        <time>2021-05-27T12:24:57Z</time>
      </trkpt>
      <trkpt lat="47.70459" lon="-2.33798">
        <ele>54.3</ele>
        <time>2021-05-27T12:24:58Z</time>
      </trkpt>
      <trkpt lat="47.70463" lon="-2.33797">
        <ele>53.5</ele>
        <time>2021-05-27T12:24:59Z</time>
      </trkpt>
      <trkpt lat="47.70468" lon="-2.33793">
        <ele>52.5</ele>
        <time>2021-05-27T12:25:00Z</time>
      </trkpt>
      <trkpt lat="47.70471" lon="-2.33789">
        <ele>51.7</ele>
        <time>2021-05-27T12:25:01Z</time>
      </trkpt>
      <trkpt lat="47.70472" lon="-2.33786">
        <ele>51</ele>
        <time>2021-05-27T12:25:02Z</time>
      </trkpt>
      <trkpt lat="47.70475" lon="-2.33782">
        <ele>50.3</ele>
        <time>2021-05-27T12:25:03Z</time>
      </trkpt>
      <trkpt lat="47.70477" lon="-2.33778">
        <ele>49.6</ele>
        <time>2021-05-27T12:25:04Z</time>
      </trkpt>
      <trkpt lat="47.7048" lon="-2.33773">
        <ele>48.8</ele>
        <time>2021-05-27T12:25:05Z</time>
      </trkpt>
      <trkpt lat="47.70481" lon="-2.33769">
        <ele>48.3</ele>
        <time>2021-05-27T12:25:06Z</time>
      </trkpt>
      <trkpt lat="47.70481" lon="-2.33763">
        <ele>47.8</ele>
        <time>2021-05-27T12:25:07Z</time>
      </trkpt>
      <trkpt lat="47.70481" lon="-2.33758">
        <ele>47.3</ele>
        <time>2021-05-27T12:25:08Z</time>
      </trkpt>
      <trkpt lat="47.70482" lon="-2.33754">
        <ele>46.9</ele>
        <time>2021-05-27T12:25:09Z</time>
      </trkpt>
      <trkpt lat="47.70482" lon="-2.3375">
        <ele>46.4</ele>
        <time>2021-05-27T12:25:10Z</time>
      </trkpt>
      <trkpt lat="47.70484" lon="-2.33745">
        <ele>45.8</ele>
        <time>2021-05-27T12:25:11Z</time>
      </trkpt>
      <trkpt lat="47.70486" lon="-2.33741">
        <ele>44.9</ele>
        <time>2021-05-27T12:25:12Z</time>
      </trkpt>
      <trkpt lat="47.70489" lon="-2.33735">
        <ele>43.9</ele>
        <time>2021-05-27T12:25:13Z</time>
      </trkpt>
      <trkpt lat="47.70492" lon="-2.33729">
        <ele>43</ele>
        <time>2021-05-27T12:25:14Z</time>
      </trkpt>
      <trkpt lat="47.70495" lon="-2.33724">
        <ele>42.1</ele>
        <time>2021-05-27T12:25:15Z</time>
      </trkpt>
      <trkpt lat="47.70499" lon="-2.33718">
        <ele>41.1</ele>
        <time>2021-05-27T12:25:16Z</time>
      </trkpt>
      <trkpt lat="47.70504" lon="-2.33712">
        <ele>40.1</ele>
        <time>2021-05-27T12:25:17Z</time>
      </trkpt>
      <trkpt lat="47.70508" lon="-2.33704">
        <ele>39</ele>
        <time>2021-05-27T12:25:18Z</time>
      </trkpt>
      <trkpt lat="47.70512" lon="-2.33697">
        <ele>38</ele>
        <time>2021-05-27T12:25:19Z</time>
      </trkpt>
      <trkpt lat="47.70514" lon="-2.33693">
        <ele>37.5</ele>
        <time>2021-05-27T12:25:20Z</time>
      </trkpt>
      <trkpt lat="47.70515" lon="-2.3369">
        <ele>37.1</ele>
        <time>2021-05-27T12:25:21Z</time>
      </trkpt>
      <trkpt lat="47.70516" lon="-2.33688">
        <ele>36.9</ele>
        <time>2021-05-27T12:25:22Z</time>
      </trkpt>
      <trkpt lat="47.70517" lon="-2.33686">
        <ele>36.5</ele>
        <time>2021-05-27T12:25:23Z</time>
      </trkpt>
      <trkpt lat="47.70519" lon="-2.33682">
        <ele>36.1</ele>
        <time>2021-05-27T12:25:24Z</time>
      </trkpt>
      <trkpt lat="47.70521" lon="-2.33679">
        <ele>35.7</ele>
        <time>2021-05-27T12:25:25Z</time>
      </trkpt>
      <trkpt lat="47.70521" lon="-2.33673">
        <ele>35.2</ele>
        <time>2021-05-27T12:25:26Z</time>
      </trkpt>
      <trkpt lat="47.70522" lon="-2.33669">
        <ele>34.7</ele>
        <time>2021-05-27T12:25:27Z</time>
      </trkpt>
      <trkpt lat="47.70523" lon="-2.33665">
        <ele>34.3</ele>
        <time>2021-05-27T12:25:28Z</time>
      </trkpt>
      <trkpt lat="47.70524" lon="-2.33662">
        <ele>33.9</ele>
        <time>2021-05-27T12:25:29Z</time>
      </trkpt>
      <trkpt lat="47.70524" lon="-2.3366">
        <ele>33.7</ele>
        <time>2021-05-27T12:25:30Z</time>
      </trkpt>
      <trkpt lat="47.70524" lon="-2.33658">
        <ele>33.5</ele>
        <time>2021-05-27T12:25:31Z</time>
      </trkpt>
      <trkpt lat="47.70525" lon="-2.33655">
        <ele>33.2</ele>
        <time>2021-05-27T12:25:32Z</time>
      </trkpt>
      <trkpt lat="47.70525" lon="-2.33652">
        <ele>32.8</ele>
        <time>2021-05-27T12:25:33Z</time>
      </trkpt>
      <trkpt lat="47.70526" lon="-2.33649">
        <ele>32.5</ele>
        <time>2021-05-27T12:25:34Z</time>
      </trkpt>
      <trkpt lat="47.70525" lon="-2.33647">
        <ele>32.2</ele>
        <time>2021-05-27T12:25:35Z</time>
      </trkpt>
      <trkpt lat="47.70525" lon="-2.33645">
        <ele>32.1</ele>
        <time>2021-05-27T12:25:36Z</time>
      </trkpt>
      <trkpt lat="47.70524" lon="-2.33644">
        <ele>31.9</ele>
        <time>2021-05-27T12:25:37Z</time>
      </trkpt>
      <trkpt lat="47.70522" lon="-2.33642">
        <ele>31.7</ele>
        <time>2021-05-27T12:25:38Z</time>
      </trkpt>
      <trkpt lat="47.7052" lon="-2.3364">
        <ele>31.5</ele>
        <time>2021-05-27T12:25:39Z</time>
      </trkpt>
      <trkpt lat="47.70518" lon="-2.33637">
        <ele>31.3</ele>
        <time>2021-05-27T12:25:40Z</time>
      </trkpt>
      <trkpt lat="47.70514" lon="-2.33636">
        <ele>31.2</ele>
        <time>2021-05-27T12:25:41Z</time>
      </trkpt>
      <trkpt lat="47.70511" lon="-2.33636">
        <ele>31.2</ele>
        <time>2021-05-27T12:25:42Z</time>
      </trkpt>
      <trkpt lat="47.70506" lon="-2.33635">
        <ele>31.1</ele>
        <time>2021-05-27T12:25:43Z</time>
      </trkpt>
      <trkpt lat="47.705" lon="-2.33636">
        <ele>31.4</ele>
        <time>2021-05-27T12:25:44Z</time>
      </trkpt>
      <trkpt lat="47.70495" lon="-2.33638">
        <ele>31.9</ele>
        <time>2021-05-27T12:25:45Z</time>
      </trkpt>
      <trkpt lat="47.70489" lon="-2.33641">
        <ele>32.5</ele>
        <time>2021-05-27T12:25:46Z</time>
      </trkpt>
      <trkpt lat="47.70485" lon="-2.33643">
        <ele>32.9</ele>
        <time>2021-05-27T12:25:47Z</time>
      </trkpt>
      <trkpt lat="47.70479" lon="-2.33645">
        <ele>33.4</ele>
        <time>2021-05-27T12:25:48Z</time>
      </trkpt>
      <trkpt lat="47.70474" lon="-2.33646">
        <ele>33.7</ele>
        <time>2021-05-27T12:25:49Z</time>
      </trkpt>
      <trkpt lat="47.7047" lon="-2.33648">
        <ele>33.9</ele>
        <time>2021-05-27T12:25:50Z</time>
      </trkpt>
      <trkpt lat="47.70466" lon="-2.3365">
        <ele>34.2</ele>
        <time>2021-05-27T12:25:51Z</time>
      </trkpt>
      <trkpt lat="47.70461" lon="-2.33651">
        <ele>34.5</ele>
        <time>2021-05-27T12:25:52Z</time>
      </trkpt>
      <trkpt lat="47.70457" lon="-2.33654">
        <ele>34.7</ele>
        <time>2021-05-27T12:25:53Z</time>
      </trkpt>
      <trkpt lat="47.70453" lon="-2.33657">
        <ele>34.8</ele>
        <time>2021-05-27T12:25:54Z</time>
      </trkpt>
      <trkpt lat="47.70448" lon="-2.33659">
        <ele>34.9</ele>
        <time>2021-05-27T12:25:55Z</time>
      </trkpt>
      <trkpt lat="47.70443" lon="-2.33662">
        <ele>35</ele>
        <time>2021-05-27T12:25:56Z</time>
      </trkpt>
      <trkpt lat="47.70438" lon="-2.33664">
        <ele>35</ele>
        <time>2021-05-27T12:25:57Z</time>
      </trkpt>
      <trkpt lat="47.70433" lon="-2.33666">
        <ele>35</ele>
        <time>2021-05-27T12:25:58Z</time>
      </trkpt>
      <trkpt lat="47.70427" lon="-2.33666">
        <ele>35</ele>
        <time>2021-05-27T12:25:59Z</time>
      </trkpt>
      <trkpt lat="47.70422" lon="-2.33669">
        <ele>35.4</ele>
        <time>2021-05-27T12:26:00Z</time>
      </trkpt>
      <trkpt lat="47.70417" lon="-2.33672">
        <ele>36.2</ele>
        <time>2021-05-27T12:26:01Z</time>
      </trkpt>
      <trkpt lat="47.70412" lon="-2.33676">
        <ele>37</ele>
        <time>2021-05-27T12:26:02Z</time>
      </trkpt>
      <trkpt lat="47.70407" lon="-2.3368">
        <ele>37.8</ele>
        <time>2021-05-27T12:26:03Z</time>
      </trkpt>
      <trkpt lat="47.70403" lon="-2.33684">
        <ele>38.5</ele>
        <time>2021-05-27T12:26:04Z</time>
      </trkpt>
      <trkpt lat="47.70398" lon="-2.33687">
        <ele>39.1</ele>
        <time>2021-05-27T12:26:05Z</time>
      </trkpt>
      <trkpt lat="47.70393" lon="-2.3369">
        <ele>39.6</ele>
        <time>2021-05-27T12:26:06Z</time>
      </trkpt>
      <trkpt lat="47.70389" lon="-2.33693">
        <ele>40</ele>
        <time>2021-05-27T12:26:07Z</time>
      </trkpt>
      <trkpt lat="47.70384" lon="-2.33696">
        <ele>40.4</ele>
        <time>2021-05-27T12:26:08Z</time>
      </trkpt>
      <trkpt lat="47.70379" lon="-2.33699">
        <ele>40.8</ele>
        <time>2021-05-27T12:26:09Z</time>
      </trkpt>
      <trkpt lat="47.70374" lon="-2.33703">
        <ele>41.2</ele>
        <time>2021-05-27T12:26:10Z</time>
      </trkpt>
      <trkpt lat="47.70369" lon="-2.33707">
        <ele>41.5</ele>
        <time>2021-05-27T12:26:11Z</time>
      </trkpt>
      <trkpt lat="47.70364" lon="-2.3371">
        <ele>41.8</ele>
        <time>2021-05-27T12:26:12Z</time>
      </trkpt>
      <trkpt lat="47.70358" lon="-2.33714">
        <ele>42</ele>
        <time>2021-05-27T12:26:13Z</time>
      </trkpt>
      <trkpt lat="47.70354" lon="-2.33717">
        <ele>42.2</ele>
        <time>2021-05-27T12:26:14Z</time>
      </trkpt>
      <trkpt lat="47.70349" lon="-2.3372">
        <ele>42.3</ele>
        <time>2021-05-27T12:26:15Z</time>
      </trkpt>
      <trkpt lat="47.70344" lon="-2.33724">
        <ele>42.4</ele>
        <time>2021-05-27T12:26:16Z</time>
      </trkpt>
      <trkpt lat="47.70339" lon="-2.33727">
        <ele>42.5</ele>
        <time>2021-05-27T12:26:17Z</time>
      </trkpt>
      <trkpt lat="47.70334" lon="-2.33731">
        <ele>42.4</ele>
        <time>2021-05-27T12:26:18Z</time>
      </trkpt>
      <trkpt lat="47.70329" lon="-2.33734">
        <ele>42.1</ele>
        <time>2021-05-27T12:26:19Z</time>
      </trkpt>
      <trkpt lat="47.70324" lon="-2.33737">
        <ele>41.6</ele>
        <time>2021-05-27T12:26:20Z</time>
      </trkpt>
      <trkpt lat="47.70319" lon="-2.3374">
        <ele>41.1</ele>
        <time>2021-05-27T12:26:21Z</time>
      </trkpt>
      <trkpt lat="47.70314" lon="-2.33743">
        <ele>40.6</ele>
        <time>2021-05-27T12:26:22Z</time>
      </trkpt>
      <trkpt lat="47.70309" lon="-2.33746">
        <ele>40.1</ele>
        <time>2021-05-27T12:26:23Z</time>
      </trkpt>
      <trkpt lat="47.70304" lon="-2.33748">
        <ele>39.4</ele>
        <time>2021-05-27T12:26:24Z</time>
      </trkpt>
      <trkpt lat="47.70298" lon="-2.3375">
        <ele>38.6</ele>
        <time>2021-05-27T12:26:25Z</time>
      </trkpt>
      <trkpt lat="47.70293" lon="-2.33751">
        <ele>38.1</ele>
        <time>2021-05-27T12:26:26Z</time>
      </trkpt>
      <trkpt lat="47.70288" lon="-2.33754">
        <ele>38</ele>
        <time>2021-05-27T12:26:27Z</time>
      </trkpt>
      <trkpt lat="47.70283" lon="-2.33757">
        <ele>37.6</ele>
        <time>2021-05-27T12:26:28Z</time>
      </trkpt>
      <trkpt lat="47.70278" lon="-2.33758">
        <ele>37.2</ele>
        <time>2021-05-27T12:26:29Z</time>
      </trkpt>
      <trkpt lat="47.70272" lon="-2.33759">
        <ele>36.5</ele>
        <time>2021-05-27T12:26:30Z</time>
      </trkpt>
      <trkpt lat="47.70267" lon="-2.3376">
        <ele>35.6</ele>
        <time>2021-05-27T12:26:31Z</time>
      </trkpt>
      <trkpt lat="47.70262" lon="-2.3376">
        <ele>34.9</ele>
        <time>2021-05-27T12:26:32Z</time>
      </trkpt>
      <trkpt lat="47.70257" lon="-2.33761">
        <ele>34.1</ele>
        <time>2021-05-27T12:26:33Z</time>
      </trkpt>
      <trkpt lat="47.70252" lon="-2.33761">
        <ele>33.2</ele>
        <time>2021-05-27T12:26:34Z</time>
      </trkpt>
      <trkpt lat="47.70247" lon="-2.3376">
        <ele>32.6</ele>
        <time>2021-05-27T12:26:35Z</time>
      </trkpt>
      <trkpt lat="47.70242" lon="-2.3376">
        <ele>32.3</ele>
        <time>2021-05-27T12:26:36Z</time>
      </trkpt>
      <trkpt lat="47.70238" lon="-2.33759">
        <ele>31.9</ele>
        <time>2021-05-27T12:26:37Z</time>
      </trkpt>
      <trkpt lat="47.70233" lon="-2.33758">
        <ele>31.5</ele>
        <time>2021-05-27T12:26:38Z</time>
      </trkpt>
      <trkpt lat="47.70229" lon="-2.33756">
        <ele>31.1</ele>
        <time>2021-05-27T12:26:39Z</time>
      </trkpt>
      <trkpt lat="47.70224" lon="-2.33755">
        <ele>30.8</ele>
        <time>2021-05-27T12:26:40Z</time>
      </trkpt>
      <trkpt lat="47.70219" lon="-2.33755">
        <ele>30.6</ele>
        <time>2021-05-27T12:26:41Z</time>
      </trkpt>
      <trkpt lat="47.70214" lon="-2.33755">
        <ele>30.3</ele>
        <time>2021-05-27T12:26:42Z</time>
      </trkpt>
      <trkpt lat="47.70209" lon="-2.33754">
        <ele>30</ele>
        <time>2021-05-27T12:26:43Z</time>
      </trkpt>
      <trkpt lat="47.70204" lon="-2.33754">
        <ele>29.8</ele>
        <time>2021-05-27T12:26:44Z</time>
      </trkpt>
      <trkpt lat="47.70199" lon="-2.33753">
        <ele>29.5</ele>
        <time>2021-05-27T12:26:45Z</time>
      </trkpt>
      <trkpt lat="47.70194" lon="-2.33753">
        <ele>29.2</ele>
        <time>2021-05-27T12:26:46Z</time>
      </trkpt>
      <trkpt lat="47.70189" lon="-2.33751">
        <ele>28.9</ele>
        <time>2021-05-27T12:26:47Z</time>
      </trkpt>
      <trkpt lat="47.70185" lon="-2.3375">
        <ele>28.7</ele>
        <time>2021-05-27T12:26:48Z</time>
      </trkpt>
      <trkpt lat="47.70182" lon="-2.33747">
        <ele>28.5</ele>
        <time>2021-05-27T12:26:49Z</time>
      </trkpt>
      <trkpt lat="47.70179" lon="-2.33743">
        <ele>28.5</ele>
        <time>2021-05-27T12:26:50Z</time>
      </trkpt>
      <trkpt lat="47.70177" lon="-2.33738">
        <ele>28.4</ele>
        <time>2021-05-27T12:26:51Z</time>
      </trkpt>
      <trkpt lat="47.70177" lon="-2.33732">
        <ele>28.4</ele>
        <time>2021-05-27T12:26:52Z</time>
      </trkpt>
      <trkpt lat="47.70179" lon="-2.33725">
        <ele>28.4</ele>
        <time>2021-05-27T12:26:53Z</time>
      </trkpt>
      <trkpt lat="47.70181" lon="-2.33719">
        <ele>28.6</ele>
        <time>2021-05-27T12:26:54Z</time>
      </trkpt>
      <trkpt lat="47.70183" lon="-2.33711">
        <ele>28.8</ele>
        <time>2021-05-27T12:26:55Z</time>
      </trkpt>
      <trkpt lat="47.70184" lon="-2.33703">
        <ele>28.9</ele>
        <time>2021-05-27T12:26:56Z</time>
      </trkpt>
      <trkpt lat="47.70186" lon="-2.33695">
        <ele>29.1</ele>
        <time>2021-05-27T12:26:57Z</time>
      </trkpt>
      <trkpt lat="47.70188" lon="-2.33688">
        <ele>29.3</ele>
        <time>2021-05-27T12:26:58Z</time>
      </trkpt>
      <trkpt lat="47.7019" lon="-2.3368">
        <ele>29.6</ele>
        <time>2021-05-27T12:26:59Z</time>
      </trkpt>
      <trkpt lat="47.70191" lon="-2.33672">
        <ele>29.8</ele>
        <time>2021-05-27T12:27:00Z</time>
      </trkpt>
      <trkpt lat="47.70193" lon="-2.33665">
        <ele>30.2</ele>
        <time>2021-05-27T12:27:01Z</time>
      </trkpt>
      <trkpt lat="47.70195" lon="-2.33659">
        <ele>30.9</ele>
        <time>2021-05-27T12:27:02Z</time>
      </trkpt>
      <trkpt lat="47.70196" lon="-2.33653">
        <ele>31.6</ele>
        <time>2021-05-27T12:27:03Z</time>
      </trkpt>
      <trkpt lat="47.70199" lon="-2.33647">
        <ele>32.4</ele>
        <time>2021-05-27T12:27:04Z</time>
      </trkpt>
      <trkpt lat="47.702" lon="-2.3364">
        <ele>33.1</ele>
        <time>2021-05-27T12:27:05Z</time>
      </trkpt>
      <trkpt lat="47.70202" lon="-2.33633">
        <ele>33.9</ele>
        <time>2021-05-27T12:27:06Z</time>
      </trkpt>
      <trkpt lat="47.70203" lon="-2.33626">
        <ele>34.5</ele>
        <time>2021-05-27T12:27:07Z</time>
      </trkpt>
      <trkpt lat="47.70203" lon="-2.33619">
        <ele>35.1</ele>
        <time>2021-05-27T12:27:08Z</time>
      </trkpt>
      <trkpt lat="47.70202" lon="-2.33613">
        <ele>35.5</ele>
        <time>2021-05-27T12:27:09Z</time>
      </trkpt>
      <trkpt lat="47.70203" lon="-2.33608">
        <ele>36</ele>
        <time>2021-05-27T12:27:10Z</time>
      </trkpt>
      <trkpt lat="47.70201" lon="-2.33603">
        <ele>36.2</ele>
        <time>2021-05-27T12:27:11Z</time>
      </trkpt>
      <trkpt lat="47.70201" lon="-2.33598">
        <ele>36.4</ele>
        <time>2021-05-27T12:27:12Z</time>
      </trkpt>
      <trkpt lat="47.702" lon="-2.33594">
        <ele>36.6</ele>
        <time>2021-05-27T12:27:13Z</time>
      </trkpt>
      <trkpt lat="47.70201" lon="-2.3359">
        <ele>37.1</ele>
        <time>2021-05-27T12:27:14Z</time>
      </trkpt>
      <trkpt lat="47.70202" lon="-2.33586">
        <ele>37.5</ele>
        <time>2021-05-27T12:27:15Z</time>
      </trkpt>
      <trkpt lat="47.70202" lon="-2.33583">
        <ele>37.8</ele>
        <time>2021-05-27T12:27:16Z</time>
      </trkpt>
      <trkpt lat="47.70203" lon="-2.33579">
        <ele>38.2</ele>
        <time>2021-05-27T12:27:17Z</time>
      </trkpt>
      <trkpt lat="47.70205" lon="-2.33576">
        <ele>38.6</ele>
        <time>2021-05-27T12:27:18Z</time>
      </trkpt>
      <trkpt lat="47.70206" lon="-2.33573">
        <ele>39</ele>
        <time>2021-05-27T12:27:19Z</time>
      </trkpt>
      <trkpt lat="47.70207" lon="-2.33571">
        <ele>39.3</ele>
        <time>2021-05-27T12:27:20Z</time>
      </trkpt>
      <trkpt lat="47.70207" lon="-2.33568">
        <ele>39.6</ele>
        <time>2021-05-27T12:27:21Z</time>
      </trkpt>
      <trkpt lat="47.70208" lon="-2.33564">
        <ele>39.8</ele>
        <time>2021-05-27T12:27:22Z</time>
      </trkpt>
      <trkpt lat="47.70208" lon="-2.33561">
        <ele>40.1</ele>
        <time>2021-05-27T12:27:23Z</time>
      </trkpt>
      <trkpt lat="47.70209" lon="-2.33559">
        <ele>40.3</ele>
        <time>2021-05-27T12:27:24Z</time>
      </trkpt>
      <trkpt lat="47.70209" lon="-2.33558">
        <ele>40.4</ele>
        <time>2021-05-27T12:27:25Z</time>
      </trkpt>
      <trkpt lat="47.7021" lon="-2.33556">
        <ele>40.6</ele>
        <time>2021-05-27T12:27:26Z</time>
      </trkpt>
      <trkpt lat="47.70209" lon="-2.33553">
        <ele>40.7</ele>
        <time>2021-05-27T12:27:27Z</time>
      </trkpt>
      <trkpt lat="47.7021" lon="-2.3355">
        <ele>40.9</ele>
        <time>2021-05-27T12:27:28Z</time>
      </trkpt>
      <trkpt lat="47.7021" lon="-2.33548">
        <ele>41.1</ele>
        <time>2021-05-27T12:27:29Z</time>
      </trkpt>
      <trkpt lat="47.70211" lon="-2.33546">
        <ele>41.3</ele>
        <time>2021-05-27T12:27:30Z</time>
      </trkpt>
      <trkpt lat="47.70212" lon="-2.33545">
        <ele>41.5</ele>
        <time>2021-05-27T12:27:31Z</time>
      </trkpt>
      <trkpt lat="47.70212" lon="-2.33543">
        <ele>41.7</ele>
        <time>2021-05-27T12:27:32Z</time>
      </trkpt>
      <trkpt lat="47.70212" lon="-2.33541">
        <ele>41.8</ele>
        <time>2021-05-27T12:27:33Z</time>
      </trkpt>
      <trkpt lat="47.70213" lon="-2.33538">
        <ele>42.2</ele>
        <time>2021-05-27T12:27:34Z</time>
      </trkpt>
      <trkpt lat="47.70213" lon="-2.33536">
        <ele>42.1</ele>
        <time>2021-05-27T12:27:35Z</time>
      </trkpt>
      <trkpt lat="47.70212" lon="-2.33534">
        <ele>42.2</ele>
        <time>2021-05-27T12:27:36Z</time>
      </trkpt>
      <trkpt lat="47.70212" lon="-2.33532">
        <ele>42.1</ele>
        <time>2021-05-27T12:27:37Z</time>
      </trkpt>
      <trkpt lat="47.70212" lon="-2.33529">
        <ele>42.3</ele>
        <time>2021-05-27T12:27:38Z</time>
      </trkpt>
      <trkpt lat="47.70211" lon="-2.33527">
        <ele>42.3</ele>
        <time>2021-05-27T12:27:39Z</time>
      </trkpt>
      <trkpt lat="47.7021" lon="-2.33524">
        <ele>42.3</ele>
        <time>2021-05-27T12:27:40Z</time>
      </trkpt>
      <trkpt lat="47.7021" lon="-2.3352">
        <ele>42.4</ele>
        <time>2021-05-27T12:27:41Z</time>
      </trkpt>
      <trkpt lat="47.7021" lon="-2.33516">
        <ele>42.6</ele>
        <time>2021-05-27T12:27:42Z</time>
      </trkpt>
      <trkpt lat="47.7021" lon="-2.33513">
        <ele>42.7</ele>
        <time>2021-05-27T12:27:43Z</time>
      </trkpt>
      <trkpt lat="47.70209" lon="-2.33509">
        <ele>42.7</ele>
        <time>2021-05-27T12:27:44Z</time>
      </trkpt>
      <trkpt lat="47.70208" lon="-2.33505">
        <ele>42.8</ele>
        <time>2021-05-27T12:27:45Z</time>
      </trkpt>
      <trkpt lat="47.70208" lon="-2.33503">
        <ele>42.7</ele>
        <time>2021-05-27T12:27:46Z</time>
      </trkpt>
      <trkpt lat="47.70207" lon="-2.33499">
        <ele>42.7</ele>
        <time>2021-05-27T12:27:47Z</time>
      </trkpt>
      <trkpt lat="47.70206" lon="-2.33495">
        <ele>43</ele>
        <time>2021-05-27T12:27:48Z</time>
      </trkpt>
      <trkpt lat="47.70206" lon="-2.33492">
        <ele>43.2</ele>
        <time>2021-05-27T12:27:49Z</time>
      </trkpt>
      <trkpt lat="47.70206" lon="-2.33488">
        <ele>43.4</ele>
        <time>2021-05-27T12:27:50Z</time>
      </trkpt>
      <trkpt lat="47.70206" lon="-2.33484">
        <ele>43.9</ele>
        <time>2021-05-27T12:27:51Z</time>
      </trkpt>
      <trkpt lat="47.70206" lon="-2.33479">
        <ele>44.1</ele>
        <time>2021-05-27T12:27:52Z</time>
      </trkpt>
      <trkpt lat="47.70205" lon="-2.33475">
        <ele>44.2</ele>
        <time>2021-05-27T12:27:53Z</time>
      </trkpt>
      <trkpt lat="47.70203" lon="-2.33472">
        <ele>44.3</ele>
        <time>2021-05-27T12:27:54Z</time>
      </trkpt>
      <trkpt lat="47.70203" lon="-2.33468">
        <ele>44.4</ele>
        <time>2021-05-27T12:27:55Z</time>
      </trkpt>
      <trkpt lat="47.70202" lon="-2.33465">
        <ele>44.5</ele>
        <time>2021-05-27T12:27:56Z</time>
      </trkpt>
      <trkpt lat="47.70201" lon="-2.33462">
        <ele>44.6</ele>
        <time>2021-05-27T12:27:57Z</time>
      </trkpt>
      <trkpt lat="47.70201" lon="-2.33457">
        <ele>44.8</ele>
        <time>2021-05-27T12:27:58Z</time>
      </trkpt>
      <trkpt lat="47.702" lon="-2.33453">
        <ele>45</ele>
        <time>2021-05-27T12:27:59Z</time>
      </trkpt>
      <trkpt lat="47.70199" lon="-2.33448">
        <ele>45.1</ele>
        <time>2021-05-27T12:28:00Z</time>
      </trkpt>
      <trkpt lat="47.70197" lon="-2.33443">
        <ele>45.2</ele>
        <time>2021-05-27T12:28:01Z</time>
      </trkpt>
      <trkpt lat="47.70196" lon="-2.33438">
        <ele>45.3</ele>
        <time>2021-05-27T12:28:02Z</time>
      </trkpt>
      <trkpt lat="47.70194" lon="-2.33434">
        <ele>45.3</ele>
        <time>2021-05-27T12:28:03Z</time>
      </trkpt>
      <trkpt lat="47.70193" lon="-2.3343">
        <ele>45.3</ele>
        <time>2021-05-27T12:28:04Z</time>
      </trkpt>
      <trkpt lat="47.70192" lon="-2.33426">
        <ele>45.4</ele>
        <time>2021-05-27T12:28:05Z</time>
      </trkpt>
      <trkpt lat="47.70192" lon="-2.33423">
        <ele>45.5</ele>
        <time>2021-05-27T12:28:06Z</time>
      </trkpt>
      <trkpt lat="47.7019" lon="-2.33419">
        <ele>45.4</ele>
        <time>2021-05-27T12:28:07Z</time>
      </trkpt>
      <trkpt lat="47.70189" lon="-2.33415">
        <ele>45.4</ele>
        <time>2021-05-27T12:28:08Z</time>
      </trkpt>
      <trkpt lat="47.70187" lon="-2.33411">
        <ele>45.1</ele>
        <time>2021-05-27T12:28:09Z</time>
      </trkpt>
      <trkpt lat="47.70186" lon="-2.33406">
        <ele>45.2</ele>
        <time>2021-05-27T12:28:10Z</time>
      </trkpt>
      <trkpt lat="47.70185" lon="-2.33401">
        <ele>45.1</ele>
        <time>2021-05-27T12:28:11Z</time>
      </trkpt>
      <trkpt lat="47.70183" lon="-2.33397">
        <ele>45</ele>
        <time>2021-05-27T12:28:12Z</time>
      </trkpt>
      <trkpt lat="47.70182" lon="-2.33393">
        <ele>44.8</ele>
        <time>2021-05-27T12:28:13Z</time>
      </trkpt>
      <trkpt lat="47.7018" lon="-2.33388">
        <ele>44.7</ele>
        <time>2021-05-27T12:28:14Z</time>
      </trkpt>
      <trkpt lat="47.70179" lon="-2.33383">
        <ele>44.6</ele>
        <time>2021-05-27T12:28:15Z</time>
      </trkpt>
      <trkpt lat="47.70178" lon="-2.33378">
        <ele>44.6</ele>
        <time>2021-05-27T12:28:16Z</time>
      </trkpt>
      <trkpt lat="47.70176" lon="-2.33373">
        <ele>44.5</ele>
        <time>2021-05-27T12:28:17Z</time>
      </trkpt>
      <trkpt lat="47.70175" lon="-2.33369">
        <ele>44.3</ele>
        <time>2021-05-27T12:28:18Z</time>
      </trkpt>
      <trkpt lat="47.70174" lon="-2.33363">
        <ele>44.4</ele>
        <time>2021-05-27T12:28:19Z</time>
      </trkpt>
      <trkpt lat="47.70173" lon="-2.33358">
        <ele>44.4</ele>
        <time>2021-05-27T12:28:20Z</time>
      </trkpt>
      <trkpt lat="47.70173" lon="-2.33352">
        <ele>44.6</ele>
        <time>2021-05-27T12:28:21Z</time>
      </trkpt>
      <trkpt lat="47.70172" lon="-2.33346">
        <ele>44.7</ele>
        <time>2021-05-27T12:28:22Z</time>
      </trkpt>
      <trkpt lat="47.70171" lon="-2.33341">
        <ele>44.7</ele>
        <time>2021-05-27T12:28:23Z</time>
      </trkpt>
      <trkpt lat="47.7017" lon="-2.33335">
        <ele>44.9</ele>
        <time>2021-05-27T12:28:24Z</time>
      </trkpt>
      <trkpt lat="47.7017" lon="-2.3333">
        <ele>45.2</ele>
        <time>2021-05-27T12:28:25Z</time>
      </trkpt>
      <trkpt lat="47.70168" lon="-2.33326">
        <ele>45.3</ele>
        <time>2021-05-27T12:28:26Z</time>
      </trkpt>
      <trkpt lat="47.70167" lon="-2.33321">
        <ele>45.6</ele>
        <time>2021-05-27T12:28:27Z</time>
      </trkpt>
      <trkpt lat="47.70166" lon="-2.33317">
        <ele>45.9</ele>
        <time>2021-05-27T12:28:28Z</time>
      </trkpt>
      <trkpt lat="47.70165" lon="-2.33311">
        <ele>46.3</ele>
        <time>2021-05-27T12:28:29Z</time>
      </trkpt>
      <trkpt lat="47.70163" lon="-2.33304">
        <ele>46.7</ele>
        <time>2021-05-27T12:28:30Z</time>
      </trkpt>
      <trkpt lat="47.70162" lon="-2.33298">
        <ele>47.2</ele>
        <time>2021-05-27T12:28:31Z</time>
      </trkpt>
      <trkpt lat="47.7016" lon="-2.33294">
        <ele>47.3</ele>
        <time>2021-05-27T12:28:32Z</time>
      </trkpt>
      <trkpt lat="47.70157" lon="-2.33289">
        <ele>47.1</ele>
        <time>2021-05-27T12:28:33Z</time>
      </trkpt>
      <trkpt lat="47.70154" lon="-2.33285">
        <ele>47</ele>
        <time>2021-05-27T12:28:34Z</time>
      </trkpt>
      <trkpt lat="47.70153" lon="-2.33279">
        <ele>47.4</ele>
        <time>2021-05-27T12:28:35Z</time>
      </trkpt>
      <trkpt lat="47.70154" lon="-2.33273">
        <ele>48.3</ele>
        <time>2021-05-27T12:28:36Z</time>
      </trkpt>
      <trkpt lat="47.70153" lon="-2.33268">
        <ele>48.5</ele>
        <time>2021-05-27T12:28:37Z</time>
      </trkpt>
      <trkpt lat="47.70152" lon="-2.33263">
        <ele>48.8</ele>
        <time>2021-05-27T12:28:38Z</time>
      </trkpt>
      <trkpt lat="47.70151" lon="-2.33258">
        <ele>49</ele>
        <time>2021-05-27T12:28:39Z</time>
      </trkpt>
      <trkpt lat="47.7015" lon="-2.33254">
        <ele>49.1</ele>
        <time>2021-05-27T12:28:40Z</time>
      </trkpt>
      <trkpt lat="47.70148" lon="-2.3325">
        <ele>49.2</ele>
        <time>2021-05-27T12:28:41Z</time>
      </trkpt>
      <trkpt lat="47.70146" lon="-2.33245">
        <ele>49.1</ele>
        <time>2021-05-27T12:28:42Z</time>
      </trkpt>
      <trkpt lat="47.70146" lon="-2.33242">
        <ele>49.2</ele>
        <time>2021-05-27T12:28:43Z</time>
      </trkpt>
      <trkpt lat="47.70145" lon="-2.33238">
        <ele>49.3</ele>
        <time>2021-05-27T12:28:44Z</time>
      </trkpt>
      <trkpt lat="47.70143" lon="-2.33234">
        <ele>49.2</ele>
        <time>2021-05-27T12:28:45Z</time>
      </trkpt>
      <trkpt lat="47.70143" lon="-2.3323">
        <ele>49.5</ele>
        <time>2021-05-27T12:28:46Z</time>
      </trkpt>
      <trkpt lat="47.70142" lon="-2.33226">
        <ele>49.7</ele>
        <time>2021-05-27T12:28:47Z</time>
      </trkpt>
      <trkpt lat="47.70141" lon="-2.33221">
        <ele>50</ele>
        <time>2021-05-27T12:28:48Z</time>
      </trkpt>
      <trkpt lat="47.70141" lon="-2.33218">
        <ele>50.1</ele>
        <time>2021-05-27T12:28:49Z</time>
      </trkpt>
      <trkpt lat="47.7014" lon="-2.33215">
        <ele>50.1</ele>
        <time>2021-05-27T12:28:50Z</time>
      </trkpt>
      <trkpt lat="47.70138" lon="-2.33209">
        <ele>50.2</ele>
        <time>2021-05-27T12:28:51Z</time>
      </trkpt>
      <trkpt lat="47.70137" lon="-2.33205">
        <ele>50.3</ele>
        <time>2021-05-27T12:28:52Z</time>
      </trkpt>
      <trkpt lat="47.70135" lon="-2.33202">
        <ele>50.2</ele>
        <time>2021-05-27T12:28:53Z</time>
      </trkpt>
      <trkpt lat="47.70133" lon="-2.33196">
        <ele>50.1</ele>
        <time>2021-05-27T12:28:54Z</time>
      </trkpt>
      <trkpt lat="47.70131" lon="-2.3319">
        <ele>49.9</ele>
        <time>2021-05-27T12:28:55Z</time>
      </trkpt>
      <trkpt lat="47.70128" lon="-2.33184">
        <ele>49.7</ele>
        <time>2021-05-27T12:28:56Z</time>
      </trkpt>
      <trkpt lat="47.70125" lon="-2.33179">
        <ele>49.4</ele>
        <time>2021-05-27T12:28:57Z</time>
      </trkpt>
      <trkpt lat="47.70122" lon="-2.33173">
        <ele>49.2</ele>
        <time>2021-05-27T12:28:58Z</time>
      </trkpt>
      <trkpt lat="47.70121" lon="-2.33168">
        <ele>49.3</ele>
        <time>2021-05-27T12:28:59Z</time>
      </trkpt>
      <trkpt lat="47.7012" lon="-2.33162">
        <ele>49.5</ele>
        <time>2021-05-27T12:29:00Z</time>
      </trkpt>
      <trkpt lat="47.70119" lon="-2.33157">
        <ele>49.6</ele>
        <time>2021-05-27T12:29:01Z</time>
      </trkpt>
      <trkpt lat="47.70117" lon="-2.33151">
        <ele>49.6</ele>
        <time>2021-05-27T12:29:02Z</time>
      </trkpt>
      <trkpt lat="47.70116" lon="-2.33146">
        <ele>49.7</ele>
        <time>2021-05-27T12:29:03Z</time>
      </trkpt>
      <trkpt lat="47.70113" lon="-2.3314">
        <ele>49.2</ele>
        <time>2021-05-27T12:29:04Z</time>
      </trkpt>
      <trkpt lat="47.7011" lon="-2.33136">
        <ele>48.9</ele>
        <time>2021-05-27T12:29:05Z</time>
      </trkpt>
      <trkpt lat="47.70108" lon="-2.33131">
        <ele>48.7</ele>
        <time>2021-05-27T12:29:06Z</time>
      </trkpt>
      <trkpt lat="47.70106" lon="-2.33127">
        <ele>48.6</ele>
        <time>2021-05-27T12:29:07Z</time>
      </trkpt>
      <trkpt lat="47.70104" lon="-2.33122">
        <ele>48.5</ele>
        <time>2021-05-27T12:29:08Z</time>
      </trkpt>
      <trkpt lat="47.70102" lon="-2.33117">
        <ele>48.3</ele>
        <time>2021-05-27T12:29:09Z</time>
      </trkpt>
      <trkpt lat="47.701" lon="-2.33112">
        <ele>48.2</ele>
        <time>2021-05-27T12:29:10Z</time>
      </trkpt>
      <trkpt lat="47.70098" lon="-2.33107">
        <ele>48</ele>
        <time>2021-05-27T12:29:11Z</time>
      </trkpt>
      <trkpt lat="47.70096" lon="-2.33102">
        <ele>47.8</ele>
        <time>2021-05-27T12:29:12Z</time>
      </trkpt>
      <trkpt lat="47.70094" lon="-2.33098">
        <ele>47.5</ele>
        <time>2021-05-27T12:29:13Z</time>
      </trkpt>
      <trkpt lat="47.70091" lon="-2.33092">
        <ele>47.4</ele>
        <time>2021-05-27T12:29:14Z</time>
      </trkpt>
      <trkpt lat="47.70089" lon="-2.33087">
        <ele>47.2</ele>
        <time>2021-05-27T12:29:15Z</time>
      </trkpt>
      <trkpt lat="47.70086" lon="-2.33081">
        <ele>47</ele>
        <time>2021-05-27T12:29:16Z</time>
      </trkpt>
      <trkpt lat="47.70083" lon="-2.33073">
        <ele>47</ele>
        <time>2021-05-27T12:29:17Z</time>
      </trkpt>
      <trkpt lat="47.7008" lon="-2.33066">
        <ele>47.1</ele>
        <time>2021-05-27T12:29:18Z</time>
      </trkpt>
      <trkpt lat="47.70078" lon="-2.33059">
        <ele>47.2</ele>
        <time>2021-05-27T12:29:19Z</time>
      </trkpt>
      <trkpt lat="47.70075" lon="-2.33052">
        <ele>47.4</ele>
        <time>2021-05-27T12:29:20Z</time>
      </trkpt>
      <trkpt lat="47.70072" lon="-2.33045">
        <ele>47.4</ele>
        <time>2021-05-27T12:29:21Z</time>
      </trkpt>
      <trkpt lat="47.70069" lon="-2.33039">
        <ele>47.5</ele>
        <time>2021-05-27T12:29:22Z</time>
      </trkpt>
      <trkpt lat="47.70067" lon="-2.33035">
        <ele>47.4</ele>
        <time>2021-05-27T12:29:23Z</time>
      </trkpt>
      <trkpt lat="47.70065" lon="-2.33029">
        <ele>47.4</ele>
        <time>2021-05-27T12:29:24Z</time>
      </trkpt>
      <trkpt lat="47.70062" lon="-2.33025">
        <ele>47.3</ele>
        <time>2021-05-27T12:29:25Z</time>
      </trkpt>
      <trkpt lat="47.7006" lon="-2.33021">
        <ele>47.2</ele>
        <time>2021-05-27T12:29:26Z</time>
      </trkpt>
      <trkpt lat="47.70059" lon="-2.33017">
        <ele>47.3</ele>
        <time>2021-05-27T12:29:27Z</time>
      </trkpt>
      <trkpt lat="47.70058" lon="-2.33012">
        <ele>47.6</ele>
        <time>2021-05-27T12:29:28Z</time>
      </trkpt>
      <trkpt lat="47.70058" lon="-2.33008">
        <ele>47.9</ele>
        <time>2021-05-27T12:29:29Z</time>
      </trkpt>
      <trkpt lat="47.70056" lon="-2.33003">
        <ele>47.9</ele>
        <time>2021-05-27T12:29:30Z</time>
      </trkpt>
      <trkpt lat="47.70057" lon="-2.32998">
        <ele>48.5</ele>
        <time>2021-05-27T12:29:31Z</time>
      </trkpt>
      <trkpt lat="47.70058" lon="-2.32993">
        <ele>49.3</ele>
        <time>2021-05-27T12:29:32Z</time>
      </trkpt>
      <trkpt lat="47.70058" lon="-2.32989">
        <ele>49.8</ele>
        <time>2021-05-27T12:29:33Z</time>
      </trkpt>
      <trkpt lat="47.70058" lon="-2.32986">
        <ele>50.1</ele>
        <time>2021-05-27T12:29:34Z</time>
      </trkpt>
      <trkpt lat="47.70058" lon="-2.32982">
        <ele>50.3</ele>
        <time>2021-05-27T12:29:35Z</time>
      </trkpt>
      <trkpt lat="47.70057" lon="-2.32979">
        <ele>50.5</ele>
        <time>2021-05-27T12:29:36Z</time>
      </trkpt>
      <trkpt lat="47.70057" lon="-2.32976">
        <ele>50.8</ele>
        <time>2021-05-27T12:29:37Z</time>
      </trkpt>
      <trkpt lat="47.70055" lon="-2.32973">
        <ele>50.8</ele>
        <time>2021-05-27T12:29:38Z</time>
      </trkpt>
      <trkpt lat="47.70055" lon="-2.3297">
        <ele>51.1</ele>
        <time>2021-05-27T12:29:39Z</time>
      </trkpt>
      <trkpt lat="47.70055" lon="-2.32966">
        <ele>51.3</ele>
        <time>2021-05-27T12:29:40Z</time>
      </trkpt>
      <trkpt lat="47.70055" lon="-2.32963">
        <ele>51.6</ele>
        <time>2021-05-27T12:29:41Z</time>
      </trkpt>
      <trkpt lat="47.70054" lon="-2.3296">
        <ele>51.8</ele>
        <time>2021-05-27T12:29:42Z</time>
      </trkpt>
      <trkpt lat="47.70052" lon="-2.32957">
        <ele>51.8</ele>
        <time>2021-05-27T12:29:43Z</time>
      </trkpt>
      <trkpt lat="47.70052" lon="-2.32955">
        <ele>52</ele>
        <time>2021-05-27T12:29:44Z</time>
      </trkpt>
      <trkpt lat="47.70052" lon="-2.32951">
        <ele>52.4</ele>
        <time>2021-05-27T12:29:45Z</time>
      </trkpt>
      <trkpt lat="47.70052" lon="-2.32948">
        <ele>52.7</ele>
        <time>2021-05-27T12:29:46Z</time>
      </trkpt>
      <trkpt lat="47.70051" lon="-2.32946">
        <ele>52.8</ele>
        <time>2021-05-27T12:29:47Z</time>
      </trkpt>
      <trkpt lat="47.70051" lon="-2.32942">
        <ele>53</ele>
        <time>2021-05-27T12:29:48Z</time>
      </trkpt>
      <trkpt lat="47.70051" lon="-2.32939">
        <ele>53.4</ele>
        <time>2021-05-27T12:29:49Z</time>
      </trkpt>
      <trkpt lat="47.7005" lon="-2.32937">
        <ele>53.5</ele>
        <time>2021-05-27T12:29:50Z</time>
      </trkpt>
      <trkpt lat="47.70049" lon="-2.32935">
        <ele>53.4</ele>
        <time>2021-05-27T12:29:51Z</time>
      </trkpt>
      <trkpt lat="47.70048" lon="-2.32933">
        <ele>53.5</ele>
        <time>2021-05-27T12:29:52Z</time>
      </trkpt>
      <trkpt lat="47.70048" lon="-2.32932">
        <ele>53.6</ele>
        <time>2021-05-27T12:29:53Z</time>
      </trkpt>
      <trkpt lat="47.70049" lon="-2.32929">
        <ele>54</ele>
        <time>2021-05-27T12:29:54Z</time>
      </trkpt>
      <trkpt lat="47.70048" lon="-2.32927">
        <ele>54.1</ele>
        <time>2021-05-27T12:29:55Z</time>
      </trkpt>
      <trkpt lat="47.70047" lon="-2.32925">
        <ele>54.2</ele>
        <time>2021-05-27T12:29:56Z</time>
      </trkpt>
      <trkpt lat="47.70047" lon="-2.32923">
        <ele>54.3</ele>
        <time>2021-05-27T12:29:57Z</time>
      </trkpt>
      <trkpt lat="47.70046" lon="-2.32921">
        <ele>54.3</ele>
        <time>2021-05-27T12:29:58Z</time>
      </trkpt>
      <trkpt lat="47.70045" lon="-2.32918">
        <ele>54.4</ele>
        <time>2021-05-27T12:29:59Z</time>
      </trkpt>
      <trkpt lat="47.70044" lon="-2.32915">
        <ele>54.6</ele>
        <time>2021-05-27T12:30:00Z</time>
      </trkpt>
      <trkpt lat="47.70045" lon="-2.32913">
        <ele>54.9</ele>
        <time>2021-05-27T12:30:01Z</time>
      </trkpt>
      <trkpt lat="47.70045" lon="-2.3291">
        <ele>55.3</ele>
        <time>2021-05-27T12:30:02Z</time>
      </trkpt>
      <trkpt lat="47.70046" lon="-2.32907">
        <ele>55.7</ele>
        <time>2021-05-27T12:30:03Z</time>
      </trkpt>
      <trkpt lat="47.70045" lon="-2.32904">
        <ele>55.9</ele>
        <time>2021-05-27T12:30:04Z</time>
      </trkpt>
      <trkpt lat="47.70045" lon="-2.32901">
        <ele>56.1</ele>
        <time>2021-05-27T12:30:05Z</time>
      </trkpt>
      <trkpt lat="47.70045" lon="-2.32898">
        <ele>56.4</ele>
        <time>2021-05-27T12:30:06Z</time>
      </trkpt>
      <trkpt lat="47.70046" lon="-2.32896">
        <ele>56.8</ele>
        <time>2021-05-27T12:30:07Z</time>
      </trkpt>
      <trkpt lat="47.70046" lon="-2.32893">
        <ele>57.2</ele>
        <time>2021-05-27T12:30:08Z</time>
      </trkpt>
      <trkpt lat="47.70046" lon="-2.32891">
        <ele>57.3</ele>
        <time>2021-05-27T12:30:09Z</time>
      </trkpt>
      <trkpt lat="47.70046" lon="-2.32889">
        <ele>57.5</ele>
        <time>2021-05-27T12:30:10Z</time>
      </trkpt>
      <trkpt lat="47.70046" lon="-2.32887">
        <ele>57.7</ele>
        <time>2021-05-27T12:30:11Z</time>
      </trkpt>
      <trkpt lat="47.70045" lon="-2.32884">
        <ele>57.8</ele>
        <time>2021-05-27T12:30:12Z</time>
      </trkpt>
      <trkpt lat="47.70044" lon="-2.32882">
        <ele>57.8</ele>
        <time>2021-05-27T12:30:13Z</time>
      </trkpt>
      <trkpt lat="47.70044" lon="-2.32879">
        <ele>58</ele>
        <time>2021-05-27T12:30:14Z</time>
      </trkpt>
      <trkpt lat="47.70043" lon="-2.32877">
        <ele>58.1</ele>
        <time>2021-05-27T12:30:15Z</time>
      </trkpt>
      <trkpt lat="47.70043" lon="-2.32874">
        <ele>58.3</ele>
        <time>2021-05-27T12:30:16Z</time>
      </trkpt>
      <trkpt lat="47.70042" lon="-2.32872">
        <ele>58.4</ele>
        <time>2021-05-27T12:30:17Z</time>
      </trkpt>
      <trkpt lat="47.70041" lon="-2.32868">
        <ele>58.6</ele>
        <time>2021-05-27T12:30:18Z</time>
      </trkpt>
      <trkpt lat="47.70041" lon="-2.32866">
        <ele>58.6</ele>
        <time>2021-05-27T12:30:19Z</time>
      </trkpt>
      <trkpt lat="47.7004" lon="-2.32864">
        <ele>58.7</ele>
        <time>2021-05-27T12:30:20Z</time>
      </trkpt>
      <trkpt lat="47.70039" lon="-2.32862">
        <ele>58.7</ele>
        <time>2021-05-27T12:30:21Z</time>
      </trkpt>
      <trkpt lat="47.70038" lon="-2.32861">
        <ele>58.8</ele>
        <time>2021-05-27T12:30:22Z</time>
      </trkpt>
      <trkpt lat="47.70038" lon="-2.32859">
        <ele>58.9</ele>
        <time>2021-05-27T12:30:23Z</time>
      </trkpt>
      <trkpt lat="47.70037" lon="-2.32857">
        <ele>58.9</ele>
        <time>2021-05-27T12:30:24Z</time>
      </trkpt>
      <trkpt lat="47.70036" lon="-2.32854">
        <ele>59</ele>
        <time>2021-05-27T12:30:25Z</time>
      </trkpt>
      <trkpt lat="47.70036" lon="-2.32851">
        <ele>59.3</ele>
        <time>2021-05-27T12:30:26Z</time>
      </trkpt>
      <trkpt lat="47.70035" lon="-2.32846">
        <ele>59.7</ele>
        <time>2021-05-27T12:30:27Z</time>
      </trkpt>
      <trkpt lat="47.70034" lon="-2.32843">
        <ele>59.7</ele>
        <time>2021-05-27T12:30:28Z</time>
      </trkpt>
      <trkpt lat="47.70033" lon="-2.3284">
        <ele>59.9</ele>
        <time>2021-05-27T12:30:29Z</time>
      </trkpt>
      <trkpt lat="47.70032" lon="-2.32838">
        <ele>59.9</ele>
        <time>2021-05-27T12:30:30Z</time>
      </trkpt>
      <trkpt lat="47.70031" lon="-2.32835">
        <ele>60</ele>
        <time>2021-05-27T12:30:31Z</time>
      </trkpt>
      <trkpt lat="47.7003" lon="-2.32833">
        <ele>60</ele>
        <time>2021-05-27T12:30:32Z</time>
      </trkpt>
      <trkpt lat="47.70029" lon="-2.32831">
        <ele>59.9</ele>
        <time>2021-05-27T12:30:33Z</time>
      </trkpt>
      <trkpt lat="47.70028" lon="-2.32829">
        <ele>59.9</ele>
        <time>2021-05-27T12:30:34Z</time>
      </trkpt>
      <trkpt lat="47.70028" lon="-2.32827">
        <ele>60</ele>
        <time>2021-05-27T12:30:35Z</time>
      </trkpt>
      <trkpt lat="47.70028" lon="-2.32824">
        <ele>60.1</ele>
        <time>2021-05-27T12:30:36Z</time>
      </trkpt>
      <trkpt lat="47.70027" lon="-2.32822">
        <ele>60.1</ele>
        <time>2021-05-27T12:30:37Z</time>
      </trkpt>
      <trkpt lat="47.70027" lon="-2.32819">
        <ele>60.1</ele>
        <time>2021-05-27T12:30:38Z</time>
      </trkpt>
      <trkpt lat="47.70026" lon="-2.32815">
        <ele>60.2</ele>
        <time>2021-05-27T12:30:39Z</time>
      </trkpt>
      <trkpt lat="47.70026" lon="-2.32812">
        <ele>60.3</ele>
        <time>2021-05-27T12:30:40Z</time>
      </trkpt>
      <trkpt lat="47.70024" lon="-2.32808">
        <ele>60.2</ele>
        <time>2021-05-27T12:30:41Z</time>
      </trkpt>
      <trkpt lat="47.70023" lon="-2.32803">
        <ele>60.2</ele>
        <time>2021-05-27T12:30:42Z</time>
      </trkpt>
      <trkpt lat="47.70022" lon="-2.32799">
        <ele>60.2</ele>
        <time>2021-05-27T12:30:43Z</time>
      </trkpt>
      <trkpt lat="47.70021" lon="-2.32796">
        <ele>60.2</ele>
        <time>2021-05-27T12:30:44Z</time>
      </trkpt>
      <trkpt lat="47.70019" lon="-2.32792">
        <ele>60.2</ele>
        <time>2021-05-27T12:30:45Z</time>
      </trkpt>
      <trkpt lat="47.70019" lon="-2.32787">
        <ele>60.3</ele>
        <time>2021-05-27T12:30:46Z</time>
      </trkpt>
      <trkpt lat="47.70019" lon="-2.32785">
        <ele>60.3</ele>
        <time>2021-05-27T12:30:47Z</time>
      </trkpt>
      <trkpt lat="47.70018" lon="-2.32783">
        <ele>60.4</ele>
        <time>2021-05-27T12:30:48Z</time>
      </trkpt>
      <trkpt lat="47.70018" lon="-2.3278">
        <ele>60.4</ele>
        <time>2021-05-27T12:30:49Z</time>
      </trkpt>
      <trkpt lat="47.70019" lon="-2.32777">
        <ele>60.6</ele>
        <time>2021-05-27T12:30:50Z</time>
      </trkpt>
      <trkpt lat="47.70018" lon="-2.32775">
        <ele>60.6</ele>
        <time>2021-05-27T12:30:51Z</time>
      </trkpt>
      <trkpt lat="47.70018" lon="-2.32772">
        <ele>60.7</ele>
        <time>2021-05-27T12:30:52Z</time>
      </trkpt>
      <trkpt lat="47.70018" lon="-2.32771">
        <ele>60.8</ele>
        <time>2021-05-27T12:30:53Z</time>
      </trkpt>
      <trkpt lat="47.70018" lon="-2.32769">
        <ele>60.9</ele>
        <time>2021-05-27T12:30:54Z</time>
      </trkpt>
      <trkpt lat="47.70016" lon="-2.32766">
        <ele>60.8</ele>
        <time>2021-05-27T12:30:55Z</time>
      </trkpt>
      <trkpt lat="47.70015" lon="-2.32763">
        <ele>60.8</ele>
        <time>2021-05-27T12:30:56Z</time>
      </trkpt>
      <trkpt lat="47.70015" lon="-2.32761">
        <ele>60.8</ele>
        <time>2021-05-27T12:30:57Z</time>
      </trkpt>
      <trkpt lat="47.70015" lon="-2.32761">
        <ele>60.8</ele>
        <time>2021-05-27T12:30:58Z</time>
      </trkpt>
      <trkpt lat="47.70014" lon="-2.3276">
        <ele>60.7</ele>
        <time>2021-05-27T12:30:59Z</time>
      </trkpt>
      <trkpt lat="47.70014" lon="-2.3276">
        <ele>60.7</ele>
        <time>2021-05-27T12:31:00Z</time>
      </trkpt>
      <trkpt lat="47.70014" lon="-2.3276">
        <ele>60.7</ele>
        <time>2021-05-27T12:31:01Z</time>
      </trkpt>
      <trkpt lat="47.70014" lon="-2.3276">
        <ele>60.7</ele>
        <time>2021-05-27T12:31:02Z</time>
      </trkpt>
      <trkpt lat="47.70014" lon="-2.3276">
        <ele>60.7</ele>
        <time>2021-05-27T12:31:03Z</time>
      </trkpt>
      <trkpt lat="47.70014" lon="-2.3276">
        <ele>60.7</ele>
        <time>2021-05-27T12:31:04Z</time>
      </trkpt>
      <trkpt lat="47.70014" lon="-2.3276">
        <ele>60.7</ele>
        <time>2021-05-27T12:31:05Z</time>
      </trkpt>
      <trkpt lat="47.70014" lon="-2.3276">
        <ele>60.7</ele>
        <time>2021-05-27T12:31:06Z</time>
      </trkpt>
      <trkpt lat="47.70014" lon="-2.3276">
        <ele>60.7</ele>
        <time>2021-05-27T12:31:07Z</time>
      </trkpt>
      <trkpt lat="47.70014" lon="-2.3276">
        <ele>60.7</ele>
        <time>2021-05-27T12:31:08Z</time>
      </trkpt>
      <trkpt lat="47.70014" lon="-2.3276">
        <ele>60.7</ele>
        <time>2021-05-27T12:31:09Z</time>
      </trkpt>
      <trkpt lat="47.70014" lon="-2.3276">
        <ele>60.7</ele>
        <time>2021-05-27T12:31:10Z</time>
      </trkpt>
      <trkpt lat="47.70014" lon="-2.3276">
        <ele>60.7</ele>
        <time>2021-05-27T12:31:11Z</time>
      </trkpt>
      <trkpt lat="47.70014" lon="-2.3276">
        <ele>60.7</ele>
        <time>2021-05-27T12:31:12Z</time>
      </trkpt>
      <trkpt lat="47.70014" lon="-2.3276">
        <ele>60.7</ele>
        <time>2021-05-27T12:31:13Z</time>
      </trkpt>
      <trkpt lat="47.70014" lon="-2.3276">
        <ele>60.7</ele>
        <time>2021-05-27T12:31:14Z</time>
      </trkpt>
      <trkpt lat="47.70014" lon="-2.3276">
        <ele>60.7</ele>
        <time>2021-05-27T12:31:15Z</time>
      </trkpt>
      <trkpt lat="47.70012" lon="-2.32748">
        <ele>60.9</ele>
        <time>2021-05-27T12:31:16Z</time>
      </trkpt>
      <trkpt lat="47.70012" lon="-2.32744">
        <ele>61.1</ele>
        <time>2021-05-27T12:31:17Z</time>
      </trkpt>
      <trkpt lat="47.70012" lon="-2.32741">
        <ele>61.3</ele>
        <time>2021-05-27T12:31:18Z</time>
      </trkpt>
      <trkpt lat="47.70012" lon="-2.32739">
        <ele>61.3</ele>
        <time>2021-05-27T12:31:19Z</time>
      </trkpt>
      <trkpt lat="47.70011" lon="-2.32735">
        <ele>61.5</ele>
        <time>2021-05-27T12:31:20Z</time>
      </trkpt>
      <trkpt lat="47.70011" lon="-2.32734">
        <ele>61.5</ele>
        <time>2021-05-27T12:31:21Z</time>
      </trkpt>
      <trkpt lat="47.70012" lon="-2.32734">
        <ele>61.6</ele>
        <time>2021-05-27T12:31:22Z</time>
      </trkpt>
      <trkpt lat="47.70012" lon="-2.32734">
        <ele>61.6</ele>
        <time>2021-05-27T12:31:23Z</time>
      </trkpt>
      <trkpt lat="47.70012" lon="-2.32734">
        <ele>61.6</ele>
        <time>2021-05-27T12:31:24Z</time>
      </trkpt>
      <trkpt lat="47.70012" lon="-2.32734">
        <ele>61.6</ele>
        <time>2021-05-27T12:31:25Z</time>
      </trkpt>
      <trkpt lat="47.70012" lon="-2.32734">
        <ele>61.6</ele>
        <time>2021-05-27T12:31:26Z</time>
      </trkpt>
      <trkpt lat="47.70012" lon="-2.32734">
        <ele>61.6</ele>
        <time>2021-05-27T12:31:27Z</time>
      </trkpt>
      <trkpt lat="47.70012" lon="-2.32734">
        <ele>61.6</ele>
        <time>2021-05-27T12:31:28Z</time>
      </trkpt>
      <trkpt lat="47.70012" lon="-2.32734">
        <ele>61.6</ele>
        <time>2021-05-27T12:31:29Z</time>
      </trkpt>
      <trkpt lat="47.70012" lon="-2.32734">
        <ele>61.6</ele>
        <time>2021-05-27T12:31:30Z</time>
      </trkpt>
      <trkpt lat="47.70012" lon="-2.32734">
        <ele>61.6</ele>
        <time>2021-05-27T12:31:31Z</time>
      </trkpt>
      <trkpt lat="47.70012" lon="-2.32734">
        <ele>61.6</ele>
        <time>2021-05-27T12:31:32Z</time>
      </trkpt>
      <trkpt lat="47.70012" lon="-2.32734">
        <ele>61.6</ele>
        <time>2021-05-27T12:31:33Z</time>
      </trkpt>
      <trkpt lat="47.70012" lon="-2.32734">
        <ele>61.6</ele>
        <time>2021-05-27T12:31:34Z</time>
      </trkpt>
      <trkpt lat="47.70012" lon="-2.32734">
        <ele>61.6</ele>
        <time>2021-05-27T12:31:35Z</time>
      </trkpt>
      <trkpt lat="47.70012" lon="-2.32734">
        <ele>61.6</ele>
        <time>2021-05-27T12:31:36Z</time>
      </trkpt>
      <trkpt lat="47.70012" lon="-2.32734">
        <ele>61.6</ele>
        <time>2021-05-27T12:31:37Z</time>
      </trkpt>
      <trkpt lat="47.70012" lon="-2.32734">
        <ele>61.6</ele>
        <time>2021-05-27T12:31:38Z</time>
      </trkpt>
      <trkpt lat="47.70012" lon="-2.32734">
        <ele>61.6</ele>
        <time>2021-05-27T12:31:39Z</time>
      </trkpt>
      <trkpt lat="47.70012" lon="-2.32734">
        <ele>61.6</ele>
        <time>2021-05-27T12:31:40Z</time>
      </trkpt>
      <trkpt lat="47.7001" lon="-2.3272">
        <ele>62</ele>
        <time>2021-05-27T12:31:41Z</time>
      </trkpt>
      <trkpt lat="47.7001" lon="-2.32719">
        <ele>62</ele>
        <time>2021-05-27T12:31:42Z</time>
      </trkpt>
      <trkpt lat="47.7001" lon="-2.32718">
        <ele>62.1</ele>
        <time>2021-05-27T12:31:43Z</time>
      </trkpt>
      <trkpt lat="47.7001" lon="-2.32717">
        <ele>62.1</ele>
        <time>2021-05-27T12:31:44Z</time>
      </trkpt>
      <trkpt lat="47.7001" lon="-2.32717">
        <ele>62.1</ele>
        <time>2021-05-27T12:31:45Z</time>
      </trkpt>
      <trkpt lat="47.7001" lon="-2.32717">
        <ele>62.1</ele>
        <time>2021-05-27T12:31:46Z</time>
      </trkpt>
      <trkpt lat="47.7001" lon="-2.32717">
        <ele>62.1</ele>
        <time>2021-05-27T12:31:47Z</time>
      </trkpt>
      <trkpt lat="47.7001" lon="-2.32717">
        <ele>62.1</ele>
        <time>2021-05-27T12:31:48Z</time>
      </trkpt>
      <trkpt lat="47.7001" lon="-2.32717">
        <ele>62.1</ele>
        <time>2021-05-27T12:31:49Z</time>
      </trkpt>
      <trkpt lat="47.7001" lon="-2.32717">
        <ele>62.1</ele>
        <time>2021-05-27T12:31:50Z</time>
      </trkpt>
      <trkpt lat="47.7001" lon="-2.32717">
        <ele>62.1</ele>
        <time>2021-05-27T12:31:51Z</time>
      </trkpt>
      <trkpt lat="47.7001" lon="-2.32717">
        <ele>62.1</ele>
        <time>2021-05-27T12:31:52Z</time>
      </trkpt>
      <trkpt lat="47.7001" lon="-2.32717">
        <ele>62.1</ele>
        <time>2021-05-27T12:31:53Z</time>
      </trkpt>
      <trkpt lat="47.7001" lon="-2.32717">
        <ele>62.1</ele>
        <time>2021-05-27T12:31:54Z</time>
      </trkpt>
      <trkpt lat="47.70007" lon="-2.32703">
        <ele>62.4</ele>
        <time>2021-05-27T12:31:55Z</time>
      </trkpt>
      <trkpt lat="47.70007" lon="-2.32702">
        <ele>62.3</ele>
        <time>2021-05-27T12:31:56Z</time>
      </trkpt>
      <trkpt lat="47.70007" lon="-2.32701">
        <ele>62.4</ele>
        <time>2021-05-27T12:31:57Z</time>
      </trkpt>
      <trkpt lat="47.70006" lon="-2.32699">
        <ele>62.5</ele>
        <time>2021-05-27T12:31:58Z</time>
      </trkpt>
      <trkpt lat="47.70006" lon="-2.32697">
        <ele>62.5</ele>
        <time>2021-05-27T12:31:59Z</time>
      </trkpt>
      <trkpt lat="47.70006" lon="-2.32694">
        <ele>62.5</ele>
        <time>2021-05-27T12:32:00Z</time>
      </trkpt>
      <trkpt lat="47.70005" lon="-2.32691">
        <ele>62.6</ele>
        <time>2021-05-27T12:32:01Z</time>
      </trkpt>
      <trkpt lat="47.70003" lon="-2.32688">
        <ele>62.5</ele>
        <time>2021-05-27T12:32:02Z</time>
      </trkpt>
      <trkpt lat="47.70003" lon="-2.32685">
        <ele>62.5</ele>
        <time>2021-05-27T12:32:03Z</time>
      </trkpt>
      <trkpt lat="47.70002" lon="-2.32682">
        <ele>62.6</ele>
        <time>2021-05-27T12:32:04Z</time>
      </trkpt>
      <trkpt lat="47.70002" lon="-2.32678">
        <ele>62.7</ele>
        <time>2021-05-27T12:32:05Z</time>
      </trkpt>
      <trkpt lat="47.70001" lon="-2.32675">
        <ele>62.7</ele>
        <time>2021-05-27T12:32:06Z</time>
      </trkpt>
      <trkpt lat="47.7" lon="-2.32671">
        <ele>62.8</ele>
        <time>2021-05-27T12:32:07Z</time>
      </trkpt>
      <trkpt lat="47.69999" lon="-2.32668">
        <ele>62.8</ele>
        <time>2021-05-27T12:32:08Z</time>
      </trkpt>
      <trkpt lat="47.69998" lon="-2.32663">
        <ele>62.7</ele>
        <time>2021-05-27T12:32:09Z</time>
      </trkpt>
      <trkpt lat="47.69997" lon="-2.32659">
        <ele>62.7</ele>
        <time>2021-05-27T12:32:10Z</time>
      </trkpt>
      <trkpt lat="47.69996" lon="-2.32655">
        <ele>62.5</ele>
        <time>2021-05-27T12:32:11Z</time>
      </trkpt>
      <trkpt lat="47.69995" lon="-2.32653">
        <ele>62.4</ele>
        <time>2021-05-27T12:32:12Z</time>
      </trkpt>
      <trkpt lat="47.69995" lon="-2.32653">
        <ele>62.6</ele>
        <time>2021-05-27T12:32:13Z</time>
      </trkpt>
      <trkpt lat="47.69995" lon="-2.32653">
        <ele>62.6</ele>
        <time>2021-05-27T12:32:14Z</time>
      </trkpt>
      <trkpt lat="47.69995" lon="-2.32653">
        <ele>62.5</ele>
        <time>2021-05-27T12:32:15Z</time>
      </trkpt>
      <trkpt lat="47.69995" lon="-2.32653">
        <ele>62.5</ele>
        <time>2021-05-27T12:32:16Z</time>
      </trkpt>
      <trkpt lat="47.69995" lon="-2.32653">
        <ele>62.5</ele>
        <time>2021-05-27T12:32:17Z</time>
      </trkpt>
      <trkpt lat="47.69995" lon="-2.32653">
        <ele>62.5</ele>
        <time>2021-05-27T12:32:18Z</time>
      </trkpt>
      <trkpt lat="47.69995" lon="-2.32653">
        <ele>62.5</ele>
        <time>2021-05-27T12:32:19Z</time>
      </trkpt>
      <trkpt lat="47.69995" lon="-2.32653">
        <ele>62.5</ele>
        <time>2021-05-27T12:32:20Z</time>
      </trkpt>
      <trkpt lat="47.69995" lon="-2.32653">
        <ele>62.5</ele>
        <time>2021-05-27T12:32:21Z</time>
      </trkpt>
      <trkpt lat="47.69993" lon="-2.32647">
        <ele>62.3</ele>
        <time>2021-05-27T12:32:22Z</time>
      </trkpt>
      <trkpt lat="47.69992" lon="-2.32643">
        <ele>62.3</ele>
        <time>2021-05-27T12:32:23Z</time>
      </trkpt>
      <trkpt lat="47.69991" lon="-2.32639">
        <ele>62.3</ele>
        <time>2021-05-27T12:32:24Z</time>
      </trkpt>
      <trkpt lat="47.69989" lon="-2.32634">
        <ele>62.2</ele>
        <time>2021-05-27T12:32:25Z</time>
      </trkpt>
      <trkpt lat="47.69989" lon="-2.32629">
        <ele>62.3</ele>
        <time>2021-05-27T12:32:26Z</time>
      </trkpt>
      <trkpt lat="47.69988" lon="-2.32624">
        <ele>62.3</ele>
        <time>2021-05-27T12:32:27Z</time>
      </trkpt>
      <trkpt lat="47.69987" lon="-2.32619">
        <ele>62.3</ele>
        <time>2021-05-27T12:32:28Z</time>
      </trkpt>
      <trkpt lat="47.69985" lon="-2.32614">
        <ele>62.2</ele>
        <time>2021-05-27T12:32:29Z</time>
      </trkpt>
      <trkpt lat="47.69983" lon="-2.32608">
        <ele>62</ele>
        <time>2021-05-27T12:32:30Z</time>
      </trkpt>
      <trkpt lat="47.69982" lon="-2.32603">
        <ele>62.1</ele>
        <time>2021-05-27T12:32:31Z</time>
      </trkpt>
      <trkpt lat="47.69981" lon="-2.32598">
        <ele>62.1</ele>
        <time>2021-05-27T12:32:32Z</time>
      </trkpt>
      <trkpt lat="47.6998" lon="-2.32593">
        <ele>62.1</ele>
        <time>2021-05-27T12:32:33Z</time>
      </trkpt>
      <trkpt lat="47.69979" lon="-2.32588">
        <ele>62.1</ele>
        <time>2021-05-27T12:32:34Z</time>
      </trkpt>
      <trkpt lat="47.69978" lon="-2.32582">
        <ele>62</ele>
        <time>2021-05-27T12:32:35Z</time>
      </trkpt>
      <trkpt lat="47.69976" lon="-2.32577">
        <ele>61.8</ele>
        <time>2021-05-27T12:32:36Z</time>
      </trkpt>
      <trkpt lat="47.69975" lon="-2.32572">
        <ele>61.7</ele>
        <time>2021-05-27T12:32:37Z</time>
      </trkpt>
      <trkpt lat="47.69974" lon="-2.32568">
        <ele>61.5</ele>
        <time>2021-05-27T12:32:38Z</time>
      </trkpt>
      <trkpt lat="47.69973" lon="-2.32563">
        <ele>61.4</ele>
        <time>2021-05-27T12:32:39Z</time>
      </trkpt>
      <trkpt lat="47.69973" lon="-2.32558">
        <ele>61.4</ele>
        <time>2021-05-27T12:32:40Z</time>
      </trkpt>
      <trkpt lat="47.69972" lon="-2.32552">
        <ele>61.2</ele>
        <time>2021-05-27T12:32:41Z</time>
      </trkpt>
      <trkpt lat="47.6997" lon="-2.32547">
        <ele>61.1</ele>
        <time>2021-05-27T12:32:42Z</time>
      </trkpt>
      <trkpt lat="47.69969" lon="-2.32542">
        <ele>61</ele>
        <time>2021-05-27T12:32:43Z</time>
      </trkpt>
      <trkpt lat="47.69968" lon="-2.32538">
        <ele>60.8</ele>
        <time>2021-05-27T12:32:44Z</time>
      </trkpt>
      <trkpt lat="47.69968" lon="-2.32534">
        <ele>60.8</ele>
        <time>2021-05-27T12:32:45Z</time>
      </trkpt>
      <trkpt lat="47.69967" lon="-2.3253">
        <ele>60.7</ele>
        <time>2021-05-27T12:32:46Z</time>
      </trkpt>
      <trkpt lat="47.69966" lon="-2.32524">
        <ele>60.7</ele>
        <time>2021-05-27T12:32:47Z</time>
      </trkpt>
      <trkpt lat="47.69966" lon="-2.32519">
        <ele>60.7</ele>
        <time>2021-05-27T12:32:48Z</time>
      </trkpt>
      <trkpt lat="47.69966" lon="-2.32514">
        <ele>60.8</ele>
        <time>2021-05-27T12:32:49Z</time>
      </trkpt>
      <trkpt lat="47.69967" lon="-2.32508">
        <ele>60.9</ele>
        <time>2021-05-27T12:32:50Z</time>
      </trkpt>
      <trkpt lat="47.69968" lon="-2.32502">
        <ele>61.2</ele>
        <time>2021-05-27T12:32:51Z</time>
      </trkpt>
      <trkpt lat="47.69969" lon="-2.32497">
        <ele>61.2</ele>
        <time>2021-05-27T12:32:52Z</time>
      </trkpt>
      <trkpt lat="47.69969" lon="-2.32492">
        <ele>61.2</ele>
        <time>2021-05-27T12:32:53Z</time>
      </trkpt>
      <trkpt lat="47.69969" lon="-2.32487">
        <ele>61.2</ele>
        <time>2021-05-27T12:32:54Z</time>
      </trkpt>
      <trkpt lat="47.6997" lon="-2.32481">
        <ele>61.1</ele>
        <time>2021-05-27T12:32:55Z</time>
      </trkpt>
      <trkpt lat="47.6997" lon="-2.32476">
        <ele>61</ele>
        <time>2021-05-27T12:32:56Z</time>
      </trkpt>
      <trkpt lat="47.69969" lon="-2.32471">
        <ele>60.7</ele>
        <time>2021-05-27T12:32:57Z</time>
      </trkpt>
      <trkpt lat="47.6997" lon="-2.32466">
        <ele>60.7</ele>
        <time>2021-05-27T12:32:58Z</time>
      </trkpt>
      <trkpt lat="47.6997" lon="-2.32462">
        <ele>60.8</ele>
        <time>2021-05-27T12:32:59Z</time>
      </trkpt>
      <trkpt lat="47.69972" lon="-2.32459">
        <ele>61</ele>
        <time>2021-05-27T12:33:00Z</time>
      </trkpt>
      <trkpt lat="47.69974" lon="-2.32457">
        <ele>61.2</ele>
        <time>2021-05-27T12:33:01Z</time>
      </trkpt>
      <trkpt lat="47.69975" lon="-2.32454">
        <ele>61.4</ele>
        <time>2021-05-27T12:33:02Z</time>
      </trkpt>
      <trkpt lat="47.69976" lon="-2.32451">
        <ele>61.6</ele>
        <time>2021-05-27T12:33:03Z</time>
      </trkpt>
      <trkpt lat="47.69977" lon="-2.3245">
        <ele>61.7</ele>
        <time>2021-05-27T12:33:04Z</time>
      </trkpt>
      <trkpt lat="47.69979" lon="-2.32448">
        <ele>61.9</ele>
        <time>2021-05-27T12:33:05Z</time>
      </trkpt>
      <trkpt lat="47.6998" lon="-2.32445">
        <ele>62.1</ele>
        <time>2021-05-27T12:33:06Z</time>
      </trkpt>
      <trkpt lat="47.69982" lon="-2.32443">
        <ele>62.3</ele>
        <time>2021-05-27T12:33:07Z</time>
      </trkpt>
      <trkpt lat="47.69983" lon="-2.32442">
        <ele>62.5</ele>
        <time>2021-05-27T12:33:08Z</time>
      </trkpt>
      <trkpt lat="47.69983" lon="-2.32442">
        <ele>62.5</ele>
        <time>2021-05-27T12:33:09Z</time>
      </trkpt>
      <trkpt lat="47.69983" lon="-2.32441">
        <ele>62.4</ele>
        <time>2021-05-27T12:33:10Z</time>
      </trkpt>
      <trkpt lat="47.69983" lon="-2.32441">
        <ele>62.4</ele>
        <time>2021-05-27T12:33:11Z</time>
      </trkpt>
      <trkpt lat="47.69983" lon="-2.32441">
        <ele>62.4</ele>
        <time>2021-05-27T12:33:12Z</time>
      </trkpt>
      <trkpt lat="47.69983" lon="-2.32441">
        <ele>62.4</ele>
        <time>2021-05-27T12:33:13Z</time>
      </trkpt>
      <trkpt lat="47.69983" lon="-2.32441">
        <ele>62.4</ele>
        <time>2021-05-27T12:33:14Z</time>
      </trkpt>
      <trkpt lat="47.69983" lon="-2.32441">
        <ele>62.4</ele>
        <time>2021-05-27T12:33:15Z</time>
      </trkpt>
      <trkpt lat="47.69983" lon="-2.32441">
        <ele>62.4</ele>
        <time>2021-05-27T12:33:16Z</time>
      </trkpt>
      <trkpt lat="47.69983" lon="-2.32441">
        <ele>62.4</ele>
        <time>2021-05-27T12:33:17Z</time>
      </trkpt>
      <trkpt lat="47.69983" lon="-2.32441">
        <ele>62.4</ele>
        <time>2021-05-27T12:33:18Z</time>
      </trkpt>
      <trkpt lat="47.69983" lon="-2.32441">
        <ele>62.4</ele>
        <time>2021-05-27T12:33:19Z</time>
      </trkpt>
      <trkpt lat="47.69983" lon="-2.32441">
        <ele>62.4</ele>
        <time>2021-05-27T12:33:20Z</time>
      </trkpt>
      <trkpt lat="47.69983" lon="-2.32441">
        <ele>62.4</ele>
        <time>2021-05-27T12:33:21Z</time>
      </trkpt>
      <trkpt lat="47.69983" lon="-2.32441">
        <ele>62.4</ele>
        <time>2021-05-27T12:33:22Z</time>
      </trkpt>
      <trkpt lat="47.69983" lon="-2.32441">
        <ele>62.4</ele>
        <time>2021-05-27T12:33:23Z</time>
      </trkpt>
      <trkpt lat="47.69983" lon="-2.32441">
        <ele>62.4</ele>
        <time>2021-05-27T12:33:24Z</time>
      </trkpt>
      <trkpt lat="47.69983" lon="-2.32441">
        <ele>62.4</ele>
        <time>2021-05-27T12:33:25Z</time>
      </trkpt>
      <trkpt lat="47.69983" lon="-2.32441">
        <ele>62.4</ele>
        <time>2021-05-27T12:33:26Z</time>
      </trkpt>
      <trkpt lat="47.69983" lon="-2.32441">
        <ele>62.4</ele>
        <time>2021-05-27T12:33:27Z</time>
      </trkpt>
      <trkpt lat="47.69983" lon="-2.32441">
        <ele>62.4</ele>
        <time>2021-05-27T12:33:28Z</time>
      </trkpt>
      <trkpt lat="47.69989" lon="-2.32431">
        <ele>63.4</ele>
        <time>2021-05-27T12:33:29Z</time>
      </trkpt>
      <trkpt lat="47.6999" lon="-2.32429">
        <ele>63.6</ele>
        <time>2021-05-27T12:33:30Z</time>
      </trkpt>
      <trkpt lat="47.69992" lon="-2.32428">
        <ele>63.8</ele>
        <time>2021-05-27T12:33:31Z</time>
      </trkpt>
      <trkpt lat="47.69993" lon="-2.32426">
        <ele>63.9</ele>
        <time>2021-05-27T12:33:32Z</time>
      </trkpt>
      <trkpt lat="47.69994" lon="-2.32424">
        <ele>64.1</ele>
        <time>2021-05-27T12:33:33Z</time>
      </trkpt>
      <trkpt lat="47.69995" lon="-2.32422">
        <ele>64.2</ele>
        <time>2021-05-27T12:33:34Z</time>
      </trkpt>
      <trkpt lat="47.69996" lon="-2.32419">
        <ele>64.3</ele>
        <time>2021-05-27T12:33:35Z</time>
      </trkpt>
      <trkpt lat="47.69996" lon="-2.32417">
        <ele>64.4</ele>
        <time>2021-05-27T12:33:36Z</time>
      </trkpt>
      <trkpt lat="47.69998" lon="-2.32414">
        <ele>64.5</ele>
        <time>2021-05-27T12:33:37Z</time>
      </trkpt>
      <trkpt lat="47.69999" lon="-2.32411">
        <ele>64.7</ele>
        <time>2021-05-27T12:33:38Z</time>
      </trkpt>
      <trkpt lat="47.70001" lon="-2.32407">
        <ele>64.9</ele>
        <time>2021-05-27T12:33:39Z</time>
      </trkpt>
      <trkpt lat="47.70002" lon="-2.32404">
        <ele>64.9</ele>
        <time>2021-05-27T12:33:40Z</time>
      </trkpt>
      <trkpt lat="47.70003" lon="-2.32401">
        <ele>65</ele>
        <time>2021-05-27T12:33:41Z</time>
      </trkpt>
      <trkpt lat="47.70004" lon="-2.32397">
        <ele>65.1</ele>
        <time>2021-05-27T12:33:42Z</time>
      </trkpt>
      <trkpt lat="47.70005" lon="-2.32394">
        <ele>65.1</ele>
        <time>2021-05-27T12:33:43Z</time>
      </trkpt>
      <trkpt lat="47.70006" lon="-2.32391">
        <ele>65.2</ele>
        <time>2021-05-27T12:33:44Z</time>
      </trkpt>
      <trkpt lat="47.70007" lon="-2.32388">
        <ele>65.3</ele>
        <time>2021-05-27T12:33:45Z</time>
      </trkpt>
      <trkpt lat="47.70009" lon="-2.32384">
        <ele>65.4</ele>
        <time>2021-05-27T12:33:46Z</time>
      </trkpt>
      <trkpt lat="47.7001" lon="-2.3238">
        <ele>65.5</ele>
        <time>2021-05-27T12:33:47Z</time>
      </trkpt>
      <trkpt lat="47.70011" lon="-2.32377">
        <ele>65.5</ele>
        <time>2021-05-27T12:33:48Z</time>
      </trkpt>
      <trkpt lat="47.70012" lon="-2.32374">
        <ele>65.6</ele>
        <time>2021-05-27T12:33:49Z</time>
      </trkpt>
      <trkpt lat="47.70013" lon="-2.32371">
        <ele>65.8</ele>
        <time>2021-05-27T12:33:50Z</time>
      </trkpt>
      <trkpt lat="47.70015" lon="-2.32367">
        <ele>65.9</ele>
        <time>2021-05-27T12:33:51Z</time>
      </trkpt>
      <trkpt lat="47.70017" lon="-2.32364">
        <ele>66.1</ele>
        <time>2021-05-27T12:33:52Z</time>
      </trkpt>
      <trkpt lat="47.70018" lon="-2.32361">
        <ele>66.2</ele>
        <time>2021-05-27T12:33:53Z</time>
      </trkpt>
      <trkpt lat="47.70019" lon="-2.32358">
        <ele>66.3</ele>
        <time>2021-05-27T12:33:54Z</time>
      </trkpt>
      <trkpt lat="47.70022" lon="-2.32356">
        <ele>66.6</ele>
        <time>2021-05-27T12:33:55Z</time>
      </trkpt>
      <trkpt lat="47.70024" lon="-2.32352">
        <ele>66.8</ele>
        <time>2021-05-27T12:33:56Z</time>
      </trkpt>
      <trkpt lat="47.70025" lon="-2.3235">
        <ele>67</ele>
        <time>2021-05-27T12:33:57Z</time>
      </trkpt>
      <trkpt lat="47.70027" lon="-2.32347">
        <ele>67.1</ele>
        <time>2021-05-27T12:33:58Z</time>
      </trkpt>
      <trkpt lat="47.70028" lon="-2.32344">
        <ele>67.3</ele>
        <time>2021-05-27T12:33:59Z</time>
      </trkpt>
      <trkpt lat="47.7003" lon="-2.32342">
        <ele>67.4</ele>
        <time>2021-05-27T12:34:00Z</time>
      </trkpt>
      <trkpt lat="47.70031" lon="-2.32339">
        <ele>67.5</ele>
        <time>2021-05-27T12:34:01Z</time>
      </trkpt>
      <trkpt lat="47.70032" lon="-2.32336">
        <ele>67.7</ele>
        <time>2021-05-27T12:34:02Z</time>
      </trkpt>
      <trkpt lat="47.70033" lon="-2.32334">
        <ele>67.8</ele>
        <time>2021-05-27T12:34:03Z</time>
      </trkpt>
      <trkpt lat="47.70035" lon="-2.32331">
        <ele>68.1</ele>
        <time>2021-05-27T12:34:04Z</time>
      </trkpt>
      <trkpt lat="47.70037" lon="-2.32329">
        <ele>68.3</ele>
        <time>2021-05-27T12:34:05Z</time>
      </trkpt>
      <trkpt lat="47.70039" lon="-2.32327">
        <ele>68.6</ele>
        <time>2021-05-27T12:34:06Z</time>
      </trkpt>
      <trkpt lat="47.7004" lon="-2.32326">
        <ele>68.7</ele>
        <time>2021-05-27T12:34:07Z</time>
      </trkpt>
      <trkpt lat="47.70041" lon="-2.32324">
        <ele>68.8</ele>
        <time>2021-05-27T12:34:08Z</time>
      </trkpt>
      <trkpt lat="47.70042" lon="-2.32322">
        <ele>69</ele>
        <time>2021-05-27T12:34:09Z</time>
      </trkpt>
      <trkpt lat="47.70043" lon="-2.32321">
        <ele>69.1</ele>
        <time>2021-05-27T12:34:10Z</time>
      </trkpt>
      <trkpt lat="47.70043" lon="-2.32321">
        <ele>69.1</ele>
        <time>2021-05-27T12:34:11Z</time>
      </trkpt>
      <trkpt lat="47.70043" lon="-2.32321">
        <ele>69.2</ele>
        <time>2021-05-27T12:34:12Z</time>
      </trkpt>
      <trkpt lat="47.70043" lon="-2.32321">
        <ele>69.2</ele>
        <time>2021-05-27T12:34:13Z</time>
      </trkpt>
      <trkpt lat="47.70043" lon="-2.32321">
        <ele>69.2</ele>
        <time>2021-05-27T12:34:14Z</time>
      </trkpt>
      <trkpt lat="47.70043" lon="-2.32321">
        <ele>69.2</ele>
        <time>2021-05-27T12:34:15Z</time>
      </trkpt>
      <trkpt lat="47.70043" lon="-2.32321">
        <ele>69.2</ele>
        <time>2021-05-27T12:34:16Z</time>
      </trkpt>
      <trkpt lat="47.70043" lon="-2.32321">
        <ele>69.2</ele>
        <time>2021-05-27T12:34:17Z</time>
      </trkpt>
      <trkpt lat="47.70043" lon="-2.32321">
        <ele>69.2</ele>
        <time>2021-05-27T12:34:18Z</time>
      </trkpt>
      <trkpt lat="47.70045" lon="-2.32321">
        <ele>69.4</ele>
        <time>2021-05-27T12:34:19Z</time>
      </trkpt>
      <trkpt lat="47.70046" lon="-2.32322">
        <ele>69.5</ele>
        <time>2021-05-27T12:34:20Z</time>
      </trkpt>
      <trkpt lat="47.70047" lon="-2.32324">
        <ele>69.8</ele>
        <time>2021-05-27T12:34:21Z</time>
      </trkpt>
      <trkpt lat="47.70049" lon="-2.32325">
        <ele>70</ele>
        <time>2021-05-27T12:34:22Z</time>
      </trkpt>
      <trkpt lat="47.70052" lon="-2.32326">
        <ele>70.4</ele>
        <time>2021-05-27T12:34:23Z</time>
      </trkpt>
      <trkpt lat="47.70054" lon="-2.32327">
        <ele>70.8</ele>
        <time>2021-05-27T12:34:24Z</time>
      </trkpt>
      <trkpt lat="47.70057" lon="-2.32327">
        <ele>71.2</ele>
        <time>2021-05-27T12:34:25Z</time>
      </trkpt>
      <trkpt lat="47.70059" lon="-2.32327">
        <ele>71.5</ele>
        <time>2021-05-27T12:34:26Z</time>
      </trkpt>
      <trkpt lat="47.70062" lon="-2.32327">
        <ele>71.8</ele>
        <time>2021-05-27T12:34:27Z</time>
      </trkpt>
      <trkpt lat="47.70064" lon="-2.32328">
        <ele>72.2</ele>
        <time>2021-05-27T12:34:28Z</time>
      </trkpt>
      <trkpt lat="47.70066" lon="-2.32329">
        <ele>72.5</ele>
        <time>2021-05-27T12:34:29Z</time>
      </trkpt>
      <trkpt lat="47.70069" lon="-2.32329">
        <ele>72.9</ele>
        <time>2021-05-27T12:34:30Z</time>
      </trkpt>
      <trkpt lat="47.70071" lon="-2.3233">
        <ele>73.2</ele>
        <time>2021-05-27T12:34:31Z</time>
      </trkpt>
      <trkpt lat="47.70074" lon="-2.32332">
        <ele>73.6</ele>
        <time>2021-05-27T12:34:32Z</time>
      </trkpt>
      <trkpt lat="47.70075" lon="-2.32333">
        <ele>73.8</ele>
        <time>2021-05-27T12:34:33Z</time>
      </trkpt>
      <trkpt lat="47.70077" lon="-2.32335">
        <ele>74.1</ele>
        <time>2021-05-27T12:34:34Z</time>
      </trkpt>
      <trkpt lat="47.70079" lon="-2.32336">
        <ele>74.4</ele>
        <time>2021-05-27T12:34:35Z</time>
      </trkpt>
      <trkpt lat="47.70082" lon="-2.32338">
        <ele>74.8</ele>
        <time>2021-05-27T12:34:36Z</time>
      </trkpt>
      <trkpt lat="47.70085" lon="-2.32339">
        <ele>75.1</ele>
        <time>2021-05-27T12:34:37Z</time>
      </trkpt>
      <trkpt lat="47.70087" lon="-2.32342">
        <ele>75.2</ele>
        <time>2021-05-27T12:34:38Z</time>
      </trkpt>
      <trkpt lat="47.70089" lon="-2.32344">
        <ele>75.3</ele>
        <time>2021-05-27T12:34:39Z</time>
      </trkpt>
      <trkpt lat="47.70092" lon="-2.32346">
        <ele>75.3</ele>
        <time>2021-05-27T12:34:40Z</time>
      </trkpt>
      <trkpt lat="47.70096" lon="-2.32347">
        <ele>75.4</ele>
        <time>2021-05-27T12:34:41Z</time>
      </trkpt>
      <trkpt lat="47.70099" lon="-2.32349">
        <ele>75.5</ele>
        <time>2021-05-27T12:34:42Z</time>
      </trkpt>
      <trkpt lat="47.70102" lon="-2.32351">
        <ele>75.6</ele>
        <time>2021-05-27T12:34:43Z</time>
      </trkpt>
      <trkpt lat="47.70105" lon="-2.32352">
        <ele>75.7</ele>
        <time>2021-05-27T12:34:44Z</time>
      </trkpt>
      <trkpt lat="47.70108" lon="-2.32354">
        <ele>75.8</ele>
        <time>2021-05-27T12:34:45Z</time>
      </trkpt>
      <trkpt lat="47.7011" lon="-2.32356">
        <ele>75.8</ele>
        <time>2021-05-27T12:34:46Z</time>
      </trkpt>
      <trkpt lat="47.70111" lon="-2.32359">
        <ele>75.9</ele>
        <time>2021-05-27T12:34:47Z</time>
      </trkpt>
      <trkpt lat="47.70113" lon="-2.32361">
        <ele>75.9</ele>
        <time>2021-05-27T12:34:48Z</time>
      </trkpt>
      <trkpt lat="47.70114" lon="-2.32362">
        <ele>76</ele>
        <time>2021-05-27T12:34:49Z</time>
      </trkpt>
      <trkpt lat="47.70117" lon="-2.32365">
        <ele>76</ele>
        <time>2021-05-27T12:34:50Z</time>
      </trkpt>
      <trkpt lat="47.70117" lon="-2.32366">
        <ele>76.1</ele>
        <time>2021-05-27T12:34:51Z</time>
      </trkpt>
      <trkpt lat="47.70118" lon="-2.32368">
        <ele>76.1</ele>
        <time>2021-05-27T12:34:52Z</time>
      </trkpt>
      <trkpt lat="47.70117" lon="-2.32369">
        <ele>76.1</ele>
        <time>2021-05-27T12:34:53Z</time>
      </trkpt>
      <trkpt lat="47.70117" lon="-2.32369">
        <ele>76.1</ele>
        <time>2021-05-27T12:34:54Z</time>
      </trkpt>
      <trkpt lat="47.70117" lon="-2.32369">
        <ele>76.1</ele>
        <time>2021-05-27T12:34:55Z</time>
      </trkpt>
      <trkpt lat="47.70117" lon="-2.32369">
        <ele>76.1</ele>
        <time>2021-05-27T12:34:56Z</time>
      </trkpt>
      <trkpt lat="47.70117" lon="-2.32369">
        <ele>76.1</ele>
        <time>2021-05-27T12:34:57Z</time>
      </trkpt>
      <trkpt lat="47.70117" lon="-2.32369">
        <ele>76.1</ele>
        <time>2021-05-27T12:34:58Z</time>
      </trkpt>
      <trkpt lat="47.70117" lon="-2.32369">
        <ele>76.1</ele>
        <time>2021-05-27T12:34:59Z</time>
      </trkpt>
      <trkpt lat="47.70117" lon="-2.32369">
        <ele>76.1</ele>
        <time>2021-05-27T12:35:00Z</time>
      </trkpt>
      <trkpt lat="47.70117" lon="-2.32369">
        <ele>76.1</ele>
        <time>2021-05-27T12:35:01Z</time>
      </trkpt>
      <trkpt lat="47.70117" lon="-2.32369">
        <ele>76.1</ele>
        <time>2021-05-27T12:35:02Z</time>
      </trkpt>
      <trkpt lat="47.70117" lon="-2.32369">
        <ele>76.1</ele>
        <time>2021-05-27T12:35:03Z</time>
      </trkpt>
      <trkpt lat="47.70126" lon="-2.32372">
        <ele>76.3</ele>
        <time>2021-05-27T12:35:04Z</time>
      </trkpt>
      <trkpt lat="47.70129" lon="-2.32374">
        <ele>76.3</ele>
        <time>2021-05-27T12:35:05Z</time>
      </trkpt>
      <trkpt lat="47.70132" lon="-2.32375">
        <ele>76.4</ele>
        <time>2021-05-27T12:35:06Z</time>
      </trkpt>
      <trkpt lat="47.70135" lon="-2.32378">
        <ele>76.4</ele>
        <time>2021-05-27T12:35:07Z</time>
      </trkpt>
      <trkpt lat="47.70138" lon="-2.32379">
        <ele>76.5</ele>
        <time>2021-05-27T12:35:08Z</time>
      </trkpt>
      <trkpt lat="47.7014" lon="-2.32382">
        <ele>76.6</ele>
        <time>2021-05-27T12:35:09Z</time>
      </trkpt>
      <trkpt lat="47.70142" lon="-2.32385">
        <ele>76.6</ele>
        <time>2021-05-27T12:35:10Z</time>
      </trkpt>
      <trkpt lat="47.70143" lon="-2.32389">
        <ele>76.6</ele>
        <time>2021-05-27T12:35:11Z</time>
      </trkpt>
      <trkpt lat="47.70145" lon="-2.32392">
        <ele>76.7</ele>
        <time>2021-05-27T12:35:12Z</time>
      </trkpt>
      <trkpt lat="47.70147" lon="-2.32396">
        <ele>76.7</ele>
        <time>2021-05-27T12:35:13Z</time>
      </trkpt>
      <trkpt lat="47.70151" lon="-2.32399">
        <ele>76.8</ele>
        <time>2021-05-27T12:35:14Z</time>
      </trkpt>
      <trkpt lat="47.70154" lon="-2.32402">
        <ele>76.8</ele>
        <time>2021-05-27T12:35:15Z</time>
      </trkpt>
      <trkpt lat="47.70157" lon="-2.32404">
        <ele>76.9</ele>
        <time>2021-05-27T12:35:16Z</time>
      </trkpt>
      <trkpt lat="47.70161" lon="-2.32404">
        <ele>76.9</ele>
        <time>2021-05-27T12:35:17Z</time>
      </trkpt>
      <trkpt lat="47.70163" lon="-2.32402">
        <ele>77</ele>
        <time>2021-05-27T12:35:18Z</time>
      </trkpt>
      <trkpt lat="47.70164" lon="-2.32399">
        <ele>77</ele>
        <time>2021-05-27T12:35:19Z</time>
      </trkpt>
      <trkpt lat="47.70163" lon="-2.32395">
        <ele>76.9</ele>
        <time>2021-05-27T12:35:20Z</time>
      </trkpt>
      <trkpt lat="47.70163" lon="-2.32392">
        <ele>76.9</ele>
        <time>2021-05-27T12:35:21Z</time>
      </trkpt>
      <trkpt lat="47.70161" lon="-2.32388">
        <ele>76.9</ele>
        <time>2021-05-27T12:35:22Z</time>
      </trkpt>
      <trkpt lat="47.70161" lon="-2.32383">
        <ele>76.9</ele>
        <time>2021-05-27T12:35:23Z</time>
      </trkpt>
      <trkpt lat="47.7016" lon="-2.32379">
        <ele>76.9</ele>
        <time>2021-05-27T12:35:24Z</time>
      </trkpt>
      <trkpt lat="47.7016" lon="-2.32374">
        <ele>76.9</ele>
        <time>2021-05-27T12:35:25Z</time>
      </trkpt>
      <trkpt lat="47.70159" lon="-2.32369">
        <ele>76.8</ele>
        <time>2021-05-27T12:35:26Z</time>
      </trkpt>
      <trkpt lat="47.70157" lon="-2.32364">
        <ele>76.8</ele>
        <time>2021-05-27T12:35:27Z</time>
      </trkpt>
      <trkpt lat="47.70154" lon="-2.32358">
        <ele>76.8</ele>
        <time>2021-05-27T12:35:28Z</time>
      </trkpt>
      <trkpt lat="47.70153" lon="-2.32354">
        <ele>76.7</ele>
        <time>2021-05-27T12:35:29Z</time>
      </trkpt>
      <trkpt lat="47.70152" lon="-2.3235">
        <ele>76.7</ele>
        <time>2021-05-27T12:35:30Z</time>
      </trkpt>
      <trkpt lat="47.70151" lon="-2.32345">
        <ele>76.7</ele>
        <time>2021-05-27T12:35:31Z</time>
      </trkpt>
      <trkpt lat="47.70149" lon="-2.3234">
        <ele>76.6</ele>
        <time>2021-05-27T12:35:32Z</time>
      </trkpt>
      <trkpt lat="47.70147" lon="-2.32336">
        <ele>76.5</ele>
        <time>2021-05-27T12:35:33Z</time>
      </trkpt>
      <trkpt lat="47.70145" lon="-2.3233">
        <ele>76.5</ele>
        <time>2021-05-27T12:35:34Z</time>
      </trkpt>
      <trkpt lat="47.70145" lon="-2.32325">
        <ele>76.4</ele>
        <time>2021-05-27T12:35:35Z</time>
      </trkpt>
      <trkpt lat="47.70144" lon="-2.3232">
        <ele>76.3</ele>
        <time>2021-05-27T12:35:36Z</time>
      </trkpt>
      <trkpt lat="47.70143" lon="-2.32315">
        <ele>76.2</ele>
        <time>2021-05-27T12:35:37Z</time>
      </trkpt>
      <trkpt lat="47.70142" lon="-2.32311">
        <ele>76.1</ele>
        <time>2021-05-27T12:35:38Z</time>
      </trkpt>
      <trkpt lat="47.70142" lon="-2.32306">
        <ele>76.1</ele>
        <time>2021-05-27T12:35:39Z</time>
      </trkpt>
      <trkpt lat="47.7014" lon="-2.32301">
        <ele>76</ele>
        <time>2021-05-27T12:35:40Z</time>
      </trkpt>
      <trkpt lat="47.7014" lon="-2.32295">
        <ele>75.9</ele>
        <time>2021-05-27T12:35:41Z</time>
      </trkpt>
      <trkpt lat="47.70137" lon="-2.32289">
        <ele>75.8</ele>
        <time>2021-05-27T12:35:42Z</time>
      </trkpt>
      <trkpt lat="47.70135" lon="-2.32283">
        <ele>75.6</ele>
        <time>2021-05-27T12:35:43Z</time>
      </trkpt>
      <trkpt lat="47.70132" lon="-2.32277">
        <ele>75.5</ele>
        <time>2021-05-27T12:35:44Z</time>
      </trkpt>
      <trkpt lat="47.70128" lon="-2.32271">
        <ele>75.3</ele>
        <time>2021-05-27T12:35:45Z</time>
      </trkpt>
      <trkpt lat="47.70125" lon="-2.32265">
        <ele>75.2</ele>
        <time>2021-05-27T12:35:46Z</time>
      </trkpt>
      <trkpt lat="47.70121" lon="-2.3226">
        <ele>75</ele>
        <time>2021-05-27T12:35:47Z</time>
      </trkpt>
      <trkpt lat="47.70117" lon="-2.32254">
        <ele>74.9</ele>
        <time>2021-05-27T12:35:48Z</time>
      </trkpt>
      <trkpt lat="47.70114" lon="-2.32249">
        <ele>74.8</ele>
        <time>2021-05-27T12:35:49Z</time>
      </trkpt>
      <trkpt lat="47.70112" lon="-2.32242">
        <ele>74.9</ele>
        <time>2021-05-27T12:35:50Z</time>
      </trkpt>
      <trkpt lat="47.7011" lon="-2.32235">
        <ele>75</ele>
        <time>2021-05-27T12:35:51Z</time>
      </trkpt>
      <trkpt lat="47.70108" lon="-2.32229">
        <ele>75.2</ele>
        <time>2021-05-27T12:35:52Z</time>
      </trkpt>
      <trkpt lat="47.70106" lon="-2.32221">
        <ele>75.3</ele>
        <time>2021-05-27T12:35:53Z</time>
      </trkpt>
      <trkpt lat="47.70105" lon="-2.32214">
        <ele>75.5</ele>
        <time>2021-05-27T12:35:54Z</time>
      </trkpt>
      <trkpt lat="47.70103" lon="-2.32206">
        <ele>75.7</ele>
        <time>2021-05-27T12:35:55Z</time>
      </trkpt>
      <trkpt lat="47.70102" lon="-2.32199">
        <ele>75.8</ele>
        <time>2021-05-27T12:35:56Z</time>
      </trkpt>
      <trkpt lat="47.70102" lon="-2.32192">
        <ele>76</ele>
        <time>2021-05-27T12:35:57Z</time>
      </trkpt>
      <trkpt lat="47.70101" lon="-2.32185">
        <ele>76.2</ele>
        <time>2021-05-27T12:35:58Z</time>
      </trkpt>
      <trkpt lat="47.70101" lon="-2.32178">
        <ele>76.4</ele>
        <time>2021-05-27T12:35:59Z</time>
      </trkpt>
      <trkpt lat="47.701" lon="-2.32171">
        <ele>76.5</ele>
        <time>2021-05-27T12:36:00Z</time>
      </trkpt>
      <trkpt lat="47.70099" lon="-2.32163">
        <ele>76.6</ele>
        <time>2021-05-27T12:36:01Z</time>
      </trkpt>
      <trkpt lat="47.70098" lon="-2.32157">
        <ele>76.7</ele>
        <time>2021-05-27T12:36:02Z</time>
      </trkpt>
      <trkpt lat="47.70097" lon="-2.32151">
        <ele>76.8</ele>
        <time>2021-05-27T12:36:03Z</time>
      </trkpt>
      <trkpt lat="47.70096" lon="-2.32145">
        <ele>76.9</ele>
        <time>2021-05-27T12:36:04Z</time>
      </trkpt>
      <trkpt lat="47.70095" lon="-2.32139">
        <ele>76.9</ele>
        <time>2021-05-27T12:36:05Z</time>
      </trkpt>
      <trkpt lat="47.70094" lon="-2.32132">
        <ele>77</ele>
        <time>2021-05-27T12:36:06Z</time>
      </trkpt>
      <trkpt lat="47.70092" lon="-2.32126">
        <ele>77.1</ele>
        <time>2021-05-27T12:36:07Z</time>
      </trkpt>
      <trkpt lat="47.70089" lon="-2.32119">
        <ele>77.2</ele>
        <time>2021-05-27T12:36:08Z</time>
      </trkpt>
      <trkpt lat="47.70086" lon="-2.32113">
        <ele>77.3</ele>
        <time>2021-05-27T12:36:09Z</time>
      </trkpt>
      <trkpt lat="47.70083" lon="-2.32107">
        <ele>77.4</ele>
        <time>2021-05-27T12:36:10Z</time>
      </trkpt>
      <trkpt lat="47.70081" lon="-2.321">
        <ele>77.3</ele>
        <time>2021-05-27T12:36:11Z</time>
      </trkpt>
      <trkpt lat="47.7008" lon="-2.32094">
        <ele>77.4</ele>
        <time>2021-05-27T12:36:12Z</time>
      </trkpt>
      <trkpt lat="47.7008" lon="-2.32087">
        <ele>77.5</ele>
        <time>2021-05-27T12:36:13Z</time>
      </trkpt>
      <trkpt lat="47.70079" lon="-2.32078">
        <ele>77.7</ele>
        <time>2021-05-27T12:36:14Z</time>
      </trkpt>
      <trkpt lat="47.70079" lon="-2.3207">
        <ele>78</ele>
        <time>2021-05-27T12:36:15Z</time>
      </trkpt>
      <trkpt lat="47.70078" lon="-2.32063">
        <ele>78.3</ele>
        <time>2021-05-27T12:36:16Z</time>
      </trkpt>
      <trkpt lat="47.70079" lon="-2.32054">
        <ele>78.6</ele>
        <time>2021-05-27T12:36:17Z</time>
      </trkpt>
      <trkpt lat="47.7008" lon="-2.32047">
        <ele>79</ele>
        <time>2021-05-27T12:36:18Z</time>
      </trkpt>
      <trkpt lat="47.70081" lon="-2.32039">
        <ele>79.4</ele>
        <time>2021-05-27T12:36:19Z</time>
      </trkpt>
      <trkpt lat="47.70082" lon="-2.32031">
        <ele>79.8</ele>
        <time>2021-05-27T12:36:20Z</time>
      </trkpt>
      <trkpt lat="47.70084" lon="-2.32023">
        <ele>80.2</ele>
        <time>2021-05-27T12:36:21Z</time>
      </trkpt>
      <trkpt lat="47.70085" lon="-2.32015">
        <ele>80.4</ele>
        <time>2021-05-27T12:36:22Z</time>
      </trkpt>
      <trkpt lat="47.70086" lon="-2.32008">
        <ele>80.6</ele>
        <time>2021-05-27T12:36:23Z</time>
      </trkpt>
      <trkpt lat="47.70087" lon="-2.32001">
        <ele>80.9</ele>
        <time>2021-05-27T12:36:24Z</time>
      </trkpt>
      <trkpt lat="47.70088" lon="-2.31993">
        <ele>80.5</ele>
        <time>2021-05-27T12:36:25Z</time>
      </trkpt>
      <trkpt lat="47.7009" lon="-2.31986">
        <ele>80.2</ele>
        <time>2021-05-27T12:36:26Z</time>
      </trkpt>
      <trkpt lat="47.70091" lon="-2.3198">
        <ele>79.9</ele>
        <time>2021-05-27T12:36:27Z</time>
      </trkpt>
      <trkpt lat="47.70093" lon="-2.31972">
        <ele>79.6</ele>
        <time>2021-05-27T12:36:28Z</time>
      </trkpt>
      <trkpt lat="47.70093" lon="-2.31965">
        <ele>79.2</ele>
        <time>2021-05-27T12:36:29Z</time>
      </trkpt>
      <trkpt lat="47.70095" lon="-2.31957">
        <ele>78.9</ele>
        <time>2021-05-27T12:36:30Z</time>
      </trkpt>
      <trkpt lat="47.70096" lon="-2.31949">
        <ele>78.5</ele>
        <time>2021-05-27T12:36:31Z</time>
      </trkpt>
      <trkpt lat="47.70097" lon="-2.31941">
        <ele>78.2</ele>
        <time>2021-05-27T12:36:32Z</time>
      </trkpt>
      <trkpt lat="47.70098" lon="-2.31933">
        <ele>77.8</ele>
        <time>2021-05-27T12:36:33Z</time>
      </trkpt>
      <trkpt lat="47.701" lon="-2.31925">
        <ele>77.5</ele>
        <time>2021-05-27T12:36:34Z</time>
      </trkpt>
      <trkpt lat="47.70101" lon="-2.31916">
        <ele>77.2</ele>
        <time>2021-05-27T12:36:35Z</time>
      </trkpt>
      <trkpt lat="47.70102" lon="-2.31908">
        <ele>76.8</ele>
        <time>2021-05-27T12:36:36Z</time>
      </trkpt>
      <trkpt lat="47.70104" lon="-2.319">
        <ele>76.4</ele>
        <time>2021-05-27T12:36:37Z</time>
      </trkpt>
      <trkpt lat="47.70106" lon="-2.31892">
        <ele>76</ele>
        <time>2021-05-27T12:36:38Z</time>
      </trkpt>
      <trkpt lat="47.70108" lon="-2.31884">
        <ele>75.7</ele>
        <time>2021-05-27T12:36:39Z</time>
      </trkpt>
      <trkpt lat="47.70111" lon="-2.31876">
        <ele>75.4</ele>
        <time>2021-05-27T12:36:40Z</time>
      </trkpt>
      <trkpt lat="47.70111" lon="-2.31868">
        <ele>75</ele>
        <time>2021-05-27T12:36:41Z</time>
      </trkpt>
      <trkpt lat="47.70111" lon="-2.3186">
        <ele>74.6</ele>
        <time>2021-05-27T12:36:42Z</time>
      </trkpt>
      <trkpt lat="47.70112" lon="-2.31851">
        <ele>74.2</ele>
        <time>2021-05-27T12:36:43Z</time>
      </trkpt>
      <trkpt lat="47.70113" lon="-2.31843">
        <ele>73.9</ele>
        <time>2021-05-27T12:36:44Z</time>
      </trkpt>
      <trkpt lat="47.70113" lon="-2.31834">
        <ele>73.5</ele>
        <time>2021-05-27T12:36:45Z</time>
      </trkpt>
      <trkpt lat="47.70113" lon="-2.31826">
        <ele>73.6</ele>
        <time>2021-05-27T12:36:46Z</time>
      </trkpt>
      <trkpt lat="47.70114" lon="-2.31818">
        <ele>73.9</ele>
        <time>2021-05-27T12:36:47Z</time>
      </trkpt>
      <trkpt lat="47.70114" lon="-2.31811">
        <ele>74.1</ele>
        <time>2021-05-27T12:36:48Z</time>
      </trkpt>
      <trkpt lat="47.70115" lon="-2.31803">
        <ele>74.3</ele>
        <time>2021-05-27T12:36:49Z</time>
      </trkpt>
      <trkpt lat="47.70115" lon="-2.31796">
        <ele>74.5</ele>
        <time>2021-05-27T12:36:50Z</time>
      </trkpt>
      <trkpt lat="47.70116" lon="-2.31788">
        <ele>74.7</ele>
        <time>2021-05-27T12:36:51Z</time>
      </trkpt>
      <trkpt lat="47.70116" lon="-2.31781">
        <ele>74.8</ele>
        <time>2021-05-27T12:36:52Z</time>
      </trkpt>
      <trkpt lat="47.70116" lon="-2.31773">
        <ele>75</ele>
        <time>2021-05-27T12:36:53Z</time>
      </trkpt>
      <trkpt lat="47.70116" lon="-2.31766">
        <ele>75.2</ele>
        <time>2021-05-27T12:36:54Z</time>
      </trkpt>
      <trkpt lat="47.70118" lon="-2.31759">
        <ele>75.4</ele>
        <time>2021-05-27T12:36:55Z</time>
      </trkpt>
      <trkpt lat="47.70118" lon="-2.31751">
        <ele>75.6</ele>
        <time>2021-05-27T12:36:56Z</time>
      </trkpt>
      <trkpt lat="47.70119" lon="-2.31743">
        <ele>75.9</ele>
        <time>2021-05-27T12:36:57Z</time>
      </trkpt>
      <trkpt lat="47.70119" lon="-2.31735">
        <ele>76.2</ele>
        <time>2021-05-27T12:36:58Z</time>
      </trkpt>
      <trkpt lat="47.70119" lon="-2.31728">
        <ele>76.5</ele>
        <time>2021-05-27T12:36:59Z</time>
      </trkpt>
      <trkpt lat="47.70119" lon="-2.31719">
        <ele>76.9</ele>
        <time>2021-05-27T12:37:00Z</time>
      </trkpt>
      <trkpt lat="47.70119" lon="-2.31711">
        <ele>77.2</ele>
        <time>2021-05-27T12:37:01Z</time>
      </trkpt>
      <trkpt lat="47.70119" lon="-2.31703">
        <ele>77.6</ele>
        <time>2021-05-27T12:37:02Z</time>
      </trkpt>
      <trkpt lat="47.70118" lon="-2.31696">
        <ele>77.9</ele>
        <time>2021-05-27T12:37:03Z</time>
      </trkpt>
      <trkpt lat="47.70118" lon="-2.31688">
        <ele>78.3</ele>
        <time>2021-05-27T12:37:04Z</time>
      </trkpt>
      <trkpt lat="47.70118" lon="-2.3168">
        <ele>78.6</ele>
        <time>2021-05-27T12:37:05Z</time>
      </trkpt>
      <trkpt lat="47.70119" lon="-2.31673">
        <ele>78.9</ele>
        <time>2021-05-27T12:37:06Z</time>
      </trkpt>
      <trkpt lat="47.7012" lon="-2.31665">
        <ele>79.2</ele>
        <time>2021-05-27T12:37:07Z</time>
      </trkpt>
      <trkpt lat="47.70121" lon="-2.31657">
        <ele>79.3</ele>
        <time>2021-05-27T12:37:08Z</time>
      </trkpt>
      <trkpt lat="47.70124" lon="-2.3165">
        <ele>79.3</ele>
        <time>2021-05-27T12:37:09Z</time>
      </trkpt>
      <trkpt lat="47.70127" lon="-2.31643">
        <ele>79.4</ele>
        <time>2021-05-27T12:37:10Z</time>
      </trkpt>
      <trkpt lat="47.70131" lon="-2.31636">
        <ele>79.4</ele>
        <time>2021-05-27T12:37:11Z</time>
      </trkpt>
      <trkpt lat="47.70136" lon="-2.31631">
        <ele>79.4</ele>
        <time>2021-05-27T12:37:12Z</time>
      </trkpt>
      <trkpt lat="47.70141" lon="-2.31626">
        <ele>79.4</ele>
        <time>2021-05-27T12:37:13Z</time>
      </trkpt>
      <trkpt lat="47.70147" lon="-2.31621">
        <ele>79.4</ele>
        <time>2021-05-27T12:37:14Z</time>
      </trkpt>
      <trkpt lat="47.70152" lon="-2.31617">
        <ele>79.4</ele>
        <time>2021-05-27T12:37:15Z</time>
      </trkpt>
      <trkpt lat="47.70157" lon="-2.31612">
        <ele>79.5</ele>
        <time>2021-05-27T12:37:16Z</time>
      </trkpt>
      <trkpt lat="47.70162" lon="-2.31607">
        <ele>79.5</ele>
        <time>2021-05-27T12:37:17Z</time>
      </trkpt>
      <trkpt lat="47.70167" lon="-2.31603">
        <ele>79.5</ele>
        <time>2021-05-27T12:37:18Z</time>
      </trkpt>
      <trkpt lat="47.70173" lon="-2.31599">
        <ele>79.4</ele>
        <time>2021-05-27T12:37:19Z</time>
      </trkpt>
      <trkpt lat="47.70177" lon="-2.31595">
        <ele>79.4</ele>
        <time>2021-05-27T12:37:20Z</time>
      </trkpt>
      <trkpt lat="47.70182" lon="-2.31591">
        <ele>79.3</ele>
        <time>2021-05-27T12:37:21Z</time>
      </trkpt>
      <trkpt lat="47.70187" lon="-2.31587">
        <ele>79.2</ele>
        <time>2021-05-27T12:37:22Z</time>
      </trkpt>
      <trkpt lat="47.70192" lon="-2.31583">
        <ele>79.1</ele>
        <time>2021-05-27T12:37:23Z</time>
      </trkpt>
      <trkpt lat="47.70195" lon="-2.31579">
        <ele>78.9</ele>
        <time>2021-05-27T12:37:24Z</time>
      </trkpt>
      <trkpt lat="47.70199" lon="-2.31573">
        <ele>78.8</ele>
        <time>2021-05-27T12:37:25Z</time>
      </trkpt>
      <trkpt lat="47.70203" lon="-2.31565">
        <ele>78.6</ele>
        <time>2021-05-27T12:37:26Z</time>
      </trkpt>
      <trkpt lat="47.70205" lon="-2.31555">
        <ele>78.5</ele>
        <time>2021-05-27T12:37:27Z</time>
      </trkpt>
      <trkpt lat="47.70207" lon="-2.31545">
        <ele>78.3</ele>
        <time>2021-05-27T12:37:28Z</time>
      </trkpt>
      <trkpt lat="47.70207" lon="-2.31535">
        <ele>78.2</ele>
        <time>2021-05-27T12:37:29Z</time>
      </trkpt>
      <trkpt lat="47.70206" lon="-2.31526">
        <ele>78.2</ele>
        <time>2021-05-27T12:37:30Z</time>
      </trkpt>
      <trkpt lat="47.70205" lon="-2.31516">
        <ele>78.3</ele>
        <time>2021-05-27T12:37:31Z</time>
      </trkpt>
      <trkpt lat="47.70204" lon="-2.31508">
        <ele>78.2</ele>
        <time>2021-05-27T12:37:32Z</time>
      </trkpt>
      <trkpt lat="47.70203" lon="-2.31499">
        <ele>78.2</ele>
        <time>2021-05-27T12:37:33Z</time>
      </trkpt>
      <trkpt lat="47.70203" lon="-2.31491">
        <ele>78.1</ele>
        <time>2021-05-27T12:37:34Z</time>
      </trkpt>
      <trkpt lat="47.70202" lon="-2.31482">
        <ele>78</ele>
        <time>2021-05-27T12:37:35Z</time>
      </trkpt>
      <trkpt lat="47.70202" lon="-2.31474">
        <ele>77.9</ele>
        <time>2021-05-27T12:37:36Z</time>
      </trkpt>
      <trkpt lat="47.702" lon="-2.31464">
        <ele>77.8</ele>
        <time>2021-05-27T12:37:37Z</time>
      </trkpt>
      <trkpt lat="47.70199" lon="-2.31456">
        <ele>77.7</ele>
        <time>2021-05-27T12:37:38Z</time>
      </trkpt>
      <trkpt lat="47.70198" lon="-2.31446">
        <ele>77.6</ele>
        <time>2021-05-27T12:37:39Z</time>
      </trkpt>
      <trkpt lat="47.70197" lon="-2.31437">
        <ele>77.5</ele>
        <time>2021-05-27T12:37:40Z</time>
      </trkpt>
      <trkpt lat="47.70196" lon="-2.31429">
        <ele>77.5</ele>
        <time>2021-05-27T12:37:41Z</time>
      </trkpt>
      <trkpt lat="47.70194" lon="-2.31421">
        <ele>77.4</ele>
        <time>2021-05-27T12:37:42Z</time>
      </trkpt>
      <trkpt lat="47.70194" lon="-2.31414">
        <ele>77.4</ele>
        <time>2021-05-27T12:37:43Z</time>
      </trkpt>
      <trkpt lat="47.70193" lon="-2.31407">
        <ele>77.4</ele>
        <time>2021-05-27T12:37:44Z</time>
      </trkpt>
      <trkpt lat="47.70193" lon="-2.31399">
        <ele>77.4</ele>
        <time>2021-05-27T12:37:45Z</time>
      </trkpt>
      <trkpt lat="47.70192" lon="-2.31391">
        <ele>77.5</ele>
        <time>2021-05-27T12:37:46Z</time>
      </trkpt>
      <trkpt lat="47.70191" lon="-2.31384">
        <ele>77.6</ele>
        <time>2021-05-27T12:37:47Z</time>
      </trkpt>
      <trkpt lat="47.7019" lon="-2.31376">
        <ele>77.6</ele>
        <time>2021-05-27T12:37:48Z</time>
      </trkpt>
      <trkpt lat="47.7019" lon="-2.31369">
        <ele>77.6</ele>
        <time>2021-05-27T12:37:49Z</time>
      </trkpt>
      <trkpt lat="47.70189" lon="-2.31361">
        <ele>77.7</ele>
        <time>2021-05-27T12:37:50Z</time>
      </trkpt>
      <trkpt lat="47.70188" lon="-2.31352">
        <ele>77.7</ele>
        <time>2021-05-27T12:37:51Z</time>
      </trkpt>
      <trkpt lat="47.70187" lon="-2.31344">
        <ele>77.8</ele>
        <time>2021-05-27T12:37:52Z</time>
      </trkpt>
      <trkpt lat="47.70186" lon="-2.31335">
        <ele>77.8</ele>
        <time>2021-05-27T12:37:53Z</time>
      </trkpt>
      <trkpt lat="47.70186" lon="-2.31325">
        <ele>77.8</ele>
        <time>2021-05-27T12:37:54Z</time>
      </trkpt>
      <trkpt lat="47.70186" lon="-2.31317">
        <ele>77.8</ele>
        <time>2021-05-27T12:37:55Z</time>
      </trkpt>
      <trkpt lat="47.70186" lon="-2.31309">
        <ele>77.9</ele>
        <time>2021-05-27T12:37:56Z</time>
      </trkpt>
      <trkpt lat="47.70185" lon="-2.313">
        <ele>77.9</ele>
        <time>2021-05-27T12:37:57Z</time>
      </trkpt>
      <trkpt lat="47.70184" lon="-2.31291">
        <ele>78</ele>
        <time>2021-05-27T12:37:58Z</time>
      </trkpt>
      <trkpt lat="47.70183" lon="-2.31282">
        <ele>78</ele>
        <time>2021-05-27T12:37:59Z</time>
      </trkpt>
      <trkpt lat="47.70182" lon="-2.31273">
        <ele>78.1</ele>
        <time>2021-05-27T12:38:00Z</time>
      </trkpt>
      <trkpt lat="47.70182" lon="-2.31265">
        <ele>78.1</ele>
        <time>2021-05-27T12:38:01Z</time>
      </trkpt>
      <trkpt lat="47.70181" lon="-2.31256">
        <ele>78.1</ele>
        <time>2021-05-27T12:38:02Z</time>
      </trkpt>
      <trkpt lat="47.7018" lon="-2.31248">
        <ele>78.2</ele>
        <time>2021-05-27T12:38:03Z</time>
      </trkpt>
      <trkpt lat="47.70179" lon="-2.3124">
        <ele>78.4</ele>
        <time>2021-05-27T12:38:04Z</time>
      </trkpt>
      <trkpt lat="47.70178" lon="-2.31233">
        <ele>78.5</ele>
        <time>2021-05-27T12:38:05Z</time>
      </trkpt>
      <trkpt lat="47.70177" lon="-2.31226">
        <ele>78.7</ele>
        <time>2021-05-27T12:38:06Z</time>
      </trkpt>
      <trkpt lat="47.70175" lon="-2.31218">
        <ele>78.9</ele>
        <time>2021-05-27T12:38:07Z</time>
      </trkpt>
      <trkpt lat="47.70174" lon="-2.3121">
        <ele>79</ele>
        <time>2021-05-27T12:38:08Z</time>
      </trkpt>
      <trkpt lat="47.70173" lon="-2.31203">
        <ele>79.2</ele>
        <time>2021-05-27T12:38:09Z</time>
      </trkpt>
      <trkpt lat="47.70172" lon="-2.31195">
        <ele>79.3</ele>
        <time>2021-05-27T12:38:10Z</time>
      </trkpt>
      <trkpt lat="47.70172" lon="-2.31188">
        <ele>79.4</ele>
        <time>2021-05-27T12:38:11Z</time>
      </trkpt>
      <trkpt lat="47.70172" lon="-2.3118">
        <ele>79.5</ele>
        <time>2021-05-27T12:38:12Z</time>
      </trkpt>
      <trkpt lat="47.70171" lon="-2.31172">
        <ele>79.7</ele>
        <time>2021-05-27T12:38:13Z</time>
      </trkpt>
      <trkpt lat="47.70171" lon="-2.31164">
        <ele>79.8</ele>
        <time>2021-05-27T12:38:14Z</time>
      </trkpt>
      <trkpt lat="47.70171" lon="-2.31156">
        <ele>79.9</ele>
        <time>2021-05-27T12:38:15Z</time>
      </trkpt>
      <trkpt lat="47.70171" lon="-2.31148">
        <ele>80</ele>
        <time>2021-05-27T12:38:16Z</time>
      </trkpt>
      <trkpt lat="47.70171" lon="-2.3114">
        <ele>80</ele>
        <time>2021-05-27T12:38:17Z</time>
      </trkpt>
      <trkpt lat="47.70172" lon="-2.31132">
        <ele>80.1</ele>
        <time>2021-05-27T12:38:18Z</time>
      </trkpt>
      <trkpt lat="47.70172" lon="-2.31124">
        <ele>80.2</ele>
        <time>2021-05-27T12:38:19Z</time>
      </trkpt>
      <trkpt lat="47.70172" lon="-2.31116">
        <ele>80.3</ele>
        <time>2021-05-27T12:38:20Z</time>
      </trkpt>
      <trkpt lat="47.70172" lon="-2.31108">
        <ele>80.4</ele>
        <time>2021-05-27T12:38:21Z</time>
      </trkpt>
      <trkpt lat="47.70173" lon="-2.31101">
        <ele>80.4</ele>
        <time>2021-05-27T12:38:22Z</time>
      </trkpt>
      <trkpt lat="47.70173" lon="-2.31094">
        <ele>80.5</ele>
        <time>2021-05-27T12:38:23Z</time>
      </trkpt>
      <trkpt lat="47.70173" lon="-2.31088">
        <ele>80.6</ele>
        <time>2021-05-27T12:38:24Z</time>
      </trkpt>
      <trkpt lat="47.70194" lon="-2.31094">
        <ele>79.2</ele>
        <time>2021-05-27T12:39:00Z</time>
      </trkpt>
      <trkpt lat="47.702" lon="-2.31098">
        <ele>78.9</ele>
        <time>2021-05-27T12:39:01Z</time>
      </trkpt>
      <trkpt lat="47.70205" lon="-2.31102">
        <ele>78.5</ele>
        <time>2021-05-27T12:39:02Z</time>
      </trkpt>
      <trkpt lat="47.7021" lon="-2.31105">
        <ele>78.1</ele>
        <time>2021-05-27T12:39:03Z</time>
      </trkpt>
      <trkpt lat="47.70215" lon="-2.31106">
        <ele>77.8</ele>
        <time>2021-05-27T12:39:04Z</time>
      </trkpt>
      <trkpt lat="47.70221" lon="-2.31106">
        <ele>77.5</ele>
        <time>2021-05-27T12:39:05Z</time>
      </trkpt>
      <trkpt lat="47.70226" lon="-2.31106">
        <ele>77.2</ele>
        <time>2021-05-27T12:39:06Z</time>
      </trkpt>
      <trkpt lat="47.70231" lon="-2.31105">
        <ele>76.9</ele>
        <time>2021-05-27T12:39:07Z</time>
      </trkpt>
      <trkpt lat="47.70237" lon="-2.31104">
        <ele>76.6</ele>
        <time>2021-05-27T12:39:08Z</time>
      </trkpt>
      <trkpt lat="47.70242" lon="-2.31102">
        <ele>76.2</ele>
        <time>2021-05-27T12:39:09Z</time>
      </trkpt>
      <trkpt lat="47.70248" lon="-2.31101">
        <ele>75.9</ele>
        <time>2021-05-27T12:39:10Z</time>
      </trkpt>
      <trkpt lat="47.70254" lon="-2.311">
        <ele>75.7</ele>
        <time>2021-05-27T12:39:11Z</time>
      </trkpt>
      <trkpt lat="47.7026" lon="-2.31099">
        <ele>75.7</ele>
        <time>2021-05-27T12:39:12Z</time>
      </trkpt>
      <trkpt lat="47.70267" lon="-2.31099">
        <ele>75.6</ele>
        <time>2021-05-27T12:39:13Z</time>
      </trkpt>
      <trkpt lat="47.70273" lon="-2.311">
        <ele>75.5</ele>
        <time>2021-05-27T12:39:14Z</time>
      </trkpt>
      <trkpt lat="47.70279" lon="-2.31101">
        <ele>75.4</ele>
        <time>2021-05-27T12:39:15Z</time>
      </trkpt>
      <trkpt lat="47.70285" lon="-2.31104">
        <ele>75.2</ele>
        <time>2021-05-27T12:39:16Z</time>
      </trkpt>
      <trkpt lat="47.70291" lon="-2.31105">
        <ele>75.1</ele>
        <time>2021-05-27T12:39:17Z</time>
      </trkpt>
      <trkpt lat="47.70296" lon="-2.31106">
        <ele>75</ele>
        <time>2021-05-27T12:39:18Z</time>
      </trkpt>
      <trkpt lat="47.703" lon="-2.31103">
        <ele>75</ele>
        <time>2021-05-27T12:39:19Z</time>
      </trkpt>
      <trkpt lat="47.70303" lon="-2.31099">
        <ele>75.1</ele>
        <time>2021-05-27T12:39:20Z</time>
      </trkpt>
      <trkpt lat="47.70304" lon="-2.31093">
        <ele>75.2</ele>
        <time>2021-05-27T12:39:21Z</time>
      </trkpt>
      <trkpt lat="47.70304" lon="-2.31086">
        <ele>75.3</ele>
        <time>2021-05-27T12:39:22Z</time>
      </trkpt>
      <trkpt lat="47.70303" lon="-2.31079">
        <ele>75.4</ele>
        <time>2021-05-27T12:39:23Z</time>
      </trkpt>
      <trkpt lat="47.70303" lon="-2.31071">
        <ele>75.4</ele>
        <time>2021-05-27T12:39:24Z</time>
      </trkpt>
      <trkpt lat="47.70302" lon="-2.31063">
        <ele>75.4</ele>
        <time>2021-05-27T12:39:25Z</time>
      </trkpt>
      <trkpt lat="47.70301" lon="-2.31056">
        <ele>75.5</ele>
        <time>2021-05-27T12:39:26Z</time>
      </trkpt>
      <trkpt lat="47.70301" lon="-2.31049">
        <ele>75.5</ele>
        <time>2021-05-27T12:39:27Z</time>
      </trkpt>
      <trkpt lat="47.703" lon="-2.31041">
        <ele>75.5</ele>
        <time>2021-05-27T12:39:28Z</time>
      </trkpt>
      <trkpt lat="47.70301" lon="-2.31034">
        <ele>75.5</ele>
        <time>2021-05-27T12:39:29Z</time>
      </trkpt>
      <trkpt lat="47.70301" lon="-2.31028">
        <ele>75.5</ele>
        <time>2021-05-27T12:39:30Z</time>
      </trkpt>
      <trkpt lat="47.70301" lon="-2.31022">
        <ele>75.6</ele>
        <time>2021-05-27T12:39:31Z</time>
      </trkpt>
      <trkpt lat="47.70302" lon="-2.31016">
        <ele>75.6</ele>
        <time>2021-05-27T12:39:32Z</time>
      </trkpt>
      <trkpt lat="47.70302" lon="-2.3101">
        <ele>75.6</ele>
        <time>2021-05-27T12:39:33Z</time>
      </trkpt>
      <trkpt lat="47.70301" lon="-2.31005">
        <ele>75.6</ele>
        <time>2021-05-27T12:39:34Z</time>
      </trkpt>
      <trkpt lat="47.70301" lon="-2.31001">
        <ele>75.6</ele>
        <time>2021-05-27T12:39:35Z</time>
      </trkpt>
      <trkpt lat="47.70302" lon="-2.30995">
        <ele>75.5</ele>
        <time>2021-05-27T12:39:36Z</time>
      </trkpt>
      <trkpt lat="47.70302" lon="-2.30989">
        <ele>75.2</ele>
        <time>2021-05-27T12:39:37Z</time>
      </trkpt>
      <trkpt lat="47.70303" lon="-2.30983">
        <ele>75.1</ele>
        <time>2021-05-27T12:39:38Z</time>
      </trkpt>
      <trkpt lat="47.70305" lon="-2.30977">
        <ele>74.8</ele>
        <time>2021-05-27T12:39:39Z</time>
      </trkpt>
      <trkpt lat="47.70306" lon="-2.30971">
        <ele>74.6</ele>
        <time>2021-05-27T12:39:40Z</time>
      </trkpt>
      <trkpt lat="47.70308" lon="-2.30966">
        <ele>74.4</ele>
        <time>2021-05-27T12:39:41Z</time>
      </trkpt>
      <trkpt lat="47.70309" lon="-2.30962">
        <ele>74.3</ele>
        <time>2021-05-27T12:39:42Z</time>
      </trkpt>
      <trkpt lat="47.70311" lon="-2.30957">
        <ele>74.1</ele>
        <time>2021-05-27T12:39:43Z</time>
      </trkpt>
      <trkpt lat="47.70311" lon="-2.30952">
        <ele>73.9</ele>
        <time>2021-05-27T12:39:44Z</time>
      </trkpt>
      <trkpt lat="47.70311" lon="-2.30948">
        <ele>73.7</ele>
        <time>2021-05-27T12:39:45Z</time>
      </trkpt>
      <trkpt lat="47.70311" lon="-2.30943">
        <ele>73.6</ele>
        <time>2021-05-27T12:39:46Z</time>
      </trkpt>
      <trkpt lat="47.70311" lon="-2.30938">
        <ele>73.3</ele>
        <time>2021-05-27T12:39:47Z</time>
      </trkpt>
      <trkpt lat="47.70311" lon="-2.30932">
        <ele>73.1</ele>
        <time>2021-05-27T12:39:48Z</time>
      </trkpt>
      <trkpt lat="47.70311" lon="-2.30928">
        <ele>73</ele>
        <time>2021-05-27T12:39:49Z</time>
      </trkpt>
      <trkpt lat="47.70312" lon="-2.30923">
        <ele>72.8</ele>
        <time>2021-05-27T12:39:50Z</time>
      </trkpt>
      <trkpt lat="47.70312" lon="-2.30917">
        <ele>72.5</ele>
        <time>2021-05-27T12:39:51Z</time>
      </trkpt>
      <trkpt lat="47.70314" lon="-2.30912">
        <ele>72.4</ele>
        <time>2021-05-27T12:39:52Z</time>
      </trkpt>
      <trkpt lat="47.70315" lon="-2.30906">
        <ele>72.4</ele>
        <time>2021-05-27T12:39:53Z</time>
      </trkpt>
      <trkpt lat="47.70315" lon="-2.309">
        <ele>72.4</ele>
        <time>2021-05-27T12:39:54Z</time>
      </trkpt>
      <trkpt lat="47.70315" lon="-2.30894">
        <ele>72.4</ele>
        <time>2021-05-27T12:39:55Z</time>
      </trkpt>
      <trkpt lat="47.70314" lon="-2.30888">
        <ele>72.4</ele>
        <time>2021-05-27T12:39:56Z</time>
      </trkpt>
      <trkpt lat="47.70312" lon="-2.30883">
        <ele>72.4</ele>
        <time>2021-05-27T12:39:57Z</time>
      </trkpt>
      <trkpt lat="47.70312" lon="-2.30879">
        <ele>72.4</ele>
        <time>2021-05-27T12:39:58Z</time>
      </trkpt>
      <trkpt lat="47.70311" lon="-2.30875">
        <ele>72.4</ele>
        <time>2021-05-27T12:39:59Z</time>
      </trkpt>
      <trkpt lat="47.70311" lon="-2.30871">
        <ele>72.4</ele>
        <time>2021-05-27T12:40:00Z</time>
      </trkpt>
      <trkpt lat="47.7031" lon="-2.30868">
        <ele>72.4</ele>
        <time>2021-05-27T12:40:01Z</time>
      </trkpt>
      <trkpt lat="47.70308" lon="-2.30866">
        <ele>72.4</ele>
        <time>2021-05-27T12:40:02Z</time>
      </trkpt>
      <trkpt lat="47.70307" lon="-2.30864">
        <ele>72.4</ele>
        <time>2021-05-27T12:40:03Z</time>
      </trkpt>
      <trkpt lat="47.70305" lon="-2.30864">
        <ele>72.5</ele>
        <time>2021-05-27T12:40:04Z</time>
      </trkpt>
      <trkpt lat="47.70302" lon="-2.30863">
        <ele>72.5</ele>
        <time>2021-05-27T12:40:05Z</time>
      </trkpt>
      <trkpt lat="47.703" lon="-2.30863">
        <ele>72.5</ele>
        <time>2021-05-27T12:40:06Z</time>
      </trkpt>
      <trkpt lat="47.70298" lon="-2.30864">
        <ele>72.6</ele>
        <time>2021-05-27T12:40:07Z</time>
      </trkpt>
      <trkpt lat="47.70296" lon="-2.30865">
        <ele>72.6</ele>
        <time>2021-05-27T12:40:08Z</time>
      </trkpt>
      <trkpt lat="47.70295" lon="-2.30866">
        <ele>72.6</ele>
        <time>2021-05-27T12:40:09Z</time>
      </trkpt>
      <trkpt lat="47.70292" lon="-2.30867">
        <ele>72.7</ele>
        <time>2021-05-27T12:40:10Z</time>
      </trkpt>
      <trkpt lat="47.7029" lon="-2.30867">
        <ele>72.7</ele>
        <time>2021-05-27T12:40:11Z</time>
      </trkpt>
      <trkpt lat="47.70288" lon="-2.30866">
        <ele>72.8</ele>
        <time>2021-05-27T12:40:12Z</time>
      </trkpt>
      <trkpt lat="47.70287" lon="-2.30864">
        <ele>72.8</ele>
        <time>2021-05-27T12:40:13Z</time>
      </trkpt>
      <trkpt lat="47.70286" lon="-2.3086">
        <ele>72.8</ele>
        <time>2021-05-27T12:40:14Z</time>
      </trkpt>
      <trkpt lat="47.70285" lon="-2.30856">
        <ele>72.7</ele>
        <time>2021-05-27T12:40:15Z</time>
      </trkpt>
      <trkpt lat="47.70286" lon="-2.30853">
        <ele>72.7</ele>
        <time>2021-05-27T12:40:16Z</time>
      </trkpt>
      <trkpt lat="47.70288" lon="-2.30849">
        <ele>72.7</ele>
        <time>2021-05-27T12:40:17Z</time>
      </trkpt>
      <trkpt lat="47.7029" lon="-2.30845">
        <ele>72.6</ele>
        <time>2021-05-27T12:40:18Z</time>
      </trkpt>
      <trkpt lat="47.70291" lon="-2.3084">
        <ele>72.6</ele>
        <time>2021-05-27T12:40:19Z</time>
      </trkpt>
      <trkpt lat="47.70291" lon="-2.30836">
        <ele>72.5</ele>
        <time>2021-05-27T12:40:20Z</time>
      </trkpt>
      <trkpt lat="47.70291" lon="-2.30831">
        <ele>72.5</ele>
        <time>2021-05-27T12:40:21Z</time>
      </trkpt>
      <trkpt lat="47.7029" lon="-2.30826">
        <ele>72.5</ele>
        <time>2021-05-27T12:40:22Z</time>
      </trkpt>
      <trkpt lat="47.70288" lon="-2.30823">
        <ele>72.5</ele>
        <time>2021-05-27T12:40:23Z</time>
      </trkpt>
      <trkpt lat="47.70287" lon="-2.30818">
        <ele>72.5</ele>
        <time>2021-05-27T12:40:24Z</time>
      </trkpt>
      <trkpt lat="47.70287" lon="-2.30813">
        <ele>72.5</ele>
        <time>2021-05-27T12:40:25Z</time>
      </trkpt>
      <trkpt lat="47.70287" lon="-2.30809">
        <ele>72.5</ele>
        <time>2021-05-27T12:40:26Z</time>
      </trkpt>
      <trkpt lat="47.70286" lon="-2.30805">
        <ele>72.5</ele>
        <time>2021-05-27T12:40:27Z</time>
      </trkpt>
      <trkpt lat="47.70286" lon="-2.308">
        <ele>72.4</ele>
        <time>2021-05-27T12:40:28Z</time>
      </trkpt>
      <trkpt lat="47.70287" lon="-2.30794">
        <ele>72.4</ele>
        <time>2021-05-27T12:40:29Z</time>
      </trkpt>
      <trkpt lat="47.70287" lon="-2.30789">
        <ele>72.4</ele>
        <time>2021-05-27T12:40:30Z</time>
      </trkpt>
      <trkpt lat="47.70286" lon="-2.30783">
        <ele>72.4</ele>
        <time>2021-05-27T12:40:31Z</time>
      </trkpt>
      <trkpt lat="47.70284" lon="-2.30777">
        <ele>72.5</ele>
        <time>2021-05-27T12:40:32Z</time>
      </trkpt>
      <trkpt lat="47.70283" lon="-2.30772">
        <ele>72.5</ele>
        <time>2021-05-27T12:40:33Z</time>
      </trkpt>
      <trkpt lat="47.70283" lon="-2.30768">
        <ele>72.4</ele>
        <time>2021-05-27T12:40:34Z</time>
      </trkpt>
      <trkpt lat="47.70283" lon="-2.30762">
        <ele>72.4</ele>
        <time>2021-05-27T12:40:35Z</time>
      </trkpt>
      <trkpt lat="47.70282" lon="-2.30757">
        <ele>72.5</ele>
        <time>2021-05-27T12:40:36Z</time>
      </trkpt>
      <trkpt lat="47.70281" lon="-2.30752">
        <ele>72.5</ele>
        <time>2021-05-27T12:40:37Z</time>
      </trkpt>
      <trkpt lat="47.70281" lon="-2.30747">
        <ele>72.5</ele>
        <time>2021-05-27T12:40:38Z</time>
      </trkpt>
      <trkpt lat="47.70281" lon="-2.30743">
        <ele>72.6</ele>
        <time>2021-05-27T12:40:39Z</time>
      </trkpt>
      <trkpt lat="47.70281" lon="-2.30738">
        <ele>72.7</ele>
        <time>2021-05-27T12:40:40Z</time>
      </trkpt>
      <trkpt lat="47.70281" lon="-2.30732">
        <ele>72.7</ele>
        <time>2021-05-27T12:40:41Z</time>
      </trkpt>
      <trkpt lat="47.7028" lon="-2.30726">
        <ele>72.8</ele>
        <time>2021-05-27T12:40:42Z</time>
      </trkpt>
      <trkpt lat="47.7028" lon="-2.3072">
        <ele>72.9</ele>
        <time>2021-05-27T12:40:43Z</time>
      </trkpt>
      <trkpt lat="47.7028" lon="-2.30714">
        <ele>73</ele>
        <time>2021-05-27T12:40:44Z</time>
      </trkpt>
      <trkpt lat="47.7028" lon="-2.30709">
        <ele>73</ele>
        <time>2021-05-27T12:40:45Z</time>
      </trkpt>
      <trkpt lat="47.70281" lon="-2.30705">
        <ele>73</ele>
        <time>2021-05-27T12:40:46Z</time>
      </trkpt>
      <trkpt lat="47.70282" lon="-2.30701">
        <ele>73</ele>
        <time>2021-05-27T12:40:47Z</time>
      </trkpt>
      <trkpt lat="47.70284" lon="-2.30698">
        <ele>72.9</ele>
        <time>2021-05-27T12:40:48Z</time>
      </trkpt>
      <trkpt lat="47.70286" lon="-2.30696">
        <ele>72.7</ele>
        <time>2021-05-27T12:40:49Z</time>
      </trkpt>
      <trkpt lat="47.7029" lon="-2.30694">
        <ele>72.5</ele>
        <time>2021-05-27T12:40:50Z</time>
      </trkpt>
      <trkpt lat="47.70292" lon="-2.30692">
        <ele>72.3</ele>
        <time>2021-05-27T12:40:51Z</time>
      </trkpt>
      <trkpt lat="47.70294" lon="-2.30688">
        <ele>72.2</ele>
        <time>2021-05-27T12:40:52Z</time>
      </trkpt>
      <trkpt lat="47.70295" lon="-2.30684">
        <ele>72.1</ele>
        <time>2021-05-27T12:40:53Z</time>
      </trkpt>
      <trkpt lat="47.70296" lon="-2.30679">
        <ele>72.1</ele>
        <time>2021-05-27T12:40:54Z</time>
      </trkpt>
      <trkpt lat="47.70297" lon="-2.30674">
        <ele>72.1</ele>
        <time>2021-05-27T12:40:55Z</time>
      </trkpt>
      <trkpt lat="47.70297" lon="-2.3067">
        <ele>72</ele>
        <time>2021-05-27T12:40:56Z</time>
      </trkpt>
      <trkpt lat="47.70299" lon="-2.30665">
        <ele>71.9</ele>
        <time>2021-05-27T12:40:57Z</time>
      </trkpt>
      <trkpt lat="47.70301" lon="-2.30659">
        <ele>72</ele>
        <time>2021-05-27T12:40:58Z</time>
      </trkpt>
      <trkpt lat="47.70301" lon="-2.30654">
        <ele>72.1</ele>
        <time>2021-05-27T12:40:59Z</time>
      </trkpt>
      <trkpt lat="47.703" lon="-2.30648">
        <ele>72.4</ele>
        <time>2021-05-27T12:41:00Z</time>
      </trkpt>
      <trkpt lat="47.70298" lon="-2.30643">
        <ele>72.7</ele>
        <time>2021-05-27T12:41:01Z</time>
      </trkpt>
      <trkpt lat="47.70296" lon="-2.30638">
        <ele>73</ele>
        <time>2021-05-27T12:41:02Z</time>
      </trkpt>
      <trkpt lat="47.70295" lon="-2.30632">
        <ele>73.3</ele>
        <time>2021-05-27T12:41:03Z</time>
      </trkpt>
      <trkpt lat="47.70293" lon="-2.30628">
        <ele>73.6</ele>
        <time>2021-05-27T12:41:04Z</time>
      </trkpt>
      <trkpt lat="47.70291" lon="-2.30623">
        <ele>73.9</ele>
        <time>2021-05-27T12:41:05Z</time>
      </trkpt>
      <trkpt lat="47.70288" lon="-2.30619">
        <ele>74.2</ele>
        <time>2021-05-27T12:41:06Z</time>
      </trkpt>
      <trkpt lat="47.70284" lon="-2.30617">
        <ele>74.6</ele>
        <time>2021-05-27T12:41:07Z</time>
      </trkpt>
      <trkpt lat="47.70281" lon="-2.30614">
        <ele>74.9</ele>
        <time>2021-05-27T12:41:08Z</time>
      </trkpt>
      <trkpt lat="47.70277" lon="-2.30613">
        <ele>75.3</ele>
        <time>2021-05-27T12:41:09Z</time>
      </trkpt>
      <trkpt lat="47.70273" lon="-2.30612">
        <ele>75.5</ele>
        <time>2021-05-27T12:41:10Z</time>
      </trkpt>
      <trkpt lat="47.7027" lon="-2.30613">
        <ele>75.8</ele>
        <time>2021-05-27T12:41:11Z</time>
      </trkpt>
      <trkpt lat="47.70266" lon="-2.30615">
        <ele>76</ele>
        <time>2021-05-27T12:41:12Z</time>
      </trkpt>
      <trkpt lat="47.70263" lon="-2.30617">
        <ele>76.2</ele>
        <time>2021-05-27T12:41:13Z</time>
      </trkpt>
      <trkpt lat="47.70259" lon="-2.30619">
        <ele>76.5</ele>
        <time>2021-05-27T12:41:14Z</time>
      </trkpt>
      <trkpt lat="47.70255" lon="-2.3062">
        <ele>76.7</ele>
        <time>2021-05-27T12:41:15Z</time>
      </trkpt>
      <trkpt lat="47.70252" lon="-2.3062">
        <ele>77</ele>
        <time>2021-05-27T12:41:16Z</time>
      </trkpt>
      <trkpt lat="47.70248" lon="-2.3062">
        <ele>77.1</ele>
        <time>2021-05-27T12:41:17Z</time>
      </trkpt>
      <trkpt lat="47.70245" lon="-2.30619">
        <ele>77.2</ele>
        <time>2021-05-27T12:41:18Z</time>
      </trkpt>
      <trkpt lat="47.70242" lon="-2.30615">
        <ele>77.3</ele>
        <time>2021-05-27T12:41:19Z</time>
      </trkpt>
      <trkpt lat="47.7024" lon="-2.30611">
        <ele>77.4</ele>
        <time>2021-05-27T12:41:20Z</time>
      </trkpt>
      <trkpt lat="47.70238" lon="-2.30606">
        <ele>77.5</ele>
        <time>2021-05-27T12:41:21Z</time>
      </trkpt>
      <trkpt lat="47.70236" lon="-2.30602">
        <ele>77.6</ele>
        <time>2021-05-27T12:41:22Z</time>
      </trkpt>
      <trkpt lat="47.70234" lon="-2.30598">
        <ele>77.7</ele>
        <time>2021-05-27T12:41:23Z</time>
      </trkpt>
      <trkpt lat="47.70232" lon="-2.30595">
        <ele>77.8</ele>
        <time>2021-05-27T12:41:24Z</time>
      </trkpt>
      <trkpt lat="47.70231" lon="-2.30591">
        <ele>77.8</ele>
        <time>2021-05-27T12:41:25Z</time>
      </trkpt>
      <trkpt lat="47.70231" lon="-2.30587">
        <ele>77.9</ele>
        <time>2021-05-27T12:41:26Z</time>
      </trkpt>
      <trkpt lat="47.70231" lon="-2.30584">
        <ele>78</ele>
        <time>2021-05-27T12:41:27Z</time>
      </trkpt>
      <trkpt lat="47.70232" lon="-2.3058">
        <ele>78</ele>
        <time>2021-05-27T12:41:28Z</time>
      </trkpt>
      <trkpt lat="47.70234" lon="-2.30577">
        <ele>77.9</ele>
        <time>2021-05-27T12:41:29Z</time>
      </trkpt>
      <trkpt lat="47.70236" lon="-2.30573">
        <ele>77.9</ele>
        <time>2021-05-27T12:41:30Z</time>
      </trkpt>
      <trkpt lat="47.70236" lon="-2.30568">
        <ele>77.8</ele>
        <time>2021-05-27T12:41:31Z</time>
      </trkpt>
      <trkpt lat="47.70236" lon="-2.30563">
        <ele>77.8</ele>
        <time>2021-05-27T12:41:32Z</time>
      </trkpt>
      <trkpt lat="47.70234" lon="-2.30558">
        <ele>77.7</ele>
        <time>2021-05-27T12:41:33Z</time>
      </trkpt>
      <trkpt lat="47.70233" lon="-2.30554">
        <ele>77.7</ele>
        <time>2021-05-27T12:41:34Z</time>
      </trkpt>
      <trkpt lat="47.70231" lon="-2.30553">
        <ele>77.6</ele>
        <time>2021-05-27T12:41:35Z</time>
      </trkpt>
      <trkpt lat="47.70229" lon="-2.30553">
        <ele>77.6</ele>
        <time>2021-05-27T12:41:36Z</time>
      </trkpt>
      <trkpt lat="47.70226" lon="-2.30553">
        <ele>77.6</ele>
        <time>2021-05-27T12:41:37Z</time>
      </trkpt>
      <trkpt lat="47.70224" lon="-2.3055">
        <ele>77.6</ele>
        <time>2021-05-27T12:41:38Z</time>
      </trkpt>
      <trkpt lat="47.70222" lon="-2.30547">
        <ele>77.6</ele>
        <time>2021-05-27T12:41:39Z</time>
      </trkpt>
      <trkpt lat="47.7022" lon="-2.30543">
        <ele>77.5</ele>
        <time>2021-05-27T12:41:40Z</time>
      </trkpt>
      <trkpt lat="47.70218" lon="-2.30538">
        <ele>77.5</ele>
        <time>2021-05-27T12:41:41Z</time>
      </trkpt>
      <trkpt lat="47.70217" lon="-2.30534">
        <ele>77.4</ele>
        <time>2021-05-27T12:41:42Z</time>
      </trkpt>
      <trkpt lat="47.70217" lon="-2.3053">
        <ele>77.4</ele>
        <time>2021-05-27T12:41:43Z</time>
      </trkpt>
      <trkpt lat="47.70217" lon="-2.30527">
        <ele>77.3</ele>
        <time>2021-05-27T12:41:44Z</time>
      </trkpt>
      <trkpt lat="47.70218" lon="-2.30521">
        <ele>77.3</ele>
        <time>2021-05-27T12:41:45Z</time>
      </trkpt>
      <trkpt lat="47.70218" lon="-2.30515">
        <ele>77.2</ele>
        <time>2021-05-27T12:41:46Z</time>
      </trkpt>
      <trkpt lat="47.70219" lon="-2.3051">
        <ele>77.1</ele>
        <time>2021-05-27T12:41:47Z</time>
      </trkpt>
      <trkpt lat="47.70222" lon="-2.30507">
        <ele>77.1</ele>
        <time>2021-05-27T12:41:48Z</time>
      </trkpt>
      <trkpt lat="47.70224" lon="-2.30503">
        <ele>77</ele>
        <time>2021-05-27T12:41:49Z</time>
      </trkpt>
      <trkpt lat="47.70226" lon="-2.30499">
        <ele>77</ele>
        <time>2021-05-27T12:41:50Z</time>
      </trkpt>
      <trkpt lat="47.70229" lon="-2.30496">
        <ele>77</ele>
        <time>2021-05-27T12:41:51Z</time>
      </trkpt>
      <trkpt lat="47.70232" lon="-2.30494">
        <ele>77</ele>
        <time>2021-05-27T12:41:52Z</time>
      </trkpt>
      <trkpt lat="47.70235" lon="-2.30493">
        <ele>77</ele>
        <time>2021-05-27T12:41:53Z</time>
      </trkpt>
      <trkpt lat="47.70238" lon="-2.30491">
        <ele>77</ele>
        <time>2021-05-27T12:41:54Z</time>
      </trkpt>
      <trkpt lat="47.70242" lon="-2.3049">
        <ele>77</ele>
        <time>2021-05-27T12:41:55Z</time>
      </trkpt>
      <trkpt lat="47.70245" lon="-2.30489">
        <ele>77</ele>
        <time>2021-05-27T12:41:56Z</time>
      </trkpt>
      <trkpt lat="47.70248" lon="-2.3049">
        <ele>77</ele>
        <time>2021-05-27T12:41:57Z</time>
      </trkpt>
      <trkpt lat="47.7025" lon="-2.30491">
        <ele>77</ele>
        <time>2021-05-27T12:41:58Z</time>
      </trkpt>
      <trkpt lat="47.70252" lon="-2.30493">
        <ele>76.9</ele>
        <time>2021-05-27T12:41:59Z</time>
      </trkpt>
      <trkpt lat="47.70254" lon="-2.30495">
        <ele>76.9</ele>
        <time>2021-05-27T12:42:00Z</time>
      </trkpt>
      <trkpt lat="47.70255" lon="-2.30498">
        <ele>76.8</ele>
        <time>2021-05-27T12:42:01Z</time>
      </trkpt>
      <trkpt lat="47.70255" lon="-2.30501">
        <ele>76.8</ele>
        <time>2021-05-27T12:42:02Z</time>
      </trkpt>
      <trkpt lat="47.70257" lon="-2.30504">
        <ele>76.8</ele>
        <time>2021-05-27T12:42:03Z</time>
      </trkpt>
      <trkpt lat="47.70259" lon="-2.30508">
        <ele>76.7</ele>
        <time>2021-05-27T12:42:04Z</time>
      </trkpt>
      <trkpt lat="47.70261" lon="-2.3051">
        <ele>76.7</ele>
        <time>2021-05-27T12:42:05Z</time>
      </trkpt>
      <trkpt lat="47.70263" lon="-2.30513">
        <ele>76.6</ele>
        <time>2021-05-27T12:42:06Z</time>
      </trkpt>
      <trkpt lat="47.70265" lon="-2.30514">
        <ele>76.6</ele>
        <time>2021-05-27T12:42:07Z</time>
      </trkpt>
      <trkpt lat="47.70266" lon="-2.30512">
        <ele>76.5</ele>
        <time>2021-05-27T12:42:08Z</time>
      </trkpt>
      <trkpt lat="47.70268" lon="-2.30509">
        <ele>76.4</ele>
        <time>2021-05-27T12:42:09Z</time>
      </trkpt>
      <trkpt lat="47.7027" lon="-2.30505">
        <ele>76.3</ele>
        <time>2021-05-27T12:42:10Z</time>
      </trkpt>
      <trkpt lat="47.70271" lon="-2.30499">
        <ele>76.3</ele>
        <time>2021-05-27T12:42:11Z</time>
      </trkpt>
      <trkpt lat="47.70272" lon="-2.30493">
        <ele>76.2</ele>
        <time>2021-05-27T12:42:12Z</time>
      </trkpt>
      <trkpt lat="47.70272" lon="-2.30487">
        <ele>76.2</ele>
        <time>2021-05-27T12:42:13Z</time>
      </trkpt>
      <trkpt lat="47.70272" lon="-2.3048">
        <ele>76.3</ele>
        <time>2021-05-27T12:42:14Z</time>
      </trkpt>
      <trkpt lat="47.70272" lon="-2.30474">
        <ele>76.3</ele>
        <time>2021-05-27T12:42:15Z</time>
      </trkpt>
      <trkpt lat="47.70271" lon="-2.30468">
        <ele>76.3</ele>
        <time>2021-05-27T12:42:16Z</time>
      </trkpt>
      <trkpt lat="47.70269" lon="-2.30462">
        <ele>76.4</ele>
        <time>2021-05-27T12:42:17Z</time>
      </trkpt>
      <trkpt lat="47.70269" lon="-2.30457">
        <ele>76.4</ele>
        <time>2021-05-27T12:42:18Z</time>
      </trkpt>
      <trkpt lat="47.70268" lon="-2.30452">
        <ele>76.5</ele>
        <time>2021-05-27T12:42:19Z</time>
      </trkpt>
      <trkpt lat="47.70267" lon="-2.30446">
        <ele>76.5</ele>
        <time>2021-05-27T12:42:20Z</time>
      </trkpt>
      <trkpt lat="47.70264" lon="-2.30442">
        <ele>76.6</ele>
        <time>2021-05-27T12:42:21Z</time>
      </trkpt>
      <trkpt lat="47.70263" lon="-2.30436">
        <ele>76.7</ele>
        <time>2021-05-27T12:42:22Z</time>
      </trkpt>
      <trkpt lat="47.70263" lon="-2.30431">
        <ele>76.7</ele>
        <time>2021-05-27T12:42:23Z</time>
      </trkpt>
      <trkpt lat="47.70263" lon="-2.30425">
        <ele>76.7</ele>
        <time>2021-05-27T12:42:24Z</time>
      </trkpt>
      <trkpt lat="47.70263" lon="-2.3042">
        <ele>76.7</ele>
        <time>2021-05-27T12:42:25Z</time>
      </trkpt>
      <trkpt lat="47.70263" lon="-2.30414">
        <ele>76.6</ele>
        <time>2021-05-27T12:42:26Z</time>
      </trkpt>
      <trkpt lat="47.70264" lon="-2.30409">
        <ele>76.6</ele>
        <time>2021-05-27T12:42:27Z</time>
      </trkpt>
      <trkpt lat="47.70263" lon="-2.30404">
        <ele>76.5</ele>
        <time>2021-05-27T12:42:28Z</time>
      </trkpt>
      <trkpt lat="47.70262" lon="-2.30399">
        <ele>76.5</ele>
        <time>2021-05-27T12:42:29Z</time>
      </trkpt>
      <trkpt lat="47.70262" lon="-2.30395">
        <ele>76.4</ele>
        <time>2021-05-27T12:42:30Z</time>
      </trkpt>
      <trkpt lat="47.70261" lon="-2.3039">
        <ele>76.4</ele>
        <time>2021-05-27T12:42:31Z</time>
      </trkpt>
      <trkpt lat="47.70261" lon="-2.30384">
        <ele>76.3</ele>
        <time>2021-05-27T12:42:32Z</time>
      </trkpt>
      <trkpt lat="47.70262" lon="-2.30379">
        <ele>76.2</ele>
        <time>2021-05-27T12:42:33Z</time>
      </trkpt>
      <trkpt lat="47.70263" lon="-2.30374">
        <ele>76.1</ele>
        <time>2021-05-27T12:42:34Z</time>
      </trkpt>
      <trkpt lat="47.70263" lon="-2.30368">
        <ele>76</ele>
        <time>2021-05-27T12:42:35Z</time>
      </trkpt>
      <trkpt lat="47.70263" lon="-2.30363">
        <ele>75.9</ele>
        <time>2021-05-27T12:42:36Z</time>
      </trkpt>
      <trkpt lat="47.70265" lon="-2.30357">
        <ele>75.8</ele>
        <time>2021-05-27T12:42:37Z</time>
      </trkpt>
      <trkpt lat="47.70266" lon="-2.30351">
        <ele>75.7</ele>
        <time>2021-05-27T12:42:38Z</time>
      </trkpt>
      <trkpt lat="47.70267" lon="-2.30346">
        <ele>75.6</ele>
        <time>2021-05-27T12:42:39Z</time>
      </trkpt>
      <trkpt lat="47.70269" lon="-2.30341">
        <ele>75.4</ele>
        <time>2021-05-27T12:42:40Z</time>
      </trkpt>
      <trkpt lat="47.70273" lon="-2.30338">
        <ele>75.2</ele>
        <time>2021-05-27T12:42:41Z</time>
      </trkpt>
      <trkpt lat="47.70277" lon="-2.30337">
        <ele>75.1</ele>
        <time>2021-05-27T12:42:42Z</time>
      </trkpt>
      <trkpt lat="47.70281" lon="-2.30336">
        <ele>74.9</ele>
        <time>2021-05-27T12:42:43Z</time>
      </trkpt>
      <trkpt lat="47.70285" lon="-2.30334">
        <ele>74.8</ele>
        <time>2021-05-27T12:42:44Z</time>
      </trkpt>
      <trkpt lat="47.70288" lon="-2.30331">
        <ele>74.5</ele>
        <time>2021-05-27T12:42:45Z</time>
      </trkpt>
      <trkpt lat="47.70291" lon="-2.30327">
        <ele>74.1</ele>
        <time>2021-05-27T12:42:46Z</time>
      </trkpt>
      <trkpt lat="47.70295" lon="-2.30322">
        <ele>73.7</ele>
        <time>2021-05-27T12:42:47Z</time>
      </trkpt>
      <trkpt lat="47.70298" lon="-2.3032">
        <ele>73.4</ele>
        <time>2021-05-27T12:42:48Z</time>
      </trkpt>
      <trkpt lat="47.70301" lon="-2.30317">
        <ele>73.1</ele>
        <time>2021-05-27T12:42:49Z</time>
      </trkpt>
      <trkpt lat="47.70303" lon="-2.30314">
        <ele>72.8</ele>
        <time>2021-05-27T12:42:50Z</time>
      </trkpt>
      <trkpt lat="47.70305" lon="-2.30311">
        <ele>72.5</ele>
        <time>2021-05-27T12:42:51Z</time>
      </trkpt>
      <trkpt lat="47.70305" lon="-2.30306">
        <ele>72.1</ele>
        <time>2021-05-27T12:42:52Z</time>
      </trkpt>
      <trkpt lat="47.70305" lon="-2.30301">
        <ele>71.8</ele>
        <time>2021-05-27T12:42:53Z</time>
      </trkpt>
      <trkpt lat="47.70305" lon="-2.30296">
        <ele>71.5</ele>
        <time>2021-05-27T12:42:54Z</time>
      </trkpt>
      <trkpt lat="47.70302" lon="-2.30291">
        <ele>71.3</ele>
        <time>2021-05-27T12:42:55Z</time>
      </trkpt>
      <trkpt lat="47.703" lon="-2.30288">
        <ele>71.3</ele>
        <time>2021-05-27T12:42:56Z</time>
      </trkpt>
      <trkpt lat="47.70297" lon="-2.30285">
        <ele>71.3</ele>
        <time>2021-05-27T12:42:57Z</time>
      </trkpt>
      <trkpt lat="47.70295" lon="-2.30284">
        <ele>71.3</ele>
        <time>2021-05-27T12:42:58Z</time>
      </trkpt>
      <trkpt lat="47.70293" lon="-2.30282">
        <ele>71.3</ele>
        <time>2021-05-27T12:42:59Z</time>
      </trkpt>
      <trkpt lat="47.70291" lon="-2.3028">
        <ele>71.3</ele>
        <time>2021-05-27T12:43:00Z</time>
      </trkpt>
      <trkpt lat="47.70288" lon="-2.30277">
        <ele>71.4</ele>
        <time>2021-05-27T12:43:01Z</time>
      </trkpt>
      <trkpt lat="47.70287" lon="-2.30276">
        <ele>71.4</ele>
        <time>2021-05-27T12:43:02Z</time>
      </trkpt>
      <trkpt lat="47.70284" lon="-2.30276">
        <ele>71.6</ele>
        <time>2021-05-27T12:43:03Z</time>
      </trkpt>
      <trkpt lat="47.70282" lon="-2.30276">
        <ele>71.8</ele>
        <time>2021-05-27T12:43:04Z</time>
      </trkpt>
      <trkpt lat="47.7028" lon="-2.30276">
        <ele>71.9</ele>
        <time>2021-05-27T12:43:05Z</time>
      </trkpt>
      <trkpt lat="47.70278" lon="-2.30276">
        <ele>72</ele>
        <time>2021-05-27T12:43:06Z</time>
      </trkpt>
      <trkpt lat="47.70277" lon="-2.30276">
        <ele>72.1</ele>
        <time>2021-05-27T12:43:07Z</time>
      </trkpt>
      <trkpt lat="47.70275" lon="-2.30276">
        <ele>72.2</ele>
        <time>2021-05-27T12:43:08Z</time>
      </trkpt>
      <trkpt lat="47.70274" lon="-2.30276">
        <ele>72.3</ele>
        <time>2021-05-27T12:43:09Z</time>
      </trkpt>
      <trkpt lat="47.70273" lon="-2.30277">
        <ele>72.4</ele>
        <time>2021-05-27T12:43:10Z</time>
      </trkpt>
      <trkpt lat="47.70272" lon="-2.30278">
        <ele>72.5</ele>
        <time>2021-05-27T12:43:11Z</time>
      </trkpt>
      <trkpt lat="47.70271" lon="-2.3028">
        <ele>72.7</ele>
        <time>2021-05-27T12:43:12Z</time>
      </trkpt>
      <trkpt lat="47.7027" lon="-2.30282">
        <ele>72.8</ele>
        <time>2021-05-27T12:43:13Z</time>
      </trkpt>
      <trkpt lat="47.70268" lon="-2.30283">
        <ele>73</ele>
        <time>2021-05-27T12:43:14Z</time>
      </trkpt>
      <trkpt lat="47.70267" lon="-2.30283">
        <ele>73.1</ele>
        <time>2021-05-27T12:43:15Z</time>
      </trkpt>
      <trkpt lat="47.70265" lon="-2.30282">
        <ele>73.1</ele>
        <time>2021-05-27T12:43:16Z</time>
      </trkpt>
      <trkpt lat="47.70263" lon="-2.30281">
        <ele>73.2</ele>
        <time>2021-05-27T12:43:17Z</time>
      </trkpt>
      <trkpt lat="47.70262" lon="-2.30281">
        <ele>73.3</ele>
        <time>2021-05-27T12:43:18Z</time>
      </trkpt>
      <trkpt lat="47.70261" lon="-2.30281">
        <ele>73.4</ele>
        <time>2021-05-27T12:43:19Z</time>
      </trkpt>
      <trkpt lat="47.70259" lon="-2.3028">
        <ele>73.5</ele>
        <time>2021-05-27T12:43:20Z</time>
      </trkpt>
      <trkpt lat="47.70258" lon="-2.3028">
        <ele>73.6</ele>
        <time>2021-05-27T12:43:21Z</time>
      </trkpt>
      <trkpt lat="47.70257" lon="-2.30279">
        <ele>73.6</ele>
        <time>2021-05-27T12:43:22Z</time>
      </trkpt>
      <trkpt lat="47.70257" lon="-2.30279">
        <ele>73.6</ele>
        <time>2021-05-27T12:43:23Z</time>
      </trkpt>
      <trkpt lat="47.70257" lon="-2.30279">
        <ele>73.6</ele>
        <time>2021-05-27T12:43:24Z</time>
      </trkpt>
      <trkpt lat="47.70257" lon="-2.30279">
        <ele>73.6</ele>
        <time>2021-05-27T12:43:25Z</time>
      </trkpt>
      <trkpt lat="47.70257" lon="-2.30279">
        <ele>73.6</ele>
        <time>2021-05-27T12:43:26Z</time>
      </trkpt>
      <trkpt lat="47.70257" lon="-2.30279">
        <ele>73.6</ele>
        <time>2021-05-27T12:43:27Z</time>
      </trkpt>
      <trkpt lat="47.70257" lon="-2.30279">
        <ele>73.6</ele>
        <time>2021-05-27T12:43:28Z</time>
      </trkpt>
      <trkpt lat="47.70257" lon="-2.30279">
        <ele>73.6</ele>
        <time>2021-05-27T12:43:29Z</time>
      </trkpt>
      <trkpt lat="47.70255" lon="-2.30281">
        <ele>73.8</ele>
        <time>2021-05-27T12:43:30Z</time>
      </trkpt>
      <trkpt lat="47.70252" lon="-2.30283">
        <ele>74.1</ele>
        <time>2021-05-27T12:43:31Z</time>
      </trkpt>
      <trkpt lat="47.7025" lon="-2.30286">
        <ele>74.3</ele>
        <time>2021-05-27T12:43:32Z</time>
      </trkpt>
      <trkpt lat="47.70247" lon="-2.30288">
        <ele>74.4</ele>
        <time>2021-05-27T12:43:33Z</time>
      </trkpt>
      <trkpt lat="47.70244" lon="-2.30291">
        <ele>74.5</ele>
        <time>2021-05-27T12:43:34Z</time>
      </trkpt>
      <trkpt lat="47.70243" lon="-2.30294">
        <ele>74.5</ele>
        <time>2021-05-27T12:43:35Z</time>
      </trkpt>
      <trkpt lat="47.70241" lon="-2.30297">
        <ele>74.6</ele>
        <time>2021-05-27T12:43:36Z</time>
      </trkpt>
      <trkpt lat="47.70239" lon="-2.303">
        <ele>74.7</ele>
        <time>2021-05-27T12:43:37Z</time>
      </trkpt>
      <trkpt lat="47.70238" lon="-2.30302">
        <ele>74.8</ele>
        <time>2021-05-27T12:43:38Z</time>
      </trkpt>
      <trkpt lat="47.70236" lon="-2.30305">
        <ele>74.9</ele>
        <time>2021-05-27T12:43:39Z</time>
      </trkpt>
      <trkpt lat="47.70235" lon="-2.30308">
        <ele>75</ele>
        <time>2021-05-27T12:43:40Z</time>
      </trkpt>
      <trkpt lat="47.70234" lon="-2.30312">
        <ele>75.1</ele>
        <time>2021-05-27T12:43:41Z</time>
      </trkpt>
      <trkpt lat="47.70233" lon="-2.30316">
        <ele>75.2</ele>
        <time>2021-05-27T12:43:42Z</time>
      </trkpt>
      <trkpt lat="47.70231" lon="-2.30318">
        <ele>75.3</ele>
        <time>2021-05-27T12:43:43Z</time>
      </trkpt>
      <trkpt lat="47.7023" lon="-2.3032">
        <ele>75.3</ele>
        <time>2021-05-27T12:43:44Z</time>
      </trkpt>
      <trkpt lat="47.70227" lon="-2.30321">
        <ele>75.3</ele>
        <time>2021-05-27T12:43:45Z</time>
      </trkpt>
      <trkpt lat="47.70225" lon="-2.30322">
        <ele>75.3</ele>
        <time>2021-05-27T12:43:46Z</time>
      </trkpt>
      <trkpt lat="47.70223" lon="-2.30326">
        <ele>75.4</ele>
        <time>2021-05-27T12:43:47Z</time>
      </trkpt>
      <trkpt lat="47.7022" lon="-2.30333">
        <ele>75.6</ele>
        <time>2021-05-27T12:43:48Z</time>
      </trkpt>
      <trkpt lat="47.7022" lon="-2.30339">
        <ele>75.7</ele>
        <time>2021-05-27T12:43:49Z</time>
      </trkpt>
      <trkpt lat="47.70219" lon="-2.30344">
        <ele>75.7</ele>
        <time>2021-05-27T12:43:50Z</time>
      </trkpt>
      <trkpt lat="47.70218" lon="-2.30348">
        <ele>75.7</ele>
        <time>2021-05-27T12:43:51Z</time>
      </trkpt>
      <trkpt lat="47.70218" lon="-2.30353">
        <ele>75.8</ele>
        <time>2021-05-27T12:43:52Z</time>
      </trkpt>
      <trkpt lat="47.70218" lon="-2.30358">
        <ele>75.8</ele>
        <time>2021-05-27T12:43:53Z</time>
      </trkpt>
      <trkpt lat="47.70218" lon="-2.30363">
        <ele>75.8</ele>
        <time>2021-05-27T12:43:54Z</time>
      </trkpt>
      <trkpt lat="47.70217" lon="-2.30367">
        <ele>75.8</ele>
        <time>2021-05-27T12:43:55Z</time>
      </trkpt>
      <trkpt lat="47.70215" lon="-2.3037">
        <ele>75.8</ele>
        <time>2021-05-27T12:43:56Z</time>
      </trkpt>
      <trkpt lat="47.70214" lon="-2.30374">
        <ele>75.8</ele>
        <time>2021-05-27T12:43:57Z</time>
      </trkpt>
      <trkpt lat="47.70212" lon="-2.30379">
        <ele>75.8</ele>
        <time>2021-05-27T12:43:58Z</time>
      </trkpt>
      <trkpt lat="47.7021" lon="-2.30382">
        <ele>75.8</ele>
        <time>2021-05-27T12:43:59Z</time>
      </trkpt>
      <trkpt lat="47.70208" lon="-2.30385">
        <ele>75.8</ele>
        <time>2021-05-27T12:44:00Z</time>
      </trkpt>
      <trkpt lat="47.70206" lon="-2.30387">
        <ele>75.8</ele>
        <time>2021-05-27T12:44:01Z</time>
      </trkpt>
      <trkpt lat="47.70203" lon="-2.30389">
        <ele>75.7</ele>
        <time>2021-05-27T12:44:02Z</time>
      </trkpt>
      <trkpt lat="47.70199" lon="-2.30391">
        <ele>75.6</ele>
        <time>2021-05-27T12:44:03Z</time>
      </trkpt>
      <trkpt lat="47.70196" lon="-2.30392">
        <ele>75.6</ele>
        <time>2021-05-27T12:44:04Z</time>
      </trkpt>
      <trkpt lat="47.70193" lon="-2.30393">
        <ele>75.5</ele>
        <time>2021-05-27T12:44:05Z</time>
      </trkpt>
      <trkpt lat="47.70191" lon="-2.30395">
        <ele>75.5</ele>
        <time>2021-05-27T12:44:06Z</time>
      </trkpt>
      <trkpt lat="47.70191" lon="-2.30395">
        <ele>75.5</ele>
        <time>2021-05-27T12:44:07Z</time>
      </trkpt>
      <trkpt lat="47.70191" lon="-2.30395">
        <ele>75.5</ele>
        <time>2021-05-27T12:44:08Z</time>
      </trkpt>
      <trkpt lat="47.70184" lon="-2.30397">
        <ele>75.4</ele>
        <time>2021-05-27T12:44:34Z</time>
      </trkpt>
      <trkpt lat="47.70184" lon="-2.30399">
        <ele>75.4</ele>
        <time>2021-05-27T12:44:35Z</time>
      </trkpt>
      <trkpt lat="47.70184" lon="-2.30402">
        <ele>75.4</ele>
        <time>2021-05-27T12:44:36Z</time>
      </trkpt>
      <trkpt lat="47.70184" lon="-2.30405">
        <ele>75.4</ele>
        <time>2021-05-27T12:44:37Z</time>
      </trkpt>
      <trkpt lat="47.70183" lon="-2.30409">
        <ele>75.4</ele>
        <time>2021-05-27T12:44:38Z</time>
      </trkpt>
      <trkpt lat="47.70181" lon="-2.30413">
        <ele>75.3</ele>
        <time>2021-05-27T12:44:39Z</time>
      </trkpt>
      <trkpt lat="47.70179" lon="-2.30419">
        <ele>75.3</ele>
        <time>2021-05-27T12:44:40Z</time>
      </trkpt>
      <trkpt lat="47.70177" lon="-2.30425">
        <ele>75.4</ele>
        <time>2021-05-27T12:44:41Z</time>
      </trkpt>
      <trkpt lat="47.70175" lon="-2.3043">
        <ele>75.5</ele>
        <time>2021-05-27T12:44:42Z</time>
      </trkpt>
      <trkpt lat="47.70173" lon="-2.30436">
        <ele>75.6</ele>
        <time>2021-05-27T12:44:43Z</time>
      </trkpt>
      <trkpt lat="47.70171" lon="-2.30442">
        <ele>75.7</ele>
        <time>2021-05-27T12:44:44Z</time>
      </trkpt>
      <trkpt lat="47.70169" lon="-2.30449">
        <ele>75.8</ele>
        <time>2021-05-27T12:44:45Z</time>
      </trkpt>
      <trkpt lat="47.70167" lon="-2.30455">
        <ele>75.9</ele>
        <time>2021-05-27T12:44:46Z</time>
      </trkpt>
      <trkpt lat="47.70164" lon="-2.30461">
        <ele>76</ele>
        <time>2021-05-27T12:44:47Z</time>
      </trkpt>
      <trkpt lat="47.70162" lon="-2.30468">
        <ele>76.2</ele>
        <time>2021-05-27T12:44:48Z</time>
      </trkpt>
      <trkpt lat="47.70158" lon="-2.30475">
        <ele>76.3</ele>
        <time>2021-05-27T12:44:49Z</time>
      </trkpt>
      <trkpt lat="47.70156" lon="-2.30482">
        <ele>76.5</ele>
        <time>2021-05-27T12:44:50Z</time>
      </trkpt>
      <trkpt lat="47.70153" lon="-2.3049">
        <ele>76.6</ele>
        <time>2021-05-27T12:44:51Z</time>
      </trkpt>
      <trkpt lat="47.70151" lon="-2.30498">
        <ele>76.8</ele>
        <time>2021-05-27T12:44:52Z</time>
      </trkpt>
      <trkpt lat="47.70149" lon="-2.30505">
        <ele>76.8</ele>
        <time>2021-05-27T12:44:53Z</time>
      </trkpt>
      <trkpt lat="47.70147" lon="-2.30513">
        <ele>76.9</ele>
        <time>2021-05-27T12:44:54Z</time>
      </trkpt>
      <trkpt lat="47.70145" lon="-2.30521">
        <ele>77</ele>
        <time>2021-05-27T12:44:55Z</time>
      </trkpt>
      <trkpt lat="47.70143" lon="-2.30528">
        <ele>77</ele>
        <time>2021-05-27T12:44:56Z</time>
      </trkpt>
      <trkpt lat="47.7014" lon="-2.30535">
        <ele>77.1</ele>
        <time>2021-05-27T12:44:57Z</time>
      </trkpt>
      <trkpt lat="47.70137" lon="-2.30543">
        <ele>77.2</ele>
        <time>2021-05-27T12:44:58Z</time>
      </trkpt>
      <trkpt lat="47.70135" lon="-2.3055">
        <ele>77.2</ele>
        <time>2021-05-27T12:44:59Z</time>
      </trkpt>
      <trkpt lat="47.70133" lon="-2.30557">
        <ele>77.3</ele>
        <time>2021-05-27T12:45:00Z</time>
      </trkpt>
      <trkpt lat="47.7013" lon="-2.30565">
        <ele>77.3</ele>
        <time>2021-05-27T12:45:01Z</time>
      </trkpt>
      <trkpt lat="47.70126" lon="-2.30573">
        <ele>77.4</ele>
        <time>2021-05-27T12:45:02Z</time>
      </trkpt>
      <trkpt lat="47.70123" lon="-2.3058">
        <ele>77.4</ele>
        <time>2021-05-27T12:45:03Z</time>
      </trkpt>
      <trkpt lat="47.70121" lon="-2.30588">
        <ele>77.4</ele>
        <time>2021-05-27T12:45:04Z</time>
      </trkpt>
      <trkpt lat="47.70118" lon="-2.30596">
        <ele>77.4</ele>
        <time>2021-05-27T12:45:05Z</time>
      </trkpt>
      <trkpt lat="47.70115" lon="-2.30604">
        <ele>77.3</ele>
        <time>2021-05-27T12:45:06Z</time>
      </trkpt>
      <trkpt lat="47.70112" lon="-2.30612">
        <ele>77.2</ele>
        <time>2021-05-27T12:45:07Z</time>
      </trkpt>
      <trkpt lat="47.70109" lon="-2.3062">
        <ele>77.2</ele>
        <time>2021-05-27T12:45:08Z</time>
      </trkpt>
      <trkpt lat="47.70107" lon="-2.30628">
        <ele>77.1</ele>
        <time>2021-05-27T12:45:09Z</time>
      </trkpt>
      <trkpt lat="47.70104" lon="-2.30636">
        <ele>77.1</ele>
        <time>2021-05-27T12:45:10Z</time>
      </trkpt>
      <trkpt lat="47.70102" lon="-2.30644">
        <ele>77.1</ele>
        <time>2021-05-27T12:45:11Z</time>
      </trkpt>
      <trkpt lat="47.70099" lon="-2.30652">
        <ele>77</ele>
        <time>2021-05-27T12:45:12Z</time>
      </trkpt>
      <trkpt lat="47.70096" lon="-2.3066">
        <ele>77</ele>
        <time>2021-05-27T12:45:13Z</time>
      </trkpt>
      <trkpt lat="47.70094" lon="-2.30667">
        <ele>77</ele>
        <time>2021-05-27T12:45:14Z</time>
      </trkpt>
      <trkpt lat="47.70091" lon="-2.30675">
        <ele>77.2</ele>
        <time>2021-05-27T12:45:15Z</time>
      </trkpt>
      <trkpt lat="47.70088" lon="-2.30682">
        <ele>77.4</ele>
        <time>2021-05-27T12:45:16Z</time>
      </trkpt>
      <trkpt lat="47.70085" lon="-2.30689">
        <ele>77.5</ele>
        <time>2021-05-27T12:45:17Z</time>
      </trkpt>
      <trkpt lat="47.70081" lon="-2.30695">
        <ele>77.5</ele>
        <time>2021-05-27T12:45:18Z</time>
      </trkpt>
      <trkpt lat="47.70078" lon="-2.30702">
        <ele>77.4</ele>
        <time>2021-05-27T12:45:19Z</time>
      </trkpt>
      <trkpt lat="47.70074" lon="-2.30707">
        <ele>77.2</ele>
        <time>2021-05-27T12:45:20Z</time>
      </trkpt>
      <trkpt lat="47.7007" lon="-2.30714">
        <ele>77.1</ele>
        <time>2021-05-27T12:45:21Z</time>
      </trkpt>
      <trkpt lat="47.70067" lon="-2.30721">
        <ele>77</ele>
        <time>2021-05-27T12:45:22Z</time>
      </trkpt>
      <trkpt lat="47.70064" lon="-2.30728">
        <ele>77</ele>
        <time>2021-05-27T12:45:23Z</time>
      </trkpt>
      <trkpt lat="47.70061" lon="-2.30732">
        <ele>76.9</ele>
        <time>2021-05-27T12:45:24Z</time>
      </trkpt>
      <trkpt lat="47.70058" lon="-2.30733">
        <ele>76.7</ele>
        <time>2021-05-27T12:45:25Z</time>
      </trkpt>
      <trkpt lat="47.70057" lon="-2.30731">
        <ele>76.6</ele>
        <time>2021-05-27T12:45:26Z</time>
      </trkpt>
      <trkpt lat="47.70057" lon="-2.30729">
        <ele>76.5</ele>
        <time>2021-05-27T12:45:27Z</time>
      </trkpt>
      <trkpt lat="47.70056" lon="-2.30726">
        <ele>76.4</ele>
        <time>2021-05-27T12:45:28Z</time>
      </trkpt>
      <trkpt lat="47.70056" lon="-2.30723">
        <ele>76.3</ele>
        <time>2021-05-27T12:45:29Z</time>
      </trkpt>
      <trkpt lat="47.70058" lon="-2.30719">
        <ele>76.3</ele>
        <time>2021-05-27T12:45:30Z</time>
      </trkpt>
      <trkpt lat="47.70059" lon="-2.30714">
        <ele>76.3</ele>
        <time>2021-05-27T12:45:31Z</time>
      </trkpt>
      <trkpt lat="47.7006" lon="-2.30709">
        <ele>76.2</ele>
        <time>2021-05-27T12:45:32Z</time>
      </trkpt>
      <trkpt lat="47.70062" lon="-2.30703">
        <ele>76.2</ele>
        <time>2021-05-27T12:45:33Z</time>
      </trkpt>
      <trkpt lat="47.70064" lon="-2.30698">
        <ele>76.2</ele>
        <time>2021-05-27T12:45:34Z</time>
      </trkpt>
      <trkpt lat="47.70065" lon="-2.30691">
        <ele>76.1</ele>
        <time>2021-05-27T12:45:35Z</time>
      </trkpt>
      <trkpt lat="47.70065" lon="-2.30683">
        <ele>75.9</ele>
        <time>2021-05-27T12:45:36Z</time>
      </trkpt>
      <trkpt lat="47.70066" lon="-2.30675">
        <ele>75.8</ele>
        <time>2021-05-27T12:45:37Z</time>
      </trkpt>
      <trkpt lat="47.70068" lon="-2.30668">
        <ele>75.8</ele>
        <time>2021-05-27T12:45:38Z</time>
      </trkpt>
      <trkpt lat="47.70069" lon="-2.30662">
        <ele>75.8</ele>
        <time>2021-05-27T12:45:39Z</time>
      </trkpt>
      <trkpt lat="47.7007" lon="-2.30655">
        <ele>75.9</ele>
        <time>2021-05-27T12:45:40Z</time>
      </trkpt>
      <trkpt lat="47.70072" lon="-2.3065">
        <ele>76.1</ele>
        <time>2021-05-27T12:45:41Z</time>
      </trkpt>
      <trkpt lat="47.70073" lon="-2.30645">
        <ele>76.2</ele>
        <time>2021-05-27T12:45:42Z</time>
      </trkpt>
      <trkpt lat="47.70074" lon="-2.3064">
        <ele>76.2</ele>
        <time>2021-05-27T12:45:43Z</time>
      </trkpt>
      <trkpt lat="47.70074" lon="-2.30635">
        <ele>76.3</ele>
        <time>2021-05-27T12:45:44Z</time>
      </trkpt>
      <trkpt lat="47.70075" lon="-2.30629">
        <ele>76.3</ele>
        <time>2021-05-27T12:45:45Z</time>
      </trkpt>
      <trkpt lat="47.70075" lon="-2.30622">
        <ele>76.4</ele>
        <time>2021-05-27T12:45:46Z</time>
      </trkpt>
      <trkpt lat="47.70075" lon="-2.30615">
        <ele>76.4</ele>
        <time>2021-05-27T12:45:47Z</time>
      </trkpt>
      <trkpt lat="47.70075" lon="-2.30608">
        <ele>76.4</ele>
        <time>2021-05-27T12:45:48Z</time>
      </trkpt>
      <trkpt lat="47.70075" lon="-2.30601">
        <ele>76.4</ele>
        <time>2021-05-27T12:45:49Z</time>
      </trkpt>
      <trkpt lat="47.70076" lon="-2.30594">
        <ele>76.4</ele>
        <time>2021-05-27T12:45:50Z</time>
      </trkpt>
      <trkpt lat="47.70076" lon="-2.30587">
        <ele>76.5</ele>
        <time>2021-05-27T12:45:51Z</time>
      </trkpt>
      <trkpt lat="47.70077" lon="-2.30581">
        <ele>76.5</ele>
        <time>2021-05-27T12:45:52Z</time>
      </trkpt>
      <trkpt lat="47.70077" lon="-2.30573">
        <ele>76.4</ele>
        <time>2021-05-27T12:45:53Z</time>
      </trkpt>
      <trkpt lat="47.70077" lon="-2.30564">
        <ele>76.4</ele>
        <time>2021-05-27T12:45:54Z</time>
      </trkpt>
      <trkpt lat="47.70077" lon="-2.30557">
        <ele>76.3</ele>
        <time>2021-05-27T12:45:55Z</time>
      </trkpt>
      <trkpt lat="47.70078" lon="-2.30549">
        <ele>76.2</ele>
        <time>2021-05-27T12:45:56Z</time>
      </trkpt>
      <trkpt lat="47.70078" lon="-2.30542">
        <ele>76.2</ele>
        <time>2021-05-27T12:45:57Z</time>
      </trkpt>
      <trkpt lat="47.70079" lon="-2.30535">
        <ele>76.2</ele>
        <time>2021-05-27T12:45:58Z</time>
      </trkpt>
      <trkpt lat="47.7008" lon="-2.30529">
        <ele>76.1</ele>
        <time>2021-05-27T12:45:59Z</time>
      </trkpt>
      <trkpt lat="47.70082" lon="-2.30523">
        <ele>76.2</ele>
        <time>2021-05-27T12:46:00Z</time>
      </trkpt>
      <trkpt lat="47.70083" lon="-2.30517">
        <ele>76.2</ele>
        <time>2021-05-27T12:46:01Z</time>
      </trkpt>
      <trkpt lat="47.70085" lon="-2.30511">
        <ele>76.1</ele>
        <time>2021-05-27T12:46:02Z</time>
      </trkpt>
      <trkpt lat="47.70088" lon="-2.30504">
        <ele>76.1</ele>
        <time>2021-05-27T12:46:03Z</time>
      </trkpt>
      <trkpt lat="47.7009" lon="-2.30497">
        <ele>76</ele>
        <time>2021-05-27T12:46:04Z</time>
      </trkpt>
      <trkpt lat="47.70091" lon="-2.30489">
        <ele>76</ele>
        <time>2021-05-27T12:46:05Z</time>
      </trkpt>
      <trkpt lat="47.70092" lon="-2.30481">
        <ele>75.9</ele>
        <time>2021-05-27T12:46:06Z</time>
      </trkpt>
      <trkpt lat="47.70094" lon="-2.30473">
        <ele>75.8</ele>
        <time>2021-05-27T12:46:07Z</time>
      </trkpt>
      <trkpt lat="47.70095" lon="-2.30464">
        <ele>75.6</ele>
        <time>2021-05-27T12:46:08Z</time>
      </trkpt>
      <trkpt lat="47.70096" lon="-2.30456">
        <ele>75.5</ele>
        <time>2021-05-27T12:46:09Z</time>
      </trkpt>
      <trkpt lat="47.70096" lon="-2.30449">
        <ele>75.4</ele>
        <time>2021-05-27T12:46:10Z</time>
      </trkpt>
      <trkpt lat="47.70096" lon="-2.30442">
        <ele>75.4</ele>
        <time>2021-05-27T12:46:11Z</time>
      </trkpt>
      <trkpt lat="47.70097" lon="-2.30436">
        <ele>75.3</ele>
        <time>2021-05-27T12:46:12Z</time>
      </trkpt>
      <trkpt lat="47.70097" lon="-2.3043">
        <ele>75.2</ele>
        <time>2021-05-27T12:46:13Z</time>
      </trkpt>
      <trkpt lat="47.70098" lon="-2.30426">
        <ele>75.1</ele>
        <time>2021-05-27T12:46:14Z</time>
      </trkpt>
      <trkpt lat="47.701" lon="-2.30422">
        <ele>75.1</ele>
        <time>2021-05-27T12:46:15Z</time>
      </trkpt>
      <trkpt lat="47.701" lon="-2.30417">
        <ele>75</ele>
        <time>2021-05-27T12:46:16Z</time>
      </trkpt>
      <trkpt lat="47.70102" lon="-2.30415">
        <ele>75</ele>
        <time>2021-05-27T12:46:17Z</time>
      </trkpt>
      <trkpt lat="47.70104" lon="-2.30412">
        <ele>74.9</ele>
        <time>2021-05-27T12:46:18Z</time>
      </trkpt>
      <trkpt lat="47.70106" lon="-2.30407">
        <ele>74.8</ele>
        <time>2021-05-27T12:46:19Z</time>
      </trkpt>
      <trkpt lat="47.70107" lon="-2.30401">
        <ele>74.6</ele>
        <time>2021-05-27T12:46:20Z</time>
      </trkpt>
      <trkpt lat="47.70106" lon="-2.30393">
        <ele>74.4</ele>
        <time>2021-05-27T12:46:21Z</time>
      </trkpt>
      <trkpt lat="47.70107" lon="-2.30385">
        <ele>74.2</ele>
        <time>2021-05-27T12:46:22Z</time>
      </trkpt>
      <trkpt lat="47.70108" lon="-2.30378">
        <ele>74</ele>
        <time>2021-05-27T12:46:23Z</time>
      </trkpt>
      <trkpt lat="47.70109" lon="-2.3037">
        <ele>73.8</ele>
        <time>2021-05-27T12:46:24Z</time>
      </trkpt>
      <trkpt lat="47.70111" lon="-2.30363">
        <ele>73.7</ele>
        <time>2021-05-27T12:46:25Z</time>
      </trkpt>
      <trkpt lat="47.70112" lon="-2.30355">
        <ele>73.5</ele>
        <time>2021-05-27T12:46:26Z</time>
      </trkpt>
      <trkpt lat="47.70112" lon="-2.30347">
        <ele>73.4</ele>
        <time>2021-05-27T12:46:27Z</time>
      </trkpt>
      <trkpt lat="47.70113" lon="-2.30339">
        <ele>73.2</ele>
        <time>2021-05-27T12:46:28Z</time>
      </trkpt>
      <trkpt lat="47.70114" lon="-2.30332">
        <ele>73.1</ele>
        <time>2021-05-27T12:46:29Z</time>
      </trkpt>
      <trkpt lat="47.70115" lon="-2.30324">
        <ele>73.2</ele>
        <time>2021-05-27T12:46:30Z</time>
      </trkpt>
      <trkpt lat="47.70117" lon="-2.30317">
        <ele>73.3</ele>
        <time>2021-05-27T12:46:31Z</time>
      </trkpt>
      <trkpt lat="47.70118" lon="-2.30309">
        <ele>73.3</ele>
        <time>2021-05-27T12:46:32Z</time>
      </trkpt>
      <trkpt lat="47.7012" lon="-2.30302">
        <ele>73.4</ele>
        <time>2021-05-27T12:46:33Z</time>
      </trkpt>
      <trkpt lat="47.70121" lon="-2.30294">
        <ele>73.4</ele>
        <time>2021-05-27T12:46:34Z</time>
      </trkpt>
      <trkpt lat="47.7012" lon="-2.30283">
        <ele>73.5</ele>
        <time>2021-05-27T12:46:35Z</time>
      </trkpt>
      <trkpt lat="47.7012" lon="-2.30275">
        <ele>73.5</ele>
        <time>2021-05-27T12:46:36Z</time>
      </trkpt>
      <trkpt lat="47.70118" lon="-2.30266">
        <ele>73.5</ele>
        <time>2021-05-27T12:46:37Z</time>
      </trkpt>
      <trkpt lat="47.70117" lon="-2.30256">
        <ele>73.6</ele>
        <time>2021-05-27T12:46:38Z</time>
      </trkpt>
      <trkpt lat="47.70117" lon="-2.30248">
        <ele>73.6</ele>
        <time>2021-05-27T12:46:39Z</time>
      </trkpt>
      <trkpt lat="47.70117" lon="-2.30239">
        <ele>73.7</ele>
        <time>2021-05-27T12:46:40Z</time>
      </trkpt>
      <trkpt lat="47.70117" lon="-2.30232">
        <ele>73.8</ele>
        <time>2021-05-27T12:46:41Z</time>
      </trkpt>
      <trkpt lat="47.70117" lon="-2.30224">
        <ele>73.8</ele>
        <time>2021-05-27T12:46:42Z</time>
      </trkpt>
      <trkpt lat="47.70117" lon="-2.30217">
        <ele>73.9</ele>
        <time>2021-05-27T12:46:43Z</time>
      </trkpt>
      <trkpt lat="47.70118" lon="-2.3021">
        <ele>74</ele>
        <time>2021-05-27T12:46:44Z</time>
      </trkpt>
      <trkpt lat="47.70118" lon="-2.30205">
        <ele>74</ele>
        <time>2021-05-27T12:46:45Z</time>
      </trkpt>
      <trkpt lat="47.70117" lon="-2.30199">
        <ele>74.1</ele>
        <time>2021-05-27T12:46:46Z</time>
      </trkpt>
      <trkpt lat="47.70116" lon="-2.30192">
        <ele>74.2</ele>
        <time>2021-05-27T12:46:47Z</time>
      </trkpt>
      <trkpt lat="47.70116" lon="-2.30185">
        <ele>74.2</ele>
        <time>2021-05-27T12:46:48Z</time>
      </trkpt>
      <trkpt lat="47.70116" lon="-2.30177">
        <ele>74.3</ele>
        <time>2021-05-27T12:46:49Z</time>
      </trkpt>
      <trkpt lat="47.70116" lon="-2.30169">
        <ele>74.4</ele>
        <time>2021-05-27T12:46:50Z</time>
      </trkpt>
      <trkpt lat="47.70116" lon="-2.30162">
        <ele>74.4</ele>
        <time>2021-05-27T12:46:51Z</time>
      </trkpt>
      <trkpt lat="47.70116" lon="-2.30155">
        <ele>74.3</ele>
        <time>2021-05-27T12:46:52Z</time>
      </trkpt>
      <trkpt lat="47.70116" lon="-2.30148">
        <ele>74.3</ele>
        <time>2021-05-27T12:46:53Z</time>
      </trkpt>
      <trkpt lat="47.70116" lon="-2.30141">
        <ele>74.3</ele>
        <time>2021-05-27T12:46:54Z</time>
      </trkpt>
      <trkpt lat="47.70116" lon="-2.30134">
        <ele>74.2</ele>
        <time>2021-05-27T12:46:55Z</time>
      </trkpt>
      <trkpt lat="47.70115" lon="-2.30128">
        <ele>74.2</ele>
        <time>2021-05-27T12:46:56Z</time>
      </trkpt>
      <trkpt lat="47.70116" lon="-2.3012">
        <ele>74.2</ele>
        <time>2021-05-27T12:46:57Z</time>
      </trkpt>
      <trkpt lat="47.70117" lon="-2.30115">
        <ele>74.2</ele>
        <time>2021-05-27T12:46:58Z</time>
      </trkpt>
      <trkpt lat="47.70117" lon="-2.3011">
        <ele>74.1</ele>
        <time>2021-05-27T12:46:59Z</time>
      </trkpt>
      <trkpt lat="47.70119" lon="-2.30107">
        <ele>74.1</ele>
        <time>2021-05-27T12:47:00Z</time>
      </trkpt>
      <trkpt lat="47.70121" lon="-2.30104">
        <ele>74.1</ele>
        <time>2021-05-27T12:47:01Z</time>
      </trkpt>
      <trkpt lat="47.70122" lon="-2.30101">
        <ele>74.1</ele>
        <time>2021-05-27T12:47:02Z</time>
      </trkpt>
      <trkpt lat="47.70121" lon="-2.30098">
        <ele>74.1</ele>
        <time>2021-05-27T12:47:03Z</time>
      </trkpt>
      <trkpt lat="47.70121" lon="-2.30096">
        <ele>74.1</ele>
        <time>2021-05-27T12:47:04Z</time>
      </trkpt>
      <trkpt lat="47.70121" lon="-2.30093">
        <ele>74.1</ele>
        <time>2021-05-27T12:47:05Z</time>
      </trkpt>
      <trkpt lat="47.70122" lon="-2.30089">
        <ele>74</ele>
        <time>2021-05-27T12:47:06Z</time>
      </trkpt>
      <trkpt lat="47.70121" lon="-2.30085">
        <ele>74</ele>
        <time>2021-05-27T12:47:07Z</time>
      </trkpt>
      <trkpt lat="47.70122" lon="-2.30081">
        <ele>74</ele>
        <time>2021-05-27T12:47:08Z</time>
      </trkpt>
      <trkpt lat="47.70121" lon="-2.30076">
        <ele>73.9</ele>
        <time>2021-05-27T12:47:09Z</time>
      </trkpt>
      <trkpt lat="47.70121" lon="-2.30071">
        <ele>73.9</ele>
        <time>2021-05-27T12:47:10Z</time>
      </trkpt>
      <trkpt lat="47.70121" lon="-2.30066">
        <ele>73.9</ele>
        <time>2021-05-27T12:47:11Z</time>
      </trkpt>
      <trkpt lat="47.70121" lon="-2.3006">
        <ele>73.8</ele>
        <time>2021-05-27T12:47:12Z</time>
      </trkpt>
      <trkpt lat="47.70121" lon="-2.30054">
        <ele>73.8</ele>
        <time>2021-05-27T12:47:13Z</time>
      </trkpt>
      <trkpt lat="47.70121" lon="-2.30048">
        <ele>73.7</ele>
        <time>2021-05-27T12:47:14Z</time>
      </trkpt>
      <trkpt lat="47.70121" lon="-2.30042">
        <ele>73.7</ele>
        <time>2021-05-27T12:47:15Z</time>
      </trkpt>
      <trkpt lat="47.7012" lon="-2.30035">
        <ele>73.6</ele>
        <time>2021-05-27T12:47:16Z</time>
      </trkpt>
      <trkpt lat="47.70118" lon="-2.30028">
        <ele>73.5</ele>
        <time>2021-05-27T12:47:17Z</time>
      </trkpt>
      <trkpt lat="47.70117" lon="-2.30023">
        <ele>73.4</ele>
        <time>2021-05-27T12:47:18Z</time>
      </trkpt>
      <trkpt lat="47.70117" lon="-2.30018">
        <ele>73.4</ele>
        <time>2021-05-27T12:47:19Z</time>
      </trkpt>
      <trkpt lat="47.70119" lon="-2.30014">
        <ele>73.4</ele>
        <time>2021-05-27T12:47:20Z</time>
      </trkpt>
      <trkpt lat="47.70121" lon="-2.30011">
        <ele>73.4</ele>
        <time>2021-05-27T12:47:21Z</time>
      </trkpt>
      <trkpt lat="47.70123" lon="-2.30008">
        <ele>73.5</ele>
        <time>2021-05-27T12:47:22Z</time>
      </trkpt>
      <trkpt lat="47.70125" lon="-2.30006">
        <ele>73.5</ele>
        <time>2021-05-27T12:47:23Z</time>
      </trkpt>
      <trkpt lat="47.70127" lon="-2.30004">
        <ele>73.6</ele>
        <time>2021-05-27T12:47:24Z</time>
      </trkpt>
      <trkpt lat="47.70129" lon="-2.3">
        <ele>73.7</ele>
        <time>2021-05-27T12:47:25Z</time>
      </trkpt>
      <trkpt lat="47.70131" lon="-2.29995">
        <ele>73.8</ele>
        <time>2021-05-27T12:47:26Z</time>
      </trkpt>
      <trkpt lat="47.70132" lon="-2.29989">
        <ele>74.1</ele>
        <time>2021-05-27T12:47:27Z</time>
      </trkpt>
      <trkpt lat="47.70134" lon="-2.29984">
        <ele>74.3</ele>
        <time>2021-05-27T12:47:28Z</time>
      </trkpt>
      <trkpt lat="47.70135" lon="-2.2998">
        <ele>74.5</ele>
        <time>2021-05-27T12:47:29Z</time>
      </trkpt>
      <trkpt lat="47.70136" lon="-2.29976">
        <ele>74.6</ele>
        <time>2021-05-27T12:47:30Z</time>
      </trkpt>
      <trkpt lat="47.70136" lon="-2.29973">
        <ele>74.7</ele>
        <time>2021-05-27T12:47:31Z</time>
      </trkpt>
      <trkpt lat="47.70136" lon="-2.29969">
        <ele>74.8</ele>
        <time>2021-05-27T12:47:32Z</time>
      </trkpt>
      <trkpt lat="47.70137" lon="-2.29965">
        <ele>75</ele>
        <time>2021-05-27T12:47:33Z</time>
      </trkpt>
      <trkpt lat="47.70138" lon="-2.2996">
        <ele>75.2</ele>
        <time>2021-05-27T12:47:34Z</time>
      </trkpt>
      <trkpt lat="47.70139" lon="-2.29956">
        <ele>75.4</ele>
        <time>2021-05-27T12:47:35Z</time>
      </trkpt>
      <trkpt lat="47.70141" lon="-2.29951">
        <ele>75.7</ele>
        <time>2021-05-27T12:47:36Z</time>
      </trkpt>
      <trkpt lat="47.70142" lon="-2.29946">
        <ele>75.9</ele>
        <time>2021-05-27T12:47:37Z</time>
      </trkpt>
      <trkpt lat="47.70142" lon="-2.29941">
        <ele>76.1</ele>
        <time>2021-05-27T12:47:38Z</time>
      </trkpt>
      <trkpt lat="47.70142" lon="-2.29935">
        <ele>76.3</ele>
        <time>2021-05-27T12:47:39Z</time>
      </trkpt>
      <trkpt lat="47.70142" lon="-2.29929">
        <ele>76.5</ele>
        <time>2021-05-27T12:47:40Z</time>
      </trkpt>
      <trkpt lat="47.70142" lon="-2.29923">
        <ele>76.7</ele>
        <time>2021-05-27T12:47:41Z</time>
      </trkpt>
      <trkpt lat="47.70141" lon="-2.29917">
        <ele>76.8</ele>
        <time>2021-05-27T12:47:42Z</time>
      </trkpt>
      <trkpt lat="47.70141" lon="-2.29911">
        <ele>76.9</ele>
        <time>2021-05-27T12:47:43Z</time>
      </trkpt>
      <trkpt lat="47.70142" lon="-2.29904">
        <ele>77</ele>
        <time>2021-05-27T12:47:44Z</time>
      </trkpt>
      <trkpt lat="47.70143" lon="-2.29897">
        <ele>77.1</ele>
        <time>2021-05-27T12:47:45Z</time>
      </trkpt>
      <trkpt lat="47.70142" lon="-2.29891">
        <ele>77.2</ele>
        <time>2021-05-27T12:47:46Z</time>
      </trkpt>
      <trkpt lat="47.70142" lon="-2.29884">
        <ele>77.2</ele>
        <time>2021-05-27T12:47:47Z</time>
      </trkpt>
      <trkpt lat="47.70141" lon="-2.29879">
        <ele>77.2</ele>
        <time>2021-05-27T12:47:48Z</time>
      </trkpt>
      <trkpt lat="47.70141" lon="-2.29873">
        <ele>77.2</ele>
        <time>2021-05-27T12:47:49Z</time>
      </trkpt>
      <trkpt lat="47.7014" lon="-2.29867">
        <ele>77.2</ele>
        <time>2021-05-27T12:47:50Z</time>
      </trkpt>
      <trkpt lat="47.70139" lon="-2.29861">
        <ele>77.1</ele>
        <time>2021-05-27T12:47:51Z</time>
      </trkpt>
      <trkpt lat="47.70138" lon="-2.29854">
        <ele>77.1</ele>
        <time>2021-05-27T12:47:52Z</time>
      </trkpt>
      <trkpt lat="47.70138" lon="-2.29848">
        <ele>77.2</ele>
        <time>2021-05-27T12:47:53Z</time>
      </trkpt>
      <trkpt lat="47.70138" lon="-2.29841">
        <ele>77.2</ele>
        <time>2021-05-27T12:47:54Z</time>
      </trkpt>
      <trkpt lat="47.70138" lon="-2.29835">
        <ele>77.2</ele>
        <time>2021-05-27T12:47:55Z</time>
      </trkpt>
      <trkpt lat="47.70138" lon="-2.29828">
        <ele>77</ele>
        <time>2021-05-27T12:47:56Z</time>
      </trkpt>
      <trkpt lat="47.70138" lon="-2.29822">
        <ele>76.9</ele>
        <time>2021-05-27T12:47:57Z</time>
      </trkpt>
      <trkpt lat="47.70139" lon="-2.29814">
        <ele>76.7</ele>
        <time>2021-05-27T12:47:58Z</time>
      </trkpt>
      <trkpt lat="47.7014" lon="-2.29808">
        <ele>76.5</ele>
        <time>2021-05-27T12:47:59Z</time>
      </trkpt>
      <trkpt lat="47.7014" lon="-2.29801">
        <ele>76.2</ele>
        <time>2021-05-27T12:48:00Z</time>
      </trkpt>
      <trkpt lat="47.7014" lon="-2.29795">
        <ele>76</ele>
        <time>2021-05-27T12:48:01Z</time>
      </trkpt>
      <trkpt lat="47.7014" lon="-2.29788">
        <ele>75.8</ele>
        <time>2021-05-27T12:48:02Z</time>
      </trkpt>
      <trkpt lat="47.7014" lon="-2.29782">
        <ele>75.6</ele>
        <time>2021-05-27T12:48:03Z</time>
      </trkpt>
      <trkpt lat="47.70141" lon="-2.29776">
        <ele>75.4</ele>
        <time>2021-05-27T12:48:04Z</time>
      </trkpt>
      <trkpt lat="47.70141" lon="-2.2977">
        <ele>75.2</ele>
        <time>2021-05-27T12:48:05Z</time>
      </trkpt>
      <trkpt lat="47.70141" lon="-2.29763">
        <ele>75</ele>
        <time>2021-05-27T12:48:06Z</time>
      </trkpt>
      <trkpt lat="47.70142" lon="-2.29757">
        <ele>74.8</ele>
        <time>2021-05-27T12:48:07Z</time>
      </trkpt>
      <trkpt lat="47.70142" lon="-2.29751">
        <ele>74.5</ele>
        <time>2021-05-27T12:48:08Z</time>
      </trkpt>
      <trkpt lat="47.70141" lon="-2.29746">
        <ele>74.3</ele>
        <time>2021-05-27T12:48:09Z</time>
      </trkpt>
      <trkpt lat="47.70138" lon="-2.2974">
        <ele>74</ele>
        <time>2021-05-27T12:48:10Z</time>
      </trkpt>
      <trkpt lat="47.70136" lon="-2.29735">
        <ele>73.8</ele>
        <time>2021-05-27T12:48:11Z</time>
      </trkpt>
      <trkpt lat="47.70135" lon="-2.29729">
        <ele>73.6</ele>
        <time>2021-05-27T12:48:12Z</time>
      </trkpt>
      <trkpt lat="47.70135" lon="-2.29724">
        <ele>73.5</ele>
        <time>2021-05-27T12:48:13Z</time>
      </trkpt>
      <trkpt lat="47.70133" lon="-2.29718">
        <ele>73.2</ele>
        <time>2021-05-27T12:48:14Z</time>
      </trkpt>
      <trkpt lat="47.70132" lon="-2.29712">
        <ele>73.1</ele>
        <time>2021-05-27T12:48:15Z</time>
      </trkpt>
      <trkpt lat="47.70132" lon="-2.29706">
        <ele>72.9</ele>
        <time>2021-05-27T12:48:16Z</time>
      </trkpt>
      <trkpt lat="47.70134" lon="-2.297">
        <ele>72.8</ele>
        <time>2021-05-27T12:48:17Z</time>
      </trkpt>
      <trkpt lat="47.70136" lon="-2.29695">
        <ele>72.7</ele>
        <time>2021-05-27T12:48:18Z</time>
      </trkpt>
      <trkpt lat="47.70138" lon="-2.29692">
        <ele>72.7</ele>
        <time>2021-05-27T12:48:19Z</time>
      </trkpt>
      <trkpt lat="47.7014" lon="-2.29691">
        <ele>72.7</ele>
        <time>2021-05-27T12:48:20Z</time>
      </trkpt>
      <trkpt lat="47.70141" lon="-2.29691">
        <ele>72.7</ele>
        <time>2021-05-27T12:48:21Z</time>
      </trkpt>
      <trkpt lat="47.70141" lon="-2.29692">
        <ele>72.8</ele>
        <time>2021-05-27T12:48:22Z</time>
      </trkpt>
      <trkpt lat="47.70142" lon="-2.29692">
        <ele>72.8</ele>
        <time>2021-05-27T12:48:23Z</time>
      </trkpt>
      <trkpt lat="47.70142" lon="-2.29692">
        <ele>72.8</ele>
        <time>2021-05-27T12:48:24Z</time>
      </trkpt>
      <trkpt lat="47.70142" lon="-2.29692">
        <ele>72.8</ele>
        <time>2021-05-27T12:48:25Z</time>
      </trkpt>
      <trkpt lat="47.70142" lon="-2.29692">
        <ele>72.8</ele>
        <time>2021-05-27T12:48:26Z</time>
      </trkpt>
      <trkpt lat="47.70142" lon="-2.29692">
        <ele>72.8</ele>
        <time>2021-05-27T12:48:27Z</time>
      </trkpt>
      <trkpt lat="47.70142" lon="-2.29692">
        <ele>72.8</ele>
        <time>2021-05-27T12:48:28Z</time>
      </trkpt>
      <trkpt lat="47.70142" lon="-2.29692">
        <ele>72.8</ele>
        <time>2021-05-27T12:48:29Z</time>
      </trkpt>
      <trkpt lat="47.70142" lon="-2.29692">
        <ele>72.8</ele>
        <time>2021-05-27T12:48:30Z</time>
      </trkpt>
      <trkpt lat="47.70142" lon="-2.29692">
        <ele>72.8</ele>
        <time>2021-05-27T12:48:31Z</time>
      </trkpt>
      <trkpt lat="47.70142" lon="-2.29692">
        <ele>72.8</ele>
        <time>2021-05-27T12:48:32Z</time>
      </trkpt>
      <trkpt lat="47.70142" lon="-2.29692">
        <ele>72.8</ele>
        <time>2021-05-27T12:48:33Z</time>
      </trkpt>
      <trkpt lat="47.70142" lon="-2.29692">
        <ele>72.8</ele>
        <time>2021-05-27T12:48:34Z</time>
      </trkpt>
      <trkpt lat="47.70142" lon="-2.29692">
        <ele>72.8</ele>
        <time>2021-05-27T12:48:35Z</time>
      </trkpt>
      <trkpt lat="47.70142" lon="-2.29692">
        <ele>72.8</ele>
        <time>2021-05-27T12:48:36Z</time>
      </trkpt>
      <trkpt lat="47.70142" lon="-2.29692">
        <ele>72.8</ele>
        <time>2021-05-27T12:48:37Z</time>
      </trkpt>
      <trkpt lat="47.70142" lon="-2.29692">
        <ele>72.8</ele>
        <time>2021-05-27T12:48:38Z</time>
      </trkpt>
      <trkpt lat="47.70142" lon="-2.29692">
        <ele>72.8</ele>
        <time>2021-05-27T12:48:39Z</time>
      </trkpt>
      <trkpt lat="47.70142" lon="-2.29692">
        <ele>72.8</ele>
        <time>2021-05-27T12:48:40Z</time>
      </trkpt>
      <trkpt lat="47.70142" lon="-2.29692">
        <ele>72.8</ele>
        <time>2021-05-27T12:48:41Z</time>
      </trkpt>
      <trkpt lat="47.70142" lon="-2.29692">
        <ele>72.8</ele>
        <time>2021-05-27T12:48:42Z</time>
      </trkpt>
      <trkpt lat="47.70142" lon="-2.29692">
        <ele>72.8</ele>
        <time>2021-05-27T12:48:43Z</time>
      </trkpt>
      <trkpt lat="47.70142" lon="-2.29692">
        <ele>72.8</ele>
        <time>2021-05-27T12:48:44Z</time>
      </trkpt>
      <trkpt lat="47.70142" lon="-2.29692">
        <ele>72.8</ele>
        <time>2021-05-27T12:48:45Z</time>
      </trkpt>
      <trkpt lat="47.70142" lon="-2.29692">
        <ele>72.8</ele>
        <time>2021-05-27T12:48:46Z</time>
      </trkpt>
      <trkpt lat="47.70142" lon="-2.29692">
        <ele>72.8</ele>
        <time>2021-05-27T12:48:47Z</time>
      </trkpt>
      <trkpt lat="47.70142" lon="-2.29692">
        <ele>72.8</ele>
        <time>2021-05-27T12:48:48Z</time>
      </trkpt>
      <trkpt lat="47.70142" lon="-2.29692">
        <ele>72.8</ele>
        <time>2021-05-27T12:48:49Z</time>
      </trkpt>
      <trkpt lat="47.70142" lon="-2.29692">
        <ele>72.8</ele>
        <time>2021-05-27T12:48:50Z</time>
      </trkpt>
      <trkpt lat="47.70142" lon="-2.29692">
        <ele>72.8</ele>
        <time>2021-05-27T12:48:51Z</time>
      </trkpt>
      <trkpt lat="47.70142" lon="-2.29692">
        <ele>72.8</ele>
        <time>2021-05-27T12:48:52Z</time>
      </trkpt>
      <trkpt lat="47.70142" lon="-2.29692">
        <ele>72.8</ele>
        <time>2021-05-27T12:48:53Z</time>
      </trkpt>
      <trkpt lat="47.70142" lon="-2.29692">
        <ele>72.8</ele>
        <time>2021-05-27T12:48:54Z</time>
      </trkpt>
      <trkpt lat="47.70142" lon="-2.29692">
        <ele>72.8</ele>
        <time>2021-05-27T12:48:55Z</time>
      </trkpt>
      <trkpt lat="47.70142" lon="-2.29692">
        <ele>72.8</ele>
        <time>2021-05-27T12:48:56Z</time>
      </trkpt>
      <trkpt lat="47.70142" lon="-2.29692">
        <ele>72.8</ele>
        <time>2021-05-27T12:48:57Z</time>
      </trkpt>
      <trkpt lat="47.70151" lon="-2.2969">
        <ele>72.9</ele>
        <time>2021-05-27T12:48:58Z</time>
      </trkpt>
      <trkpt lat="47.70153" lon="-2.29691">
        <ele>72.9</ele>
        <time>2021-05-27T12:48:59Z</time>
      </trkpt>
      <trkpt lat="47.70156" lon="-2.29691">
        <ele>73</ele>
        <time>2021-05-27T12:49:00Z</time>
      </trkpt>
      <trkpt lat="47.70159" lon="-2.29693">
        <ele>73.1</ele>
        <time>2021-05-27T12:49:01Z</time>
      </trkpt>
      <trkpt lat="47.70162" lon="-2.29694">
        <ele>73.2</ele>
        <time>2021-05-27T12:49:02Z</time>
      </trkpt>
      <trkpt lat="47.70166" lon="-2.29696">
        <ele>73.4</ele>
        <time>2021-05-27T12:49:03Z</time>
      </trkpt>
      <trkpt lat="47.7017" lon="-2.29697">
        <ele>73.2</ele>
        <time>2021-05-27T12:49:04Z</time>
      </trkpt>
      <trkpt lat="47.70174" lon="-2.29699">
        <ele>72.8</ele>
        <time>2021-05-27T12:49:05Z</time>
      </trkpt>
      <trkpt lat="47.70177" lon="-2.29701">
        <ele>72.6</ele>
        <time>2021-05-27T12:49:06Z</time>
      </trkpt>
      <trkpt lat="47.70181" lon="-2.29703">
        <ele>72.3</ele>
        <time>2021-05-27T12:49:07Z</time>
      </trkpt>
      <trkpt lat="47.70185" lon="-2.29704">
        <ele>71.9</ele>
        <time>2021-05-27T12:49:08Z</time>
      </trkpt>
      <trkpt lat="47.70191" lon="-2.29704">
        <ele>71.4</ele>
        <time>2021-05-27T12:49:09Z</time>
      </trkpt>
      <trkpt lat="47.70198" lon="-2.29704">
        <ele>70.7</ele>
        <time>2021-05-27T12:49:10Z</time>
      </trkpt>
      <trkpt lat="47.70203" lon="-2.29706">
        <ele>70.3</ele>
        <time>2021-05-27T12:49:11Z</time>
      </trkpt>
      <trkpt lat="47.70209" lon="-2.29707">
        <ele>69.8</ele>
        <time>2021-05-27T12:49:12Z</time>
      </trkpt>
      <trkpt lat="47.70216" lon="-2.29707">
        <ele>69.1</ele>
        <time>2021-05-27T12:49:13Z</time>
      </trkpt>
      <trkpt lat="47.70224" lon="-2.29706">
        <ele>68.4</ele>
        <time>2021-05-27T12:49:14Z</time>
      </trkpt>
      <trkpt lat="47.70232" lon="-2.29706">
        <ele>67.6</ele>
        <time>2021-05-27T12:49:15Z</time>
      </trkpt>
      <trkpt lat="47.7024" lon="-2.29706">
        <ele>66.8</ele>
        <time>2021-05-27T12:49:16Z</time>
      </trkpt>
      <trkpt lat="47.70247" lon="-2.29706">
        <ele>66.1</ele>
        <time>2021-05-27T12:49:17Z</time>
      </trkpt>
      <trkpt lat="47.70254" lon="-2.29707">
        <ele>65</ele>
        <time>2021-05-27T12:49:18Z</time>
      </trkpt>
      <trkpt lat="47.70262" lon="-2.29707">
        <ele>63.7</ele>
        <time>2021-05-27T12:49:19Z</time>
      </trkpt>
      <trkpt lat="47.70269" lon="-2.29707">
        <ele>62.4</ele>
        <time>2021-05-27T12:49:20Z</time>
      </trkpt>
      <trkpt lat="47.70275" lon="-2.29708">
        <ele>61.4</ele>
        <time>2021-05-27T12:49:21Z</time>
      </trkpt>
      <trkpt lat="47.70279" lon="-2.29708">
        <ele>60.5</ele>
        <time>2021-05-27T12:49:22Z</time>
      </trkpt>
      <trkpt lat="47.70284" lon="-2.29707">
        <ele>59.7</ele>
        <time>2021-05-27T12:49:23Z</time>
      </trkpt>
      <trkpt lat="47.70288" lon="-2.29704">
        <ele>58.8</ele>
        <time>2021-05-27T12:49:24Z</time>
      </trkpt>
      <trkpt lat="47.70291" lon="-2.297">
        <ele>57.9</ele>
        <time>2021-05-27T12:49:25Z</time>
      </trkpt>
      <trkpt lat="47.70291" lon="-2.29692">
        <ele>57.4</ele>
        <time>2021-05-27T12:49:26Z</time>
      </trkpt>
      <trkpt lat="47.70292" lon="-2.29684">
        <ele>56.8</ele>
        <time>2021-05-27T12:49:27Z</time>
      </trkpt>
      <trkpt lat="47.70293" lon="-2.29675">
        <ele>56.2</ele>
        <time>2021-05-27T12:49:28Z</time>
      </trkpt>
      <trkpt lat="47.70294" lon="-2.29666">
        <ele>55.6</ele>
        <time>2021-05-27T12:49:29Z</time>
      </trkpt>
      <trkpt lat="47.70295" lon="-2.29658">
        <ele>55.5</ele>
        <time>2021-05-27T12:49:30Z</time>
      </trkpt>
      <trkpt lat="47.70297" lon="-2.29648">
        <ele>55.3</ele>
        <time>2021-05-27T12:49:31Z</time>
      </trkpt>
      <trkpt lat="47.70298" lon="-2.2964">
        <ele>55.1</ele>
        <time>2021-05-27T12:49:32Z</time>
      </trkpt>
      <trkpt lat="47.70299" lon="-2.2963">
        <ele>54.9</ele>
        <time>2021-05-27T12:49:33Z</time>
      </trkpt>
      <trkpt lat="47.70301" lon="-2.29621">
        <ele>54.7</ele>
        <time>2021-05-27T12:49:34Z</time>
      </trkpt>
      <trkpt lat="47.70302" lon="-2.29611">
        <ele>54.5</ele>
        <time>2021-05-27T12:49:35Z</time>
      </trkpt>
      <trkpt lat="47.70303" lon="-2.29601">
        <ele>54.3</ele>
        <time>2021-05-27T12:49:36Z</time>
      </trkpt>
      <trkpt lat="47.70304" lon="-2.29591">
        <ele>54.2</ele>
        <time>2021-05-27T12:49:37Z</time>
      </trkpt>
      <trkpt lat="47.70305" lon="-2.29582">
        <ele>54.1</ele>
        <time>2021-05-27T12:49:38Z</time>
      </trkpt>
      <trkpt lat="47.70305" lon="-2.29572">
        <ele>54</ele>
        <time>2021-05-27T12:49:39Z</time>
      </trkpt>
      <trkpt lat="47.70305" lon="-2.29563">
        <ele>53.8</ele>
        <time>2021-05-27T12:49:40Z</time>
      </trkpt>
      <trkpt lat="47.70306" lon="-2.29553">
        <ele>53.6</ele>
        <time>2021-05-27T12:49:41Z</time>
      </trkpt>
      <trkpt lat="47.70307" lon="-2.29543">
        <ele>53.4</ele>
        <time>2021-05-27T12:49:42Z</time>
      </trkpt>
      <trkpt lat="47.70307" lon="-2.29533">
        <ele>53.1</ele>
        <time>2021-05-27T12:49:43Z</time>
      </trkpt>
      <trkpt lat="47.70308" lon="-2.29523">
        <ele>52.9</ele>
        <time>2021-05-27T12:49:44Z</time>
      </trkpt>
      <trkpt lat="47.70308" lon="-2.29513">
        <ele>52.8</ele>
        <time>2021-05-27T12:49:45Z</time>
      </trkpt>
      <trkpt lat="47.70308" lon="-2.29502">
        <ele>52.5</ele>
        <time>2021-05-27T12:49:46Z</time>
      </trkpt>
      <trkpt lat="47.70309" lon="-2.29491">
        <ele>52.2</ele>
        <time>2021-05-27T12:49:47Z</time>
      </trkpt>
      <trkpt lat="47.7031" lon="-2.29479">
        <ele>51.9</ele>
        <time>2021-05-27T12:49:48Z</time>
      </trkpt>
      <trkpt lat="47.7031" lon="-2.29468">
        <ele>51.6</ele>
        <time>2021-05-27T12:49:49Z</time>
      </trkpt>
      <trkpt lat="47.70311" lon="-2.29457">
        <ele>51.4</ele>
        <time>2021-05-27T12:49:50Z</time>
      </trkpt>
      <trkpt lat="47.70311" lon="-2.29445">
        <ele>51.1</ele>
        <time>2021-05-27T12:49:51Z</time>
      </trkpt>
      <trkpt lat="47.70312" lon="-2.29433">
        <ele>50.7</ele>
        <time>2021-05-27T12:49:52Z</time>
      </trkpt>
      <trkpt lat="47.70312" lon="-2.29421">
        <ele>50.4</ele>
        <time>2021-05-27T12:49:53Z</time>
      </trkpt>
      <trkpt lat="47.70312" lon="-2.29409">
        <ele>50.3</ele>
        <time>2021-05-27T12:49:54Z</time>
      </trkpt>
      <trkpt lat="47.70313" lon="-2.29397">
        <ele>50.3</ele>
        <time>2021-05-27T12:49:55Z</time>
      </trkpt>
      <trkpt lat="47.70313" lon="-2.29385">
        <ele>50.3</ele>
        <time>2021-05-27T12:49:56Z</time>
      </trkpt>
      <trkpt lat="47.70314" lon="-2.29373">
        <ele>50.3</ele>
        <time>2021-05-27T12:49:57Z</time>
      </trkpt>
      <trkpt lat="47.70314" lon="-2.29361">
        <ele>50.2</ele>
        <time>2021-05-27T12:49:58Z</time>
      </trkpt>
      <trkpt lat="47.70315" lon="-2.2935">
        <ele>50</ele>
        <time>2021-05-27T12:49:59Z</time>
      </trkpt>
      <trkpt lat="47.70317" lon="-2.29338">
        <ele>49.8</ele>
        <time>2021-05-27T12:50:00Z</time>
      </trkpt>
      <trkpt lat="47.70317" lon="-2.29326">
        <ele>49.5</ele>
        <time>2021-05-27T12:50:01Z</time>
      </trkpt>
      <trkpt lat="47.70318" lon="-2.29314">
        <ele>48.9</ele>
        <time>2021-05-27T12:50:02Z</time>
      </trkpt>
      <trkpt lat="47.70318" lon="-2.29302">
        <ele>48.5</ele>
        <time>2021-05-27T12:50:03Z</time>
      </trkpt>
      <trkpt lat="47.70318" lon="-2.2929">
        <ele>48.3</ele>
        <time>2021-05-27T12:50:04Z</time>
      </trkpt>
      <trkpt lat="47.70318" lon="-2.29277">
        <ele>47.9</ele>
        <time>2021-05-27T12:50:05Z</time>
      </trkpt>
      <trkpt lat="47.70317" lon="-2.29265">
        <ele>47.7</ele>
        <time>2021-05-27T12:50:06Z</time>
      </trkpt>
      <trkpt lat="47.70318" lon="-2.29253">
        <ele>47.3</ele>
        <time>2021-05-27T12:50:07Z</time>
      </trkpt>
      <trkpt lat="47.70318" lon="-2.29241">
        <ele>46.6</ele>
        <time>2021-05-27T12:50:08Z</time>
      </trkpt>
      <trkpt lat="47.7032" lon="-2.29229">
        <ele>45.7</ele>
        <time>2021-05-27T12:50:09Z</time>
      </trkpt>
      <trkpt lat="47.70321" lon="-2.29217">
        <ele>45</ele>
        <time>2021-05-27T12:50:10Z</time>
      </trkpt>
      <trkpt lat="47.70321" lon="-2.29205">
        <ele>44.4</ele>
        <time>2021-05-27T12:50:11Z</time>
      </trkpt>
      <trkpt lat="47.70322" lon="-2.29193">
        <ele>43.8</ele>
        <time>2021-05-27T12:50:12Z</time>
      </trkpt>
      <trkpt lat="47.70322" lon="-2.29181">
        <ele>43.3</ele>
        <time>2021-05-27T12:50:13Z</time>
      </trkpt>
      <trkpt lat="47.70323" lon="-2.29168">
        <ele>42.7</ele>
        <time>2021-05-27T12:50:14Z</time>
      </trkpt>
      <trkpt lat="47.70323" lon="-2.29156">
        <ele>42.5</ele>
        <time>2021-05-27T12:50:15Z</time>
      </trkpt>
      <trkpt lat="47.70324" lon="-2.29144">
        <ele>42.4</ele>
        <time>2021-05-27T12:50:16Z</time>
      </trkpt>
      <trkpt lat="47.70324" lon="-2.29132">
        <ele>42.3</ele>
        <time>2021-05-27T12:50:17Z</time>
      </trkpt>
      <trkpt lat="47.70325" lon="-2.29119">
        <ele>42.1</ele>
        <time>2021-05-27T12:50:18Z</time>
      </trkpt>
      <trkpt lat="47.70325" lon="-2.29107">
        <ele>42</ele>
        <time>2021-05-27T12:50:19Z</time>
      </trkpt>
      <trkpt lat="47.70326" lon="-2.29095">
        <ele>41.8</ele>
        <time>2021-05-27T12:50:20Z</time>
      </trkpt>
      <trkpt lat="47.70327" lon="-2.29082">
        <ele>41.7</ele>
        <time>2021-05-27T12:50:21Z</time>
      </trkpt>
      <trkpt lat="47.70327" lon="-2.2907">
        <ele>41</ele>
        <time>2021-05-27T12:50:22Z</time>
      </trkpt>
      <trkpt lat="47.70328" lon="-2.29057">
        <ele>40.2</ele>
        <time>2021-05-27T12:50:23Z</time>
      </trkpt>
      <trkpt lat="47.70328" lon="-2.29044">
        <ele>39.5</ele>
        <time>2021-05-27T12:50:24Z</time>
      </trkpt>
      <trkpt lat="47.70329" lon="-2.29031">
        <ele>38.6</ele>
        <time>2021-05-27T12:50:25Z</time>
      </trkpt>
      <trkpt lat="47.7033" lon="-2.29019">
        <ele>37.9</ele>
        <time>2021-05-27T12:50:26Z</time>
      </trkpt>
      <trkpt lat="47.7033" lon="-2.29007">
        <ele>37.2</ele>
        <time>2021-05-27T12:50:27Z</time>
      </trkpt>
      <trkpt lat="47.7033" lon="-2.28994">
        <ele>36.6</ele>
        <time>2021-05-27T12:50:28Z</time>
      </trkpt>
      <trkpt lat="47.70331" lon="-2.28981">
        <ele>36.3</ele>
        <time>2021-05-27T12:50:29Z</time>
      </trkpt>
      <trkpt lat="47.70331" lon="-2.28969">
        <ele>35.9</ele>
        <time>2021-05-27T12:50:30Z</time>
      </trkpt>
      <trkpt lat="47.70331" lon="-2.28957">
        <ele>35.5</ele>
        <time>2021-05-27T12:50:31Z</time>
      </trkpt>
      <trkpt lat="47.70331" lon="-2.28945">
        <ele>35.2</ele>
        <time>2021-05-27T12:50:32Z</time>
      </trkpt>
      <trkpt lat="47.70331" lon="-2.28933">
        <ele>35</ele>
        <time>2021-05-27T12:50:33Z</time>
      </trkpt>
      <trkpt lat="47.70331" lon="-2.28922">
        <ele>34.8</ele>
        <time>2021-05-27T12:50:34Z</time>
      </trkpt>
      <trkpt lat="47.7033" lon="-2.28911">
        <ele>34.8</ele>
        <time>2021-05-27T12:50:35Z</time>
      </trkpt>
      <trkpt lat="47.7033" lon="-2.289">
        <ele>34.8</ele>
        <time>2021-05-27T12:50:36Z</time>
      </trkpt>
      <trkpt lat="47.7033" lon="-2.28889">
        <ele>34.8</ele>
        <time>2021-05-27T12:50:37Z</time>
      </trkpt>
      <trkpt lat="47.7033" lon="-2.28879">
        <ele>34.8</ele>
        <time>2021-05-27T12:50:38Z</time>
      </trkpt>
      <trkpt lat="47.7033" lon="-2.28869">
        <ele>34.8</ele>
        <time>2021-05-27T12:50:39Z</time>
      </trkpt>
      <trkpt lat="47.70329" lon="-2.28861">
        <ele>35</ele>
        <time>2021-05-27T12:50:40Z</time>
      </trkpt>
      <trkpt lat="47.70327" lon="-2.28854">
        <ele>35.6</ele>
        <time>2021-05-27T12:50:41Z</time>
      </trkpt>
      <trkpt lat="47.70323" lon="-2.28849">
        <ele>36.6</ele>
        <time>2021-05-27T12:50:42Z</time>
      </trkpt>
      <trkpt lat="47.7032" lon="-2.28845">
        <ele>37.5</ele>
        <time>2021-05-27T12:50:43Z</time>
      </trkpt>
      <trkpt lat="47.70317" lon="-2.28841">
        <ele>38.2</ele>
        <time>2021-05-27T12:50:44Z</time>
      </trkpt>
      <trkpt lat="47.70314" lon="-2.28838">
        <ele>38.8</ele>
        <time>2021-05-27T12:50:45Z</time>
      </trkpt>
      <trkpt lat="47.70312" lon="-2.28835">
        <ele>39.3</ele>
        <time>2021-05-27T12:50:46Z</time>
      </trkpt>
      <trkpt lat="47.7031" lon="-2.28832">
        <ele>39.8</ele>
        <time>2021-05-27T12:50:47Z</time>
      </trkpt>
      <trkpt lat="47.70308" lon="-2.28828">
        <ele>40.2</ele>
        <time>2021-05-27T12:50:48Z</time>
      </trkpt>
      <trkpt lat="47.70306" lon="-2.28824">
        <ele>40.5</ele>
        <time>2021-05-27T12:50:49Z</time>
      </trkpt>
      <trkpt lat="47.70304" lon="-2.28821">
        <ele>40.8</ele>
        <time>2021-05-27T12:50:50Z</time>
      </trkpt>
      <trkpt lat="47.70302" lon="-2.28816">
        <ele>41.1</ele>
        <time>2021-05-27T12:50:51Z</time>
      </trkpt>
      <trkpt lat="47.703" lon="-2.28813">
        <ele>41.5</ele>
        <time>2021-05-27T12:50:52Z</time>
      </trkpt>
      <trkpt lat="47.70297" lon="-2.28808">
        <ele>42</ele>
        <time>2021-05-27T12:50:53Z</time>
      </trkpt>
      <trkpt lat="47.70295" lon="-2.28805">
        <ele>42.4</ele>
        <time>2021-05-27T12:50:54Z</time>
      </trkpt>
      <trkpt lat="47.70292" lon="-2.28801">
        <ele>42.9</ele>
        <time>2021-05-27T12:50:55Z</time>
      </trkpt>
      <trkpt lat="47.70289" lon="-2.28796">
        <ele>43.3</ele>
        <time>2021-05-27T12:50:56Z</time>
      </trkpt>
      <trkpt lat="47.70287" lon="-2.28791">
        <ele>43.7</ele>
        <time>2021-05-27T12:50:57Z</time>
      </trkpt>
      <trkpt lat="47.70285" lon="-2.28787">
        <ele>44.1</ele>
        <time>2021-05-27T12:50:58Z</time>
      </trkpt>
      <trkpt lat="47.70282" lon="-2.28782">
        <ele>44.5</ele>
        <time>2021-05-27T12:50:59Z</time>
      </trkpt>
      <trkpt lat="47.7028" lon="-2.28778">
        <ele>44.8</ele>
        <time>2021-05-27T12:51:00Z</time>
      </trkpt>
      <trkpt lat="47.70278" lon="-2.28773">
        <ele>45</ele>
        <time>2021-05-27T12:51:01Z</time>
      </trkpt>
      <trkpt lat="47.70275" lon="-2.28768">
        <ele>45.5</ele>
        <time>2021-05-27T12:51:02Z</time>
      </trkpt>
      <trkpt lat="47.70273" lon="-2.28764">
        <ele>45.8</ele>
        <time>2021-05-27T12:51:03Z</time>
      </trkpt>
      <trkpt lat="47.70272" lon="-2.28759">
        <ele>46</ele>
        <time>2021-05-27T12:51:04Z</time>
      </trkpt>
      <trkpt lat="47.7027" lon="-2.28755">
        <ele>46.3</ele>
        <time>2021-05-27T12:51:05Z</time>
      </trkpt>
      <trkpt lat="47.70268" lon="-2.28751">
        <ele>46.6</ele>
        <time>2021-05-27T12:51:06Z</time>
      </trkpt>
      <trkpt lat="47.70265" lon="-2.28746">
        <ele>47.2</ele>
        <time>2021-05-27T12:51:07Z</time>
      </trkpt>
      <trkpt lat="47.70262" lon="-2.28743">
        <ele>47.8</ele>
        <time>2021-05-27T12:51:08Z</time>
      </trkpt>
      <trkpt lat="47.7026" lon="-2.28738">
        <ele>48.1</ele>
        <time>2021-05-27T12:51:09Z</time>
      </trkpt>
      <trkpt lat="47.70258" lon="-2.28734">
        <ele>48.5</ele>
        <time>2021-05-27T12:51:10Z</time>
      </trkpt>
      <trkpt lat="47.70256" lon="-2.2873">
        <ele>48.8</ele>
        <time>2021-05-27T12:51:11Z</time>
      </trkpt>
      <trkpt lat="47.70254" lon="-2.28726">
        <ele>49.1</ele>
        <time>2021-05-27T12:51:12Z</time>
      </trkpt>
      <trkpt lat="47.70252" lon="-2.28722">
        <ele>49.5</ele>
        <time>2021-05-27T12:51:13Z</time>
      </trkpt>
      <trkpt lat="47.7025" lon="-2.28717">
        <ele>49.8</ele>
        <time>2021-05-27T12:51:14Z</time>
      </trkpt>
      <trkpt lat="47.70248" lon="-2.28713">
        <ele>50.1</ele>
        <time>2021-05-27T12:51:15Z</time>
      </trkpt>
      <trkpt lat="47.70247" lon="-2.28708">
        <ele>50.3</ele>
        <time>2021-05-27T12:51:16Z</time>
      </trkpt>
      <trkpt lat="47.70246" lon="-2.28704">
        <ele>50.5</ele>
        <time>2021-05-27T12:51:17Z</time>
      </trkpt>
      <trkpt lat="47.70245" lon="-2.28699">
        <ele>50.5</ele>
        <time>2021-05-27T12:51:18Z</time>
      </trkpt>
      <trkpt lat="47.70244" lon="-2.28695">
        <ele>50.6</ele>
        <time>2021-05-27T12:51:19Z</time>
      </trkpt>
      <trkpt lat="47.70243" lon="-2.28691">
        <ele>50.7</ele>
        <time>2021-05-27T12:51:20Z</time>
      </trkpt>
      <trkpt lat="47.70242" lon="-2.28687">
        <ele>50.7</ele>
        <time>2021-05-27T12:51:21Z</time>
      </trkpt>
      <trkpt lat="47.70242" lon="-2.28683">
        <ele>50.8</ele>
        <time>2021-05-27T12:51:22Z</time>
      </trkpt>
      <trkpt lat="47.70241" lon="-2.28678">
        <ele>50.7</ele>
        <time>2021-05-27T12:51:23Z</time>
      </trkpt>
      <trkpt lat="47.70241" lon="-2.28673">
        <ele>50.5</ele>
        <time>2021-05-27T12:51:24Z</time>
      </trkpt>
      <trkpt lat="47.70241" lon="-2.28667">
        <ele>50.4</ele>
        <time>2021-05-27T12:51:25Z</time>
      </trkpt>
      <trkpt lat="47.70241" lon="-2.28662">
        <ele>50.7</ele>
        <time>2021-05-27T12:51:26Z</time>
      </trkpt>
      <trkpt lat="47.70242" lon="-2.28657">
        <ele>50.9</ele>
        <time>2021-05-27T12:51:27Z</time>
      </trkpt>
      <trkpt lat="47.70242" lon="-2.28652">
        <ele>51.1</ele>
        <time>2021-05-27T12:51:28Z</time>
      </trkpt>
      <trkpt lat="47.70242" lon="-2.28647">
        <ele>51.3</ele>
        <time>2021-05-27T12:51:29Z</time>
      </trkpt>
      <trkpt lat="47.70243" lon="-2.28643">
        <ele>51.5</ele>
        <time>2021-05-27T12:51:30Z</time>
      </trkpt>
      <trkpt lat="47.70243" lon="-2.28637">
        <ele>51.9</ele>
        <time>2021-05-27T12:51:31Z</time>
      </trkpt>
      <trkpt lat="47.70243" lon="-2.28632">
        <ele>52.2</ele>
        <time>2021-05-27T12:51:32Z</time>
      </trkpt>
      <trkpt lat="47.70243" lon="-2.28627">
        <ele>52.6</ele>
        <time>2021-05-27T12:51:33Z</time>
      </trkpt>
      <trkpt lat="47.70243" lon="-2.28621">
        <ele>52.8</ele>
        <time>2021-05-27T12:51:34Z</time>
      </trkpt>
      <trkpt lat="47.70243" lon="-2.28617">
        <ele>53.1</ele>
        <time>2021-05-27T12:51:35Z</time>
      </trkpt>
      <trkpt lat="47.70244" lon="-2.28612">
        <ele>53.3</ele>
        <time>2021-05-27T12:51:36Z</time>
      </trkpt>
      <trkpt lat="47.70244" lon="-2.28607">
        <ele>53.6</ele>
        <time>2021-05-27T12:51:37Z</time>
      </trkpt>
      <trkpt lat="47.70245" lon="-2.28602">
        <ele>53.7</ele>
        <time>2021-05-27T12:51:38Z</time>
      </trkpt>
      <trkpt lat="47.70246" lon="-2.28597">
        <ele>53.7</ele>
        <time>2021-05-27T12:51:39Z</time>
      </trkpt>
      <trkpt lat="47.70249" lon="-2.28593">
        <ele>53.6</ele>
        <time>2021-05-27T12:51:40Z</time>
      </trkpt>
      <trkpt lat="47.70251" lon="-2.28589">
        <ele>53.3</ele>
        <time>2021-05-27T12:51:41Z</time>
      </trkpt>
      <trkpt lat="47.70254" lon="-2.28585">
        <ele>52.8</ele>
        <time>2021-05-27T12:51:42Z</time>
      </trkpt>
      <trkpt lat="47.70257" lon="-2.28581">
        <ele>51.8</ele>
        <time>2021-05-27T12:51:43Z</time>
      </trkpt>
      <trkpt lat="47.70262" lon="-2.28577">
        <ele>50.5</ele>
        <time>2021-05-27T12:51:44Z</time>
      </trkpt>
      <trkpt lat="47.70266" lon="-2.28573">
        <ele>49.2</ele>
        <time>2021-05-27T12:51:45Z</time>
      </trkpt>
      <trkpt lat="47.7027" lon="-2.28568">
        <ele>48.2</ele>
        <time>2021-05-27T12:51:46Z</time>
      </trkpt>
      <trkpt lat="47.70273" lon="-2.28562">
        <ele>47.3</ele>
        <time>2021-05-27T12:51:47Z</time>
      </trkpt>
      <trkpt lat="47.70276" lon="-2.28555">
        <ele>46.6</ele>
        <time>2021-05-27T12:51:48Z</time>
      </trkpt>
      <trkpt lat="47.70277" lon="-2.28548">
        <ele>46.3</ele>
        <time>2021-05-27T12:51:49Z</time>
      </trkpt>
      <trkpt lat="47.70278" lon="-2.28542">
        <ele>46.2</ele>
        <time>2021-05-27T12:51:50Z</time>
      </trkpt>
      <trkpt lat="47.70277" lon="-2.28535">
        <ele>46.4</ele>
        <time>2021-05-27T12:51:51Z</time>
      </trkpt>
      <trkpt lat="47.70277" lon="-2.28528">
        <ele>46.6</ele>
        <time>2021-05-27T12:51:52Z</time>
      </trkpt>
      <trkpt lat="47.70277" lon="-2.28521">
        <ele>46.6</ele>
        <time>2021-05-27T12:51:53Z</time>
      </trkpt>
      <trkpt lat="47.70277" lon="-2.28515">
        <ele>46.8</ele>
        <time>2021-05-27T12:51:54Z</time>
      </trkpt>
      <trkpt lat="47.70275" lon="-2.28509">
        <ele>47.5</ele>
        <time>2021-05-27T12:51:55Z</time>
      </trkpt>
      <trkpt lat="47.70273" lon="-2.28505">
        <ele>47.9</ele>
        <time>2021-05-27T12:51:56Z</time>
      </trkpt>
      <trkpt lat="47.70273" lon="-2.28502">
        <ele>48.1</ele>
        <time>2021-05-27T12:51:57Z</time>
      </trkpt>
      <trkpt lat="47.70272" lon="-2.28498">
        <ele>48.3</ele>
        <time>2021-05-27T12:51:58Z</time>
      </trkpt>
      <trkpt lat="47.70272" lon="-2.28495">
        <ele>48.3</ele>
        <time>2021-05-27T12:51:59Z</time>
      </trkpt>
      <trkpt lat="47.70272" lon="-2.28492">
        <ele>48.1</ele>
        <time>2021-05-27T12:52:00Z</time>
      </trkpt>
      <trkpt lat="47.70272" lon="-2.28489">
        <ele>48</ele>
        <time>2021-05-27T12:52:01Z</time>
      </trkpt>
      <trkpt lat="47.70271" lon="-2.28486">
        <ele>48.1</ele>
        <time>2021-05-27T12:52:02Z</time>
      </trkpt>
      <trkpt lat="47.70271" lon="-2.28483">
        <ele>48</ele>
        <time>2021-05-27T12:52:03Z</time>
      </trkpt>
      <trkpt lat="47.70273" lon="-2.2848">
        <ele>47.4</ele>
        <time>2021-05-27T12:52:04Z</time>
      </trkpt>
      <trkpt lat="47.70275" lon="-2.28478">
        <ele>46.8</ele>
        <time>2021-05-27T12:52:05Z</time>
      </trkpt>
      <trkpt lat="47.70276" lon="-2.28474">
        <ele>46.2</ele>
        <time>2021-05-27T12:52:06Z</time>
      </trkpt>
      <trkpt lat="47.70276" lon="-2.28469">
        <ele>46</ele>
        <time>2021-05-27T12:52:07Z</time>
      </trkpt>
      <trkpt lat="47.70276" lon="-2.28464">
        <ele>45.9</ele>
        <time>2021-05-27T12:52:08Z</time>
      </trkpt>
      <trkpt lat="47.70276" lon="-2.2846">
        <ele>45.8</ele>
        <time>2021-05-27T12:52:09Z</time>
      </trkpt>
      <trkpt lat="47.70276" lon="-2.28456">
        <ele>45.7</ele>
        <time>2021-05-27T12:52:10Z</time>
      </trkpt>
      <trkpt lat="47.70275" lon="-2.28451">
        <ele>45.6</ele>
        <time>2021-05-27T12:52:11Z</time>
      </trkpt>
      <trkpt lat="47.70275" lon="-2.28447">
        <ele>45.6</ele>
        <time>2021-05-27T12:52:12Z</time>
      </trkpt>
      <trkpt lat="47.70274" lon="-2.28443">
        <ele>45.6</ele>
        <time>2021-05-27T12:52:13Z</time>
      </trkpt>
      <trkpt lat="47.70274" lon="-2.28439">
        <ele>45.6</ele>
        <time>2021-05-27T12:52:14Z</time>
      </trkpt>
      <trkpt lat="47.70273" lon="-2.28435">
        <ele>45.7</ele>
        <time>2021-05-27T12:52:15Z</time>
      </trkpt>
      <trkpt lat="47.70272" lon="-2.28431">
        <ele>45.6</ele>
        <time>2021-05-27T12:52:16Z</time>
      </trkpt>
      <trkpt lat="47.70272" lon="-2.28427">
        <ele>45.7</ele>
        <time>2021-05-27T12:52:17Z</time>
      </trkpt>
      <trkpt lat="47.70271" lon="-2.28423">
        <ele>45.8</ele>
        <time>2021-05-27T12:52:18Z</time>
      </trkpt>
      <trkpt lat="47.7027" lon="-2.28419">
        <ele>45.9</ele>
        <time>2021-05-27T12:52:19Z</time>
      </trkpt>
      <trkpt lat="47.70269" lon="-2.28415">
        <ele>45.8</ele>
        <time>2021-05-27T12:52:20Z</time>
      </trkpt>
      <trkpt lat="47.70268" lon="-2.28411">
        <ele>45.9</ele>
        <time>2021-05-27T12:52:21Z</time>
      </trkpt>
      <trkpt lat="47.70268" lon="-2.28407">
        <ele>45.9</ele>
        <time>2021-05-27T12:52:22Z</time>
      </trkpt>
      <trkpt lat="47.70267" lon="-2.28404">
        <ele>46</ele>
        <time>2021-05-27T12:52:23Z</time>
      </trkpt>
      <trkpt lat="47.70266" lon="-2.284">
        <ele>46.1</ele>
        <time>2021-05-27T12:52:24Z</time>
      </trkpt>
      <trkpt lat="47.70265" lon="-2.28397">
        <ele>46.3</ele>
        <time>2021-05-27T12:52:25Z</time>
      </trkpt>
      <trkpt lat="47.70264" lon="-2.28394">
        <ele>46.3</ele>
        <time>2021-05-27T12:52:26Z</time>
      </trkpt>
      <trkpt lat="47.70264" lon="-2.2839">
        <ele>46.3</ele>
        <time>2021-05-27T12:52:27Z</time>
      </trkpt>
      <trkpt lat="47.70263" lon="-2.28387">
        <ele>46.2</ele>
        <time>2021-05-27T12:52:28Z</time>
      </trkpt>
      <trkpt lat="47.70263" lon="-2.28384">
        <ele>46.3</ele>
        <time>2021-05-27T12:52:29Z</time>
      </trkpt>
      <trkpt lat="47.70262" lon="-2.28381">
        <ele>46.4</ele>
        <time>2021-05-27T12:52:30Z</time>
      </trkpt>
      <trkpt lat="47.70261" lon="-2.28378">
        <ele>46.4</ele>
        <time>2021-05-27T12:52:31Z</time>
      </trkpt>
      <trkpt lat="47.7026" lon="-2.28375">
        <ele>46.6</ele>
        <time>2021-05-27T12:52:32Z</time>
      </trkpt>
      <trkpt lat="47.70259" lon="-2.28372">
        <ele>46.6</ele>
        <time>2021-05-27T12:52:33Z</time>
      </trkpt>
      <trkpt lat="47.70259" lon="-2.28369">
        <ele>46.6</ele>
        <time>2021-05-27T12:52:34Z</time>
      </trkpt>
      <trkpt lat="47.70259" lon="-2.28365">
        <ele>46.5</ele>
        <time>2021-05-27T12:52:35Z</time>
      </trkpt>
      <trkpt lat="47.70258" lon="-2.28362">
        <ele>46.4</ele>
        <time>2021-05-27T12:52:36Z</time>
      </trkpt>
      <trkpt lat="47.70258" lon="-2.28358">
        <ele>46.4</ele>
        <time>2021-05-27T12:52:37Z</time>
      </trkpt>
      <trkpt lat="47.70258" lon="-2.28355">
        <ele>46.3</ele>
        <time>2021-05-27T12:52:38Z</time>
      </trkpt>
      <trkpt lat="47.70257" lon="-2.28352">
        <ele>46.3</ele>
        <time>2021-05-27T12:52:39Z</time>
      </trkpt>
      <trkpt lat="47.70257" lon="-2.28348">
        <ele>46.2</ele>
        <time>2021-05-27T12:52:40Z</time>
      </trkpt>
      <trkpt lat="47.70256" lon="-2.28345">
        <ele>46.2</ele>
        <time>2021-05-27T12:52:41Z</time>
      </trkpt>
      <trkpt lat="47.70256" lon="-2.28342">
        <ele>46.1</ele>
        <time>2021-05-27T12:52:42Z</time>
      </trkpt>
      <trkpt lat="47.70256" lon="-2.28339">
        <ele>46</ele>
        <time>2021-05-27T12:52:43Z</time>
      </trkpt>
      <trkpt lat="47.70256" lon="-2.28338">
        <ele>46</ele>
        <time>2021-05-27T12:52:44Z</time>
      </trkpt>
      <trkpt lat="47.70255" lon="-2.28338">
        <ele>46</ele>
        <time>2021-05-27T12:52:45Z</time>
      </trkpt>
      <trkpt lat="47.70255" lon="-2.28338">
        <ele>46</ele>
        <time>2021-05-27T12:52:46Z</time>
      </trkpt>
      <trkpt lat="47.70255" lon="-2.28338">
        <ele>46</ele>
        <time>2021-05-27T12:52:47Z</time>
      </trkpt>
      <trkpt lat="47.70255" lon="-2.28338">
        <ele>46</ele>
        <time>2021-05-27T12:52:48Z</time>
      </trkpt>
      <trkpt lat="47.70255" lon="-2.28338">
        <ele>46</ele>
        <time>2021-05-27T12:52:49Z</time>
      </trkpt>
      <trkpt lat="47.70255" lon="-2.28338">
        <ele>46</ele>
        <time>2021-05-27T12:52:50Z</time>
      </trkpt>
      <trkpt lat="47.70251" lon="-2.28334">
        <ele>46.8</ele>
        <time>2021-05-27T12:52:51Z</time>
      </trkpt>
      <trkpt lat="47.7025" lon="-2.28334">
        <ele>47.1</ele>
        <time>2021-05-27T12:52:52Z</time>
      </trkpt>
      <trkpt lat="47.70249" lon="-2.28332">
        <ele>47.3</ele>
        <time>2021-05-27T12:52:53Z</time>
      </trkpt>
      <trkpt lat="47.70248" lon="-2.28331">
        <ele>47.5</ele>
        <time>2021-05-27T12:52:54Z</time>
      </trkpt>
      <trkpt lat="47.70247" lon="-2.28329">
        <ele>47.7</ele>
        <time>2021-05-27T12:52:55Z</time>
      </trkpt>
      <trkpt lat="47.70246" lon="-2.28328">
        <ele>47.9</ele>
        <time>2021-05-27T12:52:56Z</time>
      </trkpt>
      <trkpt lat="47.70246" lon="-2.28328">
        <ele>48</ele>
        <time>2021-05-27T12:52:57Z</time>
      </trkpt>
      <trkpt lat="47.70245" lon="-2.28327">
        <ele>48.1</ele>
        <time>2021-05-27T12:52:58Z</time>
      </trkpt>
      <trkpt lat="47.70245" lon="-2.28326">
        <ele>48.2</ele>
        <time>2021-05-27T12:52:59Z</time>
      </trkpt>
      <trkpt lat="47.70245" lon="-2.28326">
        <ele>48.2</ele>
        <time>2021-05-27T12:53:00Z</time>
      </trkpt>
      <trkpt lat="47.70245" lon="-2.28326">
        <ele>48.2</ele>
        <time>2021-05-27T12:53:01Z</time>
      </trkpt>
      <trkpt lat="47.70245" lon="-2.28326">
        <ele>48.2</ele>
        <time>2021-05-27T12:53:02Z</time>
      </trkpt>
      <trkpt lat="47.70245" lon="-2.28326">
        <ele>48.2</ele>
        <time>2021-05-27T12:53:03Z</time>
      </trkpt>
      <trkpt lat="47.70245" lon="-2.28326">
        <ele>48.2</ele>
        <time>2021-05-27T12:53:04Z</time>
      </trkpt>
      <trkpt lat="47.70245" lon="-2.28326">
        <ele>48.2</ele>
        <time>2021-05-27T12:53:05Z</time>
      </trkpt>
      <trkpt lat="47.70244" lon="-2.28315">
        <ele>48.2</ele>
        <time>2021-05-27T12:53:06Z</time>
      </trkpt>
      <trkpt lat="47.70244" lon="-2.28312">
        <ele>48.1</ele>
        <time>2021-05-27T12:53:07Z</time>
      </trkpt>
      <trkpt lat="47.70244" lon="-2.28309">
        <ele>48.1</ele>
        <time>2021-05-27T12:53:08Z</time>
      </trkpt>
      <trkpt lat="47.70243" lon="-2.28306">
        <ele>48.2</ele>
        <time>2021-05-27T12:53:09Z</time>
      </trkpt>
      <trkpt lat="47.70243" lon="-2.28304">
        <ele>48.1</ele>
        <time>2021-05-27T12:53:10Z</time>
      </trkpt>
      <trkpt lat="47.70243" lon="-2.28301">
        <ele>48.1</ele>
        <time>2021-05-27T12:53:11Z</time>
      </trkpt>
      <trkpt lat="47.70243" lon="-2.28299">
        <ele>48</ele>
        <time>2021-05-27T12:53:12Z</time>
      </trkpt>
      <trkpt lat="47.70243" lon="-2.28295">
        <ele>48.1</ele>
        <time>2021-05-27T12:53:13Z</time>
      </trkpt>
      <trkpt lat="47.70243" lon="-2.28292">
        <ele>48</ele>
        <time>2021-05-27T12:53:14Z</time>
      </trkpt>
      <trkpt lat="47.70243" lon="-2.28289">
        <ele>47.8</ele>
        <time>2021-05-27T12:53:15Z</time>
      </trkpt>
      <trkpt lat="47.70243" lon="-2.28283">
        <ele>47.7</ele>
        <time>2021-05-27T12:53:16Z</time>
      </trkpt>
      <trkpt lat="47.70242" lon="-2.28278">
        <ele>47.8</ele>
        <time>2021-05-27T12:53:17Z</time>
      </trkpt>
      <trkpt lat="47.70241" lon="-2.28272">
        <ele>48.1</ele>
        <time>2021-05-27T12:53:18Z</time>
      </trkpt>
      <trkpt lat="47.7024" lon="-2.28267">
        <ele>48.3</ele>
        <time>2021-05-27T12:53:19Z</time>
      </trkpt>
      <trkpt lat="47.70239" lon="-2.28262">
        <ele>48.3</ele>
        <time>2021-05-27T12:53:20Z</time>
      </trkpt>
      <trkpt lat="47.70238" lon="-2.28258">
        <ele>48.5</ele>
        <time>2021-05-27T12:53:21Z</time>
      </trkpt>
      <trkpt lat="47.70238" lon="-2.28254">
        <ele>48.5</ele>
        <time>2021-05-27T12:53:22Z</time>
      </trkpt>
      <trkpt lat="47.70236" lon="-2.2825">
        <ele>48.8</ele>
        <time>2021-05-27T12:53:23Z</time>
      </trkpt>
      <trkpt lat="47.70235" lon="-2.28246">
        <ele>49.1</ele>
        <time>2021-05-27T12:53:24Z</time>
      </trkpt>
      <trkpt lat="47.70233" lon="-2.2824">
        <ele>49.6</ele>
        <time>2021-05-27T12:53:25Z</time>
      </trkpt>
      <trkpt lat="47.70231" lon="-2.28236">
        <ele>50</ele>
        <time>2021-05-27T12:53:26Z</time>
      </trkpt>
      <trkpt lat="47.70228" lon="-2.2823">
        <ele>50.7</ele>
        <time>2021-05-27T12:53:27Z</time>
      </trkpt>
      <trkpt lat="47.70226" lon="-2.28225">
        <ele>51</ele>
        <time>2021-05-27T12:53:28Z</time>
      </trkpt>
      <trkpt lat="47.70225" lon="-2.2822">
        <ele>51.1</ele>
        <time>2021-05-27T12:53:29Z</time>
      </trkpt>
      <trkpt lat="47.70223" lon="-2.28214">
        <ele>51.5</ele>
        <time>2021-05-27T12:53:30Z</time>
      </trkpt>
      <trkpt lat="47.70222" lon="-2.28209">
        <ele>51.7</ele>
        <time>2021-05-27T12:53:31Z</time>
      </trkpt>
      <trkpt lat="47.70222" lon="-2.28205">
        <ele>51.8</ele>
        <time>2021-05-27T12:53:32Z</time>
      </trkpt>
      <trkpt lat="47.70221" lon="-2.28201">
        <ele>51.9</ele>
        <time>2021-05-27T12:53:33Z</time>
      </trkpt>
      <trkpt lat="47.7022" lon="-2.28197">
        <ele>51.8</ele>
        <time>2021-05-27T12:53:34Z</time>
      </trkpt>
      <trkpt lat="47.70219" lon="-2.28194">
        <ele>52</ele>
        <time>2021-05-27T12:53:35Z</time>
      </trkpt>
      <trkpt lat="47.70218" lon="-2.28189">
        <ele>52.2</ele>
        <time>2021-05-27T12:53:36Z</time>
      </trkpt>
      <trkpt lat="47.70218" lon="-2.28185">
        <ele>52.2</ele>
        <time>2021-05-27T12:53:37Z</time>
      </trkpt>
      <trkpt lat="47.70218" lon="-2.28182">
        <ele>52.1</ele>
        <time>2021-05-27T12:53:38Z</time>
      </trkpt>
      <trkpt lat="47.70217" lon="-2.28179">
        <ele>52.2</ele>
        <time>2021-05-27T12:53:39Z</time>
      </trkpt>
      <trkpt lat="47.70216" lon="-2.28174">
        <ele>52.4</ele>
        <time>2021-05-27T12:53:40Z</time>
      </trkpt>
      <trkpt lat="47.70215" lon="-2.28169">
        <ele>52.5</ele>
        <time>2021-05-27T12:53:41Z</time>
      </trkpt>
      <trkpt lat="47.70213" lon="-2.28163">
        <ele>52.7</ele>
        <time>2021-05-27T12:53:42Z</time>
      </trkpt>
      <trkpt lat="47.70213" lon="-2.28157">
        <ele>52.6</ele>
        <time>2021-05-27T12:53:43Z</time>
      </trkpt>
      <trkpt lat="47.70212" lon="-2.28151">
        <ele>52.6</ele>
        <time>2021-05-27T12:53:44Z</time>
      </trkpt>
      <trkpt lat="47.70211" lon="-2.28145">
        <ele>52.7</ele>
        <time>2021-05-27T12:53:45Z</time>
      </trkpt>
      <trkpt lat="47.7021" lon="-2.28139">
        <ele>52.8</ele>
        <time>2021-05-27T12:53:46Z</time>
      </trkpt>
      <trkpt lat="47.70209" lon="-2.28134">
        <ele>53</ele>
        <time>2021-05-27T12:53:47Z</time>
      </trkpt>
      <trkpt lat="47.70207" lon="-2.28129">
        <ele>53.1</ele>
        <time>2021-05-27T12:53:48Z</time>
      </trkpt>
      <trkpt lat="47.70207" lon="-2.28125">
        <ele>53.1</ele>
        <time>2021-05-27T12:53:49Z</time>
      </trkpt>
      <trkpt lat="47.70206" lon="-2.2812">
        <ele>53.1</ele>
        <time>2021-05-27T12:53:50Z</time>
      </trkpt>
      <trkpt lat="47.70205" lon="-2.28117">
        <ele>53.4</ele>
        <time>2021-05-27T12:53:51Z</time>
      </trkpt>
      <trkpt lat="47.70204" lon="-2.28114">
        <ele>53.6</ele>
        <time>2021-05-27T12:53:52Z</time>
      </trkpt>
      <trkpt lat="47.70202" lon="-2.2811">
        <ele>53.9</ele>
        <time>2021-05-27T12:53:53Z</time>
      </trkpt>
      <trkpt lat="47.702" lon="-2.28106">
        <ele>54.3</ele>
        <time>2021-05-27T12:53:54Z</time>
      </trkpt>
      <trkpt lat="47.70198" lon="-2.28103">
        <ele>54.7</ele>
        <time>2021-05-27T12:53:55Z</time>
      </trkpt>
      <trkpt lat="47.70197" lon="-2.281">
        <ele>54.8</ele>
        <time>2021-05-27T12:53:56Z</time>
      </trkpt>
      <trkpt lat="47.70197" lon="-2.28098">
        <ele>54.8</ele>
        <time>2021-05-27T12:53:57Z</time>
      </trkpt>
      <trkpt lat="47.70195" lon="-2.28095">
        <ele>55.2</ele>
        <time>2021-05-27T12:53:58Z</time>
      </trkpt>
      <trkpt lat="47.70193" lon="-2.28094">
        <ele>55.6</ele>
        <time>2021-05-27T12:53:59Z</time>
      </trkpt>
      <trkpt lat="47.70191" lon="-2.28092">
        <ele>56.1</ele>
        <time>2021-05-27T12:54:00Z</time>
      </trkpt>
      <trkpt lat="47.70189" lon="-2.28089">
        <ele>56.5</ele>
        <time>2021-05-27T12:54:01Z</time>
      </trkpt>
      <trkpt lat="47.70187" lon="-2.28087">
        <ele>57</ele>
        <time>2021-05-27T12:54:02Z</time>
      </trkpt>
      <trkpt lat="47.70186" lon="-2.28083">
        <ele>57.2</ele>
        <time>2021-05-27T12:54:03Z</time>
      </trkpt>
      <trkpt lat="47.70184" lon="-2.28079">
        <ele>57.4</ele>
        <time>2021-05-27T12:54:04Z</time>
      </trkpt>
      <trkpt lat="47.70183" lon="-2.28077">
        <ele>57.7</ele>
        <time>2021-05-27T12:54:05Z</time>
      </trkpt>
      <trkpt lat="47.70182" lon="-2.28073">
        <ele>57.9</ele>
        <time>2021-05-27T12:54:06Z</time>
      </trkpt>
      <trkpt lat="47.7018" lon="-2.2807">
        <ele>58.2</ele>
        <time>2021-05-27T12:54:07Z</time>
      </trkpt>
      <trkpt lat="47.70179" lon="-2.28068">
        <ele>58.5</ele>
        <time>2021-05-27T12:54:08Z</time>
      </trkpt>
      <trkpt lat="47.70178" lon="-2.28065">
        <ele>58.6</ele>
        <time>2021-05-27T12:54:09Z</time>
      </trkpt>
      <trkpt lat="47.70177" lon="-2.28063">
        <ele>58.9</ele>
        <time>2021-05-27T12:54:10Z</time>
      </trkpt>
      <trkpt lat="47.70177" lon="-2.2806">
        <ele>58.9</ele>
        <time>2021-05-27T12:54:11Z</time>
      </trkpt>
      <trkpt lat="47.70176" lon="-2.28058">
        <ele>59</ele>
        <time>2021-05-27T12:54:12Z</time>
      </trkpt>
      <trkpt lat="47.70176" lon="-2.28056">
        <ele>59</ele>
        <time>2021-05-27T12:54:13Z</time>
      </trkpt>
      <trkpt lat="47.70176" lon="-2.28054">
        <ele>59</ele>
        <time>2021-05-27T12:54:14Z</time>
      </trkpt>
      <trkpt lat="47.70175" lon="-2.28051">
        <ele>59</ele>
        <time>2021-05-27T12:54:15Z</time>
      </trkpt>
      <trkpt lat="47.70174" lon="-2.28049">
        <ele>59.2</ele>
        <time>2021-05-27T12:54:16Z</time>
      </trkpt>
      <trkpt lat="47.70173" lon="-2.28047">
        <ele>59.4</ele>
        <time>2021-05-27T12:54:17Z</time>
      </trkpt>
      <trkpt lat="47.70172" lon="-2.28045">
        <ele>59.7</ele>
        <time>2021-05-27T12:54:18Z</time>
      </trkpt>
      <trkpt lat="47.70171" lon="-2.28044">
        <ele>59.9</ele>
        <time>2021-05-27T12:54:19Z</time>
      </trkpt>
      <trkpt lat="47.7017" lon="-2.28043">
        <ele>60.1</ele>
        <time>2021-05-27T12:54:20Z</time>
      </trkpt>
      <trkpt lat="47.70169" lon="-2.28041">
        <ele>60.5</ele>
        <time>2021-05-27T12:54:21Z</time>
      </trkpt>
      <trkpt lat="47.70168" lon="-2.28038">
        <ele>60.5</ele>
        <time>2021-05-27T12:54:22Z</time>
      </trkpt>
      <trkpt lat="47.70168" lon="-2.28035">
        <ele>60.5</ele>
        <time>2021-05-27T12:54:23Z</time>
      </trkpt>
      <trkpt lat="47.70168" lon="-2.28033">
        <ele>60.4</ele>
        <time>2021-05-27T12:54:24Z</time>
      </trkpt>
      <trkpt lat="47.70168" lon="-2.2803">
        <ele>60.3</ele>
        <time>2021-05-27T12:54:25Z</time>
      </trkpt>
      <trkpt lat="47.70167" lon="-2.28027">
        <ele>60.4</ele>
        <time>2021-05-27T12:54:26Z</time>
      </trkpt>
      <trkpt lat="47.70167" lon="-2.28026">
        <ele>60.7</ele>
        <time>2021-05-27T12:54:27Z</time>
      </trkpt>
      <trkpt lat="47.70166" lon="-2.28024">
        <ele>60.8</ele>
        <time>2021-05-27T12:54:28Z</time>
      </trkpt>
      <trkpt lat="47.70164" lon="-2.28022">
        <ele>61</ele>
        <time>2021-05-27T12:54:29Z</time>
      </trkpt>
      <trkpt lat="47.70163" lon="-2.2802">
        <ele>61</ele>
        <time>2021-05-27T12:54:30Z</time>
      </trkpt>
      <trkpt lat="47.70163" lon="-2.28017">
        <ele>61</ele>
        <time>2021-05-27T12:54:31Z</time>
      </trkpt>
      <trkpt lat="47.70162" lon="-2.28015">
        <ele>61.2</ele>
        <time>2021-05-27T12:54:32Z</time>
      </trkpt>
      <trkpt lat="47.70161" lon="-2.28013">
        <ele>61.2</ele>
        <time>2021-05-27T12:54:33Z</time>
      </trkpt>
      <trkpt lat="47.7016" lon="-2.2801">
        <ele>61.3</ele>
        <time>2021-05-27T12:54:34Z</time>
      </trkpt>
      <trkpt lat="47.7016" lon="-2.28007">
        <ele>61.3</ele>
        <time>2021-05-27T12:54:35Z</time>
      </trkpt>
      <trkpt lat="47.7016" lon="-2.28006">
        <ele>61.3</ele>
        <time>2021-05-27T12:54:36Z</time>
      </trkpt>
      <trkpt lat="47.70159" lon="-2.28003">
        <ele>61.3</ele>
        <time>2021-05-27T12:54:37Z</time>
      </trkpt>
      <trkpt lat="47.70159" lon="-2.28">
        <ele>61.3</ele>
        <time>2021-05-27T12:54:38Z</time>
      </trkpt>
      <trkpt lat="47.70157" lon="-2.27997">
        <ele>61.4</ele>
        <time>2021-05-27T12:54:39Z</time>
      </trkpt>
      <trkpt lat="47.70157" lon="-2.27995">
        <ele>61.4</ele>
        <time>2021-05-27T12:54:40Z</time>
      </trkpt>
      <trkpt lat="47.70156" lon="-2.27992">
        <ele>61.5</ele>
        <time>2021-05-27T12:54:41Z</time>
      </trkpt>
      <trkpt lat="47.70154" lon="-2.2799">
        <ele>61.6</ele>
        <time>2021-05-27T12:54:42Z</time>
      </trkpt>
      <trkpt lat="47.70154" lon="-2.27988">
        <ele>61.7</ele>
        <time>2021-05-27T12:54:43Z</time>
      </trkpt>
      <trkpt lat="47.70152" lon="-2.27983">
        <ele>61.7</ele>
        <time>2021-05-27T12:54:44Z</time>
      </trkpt>
      <trkpt lat="47.70151" lon="-2.2798">
        <ele>61.8</ele>
        <time>2021-05-27T12:54:45Z</time>
      </trkpt>
      <trkpt lat="47.7015" lon="-2.27977">
        <ele>61.7</ele>
        <time>2021-05-27T12:54:46Z</time>
      </trkpt>
      <trkpt lat="47.70149" lon="-2.27974">
        <ele>61.9</ele>
        <time>2021-05-27T12:54:47Z</time>
      </trkpt>
      <trkpt lat="47.70147" lon="-2.2797">
        <ele>62</ele>
        <time>2021-05-27T12:54:48Z</time>
      </trkpt>
      <trkpt lat="47.70145" lon="-2.27967">
        <ele>62.2</ele>
        <time>2021-05-27T12:54:49Z</time>
      </trkpt>
      <trkpt lat="47.70144" lon="-2.27964">
        <ele>62.3</ele>
        <time>2021-05-27T12:54:50Z</time>
      </trkpt>
      <trkpt lat="47.70143" lon="-2.27962">
        <ele>62.5</ele>
        <time>2021-05-27T12:54:51Z</time>
      </trkpt>
      <trkpt lat="47.70141" lon="-2.27958">
        <ele>62.6</ele>
        <time>2021-05-27T12:54:52Z</time>
      </trkpt>
      <trkpt lat="47.7014" lon="-2.27956">
        <ele>62.7</ele>
        <time>2021-05-27T12:54:53Z</time>
      </trkpt>
      <trkpt lat="47.70139" lon="-2.27954">
        <ele>62.8</ele>
        <time>2021-05-27T12:54:54Z</time>
      </trkpt>
      <trkpt lat="47.70139" lon="-2.2795">
        <ele>62.7</ele>
        <time>2021-05-27T12:54:55Z</time>
      </trkpt>
      <trkpt lat="47.70138" lon="-2.27946">
        <ele>62.7</ele>
        <time>2021-05-27T12:54:56Z</time>
      </trkpt>
      <trkpt lat="47.70137" lon="-2.27943">
        <ele>62.8</ele>
        <time>2021-05-27T12:54:57Z</time>
      </trkpt>
      <trkpt lat="47.70136" lon="-2.27941">
        <ele>62.9</ele>
        <time>2021-05-27T12:54:58Z</time>
      </trkpt>
      <trkpt lat="47.70135" lon="-2.27938">
        <ele>62.9</ele>
        <time>2021-05-27T12:54:59Z</time>
      </trkpt>
      <trkpt lat="47.70133" lon="-2.27935">
        <ele>63.1</ele>
        <time>2021-05-27T12:55:00Z</time>
      </trkpt>
      <trkpt lat="47.70132" lon="-2.27931">
        <ele>63.3</ele>
        <time>2021-05-27T12:55:01Z</time>
      </trkpt>
      <trkpt lat="47.70131" lon="-2.27928">
        <ele>63.3</ele>
        <time>2021-05-27T12:55:02Z</time>
      </trkpt>
      <trkpt lat="47.7013" lon="-2.27924">
        <ele>63.3</ele>
        <time>2021-05-27T12:55:03Z</time>
      </trkpt>
      <trkpt lat="47.7013" lon="-2.27921">
        <ele>63.2</ele>
        <time>2021-05-27T12:55:04Z</time>
      </trkpt>
      <trkpt lat="47.70129" lon="-2.27918">
        <ele>63.3</ele>
        <time>2021-05-27T12:55:05Z</time>
      </trkpt>
      <trkpt lat="47.70128" lon="-2.27915">
        <ele>63.3</ele>
        <time>2021-05-27T12:55:06Z</time>
      </trkpt>
      <trkpt lat="47.70127" lon="-2.27911">
        <ele>63.4</ele>
        <time>2021-05-27T12:55:07Z</time>
      </trkpt>
      <trkpt lat="47.70125" lon="-2.27907">
        <ele>63.5</ele>
        <time>2021-05-27T12:55:08Z</time>
      </trkpt>
      <trkpt lat="47.70124" lon="-2.27902">
        <ele>63.6</ele>
        <time>2021-05-27T12:55:09Z</time>
      </trkpt>
      <trkpt lat="47.70123" lon="-2.27898">
        <ele>63.7</ele>
        <time>2021-05-27T12:55:10Z</time>
      </trkpt>
      <trkpt lat="47.70123" lon="-2.27896">
        <ele>63.7</ele>
        <time>2021-05-27T12:55:11Z</time>
      </trkpt>
      <trkpt lat="47.70122" lon="-2.27892">
        <ele>63.7</ele>
        <time>2021-05-27T12:55:12Z</time>
      </trkpt>
      <trkpt lat="47.70122" lon="-2.27889">
        <ele>63.7</ele>
        <time>2021-05-27T12:55:13Z</time>
      </trkpt>
      <trkpt lat="47.70121" lon="-2.27887">
        <ele>63.7</ele>
        <time>2021-05-27T12:55:14Z</time>
      </trkpt>
      <trkpt lat="47.70121" lon="-2.27883">
        <ele>63.6</ele>
        <time>2021-05-27T12:55:15Z</time>
      </trkpt>
      <trkpt lat="47.7012" lon="-2.27879">
        <ele>63.6</ele>
        <time>2021-05-27T12:55:16Z</time>
      </trkpt>
      <trkpt lat="47.70119" lon="-2.27875">
        <ele>63.8</ele>
        <time>2021-05-27T12:55:17Z</time>
      </trkpt>
      <trkpt lat="47.70118" lon="-2.27871">
        <ele>63.9</ele>
        <time>2021-05-27T12:55:18Z</time>
      </trkpt>
      <trkpt lat="47.70117" lon="-2.27867">
        <ele>64.1</ele>
        <time>2021-05-27T12:55:19Z</time>
      </trkpt>
      <trkpt lat="47.70115" lon="-2.27863">
        <ele>64.2</ele>
        <time>2021-05-27T12:55:20Z</time>
      </trkpt>
      <trkpt lat="47.70114" lon="-2.27859">
        <ele>64.4</ele>
        <time>2021-05-27T12:55:21Z</time>
      </trkpt>
      <trkpt lat="47.70112" lon="-2.27855">
        <ele>64.6</ele>
        <time>2021-05-27T12:55:22Z</time>
      </trkpt>
      <trkpt lat="47.70111" lon="-2.2785">
        <ele>64.7</ele>
        <time>2021-05-27T12:55:23Z</time>
      </trkpt>
      <trkpt lat="47.7011" lon="-2.27846">
        <ele>65.1</ele>
        <time>2021-05-27T12:55:24Z</time>
      </trkpt>
      <trkpt lat="47.70107" lon="-2.27842">
        <ele>65.5</ele>
        <time>2021-05-27T12:55:25Z</time>
      </trkpt>
      <trkpt lat="47.70104" lon="-2.27839">
        <ele>66</ele>
        <time>2021-05-27T12:55:26Z</time>
      </trkpt>
      <trkpt lat="47.70103" lon="-2.27835">
        <ele>66.4</ele>
        <time>2021-05-27T12:55:27Z</time>
      </trkpt>
      <trkpt lat="47.701" lon="-2.27832">
        <ele>67</ele>
        <time>2021-05-27T12:55:28Z</time>
      </trkpt>
      <trkpt lat="47.70098" lon="-2.27829">
        <ele>67.4</ele>
        <time>2021-05-27T12:55:29Z</time>
      </trkpt>
      <trkpt lat="47.70097" lon="-2.27828">
        <ele>67.8</ele>
        <time>2021-05-27T12:55:30Z</time>
      </trkpt>
      <trkpt lat="47.70094" lon="-2.27827">
        <ele>68.4</ele>
        <time>2021-05-27T12:55:31Z</time>
      </trkpt>
      <trkpt lat="47.70091" lon="-2.27826">
        <ele>68.9</ele>
        <time>2021-05-27T12:55:32Z</time>
      </trkpt>
      <trkpt lat="47.70089" lon="-2.27825">
        <ele>69.5</ele>
        <time>2021-05-27T12:55:33Z</time>
      </trkpt>
      <trkpt lat="47.70088" lon="-2.27825">
        <ele>69.9</ele>
        <time>2021-05-27T12:55:34Z</time>
      </trkpt>
      <trkpt lat="47.70086" lon="-2.27825">
        <ele>70.3</ele>
        <time>2021-05-27T12:55:35Z</time>
      </trkpt>
      <trkpt lat="47.70084" lon="-2.27825">
        <ele>70.9</ele>
        <time>2021-05-27T12:55:36Z</time>
      </trkpt>
      <trkpt lat="47.70082" lon="-2.27825">
        <ele>71</ele>
        <time>2021-05-27T12:55:37Z</time>
      </trkpt>
      <trkpt lat="47.70079" lon="-2.27825">
        <ele>71.1</ele>
        <time>2021-05-27T12:55:38Z</time>
      </trkpt>
      <trkpt lat="47.70076" lon="-2.27826">
        <ele>71.2</ele>
        <time>2021-05-27T12:55:39Z</time>
      </trkpt>
      <trkpt lat="47.70074" lon="-2.27826">
        <ele>71.3</ele>
        <time>2021-05-27T12:55:40Z</time>
      </trkpt>
      <trkpt lat="47.70071" lon="-2.27826">
        <ele>71.4</ele>
        <time>2021-05-27T12:55:41Z</time>
      </trkpt>
      <trkpt lat="47.70069" lon="-2.27828">
        <ele>71.5</ele>
        <time>2021-05-27T12:55:42Z</time>
      </trkpt>
      <trkpt lat="47.70067" lon="-2.27828">
        <ele>71.6</ele>
        <time>2021-05-27T12:55:43Z</time>
      </trkpt>
      <trkpt lat="47.70064" lon="-2.27829">
        <ele>71.7</ele>
        <time>2021-05-27T12:55:44Z</time>
      </trkpt>
      <trkpt lat="47.70062" lon="-2.27829">
        <ele>71.7</ele>
        <time>2021-05-27T12:55:45Z</time>
      </trkpt>
      <trkpt lat="47.7006" lon="-2.27829">
        <ele>71.8</ele>
        <time>2021-05-27T12:55:46Z</time>
      </trkpt>
      <trkpt lat="47.70059" lon="-2.27828">
        <ele>71.8</ele>
        <time>2021-05-27T12:55:47Z</time>
      </trkpt>
      <trkpt lat="47.70058" lon="-2.27828">
        <ele>71.9</ele>
        <time>2021-05-27T12:55:48Z</time>
      </trkpt>
      <trkpt lat="47.70057" lon="-2.27828">
        <ele>71.9</ele>
        <time>2021-05-27T12:55:49Z</time>
      </trkpt>
      <trkpt lat="47.70055" lon="-2.27828">
        <ele>72</ele>
        <time>2021-05-27T12:55:50Z</time>
      </trkpt>
      <trkpt lat="47.70053" lon="-2.27828">
        <ele>72.1</ele>
        <time>2021-05-27T12:55:51Z</time>
      </trkpt>
      <trkpt lat="47.7005" lon="-2.27828">
        <ele>72.2</ele>
        <time>2021-05-27T12:55:52Z</time>
      </trkpt>
      <trkpt lat="47.70048" lon="-2.27829">
        <ele>72.3</ele>
        <time>2021-05-27T12:55:53Z</time>
      </trkpt>
      <trkpt lat="47.70047" lon="-2.2783">
        <ele>72.3</ele>
        <time>2021-05-27T12:55:54Z</time>
      </trkpt>
      <trkpt lat="47.70047" lon="-2.27829">
        <ele>72.3</ele>
        <time>2021-05-27T12:55:55Z</time>
      </trkpt>
      <trkpt lat="47.70046" lon="-2.27829">
        <ele>72.3</ele>
        <time>2021-05-27T12:55:56Z</time>
      </trkpt>
      <trkpt lat="47.70046" lon="-2.27829">
        <ele>72.3</ele>
        <time>2021-05-27T12:55:57Z</time>
      </trkpt>
      <trkpt lat="47.70046" lon="-2.27829">
        <ele>72.3</ele>
        <time>2021-05-27T12:55:58Z</time>
      </trkpt>
      <trkpt lat="47.70046" lon="-2.27829">
        <ele>72.3</ele>
        <time>2021-05-27T12:55:59Z</time>
      </trkpt>
      <trkpt lat="47.70046" lon="-2.27829">
        <ele>72.3</ele>
        <time>2021-05-27T12:56:00Z</time>
      </trkpt>
      <trkpt lat="47.70046" lon="-2.27829">
        <ele>72.3</ele>
        <time>2021-05-27T12:56:01Z</time>
      </trkpt>
      <trkpt lat="47.70046" lon="-2.27829">
        <ele>72.3</ele>
        <time>2021-05-27T12:56:02Z</time>
      </trkpt>
      <trkpt lat="47.70046" lon="-2.27829">
        <ele>72.3</ele>
        <time>2021-05-27T12:56:03Z</time>
      </trkpt>
      <trkpt lat="47.70046" lon="-2.27829">
        <ele>72.3</ele>
        <time>2021-05-27T12:56:04Z</time>
      </trkpt>
      <trkpt lat="47.70046" lon="-2.27829">
        <ele>72.3</ele>
        <time>2021-05-27T12:56:05Z</time>
      </trkpt>
      <trkpt lat="47.70046" lon="-2.27829">
        <ele>72.3</ele>
        <time>2021-05-27T12:56:06Z</time>
      </trkpt>
      <trkpt lat="47.70046" lon="-2.27829">
        <ele>72.3</ele>
        <time>2021-05-27T12:56:07Z</time>
      </trkpt>
      <trkpt lat="47.70046" lon="-2.27829">
        <ele>72.3</ele>
        <time>2021-05-27T12:56:08Z</time>
      </trkpt>
      <trkpt lat="47.70046" lon="-2.27829">
        <ele>72.3</ele>
        <time>2021-05-27T12:56:09Z</time>
      </trkpt>
      <trkpt lat="47.70046" lon="-2.27829">
        <ele>72.3</ele>
        <time>2021-05-27T12:56:10Z</time>
      </trkpt>
      <trkpt lat="47.70046" lon="-2.27829">
        <ele>72.3</ele>
        <time>2021-05-27T12:56:11Z</time>
      </trkpt>
      <trkpt lat="47.70046" lon="-2.27829">
        <ele>72.3</ele>
        <time>2021-05-27T12:56:12Z</time>
      </trkpt>
      <trkpt lat="47.70046" lon="-2.27829">
        <ele>72.3</ele>
        <time>2021-05-27T12:56:13Z</time>
      </trkpt>
      <trkpt lat="47.70046" lon="-2.27829">
        <ele>72.3</ele>
        <time>2021-05-27T12:56:14Z</time>
      </trkpt>
      <trkpt lat="47.70046" lon="-2.27829">
        <ele>72.3</ele>
        <time>2021-05-27T12:56:15Z</time>
      </trkpt>
      <trkpt lat="47.70046" lon="-2.27829">
        <ele>72.3</ele>
        <time>2021-05-27T12:56:16Z</time>
      </trkpt>
      <trkpt lat="47.70046" lon="-2.27829">
        <ele>72.3</ele>
        <time>2021-05-27T12:56:17Z</time>
      </trkpt>
      <trkpt lat="47.70046" lon="-2.27829">
        <ele>72.3</ele>
        <time>2021-05-27T12:56:18Z</time>
      </trkpt>
      <trkpt lat="47.70046" lon="-2.27829">
        <ele>72.3</ele>
        <time>2021-05-27T12:56:19Z</time>
      </trkpt>
      <trkpt lat="47.70046" lon="-2.27829">
        <ele>72.3</ele>
        <time>2021-05-27T12:56:20Z</time>
      </trkpt>
      <trkpt lat="47.70046" lon="-2.27829">
        <ele>72.3</ele>
        <time>2021-05-27T12:56:21Z</time>
      </trkpt>
      <trkpt lat="47.70046" lon="-2.2784">
        <ele>72.4</ele>
        <time>2021-05-27T12:56:22Z</time>
      </trkpt>
      <trkpt lat="47.70046" lon="-2.27843">
        <ele>72.5</ele>
        <time>2021-05-27T12:56:23Z</time>
      </trkpt>
      <trkpt lat="47.70046" lon="-2.27846">
        <ele>72.5</ele>
        <time>2021-05-27T12:56:24Z</time>
      </trkpt>
      <trkpt lat="47.70047" lon="-2.2785">
        <ele>72.5</ele>
        <time>2021-05-27T12:56:25Z</time>
      </trkpt>
      <trkpt lat="47.70047" lon="-2.27852">
        <ele>72.5</ele>
        <time>2021-05-27T12:56:26Z</time>
      </trkpt>
      <trkpt lat="47.70047" lon="-2.27856">
        <ele>72.6</ele>
        <time>2021-05-27T12:56:27Z</time>
      </trkpt>
      <trkpt lat="47.70048" lon="-2.27859">
        <ele>72.6</ele>
        <time>2021-05-27T12:56:28Z</time>
      </trkpt>
      <trkpt lat="47.70048" lon="-2.27864">
        <ele>72.6</ele>
        <time>2021-05-27T12:56:29Z</time>
      </trkpt>
      <trkpt lat="47.70049" lon="-2.27869">
        <ele>72.7</ele>
        <time>2021-05-27T12:56:30Z</time>
      </trkpt>
      <trkpt lat="47.70049" lon="-2.27873">
        <ele>72.7</ele>
        <time>2021-05-27T12:56:31Z</time>
      </trkpt>
      <trkpt lat="47.70049" lon="-2.27878">
        <ele>72.8</ele>
        <time>2021-05-27T12:56:32Z</time>
      </trkpt>
      <trkpt lat="47.7005" lon="-2.27882">
        <ele>72.8</ele>
        <time>2021-05-27T12:56:33Z</time>
      </trkpt>
      <trkpt lat="47.7005" lon="-2.27886">
        <ele>72.8</ele>
        <time>2021-05-27T12:56:34Z</time>
      </trkpt>
      <trkpt lat="47.70051" lon="-2.27892">
        <ele>72.9</ele>
        <time>2021-05-27T12:56:35Z</time>
      </trkpt>
      <trkpt lat="47.70051" lon="-2.27897">
        <ele>72.9</ele>
        <time>2021-05-27T12:56:36Z</time>
      </trkpt>
      <trkpt lat="47.70051" lon="-2.27902">
        <ele>73</ele>
        <time>2021-05-27T12:56:37Z</time>
      </trkpt>
      <trkpt lat="47.7005" lon="-2.27908">
        <ele>73.1</ele>
        <time>2021-05-27T12:56:38Z</time>
      </trkpt>
      <trkpt lat="47.70052" lon="-2.27914">
        <ele>73.1</ele>
        <time>2021-05-27T12:56:39Z</time>
      </trkpt>
      <trkpt lat="47.70054" lon="-2.27921">
        <ele>73.1</ele>
        <time>2021-05-27T12:56:40Z</time>
      </trkpt>
      <trkpt lat="47.70055" lon="-2.27928">
        <ele>73.1</ele>
        <time>2021-05-27T12:56:41Z</time>
      </trkpt>
      <trkpt lat="47.70056" lon="-2.27934">
        <ele>73.1</ele>
        <time>2021-05-27T12:56:42Z</time>
      </trkpt>
      <trkpt lat="47.70057" lon="-2.27938">
        <ele>73.1</ele>
        <time>2021-05-27T12:56:43Z</time>
      </trkpt>
      <trkpt lat="47.70057" lon="-2.27942">
        <ele>73.2</ele>
        <time>2021-05-27T12:56:44Z</time>
      </trkpt>
      <trkpt lat="47.70058" lon="-2.27947">
        <ele>73.2</ele>
        <time>2021-05-27T12:56:45Z</time>
      </trkpt>
      <trkpt lat="47.70059" lon="-2.27951">
        <ele>73.2</ele>
        <time>2021-05-27T12:56:46Z</time>
      </trkpt>
      <trkpt lat="47.7006" lon="-2.27957">
        <ele>73.3</ele>
        <time>2021-05-27T12:56:47Z</time>
      </trkpt>
      <trkpt lat="47.70062" lon="-2.27962">
        <ele>73.3</ele>
        <time>2021-05-27T12:56:48Z</time>
      </trkpt>
      <trkpt lat="47.70062" lon="-2.27967">
        <ele>73.4</ele>
        <time>2021-05-27T12:56:49Z</time>
      </trkpt>
      <trkpt lat="47.70062" lon="-2.27973">
        <ele>73.4</ele>
        <time>2021-05-27T12:56:50Z</time>
      </trkpt>
      <trkpt lat="47.70065" lon="-2.27979">
        <ele>73.5</ele>
        <time>2021-05-27T12:56:51Z</time>
      </trkpt>
      <trkpt lat="47.70066" lon="-2.27985">
        <ele>73.6</ele>
        <time>2021-05-27T12:56:52Z</time>
      </trkpt>
      <trkpt lat="47.70067" lon="-2.2799">
        <ele>73.7</ele>
        <time>2021-05-27T12:56:53Z</time>
      </trkpt>
      <trkpt lat="47.70069" lon="-2.27996">
        <ele>73.8</ele>
        <time>2021-05-27T12:56:54Z</time>
      </trkpt>
      <trkpt lat="47.7007" lon="-2.28002">
        <ele>73.8</ele>
        <time>2021-05-27T12:56:55Z</time>
      </trkpt>
      <trkpt lat="47.70072" lon="-2.28007">
        <ele>73.9</ele>
        <time>2021-05-27T12:56:56Z</time>
      </trkpt>
      <trkpt lat="47.70074" lon="-2.28013">
        <ele>73.9</ele>
        <time>2021-05-27T12:56:57Z</time>
      </trkpt>
      <trkpt lat="47.70075" lon="-2.28019">
        <ele>73.9</ele>
        <time>2021-05-27T12:56:58Z</time>
      </trkpt>
      <trkpt lat="47.70077" lon="-2.28025">
        <ele>73.9</ele>
        <time>2021-05-27T12:56:59Z</time>
      </trkpt>
      <trkpt lat="47.70078" lon="-2.28032">
        <ele>74</ele>
        <time>2021-05-27T12:57:00Z</time>
      </trkpt>
      <trkpt lat="47.70079" lon="-2.28039">
        <ele>74</ele>
        <time>2021-05-27T12:57:01Z</time>
      </trkpt>
      <trkpt lat="47.7008" lon="-2.28046">
        <ele>74</ele>
        <time>2021-05-27T12:57:02Z</time>
      </trkpt>
      <trkpt lat="47.70081" lon="-2.28053">
        <ele>74</ele>
        <time>2021-05-27T12:57:03Z</time>
      </trkpt>
      <trkpt lat="47.70081" lon="-2.28059">
        <ele>74</ele>
        <time>2021-05-27T12:57:04Z</time>
      </trkpt>
      <trkpt lat="47.70082" lon="-2.28064">
        <ele>74</ele>
        <time>2021-05-27T12:57:05Z</time>
      </trkpt>
      <trkpt lat="47.70082" lon="-2.2807">
        <ele>74</ele>
        <time>2021-05-27T12:57:06Z</time>
      </trkpt>
      <trkpt lat="47.70083" lon="-2.28079">
        <ele>74</ele>
        <time>2021-05-27T12:57:07Z</time>
      </trkpt>
      <trkpt lat="47.70084" lon="-2.28087">
        <ele>73.8</ele>
        <time>2021-05-27T12:57:08Z</time>
      </trkpt>
      <trkpt lat="47.70086" lon="-2.28094">
        <ele>73.5</ele>
        <time>2021-05-27T12:57:09Z</time>
      </trkpt>
      <trkpt lat="47.70087" lon="-2.28102">
        <ele>73.3</ele>
        <time>2021-05-27T12:57:10Z</time>
      </trkpt>
      <trkpt lat="47.70088" lon="-2.28109">
        <ele>73.1</ele>
        <time>2021-05-27T12:57:11Z</time>
      </trkpt>
      <trkpt lat="47.70089" lon="-2.28117">
        <ele>72.9</ele>
        <time>2021-05-27T12:57:12Z</time>
      </trkpt>
      <trkpt lat="47.7009" lon="-2.28125">
        <ele>72.7</ele>
        <time>2021-05-27T12:57:13Z</time>
      </trkpt>
      <trkpt lat="47.7009" lon="-2.28132">
        <ele>72.6</ele>
        <time>2021-05-27T12:57:14Z</time>
      </trkpt>
      <trkpt lat="47.70091" lon="-2.2814">
        <ele>72.4</ele>
        <time>2021-05-27T12:57:15Z</time>
      </trkpt>
      <trkpt lat="47.70092" lon="-2.28147">
        <ele>72.3</ele>
        <time>2021-05-27T12:57:16Z</time>
      </trkpt>
      <trkpt lat="47.70092" lon="-2.28155">
        <ele>72.1</ele>
        <time>2021-05-27T12:57:17Z</time>
      </trkpt>
      <trkpt lat="47.70093" lon="-2.28163">
        <ele>72</ele>
        <time>2021-05-27T12:57:18Z</time>
      </trkpt>
      <trkpt lat="47.70094" lon="-2.2817">
        <ele>71.9</ele>
        <time>2021-05-27T12:57:19Z</time>
      </trkpt>
      <trkpt lat="47.70095" lon="-2.28177">
        <ele>71.8</ele>
        <time>2021-05-27T12:57:20Z</time>
      </trkpt>
      <trkpt lat="47.70095" lon="-2.28184">
        <ele>71.8</ele>
        <time>2021-05-27T12:57:21Z</time>
      </trkpt>
      <trkpt lat="47.70096" lon="-2.28191">
        <ele>71.8</ele>
        <time>2021-05-27T12:57:22Z</time>
      </trkpt>
      <trkpt lat="47.70097" lon="-2.28197">
        <ele>71.8</ele>
        <time>2021-05-27T12:57:23Z</time>
      </trkpt>
      <trkpt lat="47.70098" lon="-2.28203">
        <ele>71.7</ele>
        <time>2021-05-27T12:57:24Z</time>
      </trkpt>
      <trkpt lat="47.70098" lon="-2.2821">
        <ele>71.7</ele>
        <time>2021-05-27T12:57:25Z</time>
      </trkpt>
      <trkpt lat="47.70099" lon="-2.28216">
        <ele>71.7</ele>
        <time>2021-05-27T12:57:26Z</time>
      </trkpt>
      <trkpt lat="47.701" lon="-2.28222">
        <ele>71.7</ele>
        <time>2021-05-27T12:57:27Z</time>
      </trkpt>
      <trkpt lat="47.70101" lon="-2.28228">
        <ele>71.7</ele>
        <time>2021-05-27T12:57:28Z</time>
      </trkpt>
      <trkpt lat="47.701" lon="-2.28234">
        <ele>71.8</ele>
        <time>2021-05-27T12:57:29Z</time>
      </trkpt>
      <trkpt lat="47.701" lon="-2.2824">
        <ele>71.9</ele>
        <time>2021-05-27T12:57:30Z</time>
      </trkpt>
      <trkpt lat="47.70101" lon="-2.28246">
        <ele>71.9</ele>
        <time>2021-05-27T12:57:31Z</time>
      </trkpt>
      <trkpt lat="47.70101" lon="-2.28252">
        <ele>72</ele>
        <time>2021-05-27T12:57:32Z</time>
      </trkpt>
      <trkpt lat="47.70101" lon="-2.28259">
        <ele>72.1</ele>
        <time>2021-05-27T12:57:33Z</time>
      </trkpt>
      <trkpt lat="47.70101" lon="-2.28266">
        <ele>72.1</ele>
        <time>2021-05-27T12:57:34Z</time>
      </trkpt>
      <trkpt lat="47.70101" lon="-2.28272">
        <ele>72.2</ele>
        <time>2021-05-27T12:57:35Z</time>
      </trkpt>
      <trkpt lat="47.70101" lon="-2.28278">
        <ele>72.3</ele>
        <time>2021-05-27T12:57:36Z</time>
      </trkpt>
      <trkpt lat="47.70101" lon="-2.28284">
        <ele>72.4</ele>
        <time>2021-05-27T12:57:37Z</time>
      </trkpt>
      <trkpt lat="47.70101" lon="-2.28291">
        <ele>72.5</ele>
        <time>2021-05-27T12:57:38Z</time>
      </trkpt>
      <trkpt lat="47.70101" lon="-2.28298">
        <ele>72.7</ele>
        <time>2021-05-27T12:57:39Z</time>
      </trkpt>
      <trkpt lat="47.701" lon="-2.28306">
        <ele>72.8</ele>
        <time>2021-05-27T12:57:40Z</time>
      </trkpt>
      <trkpt lat="47.701" lon="-2.28313">
        <ele>72.9</ele>
        <time>2021-05-27T12:57:41Z</time>
      </trkpt>
      <trkpt lat="47.701" lon="-2.28319">
        <ele>73</ele>
        <time>2021-05-27T12:57:42Z</time>
      </trkpt>
      <trkpt lat="47.70099" lon="-2.28326">
        <ele>73.1</ele>
        <time>2021-05-27T12:57:43Z</time>
      </trkpt>
      <trkpt lat="47.70098" lon="-2.28332">
        <ele>73.2</ele>
        <time>2021-05-27T12:57:44Z</time>
      </trkpt>
      <trkpt lat="47.70098" lon="-2.28338">
        <ele>73.3</ele>
        <time>2021-05-27T12:57:45Z</time>
      </trkpt>
      <trkpt lat="47.70099" lon="-2.28344">
        <ele>73.4</ele>
        <time>2021-05-27T12:57:46Z</time>
      </trkpt>
      <trkpt lat="47.70099" lon="-2.2835">
        <ele>73.5</ele>
        <time>2021-05-27T12:57:47Z</time>
      </trkpt>
      <trkpt lat="47.70099" lon="-2.28353">
        <ele>73.5</ele>
        <time>2021-05-27T12:57:48Z</time>
      </trkpt>
      <trkpt lat="47.70099" lon="-2.28354">
        <ele>73.5</ele>
        <time>2021-05-27T12:57:49Z</time>
      </trkpt>
      <trkpt lat="47.701" lon="-2.2836">
        <ele>73.5</ele>
        <time>2021-05-27T12:59:49Z</time>
      </trkpt>
      <trkpt lat="47.70101" lon="-2.28365">
        <ele>73.5</ele>
        <time>2021-05-27T12:59:50Z</time>
      </trkpt>
      <trkpt lat="47.70101" lon="-2.2837">
        <ele>73.6</ele>
        <time>2021-05-27T12:59:51Z</time>
      </trkpt>
      <trkpt lat="47.70102" lon="-2.28375">
        <ele>73.6</ele>
        <time>2021-05-27T12:59:52Z</time>
      </trkpt>
      <trkpt lat="47.70102" lon="-2.2838">
        <ele>73.6</ele>
        <time>2021-05-27T12:59:53Z</time>
      </trkpt>
      <trkpt lat="47.70103" lon="-2.28386">
        <ele>73.7</ele>
        <time>2021-05-27T12:59:54Z</time>
      </trkpt>
      <trkpt lat="47.70103" lon="-2.28392">
        <ele>73.7</ele>
        <time>2021-05-27T12:59:55Z</time>
      </trkpt>
      <trkpt lat="47.70103" lon="-2.28398">
        <ele>73.8</ele>
        <time>2021-05-27T12:59:56Z</time>
      </trkpt>
      <trkpt lat="47.70102" lon="-2.28404">
        <ele>73.9</ele>
        <time>2021-05-27T12:59:57Z</time>
      </trkpt>
      <trkpt lat="47.70102" lon="-2.2841">
        <ele>74</ele>
        <time>2021-05-27T12:59:58Z</time>
      </trkpt>
      <trkpt lat="47.70102" lon="-2.28416">
        <ele>74.1</ele>
        <time>2021-05-27T12:59:59Z</time>
      </trkpt>
      <trkpt lat="47.70101" lon="-2.28423">
        <ele>74.2</ele>
        <time>2021-05-27T13:00:00Z</time>
      </trkpt>
      <trkpt lat="47.701" lon="-2.28429">
        <ele>74.2</ele>
        <time>2021-05-27T13:00:01Z</time>
      </trkpt>
      <trkpt lat="47.701" lon="-2.28435">
        <ele>74.3</ele>
        <time>2021-05-27T13:00:02Z</time>
      </trkpt>
      <trkpt lat="47.70099" lon="-2.28441">
        <ele>74.3</ele>
        <time>2021-05-27T13:00:03Z</time>
      </trkpt>
      <trkpt lat="47.70098" lon="-2.28446">
        <ele>74.4</ele>
        <time>2021-05-27T13:00:04Z</time>
      </trkpt>
      <trkpt lat="47.70097" lon="-2.28452">
        <ele>74.4</ele>
        <time>2021-05-27T13:00:05Z</time>
      </trkpt>
      <trkpt lat="47.70096" lon="-2.28459">
        <ele>74.5</ele>
        <time>2021-05-27T13:00:06Z</time>
      </trkpt>
      <trkpt lat="47.70095" lon="-2.28465">
        <ele>74.5</ele>
        <time>2021-05-27T13:00:07Z</time>
      </trkpt>
      <trkpt lat="47.70094" lon="-2.28471">
        <ele>74.6</ele>
        <time>2021-05-27T13:00:08Z</time>
      </trkpt>
      <trkpt lat="47.70093" lon="-2.28478">
        <ele>74.6</ele>
        <time>2021-05-27T13:00:09Z</time>
      </trkpt>
      <trkpt lat="47.70092" lon="-2.28484">
        <ele>74.7</ele>
        <time>2021-05-27T13:00:10Z</time>
      </trkpt>
      <trkpt lat="47.70091" lon="-2.2849">
        <ele>74.7</ele>
        <time>2021-05-27T13:00:11Z</time>
      </trkpt>
      <trkpt lat="47.70091" lon="-2.28496">
        <ele>74.7</ele>
        <time>2021-05-27T13:00:12Z</time>
      </trkpt>
      <trkpt lat="47.7009" lon="-2.28501">
        <ele>74.7</ele>
        <time>2021-05-27T13:00:13Z</time>
      </trkpt>
      <trkpt lat="47.7009" lon="-2.28507">
        <ele>74.7</ele>
        <time>2021-05-27T13:00:14Z</time>
      </trkpt>
      <trkpt lat="47.70089" lon="-2.28512">
        <ele>74.7</ele>
        <time>2021-05-27T13:00:15Z</time>
      </trkpt>
      <trkpt lat="47.70088" lon="-2.28516">
        <ele>74.6</ele>
        <time>2021-05-27T13:00:16Z</time>
      </trkpt>
      <trkpt lat="47.70088" lon="-2.2852">
        <ele>74.6</ele>
        <time>2021-05-27T13:00:17Z</time>
      </trkpt>
      <trkpt lat="47.70087" lon="-2.28521">
        <ele>74.6</ele>
        <time>2021-05-27T13:00:18Z</time>
      </trkpt>
      <trkpt lat="47.70086" lon="-2.28522">
        <ele>74.6</ele>
        <time>2021-05-27T13:00:19Z</time>
      </trkpt>
      <trkpt lat="47.70086" lon="-2.28522">
        <ele>74.7</ele>
        <time>2021-05-27T13:00:20Z</time>
      </trkpt>
      <trkpt lat="47.70085" lon="-2.28521">
        <ele>74.7</ele>
        <time>2021-05-27T13:00:21Z</time>
      </trkpt>
      <trkpt lat="47.70085" lon="-2.28521">
        <ele>74.7</ele>
        <time>2021-05-27T13:00:22Z</time>
      </trkpt>
      <trkpt lat="47.70085" lon="-2.28521">
        <ele>74.7</ele>
        <time>2021-05-27T13:00:23Z</time>
      </trkpt>
      <trkpt lat="47.70082" lon="-2.28521">
        <ele>74.7</ele>
        <time>2021-05-27T13:00:24Z</time>
      </trkpt>
      <trkpt lat="47.7008" lon="-2.28522">
        <ele>74.7</ele>
        <time>2021-05-27T13:00:25Z</time>
      </trkpt>
      <trkpt lat="47.70079" lon="-2.28522">
        <ele>74.7</ele>
        <time>2021-05-27T13:00:26Z</time>
      </trkpt>
      <trkpt lat="47.70078" lon="-2.28522">
        <ele>74.7</ele>
        <time>2021-05-27T13:00:27Z</time>
      </trkpt>
      <trkpt lat="47.70077" lon="-2.28522">
        <ele>74.6</ele>
        <time>2021-05-27T13:00:28Z</time>
      </trkpt>
      <trkpt lat="47.70075" lon="-2.28523">
        <ele>74.6</ele>
        <time>2021-05-27T13:00:29Z</time>
      </trkpt>
      <trkpt lat="47.70074" lon="-2.28522">
        <ele>74.6</ele>
        <time>2021-05-27T13:00:30Z</time>
      </trkpt>
      <trkpt lat="47.70072" lon="-2.28521">
        <ele>74.6</ele>
        <time>2021-05-27T13:00:31Z</time>
      </trkpt>
      <trkpt lat="47.70071" lon="-2.28519">
        <ele>74.6</ele>
        <time>2021-05-27T13:00:32Z</time>
      </trkpt>
      <trkpt lat="47.7007" lon="-2.28516">
        <ele>74.6</ele>
        <time>2021-05-27T13:00:33Z</time>
      </trkpt>
      <trkpt lat="47.70069" lon="-2.28515">
        <ele>74.6</ele>
        <time>2021-05-27T13:00:34Z</time>
      </trkpt>
      <trkpt lat="47.70069" lon="-2.28514">
        <ele>74.6</ele>
        <time>2021-05-27T13:00:35Z</time>
      </trkpt>
      <trkpt lat="47.70069" lon="-2.28514">
        <ele>74.6</ele>
        <time>2021-05-27T13:00:36Z</time>
      </trkpt>
      <trkpt lat="47.70069" lon="-2.28514">
        <ele>74.6</ele>
        <time>2021-05-27T13:00:37Z</time>
      </trkpt>
      <trkpt lat="47.70069" lon="-2.28514">
        <ele>74.6</ele>
        <time>2021-05-27T13:00:38Z</time>
      </trkpt>
      <trkpt lat="47.70069" lon="-2.28514">
        <ele>74.6</ele>
        <time>2021-05-27T13:00:39Z</time>
      </trkpt>
      <trkpt lat="47.70069" lon="-2.28514">
        <ele>74.6</ele>
        <time>2021-05-27T13:00:40Z</time>
      </trkpt>
      <trkpt lat="47.70069" lon="-2.28514">
        <ele>74.6</ele>
        <time>2021-05-27T13:00:41Z</time>
      </trkpt>
      <trkpt lat="47.70069" lon="-2.28514">
        <ele>74.6</ele>
        <time>2021-05-27T13:00:42Z</time>
      </trkpt>
      <trkpt lat="47.70069" lon="-2.28514">
        <ele>74.6</ele>
        <time>2021-05-27T13:00:43Z</time>
      </trkpt>
      <trkpt lat="47.70069" lon="-2.28514">
        <ele>74.6</ele>
        <time>2021-05-27T13:00:44Z</time>
      </trkpt>
      <trkpt lat="47.70069" lon="-2.28514">
        <ele>74.6</ele>
        <time>2021-05-27T13:00:45Z</time>
      </trkpt>
      <trkpt lat="47.70069" lon="-2.28514">
        <ele>74.6</ele>
        <time>2021-05-27T13:00:46Z</time>
      </trkpt>
      <trkpt lat="47.70069" lon="-2.28514">
        <ele>74.6</ele>
        <time>2021-05-27T13:00:47Z</time>
      </trkpt>
      <trkpt lat="47.70069" lon="-2.28514">
        <ele>74.6</ele>
        <time>2021-05-27T13:00:48Z</time>
      </trkpt>
      <trkpt lat="47.7007" lon="-2.28512">
        <ele>74.7</ele>
        <time>2021-05-27T13:00:49Z</time>
      </trkpt>
      <trkpt lat="47.70069" lon="-2.28511">
        <ele>74.7</ele>
        <time>2021-05-27T13:00:50Z</time>
      </trkpt>
      <trkpt lat="47.70069" lon="-2.28508">
        <ele>74.7</ele>
        <time>2021-05-27T13:00:51Z</time>
      </trkpt>
      <trkpt lat="47.70068" lon="-2.28507">
        <ele>74.7</ele>
        <time>2021-05-27T13:00:52Z</time>
      </trkpt>
      <trkpt lat="47.70066" lon="-2.28506">
        <ele>74.7</ele>
        <time>2021-05-27T13:00:53Z</time>
      </trkpt>
      <trkpt lat="47.70065" lon="-2.28505">
        <ele>74.7</ele>
        <time>2021-05-27T13:00:54Z</time>
      </trkpt>
      <trkpt lat="47.70063" lon="-2.28503">
        <ele>74.7</ele>
        <time>2021-05-27T13:00:55Z</time>
      </trkpt>
      <trkpt lat="47.70061" lon="-2.28501">
        <ele>74.7</ele>
        <time>2021-05-27T13:00:56Z</time>
      </trkpt>
      <trkpt lat="47.70058" lon="-2.28498">
        <ele>74.7</ele>
        <time>2021-05-27T13:00:57Z</time>
      </trkpt>
      <trkpt lat="47.70056" lon="-2.28494">
        <ele>74.7</ele>
        <time>2021-05-27T13:00:58Z</time>
      </trkpt>
      <trkpt lat="47.70055" lon="-2.28491">
        <ele>74.7</ele>
        <time>2021-05-27T13:00:59Z</time>
      </trkpt>
      <trkpt lat="47.70054" lon="-2.28489">
        <ele>74.7</ele>
        <time>2021-05-27T13:01:00Z</time>
      </trkpt>
      <trkpt lat="47.70052" lon="-2.28486">
        <ele>74.7</ele>
        <time>2021-05-27T13:01:01Z</time>
      </trkpt>
      <trkpt lat="47.70051" lon="-2.28483">
        <ele>74.8</ele>
        <time>2021-05-27T13:01:02Z</time>
      </trkpt>
      <trkpt lat="47.70049" lon="-2.28479">
        <ele>74.8</ele>
        <time>2021-05-27T13:01:03Z</time>
      </trkpt>
      <trkpt lat="47.70048" lon="-2.28475">
        <ele>74.8</ele>
        <time>2021-05-27T13:01:04Z</time>
      </trkpt>
      <trkpt lat="47.70047" lon="-2.28471">
        <ele>74.9</ele>
        <time>2021-05-27T13:01:05Z</time>
      </trkpt>
      <trkpt lat="47.70047" lon="-2.28467">
        <ele>74.9</ele>
        <time>2021-05-27T13:01:06Z</time>
      </trkpt>
      <trkpt lat="47.70046" lon="-2.28462">
        <ele>75</ele>
        <time>2021-05-27T13:01:07Z</time>
      </trkpt>
      <trkpt lat="47.70045" lon="-2.28458">
        <ele>75</ele>
        <time>2021-05-27T13:01:08Z</time>
      </trkpt>
      <trkpt lat="47.70044" lon="-2.28453">
        <ele>75.1</ele>
        <time>2021-05-27T13:01:09Z</time>
      </trkpt>
      <trkpt lat="47.70043" lon="-2.2845">
        <ele>75.1</ele>
        <time>2021-05-27T13:01:10Z</time>
      </trkpt>
      <trkpt lat="47.70042" lon="-2.28446">
        <ele>75.1</ele>
        <time>2021-05-27T13:01:11Z</time>
      </trkpt>
      <trkpt lat="47.70042" lon="-2.28442">
        <ele>75.2</ele>
        <time>2021-05-27T13:01:12Z</time>
      </trkpt>
      <trkpt lat="47.70041" lon="-2.28438">
        <ele>75.3</ele>
        <time>2021-05-27T13:01:13Z</time>
      </trkpt>
      <trkpt lat="47.7004" lon="-2.28433">
        <ele>75.3</ele>
        <time>2021-05-27T13:01:14Z</time>
      </trkpt>
      <trkpt lat="47.70038" lon="-2.28426">
        <ele>75.4</ele>
        <time>2021-05-27T13:01:15Z</time>
      </trkpt>
      <trkpt lat="47.70036" lon="-2.2842">
        <ele>75.5</ele>
        <time>2021-05-27T13:01:16Z</time>
      </trkpt>
      <trkpt lat="47.70035" lon="-2.28415">
        <ele>75.6</ele>
        <time>2021-05-27T13:01:17Z</time>
      </trkpt>
      <trkpt lat="47.70033" lon="-2.2841">
        <ele>75.6</ele>
        <time>2021-05-27T13:01:18Z</time>
      </trkpt>
      <trkpt lat="47.70032" lon="-2.28405">
        <ele>75.6</ele>
        <time>2021-05-27T13:01:19Z</time>
      </trkpt>
      <trkpt lat="47.70031" lon="-2.28401">
        <ele>75.6</ele>
        <time>2021-05-27T13:01:20Z</time>
      </trkpt>
      <trkpt lat="47.70031" lon="-2.28395">
        <ele>75.5</ele>
        <time>2021-05-27T13:01:21Z</time>
      </trkpt>
      <trkpt lat="47.7003" lon="-2.2839">
        <ele>75.5</ele>
        <time>2021-05-27T13:01:22Z</time>
      </trkpt>
      <trkpt lat="47.70029" lon="-2.28384">
        <ele>75.5</ele>
        <time>2021-05-27T13:01:23Z</time>
      </trkpt>
      <trkpt lat="47.70029" lon="-2.28379">
        <ele>75.5</ele>
        <time>2021-05-27T13:01:24Z</time>
      </trkpt>
      <trkpt lat="47.70029" lon="-2.28373">
        <ele>75.5</ele>
        <time>2021-05-27T13:01:25Z</time>
      </trkpt>
      <trkpt lat="47.70028" lon="-2.28366">
        <ele>75.5</ele>
        <time>2021-05-27T13:01:26Z</time>
      </trkpt>
      <trkpt lat="47.70026" lon="-2.2836">
        <ele>75.5</ele>
        <time>2021-05-27T13:01:27Z</time>
      </trkpt>
      <trkpt lat="47.70025" lon="-2.28352">
        <ele>75.5</ele>
        <time>2021-05-27T13:01:28Z</time>
      </trkpt>
      <trkpt lat="47.70026" lon="-2.28347">
        <ele>75.4</ele>
        <time>2021-05-27T13:01:29Z</time>
      </trkpt>
      <trkpt lat="47.70026" lon="-2.28341">
        <ele>75.4</ele>
        <time>2021-05-27T13:01:30Z</time>
      </trkpt>
      <trkpt lat="47.70025" lon="-2.28335">
        <ele>75.4</ele>
        <time>2021-05-27T13:01:31Z</time>
      </trkpt>
      <trkpt lat="47.70024" lon="-2.28329">
        <ele>75.4</ele>
        <time>2021-05-27T13:01:32Z</time>
      </trkpt>
      <trkpt lat="47.70024" lon="-2.28323">
        <ele>75.5</ele>
        <time>2021-05-27T13:01:33Z</time>
      </trkpt>
      <trkpt lat="47.70023" lon="-2.28319">
        <ele>75.5</ele>
        <time>2021-05-27T13:01:34Z</time>
      </trkpt>
      <trkpt lat="47.70022" lon="-2.28315">
        <ele>75.6</ele>
        <time>2021-05-27T13:01:35Z</time>
      </trkpt>
      <trkpt lat="47.70022" lon="-2.28313">
        <ele>75.6</ele>
        <time>2021-05-27T13:01:36Z</time>
      </trkpt>
      <trkpt lat="47.70021" lon="-2.28311">
        <ele>75.6</ele>
        <time>2021-05-27T13:01:37Z</time>
      </trkpt>
      <trkpt lat="47.70021" lon="-2.28308">
        <ele>75.6</ele>
        <time>2021-05-27T13:01:38Z</time>
      </trkpt>
      <trkpt lat="47.70021" lon="-2.28306">
        <ele>75.7</ele>
        <time>2021-05-27T13:01:39Z</time>
      </trkpt>
      <trkpt lat="47.70021" lon="-2.28304">
        <ele>75.7</ele>
        <time>2021-05-27T13:01:40Z</time>
      </trkpt>
      <trkpt lat="47.7002" lon="-2.28301">
        <ele>75.7</ele>
        <time>2021-05-27T13:01:41Z</time>
      </trkpt>
      <trkpt lat="47.7002" lon="-2.28297">
        <ele>75.7</ele>
        <time>2021-05-27T13:01:42Z</time>
      </trkpt>
      <trkpt lat="47.70019" lon="-2.28293">
        <ele>75.8</ele>
        <time>2021-05-27T13:01:43Z</time>
      </trkpt>
      <trkpt lat="47.70018" lon="-2.28288">
        <ele>75.9</ele>
        <time>2021-05-27T13:01:44Z</time>
      </trkpt>
      <trkpt lat="47.70017" lon="-2.28283">
        <ele>75.9</ele>
        <time>2021-05-27T13:01:45Z</time>
      </trkpt>
      <trkpt lat="47.70017" lon="-2.28277">
        <ele>76</ele>
        <time>2021-05-27T13:01:46Z</time>
      </trkpt>
      <trkpt lat="47.70016" lon="-2.28271">
        <ele>76.1</ele>
        <time>2021-05-27T13:01:47Z</time>
      </trkpt>
      <trkpt lat="47.70016" lon="-2.28265">
        <ele>76.1</ele>
        <time>2021-05-27T13:01:48Z</time>
      </trkpt>
      <trkpt lat="47.70015" lon="-2.28259">
        <ele>76.2</ele>
        <time>2021-05-27T13:01:49Z</time>
      </trkpt>
      <trkpt lat="47.70015" lon="-2.28253">
        <ele>76.3</ele>
        <time>2021-05-27T13:01:50Z</time>
      </trkpt>
      <trkpt lat="47.70014" lon="-2.28247">
        <ele>76.3</ele>
        <time>2021-05-27T13:01:51Z</time>
      </trkpt>
      <trkpt lat="47.70014" lon="-2.28241">
        <ele>76.2</ele>
        <time>2021-05-27T13:01:52Z</time>
      </trkpt>
      <trkpt lat="47.70013" lon="-2.28235">
        <ele>76.1</ele>
        <time>2021-05-27T13:01:53Z</time>
      </trkpt>
      <trkpt lat="47.70013" lon="-2.28229">
        <ele>75.9</ele>
        <time>2021-05-27T13:01:54Z</time>
      </trkpt>
      <trkpt lat="47.70012" lon="-2.28222">
        <ele>75.9</ele>
        <time>2021-05-27T13:01:55Z</time>
      </trkpt>
      <trkpt lat="47.70012" lon="-2.28216">
        <ele>75.7</ele>
        <time>2021-05-27T13:01:56Z</time>
      </trkpt>
      <trkpt lat="47.70011" lon="-2.2821">
        <ele>75.6</ele>
        <time>2021-05-27T13:01:57Z</time>
      </trkpt>
      <trkpt lat="47.7001" lon="-2.28204">
        <ele>75.5</ele>
        <time>2021-05-27T13:01:58Z</time>
      </trkpt>
      <trkpt lat="47.70009" lon="-2.28197">
        <ele>75.4</ele>
        <time>2021-05-27T13:01:59Z</time>
      </trkpt>
      <trkpt lat="47.70008" lon="-2.28191">
        <ele>75.3</ele>
        <time>2021-05-27T13:02:00Z</time>
      </trkpt>
      <trkpt lat="47.70008" lon="-2.28185">
        <ele>75.2</ele>
        <time>2021-05-27T13:02:01Z</time>
      </trkpt>
      <trkpt lat="47.70008" lon="-2.28178">
        <ele>75.1</ele>
        <time>2021-05-27T13:02:02Z</time>
      </trkpt>
      <trkpt lat="47.70007" lon="-2.28171">
        <ele>74.9</ele>
        <time>2021-05-27T13:02:03Z</time>
      </trkpt>
      <trkpt lat="47.70007" lon="-2.28165">
        <ele>74.8</ele>
        <time>2021-05-27T13:02:04Z</time>
      </trkpt>
      <trkpt lat="47.70006" lon="-2.28158">
        <ele>74.8</ele>
        <time>2021-05-27T13:02:05Z</time>
      </trkpt>
      <trkpt lat="47.70006" lon="-2.28151">
        <ele>74.7</ele>
        <time>2021-05-27T13:02:06Z</time>
      </trkpt>
      <trkpt lat="47.70005" lon="-2.28144">
        <ele>74.6</ele>
        <time>2021-05-27T13:02:07Z</time>
      </trkpt>
      <trkpt lat="47.70005" lon="-2.28137">
        <ele>74.6</ele>
        <time>2021-05-27T13:02:08Z</time>
      </trkpt>
      <trkpt lat="47.70005" lon="-2.28131">
        <ele>74.5</ele>
        <time>2021-05-27T13:02:09Z</time>
      </trkpt>
      <trkpt lat="47.70005" lon="-2.28124">
        <ele>74.4</ele>
        <time>2021-05-27T13:02:10Z</time>
      </trkpt>
      <trkpt lat="47.70004" lon="-2.28118">
        <ele>74.4</ele>
        <time>2021-05-27T13:02:11Z</time>
      </trkpt>
      <trkpt lat="47.70003" lon="-2.28113">
        <ele>74.3</ele>
        <time>2021-05-27T13:02:12Z</time>
      </trkpt>
      <trkpt lat="47.7" lon="-2.28109">
        <ele>74.3</ele>
        <time>2021-05-27T13:02:13Z</time>
      </trkpt>
      <trkpt lat="47.69997" lon="-2.28106">
        <ele>74.1</ele>
        <time>2021-05-27T13:02:14Z</time>
      </trkpt>
      <trkpt lat="47.69995" lon="-2.28103">
        <ele>73.9</ele>
        <time>2021-05-27T13:02:15Z</time>
      </trkpt>
      <trkpt lat="47.69993" lon="-2.281">
        <ele>73.7</ele>
        <time>2021-05-27T13:02:16Z</time>
      </trkpt>
      <trkpt lat="47.6999" lon="-2.28097">
        <ele>73.4</ele>
        <time>2021-05-27T13:02:17Z</time>
      </trkpt>
      <trkpt lat="47.69987" lon="-2.28094">
        <ele>73.2</ele>
        <time>2021-05-27T13:02:18Z</time>
      </trkpt>
      <trkpt lat="47.69985" lon="-2.28092">
        <ele>73</ele>
        <time>2021-05-27T13:02:19Z</time>
      </trkpt>
      <trkpt lat="47.69982" lon="-2.2809">
        <ele>72.8</ele>
        <time>2021-05-27T13:02:20Z</time>
      </trkpt>
      <trkpt lat="47.6998" lon="-2.28091">
        <ele>72.7</ele>
        <time>2021-05-27T13:02:21Z</time>
      </trkpt>
      <trkpt lat="47.69979" lon="-2.28095">
        <ele>72.6</ele>
        <time>2021-05-27T13:02:22Z</time>
      </trkpt>
      <trkpt lat="47.69977" lon="-2.28097">
        <ele>72.5</ele>
        <time>2021-05-27T13:02:23Z</time>
      </trkpt>
      <trkpt lat="47.69976" lon="-2.28099">
        <ele>72.4</ele>
        <time>2021-05-27T13:02:24Z</time>
      </trkpt>
      <trkpt lat="47.69973" lon="-2.28099">
        <ele>72.3</ele>
        <time>2021-05-27T13:02:25Z</time>
      </trkpt>
      <trkpt lat="47.69971" lon="-2.281">
        <ele>72.1</ele>
        <time>2021-05-27T13:02:26Z</time>
      </trkpt>
      <trkpt lat="47.69968" lon="-2.28101">
        <ele>71.9</ele>
        <time>2021-05-27T13:02:27Z</time>
      </trkpt>
      <trkpt lat="47.69966" lon="-2.28103">
        <ele>71.8</ele>
        <time>2021-05-27T13:02:28Z</time>
      </trkpt>
      <trkpt lat="47.69963" lon="-2.28105">
        <ele>71.6</ele>
        <time>2021-05-27T13:02:29Z</time>
      </trkpt>
      <trkpt lat="47.69962" lon="-2.28109">
        <ele>71.6</ele>
        <time>2021-05-27T13:02:30Z</time>
      </trkpt>
      <trkpt lat="47.69962" lon="-2.28115">
        <ele>71.6</ele>
        <time>2021-05-27T13:02:31Z</time>
      </trkpt>
      <trkpt lat="47.69961" lon="-2.28119">
        <ele>71.6</ele>
        <time>2021-05-27T13:02:32Z</time>
      </trkpt>
      <trkpt lat="47.6996" lon="-2.28123">
        <ele>71.6</ele>
        <time>2021-05-27T13:02:33Z</time>
      </trkpt>
      <trkpt lat="47.6996" lon="-2.28127">
        <ele>71.6</ele>
        <time>2021-05-27T13:02:34Z</time>
      </trkpt>
      <trkpt lat="47.6996" lon="-2.28132">
        <ele>71.7</ele>
        <time>2021-05-27T13:02:35Z</time>
      </trkpt>
      <trkpt lat="47.6996" lon="-2.28137">
        <ele>71.8</ele>
        <time>2021-05-27T13:02:36Z</time>
      </trkpt>
      <trkpt lat="47.6996" lon="-2.28141">
        <ele>71.8</ele>
        <time>2021-05-27T13:02:37Z</time>
      </trkpt>
      <trkpt lat="47.69959" lon="-2.28143">
        <ele>71.8</ele>
        <time>2021-05-27T13:02:38Z</time>
      </trkpt>
      <trkpt lat="47.69957" lon="-2.28144">
        <ele>71.6</ele>
        <time>2021-05-27T13:02:39Z</time>
      </trkpt>
      <trkpt lat="47.69954" lon="-2.28144">
        <ele>71.4</ele>
        <time>2021-05-27T13:02:40Z</time>
      </trkpt>
      <trkpt lat="47.6995" lon="-2.28146">
        <ele>71.2</ele>
        <time>2021-05-27T13:02:41Z</time>
      </trkpt>
      <trkpt lat="47.69947" lon="-2.28148">
        <ele>70.9</ele>
        <time>2021-05-27T13:02:42Z</time>
      </trkpt>
      <trkpt lat="47.69943" lon="-2.28149">
        <ele>70.7</ele>
        <time>2021-05-27T13:02:43Z</time>
      </trkpt>
      <trkpt lat="47.6994" lon="-2.28152">
        <ele>70.5</ele>
        <time>2021-05-27T13:02:44Z</time>
      </trkpt>
      <trkpt lat="47.69937" lon="-2.28155">
        <ele>70.3</ele>
        <time>2021-05-27T13:02:45Z</time>
      </trkpt>
      <trkpt lat="47.69935" lon="-2.28158">
        <ele>70.2</ele>
        <time>2021-05-27T13:02:46Z</time>
      </trkpt>
      <trkpt lat="47.69934" lon="-2.28159">
        <ele>70.2</ele>
        <time>2021-05-27T13:02:47Z</time>
      </trkpt>
      <trkpt lat="47.69935" lon="-2.28158">
        <ele>70.2</ele>
        <time>2021-05-27T13:02:48Z</time>
      </trkpt>
      <trkpt lat="47.69935" lon="-2.28158">
        <ele>70.2</ele>
        <time>2021-05-27T13:02:49Z</time>
      </trkpt>
      <trkpt lat="47.69935" lon="-2.28158">
        <ele>70.2</ele>
        <time>2021-05-27T13:02:50Z</time>
      </trkpt>
      <trkpt lat="47.69935" lon="-2.28158">
        <ele>70.2</ele>
        <time>2021-05-27T13:02:51Z</time>
      </trkpt>
      <trkpt lat="47.69935" lon="-2.28158">
        <ele>70.2</ele>
        <time>2021-05-27T13:02:52Z</time>
      </trkpt>
      <trkpt lat="47.69935" lon="-2.28158">
        <ele>70.2</ele>
        <time>2021-05-27T13:02:53Z</time>
      </trkpt>
      <trkpt lat="47.69935" lon="-2.28158">
        <ele>70.2</ele>
        <time>2021-05-27T13:02:54Z</time>
      </trkpt>
      <trkpt lat="47.69935" lon="-2.28158">
        <ele>70.2</ele>
        <time>2021-05-27T13:02:55Z</time>
      </trkpt>
      <trkpt lat="47.69935" lon="-2.28158">
        <ele>70.2</ele>
        <time>2021-05-27T13:02:56Z</time>
      </trkpt>
      <trkpt lat="47.69933" lon="-2.28161">
        <ele>70.1</ele>
        <time>2021-05-27T13:02:57Z</time>
      </trkpt>
      <trkpt lat="47.69931" lon="-2.28163">
        <ele>70</ele>
        <time>2021-05-27T13:02:58Z</time>
      </trkpt>
      <trkpt lat="47.69929" lon="-2.28165">
        <ele>69.9</ele>
        <time>2021-05-27T13:02:59Z</time>
      </trkpt>
      <trkpt lat="47.69927" lon="-2.28166">
        <ele>69.7</ele>
        <time>2021-05-27T13:03:00Z</time>
      </trkpt>
      <trkpt lat="47.69925" lon="-2.28165">
        <ele>69.6</ele>
        <time>2021-05-27T13:03:01Z</time>
      </trkpt>
      <trkpt lat="47.69923" lon="-2.28164">
        <ele>69.4</ele>
        <time>2021-05-27T13:03:02Z</time>
      </trkpt>
      <trkpt lat="47.69922" lon="-2.28161">
        <ele>69.3</ele>
        <time>2021-05-27T13:03:03Z</time>
      </trkpt>
      <trkpt lat="47.69921" lon="-2.28158">
        <ele>69.2</ele>
        <time>2021-05-27T13:03:04Z</time>
      </trkpt>
      <trkpt lat="47.69919" lon="-2.28157">
        <ele>69.1</ele>
        <time>2021-05-27T13:03:05Z</time>
      </trkpt>
      <trkpt lat="47.69917" lon="-2.28158">
        <ele>69</ele>
        <time>2021-05-27T13:03:06Z</time>
      </trkpt>
      <trkpt lat="47.69915" lon="-2.28161">
        <ele>68.7</ele>
        <time>2021-05-27T13:03:07Z</time>
      </trkpt>
      <trkpt lat="47.69914" lon="-2.28164">
        <ele>68.6</ele>
        <time>2021-05-27T13:03:08Z</time>
      </trkpt>
      <trkpt lat="47.69913" lon="-2.28168">
        <ele>68.4</ele>
        <time>2021-05-27T13:03:09Z</time>
      </trkpt>
      <trkpt lat="47.69913" lon="-2.28171">
        <ele>68.4</ele>
        <time>2021-05-27T13:03:10Z</time>
      </trkpt>
      <trkpt lat="47.69913" lon="-2.28172">
        <ele>68.5</ele>
        <time>2021-05-27T13:03:11Z</time>
      </trkpt>
      <trkpt lat="47.69913" lon="-2.28174">
        <ele>68.6</ele>
        <time>2021-05-27T13:03:12Z</time>
      </trkpt>
      <trkpt lat="47.69914" lon="-2.28178">
        <ele>68.7</ele>
        <time>2021-05-27T13:03:13Z</time>
      </trkpt>
      <trkpt lat="47.69914" lon="-2.28182">
        <ele>68.8</ele>
        <time>2021-05-27T13:03:14Z</time>
      </trkpt>
      <trkpt lat="47.69915" lon="-2.28187">
        <ele>68.9</ele>
        <time>2021-05-27T13:03:15Z</time>
      </trkpt>
      <trkpt lat="47.69914" lon="-2.2819">
        <ele>68.9</ele>
        <time>2021-05-27T13:03:16Z</time>
      </trkpt>
      <trkpt lat="47.69913" lon="-2.28193">
        <ele>68.7</ele>
        <time>2021-05-27T13:03:17Z</time>
      </trkpt>
      <trkpt lat="47.69911" lon="-2.28194">
        <ele>68.4</ele>
        <time>2021-05-27T13:03:18Z</time>
      </trkpt>
      <trkpt lat="47.69908" lon="-2.28194">
        <ele>68</ele>
        <time>2021-05-27T13:03:19Z</time>
      </trkpt>
      <trkpt lat="47.69906" lon="-2.28197">
        <ele>67.6</ele>
        <time>2021-05-27T13:03:20Z</time>
      </trkpt>
      <trkpt lat="47.69904" lon="-2.282">
        <ele>67.3</ele>
        <time>2021-05-27T13:03:21Z</time>
      </trkpt>
      <trkpt lat="47.69902" lon="-2.28205">
        <ele>67</ele>
        <time>2021-05-27T13:03:22Z</time>
      </trkpt>
      <trkpt lat="47.69901" lon="-2.28211">
        <ele>66.9</ele>
        <time>2021-05-27T13:03:23Z</time>
      </trkpt>
      <trkpt lat="47.69901" lon="-2.28217">
        <ele>66.9</ele>
        <time>2021-05-27T13:03:24Z</time>
      </trkpt>
      <trkpt lat="47.69901" lon="-2.28223">
        <ele>66.9</ele>
        <time>2021-05-27T13:03:25Z</time>
      </trkpt>
      <trkpt lat="47.699" lon="-2.28229">
        <ele>66.8</ele>
        <time>2021-05-27T13:03:26Z</time>
      </trkpt>
      <trkpt lat="47.699" lon="-2.28234">
        <ele>66.9</ele>
        <time>2021-05-27T13:03:27Z</time>
      </trkpt>
      <trkpt lat="47.699" lon="-2.28239">
        <ele>67</ele>
        <time>2021-05-27T13:03:28Z</time>
      </trkpt>
      <trkpt lat="47.69901" lon="-2.28243">
        <ele>67.2</ele>
        <time>2021-05-27T13:03:29Z</time>
      </trkpt>
      <trkpt lat="47.69902" lon="-2.28247">
        <ele>67.3</ele>
        <time>2021-05-27T13:03:30Z</time>
      </trkpt>
      <trkpt lat="47.69903" lon="-2.2825">
        <ele>67.5</ele>
        <time>2021-05-27T13:03:31Z</time>
      </trkpt>
      <trkpt lat="47.69903" lon="-2.28253">
        <ele>67.6</ele>
        <time>2021-05-27T13:03:32Z</time>
      </trkpt>
      <trkpt lat="47.69904" lon="-2.28256">
        <ele>67.6</ele>
        <time>2021-05-27T13:03:33Z</time>
      </trkpt>
      <trkpt lat="47.69904" lon="-2.28259">
        <ele>67.6</ele>
        <time>2021-05-27T13:03:34Z</time>
      </trkpt>
      <trkpt lat="47.69903" lon="-2.28261">
        <ele>67.4</ele>
        <time>2021-05-27T13:03:35Z</time>
      </trkpt>
      <trkpt lat="47.69902" lon="-2.28262">
        <ele>67.2</ele>
        <time>2021-05-27T13:03:36Z</time>
      </trkpt>
      <trkpt lat="47.69901" lon="-2.28263">
        <ele>66.9</ele>
        <time>2021-05-27T13:03:37Z</time>
      </trkpt>
      <trkpt lat="47.69898" lon="-2.28264">
        <ele>66.5</ele>
        <time>2021-05-27T13:03:38Z</time>
      </trkpt>
      <trkpt lat="47.69896" lon="-2.28266">
        <ele>66</ele>
        <time>2021-05-27T13:03:39Z</time>
      </trkpt>
      <trkpt lat="47.69893" lon="-2.28268">
        <ele>65.5</ele>
        <time>2021-05-27T13:03:40Z</time>
      </trkpt>
      <trkpt lat="47.69891" lon="-2.28269">
        <ele>65</ele>
        <time>2021-05-27T13:03:41Z</time>
      </trkpt>
      <trkpt lat="47.69887" lon="-2.28272">
        <ele>64.3</ele>
        <time>2021-05-27T13:03:42Z</time>
      </trkpt>
      <trkpt lat="47.69883" lon="-2.28274">
        <ele>63.5</ele>
        <time>2021-05-27T13:03:43Z</time>
      </trkpt>
      <trkpt lat="47.69879" lon="-2.28276">
        <ele>62.8</ele>
        <time>2021-05-27T13:03:44Z</time>
      </trkpt>
      <trkpt lat="47.69876" lon="-2.28279">
        <ele>62.1</ele>
        <time>2021-05-27T13:03:45Z</time>
      </trkpt>
      <trkpt lat="47.69873" lon="-2.28284">
        <ele>61.6</ele>
        <time>2021-05-27T13:03:46Z</time>
      </trkpt>
      <trkpt lat="47.69871" lon="-2.28288">
        <ele>61.1</ele>
        <time>2021-05-27T13:03:47Z</time>
      </trkpt>
      <trkpt lat="47.69869" lon="-2.28291">
        <ele>60.6</ele>
        <time>2021-05-27T13:03:48Z</time>
      </trkpt>
      <trkpt lat="47.69867" lon="-2.28295">
        <ele>60.1</ele>
        <time>2021-05-27T13:03:49Z</time>
      </trkpt>
      <trkpt lat="47.69864" lon="-2.28297">
        <ele>59.7</ele>
        <time>2021-05-27T13:03:50Z</time>
      </trkpt>
      <trkpt lat="47.69861" lon="-2.28301">
        <ele>59.1</ele>
        <time>2021-05-27T13:03:51Z</time>
      </trkpt>
      <trkpt lat="47.69859" lon="-2.28305">
        <ele>58.4</ele>
        <time>2021-05-27T13:03:52Z</time>
      </trkpt>
      <trkpt lat="47.69856" lon="-2.2831">
        <ele>57.9</ele>
        <time>2021-05-27T13:03:53Z</time>
      </trkpt>
      <trkpt lat="47.69855" lon="-2.28315">
        <ele>57.5</ele>
        <time>2021-05-27T13:03:54Z</time>
      </trkpt>
      <trkpt lat="47.69855" lon="-2.2832">
        <ele>57.3</ele>
        <time>2021-05-27T13:03:55Z</time>
      </trkpt>
      <trkpt lat="47.69854" lon="-2.28325">
        <ele>57.2</ele>
        <time>2021-05-27T13:03:56Z</time>
      </trkpt>
      <trkpt lat="47.69855" lon="-2.28329">
        <ele>57.2</ele>
        <time>2021-05-27T13:03:57Z</time>
      </trkpt>
      <trkpt lat="47.69854" lon="-2.28333">
        <ele>57</ele>
        <time>2021-05-27T13:03:58Z</time>
      </trkpt>
      <trkpt lat="47.69853" lon="-2.28336">
        <ele>56.8</ele>
        <time>2021-05-27T13:03:59Z</time>
      </trkpt>
      <trkpt lat="47.69852" lon="-2.28339">
        <ele>56.5</ele>
        <time>2021-05-27T13:04:00Z</time>
      </trkpt>
      <trkpt lat="47.69852" lon="-2.28343">
        <ele>56.3</ele>
        <time>2021-05-27T13:04:01Z</time>
      </trkpt>
      <trkpt lat="47.69852" lon="-2.28346">
        <ele>56.3</ele>
        <time>2021-05-27T13:04:02Z</time>
      </trkpt>
      <trkpt lat="47.69851" lon="-2.28348">
        <ele>56.2</ele>
        <time>2021-05-27T13:04:03Z</time>
      </trkpt>
      <trkpt lat="47.69851" lon="-2.28351">
        <ele>56</ele>
        <time>2021-05-27T13:04:04Z</time>
      </trkpt>
      <trkpt lat="47.6985" lon="-2.28354">
        <ele>55.9</ele>
        <time>2021-05-27T13:04:05Z</time>
      </trkpt>
      <trkpt lat="47.6985" lon="-2.28355">
        <ele>55.9</ele>
        <time>2021-05-27T13:04:06Z</time>
      </trkpt>
      <trkpt lat="47.6985" lon="-2.28358">
        <ele>55.7</ele>
        <time>2021-05-27T13:04:07Z</time>
      </trkpt>
      <trkpt lat="47.69849" lon="-2.28361">
        <ele>55.6</ele>
        <time>2021-05-27T13:04:08Z</time>
      </trkpt>
      <trkpt lat="47.69849" lon="-2.28363">
        <ele>55.5</ele>
        <time>2021-05-27T13:04:09Z</time>
      </trkpt>
      <trkpt lat="47.69849" lon="-2.28365">
        <ele>55.4</ele>
        <time>2021-05-27T13:04:10Z</time>
      </trkpt>
      <trkpt lat="47.69848" lon="-2.28366">
        <ele>55.3</ele>
        <time>2021-05-27T13:04:11Z</time>
      </trkpt>
      <trkpt lat="47.69848" lon="-2.28367">
        <ele>55.3</ele>
        <time>2021-05-27T13:04:12Z</time>
      </trkpt>
      <trkpt lat="47.69848" lon="-2.28367">
        <ele>55.3</ele>
        <time>2021-05-27T13:04:13Z</time>
      </trkpt>
      <trkpt lat="47.69848" lon="-2.28367">
        <ele>55.3</ele>
        <time>2021-05-27T13:04:14Z</time>
      </trkpt>
      <trkpt lat="47.69848" lon="-2.28367">
        <ele>55.3</ele>
        <time>2021-05-27T13:04:15Z</time>
      </trkpt>
      <trkpt lat="47.69848" lon="-2.28367">
        <ele>55.3</ele>
        <time>2021-05-27T13:04:16Z</time>
      </trkpt>
      <trkpt lat="47.69848" lon="-2.28367">
        <ele>55.3</ele>
        <time>2021-05-27T13:04:17Z</time>
      </trkpt>
      <trkpt lat="47.69848" lon="-2.28367">
        <ele>55.3</ele>
        <time>2021-05-27T13:04:18Z</time>
      </trkpt>
      <trkpt lat="47.69848" lon="-2.28367">
        <ele>55.3</ele>
        <time>2021-05-27T13:04:19Z</time>
      </trkpt>
      <trkpt lat="47.69848" lon="-2.28367">
        <ele>55.3</ele>
        <time>2021-05-27T13:04:20Z</time>
      </trkpt>
      <trkpt lat="47.69848" lon="-2.28367">
        <ele>55.3</ele>
        <time>2021-05-27T13:04:21Z</time>
      </trkpt>
      <trkpt lat="47.69848" lon="-2.28367">
        <ele>55.3</ele>
        <time>2021-05-27T13:04:22Z</time>
      </trkpt>
      <trkpt lat="47.69848" lon="-2.28367">
        <ele>55.3</ele>
        <time>2021-05-27T13:04:23Z</time>
      </trkpt>
      <trkpt lat="47.69848" lon="-2.28367">
        <ele>55.3</ele>
        <time>2021-05-27T13:04:24Z</time>
      </trkpt>
      <trkpt lat="47.69848" lon="-2.28367">
        <ele>55.3</ele>
        <time>2021-05-27T13:04:25Z</time>
      </trkpt>
      <trkpt lat="47.69848" lon="-2.28367">
        <ele>55.3</ele>
        <time>2021-05-27T13:04:26Z</time>
      </trkpt>
      <trkpt lat="47.69848" lon="-2.28367">
        <ele>55.3</ele>
        <time>2021-05-27T13:04:27Z</time>
      </trkpt>
      <trkpt lat="47.69848" lon="-2.28367">
        <ele>55.3</ele>
        <time>2021-05-27T13:04:28Z</time>
      </trkpt>
      <trkpt lat="47.69848" lon="-2.28367">
        <ele>55.3</ele>
        <time>2021-05-27T13:04:29Z</time>
      </trkpt>
      <trkpt lat="47.69848" lon="-2.28367">
        <ele>55.3</ele>
        <time>2021-05-27T13:04:30Z</time>
      </trkpt>
      <trkpt lat="47.69848" lon="-2.28367">
        <ele>55.3</ele>
        <time>2021-05-27T13:04:31Z</time>
      </trkpt>
      <trkpt lat="47.69848" lon="-2.28367">
        <ele>55.3</ele>
        <time>2021-05-27T13:04:32Z</time>
      </trkpt>
      <trkpt lat="47.69848" lon="-2.28367">
        <ele>55.3</ele>
        <time>2021-05-27T13:04:33Z</time>
      </trkpt>
      <trkpt lat="47.69845" lon="-2.28373">
        <ele>54.6</ele>
        <time>2021-05-27T13:04:34Z</time>
      </trkpt>
      <trkpt lat="47.69843" lon="-2.28372">
        <ele>54.3</ele>
        <time>2021-05-27T13:04:35Z</time>
      </trkpt>
      <trkpt lat="47.69842" lon="-2.28371">
        <ele>54.1</ele>
        <time>2021-05-27T13:04:36Z</time>
      </trkpt>
      <trkpt lat="47.6984" lon="-2.2837">
        <ele>53.8</ele>
        <time>2021-05-27T13:04:37Z</time>
      </trkpt>
      <trkpt lat="47.69839" lon="-2.2837">
        <ele>53.7</ele>
        <time>2021-05-27T13:04:38Z</time>
      </trkpt>
      <trkpt lat="47.69839" lon="-2.28369">
        <ele>53.5</ele>
        <time>2021-05-27T13:04:39Z</time>
      </trkpt>
      <trkpt lat="47.69837" lon="-2.28368">
        <ele>53.3</ele>
        <time>2021-05-27T13:04:40Z</time>
      </trkpt>
      <trkpt lat="47.69836" lon="-2.28367">
        <ele>53</ele>
        <time>2021-05-27T13:04:41Z</time>
      </trkpt>
      <trkpt lat="47.69834" lon="-2.28366">
        <ele>52.7</ele>
        <time>2021-05-27T13:04:42Z</time>
      </trkpt>
      <trkpt lat="47.69832" lon="-2.28364">
        <ele>52.4</ele>
        <time>2021-05-27T13:04:43Z</time>
      </trkpt>
      <trkpt lat="47.69831" lon="-2.28362">
        <ele>52.4</ele>
        <time>2021-05-27T13:04:44Z</time>
      </trkpt>
      <trkpt lat="47.69831" lon="-2.28361">
        <ele>52.4</ele>
        <time>2021-05-27T13:04:45Z</time>
      </trkpt>
      <trkpt lat="47.69831" lon="-2.28361">
        <ele>52.3</ele>
        <time>2021-05-27T13:04:46Z</time>
      </trkpt>
      <trkpt lat="47.6983" lon="-2.28361">
        <ele>52.3</ele>
        <time>2021-05-27T13:04:47Z</time>
      </trkpt>
      <trkpt lat="47.6983" lon="-2.28361">
        <ele>52.3</ele>
        <time>2021-05-27T13:04:48Z</time>
      </trkpt>
      <trkpt lat="47.6983" lon="-2.28361">
        <ele>52.3</ele>
        <time>2021-05-27T13:04:49Z</time>
      </trkpt>
      <trkpt lat="47.6983" lon="-2.28361">
        <ele>52.3</ele>
        <time>2021-05-27T13:04:50Z</time>
      </trkpt>
      <trkpt lat="47.6983" lon="-2.28361">
        <ele>52.3</ele>
        <time>2021-05-27T13:04:51Z</time>
      </trkpt>
      <trkpt lat="47.6983" lon="-2.28361">
        <ele>52.3</ele>
        <time>2021-05-27T13:04:52Z</time>
      </trkpt>
      <trkpt lat="47.6983" lon="-2.28361">
        <ele>52.3</ele>
        <time>2021-05-27T13:04:53Z</time>
      </trkpt>
      <trkpt lat="47.6983" lon="-2.28361">
        <ele>52.3</ele>
        <time>2021-05-27T13:04:54Z</time>
      </trkpt>
      <trkpt lat="47.6983" lon="-2.28361">
        <ele>52.3</ele>
        <time>2021-05-27T13:04:55Z</time>
      </trkpt>
      <trkpt lat="47.6983" lon="-2.28361">
        <ele>52.3</ele>
        <time>2021-05-27T13:04:56Z</time>
      </trkpt>
      <trkpt lat="47.6983" lon="-2.28361">
        <ele>52.3</ele>
        <time>2021-05-27T13:04:57Z</time>
      </trkpt>
      <trkpt lat="47.6983" lon="-2.28361">
        <ele>52.3</ele>
        <time>2021-05-27T13:04:58Z</time>
      </trkpt>
      <trkpt lat="47.6983" lon="-2.28361">
        <ele>52.3</ele>
        <time>2021-05-27T13:04:59Z</time>
      </trkpt>
      <trkpt lat="47.6983" lon="-2.28361">
        <ele>52.3</ele>
        <time>2021-05-27T13:05:00Z</time>
      </trkpt>
      <trkpt lat="47.6983" lon="-2.28361">
        <ele>52.3</ele>
        <time>2021-05-27T13:05:01Z</time>
      </trkpt>
      <trkpt lat="47.6983" lon="-2.28361">
        <ele>52.3</ele>
        <time>2021-05-27T13:05:02Z</time>
      </trkpt>
      <trkpt lat="47.6983" lon="-2.28361">
        <ele>52.3</ele>
        <time>2021-05-27T13:05:03Z</time>
      </trkpt>
      <trkpt lat="47.6983" lon="-2.28361">
        <ele>52.3</ele>
        <time>2021-05-27T13:05:04Z</time>
      </trkpt>
      <trkpt lat="47.6983" lon="-2.28361">
        <ele>52.3</ele>
        <time>2021-05-27T13:05:05Z</time>
      </trkpt>
      <trkpt lat="47.6983" lon="-2.28361">
        <ele>52.3</ele>
        <time>2021-05-27T13:05:06Z</time>
      </trkpt>
      <trkpt lat="47.6983" lon="-2.28361">
        <ele>52.3</ele>
        <time>2021-05-27T13:05:07Z</time>
      </trkpt>
      <trkpt lat="47.6983" lon="-2.28361">
        <ele>52.3</ele>
        <time>2021-05-27T13:05:08Z</time>
      </trkpt>
      <trkpt lat="47.6983" lon="-2.28361">
        <ele>52.3</ele>
        <time>2021-05-27T13:05:09Z</time>
      </trkpt>
      <trkpt lat="47.6983" lon="-2.28361">
        <ele>52.3</ele>
        <time>2021-05-27T13:05:10Z</time>
      </trkpt>
      <trkpt lat="47.6983" lon="-2.28361">
        <ele>52.3</ele>
        <time>2021-05-27T13:05:11Z</time>
      </trkpt>
      <trkpt lat="47.6983" lon="-2.28361">
        <ele>52.3</ele>
        <time>2021-05-27T13:05:12Z</time>
      </trkpt>
      <trkpt lat="47.6983" lon="-2.28361">
        <ele>52.3</ele>
        <time>2021-05-27T13:05:13Z</time>
      </trkpt>
      <trkpt lat="47.69824" lon="-2.28353">
        <ele>51.6</ele>
        <time>2021-05-27T13:05:14Z</time>
      </trkpt>
      <trkpt lat="47.69824" lon="-2.2835">
        <ele>51.7</ele>
        <time>2021-05-27T13:05:15Z</time>
      </trkpt>
      <trkpt lat="47.69823" lon="-2.28347">
        <ele>51.6</ele>
        <time>2021-05-27T13:05:16Z</time>
      </trkpt>
      <trkpt lat="47.69823" lon="-2.28343">
        <ele>51.6</ele>
        <time>2021-05-27T13:05:17Z</time>
      </trkpt>
      <trkpt lat="47.69822" lon="-2.2834">
        <ele>51.6</ele>
        <time>2021-05-27T13:05:18Z</time>
      </trkpt>
      <trkpt lat="47.69822" lon="-2.28338">
        <ele>51.6</ele>
        <time>2021-05-27T13:05:19Z</time>
      </trkpt>
      <trkpt lat="47.69822" lon="-2.28335">
        <ele>51.7</ele>
        <time>2021-05-27T13:05:20Z</time>
      </trkpt>
      <trkpt lat="47.69823" lon="-2.28331">
        <ele>51.8</ele>
        <time>2021-05-27T13:05:21Z</time>
      </trkpt>
      <trkpt lat="47.69823" lon="-2.28328">
        <ele>51.8</ele>
        <time>2021-05-27T13:05:22Z</time>
      </trkpt>
      <trkpt lat="47.69823" lon="-2.28324">
        <ele>51.9</ele>
        <time>2021-05-27T13:05:23Z</time>
      </trkpt>
      <trkpt lat="47.69822" lon="-2.2832">
        <ele>52</ele>
        <time>2021-05-27T13:05:24Z</time>
      </trkpt>
      <trkpt lat="47.69823" lon="-2.28315">
        <ele>52.2</ele>
        <time>2021-05-27T13:05:25Z</time>
      </trkpt>
      <trkpt lat="47.69824" lon="-2.28311">
        <ele>52.3</ele>
        <time>2021-05-27T13:05:26Z</time>
      </trkpt>
      <trkpt lat="47.69823" lon="-2.28306">
        <ele>52.4</ele>
        <time>2021-05-27T13:05:27Z</time>
      </trkpt>
      <trkpt lat="47.69823" lon="-2.28301">
        <ele>52.4</ele>
        <time>2021-05-27T13:05:28Z</time>
      </trkpt>
      <trkpt lat="47.69823" lon="-2.28296">
        <ele>52.5</ele>
        <time>2021-05-27T13:05:29Z</time>
      </trkpt>
      <trkpt lat="47.69822" lon="-2.28292">
        <ele>52.5</ele>
        <time>2021-05-27T13:05:30Z</time>
      </trkpt>
      <trkpt lat="47.69822" lon="-2.28287">
        <ele>52.6</ele>
        <time>2021-05-27T13:05:31Z</time>
      </trkpt>
      <trkpt lat="47.69822" lon="-2.28283">
        <ele>52.6</ele>
        <time>2021-05-27T13:05:32Z</time>
      </trkpt>
      <trkpt lat="47.69821" lon="-2.28279">
        <ele>52.7</ele>
        <time>2021-05-27T13:05:33Z</time>
      </trkpt>
      <trkpt lat="47.69822" lon="-2.28273">
        <ele>52.8</ele>
        <time>2021-05-27T13:05:34Z</time>
      </trkpt>
      <trkpt lat="47.69822" lon="-2.28269">
        <ele>52.9</ele>
        <time>2021-05-27T13:05:35Z</time>
      </trkpt>
      <trkpt lat="47.69821" lon="-2.28264">
        <ele>53</ele>
        <time>2021-05-27T13:05:36Z</time>
      </trkpt>
      <trkpt lat="47.69821" lon="-2.2826">
        <ele>53</ele>
        <time>2021-05-27T13:05:37Z</time>
      </trkpt>
      <trkpt lat="47.6982" lon="-2.28256">
        <ele>52.9</ele>
        <time>2021-05-27T13:05:38Z</time>
      </trkpt>
      <trkpt lat="47.6982" lon="-2.28253">
        <ele>53</ele>
        <time>2021-05-27T13:05:39Z</time>
      </trkpt>
      <trkpt lat="47.6982" lon="-2.2825">
        <ele>53.1</ele>
        <time>2021-05-27T13:05:40Z</time>
      </trkpt>
      <trkpt lat="47.69821" lon="-2.28248">
        <ele>53.2</ele>
        <time>2021-05-27T13:05:41Z</time>
      </trkpt>
      <trkpt lat="47.69822" lon="-2.28246">
        <ele>53.4</ele>
        <time>2021-05-27T13:05:42Z</time>
      </trkpt>
      <trkpt lat="47.69822" lon="-2.28244">
        <ele>53.4</ele>
        <time>2021-05-27T13:05:43Z</time>
      </trkpt>
      <trkpt lat="47.69823" lon="-2.28242">
        <ele>53.6</ele>
        <time>2021-05-27T13:05:44Z</time>
      </trkpt>
      <trkpt lat="47.69823" lon="-2.2824">
        <ele>53.6</ele>
        <time>2021-05-27T13:05:45Z</time>
      </trkpt>
      <trkpt lat="47.69824" lon="-2.28239">
        <ele>53.8</ele>
        <time>2021-05-27T13:05:46Z</time>
      </trkpt>
      <trkpt lat="47.69824" lon="-2.28236">
        <ele>53.9</ele>
        <time>2021-05-27T13:05:47Z</time>
      </trkpt>
      <trkpt lat="47.69825" lon="-2.28232">
        <ele>54</ele>
        <time>2021-05-27T13:05:48Z</time>
      </trkpt>
      <trkpt lat="47.69825" lon="-2.28227">
        <ele>54.1</ele>
        <time>2021-05-27T13:05:49Z</time>
      </trkpt>
      <trkpt lat="47.69824" lon="-2.28223">
        <ele>54</ele>
        <time>2021-05-27T13:05:50Z</time>
      </trkpt>
      <trkpt lat="47.69824" lon="-2.28219">
        <ele>54.1</ele>
        <time>2021-05-27T13:05:51Z</time>
      </trkpt>
      <trkpt lat="47.69825" lon="-2.28215">
        <ele>54.2</ele>
        <time>2021-05-27T13:05:52Z</time>
      </trkpt>
      <trkpt lat="47.69826" lon="-2.28211">
        <ele>54.5</ele>
        <time>2021-05-27T13:05:53Z</time>
      </trkpt>
      <trkpt lat="47.69828" lon="-2.28207">
        <ele>54.8</ele>
        <time>2021-05-27T13:05:54Z</time>
      </trkpt>
      <trkpt lat="47.6983" lon="-2.28202">
        <ele>55.1</ele>
        <time>2021-05-27T13:05:55Z</time>
      </trkpt>
      <trkpt lat="47.69832" lon="-2.28197">
        <ele>55.5</ele>
        <time>2021-05-27T13:05:56Z</time>
      </trkpt>
      <trkpt lat="47.69833" lon="-2.28194">
        <ele>55.6</ele>
        <time>2021-05-27T13:05:57Z</time>
      </trkpt>
      <trkpt lat="47.69834" lon="-2.28191">
        <ele>55.8</ele>
        <time>2021-05-27T13:05:58Z</time>
      </trkpt>
      <trkpt lat="47.69836" lon="-2.28189">
        <ele>56.1</ele>
        <time>2021-05-27T13:05:59Z</time>
      </trkpt>
      <trkpt lat="47.69837" lon="-2.28187">
        <ele>56.3</ele>
        <time>2021-05-27T13:06:00Z</time>
      </trkpt>
      <trkpt lat="47.69839" lon="-2.28184">
        <ele>56.6</ele>
        <time>2021-05-27T13:06:01Z</time>
      </trkpt>
      <trkpt lat="47.6984" lon="-2.28183">
        <ele>56.9</ele>
        <time>2021-05-27T13:06:02Z</time>
      </trkpt>
      <trkpt lat="47.69842" lon="-2.2818">
        <ele>57.3</ele>
        <time>2021-05-27T13:06:03Z</time>
      </trkpt>
      <trkpt lat="47.69844" lon="-2.28179">
        <ele>57.5</ele>
        <time>2021-05-27T13:06:04Z</time>
      </trkpt>
      <trkpt lat="47.69846" lon="-2.28177">
        <ele>57.8</ele>
        <time>2021-05-27T13:06:05Z</time>
      </trkpt>
      <trkpt lat="47.69847" lon="-2.28176">
        <ele>58.1</ele>
        <time>2021-05-27T13:06:06Z</time>
      </trkpt>
      <trkpt lat="47.69849" lon="-2.28174">
        <ele>58.3</ele>
        <time>2021-05-27T13:06:07Z</time>
      </trkpt>
      <trkpt lat="47.6985" lon="-2.28172">
        <ele>58.6</ele>
        <time>2021-05-27T13:06:08Z</time>
      </trkpt>
      <trkpt lat="47.69851" lon="-2.28171">
        <ele>58.7</ele>
        <time>2021-05-27T13:06:09Z</time>
      </trkpt>
      <trkpt lat="47.69852" lon="-2.28171">
        <ele>58.9</ele>
        <time>2021-05-27T13:06:10Z</time>
      </trkpt>
      <trkpt lat="47.69853" lon="-2.2817">
        <ele>59</ele>
        <time>2021-05-27T13:06:11Z</time>
      </trkpt>
      <trkpt lat="47.69854" lon="-2.28168">
        <ele>59.2</ele>
        <time>2021-05-27T13:06:12Z</time>
      </trkpt>
      <trkpt lat="47.69854" lon="-2.28166">
        <ele>59.2</ele>
        <time>2021-05-27T13:06:13Z</time>
      </trkpt>
      <trkpt lat="47.69854" lon="-2.28165">
        <ele>59.3</ele>
        <time>2021-05-27T13:06:14Z</time>
      </trkpt>
      <trkpt lat="47.69855" lon="-2.28164">
        <ele>59.4</ele>
        <time>2021-05-27T13:06:15Z</time>
      </trkpt>
      <trkpt lat="47.69855" lon="-2.28163">
        <ele>59.4</ele>
        <time>2021-05-27T13:06:16Z</time>
      </trkpt>
      <trkpt lat="47.69855" lon="-2.28163">
        <ele>59.4</ele>
        <time>2021-05-27T13:06:17Z</time>
      </trkpt>
      <trkpt lat="47.69857" lon="-2.28159">
        <ele>59.6</ele>
        <time>2021-05-27T13:06:18Z</time>
      </trkpt>
      <trkpt lat="47.69858" lon="-2.28157">
        <ele>59.8</ele>
        <time>2021-05-27T13:06:19Z</time>
      </trkpt>
      <trkpt lat="47.69859" lon="-2.28154">
        <ele>59.9</ele>
        <time>2021-05-27T13:06:20Z</time>
      </trkpt>
      <trkpt lat="47.69859" lon="-2.28153">
        <ele>60</ele>
        <time>2021-05-27T13:06:21Z</time>
      </trkpt>
      <trkpt lat="47.69861" lon="-2.2815">
        <ele>60.2</ele>
        <time>2021-05-27T13:06:22Z</time>
      </trkpt>
      <trkpt lat="47.69861" lon="-2.28148">
        <ele>60.2</ele>
        <time>2021-05-27T13:06:23Z</time>
      </trkpt>
      <trkpt lat="47.69861" lon="-2.28147">
        <ele>60.2</ele>
        <time>2021-05-27T13:06:24Z</time>
      </trkpt>
      <trkpt lat="47.69862" lon="-2.28146">
        <ele>60.3</ele>
        <time>2021-05-27T13:06:25Z</time>
      </trkpt>
      <trkpt lat="47.69863" lon="-2.28142">
        <ele>60.5</ele>
        <time>2021-05-27T13:06:26Z</time>
      </trkpt>
      <trkpt lat="47.69864" lon="-2.28141">
        <ele>60.7</ele>
        <time>2021-05-27T13:06:27Z</time>
      </trkpt>
      <trkpt lat="47.69866" lon="-2.28139">
        <ele>60.9</ele>
        <time>2021-05-27T13:06:28Z</time>
      </trkpt>
      <trkpt lat="47.69867" lon="-2.28137">
        <ele>61.1</ele>
        <time>2021-05-27T13:06:29Z</time>
      </trkpt>
      <trkpt lat="47.69868" lon="-2.28133">
        <ele>61.3</ele>
        <time>2021-05-27T13:06:30Z</time>
      </trkpt>
      <trkpt lat="47.6987" lon="-2.28131">
        <ele>61.5</ele>
        <time>2021-05-27T13:06:31Z</time>
      </trkpt>
      <trkpt lat="47.69871" lon="-2.28128">
        <ele>61.7</ele>
        <time>2021-05-27T13:06:32Z</time>
      </trkpt>
      <trkpt lat="47.69873" lon="-2.28125">
        <ele>61.9</ele>
        <time>2021-05-27T13:06:33Z</time>
      </trkpt>
      <trkpt lat="47.69874" lon="-2.28122">
        <ele>62.1</ele>
        <time>2021-05-27T13:06:34Z</time>
      </trkpt>
      <trkpt lat="47.69876" lon="-2.28119">
        <ele>62.3</ele>
        <time>2021-05-27T13:06:35Z</time>
      </trkpt>
      <trkpt lat="47.69877" lon="-2.28117">
        <ele>62.5</ele>
        <time>2021-05-27T13:06:36Z</time>
      </trkpt>
      <trkpt lat="47.69878" lon="-2.28114">
        <ele>62.6</ele>
        <time>2021-05-27T13:06:37Z</time>
      </trkpt>
      <trkpt lat="47.69879" lon="-2.28112">
        <ele>62.8</ele>
        <time>2021-05-27T13:06:38Z</time>
      </trkpt>
      <trkpt lat="47.69881" lon="-2.28109">
        <ele>63</ele>
        <time>2021-05-27T13:06:39Z</time>
      </trkpt>
      <trkpt lat="47.69882" lon="-2.28106">
        <ele>63.1</ele>
        <time>2021-05-27T13:06:40Z</time>
      </trkpt>
      <trkpt lat="47.69883" lon="-2.28104">
        <ele>63.3</ele>
        <time>2021-05-27T13:06:41Z</time>
      </trkpt>
      <trkpt lat="47.69884" lon="-2.28102">
        <ele>63.5</ele>
        <time>2021-05-27T13:06:42Z</time>
      </trkpt>
      <trkpt lat="47.69886" lon="-2.28099">
        <ele>63.7</ele>
        <time>2021-05-27T13:06:43Z</time>
      </trkpt>
      <trkpt lat="47.69887" lon="-2.28097">
        <ele>63.9</ele>
        <time>2021-05-27T13:06:44Z</time>
      </trkpt>
      <trkpt lat="47.69889" lon="-2.28094">
        <ele>64.1</ele>
        <time>2021-05-27T13:06:45Z</time>
      </trkpt>
      <trkpt lat="47.6989" lon="-2.28092">
        <ele>64.2</ele>
        <time>2021-05-27T13:06:46Z</time>
      </trkpt>
      <trkpt lat="47.69891" lon="-2.28091">
        <ele>64.3</ele>
        <time>2021-05-27T13:06:47Z</time>
      </trkpt>
      <trkpt lat="47.69891" lon="-2.28088">
        <ele>64.4</ele>
        <time>2021-05-27T13:06:48Z</time>
      </trkpt>
      <trkpt lat="47.69893" lon="-2.28086">
        <ele>64.6</ele>
        <time>2021-05-27T13:06:49Z</time>
      </trkpt>
      <trkpt lat="47.69894" lon="-2.28084">
        <ele>64.8</ele>
        <time>2021-05-27T13:06:50Z</time>
      </trkpt>
      <trkpt lat="47.69896" lon="-2.28082">
        <ele>65</ele>
        <time>2021-05-27T13:06:51Z</time>
      </trkpt>
      <trkpt lat="47.69897" lon="-2.28081">
        <ele>65.2</ele>
        <time>2021-05-27T13:06:52Z</time>
      </trkpt>
      <trkpt lat="47.69898" lon="-2.28078">
        <ele>65.5</ele>
        <time>2021-05-27T13:06:53Z</time>
      </trkpt>
      <trkpt lat="47.69899" lon="-2.28076">
        <ele>65.7</ele>
        <time>2021-05-27T13:06:54Z</time>
      </trkpt>
      <trkpt lat="47.699" lon="-2.28074">
        <ele>65.9</ele>
        <time>2021-05-27T13:06:55Z</time>
      </trkpt>
      <trkpt lat="47.69901" lon="-2.28072">
        <ele>66.1</ele>
        <time>2021-05-27T13:06:56Z</time>
      </trkpt>
      <trkpt lat="47.69903" lon="-2.28069">
        <ele>66.3</ele>
        <time>2021-05-27T13:06:57Z</time>
      </trkpt>
      <trkpt lat="47.69904" lon="-2.28068">
        <ele>66.6</ele>
        <time>2021-05-27T13:06:58Z</time>
      </trkpt>
      <trkpt lat="47.69905" lon="-2.28066">
        <ele>66.8</ele>
        <time>2021-05-27T13:06:59Z</time>
      </trkpt>
      <trkpt lat="47.69907" lon="-2.28063">
        <ele>67.1</ele>
        <time>2021-05-27T13:07:00Z</time>
      </trkpt>
      <trkpt lat="47.69909" lon="-2.28061">
        <ele>67.5</ele>
        <time>2021-05-27T13:07:01Z</time>
      </trkpt>
      <trkpt lat="47.69911" lon="-2.28058">
        <ele>67.8</ele>
        <time>2021-05-27T13:07:02Z</time>
      </trkpt>
      <trkpt lat="47.69913" lon="-2.28055">
        <ele>68.1</ele>
        <time>2021-05-27T13:07:03Z</time>
      </trkpt>
      <trkpt lat="47.69914" lon="-2.28053">
        <ele>68.4</ele>
        <time>2021-05-27T13:07:04Z</time>
      </trkpt>
      <trkpt lat="47.69916" lon="-2.2805">
        <ele>68.7</ele>
        <time>2021-05-27T13:07:05Z</time>
      </trkpt>
      <trkpt lat="47.69917" lon="-2.28047">
        <ele>68.9</ele>
        <time>2021-05-27T13:07:06Z</time>
      </trkpt>
      <trkpt lat="47.69918" lon="-2.28045">
        <ele>69</ele>
        <time>2021-05-27T13:07:07Z</time>
      </trkpt>
      <trkpt lat="47.69919" lon="-2.28042">
        <ele>69.1</ele>
        <time>2021-05-27T13:07:08Z</time>
      </trkpt>
      <trkpt lat="47.6992" lon="-2.28039">
        <ele>69.2</ele>
        <time>2021-05-27T13:07:09Z</time>
      </trkpt>
      <trkpt lat="47.6992" lon="-2.28036">
        <ele>69.3</ele>
        <time>2021-05-27T13:07:10Z</time>
      </trkpt>
      <trkpt lat="47.6992" lon="-2.28033">
        <ele>69.4</ele>
        <time>2021-05-27T13:07:11Z</time>
      </trkpt>
      <trkpt lat="47.6992" lon="-2.28031">
        <ele>69.4</ele>
        <time>2021-05-27T13:07:12Z</time>
      </trkpt>
      <trkpt lat="47.69919" lon="-2.28029">
        <ele>69.4</ele>
        <time>2021-05-27T13:07:13Z</time>
      </trkpt>
      <trkpt lat="47.69917" lon="-2.28026">
        <ele>69.4</ele>
        <time>2021-05-27T13:07:14Z</time>
      </trkpt>
      <trkpt lat="47.69915" lon="-2.28024">
        <ele>69.2</ele>
        <time>2021-05-27T13:07:15Z</time>
      </trkpt>
      <trkpt lat="47.69913" lon="-2.28021">
        <ele>68.9</ele>
        <time>2021-05-27T13:07:16Z</time>
      </trkpt>
      <trkpt lat="47.6991" lon="-2.28018">
        <ele>68.7</ele>
        <time>2021-05-27T13:07:17Z</time>
      </trkpt>
      <trkpt lat="47.69908" lon="-2.28015">
        <ele>68.4</ele>
        <time>2021-05-27T13:07:18Z</time>
      </trkpt>
      <trkpt lat="47.69906" lon="-2.28012">
        <ele>68.1</ele>
        <time>2021-05-27T13:07:19Z</time>
      </trkpt>
      <trkpt lat="47.69903" lon="-2.2801">
        <ele>67.9</ele>
        <time>2021-05-27T13:07:20Z</time>
      </trkpt>
      <trkpt lat="47.699" lon="-2.28007">
        <ele>67.5</ele>
        <time>2021-05-27T13:07:21Z</time>
      </trkpt>
      <trkpt lat="47.69897" lon="-2.28004">
        <ele>67</ele>
        <time>2021-05-27T13:07:22Z</time>
      </trkpt>
      <trkpt lat="47.69894" lon="-2.28001">
        <ele>66.6</ele>
        <time>2021-05-27T13:07:23Z</time>
      </trkpt>
      <trkpt lat="47.69891" lon="-2.27996">
        <ele>66.4</ele>
        <time>2021-05-27T13:07:24Z</time>
      </trkpt>
      <trkpt lat="47.69891" lon="-2.2799">
        <ele>66.3</ele>
        <time>2021-05-27T13:07:25Z</time>
      </trkpt>
      <trkpt lat="47.69891" lon="-2.27984">
        <ele>66.4</ele>
        <time>2021-05-27T13:07:26Z</time>
      </trkpt>
      <trkpt lat="47.69891" lon="-2.27978">
        <ele>66.5</ele>
        <time>2021-05-27T13:07:27Z</time>
      </trkpt>
      <trkpt lat="47.69892" lon="-2.27974">
        <ele>66.6</ele>
        <time>2021-05-27T13:07:28Z</time>
      </trkpt>
      <trkpt lat="47.69892" lon="-2.2797">
        <ele>66.7</ele>
        <time>2021-05-27T13:07:29Z</time>
      </trkpt>
      <trkpt lat="47.69892" lon="-2.27966">
        <ele>66.8</ele>
        <time>2021-05-27T13:07:30Z</time>
      </trkpt>
      <trkpt lat="47.69892" lon="-2.27962">
        <ele>66.8</ele>
        <time>2021-05-27T13:07:31Z</time>
      </trkpt>
      <trkpt lat="47.69893" lon="-2.27959">
        <ele>66.9</ele>
        <time>2021-05-27T13:07:32Z</time>
      </trkpt>
      <trkpt lat="47.69893" lon="-2.27956">
        <ele>67</ele>
        <time>2021-05-27T13:07:33Z</time>
      </trkpt>
      <trkpt lat="47.69894" lon="-2.27952">
        <ele>67.1</ele>
        <time>2021-05-27T13:07:34Z</time>
      </trkpt>
      <trkpt lat="47.69895" lon="-2.27948">
        <ele>67.3</ele>
        <time>2021-05-27T13:07:35Z</time>
      </trkpt>
      <trkpt lat="47.69896" lon="-2.27945">
        <ele>67.5</ele>
        <time>2021-05-27T13:07:36Z</time>
      </trkpt>
      <trkpt lat="47.69897" lon="-2.27942">
        <ele>67.7</ele>
        <time>2021-05-27T13:07:37Z</time>
      </trkpt>
      <trkpt lat="47.69898" lon="-2.27938">
        <ele>67.9</ele>
        <time>2021-05-27T13:07:38Z</time>
      </trkpt>
      <trkpt lat="47.69898" lon="-2.27935">
        <ele>68</ele>
        <time>2021-05-27T13:07:39Z</time>
      </trkpt>
      <trkpt lat="47.69898" lon="-2.27931">
        <ele>67.9</ele>
        <time>2021-05-27T13:07:40Z</time>
      </trkpt>
      <trkpt lat="47.69896" lon="-2.27927">
        <ele>67.7</ele>
        <time>2021-05-27T13:07:41Z</time>
      </trkpt>
      <trkpt lat="47.69894" lon="-2.27922">
        <ele>67.5</ele>
        <time>2021-05-27T13:07:42Z</time>
      </trkpt>
      <trkpt lat="47.69893" lon="-2.27916">
        <ele>67.3</ele>
        <time>2021-05-27T13:07:43Z</time>
      </trkpt>
      <trkpt lat="47.69893" lon="-2.27911">
        <ele>67.3</ele>
        <time>2021-05-27T13:07:44Z</time>
      </trkpt>
      <trkpt lat="47.69892" lon="-2.27907">
        <ele>67.2</ele>
        <time>2021-05-27T13:07:45Z</time>
      </trkpt>
      <trkpt lat="47.69891" lon="-2.27902">
        <ele>67</ele>
        <time>2021-05-27T13:07:46Z</time>
      </trkpt>
      <trkpt lat="47.6989" lon="-2.27898">
        <ele>66.8</ele>
        <time>2021-05-27T13:07:47Z</time>
      </trkpt>
      <trkpt lat="47.69887" lon="-2.27893">
        <ele>66.4</ele>
        <time>2021-05-27T13:07:48Z</time>
      </trkpt>
      <trkpt lat="47.69885" lon="-2.27888">
        <ele>66.1</ele>
        <time>2021-05-27T13:07:49Z</time>
      </trkpt>
      <trkpt lat="47.69883" lon="-2.27882">
        <ele>65.8</ele>
        <time>2021-05-27T13:07:50Z</time>
      </trkpt>
      <trkpt lat="47.69882" lon="-2.27876">
        <ele>65.7</ele>
        <time>2021-05-27T13:07:51Z</time>
      </trkpt>
      <trkpt lat="47.69881" lon="-2.27871">
        <ele>65.5</ele>
        <time>2021-05-27T13:07:52Z</time>
      </trkpt>
      <trkpt lat="47.6988" lon="-2.27866">
        <ele>65.3</ele>
        <time>2021-05-27T13:07:53Z</time>
      </trkpt>
      <trkpt lat="47.69878" lon="-2.27862">
        <ele>65</ele>
        <time>2021-05-27T13:07:54Z</time>
      </trkpt>
      <trkpt lat="47.69877" lon="-2.27857">
        <ele>64.8</ele>
        <time>2021-05-27T13:07:55Z</time>
      </trkpt>
      <trkpt lat="47.69876" lon="-2.27852">
        <ele>64.7</ele>
        <time>2021-05-27T13:07:56Z</time>
      </trkpt>
      <trkpt lat="47.69876" lon="-2.27846">
        <ele>64.6</ele>
        <time>2021-05-27T13:07:57Z</time>
      </trkpt>
      <trkpt lat="47.69876" lon="-2.2784">
        <ele>64.6</ele>
        <time>2021-05-27T13:07:58Z</time>
      </trkpt>
      <trkpt lat="47.69876" lon="-2.27835">
        <ele>64.6</ele>
        <time>2021-05-27T13:07:59Z</time>
      </trkpt>
      <trkpt lat="47.69875" lon="-2.27829">
        <ele>64.6</ele>
        <time>2021-05-27T13:08:00Z</time>
      </trkpt>
      <trkpt lat="47.69874" lon="-2.27823">
        <ele>64.5</ele>
        <time>2021-05-27T13:08:01Z</time>
      </trkpt>
      <trkpt lat="47.69873" lon="-2.27817">
        <ele>64.3</ele>
        <time>2021-05-27T13:08:02Z</time>
      </trkpt>
      <trkpt lat="47.69872" lon="-2.27812">
        <ele>64.2</ele>
        <time>2021-05-27T13:08:03Z</time>
      </trkpt>
      <trkpt lat="47.69871" lon="-2.27806">
        <ele>64.1</ele>
        <time>2021-05-27T13:08:04Z</time>
      </trkpt>
      <trkpt lat="47.69871" lon="-2.278">
        <ele>64.1</ele>
        <time>2021-05-27T13:08:05Z</time>
      </trkpt>
      <trkpt lat="47.69871" lon="-2.27794">
        <ele>64.2</ele>
        <time>2021-05-27T13:08:06Z</time>
      </trkpt>
      <trkpt lat="47.69871" lon="-2.27789">
        <ele>64.2</ele>
        <time>2021-05-27T13:08:07Z</time>
      </trkpt>
      <trkpt lat="47.69871" lon="-2.27784">
        <ele>64.2</ele>
        <time>2021-05-27T13:08:08Z</time>
      </trkpt>
      <trkpt lat="47.6987" lon="-2.2778">
        <ele>64.1</ele>
        <time>2021-05-27T13:08:09Z</time>
      </trkpt>
      <trkpt lat="47.69869" lon="-2.27776">
        <ele>63.9</ele>
        <time>2021-05-27T13:08:10Z</time>
      </trkpt>
      <trkpt lat="47.69868" lon="-2.27772">
        <ele>63.8</ele>
        <time>2021-05-27T13:08:11Z</time>
      </trkpt>
      <trkpt lat="47.69867" lon="-2.27767">
        <ele>63.7</ele>
        <time>2021-05-27T13:08:12Z</time>
      </trkpt>
      <trkpt lat="47.69867" lon="-2.2776">
        <ele>63.7</ele>
        <time>2021-05-27T13:08:13Z</time>
      </trkpt>
      <trkpt lat="47.69867" lon="-2.27754">
        <ele>63.9</ele>
        <time>2021-05-27T13:08:14Z</time>
      </trkpt>
      <trkpt lat="47.69868" lon="-2.27748">
        <ele>64.1</ele>
        <time>2021-05-27T13:08:15Z</time>
      </trkpt>
      <trkpt lat="47.69869" lon="-2.27743">
        <ele>64.3</ele>
        <time>2021-05-27T13:08:16Z</time>
      </trkpt>
      <trkpt lat="47.6987" lon="-2.27739">
        <ele>64.3</ele>
        <time>2021-05-27T13:08:17Z</time>
      </trkpt>
      <trkpt lat="47.69869" lon="-2.27735">
        <ele>64.2</ele>
        <time>2021-05-27T13:08:18Z</time>
      </trkpt>
      <trkpt lat="47.69869" lon="-2.27732">
        <ele>64.2</ele>
        <time>2021-05-27T13:08:19Z</time>
      </trkpt>
      <trkpt lat="47.69869" lon="-2.27727">
        <ele>64.3</ele>
        <time>2021-05-27T13:08:20Z</time>
      </trkpt>
      <trkpt lat="47.69869" lon="-2.27723">
        <ele>64.4</ele>
        <time>2021-05-27T13:08:21Z</time>
      </trkpt>
      <trkpt lat="47.6987" lon="-2.2772">
        <ele>64.5</ele>
        <time>2021-05-27T13:08:22Z</time>
      </trkpt>
      <trkpt lat="47.69869" lon="-2.27717">
        <ele>64.4</ele>
        <time>2021-05-27T13:08:23Z</time>
      </trkpt>
      <trkpt lat="47.69868" lon="-2.27715">
        <ele>64.3</ele>
        <time>2021-05-27T13:08:24Z</time>
      </trkpt>
      <trkpt lat="47.69868" lon="-2.27712">
        <ele>64.2</ele>
        <time>2021-05-27T13:08:25Z</time>
      </trkpt>
      <trkpt lat="47.69867" lon="-2.27708">
        <ele>64.2</ele>
        <time>2021-05-27T13:08:26Z</time>
      </trkpt>
      <trkpt lat="47.69866" lon="-2.27704">
        <ele>64.1</ele>
        <time>2021-05-27T13:08:27Z</time>
      </trkpt>
      <trkpt lat="47.69866" lon="-2.27699">
        <ele>64.1</ele>
        <time>2021-05-27T13:08:28Z</time>
      </trkpt>
      <trkpt lat="47.69865" lon="-2.27695">
        <ele>64</ele>
        <time>2021-05-27T13:08:29Z</time>
      </trkpt>
      <trkpt lat="47.69865" lon="-2.27692">
        <ele>63.9</ele>
        <time>2021-05-27T13:08:30Z</time>
      </trkpt>
      <trkpt lat="47.69864" lon="-2.27691">
        <ele>63.8</ele>
        <time>2021-05-27T13:08:31Z</time>
      </trkpt>
      <trkpt lat="47.69861" lon="-2.27691">
        <ele>63.5</ele>
        <time>2021-05-27T13:08:32Z</time>
      </trkpt>
      <trkpt lat="47.69858" lon="-2.27691">
        <ele>63.1</ele>
        <time>2021-05-27T13:08:33Z</time>
      </trkpt>
      <trkpt lat="47.69856" lon="-2.27688">
        <ele>62.8</ele>
        <time>2021-05-27T13:08:34Z</time>
      </trkpt>
      <trkpt lat="47.69854" lon="-2.27684">
        <ele>62.6</ele>
        <time>2021-05-27T13:08:35Z</time>
      </trkpt>
      <trkpt lat="47.69854" lon="-2.27679">
        <ele>62.6</ele>
        <time>2021-05-27T13:08:36Z</time>
      </trkpt>
      <trkpt lat="47.69854" lon="-2.27675">
        <ele>62.6</ele>
        <time>2021-05-27T13:08:37Z</time>
      </trkpt>
      <trkpt lat="47.69853" lon="-2.27671">
        <ele>62.6</ele>
        <time>2021-05-27T13:08:38Z</time>
      </trkpt>
      <trkpt lat="47.69852" lon="-2.27668">
        <ele>62.4</ele>
        <time>2021-05-27T13:08:39Z</time>
      </trkpt>
      <trkpt lat="47.69851" lon="-2.27663">
        <ele>62.4</ele>
        <time>2021-05-27T13:08:40Z</time>
      </trkpt>
      <trkpt lat="47.6985" lon="-2.27659">
        <ele>62.3</ele>
        <time>2021-05-27T13:08:41Z</time>
      </trkpt>
      <trkpt lat="47.6985" lon="-2.27655">
        <ele>62.4</ele>
        <time>2021-05-27T13:08:42Z</time>
      </trkpt>
      <trkpt lat="47.69851" lon="-2.27652">
        <ele>62.5</ele>
        <time>2021-05-27T13:08:43Z</time>
      </trkpt>
      <trkpt lat="47.69851" lon="-2.27649">
        <ele>62.6</ele>
        <time>2021-05-27T13:08:44Z</time>
      </trkpt>
      <trkpt lat="47.6985" lon="-2.27646">
        <ele>62.6</ele>
        <time>2021-05-27T13:08:45Z</time>
      </trkpt>
      <trkpt lat="47.6985" lon="-2.27643">
        <ele>62.6</ele>
        <time>2021-05-27T13:08:46Z</time>
      </trkpt>
      <trkpt lat="47.69849" lon="-2.27639">
        <ele>62.5</ele>
        <time>2021-05-27T13:08:47Z</time>
      </trkpt>
      <trkpt lat="47.69847" lon="-2.27636">
        <ele>62.4</ele>
        <time>2021-05-27T13:08:48Z</time>
      </trkpt>
      <trkpt lat="47.69846" lon="-2.27631">
        <ele>62.3</ele>
        <time>2021-05-27T13:08:49Z</time>
      </trkpt>
      <trkpt lat="47.69846" lon="-2.27626">
        <ele>62.5</ele>
        <time>2021-05-27T13:08:50Z</time>
      </trkpt>
      <trkpt lat="47.69847" lon="-2.27622">
        <ele>62.6</ele>
        <time>2021-05-27T13:08:51Z</time>
      </trkpt>
      <trkpt lat="47.69849" lon="-2.27618">
        <ele>62.9</ele>
        <time>2021-05-27T13:08:52Z</time>
      </trkpt>
      <trkpt lat="47.69851" lon="-2.27615">
        <ele>63.1</ele>
        <time>2021-05-27T13:08:53Z</time>
      </trkpt>
      <trkpt lat="47.69852" lon="-2.27613">
        <ele>63.4</ele>
        <time>2021-05-27T13:08:54Z</time>
      </trkpt>
      <trkpt lat="47.69854" lon="-2.27611">
        <ele>63.6</ele>
        <time>2021-05-27T13:08:55Z</time>
      </trkpt>
      <trkpt lat="47.69855" lon="-2.27608">
        <ele>63.7</ele>
        <time>2021-05-27T13:08:56Z</time>
      </trkpt>
      <trkpt lat="47.69855" lon="-2.27606">
        <ele>63.8</ele>
        <time>2021-05-27T13:08:57Z</time>
      </trkpt>
      <trkpt lat="47.69856" lon="-2.27603">
        <ele>63.9</ele>
        <time>2021-05-27T13:08:58Z</time>
      </trkpt>
      <trkpt lat="47.69858" lon="-2.276">
        <ele>64.1</ele>
        <time>2021-05-27T13:08:59Z</time>
      </trkpt>
      <trkpt lat="47.69859" lon="-2.27599">
        <ele>64.3</ele>
        <time>2021-05-27T13:09:00Z</time>
      </trkpt>
      <trkpt lat="47.69861" lon="-2.27597">
        <ele>64.4</ele>
        <time>2021-05-27T13:09:01Z</time>
      </trkpt>
      <trkpt lat="47.69861" lon="-2.27595">
        <ele>64.6</ele>
        <time>2021-05-27T13:09:02Z</time>
      </trkpt>
      <trkpt lat="47.69862" lon="-2.2759">
        <ele>64.7</ele>
        <time>2021-05-27T13:09:03Z</time>
      </trkpt>
      <trkpt lat="47.69862" lon="-2.27586">
        <ele>64.7</ele>
        <time>2021-05-27T13:09:04Z</time>
      </trkpt>
      <trkpt lat="47.69862" lon="-2.2758">
        <ele>64.8</ele>
        <time>2021-05-27T13:09:05Z</time>
      </trkpt>
      <trkpt lat="47.69862" lon="-2.27576">
        <ele>65</ele>
        <time>2021-05-27T13:09:06Z</time>
      </trkpt>
      <trkpt lat="47.69861" lon="-2.27572">
        <ele>65</ele>
        <time>2021-05-27T13:09:07Z</time>
      </trkpt>
      <trkpt lat="47.6986" lon="-2.27569">
        <ele>65</ele>
        <time>2021-05-27T13:09:08Z</time>
      </trkpt>
      <trkpt lat="47.69859" lon="-2.27566">
        <ele>65.1</ele>
        <time>2021-05-27T13:09:09Z</time>
      </trkpt>
      <trkpt lat="47.69858" lon="-2.27563">
        <ele>65</ele>
        <time>2021-05-27T13:09:10Z</time>
      </trkpt>
      <trkpt lat="47.69855" lon="-2.2756">
        <ele>64.9</ele>
        <time>2021-05-27T13:09:11Z</time>
      </trkpt>
      <trkpt lat="47.69853" lon="-2.27555">
        <ele>64.8</ele>
        <time>2021-05-27T13:09:12Z</time>
      </trkpt>
      <trkpt lat="47.69851" lon="-2.2755">
        <ele>64.8</ele>
        <time>2021-05-27T13:09:13Z</time>
      </trkpt>
      <trkpt lat="47.6985" lon="-2.27546">
        <ele>64.9</ele>
        <time>2021-05-27T13:09:14Z</time>
      </trkpt>
      <trkpt lat="47.6985" lon="-2.27541">
        <ele>65</ele>
        <time>2021-05-27T13:09:15Z</time>
      </trkpt>
      <trkpt lat="47.69849" lon="-2.27537">
        <ele>65.1</ele>
        <time>2021-05-27T13:09:16Z</time>
      </trkpt>
      <trkpt lat="47.69849" lon="-2.27532">
        <ele>65.2</ele>
        <time>2021-05-27T13:09:17Z</time>
      </trkpt>
      <trkpt lat="47.6985" lon="-2.27528">
        <ele>65.4</ele>
        <time>2021-05-27T13:09:18Z</time>
      </trkpt>
      <trkpt lat="47.69851" lon="-2.27523">
        <ele>65.7</ele>
        <time>2021-05-27T13:09:19Z</time>
      </trkpt>
      <trkpt lat="47.69851" lon="-2.2752">
        <ele>65.9</ele>
        <time>2021-05-27T13:09:20Z</time>
      </trkpt>
      <trkpt lat="47.69852" lon="-2.27517">
        <ele>66</ele>
        <time>2021-05-27T13:09:21Z</time>
      </trkpt>
      <trkpt lat="47.69854" lon="-2.27516">
        <ele>66.2</ele>
        <time>2021-05-27T13:09:22Z</time>
      </trkpt>
      <trkpt lat="47.69855" lon="-2.27514">
        <ele>66.4</ele>
        <time>2021-05-27T13:09:23Z</time>
      </trkpt>
      <trkpt lat="47.69856" lon="-2.27511">
        <ele>66.6</ele>
        <time>2021-05-27T13:09:24Z</time>
      </trkpt>
      <trkpt lat="47.69858" lon="-2.27508">
        <ele>66.8</ele>
        <time>2021-05-27T13:09:25Z</time>
      </trkpt>
      <trkpt lat="47.6986" lon="-2.27503">
        <ele>67.1</ele>
        <time>2021-05-27T13:09:26Z</time>
      </trkpt>
      <trkpt lat="47.6986" lon="-2.27499">
        <ele>67.3</ele>
        <time>2021-05-27T13:09:27Z</time>
      </trkpt>
      <trkpt lat="47.69861" lon="-2.27495">
        <ele>67.4</ele>
        <time>2021-05-27T13:09:28Z</time>
      </trkpt>
      <trkpt lat="47.69861" lon="-2.27492">
        <ele>67.5</ele>
        <time>2021-05-27T13:09:29Z</time>
      </trkpt>
      <trkpt lat="47.69862" lon="-2.27488">
        <ele>67.7</ele>
        <time>2021-05-27T13:09:30Z</time>
      </trkpt>
      <trkpt lat="47.69863" lon="-2.27484">
        <ele>67.8</ele>
        <time>2021-05-27T13:09:31Z</time>
      </trkpt>
      <trkpt lat="47.69862" lon="-2.27481">
        <ele>67.8</ele>
        <time>2021-05-27T13:09:32Z</time>
      </trkpt>
      <trkpt lat="47.69861" lon="-2.27477">
        <ele>67.8</ele>
        <time>2021-05-27T13:09:33Z</time>
      </trkpt>
      <trkpt lat="47.69861" lon="-2.27472">
        <ele>67.8</ele>
        <time>2021-05-27T13:09:34Z</time>
      </trkpt>
      <trkpt lat="47.6986" lon="-2.27468">
        <ele>67.9</ele>
        <time>2021-05-27T13:09:35Z</time>
      </trkpt>
      <trkpt lat="47.6986" lon="-2.27464">
        <ele>67.9</ele>
        <time>2021-05-27T13:09:36Z</time>
      </trkpt>
      <trkpt lat="47.69861" lon="-2.27459">
        <ele>68.1</ele>
        <time>2021-05-27T13:09:37Z</time>
      </trkpt>
      <trkpt lat="47.69861" lon="-2.27454">
        <ele>68.2</ele>
        <time>2021-05-27T13:09:38Z</time>
      </trkpt>
      <trkpt lat="47.69861" lon="-2.27449">
        <ele>68.4</ele>
        <time>2021-05-27T13:09:39Z</time>
      </trkpt>
      <trkpt lat="47.69861" lon="-2.27445">
        <ele>68.5</ele>
        <time>2021-05-27T13:09:40Z</time>
      </trkpt>
      <trkpt lat="47.69861" lon="-2.27441">
        <ele>68.5</ele>
        <time>2021-05-27T13:09:41Z</time>
      </trkpt>
      <trkpt lat="47.6986" lon="-2.27437">
        <ele>68.5</ele>
        <time>2021-05-27T13:09:42Z</time>
      </trkpt>
      <trkpt lat="47.69859" lon="-2.27432">
        <ele>68.4</ele>
        <time>2021-05-27T13:09:43Z</time>
      </trkpt>
      <trkpt lat="47.69856" lon="-2.27428">
        <ele>68.2</ele>
        <time>2021-05-27T13:09:44Z</time>
      </trkpt>
      <trkpt lat="47.69854" lon="-2.27425">
        <ele>68.1</ele>
        <time>2021-05-27T13:09:45Z</time>
      </trkpt>
      <trkpt lat="47.69852" lon="-2.27421">
        <ele>67.9</ele>
        <time>2021-05-27T13:09:46Z</time>
      </trkpt>
      <trkpt lat="47.69849" lon="-2.27418">
        <ele>67.7</ele>
        <time>2021-05-27T13:09:47Z</time>
      </trkpt>
      <trkpt lat="47.69847" lon="-2.27415">
        <ele>67.4</ele>
        <time>2021-05-27T13:09:48Z</time>
      </trkpt>
      <trkpt lat="47.69844" lon="-2.27411">
        <ele>67.2</ele>
        <time>2021-05-27T13:09:49Z</time>
      </trkpt>
      <trkpt lat="47.69841" lon="-2.27408">
        <ele>66.8</ele>
        <time>2021-05-27T13:09:50Z</time>
      </trkpt>
      <trkpt lat="47.69837" lon="-2.27403">
        <ele>66.4</ele>
        <time>2021-05-27T13:09:51Z</time>
      </trkpt>
      <trkpt lat="47.69833" lon="-2.27399">
        <ele>66</ele>
        <time>2021-05-27T13:09:52Z</time>
      </trkpt>
      <trkpt lat="47.6983" lon="-2.27395">
        <ele>65.4</ele>
        <time>2021-05-27T13:09:53Z</time>
      </trkpt>
      <trkpt lat="47.69827" lon="-2.27391">
        <ele>64.8</ele>
        <time>2021-05-27T13:09:54Z</time>
      </trkpt>
      <trkpt lat="47.69825" lon="-2.27386">
        <ele>64.5</ele>
        <time>2021-05-27T13:09:55Z</time>
      </trkpt>
      <trkpt lat="47.69824" lon="-2.27381">
        <ele>64.2</ele>
        <time>2021-05-27T13:09:56Z</time>
      </trkpt>
      <trkpt lat="47.69822" lon="-2.27375">
        <ele>63.9</ele>
        <time>2021-05-27T13:09:57Z</time>
      </trkpt>
      <trkpt lat="47.69821" lon="-2.27368">
        <ele>63.6</ele>
        <time>2021-05-27T13:09:58Z</time>
      </trkpt>
      <trkpt lat="47.6982" lon="-2.27361">
        <ele>63.4</ele>
        <time>2021-05-27T13:09:59Z</time>
      </trkpt>
      <trkpt lat="47.69821" lon="-2.27355">
        <ele>63.6</ele>
        <time>2021-05-27T13:10:00Z</time>
      </trkpt>
      <trkpt lat="47.69823" lon="-2.2735">
        <ele>63.9</ele>
        <time>2021-05-27T13:10:01Z</time>
      </trkpt>
      <trkpt lat="47.69824" lon="-2.27346">
        <ele>64.1</ele>
        <time>2021-05-27T13:10:02Z</time>
      </trkpt>
      <trkpt lat="47.69825" lon="-2.27341">
        <ele>64.3</ele>
        <time>2021-05-27T13:10:03Z</time>
      </trkpt>
      <trkpt lat="47.69826" lon="-2.27337">
        <ele>64.5</ele>
        <time>2021-05-27T13:10:04Z</time>
      </trkpt>
      <trkpt lat="47.69827" lon="-2.27333">
        <ele>64.7</ele>
        <time>2021-05-27T13:10:05Z</time>
      </trkpt>
      <trkpt lat="47.69829" lon="-2.2733">
        <ele>65.2</ele>
        <time>2021-05-27T13:10:06Z</time>
      </trkpt>
      <trkpt lat="47.6983" lon="-2.27327">
        <ele>65.6</ele>
        <time>2021-05-27T13:10:07Z</time>
      </trkpt>
      <trkpt lat="47.69831" lon="-2.27324">
        <ele>65.9</ele>
        <time>2021-05-27T13:10:08Z</time>
      </trkpt>
      <trkpt lat="47.69832" lon="-2.27321">
        <ele>66.3</ele>
        <time>2021-05-27T13:10:09Z</time>
      </trkpt>
      <trkpt lat="47.69834" lon="-2.27319">
        <ele>66.6</ele>
        <time>2021-05-27T13:10:10Z</time>
      </trkpt>
      <trkpt lat="47.69835" lon="-2.27318">
        <ele>66.8</ele>
        <time>2021-05-27T13:10:11Z</time>
      </trkpt>
      <trkpt lat="47.69837" lon="-2.27317">
        <ele>67</ele>
        <time>2021-05-27T13:10:12Z</time>
      </trkpt>
      <trkpt lat="47.69837" lon="-2.27317">
        <ele>67</ele>
        <time>2021-05-27T13:10:13Z</time>
      </trkpt>
      <trkpt lat="47.69838" lon="-2.27317">
        <ele>67</ele>
        <time>2021-05-27T13:10:14Z</time>
      </trkpt>
      <trkpt lat="47.69838" lon="-2.27317">
        <ele>67</ele>
        <time>2021-05-27T13:10:15Z</time>
      </trkpt>
      <trkpt lat="47.69838" lon="-2.27317">
        <ele>67</ele>
        <time>2021-05-27T13:10:16Z</time>
      </trkpt>
      <trkpt lat="47.69838" lon="-2.27317">
        <ele>67</ele>
        <time>2021-05-27T13:10:17Z</time>
      </trkpt>
      <trkpt lat="47.69838" lon="-2.27317">
        <ele>67</ele>
        <time>2021-05-27T13:10:18Z</time>
      </trkpt>
      <trkpt lat="47.69838" lon="-2.27317">
        <ele>67</ele>
        <time>2021-05-27T13:10:19Z</time>
      </trkpt>
      <trkpt lat="47.69838" lon="-2.27317">
        <ele>67</ele>
        <time>2021-05-27T13:10:20Z</time>
      </trkpt>
      <trkpt lat="47.69842" lon="-2.27313">
        <ele>67.7</ele>
        <time>2021-05-27T13:10:21Z</time>
      </trkpt>
      <trkpt lat="47.69843" lon="-2.27311">
        <ele>67.8</ele>
        <time>2021-05-27T13:10:22Z</time>
      </trkpt>
      <trkpt lat="47.69843" lon="-2.2731">
        <ele>67.9</ele>
        <time>2021-05-27T13:10:23Z</time>
      </trkpt>
      <trkpt lat="47.69843" lon="-2.2731">
        <ele>68</ele>
        <time>2021-05-27T13:10:24Z</time>
      </trkpt>
      <trkpt lat="47.69843" lon="-2.27309">
        <ele>68</ele>
        <time>2021-05-27T13:10:25Z</time>
      </trkpt>
      <trkpt lat="47.69843" lon="-2.27309">
        <ele>68</ele>
        <time>2021-05-27T13:10:26Z</time>
      </trkpt>
      <trkpt lat="47.69843" lon="-2.27309">
        <ele>68</ele>
        <time>2021-05-27T13:10:27Z</time>
      </trkpt>
      <trkpt lat="47.69843" lon="-2.27309">
        <ele>68</ele>
        <time>2021-05-27T13:10:28Z</time>
      </trkpt>
      <trkpt lat="47.69843" lon="-2.27303">
        <ele>68.2</ele>
        <time>2021-05-27T13:10:29Z</time>
      </trkpt>
      <trkpt lat="47.69843" lon="-2.27299">
        <ele>68.3</ele>
        <time>2021-05-27T13:10:30Z</time>
      </trkpt>
      <trkpt lat="47.69843" lon="-2.27295">
        <ele>68.5</ele>
        <time>2021-05-27T13:10:31Z</time>
      </trkpt>
      <trkpt lat="47.69845" lon="-2.27291">
        <ele>68.8</ele>
        <time>2021-05-27T13:10:32Z</time>
      </trkpt>
      <trkpt lat="47.69846" lon="-2.27288">
        <ele>69</ele>
        <time>2021-05-27T13:10:33Z</time>
      </trkpt>
      <trkpt lat="47.69847" lon="-2.27285">
        <ele>69.3</ele>
        <time>2021-05-27T13:10:34Z</time>
      </trkpt>
      <trkpt lat="47.69848" lon="-2.27283">
        <ele>69.6</ele>
        <time>2021-05-27T13:10:35Z</time>
      </trkpt>
      <trkpt lat="47.6985" lon="-2.27281">
        <ele>69.8</ele>
        <time>2021-05-27T13:10:36Z</time>
      </trkpt>
      <trkpt lat="47.69852" lon="-2.27278">
        <ele>70.2</ele>
        <time>2021-05-27T13:10:37Z</time>
      </trkpt>
      <trkpt lat="47.69855" lon="-2.27276">
        <ele>70.5</ele>
        <time>2021-05-27T13:10:38Z</time>
      </trkpt>
      <trkpt lat="47.69857" lon="-2.27275">
        <ele>70.9</ele>
        <time>2021-05-27T13:10:39Z</time>
      </trkpt>
      <trkpt lat="47.69859" lon="-2.27274">
        <ele>71.2</ele>
        <time>2021-05-27T13:10:40Z</time>
      </trkpt>
      <trkpt lat="47.69862" lon="-2.27272">
        <ele>71.6</ele>
        <time>2021-05-27T13:10:41Z</time>
      </trkpt>
      <trkpt lat="47.69865" lon="-2.27271">
        <ele>71.9</ele>
        <time>2021-05-27T13:10:42Z</time>
      </trkpt>
      <trkpt lat="47.69867" lon="-2.27268">
        <ele>72.3</ele>
        <time>2021-05-27T13:10:43Z</time>
      </trkpt>
      <trkpt lat="47.69868" lon="-2.27267">
        <ele>72.5</ele>
        <time>2021-05-27T13:10:44Z</time>
      </trkpt>
      <trkpt lat="47.69869" lon="-2.27264">
        <ele>72.7</ele>
        <time>2021-05-27T13:10:45Z</time>
      </trkpt>
      <trkpt lat="47.69869" lon="-2.27261">
        <ele>72.8</ele>
        <time>2021-05-27T13:10:46Z</time>
      </trkpt>
      <trkpt lat="47.69868" lon="-2.27258">
        <ele>72.9</ele>
        <time>2021-05-27T13:10:47Z</time>
      </trkpt>
      <trkpt lat="47.69866" lon="-2.27255">
        <ele>72.7</ele>
        <time>2021-05-27T13:10:48Z</time>
      </trkpt>
      <trkpt lat="47.69866" lon="-2.27252">
        <ele>72.8</ele>
        <time>2021-05-27T13:10:49Z</time>
      </trkpt>
      <trkpt lat="47.69865" lon="-2.27248">
        <ele>72.8</ele>
        <time>2021-05-27T13:10:50Z</time>
      </trkpt>
      <trkpt lat="47.69865" lon="-2.27245">
        <ele>72.8</ele>
        <time>2021-05-27T13:10:51Z</time>
      </trkpt>
      <trkpt lat="47.69865" lon="-2.27241">
        <ele>72.9</ele>
        <time>2021-05-27T13:10:52Z</time>
      </trkpt>
      <trkpt lat="47.69864" lon="-2.27237">
        <ele>72.9</ele>
        <time>2021-05-27T13:10:53Z</time>
      </trkpt>
      <trkpt lat="47.69863" lon="-2.27232">
        <ele>72.8</ele>
        <time>2021-05-27T13:10:54Z</time>
      </trkpt>
      <trkpt lat="47.69863" lon="-2.27228">
        <ele>72.8</ele>
        <time>2021-05-27T13:10:55Z</time>
      </trkpt>
      <trkpt lat="47.69862" lon="-2.27223">
        <ele>72.7</ele>
        <time>2021-05-27T13:10:56Z</time>
      </trkpt>
      <trkpt lat="47.69861" lon="-2.27218">
        <ele>72.7</ele>
        <time>2021-05-27T13:10:57Z</time>
      </trkpt>
      <trkpt lat="47.6986" lon="-2.27214">
        <ele>72.6</ele>
        <time>2021-05-27T13:10:58Z</time>
      </trkpt>
      <trkpt lat="47.69859" lon="-2.2721">
        <ele>72.6</ele>
        <time>2021-05-27T13:10:59Z</time>
      </trkpt>
      <trkpt lat="47.69858" lon="-2.27207">
        <ele>72.6</ele>
        <time>2021-05-27T13:11:00Z</time>
      </trkpt>
      <trkpt lat="47.69858" lon="-2.27204">
        <ele>72.5</ele>
        <time>2021-05-27T13:11:01Z</time>
      </trkpt>
      <trkpt lat="47.69856" lon="-2.27201">
        <ele>72.4</ele>
        <time>2021-05-27T13:11:02Z</time>
      </trkpt>
      <trkpt lat="47.69854" lon="-2.27198">
        <ele>72.2</ele>
        <time>2021-05-27T13:11:03Z</time>
      </trkpt>
      <trkpt lat="47.69852" lon="-2.27196">
        <ele>72.1</ele>
        <time>2021-05-27T13:11:04Z</time>
      </trkpt>
      <trkpt lat="47.6985" lon="-2.27195">
        <ele>71.9</ele>
        <time>2021-05-27T13:11:05Z</time>
      </trkpt>
      <trkpt lat="47.69848" lon="-2.27195">
        <ele>71.7</ele>
        <time>2021-05-27T13:11:06Z</time>
      </trkpt>
      <trkpt lat="47.69845" lon="-2.27195">
        <ele>71.4</ele>
        <time>2021-05-27T13:11:07Z</time>
      </trkpt>
      <trkpt lat="47.69843" lon="-2.27195">
        <ele>71.3</ele>
        <time>2021-05-27T13:11:08Z</time>
      </trkpt>
      <trkpt lat="47.69842" lon="-2.27194">
        <ele>71.1</ele>
        <time>2021-05-27T13:11:09Z</time>
      </trkpt>
      <trkpt lat="47.69841" lon="-2.27191">
        <ele>71.1</ele>
        <time>2021-05-27T13:11:10Z</time>
      </trkpt>
      <trkpt lat="47.69839" lon="-2.27188">
        <ele>71.1</ele>
        <time>2021-05-27T13:11:11Z</time>
      </trkpt>
      <trkpt lat="47.69839" lon="-2.27183">
        <ele>71.1</ele>
        <time>2021-05-27T13:11:12Z</time>
      </trkpt>
      <trkpt lat="47.69839" lon="-2.27179">
        <ele>71.2</ele>
        <time>2021-05-27T13:11:13Z</time>
      </trkpt>
      <trkpt lat="47.69841" lon="-2.27171">
        <ele>71.5</ele>
        <time>2021-05-27T13:11:15Z</time>
      </trkpt>
      <trkpt lat="47.69841" lon="-2.27167">
        <ele>71.6</ele>
        <time>2021-05-27T13:11:16Z</time>
      </trkpt>
      <trkpt lat="47.6984" lon="-2.27164">
        <ele>71.5</ele>
        <time>2021-05-27T13:11:17Z</time>
      </trkpt>
      <trkpt lat="47.69838" lon="-2.2716">
        <ele>71.3</ele>
        <time>2021-05-27T13:11:18Z</time>
      </trkpt>
      <trkpt lat="47.69836" lon="-2.27156">
        <ele>71.1</ele>
        <time>2021-05-27T13:11:19Z</time>
      </trkpt>
      <trkpt lat="47.69835" lon="-2.27152">
        <ele>71</ele>
        <time>2021-05-27T13:11:20Z</time>
      </trkpt>
      <trkpt lat="47.69835" lon="-2.27147">
        <ele>70.9</ele>
        <time>2021-05-27T13:11:21Z</time>
      </trkpt>
      <trkpt lat="47.69834" lon="-2.27143">
        <ele>70.8</ele>
        <time>2021-05-27T13:11:22Z</time>
      </trkpt>
      <trkpt lat="47.69834" lon="-2.27139">
        <ele>70.7</ele>
        <time>2021-05-27T13:11:23Z</time>
      </trkpt>
      <trkpt lat="47.69833" lon="-2.27134">
        <ele>70.6</ele>
        <time>2021-05-27T13:11:24Z</time>
      </trkpt>
      <trkpt lat="47.69833" lon="-2.27129">
        <ele>70.5</ele>
        <time>2021-05-27T13:11:25Z</time>
      </trkpt>
      <trkpt lat="47.69833" lon="-2.27125">
        <ele>70.5</ele>
        <time>2021-05-27T13:11:26Z</time>
      </trkpt>
      <trkpt lat="47.69834" lon="-2.27122">
        <ele>70.5</ele>
        <time>2021-05-27T13:11:27Z</time>
      </trkpt>
      <trkpt lat="47.69835" lon="-2.27121">
        <ele>70.6</ele>
        <time>2021-05-27T13:11:28Z</time>
      </trkpt>
      <trkpt lat="47.69837" lon="-2.2712">
        <ele>70.6</ele>
        <time>2021-05-27T13:11:29Z</time>
      </trkpt>
      <trkpt lat="47.69838" lon="-2.2712">
        <ele>70.7</ele>
        <time>2021-05-27T13:11:30Z</time>
      </trkpt>
      <trkpt lat="47.69838" lon="-2.2712">
        <ele>70.7</ele>
        <time>2021-05-27T13:11:31Z</time>
      </trkpt>
      <trkpt lat="47.69839" lon="-2.2712">
        <ele>70.7</ele>
        <time>2021-05-27T13:11:32Z</time>
      </trkpt>
      <trkpt lat="47.69839" lon="-2.2712">
        <ele>70.8</ele>
        <time>2021-05-27T13:11:33Z</time>
      </trkpt>
      <trkpt lat="47.69839" lon="-2.2712">
        <ele>70.8</ele>
        <time>2021-05-27T13:11:34Z</time>
      </trkpt>
      <trkpt lat="47.69839" lon="-2.2712">
        <ele>70.8</ele>
        <time>2021-05-27T13:11:35Z</time>
      </trkpt>
      <trkpt lat="47.69839" lon="-2.2712">
        <ele>70.8</ele>
        <time>2021-05-27T13:11:36Z</time>
      </trkpt>
      <trkpt lat="47.69839" lon="-2.2712">
        <ele>70.8</ele>
        <time>2021-05-27T13:11:37Z</time>
      </trkpt>
      <trkpt lat="47.69839" lon="-2.2712">
        <ele>70.8</ele>
        <time>2021-05-27T13:11:38Z</time>
      </trkpt>
      <trkpt lat="47.69839" lon="-2.2712">
        <ele>70.8</ele>
        <time>2021-05-27T13:11:39Z</time>
      </trkpt>
      <trkpt lat="47.69839" lon="-2.2712">
        <ele>70.8</ele>
        <time>2021-05-27T13:11:40Z</time>
      </trkpt>
      <trkpt lat="47.69839" lon="-2.2712">
        <ele>70.8</ele>
        <time>2021-05-27T13:11:41Z</time>
      </trkpt>
      <trkpt lat="47.69839" lon="-2.2712">
        <ele>70.8</ele>
        <time>2021-05-27T13:11:42Z</time>
      </trkpt>
      <trkpt lat="47.69845" lon="-2.27114">
        <ele>71</ele>
        <time>2021-05-27T13:11:43Z</time>
      </trkpt>
      <trkpt lat="47.69845" lon="-2.2711">
        <ele>70.9</ele>
        <time>2021-05-27T13:11:44Z</time>
      </trkpt>
      <trkpt lat="47.69845" lon="-2.27106">
        <ele>70.9</ele>
        <time>2021-05-27T13:11:45Z</time>
      </trkpt>
      <trkpt lat="47.69846" lon="-2.27101">
        <ele>70.8</ele>
        <time>2021-05-27T13:11:46Z</time>
      </trkpt>
      <trkpt lat="47.69846" lon="-2.27097">
        <ele>70.7</ele>
        <time>2021-05-27T13:11:47Z</time>
      </trkpt>
      <trkpt lat="47.69847" lon="-2.27093">
        <ele>70.7</ele>
        <time>2021-05-27T13:11:48Z</time>
      </trkpt>
      <trkpt lat="47.69848" lon="-2.27089">
        <ele>70.6</ele>
        <time>2021-05-27T13:11:49Z</time>
      </trkpt>
      <trkpt lat="47.69849" lon="-2.27084">
        <ele>70.6</ele>
        <time>2021-05-27T13:11:50Z</time>
      </trkpt>
      <trkpt lat="47.6985" lon="-2.2708">
        <ele>70.5</ele>
        <time>2021-05-27T13:11:51Z</time>
      </trkpt>
      <trkpt lat="47.69851" lon="-2.27075">
        <ele>70.5</ele>
        <time>2021-05-27T13:11:52Z</time>
      </trkpt>
      <trkpt lat="47.69852" lon="-2.27072">
        <ele>70.5</ele>
        <time>2021-05-27T13:11:53Z</time>
      </trkpt>
      <trkpt lat="47.69851" lon="-2.27069">
        <ele>70.4</ele>
        <time>2021-05-27T13:11:54Z</time>
      </trkpt>
      <trkpt lat="47.69849" lon="-2.27066">
        <ele>70.3</ele>
        <time>2021-05-27T13:11:55Z</time>
      </trkpt>
      <trkpt lat="47.69847" lon="-2.27064">
        <ele>70.2</ele>
        <time>2021-05-27T13:11:56Z</time>
      </trkpt>
      <trkpt lat="47.69845" lon="-2.27061">
        <ele>70.1</ele>
        <time>2021-05-27T13:11:57Z</time>
      </trkpt>
      <trkpt lat="47.69844" lon="-2.27058">
        <ele>70</ele>
        <time>2021-05-27T13:11:58Z</time>
      </trkpt>
      <trkpt lat="47.69843" lon="-2.27053">
        <ele>69.9</ele>
        <time>2021-05-27T13:11:59Z</time>
      </trkpt>
      <trkpt lat="47.69841" lon="-2.27049">
        <ele>69.8</ele>
        <time>2021-05-27T13:12:00Z</time>
      </trkpt>
      <trkpt lat="47.69839" lon="-2.27046">
        <ele>69.7</ele>
        <time>2021-05-27T13:12:01Z</time>
      </trkpt>
      <trkpt lat="47.69836" lon="-2.27045">
        <ele>69.6</ele>
        <time>2021-05-27T13:12:02Z</time>
      </trkpt>
      <trkpt lat="47.69833" lon="-2.27042">
        <ele>69.5</ele>
        <time>2021-05-27T13:12:03Z</time>
      </trkpt>
      <trkpt lat="47.69832" lon="-2.27038">
        <ele>69.2</ele>
        <time>2021-05-27T13:12:04Z</time>
      </trkpt>
      <trkpt lat="47.69831" lon="-2.27034">
        <ele>69</ele>
        <time>2021-05-27T13:12:05Z</time>
      </trkpt>
      <trkpt lat="47.69831" lon="-2.27028">
        <ele>68.8</ele>
        <time>2021-05-27T13:12:06Z</time>
      </trkpt>
      <trkpt lat="47.6983" lon="-2.27022">
        <ele>68.6</ele>
        <time>2021-05-27T13:12:07Z</time>
      </trkpt>
      <trkpt lat="47.6983" lon="-2.27017">
        <ele>68.5</ele>
        <time>2021-05-27T13:12:08Z</time>
      </trkpt>
      <trkpt lat="47.6983" lon="-2.27011">
        <ele>68.6</ele>
        <time>2021-05-27T13:12:09Z</time>
      </trkpt>
      <trkpt lat="47.69831" lon="-2.27006">
        <ele>68.6</ele>
        <time>2021-05-27T13:12:10Z</time>
      </trkpt>
      <trkpt lat="47.69832" lon="-2.27001">
        <ele>68.8</ele>
        <time>2021-05-27T13:12:11Z</time>
      </trkpt>
      <trkpt lat="47.69833" lon="-2.26996">
        <ele>69.1</ele>
        <time>2021-05-27T13:12:12Z</time>
      </trkpt>
      <trkpt lat="47.69832" lon="-2.26991">
        <ele>69.1</ele>
        <time>2021-05-27T13:12:13Z</time>
      </trkpt>
      <trkpt lat="47.69832" lon="-2.26986">
        <ele>69.1</ele>
        <time>2021-05-27T13:12:14Z</time>
      </trkpt>
      <trkpt lat="47.69831" lon="-2.26982">
        <ele>69.3</ele>
        <time>2021-05-27T13:12:15Z</time>
      </trkpt>
      <trkpt lat="47.69831" lon="-2.26977">
        <ele>69.3</ele>
        <time>2021-05-27T13:12:16Z</time>
      </trkpt>
      <trkpt lat="47.6983" lon="-2.26972">
        <ele>69.3</ele>
        <time>2021-05-27T13:12:17Z</time>
      </trkpt>
      <trkpt lat="47.69828" lon="-2.26966">
        <ele>69.2</ele>
        <time>2021-05-27T13:12:18Z</time>
      </trkpt>
      <trkpt lat="47.69826" lon="-2.26961">
        <ele>69.1</ele>
        <time>2021-05-27T13:12:19Z</time>
      </trkpt>
      <trkpt lat="47.69825" lon="-2.26956">
        <ele>69.1</ele>
        <time>2021-05-27T13:12:20Z</time>
      </trkpt>
      <trkpt lat="47.69825" lon="-2.26951">
        <ele>69.3</ele>
        <time>2021-05-27T13:12:21Z</time>
      </trkpt>
      <trkpt lat="47.69825" lon="-2.26947">
        <ele>69.4</ele>
        <time>2021-05-27T13:12:22Z</time>
      </trkpt>
      <trkpt lat="47.69825" lon="-2.26943">
        <ele>69.6</ele>
        <time>2021-05-27T13:12:23Z</time>
      </trkpt>
      <trkpt lat="47.69824" lon="-2.2694">
        <ele>69.5</ele>
        <time>2021-05-27T13:12:24Z</time>
      </trkpt>
      <trkpt lat="47.69822" lon="-2.26938">
        <ele>69.3</ele>
        <time>2021-05-27T13:12:25Z</time>
      </trkpt>
      <trkpt lat="47.69819" lon="-2.26937">
        <ele>68.9</ele>
        <time>2021-05-27T13:12:26Z</time>
      </trkpt>
      <trkpt lat="47.69817" lon="-2.26935">
        <ele>68.4</ele>
        <time>2021-05-27T13:12:27Z</time>
      </trkpt>
      <trkpt lat="47.69814" lon="-2.26933">
        <ele>68.1</ele>
        <time>2021-05-27T13:12:28Z</time>
      </trkpt>
      <trkpt lat="47.69812" lon="-2.26932">
        <ele>67.7</ele>
        <time>2021-05-27T13:12:29Z</time>
      </trkpt>
      <trkpt lat="47.6981" lon="-2.26931">
        <ele>67.4</ele>
        <time>2021-05-27T13:12:30Z</time>
      </trkpt>
      <trkpt lat="47.69808" lon="-2.2693">
        <ele>67.1</ele>
        <time>2021-05-27T13:12:31Z</time>
      </trkpt>
      <trkpt lat="47.69806" lon="-2.26928">
        <ele>67</ele>
        <time>2021-05-27T13:12:32Z</time>
      </trkpt>
      <trkpt lat="47.69806" lon="-2.26927">
        <ele>67</ele>
        <time>2021-05-27T13:12:33Z</time>
      </trkpt>
      <trkpt lat="47.69806" lon="-2.26926">
        <ele>66.9</ele>
        <time>2021-05-27T13:12:34Z</time>
      </trkpt>
      <trkpt lat="47.69806" lon="-2.26926">
        <ele>66.9</ele>
        <time>2021-05-27T13:12:35Z</time>
      </trkpt>
      <trkpt lat="47.69806" lon="-2.26926">
        <ele>66.9</ele>
        <time>2021-05-27T13:12:36Z</time>
      </trkpt>
      <trkpt lat="47.69804" lon="-2.26922">
        <ele>66.9</ele>
        <time>2021-05-27T13:12:37Z</time>
      </trkpt>
      <trkpt lat="47.69804" lon="-2.2692">
        <ele>66.9</ele>
        <time>2021-05-27T13:12:38Z</time>
      </trkpt>
      <trkpt lat="47.69803" lon="-2.26917">
        <ele>66.9</ele>
        <time>2021-05-27T13:12:39Z</time>
      </trkpt>
      <trkpt lat="47.69803" lon="-2.26914">
        <ele>67</ele>
        <time>2021-05-27T13:12:40Z</time>
      </trkpt>
      <trkpt lat="47.69804" lon="-2.2691">
        <ele>67</ele>
        <time>2021-05-27T13:12:41Z</time>
      </trkpt>
      <trkpt lat="47.69804" lon="-2.26906">
        <ele>67</ele>
        <time>2021-05-27T13:12:42Z</time>
      </trkpt>
      <trkpt lat="47.69804" lon="-2.26903">
        <ele>67.1</ele>
        <time>2021-05-27T13:12:43Z</time>
      </trkpt>
      <trkpt lat="47.69804" lon="-2.26898">
        <ele>67</ele>
        <time>2021-05-27T13:12:44Z</time>
      </trkpt>
      <trkpt lat="47.69804" lon="-2.26894">
        <ele>67</ele>
        <time>2021-05-27T13:12:45Z</time>
      </trkpt>
      <trkpt lat="47.69804" lon="-2.2689">
        <ele>67.1</ele>
        <time>2021-05-27T13:12:46Z</time>
      </trkpt>
      <trkpt lat="47.69804" lon="-2.26885">
        <ele>67.1</ele>
        <time>2021-05-27T13:12:47Z</time>
      </trkpt>
      <trkpt lat="47.69805" lon="-2.26882">
        <ele>67.2</ele>
        <time>2021-05-27T13:12:48Z</time>
      </trkpt>
      <trkpt lat="47.69805" lon="-2.26878">
        <ele>67.2</ele>
        <time>2021-05-27T13:12:49Z</time>
      </trkpt>
      <trkpt lat="47.69806" lon="-2.26874">
        <ele>67.4</ele>
        <time>2021-05-27T13:12:50Z</time>
      </trkpt>
      <trkpt lat="47.69806" lon="-2.2687">
        <ele>67.5</ele>
        <time>2021-05-27T13:12:51Z</time>
      </trkpt>
      <trkpt lat="47.69807" lon="-2.26866">
        <ele>67.6</ele>
        <time>2021-05-27T13:12:52Z</time>
      </trkpt>
      <trkpt lat="47.69808" lon="-2.26862">
        <ele>67.7</ele>
        <time>2021-05-27T13:12:53Z</time>
      </trkpt>
      <trkpt lat="47.69809" lon="-2.2686">
        <ele>68</ele>
        <time>2021-05-27T13:12:54Z</time>
      </trkpt>
      <trkpt lat="47.69811" lon="-2.26857">
        <ele>68.2</ele>
        <time>2021-05-27T13:12:55Z</time>
      </trkpt>
      <trkpt lat="47.69812" lon="-2.26854">
        <ele>68.4</ele>
        <time>2021-05-27T13:12:56Z</time>
      </trkpt>
      <trkpt lat="47.69812" lon="-2.26851">
        <ele>68.4</ele>
        <time>2021-05-27T13:12:57Z</time>
      </trkpt>
      <trkpt lat="47.69811" lon="-2.26847">
        <ele>68.3</ele>
        <time>2021-05-27T13:12:58Z</time>
      </trkpt>
      <trkpt lat="47.6981" lon="-2.26842">
        <ele>68.1</ele>
        <time>2021-05-27T13:12:59Z</time>
      </trkpt>
      <trkpt lat="47.69809" lon="-2.26838">
        <ele>67.9</ele>
        <time>2021-05-27T13:13:00Z</time>
      </trkpt>
      <trkpt lat="47.69808" lon="-2.26833">
        <ele>67.7</ele>
        <time>2021-05-27T13:13:01Z</time>
      </trkpt>
      <trkpt lat="47.69806" lon="-2.26828">
        <ele>67.5</ele>
        <time>2021-05-27T13:13:02Z</time>
      </trkpt>
      <trkpt lat="47.69805" lon="-2.26824">
        <ele>67.2</ele>
        <time>2021-05-27T13:13:03Z</time>
      </trkpt>
      <trkpt lat="47.69802" lon="-2.26821">
        <ele>66.8</ele>
        <time>2021-05-27T13:13:04Z</time>
      </trkpt>
      <trkpt lat="47.69801" lon="-2.26816">
        <ele>66.7</ele>
        <time>2021-05-27T13:13:05Z</time>
      </trkpt>
      <trkpt lat="47.698" lon="-2.26811">
        <ele>66.5</ele>
        <time>2021-05-27T13:13:06Z</time>
      </trkpt>
      <trkpt lat="47.698" lon="-2.26806">
        <ele>66.5</ele>
        <time>2021-05-27T13:13:07Z</time>
      </trkpt>
      <trkpt lat="47.69801" lon="-2.268">
        <ele>66.6</ele>
        <time>2021-05-27T13:13:08Z</time>
      </trkpt>
      <trkpt lat="47.69801" lon="-2.26795">
        <ele>66.7</ele>
        <time>2021-05-27T13:13:09Z</time>
      </trkpt>
      <trkpt lat="47.69801" lon="-2.2679">
        <ele>66.7</ele>
        <time>2021-05-27T13:13:10Z</time>
      </trkpt>
      <trkpt lat="47.698" lon="-2.26785">
        <ele>66.5</ele>
        <time>2021-05-27T13:13:11Z</time>
      </trkpt>
      <trkpt lat="47.69798" lon="-2.2678">
        <ele>66.2</ele>
        <time>2021-05-27T13:13:12Z</time>
      </trkpt>
      <trkpt lat="47.69795" lon="-2.26775">
        <ele>65.9</ele>
        <time>2021-05-27T13:13:13Z</time>
      </trkpt>
      <trkpt lat="47.69794" lon="-2.2677">
        <ele>65.7</ele>
        <time>2021-05-27T13:13:14Z</time>
      </trkpt>
      <trkpt lat="47.69794" lon="-2.26765">
        <ele>65.7</ele>
        <time>2021-05-27T13:13:15Z</time>
      </trkpt>
      <trkpt lat="47.69793" lon="-2.26759">
        <ele>65.7</ele>
        <time>2021-05-27T13:13:16Z</time>
      </trkpt>
      <trkpt lat="47.69793" lon="-2.26753">
        <ele>65.7</ele>
        <time>2021-05-27T13:13:17Z</time>
      </trkpt>
      <trkpt lat="47.69792" lon="-2.26747">
        <ele>65.4</ele>
        <time>2021-05-27T13:13:18Z</time>
      </trkpt>
      <trkpt lat="47.6979" lon="-2.26742">
        <ele>65</ele>
        <time>2021-05-27T13:13:19Z</time>
      </trkpt>
      <trkpt lat="47.69789" lon="-2.26737">
        <ele>64.7</ele>
        <time>2021-05-27T13:13:20Z</time>
      </trkpt>
      <trkpt lat="47.69789" lon="-2.26732">
        <ele>64.4</ele>
        <time>2021-05-27T13:13:21Z</time>
      </trkpt>
      <trkpt lat="47.69788" lon="-2.26727">
        <ele>64.1</ele>
        <time>2021-05-27T13:13:22Z</time>
      </trkpt>
      <trkpt lat="47.69786" lon="-2.26724">
        <ele>63.7</ele>
        <time>2021-05-27T13:13:23Z</time>
      </trkpt>
      <trkpt lat="47.69783" lon="-2.2672">
        <ele>63.2</ele>
        <time>2021-05-27T13:13:24Z</time>
      </trkpt>
      <trkpt lat="47.69782" lon="-2.26716">
        <ele>62.9</ele>
        <time>2021-05-27T13:13:25Z</time>
      </trkpt>
      <trkpt lat="47.69781" lon="-2.26712">
        <ele>62.6</ele>
        <time>2021-05-27T13:13:26Z</time>
      </trkpt>
      <trkpt lat="47.6978" lon="-2.26706">
        <ele>62.3</ele>
        <time>2021-05-27T13:13:27Z</time>
      </trkpt>
      <trkpt lat="47.6978" lon="-2.267">
        <ele>62</ele>
        <time>2021-05-27T13:13:28Z</time>
      </trkpt>
      <trkpt lat="47.69779" lon="-2.26694">
        <ele>61.7</ele>
        <time>2021-05-27T13:13:29Z</time>
      </trkpt>
      <trkpt lat="47.69779" lon="-2.26689">
        <ele>61.4</ele>
        <time>2021-05-27T13:13:30Z</time>
      </trkpt>
      <trkpt lat="47.69778" lon="-2.26684">
        <ele>61.1</ele>
        <time>2021-05-27T13:13:31Z</time>
      </trkpt>
      <trkpt lat="47.69778" lon="-2.26678">
        <ele>60.8</ele>
        <time>2021-05-27T13:13:32Z</time>
      </trkpt>
      <trkpt lat="47.69778" lon="-2.26672">
        <ele>60.6</ele>
        <time>2021-05-27T13:13:33Z</time>
      </trkpt>
      <trkpt lat="47.6978" lon="-2.26667">
        <ele>60.7</ele>
        <time>2021-05-27T13:13:34Z</time>
      </trkpt>
      <trkpt lat="47.69781" lon="-2.26661">
        <ele>60.5</ele>
        <time>2021-05-27T13:13:35Z</time>
      </trkpt>
      <trkpt lat="47.69782" lon="-2.26656">
        <ele>60</ele>
        <time>2021-05-27T13:13:36Z</time>
      </trkpt>
      <trkpt lat="47.69783" lon="-2.2665">
        <ele>59.7</ele>
        <time>2021-05-27T13:13:37Z</time>
      </trkpt>
      <trkpt lat="47.69785" lon="-2.26646">
        <ele>59.7</ele>
        <time>2021-05-27T13:13:38Z</time>
      </trkpt>
      <trkpt lat="47.69787" lon="-2.26643">
        <ele>59.8</ele>
        <time>2021-05-27T13:13:39Z</time>
      </trkpt>
      <trkpt lat="47.69789" lon="-2.26641">
        <ele>60</ele>
        <time>2021-05-27T13:13:40Z</time>
      </trkpt>
      <trkpt lat="47.69791" lon="-2.2664">
        <ele>60.1</ele>
        <time>2021-05-27T13:13:41Z</time>
      </trkpt>
      <trkpt lat="47.69792" lon="-2.26639">
        <ele>60.3</ele>
        <time>2021-05-27T13:13:42Z</time>
      </trkpt>
      <trkpt lat="47.69793" lon="-2.2664">
        <ele>60.5</ele>
        <time>2021-05-27T13:13:43Z</time>
      </trkpt>
      <trkpt lat="47.69795" lon="-2.26641">
        <ele>60.9</ele>
        <time>2021-05-27T13:13:44Z</time>
      </trkpt>
      <trkpt lat="47.69797" lon="-2.26644">
        <ele>61.4</ele>
        <time>2021-05-27T13:13:45Z</time>
      </trkpt>
      <trkpt lat="47.69799" lon="-2.26647">
        <ele>61.9</ele>
        <time>2021-05-27T13:13:46Z</time>
      </trkpt>
      <trkpt lat="47.69801" lon="-2.2665">
        <ele>62.5</ele>
        <time>2021-05-27T13:13:47Z</time>
      </trkpt>
      <trkpt lat="47.69804" lon="-2.26652">
        <ele>63.1</ele>
        <time>2021-05-27T13:13:48Z</time>
      </trkpt>
      <trkpt lat="47.69806" lon="-2.26651">
        <ele>63.5</ele>
        <time>2021-05-27T13:13:49Z</time>
      </trkpt>
      <trkpt lat="47.69809" lon="-2.2665">
        <ele>63.7</ele>
        <time>2021-05-27T13:13:50Z</time>
      </trkpt>
      <trkpt lat="47.69812" lon="-2.26648">
        <ele>64</ele>
        <time>2021-05-27T13:13:51Z</time>
      </trkpt>
      <trkpt lat="47.69815" lon="-2.26646">
        <ele>64.3</ele>
        <time>2021-05-27T13:13:52Z</time>
      </trkpt>
      <trkpt lat="47.69818" lon="-2.26646">
        <ele>64.8</ele>
        <time>2021-05-27T13:13:53Z</time>
      </trkpt>
      <trkpt lat="47.69821" lon="-2.26645">
        <ele>65.2</ele>
        <time>2021-05-27T13:13:54Z</time>
      </trkpt>
      <trkpt lat="47.69823" lon="-2.26644">
        <ele>65.5</ele>
        <time>2021-05-27T13:13:55Z</time>
      </trkpt>
      <trkpt lat="47.69825" lon="-2.26642">
        <ele>65.6</ele>
        <time>2021-05-27T13:13:56Z</time>
      </trkpt>
      <trkpt lat="47.69828" lon="-2.26639">
        <ele>65.8</ele>
        <time>2021-05-27T13:13:57Z</time>
      </trkpt>
      <trkpt lat="47.6983" lon="-2.26636">
        <ele>65.9</ele>
        <time>2021-05-27T13:13:58Z</time>
      </trkpt>
      <trkpt lat="47.69832" lon="-2.26632">
        <ele>66</ele>
        <time>2021-05-27T13:13:59Z</time>
      </trkpt>
      <trkpt lat="47.69835" lon="-2.26628">
        <ele>65.9</ele>
        <time>2021-05-27T13:14:00Z</time>
      </trkpt>
      <trkpt lat="47.69838" lon="-2.26625">
        <ele>65.7</ele>
        <time>2021-05-27T13:14:01Z</time>
      </trkpt>
      <trkpt lat="47.6984" lon="-2.26624">
        <ele>65.8</ele>
        <time>2021-05-27T13:14:59Z</time>
      </trkpt>
      <trkpt lat="47.69842" lon="-2.26625">
        <ele>65.9</ele>
        <time>2021-05-27T13:15:09Z</time>
      </trkpt>
      <trkpt lat="47.69843" lon="-2.26625">
        <ele>66</ele>
        <time>2021-05-27T13:15:10Z</time>
      </trkpt>
      <trkpt lat="47.69844" lon="-2.26626">
        <ele>66.1</ele>
        <time>2021-05-27T13:15:11Z</time>
      </trkpt>
      <trkpt lat="47.69845" lon="-2.26627">
        <ele>66.2</ele>
        <time>2021-05-27T13:15:12Z</time>
      </trkpt>
      <trkpt lat="47.69845" lon="-2.26627">
        <ele>66.2</ele>
        <time>2021-05-27T13:15:13Z</time>
      </trkpt>
      <trkpt lat="47.69845" lon="-2.26627">
        <ele>66.2</ele>
        <time>2021-05-27T13:15:14Z</time>
      </trkpt>
      <trkpt lat="47.69845" lon="-2.26627">
        <ele>66.2</ele>
        <time>2021-05-27T13:15:15Z</time>
      </trkpt>
      <trkpt lat="47.69845" lon="-2.26627">
        <ele>66.2</ele>
        <time>2021-05-27T13:15:16Z</time>
      </trkpt>
      <trkpt lat="47.69845" lon="-2.26627">
        <ele>66.2</ele>
        <time>2021-05-27T13:15:17Z</time>
      </trkpt>
      <trkpt lat="47.69845" lon="-2.26627">
        <ele>66.2</ele>
        <time>2021-05-27T13:15:18Z</time>
      </trkpt>
      <trkpt lat="47.69845" lon="-2.26627">
        <ele>66.2</ele>
        <time>2021-05-27T13:15:19Z</time>
      </trkpt>
      <trkpt lat="47.69845" lon="-2.26627">
        <ele>66.2</ele>
        <time>2021-05-27T13:15:20Z</time>
      </trkpt>
      <trkpt lat="47.69845" lon="-2.26627">
        <ele>66.2</ele>
        <time>2021-05-27T13:15:21Z</time>
      </trkpt>
      <trkpt lat="47.69845" lon="-2.26627">
        <ele>66.2</ele>
        <time>2021-05-27T13:15:22Z</time>
      </trkpt>
      <trkpt lat="47.69845" lon="-2.26627">
        <ele>66.2</ele>
        <time>2021-05-27T13:15:23Z</time>
      </trkpt>
      <trkpt lat="47.69845" lon="-2.26627">
        <ele>66.2</ele>
        <time>2021-05-27T13:15:24Z</time>
      </trkpt>
      <trkpt lat="47.69845" lon="-2.26627">
        <ele>66.2</ele>
        <time>2021-05-27T13:15:25Z</time>
      </trkpt>
      <trkpt lat="47.69845" lon="-2.26627">
        <ele>66.2</ele>
        <time>2021-05-27T13:15:26Z</time>
      </trkpt>
      <trkpt lat="47.69855" lon="-2.26624">
        <ele>66.6</ele>
        <time>2021-05-27T13:15:27Z</time>
      </trkpt>
      <trkpt lat="47.69856" lon="-2.26622">
        <ele>66.5</ele>
        <time>2021-05-27T13:15:28Z</time>
      </trkpt>
      <trkpt lat="47.69857" lon="-2.2662">
        <ele>66.5</ele>
        <time>2021-05-27T13:15:29Z</time>
      </trkpt>
      <trkpt lat="47.69859" lon="-2.26618">
        <ele>66.5</ele>
        <time>2021-05-27T13:15:30Z</time>
      </trkpt>
      <trkpt lat="47.69861" lon="-2.26616">
        <ele>66.5</ele>
        <time>2021-05-27T13:15:31Z</time>
      </trkpt>
      <trkpt lat="47.69863" lon="-2.26614">
        <ele>66.5</ele>
        <time>2021-05-27T13:15:32Z</time>
      </trkpt>
      <trkpt lat="47.69866" lon="-2.26612">
        <ele>66.6</ele>
        <time>2021-05-27T13:15:33Z</time>
      </trkpt>
      <trkpt lat="47.69869" lon="-2.26611">
        <ele>66.8</ele>
        <time>2021-05-27T13:15:34Z</time>
      </trkpt>
      <trkpt lat="47.69872" lon="-2.26611">
        <ele>67</ele>
        <time>2021-05-27T13:15:35Z</time>
      </trkpt>
      <trkpt lat="47.69874" lon="-2.26611">
        <ele>67.1</ele>
        <time>2021-05-27T13:15:36Z</time>
      </trkpt>
      <trkpt lat="47.69877" lon="-2.26611">
        <ele>67.3</ele>
        <time>2021-05-27T13:15:37Z</time>
      </trkpt>
      <trkpt lat="47.69879" lon="-2.2661">
        <ele>67.4</ele>
        <time>2021-05-27T13:15:38Z</time>
      </trkpt>
      <trkpt lat="47.69881" lon="-2.26609">
        <ele>67.5</ele>
        <time>2021-05-27T13:15:39Z</time>
      </trkpt>
      <trkpt lat="47.69884" lon="-2.26608">
        <ele>67.6</ele>
        <time>2021-05-27T13:15:40Z</time>
      </trkpt>
      <trkpt lat="47.69886" lon="-2.26606">
        <ele>67.8</ele>
        <time>2021-05-27T13:15:41Z</time>
      </trkpt>
      <trkpt lat="47.69889" lon="-2.26605">
        <ele>68</ele>
        <time>2021-05-27T13:15:42Z</time>
      </trkpt>
      <trkpt lat="47.69891" lon="-2.26602">
        <ele>68</ele>
        <time>2021-05-27T13:15:43Z</time>
      </trkpt>
      <trkpt lat="47.69892" lon="-2.26598">
        <ele>68</ele>
        <time>2021-05-27T13:16:32Z</time>
      </trkpt>
      <trkpt lat="47.6989" lon="-2.26598">
        <ele>67.8</ele>
        <time>2021-05-27T13:16:33Z</time>
      </trkpt>
      <trkpt lat="47.69887" lon="-2.266">
        <ele>67.6</ele>
        <time>2021-05-27T13:16:34Z</time>
      </trkpt>
      <trkpt lat="47.69884" lon="-2.26599">
        <ele>67.4</ele>
        <time>2021-05-27T13:16:35Z</time>
      </trkpt>
      <trkpt lat="47.69884" lon="-2.26597">
        <ele>67.3</ele>
        <time>2021-05-27T13:16:36Z</time>
      </trkpt>
      <trkpt lat="47.69884" lon="-2.26595">
        <ele>67.2</ele>
        <time>2021-05-27T13:16:37Z</time>
      </trkpt>
      <trkpt lat="47.69883" lon="-2.26593">
        <ele>67.1</ele>
        <time>2021-05-27T13:16:38Z</time>
      </trkpt>
      <trkpt lat="47.69884" lon="-2.26591">
        <ele>67.1</ele>
        <time>2021-05-27T13:16:39Z</time>
      </trkpt>
      <trkpt lat="47.69882" lon="-2.26587">
        <ele>66.9</ele>
        <time>2021-05-27T13:16:40Z</time>
      </trkpt>
      <trkpt lat="47.69881" lon="-2.26584">
        <ele>66.7</ele>
        <time>2021-05-27T13:16:41Z</time>
      </trkpt>
      <trkpt lat="47.6988" lon="-2.26581">
        <ele>66.2</ele>
        <time>2021-05-27T13:16:42Z</time>
      </trkpt>
      <trkpt lat="47.69881" lon="-2.26577">
        <ele>65.8</ele>
        <time>2021-05-27T13:16:43Z</time>
      </trkpt>
      <trkpt lat="47.69882" lon="-2.26574">
        <ele>65.5</ele>
        <time>2021-05-27T13:16:44Z</time>
      </trkpt>
      <trkpt lat="47.69883" lon="-2.26571">
        <ele>65.3</ele>
        <time>2021-05-27T13:16:45Z</time>
      </trkpt>
      <trkpt lat="47.69884" lon="-2.26569">
        <ele>65.1</ele>
        <time>2021-05-27T13:16:46Z</time>
      </trkpt>
      <trkpt lat="47.69884" lon="-2.26567">
        <ele>64.8</ele>
        <time>2021-05-27T13:16:47Z</time>
      </trkpt>
      <trkpt lat="47.69884" lon="-2.26565">
        <ele>64.5</ele>
        <time>2021-05-27T13:16:48Z</time>
      </trkpt>
      <trkpt lat="47.69884" lon="-2.26561">
        <ele>64.1</ele>
        <time>2021-05-27T13:16:49Z</time>
      </trkpt>
      <trkpt lat="47.69882" lon="-2.26558">
        <ele>63.6</ele>
        <time>2021-05-27T13:16:50Z</time>
      </trkpt>
      <trkpt lat="47.69881" lon="-2.26556">
        <ele>63.1</ele>
        <time>2021-05-27T13:16:51Z</time>
      </trkpt>
      <trkpt lat="47.69881" lon="-2.26553">
        <ele>62.7</ele>
        <time>2021-05-27T13:16:52Z</time>
      </trkpt>
      <trkpt lat="47.69881" lon="-2.26549">
        <ele>62.3</ele>
        <time>2021-05-27T13:16:53Z</time>
      </trkpt>
      <trkpt lat="47.69882" lon="-2.26545">
        <ele>61.9</ele>
        <time>2021-05-27T13:16:54Z</time>
      </trkpt>
      <trkpt lat="47.69883" lon="-2.26542">
        <ele>61.5</ele>
        <time>2021-05-27T13:16:55Z</time>
      </trkpt>
      <trkpt lat="47.69883" lon="-2.26538">
        <ele>61</ele>
        <time>2021-05-27T13:16:56Z</time>
      </trkpt>
      <trkpt lat="47.69882" lon="-2.26534">
        <ele>60.5</ele>
        <time>2021-05-27T13:16:57Z</time>
      </trkpt>
      <trkpt lat="47.6988" lon="-2.26532">
        <ele>60</ele>
        <time>2021-05-27T13:16:58Z</time>
      </trkpt>
      <trkpt lat="47.69878" lon="-2.2653">
        <ele>59.6</ele>
        <time>2021-05-27T13:16:59Z</time>
      </trkpt>
      <trkpt lat="47.69875" lon="-2.26529">
        <ele>59.2</ele>
        <time>2021-05-27T13:17:00Z</time>
      </trkpt>
      <trkpt lat="47.69875" lon="-2.26526">
        <ele>58.7</ele>
        <time>2021-05-27T13:17:01Z</time>
      </trkpt>
      <trkpt lat="47.69874" lon="-2.26521">
        <ele>58</ele>
        <time>2021-05-27T13:17:02Z</time>
      </trkpt>
      <trkpt lat="47.69872" lon="-2.26517">
        <ele>57.3</ele>
        <time>2021-05-27T13:17:03Z</time>
      </trkpt>
      <trkpt lat="47.69871" lon="-2.26514">
        <ele>56.8</ele>
        <time>2021-05-27T13:17:04Z</time>
      </trkpt>
      <trkpt lat="47.69869" lon="-2.26511">
        <ele>56.3</ele>
        <time>2021-05-27T13:17:05Z</time>
      </trkpt>
      <trkpt lat="47.69867" lon="-2.26509">
        <ele>55.8</ele>
        <time>2021-05-27T13:17:06Z</time>
      </trkpt>
      <trkpt lat="47.69865" lon="-2.26509">
        <ele>55.5</ele>
        <time>2021-05-27T13:17:07Z</time>
      </trkpt>
      <trkpt lat="47.69862" lon="-2.2651">
        <ele>55.4</ele>
        <time>2021-05-27T13:17:08Z</time>
      </trkpt>
      <trkpt lat="47.69859" lon="-2.2651">
        <ele>55</ele>
        <time>2021-05-27T13:17:09Z</time>
      </trkpt>
      <trkpt lat="47.69857" lon="-2.26509">
        <ele>54.6</ele>
        <time>2021-05-27T13:17:10Z</time>
      </trkpt>
      <trkpt lat="47.69855" lon="-2.26506">
        <ele>54.1</ele>
        <time>2021-05-27T13:17:11Z</time>
      </trkpt>
      <trkpt lat="47.69854" lon="-2.26503">
        <ele>53.5</ele>
        <time>2021-05-27T13:17:12Z</time>
      </trkpt>
      <trkpt lat="47.69853" lon="-2.26499">
        <ele>53</ele>
        <time>2021-05-27T13:17:13Z</time>
      </trkpt>
      <trkpt lat="47.69854" lon="-2.26496">
        <ele>52.6</ele>
        <time>2021-05-27T13:17:14Z</time>
      </trkpt>
      <trkpt lat="47.69855" lon="-2.26493">
        <ele>52.3</ele>
        <time>2021-05-27T13:17:15Z</time>
      </trkpt>
      <trkpt lat="47.69855" lon="-2.2649">
        <ele>51.9</ele>
        <time>2021-05-27T13:17:16Z</time>
      </trkpt>
      <trkpt lat="47.69856" lon="-2.26486">
        <ele>51.5</ele>
        <time>2021-05-27T13:17:17Z</time>
      </trkpt>
      <trkpt lat="47.69857" lon="-2.26483">
        <ele>51.1</ele>
        <time>2021-05-27T13:17:18Z</time>
      </trkpt>
      <trkpt lat="47.69858" lon="-2.26481">
        <ele>51</ele>
        <time>2021-05-27T13:17:19Z</time>
      </trkpt>
      <trkpt lat="47.6986" lon="-2.26479">
        <ele>50.8</ele>
        <time>2021-05-27T13:17:20Z</time>
      </trkpt>
      <trkpt lat="47.69862" lon="-2.26477">
        <ele>50.8</ele>
        <time>2021-05-27T13:17:21Z</time>
      </trkpt>
      <trkpt lat="47.69864" lon="-2.26476">
        <ele>50.8</ele>
        <time>2021-05-27T13:17:22Z</time>
      </trkpt>
      <trkpt lat="47.69866" lon="-2.26474">
        <ele>50.8</ele>
        <time>2021-05-27T13:17:23Z</time>
      </trkpt>
      <trkpt lat="47.69868" lon="-2.26473">
        <ele>50.8</ele>
        <time>2021-05-27T13:17:24Z</time>
      </trkpt>
      <trkpt lat="47.69871" lon="-2.2647">
        <ele>50.7</ele>
        <time>2021-05-27T13:17:25Z</time>
      </trkpt>
      <trkpt lat="47.69873" lon="-2.26467">
        <ele>50.4</ele>
        <time>2021-05-27T13:17:26Z</time>
      </trkpt>
      <trkpt lat="47.69873" lon="-2.26463">
        <ele>49.9</ele>
        <time>2021-05-27T13:17:27Z</time>
      </trkpt>
      <trkpt lat="47.69873" lon="-2.26459">
        <ele>49.4</ele>
        <time>2021-05-27T13:17:28Z</time>
      </trkpt>
      <trkpt lat="47.69875" lon="-2.26456">
        <ele>49.1</ele>
        <time>2021-05-27T13:17:29Z</time>
      </trkpt>
      <trkpt lat="47.69876" lon="-2.26452">
        <ele>48.7</ele>
        <time>2021-05-27T13:17:30Z</time>
      </trkpt>
      <trkpt lat="47.69878" lon="-2.2645">
        <ele>48.5</ele>
        <time>2021-05-27T13:17:31Z</time>
      </trkpt>
      <trkpt lat="47.69878" lon="-2.26449">
        <ele>48.4</ele>
        <time>2021-05-27T13:17:32Z</time>
      </trkpt>
      <trkpt lat="47.69878" lon="-2.26448">
        <ele>48.4</ele>
        <time>2021-05-27T13:17:33Z</time>
      </trkpt>
      <trkpt lat="47.69878" lon="-2.26448">
        <ele>48.4</ele>
        <time>2021-05-27T13:17:34Z</time>
      </trkpt>
      <trkpt lat="47.69878" lon="-2.26448">
        <ele>48.4</ele>
        <time>2021-05-27T13:17:35Z</time>
      </trkpt>
      <trkpt lat="47.69878" lon="-2.26448">
        <ele>48.4</ele>
        <time>2021-05-27T13:17:36Z</time>
      </trkpt>
      <trkpt lat="47.69878" lon="-2.26448">
        <ele>48.4</ele>
        <time>2021-05-27T13:17:37Z</time>
      </trkpt>
      <trkpt lat="47.69878" lon="-2.26448">
        <ele>48.4</ele>
        <time>2021-05-27T13:17:38Z</time>
      </trkpt>
      <trkpt lat="47.69878" lon="-2.26448">
        <ele>48.4</ele>
        <time>2021-05-27T13:17:39Z</time>
      </trkpt>
      <trkpt lat="47.69878" lon="-2.26448">
        <ele>48.4</ele>
        <time>2021-05-27T13:17:40Z</time>
      </trkpt>
      <trkpt lat="47.69878" lon="-2.26448">
        <ele>48.4</ele>
        <time>2021-05-27T13:17:41Z</time>
      </trkpt>
      <trkpt lat="47.69878" lon="-2.26448">
        <ele>48.4</ele>
        <time>2021-05-27T13:17:42Z</time>
      </trkpt>
      <trkpt lat="47.69878" lon="-2.26448">
        <ele>48.4</ele>
        <time>2021-05-27T13:17:43Z</time>
      </trkpt>
      <trkpt lat="47.69878" lon="-2.26448">
        <ele>48.4</ele>
        <time>2021-05-27T13:17:44Z</time>
      </trkpt>
      <trkpt lat="47.69878" lon="-2.26448">
        <ele>48.4</ele>
        <time>2021-05-27T13:17:45Z</time>
      </trkpt>
      <trkpt lat="47.69878" lon="-2.26448">
        <ele>48.4</ele>
        <time>2021-05-27T13:17:46Z</time>
      </trkpt>
      <trkpt lat="47.69878" lon="-2.26448">
        <ele>48.4</ele>
        <time>2021-05-27T13:17:47Z</time>
      </trkpt>
      <trkpt lat="47.69878" lon="-2.26448">
        <ele>48.4</ele>
        <time>2021-05-27T13:17:48Z</time>
      </trkpt>
      <trkpt lat="47.69878" lon="-2.26448">
        <ele>48.4</ele>
        <time>2021-05-27T13:17:49Z</time>
      </trkpt>
      <trkpt lat="47.69878" lon="-2.26448">
        <ele>48.4</ele>
        <time>2021-05-27T13:17:50Z</time>
      </trkpt>
      <trkpt lat="47.69878" lon="-2.26448">
        <ele>48.4</ele>
        <time>2021-05-27T13:17:51Z</time>
      </trkpt>
      <trkpt lat="47.69878" lon="-2.26448">
        <ele>48.4</ele>
        <time>2021-05-27T13:17:52Z</time>
      </trkpt>
      <trkpt lat="47.69878" lon="-2.26448">
        <ele>48.4</ele>
        <time>2021-05-27T13:17:53Z</time>
      </trkpt>
      <trkpt lat="47.69878" lon="-2.26448">
        <ele>48.4</ele>
        <time>2021-05-27T13:17:54Z</time>
      </trkpt>
      <trkpt lat="47.69878" lon="-2.26448">
        <ele>48.4</ele>
        <time>2021-05-27T13:17:55Z</time>
      </trkpt>
      <trkpt lat="47.69878" lon="-2.26448">
        <ele>48.4</ele>
        <time>2021-05-27T13:17:56Z</time>
      </trkpt>
      <trkpt lat="47.69879" lon="-2.26438">
        <ele>47</ele>
        <time>2021-05-27T13:17:57Z</time>
      </trkpt>
      <trkpt lat="47.6988" lon="-2.26435">
        <ele>46.7</ele>
        <time>2021-05-27T13:17:58Z</time>
      </trkpt>
      <trkpt lat="47.6988" lon="-2.26433">
        <ele>46.4</ele>
        <time>2021-05-27T13:17:59Z</time>
      </trkpt>
      <trkpt lat="47.69881" lon="-2.2643">
        <ele>46.1</ele>
        <time>2021-05-27T13:18:00Z</time>
      </trkpt>
      <trkpt lat="47.69883" lon="-2.26426">
        <ele>45.7</ele>
        <time>2021-05-27T13:18:01Z</time>
      </trkpt>
      <trkpt lat="47.69883" lon="-2.26423">
        <ele>45.3</ele>
        <time>2021-05-27T13:18:02Z</time>
      </trkpt>
      <trkpt lat="47.69882" lon="-2.26421">
        <ele>44.8</ele>
        <time>2021-05-27T13:18:03Z</time>
      </trkpt>
      <trkpt lat="47.6988" lon="-2.26419">
        <ele>44.4</ele>
        <time>2021-05-27T13:18:04Z</time>
      </trkpt>
      <trkpt lat="47.69879" lon="-2.26419">
        <ele>44.2</ele>
        <time>2021-05-27T13:18:05Z</time>
      </trkpt>
      <trkpt lat="47.69876" lon="-2.26417">
        <ele>43.7</ele>
        <time>2021-05-27T13:18:06Z</time>
      </trkpt>
      <trkpt lat="47.69873" lon="-2.26416">
        <ele>43.2</ele>
        <time>2021-05-27T13:18:07Z</time>
      </trkpt>
      <trkpt lat="47.6987" lon="-2.26415">
        <ele>42.9</ele>
        <time>2021-05-27T13:18:08Z</time>
      </trkpt>
      <trkpt lat="47.69866" lon="-2.26415">
        <ele>42.4</ele>
        <time>2021-05-27T13:18:09Z</time>
      </trkpt>
      <trkpt lat="47.69862" lon="-2.26415">
        <ele>42</ele>
        <time>2021-05-27T13:18:10Z</time>
      </trkpt>
      <trkpt lat="47.69858" lon="-2.26414">
        <ele>41.5</ele>
        <time>2021-05-27T13:18:11Z</time>
      </trkpt>
      <trkpt lat="47.69853" lon="-2.26414">
        <ele>41</ele>
        <time>2021-05-27T13:18:12Z</time>
      </trkpt>
      <trkpt lat="47.6985" lon="-2.26413">
        <ele>40.7</ele>
        <time>2021-05-27T13:18:13Z</time>
      </trkpt>
      <trkpt lat="47.69847" lon="-2.26413">
        <ele>40.4</ele>
        <time>2021-05-27T13:18:14Z</time>
      </trkpt>
      <trkpt lat="47.69845" lon="-2.26413">
        <ele>40.2</ele>
        <time>2021-05-27T13:18:15Z</time>
      </trkpt>
      <trkpt lat="47.69843" lon="-2.26414">
        <ele>40</ele>
        <time>2021-05-27T13:18:16Z</time>
      </trkpt>
      <trkpt lat="47.69842" lon="-2.26415">
        <ele>39.8</ele>
        <time>2021-05-27T13:18:17Z</time>
      </trkpt>
      <trkpt lat="47.6984" lon="-2.26416">
        <ele>39.7</ele>
        <time>2021-05-27T13:18:18Z</time>
      </trkpt>
      <trkpt lat="47.69839" lon="-2.26416">
        <ele>39.6</ele>
        <time>2021-05-27T13:18:19Z</time>
      </trkpt>
      <trkpt lat="47.69838" lon="-2.26416">
        <ele>39.5</ele>
        <time>2021-05-27T13:18:20Z</time>
      </trkpt>
      <trkpt lat="47.69837" lon="-2.26414">
        <ele>39.3</ele>
        <time>2021-05-27T13:18:21Z</time>
      </trkpt>
      <trkpt lat="47.69836" lon="-2.26414">
        <ele>39.2</ele>
        <time>2021-05-27T13:18:22Z</time>
      </trkpt>
      <trkpt lat="47.69834" lon="-2.26412">
        <ele>39</ele>
        <time>2021-05-27T13:18:23Z</time>
      </trkpt>
      <trkpt lat="47.69832" lon="-2.26411">
        <ele>38.8</ele>
        <time>2021-05-27T13:18:24Z</time>
      </trkpt>
      <trkpt lat="47.69832" lon="-2.2641">
        <ele>38.8</ele>
        <time>2021-05-27T13:18:25Z</time>
      </trkpt>
      <trkpt lat="47.69832" lon="-2.2641">
        <ele>38.8</ele>
        <time>2021-05-27T13:18:26Z</time>
      </trkpt>
      <trkpt lat="47.69828" lon="-2.26414">
        <ele>38.5</ele>
        <time>2021-05-27T13:20:21Z</time>
      </trkpt>
      <trkpt lat="47.69825" lon="-2.2642">
        <ele>38.7</ele>
        <time>2021-05-27T13:20:22Z</time>
      </trkpt>
      <trkpt lat="47.69822" lon="-2.26424">
        <ele>39</ele>
        <time>2021-05-27T13:20:23Z</time>
      </trkpt>
      <trkpt lat="47.69819" lon="-2.26427">
        <ele>39.1</ele>
        <time>2021-05-27T13:20:24Z</time>
      </trkpt>
      <trkpt lat="47.69815" lon="-2.26428">
        <ele>39</ele>
        <time>2021-05-27T13:20:25Z</time>
      </trkpt>
      <trkpt lat="47.69812" lon="-2.2643">
        <ele>38.9</ele>
        <time>2021-05-27T13:20:26Z</time>
      </trkpt>
      <trkpt lat="47.69807" lon="-2.2643">
        <ele>38.5</ele>
        <time>2021-05-27T13:20:27Z</time>
      </trkpt>
      <trkpt lat="47.69805" lon="-2.26431">
        <ele>38.4</ele>
        <time>2021-05-27T13:20:28Z</time>
      </trkpt>
      <trkpt lat="47.69802" lon="-2.26432">
        <ele>38.3</ele>
        <time>2021-05-27T13:20:29Z</time>
      </trkpt>
      <trkpt lat="47.69799" lon="-2.26434">
        <ele>38.3</ele>
        <time>2021-05-27T13:20:30Z</time>
      </trkpt>
      <trkpt lat="47.69797" lon="-2.26435">
        <ele>38.2</ele>
        <time>2021-05-27T13:20:31Z</time>
      </trkpt>
      <trkpt lat="47.69793" lon="-2.26437">
        <ele>38.1</ele>
        <time>2021-05-27T13:20:32Z</time>
      </trkpt>
      <trkpt lat="47.6979" lon="-2.26438">
        <ele>37.9</ele>
        <time>2021-05-27T13:20:33Z</time>
      </trkpt>
      <trkpt lat="47.69787" lon="-2.26438">
        <ele>37.7</ele>
        <time>2021-05-27T13:20:34Z</time>
      </trkpt>
      <trkpt lat="47.69783" lon="-2.26438">
        <ele>37.3</ele>
        <time>2021-05-27T13:20:35Z</time>
      </trkpt>
      <trkpt lat="47.69779" lon="-2.26438">
        <ele>36.9</ele>
        <time>2021-05-27T13:20:36Z</time>
      </trkpt>
      <trkpt lat="47.69775" lon="-2.26439">
        <ele>36.5</ele>
        <time>2021-05-27T13:20:37Z</time>
      </trkpt>
      <trkpt lat="47.69772" lon="-2.2644">
        <ele>36.4</ele>
        <time>2021-05-27T13:20:38Z</time>
      </trkpt>
      <trkpt lat="47.69769" lon="-2.2644">
        <ele>36.1</ele>
        <time>2021-05-27T13:20:39Z</time>
      </trkpt>
      <trkpt lat="47.69765" lon="-2.2644">
        <ele>35.7</ele>
        <time>2021-05-27T13:20:40Z</time>
      </trkpt>
      <trkpt lat="47.69761" lon="-2.2644">
        <ele>35.3</ele>
        <time>2021-05-27T13:20:41Z</time>
      </trkpt>
      <trkpt lat="47.69756" lon="-2.2644">
        <ele>34.8</ele>
        <time>2021-05-27T13:20:42Z</time>
      </trkpt>
      <trkpt lat="47.69752" lon="-2.2644">
        <ele>34.4</ele>
        <time>2021-05-27T13:20:43Z</time>
      </trkpt>
      <trkpt lat="47.69748" lon="-2.26442">
        <ele>34.4</ele>
        <time>2021-05-27T13:20:44Z</time>
      </trkpt>
      <trkpt lat="47.69745" lon="-2.26443">
        <ele>34.5</ele>
        <time>2021-05-27T13:20:45Z</time>
      </trkpt>
      <trkpt lat="47.69743" lon="-2.26443">
        <ele>34.5</ele>
        <time>2021-05-27T13:20:46Z</time>
      </trkpt>
      <trkpt lat="47.69742" lon="-2.26443">
        <ele>34.5</ele>
        <time>2021-05-27T13:20:47Z</time>
      </trkpt>
      <trkpt lat="47.69741" lon="-2.26441">
        <ele>34.4</ele>
        <time>2021-05-27T13:20:48Z</time>
      </trkpt>
      <trkpt lat="47.6974" lon="-2.26442">
        <ele>34.5</ele>
        <time>2021-05-27T13:20:49Z</time>
      </trkpt>
      <trkpt lat="47.6974" lon="-2.26442">
        <ele>34.5</ele>
        <time>2021-05-27T13:20:50Z</time>
      </trkpt>
      <trkpt lat="47.6974" lon="-2.26444">
        <ele>34.6</ele>
        <time>2021-05-27T13:20:51Z</time>
      </trkpt>
      <trkpt lat="47.6974" lon="-2.26444">
        <ele>34.6</ele>
        <time>2021-05-27T13:20:52Z</time>
      </trkpt>
      <trkpt lat="47.6974" lon="-2.26444">
        <ele>34.6</ele>
        <time>2021-05-27T13:20:53Z</time>
      </trkpt>
      <trkpt lat="47.69738" lon="-2.26447">
        <ele>34.9</ele>
        <time>2021-05-27T13:20:54Z</time>
      </trkpt>
      <trkpt lat="47.69737" lon="-2.26449">
        <ele>35</ele>
        <time>2021-05-27T13:20:55Z</time>
      </trkpt>
      <trkpt lat="47.69737" lon="-2.26449">
        <ele>35</ele>
        <time>2021-05-27T13:20:56Z</time>
      </trkpt>
      <trkpt lat="47.69738" lon="-2.2645">
        <ele>35</ele>
        <time>2021-05-27T13:20:57Z</time>
      </trkpt>
      <trkpt lat="47.69738" lon="-2.2645">
        <ele>35</ele>
        <time>2021-05-27T13:20:58Z</time>
      </trkpt>
      <trkpt lat="47.69738" lon="-2.2645">
        <ele>35</ele>
        <time>2021-05-27T13:20:59Z</time>
      </trkpt>
      <trkpt lat="47.69738" lon="-2.2645">
        <ele>35</ele>
        <time>2021-05-27T13:21:00Z</time>
      </trkpt>
      <trkpt lat="47.69738" lon="-2.2645">
        <ele>35</ele>
        <time>2021-05-27T13:21:01Z</time>
      </trkpt>
      <trkpt lat="47.69738" lon="-2.2645">
        <ele>35</ele>
        <time>2021-05-27T13:21:02Z</time>
      </trkpt>
      <trkpt lat="47.69738" lon="-2.2645">
        <ele>35</ele>
        <time>2021-05-27T13:21:03Z</time>
      </trkpt>
      <trkpt lat="47.69738" lon="-2.2645">
        <ele>35</ele>
        <time>2021-05-27T13:21:04Z</time>
      </trkpt>
      <trkpt lat="47.69738" lon="-2.2645">
        <ele>35</ele>
        <time>2021-05-27T13:21:05Z</time>
      </trkpt>
      <trkpt lat="47.69738" lon="-2.2645">
        <ele>35</ele>
        <time>2021-05-27T13:21:06Z</time>
      </trkpt>
      <trkpt lat="47.69738" lon="-2.2645">
        <ele>35</ele>
        <time>2021-05-27T13:21:07Z</time>
      </trkpt>
      <trkpt lat="47.69738" lon="-2.2645">
        <ele>35</ele>
        <time>2021-05-27T13:21:08Z</time>
      </trkpt>
      <trkpt lat="47.69738" lon="-2.2645">
        <ele>35</ele>
        <time>2021-05-27T13:21:09Z</time>
      </trkpt>
      <trkpt lat="47.69738" lon="-2.2645">
        <ele>35</ele>
        <time>2021-05-27T13:21:10Z</time>
      </trkpt>
      <trkpt lat="47.69738" lon="-2.2645">
        <ele>35</ele>
        <time>2021-05-27T13:21:11Z</time>
      </trkpt>
      <trkpt lat="47.69738" lon="-2.2645">
        <ele>35</ele>
        <time>2021-05-27T13:21:12Z</time>
      </trkpt>
      <trkpt lat="47.69738" lon="-2.2645">
        <ele>35</ele>
        <time>2021-05-27T13:21:13Z</time>
      </trkpt>
      <trkpt lat="47.69733" lon="-2.26446">
        <ele>34.7</ele>
        <time>2021-05-27T13:21:14Z</time>
      </trkpt>
      <trkpt lat="47.69731" lon="-2.26444">
        <ele>34.6</ele>
        <time>2021-05-27T13:21:15Z</time>
      </trkpt>
      <trkpt lat="47.69729" lon="-2.26441">
        <ele>34.4</ele>
        <time>2021-05-27T13:21:16Z</time>
      </trkpt>
      <trkpt lat="47.69727" lon="-2.26437">
        <ele>34.2</ele>
        <time>2021-05-27T13:21:17Z</time>
      </trkpt>
      <trkpt lat="47.69726" lon="-2.26433">
        <ele>34</ele>
        <time>2021-05-27T13:21:18Z</time>
      </trkpt>
      <trkpt lat="47.69725" lon="-2.26429">
        <ele>33.9</ele>
        <time>2021-05-27T13:21:19Z</time>
      </trkpt>
      <trkpt lat="47.69724" lon="-2.26425">
        <ele>33.7</ele>
        <time>2021-05-27T13:21:20Z</time>
      </trkpt>
      <trkpt lat="47.69724" lon="-2.26422">
        <ele>33.5</ele>
        <time>2021-05-27T13:21:21Z</time>
      </trkpt>
      <trkpt lat="47.69723" lon="-2.26419">
        <ele>33.4</ele>
        <time>2021-05-27T13:21:22Z</time>
      </trkpt>
      <trkpt lat="47.69722" lon="-2.26416">
        <ele>33.4</ele>
        <time>2021-05-27T13:21:23Z</time>
      </trkpt>
      <trkpt lat="47.69721" lon="-2.26411">
        <ele>34</ele>
        <time>2021-05-27T13:21:24Z</time>
      </trkpt>
      <trkpt lat="47.6972" lon="-2.26408">
        <ele>34.4</ele>
        <time>2021-05-27T13:21:25Z</time>
      </trkpt>
      <trkpt lat="47.6972" lon="-2.26406">
        <ele>34.6</ele>
        <time>2021-05-27T13:21:26Z</time>
      </trkpt>
      <trkpt lat="47.69718" lon="-2.26404">
        <ele>35</ele>
        <time>2021-05-27T13:21:27Z</time>
      </trkpt>
      <trkpt lat="47.69719" lon="-2.26402">
        <ele>35.2</ele>
        <time>2021-05-27T13:21:28Z</time>
      </trkpt>
      <trkpt lat="47.69719" lon="-2.26399">
        <ele>35.4</ele>
        <time>2021-05-27T13:21:29Z</time>
      </trkpt>
      <trkpt lat="47.69719" lon="-2.26397">
        <ele>35.7</ele>
        <time>2021-05-27T13:21:30Z</time>
      </trkpt>
      <trkpt lat="47.69719" lon="-2.26395">
        <ele>35.9</ele>
        <time>2021-05-27T13:21:31Z</time>
      </trkpt>
      <trkpt lat="47.6972" lon="-2.26395">
        <ele>36</ele>
        <time>2021-05-27T13:21:32Z</time>
      </trkpt>
      <trkpt lat="47.6972" lon="-2.26395">
        <ele>36</ele>
        <time>2021-05-27T13:21:33Z</time>
      </trkpt>
      <trkpt lat="47.6972" lon="-2.26395">
        <ele>35.9</ele>
        <time>2021-05-27T13:22:33Z</time>
      </trkpt>
      <trkpt lat="47.69723" lon="-2.26399">
        <ele>35.4</ele>
        <time>2021-05-27T13:22:34Z</time>
      </trkpt>
      <trkpt lat="47.69726" lon="-2.26402">
        <ele>34.9</ele>
        <time>2021-05-27T13:22:35Z</time>
      </trkpt>
      <trkpt lat="47.69729" lon="-2.26405">
        <ele>34.5</ele>
        <time>2021-05-27T13:22:36Z</time>
      </trkpt>
      <trkpt lat="47.69733" lon="-2.26405">
        <ele>34.3</ele>
        <time>2021-05-27T13:22:37Z</time>
      </trkpt>
      <trkpt lat="47.69734" lon="-2.26405">
        <ele>34.2</ele>
        <time>2021-05-27T13:22:38Z</time>
      </trkpt>
      <trkpt lat="47.69735" lon="-2.26405">
        <ele>34.2</ele>
        <time>2021-05-27T13:22:39Z</time>
      </trkpt>
      <trkpt lat="47.69736" lon="-2.26405">
        <ele>34.1</ele>
        <time>2021-05-27T13:22:40Z</time>
      </trkpt>
      <trkpt lat="47.69736" lon="-2.26405">
        <ele>34.1</ele>
        <time>2021-05-27T13:22:41Z</time>
      </trkpt>
      <trkpt lat="47.69736" lon="-2.26405">
        <ele>34.1</ele>
        <time>2021-05-27T13:22:42Z</time>
      </trkpt>
      <trkpt lat="47.69736" lon="-2.26405">
        <ele>34.1</ele>
        <time>2021-05-27T13:22:43Z</time>
      </trkpt>
      <trkpt lat="47.69736" lon="-2.26405">
        <ele>34.1</ele>
        <time>2021-05-27T13:22:44Z</time>
      </trkpt>
      <trkpt lat="47.69736" lon="-2.26405">
        <ele>34.1</ele>
        <time>2021-05-27T13:22:45Z</time>
      </trkpt>
      <trkpt lat="47.69736" lon="-2.26405">
        <ele>34.1</ele>
        <time>2021-05-27T13:22:46Z</time>
      </trkpt>
      <trkpt lat="47.69736" lon="-2.26405">
        <ele>34.1</ele>
        <time>2021-05-27T13:22:47Z</time>
      </trkpt>
      <trkpt lat="47.69736" lon="-2.26405">
        <ele>34.1</ele>
        <time>2021-05-27T13:22:48Z</time>
      </trkpt>
      <trkpt lat="47.69736" lon="-2.26405">
        <ele>34.1</ele>
        <time>2021-05-27T13:22:49Z</time>
      </trkpt>
      <trkpt lat="47.69736" lon="-2.26405">
        <ele>34.1</ele>
        <time>2021-05-27T13:22:50Z</time>
      </trkpt>
      <trkpt lat="47.69736" lon="-2.26405">
        <ele>34.1</ele>
        <time>2021-05-27T13:22:51Z</time>
      </trkpt>
      <trkpt lat="47.69736" lon="-2.26405">
        <ele>34.1</ele>
        <time>2021-05-27T13:22:52Z</time>
      </trkpt>
      <trkpt lat="47.69736" lon="-2.26405">
        <ele>34.1</ele>
        <time>2021-05-27T13:22:53Z</time>
      </trkpt>
      <trkpt lat="47.69736" lon="-2.26405">
        <ele>34.1</ele>
        <time>2021-05-27T13:22:54Z</time>
      </trkpt>
      <trkpt lat="47.69741" lon="-2.2641">
        <ele>33.3</ele>
        <time>2021-05-27T13:22:55Z</time>
      </trkpt>
      <trkpt lat="47.69745" lon="-2.26411">
        <ele>33</ele>
        <time>2021-05-27T13:22:56Z</time>
      </trkpt>
      <trkpt lat="47.69748" lon="-2.26411">
        <ele>32.8</ele>
        <time>2021-05-27T13:22:57Z</time>
      </trkpt>
      <trkpt lat="47.6975" lon="-2.26411">
        <ele>32.8</ele>
        <time>2021-05-27T13:22:58Z</time>
      </trkpt>
      <trkpt lat="47.69753" lon="-2.26411">
        <ele>33</ele>
        <time>2021-05-27T13:22:59Z</time>
      </trkpt>
      <trkpt lat="47.69755" lon="-2.26411">
        <ele>33.1</ele>
        <time>2021-05-27T13:23:00Z</time>
      </trkpt>
      <trkpt lat="47.69757" lon="-2.26412">
        <ele>33.1</ele>
        <time>2021-05-27T13:23:01Z</time>
      </trkpt>
      <trkpt lat="47.69759" lon="-2.26412">
        <ele>33.3</ele>
        <time>2021-05-27T13:23:02Z</time>
      </trkpt>
      <trkpt lat="47.69763" lon="-2.2641">
        <ele>33.8</ele>
        <time>2021-05-27T13:23:03Z</time>
      </trkpt>
      <trkpt lat="47.69766" lon="-2.26408">
        <ele>34.2</ele>
        <time>2021-05-27T13:23:04Z</time>
      </trkpt>
      <trkpt lat="47.69769" lon="-2.26407">
        <ele>34.6</ele>
        <time>2021-05-27T13:23:05Z</time>
      </trkpt>
      <trkpt lat="47.69772" lon="-2.26406">
        <ele>34.9</ele>
        <time>2021-05-27T13:23:06Z</time>
      </trkpt>
      <trkpt lat="47.69775" lon="-2.26404">
        <ele>35.3</ele>
        <time>2021-05-27T13:23:07Z</time>
      </trkpt>
      <trkpt lat="47.69778" lon="-2.26401">
        <ele>35.7</ele>
        <time>2021-05-27T13:23:08Z</time>
      </trkpt>
      <trkpt lat="47.69782" lon="-2.26399">
        <ele>36</ele>
        <time>2021-05-27T13:23:09Z</time>
      </trkpt>
      <trkpt lat="47.69785" lon="-2.26398">
        <ele>36.3</ele>
        <time>2021-05-27T13:23:10Z</time>
      </trkpt>
      <trkpt lat="47.69789" lon="-2.26394">
        <ele>36.7</ele>
        <time>2021-05-27T13:23:11Z</time>
      </trkpt>
      <trkpt lat="47.69792" lon="-2.26391">
        <ele>37.1</ele>
        <time>2021-05-27T13:23:12Z</time>
      </trkpt>
      <trkpt lat="47.69796" lon="-2.26387">
        <ele>37.4</ele>
        <time>2021-05-27T13:23:13Z</time>
      </trkpt>
      <trkpt lat="47.69798" lon="-2.26384">
        <ele>37.6</ele>
        <time>2021-05-27T13:23:14Z</time>
      </trkpt>
      <trkpt lat="47.698" lon="-2.26381">
        <ele>37.9</ele>
        <time>2021-05-27T13:23:15Z</time>
      </trkpt>
      <trkpt lat="47.69803" lon="-2.26378">
        <ele>38</ele>
        <time>2021-05-27T13:23:16Z</time>
      </trkpt>
      <trkpt lat="47.69806" lon="-2.26376">
        <ele>38.1</ele>
        <time>2021-05-27T13:23:17Z</time>
      </trkpt>
      <trkpt lat="47.69808" lon="-2.26374">
        <ele>38.2</ele>
        <time>2021-05-27T13:23:18Z</time>
      </trkpt>
      <trkpt lat="47.6981" lon="-2.26371">
        <ele>38.3</ele>
        <time>2021-05-27T13:23:19Z</time>
      </trkpt>
      <trkpt lat="47.69812" lon="-2.26369">
        <ele>38.4</ele>
        <time>2021-05-27T13:23:20Z</time>
      </trkpt>
      <trkpt lat="47.69813" lon="-2.26367">
        <ele>38.4</ele>
        <time>2021-05-27T13:23:21Z</time>
      </trkpt>
      <trkpt lat="47.69815" lon="-2.26364">
        <ele>38.5</ele>
        <time>2021-05-27T13:23:22Z</time>
      </trkpt>
      <trkpt lat="47.69817" lon="-2.26361">
        <ele>38.5</ele>
        <time>2021-05-27T13:23:23Z</time>
      </trkpt>
      <trkpt lat="47.69819" lon="-2.26358">
        <ele>38.6</ele>
        <time>2021-05-27T13:23:24Z</time>
      </trkpt>
      <trkpt lat="47.69821" lon="-2.26354">
        <ele>38.6</ele>
        <time>2021-05-27T13:23:25Z</time>
      </trkpt>
      <trkpt lat="47.69822" lon="-2.2635">
        <ele>38.5</ele>
        <time>2021-05-27T13:23:26Z</time>
      </trkpt>
      <trkpt lat="47.69824" lon="-2.26347">
        <ele>38.5</ele>
        <time>2021-05-27T13:23:27Z</time>
      </trkpt>
      <trkpt lat="47.69827" lon="-2.26344">
        <ele>38.4</ele>
        <time>2021-05-27T13:23:28Z</time>
      </trkpt>
      <trkpt lat="47.69828" lon="-2.26341">
        <ele>38.3</ele>
        <time>2021-05-27T13:23:29Z</time>
      </trkpt>
      <trkpt lat="47.69831" lon="-2.26339">
        <ele>38.2</ele>
        <time>2021-05-27T13:23:30Z</time>
      </trkpt>
      <trkpt lat="47.69833" lon="-2.26336">
        <ele>38</ele>
        <time>2021-05-27T13:23:31Z</time>
      </trkpt>
      <trkpt lat="47.69835" lon="-2.26334">
        <ele>38</ele>
        <time>2021-05-27T13:23:32Z</time>
      </trkpt>
      <trkpt lat="47.69837" lon="-2.26333">
        <ele>37.9</ele>
        <time>2021-05-27T13:23:33Z</time>
      </trkpt>
      <trkpt lat="47.6984" lon="-2.26333">
        <ele>37.8</ele>
        <time>2021-05-27T13:23:34Z</time>
      </trkpt>
      <trkpt lat="47.69844" lon="-2.26332">
        <ele>37.8</ele>
        <time>2021-05-27T13:23:35Z</time>
      </trkpt>
      <trkpt lat="47.69847" lon="-2.26332">
        <ele>37.8</ele>
        <time>2021-05-27T13:23:36Z</time>
      </trkpt>
      <trkpt lat="47.6985" lon="-2.26332">
        <ele>37.6</ele>
        <time>2021-05-27T13:23:37Z</time>
      </trkpt>
      <trkpt lat="47.69853" lon="-2.26333">
        <ele>37.3</ele>
        <time>2021-05-27T13:23:38Z</time>
      </trkpt>
      <trkpt lat="47.69858" lon="-2.26331">
        <ele>37.4</ele>
        <time>2021-05-27T13:23:39Z</time>
      </trkpt>
      <trkpt lat="47.69865" lon="-2.26329">
        <ele>37.3</ele>
        <time>2021-05-27T13:23:40Z</time>
      </trkpt>
      <trkpt lat="47.69868" lon="-2.26327">
        <ele>37.4</ele>
        <time>2021-05-27T13:23:41Z</time>
      </trkpt>
      <trkpt lat="47.69871" lon="-2.26325">
        <ele>37.4</ele>
        <time>2021-05-27T13:23:42Z</time>
      </trkpt>
      <trkpt lat="47.69874" lon="-2.26323">
        <ele>37.5</ele>
        <time>2021-05-27T13:23:43Z</time>
      </trkpt>
      <trkpt lat="47.69877" lon="-2.2632">
        <ele>37.5</ele>
        <time>2021-05-27T13:23:44Z</time>
      </trkpt>
      <trkpt lat="47.6988" lon="-2.26319">
        <ele>37.5</ele>
        <time>2021-05-27T13:23:45Z</time>
      </trkpt>
      <trkpt lat="47.69884" lon="-2.26317">
        <ele>37.3</ele>
        <time>2021-05-27T13:23:46Z</time>
      </trkpt>
      <trkpt lat="47.69887" lon="-2.26314">
        <ele>37.2</ele>
        <time>2021-05-27T13:23:47Z</time>
      </trkpt>
      <trkpt lat="47.6989" lon="-2.26311">
        <ele>37.2</ele>
        <time>2021-05-27T13:23:48Z</time>
      </trkpt>
      <trkpt lat="47.69892" lon="-2.26308">
        <ele>37.1</ele>
        <time>2021-05-27T13:23:49Z</time>
      </trkpt>
      <trkpt lat="47.69895" lon="-2.26305">
        <ele>37</ele>
        <time>2021-05-27T13:23:50Z</time>
      </trkpt>
      <trkpt lat="47.69898" lon="-2.26301">
        <ele>36.8</ele>
        <time>2021-05-27T13:23:51Z</time>
      </trkpt>
      <trkpt lat="47.69901" lon="-2.26297">
        <ele>36.6</ele>
        <time>2021-05-27T13:23:52Z</time>
      </trkpt>
      <trkpt lat="47.69902" lon="-2.26294">
        <ele>36.4</ele>
        <time>2021-05-27T13:23:53Z</time>
      </trkpt>
      <trkpt lat="47.69904" lon="-2.2629">
        <ele>36.2</ele>
        <time>2021-05-27T13:23:54Z</time>
      </trkpt>
      <trkpt lat="47.69906" lon="-2.26287">
        <ele>36.1</ele>
        <time>2021-05-27T13:23:55Z</time>
      </trkpt>
      <trkpt lat="47.69907" lon="-2.26283">
        <ele>35.9</ele>
        <time>2021-05-27T13:23:56Z</time>
      </trkpt>
      <trkpt lat="47.69908" lon="-2.26277">
        <ele>35.8</ele>
        <time>2021-05-27T13:23:57Z</time>
      </trkpt>
      <trkpt lat="47.6991" lon="-2.26271">
        <ele>35.5</ele>
        <time>2021-05-27T13:23:58Z</time>
      </trkpt>
      <trkpt lat="47.69912" lon="-2.26262">
        <ele>35.2</ele>
        <time>2021-05-27T13:23:59Z</time>
      </trkpt>
      <trkpt lat="47.69914" lon="-2.26255">
        <ele>34.8</ele>
        <time>2021-05-27T13:24:00Z</time>
      </trkpt>
      <trkpt lat="47.69915" lon="-2.2625">
        <ele>34.5</ele>
        <time>2021-05-27T13:24:01Z</time>
      </trkpt>
      <trkpt lat="47.69916" lon="-2.26247">
        <ele>34.5</ele>
        <time>2021-05-27T13:24:02Z</time>
      </trkpt>
      <trkpt lat="47.69917" lon="-2.26243">
        <ele>34.7</ele>
        <time>2021-05-27T13:24:03Z</time>
      </trkpt>
      <trkpt lat="47.69918" lon="-2.26239">
        <ele>34.8</ele>
        <time>2021-05-27T13:24:04Z</time>
      </trkpt>
      <trkpt lat="47.69921" lon="-2.26235">
        <ele>34.8</ele>
        <time>2021-05-27T13:24:05Z</time>
      </trkpt>
      <trkpt lat="47.69923" lon="-2.2623">
        <ele>34.9</ele>
        <time>2021-05-27T13:24:06Z</time>
      </trkpt>
      <trkpt lat="47.69925" lon="-2.26225">
        <ele>35</ele>
        <time>2021-05-27T13:24:07Z</time>
      </trkpt>
      <trkpt lat="47.69927" lon="-2.2622">
        <ele>35.1</ele>
        <time>2021-05-27T13:24:08Z</time>
      </trkpt>
      <trkpt lat="47.69929" lon="-2.26216">
        <ele>35</ele>
        <time>2021-05-27T13:24:09Z</time>
      </trkpt>
      <trkpt lat="47.6993" lon="-2.26211">
        <ele>35.1</ele>
        <time>2021-05-27T13:24:10Z</time>
      </trkpt>
      <trkpt lat="47.69932" lon="-2.26206">
        <ele>35.1</ele>
        <time>2021-05-27T13:24:11Z</time>
      </trkpt>
      <trkpt lat="47.69934" lon="-2.262">
        <ele>35.2</ele>
        <time>2021-05-27T13:24:12Z</time>
      </trkpt>
      <trkpt lat="47.69937" lon="-2.26194">
        <ele>35</ele>
        <time>2021-05-27T13:24:13Z</time>
      </trkpt>
      <trkpt lat="47.69938" lon="-2.26188">
        <ele>35</ele>
        <time>2021-05-27T13:24:14Z</time>
      </trkpt>
      <trkpt lat="47.69941" lon="-2.26181">
        <ele>34.7</ele>
        <time>2021-05-27T13:24:15Z</time>
      </trkpt>
      <trkpt lat="47.69944" lon="-2.26175">
        <ele>34.3</ele>
        <time>2021-05-27T13:24:16Z</time>
      </trkpt>
      <trkpt lat="47.69946" lon="-2.26169">
        <ele>34.1</ele>
        <time>2021-05-27T13:24:17Z</time>
      </trkpt>
      <trkpt lat="47.69947" lon="-2.26164">
        <ele>34.2</ele>
        <time>2021-05-27T13:24:18Z</time>
      </trkpt>
      <trkpt lat="47.69948" lon="-2.26159">
        <ele>34.3</ele>
        <time>2021-05-27T13:24:19Z</time>
      </trkpt>
      <trkpt lat="47.69948" lon="-2.26155">
        <ele>34.5</ele>
        <time>2021-05-27T13:24:20Z</time>
      </trkpt>
      <trkpt lat="47.69949" lon="-2.2615">
        <ele>34.6</ele>
        <time>2021-05-27T13:24:21Z</time>
      </trkpt>
      <trkpt lat="47.6995" lon="-2.26145">
        <ele>34.7</ele>
        <time>2021-05-27T13:24:22Z</time>
      </trkpt>
      <trkpt lat="47.69953" lon="-2.26139">
        <ele>34.4</ele>
        <time>2021-05-27T13:28:38Z</time>
      </trkpt>
      <trkpt lat="47.69955" lon="-2.26135">
        <ele>34.1</ele>
        <time>2021-05-27T13:28:39Z</time>
      </trkpt>
      <trkpt lat="47.69956" lon="-2.26132">
        <ele>34</ele>
        <time>2021-05-27T13:28:40Z</time>
      </trkpt>
      <trkpt lat="47.69957" lon="-2.26129">
        <ele>33.8</ele>
        <time>2021-05-27T13:28:41Z</time>
      </trkpt>
      <trkpt lat="47.6996" lon="-2.26124">
        <ele>33.4</ele>
        <time>2021-05-27T13:28:42Z</time>
      </trkpt>
      <trkpt lat="47.6996" lon="-2.2612">
        <ele>33.5</ele>
        <time>2021-05-27T13:28:43Z</time>
      </trkpt>
      <trkpt lat="47.69961" lon="-2.26115">
        <ele>33.5</ele>
        <time>2021-05-27T13:28:44Z</time>
      </trkpt>
      <trkpt lat="47.69962" lon="-2.26112">
        <ele>33.5</ele>
        <time>2021-05-27T13:28:45Z</time>
      </trkpt>
      <trkpt lat="47.69962" lon="-2.26108">
        <ele>33.9</ele>
        <time>2021-05-27T13:28:46Z</time>
      </trkpt>
      <trkpt lat="47.69961" lon="-2.26103">
        <ele>34.3</ele>
        <time>2021-05-27T13:28:47Z</time>
      </trkpt>
      <trkpt lat="47.69962" lon="-2.26099">
        <ele>34.4</ele>
        <time>2021-05-27T13:28:48Z</time>
      </trkpt>
      <trkpt lat="47.69963" lon="-2.26096">
        <ele>34.3</ele>
        <time>2021-05-27T13:28:49Z</time>
      </trkpt>
      <trkpt lat="47.69963" lon="-2.26092">
        <ele>34.5</ele>
        <time>2021-05-27T13:28:50Z</time>
      </trkpt>
      <trkpt lat="47.69963" lon="-2.26089">
        <ele>34.7</ele>
        <time>2021-05-27T13:28:51Z</time>
      </trkpt>
      <trkpt lat="47.69963" lon="-2.26085">
        <ele>35</ele>
        <time>2021-05-27T13:28:52Z</time>
      </trkpt>
      <trkpt lat="47.69964" lon="-2.2608">
        <ele>35.1</ele>
        <time>2021-05-27T13:28:53Z</time>
      </trkpt>
      <trkpt lat="47.69965" lon="-2.26076">
        <ele>35</ele>
        <time>2021-05-27T13:28:54Z</time>
      </trkpt>
      <trkpt lat="47.69966" lon="-2.2607">
        <ele>35.2</ele>
        <time>2021-05-27T13:28:55Z</time>
      </trkpt>
      <trkpt lat="47.69967" lon="-2.26065">
        <ele>35.3</ele>
        <time>2021-05-27T13:28:56Z</time>
      </trkpt>
      <trkpt lat="47.69968" lon="-2.2606">
        <ele>35.4</ele>
        <time>2021-05-27T13:28:57Z</time>
      </trkpt>
      <trkpt lat="47.69969" lon="-2.26056">
        <ele>35.6</ele>
        <time>2021-05-27T13:28:58Z</time>
      </trkpt>
      <trkpt lat="47.69969" lon="-2.26052">
        <ele>35.7</ele>
        <time>2021-05-27T13:28:59Z</time>
      </trkpt>
      <trkpt lat="47.6997" lon="-2.26048">
        <ele>35.7</ele>
        <time>2021-05-27T13:29:00Z</time>
      </trkpt>
      <trkpt lat="47.69971" lon="-2.26044">
        <ele>35.8</ele>
        <time>2021-05-27T13:29:01Z</time>
      </trkpt>
      <trkpt lat="47.69972" lon="-2.26038">
        <ele>35.8</ele>
        <time>2021-05-27T13:29:02Z</time>
      </trkpt>
      <trkpt lat="47.69973" lon="-2.26033">
        <ele>35.9</ele>
        <time>2021-05-27T13:29:03Z</time>
      </trkpt>
      <trkpt lat="47.69974" lon="-2.26027">
        <ele>36</ele>
        <time>2021-05-27T13:29:04Z</time>
      </trkpt>
      <trkpt lat="47.69975" lon="-2.26022">
        <ele>36.1</ele>
        <time>2021-05-27T13:29:05Z</time>
      </trkpt>
      <trkpt lat="47.69976" lon="-2.26017">
        <ele>36.2</ele>
        <time>2021-05-27T13:29:06Z</time>
      </trkpt>
      <trkpt lat="47.69977" lon="-2.26013">
        <ele>36.2</ele>
        <time>2021-05-27T13:29:07Z</time>
      </trkpt>
      <trkpt lat="47.69978" lon="-2.26008">
        <ele>36.2</ele>
        <time>2021-05-27T13:29:08Z</time>
      </trkpt>
      <trkpt lat="47.6998" lon="-2.26003">
        <ele>36.2</ele>
        <time>2021-05-27T13:29:09Z</time>
      </trkpt>
      <trkpt lat="47.69981" lon="-2.25998">
        <ele>36</ele>
        <time>2021-05-27T13:29:10Z</time>
      </trkpt>
      <trkpt lat="47.69982" lon="-2.25995">
        <ele>35.8</ele>
        <time>2021-05-27T13:29:11Z</time>
      </trkpt>
      <trkpt lat="47.69983" lon="-2.25991">
        <ele>35.5</ele>
        <time>2021-05-27T13:29:12Z</time>
      </trkpt>
      <trkpt lat="47.69984" lon="-2.25987">
        <ele>35.3</ele>
        <time>2021-05-27T13:29:13Z</time>
      </trkpt>
      <trkpt lat="47.69985" lon="-2.25983">
        <ele>35.3</ele>
        <time>2021-05-27T13:29:14Z</time>
      </trkpt>
      <trkpt lat="47.69986" lon="-2.25978">
        <ele>35.1</ele>
        <time>2021-05-27T13:29:15Z</time>
      </trkpt>
      <trkpt lat="47.69987" lon="-2.25973">
        <ele>35.1</ele>
        <time>2021-05-27T13:29:16Z</time>
      </trkpt>
      <trkpt lat="47.69988" lon="-2.25968">
        <ele>35.1</ele>
        <time>2021-05-27T13:29:17Z</time>
      </trkpt>
      <trkpt lat="47.69988" lon="-2.25963">
        <ele>35</ele>
        <time>2021-05-27T13:29:18Z</time>
      </trkpt>
      <trkpt lat="47.69989" lon="-2.25958">
        <ele>35</ele>
        <time>2021-05-27T13:29:19Z</time>
      </trkpt>
      <trkpt lat="47.6999" lon="-2.25951">
        <ele>35.1</ele>
        <time>2021-05-27T13:29:20Z</time>
      </trkpt>
      <trkpt lat="47.6999" lon="-2.25946">
        <ele>35</ele>
        <time>2021-05-27T13:29:21Z</time>
      </trkpt>
      <trkpt lat="47.69991" lon="-2.2594">
        <ele>35.1</ele>
        <time>2021-05-27T13:29:22Z</time>
      </trkpt>
      <trkpt lat="47.69992" lon="-2.25935">
        <ele>35.1</ele>
        <time>2021-05-27T13:29:23Z</time>
      </trkpt>
      <trkpt lat="47.69992" lon="-2.2593">
        <ele>35.1</ele>
        <time>2021-05-27T13:29:24Z</time>
      </trkpt>
      <trkpt lat="47.69992" lon="-2.25925">
        <ele>35.2</ele>
        <time>2021-05-27T13:29:25Z</time>
      </trkpt>
      <trkpt lat="47.69993" lon="-2.25919">
        <ele>35.3</ele>
        <time>2021-05-27T13:29:26Z</time>
      </trkpt>
      <trkpt lat="47.69993" lon="-2.25914">
        <ele>35.4</ele>
        <time>2021-05-27T13:29:27Z</time>
      </trkpt>
      <trkpt lat="47.69993" lon="-2.25909">
        <ele>35.4</ele>
        <time>2021-05-27T13:29:28Z</time>
      </trkpt>
      <trkpt lat="47.69993" lon="-2.25904">
        <ele>35.3</ele>
        <time>2021-05-27T13:29:29Z</time>
      </trkpt>
      <trkpt lat="47.69994" lon="-2.25898">
        <ele>35.2</ele>
        <time>2021-05-27T13:29:30Z</time>
      </trkpt>
      <trkpt lat="47.69995" lon="-2.25892">
        <ele>35.1</ele>
        <time>2021-05-27T13:29:31Z</time>
      </trkpt>
      <trkpt lat="47.69996" lon="-2.25887">
        <ele>34.9</ele>
        <time>2021-05-27T13:29:32Z</time>
      </trkpt>
      <trkpt lat="47.69996" lon="-2.25882">
        <ele>34.8</ele>
        <time>2021-05-27T13:29:33Z</time>
      </trkpt>
      <trkpt lat="47.69997" lon="-2.25877">
        <ele>34.7</ele>
        <time>2021-05-27T13:29:34Z</time>
      </trkpt>
      <trkpt lat="47.69999" lon="-2.25872">
        <ele>34.5</ele>
        <time>2021-05-27T13:29:35Z</time>
      </trkpt>
      <trkpt lat="47.7" lon="-2.25866">
        <ele>34.2</ele>
        <time>2021-05-27T13:29:36Z</time>
      </trkpt>
      <trkpt lat="47.70001" lon="-2.25861">
        <ele>34.1</ele>
        <time>2021-05-27T13:29:37Z</time>
      </trkpt>
      <trkpt lat="47.70002" lon="-2.25854">
        <ele>34.1</ele>
        <time>2021-05-27T13:29:38Z</time>
      </trkpt>
      <trkpt lat="47.70003" lon="-2.25848">
        <ele>34.2</ele>
        <time>2021-05-27T13:29:39Z</time>
      </trkpt>
      <trkpt lat="47.70003" lon="-2.25842">
        <ele>34.1</ele>
        <time>2021-05-27T13:29:40Z</time>
      </trkpt>
      <trkpt lat="47.70005" lon="-2.25837">
        <ele>34.1</ele>
        <time>2021-05-27T13:29:41Z</time>
      </trkpt>
      <trkpt lat="47.70005" lon="-2.25831">
        <ele>34.1</ele>
        <time>2021-05-27T13:29:42Z</time>
      </trkpt>
      <trkpt lat="47.70006" lon="-2.25825">
        <ele>34.2</ele>
        <time>2021-05-27T13:29:43Z</time>
      </trkpt>
      <trkpt lat="47.70006" lon="-2.2582">
        <ele>34.2</ele>
        <time>2021-05-27T13:29:44Z</time>
      </trkpt>
      <trkpt lat="47.70008" lon="-2.25815">
        <ele>34.1</ele>
        <time>2021-05-27T13:29:45Z</time>
      </trkpt>
      <trkpt lat="47.70009" lon="-2.2581">
        <ele>34.2</ele>
        <time>2021-05-27T13:29:46Z</time>
      </trkpt>
      <trkpt lat="47.70009" lon="-2.25804">
        <ele>34.2</ele>
        <time>2021-05-27T13:29:47Z</time>
      </trkpt>
      <trkpt lat="47.70011" lon="-2.25798">
        <ele>34.2</ele>
        <time>2021-05-27T13:29:48Z</time>
      </trkpt>
      <trkpt lat="47.70012" lon="-2.25792">
        <ele>34.1</ele>
        <time>2021-05-27T13:29:49Z</time>
      </trkpt>
      <trkpt lat="47.70014" lon="-2.25786">
        <ele>34</ele>
        <time>2021-05-27T13:29:50Z</time>
      </trkpt>
      <trkpt lat="47.70016" lon="-2.25784">
        <ele>33.8</ele>
        <time>2021-05-27T13:29:51Z</time>
      </trkpt>
      <trkpt lat="47.70016" lon="-2.25784">
        <ele>33.6</ele>
        <time>2021-05-27T13:29:52Z</time>
      </trkpt>
      <trkpt lat="47.70018" lon="-2.2578">
        <ele>33.6</ele>
        <time>2021-05-27T13:30:16Z</time>
      </trkpt>
      <trkpt lat="47.70019" lon="-2.25771">
        <ele>33.7</ele>
        <time>2021-05-27T13:30:17Z</time>
      </trkpt>
      <trkpt lat="47.70019" lon="-2.25764">
        <ele>33.8</ele>
        <time>2021-05-27T13:30:18Z</time>
      </trkpt>
      <trkpt lat="47.7002" lon="-2.25757">
        <ele>34</ele>
        <time>2021-05-27T13:30:19Z</time>
      </trkpt>
      <trkpt lat="47.7002" lon="-2.2575">
        <ele>34.1</ele>
        <time>2021-05-27T13:30:20Z</time>
      </trkpt>
      <trkpt lat="47.70021" lon="-2.25745">
        <ele>34.2</ele>
        <time>2021-05-27T13:30:21Z</time>
      </trkpt>
      <trkpt lat="47.70022" lon="-2.25739">
        <ele>34.1</ele>
        <time>2021-05-27T13:30:22Z</time>
      </trkpt>
      <trkpt lat="47.70023" lon="-2.25732">
        <ele>34.1</ele>
        <time>2021-05-27T13:30:23Z</time>
      </trkpt>
      <trkpt lat="47.70024" lon="-2.25726">
        <ele>34.1</ele>
        <time>2021-05-27T13:30:24Z</time>
      </trkpt>
      <trkpt lat="47.70025" lon="-2.2572">
        <ele>34.2</ele>
        <time>2021-05-27T13:30:25Z</time>
      </trkpt>
      <trkpt lat="47.70026" lon="-2.25713">
        <ele>34.3</ele>
        <time>2021-05-27T13:30:26Z</time>
      </trkpt>
      <trkpt lat="47.70026" lon="-2.25706">
        <ele>34.6</ele>
        <time>2021-05-27T13:30:27Z</time>
      </trkpt>
      <trkpt lat="47.70027" lon="-2.257">
        <ele>34.5</ele>
        <time>2021-05-27T13:30:28Z</time>
      </trkpt>
      <trkpt lat="47.70027" lon="-2.25694">
        <ele>34.6</ele>
        <time>2021-05-27T13:30:29Z</time>
      </trkpt>
      <trkpt lat="47.70026" lon="-2.25686">
        <ele>35</ele>
        <time>2021-05-27T13:30:30Z</time>
      </trkpt>
      <trkpt lat="47.70026" lon="-2.2568">
        <ele>35.4</ele>
        <time>2021-05-27T13:30:31Z</time>
      </trkpt>
      <trkpt lat="47.70025" lon="-2.25673">
        <ele>35.8</ele>
        <time>2021-05-27T13:30:32Z</time>
      </trkpt>
      <trkpt lat="47.70024" lon="-2.25667">
        <ele>36.3</ele>
        <time>2021-05-27T13:30:33Z</time>
      </trkpt>
      <trkpt lat="47.70023" lon="-2.2566">
        <ele>36.6</ele>
        <time>2021-05-27T13:30:34Z</time>
      </trkpt>
      <trkpt lat="47.70021" lon="-2.25654">
        <ele>37</ele>
        <time>2021-05-27T13:30:35Z</time>
      </trkpt>
      <trkpt lat="47.7002" lon="-2.25649">
        <ele>37.2</ele>
        <time>2021-05-27T13:30:36Z</time>
      </trkpt>
      <trkpt lat="47.70018" lon="-2.25641">
        <ele>37.6</ele>
        <time>2021-05-27T13:30:37Z</time>
      </trkpt>
      <trkpt lat="47.70017" lon="-2.25634">
        <ele>37.8</ele>
        <time>2021-05-27T13:30:38Z</time>
      </trkpt>
      <trkpt lat="47.70016" lon="-2.25629">
        <ele>38</ele>
        <time>2021-05-27T13:30:39Z</time>
      </trkpt>
      <trkpt lat="47.70015" lon="-2.25622">
        <ele>38.2</ele>
        <time>2021-05-27T13:30:40Z</time>
      </trkpt>
      <trkpt lat="47.70015" lon="-2.25617">
        <ele>38.3</ele>
        <time>2021-05-27T13:30:41Z</time>
      </trkpt>
      <trkpt lat="47.70015" lon="-2.25612">
        <ele>38.3</ele>
        <time>2021-05-27T13:30:42Z</time>
      </trkpt>
      <trkpt lat="47.70014" lon="-2.25608">
        <ele>38.4</ele>
        <time>2021-05-27T13:30:43Z</time>
      </trkpt>
      <trkpt lat="47.70014" lon="-2.25604">
        <ele>38.4</ele>
        <time>2021-05-27T13:30:44Z</time>
      </trkpt>
      <trkpt lat="47.70013" lon="-2.25599">
        <ele>38.5</ele>
        <time>2021-05-27T13:30:45Z</time>
      </trkpt>
      <trkpt lat="47.70012" lon="-2.25595">
        <ele>38.8</ele>
        <time>2021-05-27T13:30:46Z</time>
      </trkpt>
      <trkpt lat="47.70011" lon="-2.2559">
        <ele>38.9</ele>
        <time>2021-05-27T13:30:47Z</time>
      </trkpt>
      <trkpt lat="47.70011" lon="-2.25585">
        <ele>38.9</ele>
        <time>2021-05-27T13:30:48Z</time>
      </trkpt>
      <trkpt lat="47.70011" lon="-2.2558">
        <ele>39</ele>
        <time>2021-05-27T13:30:49Z</time>
      </trkpt>
      <trkpt lat="47.7001" lon="-2.25575">
        <ele>39.1</ele>
        <time>2021-05-27T13:30:50Z</time>
      </trkpt>
      <trkpt lat="47.70008" lon="-2.25571">
        <ele>39.5</ele>
        <time>2021-05-27T13:30:51Z</time>
      </trkpt>
      <trkpt lat="47.70006" lon="-2.25567">
        <ele>40</ele>
        <time>2021-05-27T13:30:52Z</time>
      </trkpt>
      <trkpt lat="47.70005" lon="-2.25562">
        <ele>40.2</ele>
        <time>2021-05-27T13:30:53Z</time>
      </trkpt>
      <trkpt lat="47.70005" lon="-2.25558">
        <ele>40.4</ele>
        <time>2021-05-27T13:30:54Z</time>
      </trkpt>
      <trkpt lat="47.70004" lon="-2.25553">
        <ele>40.6</ele>
        <time>2021-05-27T13:30:55Z</time>
      </trkpt>
      <trkpt lat="47.70003" lon="-2.25549">
        <ele>40.8</ele>
        <time>2021-05-27T13:30:56Z</time>
      </trkpt>
      <trkpt lat="47.70003" lon="-2.25544">
        <ele>40.9</ele>
        <time>2021-05-27T13:30:57Z</time>
      </trkpt>
      <trkpt lat="47.70002" lon="-2.25539">
        <ele>41.2</ele>
        <time>2021-05-27T13:30:58Z</time>
      </trkpt>
      <trkpt lat="47.70001" lon="-2.25535">
        <ele>41.3</ele>
        <time>2021-05-27T13:30:59Z</time>
      </trkpt>
      <trkpt lat="47.7" lon="-2.25532">
        <ele>41.6</ele>
        <time>2021-05-27T13:31:00Z</time>
      </trkpt>
      <trkpt lat="47.69999" lon="-2.25526">
        <ele>41.9</ele>
        <time>2021-05-27T13:31:01Z</time>
      </trkpt>
      <trkpt lat="47.69998" lon="-2.25522">
        <ele>42.2</ele>
        <time>2021-05-27T13:31:02Z</time>
      </trkpt>
      <trkpt lat="47.69996" lon="-2.25518">
        <ele>42.6</ele>
        <time>2021-05-27T13:31:03Z</time>
      </trkpt>
      <trkpt lat="47.69994" lon="-2.25514">
        <ele>43</ele>
        <time>2021-05-27T13:31:04Z</time>
      </trkpt>
      <trkpt lat="47.69992" lon="-2.25511">
        <ele>43.5</ele>
        <time>2021-05-27T13:31:05Z</time>
      </trkpt>
      <trkpt lat="47.6999" lon="-2.25507">
        <ele>43.8</ele>
        <time>2021-05-27T13:31:06Z</time>
      </trkpt>
      <trkpt lat="47.69988" lon="-2.25503">
        <ele>44.2</ele>
        <time>2021-05-27T13:31:07Z</time>
      </trkpt>
      <trkpt lat="47.69987" lon="-2.25501">
        <ele>44.4</ele>
        <time>2021-05-27T13:31:08Z</time>
      </trkpt>
      <trkpt lat="47.69985" lon="-2.25498">
        <ele>44.7</ele>
        <time>2021-05-27T13:31:09Z</time>
      </trkpt>
      <trkpt lat="47.69983" lon="-2.25495">
        <ele>44.9</ele>
        <time>2021-05-27T13:31:10Z</time>
      </trkpt>
      <trkpt lat="47.6998" lon="-2.25492">
        <ele>45.3</ele>
        <time>2021-05-27T13:31:11Z</time>
      </trkpt>
      <trkpt lat="47.69977" lon="-2.25487">
        <ele>45.7</ele>
        <time>2021-05-27T13:31:12Z</time>
      </trkpt>
      <trkpt lat="47.69975" lon="-2.25484">
        <ele>45.9</ele>
        <time>2021-05-27T13:31:13Z</time>
      </trkpt>
      <trkpt lat="47.69974" lon="-2.2548">
        <ele>46</ele>
        <time>2021-05-27T13:31:14Z</time>
      </trkpt>
      <trkpt lat="47.69972" lon="-2.25477">
        <ele>46.2</ele>
        <time>2021-05-27T13:31:15Z</time>
      </trkpt>
      <trkpt lat="47.6997" lon="-2.25473">
        <ele>46.4</ele>
        <time>2021-05-27T13:31:16Z</time>
      </trkpt>
      <trkpt lat="47.69968" lon="-2.25469">
        <ele>46.5</ele>
        <time>2021-05-27T13:31:17Z</time>
      </trkpt>
      <trkpt lat="47.69966" lon="-2.25466">
        <ele>46.6</ele>
        <time>2021-05-27T13:31:18Z</time>
      </trkpt>
      <trkpt lat="47.69964" lon="-2.25463">
        <ele>46.9</ele>
        <time>2021-05-27T13:31:19Z</time>
      </trkpt>
      <trkpt lat="47.69962" lon="-2.2546">
        <ele>47</ele>
        <time>2021-05-27T13:31:20Z</time>
      </trkpt>
      <trkpt lat="47.6996" lon="-2.25457">
        <ele>47.2</ele>
        <time>2021-05-27T13:31:21Z</time>
      </trkpt>
      <trkpt lat="47.69959" lon="-2.25454">
        <ele>47.2</ele>
        <time>2021-05-27T13:31:22Z</time>
      </trkpt>
      <trkpt lat="47.69958" lon="-2.2545">
        <ele>47.2</ele>
        <time>2021-05-27T13:31:23Z</time>
      </trkpt>
      <trkpt lat="47.69956" lon="-2.25447">
        <ele>47.3</ele>
        <time>2021-05-27T13:31:24Z</time>
      </trkpt>
      <trkpt lat="47.69954" lon="-2.25444">
        <ele>47.3</ele>
        <time>2021-05-27T13:31:25Z</time>
      </trkpt>
      <trkpt lat="47.69953" lon="-2.2544">
        <ele>47.3</ele>
        <time>2021-05-27T13:31:26Z</time>
      </trkpt>
      <trkpt lat="47.69952" lon="-2.25436">
        <ele>47.2</ele>
        <time>2021-05-27T13:31:27Z</time>
      </trkpt>
      <trkpt lat="47.69951" lon="-2.25433">
        <ele>47.1</ele>
        <time>2021-05-27T13:31:28Z</time>
      </trkpt>
      <trkpt lat="47.6995" lon="-2.2543">
        <ele>47.1</ele>
        <time>2021-05-27T13:31:29Z</time>
      </trkpt>
      <trkpt lat="47.69949" lon="-2.25426">
        <ele>47</ele>
        <time>2021-05-27T13:31:30Z</time>
      </trkpt>
      <trkpt lat="47.69948" lon="-2.25422">
        <ele>47</ele>
        <time>2021-05-27T13:31:31Z</time>
      </trkpt>
      <trkpt lat="47.69947" lon="-2.25418">
        <ele>46.8</ele>
        <time>2021-05-27T13:31:32Z</time>
      </trkpt>
      <trkpt lat="47.69946" lon="-2.25414">
        <ele>46.8</ele>
        <time>2021-05-27T13:31:33Z</time>
      </trkpt>
      <trkpt lat="47.69944" lon="-2.2541">
        <ele>46.9</ele>
        <time>2021-05-27T13:31:34Z</time>
      </trkpt>
      <trkpt lat="47.69943" lon="-2.25406">
        <ele>47</ele>
        <time>2021-05-27T13:31:35Z</time>
      </trkpt>
      <trkpt lat="47.69941" lon="-2.25401">
        <ele>47.1</ele>
        <time>2021-05-27T13:31:36Z</time>
      </trkpt>
      <trkpt lat="47.6994" lon="-2.25397">
        <ele>47.2</ele>
        <time>2021-05-27T13:31:37Z</time>
      </trkpt>
      <trkpt lat="47.69938" lon="-2.25393">
        <ele>47.3</ele>
        <time>2021-05-27T13:31:38Z</time>
      </trkpt>
      <trkpt lat="47.69937" lon="-2.25389">
        <ele>47.3</ele>
        <time>2021-05-27T13:31:39Z</time>
      </trkpt>
      <trkpt lat="47.69936" lon="-2.25384">
        <ele>47.5</ele>
        <time>2021-05-27T13:31:40Z</time>
      </trkpt>
      <trkpt lat="47.69935" lon="-2.2538">
        <ele>47.5</ele>
        <time>2021-05-27T13:31:41Z</time>
      </trkpt>
      <trkpt lat="47.69933" lon="-2.25375">
        <ele>47.6</ele>
        <time>2021-05-27T13:31:42Z</time>
      </trkpt>
      <trkpt lat="47.69932" lon="-2.2537">
        <ele>47.7</ele>
        <time>2021-05-27T13:31:43Z</time>
      </trkpt>
      <trkpt lat="47.69931" lon="-2.25366">
        <ele>47.8</ele>
        <time>2021-05-27T13:31:44Z</time>
      </trkpt>
      <trkpt lat="47.6993" lon="-2.25361">
        <ele>47.8</ele>
        <time>2021-05-27T13:31:45Z</time>
      </trkpt>
      <trkpt lat="47.69928" lon="-2.25357">
        <ele>47.9</ele>
        <time>2021-05-27T13:31:46Z</time>
      </trkpt>
      <trkpt lat="47.69927" lon="-2.25352">
        <ele>48</ele>
        <time>2021-05-27T13:31:47Z</time>
      </trkpt>
      <trkpt lat="47.69927" lon="-2.25348">
        <ele>48</ele>
        <time>2021-05-27T13:31:48Z</time>
      </trkpt>
      <trkpt lat="47.69926" lon="-2.25344">
        <ele>48</ele>
        <time>2021-05-27T13:31:49Z</time>
      </trkpt>
      <trkpt lat="47.69925" lon="-2.25339">
        <ele>48.1</ele>
        <time>2021-05-27T13:31:50Z</time>
      </trkpt>
      <trkpt lat="47.69924" lon="-2.25335">
        <ele>48.2</ele>
        <time>2021-05-27T13:31:51Z</time>
      </trkpt>
      <trkpt lat="47.69923" lon="-2.25331">
        <ele>48.2</ele>
        <time>2021-05-27T13:31:52Z</time>
      </trkpt>
      <trkpt lat="47.69921" lon="-2.25326">
        <ele>48.1</ele>
        <time>2021-05-27T13:31:53Z</time>
      </trkpt>
      <trkpt lat="47.6992" lon="-2.2532">
        <ele>48</ele>
        <time>2021-05-27T13:31:54Z</time>
      </trkpt>
      <trkpt lat="47.69919" lon="-2.25314">
        <ele>47.8</ele>
        <time>2021-05-27T13:31:55Z</time>
      </trkpt>
      <trkpt lat="47.69918" lon="-2.25307">
        <ele>47.6</ele>
        <time>2021-05-27T13:31:56Z</time>
      </trkpt>
      <trkpt lat="47.69916" lon="-2.253">
        <ele>47.5</ele>
        <time>2021-05-27T13:31:57Z</time>
      </trkpt>
      <trkpt lat="47.69915" lon="-2.25293">
        <ele>47.3</ele>
        <time>2021-05-27T13:31:58Z</time>
      </trkpt>
      <trkpt lat="47.69913" lon="-2.25285">
        <ele>47.2</ele>
        <time>2021-05-27T13:31:59Z</time>
      </trkpt>
      <trkpt lat="47.69911" lon="-2.25278">
        <ele>47.1</ele>
        <time>2021-05-27T13:32:00Z</time>
      </trkpt>
      <trkpt lat="47.69908" lon="-2.25271">
        <ele>47</ele>
        <time>2021-05-27T13:32:01Z</time>
      </trkpt>
      <trkpt lat="47.69907" lon="-2.25263">
        <ele>46.8</ele>
        <time>2021-05-27T13:32:02Z</time>
      </trkpt>
      <trkpt lat="47.69907" lon="-2.25255">
        <ele>46.5</ele>
        <time>2021-05-27T13:32:03Z</time>
      </trkpt>
      <trkpt lat="47.69906" lon="-2.25246">
        <ele>46.2</ele>
        <time>2021-05-27T13:32:04Z</time>
      </trkpt>
      <trkpt lat="47.69906" lon="-2.25237">
        <ele>45.8</ele>
        <time>2021-05-27T13:32:05Z</time>
      </trkpt>
      <trkpt lat="47.69906" lon="-2.25228">
        <ele>45.3</ele>
        <time>2021-05-27T13:32:06Z</time>
      </trkpt>
      <trkpt lat="47.69905" lon="-2.2522">
        <ele>45</ele>
        <time>2021-05-27T13:32:07Z</time>
      </trkpt>
      <trkpt lat="47.69903" lon="-2.25213">
        <ele>45</ele>
        <time>2021-05-27T13:32:08Z</time>
      </trkpt>
      <trkpt lat="47.69898" lon="-2.25209">
        <ele>45.3</ele>
        <time>2021-05-27T13:32:09Z</time>
      </trkpt>
      <trkpt lat="47.69894" lon="-2.25208">
        <ele>45.9</ele>
        <time>2021-05-27T13:32:10Z</time>
      </trkpt>
      <trkpt lat="47.69891" lon="-2.25209">
        <ele>46.3</ele>
        <time>2021-05-27T13:32:11Z</time>
      </trkpt>
      <trkpt lat="47.69888" lon="-2.25209">
        <ele>46.7</ele>
        <time>2021-05-27T13:32:12Z</time>
      </trkpt>
      <trkpt lat="47.69885" lon="-2.25208">
        <ele>47</ele>
        <time>2021-05-27T13:32:13Z</time>
      </trkpt>
      <trkpt lat="47.69883" lon="-2.25208">
        <ele>47.3</ele>
        <time>2021-05-27T13:32:14Z</time>
      </trkpt>
      <trkpt lat="47.69881" lon="-2.25207">
        <ele>47.4</ele>
        <time>2021-05-27T13:32:15Z</time>
      </trkpt>
      <trkpt lat="47.6988" lon="-2.25207">
        <ele>47.6</ele>
        <time>2021-05-27T13:32:16Z</time>
      </trkpt>
      <trkpt lat="47.69878" lon="-2.25206">
        <ele>47.7</ele>
        <time>2021-05-27T13:32:17Z</time>
      </trkpt>
      <trkpt lat="47.69876" lon="-2.25206">
        <ele>48</ele>
        <time>2021-05-27T13:32:18Z</time>
      </trkpt>
      <trkpt lat="47.69874" lon="-2.25205">
        <ele>48.3</ele>
        <time>2021-05-27T13:32:19Z</time>
      </trkpt>
      <trkpt lat="47.69872" lon="-2.25204">
        <ele>48.5</ele>
        <time>2021-05-27T13:32:20Z</time>
      </trkpt>
      <trkpt lat="47.6987" lon="-2.25204">
        <ele>48.6</ele>
        <time>2021-05-27T13:32:21Z</time>
      </trkpt>
      <trkpt lat="47.69868" lon="-2.25203">
        <ele>48.8</ele>
        <time>2021-05-27T13:32:22Z</time>
      </trkpt>
      <trkpt lat="47.69866" lon="-2.25203">
        <ele>49.1</ele>
        <time>2021-05-27T13:32:23Z</time>
      </trkpt>
      <trkpt lat="47.69864" lon="-2.25204">
        <ele>49.5</ele>
        <time>2021-05-27T13:32:24Z</time>
      </trkpt>
      <trkpt lat="47.69861" lon="-2.25204">
        <ele>49.7</ele>
        <time>2021-05-27T13:32:25Z</time>
      </trkpt>
      <trkpt lat="47.69859" lon="-2.25204">
        <ele>50</ele>
        <time>2021-05-27T13:32:26Z</time>
      </trkpt>
      <trkpt lat="47.69857" lon="-2.25204">
        <ele>50.3</ele>
        <time>2021-05-27T13:32:27Z</time>
      </trkpt>
      <trkpt lat="47.69855" lon="-2.25204">
        <ele>50.6</ele>
        <time>2021-05-27T13:32:28Z</time>
      </trkpt>
      <trkpt lat="47.69852" lon="-2.25203">
        <ele>50.8</ele>
        <time>2021-05-27T13:32:29Z</time>
      </trkpt>
      <trkpt lat="47.6985" lon="-2.25203">
        <ele>51.1</ele>
        <time>2021-05-27T13:32:30Z</time>
      </trkpt>
      <trkpt lat="47.69848" lon="-2.25203">
        <ele>51.4</ele>
        <time>2021-05-27T13:32:31Z</time>
      </trkpt>
      <trkpt lat="47.69845" lon="-2.25203">
        <ele>51.6</ele>
        <time>2021-05-27T13:32:32Z</time>
      </trkpt>
      <trkpt lat="47.69843" lon="-2.25202">
        <ele>51.9</ele>
        <time>2021-05-27T13:32:33Z</time>
      </trkpt>
      <trkpt lat="47.69841" lon="-2.25202">
        <ele>52.1</ele>
        <time>2021-05-27T13:32:34Z</time>
      </trkpt>
      <trkpt lat="47.69839" lon="-2.25202">
        <ele>52.4</ele>
        <time>2021-05-27T13:32:35Z</time>
      </trkpt>
      <trkpt lat="47.69838" lon="-2.25202">
        <ele>52.6</ele>
        <time>2021-05-27T13:32:36Z</time>
      </trkpt>
      <trkpt lat="47.69837" lon="-2.25201">
        <ele>52.7</ele>
        <time>2021-05-27T13:32:37Z</time>
      </trkpt>
      <trkpt lat="47.69835" lon="-2.25201">
        <ele>52.8</ele>
        <time>2021-05-27T13:32:38Z</time>
      </trkpt>
      <trkpt lat="47.69834" lon="-2.25201">
        <ele>53</ele>
        <time>2021-05-27T13:32:39Z</time>
      </trkpt>
      <trkpt lat="47.69833" lon="-2.25201">
        <ele>53.2</ele>
        <time>2021-05-27T13:32:40Z</time>
      </trkpt>
      <trkpt lat="47.69831" lon="-2.25201">
        <ele>53.4</ele>
        <time>2021-05-27T13:32:41Z</time>
      </trkpt>
      <trkpt lat="47.69829" lon="-2.25201">
        <ele>53.7</ele>
        <time>2021-05-27T13:32:42Z</time>
      </trkpt>
      <trkpt lat="47.69829" lon="-2.25202">
        <ele>53.9</ele>
        <time>2021-05-27T13:32:43Z</time>
      </trkpt>
      <trkpt lat="47.69827" lon="-2.25202">
        <ele>54.2</ele>
        <time>2021-05-27T13:32:44Z</time>
      </trkpt>
      <trkpt lat="47.69825" lon="-2.25202">
        <ele>54.4</ele>
        <time>2021-05-27T13:32:45Z</time>
      </trkpt>
      <trkpt lat="47.69824" lon="-2.25202">
        <ele>54.7</ele>
        <time>2021-05-27T13:32:46Z</time>
      </trkpt>
      <trkpt lat="47.69821" lon="-2.25202">
        <ele>55.1</ele>
        <time>2021-05-27T13:32:47Z</time>
      </trkpt>
      <trkpt lat="47.69819" lon="-2.25202">
        <ele>55.5</ele>
        <time>2021-05-27T13:32:48Z</time>
      </trkpt>
      <trkpt lat="47.69817" lon="-2.25203">
        <ele>55.8</ele>
        <time>2021-05-27T13:32:49Z</time>
      </trkpt>
      <trkpt lat="47.69815" lon="-2.25203">
        <ele>56</ele>
        <time>2021-05-27T13:32:50Z</time>
      </trkpt>
      <trkpt lat="47.69814" lon="-2.25203">
        <ele>56.3</ele>
        <time>2021-05-27T13:32:51Z</time>
      </trkpt>
      <trkpt lat="47.69813" lon="-2.25202">
        <ele>56.4</ele>
        <time>2021-05-27T13:32:52Z</time>
      </trkpt>
      <trkpt lat="47.69811" lon="-2.25201">
        <ele>56.6</ele>
        <time>2021-05-27T13:32:53Z</time>
      </trkpt>
      <trkpt lat="47.69809" lon="-2.25201">
        <ele>56.9</ele>
        <time>2021-05-27T13:32:54Z</time>
      </trkpt>
      <trkpt lat="47.69807" lon="-2.252">
        <ele>57.3</ele>
        <time>2021-05-27T13:32:55Z</time>
      </trkpt>
      <trkpt lat="47.69806" lon="-2.252">
        <ele>57.5</ele>
        <time>2021-05-27T13:32:56Z</time>
      </trkpt>
      <trkpt lat="47.69801" lon="-2.25199">
        <ele>58.1</ele>
        <time>2021-05-27T13:32:58Z</time>
      </trkpt>
      <trkpt lat="47.69799" lon="-2.25198">
        <ele>58.4</ele>
        <time>2021-05-27T13:32:59Z</time>
      </trkpt>
      <trkpt lat="47.69798" lon="-2.25197">
        <ele>58.6</ele>
        <time>2021-05-27T13:33:00Z</time>
      </trkpt>
      <trkpt lat="47.69796" lon="-2.25196">
        <ele>58.8</ele>
        <time>2021-05-27T13:33:01Z</time>
      </trkpt>
      <trkpt lat="47.69794" lon="-2.25195">
        <ele>59.1</ele>
        <time>2021-05-27T13:33:02Z</time>
      </trkpt>
      <trkpt lat="47.69793" lon="-2.25193">
        <ele>59.3</ele>
        <time>2021-05-27T13:33:03Z</time>
      </trkpt>
      <trkpt lat="47.69792" lon="-2.25193">
        <ele>59.5</ele>
        <time>2021-05-27T13:33:04Z</time>
      </trkpt>
      <trkpt lat="47.6979" lon="-2.25193">
        <ele>59.7</ele>
        <time>2021-05-27T13:33:05Z</time>
      </trkpt>
      <trkpt lat="47.69787" lon="-2.25193">
        <ele>60.2</ele>
        <time>2021-05-27T13:33:06Z</time>
      </trkpt>
      <trkpt lat="47.69785" lon="-2.25193">
        <ele>60.5</ele>
        <time>2021-05-27T13:33:07Z</time>
      </trkpt>
      <trkpt lat="47.69784" lon="-2.25193">
        <ele>60.8</ele>
        <time>2021-05-27T13:33:08Z</time>
      </trkpt>
      <trkpt lat="47.69782" lon="-2.25194">
        <ele>61.1</ele>
        <time>2021-05-27T13:33:09Z</time>
      </trkpt>
      <trkpt lat="47.6978" lon="-2.25194">
        <ele>61.4</ele>
        <time>2021-05-27T13:33:10Z</time>
      </trkpt>
      <trkpt lat="47.69777" lon="-2.25195">
        <ele>61.9</ele>
        <time>2021-05-27T13:33:11Z</time>
      </trkpt>
      <trkpt lat="47.69776" lon="-2.25195">
        <ele>62.1</ele>
        <time>2021-05-27T13:33:12Z</time>
      </trkpt>
      <trkpt lat="47.69773" lon="-2.25196">
        <ele>62.6</ele>
        <time>2021-05-27T13:33:13Z</time>
      </trkpt>
      <trkpt lat="47.69771" lon="-2.25197">
        <ele>63</ele>
        <time>2021-05-27T13:33:14Z</time>
      </trkpt>
      <trkpt lat="47.69769" lon="-2.25197">
        <ele>63.2</ele>
        <time>2021-05-27T13:33:15Z</time>
      </trkpt>
      <trkpt lat="47.69767" lon="-2.25196">
        <ele>63.5</ele>
        <time>2021-05-27T13:33:16Z</time>
      </trkpt>
      <trkpt lat="47.69766" lon="-2.25195">
        <ele>63.8</ele>
        <time>2021-05-27T13:33:17Z</time>
      </trkpt>
      <trkpt lat="47.69763" lon="-2.25195">
        <ele>64.2</ele>
        <time>2021-05-27T13:33:18Z</time>
      </trkpt>
      <trkpt lat="47.6976" lon="-2.25194">
        <ele>64.6</ele>
        <time>2021-05-27T13:33:19Z</time>
      </trkpt>
      <trkpt lat="47.69759" lon="-2.25193">
        <ele>64.9</ele>
        <time>2021-05-27T13:33:20Z</time>
      </trkpt>
      <trkpt lat="47.69756" lon="-2.25192">
        <ele>65.2</ele>
        <time>2021-05-27T13:33:21Z</time>
      </trkpt>
      <trkpt lat="47.69754" lon="-2.25192">
        <ele>65.6</ele>
        <time>2021-05-27T13:33:22Z</time>
      </trkpt>
      <trkpt lat="47.69753" lon="-2.25191">
        <ele>65.9</ele>
        <time>2021-05-27T13:33:23Z</time>
      </trkpt>
      <trkpt lat="47.6975" lon="-2.25191">
        <ele>66.2</ele>
        <time>2021-05-27T13:33:24Z</time>
      </trkpt>
      <trkpt lat="47.69748" lon="-2.25191">
        <ele>66.3</ele>
        <time>2021-05-27T13:33:25Z</time>
      </trkpt>
      <trkpt lat="47.69746" lon="-2.25191">
        <ele>66.3</ele>
        <time>2021-05-27T13:33:26Z</time>
      </trkpt>
      <trkpt lat="47.69743" lon="-2.2519">
        <ele>66.3</ele>
        <time>2021-05-27T13:33:27Z</time>
      </trkpt>
      <trkpt lat="47.6974" lon="-2.2519">
        <ele>66.3</ele>
        <time>2021-05-27T13:33:28Z</time>
      </trkpt>
      <trkpt lat="47.69738" lon="-2.25189">
        <ele>66.3</ele>
        <time>2021-05-27T13:33:29Z</time>
      </trkpt>
      <trkpt lat="47.69736" lon="-2.2519">
        <ele>66.3</ele>
        <time>2021-05-27T13:33:30Z</time>
      </trkpt>
      <trkpt lat="47.69734" lon="-2.2519">
        <ele>66.3</ele>
        <time>2021-05-27T13:33:31Z</time>
      </trkpt>
      <trkpt lat="47.69734" lon="-2.2519">
        <ele>66.3</ele>
        <time>2021-05-27T13:33:32Z</time>
      </trkpt>
      <trkpt lat="47.69734" lon="-2.25189">
        <ele>66.3</ele>
        <time>2021-05-27T13:33:33Z</time>
      </trkpt>
      <trkpt lat="47.69734" lon="-2.25189">
        <ele>66.3</ele>
        <time>2021-05-27T13:33:34Z</time>
      </trkpt>
      <trkpt lat="47.69734" lon="-2.25189">
        <ele>66.3</ele>
        <time>2021-05-27T13:33:35Z</time>
      </trkpt>
      <trkpt lat="47.69734" lon="-2.25189">
        <ele>66.3</ele>
        <time>2021-05-27T13:33:36Z</time>
      </trkpt>
      <trkpt lat="47.69734" lon="-2.25189">
        <ele>66.3</ele>
        <time>2021-05-27T13:33:37Z</time>
      </trkpt>
      <trkpt lat="47.69734" lon="-2.25189">
        <ele>66.3</ele>
        <time>2021-05-27T13:33:38Z</time>
      </trkpt>
      <trkpt lat="47.69734" lon="-2.25189">
        <ele>66.3</ele>
        <time>2021-05-27T13:33:39Z</time>
      </trkpt>
      <trkpt lat="47.69734" lon="-2.25189">
        <ele>66.3</ele>
        <time>2021-05-27T13:33:40Z</time>
      </trkpt>
      <trkpt lat="47.69734" lon="-2.25189">
        <ele>66.3</ele>
        <time>2021-05-27T13:33:41Z</time>
      </trkpt>
      <trkpt lat="47.69734" lon="-2.25189">
        <ele>66.3</ele>
        <time>2021-05-27T13:33:42Z</time>
      </trkpt>
      <trkpt lat="47.69734" lon="-2.25189">
        <ele>66.3</ele>
        <time>2021-05-27T13:33:43Z</time>
      </trkpt>
      <trkpt lat="47.69731" lon="-2.25188">
        <ele>66.3</ele>
        <time>2021-05-27T13:33:44Z</time>
      </trkpt>
      <trkpt lat="47.6973" lon="-2.25187">
        <ele>66.3</ele>
        <time>2021-05-27T13:33:45Z</time>
      </trkpt>
      <trkpt lat="47.69728" lon="-2.25185">
        <ele>66.3</ele>
        <time>2021-05-27T13:33:46Z</time>
      </trkpt>
      <trkpt lat="47.69726" lon="-2.25183">
        <ele>66.3</ele>
        <time>2021-05-27T13:33:47Z</time>
      </trkpt>
      <trkpt lat="47.69724" lon="-2.2518">
        <ele>66.3</ele>
        <time>2021-05-27T13:33:48Z</time>
      </trkpt>
      <trkpt lat="47.69723" lon="-2.25178">
        <ele>66.3</ele>
        <time>2021-05-27T13:33:49Z</time>
      </trkpt>
      <trkpt lat="47.69721" lon="-2.25175">
        <ele>66.3</ele>
        <time>2021-05-27T13:33:50Z</time>
      </trkpt>
      <trkpt lat="47.69719" lon="-2.25173">
        <ele>66.4</ele>
        <time>2021-05-27T13:33:51Z</time>
      </trkpt>
      <trkpt lat="47.69716" lon="-2.25169">
        <ele>66.4</ele>
        <time>2021-05-27T13:33:52Z</time>
      </trkpt>
      <trkpt lat="47.69714" lon="-2.25166">
        <ele>66.4</ele>
        <time>2021-05-27T13:33:53Z</time>
      </trkpt>
      <trkpt lat="47.69712" lon="-2.25164">
        <ele>66.5</ele>
        <time>2021-05-27T13:33:54Z</time>
      </trkpt>
      <trkpt lat="47.6971" lon="-2.2516">
        <ele>66.6</ele>
        <time>2021-05-27T13:33:55Z</time>
      </trkpt>
      <trkpt lat="47.69707" lon="-2.25157">
        <ele>66.7</ele>
        <time>2021-05-27T13:33:56Z</time>
      </trkpt>
      <trkpt lat="47.69706" lon="-2.25154">
        <ele>66.8</ele>
        <time>2021-05-27T13:33:57Z</time>
      </trkpt>
      <trkpt lat="47.69704" lon="-2.25151">
        <ele>66.9</ele>
        <time>2021-05-27T13:33:58Z</time>
      </trkpt>
      <trkpt lat="47.69701" lon="-2.25148">
        <ele>66.9</ele>
        <time>2021-05-27T13:33:59Z</time>
      </trkpt>
      <trkpt lat="47.697" lon="-2.25144">
        <ele>67</ele>
        <time>2021-05-27T13:34:00Z</time>
      </trkpt>
      <trkpt lat="47.69698" lon="-2.25141">
        <ele>67.1</ele>
        <time>2021-05-27T13:34:01Z</time>
      </trkpt>
      <trkpt lat="47.69696" lon="-2.25137">
        <ele>67.2</ele>
        <time>2021-05-27T13:34:02Z</time>
      </trkpt>
      <trkpt lat="47.69695" lon="-2.25134">
        <ele>67.3</ele>
        <time>2021-05-27T13:34:03Z</time>
      </trkpt>
      <trkpt lat="47.69694" lon="-2.2513">
        <ele>67.4</ele>
        <time>2021-05-27T13:34:04Z</time>
      </trkpt>
      <trkpt lat="47.69692" lon="-2.25126">
        <ele>67.5</ele>
        <time>2021-05-27T13:34:05Z</time>
      </trkpt>
      <trkpt lat="47.69691" lon="-2.25122">
        <ele>67.6</ele>
        <time>2021-05-27T13:34:06Z</time>
      </trkpt>
      <trkpt lat="47.69689" lon="-2.25118">
        <ele>67.8</ele>
        <time>2021-05-27T13:34:07Z</time>
      </trkpt>
      <trkpt lat="47.69687" lon="-2.25114">
        <ele>67.9</ele>
        <time>2021-05-27T13:34:08Z</time>
      </trkpt>
      <trkpt lat="47.69685" lon="-2.2511">
        <ele>68</ele>
        <time>2021-05-27T13:34:09Z</time>
      </trkpt>
      <trkpt lat="47.69684" lon="-2.25106">
        <ele>68.1</ele>
        <time>2021-05-27T13:34:10Z</time>
      </trkpt>
      <trkpt lat="47.69683" lon="-2.25101">
        <ele>68.2</ele>
        <time>2021-05-27T13:34:11Z</time>
      </trkpt>
      <trkpt lat="47.69681" lon="-2.25097">
        <ele>68.4</ele>
        <time>2021-05-27T13:34:12Z</time>
      </trkpt>
      <trkpt lat="47.6968" lon="-2.25092">
        <ele>68.5</ele>
        <time>2021-05-27T13:34:13Z</time>
      </trkpt>
      <trkpt lat="47.69678" lon="-2.25087">
        <ele>68.6</ele>
        <time>2021-05-27T13:34:14Z</time>
      </trkpt>
      <trkpt lat="47.69677" lon="-2.25082">
        <ele>68.8</ele>
        <time>2021-05-27T13:34:15Z</time>
      </trkpt>
      <trkpt lat="47.69675" lon="-2.25078">
        <ele>68.7</ele>
        <time>2021-05-27T13:34:16Z</time>
      </trkpt>
      <trkpt lat="47.69675" lon="-2.25073">
        <ele>68.7</ele>
        <time>2021-05-27T13:34:17Z</time>
      </trkpt>
      <trkpt lat="47.69673" lon="-2.25069">
        <ele>68.8</ele>
        <time>2021-05-27T13:34:18Z</time>
      </trkpt>
      <trkpt lat="47.69672" lon="-2.25065">
        <ele>68.8</ele>
        <time>2021-05-27T13:34:19Z</time>
      </trkpt>
      <trkpt lat="47.69671" lon="-2.25061">
        <ele>68.8</ele>
        <time>2021-05-27T13:34:20Z</time>
      </trkpt>
      <trkpt lat="47.6967" lon="-2.25057">
        <ele>68.8</ele>
        <time>2021-05-27T13:34:21Z</time>
      </trkpt>
      <trkpt lat="47.69669" lon="-2.25052">
        <ele>68.9</ele>
        <time>2021-05-27T13:34:22Z</time>
      </trkpt>
      <trkpt lat="47.69669" lon="-2.25047">
        <ele>68.9</ele>
        <time>2021-05-27T13:34:23Z</time>
      </trkpt>
      <trkpt lat="47.69669" lon="-2.25042">
        <ele>68.9</ele>
        <time>2021-05-27T13:34:24Z</time>
      </trkpt>
      <trkpt lat="47.69669" lon="-2.25037">
        <ele>68.9</ele>
        <time>2021-05-27T13:34:25Z</time>
      </trkpt>
      <trkpt lat="47.69668" lon="-2.25032">
        <ele>68.9</ele>
        <time>2021-05-27T13:34:26Z</time>
      </trkpt>
      <trkpt lat="47.69668" lon="-2.25027">
        <ele>68.9</ele>
        <time>2021-05-27T13:34:27Z</time>
      </trkpt>
      <trkpt lat="47.69667" lon="-2.25021">
        <ele>69</ele>
        <time>2021-05-27T13:34:28Z</time>
      </trkpt>
      <trkpt lat="47.69666" lon="-2.25015">
        <ele>69</ele>
        <time>2021-05-27T13:34:29Z</time>
      </trkpt>
      <trkpt lat="47.69665" lon="-2.25008">
        <ele>69</ele>
        <time>2021-05-27T13:34:30Z</time>
      </trkpt>
      <trkpt lat="47.69664" lon="-2.25002">
        <ele>68.9</ele>
        <time>2021-05-27T13:34:31Z</time>
      </trkpt>
      <trkpt lat="47.69664" lon="-2.24995">
        <ele>68.9</ele>
        <time>2021-05-27T13:34:32Z</time>
      </trkpt>
      <trkpt lat="47.69663" lon="-2.2499">
        <ele>69</ele>
        <time>2021-05-27T13:34:33Z</time>
      </trkpt>
      <trkpt lat="47.69662" lon="-2.24984">
        <ele>69.1</ele>
        <time>2021-05-27T13:34:34Z</time>
      </trkpt>
      <trkpt lat="47.69662" lon="-2.24979">
        <ele>69.1</ele>
        <time>2021-05-27T13:34:35Z</time>
      </trkpt>
      <trkpt lat="47.69662" lon="-2.24973">
        <ele>69.2</ele>
        <time>2021-05-27T13:34:36Z</time>
      </trkpt>
      <trkpt lat="47.69662" lon="-2.24967">
        <ele>69.3</ele>
        <time>2021-05-27T13:34:37Z</time>
      </trkpt>
      <trkpt lat="47.69661" lon="-2.24961">
        <ele>69.3</ele>
        <time>2021-05-27T13:34:38Z</time>
      </trkpt>
      <trkpt lat="47.69661" lon="-2.24956">
        <ele>69.4</ele>
        <time>2021-05-27T13:34:39Z</time>
      </trkpt>
      <trkpt lat="47.6966" lon="-2.2495">
        <ele>69.5</ele>
        <time>2021-05-27T13:34:40Z</time>
      </trkpt>
      <trkpt lat="47.69648" lon="-2.2495">
        <ele>69.2</ele>
      </trkpt>
      <trkpt lat="47.69634" lon="-2.24944">
        <ele>69</ele>
      </trkpt>
      <trkpt lat="47.69628" lon="-2.24928">
        <ele>69.3</ele>
      </trkpt>
      <trkpt lat="47.69625" lon="-2.24905">
        <ele>69.6</ele>
      </trkpt>
      <trkpt lat="47.69628" lon="-2.24887">
        <ele>69.7</ele>
      </trkpt>
      <trkpt lat="47.69629" lon="-2.24877">
        <ele>69.8</ele>
      </trkpt>
      <trkpt lat="47.6963" lon="-2.24865">
        <ele>69.8</ele>
      </trkpt>
      <trkpt lat="47.6962" lon="-2.24843">
        <ele>69.9</ele>
      </trkpt>
      <trkpt lat="47.69618" lon="-2.2484">
        <ele>70</ele>
      </trkpt>
      <trkpt lat="47.69606" lon="-2.24837">
        <ele>70</ele>
      </trkpt>
      <trkpt lat="47.69596" lon="-2.24827">
        <ele>69.9</ele>
      </trkpt>
      <trkpt lat="47.6959" lon="-2.24804">
        <ele>69.6</ele>
      </trkpt>
      <trkpt lat="47.69587" lon="-2.24796">
        <ele>69.5</ele>
      </trkpt>
      <trkpt lat="47.69586" lon="-2.24778">
        <ele>69.3</ele>
      </trkpt>
      <trkpt lat="47.69578" lon="-2.24741">
        <ele>68.4</ele>
      </trkpt>
      <trkpt lat="47.69578" lon="-2.2473">
        <ele>68.2</ele>
      </trkpt>
      <trkpt lat="47.69579" lon="-2.24695">
        <ele>67.5</ele>
      </trkpt>
      <trkpt lat="47.69571" lon="-2.24663">
        <ele>66.6</ele>
      </trkpt>
      <trkpt lat="47.69571" lon="-2.24654">
        <ele>66.7</ele>
      </trkpt>
      <trkpt lat="47.69571" lon="-2.24634">
        <ele>67</ele>
      </trkpt>
      <trkpt lat="47.69576" lon="-2.24613">
        <ele>67.4</ele>
      </trkpt>
      <trkpt lat="47.69581" lon="-2.24593">
        <ele>67.8</ele>
      </trkpt>
      <trkpt lat="47.69587" lon="-2.2458">
        <ele>67.6</ele>
      </trkpt>
      <trkpt lat="47.69582" lon="-2.24574">
        <ele>68</ele>
      </trkpt>
      <trkpt lat="47.69578" lon="-2.24571">
        <ele>67.9</ele>
      </trkpt>
      <trkpt lat="47.69576" lon="-2.24567">
        <ele>67.8</ele>
      </trkpt>
      <trkpt lat="47.69575" lon="-2.24563">
        <ele>67.8</ele>
      </trkpt>
      <trkpt lat="47.69574" lon="-2.24559">
        <ele>67.8</ele>
      </trkpt>
      <trkpt lat="47.69573" lon="-2.24556">
        <ele>67.8</ele>
      </trkpt>
      <trkpt lat="47.69567" lon="-2.24553">
        <ele>67.7</ele>
      </trkpt>
      <trkpt lat="47.69565" lon="-2.24546">
        <ele>67.7</ele>
      </trkpt>
      <trkpt lat="47.69563" lon="-2.24543">
        <ele>67.6</ele>
      </trkpt>
      <trkpt lat="47.69561" lon="-2.24534">
        <ele>67.6</ele>
      </trkpt>
      <trkpt lat="47.69559" lon="-2.2453">
        <ele>67.6</ele>
      </trkpt>
      <trkpt lat="47.69552" lon="-2.24528">
        <ele>67.5</ele>
      </trkpt>
      <trkpt lat="47.69549" lon="-2.24526">
        <ele>67.5</ele>
      </trkpt>
      <trkpt lat="47.69547" lon="-2.24522">
        <ele>67.5</ele>
      </trkpt>
      <trkpt lat="47.69548" lon="-2.24518">
        <ele>67.5</ele>
      </trkpt>
      <trkpt lat="47.69549" lon="-2.24505">
        <ele>67.6</ele>
      </trkpt>
      <trkpt lat="47.69544" lon="-2.24496">
        <ele>67.5</ele>
      </trkpt>
      <trkpt lat="47.69545" lon="-2.24491">
        <ele>67.5</ele>
      </trkpt>
      <trkpt lat="47.69546" lon="-2.24487">
        <ele>67.5</ele>
      </trkpt>
      <trkpt lat="47.69544" lon="-2.24468">
        <ele>67.3</ele>
      </trkpt>
      <trkpt lat="47.69543" lon="-2.24463">
        <ele>67.3</ele>
      </trkpt>
      <trkpt lat="47.69542" lon="-2.24458">
        <ele>67.3</ele>
      </trkpt>
      <trkpt lat="47.69542" lon="-2.24453">
        <ele>67.2</ele>
      </trkpt>
      <trkpt lat="47.69541" lon="-2.24449">
        <ele>67.2</ele>
      </trkpt>
      <trkpt lat="47.6954" lon="-2.24442">
        <ele>67.1</ele>
      </trkpt>
      <trkpt lat="47.69538" lon="-2.24433">
        <ele>67.1</ele>
      </trkpt>
      <trkpt lat="47.69538" lon="-2.24427">
        <ele>67.1</ele>
      </trkpt>
      <trkpt lat="47.69538" lon="-2.24423">
        <ele>67</ele>
      </trkpt>
      <trkpt lat="47.69538" lon="-2.24417">
        <ele>67</ele>
      </trkpt>
      <trkpt lat="47.69538" lon="-2.24413">
        <ele>67.1</ele>
      </trkpt>
      <trkpt lat="47.69538" lon="-2.24407">
        <ele>67.2</ele>
      </trkpt>
      <trkpt lat="47.6954" lon="-2.24393">
        <ele>67.4</ele>
      </trkpt>
      <trkpt lat="47.6954" lon="-2.24385">
        <ele>67.6</ele>
      </trkpt>
      <trkpt lat="47.69539" lon="-2.24381">
        <ele>67.6</ele>
      </trkpt>
      <trkpt lat="47.69539" lon="-2.24376">
        <ele>67.7</ele>
      </trkpt>
      <trkpt lat="47.69538" lon="-2.24371">
        <ele>67.8</ele>
      </trkpt>
      <trkpt lat="47.69542" lon="-2.24364">
        <ele>68</ele>
      </trkpt>
      <trkpt lat="47.69545" lon="-2.24356">
        <ele>68.1</ele>
      </trkpt>
      <trkpt lat="47.69541" lon="-2.24345">
        <ele>68.3</ele>
      </trkpt>
      <trkpt lat="47.69538" lon="-2.24336">
        <ele>68.4</ele>
      </trkpt>
      <trkpt lat="47.69537" lon="-2.24332">
        <ele>68.4</ele>
      </trkpt>
      <trkpt lat="47.69534" lon="-2.24324">
        <ele>68.5</ele>
      </trkpt>
      <trkpt lat="47.69532" lon="-2.24315">
        <ele>68.5</ele>
      </trkpt>
      <trkpt lat="47.69532" lon="-2.24312">
        <ele>68.5</ele>
      </trkpt>
      <trkpt lat="47.69532" lon="-2.24302">
        <ele>68.6</ele>
      </trkpt>
      <trkpt lat="47.69532" lon="-2.24294">
        <ele>68.7</ele>
      </trkpt>
      <trkpt lat="47.69532" lon="-2.24283">
        <ele>68.8</ele>
      </trkpt>
      <trkpt lat="47.69533" lon="-2.24278">
        <ele>68.8</ele>
      </trkpt>
      <trkpt lat="47.69534" lon="-2.24269">
        <ele>68.9</ele>
      </trkpt>
      <trkpt lat="47.69532" lon="-2.24259">
        <ele>68.9</ele>
      </trkpt>
      <trkpt lat="47.6953" lon="-2.2425">
        <ele>69</ele>
      </trkpt>
      <trkpt lat="47.69532" lon="-2.24242">
        <ele>69.1</ele>
      </trkpt>
      <trkpt lat="47.69534" lon="-2.24239">
        <ele>69.1</ele>
      </trkpt>
      <trkpt lat="47.69538" lon="-2.24233">
        <ele>69.2</ele>
      </trkpt>
      <trkpt lat="47.69542" lon="-2.24224">
        <ele>69.3</ele>
      </trkpt>
      <trkpt lat="47.69547" lon="-2.24221">
        <ele>69.4</ele>
      </trkpt>
      <trkpt lat="47.69553" lon="-2.24219">
        <ele>69.5</ele>
      </trkpt>
      <trkpt lat="47.69557" lon="-2.2422">
        <ele>69.5</ele>
      </trkpt>
      <trkpt lat="47.69562" lon="-2.24217">
        <ele>69.6</ele>
        <time>2021-05-27T13:48:56Z</time>
      </trkpt>
      <trkpt lat="47.69561" lon="-2.24213">
        <ele>69.7</ele>
        <time>2021-05-27T13:48:57Z</time>
      </trkpt>
      <trkpt lat="47.6956" lon="-2.2421">
        <ele>69.7</ele>
        <time>2021-05-27T13:48:58Z</time>
      </trkpt>
      <trkpt lat="47.69559" lon="-2.24207">
        <ele>69.7</ele>
        <time>2021-05-27T13:48:59Z</time>
      </trkpt>
      <trkpt lat="47.69559" lon="-2.24204">
        <ele>69.8</ele>
        <time>2021-05-27T13:49:00Z</time>
      </trkpt>
      <trkpt lat="47.69558" lon="-2.24201">
        <ele>69.8</ele>
        <time>2021-05-27T13:49:01Z</time>
      </trkpt>
      <trkpt lat="47.69556" lon="-2.24197">
        <ele>69.9</ele>
        <time>2021-05-27T13:49:02Z</time>
      </trkpt>
      <trkpt lat="47.69556" lon="-2.24193">
        <ele>69.9</ele>
        <time>2021-05-27T13:49:03Z</time>
      </trkpt>
      <trkpt lat="47.69555" lon="-2.24187">
        <ele>70</ele>
        <time>2021-05-27T13:49:04Z</time>
      </trkpt>
      <trkpt lat="47.69554" lon="-2.2418">
        <ele>70.1</ele>
        <time>2021-05-27T13:49:05Z</time>
      </trkpt>
      <trkpt lat="47.69553" lon="-2.24173">
        <ele>70.2</ele>
        <time>2021-05-27T13:49:06Z</time>
      </trkpt>
      <trkpt lat="47.69552" lon="-2.24169">
        <ele>70.2</ele>
        <time>2021-05-27T13:49:07Z</time>
      </trkpt>
      <trkpt lat="47.69551" lon="-2.24165">
        <ele>70.2</ele>
        <time>2021-05-27T13:49:08Z</time>
      </trkpt>
      <trkpt lat="47.69549" lon="-2.24162">
        <ele>70.2</ele>
        <time>2021-05-27T13:49:09Z</time>
      </trkpt>
      <trkpt lat="47.69549" lon="-2.24162">
        <ele>70.2</ele>
        <time>2021-05-27T13:49:10Z</time>
      </trkpt>
      <trkpt lat="47.69549" lon="-2.2416">
        <ele>70.2</ele>
        <time>2021-05-27T13:50:24Z</time>
      </trkpt>
      <trkpt lat="47.69548" lon="-2.24155">
        <ele>70.3</ele>
        <time>2021-05-27T13:50:25Z</time>
      </trkpt>
      <trkpt lat="47.69547" lon="-2.2415">
        <ele>70.3</ele>
        <time>2021-05-27T13:50:26Z</time>
      </trkpt>
      <trkpt lat="47.69546" lon="-2.24144">
        <ele>70.4</ele>
        <time>2021-05-27T13:50:27Z</time>
      </trkpt>
      <trkpt lat="47.69546" lon="-2.24139">
        <ele>70.4</ele>
        <time>2021-05-27T13:50:28Z</time>
      </trkpt>
      <trkpt lat="47.69545" lon="-2.24134">
        <ele>70.5</ele>
        <time>2021-05-27T13:50:29Z</time>
      </trkpt>
      <trkpt lat="47.69545" lon="-2.24128">
        <ele>70.5</ele>
        <time>2021-05-27T13:50:30Z</time>
      </trkpt>
      <trkpt lat="47.69544" lon="-2.24123">
        <ele>70.6</ele>
        <time>2021-05-27T13:50:31Z</time>
      </trkpt>
      <trkpt lat="47.69543" lon="-2.24117">
        <ele>70.6</ele>
        <time>2021-05-27T13:50:32Z</time>
      </trkpt>
      <trkpt lat="47.69542" lon="-2.24112">
        <ele>70.7</ele>
        <time>2021-05-27T13:50:33Z</time>
      </trkpt>
      <trkpt lat="47.69541" lon="-2.24107">
        <ele>70.7</ele>
        <time>2021-05-27T13:50:34Z</time>
      </trkpt>
      <trkpt lat="47.69541" lon="-2.24103">
        <ele>70.7</ele>
        <time>2021-05-27T13:50:35Z</time>
      </trkpt>
      <trkpt lat="47.6954" lon="-2.24097">
        <ele>70.8</ele>
        <time>2021-05-27T13:50:36Z</time>
      </trkpt>
      <trkpt lat="47.69538" lon="-2.24091">
        <ele>70.8</ele>
        <time>2021-05-27T13:50:37Z</time>
      </trkpt>
      <trkpt lat="47.69537" lon="-2.24086">
        <ele>70.9</ele>
        <time>2021-05-27T13:50:38Z</time>
      </trkpt>
      <trkpt lat="47.69535" lon="-2.2408">
        <ele>70.8</ele>
        <time>2021-05-27T13:50:39Z</time>
      </trkpt>
      <trkpt lat="47.69533" lon="-2.24074">
        <ele>70.7</ele>
        <time>2021-05-27T13:50:40Z</time>
      </trkpt>
      <trkpt lat="47.69531" lon="-2.24068">
        <ele>70.6</ele>
        <time>2021-05-27T13:50:41Z</time>
      </trkpt>
      <trkpt lat="47.69529" lon="-2.24063">
        <ele>70.5</ele>
        <time>2021-05-27T13:50:42Z</time>
      </trkpt>
      <trkpt lat="47.69526" lon="-2.24058">
        <ele>70.3</ele>
        <time>2021-05-27T13:50:43Z</time>
      </trkpt>
      <trkpt lat="47.69523" lon="-2.24055">
        <ele>70.2</ele>
        <time>2021-05-27T13:50:44Z</time>
      </trkpt>
      <trkpt lat="47.6952" lon="-2.24053">
        <ele>70.1</ele>
        <time>2021-05-27T13:50:45Z</time>
      </trkpt>
      <trkpt lat="47.69517" lon="-2.24052">
        <ele>70</ele>
        <time>2021-05-27T13:50:46Z</time>
      </trkpt>
      <trkpt lat="47.69515" lon="-2.2405">
        <ele>70</ele>
        <time>2021-05-27T13:50:47Z</time>
      </trkpt>
      <trkpt lat="47.69512" lon="-2.24048">
        <ele>69.9</ele>
        <time>2021-05-27T13:50:48Z</time>
      </trkpt>
      <trkpt lat="47.69509" lon="-2.24048">
        <ele>69.8</ele>
        <time>2021-05-27T13:50:49Z</time>
      </trkpt>
      <trkpt lat="47.69506" lon="-2.24048">
        <ele>69.7</ele>
        <time>2021-05-27T13:50:50Z</time>
      </trkpt>
      <trkpt lat="47.69503" lon="-2.24048">
        <ele>69.7</ele>
        <time>2021-05-27T13:50:51Z</time>
      </trkpt>
      <trkpt lat="47.695" lon="-2.24049">
        <ele>69.6</ele>
        <time>2021-05-27T13:50:52Z</time>
      </trkpt>
      <trkpt lat="47.69497" lon="-2.24051">
        <ele>69.5</ele>
        <time>2021-05-27T13:50:53Z</time>
      </trkpt>
      <trkpt lat="47.69494" lon="-2.24052">
        <ele>69.4</ele>
        <time>2021-05-27T13:50:54Z</time>
      </trkpt>
      <trkpt lat="47.69492" lon="-2.24053">
        <ele>69.3</ele>
        <time>2021-05-27T13:50:55Z</time>
      </trkpt>
      <trkpt lat="47.69491" lon="-2.24053">
        <ele>69.2</ele>
        <time>2021-05-27T13:50:56Z</time>
      </trkpt>
      <trkpt lat="47.6949" lon="-2.24054">
        <ele>69.1</ele>
        <time>2021-05-27T13:50:57Z</time>
      </trkpt>
      <trkpt lat="47.6949" lon="-2.24054">
        <ele>69.2</ele>
        <time>2021-05-27T13:50:58Z</time>
      </trkpt>
      <trkpt lat="47.6949" lon="-2.24054">
        <ele>69.2</ele>
        <time>2021-05-27T13:50:59Z</time>
      </trkpt>
      <trkpt lat="47.6949" lon="-2.24054">
        <ele>69.2</ele>
        <time>2021-05-27T13:51:00Z</time>
      </trkpt>
      <trkpt lat="47.6949" lon="-2.24054">
        <ele>69.2</ele>
        <time>2021-05-27T13:51:01Z</time>
      </trkpt>
      <trkpt lat="47.6949" lon="-2.24054">
        <ele>69.2</ele>
        <time>2021-05-27T13:51:02Z</time>
      </trkpt>
      <trkpt lat="47.6949" lon="-2.24054">
        <ele>69.2</ele>
        <time>2021-05-27T13:51:03Z</time>
      </trkpt>
      <trkpt lat="47.6949" lon="-2.24054">
        <ele>69.2</ele>
        <time>2021-05-27T13:51:04Z</time>
      </trkpt>
      <trkpt lat="47.6949" lon="-2.24054">
        <ele>69.2</ele>
        <time>2021-05-27T13:51:05Z</time>
      </trkpt>
      <trkpt lat="47.6949" lon="-2.24054">
        <ele>69.2</ele>
        <time>2021-05-27T13:51:06Z</time>
      </trkpt>
      <trkpt lat="47.6949" lon="-2.24054">
        <ele>69.2</ele>
        <time>2021-05-27T13:51:07Z</time>
      </trkpt>
      <trkpt lat="47.6949" lon="-2.24054">
        <ele>69.2</ele>
        <time>2021-05-27T13:51:08Z</time>
      </trkpt>
      <trkpt lat="47.6949" lon="-2.24054">
        <ele>69.2</ele>
        <time>2021-05-27T13:51:09Z</time>
      </trkpt>
      <trkpt lat="47.6949" lon="-2.24054">
        <ele>69.2</ele>
        <time>2021-05-27T13:51:10Z</time>
      </trkpt>
      <trkpt lat="47.6949" lon="-2.24054">
        <ele>69.2</ele>
        <time>2021-05-27T13:51:11Z</time>
      </trkpt>
      <trkpt lat="47.6949" lon="-2.24054">
        <ele>69.2</ele>
        <time>2021-05-27T13:51:12Z</time>
      </trkpt>
      <trkpt lat="47.6949" lon="-2.24054">
        <ele>69.2</ele>
        <time>2021-05-27T13:51:13Z</time>
      </trkpt>
      <trkpt lat="47.6949" lon="-2.24054">
        <ele>69.2</ele>
        <time>2021-05-27T13:51:14Z</time>
      </trkpt>
      <trkpt lat="47.6949" lon="-2.24054">
        <ele>69.2</ele>
        <time>2021-05-27T13:51:15Z</time>
      </trkpt>
      <trkpt lat="47.6949" lon="-2.24054">
        <ele>69.2</ele>
        <time>2021-05-27T13:51:16Z</time>
      </trkpt>
      <trkpt lat="47.6949" lon="-2.24054">
        <ele>69.2</ele>
        <time>2021-05-27T13:51:17Z</time>
      </trkpt>
      <trkpt lat="47.6949" lon="-2.24054">
        <ele>69.2</ele>
        <time>2021-05-27T13:51:18Z</time>
      </trkpt>
      <trkpt lat="47.6949" lon="-2.24054">
        <ele>69.2</ele>
        <time>2021-05-27T13:51:19Z</time>
      </trkpt>
      <trkpt lat="47.6949" lon="-2.24054">
        <ele>69.2</ele>
        <time>2021-05-27T13:51:20Z</time>
      </trkpt>
      <trkpt lat="47.6949" lon="-2.24054">
        <ele>69.2</ele>
        <time>2021-05-27T13:51:21Z</time>
      </trkpt>
      <trkpt lat="47.6949" lon="-2.24054">
        <ele>69.2</ele>
        <time>2021-05-27T13:51:22Z</time>
      </trkpt>
      <trkpt lat="47.6949" lon="-2.24054">
        <ele>69.2</ele>
        <time>2021-05-27T13:51:23Z</time>
      </trkpt>
      <trkpt lat="47.69489" lon="-2.24061">
        <ele>69.2</ele>
        <time>2021-05-27T13:51:24Z</time>
      </trkpt>
      <trkpt lat="47.69489" lon="-2.24064">
        <ele>69.2</ele>
        <time>2021-05-27T13:51:25Z</time>
      </trkpt>
      <trkpt lat="47.69489" lon="-2.24068">
        <ele>69.2</ele>
        <time>2021-05-27T13:51:26Z</time>
      </trkpt>
      <trkpt lat="47.69489" lon="-2.24072">
        <ele>69.2</ele>
        <time>2021-05-27T13:51:27Z</time>
      </trkpt>
      <trkpt lat="47.69488" lon="-2.24076">
        <ele>69.2</ele>
        <time>2021-05-27T13:51:28Z</time>
      </trkpt>
      <trkpt lat="47.69488" lon="-2.24081">
        <ele>69.3</ele>
        <time>2021-05-27T13:51:29Z</time>
      </trkpt>
      <trkpt lat="47.69489" lon="-2.24086">
        <ele>69.3</ele>
        <time>2021-05-27T13:51:30Z</time>
      </trkpt>
      <trkpt lat="47.6949" lon="-2.2409">
        <ele>69.3</ele>
        <time>2021-05-27T13:51:31Z</time>
      </trkpt>
      <trkpt lat="47.69491" lon="-2.24094">
        <ele>69.3</ele>
        <time>2021-05-27T13:51:32Z</time>
      </trkpt>
      <trkpt lat="47.69493" lon="-2.24098">
        <ele>69.4</ele>
        <time>2021-05-27T13:51:33Z</time>
      </trkpt>
      <trkpt lat="47.69495" lon="-2.24102">
        <ele>69.5</ele>
        <time>2021-05-27T13:51:34Z</time>
      </trkpt>
      <trkpt lat="47.69497" lon="-2.24106">
        <ele>69.6</ele>
        <time>2021-05-27T13:51:35Z</time>
      </trkpt>
      <trkpt lat="47.695" lon="-2.2411">
        <ele>69.7</ele>
        <time>2021-05-27T13:51:36Z</time>
      </trkpt>
      <trkpt lat="47.69503" lon="-2.24113">
        <ele>69.7</ele>
        <time>2021-05-27T13:51:37Z</time>
      </trkpt>
      <trkpt lat="47.69506" lon="-2.24116">
        <ele>69.7</ele>
        <time>2021-05-27T13:51:38Z</time>
      </trkpt>
      <trkpt lat="47.69509" lon="-2.24118">
        <ele>69.8</ele>
        <time>2021-05-27T13:51:39Z</time>
      </trkpt>
      <trkpt lat="47.6951" lon="-2.2412">
        <ele>69.8</ele>
        <time>2021-05-27T13:51:40Z</time>
      </trkpt>
      <trkpt lat="47.69512" lon="-2.24123">
        <ele>69.8</ele>
        <time>2021-05-27T13:51:41Z</time>
      </trkpt>
      <trkpt lat="47.69514" lon="-2.24124">
        <ele>69.8</ele>
        <time>2021-05-27T13:51:42Z</time>
      </trkpt>
      <trkpt lat="47.69517" lon="-2.24126">
        <ele>69.9</ele>
        <time>2021-05-27T13:51:43Z</time>
      </trkpt>
      <trkpt lat="47.69519" lon="-2.24127">
        <ele>69.9</ele>
        <time>2021-05-27T13:51:44Z</time>
      </trkpt>
      <trkpt lat="47.69521" lon="-2.24129">
        <ele>70</ele>
        <time>2021-05-27T13:51:45Z</time>
      </trkpt>
      <trkpt lat="47.69523" lon="-2.24132">
        <ele>70</ele>
        <time>2021-05-27T13:51:46Z</time>
      </trkpt>
      <trkpt lat="47.69524" lon="-2.24136">
        <ele>70</ele>
        <time>2021-05-27T13:51:47Z</time>
      </trkpt>
      <trkpt lat="47.69524" lon="-2.2414">
        <ele>69.9</ele>
        <time>2021-05-27T13:51:48Z</time>
      </trkpt>
      <trkpt lat="47.69523" lon="-2.24143">
        <ele>69.8</ele>
        <time>2021-05-27T13:51:49Z</time>
      </trkpt>
      <trkpt lat="47.69521" lon="-2.24146">
        <ele>69.8</ele>
        <time>2021-05-27T13:51:50Z</time>
      </trkpt>
      <trkpt lat="47.69521" lon="-2.24149">
        <ele>69.7</ele>
        <time>2021-05-27T13:51:51Z</time>
      </trkpt>
      <trkpt lat="47.69522" lon="-2.24154">
        <ele>69.7</ele>
        <time>2021-05-27T13:51:52Z</time>
      </trkpt>
      <trkpt lat="47.69523" lon="-2.24159">
        <ele>69.6</ele>
        <time>2021-05-27T13:51:53Z</time>
      </trkpt>
      <trkpt lat="47.69523" lon="-2.24163">
        <ele>69.6</ele>
        <time>2021-05-27T13:51:54Z</time>
      </trkpt>
      <trkpt lat="47.69525" lon="-2.24169">
        <ele>69.6</ele>
        <time>2021-05-27T13:51:55Z</time>
      </trkpt>
      <trkpt lat="47.69526" lon="-2.24174">
        <ele>69.6</ele>
        <time>2021-05-27T13:51:56Z</time>
      </trkpt>
      <trkpt lat="47.69527" lon="-2.2418">
        <ele>69.5</ele>
        <time>2021-05-27T13:51:57Z</time>
      </trkpt>
      <trkpt lat="47.69526" lon="-2.24184">
        <ele>69.5</ele>
        <time>2021-05-27T13:51:58Z</time>
      </trkpt>
      <trkpt lat="47.69525" lon="-2.24189">
        <ele>69.4</ele>
        <time>2021-05-27T13:51:59Z</time>
      </trkpt>
      <trkpt lat="47.69525" lon="-2.24194">
        <ele>69.4</ele>
        <time>2021-05-27T13:52:00Z</time>
      </trkpt>
      <trkpt lat="47.69524" lon="-2.24198">
        <ele>69.4</ele>
        <time>2021-05-27T13:52:01Z</time>
      </trkpt>
      <trkpt lat="47.69522" lon="-2.24202">
        <ele>69.3</ele>
        <time>2021-05-27T13:52:02Z</time>
      </trkpt>
      <trkpt lat="47.6952" lon="-2.24205">
        <ele>69.3</ele>
        <time>2021-05-27T13:52:03Z</time>
      </trkpt>
      <trkpt lat="47.69519" lon="-2.24208">
        <ele>69.2</ele>
        <time>2021-05-27T13:52:04Z</time>
      </trkpt>
      <trkpt lat="47.69518" lon="-2.24211">
        <ele>69.2</ele>
        <time>2021-05-27T13:52:05Z</time>
      </trkpt>
      <trkpt lat="47.69517" lon="-2.24214">
        <ele>69.2</ele>
        <time>2021-05-27T13:52:06Z</time>
      </trkpt>
      <trkpt lat="47.69516" lon="-2.24218">
        <ele>69.1</ele>
        <time>2021-05-27T13:52:07Z</time>
      </trkpt>
      <trkpt lat="47.69515" lon="-2.24221">
        <ele>69.1</ele>
        <time>2021-05-27T13:52:08Z</time>
      </trkpt>
      <trkpt lat="47.69513" lon="-2.24225">
        <ele>69.1</ele>
        <time>2021-05-27T13:52:09Z</time>
      </trkpt>
      <trkpt lat="47.69512" lon="-2.24229">
        <ele>69.1</ele>
        <time>2021-05-27T13:52:10Z</time>
      </trkpt>
      <trkpt lat="47.69511" lon="-2.24234">
        <ele>69</ele>
        <time>2021-05-27T13:52:11Z</time>
      </trkpt>
      <trkpt lat="47.6951" lon="-2.24239">
        <ele>69</ele>
        <time>2021-05-27T13:52:12Z</time>
      </trkpt>
      <trkpt lat="47.6951" lon="-2.24243">
        <ele>69</ele>
        <time>2021-05-27T13:52:13Z</time>
      </trkpt>
      <trkpt lat="47.69508" lon="-2.24247">
        <ele>69</ele>
        <time>2021-05-27T13:52:14Z</time>
      </trkpt>
      <trkpt lat="47.69507" lon="-2.24251">
        <ele>69</ele>
        <time>2021-05-27T13:52:15Z</time>
      </trkpt>
      <trkpt lat="47.69506" lon="-2.24256">
        <ele>68.9</ele>
        <time>2021-05-27T13:52:16Z</time>
      </trkpt>
      <trkpt lat="47.69505" lon="-2.24261">
        <ele>68.9</ele>
        <time>2021-05-27T13:52:17Z</time>
      </trkpt>
      <trkpt lat="47.69504" lon="-2.24264">
        <ele>68.8</ele>
        <time>2021-05-27T13:52:18Z</time>
      </trkpt>
      <trkpt lat="47.69504" lon="-2.24268">
        <ele>68.8</ele>
        <time>2021-05-27T13:52:19Z</time>
      </trkpt>
      <trkpt lat="47.69504" lon="-2.24273">
        <ele>68.7</ele>
        <time>2021-05-27T13:52:20Z</time>
      </trkpt>
      <trkpt lat="47.69503" lon="-2.24277">
        <ele>68.7</ele>
        <time>2021-05-27T13:52:21Z</time>
      </trkpt>
      <trkpt lat="47.69502" lon="-2.24281">
        <ele>68.6</ele>
        <time>2021-05-27T13:52:22Z</time>
      </trkpt>
      <trkpt lat="47.69502" lon="-2.24284">
        <ele>68.6</ele>
        <time>2021-05-27T13:52:23Z</time>
      </trkpt>
      <trkpt lat="47.69502" lon="-2.24289">
        <ele>68.5</ele>
        <time>2021-05-27T13:52:24Z</time>
      </trkpt>
      <trkpt lat="47.69501" lon="-2.24291">
        <ele>68.5</ele>
        <time>2021-05-27T13:52:25Z</time>
      </trkpt>
      <trkpt lat="47.69501" lon="-2.24294">
        <ele>68.5</ele>
        <time>2021-05-27T13:52:26Z</time>
      </trkpt>
      <trkpt lat="47.69501" lon="-2.24297">
        <ele>68.4</ele>
        <time>2021-05-27T13:52:27Z</time>
      </trkpt>
      <trkpt lat="47.69502" lon="-2.24301">
        <ele>68.4</ele>
        <time>2021-05-27T13:52:28Z</time>
      </trkpt>
      <trkpt lat="47.69502" lon="-2.24303">
        <ele>68.4</ele>
        <time>2021-05-27T13:52:29Z</time>
      </trkpt>
      <trkpt lat="47.69501" lon="-2.24306">
        <ele>68.3</ele>
        <time>2021-05-27T13:52:30Z</time>
      </trkpt>
      <trkpt lat="47.69501" lon="-2.2431">
        <ele>68.3</ele>
        <time>2021-05-27T13:52:31Z</time>
      </trkpt>
      <trkpt lat="47.69503" lon="-2.24314">
        <ele>68.3</ele>
        <time>2021-05-27T13:52:32Z</time>
      </trkpt>
      <trkpt lat="47.69505" lon="-2.24318">
        <ele>68.2</ele>
        <time>2021-05-27T13:52:33Z</time>
      </trkpt>
      <trkpt lat="47.69507" lon="-2.24322">
        <ele>68.2</ele>
        <time>2021-05-27T13:52:34Z</time>
      </trkpt>
      <trkpt lat="47.69509" lon="-2.24327">
        <ele>68.2</ele>
        <time>2021-05-27T13:52:35Z</time>
      </trkpt>
      <trkpt lat="47.69512" lon="-2.24332">
        <ele>68.2</ele>
        <time>2021-05-27T13:52:36Z</time>
      </trkpt>
      <trkpt lat="47.69514" lon="-2.24336">
        <ele>68.1</ele>
        <time>2021-05-27T13:52:37Z</time>
      </trkpt>
      <trkpt lat="47.69517" lon="-2.24339">
        <ele>68.1</ele>
        <time>2021-05-27T13:52:38Z</time>
      </trkpt>
      <trkpt lat="47.6952" lon="-2.24343">
        <ele>68.1</ele>
        <time>2021-05-27T13:52:39Z</time>
      </trkpt>
      <trkpt lat="47.69521" lon="-2.24346">
        <ele>68.1</ele>
        <time>2021-05-27T13:52:40Z</time>
      </trkpt>
      <trkpt lat="47.69523" lon="-2.2435">
        <ele>68</ele>
        <time>2021-05-27T13:52:41Z</time>
      </trkpt>
      <trkpt lat="47.69525" lon="-2.24354">
        <ele>68</ele>
        <time>2021-05-27T13:52:42Z</time>
      </trkpt>
      <trkpt lat="47.69526" lon="-2.24359">
        <ele>67.9</ele>
        <time>2021-05-27T13:52:43Z</time>
      </trkpt>
      <trkpt lat="47.69526" lon="-2.24364">
        <ele>67.8</ele>
        <time>2021-05-27T13:52:44Z</time>
      </trkpt>
      <trkpt lat="47.69524" lon="-2.24368">
        <ele>67.8</ele>
        <time>2021-05-27T13:52:45Z</time>
      </trkpt>
      <trkpt lat="47.69523" lon="-2.24372">
        <ele>67.7</ele>
        <time>2021-05-27T13:52:46Z</time>
      </trkpt>
      <trkpt lat="47.69524" lon="-2.24377">
        <ele>67.6</ele>
        <time>2021-05-27T13:52:47Z</time>
      </trkpt>
      <trkpt lat="47.69524" lon="-2.24381">
        <ele>67.5</ele>
        <time>2021-05-27T13:52:48Z</time>
      </trkpt>
      <trkpt lat="47.69523" lon="-2.24385">
        <ele>67.5</ele>
        <time>2021-05-27T13:52:49Z</time>
      </trkpt>
      <trkpt lat="47.69521" lon="-2.24389">
        <ele>67.4</ele>
        <time>2021-05-27T13:52:50Z</time>
      </trkpt>
      <trkpt lat="47.6952" lon="-2.24393">
        <ele>67.4</ele>
        <time>2021-05-27T13:52:51Z</time>
      </trkpt>
      <trkpt lat="47.6952" lon="-2.24397">
        <ele>67.3</ele>
        <time>2021-05-27T13:52:52Z</time>
      </trkpt>
      <trkpt lat="47.69521" lon="-2.24402">
        <ele>67.2</ele>
        <time>2021-05-27T13:52:53Z</time>
      </trkpt>
      <trkpt lat="47.69522" lon="-2.24406">
        <ele>67.2</ele>
        <time>2021-05-27T13:52:54Z</time>
      </trkpt>
      <trkpt lat="47.69523" lon="-2.24411">
        <ele>67.1</ele>
        <time>2021-05-27T13:52:55Z</time>
      </trkpt>
      <trkpt lat="47.69523" lon="-2.24416">
        <ele>67</ele>
        <time>2021-05-27T13:52:56Z</time>
      </trkpt>
      <trkpt lat="47.69522" lon="-2.24421">
        <ele>67</ele>
        <time>2021-05-27T13:52:57Z</time>
      </trkpt>
      <trkpt lat="47.69523" lon="-2.24428">
        <ele>67</ele>
        <time>2021-05-27T13:52:58Z</time>
      </trkpt>
      <trkpt lat="47.69524" lon="-2.24433">
        <ele>67.1</ele>
        <time>2021-05-27T13:52:59Z</time>
      </trkpt>
      <trkpt lat="47.69524" lon="-2.24438">
        <ele>67.1</ele>
        <time>2021-05-27T13:53:00Z</time>
      </trkpt>
      <trkpt lat="47.69526" lon="-2.24442">
        <ele>67.1</ele>
        <time>2021-05-27T13:53:01Z</time>
      </trkpt>
      <trkpt lat="47.69527" lon="-2.24445">
        <ele>67.1</ele>
        <time>2021-05-27T13:53:02Z</time>
      </trkpt>
      <trkpt lat="47.69527" lon="-2.2445">
        <ele>67.1</ele>
        <time>2021-05-27T13:53:03Z</time>
      </trkpt>
      <trkpt lat="47.69527" lon="-2.24454">
        <ele>67.1</ele>
        <time>2021-05-27T13:53:04Z</time>
      </trkpt>
      <trkpt lat="47.69526" lon="-2.24458">
        <ele>67.2</ele>
        <time>2021-05-27T13:53:05Z</time>
      </trkpt>
      <trkpt lat="47.69524" lon="-2.24462">
        <ele>67.2</ele>
        <time>2021-05-27T13:53:06Z</time>
      </trkpt>
      <trkpt lat="47.69523" lon="-2.24467">
        <ele>67.2</ele>
        <time>2021-05-27T13:53:07Z</time>
      </trkpt>
      <trkpt lat="47.69522" lon="-2.24472">
        <ele>67.2</ele>
        <time>2021-05-27T13:53:08Z</time>
      </trkpt>
      <trkpt lat="47.6952" lon="-2.24478">
        <ele>67.2</ele>
        <time>2021-05-27T13:53:09Z</time>
      </trkpt>
      <trkpt lat="47.69518" lon="-2.24482">
        <ele>67.2</ele>
        <time>2021-05-27T13:53:10Z</time>
      </trkpt>
      <trkpt lat="47.69517" lon="-2.24487">
        <ele>67.2</ele>
        <time>2021-05-27T13:53:11Z</time>
      </trkpt>
      <trkpt lat="47.69515" lon="-2.24492">
        <ele>67.2</ele>
        <time>2021-05-27T13:53:12Z</time>
      </trkpt>
      <trkpt lat="47.69515" lon="-2.24497">
        <ele>67.2</ele>
        <time>2021-05-27T13:53:13Z</time>
      </trkpt>
      <trkpt lat="47.69516" lon="-2.24501">
        <ele>67.2</ele>
        <time>2021-05-27T13:53:14Z</time>
      </trkpt>
      <trkpt lat="47.69518" lon="-2.24504">
        <ele>67.2</ele>
        <time>2021-05-27T13:53:15Z</time>
      </trkpt>
      <trkpt lat="47.6952" lon="-2.24506">
        <ele>67.2</ele>
        <time>2021-05-27T13:53:16Z</time>
      </trkpt>
      <trkpt lat="47.69522" lon="-2.24507">
        <ele>67.2</ele>
        <time>2021-05-27T13:53:17Z</time>
      </trkpt>
      <trkpt lat="47.69524" lon="-2.2451">
        <ele>67.2</ele>
        <time>2021-05-27T13:53:18Z</time>
      </trkpt>
      <trkpt lat="47.69526" lon="-2.24513">
        <ele>67.2</ele>
        <time>2021-05-27T13:53:19Z</time>
      </trkpt>
      <trkpt lat="47.69527" lon="-2.24516">
        <ele>67.2</ele>
        <time>2021-05-27T13:53:20Z</time>
      </trkpt>
      <trkpt lat="47.69528" lon="-2.2452">
        <ele>67.2</ele>
        <time>2021-05-27T13:53:21Z</time>
      </trkpt>
      <trkpt lat="47.69529" lon="-2.24525">
        <ele>67.2</ele>
        <time>2021-05-27T13:53:22Z</time>
      </trkpt>
      <trkpt lat="47.69531" lon="-2.2453">
        <ele>67.1</ele>
        <time>2021-05-27T13:53:23Z</time>
      </trkpt>
      <trkpt lat="47.69532" lon="-2.24536">
        <ele>67.1</ele>
        <time>2021-05-27T13:53:24Z</time>
      </trkpt>
      <trkpt lat="47.69534" lon="-2.2454">
        <ele>67.1</ele>
        <time>2021-05-27T13:53:25Z</time>
      </trkpt>
      <trkpt lat="47.69536" lon="-2.24544">
        <ele>67.1</ele>
        <time>2021-05-27T13:53:26Z</time>
      </trkpt>
      <trkpt lat="47.69538" lon="-2.24546">
        <ele>67.2</ele>
        <time>2021-05-27T13:53:27Z</time>
      </trkpt>
      <trkpt lat="47.6954" lon="-2.24548">
        <ele>67.2</ele>
        <time>2021-05-27T13:53:28Z</time>
      </trkpt>
      <trkpt lat="47.69542" lon="-2.24552">
        <ele>67.2</ele>
        <time>2021-05-27T13:53:29Z</time>
      </trkpt>
      <trkpt lat="47.69543" lon="-2.24555">
        <ele>67.2</ele>
        <time>2021-05-27T13:53:30Z</time>
      </trkpt>
      <trkpt lat="47.69544" lon="-2.24559">
        <ele>67.2</ele>
        <time>2021-05-27T13:53:31Z</time>
      </trkpt>
      <trkpt lat="47.69544" lon="-2.24562">
        <ele>67.2</ele>
        <time>2021-05-27T13:53:32Z</time>
      </trkpt>
      <trkpt lat="47.69544" lon="-2.24566">
        <ele>67.1</ele>
        <time>2021-05-27T13:53:33Z</time>
      </trkpt>
      <trkpt lat="47.69543" lon="-2.24571">
        <ele>67.1</ele>
        <time>2021-05-27T13:53:34Z</time>
      </trkpt>
      <trkpt lat="47.69542" lon="-2.24576">
        <ele>67.1</ele>
        <time>2021-05-27T13:53:35Z</time>
      </trkpt>
      <trkpt lat="47.69541" lon="-2.24581">
        <ele>67</ele>
        <time>2021-05-27T13:53:36Z</time>
      </trkpt>
      <trkpt lat="47.69542" lon="-2.24586">
        <ele>66.9</ele>
        <time>2021-05-27T13:53:37Z</time>
      </trkpt>
      <trkpt lat="47.69543" lon="-2.24592">
        <ele>66.9</ele>
        <time>2021-05-27T13:53:38Z</time>
      </trkpt>
      <trkpt lat="47.69544" lon="-2.24597">
        <ele>66.8</ele>
        <time>2021-05-27T13:53:39Z</time>
      </trkpt>
      <trkpt lat="47.69545" lon="-2.24601">
        <ele>66.8</ele>
        <time>2021-05-27T13:53:40Z</time>
      </trkpt>
      <trkpt lat="47.69545" lon="-2.24605">
        <ele>66.7</ele>
        <time>2021-05-27T13:53:41Z</time>
      </trkpt>
      <trkpt lat="47.69544" lon="-2.24608">
        <ele>66.6</ele>
        <time>2021-05-27T13:53:42Z</time>
      </trkpt>
      <trkpt lat="47.69543" lon="-2.2461">
        <ele>66.6</ele>
        <time>2021-05-27T13:53:43Z</time>
      </trkpt>
      <trkpt lat="47.69543" lon="-2.24613">
        <ele>66.5</ele>
        <time>2021-05-27T13:53:44Z</time>
      </trkpt>
      <trkpt lat="47.69543" lon="-2.24616">
        <ele>66.5</ele>
        <time>2021-05-27T13:53:45Z</time>
      </trkpt>
      <trkpt lat="47.69544" lon="-2.2462">
        <ele>66.4</ele>
        <time>2021-05-27T13:53:46Z</time>
      </trkpt>
      <trkpt lat="47.69545" lon="-2.24625">
        <ele>66.4</ele>
        <time>2021-05-27T13:53:47Z</time>
      </trkpt>
      <trkpt lat="47.69546" lon="-2.24628">
        <ele>66.3</ele>
        <time>2021-05-27T13:53:48Z</time>
      </trkpt>
      <trkpt lat="47.69548" lon="-2.24632">
        <ele>66.3</ele>
        <time>2021-05-27T13:53:49Z</time>
      </trkpt>
      <trkpt lat="47.69549" lon="-2.24636">
        <ele>66.3</ele>
        <time>2021-05-27T13:53:50Z</time>
      </trkpt>
      <trkpt lat="47.69548" lon="-2.24641">
        <ele>66.2</ele>
        <time>2021-05-27T13:53:51Z</time>
      </trkpt>
      <trkpt lat="47.69547" lon="-2.24645">
        <ele>66.1</ele>
        <time>2021-05-27T13:53:52Z</time>
      </trkpt>
      <trkpt lat="47.69547" lon="-2.2465">
        <ele>66</ele>
        <time>2021-05-27T13:53:53Z</time>
      </trkpt>
      <trkpt lat="47.69546" lon="-2.24655">
        <ele>65.9</ele>
        <time>2021-05-27T13:53:54Z</time>
      </trkpt>
      <trkpt lat="47.69545" lon="-2.24659">
        <ele>65.8</ele>
        <time>2021-05-27T13:53:55Z</time>
      </trkpt>
      <trkpt lat="47.69544" lon="-2.24664">
        <ele>65.6</ele>
        <time>2021-05-27T13:53:56Z</time>
      </trkpt>
      <trkpt lat="47.69542" lon="-2.24669">
        <ele>65.5</ele>
        <time>2021-05-27T13:53:57Z</time>
      </trkpt>
      <trkpt lat="47.6954" lon="-2.24673">
        <ele>65.5</ele>
        <time>2021-05-27T13:53:58Z</time>
      </trkpt>
      <trkpt lat="47.69539" lon="-2.24677">
        <ele>65.5</ele>
        <time>2021-05-27T13:53:59Z</time>
      </trkpt>
      <trkpt lat="47.69539" lon="-2.24681">
        <ele>65.5</ele>
        <time>2021-05-27T13:54:00Z</time>
      </trkpt>
      <trkpt lat="47.6954" lon="-2.24685">
        <ele>65.5</ele>
        <time>2021-05-27T13:54:01Z</time>
      </trkpt>
      <trkpt lat="47.69539" lon="-2.2469">
        <ele>65.5</ele>
        <time>2021-05-27T13:54:02Z</time>
      </trkpt>
      <trkpt lat="47.69538" lon="-2.24694">
        <ele>65.5</ele>
        <time>2021-05-27T13:54:03Z</time>
      </trkpt>
      <trkpt lat="47.69537" lon="-2.24698">
        <ele>65.5</ele>
        <time>2021-05-27T13:54:04Z</time>
      </trkpt>
      <trkpt lat="47.69536" lon="-2.24703">
        <ele>65.5</ele>
        <time>2021-05-27T13:54:05Z</time>
      </trkpt>
      <trkpt lat="47.69537" lon="-2.24708">
        <ele>65.5</ele>
        <time>2021-05-27T13:54:06Z</time>
      </trkpt>
      <trkpt lat="47.69539" lon="-2.24714">
        <ele>65.6</ele>
        <time>2021-05-27T13:54:07Z</time>
      </trkpt>
      <trkpt lat="47.6954" lon="-2.2472">
        <ele>65.7</ele>
        <time>2021-05-27T13:54:08Z</time>
      </trkpt>
      <trkpt lat="47.69542" lon="-2.24727">
        <ele>65.9</ele>
        <time>2021-05-27T13:54:09Z</time>
      </trkpt>
      <trkpt lat="47.69542" lon="-2.24733">
        <ele>65.9</ele>
        <time>2021-05-27T13:54:10Z</time>
      </trkpt>
      <trkpt lat="47.69542" lon="-2.24736">
        <ele>65.9</ele>
        <time>2021-05-27T13:54:11Z</time>
      </trkpt>
      <trkpt lat="47.6954" lon="-2.24737">
        <ele>65.8</ele>
        <time>2021-05-27T13:54:12Z</time>
      </trkpt>
      <trkpt lat="47.69537" lon="-2.24736">
        <ele>65.6</ele>
        <time>2021-05-27T13:54:13Z</time>
      </trkpt>
      <trkpt lat="47.69535" lon="-2.24735">
        <ele>65.5</ele>
        <time>2021-05-27T13:54:14Z</time>
      </trkpt>
      <trkpt lat="47.69532" lon="-2.24736">
        <ele>65.3</ele>
        <time>2021-05-27T13:54:15Z</time>
      </trkpt>
      <trkpt lat="47.6953" lon="-2.24737">
        <ele>65.1</ele>
        <time>2021-05-27T13:54:16Z</time>
      </trkpt>
      <trkpt lat="47.69527" lon="-2.24737">
        <ele>65</ele>
        <time>2021-05-27T13:54:17Z</time>
      </trkpt>
      <trkpt lat="47.69525" lon="-2.24737">
        <ele>64.8</ele>
        <time>2021-05-27T13:54:18Z</time>
      </trkpt>
      <trkpt lat="47.69523" lon="-2.24738">
        <ele>64.7</ele>
        <time>2021-05-27T13:54:19Z</time>
      </trkpt>
      <trkpt lat="47.69523" lon="-2.24741">
        <ele>64.6</ele>
        <time>2021-05-27T13:54:20Z</time>
      </trkpt>
      <trkpt lat="47.69522" lon="-2.24745">
        <ele>64.6</ele>
        <time>2021-05-27T13:54:21Z</time>
      </trkpt>
      <trkpt lat="47.69522" lon="-2.2475">
        <ele>64.6</ele>
        <time>2021-05-27T13:54:22Z</time>
      </trkpt>
      <trkpt lat="47.69522" lon="-2.24754">
        <ele>64.6</ele>
        <time>2021-05-27T13:54:23Z</time>
      </trkpt>
      <trkpt lat="47.69522" lon="-2.24758">
        <ele>64.5</ele>
        <time>2021-05-27T13:54:24Z</time>
      </trkpt>
      <trkpt lat="47.69521" lon="-2.24763">
        <ele>64.5</ele>
        <time>2021-05-27T13:54:25Z</time>
      </trkpt>
      <trkpt lat="47.69521" lon="-2.24767">
        <ele>64.4</ele>
        <time>2021-05-27T13:54:26Z</time>
      </trkpt>
      <trkpt lat="47.6952" lon="-2.24772">
        <ele>64.3</ele>
        <time>2021-05-27T13:54:27Z</time>
      </trkpt>
      <trkpt lat="47.6952" lon="-2.24777">
        <ele>64.2</ele>
        <time>2021-05-27T13:54:28Z</time>
      </trkpt>
      <trkpt lat="47.69521" lon="-2.24782">
        <ele>64.3</ele>
        <time>2021-05-27T13:54:29Z</time>
      </trkpt>
      <trkpt lat="47.69523" lon="-2.24786">
        <ele>64.5</ele>
        <time>2021-05-27T13:54:30Z</time>
      </trkpt>
      <trkpt lat="47.69525" lon="-2.2479">
        <ele>64.6</ele>
        <time>2021-05-27T13:54:31Z</time>
      </trkpt>
      <trkpt lat="47.69527" lon="-2.24794">
        <ele>64.7</ele>
        <time>2021-05-27T13:54:32Z</time>
      </trkpt>
      <trkpt lat="47.69528" lon="-2.24798">
        <ele>64.8</ele>
        <time>2021-05-27T13:54:33Z</time>
      </trkpt>
      <trkpt lat="47.69529" lon="-2.24801">
        <ele>64.9</ele>
        <time>2021-05-27T13:54:34Z</time>
      </trkpt>
      <trkpt lat="47.69531" lon="-2.24805">
        <ele>65.1</ele>
        <time>2021-05-27T13:54:35Z</time>
      </trkpt>
      <trkpt lat="47.69533" lon="-2.24808">
        <ele>65.2</ele>
        <time>2021-05-27T13:54:36Z</time>
      </trkpt>
      <trkpt lat="47.69535" lon="-2.2481">
        <ele>65.4</ele>
        <time>2021-05-27T13:54:37Z</time>
      </trkpt>
      <trkpt lat="47.69538" lon="-2.24812">
        <ele>65.6</ele>
        <time>2021-05-27T13:54:38Z</time>
      </trkpt>
      <trkpt lat="47.69539" lon="-2.24814">
        <ele>65.8</ele>
        <time>2021-05-27T13:54:39Z</time>
      </trkpt>
      <trkpt lat="47.69539" lon="-2.24819">
        <ele>65.8</ele>
        <time>2021-05-27T13:54:40Z</time>
      </trkpt>
      <trkpt lat="47.69539" lon="-2.24822">
        <ele>65.8</ele>
        <time>2021-05-27T13:54:41Z</time>
      </trkpt>
      <trkpt lat="47.6954" lon="-2.24826">
        <ele>65.8</ele>
        <time>2021-05-27T13:54:42Z</time>
      </trkpt>
      <trkpt lat="47.69541" lon="-2.24829">
        <ele>66</ele>
        <time>2021-05-27T13:54:43Z</time>
      </trkpt>
      <trkpt lat="47.69542" lon="-2.24832">
        <ele>66.1</ele>
        <time>2021-05-27T13:54:44Z</time>
      </trkpt>
      <trkpt lat="47.69543" lon="-2.24836">
        <ele>66.1</ele>
        <time>2021-05-27T13:54:45Z</time>
      </trkpt>
      <trkpt lat="47.69543" lon="-2.2484">
        <ele>66.1</ele>
        <time>2021-05-27T13:54:46Z</time>
      </trkpt>
      <trkpt lat="47.69543" lon="-2.24844">
        <ele>66.1</ele>
        <time>2021-05-27T13:54:47Z</time>
      </trkpt>
      <trkpt lat="47.69543" lon="-2.24849">
        <ele>66.1</ele>
        <time>2021-05-27T13:54:48Z</time>
      </trkpt>
      <trkpt lat="47.69542" lon="-2.24853">
        <ele>66</ele>
        <time>2021-05-27T13:54:49Z</time>
      </trkpt>
      <trkpt lat="47.6954" lon="-2.24856">
        <ele>65.9</ele>
        <time>2021-05-27T13:54:50Z</time>
      </trkpt>
      <trkpt lat="47.6954" lon="-2.24859">
        <ele>65.8</ele>
        <time>2021-05-27T13:54:51Z</time>
      </trkpt>
      <trkpt lat="47.6954" lon="-2.24861">
        <ele>65.8</ele>
        <time>2021-05-27T13:54:52Z</time>
      </trkpt>
      <trkpt lat="47.6954" lon="-2.24862">
        <ele>65.9</ele>
        <time>2021-05-27T13:54:53Z</time>
      </trkpt>
      <trkpt lat="47.69541" lon="-2.24862">
        <ele>65.9</ele>
        <time>2021-05-27T13:54:54Z</time>
      </trkpt>
      <trkpt lat="47.69541" lon="-2.24862">
        <ele>65.9</ele>
        <time>2021-05-27T13:54:55Z</time>
      </trkpt>
      <trkpt lat="47.69541" lon="-2.24862">
        <ele>65.9</ele>
        <time>2021-05-27T13:54:56Z</time>
      </trkpt>
      <trkpt lat="47.69541" lon="-2.24862">
        <ele>65.9</ele>
        <time>2021-05-27T13:54:57Z</time>
      </trkpt>
      <trkpt lat="47.69541" lon="-2.24862">
        <ele>65.9</ele>
        <time>2021-05-27T13:54:58Z</time>
      </trkpt>
      <trkpt lat="47.69541" lon="-2.24862">
        <ele>65.9</ele>
        <time>2021-05-27T13:54:59Z</time>
      </trkpt>
      <trkpt lat="47.69542" lon="-2.24867">
        <ele>66</ele>
        <time>2021-05-27T13:55:00Z</time>
      </trkpt>
      <trkpt lat="47.69543" lon="-2.2487">
        <ele>66.1</ele>
        <time>2021-05-27T13:55:01Z</time>
      </trkpt>
      <trkpt lat="47.69544" lon="-2.24873">
        <ele>66.2</ele>
        <time>2021-05-27T13:55:02Z</time>
      </trkpt>
      <trkpt lat="47.69545" lon="-2.24876">
        <ele>66.3</ele>
        <time>2021-05-27T13:55:03Z</time>
      </trkpt>
      <trkpt lat="47.69546" lon="-2.24879">
        <ele>66.3</ele>
        <time>2021-05-27T13:55:04Z</time>
      </trkpt>
      <trkpt lat="47.69545" lon="-2.24881">
        <ele>66.3</ele>
        <time>2021-05-27T13:55:05Z</time>
      </trkpt>
      <trkpt lat="47.69544" lon="-2.24884">
        <ele>66.2</ele>
        <time>2021-05-27T13:55:06Z</time>
      </trkpt>
      <trkpt lat="47.69545" lon="-2.24888">
        <ele>66.2</ele>
        <time>2021-05-27T13:55:07Z</time>
      </trkpt>
      <trkpt lat="47.69545" lon="-2.24891">
        <ele>66.3</ele>
        <time>2021-05-27T13:55:08Z</time>
      </trkpt>
      <trkpt lat="47.69546" lon="-2.24895">
        <ele>66.3</ele>
        <time>2021-05-27T13:55:09Z</time>
      </trkpt>
      <trkpt lat="47.69546" lon="-2.24898">
        <ele>66.3</ele>
        <time>2021-05-27T13:55:10Z</time>
      </trkpt>
      <trkpt lat="47.69546" lon="-2.24903">
        <ele>66.3</ele>
        <time>2021-05-27T13:55:11Z</time>
      </trkpt>
      <trkpt lat="47.69547" lon="-2.24908">
        <ele>66.4</ele>
        <time>2021-05-27T13:55:12Z</time>
      </trkpt>
      <trkpt lat="47.69549" lon="-2.24912">
        <ele>66.6</ele>
        <time>2021-05-27T13:55:13Z</time>
      </trkpt>
      <trkpt lat="47.69552" lon="-2.24916">
        <ele>66.8</ele>
        <time>2021-05-27T13:55:14Z</time>
      </trkpt>
      <trkpt lat="47.69554" lon="-2.2492">
        <ele>66.8</ele>
        <time>2021-05-27T13:55:15Z</time>
      </trkpt>
      <trkpt lat="47.69555" lon="-2.24923">
        <ele>66.8</ele>
        <time>2021-05-27T13:55:16Z</time>
      </trkpt>
      <trkpt lat="47.69556" lon="-2.24927">
        <ele>66.7</ele>
        <time>2021-05-27T13:55:17Z</time>
      </trkpt>
      <trkpt lat="47.69556" lon="-2.24931">
        <ele>66.5</ele>
        <time>2021-05-27T13:55:18Z</time>
      </trkpt>
      <trkpt lat="47.69556" lon="-2.24935">
        <ele>66.4</ele>
        <time>2021-05-27T13:55:19Z</time>
      </trkpt>
      <trkpt lat="47.69556" lon="-2.24938">
        <ele>66.4</ele>
        <time>2021-05-27T13:55:20Z</time>
      </trkpt>
      <trkpt lat="47.69557" lon="-2.24942">
        <ele>66.3</ele>
        <time>2021-05-27T13:55:21Z</time>
      </trkpt>
      <trkpt lat="47.69558" lon="-2.24946">
        <ele>66.2</ele>
        <time>2021-05-27T13:55:22Z</time>
      </trkpt>
      <trkpt lat="47.69558" lon="-2.24951">
        <ele>66</ele>
        <time>2021-05-27T13:55:23Z</time>
      </trkpt>
      <trkpt lat="47.69558" lon="-2.24957">
        <ele>65.9</ele>
        <time>2021-05-27T13:55:24Z</time>
      </trkpt>
      <trkpt lat="47.69559" lon="-2.24963">
        <ele>65.7</ele>
        <time>2021-05-27T13:55:25Z</time>
      </trkpt>
      <trkpt lat="47.6956" lon="-2.24969">
        <ele>65.6</ele>
        <time>2021-05-27T13:55:26Z</time>
      </trkpt>
      <trkpt lat="47.69561" lon="-2.24976">
        <ele>65.5</ele>
        <time>2021-05-27T13:55:27Z</time>
      </trkpt>
      <trkpt lat="47.69561" lon="-2.24982">
        <ele>65.3</ele>
        <time>2021-05-27T13:55:28Z</time>
      </trkpt>
      <trkpt lat="47.69562" lon="-2.24988">
        <ele>65.1</ele>
        <time>2021-05-27T13:55:29Z</time>
      </trkpt>
      <trkpt lat="47.69561" lon="-2.24993">
        <ele>64.9</ele>
        <time>2021-05-27T13:55:30Z</time>
      </trkpt>
      <trkpt lat="47.69559" lon="-2.24999">
        <ele>64.6</ele>
        <time>2021-05-27T13:55:31Z</time>
      </trkpt>
      <trkpt lat="47.69558" lon="-2.25004">
        <ele>64.5</ele>
        <time>2021-05-27T13:55:32Z</time>
      </trkpt>
      <trkpt lat="47.69555" lon="-2.25009">
        <ele>64.3</ele>
        <time>2021-05-27T13:55:33Z</time>
      </trkpt>
      <trkpt lat="47.69553" lon="-2.25015">
        <ele>64.1</ele>
        <time>2021-05-27T13:55:34Z</time>
      </trkpt>
      <trkpt lat="47.6955" lon="-2.2502">
        <ele>63.9</ele>
        <time>2021-05-27T13:55:35Z</time>
      </trkpt>
      <trkpt lat="47.69548" lon="-2.25026">
        <ele>63.7</ele>
        <time>2021-05-27T13:55:36Z</time>
      </trkpt>
      <trkpt lat="47.69547" lon="-2.25032">
        <ele>63.6</ele>
        <time>2021-05-27T13:55:37Z</time>
      </trkpt>
      <trkpt lat="47.69548" lon="-2.25037">
        <ele>63.6</ele>
        <time>2021-05-27T13:55:38Z</time>
      </trkpt>
      <trkpt lat="47.6955" lon="-2.25041">
        <ele>63.7</ele>
        <time>2021-05-27T13:55:39Z</time>
      </trkpt>
      <trkpt lat="47.69553" lon="-2.25045">
        <ele>63.9</ele>
        <time>2021-05-27T13:55:40Z</time>
      </trkpt>
      <trkpt lat="47.69555" lon="-2.25049">
        <ele>64.1</ele>
        <time>2021-05-27T13:55:41Z</time>
      </trkpt>
      <trkpt lat="47.69557" lon="-2.25052">
        <ele>64.2</ele>
        <time>2021-05-27T13:55:42Z</time>
      </trkpt>
      <trkpt lat="47.69558" lon="-2.25055">
        <ele>64.4</ele>
        <time>2021-05-27T13:55:43Z</time>
      </trkpt>
      <trkpt lat="47.69559" lon="-2.25058">
        <ele>64.4</ele>
        <time>2021-05-27T13:55:44Z</time>
      </trkpt>
      <trkpt lat="47.69559" lon="-2.25061">
        <ele>64.4</ele>
        <time>2021-05-27T13:55:45Z</time>
      </trkpt>
      <trkpt lat="47.69559" lon="-2.25065">
        <ele>64.4</ele>
        <time>2021-05-27T13:55:46Z</time>
      </trkpt>
      <trkpt lat="47.69559" lon="-2.25069">
        <ele>64.4</ele>
        <time>2021-05-27T13:55:47Z</time>
      </trkpt>
      <trkpt lat="47.69558" lon="-2.25071">
        <ele>64.3</ele>
        <time>2021-05-27T13:55:48Z</time>
      </trkpt>
      <trkpt lat="47.69557" lon="-2.25071">
        <ele>64.2</ele>
        <time>2021-05-27T13:55:49Z</time>
      </trkpt>
      <trkpt lat="47.69554" lon="-2.2507">
        <ele>63.9</ele>
        <time>2021-05-27T13:55:50Z</time>
      </trkpt>
      <trkpt lat="47.69551" lon="-2.25069">
        <ele>63.6</ele>
        <time>2021-05-27T13:55:51Z</time>
      </trkpt>
      <trkpt lat="47.69548" lon="-2.25068">
        <ele>63.3</ele>
        <time>2021-05-27T13:55:52Z</time>
      </trkpt>
      <trkpt lat="47.69546" lon="-2.25069">
        <ele>63.1</ele>
        <time>2021-05-27T13:55:53Z</time>
      </trkpt>
      <trkpt lat="47.69544" lon="-2.25072">
        <ele>62.9</ele>
        <time>2021-05-27T13:55:54Z</time>
      </trkpt>
      <trkpt lat="47.69542" lon="-2.25074">
        <ele>62.7</ele>
        <time>2021-05-27T13:55:55Z</time>
      </trkpt>
      <trkpt lat="47.6954" lon="-2.25077">
        <ele>62.4</ele>
        <time>2021-05-27T13:55:56Z</time>
      </trkpt>
      <trkpt lat="47.69539" lon="-2.25081">
        <ele>62.2</ele>
        <time>2021-05-27T13:55:57Z</time>
      </trkpt>
      <trkpt lat="47.69538" lon="-2.25084">
        <ele>62.1</ele>
        <time>2021-05-27T13:55:58Z</time>
      </trkpt>
      <trkpt lat="47.69537" lon="-2.25088">
        <ele>61.9</ele>
        <time>2021-05-27T13:55:59Z</time>
      </trkpt>
      <trkpt lat="47.69536" lon="-2.25091">
        <ele>61.6</ele>
        <time>2021-05-27T13:56:00Z</time>
      </trkpt>
      <trkpt lat="47.69534" lon="-2.25095">
        <ele>61.4</ele>
        <time>2021-05-27T13:56:01Z</time>
      </trkpt>
      <trkpt lat="47.69535" lon="-2.25101">
        <ele>61.3</ele>
        <time>2021-05-27T13:56:02Z</time>
      </trkpt>
      <trkpt lat="47.69536" lon="-2.25105">
        <ele>61.3</ele>
        <time>2021-05-27T13:56:03Z</time>
      </trkpt>
      <trkpt lat="47.69538" lon="-2.2511">
        <ele>61.3</ele>
        <time>2021-05-27T13:56:04Z</time>
      </trkpt>
      <trkpt lat="47.6954" lon="-2.25114">
        <ele>61.5</ele>
        <time>2021-05-27T13:56:05Z</time>
      </trkpt>
      <trkpt lat="47.69543" lon="-2.25116">
        <ele>61.7</ele>
        <time>2021-05-27T13:56:06Z</time>
      </trkpt>
      <trkpt lat="47.69546" lon="-2.25118">
        <ele>61.9</ele>
        <time>2021-05-27T13:56:07Z</time>
      </trkpt>
      <trkpt lat="47.69548" lon="-2.25121">
        <ele>62</ele>
        <time>2021-05-27T13:56:08Z</time>
      </trkpt>
      <trkpt lat="47.6955" lon="-2.25124">
        <ele>62.2</ele>
        <time>2021-05-27T13:56:09Z</time>
      </trkpt>
      <trkpt lat="47.69553" lon="-2.25128">
        <ele>62.3</ele>
        <time>2021-05-27T13:56:10Z</time>
      </trkpt>
      <trkpt lat="47.69556" lon="-2.25131">
        <ele>62.5</ele>
        <time>2021-05-27T13:56:11Z</time>
      </trkpt>
      <trkpt lat="47.69559" lon="-2.25134">
        <ele>62.7</ele>
        <time>2021-05-27T13:56:12Z</time>
      </trkpt>
      <trkpt lat="47.69562" lon="-2.25137">
        <ele>62.9</ele>
        <time>2021-05-27T13:56:13Z</time>
      </trkpt>
      <trkpt lat="47.69566" lon="-2.25138">
        <ele>63.3</ele>
        <time>2021-05-27T13:56:14Z</time>
      </trkpt>
      <trkpt lat="47.69569" lon="-2.25138">
        <ele>63.6</ele>
        <time>2021-05-27T13:56:15Z</time>
      </trkpt>
      <trkpt lat="47.69573" lon="-2.2514">
        <ele>63.9</ele>
        <time>2021-05-27T13:56:16Z</time>
      </trkpt>
      <trkpt lat="47.69576" lon="-2.25143">
        <ele>64.1</ele>
        <time>2021-05-27T13:56:17Z</time>
      </trkpt>
      <trkpt lat="47.69579" lon="-2.25146">
        <ele>64.3</ele>
        <time>2021-05-27T13:56:18Z</time>
      </trkpt>
      <trkpt lat="47.69582" lon="-2.25148">
        <ele>64.5</ele>
        <time>2021-05-27T13:56:19Z</time>
      </trkpt>
      <trkpt lat="47.69584" lon="-2.25151">
        <ele>64.6</ele>
        <time>2021-05-27T13:56:20Z</time>
      </trkpt>
      <trkpt lat="47.69587" lon="-2.25154">
        <ele>64.6</ele>
        <time>2021-05-27T13:56:21Z</time>
      </trkpt>
      <trkpt lat="47.6959" lon="-2.25154">
        <ele>64.7</ele>
        <time>2021-05-27T13:56:22Z</time>
      </trkpt>
      <trkpt lat="47.69593" lon="-2.25155">
        <ele>64.7</ele>
        <time>2021-05-27T13:56:23Z</time>
      </trkpt>
      <trkpt lat="47.69595" lon="-2.25158">
        <ele>64.7</ele>
        <time>2021-05-27T13:56:24Z</time>
      </trkpt>
      <trkpt lat="47.69596" lon="-2.25161">
        <ele>64.7</ele>
        <time>2021-05-27T13:56:25Z</time>
      </trkpt>
      <trkpt lat="47.69598" lon="-2.25165">
        <ele>64.6</ele>
        <time>2021-05-27T13:56:26Z</time>
      </trkpt>
      <trkpt lat="47.69599" lon="-2.2517">
        <ele>64.4</ele>
        <time>2021-05-27T13:56:27Z</time>
      </trkpt>
      <trkpt lat="47.69599" lon="-2.25174">
        <ele>64.2</ele>
        <time>2021-05-27T13:56:28Z</time>
      </trkpt>
      <trkpt lat="47.696" lon="-2.25177">
        <ele>64.1</ele>
        <time>2021-05-27T13:56:29Z</time>
      </trkpt>
      <trkpt lat="47.69601" lon="-2.25181">
        <ele>64</ele>
        <time>2021-05-27T13:56:30Z</time>
      </trkpt>
      <trkpt lat="47.69603" lon="-2.25184">
        <ele>64</ele>
        <time>2021-05-27T13:56:31Z</time>
      </trkpt>
      <trkpt lat="47.69606" lon="-2.25188">
        <ele>63.9</ele>
        <time>2021-05-27T13:56:32Z</time>
      </trkpt>
      <trkpt lat="47.69607" lon="-2.25193">
        <ele>63.8</ele>
        <time>2021-05-27T13:56:33Z</time>
      </trkpt>
      <trkpt lat="47.69609" lon="-2.25197">
        <ele>63.7</ele>
        <time>2021-05-27T13:56:34Z</time>
      </trkpt>
      <trkpt lat="47.69609" lon="-2.25201">
        <ele>63.5</ele>
        <time>2021-05-27T13:56:35Z</time>
      </trkpt>
      <trkpt lat="47.69609" lon="-2.25206">
        <ele>63.3</ele>
        <time>2021-05-27T13:56:36Z</time>
      </trkpt>
      <trkpt lat="47.69608" lon="-2.2521">
        <ele>63.1</ele>
        <time>2021-05-27T13:56:37Z</time>
      </trkpt>
      <trkpt lat="47.69605" lon="-2.25214">
        <ele>62.8</ele>
        <time>2021-05-27T13:56:38Z</time>
      </trkpt>
      <trkpt lat="47.69603" lon="-2.25219">
        <ele>62.5</ele>
        <time>2021-05-27T13:56:39Z</time>
      </trkpt>
      <trkpt lat="47.69602" lon="-2.25224">
        <ele>62.2</ele>
        <time>2021-05-27T13:56:40Z</time>
      </trkpt>
      <trkpt lat="47.69602" lon="-2.25229">
        <ele>62</ele>
        <time>2021-05-27T13:56:41Z</time>
      </trkpt>
      <trkpt lat="47.69603" lon="-2.25233">
        <ele>61.9</ele>
        <time>2021-05-27T13:56:42Z</time>
      </trkpt>
      <trkpt lat="47.69603" lon="-2.25237">
        <ele>61.7</ele>
        <time>2021-05-27T13:56:43Z</time>
      </trkpt>
      <trkpt lat="47.69603" lon="-2.25242">
        <ele>61.5</ele>
        <time>2021-05-27T13:56:44Z</time>
      </trkpt>
      <trkpt lat="47.69602" lon="-2.25246">
        <ele>61.3</ele>
        <time>2021-05-27T13:56:45Z</time>
      </trkpt>
      <trkpt lat="47.696" lon="-2.25249">
        <ele>61.1</ele>
        <time>2021-05-27T13:56:46Z</time>
      </trkpt>
      <trkpt lat="47.69599" lon="-2.25252">
        <ele>60.9</ele>
        <time>2021-05-27T13:56:47Z</time>
      </trkpt>
      <trkpt lat="47.69598" lon="-2.25256">
        <ele>60.8</ele>
        <time>2021-05-27T13:56:48Z</time>
      </trkpt>
      <trkpt lat="47.69596" lon="-2.2526">
        <ele>60.7</ele>
        <time>2021-05-27T13:56:49Z</time>
      </trkpt>
      <trkpt lat="47.69596" lon="-2.25265">
        <ele>60.6</ele>
        <time>2021-05-27T13:56:50Z</time>
      </trkpt>
      <trkpt lat="47.69596" lon="-2.25269">
        <ele>60.6</ele>
        <time>2021-05-27T13:56:51Z</time>
      </trkpt>
      <trkpt lat="47.69596" lon="-2.25273">
        <ele>60.5</ele>
        <time>2021-05-27T13:56:52Z</time>
      </trkpt>
      <trkpt lat="47.69597" lon="-2.25278">
        <ele>60.5</ele>
        <time>2021-05-27T13:56:53Z</time>
      </trkpt>
      <trkpt lat="47.69598" lon="-2.25283">
        <ele>60.5</ele>
        <time>2021-05-27T13:56:54Z</time>
      </trkpt>
      <trkpt lat="47.69598" lon="-2.25288">
        <ele>60.5</ele>
        <time>2021-05-27T13:56:55Z</time>
      </trkpt>
      <trkpt lat="47.69599" lon="-2.25293">
        <ele>60.5</ele>
        <time>2021-05-27T13:56:56Z</time>
      </trkpt>
      <trkpt lat="47.69598" lon="-2.25298">
        <ele>60.4</ele>
        <time>2021-05-27T13:56:57Z</time>
      </trkpt>
      <trkpt lat="47.69598" lon="-2.25303">
        <ele>60.4</ele>
        <time>2021-05-27T13:56:58Z</time>
      </trkpt>
      <trkpt lat="47.69599" lon="-2.25308">
        <ele>60.3</ele>
        <time>2021-05-27T13:56:59Z</time>
      </trkpt>
      <trkpt lat="47.69599" lon="-2.25313">
        <ele>60.3</ele>
        <time>2021-05-27T13:57:00Z</time>
      </trkpt>
      <trkpt lat="47.69599" lon="-2.25319">
        <ele>60.3</ele>
        <time>2021-05-27T13:57:01Z</time>
      </trkpt>
      <trkpt lat="47.69598" lon="-2.25324">
        <ele>60.1</ele>
        <time>2021-05-27T13:57:02Z</time>
      </trkpt>
      <trkpt lat="47.69597" lon="-2.25328">
        <ele>60</ele>
        <time>2021-05-27T13:57:03Z</time>
      </trkpt>
      <trkpt lat="47.69597" lon="-2.25332">
        <ele>60</ele>
        <time>2021-05-27T13:57:04Z</time>
      </trkpt>
      <trkpt lat="47.69599" lon="-2.25336">
        <ele>60</ele>
        <time>2021-05-27T13:57:05Z</time>
      </trkpt>
      <trkpt lat="47.696" lon="-2.25341">
        <ele>60.1</ele>
        <time>2021-05-27T13:57:06Z</time>
      </trkpt>
      <trkpt lat="47.69602" lon="-2.25345">
        <ele>60.1</ele>
        <time>2021-05-27T13:57:07Z</time>
      </trkpt>
      <trkpt lat="47.69604" lon="-2.25349">
        <ele>60.2</ele>
        <time>2021-05-27T13:57:08Z</time>
      </trkpt>
      <trkpt lat="47.69605" lon="-2.25352">
        <ele>60.3</ele>
        <time>2021-05-27T13:57:09Z</time>
      </trkpt>
      <trkpt lat="47.69608" lon="-2.25356">
        <ele>60.4</ele>
        <time>2021-05-27T13:57:10Z</time>
      </trkpt>
      <trkpt lat="47.69609" lon="-2.2536">
        <ele>60.4</ele>
        <time>2021-05-27T13:57:11Z</time>
      </trkpt>
      <trkpt lat="47.6961" lon="-2.25365">
        <ele>60.4</ele>
        <time>2021-05-27T13:57:12Z</time>
      </trkpt>
      <trkpt lat="47.6961" lon="-2.25371">
        <ele>60.3</ele>
        <time>2021-05-27T13:57:13Z</time>
      </trkpt>
      <trkpt lat="47.69611" lon="-2.25377">
        <ele>60.3</ele>
        <time>2021-05-27T13:57:14Z</time>
      </trkpt>
      <trkpt lat="47.69611" lon="-2.25383">
        <ele>60.2</ele>
        <time>2021-05-27T13:57:15Z</time>
      </trkpt>
      <trkpt lat="47.69611" lon="-2.25389">
        <ele>60.1</ele>
        <time>2021-05-27T13:57:16Z</time>
      </trkpt>
      <trkpt lat="47.69611" lon="-2.25395">
        <ele>60</ele>
        <time>2021-05-27T13:57:17Z</time>
      </trkpt>
      <trkpt lat="47.69612" lon="-2.254">
        <ele>60</ele>
        <time>2021-05-27T13:57:18Z</time>
      </trkpt>
      <trkpt lat="47.69613" lon="-2.25406">
        <ele>60.1</ele>
        <time>2021-05-27T13:57:19Z</time>
      </trkpt>
      <trkpt lat="47.69616" lon="-2.2541">
        <ele>60.3</ele>
        <time>2021-05-27T13:57:20Z</time>
      </trkpt>
      <trkpt lat="47.69619" lon="-2.25413">
        <ele>60.5</ele>
        <time>2021-05-27T13:57:21Z</time>
      </trkpt>
      <trkpt lat="47.69622" lon="-2.25417">
        <ele>60.7</ele>
        <time>2021-05-27T13:57:22Z</time>
      </trkpt>
      <trkpt lat="47.69624" lon="-2.25421">
        <ele>60.9</ele>
        <time>2021-05-27T13:57:23Z</time>
      </trkpt>
      <trkpt lat="47.69625" lon="-2.25426">
        <ele>60.9</ele>
        <time>2021-05-27T13:57:24Z</time>
      </trkpt>
      <trkpt lat="47.69624" lon="-2.25431">
        <ele>60.9</ele>
        <time>2021-05-27T13:57:25Z</time>
      </trkpt>
      <trkpt lat="47.69624" lon="-2.25436">
        <ele>60.8</ele>
        <time>2021-05-27T13:57:26Z</time>
      </trkpt>
      <trkpt lat="47.69625" lon="-2.25442">
        <ele>60.9</ele>
        <time>2021-05-27T13:57:27Z</time>
      </trkpt>
      <trkpt lat="47.69627" lon="-2.25447">
        <ele>61</ele>
        <time>2021-05-27T13:57:28Z</time>
      </trkpt>
      <trkpt lat="47.69629" lon="-2.25451">
        <ele>61.2</ele>
        <time>2021-05-27T13:57:29Z</time>
      </trkpt>
      <trkpt lat="47.69631" lon="-2.25454">
        <ele>61.4</ele>
        <time>2021-05-27T13:57:30Z</time>
      </trkpt>
      <trkpt lat="47.69633" lon="-2.25457">
        <ele>61.6</ele>
        <time>2021-05-27T13:57:31Z</time>
      </trkpt>
      <trkpt lat="47.69634" lon="-2.2546">
        <ele>61.6</ele>
        <time>2021-05-27T13:57:32Z</time>
      </trkpt>
      <trkpt lat="47.69633" lon="-2.25465">
        <ele>61.6</ele>
        <time>2021-05-27T13:57:33Z</time>
      </trkpt>
      <trkpt lat="47.69633" lon="-2.25469">
        <ele>61.5</ele>
        <time>2021-05-27T13:57:34Z</time>
      </trkpt>
      <trkpt lat="47.69632" lon="-2.25475">
        <ele>61.4</ele>
        <time>2021-05-27T13:57:35Z</time>
      </trkpt>
      <trkpt lat="47.69632" lon="-2.25479">
        <ele>61.3</ele>
        <time>2021-05-27T13:57:36Z</time>
      </trkpt>
      <trkpt lat="47.69632" lon="-2.25483">
        <ele>61.4</ele>
        <time>2021-05-27T13:57:37Z</time>
      </trkpt>
      <trkpt lat="47.69634" lon="-2.25486">
        <ele>61.5</ele>
        <time>2021-05-27T13:57:38Z</time>
      </trkpt>
      <trkpt lat="47.69635" lon="-2.25489">
        <ele>61.6</ele>
        <time>2021-05-27T13:57:39Z</time>
      </trkpt>
      <trkpt lat="47.69635" lon="-2.25493">
        <ele>61.6</ele>
        <time>2021-05-27T13:57:40Z</time>
      </trkpt>
      <trkpt lat="47.69636" lon="-2.25497">
        <ele>61.7</ele>
        <time>2021-05-27T13:57:41Z</time>
      </trkpt>
      <trkpt lat="47.69636" lon="-2.25501">
        <ele>61.7</ele>
        <time>2021-05-27T13:57:42Z</time>
      </trkpt>
      <trkpt lat="47.69637" lon="-2.25504">
        <ele>61.6</ele>
        <time>2021-05-27T13:57:43Z</time>
      </trkpt>
      <trkpt lat="47.69637" lon="-2.25508">
        <ele>61.5</ele>
        <time>2021-05-27T13:57:44Z</time>
      </trkpt>
      <trkpt lat="47.69638" lon="-2.25512">
        <ele>61.4</ele>
        <time>2021-05-27T13:57:45Z</time>
      </trkpt>
      <trkpt lat="47.69639" lon="-2.25515">
        <ele>61.4</ele>
        <time>2021-05-27T13:57:46Z</time>
      </trkpt>
      <trkpt lat="47.69639" lon="-2.25519">
        <ele>61.3</ele>
        <time>2021-05-27T13:57:47Z</time>
      </trkpt>
      <trkpt lat="47.6964" lon="-2.25523">
        <ele>61.3</ele>
        <time>2021-05-27T13:57:48Z</time>
      </trkpt>
      <trkpt lat="47.6964" lon="-2.25527">
        <ele>61.2</ele>
        <time>2021-05-27T13:57:49Z</time>
      </trkpt>
      <trkpt lat="47.69641" lon="-2.2553">
        <ele>61.2</ele>
        <time>2021-05-27T13:57:50Z</time>
      </trkpt>
      <trkpt lat="47.69643" lon="-2.25532">
        <ele>61.3</ele>
        <time>2021-05-27T13:57:51Z</time>
      </trkpt>
      <trkpt lat="47.69644" lon="-2.25535">
        <ele>61.4</ele>
        <time>2021-05-27T13:57:52Z</time>
      </trkpt>
      <trkpt lat="47.69645" lon="-2.25537">
        <ele>61.5</ele>
        <time>2021-05-27T13:57:53Z</time>
      </trkpt>
      <trkpt lat="47.69647" lon="-2.2554">
        <ele>61.6</ele>
        <time>2021-05-27T13:57:54Z</time>
      </trkpt>
      <trkpt lat="47.69648" lon="-2.25544">
        <ele>61.7</ele>
        <time>2021-05-27T13:57:55Z</time>
      </trkpt>
      <trkpt lat="47.6965" lon="-2.25547">
        <ele>61.7</ele>
        <time>2021-05-27T13:57:56Z</time>
      </trkpt>
      <trkpt lat="47.69652" lon="-2.25551">
        <ele>61.9</ele>
        <time>2021-05-27T13:57:57Z</time>
      </trkpt>
      <trkpt lat="47.69653" lon="-2.25553">
        <ele>62</ele>
        <time>2021-05-27T13:57:58Z</time>
      </trkpt>
      <trkpt lat="47.69655" lon="-2.25557">
        <ele>62</ele>
        <time>2021-05-27T13:57:59Z</time>
      </trkpt>
      <trkpt lat="47.69656" lon="-2.2556">
        <ele>62.1</ele>
        <time>2021-05-27T13:58:00Z</time>
      </trkpt>
      <trkpt lat="47.69656" lon="-2.25564">
        <ele>62.1</ele>
        <time>2021-05-27T13:58:01Z</time>
      </trkpt>
      <trkpt lat="47.69657" lon="-2.25567">
        <ele>62.1</ele>
        <time>2021-05-27T13:58:02Z</time>
      </trkpt>
      <trkpt lat="47.69657" lon="-2.2557">
        <ele>61.9</ele>
        <time>2021-05-27T13:58:03Z</time>
      </trkpt>
      <trkpt lat="47.69656" lon="-2.25572">
        <ele>61.7</ele>
        <time>2021-05-27T13:58:04Z</time>
      </trkpt>
      <trkpt lat="47.69655" lon="-2.25574">
        <ele>61.5</ele>
        <time>2021-05-27T13:58:05Z</time>
      </trkpt>
      <trkpt lat="47.69653" lon="-2.25577">
        <ele>61.3</ele>
        <time>2021-05-27T13:58:06Z</time>
      </trkpt>
      <trkpt lat="47.69652" lon="-2.25581">
        <ele>61</ele>
        <time>2021-05-27T13:58:07Z</time>
      </trkpt>
      <trkpt lat="47.69652" lon="-2.25584">
        <ele>60.9</ele>
        <time>2021-05-27T13:58:08Z</time>
      </trkpt>
      <trkpt lat="47.69653" lon="-2.25589">
        <ele>60.8</ele>
        <time>2021-05-27T13:58:09Z</time>
      </trkpt>
      <trkpt lat="47.69653" lon="-2.25594">
        <ele>60.7</ele>
        <time>2021-05-27T13:58:10Z</time>
      </trkpt>
      <trkpt lat="47.69654" lon="-2.25599">
        <ele>60.5</ele>
        <time>2021-05-27T13:58:11Z</time>
      </trkpt>
      <trkpt lat="47.69655" lon="-2.25604">
        <ele>60.5</ele>
        <time>2021-05-27T13:58:12Z</time>
      </trkpt>
      <trkpt lat="47.69658" lon="-2.2561">
        <ele>60.7</ele>
        <time>2021-05-27T13:58:13Z</time>
      </trkpt>
      <trkpt lat="47.6966" lon="-2.25614">
        <ele>60.9</ele>
        <time>2021-05-27T13:58:14Z</time>
      </trkpt>
      <trkpt lat="47.69662" lon="-2.25617">
        <ele>61</ele>
        <time>2021-05-27T13:58:15Z</time>
      </trkpt>
      <trkpt lat="47.69663" lon="-2.25621">
        <ele>61.1</ele>
        <time>2021-05-27T13:58:16Z</time>
      </trkpt>
      <trkpt lat="47.69665" lon="-2.25623">
        <ele>61.3</ele>
        <time>2021-05-27T13:58:17Z</time>
      </trkpt>
      <trkpt lat="47.69667" lon="-2.25626">
        <ele>61.5</ele>
        <time>2021-05-27T13:58:18Z</time>
      </trkpt>
      <trkpt lat="47.69668" lon="-2.25628">
        <ele>61.6</ele>
        <time>2021-05-27T13:58:19Z</time>
      </trkpt>
      <trkpt lat="47.69669" lon="-2.25631">
        <ele>61.6</ele>
        <time>2021-05-27T13:58:20Z</time>
      </trkpt>
      <trkpt lat="47.69669" lon="-2.25634">
        <ele>61.5</ele>
        <time>2021-05-27T13:58:21Z</time>
      </trkpt>
      <trkpt lat="47.69669" lon="-2.25638">
        <ele>61.3</ele>
        <time>2021-05-27T13:58:22Z</time>
      </trkpt>
      <trkpt lat="47.69668" lon="-2.25642">
        <ele>61</ele>
        <time>2021-05-27T13:58:23Z</time>
      </trkpt>
      <trkpt lat="47.69667" lon="-2.25646">
        <ele>60.8</ele>
        <time>2021-05-27T13:58:24Z</time>
      </trkpt>
      <trkpt lat="47.69666" lon="-2.25649">
        <ele>60.5</ele>
        <time>2021-05-27T13:58:25Z</time>
      </trkpt>
      <trkpt lat="47.69666" lon="-2.25654">
        <ele>60.4</ele>
        <time>2021-05-27T13:58:26Z</time>
      </trkpt>
      <trkpt lat="47.69667" lon="-2.25658">
        <ele>60.3</ele>
        <time>2021-05-27T13:58:27Z</time>
      </trkpt>
      <trkpt lat="47.69667" lon="-2.25662">
        <ele>60.2</ele>
        <time>2021-05-27T13:58:28Z</time>
      </trkpt>
      <trkpt lat="47.69667" lon="-2.25667">
        <ele>60.1</ele>
        <time>2021-05-27T13:58:29Z</time>
      </trkpt>
      <trkpt lat="47.69668" lon="-2.25671">
        <ele>60</ele>
        <time>2021-05-27T13:58:30Z</time>
      </trkpt>
      <trkpt lat="47.69668" lon="-2.25676">
        <ele>60</ele>
        <time>2021-05-27T13:58:31Z</time>
      </trkpt>
      <trkpt lat="47.6967" lon="-2.25681">
        <ele>60.1</ele>
        <time>2021-05-27T13:58:32Z</time>
      </trkpt>
      <trkpt lat="47.69671" lon="-2.25685">
        <ele>60.2</ele>
        <time>2021-05-27T13:58:33Z</time>
      </trkpt>
      <trkpt lat="47.69672" lon="-2.25689">
        <ele>60.2</ele>
        <time>2021-05-27T13:58:34Z</time>
      </trkpt>
      <trkpt lat="47.69674" lon="-2.25694">
        <ele>60.3</ele>
        <time>2021-05-27T13:58:35Z</time>
      </trkpt>
      <trkpt lat="47.69675" lon="-2.25698">
        <ele>60.4</ele>
        <time>2021-05-27T13:58:36Z</time>
      </trkpt>
      <trkpt lat="47.69678" lon="-2.257">
        <ele>60.6</ele>
        <time>2021-05-27T13:58:37Z</time>
      </trkpt>
      <trkpt lat="47.6968" lon="-2.257">
        <ele>61</ele>
        <time>2021-05-27T13:58:38Z</time>
      </trkpt>
      <trkpt lat="47.69681" lon="-2.25702">
        <ele>61.1</ele>
        <time>2021-05-27T13:58:39Z</time>
      </trkpt>
      <trkpt lat="47.69682" lon="-2.25704">
        <ele>61.2</ele>
        <time>2021-05-27T13:58:40Z</time>
      </trkpt>
      <trkpt lat="47.69683" lon="-2.25707">
        <ele>61.1</ele>
        <time>2021-05-27T13:58:41Z</time>
      </trkpt>
      <trkpt lat="47.69683" lon="-2.25712">
        <ele>61.1</ele>
        <time>2021-05-27T13:58:42Z</time>
      </trkpt>
      <trkpt lat="47.69684" lon="-2.25716">
        <ele>61.1</ele>
        <time>2021-05-27T13:58:43Z</time>
      </trkpt>
      <trkpt lat="47.69685" lon="-2.25721">
        <ele>61.2</ele>
        <time>2021-05-27T13:58:44Z</time>
      </trkpt>
      <trkpt lat="47.69686" lon="-2.25725">
        <ele>61.2</ele>
        <time>2021-05-27T13:58:45Z</time>
      </trkpt>
      <trkpt lat="47.69687" lon="-2.2573">
        <ele>61.2</ele>
        <time>2021-05-27T13:58:46Z</time>
      </trkpt>
      <trkpt lat="47.69688" lon="-2.25735">
        <ele>61.2</ele>
        <time>2021-05-27T13:58:47Z</time>
      </trkpt>
      <trkpt lat="47.6969" lon="-2.25739">
        <ele>61.3</ele>
        <time>2021-05-27T13:58:48Z</time>
      </trkpt>
      <trkpt lat="47.69692" lon="-2.25743">
        <ele>61.5</ele>
        <time>2021-05-27T13:58:49Z</time>
      </trkpt>
      <trkpt lat="47.69694" lon="-2.25746">
        <ele>61.7</ele>
        <time>2021-05-27T13:58:50Z</time>
      </trkpt>
      <trkpt lat="47.69695" lon="-2.25749">
        <ele>61.8</ele>
        <time>2021-05-27T13:58:51Z</time>
      </trkpt>
      <trkpt lat="47.69697" lon="-2.25754">
        <ele>61.8</ele>
        <time>2021-05-27T13:58:52Z</time>
      </trkpt>
      <trkpt lat="47.69699" lon="-2.25758">
        <ele>62</ele>
        <time>2021-05-27T13:58:53Z</time>
      </trkpt>
      <trkpt lat="47.69701" lon="-2.25762">
        <ele>62</ele>
        <time>2021-05-27T13:58:54Z</time>
      </trkpt>
      <trkpt lat="47.69702" lon="-2.25766">
        <ele>62.1</ele>
        <time>2021-05-27T13:58:55Z</time>
      </trkpt>
      <trkpt lat="47.69702" lon="-2.2577">
        <ele>61.9</ele>
        <time>2021-05-27T13:58:56Z</time>
      </trkpt>
      <trkpt lat="47.69701" lon="-2.25774">
        <ele>61.7</ele>
        <time>2021-05-27T13:58:57Z</time>
      </trkpt>
      <trkpt lat="47.697" lon="-2.25776">
        <ele>61.4</ele>
        <time>2021-05-27T13:58:58Z</time>
      </trkpt>
      <trkpt lat="47.69698" lon="-2.25777">
        <ele>61.1</ele>
        <time>2021-05-27T13:58:59Z</time>
      </trkpt>
      <trkpt lat="47.69696" lon="-2.25779">
        <ele>60.8</ele>
        <time>2021-05-27T13:59:00Z</time>
      </trkpt>
      <trkpt lat="47.69695" lon="-2.25782">
        <ele>60.6</ele>
        <time>2021-05-27T13:59:01Z</time>
      </trkpt>
      <trkpt lat="47.69695" lon="-2.25785">
        <ele>60.4</ele>
        <time>2021-05-27T13:59:02Z</time>
      </trkpt>
      <trkpt lat="47.69695" lon="-2.25788">
        <ele>60.3</ele>
        <time>2021-05-27T13:59:03Z</time>
      </trkpt>
      <trkpt lat="47.69696" lon="-2.25792">
        <ele>60.3</ele>
        <time>2021-05-27T13:59:04Z</time>
      </trkpt>
      <trkpt lat="47.69697" lon="-2.25796">
        <ele>60.3</ele>
        <time>2021-05-27T13:59:05Z</time>
      </trkpt>
      <trkpt lat="47.69698" lon="-2.25801">
        <ele>60.3</ele>
        <time>2021-05-27T13:59:06Z</time>
      </trkpt>
      <trkpt lat="47.69698" lon="-2.25805">
        <ele>60.2</ele>
        <time>2021-05-27T13:59:07Z</time>
      </trkpt>
      <trkpt lat="47.69698" lon="-2.25811">
        <ele>60</ele>
        <time>2021-05-27T13:59:08Z</time>
      </trkpt>
      <trkpt lat="47.69698" lon="-2.25816">
        <ele>59.8</ele>
        <time>2021-05-27T13:59:09Z</time>
      </trkpt>
      <trkpt lat="47.69698" lon="-2.25821">
        <ele>59.6</ele>
        <time>2021-05-27T13:59:10Z</time>
      </trkpt>
      <trkpt lat="47.69698" lon="-2.25826">
        <ele>59.4</ele>
        <time>2021-05-27T13:59:11Z</time>
      </trkpt>
      <trkpt lat="47.69697" lon="-2.2583">
        <ele>59.1</ele>
        <time>2021-05-27T13:59:12Z</time>
      </trkpt>
      <trkpt lat="47.69695" lon="-2.25835">
        <ele>58.6</ele>
        <time>2021-05-27T13:59:13Z</time>
      </trkpt>
      <trkpt lat="47.69693" lon="-2.2584">
        <ele>58.2</ele>
        <time>2021-05-27T13:59:14Z</time>
      </trkpt>
      <trkpt lat="47.69692" lon="-2.25844">
        <ele>57.8</ele>
        <time>2021-05-27T13:59:15Z</time>
      </trkpt>
      <trkpt lat="47.69692" lon="-2.25848">
        <ele>57.7</ele>
        <time>2021-05-27T13:59:16Z</time>
      </trkpt>
      <trkpt lat="47.69694" lon="-2.25851">
        <ele>57.8</ele>
        <time>2021-05-27T13:59:17Z</time>
      </trkpt>
      <trkpt lat="47.69695" lon="-2.25854">
        <ele>57.9</ele>
        <time>2021-05-27T13:59:18Z</time>
      </trkpt>
      <trkpt lat="47.69697" lon="-2.25857">
        <ele>58</ele>
        <time>2021-05-27T13:59:19Z</time>
      </trkpt>
      <trkpt lat="47.69698" lon="-2.2586">
        <ele>58</ele>
        <time>2021-05-27T13:59:20Z</time>
      </trkpt>
      <trkpt lat="47.697" lon="-2.25863">
        <ele>58.2</ele>
        <time>2021-05-27T13:59:21Z</time>
      </trkpt>
      <trkpt lat="47.69702" lon="-2.25867">
        <ele>58.3</ele>
        <time>2021-05-27T13:59:22Z</time>
      </trkpt>
      <trkpt lat="47.69704" lon="-2.2587">
        <ele>58.4</ele>
        <time>2021-05-27T13:59:23Z</time>
      </trkpt>
      <trkpt lat="47.69705" lon="-2.25875">
        <ele>58.4</ele>
        <time>2021-05-27T13:59:24Z</time>
      </trkpt>
      <trkpt lat="47.69706" lon="-2.25879">
        <ele>58.5</ele>
        <time>2021-05-27T13:59:25Z</time>
      </trkpt>
      <trkpt lat="47.69707" lon="-2.25883">
        <ele>58.6</ele>
        <time>2021-05-27T13:59:26Z</time>
      </trkpt>
      <trkpt lat="47.69709" lon="-2.25885">
        <ele>58.7</ele>
        <time>2021-05-27T13:59:27Z</time>
      </trkpt>
      <trkpt lat="47.69709" lon="-2.25885">
        <ele>58.8</ele>
        <time>2021-05-27T13:59:28Z</time>
      </trkpt>
      <trkpt lat="47.69709" lon="-2.25885">
        <ele>58.8</ele>
        <time>2021-05-27T13:59:29Z</time>
      </trkpt>
      <trkpt lat="47.69709" lon="-2.25885">
        <ele>58.8</ele>
        <time>2021-05-27T13:59:30Z</time>
      </trkpt>
      <trkpt lat="47.69709" lon="-2.25885">
        <ele>58.8</ele>
        <time>2021-05-27T13:59:32Z</time>
      </trkpt>
      <trkpt lat="47.69709" lon="-2.25885">
        <ele>58.8</ele>
        <time>2021-05-27T13:59:33Z</time>
      </trkpt>
      <trkpt lat="47.69709" lon="-2.25885">
        <ele>58.8</ele>
        <time>2021-05-27T13:59:34Z</time>
      </trkpt>
      <trkpt lat="47.69709" lon="-2.25885">
        <ele>58.8</ele>
        <time>2021-05-27T13:59:35Z</time>
      </trkpt>
      <trkpt lat="47.69709" lon="-2.25885">
        <ele>58.8</ele>
        <time>2021-05-27T13:59:36Z</time>
      </trkpt>
      <trkpt lat="47.69709" lon="-2.25885">
        <ele>58.8</ele>
        <time>2021-05-27T13:59:37Z</time>
      </trkpt>
      <trkpt lat="47.69709" lon="-2.25885">
        <ele>58.8</ele>
        <time>2021-05-27T13:59:38Z</time>
      </trkpt>
      <trkpt lat="47.69709" lon="-2.25885">
        <ele>58.8</ele>
        <time>2021-05-27T13:59:39Z</time>
      </trkpt>
      <trkpt lat="47.69709" lon="-2.25885">
        <ele>58.8</ele>
        <time>2021-05-27T13:59:40Z</time>
      </trkpt>
      <trkpt lat="47.69709" lon="-2.25885">
        <ele>58.8</ele>
        <time>2021-05-27T13:59:41Z</time>
      </trkpt>
      <trkpt lat="47.69709" lon="-2.25885">
        <ele>58.8</ele>
        <time>2021-05-27T13:59:42Z</time>
      </trkpt>
      <trkpt lat="47.69709" lon="-2.25885">
        <ele>58.8</ele>
        <time>2021-05-27T13:59:43Z</time>
      </trkpt>
      <trkpt lat="47.69709" lon="-2.25885">
        <ele>58.8</ele>
        <time>2021-05-27T13:59:44Z</time>
      </trkpt>
      <trkpt lat="47.69706" lon="-2.2589">
        <ele>58.1</ele>
        <time>2021-05-27T13:59:45Z</time>
      </trkpt>
      <trkpt lat="47.69704" lon="-2.25892">
        <ele>57.7</ele>
        <time>2021-05-27T13:59:46Z</time>
      </trkpt>
      <trkpt lat="47.69702" lon="-2.25894">
        <ele>57.3</ele>
        <time>2021-05-27T13:59:47Z</time>
      </trkpt>
      <trkpt lat="47.697" lon="-2.25896">
        <ele>56.9</ele>
        <time>2021-05-27T13:59:48Z</time>
      </trkpt>
      <trkpt lat="47.69698" lon="-2.25899">
        <ele>56.3</ele>
        <time>2021-05-27T13:59:49Z</time>
      </trkpt>
      <trkpt lat="47.69695" lon="-2.25901">
        <ele>55.9</ele>
        <time>2021-05-27T13:59:50Z</time>
      </trkpt>
      <trkpt lat="47.69694" lon="-2.25904">
        <ele>55.5</ele>
        <time>2021-05-27T13:59:51Z</time>
      </trkpt>
      <trkpt lat="47.69693" lon="-2.25907">
        <ele>55.1</ele>
        <time>2021-05-27T13:59:52Z</time>
      </trkpt>
      <trkpt lat="47.69692" lon="-2.2591">
        <ele>54.9</ele>
        <time>2021-05-27T13:59:53Z</time>
      </trkpt>
      <trkpt lat="47.69691" lon="-2.25912">
        <ele>54.7</ele>
        <time>2021-05-27T13:59:54Z</time>
      </trkpt>
      <trkpt lat="47.69691" lon="-2.25914">
        <ele>54.4</ele>
        <time>2021-05-27T13:59:55Z</time>
      </trkpt>
      <trkpt lat="47.6969" lon="-2.25917">
        <ele>54.1</ele>
        <time>2021-05-27T13:59:56Z</time>
      </trkpt>
      <trkpt lat="47.69688" lon="-2.2592">
        <ele>53.8</ele>
        <time>2021-05-27T13:59:57Z</time>
      </trkpt>
      <trkpt lat="47.69687" lon="-2.25922">
        <ele>53.4</ele>
        <time>2021-05-27T13:59:58Z</time>
      </trkpt>
      <trkpt lat="47.69685" lon="-2.25922">
        <ele>53.1</ele>
        <time>2021-05-27T13:59:59Z</time>
      </trkpt>
      <trkpt lat="47.69684" lon="-2.25921">
        <ele>52.8</ele>
        <time>2021-05-27T14:00:00Z</time>
      </trkpt>
      <trkpt lat="47.69681" lon="-2.25919">
        <ele>52.6</ele>
        <time>2021-05-27T14:00:01Z</time>
      </trkpt>
      <trkpt lat="47.6968" lon="-2.25916">
        <ele>52.4</ele>
        <time>2021-05-27T14:00:02Z</time>
      </trkpt>
      <trkpt lat="47.69678" lon="-2.25914">
        <ele>52.1</ele>
        <time>2021-05-27T14:00:03Z</time>
      </trkpt>
      <trkpt lat="47.69677" lon="-2.25914">
        <ele>51.9</ele>
        <time>2021-05-27T14:00:04Z</time>
      </trkpt>
      <trkpt lat="47.69676" lon="-2.25915">
        <ele>51.7</ele>
        <time>2021-05-27T14:00:05Z</time>
      </trkpt>
      <trkpt lat="47.69676" lon="-2.25918">
        <ele>51.6</ele>
        <time>2021-05-27T14:00:06Z</time>
      </trkpt>
      <trkpt lat="47.69677" lon="-2.2592">
        <ele>51.7</ele>
        <time>2021-05-27T14:00:07Z</time>
      </trkpt>
      <trkpt lat="47.69678" lon="-2.25924">
        <ele>51.7</ele>
        <time>2021-05-27T14:00:08Z</time>
      </trkpt>
      <trkpt lat="47.69679" lon="-2.25929">
        <ele>51.7</ele>
        <time>2021-05-27T14:00:09Z</time>
      </trkpt>
      <trkpt lat="47.6968" lon="-2.25933">
        <ele>51.6</ele>
        <time>2021-05-27T14:00:10Z</time>
      </trkpt>
      <trkpt lat="47.6968" lon="-2.25936">
        <ele>51.4</ele>
        <time>2021-05-27T14:00:11Z</time>
      </trkpt>
      <trkpt lat="47.69679" lon="-2.2594">
        <ele>51.1</ele>
        <time>2021-05-27T14:00:12Z</time>
      </trkpt>
      <trkpt lat="47.69677" lon="-2.25942">
        <ele>50.7</ele>
        <time>2021-05-27T14:00:13Z</time>
      </trkpt>
      <trkpt lat="47.69675" lon="-2.25942">
        <ele>50.3</ele>
        <time>2021-05-27T14:00:14Z</time>
      </trkpt>
      <trkpt lat="47.69673" lon="-2.25941">
        <ele>50</ele>
        <time>2021-05-27T14:00:15Z</time>
      </trkpt>
      <trkpt lat="47.69671" lon="-2.25939">
        <ele>49.7</ele>
        <time>2021-05-27T14:00:16Z</time>
      </trkpt>
      <trkpt lat="47.69669" lon="-2.25936">
        <ele>49.5</ele>
        <time>2021-05-27T14:00:17Z</time>
      </trkpt>
      <trkpt lat="47.69668" lon="-2.25935">
        <ele>49.3</ele>
        <time>2021-05-27T14:00:18Z</time>
      </trkpt>
      <trkpt lat="47.69666" lon="-2.25935">
        <ele>49.1</ele>
        <time>2021-05-27T14:00:19Z</time>
      </trkpt>
      <trkpt lat="47.69665" lon="-2.25935">
        <ele>49</ele>
        <time>2021-05-27T14:00:20Z</time>
      </trkpt>
      <trkpt lat="47.69665" lon="-2.25937">
        <ele>48.9</ele>
        <time>2021-05-27T14:00:21Z</time>
      </trkpt>
      <trkpt lat="47.69664" lon="-2.25939">
        <ele>48.7</ele>
        <time>2021-05-27T14:00:22Z</time>
      </trkpt>
      <trkpt lat="47.69663" lon="-2.25942">
        <ele>48.5</ele>
        <time>2021-05-27T14:00:23Z</time>
      </trkpt>
      <trkpt lat="47.69662" lon="-2.25945">
        <ele>48.3</ele>
        <time>2021-05-27T14:00:24Z</time>
      </trkpt>
      <trkpt lat="47.69661" lon="-2.25947">
        <ele>48.1</ele>
        <time>2021-05-27T14:00:25Z</time>
      </trkpt>
      <trkpt lat="47.6966" lon="-2.25949">
        <ele>48</ele>
        <time>2021-05-27T14:00:26Z</time>
      </trkpt>
      <trkpt lat="47.69659" lon="-2.25952">
        <ele>47.8</ele>
        <time>2021-05-27T14:00:27Z</time>
      </trkpt>
      <trkpt lat="47.69657" lon="-2.25953">
        <ele>47.6</ele>
        <time>2021-05-27T14:00:28Z</time>
      </trkpt>
      <trkpt lat="47.69655" lon="-2.25952">
        <ele>47.5</ele>
        <time>2021-05-27T14:00:29Z</time>
      </trkpt>
      <trkpt lat="47.69654" lon="-2.25951">
        <ele>47.5</ele>
        <time>2021-05-27T14:00:30Z</time>
      </trkpt>
      <trkpt lat="47.69653" lon="-2.25949">
        <ele>47.5</ele>
        <time>2021-05-27T14:00:31Z</time>
      </trkpt>
      <trkpt lat="47.69652" lon="-2.25947">
        <ele>47.5</ele>
        <time>2021-05-27T14:00:32Z</time>
      </trkpt>
      <trkpt lat="47.69651" lon="-2.25945">
        <ele>47.5</ele>
        <time>2021-05-27T14:00:33Z</time>
      </trkpt>
      <trkpt lat="47.69651" lon="-2.25941">
        <ele>47.5</ele>
        <time>2021-05-27T14:00:34Z</time>
      </trkpt>
      <trkpt lat="47.6965" lon="-2.25938">
        <ele>47.6</ele>
        <time>2021-05-27T14:00:35Z</time>
      </trkpt>
      <trkpt lat="47.6965" lon="-2.25938">
        <ele>47.6</ele>
        <time>2021-05-27T14:00:36Z</time>
      </trkpt>
      <trkpt lat="47.69649" lon="-2.25938">
        <ele>47.5</ele>
        <time>2021-05-27T14:00:37Z</time>
      </trkpt>
      <trkpt lat="47.69647" lon="-2.25938">
        <ele>47.3</ele>
        <time>2021-05-27T14:00:38Z</time>
      </trkpt>
      <trkpt lat="47.69646" lon="-2.25939">
        <ele>47.2</ele>
        <time>2021-05-27T14:00:39Z</time>
      </trkpt>
      <trkpt lat="47.69645" lon="-2.25941">
        <ele>47.1</ele>
        <time>2021-05-27T14:00:40Z</time>
      </trkpt>
      <trkpt lat="47.69644" lon="-2.25942">
        <ele>47</ele>
        <time>2021-05-27T14:00:41Z</time>
      </trkpt>
      <trkpt lat="47.69644" lon="-2.25944">
        <ele>46.9</ele>
        <time>2021-05-27T14:00:42Z</time>
      </trkpt>
      <trkpt lat="47.69644" lon="-2.25945">
        <ele>46.9</ele>
        <time>2021-05-27T14:00:43Z</time>
      </trkpt>
      <trkpt lat="47.69644" lon="-2.25945">
        <ele>46.9</ele>
        <time>2021-05-27T14:00:44Z</time>
      </trkpt>
      <trkpt lat="47.69644" lon="-2.25945">
        <ele>46.9</ele>
        <time>2021-05-27T14:00:45Z</time>
      </trkpt>
      <trkpt lat="47.69644" lon="-2.25945">
        <ele>46.9</ele>
        <time>2021-05-27T14:00:46Z</time>
      </trkpt>
      <trkpt lat="47.69644" lon="-2.25945">
        <ele>46.9</ele>
        <time>2021-05-27T14:00:47Z</time>
      </trkpt>
      <trkpt lat="47.69644" lon="-2.25945">
        <ele>46.9</ele>
        <time>2021-05-27T14:00:48Z</time>
      </trkpt>
      <trkpt lat="47.69644" lon="-2.25945">
        <ele>46.9</ele>
        <time>2021-05-27T14:00:49Z</time>
      </trkpt>
      <trkpt lat="47.69644" lon="-2.25945">
        <ele>46.9</ele>
        <time>2021-05-27T14:00:50Z</time>
      </trkpt>
      <trkpt lat="47.69644" lon="-2.25945">
        <ele>46.9</ele>
        <time>2021-05-27T14:00:51Z</time>
      </trkpt>
      <trkpt lat="47.69644" lon="-2.25945">
        <ele>46.9</ele>
        <time>2021-05-27T14:00:52Z</time>
      </trkpt>
      <trkpt lat="47.69644" lon="-2.25945">
        <ele>46.9</ele>
        <time>2021-05-27T14:00:53Z</time>
      </trkpt>
      <trkpt lat="47.69644" lon="-2.25945">
        <ele>46.9</ele>
        <time>2021-05-27T14:00:54Z</time>
      </trkpt>
      <trkpt lat="47.69644" lon="-2.25945">
        <ele>46.9</ele>
        <time>2021-05-27T14:00:55Z</time>
      </trkpt>
      <trkpt lat="47.69644" lon="-2.25945">
        <ele>46.9</ele>
        <time>2021-05-27T14:00:56Z</time>
      </trkpt>
      <trkpt lat="47.69644" lon="-2.25945">
        <ele>46.9</ele>
        <time>2021-05-27T14:00:57Z</time>
      </trkpt>
      <trkpt lat="47.69644" lon="-2.25945">
        <ele>46.9</ele>
        <time>2021-05-27T14:00:58Z</time>
      </trkpt>
      <trkpt lat="47.69644" lon="-2.25945">
        <ele>46.9</ele>
        <time>2021-05-27T14:00:59Z</time>
      </trkpt>
      <trkpt lat="47.69644" lon="-2.25945">
        <ele>46.9</ele>
        <time>2021-05-27T14:01:00Z</time>
      </trkpt>
      <trkpt lat="47.69644" lon="-2.25945">
        <ele>46.9</ele>
        <time>2021-05-27T14:01:01Z</time>
      </trkpt>
      <trkpt lat="47.69646" lon="-2.25932">
        <ele>47.4</ele>
        <time>2021-05-27T14:01:02Z</time>
      </trkpt>
      <trkpt lat="47.69646" lon="-2.25931">
        <ele>47.4</ele>
        <time>2021-05-27T14:01:03Z</time>
      </trkpt>
      <trkpt lat="47.69646" lon="-2.25931">
        <ele>47.4</ele>
        <time>2021-05-27T14:01:04Z</time>
      </trkpt>
      <trkpt lat="47.69646" lon="-2.25931">
        <ele>47.5</ele>
        <time>2021-05-27T14:01:05Z</time>
      </trkpt>
      <trkpt lat="47.69646" lon="-2.25931">
        <ele>47.5</ele>
        <time>2021-05-27T14:01:06Z</time>
      </trkpt>
      <trkpt lat="47.69646" lon="-2.25931">
        <ele>47.5</ele>
        <time>2021-05-27T14:01:07Z</time>
      </trkpt>
      <trkpt lat="47.69646" lon="-2.25931">
        <ele>47.5</ele>
        <time>2021-05-27T14:01:08Z</time>
      </trkpt>
      <trkpt lat="47.69646" lon="-2.25931">
        <ele>47.5</ele>
        <time>2021-05-27T14:01:09Z</time>
      </trkpt>
      <trkpt lat="47.69646" lon="-2.25931">
        <ele>47.5</ele>
        <time>2021-05-27T14:01:10Z</time>
      </trkpt>
      <trkpt lat="47.69646" lon="-2.25931">
        <ele>47.5</ele>
        <time>2021-05-27T14:01:11Z</time>
      </trkpt>
      <trkpt lat="47.69646" lon="-2.25931">
        <ele>47.5</ele>
        <time>2021-05-27T14:01:12Z</time>
      </trkpt>
      <trkpt lat="47.69644" lon="-2.25924">
        <ele>47.4</ele>
        <time>2021-05-27T14:01:13Z</time>
      </trkpt>
      <trkpt lat="47.69643" lon="-2.25921">
        <ele>47.3</ele>
        <time>2021-05-27T14:01:14Z</time>
      </trkpt>
      <trkpt lat="47.69641" lon="-2.25918">
        <ele>47.2</ele>
        <time>2021-05-27T14:01:15Z</time>
      </trkpt>
      <trkpt lat="47.69641" lon="-2.25916">
        <ele>47.2</ele>
        <time>2021-05-27T14:01:16Z</time>
      </trkpt>
      <trkpt lat="47.69639" lon="-2.25913">
        <ele>47.2</ele>
        <time>2021-05-27T14:01:17Z</time>
      </trkpt>
      <trkpt lat="47.69638" lon="-2.2591">
        <ele>47.3</ele>
        <time>2021-05-27T14:01:18Z</time>
      </trkpt>
      <trkpt lat="47.69637" lon="-2.25908">
        <ele>47.3</ele>
        <time>2021-05-27T14:01:19Z</time>
      </trkpt>
      <trkpt lat="47.69635" lon="-2.25904">
        <ele>47.2</ele>
        <time>2021-05-27T14:01:20Z</time>
      </trkpt>
      <trkpt lat="47.69633" lon="-2.25901">
        <ele>47.2</ele>
        <time>2021-05-27T14:01:21Z</time>
      </trkpt>
      <trkpt lat="47.69631" lon="-2.25897">
        <ele>47.2</ele>
        <time>2021-05-27T14:01:22Z</time>
      </trkpt>
      <trkpt lat="47.6963" lon="-2.25893">
        <ele>47.3</ele>
        <time>2021-05-27T14:01:23Z</time>
      </trkpt>
      <trkpt lat="47.69628" lon="-2.25889">
        <ele>47.3</ele>
        <time>2021-05-27T14:01:24Z</time>
      </trkpt>
      <trkpt lat="47.69627" lon="-2.25886">
        <ele>47.4</ele>
        <time>2021-05-27T14:01:25Z</time>
      </trkpt>
      <trkpt lat="47.69626" lon="-2.25884">
        <ele>47.4</ele>
        <time>2021-05-27T14:01:26Z</time>
      </trkpt>
      <trkpt lat="47.69625" lon="-2.25883">
        <ele>47.3</ele>
        <time>2021-05-27T14:01:43Z</time>
      </trkpt>
      <trkpt lat="47.69625" lon="-2.25884">
        <ele>47.3</ele>
        <time>2021-05-27T14:01:44Z</time>
      </trkpt>
      <trkpt lat="47.69625" lon="-2.25884">
        <ele>47.3</ele>
        <time>2021-05-27T14:01:45Z</time>
      </trkpt>
      <trkpt lat="47.69625" lon="-2.25884">
        <ele>47.3</ele>
        <time>2021-05-27T14:01:46Z</time>
      </trkpt>
      <trkpt lat="47.69625" lon="-2.25884">
        <ele>47.3</ele>
        <time>2021-05-27T14:01:47Z</time>
      </trkpt>
      <trkpt lat="47.69625" lon="-2.25884">
        <ele>47.3</ele>
        <time>2021-05-27T14:01:48Z</time>
      </trkpt>
      <trkpt lat="47.69625" lon="-2.25884">
        <ele>47.3</ele>
        <time>2021-05-27T14:01:49Z</time>
      </trkpt>
      <trkpt lat="47.69625" lon="-2.25884">
        <ele>47.3</ele>
        <time>2021-05-27T14:01:50Z</time>
      </trkpt>
      <trkpt lat="47.69625" lon="-2.25884">
        <ele>47.3</ele>
        <time>2021-05-27T14:01:51Z</time>
      </trkpt>
      <trkpt lat="47.69625" lon="-2.25884">
        <ele>47.3</ele>
        <time>2021-05-27T14:01:52Z</time>
      </trkpt>
      <trkpt lat="47.69625" lon="-2.25884">
        <ele>47.3</ele>
        <time>2021-05-27T14:01:53Z</time>
      </trkpt>
      <trkpt lat="47.69625" lon="-2.25884">
        <ele>47.3</ele>
        <time>2021-05-27T14:01:54Z</time>
      </trkpt>
      <trkpt lat="47.69625" lon="-2.25884">
        <ele>47.3</ele>
        <time>2021-05-27T14:01:55Z</time>
      </trkpt>
      <trkpt lat="47.69625" lon="-2.25884">
        <ele>47.3</ele>
        <time>2021-05-27T14:01:56Z</time>
      </trkpt>
      <trkpt lat="47.69625" lon="-2.25884">
        <ele>47.3</ele>
        <time>2021-05-27T14:01:57Z</time>
      </trkpt>
      <trkpt lat="47.69625" lon="-2.25884">
        <ele>47.3</ele>
        <time>2021-05-27T14:01:58Z</time>
      </trkpt>
      <trkpt lat="47.69625" lon="-2.25884">
        <ele>47.3</ele>
        <time>2021-05-27T14:01:59Z</time>
      </trkpt>
      <trkpt lat="47.69625" lon="-2.25884">
        <ele>47.3</ele>
        <time>2021-05-27T14:02:00Z</time>
      </trkpt>
      <trkpt lat="47.69625" lon="-2.25884">
        <ele>47.3</ele>
        <time>2021-05-27T14:02:01Z</time>
      </trkpt>
      <trkpt lat="47.69625" lon="-2.25884">
        <ele>47.3</ele>
        <time>2021-05-27T14:02:02Z</time>
      </trkpt>
      <trkpt lat="47.69625" lon="-2.25884">
        <ele>47.3</ele>
        <time>2021-05-27T14:02:03Z</time>
      </trkpt>
      <trkpt lat="47.69625" lon="-2.25884">
        <ele>47.3</ele>
        <time>2021-05-27T14:02:04Z</time>
      </trkpt>
      <trkpt lat="47.69625" lon="-2.25884">
        <ele>47.3</ele>
        <time>2021-05-27T14:02:05Z</time>
      </trkpt>
      <trkpt lat="47.69618" lon="-2.25893">
        <ele>46</ele>
        <time>2021-05-27T14:02:06Z</time>
      </trkpt>
      <trkpt lat="47.69617" lon="-2.25893">
        <ele>45.9</ele>
        <time>2021-05-27T14:02:07Z</time>
      </trkpt>
      <trkpt lat="47.69617" lon="-2.25893">
        <ele>45.8</ele>
        <time>2021-05-27T14:02:08Z</time>
      </trkpt>
      <trkpt lat="47.69616" lon="-2.25894">
        <ele>45.8</ele>
        <time>2021-05-27T14:02:09Z</time>
      </trkpt>
      <trkpt lat="47.69616" lon="-2.25894">
        <ele>45.8</ele>
        <time>2021-05-27T14:02:10Z</time>
      </trkpt>
      <trkpt lat="47.69616" lon="-2.25894">
        <ele>45.8</ele>
        <time>2021-05-27T14:02:11Z</time>
      </trkpt>
      <trkpt lat="47.69616" lon="-2.25894">
        <ele>45.8</ele>
        <time>2021-05-27T14:02:12Z</time>
      </trkpt>
      <trkpt lat="47.69616" lon="-2.25894">
        <ele>45.8</ele>
        <time>2021-05-27T14:02:13Z</time>
      </trkpt>
      <trkpt lat="47.69616" lon="-2.25894">
        <ele>45.8</ele>
        <time>2021-05-27T14:02:14Z</time>
      </trkpt>
      <trkpt lat="47.69616" lon="-2.25894">
        <ele>45.8</ele>
        <time>2021-05-27T14:02:15Z</time>
      </trkpt>
      <trkpt lat="47.69616" lon="-2.25894">
        <ele>45.8</ele>
        <time>2021-05-27T14:02:16Z</time>
      </trkpt>
      <trkpt lat="47.69616" lon="-2.25894">
        <ele>45.8</ele>
        <time>2021-05-27T14:02:17Z</time>
      </trkpt>
      <trkpt lat="47.69616" lon="-2.25894">
        <ele>45.8</ele>
        <time>2021-05-27T14:02:18Z</time>
      </trkpt>
      <trkpt lat="47.69616" lon="-2.25894">
        <ele>45.8</ele>
        <time>2021-05-27T14:02:19Z</time>
      </trkpt>
      <trkpt lat="47.69616" lon="-2.25894">
        <ele>45.8</ele>
        <time>2021-05-27T14:02:20Z</time>
      </trkpt>
      <trkpt lat="47.69616" lon="-2.25894">
        <ele>45.8</ele>
        <time>2021-05-27T14:02:21Z</time>
      </trkpt>
      <trkpt lat="47.69616" lon="-2.25894">
        <ele>45.8</ele>
        <time>2021-05-27T14:02:22Z</time>
      </trkpt>
      <trkpt lat="47.69616" lon="-2.25894">
        <ele>45.8</ele>
        <time>2021-05-27T14:02:23Z</time>
      </trkpt>
      <trkpt lat="47.69616" lon="-2.25894">
        <ele>45.8</ele>
        <time>2021-05-27T14:02:24Z</time>
      </trkpt>
      <trkpt lat="47.69616" lon="-2.25894">
        <ele>45.8</ele>
        <time>2021-05-27T14:02:25Z</time>
      </trkpt>
      <trkpt lat="47.69616" lon="-2.25894">
        <ele>45.8</ele>
        <time>2021-05-27T14:02:26Z</time>
      </trkpt>
      <trkpt lat="47.69616" lon="-2.25894">
        <ele>45.8</ele>
        <time>2021-05-27T14:02:27Z</time>
      </trkpt>
      <trkpt lat="47.69616" lon="-2.25894">
        <ele>45.8</ele>
        <time>2021-05-27T14:02:28Z</time>
      </trkpt>
      <trkpt lat="47.69616" lon="-2.25894">
        <ele>45.8</ele>
        <time>2021-05-27T14:02:29Z</time>
      </trkpt>
      <trkpt lat="47.69616" lon="-2.25894">
        <ele>45.8</ele>
        <time>2021-05-27T14:02:30Z</time>
      </trkpt>
      <trkpt lat="47.69616" lon="-2.25894">
        <ele>45.8</ele>
        <time>2021-05-27T14:02:31Z</time>
      </trkpt>
      <trkpt lat="47.69609" lon="-2.25886">
        <ele>45.3</ele>
        <time>2021-05-27T14:02:32Z</time>
      </trkpt>
      <trkpt lat="47.69608" lon="-2.25884">
        <ele>45.4</ele>
        <time>2021-05-27T14:02:33Z</time>
      </trkpt>
      <trkpt lat="47.69608" lon="-2.2588">
        <ele>45.5</ele>
        <time>2021-05-27T14:02:34Z</time>
      </trkpt>
      <trkpt lat="47.69607" lon="-2.25877">
        <ele>45.6</ele>
        <time>2021-05-27T14:02:35Z</time>
      </trkpt>
      <trkpt lat="47.69608" lon="-2.25874">
        <ele>45.8</ele>
        <time>2021-05-27T14:02:36Z</time>
      </trkpt>
      <trkpt lat="47.69608" lon="-2.2587">
        <ele>46</ele>
        <time>2021-05-27T14:02:37Z</time>
      </trkpt>
      <trkpt lat="47.69608" lon="-2.25867">
        <ele>46.2</ele>
        <time>2021-05-27T14:02:38Z</time>
      </trkpt>
      <trkpt lat="47.69607" lon="-2.25863">
        <ele>46.4</ele>
        <time>2021-05-27T14:02:39Z</time>
      </trkpt>
      <trkpt lat="47.69607" lon="-2.25859">
        <ele>46.5</ele>
        <time>2021-05-27T14:02:40Z</time>
      </trkpt>
      <trkpt lat="47.69607" lon="-2.25855">
        <ele>46.7</ele>
        <time>2021-05-27T14:02:41Z</time>
      </trkpt>
      <trkpt lat="47.69607" lon="-2.25851">
        <ele>46.9</ele>
        <time>2021-05-27T14:02:42Z</time>
      </trkpt>
      <trkpt lat="47.69606" lon="-2.25847">
        <ele>47.1</ele>
        <time>2021-05-27T14:02:43Z</time>
      </trkpt>
      <trkpt lat="47.69606" lon="-2.25842">
        <ele>47.3</ele>
        <time>2021-05-27T14:02:44Z</time>
      </trkpt>
      <trkpt lat="47.69606" lon="-2.25836">
        <ele>47.5</ele>
        <time>2021-05-27T14:02:45Z</time>
      </trkpt>
      <trkpt lat="47.69605" lon="-2.25832">
        <ele>47.6</ele>
        <time>2021-05-27T14:02:46Z</time>
      </trkpt>
      <trkpt lat="47.69604" lon="-2.25827">
        <ele>47.6</ele>
        <time>2021-05-27T14:02:47Z</time>
      </trkpt>
      <trkpt lat="47.69604" lon="-2.25823">
        <ele>47.7</ele>
        <time>2021-05-27T14:02:48Z</time>
      </trkpt>
      <trkpt lat="47.69603" lon="-2.25819">
        <ele>47.6</ele>
        <time>2021-05-27T14:02:49Z</time>
      </trkpt>
      <trkpt lat="47.69602" lon="-2.25815">
        <ele>47.6</ele>
        <time>2021-05-27T14:02:50Z</time>
      </trkpt>
      <trkpt lat="47.69602" lon="-2.2581">
        <ele>47.6</ele>
        <time>2021-05-27T14:02:51Z</time>
      </trkpt>
      <trkpt lat="47.69601" lon="-2.25805">
        <ele>47.6</ele>
        <time>2021-05-27T14:02:52Z</time>
      </trkpt>
      <trkpt lat="47.696" lon="-2.25801">
        <ele>47.6</ele>
        <time>2021-05-27T14:02:53Z</time>
      </trkpt>
      <trkpt lat="47.696" lon="-2.25798">
        <ele>47.6</ele>
        <time>2021-05-27T14:02:54Z</time>
      </trkpt>
      <trkpt lat="47.69599" lon="-2.25795">
        <ele>47.6</ele>
        <time>2021-05-27T14:02:55Z</time>
      </trkpt>
      <trkpt lat="47.69599" lon="-2.25792">
        <ele>47.6</ele>
        <time>2021-05-27T14:02:56Z</time>
      </trkpt>
      <trkpt lat="47.69598" lon="-2.25789">
        <ele>47.5</ele>
        <time>2021-05-27T14:02:57Z</time>
      </trkpt>
      <trkpt lat="47.69598" lon="-2.25786">
        <ele>47.5</ele>
        <time>2021-05-27T14:02:58Z</time>
      </trkpt>
      <trkpt lat="47.69597" lon="-2.25783">
        <ele>47.5</ele>
        <time>2021-05-27T14:02:59Z</time>
      </trkpt>
      <trkpt lat="47.69597" lon="-2.2578">
        <ele>47.4</ele>
        <time>2021-05-27T14:03:00Z</time>
      </trkpt>
      <trkpt lat="47.69596" lon="-2.25778">
        <ele>47.5</ele>
        <time>2021-05-27T14:03:01Z</time>
      </trkpt>
      <trkpt lat="47.69596" lon="-2.25774">
        <ele>47.5</ele>
        <time>2021-05-27T14:03:02Z</time>
      </trkpt>
      <trkpt lat="47.69595" lon="-2.25768">
        <ele>47.4</ele>
        <time>2021-05-27T14:03:03Z</time>
      </trkpt>
      <trkpt lat="47.69594" lon="-2.25764">
        <ele>47.4</ele>
        <time>2021-05-27T14:03:04Z</time>
      </trkpt>
      <trkpt lat="47.69594" lon="-2.25759">
        <ele>47.4</ele>
        <time>2021-05-27T14:03:05Z</time>
      </trkpt>
      <trkpt lat="47.69594" lon="-2.25755">
        <ele>47.4</ele>
        <time>2021-05-27T14:03:06Z</time>
      </trkpt>
      <trkpt lat="47.69594" lon="-2.25751">
        <ele>47.5</ele>
        <time>2021-05-27T14:03:07Z</time>
      </trkpt>
      <trkpt lat="47.69593" lon="-2.25748">
        <ele>47.4</ele>
        <time>2021-05-27T14:03:08Z</time>
      </trkpt>
      <trkpt lat="47.69592" lon="-2.25745">
        <ele>47.3</ele>
        <time>2021-05-27T14:03:09Z</time>
      </trkpt>
      <trkpt lat="47.69592" lon="-2.25742">
        <ele>47.3</ele>
        <time>2021-05-27T14:03:10Z</time>
      </trkpt>
      <trkpt lat="47.69592" lon="-2.2574">
        <ele>47.3</ele>
        <time>2021-05-27T14:03:11Z</time>
      </trkpt>
      <trkpt lat="47.69592" lon="-2.25737">
        <ele>47.4</ele>
        <time>2021-05-27T14:03:12Z</time>
      </trkpt>
      <trkpt lat="47.69592" lon="-2.25733">
        <ele>47.4</ele>
        <time>2021-05-27T14:03:13Z</time>
      </trkpt>
      <trkpt lat="47.6959" lon="-2.25728">
        <ele>47.3</ele>
        <time>2021-05-27T14:03:14Z</time>
      </trkpt>
      <trkpt lat="47.69589" lon="-2.25724">
        <ele>47.2</ele>
        <time>2021-05-27T14:03:15Z</time>
      </trkpt>
      <trkpt lat="47.69589" lon="-2.25719">
        <ele>47.2</ele>
        <time>2021-05-27T14:03:16Z</time>
      </trkpt>
      <trkpt lat="47.69588" lon="-2.25716">
        <ele>47.1</ele>
        <time>2021-05-27T14:03:17Z</time>
      </trkpt>
      <trkpt lat="47.69588" lon="-2.25712">
        <ele>47.1</ele>
        <time>2021-05-27T14:03:18Z</time>
      </trkpt>
      <trkpt lat="47.69587" lon="-2.25707">
        <ele>47</ele>
        <time>2021-05-27T14:03:19Z</time>
      </trkpt>
      <trkpt lat="47.69586" lon="-2.25702">
        <ele>47</ele>
        <time>2021-05-27T14:03:20Z</time>
      </trkpt>
      <trkpt lat="47.69586" lon="-2.25698">
        <ele>47</ele>
        <time>2021-05-27T14:03:21Z</time>
      </trkpt>
      <trkpt lat="47.69585" lon="-2.25694">
        <ele>46.9</ele>
        <time>2021-05-27T14:03:22Z</time>
      </trkpt>
      <trkpt lat="47.69585" lon="-2.2569">
        <ele>46.9</ele>
        <time>2021-05-27T14:03:23Z</time>
      </trkpt>
      <trkpt lat="47.69584" lon="-2.25688">
        <ele>46.9</ele>
        <time>2021-05-27T14:03:24Z</time>
      </trkpt>
      <trkpt lat="47.69583" lon="-2.25684">
        <ele>46.8</ele>
        <time>2021-05-27T14:03:25Z</time>
      </trkpt>
      <trkpt lat="47.69582" lon="-2.2568">
        <ele>46.7</ele>
        <time>2021-05-27T14:03:26Z</time>
      </trkpt>
      <trkpt lat="47.69582" lon="-2.25676">
        <ele>46.7</ele>
        <time>2021-05-27T14:03:27Z</time>
      </trkpt>
      <trkpt lat="47.69581" lon="-2.25672">
        <ele>46.7</ele>
        <time>2021-05-27T14:03:28Z</time>
      </trkpt>
      <trkpt lat="47.6958" lon="-2.25666">
        <ele>46.6</ele>
        <time>2021-05-27T14:03:29Z</time>
      </trkpt>
      <trkpt lat="47.69579" lon="-2.25662">
        <ele>46.8</ele>
        <time>2021-05-27T14:03:30Z</time>
      </trkpt>
      <trkpt lat="47.69579" lon="-2.25658">
        <ele>46.9</ele>
        <time>2021-05-27T14:03:31Z</time>
      </trkpt>
      <trkpt lat="47.69579" lon="-2.25654">
        <ele>47.1</ele>
        <time>2021-05-27T14:03:32Z</time>
      </trkpt>
      <trkpt lat="47.69579" lon="-2.25648">
        <ele>47.4</ele>
        <time>2021-05-27T14:03:33Z</time>
      </trkpt>
      <trkpt lat="47.69579" lon="-2.25643">
        <ele>47.6</ele>
        <time>2021-05-27T14:03:34Z</time>
      </trkpt>
      <trkpt lat="47.69578" lon="-2.25637">
        <ele>47.7</ele>
        <time>2021-05-27T14:03:35Z</time>
      </trkpt>
      <trkpt lat="47.69577" lon="-2.25633">
        <ele>47.9</ele>
        <time>2021-05-27T14:03:36Z</time>
      </trkpt>
      <trkpt lat="47.69577" lon="-2.25627">
        <ele>48</ele>
        <time>2021-05-27T14:03:37Z</time>
      </trkpt>
      <trkpt lat="47.69575" lon="-2.25623">
        <ele>48</ele>
        <time>2021-05-27T14:03:38Z</time>
      </trkpt>
      <trkpt lat="47.69574" lon="-2.25618">
        <ele>48.1</ele>
        <time>2021-05-27T14:03:39Z</time>
      </trkpt>
      <trkpt lat="47.69573" lon="-2.25613">
        <ele>48.1</ele>
        <time>2021-05-27T14:03:40Z</time>
      </trkpt>
      <trkpt lat="47.69572" lon="-2.25609">
        <ele>48.2</ele>
        <time>2021-05-27T14:03:41Z</time>
      </trkpt>
      <trkpt lat="47.69571" lon="-2.25603">
        <ele>48.3</ele>
        <time>2021-05-27T14:03:42Z</time>
      </trkpt>
      <trkpt lat="47.69571" lon="-2.25598">
        <ele>48.5</ele>
        <time>2021-05-27T14:03:43Z</time>
      </trkpt>
      <trkpt lat="47.6957" lon="-2.25594">
        <ele>48.7</ele>
        <time>2021-05-27T14:03:44Z</time>
      </trkpt>
      <trkpt lat="47.69569" lon="-2.2559">
        <ele>48.7</ele>
        <time>2021-05-27T14:03:45Z</time>
      </trkpt>
      <trkpt lat="47.69569" lon="-2.25587">
        <ele>48.8</ele>
        <time>2021-05-27T14:03:46Z</time>
      </trkpt>
      <trkpt lat="47.69568" lon="-2.25583">
        <ele>48.8</ele>
        <time>2021-05-27T14:03:47Z</time>
      </trkpt>
      <trkpt lat="47.69567" lon="-2.25579">
        <ele>48.8</ele>
        <time>2021-05-27T14:03:48Z</time>
      </trkpt>
      <trkpt lat="47.69566" lon="-2.25576">
        <ele>48.9</ele>
        <time>2021-05-27T14:03:49Z</time>
      </trkpt>
      <trkpt lat="47.69566" lon="-2.25573">
        <ele>49</ele>
        <time>2021-05-27T14:03:50Z</time>
      </trkpt>
      <trkpt lat="47.69565" lon="-2.2557">
        <ele>49.1</ele>
        <time>2021-05-27T14:03:51Z</time>
      </trkpt>
      <trkpt lat="47.69564" lon="-2.25566">
        <ele>49.2</ele>
        <time>2021-05-27T14:03:52Z</time>
      </trkpt>
      <trkpt lat="47.69564" lon="-2.25562">
        <ele>49.4</ele>
        <time>2021-05-27T14:03:53Z</time>
      </trkpt>
      <trkpt lat="47.69563" lon="-2.25558">
        <ele>49.5</ele>
        <time>2021-05-27T14:03:54Z</time>
      </trkpt>
      <trkpt lat="47.69561" lon="-2.25553">
        <ele>49.5</ele>
        <time>2021-05-27T14:03:55Z</time>
      </trkpt>
      <trkpt lat="47.69561" lon="-2.2555">
        <ele>49.7</ele>
        <time>2021-05-27T14:03:56Z</time>
      </trkpt>
      <trkpt lat="47.6956" lon="-2.25546">
        <ele>49.8</ele>
        <time>2021-05-27T14:03:57Z</time>
      </trkpt>
      <trkpt lat="47.6956" lon="-2.25542">
        <ele>50</ele>
        <time>2021-05-27T14:03:58Z</time>
      </trkpt>
      <trkpt lat="47.6956" lon="-2.25538">
        <ele>50.2</ele>
        <time>2021-05-27T14:03:59Z</time>
      </trkpt>
      <trkpt lat="47.6956" lon="-2.25535">
        <ele>50.4</ele>
        <time>2021-05-27T14:04:00Z</time>
      </trkpt>
      <trkpt lat="47.6956" lon="-2.25531">
        <ele>50.6</ele>
        <time>2021-05-27T14:04:01Z</time>
      </trkpt>
      <trkpt lat="47.69559" lon="-2.25527">
        <ele>50.7</ele>
        <time>2021-05-27T14:04:02Z</time>
      </trkpt>
      <trkpt lat="47.69559" lon="-2.25522">
        <ele>50.9</ele>
        <time>2021-05-27T14:04:03Z</time>
      </trkpt>
      <trkpt lat="47.69558" lon="-2.25518">
        <ele>51</ele>
        <time>2021-05-27T14:04:04Z</time>
      </trkpt>
      <trkpt lat="47.69557" lon="-2.25514">
        <ele>51.2</ele>
        <time>2021-05-27T14:04:05Z</time>
      </trkpt>
      <trkpt lat="47.69557" lon="-2.25511">
        <ele>51.3</ele>
        <time>2021-05-27T14:04:06Z</time>
      </trkpt>
      <trkpt lat="47.69556" lon="-2.25506">
        <ele>51.5</ele>
        <time>2021-05-27T14:04:07Z</time>
      </trkpt>
      <trkpt lat="47.69556" lon="-2.25501">
        <ele>51.6</ele>
        <time>2021-05-27T14:04:08Z</time>
      </trkpt>
      <trkpt lat="47.69556" lon="-2.25496">
        <ele>51.8</ele>
        <time>2021-05-27T14:04:09Z</time>
      </trkpt>
      <trkpt lat="47.69555" lon="-2.25491">
        <ele>51.8</ele>
        <time>2021-05-27T14:04:10Z</time>
      </trkpt>
      <trkpt lat="47.69555" lon="-2.25486">
        <ele>52</ele>
        <time>2021-05-27T14:04:11Z</time>
      </trkpt>
      <trkpt lat="47.69555" lon="-2.25482">
        <ele>52</ele>
        <time>2021-05-27T14:04:12Z</time>
      </trkpt>
      <trkpt lat="47.69554" lon="-2.25477">
        <ele>52</ele>
        <time>2021-05-27T14:04:13Z</time>
      </trkpt>
      <trkpt lat="47.69554" lon="-2.25472">
        <ele>52.1</ele>
        <time>2021-05-27T14:04:14Z</time>
      </trkpt>
      <trkpt lat="47.69553" lon="-2.25468">
        <ele>52.1</ele>
        <time>2021-05-27T14:04:15Z</time>
      </trkpt>
      <trkpt lat="47.69552" lon="-2.25464">
        <ele>52</ele>
        <time>2021-05-27T14:04:16Z</time>
      </trkpt>
      <trkpt lat="47.69551" lon="-2.2546">
        <ele>52</ele>
        <time>2021-05-27T14:04:17Z</time>
      </trkpt>
      <trkpt lat="47.69549" lon="-2.25456">
        <ele>51.9</ele>
        <time>2021-05-27T14:04:18Z</time>
      </trkpt>
      <trkpt lat="47.69548" lon="-2.25452">
        <ele>51.8</ele>
        <time>2021-05-27T14:04:19Z</time>
      </trkpt>
      <trkpt lat="47.69546" lon="-2.25447">
        <ele>51.7</ele>
        <time>2021-05-27T14:04:20Z</time>
      </trkpt>
      <trkpt lat="47.69545" lon="-2.25443">
        <ele>51.7</ele>
        <time>2021-05-27T14:04:21Z</time>
      </trkpt>
      <trkpt lat="47.69544" lon="-2.25438">
        <ele>51.6</ele>
        <time>2021-05-27T14:04:22Z</time>
      </trkpt>
      <trkpt lat="47.69542" lon="-2.25433">
        <ele>51.6</ele>
        <time>2021-05-27T14:04:23Z</time>
      </trkpt>
      <trkpt lat="47.69541" lon="-2.25427">
        <ele>51.6</ele>
        <time>2021-05-27T14:04:24Z</time>
      </trkpt>
      <trkpt lat="47.6954" lon="-2.25423">
        <ele>51.7</ele>
        <time>2021-05-27T14:04:25Z</time>
      </trkpt>
      <trkpt lat="47.6954" lon="-2.25417">
        <ele>51.8</ele>
        <time>2021-05-27T14:04:26Z</time>
      </trkpt>
      <trkpt lat="47.69539" lon="-2.25413">
        <ele>51.9</ele>
        <time>2021-05-27T14:04:27Z</time>
      </trkpt>
      <trkpt lat="47.69538" lon="-2.25408">
        <ele>52.1</ele>
        <time>2021-05-27T14:04:28Z</time>
      </trkpt>
      <trkpt lat="47.69537" lon="-2.25403">
        <ele>52.3</ele>
        <time>2021-05-27T14:04:29Z</time>
      </trkpt>
      <trkpt lat="47.69536" lon="-2.25398">
        <ele>52.4</ele>
        <time>2021-05-27T14:04:30Z</time>
      </trkpt>
      <trkpt lat="47.69535" lon="-2.25392">
        <ele>52.6</ele>
        <time>2021-05-27T14:04:31Z</time>
      </trkpt>
      <trkpt lat="47.69534" lon="-2.25387">
        <ele>52.8</ele>
        <time>2021-05-27T14:04:32Z</time>
      </trkpt>
      <trkpt lat="47.69533" lon="-2.2538">
        <ele>53.2</ele>
        <time>2021-05-27T14:04:33Z</time>
      </trkpt>
      <trkpt lat="47.69531" lon="-2.25373">
        <ele>53.4</ele>
        <time>2021-05-27T14:04:34Z</time>
      </trkpt>
      <trkpt lat="47.6953" lon="-2.25368">
        <ele>53.7</ele>
        <time>2021-05-27T14:04:35Z</time>
      </trkpt>
      <trkpt lat="47.69529" lon="-2.25362">
        <ele>53.9</ele>
        <time>2021-05-27T14:04:36Z</time>
      </trkpt>
      <trkpt lat="47.69527" lon="-2.25355">
        <ele>54.2</ele>
        <time>2021-05-27T14:04:37Z</time>
      </trkpt>
      <trkpt lat="47.69526" lon="-2.2535">
        <ele>54.5</ele>
        <time>2021-05-27T14:04:38Z</time>
      </trkpt>
      <trkpt lat="47.69525" lon="-2.25344">
        <ele>54.8</ele>
        <time>2021-05-27T14:04:39Z</time>
      </trkpt>
      <trkpt lat="47.69524" lon="-2.25339">
        <ele>55.1</ele>
        <time>2021-05-27T14:04:40Z</time>
      </trkpt>
      <trkpt lat="47.69524" lon="-2.25334">
        <ele>55.4</ele>
        <time>2021-05-27T14:04:41Z</time>
      </trkpt>
      <trkpt lat="47.69524" lon="-2.2533">
        <ele>55.6</ele>
        <time>2021-05-27T14:04:42Z</time>
      </trkpt>
      <trkpt lat="47.69525" lon="-2.25326">
        <ele>55.7</ele>
        <time>2021-05-27T14:04:43Z</time>
      </trkpt>
      <trkpt lat="47.69523" lon="-2.25324">
        <ele>55.8</ele>
        <time>2021-05-27T14:04:44Z</time>
      </trkpt>
      <trkpt lat="47.69523" lon="-2.25321">
        <ele>55.8</ele>
        <time>2021-05-27T14:04:45Z</time>
      </trkpt>
      <trkpt lat="47.69522" lon="-2.25318">
        <ele>55.9</ele>
        <time>2021-05-27T14:04:46Z</time>
      </trkpt>
      <trkpt lat="47.69522" lon="-2.25315">
        <ele>56</ele>
        <time>2021-05-27T14:04:47Z</time>
      </trkpt>
      <trkpt lat="47.69521" lon="-2.2531">
        <ele>56.2</ele>
        <time>2021-05-27T14:04:48Z</time>
      </trkpt>
      <trkpt lat="47.6952" lon="-2.25305">
        <ele>56.3</ele>
        <time>2021-05-27T14:04:49Z</time>
      </trkpt>
      <trkpt lat="47.69518" lon="-2.253">
        <ele>56.4</ele>
        <time>2021-05-27T14:04:50Z</time>
      </trkpt>
      <trkpt lat="47.69517" lon="-2.25295">
        <ele>56.6</ele>
        <time>2021-05-27T14:04:51Z</time>
      </trkpt>
      <trkpt lat="47.69516" lon="-2.2529">
        <ele>56.8</ele>
        <time>2021-05-27T14:04:52Z</time>
      </trkpt>
      <trkpt lat="47.69515" lon="-2.25283">
        <ele>57</ele>
        <time>2021-05-27T14:04:53Z</time>
      </trkpt>
      <trkpt lat="47.69514" lon="-2.25277">
        <ele>57.2</ele>
        <time>2021-05-27T14:04:54Z</time>
      </trkpt>
      <trkpt lat="47.69513" lon="-2.25271">
        <ele>57.4</ele>
        <time>2021-05-27T14:04:55Z</time>
      </trkpt>
      <trkpt lat="47.69511" lon="-2.25266">
        <ele>57.6</ele>
        <time>2021-05-27T14:04:56Z</time>
      </trkpt>
      <trkpt lat="47.6951" lon="-2.25261">
        <ele>57.7</ele>
        <time>2021-05-27T14:04:57Z</time>
      </trkpt>
      <trkpt lat="47.69509" lon="-2.25256">
        <ele>57.9</ele>
        <time>2021-05-27T14:04:58Z</time>
      </trkpt>
      <trkpt lat="47.69507" lon="-2.25252">
        <ele>58.1</ele>
        <time>2021-05-27T14:04:59Z</time>
      </trkpt>
      <trkpt lat="47.69506" lon="-2.25247">
        <ele>58.1</ele>
        <time>2021-05-27T14:05:00Z</time>
      </trkpt>
      <trkpt lat="47.69504" lon="-2.25243">
        <ele>58</ele>
        <time>2021-05-27T14:05:01Z</time>
      </trkpt>
      <trkpt lat="47.69504" lon="-2.25239">
        <ele>57.9</ele>
        <time>2021-05-27T14:05:02Z</time>
      </trkpt>
      <trkpt lat="47.69503" lon="-2.25235">
        <ele>57.7</ele>
        <time>2021-05-27T14:05:03Z</time>
      </trkpt>
      <trkpt lat="47.69502" lon="-2.25231">
        <ele>57.6</ele>
        <time>2021-05-27T14:05:04Z</time>
      </trkpt>
      <trkpt lat="47.69501" lon="-2.25226">
        <ele>57.4</ele>
        <time>2021-05-27T14:05:05Z</time>
      </trkpt>
      <trkpt lat="47.695" lon="-2.25221">
        <ele>57.3</ele>
        <time>2021-05-27T14:05:06Z</time>
      </trkpt>
      <trkpt lat="47.69499" lon="-2.25217">
        <ele>57.1</ele>
        <time>2021-05-27T14:05:07Z</time>
      </trkpt>
      <trkpt lat="47.69499" lon="-2.25213">
        <ele>56.9</ele>
        <time>2021-05-27T14:05:08Z</time>
      </trkpt>
      <trkpt lat="47.69498" lon="-2.2521">
        <ele>56.8</ele>
        <time>2021-05-27T14:05:09Z</time>
      </trkpt>
      <trkpt lat="47.69498" lon="-2.25206">
        <ele>56.6</ele>
        <time>2021-05-27T14:05:10Z</time>
      </trkpt>
      <trkpt lat="47.69497" lon="-2.25203">
        <ele>56.4</ele>
        <time>2021-05-27T14:05:11Z</time>
      </trkpt>
      <trkpt lat="47.69496" lon="-2.25199">
        <ele>56.2</ele>
        <time>2021-05-27T14:05:12Z</time>
      </trkpt>
      <trkpt lat="47.69495" lon="-2.25196">
        <ele>56.1</ele>
        <time>2021-05-27T14:05:13Z</time>
      </trkpt>
      <trkpt lat="47.69495" lon="-2.25193">
        <ele>56</ele>
        <time>2021-05-27T14:05:14Z</time>
      </trkpt>
      <trkpt lat="47.69495" lon="-2.2519">
        <ele>55.9</ele>
        <time>2021-05-27T14:05:15Z</time>
      </trkpt>
      <trkpt lat="47.69495" lon="-2.25186">
        <ele>55.9</ele>
        <time>2021-05-27T14:05:16Z</time>
      </trkpt>
      <trkpt lat="47.69496" lon="-2.25183">
        <ele>55.9</ele>
        <time>2021-05-27T14:05:17Z</time>
      </trkpt>
      <trkpt lat="47.69496" lon="-2.25179">
        <ele>55.8</ele>
        <time>2021-05-27T14:05:18Z</time>
      </trkpt>
      <trkpt lat="47.69496" lon="-2.25176">
        <ele>55.7</ele>
        <time>2021-05-27T14:05:19Z</time>
      </trkpt>
      <trkpt lat="47.69497" lon="-2.25172">
        <ele>55.7</ele>
        <time>2021-05-27T14:05:20Z</time>
      </trkpt>
      <trkpt lat="47.69497" lon="-2.25167">
        <ele>55.7</ele>
        <time>2021-05-27T14:05:21Z</time>
      </trkpt>
      <trkpt lat="47.69497" lon="-2.25163">
        <ele>55.7</ele>
        <time>2021-05-27T14:05:22Z</time>
      </trkpt>
      <trkpt lat="47.69496" lon="-2.25159">
        <ele>55.8</ele>
        <time>2021-05-27T14:05:23Z</time>
      </trkpt>
      <trkpt lat="47.69497" lon="-2.25155">
        <ele>55.9</ele>
        <time>2021-05-27T14:05:24Z</time>
      </trkpt>
      <trkpt lat="47.69497" lon="-2.25151">
        <ele>56.1</ele>
        <time>2021-05-27T14:05:25Z</time>
      </trkpt>
      <trkpt lat="47.69497" lon="-2.25147">
        <ele>56.2</ele>
        <time>2021-05-27T14:05:26Z</time>
      </trkpt>
      <trkpt lat="47.69497" lon="-2.25143">
        <ele>56.2</ele>
        <time>2021-05-27T14:05:27Z</time>
      </trkpt>
      <trkpt lat="47.69497" lon="-2.25139">
        <ele>56.3</ele>
        <time>2021-05-27T14:05:28Z</time>
      </trkpt>
      <trkpt lat="47.69497" lon="-2.25134">
        <ele>56.5</ele>
        <time>2021-05-27T14:05:29Z</time>
      </trkpt>
      <trkpt lat="47.69497" lon="-2.2513">
        <ele>56.6</ele>
        <time>2021-05-27T14:05:30Z</time>
      </trkpt>
      <trkpt lat="47.69498" lon="-2.25124">
        <ele>56.8</ele>
        <time>2021-05-27T14:05:31Z</time>
      </trkpt>
      <trkpt lat="47.69497" lon="-2.25119">
        <ele>56.8</ele>
        <time>2021-05-27T14:05:32Z</time>
      </trkpt>
      <trkpt lat="47.69496" lon="-2.25115">
        <ele>56.8</ele>
        <time>2021-05-27T14:05:33Z</time>
      </trkpt>
      <trkpt lat="47.69495" lon="-2.2511">
        <ele>56.8</ele>
        <time>2021-05-27T14:05:34Z</time>
      </trkpt>
      <trkpt lat="47.69494" lon="-2.25106">
        <ele>56.8</ele>
        <time>2021-05-27T14:05:35Z</time>
      </trkpt>
      <trkpt lat="47.69493" lon="-2.25101">
        <ele>56.8</ele>
        <time>2021-05-27T14:05:36Z</time>
      </trkpt>
      <trkpt lat="47.69493" lon="-2.25097">
        <ele>56.9</ele>
        <time>2021-05-27T14:05:37Z</time>
      </trkpt>
      <trkpt lat="47.69492" lon="-2.25092">
        <ele>56.9</ele>
        <time>2021-05-27T14:05:38Z</time>
      </trkpt>
      <trkpt lat="47.69491" lon="-2.25088">
        <ele>56.9</ele>
        <time>2021-05-27T14:05:39Z</time>
      </trkpt>
      <trkpt lat="47.69491" lon="-2.25083">
        <ele>57</ele>
        <time>2021-05-27T14:05:40Z</time>
      </trkpt>
      <trkpt lat="47.69492" lon="-2.25078">
        <ele>57.3</ele>
        <time>2021-05-27T14:05:41Z</time>
      </trkpt>
      <trkpt lat="47.69492" lon="-2.25073">
        <ele>57.4</ele>
        <time>2021-05-27T14:05:42Z</time>
      </trkpt>
      <trkpt lat="47.69491" lon="-2.25068">
        <ele>57.6</ele>
        <time>2021-05-27T14:05:43Z</time>
      </trkpt>
      <trkpt lat="47.6949" lon="-2.25064">
        <ele>57.6</ele>
        <time>2021-05-27T14:05:44Z</time>
      </trkpt>
      <trkpt lat="47.6949" lon="-2.2506">
        <ele>57.7</ele>
        <time>2021-05-27T14:05:45Z</time>
      </trkpt>
      <trkpt lat="47.69489" lon="-2.25055">
        <ele>57.8</ele>
        <time>2021-05-27T14:05:46Z</time>
      </trkpt>
      <trkpt lat="47.69489" lon="-2.25049">
        <ele>57.9</ele>
        <time>2021-05-27T14:05:47Z</time>
      </trkpt>
      <trkpt lat="47.69489" lon="-2.25045">
        <ele>58.1</ele>
        <time>2021-05-27T14:05:48Z</time>
      </trkpt>
      <trkpt lat="47.6949" lon="-2.2504">
        <ele>58.3</ele>
        <time>2021-05-27T14:05:49Z</time>
      </trkpt>
      <trkpt lat="47.6949" lon="-2.25036">
        <ele>58.5</ele>
        <time>2021-05-27T14:05:50Z</time>
      </trkpt>
      <trkpt lat="47.69489" lon="-2.2503">
        <ele>58.6</ele>
        <time>2021-05-27T14:05:51Z</time>
      </trkpt>
      <trkpt lat="47.69489" lon="-2.25025">
        <ele>58.7</ele>
        <time>2021-05-27T14:05:52Z</time>
      </trkpt>
      <trkpt lat="47.69489" lon="-2.2502">
        <ele>58.9</ele>
        <time>2021-05-27T14:05:53Z</time>
      </trkpt>
      <trkpt lat="47.69489" lon="-2.25015">
        <ele>59</ele>
        <time>2021-05-27T14:05:54Z</time>
      </trkpt>
      <trkpt lat="47.69489" lon="-2.25009">
        <ele>59.2</ele>
        <time>2021-05-27T14:05:55Z</time>
      </trkpt>
      <trkpt lat="47.69489" lon="-2.25003">
        <ele>59.5</ele>
        <time>2021-05-27T14:05:56Z</time>
      </trkpt>
      <trkpt lat="47.69489" lon="-2.24996">
        <ele>59.7</ele>
        <time>2021-05-27T14:05:57Z</time>
      </trkpt>
      <trkpt lat="47.69489" lon="-2.24991">
        <ele>59.7</ele>
        <time>2021-05-27T14:05:58Z</time>
      </trkpt>
      <trkpt lat="47.69488" lon="-2.24986">
        <ele>59.7</ele>
        <time>2021-05-27T14:05:59Z</time>
      </trkpt>
      <trkpt lat="47.69487" lon="-2.24979">
        <ele>59.7</ele>
        <time>2021-05-27T14:06:00Z</time>
      </trkpt>
      <trkpt lat="47.69486" lon="-2.24973">
        <ele>59.7</ele>
        <time>2021-05-27T14:06:01Z</time>
      </trkpt>
      <trkpt lat="47.69486" lon="-2.24968">
        <ele>59.7</ele>
        <time>2021-05-27T14:06:02Z</time>
      </trkpt>
      <trkpt lat="47.69485" lon="-2.24962">
        <ele>59.8</ele>
        <time>2021-05-27T14:06:03Z</time>
      </trkpt>
      <trkpt lat="47.69484" lon="-2.24957">
        <ele>59.8</ele>
        <time>2021-05-27T14:06:04Z</time>
      </trkpt>
      <trkpt lat="47.69484" lon="-2.24951">
        <ele>59.8</ele>
        <time>2021-05-27T14:06:05Z</time>
      </trkpt>
      <trkpt lat="47.69484" lon="-2.24944">
        <ele>59.9</ele>
        <time>2021-05-27T14:06:06Z</time>
      </trkpt>
      <trkpt lat="47.69483" lon="-2.24938">
        <ele>60</ele>
        <time>2021-05-27T14:06:07Z</time>
      </trkpt>
      <trkpt lat="47.69483" lon="-2.24933">
        <ele>60.1</ele>
        <time>2021-05-27T14:06:08Z</time>
      </trkpt>
      <trkpt lat="47.69484" lon="-2.24927">
        <ele>60.2</ele>
        <time>2021-05-27T14:06:09Z</time>
      </trkpt>
      <trkpt lat="47.69484" lon="-2.24921">
        <ele>60.5</ele>
        <time>2021-05-27T14:06:10Z</time>
      </trkpt>
      <trkpt lat="47.69485" lon="-2.24914">
        <ele>60.6</ele>
        <time>2021-05-27T14:06:11Z</time>
      </trkpt>
      <trkpt lat="47.69485" lon="-2.24907">
        <ele>60.6</ele>
        <time>2021-05-27T14:06:12Z</time>
      </trkpt>
      <trkpt lat="47.69485" lon="-2.24901">
        <ele>60.6</ele>
        <time>2021-05-27T14:06:13Z</time>
      </trkpt>
      <trkpt lat="47.69486" lon="-2.24896">
        <ele>60.6</ele>
        <time>2021-05-27T14:06:14Z</time>
      </trkpt>
      <trkpt lat="47.69486" lon="-2.2489">
        <ele>60.7</ele>
        <time>2021-05-27T14:06:15Z</time>
      </trkpt>
      <trkpt lat="47.69486" lon="-2.24885">
        <ele>60.6</ele>
        <time>2021-05-27T14:06:16Z</time>
      </trkpt>
      <trkpt lat="47.69486" lon="-2.24879">
        <ele>60.6</ele>
        <time>2021-05-27T14:06:17Z</time>
      </trkpt>
      <trkpt lat="47.69486" lon="-2.24875">
        <ele>60.6</ele>
        <time>2021-05-27T14:06:18Z</time>
      </trkpt>
      <trkpt lat="47.69486" lon="-2.24869">
        <ele>60.5</ele>
        <time>2021-05-27T14:06:19Z</time>
      </trkpt>
      <trkpt lat="47.69486" lon="-2.24864">
        <ele>60.5</ele>
        <time>2021-05-27T14:06:20Z</time>
      </trkpt>
      <trkpt lat="47.69486" lon="-2.24858">
        <ele>60.5</ele>
        <time>2021-05-27T14:06:21Z</time>
      </trkpt>
      <trkpt lat="47.69487" lon="-2.24852">
        <ele>60.5</ele>
        <time>2021-05-27T14:06:22Z</time>
      </trkpt>
      <trkpt lat="47.69486" lon="-2.24847">
        <ele>60.4</ele>
        <time>2021-05-27T14:06:23Z</time>
      </trkpt>
      <trkpt lat="47.69487" lon="-2.24841">
        <ele>60.4</ele>
        <time>2021-05-27T14:06:24Z</time>
      </trkpt>
      <trkpt lat="47.69488" lon="-2.24834">
        <ele>60.6</ele>
        <time>2021-05-27T14:06:25Z</time>
      </trkpt>
      <trkpt lat="47.69489" lon="-2.24828">
        <ele>60.7</ele>
        <time>2021-05-27T14:06:26Z</time>
      </trkpt>
      <trkpt lat="47.69489" lon="-2.24823">
        <ele>60.8</ele>
        <time>2021-05-27T14:06:27Z</time>
      </trkpt>
      <trkpt lat="47.69488" lon="-2.24817">
        <ele>60.8</ele>
        <time>2021-05-27T14:06:28Z</time>
      </trkpt>
      <trkpt lat="47.69488" lon="-2.24812">
        <ele>60.9</ele>
        <time>2021-05-27T14:06:29Z</time>
      </trkpt>
      <trkpt lat="47.69488" lon="-2.24806">
        <ele>60.9</ele>
        <time>2021-05-27T14:06:30Z</time>
      </trkpt>
      <trkpt lat="47.69487" lon="-2.248">
        <ele>60.9</ele>
        <time>2021-05-27T14:06:31Z</time>
      </trkpt>
      <trkpt lat="47.69487" lon="-2.24794">
        <ele>61</ele>
        <time>2021-05-27T14:06:32Z</time>
      </trkpt>
      <trkpt lat="47.69488" lon="-2.24788">
        <ele>61.1</ele>
        <time>2021-05-27T14:06:33Z</time>
      </trkpt>
      <trkpt lat="47.69487" lon="-2.24782">
        <ele>61.1</ele>
        <time>2021-05-27T14:06:34Z</time>
      </trkpt>
      <trkpt lat="47.69487" lon="-2.24776">
        <ele>61.1</ele>
        <time>2021-05-27T14:06:35Z</time>
      </trkpt>
      <trkpt lat="47.69487" lon="-2.24771">
        <ele>61.1</ele>
        <time>2021-05-27T14:06:36Z</time>
      </trkpt>
      <trkpt lat="47.69486" lon="-2.24767">
        <ele>61.1</ele>
        <time>2021-05-27T14:06:37Z</time>
      </trkpt>
      <trkpt lat="47.69485" lon="-2.24762">
        <ele>61.1</ele>
        <time>2021-05-27T14:06:38Z</time>
      </trkpt>
      <trkpt lat="47.69485" lon="-2.24757">
        <ele>61.2</ele>
        <time>2021-05-27T14:06:39Z</time>
      </trkpt>
      <trkpt lat="47.69485" lon="-2.24751">
        <ele>61.2</ele>
        <time>2021-05-27T14:06:40Z</time>
      </trkpt>
      <trkpt lat="47.69486" lon="-2.24746">
        <ele>61.4</ele>
        <time>2021-05-27T14:06:41Z</time>
      </trkpt>
      <trkpt lat="47.69486" lon="-2.24739">
        <ele>61.4</ele>
        <time>2021-05-27T14:06:42Z</time>
      </trkpt>
      <trkpt lat="47.69485" lon="-2.24733">
        <ele>61.4</ele>
        <time>2021-05-27T14:06:43Z</time>
      </trkpt>
      <trkpt lat="47.69484" lon="-2.24725">
        <ele>61.3</ele>
        <time>2021-05-27T14:06:44Z</time>
      </trkpt>
      <trkpt lat="47.69483" lon="-2.24719">
        <ele>61.2</ele>
        <time>2021-05-27T14:06:45Z</time>
      </trkpt>
      <trkpt lat="47.69481" lon="-2.24713">
        <ele>61.1</ele>
        <time>2021-05-27T14:06:46Z</time>
      </trkpt>
      <trkpt lat="47.69481" lon="-2.24707">
        <ele>61.1</ele>
        <time>2021-05-27T14:06:47Z</time>
      </trkpt>
      <trkpt lat="47.69481" lon="-2.24702">
        <ele>61.2</ele>
        <time>2021-05-27T14:06:48Z</time>
      </trkpt>
      <trkpt lat="47.6948" lon="-2.24696">
        <ele>61.1</ele>
        <time>2021-05-27T14:06:49Z</time>
      </trkpt>
      <trkpt lat="47.69479" lon="-2.2469">
        <ele>61.1</ele>
        <time>2021-05-27T14:06:50Z</time>
      </trkpt>
      <trkpt lat="47.69479" lon="-2.24684">
        <ele>61</ele>
        <time>2021-05-27T14:06:51Z</time>
      </trkpt>
      <trkpt lat="47.69479" lon="-2.24677">
        <ele>61.1</ele>
        <time>2021-05-27T14:06:52Z</time>
      </trkpt>
      <trkpt lat="47.69479" lon="-2.24669">
        <ele>61.2</ele>
        <time>2021-05-27T14:06:53Z</time>
      </trkpt>
      <trkpt lat="47.69479" lon="-2.24662">
        <ele>61.3</ele>
        <time>2021-05-27T14:06:54Z</time>
      </trkpt>
      <trkpt lat="47.69479" lon="-2.24656">
        <ele>61.4</ele>
        <time>2021-05-27T14:06:55Z</time>
      </trkpt>
      <trkpt lat="47.69478" lon="-2.2465">
        <ele>61.5</ele>
        <time>2021-05-27T14:06:56Z</time>
      </trkpt>
      <trkpt lat="47.69478" lon="-2.24644">
        <ele>61.5</ele>
        <time>2021-05-27T14:06:57Z</time>
      </trkpt>
      <trkpt lat="47.69477" lon="-2.2464">
        <ele>61.6</ele>
        <time>2021-05-27T14:06:58Z</time>
      </trkpt>
      <trkpt lat="47.69477" lon="-2.24633">
        <ele>61.7</ele>
        <time>2021-05-27T14:06:59Z</time>
      </trkpt>
      <trkpt lat="47.69477" lon="-2.24628">
        <ele>61.8</ele>
        <time>2021-05-27T14:07:00Z</time>
      </trkpt>
      <trkpt lat="47.69477" lon="-2.24622">
        <ele>62</ele>
        <time>2021-05-27T14:07:01Z</time>
      </trkpt>
      <trkpt lat="47.69477" lon="-2.24616">
        <ele>62.1</ele>
        <time>2021-05-27T14:07:02Z</time>
      </trkpt>
      <trkpt lat="47.69477" lon="-2.2461">
        <ele>62.1</ele>
        <time>2021-05-27T14:07:03Z</time>
      </trkpt>
      <trkpt lat="47.69477" lon="-2.24604">
        <ele>62.3</ele>
        <time>2021-05-27T14:07:04Z</time>
      </trkpt>
      <trkpt lat="47.69477" lon="-2.24597">
        <ele>62.3</ele>
        <time>2021-05-27T14:07:05Z</time>
      </trkpt>
      <trkpt lat="47.69476" lon="-2.24591">
        <ele>62.4</ele>
        <time>2021-05-27T14:07:06Z</time>
      </trkpt>
      <trkpt lat="47.69475" lon="-2.24585">
        <ele>62.4</ele>
        <time>2021-05-27T14:07:07Z</time>
      </trkpt>
      <trkpt lat="47.69475" lon="-2.24579">
        <ele>62.5</ele>
        <time>2021-05-27T14:07:08Z</time>
      </trkpt>
      <trkpt lat="47.69475" lon="-2.24574">
        <ele>62.6</ele>
        <time>2021-05-27T14:07:09Z</time>
      </trkpt>
      <trkpt lat="47.69475" lon="-2.24568">
        <ele>62.7</ele>
        <time>2021-05-27T14:07:10Z</time>
      </trkpt>
      <trkpt lat="47.69475" lon="-2.24562">
        <ele>62.8</ele>
        <time>2021-05-27T14:07:11Z</time>
      </trkpt>
      <trkpt lat="47.69475" lon="-2.24556">
        <ele>62.9</ele>
        <time>2021-05-27T14:07:12Z</time>
      </trkpt>
      <trkpt lat="47.69474" lon="-2.2455">
        <ele>63</ele>
        <time>2021-05-27T14:07:13Z</time>
      </trkpt>
      <trkpt lat="47.69474" lon="-2.24543">
        <ele>63</ele>
        <time>2021-05-27T14:07:14Z</time>
      </trkpt>
      <trkpt lat="47.69473" lon="-2.24536">
        <ele>63.1</ele>
        <time>2021-05-27T14:07:15Z</time>
      </trkpt>
      <trkpt lat="47.69473" lon="-2.2453">
        <ele>63.1</ele>
        <time>2021-05-27T14:07:16Z</time>
      </trkpt>
      <trkpt lat="47.69473" lon="-2.24525">
        <ele>63.2</ele>
        <time>2021-05-27T14:07:17Z</time>
      </trkpt>
      <trkpt lat="47.69472" lon="-2.2452">
        <ele>63.3</ele>
        <time>2021-05-27T14:07:18Z</time>
      </trkpt>
      <trkpt lat="47.69471" lon="-2.24516">
        <ele>63.3</ele>
        <time>2021-05-27T14:07:19Z</time>
      </trkpt>
      <trkpt lat="47.69471" lon="-2.24511">
        <ele>63.3</ele>
        <time>2021-05-27T14:07:20Z</time>
      </trkpt>
      <trkpt lat="47.6947" lon="-2.24507">
        <ele>63.3</ele>
        <time>2021-05-27T14:07:21Z</time>
      </trkpt>
      <trkpt lat="47.69471" lon="-2.24503">
        <ele>63.4</ele>
        <time>2021-05-27T14:07:22Z</time>
      </trkpt>
      <trkpt lat="47.69471" lon="-2.24498">
        <ele>63.5</ele>
        <time>2021-05-27T14:07:23Z</time>
      </trkpt>
      <trkpt lat="47.6947" lon="-2.24493">
        <ele>63.4</ele>
        <time>2021-05-27T14:07:24Z</time>
      </trkpt>
      <trkpt lat="47.69469" lon="-2.24488">
        <ele>63.4</ele>
        <time>2021-05-27T14:07:25Z</time>
      </trkpt>
      <trkpt lat="47.69469" lon="-2.24482">
        <ele>63.4</ele>
        <time>2021-05-27T14:07:26Z</time>
      </trkpt>
      <trkpt lat="47.69469" lon="-2.24476">
        <ele>63.4</ele>
        <time>2021-05-27T14:07:27Z</time>
      </trkpt>
      <trkpt lat="47.6947" lon="-2.24471">
        <ele>63.5</ele>
        <time>2021-05-27T14:07:28Z</time>
      </trkpt>
      <trkpt lat="47.69469" lon="-2.24464">
        <ele>63.5</ele>
        <time>2021-05-27T14:07:29Z</time>
      </trkpt>
      <trkpt lat="47.69469" lon="-2.24458">
        <ele>63.4</ele>
        <time>2021-05-27T14:07:30Z</time>
      </trkpt>
      <trkpt lat="47.69468" lon="-2.24452">
        <ele>63.4</ele>
        <time>2021-05-27T14:07:31Z</time>
      </trkpt>
      <trkpt lat="47.69467" lon="-2.24446">
        <ele>63.3</ele>
        <time>2021-05-27T14:07:32Z</time>
      </trkpt>
      <trkpt lat="47.69467" lon="-2.24439">
        <ele>63.3</ele>
        <time>2021-05-27T14:07:33Z</time>
      </trkpt>
      <trkpt lat="47.69467" lon="-2.24433">
        <ele>63.3</ele>
        <time>2021-05-27T14:07:34Z</time>
      </trkpt>
      <trkpt lat="47.69467" lon="-2.24426">
        <ele>63.3</ele>
        <time>2021-05-27T14:07:35Z</time>
      </trkpt>
      <trkpt lat="47.69467" lon="-2.24419">
        <ele>63.4</ele>
        <time>2021-05-27T14:07:36Z</time>
      </trkpt>
      <trkpt lat="47.69466" lon="-2.24413">
        <ele>63.4</ele>
        <time>2021-05-27T14:07:37Z</time>
      </trkpt>
      <trkpt lat="47.69466" lon="-2.24407">
        <ele>63.5</ele>
        <time>2021-05-27T14:07:38Z</time>
      </trkpt>
      <trkpt lat="47.69465" lon="-2.244">
        <ele>63.5</ele>
        <time>2021-05-27T14:07:39Z</time>
      </trkpt>
      <trkpt lat="47.69465" lon="-2.24394">
        <ele>63.6</ele>
        <time>2021-05-27T14:07:40Z</time>
      </trkpt>
      <trkpt lat="47.69464" lon="-2.24388">
        <ele>63.6</ele>
        <time>2021-05-27T14:07:41Z</time>
      </trkpt>
      <trkpt lat="47.69464" lon="-2.24382">
        <ele>63.7</ele>
        <time>2021-05-27T14:07:42Z</time>
      </trkpt>
      <trkpt lat="47.69464" lon="-2.24376">
        <ele>63.9</ele>
        <time>2021-05-27T14:07:43Z</time>
      </trkpt>
      <trkpt lat="47.69465" lon="-2.24371">
        <ele>64</ele>
        <time>2021-05-27T14:07:44Z</time>
      </trkpt>
      <trkpt lat="47.69465" lon="-2.24365">
        <ele>64.1</ele>
        <time>2021-05-27T14:07:45Z</time>
      </trkpt>
      <trkpt lat="47.69465" lon="-2.24359">
        <ele>64.2</ele>
        <time>2021-05-27T14:07:46Z</time>
      </trkpt>
      <trkpt lat="47.69465" lon="-2.24353">
        <ele>64.3</ele>
        <time>2021-05-27T14:07:47Z</time>
      </trkpt>
      <trkpt lat="47.69465" lon="-2.24348">
        <ele>64.4</ele>
        <time>2021-05-27T14:07:48Z</time>
      </trkpt>
      <trkpt lat="47.69465" lon="-2.24342">
        <ele>64.5</ele>
        <time>2021-05-27T14:07:49Z</time>
      </trkpt>
      <trkpt lat="47.69464" lon="-2.24336">
        <ele>64.5</ele>
        <time>2021-05-27T14:07:50Z</time>
      </trkpt>
      <trkpt lat="47.69464" lon="-2.2433">
        <ele>64.6</ele>
        <time>2021-05-27T14:07:51Z</time>
      </trkpt>
      <trkpt lat="47.69463" lon="-2.24323">
        <ele>64.6</ele>
        <time>2021-05-27T14:07:52Z</time>
      </trkpt>
      <trkpt lat="47.69463" lon="-2.24317">
        <ele>64.7</ele>
        <time>2021-05-27T14:07:53Z</time>
      </trkpt>
      <trkpt lat="47.69464" lon="-2.24311">
        <ele>64.9</ele>
        <time>2021-05-27T14:07:54Z</time>
      </trkpt>
      <trkpt lat="47.69464" lon="-2.24305">
        <ele>65.1</ele>
        <time>2021-05-27T14:07:55Z</time>
      </trkpt>
      <trkpt lat="47.69465" lon="-2.243">
        <ele>65.2</ele>
        <time>2021-05-27T14:07:56Z</time>
      </trkpt>
      <trkpt lat="47.69465" lon="-2.24295">
        <ele>65.3</ele>
        <time>2021-05-27T14:07:57Z</time>
      </trkpt>
      <trkpt lat="47.69465" lon="-2.2429">
        <ele>65.4</ele>
        <time>2021-05-27T14:07:58Z</time>
      </trkpt>
      <trkpt lat="47.69464" lon="-2.24286">
        <ele>65.3</ele>
        <time>2021-05-27T14:07:59Z</time>
      </trkpt>
      <trkpt lat="47.69462" lon="-2.24281">
        <ele>65.3</ele>
        <time>2021-05-27T14:08:00Z</time>
      </trkpt>
      <trkpt lat="47.69461" lon="-2.24276">
        <ele>65.3</ele>
        <time>2021-05-27T14:08:01Z</time>
      </trkpt>
      <trkpt lat="47.69461" lon="-2.2427">
        <ele>65.4</ele>
        <time>2021-05-27T14:08:02Z</time>
      </trkpt>
      <trkpt lat="47.69461" lon="-2.24264">
        <ele>65.5</ele>
        <time>2021-05-27T14:08:03Z</time>
      </trkpt>
      <trkpt lat="47.6946" lon="-2.24258">
        <ele>65.5</ele>
        <time>2021-05-27T14:08:04Z</time>
      </trkpt>
      <trkpt lat="47.69459" lon="-2.24253">
        <ele>65.5</ele>
        <time>2021-05-27T14:08:05Z</time>
      </trkpt>
      <trkpt lat="47.69458" lon="-2.24248">
        <ele>65.5</ele>
        <time>2021-05-27T14:08:06Z</time>
      </trkpt>
      <trkpt lat="47.69457" lon="-2.24243">
        <ele>65.4</ele>
        <time>2021-05-27T14:08:07Z</time>
      </trkpt>
      <trkpt lat="47.69456" lon="-2.24238">
        <ele>65.3</ele>
        <time>2021-05-27T14:08:08Z</time>
      </trkpt>
      <trkpt lat="47.69455" lon="-2.24232">
        <ele>65.2</ele>
        <time>2021-05-27T14:08:09Z</time>
      </trkpt>
      <trkpt lat="47.69455" lon="-2.24227">
        <ele>65.2</ele>
        <time>2021-05-27T14:08:10Z</time>
      </trkpt>
      <trkpt lat="47.69455" lon="-2.24222">
        <ele>65.2</ele>
        <time>2021-05-27T14:08:11Z</time>
      </trkpt>
      <trkpt lat="47.69456" lon="-2.24216">
        <ele>65.3</ele>
        <time>2021-05-27T14:08:12Z</time>
      </trkpt>
      <trkpt lat="47.69456" lon="-2.2421">
        <ele>65.3</ele>
        <time>2021-05-27T14:08:13Z</time>
      </trkpt>
      <trkpt lat="47.69456" lon="-2.24203">
        <ele>65.3</ele>
        <time>2021-05-27T14:08:14Z</time>
      </trkpt>
      <trkpt lat="47.69457" lon="-2.24198">
        <ele>65.3</ele>
        <time>2021-05-27T14:08:15Z</time>
      </trkpt>
      <trkpt lat="47.69456" lon="-2.24192">
        <ele>65.3</ele>
        <time>2021-05-27T14:08:16Z</time>
      </trkpt>
      <trkpt lat="47.69455" lon="-2.24187">
        <ele>65.3</ele>
        <time>2021-05-27T14:08:17Z</time>
      </trkpt>
      <trkpt lat="47.69455" lon="-2.24182">
        <ele>65.2</ele>
        <time>2021-05-27T14:08:18Z</time>
      </trkpt>
      <trkpt lat="47.69455" lon="-2.24177">
        <ele>65.2</ele>
        <time>2021-05-27T14:08:19Z</time>
      </trkpt>
      <trkpt lat="47.69455" lon="-2.24172">
        <ele>65.2</ele>
        <time>2021-05-27T14:08:20Z</time>
      </trkpt>
      <trkpt lat="47.69455" lon="-2.24167">
        <ele>65.2</ele>
        <time>2021-05-27T14:08:21Z</time>
      </trkpt>
      <trkpt lat="47.69454" lon="-2.24161">
        <ele>65.3</ele>
        <time>2021-05-27T14:08:22Z</time>
      </trkpt>
      <trkpt lat="47.69453" lon="-2.24156">
        <ele>65.3</ele>
        <time>2021-05-27T14:08:23Z</time>
      </trkpt>
      <trkpt lat="47.69451" lon="-2.2415">
        <ele>65.3</ele>
        <time>2021-05-27T14:08:24Z</time>
      </trkpt>
      <trkpt lat="47.69449" lon="-2.24145">
        <ele>65.3</ele>
        <time>2021-05-27T14:08:25Z</time>
      </trkpt>
      <trkpt lat="47.69448" lon="-2.2414">
        <ele>65.4</ele>
        <time>2021-05-27T14:08:26Z</time>
      </trkpt>
      <trkpt lat="47.69446" lon="-2.24134">
        <ele>65.4</ele>
        <time>2021-05-27T14:08:27Z</time>
      </trkpt>
      <trkpt lat="47.69445" lon="-2.24129">
        <ele>65.4</ele>
        <time>2021-05-27T14:08:28Z</time>
      </trkpt>
      <trkpt lat="47.69444" lon="-2.24123">
        <ele>65.5</ele>
        <time>2021-05-27T14:08:29Z</time>
      </trkpt>
      <trkpt lat="47.69442" lon="-2.24117">
        <ele>65.6</ele>
        <time>2021-05-27T14:08:30Z</time>
      </trkpt>
      <trkpt lat="47.69441" lon="-2.24111">
        <ele>65.7</ele>
        <time>2021-05-27T14:08:31Z</time>
      </trkpt>
      <trkpt lat="47.69438" lon="-2.24104">
        <ele>65.7</ele>
        <time>2021-05-27T14:08:32Z</time>
      </trkpt>
      <trkpt lat="47.69437" lon="-2.24098">
        <ele>65.8</ele>
        <time>2021-05-27T14:08:33Z</time>
      </trkpt>
      <trkpt lat="47.69435" lon="-2.24093">
        <ele>65.8</ele>
        <time>2021-05-27T14:08:34Z</time>
      </trkpt>
      <trkpt lat="47.69433" lon="-2.24087">
        <ele>65.9</ele>
        <time>2021-05-27T14:08:35Z</time>
      </trkpt>
      <trkpt lat="47.69431" lon="-2.24082">
        <ele>65.9</ele>
        <time>2021-05-27T14:08:36Z</time>
      </trkpt>
      <trkpt lat="47.69429" lon="-2.24077">
        <ele>65.8</ele>
        <time>2021-05-27T14:08:37Z</time>
      </trkpt>
      <trkpt lat="47.69427" lon="-2.24071">
        <ele>65.9</ele>
        <time>2021-05-27T14:08:38Z</time>
      </trkpt>
      <trkpt lat="47.69425" lon="-2.24067">
        <ele>65.9</ele>
        <time>2021-05-27T14:08:39Z</time>
      </trkpt>
      <trkpt lat="47.69424" lon="-2.24062">
        <ele>65.9</ele>
        <time>2021-05-27T14:08:40Z</time>
      </trkpt>
      <trkpt lat="47.69422" lon="-2.24058">
        <ele>65.9</ele>
        <time>2021-05-27T14:08:41Z</time>
      </trkpt>
      <trkpt lat="47.69423" lon="-2.24053">
        <ele>66</ele>
        <time>2021-05-27T14:08:42Z</time>
      </trkpt>
      <trkpt lat="47.69424" lon="-2.24049">
        <ele>66.2</ele>
        <time>2021-05-27T14:08:43Z</time>
      </trkpt>
      <trkpt lat="47.69425" lon="-2.24045">
        <ele>66.3</ele>
        <time>2021-05-27T14:08:44Z</time>
      </trkpt>
      <trkpt lat="47.69427" lon="-2.24043">
        <ele>66.4</ele>
        <time>2021-05-27T14:08:45Z</time>
      </trkpt>
      <trkpt lat="47.69428" lon="-2.24041">
        <ele>66.5</ele>
        <time>2021-05-27T14:08:46Z</time>
      </trkpt>
      <trkpt lat="47.69431" lon="-2.24041">
        <ele>66.6</ele>
        <time>2021-05-27T14:08:47Z</time>
      </trkpt>
      <trkpt lat="47.69433" lon="-2.24041">
        <ele>66.7</ele>
        <time>2021-05-27T14:08:48Z</time>
      </trkpt>
      <trkpt lat="47.69435" lon="-2.24041">
        <ele>66.8</ele>
        <time>2021-05-27T14:08:49Z</time>
      </trkpt>
      <trkpt lat="47.69438" lon="-2.24041">
        <ele>66.9</ele>
        <time>2021-05-27T14:08:50Z</time>
      </trkpt>
      <trkpt lat="47.69441" lon="-2.24042">
        <ele>67</ele>
        <time>2021-05-27T14:08:51Z</time>
      </trkpt>
      <trkpt lat="47.69444" lon="-2.24043">
        <ele>67.1</ele>
        <time>2021-05-27T14:08:52Z</time>
      </trkpt>
      <trkpt lat="47.69446" lon="-2.24044">
        <ele>67.2</ele>
        <time>2021-05-27T14:08:53Z</time>
      </trkpt>
      <trkpt lat="47.69448" lon="-2.24044">
        <ele>67.3</ele>
        <time>2021-05-27T14:08:54Z</time>
      </trkpt>
      <trkpt lat="47.6945" lon="-2.24045">
        <ele>67.4</ele>
        <time>2021-05-27T14:08:55Z</time>
      </trkpt>
      <trkpt lat="47.69453" lon="-2.24045">
        <ele>67.5</ele>
        <time>2021-05-27T14:08:56Z</time>
      </trkpt>
      <trkpt lat="47.69455" lon="-2.24045">
        <ele>67.6</ele>
        <time>2021-05-27T14:08:57Z</time>
      </trkpt>
      <trkpt lat="47.69458" lon="-2.24045">
        <ele>67.7</ele>
        <time>2021-05-27T14:08:58Z</time>
      </trkpt>
      <trkpt lat="47.69461" lon="-2.24046">
        <ele>67.8</ele>
        <time>2021-05-27T14:08:59Z</time>
      </trkpt>
      <trkpt lat="47.69464" lon="-2.24046">
        <ele>67.9</ele>
        <time>2021-05-27T14:09:00Z</time>
      </trkpt>
      <trkpt lat="47.69466" lon="-2.24046">
        <ele>68.1</ele>
        <time>2021-05-27T14:09:01Z</time>
      </trkpt>
      <trkpt lat="47.69469" lon="-2.24046">
        <ele>68.2</ele>
        <time>2021-05-27T14:09:02Z</time>
      </trkpt>
      <trkpt lat="47.69472" lon="-2.24046">
        <ele>68.3</ele>
        <time>2021-05-27T14:09:03Z</time>
      </trkpt>
      <trkpt lat="47.69474" lon="-2.24047">
        <ele>68.4</ele>
        <time>2021-05-27T14:09:04Z</time>
      </trkpt>
      <trkpt lat="47.69477" lon="-2.24049">
        <ele>68.6</ele>
        <time>2021-05-27T14:09:05Z</time>
      </trkpt>
      <trkpt lat="47.6948" lon="-2.2405">
        <ele>68.7</ele>
        <time>2021-05-27T14:09:06Z</time>
      </trkpt>
      <trkpt lat="47.69482" lon="-2.24051">
        <ele>68.8</ele>
        <time>2021-05-27T14:09:07Z</time>
      </trkpt>
      <trkpt lat="47.69485" lon="-2.24052">
        <ele>68.9</ele>
        <time>2021-05-27T14:09:08Z</time>
      </trkpt>
      <trkpt lat="47.69487" lon="-2.24052">
        <ele>69</ele>
        <time>2021-05-27T14:09:09Z</time>
      </trkpt>
      <trkpt lat="47.69489" lon="-2.24051">
        <ele>69.1</ele>
        <time>2021-05-27T14:09:10Z</time>
      </trkpt>
      <trkpt lat="47.69492" lon="-2.24051">
        <ele>69.2</ele>
        <time>2021-05-27T14:09:11Z</time>
      </trkpt>
      <trkpt lat="47.69495" lon="-2.2405">
        <ele>69.4</ele>
        <time>2021-05-27T14:09:12Z</time>
      </trkpt>
      <trkpt lat="47.69498" lon="-2.24048">
        <ele>69.5</ele>
        <time>2021-05-27T14:09:13Z</time>
      </trkpt>
      <trkpt lat="47.69501" lon="-2.24047">
        <ele>69.6</ele>
        <time>2021-05-27T14:09:14Z</time>
      </trkpt>
      <trkpt lat="47.69505" lon="-2.24045">
        <ele>69.7</ele>
        <time>2021-05-27T14:09:15Z</time>
      </trkpt>
      <trkpt lat="47.69509" lon="-2.24046">
        <ele>69.8</ele>
        <time>2021-05-27T14:09:16Z</time>
      </trkpt>
      <trkpt lat="47.69513" lon="-2.24045">
        <ele>69.9</ele>
        <time>2021-05-27T14:09:17Z</time>
      </trkpt>
      <trkpt lat="47.69517" lon="-2.24042">
        <ele>69.9</ele>
        <time>2021-05-27T14:09:18Z</time>
      </trkpt>
      <trkpt lat="47.69518" lon="-2.2404">
        <ele>69.9</ele>
        <time>2021-05-27T14:09:19Z</time>
      </trkpt>
      <trkpt lat="47.69518" lon="-2.24037">
        <ele>69.9</ele>
        <time>2021-05-27T14:09:20Z</time>
      </trkpt>
      <trkpt lat="47.69517" lon="-2.24034">
        <ele>69.8</ele>
        <time>2021-05-27T14:09:21Z</time>
      </trkpt>
      <trkpt lat="47.69516" lon="-2.2403">
        <ele>69.7</ele>
        <time>2021-05-27T14:09:22Z</time>
      </trkpt>
      <trkpt lat="47.69515" lon="-2.24025">
        <ele>69.6</ele>
        <time>2021-05-27T14:09:23Z</time>
      </trkpt>
      <trkpt lat="47.69513" lon="-2.2402">
        <ele>69.6</ele>
        <time>2021-05-27T14:09:24Z</time>
      </trkpt>
      <trkpt lat="47.69512" lon="-2.24016">
        <ele>69.5</ele>
        <time>2021-05-27T14:09:25Z</time>
      </trkpt>
      <trkpt lat="47.69511" lon="-2.24012">
        <ele>69.4</ele>
        <time>2021-05-27T14:09:26Z</time>
      </trkpt>
      <trkpt lat="47.69509" lon="-2.24008">
        <ele>69.3</ele>
        <time>2021-05-27T14:09:27Z</time>
      </trkpt>
      <trkpt lat="47.69507" lon="-2.24004">
        <ele>69.2</ele>
        <time>2021-05-27T14:09:28Z</time>
      </trkpt>
      <trkpt lat="47.69505" lon="-2.23999">
        <ele>69.1</ele>
        <time>2021-05-27T14:09:29Z</time>
      </trkpt>
      <trkpt lat="47.69503" lon="-2.23995">
        <ele>69.1</ele>
        <time>2021-05-27T14:09:30Z</time>
      </trkpt>
      <trkpt lat="47.695" lon="-2.2399">
        <ele>69</ele>
        <time>2021-05-27T14:09:31Z</time>
      </trkpt>
      <trkpt lat="47.69499" lon="-2.23985">
        <ele>69</ele>
        <time>2021-05-27T14:09:32Z</time>
      </trkpt>
      <trkpt lat="47.69497" lon="-2.23981">
        <ele>68.9</ele>
        <time>2021-05-27T14:09:33Z</time>
      </trkpt>
      <trkpt lat="47.69496" lon="-2.23976">
        <ele>68.9</ele>
        <time>2021-05-27T14:09:34Z</time>
      </trkpt>
      <trkpt lat="47.69495" lon="-2.23971">
        <ele>68.9</ele>
        <time>2021-05-27T14:09:35Z</time>
      </trkpt>
      <trkpt lat="47.69493" lon="-2.23966">
        <ele>68.9</ele>
        <time>2021-05-27T14:09:36Z</time>
      </trkpt>
      <trkpt lat="47.69491" lon="-2.23962">
        <ele>68.8</ele>
        <time>2021-05-27T14:09:37Z</time>
      </trkpt>
      <trkpt lat="47.6949" lon="-2.23957">
        <ele>68.8</ele>
        <time>2021-05-27T14:09:38Z</time>
      </trkpt>
      <trkpt lat="47.69487" lon="-2.2395">
        <ele>68.8</ele>
        <time>2021-05-27T14:09:39Z</time>
      </trkpt>
      <trkpt lat="47.69485" lon="-2.23944">
        <ele>68.8</ele>
        <time>2021-05-27T14:09:40Z</time>
      </trkpt>
      <trkpt lat="47.69482" lon="-2.23938">
        <ele>68.7</ele>
        <time>2021-05-27T14:09:41Z</time>
      </trkpt>
      <trkpt lat="47.6948" lon="-2.23933">
        <ele>68.7</ele>
        <time>2021-05-27T14:09:42Z</time>
      </trkpt>
      <trkpt lat="47.69478" lon="-2.23929">
        <ele>68.7</ele>
        <time>2021-05-27T14:09:43Z</time>
      </trkpt>
      <trkpt lat="47.69475" lon="-2.23923">
        <ele>68.7</ele>
        <time>2021-05-27T14:09:44Z</time>
      </trkpt>
      <trkpt lat="47.69473" lon="-2.23918">
        <ele>68.7</ele>
        <time>2021-05-27T14:09:45Z</time>
      </trkpt>
      <trkpt lat="47.69471" lon="-2.23913">
        <ele>68.7</ele>
        <time>2021-05-27T14:09:46Z</time>
      </trkpt>
      <trkpt lat="47.6947" lon="-2.23907">
        <ele>68.7</ele>
        <time>2021-05-27T14:09:47Z</time>
      </trkpt>
      <trkpt lat="47.69468" lon="-2.23902">
        <ele>68.7</ele>
        <time>2021-05-27T14:09:48Z</time>
      </trkpt>
      <trkpt lat="47.69466" lon="-2.23896">
        <ele>68.6</ele>
        <time>2021-05-27T14:09:49Z</time>
      </trkpt>
      <trkpt lat="47.69464" lon="-2.2389">
        <ele>68.6</ele>
        <time>2021-05-27T14:09:50Z</time>
      </trkpt>
      <trkpt lat="47.69463" lon="-2.23884">
        <ele>68.6</ele>
        <time>2021-05-27T14:09:51Z</time>
      </trkpt>
      <trkpt lat="47.69461" lon="-2.23879">
        <ele>68.6</ele>
        <time>2021-05-27T14:09:52Z</time>
      </trkpt>
      <trkpt lat="47.69459" lon="-2.23873">
        <ele>68.5</ele>
        <time>2021-05-27T14:09:53Z</time>
      </trkpt>
      <trkpt lat="47.69457" lon="-2.23867">
        <ele>68.5</ele>
        <time>2021-05-27T14:09:54Z</time>
      </trkpt>
      <trkpt lat="47.69455" lon="-2.23861">
        <ele>68.4</ele>
        <time>2021-05-27T14:09:55Z</time>
      </trkpt>
      <trkpt lat="47.69453" lon="-2.23854">
        <ele>68.3</ele>
        <time>2021-05-27T14:09:56Z</time>
      </trkpt>
      <trkpt lat="47.69451" lon="-2.23848">
        <ele>68.3</ele>
        <time>2021-05-27T14:09:57Z</time>
      </trkpt>
      <trkpt lat="47.69449" lon="-2.23841">
        <ele>68.2</ele>
        <time>2021-05-27T14:09:58Z</time>
      </trkpt>
      <trkpt lat="47.69447" lon="-2.23836">
        <ele>68.1</ele>
        <time>2021-05-27T14:09:59Z</time>
      </trkpt>
      <trkpt lat="47.69445" lon="-2.2383">
        <ele>68.1</ele>
        <time>2021-05-27T14:10:00Z</time>
      </trkpt>
      <trkpt lat="47.69442" lon="-2.23824">
        <ele>68</ele>
        <time>2021-05-27T14:10:01Z</time>
      </trkpt>
      <trkpt lat="47.6944" lon="-2.23817">
        <ele>68</ele>
        <time>2021-05-27T14:10:02Z</time>
      </trkpt>
      <trkpt lat="47.69438" lon="-2.23811">
        <ele>68</ele>
        <time>2021-05-27T14:10:03Z</time>
      </trkpt>
      <trkpt lat="47.69437" lon="-2.23805">
        <ele>68.1</ele>
        <time>2021-05-27T14:10:04Z</time>
      </trkpt>
      <trkpt lat="47.69435" lon="-2.23797">
        <ele>68.1</ele>
        <time>2021-05-27T14:10:05Z</time>
      </trkpt>
      <trkpt lat="47.69433" lon="-2.23791">
        <ele>68.1</ele>
        <time>2021-05-27T14:10:06Z</time>
      </trkpt>
      <trkpt lat="47.69431" lon="-2.23784">
        <ele>68.1</ele>
        <time>2021-05-27T14:10:07Z</time>
      </trkpt>
      <trkpt lat="47.69429" lon="-2.23776">
        <ele>68.1</ele>
        <time>2021-05-27T14:10:08Z</time>
      </trkpt>
      <trkpt lat="47.69426" lon="-2.2377">
        <ele>68.1</ele>
        <time>2021-05-27T14:10:09Z</time>
      </trkpt>
      <trkpt lat="47.69424" lon="-2.23762">
        <ele>68.1</ele>
        <time>2021-05-27T14:10:10Z</time>
      </trkpt>
      <trkpt lat="47.69421" lon="-2.23756">
        <ele>68.1</ele>
        <time>2021-05-27T14:10:11Z</time>
      </trkpt>
      <trkpt lat="47.69419" lon="-2.2375">
        <ele>68.1</ele>
        <time>2021-05-27T14:10:12Z</time>
      </trkpt>
      <trkpt lat="47.69416" lon="-2.23744">
        <ele>68.1</ele>
        <time>2021-05-27T14:10:13Z</time>
      </trkpt>
      <trkpt lat="47.69414" lon="-2.23736">
        <ele>68.3</ele>
        <time>2021-05-27T14:10:14Z</time>
      </trkpt>
      <trkpt lat="47.69412" lon="-2.23729">
        <ele>68.4</ele>
        <time>2021-05-27T14:10:15Z</time>
      </trkpt>
      <trkpt lat="47.6941" lon="-2.23723">
        <ele>68.5</ele>
        <time>2021-05-27T14:10:16Z</time>
      </trkpt>
      <trkpt lat="47.69408" lon="-2.23716">
        <ele>68.6</ele>
        <time>2021-05-27T14:10:17Z</time>
      </trkpt>
      <trkpt lat="47.69406" lon="-2.2371">
        <ele>68.7</ele>
        <time>2021-05-27T14:10:18Z</time>
      </trkpt>
      <trkpt lat="47.69405" lon="-2.23703">
        <ele>68.8</ele>
        <time>2021-05-27T14:10:19Z</time>
      </trkpt>
      <trkpt lat="47.69404" lon="-2.23696">
        <ele>68.9</ele>
        <time>2021-05-27T14:10:20Z</time>
      </trkpt>
      <trkpt lat="47.69403" lon="-2.23689">
        <ele>69</ele>
        <time>2021-05-27T14:10:21Z</time>
      </trkpt>
      <trkpt lat="47.69402" lon="-2.23681">
        <ele>69.2</ele>
        <time>2021-05-27T14:10:22Z</time>
      </trkpt>
      <trkpt lat="47.69401" lon="-2.23673">
        <ele>69.3</ele>
        <time>2021-05-27T14:10:23Z</time>
      </trkpt>
      <trkpt lat="47.694" lon="-2.23665">
        <ele>69.4</ele>
        <time>2021-05-27T14:10:24Z</time>
      </trkpt>
      <trkpt lat="47.69399" lon="-2.23656">
        <ele>69.4</ele>
        <time>2021-05-27T14:10:25Z</time>
      </trkpt>
      <trkpt lat="47.69398" lon="-2.23647">
        <ele>69.4</ele>
        <time>2021-05-27T14:10:26Z</time>
      </trkpt>
      <trkpt lat="47.69398" lon="-2.2364">
        <ele>69.5</ele>
        <time>2021-05-27T14:10:27Z</time>
      </trkpt>
      <trkpt lat="47.69398" lon="-2.23632">
        <ele>69.5</ele>
        <time>2021-05-27T14:10:28Z</time>
      </trkpt>
      <trkpt lat="47.69398" lon="-2.23626">
        <ele>69.6</ele>
        <time>2021-05-27T14:10:29Z</time>
      </trkpt>
      <trkpt lat="47.69399" lon="-2.2362">
        <ele>69.6</ele>
        <time>2021-05-27T14:10:30Z</time>
      </trkpt>
      <trkpt lat="47.694" lon="-2.23613">
        <ele>69.7</ele>
        <time>2021-05-27T14:10:31Z</time>
      </trkpt>
      <trkpt lat="47.69401" lon="-2.23606">
        <ele>69.7</ele>
        <time>2021-05-27T14:10:32Z</time>
      </trkpt>
      <trkpt lat="47.69401" lon="-2.23598">
        <ele>69.8</ele>
        <time>2021-05-27T14:10:33Z</time>
      </trkpt>
      <trkpt lat="47.69401" lon="-2.23591">
        <ele>69.8</ele>
        <time>2021-05-27T14:10:34Z</time>
      </trkpt>
      <trkpt lat="47.69401" lon="-2.23583">
        <ele>69.8</ele>
        <time>2021-05-27T14:10:35Z</time>
      </trkpt>
      <trkpt lat="47.694" lon="-2.23576">
        <ele>69.8</ele>
        <time>2021-05-27T14:10:36Z</time>
      </trkpt>
      <trkpt lat="47.694" lon="-2.23568">
        <ele>69.7</ele>
        <time>2021-05-27T14:10:37Z</time>
      </trkpt>
      <trkpt lat="47.69399" lon="-2.23559">
        <ele>69.7</ele>
        <time>2021-05-27T14:10:38Z</time>
      </trkpt>
      <trkpt lat="47.69399" lon="-2.23551">
        <ele>69.6</ele>
        <time>2021-05-27T14:10:39Z</time>
      </trkpt>
      <trkpt lat="47.69399" lon="-2.23544">
        <ele>69.6</ele>
        <time>2021-05-27T14:10:40Z</time>
      </trkpt>
      <trkpt lat="47.69399" lon="-2.23537">
        <ele>69.6</ele>
        <time>2021-05-27T14:10:41Z</time>
      </trkpt>
      <trkpt lat="47.69399" lon="-2.23529">
        <ele>69.5</ele>
        <time>2021-05-27T14:10:42Z</time>
      </trkpt>
      <trkpt lat="47.69399" lon="-2.23522">
        <ele>69.5</ele>
        <time>2021-05-27T14:10:43Z</time>
      </trkpt>
      <trkpt lat="47.69399" lon="-2.23515">
        <ele>69.4</ele>
        <time>2021-05-27T14:10:44Z</time>
      </trkpt>
      <trkpt lat="47.69399" lon="-2.23508">
        <ele>69.4</ele>
        <time>2021-05-27T14:10:45Z</time>
      </trkpt>
      <trkpt lat="47.69399" lon="-2.23501">
        <ele>69.4</ele>
        <time>2021-05-27T14:10:46Z</time>
      </trkpt>
      <trkpt lat="47.69398" lon="-2.23494">
        <ele>69.2</ele>
        <time>2021-05-27T14:10:47Z</time>
      </trkpt>
      <trkpt lat="47.69399" lon="-2.23487">
        <ele>69.2</ele>
        <time>2021-05-27T14:10:48Z</time>
      </trkpt>
      <trkpt lat="47.69398" lon="-2.2348">
        <ele>69</ele>
        <time>2021-05-27T14:10:49Z</time>
      </trkpt>
      <trkpt lat="47.69398" lon="-2.23473">
        <ele>68.9</ele>
        <time>2021-05-27T14:10:50Z</time>
      </trkpt>
      <trkpt lat="47.69398" lon="-2.23465">
        <ele>68.8</ele>
        <time>2021-05-27T14:10:51Z</time>
      </trkpt>
      <trkpt lat="47.69398" lon="-2.23459">
        <ele>68.7</ele>
        <time>2021-05-27T14:10:52Z</time>
      </trkpt>
      <trkpt lat="47.69398" lon="-2.23452">
        <ele>68.6</ele>
        <time>2021-05-27T14:10:53Z</time>
      </trkpt>
      <trkpt lat="47.69399" lon="-2.23445">
        <ele>68.6</ele>
        <time>2021-05-27T14:10:54Z</time>
      </trkpt>
      <trkpt lat="47.694" lon="-2.23438">
        <ele>68.5</ele>
        <time>2021-05-27T14:10:55Z</time>
      </trkpt>
      <trkpt lat="47.69401" lon="-2.2343">
        <ele>68.4</ele>
        <time>2021-05-27T14:10:56Z</time>
      </trkpt>
      <trkpt lat="47.69402" lon="-2.23421">
        <ele>68.3</ele>
        <time>2021-05-27T14:10:57Z</time>
      </trkpt>
      <trkpt lat="47.69402" lon="-2.23412">
        <ele>68.5</ele>
        <time>2021-05-27T14:10:58Z</time>
      </trkpt>
      <trkpt lat="47.69402" lon="-2.23404">
        <ele>68.8</ele>
        <time>2021-05-27T14:10:59Z</time>
      </trkpt>
      <trkpt lat="47.69402" lon="-2.23397">
        <ele>69.1</ele>
        <time>2021-05-27T14:11:00Z</time>
      </trkpt>
      <trkpt lat="47.69402" lon="-2.23388">
        <ele>69.4</ele>
        <time>2021-05-27T14:11:01Z</time>
      </trkpt>
      <trkpt lat="47.69402" lon="-2.23381">
        <ele>69.8</ele>
        <time>2021-05-27T14:11:02Z</time>
      </trkpt>
      <trkpt lat="47.69401" lon="-2.23373">
        <ele>70</ele>
        <time>2021-05-27T14:11:03Z</time>
      </trkpt>
      <trkpt lat="47.69399" lon="-2.23364">
        <ele>70.3</ele>
        <time>2021-05-27T14:11:04Z</time>
      </trkpt>
      <trkpt lat="47.69398" lon="-2.23356">
        <ele>70.5</ele>
        <time>2021-05-27T14:11:05Z</time>
      </trkpt>
      <trkpt lat="47.69397" lon="-2.23348">
        <ele>70.7</ele>
        <time>2021-05-27T14:11:06Z</time>
      </trkpt>
      <trkpt lat="47.69395" lon="-2.2334">
        <ele>70.9</ele>
        <time>2021-05-27T14:11:07Z</time>
      </trkpt>
      <trkpt lat="47.69394" lon="-2.23333">
        <ele>71.1</ele>
        <time>2021-05-27T14:11:08Z</time>
      </trkpt>
      <trkpt lat="47.69393" lon="-2.23326">
        <ele>70.9</ele>
        <time>2021-05-27T14:11:09Z</time>
      </trkpt>
      <trkpt lat="47.69393" lon="-2.2332">
        <ele>70.9</ele>
        <time>2021-05-27T14:11:10Z</time>
      </trkpt>
      <trkpt lat="47.69395" lon="-2.23314">
        <ele>70.9</ele>
        <time>2021-05-27T14:11:11Z</time>
      </trkpt>
      <trkpt lat="47.69398" lon="-2.23309">
        <ele>71</ele>
        <time>2021-05-27T14:11:12Z</time>
      </trkpt>
      <trkpt lat="47.69399" lon="-2.23305">
        <ele>71.1</ele>
        <time>2021-05-27T14:11:13Z</time>
      </trkpt>
      <trkpt lat="47.69401" lon="-2.23299">
        <ele>71.1</ele>
        <time>2021-05-27T14:11:14Z</time>
      </trkpt>
      <trkpt lat="47.69403" lon="-2.23293">
        <ele>71.1</ele>
        <time>2021-05-27T14:11:15Z</time>
      </trkpt>
      <trkpt lat="47.69405" lon="-2.23287">
        <ele>71.2</ele>
        <time>2021-05-27T14:11:16Z</time>
      </trkpt>
      <trkpt lat="47.69408" lon="-2.23281">
        <ele>71.2</ele>
        <time>2021-05-27T14:11:17Z</time>
      </trkpt>
      <trkpt lat="47.6941" lon="-2.23276">
        <ele>71.2</ele>
        <time>2021-05-27T14:11:18Z</time>
      </trkpt>
      <trkpt lat="47.69413" lon="-2.2327">
        <ele>71.3</ele>
        <time>2021-05-27T14:11:19Z</time>
      </trkpt>
      <trkpt lat="47.69415" lon="-2.23264">
        <ele>71.3</ele>
        <time>2021-05-27T14:11:20Z</time>
      </trkpt>
      <trkpt lat="47.69418" lon="-2.23258">
        <ele>71.2</ele>
        <time>2021-05-27T14:11:21Z</time>
      </trkpt>
      <trkpt lat="47.6942" lon="-2.23251">
        <ele>71.1</ele>
        <time>2021-05-27T14:11:22Z</time>
      </trkpt>
      <trkpt lat="47.69422" lon="-2.23244">
        <ele>71.2</ele>
        <time>2021-05-27T14:11:23Z</time>
      </trkpt>
      <trkpt lat="47.69422" lon="-2.23237">
        <ele>71.3</ele>
        <time>2021-05-27T14:11:24Z</time>
      </trkpt>
      <trkpt lat="47.69424" lon="-2.2323">
        <ele>71.5</ele>
        <time>2021-05-27T14:11:25Z</time>
      </trkpt>
      <trkpt lat="47.69424" lon="-2.23222">
        <ele>71.6</ele>
        <time>2021-05-27T14:11:26Z</time>
      </trkpt>
      <trkpt lat="47.69424" lon="-2.23215">
        <ele>71.8</ele>
        <time>2021-05-27T14:11:27Z</time>
      </trkpt>
      <trkpt lat="47.69425" lon="-2.23208">
        <ele>71.9</ele>
        <time>2021-05-27T14:11:28Z</time>
      </trkpt>
      <trkpt lat="47.69425" lon="-2.232">
        <ele>72.1</ele>
        <time>2021-05-27T14:11:29Z</time>
      </trkpt>
      <trkpt lat="47.69426" lon="-2.23191">
        <ele>72.2</ele>
        <time>2021-05-27T14:11:30Z</time>
      </trkpt>
      <trkpt lat="47.69426" lon="-2.23184">
        <ele>72.3</ele>
        <time>2021-05-27T14:11:31Z</time>
      </trkpt>
      <trkpt lat="47.69426" lon="-2.23176">
        <ele>72.5</ele>
        <time>2021-05-27T14:11:32Z</time>
      </trkpt>
      <trkpt lat="47.69427" lon="-2.23168">
        <ele>72.6</ele>
        <time>2021-05-27T14:11:33Z</time>
      </trkpt>
      <trkpt lat="47.69428" lon="-2.2316">
        <ele>72.4</ele>
        <time>2021-05-27T14:11:34Z</time>
      </trkpt>
      <trkpt lat="47.69428" lon="-2.23151">
        <ele>72.2</ele>
        <time>2021-05-27T14:11:35Z</time>
      </trkpt>
      <trkpt lat="47.69428" lon="-2.23142">
        <ele>72</ele>
        <time>2021-05-27T14:11:36Z</time>
      </trkpt>
      <trkpt lat="47.69428" lon="-2.23133">
        <ele>71.8</ele>
        <time>2021-05-27T14:11:37Z</time>
      </trkpt>
      <trkpt lat="47.69428" lon="-2.23125">
        <ele>71.6</ele>
        <time>2021-05-27T14:11:38Z</time>
      </trkpt>
      <trkpt lat="47.69427" lon="-2.23117">
        <ele>71.4</ele>
        <time>2021-05-27T14:11:39Z</time>
      </trkpt>
      <trkpt lat="47.69427" lon="-2.23109">
        <ele>71.2</ele>
        <time>2021-05-27T14:11:40Z</time>
      </trkpt>
      <trkpt lat="47.69428" lon="-2.23101">
        <ele>71</ele>
        <time>2021-05-27T14:11:41Z</time>
      </trkpt>
      <trkpt lat="47.69429" lon="-2.23093">
        <ele>70.8</ele>
        <time>2021-05-27T14:11:42Z</time>
      </trkpt>
      <trkpt lat="47.69431" lon="-2.23084">
        <ele>70.5</ele>
        <time>2021-05-27T14:11:43Z</time>
      </trkpt>
      <trkpt lat="47.69432" lon="-2.23075">
        <ele>70.4</ele>
        <time>2021-05-27T14:11:44Z</time>
      </trkpt>
      <trkpt lat="47.69433" lon="-2.23067">
        <ele>70.3</ele>
        <time>2021-05-27T14:11:45Z</time>
      </trkpt>
      <trkpt lat="47.69433" lon="-2.23059">
        <ele>70.2</ele>
        <time>2021-05-27T14:11:46Z</time>
      </trkpt>
      <trkpt lat="47.69435" lon="-2.23053">
        <ele>70</ele>
        <time>2021-05-27T14:11:47Z</time>
      </trkpt>
      <trkpt lat="47.69436" lon="-2.23046">
        <ele>69.9</ele>
        <time>2021-05-27T14:11:48Z</time>
      </trkpt>
      <trkpt lat="47.69438" lon="-2.23039">
        <ele>69.7</ele>
        <time>2021-05-27T14:11:49Z</time>
      </trkpt>
      <trkpt lat="47.69438" lon="-2.23033">
        <ele>69.6</ele>
        <time>2021-05-27T14:11:50Z</time>
      </trkpt>
      <trkpt lat="47.69439" lon="-2.2303">
        <ele>69.5</ele>
        <time>2021-05-27T14:11:51Z</time>
      </trkpt>
      <trkpt lat="47.6944" lon="-2.23025">
        <ele>69.4</ele>
        <time>2021-05-27T14:11:52Z</time>
      </trkpt>
      <trkpt lat="47.69438" lon="-2.23022">
        <ele>69.5</ele>
        <time>2021-05-27T14:11:53Z</time>
      </trkpt>
      <trkpt lat="47.69435" lon="-2.23019">
        <ele>69.6</ele>
        <time>2021-05-27T14:11:54Z</time>
      </trkpt>
      <trkpt lat="47.69436" lon="-2.2301">
        <ele>69.5</ele>
        <time>2021-05-27T14:12:26Z</time>
      </trkpt>
      <trkpt lat="47.69437" lon="-2.23007">
        <ele>69.4</ele>
        <time>2021-05-27T14:12:27Z</time>
      </trkpt>
      <trkpt lat="47.69438" lon="-2.23004">
        <ele>69.2</ele>
        <time>2021-05-27T14:12:28Z</time>
      </trkpt>
      <trkpt lat="47.69439" lon="-2.23">
        <ele>69.1</ele>
        <time>2021-05-27T14:12:29Z</time>
      </trkpt>
      <trkpt lat="47.6944" lon="-2.22997">
        <ele>69.1</ele>
        <time>2021-05-27T14:12:30Z</time>
      </trkpt>
      <trkpt lat="47.69442" lon="-2.22994">
        <ele>69</ele>
        <time>2021-05-27T14:12:31Z</time>
      </trkpt>
      <trkpt lat="47.69443" lon="-2.2299">
        <ele>69</ele>
        <time>2021-05-27T14:12:32Z</time>
      </trkpt>
      <trkpt lat="47.69445" lon="-2.22985">
        <ele>68.9</ele>
        <time>2021-05-27T14:12:33Z</time>
      </trkpt>
      <trkpt lat="47.69445" lon="-2.2298">
        <ele>68.9</ele>
        <time>2021-05-27T14:12:34Z</time>
      </trkpt>
      <trkpt lat="47.69446" lon="-2.22973">
        <ele>69</ele>
        <time>2021-05-27T14:12:35Z</time>
      </trkpt>
      <trkpt lat="47.69446" lon="-2.22967">
        <ele>69.1</ele>
        <time>2021-05-27T14:12:36Z</time>
      </trkpt>
      <trkpt lat="47.69446" lon="-2.22961">
        <ele>69.2</ele>
        <time>2021-05-27T14:12:37Z</time>
      </trkpt>
      <trkpt lat="47.69446" lon="-2.22956">
        <ele>69.2</ele>
        <time>2021-05-27T14:12:38Z</time>
      </trkpt>
      <trkpt lat="47.69446" lon="-2.22951">
        <ele>69.4</ele>
        <time>2021-05-27T14:12:39Z</time>
      </trkpt>
      <trkpt lat="47.69445" lon="-2.22946">
        <ele>69.5</ele>
        <time>2021-05-27T14:12:40Z</time>
      </trkpt>
      <trkpt lat="47.69445" lon="-2.22942">
        <ele>69.6</ele>
        <time>2021-05-27T14:12:41Z</time>
      </trkpt>
      <trkpt lat="47.69444" lon="-2.22938">
        <ele>69.7</ele>
        <time>2021-05-27T14:12:42Z</time>
      </trkpt>
      <trkpt lat="47.69442" lon="-2.22936">
        <ele>69.9</ele>
        <time>2021-05-27T14:12:43Z</time>
      </trkpt>
      <trkpt lat="47.69441" lon="-2.22921">
        <ele>70.2</ele>
        <time>2021-05-27T14:12:59Z</time>
      </trkpt>
      <trkpt lat="47.69442" lon="-2.22916">
        <ele>70.2</ele>
        <time>2021-05-27T14:13:00Z</time>
      </trkpt>
      <trkpt lat="47.69442" lon="-2.22911">
        <ele>70.1</ele>
        <time>2021-05-27T14:13:01Z</time>
      </trkpt>
      <trkpt lat="47.69442" lon="-2.22905">
        <ele>70</ele>
        <time>2021-05-27T14:13:02Z</time>
      </trkpt>
      <trkpt lat="47.69441" lon="-2.22901">
        <ele>70</ele>
        <time>2021-05-27T14:13:03Z</time>
      </trkpt>
      <trkpt lat="47.69439" lon="-2.22896">
        <ele>70.1</ele>
        <time>2021-05-27T14:13:04Z</time>
      </trkpt>
      <trkpt lat="47.69438" lon="-2.22891">
        <ele>70.1</ele>
        <time>2021-05-27T14:13:05Z</time>
      </trkpt>
      <trkpt lat="47.69437" lon="-2.22886">
        <ele>70.1</ele>
        <time>2021-05-27T14:13:06Z</time>
      </trkpt>
      <trkpt lat="47.69435" lon="-2.22881">
        <ele>70.1</ele>
        <time>2021-05-27T14:13:07Z</time>
      </trkpt>
      <trkpt lat="47.69434" lon="-2.22876">
        <ele>70.1</ele>
        <time>2021-05-27T14:13:08Z</time>
      </trkpt>
      <trkpt lat="47.69433" lon="-2.22872">
        <ele>70.1</ele>
        <time>2021-05-27T14:13:09Z</time>
      </trkpt>
      <trkpt lat="47.69431" lon="-2.22867">
        <ele>70.1</ele>
        <time>2021-05-27T14:13:10Z</time>
      </trkpt>
      <trkpt lat="47.6943" lon="-2.22864">
        <ele>70.1</ele>
        <time>2021-05-27T14:13:11Z</time>
      </trkpt>
      <trkpt lat="47.69429" lon="-2.22861">
        <ele>70.1</ele>
        <time>2021-05-27T14:13:12Z</time>
      </trkpt>
      <trkpt lat="47.69429" lon="-2.22859">
        <ele>70.1</ele>
        <time>2021-05-27T14:13:13Z</time>
      </trkpt>
      <trkpt lat="47.69429" lon="-2.22856">
        <ele>70</ele>
        <time>2021-05-27T14:13:14Z</time>
      </trkpt>
      <trkpt lat="47.69428" lon="-2.22853">
        <ele>69.9</ele>
        <time>2021-05-27T14:13:15Z</time>
      </trkpt>
      <trkpt lat="47.69428" lon="-2.22849">
        <ele>69.9</ele>
        <time>2021-05-27T14:13:16Z</time>
      </trkpt>
      <trkpt lat="47.69426" lon="-2.22844">
        <ele>69.9</ele>
        <time>2021-05-27T14:13:17Z</time>
      </trkpt>
      <trkpt lat="47.69425" lon="-2.22839">
        <ele>69.8</ele>
        <time>2021-05-27T14:13:18Z</time>
      </trkpt>
      <trkpt lat="47.69425" lon="-2.22834">
        <ele>69.7</ele>
        <time>2021-05-27T14:13:19Z</time>
      </trkpt>
      <trkpt lat="47.69424" lon="-2.22828">
        <ele>69.6</ele>
        <time>2021-05-27T14:13:20Z</time>
      </trkpt>
      <trkpt lat="47.69423" lon="-2.22822">
        <ele>69.6</ele>
        <time>2021-05-27T14:13:21Z</time>
      </trkpt>
      <trkpt lat="47.69422" lon="-2.22817">
        <ele>69.6</ele>
        <time>2021-05-27T14:13:22Z</time>
      </trkpt>
      <trkpt lat="47.69422" lon="-2.22811">
        <ele>69.5</ele>
        <time>2021-05-27T14:13:23Z</time>
      </trkpt>
      <trkpt lat="47.69421" lon="-2.22806">
        <ele>69.5</ele>
        <time>2021-05-27T14:13:24Z</time>
      </trkpt>
      <trkpt lat="47.69418" lon="-2.22803">
        <ele>69.5</ele>
        <time>2021-05-27T14:13:25Z</time>
      </trkpt>
      <trkpt lat="47.69416" lon="-2.22802">
        <ele>69.6</ele>
        <time>2021-05-27T14:13:26Z</time>
      </trkpt>
      <trkpt lat="47.69414" lon="-2.22801">
        <ele>69.5</ele>
        <time>2021-05-27T14:13:27Z</time>
      </trkpt>
      <trkpt lat="47.69412" lon="-2.22799">
        <ele>69.5</ele>
        <time>2021-05-27T14:13:28Z</time>
      </trkpt>
      <trkpt lat="47.6941" lon="-2.22797">
        <ele>69.4</ele>
        <time>2021-05-27T14:13:29Z</time>
      </trkpt>
      <trkpt lat="47.69409" lon="-2.22794">
        <ele>69.3</ele>
        <time>2021-05-27T14:13:30Z</time>
      </trkpt>
      <trkpt lat="47.69408" lon="-2.2279">
        <ele>69.3</ele>
        <time>2021-05-27T14:13:31Z</time>
      </trkpt>
      <trkpt lat="47.69407" lon="-2.22785">
        <ele>69.2</ele>
        <time>2021-05-27T14:13:32Z</time>
      </trkpt>
      <trkpt lat="47.69406" lon="-2.2278">
        <ele>69.1</ele>
        <time>2021-05-27T14:13:33Z</time>
      </trkpt>
      <trkpt lat="47.69405" lon="-2.22775">
        <ele>69</ele>
        <time>2021-05-27T14:13:34Z</time>
      </trkpt>
      <trkpt lat="47.69404" lon="-2.22771">
        <ele>68.9</ele>
        <time>2021-05-27T14:13:35Z</time>
      </trkpt>
      <trkpt lat="47.69403" lon="-2.22765">
        <ele>68.9</ele>
        <time>2021-05-27T14:13:36Z</time>
      </trkpt>
      <trkpt lat="47.69402" lon="-2.2276">
        <ele>68.8</ele>
        <time>2021-05-27T14:13:37Z</time>
      </trkpt>
      <trkpt lat="47.694" lon="-2.22755">
        <ele>68.7</ele>
        <time>2021-05-27T14:13:38Z</time>
      </trkpt>
      <trkpt lat="47.69398" lon="-2.22751">
        <ele>68.6</ele>
        <time>2021-05-27T14:13:39Z</time>
      </trkpt>
      <trkpt lat="47.69396" lon="-2.22746">
        <ele>68.4</ele>
        <time>2021-05-27T14:13:40Z</time>
      </trkpt>
      <trkpt lat="47.69394" lon="-2.22742">
        <ele>68.3</ele>
        <time>2021-05-27T14:13:41Z</time>
      </trkpt>
      <trkpt lat="47.69391" lon="-2.22738">
        <ele>68.2</ele>
        <time>2021-05-27T14:13:42Z</time>
      </trkpt>
      <trkpt lat="47.69389" lon="-2.22733">
        <ele>68.1</ele>
        <time>2021-05-27T14:13:43Z</time>
      </trkpt>
      <trkpt lat="47.69386" lon="-2.22729">
        <ele>68</ele>
        <time>2021-05-27T14:13:44Z</time>
      </trkpt>
      <trkpt lat="47.69384" lon="-2.22725">
        <ele>67.9</ele>
        <time>2021-05-27T14:13:45Z</time>
      </trkpt>
      <trkpt lat="47.69382" lon="-2.22722">
        <ele>67.8</ele>
        <time>2021-05-27T14:13:46Z</time>
      </trkpt>
      <trkpt lat="47.6938" lon="-2.22718">
        <ele>67.7</ele>
        <time>2021-05-27T14:13:47Z</time>
      </trkpt>
      <trkpt lat="47.69378" lon="-2.22715">
        <ele>67.6</ele>
        <time>2021-05-27T14:13:48Z</time>
      </trkpt>
      <trkpt lat="47.69376" lon="-2.22712">
        <ele>67.6</ele>
        <time>2021-05-27T14:13:49Z</time>
      </trkpt>
      <trkpt lat="47.69374" lon="-2.2271">
        <ele>67.5</ele>
        <time>2021-05-27T14:13:50Z</time>
      </trkpt>
      <trkpt lat="47.69372" lon="-2.22709">
        <ele>67.5</ele>
        <time>2021-05-27T14:13:51Z</time>
      </trkpt>
      <trkpt lat="47.6937" lon="-2.22708">
        <ele>67.4</ele>
        <time>2021-05-27T14:13:52Z</time>
      </trkpt>
      <trkpt lat="47.69369" lon="-2.22707">
        <ele>67.4</ele>
        <time>2021-05-27T14:13:53Z</time>
      </trkpt>
      <trkpt lat="47.69368" lon="-2.22705">
        <ele>67.4</ele>
        <time>2021-05-27T14:13:54Z</time>
      </trkpt>
      <trkpt lat="47.69366" lon="-2.22703">
        <ele>67.3</ele>
        <time>2021-05-27T14:13:55Z</time>
      </trkpt>
      <trkpt lat="47.69366" lon="-2.22701">
        <ele>67.3</ele>
        <time>2021-05-27T14:13:56Z</time>
      </trkpt>
      <trkpt lat="47.69366" lon="-2.22698">
        <ele>67.3</ele>
        <time>2021-05-27T14:13:57Z</time>
      </trkpt>
      <trkpt lat="47.69366" lon="-2.22697">
        <ele>67.3</ele>
        <time>2021-05-27T14:13:58Z</time>
      </trkpt>
      <trkpt lat="47.69367" lon="-2.22696">
        <ele>67.3</ele>
        <time>2021-05-27T14:13:59Z</time>
      </trkpt>
      <trkpt lat="47.69367" lon="-2.22696">
        <ele>67.3</ele>
        <time>2021-05-27T14:14:00Z</time>
      </trkpt>
      <trkpt lat="47.69368" lon="-2.22696">
        <ele>67.3</ele>
        <time>2021-05-27T14:14:01Z</time>
      </trkpt>
      <trkpt lat="47.69368" lon="-2.22696">
        <ele>67.3</ele>
        <time>2021-05-27T14:14:02Z</time>
      </trkpt>
      <trkpt lat="47.69368" lon="-2.22696">
        <ele>67.3</ele>
        <time>2021-05-27T14:14:03Z</time>
      </trkpt>
      <trkpt lat="47.69368" lon="-2.22696">
        <ele>67.3</ele>
        <time>2021-05-27T14:14:04Z</time>
      </trkpt>
      <trkpt lat="47.69368" lon="-2.22696">
        <ele>67.3</ele>
        <time>2021-05-27T14:14:05Z</time>
      </trkpt>
      <trkpt lat="47.69368" lon="-2.22696">
        <ele>67.3</ele>
        <time>2021-05-27T14:14:06Z</time>
      </trkpt>
      <trkpt lat="47.69368" lon="-2.22696">
        <ele>67.3</ele>
        <time>2021-05-27T14:14:07Z</time>
      </trkpt>
      <trkpt lat="47.69368" lon="-2.22696">
        <ele>67.3</ele>
        <time>2021-05-27T14:14:08Z</time>
      </trkpt>
      <trkpt lat="47.69368" lon="-2.22696">
        <ele>67.3</ele>
        <time>2021-05-27T14:14:09Z</time>
      </trkpt>
      <trkpt lat="47.69368" lon="-2.22696">
        <ele>67.3</ele>
        <time>2021-05-27T14:14:10Z</time>
      </trkpt>
      <trkpt lat="47.69368" lon="-2.22696">
        <ele>67.3</ele>
        <time>2021-05-27T14:14:11Z</time>
      </trkpt>
      <trkpt lat="47.69368" lon="-2.22696">
        <ele>67.3</ele>
        <time>2021-05-27T14:14:12Z</time>
      </trkpt>
      <trkpt lat="47.69368" lon="-2.22696">
        <ele>67.3</ele>
        <time>2021-05-27T14:14:13Z</time>
      </trkpt>
      <trkpt lat="47.69368" lon="-2.22696">
        <ele>67.3</ele>
        <time>2021-05-27T14:14:14Z</time>
      </trkpt>
      <trkpt lat="47.69368" lon="-2.22696">
        <ele>67.3</ele>
        <time>2021-05-27T14:14:15Z</time>
      </trkpt>
      <trkpt lat="47.69368" lon="-2.22696">
        <ele>67.3</ele>
        <time>2021-05-27T14:14:16Z</time>
      </trkpt>
      <trkpt lat="47.69368" lon="-2.22696">
        <ele>67.3</ele>
        <time>2021-05-27T14:14:17Z</time>
      </trkpt>
      <trkpt lat="47.69368" lon="-2.22696">
        <ele>67.3</ele>
        <time>2021-05-27T14:14:18Z</time>
      </trkpt>
      <trkpt lat="47.69368" lon="-2.22696">
        <ele>67.3</ele>
        <time>2021-05-27T14:14:19Z</time>
      </trkpt>
      <trkpt lat="47.69368" lon="-2.22696">
        <ele>67.3</ele>
        <time>2021-05-27T14:14:20Z</time>
      </trkpt>
      <trkpt lat="47.69368" lon="-2.22696">
        <ele>67.3</ele>
        <time>2021-05-27T14:14:21Z</time>
      </trkpt>
      <trkpt lat="47.69368" lon="-2.22696">
        <ele>67.3</ele>
        <time>2021-05-27T14:14:22Z</time>
      </trkpt>
      <trkpt lat="47.69368" lon="-2.22696">
        <ele>67.3</ele>
        <time>2021-05-27T14:14:23Z</time>
      </trkpt>
      <trkpt lat="47.69368" lon="-2.22696">
        <ele>67.3</ele>
        <time>2021-05-27T14:14:24Z</time>
      </trkpt>
      <trkpt lat="47.69368" lon="-2.22696">
        <ele>67.3</ele>
        <time>2021-05-27T14:14:25Z</time>
      </trkpt>
      <trkpt lat="47.69368" lon="-2.22696">
        <ele>67.3</ele>
        <time>2021-05-27T14:14:26Z</time>
      </trkpt>
      <trkpt lat="47.69368" lon="-2.22696">
        <ele>67.3</ele>
        <time>2021-05-27T14:14:27Z</time>
      </trkpt>
      <trkpt lat="47.69368" lon="-2.22696">
        <ele>67.3</ele>
        <time>2021-05-27T14:14:28Z</time>
      </trkpt>
      <trkpt lat="47.69368" lon="-2.22696">
        <ele>67.3</ele>
        <time>2021-05-27T14:14:29Z</time>
      </trkpt>
      <trkpt lat="47.69368" lon="-2.22696">
        <ele>67.3</ele>
        <time>2021-05-27T14:14:30Z</time>
      </trkpt>
      <trkpt lat="47.69368" lon="-2.22696">
        <ele>67.3</ele>
        <time>2021-05-27T14:14:31Z</time>
      </trkpt>
      <trkpt lat="47.69368" lon="-2.22696">
        <ele>67.3</ele>
        <time>2021-05-27T14:14:32Z</time>
      </trkpt>
      <trkpt lat="47.69368" lon="-2.22696">
        <ele>67.3</ele>
        <time>2021-05-27T14:14:33Z</time>
      </trkpt>
      <trkpt lat="47.69368" lon="-2.22696">
        <ele>67.3</ele>
        <time>2021-05-27T14:14:34Z</time>
      </trkpt>
      <trkpt lat="47.69368" lon="-2.22696">
        <ele>67.3</ele>
        <time>2021-05-27T14:14:35Z</time>
      </trkpt>
      <trkpt lat="47.69368" lon="-2.22696">
        <ele>67.3</ele>
        <time>2021-05-27T14:14:36Z</time>
      </trkpt>
      <trkpt lat="47.69368" lon="-2.22696">
        <ele>67.3</ele>
        <time>2021-05-27T14:14:37Z</time>
      </trkpt>
      <trkpt lat="47.69368" lon="-2.22696">
        <ele>67.3</ele>
        <time>2021-05-27T14:14:38Z</time>
      </trkpt>
      <trkpt lat="47.69368" lon="-2.22696">
        <ele>67.3</ele>
        <time>2021-05-27T14:14:39Z</time>
      </trkpt>
      <trkpt lat="47.69368" lon="-2.22696">
        <ele>67.3</ele>
        <time>2021-05-27T14:14:40Z</time>
      </trkpt>
      <trkpt lat="47.69368" lon="-2.22696">
        <ele>67.3</ele>
        <time>2021-05-27T14:14:41Z</time>
      </trkpt>
      <trkpt lat="47.69368" lon="-2.22696">
        <ele>67.3</ele>
        <time>2021-05-27T14:14:42Z</time>
      </trkpt>
      <trkpt lat="47.69368" lon="-2.22696">
        <ele>67.3</ele>
        <time>2021-05-27T14:14:43Z</time>
      </trkpt>
      <trkpt lat="47.69368" lon="-2.22696">
        <ele>67.3</ele>
        <time>2021-05-27T14:14:44Z</time>
      </trkpt>
      <trkpt lat="47.69368" lon="-2.22696">
        <ele>67.3</ele>
        <time>2021-05-27T14:14:45Z</time>
      </trkpt>
      <trkpt lat="47.69368" lon="-2.22696">
        <ele>67.3</ele>
        <time>2021-05-27T14:14:46Z</time>
      </trkpt>
      <trkpt lat="47.69368" lon="-2.22696">
        <ele>67.3</ele>
        <time>2021-05-27T14:14:47Z</time>
      </trkpt>
      <trkpt lat="47.69368" lon="-2.22696">
        <ele>67.3</ele>
        <time>2021-05-27T14:14:48Z</time>
      </trkpt>
      <trkpt lat="47.69368" lon="-2.22696">
        <ele>67.3</ele>
        <time>2021-05-27T14:14:49Z</time>
      </trkpt>
      <trkpt lat="47.69368" lon="-2.22696">
        <ele>67.3</ele>
        <time>2021-05-27T14:14:50Z</time>
      </trkpt>
      <trkpt lat="47.69368" lon="-2.22696">
        <ele>67.3</ele>
        <time>2021-05-27T14:14:51Z</time>
      </trkpt>
      <trkpt lat="47.69368" lon="-2.22696">
        <ele>67.3</ele>
        <time>2021-05-27T14:14:52Z</time>
      </trkpt>
      <trkpt lat="47.69368" lon="-2.22696">
        <ele>67.3</ele>
        <time>2021-05-27T14:14:53Z</time>
      </trkpt>
      <trkpt lat="47.69368" lon="-2.22696">
        <ele>67.3</ele>
        <time>2021-05-27T14:14:54Z</time>
      </trkpt>
      <trkpt lat="47.69368" lon="-2.22696">
        <ele>67.3</ele>
        <time>2021-05-27T14:14:55Z</time>
      </trkpt>
      <trkpt lat="47.69368" lon="-2.22696">
        <ele>67.3</ele>
        <time>2021-05-27T14:14:56Z</time>
      </trkpt>
      <trkpt lat="47.69368" lon="-2.22696">
        <ele>67.3</ele>
        <time>2021-05-27T14:14:57Z</time>
      </trkpt>
      <trkpt lat="47.69368" lon="-2.22696">
        <ele>67.3</ele>
        <time>2021-05-27T14:14:58Z</time>
      </trkpt>
      <trkpt lat="47.69368" lon="-2.22696">
        <ele>67.3</ele>
        <time>2021-05-27T14:14:59Z</time>
      </trkpt>
      <trkpt lat="47.69368" lon="-2.22696">
        <ele>67.3</ele>
        <time>2021-05-27T14:15:00Z</time>
      </trkpt>
      <trkpt lat="47.69368" lon="-2.22696">
        <ele>67.3</ele>
        <time>2021-05-27T14:15:01Z</time>
      </trkpt>
      <trkpt lat="47.69368" lon="-2.22696">
        <ele>67.3</ele>
        <time>2021-05-27T14:15:02Z</time>
      </trkpt>
      <trkpt lat="47.69368" lon="-2.22696">
        <ele>67.3</ele>
        <time>2021-05-27T14:15:03Z</time>
      </trkpt>
      <trkpt lat="47.69368" lon="-2.22696">
        <ele>67.3</ele>
        <time>2021-05-27T14:15:04Z</time>
      </trkpt>
      <trkpt lat="47.69368" lon="-2.22696">
        <ele>67.3</ele>
        <time>2021-05-27T14:15:05Z</time>
      </trkpt>
      <trkpt lat="47.69368" lon="-2.22696">
        <ele>67.3</ele>
        <time>2021-05-27T14:15:06Z</time>
      </trkpt>
      <trkpt lat="47.69368" lon="-2.22696">
        <ele>67.3</ele>
        <time>2021-05-27T14:15:07Z</time>
      </trkpt>
      <trkpt lat="47.69368" lon="-2.22696">
        <ele>67.3</ele>
        <time>2021-05-27T14:15:08Z</time>
      </trkpt>
      <trkpt lat="47.69368" lon="-2.22696">
        <ele>67.3</ele>
        <time>2021-05-27T14:15:09Z</time>
      </trkpt>
      <trkpt lat="47.69368" lon="-2.22696">
        <ele>67.3</ele>
        <time>2021-05-27T14:15:10Z</time>
      </trkpt>
      <trkpt lat="47.69368" lon="-2.22696">
        <ele>67.3</ele>
        <time>2021-05-27T14:15:11Z</time>
      </trkpt>
      <trkpt lat="47.69368" lon="-2.22696">
        <ele>67.3</ele>
        <time>2021-05-27T14:15:12Z</time>
      </trkpt>
      <trkpt lat="47.69368" lon="-2.22696">
        <ele>67.3</ele>
        <time>2021-05-27T14:15:13Z</time>
      </trkpt>
      <trkpt lat="47.69368" lon="-2.22696">
        <ele>67.3</ele>
        <time>2021-05-27T14:15:14Z</time>
      </trkpt>
      <trkpt lat="47.69368" lon="-2.22696">
        <ele>67.3</ele>
        <time>2021-05-27T14:15:15Z</time>
      </trkpt>
      <trkpt lat="47.69368" lon="-2.22696">
        <ele>67.3</ele>
        <time>2021-05-27T14:15:16Z</time>
      </trkpt>
      <trkpt lat="47.69368" lon="-2.22696">
        <ele>67.3</ele>
        <time>2021-05-27T14:15:17Z</time>
      </trkpt>
      <trkpt lat="47.69368" lon="-2.22696">
        <ele>67.3</ele>
        <time>2021-05-27T14:15:18Z</time>
      </trkpt>
      <trkpt lat="47.69368" lon="-2.22696">
        <ele>67.3</ele>
        <time>2021-05-27T14:15:19Z</time>
      </trkpt>
      <trkpt lat="47.69368" lon="-2.22696">
        <ele>67.3</ele>
        <time>2021-05-27T14:15:20Z</time>
      </trkpt>
      <trkpt lat="47.69368" lon="-2.22696">
        <ele>67.3</ele>
        <time>2021-05-27T14:15:21Z</time>
      </trkpt>
      <trkpt lat="47.69368" lon="-2.22696">
        <ele>67.3</ele>
        <time>2021-05-27T14:15:22Z</time>
      </trkpt>
      <trkpt lat="47.69368" lon="-2.22696">
        <ele>67.3</ele>
        <time>2021-05-27T14:15:23Z</time>
      </trkpt>
      <trkpt lat="47.69368" lon="-2.22696">
        <ele>67.3</ele>
        <time>2021-05-27T14:15:24Z</time>
      </trkpt>
      <trkpt lat="47.69368" lon="-2.22696">
        <ele>67.3</ele>
        <time>2021-05-27T14:15:25Z</time>
      </trkpt>
      <trkpt lat="47.69368" lon="-2.22696">
        <ele>67.3</ele>
        <time>2021-05-27T14:15:26Z</time>
      </trkpt>
      <trkpt lat="47.69368" lon="-2.22696">
        <ele>67.3</ele>
        <time>2021-05-27T14:15:27Z</time>
      </trkpt>
      <trkpt lat="47.69368" lon="-2.22696">
        <ele>67.3</ele>
        <time>2021-05-27T14:15:28Z</time>
      </trkpt>
      <trkpt lat="47.69368" lon="-2.22696">
        <ele>67.3</ele>
        <time>2021-05-27T14:15:29Z</time>
      </trkpt>
      <trkpt lat="47.69368" lon="-2.22696">
        <ele>67.3</ele>
        <time>2021-05-27T14:15:30Z</time>
      </trkpt>
      <trkpt lat="47.69368" lon="-2.22696">
        <ele>67.3</ele>
        <time>2021-05-27T14:15:31Z</time>
      </trkpt>
      <trkpt lat="47.69368" lon="-2.22696">
        <ele>67.3</ele>
        <time>2021-05-27T14:15:32Z</time>
      </trkpt>
      <trkpt lat="47.69368" lon="-2.22696">
        <ele>67.3</ele>
        <time>2021-05-27T14:15:33Z</time>
      </trkpt>
      <trkpt lat="47.69368" lon="-2.22696">
        <ele>67.3</ele>
        <time>2021-05-27T14:15:34Z</time>
      </trkpt>
      <trkpt lat="47.69368" lon="-2.22696">
        <ele>67.3</ele>
        <time>2021-05-27T14:15:35Z</time>
      </trkpt>
      <trkpt lat="47.69368" lon="-2.22696">
        <ele>67.3</ele>
        <time>2021-05-27T14:15:36Z</time>
      </trkpt>
      <trkpt lat="47.69368" lon="-2.22696">
        <ele>67.3</ele>
        <time>2021-05-27T14:15:37Z</time>
      </trkpt>
      <trkpt lat="47.69368" lon="-2.22696">
        <ele>67.3</ele>
        <time>2021-05-27T14:15:38Z</time>
      </trkpt>
      <trkpt lat="47.69368" lon="-2.22696">
        <ele>67.3</ele>
        <time>2021-05-27T14:15:39Z</time>
      </trkpt>
      <trkpt lat="47.69368" lon="-2.22696">
        <ele>67.3</ele>
        <time>2021-05-27T14:15:40Z</time>
      </trkpt>
      <trkpt lat="47.69368" lon="-2.22696">
        <ele>67.3</ele>
        <time>2021-05-27T14:15:41Z</time>
      </trkpt>
      <trkpt lat="47.69368" lon="-2.22696">
        <ele>67.3</ele>
        <time>2021-05-27T14:15:42Z</time>
      </trkpt>
      <trkpt lat="47.69368" lon="-2.22696">
        <ele>67.3</ele>
        <time>2021-05-27T14:15:43Z</time>
      </trkpt>
      <trkpt lat="47.69368" lon="-2.22696">
        <ele>67.3</ele>
        <time>2021-05-27T14:15:44Z</time>
      </trkpt>
      <trkpt lat="47.69368" lon="-2.22696">
        <ele>67.3</ele>
        <time>2021-05-27T14:15:45Z</time>
      </trkpt>
      <trkpt lat="47.69368" lon="-2.22696">
        <ele>67.3</ele>
        <time>2021-05-27T14:15:46Z</time>
      </trkpt>
      <trkpt lat="47.69368" lon="-2.22696">
        <ele>67.3</ele>
        <time>2021-05-27T14:15:47Z</time>
      </trkpt>
      <trkpt lat="47.69368" lon="-2.22696">
        <ele>67.3</ele>
        <time>2021-05-27T14:15:48Z</time>
      </trkpt>
      <trkpt lat="47.69368" lon="-2.22696">
        <ele>67.3</ele>
        <time>2021-05-27T14:15:49Z</time>
      </trkpt>
      <trkpt lat="47.69368" lon="-2.22696">
        <ele>67.3</ele>
        <time>2021-05-27T14:15:50Z</time>
      </trkpt>
      <trkpt lat="47.69368" lon="-2.22696">
        <ele>67.3</ele>
        <time>2021-05-27T14:15:51Z</time>
      </trkpt>
      <trkpt lat="47.69368" lon="-2.22696">
        <ele>67.3</ele>
        <time>2021-05-27T14:15:52Z</time>
      </trkpt>
      <trkpt lat="47.69368" lon="-2.22696">
        <ele>67.3</ele>
        <time>2021-05-27T14:15:53Z</time>
      </trkpt>
      <trkpt lat="47.69368" lon="-2.22696">
        <ele>67.3</ele>
        <time>2021-05-27T14:15:54Z</time>
      </trkpt>
      <trkpt lat="47.69368" lon="-2.22696">
        <ele>67.3</ele>
        <time>2021-05-27T14:15:55Z</time>
      </trkpt>
      <trkpt lat="47.69368" lon="-2.22696">
        <ele>67.3</ele>
        <time>2021-05-27T14:15:56Z</time>
      </trkpt>
      <trkpt lat="47.69368" lon="-2.22696">
        <ele>67.3</ele>
        <time>2021-05-27T14:15:57Z</time>
      </trkpt>
      <trkpt lat="47.69368" lon="-2.22696">
        <ele>67.3</ele>
        <time>2021-05-27T14:15:58Z</time>
      </trkpt>
      <trkpt lat="47.69368" lon="-2.22696">
        <ele>67.3</ele>
        <time>2021-05-27T14:15:59Z</time>
      </trkpt>
      <trkpt lat="47.69368" lon="-2.22696">
        <ele>67.3</ele>
        <time>2021-05-27T14:16:00Z</time>
      </trkpt>
      <trkpt lat="47.69368" lon="-2.22696">
        <ele>67.3</ele>
        <time>2021-05-27T14:16:01Z</time>
      </trkpt>
      <trkpt lat="47.69368" lon="-2.22696">
        <ele>67.3</ele>
        <time>2021-05-27T14:16:02Z</time>
      </trkpt>
      <trkpt lat="47.69368" lon="-2.22696">
        <ele>67.3</ele>
        <time>2021-05-27T14:16:03Z</time>
      </trkpt>
      <trkpt lat="47.69368" lon="-2.22696">
        <ele>67.3</ele>
        <time>2021-05-27T14:16:04Z</time>
      </trkpt>
      <trkpt lat="47.69368" lon="-2.22696">
        <ele>67.3</ele>
        <time>2021-05-27T14:16:05Z</time>
      </trkpt>
      <trkpt lat="47.69368" lon="-2.22696">
        <ele>67.3</ele>
        <time>2021-05-27T14:16:06Z</time>
      </trkpt>
      <trkpt lat="47.69368" lon="-2.22696">
        <ele>67.3</ele>
        <time>2021-05-27T14:16:07Z</time>
      </trkpt>
      <trkpt lat="47.69368" lon="-2.22696">
        <ele>67.3</ele>
        <time>2021-05-27T14:16:08Z</time>
      </trkpt>
      <trkpt lat="47.69368" lon="-2.22696">
        <ele>67.3</ele>
        <time>2021-05-27T14:16:09Z</time>
      </trkpt>
      <trkpt lat="47.69368" lon="-2.22696">
        <ele>67.3</ele>
        <time>2021-05-27T14:16:10Z</time>
      </trkpt>
      <trkpt lat="47.69368" lon="-2.22696">
        <ele>67.3</ele>
        <time>2021-05-27T14:16:11Z</time>
      </trkpt>
      <trkpt lat="47.69368" lon="-2.22696">
        <ele>67.3</ele>
        <time>2021-05-27T14:16:12Z</time>
      </trkpt>
      <trkpt lat="47.69368" lon="-2.22696">
        <ele>67.3</ele>
        <time>2021-05-27T14:16:13Z</time>
      </trkpt>
      <trkpt lat="47.69368" lon="-2.22696">
        <ele>67.3</ele>
        <time>2021-05-27T14:16:14Z</time>
      </trkpt>
      <trkpt lat="47.69368" lon="-2.22696">
        <ele>67.3</ele>
        <time>2021-05-27T14:16:15Z</time>
      </trkpt>
      <trkpt lat="47.69368" lon="-2.22696">
        <ele>67.3</ele>
        <time>2021-05-27T14:16:16Z</time>
      </trkpt>
      <trkpt lat="47.69368" lon="-2.22696">
        <ele>67.3</ele>
        <time>2021-05-27T14:16:17Z</time>
      </trkpt>
      <trkpt lat="47.69368" lon="-2.22696">
        <ele>67.3</ele>
        <time>2021-05-27T14:16:18Z</time>
      </trkpt>
      <trkpt lat="47.69368" lon="-2.22696">
        <ele>67.3</ele>
        <time>2021-05-27T14:16:19Z</time>
      </trkpt>
      <trkpt lat="47.69368" lon="-2.22696">
        <ele>67.3</ele>
        <time>2021-05-27T14:16:20Z</time>
      </trkpt>
      <trkpt lat="47.69368" lon="-2.22696">
        <ele>67.3</ele>
        <time>2021-05-27T14:16:21Z</time>
      </trkpt>
      <trkpt lat="47.69368" lon="-2.22696">
        <ele>67.3</ele>
        <time>2021-05-27T14:16:22Z</time>
      </trkpt>
      <trkpt lat="47.69368" lon="-2.22696">
        <ele>67.3</ele>
        <time>2021-05-27T14:16:23Z</time>
      </trkpt>
      <trkpt lat="47.69368" lon="-2.22696">
        <ele>67.3</ele>
        <time>2021-05-27T14:16:24Z</time>
      </trkpt>
      <trkpt lat="47.69368" lon="-2.22696">
        <ele>67.3</ele>
        <time>2021-05-27T14:16:25Z</time>
      </trkpt>
      <trkpt lat="47.69368" lon="-2.22696">
        <ele>67.3</ele>
        <time>2021-05-27T14:16:26Z</time>
      </trkpt>
      <trkpt lat="47.69368" lon="-2.22696">
        <ele>67.3</ele>
        <time>2021-05-27T14:16:27Z</time>
      </trkpt>
      <trkpt lat="47.69368" lon="-2.22696">
        <ele>67.3</ele>
        <time>2021-05-27T14:16:28Z</time>
      </trkpt>
      <trkpt lat="47.69368" lon="-2.22696">
        <ele>67.3</ele>
        <time>2021-05-27T14:16:29Z</time>
      </trkpt>
      <trkpt lat="47.69368" lon="-2.22696">
        <ele>67.3</ele>
        <time>2021-05-27T14:16:30Z</time>
      </trkpt>
      <trkpt lat="47.69368" lon="-2.22696">
        <ele>67.3</ele>
        <time>2021-05-27T14:16:31Z</time>
      </trkpt>
      <trkpt lat="47.69368" lon="-2.22696">
        <ele>67.3</ele>
        <time>2021-05-27T14:16:32Z</time>
      </trkpt>
      <trkpt lat="47.69368" lon="-2.22696">
        <ele>67.3</ele>
        <time>2021-05-27T14:16:33Z</time>
      </trkpt>
      <trkpt lat="47.69368" lon="-2.22696">
        <ele>67.3</ele>
        <time>2021-05-27T14:16:34Z</time>
      </trkpt>
      <trkpt lat="47.69368" lon="-2.22696">
        <ele>67.3</ele>
        <time>2021-05-27T14:16:35Z</time>
      </trkpt>
      <trkpt lat="47.69368" lon="-2.22696">
        <ele>67.3</ele>
        <time>2021-05-27T14:16:36Z</time>
      </trkpt>
      <trkpt lat="47.69368" lon="-2.22696">
        <ele>67.3</ele>
        <time>2021-05-27T14:16:37Z</time>
      </trkpt>
      <trkpt lat="47.69368" lon="-2.22696">
        <ele>67.3</ele>
        <time>2021-05-27T14:16:38Z</time>
      </trkpt>
      <trkpt lat="47.69368" lon="-2.22696">
        <ele>67.3</ele>
        <time>2021-05-27T14:16:39Z</time>
      </trkpt>
      <trkpt lat="47.69368" lon="-2.22696">
        <ele>67.3</ele>
        <time>2021-05-27T14:16:40Z</time>
      </trkpt>
      <trkpt lat="47.69368" lon="-2.22696">
        <ele>67.3</ele>
        <time>2021-05-27T14:16:41Z</time>
      </trkpt>
      <trkpt lat="47.69368" lon="-2.22696">
        <ele>67.3</ele>
        <time>2021-05-27T14:16:42Z</time>
      </trkpt>
      <trkpt lat="47.69368" lon="-2.22696">
        <ele>67.3</ele>
        <time>2021-05-27T14:16:43Z</time>
      </trkpt>
      <trkpt lat="47.69368" lon="-2.22696">
        <ele>67.3</ele>
        <time>2021-05-27T14:16:44Z</time>
      </trkpt>
      <trkpt lat="47.69368" lon="-2.22696">
        <ele>67.3</ele>
        <time>2021-05-27T14:16:45Z</time>
      </trkpt>
      <trkpt lat="47.69368" lon="-2.22696">
        <ele>67.3</ele>
        <time>2021-05-27T14:16:46Z</time>
      </trkpt>
      <trkpt lat="47.69368" lon="-2.22696">
        <ele>67.3</ele>
        <time>2021-05-27T14:16:47Z</time>
      </trkpt>
      <trkpt lat="47.69368" lon="-2.22696">
        <ele>67.3</ele>
        <time>2021-05-27T14:16:48Z</time>
      </trkpt>
      <trkpt lat="47.69368" lon="-2.22696">
        <ele>67.3</ele>
        <time>2021-05-27T14:16:49Z</time>
      </trkpt>
      <trkpt lat="47.69368" lon="-2.22696">
        <ele>67.3</ele>
        <time>2021-05-27T14:16:50Z</time>
      </trkpt>
      <trkpt lat="47.69368" lon="-2.22696">
        <ele>67.3</ele>
        <time>2021-05-27T14:16:51Z</time>
      </trkpt>
      <trkpt lat="47.69368" lon="-2.22696">
        <ele>67.3</ele>
        <time>2021-05-27T14:16:52Z</time>
      </trkpt>
      <trkpt lat="47.69368" lon="-2.22696">
        <ele>67.3</ele>
        <time>2021-05-27T14:16:53Z</time>
      </trkpt>
      <trkpt lat="47.69368" lon="-2.22696">
        <ele>67.3</ele>
        <time>2021-05-27T14:16:54Z</time>
      </trkpt>
      <trkpt lat="47.69368" lon="-2.22696">
        <ele>67.3</ele>
        <time>2021-05-27T14:16:55Z</time>
      </trkpt>
      <trkpt lat="47.69368" lon="-2.22696">
        <ele>67.3</ele>
        <time>2021-05-27T14:16:56Z</time>
      </trkpt>
      <trkpt lat="47.69368" lon="-2.22696">
        <ele>67.3</ele>
        <time>2021-05-27T14:16:57Z</time>
      </trkpt>
      <trkpt lat="47.69368" lon="-2.22696">
        <ele>67.3</ele>
        <time>2021-05-27T14:16:58Z</time>
      </trkpt>
      <trkpt lat="47.69368" lon="-2.22696">
        <ele>67.3</ele>
        <time>2021-05-27T14:16:59Z</time>
      </trkpt>
      <trkpt lat="47.69368" lon="-2.22696">
        <ele>67.3</ele>
        <time>2021-05-27T14:17:00Z</time>
      </trkpt>
      <trkpt lat="47.69368" lon="-2.22696">
        <ele>67.3</ele>
        <time>2021-05-27T14:17:01Z</time>
      </trkpt>
      <trkpt lat="47.69368" lon="-2.22696">
        <ele>67.3</ele>
        <time>2021-05-27T14:17:02Z</time>
      </trkpt>
      <trkpt lat="47.69368" lon="-2.22696">
        <ele>67.3</ele>
        <time>2021-05-27T14:17:03Z</time>
      </trkpt>
      <trkpt lat="47.69368" lon="-2.22696">
        <ele>67.3</ele>
        <time>2021-05-27T14:17:04Z</time>
      </trkpt>
      <trkpt lat="47.69368" lon="-2.22696">
        <ele>67.3</ele>
        <time>2021-05-27T14:17:05Z</time>
      </trkpt>
      <trkpt lat="47.69368" lon="-2.22696">
        <ele>67.3</ele>
        <time>2021-05-27T14:17:06Z</time>
      </trkpt>
      <trkpt lat="47.69368" lon="-2.22696">
        <ele>67.3</ele>
        <time>2021-05-27T14:17:07Z</time>
      </trkpt>
      <trkpt lat="47.69368" lon="-2.22696">
        <ele>67.3</ele>
        <time>2021-05-27T14:17:08Z</time>
      </trkpt>
      <trkpt lat="47.69368" lon="-2.22696">
        <ele>67.3</ele>
        <time>2021-05-27T14:17:09Z</time>
      </trkpt>
      <trkpt lat="47.69368" lon="-2.22696">
        <ele>67.3</ele>
        <time>2021-05-27T14:17:10Z</time>
      </trkpt>
      <trkpt lat="47.69368" lon="-2.22696">
        <ele>67.3</ele>
        <time>2021-05-27T14:17:11Z</time>
      </trkpt>
      <trkpt lat="47.69368" lon="-2.22696">
        <ele>67.3</ele>
        <time>2021-05-27T14:17:12Z</time>
      </trkpt>
      <trkpt lat="47.69368" lon="-2.22696">
        <ele>67.3</ele>
        <time>2021-05-27T14:17:13Z</time>
      </trkpt>
      <trkpt lat="47.69368" lon="-2.22696">
        <ele>67.3</ele>
        <time>2021-05-27T14:17:14Z</time>
      </trkpt>
      <trkpt lat="47.69368" lon="-2.22696">
        <ele>67.3</ele>
        <time>2021-05-27T14:17:15Z</time>
      </trkpt>
      <trkpt lat="47.69368" lon="-2.22696">
        <ele>67.3</ele>
        <time>2021-05-27T14:17:16Z</time>
      </trkpt>
      <trkpt lat="47.69368" lon="-2.22696">
        <ele>67.3</ele>
        <time>2021-05-27T14:17:17Z</time>
      </trkpt>
      <trkpt lat="47.69368" lon="-2.22696">
        <ele>67.3</ele>
        <time>2021-05-27T14:17:18Z</time>
      </trkpt>
      <trkpt lat="47.69368" lon="-2.22696">
        <ele>67.3</ele>
        <time>2021-05-27T14:17:19Z</time>
      </trkpt>
      <trkpt lat="47.69368" lon="-2.22696">
        <ele>67.3</ele>
        <time>2021-05-27T14:17:20Z</time>
      </trkpt>
      <trkpt lat="47.69368" lon="-2.22696">
        <ele>67.3</ele>
        <time>2021-05-27T14:17:21Z</time>
      </trkpt>
      <trkpt lat="47.69368" lon="-2.22696">
        <ele>67.3</ele>
        <time>2021-05-27T14:17:22Z</time>
      </trkpt>
      <trkpt lat="47.69368" lon="-2.22696">
        <ele>67.3</ele>
        <time>2021-05-27T14:17:23Z</time>
      </trkpt>
      <trkpt lat="47.69368" lon="-2.22696">
        <ele>67.3</ele>
        <time>2021-05-27T14:17:24Z</time>
      </trkpt>
      <trkpt lat="47.69368" lon="-2.22696">
        <ele>67.3</ele>
        <time>2021-05-27T14:17:25Z</time>
      </trkpt>
      <trkpt lat="47.69368" lon="-2.22696">
        <ele>67.3</ele>
        <time>2021-05-27T14:17:26Z</time>
      </trkpt>
      <trkpt lat="47.69368" lon="-2.22696">
        <ele>67.3</ele>
        <time>2021-05-27T14:17:27Z</time>
      </trkpt>
      <trkpt lat="47.69368" lon="-2.22696">
        <ele>67.3</ele>
        <time>2021-05-27T14:17:28Z</time>
      </trkpt>
      <trkpt lat="47.69368" lon="-2.22696">
        <ele>67.3</ele>
        <time>2021-05-27T14:17:29Z</time>
      </trkpt>
      <trkpt lat="47.69368" lon="-2.22696">
        <ele>67.3</ele>
        <time>2021-05-27T14:17:30Z</time>
      </trkpt>
      <trkpt lat="47.69368" lon="-2.22696">
        <ele>67.3</ele>
        <time>2021-05-27T14:17:31Z</time>
      </trkpt>
      <trkpt lat="47.69368" lon="-2.22696">
        <ele>67.3</ele>
        <time>2021-05-27T14:17:32Z</time>
      </trkpt>
      <trkpt lat="47.69368" lon="-2.22696">
        <ele>67.3</ele>
        <time>2021-05-27T14:17:33Z</time>
      </trkpt>
      <trkpt lat="47.69368" lon="-2.22696">
        <ele>67.3</ele>
        <time>2021-05-27T14:17:34Z</time>
      </trkpt>
      <trkpt lat="47.69368" lon="-2.22696">
        <ele>67.3</ele>
        <time>2021-05-27T14:17:35Z</time>
      </trkpt>
      <trkpt lat="47.69368" lon="-2.22696">
        <ele>67.3</ele>
        <time>2021-05-27T14:17:36Z</time>
      </trkpt>
      <trkpt lat="47.69368" lon="-2.22696">
        <ele>67.3</ele>
        <time>2021-05-27T14:17:37Z</time>
      </trkpt>
      <trkpt lat="47.69368" lon="-2.22696">
        <ele>67.3</ele>
        <time>2021-05-27T14:17:38Z</time>
      </trkpt>
      <trkpt lat="47.69368" lon="-2.22696">
        <ele>67.3</ele>
        <time>2021-05-27T14:17:39Z</time>
      </trkpt>
      <trkpt lat="47.69368" lon="-2.22696">
        <ele>67.3</ele>
        <time>2021-05-27T14:17:40Z</time>
      </trkpt>
      <trkpt lat="47.69368" lon="-2.22696">
        <ele>67.3</ele>
        <time>2021-05-27T14:17:41Z</time>
      </trkpt>
      <trkpt lat="47.69368" lon="-2.22696">
        <ele>67.3</ele>
        <time>2021-05-27T14:17:42Z</time>
      </trkpt>
      <trkpt lat="47.69368" lon="-2.22696">
        <ele>67.3</ele>
        <time>2021-05-27T14:17:43Z</time>
      </trkpt>
      <trkpt lat="47.69368" lon="-2.22696">
        <ele>67.3</ele>
        <time>2021-05-27T14:17:44Z</time>
      </trkpt>
      <trkpt lat="47.69368" lon="-2.22696">
        <ele>67.3</ele>
        <time>2021-05-27T14:17:45Z</time>
      </trkpt>
      <trkpt lat="47.69368" lon="-2.22696">
        <ele>67.3</ele>
        <time>2021-05-27T14:17:46Z</time>
      </trkpt>
      <trkpt lat="47.69368" lon="-2.22696">
        <ele>67.3</ele>
        <time>2021-05-27T14:17:47Z</time>
      </trkpt>
      <trkpt lat="47.69368" lon="-2.22696">
        <ele>67.3</ele>
        <time>2021-05-27T14:17:48Z</time>
      </trkpt>
      <trkpt lat="47.69368" lon="-2.22696">
        <ele>67.3</ele>
        <time>2021-05-27T14:17:49Z</time>
      </trkpt>
      <trkpt lat="47.69368" lon="-2.22696">
        <ele>67.3</ele>
        <time>2021-05-27T14:17:50Z</time>
      </trkpt>
      <trkpt lat="47.69368" lon="-2.22696">
        <ele>67.3</ele>
        <time>2021-05-27T14:17:51Z</time>
      </trkpt>
      <trkpt lat="47.69368" lon="-2.22696">
        <ele>67.3</ele>
        <time>2021-05-27T14:17:52Z</time>
      </trkpt>
      <trkpt lat="47.69368" lon="-2.22696">
        <ele>67.3</ele>
        <time>2021-05-27T14:17:53Z</time>
      </trkpt>
      <trkpt lat="47.69368" lon="-2.22696">
        <ele>67.3</ele>
        <time>2021-05-27T14:17:54Z</time>
      </trkpt>
      <trkpt lat="47.69368" lon="-2.22696">
        <ele>67.3</ele>
        <time>2021-05-27T14:17:55Z</time>
      </trkpt>
      <trkpt lat="47.69368" lon="-2.22696">
        <ele>67.3</ele>
        <time>2021-05-27T14:17:56Z</time>
      </trkpt>
      <trkpt lat="47.69368" lon="-2.22696">
        <ele>67.3</ele>
        <time>2021-05-27T14:17:57Z</time>
      </trkpt>
      <trkpt lat="47.69368" lon="-2.22696">
        <ele>67.3</ele>
        <time>2021-05-27T14:17:58Z</time>
      </trkpt>
      <trkpt lat="47.69368" lon="-2.22696">
        <ele>67.3</ele>
        <time>2021-05-27T14:17:59Z</time>
      </trkpt>
      <trkpt lat="47.69368" lon="-2.22696">
        <ele>67.3</ele>
        <time>2021-05-27T14:18:00Z</time>
      </trkpt>
      <trkpt lat="47.69368" lon="-2.22696">
        <ele>67.3</ele>
        <time>2021-05-27T14:18:01Z</time>
      </trkpt>
      <trkpt lat="47.69368" lon="-2.22696">
        <ele>67.3</ele>
        <time>2021-05-27T14:18:02Z</time>
      </trkpt>
      <trkpt lat="47.69368" lon="-2.22696">
        <ele>67.3</ele>
        <time>2021-05-27T14:18:03Z</time>
      </trkpt>
      <trkpt lat="47.69368" lon="-2.22696">
        <ele>67.3</ele>
        <time>2021-05-27T14:18:04Z</time>
      </trkpt>
      <trkpt lat="47.69368" lon="-2.22696">
        <ele>67.3</ele>
        <time>2021-05-27T14:18:05Z</time>
      </trkpt>
      <trkpt lat="47.69368" lon="-2.22696">
        <ele>67.3</ele>
        <time>2021-05-27T14:18:06Z</time>
      </trkpt>
      <trkpt lat="47.69368" lon="-2.22696">
        <ele>67.3</ele>
        <time>2021-05-27T14:18:07Z</time>
      </trkpt>
      <trkpt lat="47.69368" lon="-2.22696">
        <ele>67.3</ele>
        <time>2021-05-27T14:18:08Z</time>
      </trkpt>
      <trkpt lat="47.69368" lon="-2.22696">
        <ele>67.3</ele>
        <time>2021-05-27T14:18:09Z</time>
      </trkpt>
      <trkpt lat="47.69368" lon="-2.22696">
        <ele>67.3</ele>
        <time>2021-05-27T14:18:10Z</time>
      </trkpt>
      <trkpt lat="47.69368" lon="-2.22696">
        <ele>67.3</ele>
        <time>2021-05-27T14:18:11Z</time>
      </trkpt>
      <trkpt lat="47.69368" lon="-2.22696">
        <ele>67.3</ele>
        <time>2021-05-27T14:18:12Z</time>
      </trkpt>
      <trkpt lat="47.69368" lon="-2.22696">
        <ele>67.3</ele>
        <time>2021-05-27T14:18:13Z</time>
      </trkpt>
      <trkpt lat="47.69368" lon="-2.22696">
        <ele>67.3</ele>
        <time>2021-05-27T14:18:14Z</time>
      </trkpt>
      <trkpt lat="47.69368" lon="-2.22696">
        <ele>67.3</ele>
        <time>2021-05-27T14:18:15Z</time>
      </trkpt>
      <trkpt lat="47.69368" lon="-2.22696">
        <ele>67.3</ele>
        <time>2021-05-27T14:18:16Z</time>
      </trkpt>
      <trkpt lat="47.69368" lon="-2.22696">
        <ele>67.3</ele>
        <time>2021-05-27T14:18:17Z</time>
      </trkpt>
      <trkpt lat="47.69368" lon="-2.22696">
        <ele>67.3</ele>
        <time>2021-05-27T14:18:18Z</time>
      </trkpt>
      <trkpt lat="47.69368" lon="-2.22696">
        <ele>67.3</ele>
        <time>2021-05-27T14:18:19Z</time>
      </trkpt>
      <trkpt lat="47.69368" lon="-2.22696">
        <ele>67.3</ele>
        <time>2021-05-27T14:18:20Z</time>
      </trkpt>
      <trkpt lat="47.69368" lon="-2.22696">
        <ele>67.3</ele>
        <time>2021-05-27T14:18:21Z</time>
      </trkpt>
      <trkpt lat="47.69368" lon="-2.22696">
        <ele>67.3</ele>
        <time>2021-05-27T14:18:22Z</time>
      </trkpt>
      <trkpt lat="47.69368" lon="-2.22696">
        <ele>67.3</ele>
        <time>2021-05-27T14:18:23Z</time>
      </trkpt>
      <trkpt lat="47.69368" lon="-2.22696">
        <ele>67.3</ele>
        <time>2021-05-27T14:18:24Z</time>
      </trkpt>
      <trkpt lat="47.69368" lon="-2.22696">
        <ele>67.3</ele>
        <time>2021-05-27T14:18:25Z</time>
      </trkpt>
      <trkpt lat="47.69368" lon="-2.22696">
        <ele>67.3</ele>
        <time>2021-05-27T14:18:26Z</time>
      </trkpt>
      <trkpt lat="47.69368" lon="-2.22696">
        <ele>67.3</ele>
        <time>2021-05-27T14:18:27Z</time>
      </trkpt>
      <trkpt lat="47.69368" lon="-2.22696">
        <ele>67.3</ele>
        <time>2021-05-27T14:18:28Z</time>
      </trkpt>
      <trkpt lat="47.69368" lon="-2.22696">
        <ele>67.3</ele>
        <time>2021-05-27T14:18:29Z</time>
      </trkpt>
      <trkpt lat="47.69368" lon="-2.22696">
        <ele>67.3</ele>
        <time>2021-05-27T14:18:30Z</time>
      </trkpt>
      <trkpt lat="47.69368" lon="-2.22696">
        <ele>67.3</ele>
        <time>2021-05-27T14:18:31Z</time>
      </trkpt>
      <trkpt lat="47.69368" lon="-2.22696">
        <ele>67.3</ele>
        <time>2021-05-27T14:18:32Z</time>
      </trkpt>
      <trkpt lat="47.69368" lon="-2.22696">
        <ele>67.3</ele>
        <time>2021-05-27T14:18:33Z</time>
      </trkpt>
      <trkpt lat="47.69368" lon="-2.22696">
        <ele>67.3</ele>
        <time>2021-05-27T14:18:34Z</time>
      </trkpt>
      <trkpt lat="47.69368" lon="-2.22696">
        <ele>67.3</ele>
        <time>2021-05-27T14:18:35Z</time>
      </trkpt>
      <trkpt lat="47.69368" lon="-2.22696">
        <ele>67.3</ele>
        <time>2021-05-27T14:18:36Z</time>
      </trkpt>
      <trkpt lat="47.69368" lon="-2.22696">
        <ele>67.3</ele>
        <time>2021-05-27T14:18:37Z</time>
      </trkpt>
      <trkpt lat="47.69368" lon="-2.22696">
        <ele>67.3</ele>
        <time>2021-05-27T14:18:38Z</time>
      </trkpt>
      <trkpt lat="47.69368" lon="-2.22696">
        <ele>67.3</ele>
        <time>2021-05-27T14:18:39Z</time>
      </trkpt>
      <trkpt lat="47.69368" lon="-2.22696">
        <ele>67.3</ele>
        <time>2021-05-27T14:18:40Z</time>
      </trkpt>
      <trkpt lat="47.69368" lon="-2.22696">
        <ele>67.3</ele>
        <time>2021-05-27T14:18:41Z</time>
      </trkpt>
      <trkpt lat="47.69368" lon="-2.22696">
        <ele>67.3</ele>
        <time>2021-05-27T14:18:42Z</time>
      </trkpt>
      <trkpt lat="47.69368" lon="-2.22696">
        <ele>67.3</ele>
        <time>2021-05-27T14:18:43Z</time>
      </trkpt>
      <trkpt lat="47.69368" lon="-2.22696">
        <ele>67.3</ele>
        <time>2021-05-27T14:18:44Z</time>
      </trkpt>
      <trkpt lat="47.69368" lon="-2.22696">
        <ele>67.3</ele>
        <time>2021-05-27T14:18:45Z</time>
      </trkpt>
      <trkpt lat="47.69368" lon="-2.22696">
        <ele>67.3</ele>
        <time>2021-05-27T14:18:46Z</time>
      </trkpt>
      <trkpt lat="47.69368" lon="-2.22696">
        <ele>67.3</ele>
        <time>2021-05-27T14:18:47Z</time>
      </trkpt>
      <trkpt lat="47.69368" lon="-2.22696">
        <ele>67.3</ele>
        <time>2021-05-27T14:18:48Z</time>
      </trkpt>
      <trkpt lat="47.69368" lon="-2.22696">
        <ele>67.3</ele>
        <time>2021-05-27T14:18:49Z</time>
      </trkpt>
      <trkpt lat="47.69368" lon="-2.22696">
        <ele>67.3</ele>
        <time>2021-05-27T14:18:50Z</time>
      </trkpt>
      <trkpt lat="47.69368" lon="-2.22696">
        <ele>67.3</ele>
        <time>2021-05-27T14:18:51Z</time>
      </trkpt>
      <trkpt lat="47.69368" lon="-2.22696">
        <ele>67.3</ele>
        <time>2021-05-27T14:18:52Z</time>
      </trkpt>
      <trkpt lat="47.69368" lon="-2.22696">
        <ele>67.3</ele>
        <time>2021-05-27T14:18:53Z</time>
      </trkpt>
      <trkpt lat="47.69368" lon="-2.22696">
        <ele>67.3</ele>
        <time>2021-05-27T14:18:54Z</time>
      </trkpt>
      <trkpt lat="47.69368" lon="-2.22696">
        <ele>67.3</ele>
        <time>2021-05-27T14:18:55Z</time>
      </trkpt>
      <trkpt lat="47.69368" lon="-2.22696">
        <ele>67.3</ele>
        <time>2021-05-27T14:18:56Z</time>
      </trkpt>
      <trkpt lat="47.69368" lon="-2.22696">
        <ele>67.3</ele>
        <time>2021-05-27T14:18:57Z</time>
      </trkpt>
      <trkpt lat="47.69368" lon="-2.22696">
        <ele>67.3</ele>
        <time>2021-05-27T14:18:58Z</time>
      </trkpt>
      <trkpt lat="47.69368" lon="-2.22696">
        <ele>67.3</ele>
        <time>2021-05-27T14:18:59Z</time>
      </trkpt>
      <trkpt lat="47.69368" lon="-2.22696">
        <ele>67.3</ele>
        <time>2021-05-27T14:19:00Z</time>
      </trkpt>
      <trkpt lat="47.69368" lon="-2.22696">
        <ele>67.3</ele>
        <time>2021-05-27T14:19:01Z</time>
      </trkpt>
      <trkpt lat="47.69368" lon="-2.22696">
        <ele>67.3</ele>
        <time>2021-05-27T14:19:02Z</time>
      </trkpt>
      <trkpt lat="47.69368" lon="-2.22696">
        <ele>67.3</ele>
        <time>2021-05-27T14:19:03Z</time>
      </trkpt>
      <trkpt lat="47.69368" lon="-2.22696">
        <ele>67.3</ele>
        <time>2021-05-27T14:19:04Z</time>
      </trkpt>
      <trkpt lat="47.69368" lon="-2.22696">
        <ele>67.3</ele>
        <time>2021-05-27T14:19:05Z</time>
      </trkpt>
      <trkpt lat="47.69368" lon="-2.22696">
        <ele>67.3</ele>
        <time>2021-05-27T14:19:06Z</time>
      </trkpt>
      <trkpt lat="47.69368" lon="-2.22696">
        <ele>67.3</ele>
        <time>2021-05-27T14:19:07Z</time>
      </trkpt>
      <trkpt lat="47.69368" lon="-2.22696">
        <ele>67.3</ele>
        <time>2021-05-27T14:19:08Z</time>
      </trkpt>
      <trkpt lat="47.69368" lon="-2.22696">
        <ele>67.3</ele>
        <time>2021-05-27T14:19:09Z</time>
      </trkpt>
      <trkpt lat="47.69368" lon="-2.22696">
        <ele>67.3</ele>
        <time>2021-05-27T14:19:10Z</time>
      </trkpt>
      <trkpt lat="47.69368" lon="-2.22696">
        <ele>67.3</ele>
        <time>2021-05-27T14:19:11Z</time>
      </trkpt>
      <trkpt lat="47.69368" lon="-2.22696">
        <ele>67.3</ele>
        <time>2021-05-27T14:19:12Z</time>
      </trkpt>
      <trkpt lat="47.69368" lon="-2.22696">
        <ele>67.3</ele>
        <time>2021-05-27T14:19:13Z</time>
      </trkpt>
      <trkpt lat="47.69368" lon="-2.22696">
        <ele>67.3</ele>
        <time>2021-05-27T14:19:14Z</time>
      </trkpt>
      <trkpt lat="47.69368" lon="-2.22696">
        <ele>67.3</ele>
        <time>2021-05-27T14:19:15Z</time>
      </trkpt>
      <trkpt lat="47.69368" lon="-2.22696">
        <ele>67.3</ele>
        <time>2021-05-27T14:19:16Z</time>
      </trkpt>
      <trkpt lat="47.69368" lon="-2.22696">
        <ele>67.3</ele>
        <time>2021-05-27T14:19:17Z</time>
      </trkpt>
      <trkpt lat="47.69368" lon="-2.22696">
        <ele>67.3</ele>
        <time>2021-05-27T14:19:18Z</time>
      </trkpt>
      <trkpt lat="47.69368" lon="-2.22696">
        <ele>67.3</ele>
        <time>2021-05-27T14:19:19Z</time>
      </trkpt>
      <trkpt lat="47.69368" lon="-2.22696">
        <ele>67.3</ele>
        <time>2021-05-27T14:19:20Z</time>
      </trkpt>
      <trkpt lat="47.69368" lon="-2.22696">
        <ele>67.3</ele>
        <time>2021-05-27T14:19:21Z</time>
      </trkpt>
      <trkpt lat="47.69368" lon="-2.22696">
        <ele>67.3</ele>
        <time>2021-05-27T14:19:22Z</time>
      </trkpt>
      <trkpt lat="47.69368" lon="-2.22696">
        <ele>67.3</ele>
        <time>2021-05-27T14:19:23Z</time>
      </trkpt>
      <trkpt lat="47.69368" lon="-2.22696">
        <ele>67.3</ele>
        <time>2021-05-27T14:19:24Z</time>
      </trkpt>
      <trkpt lat="47.69368" lon="-2.22696">
        <ele>67.3</ele>
        <time>2021-05-27T14:19:25Z</time>
      </trkpt>
      <trkpt lat="47.69368" lon="-2.22696">
        <ele>67.3</ele>
        <time>2021-05-27T14:19:26Z</time>
      </trkpt>
      <trkpt lat="47.69368" lon="-2.22696">
        <ele>67.3</ele>
        <time>2021-05-27T14:19:27Z</time>
      </trkpt>
      <trkpt lat="47.69368" lon="-2.22696">
        <ele>67.3</ele>
        <time>2021-05-27T14:19:28Z</time>
      </trkpt>
      <trkpt lat="47.69368" lon="-2.22696">
        <ele>67.3</ele>
        <time>2021-05-27T14:19:29Z</time>
      </trkpt>
      <trkpt lat="47.69368" lon="-2.22696">
        <ele>67.3</ele>
        <time>2021-05-27T14:19:30Z</time>
      </trkpt>
      <trkpt lat="47.69368" lon="-2.22696">
        <ele>67.3</ele>
        <time>2021-05-27T14:19:31Z</time>
      </trkpt>
      <trkpt lat="47.69368" lon="-2.22696">
        <ele>67.3</ele>
        <time>2021-05-27T14:19:32Z</time>
      </trkpt>
      <trkpt lat="47.69368" lon="-2.22696">
        <ele>67.3</ele>
        <time>2021-05-27T14:19:33Z</time>
      </trkpt>
      <trkpt lat="47.69368" lon="-2.22696">
        <ele>67.3</ele>
        <time>2021-05-27T14:19:34Z</time>
      </trkpt>
      <trkpt lat="47.69368" lon="-2.22696">
        <ele>67.3</ele>
        <time>2021-05-27T14:19:35Z</time>
      </trkpt>
      <trkpt lat="47.69368" lon="-2.22696">
        <ele>67.3</ele>
        <time>2021-05-27T14:19:36Z</time>
      </trkpt>
      <trkpt lat="47.69368" lon="-2.22696">
        <ele>67.3</ele>
        <time>2021-05-27T14:19:37Z</time>
      </trkpt>
      <trkpt lat="47.69368" lon="-2.22696">
        <ele>67.3</ele>
        <time>2021-05-27T14:19:38Z</time>
      </trkpt>
      <trkpt lat="47.69368" lon="-2.22696">
        <ele>67.3</ele>
        <time>2021-05-27T14:19:39Z</time>
      </trkpt>
      <trkpt lat="47.69368" lon="-2.22696">
        <ele>67.3</ele>
        <time>2021-05-27T14:19:40Z</time>
      </trkpt>
      <trkpt lat="47.69368" lon="-2.22696">
        <ele>67.3</ele>
        <time>2021-05-27T14:19:41Z</time>
      </trkpt>
      <trkpt lat="47.69368" lon="-2.22696">
        <ele>67.3</ele>
        <time>2021-05-27T14:19:42Z</time>
      </trkpt>
      <trkpt lat="47.69368" lon="-2.22696">
        <ele>67.3</ele>
        <time>2021-05-27T14:19:43Z</time>
      </trkpt>
      <trkpt lat="47.69368" lon="-2.22696">
        <ele>67.3</ele>
        <time>2021-05-27T14:19:44Z</time>
      </trkpt>
      <trkpt lat="47.69368" lon="-2.22696">
        <ele>67.3</ele>
        <time>2021-05-27T14:19:45Z</time>
      </trkpt>
      <trkpt lat="47.69368" lon="-2.22696">
        <ele>67.3</ele>
        <time>2021-05-27T14:19:46Z</time>
      </trkpt>
      <trkpt lat="47.69368" lon="-2.22696">
        <ele>67.3</ele>
        <time>2021-05-27T14:19:47Z</time>
      </trkpt>
      <trkpt lat="47.69368" lon="-2.22696">
        <ele>67.3</ele>
        <time>2021-05-27T14:19:48Z</time>
      </trkpt>
      <trkpt lat="47.69368" lon="-2.22696">
        <ele>67.3</ele>
        <time>2021-05-27T14:19:49Z</time>
      </trkpt>
      <trkpt lat="47.69368" lon="-2.22696">
        <ele>67.3</ele>
        <time>2021-05-27T14:19:50Z</time>
      </trkpt>
      <trkpt lat="47.69368" lon="-2.22696">
        <ele>67.3</ele>
        <time>2021-05-27T14:19:51Z</time>
      </trkpt>
      <trkpt lat="47.69368" lon="-2.22696">
        <ele>67.3</ele>
        <time>2021-05-27T14:19:52Z</time>
      </trkpt>
      <trkpt lat="47.69368" lon="-2.22696">
        <ele>67.3</ele>
        <time>2021-05-27T14:19:53Z</time>
      </trkpt>
      <trkpt lat="47.69368" lon="-2.22696">
        <ele>67.3</ele>
        <time>2021-05-27T14:19:54Z</time>
      </trkpt>
      <trkpt lat="47.69368" lon="-2.22696">
        <ele>67.3</ele>
        <time>2021-05-27T14:19:55Z</time>
      </trkpt>
      <trkpt lat="47.69368" lon="-2.22696">
        <ele>67.3</ele>
        <time>2021-05-27T14:19:56Z</time>
      </trkpt>
      <trkpt lat="47.69368" lon="-2.22696">
        <ele>67.3</ele>
        <time>2021-05-27T14:19:57Z</time>
      </trkpt>
      <trkpt lat="47.69368" lon="-2.22696">
        <ele>67.3</ele>
        <time>2021-05-27T14:19:58Z</time>
      </trkpt>
      <trkpt lat="47.69368" lon="-2.22696">
        <ele>67.3</ele>
        <time>2021-05-27T14:19:59Z</time>
      </trkpt>
      <trkpt lat="47.69368" lon="-2.22696">
        <ele>67.3</ele>
        <time>2021-05-27T14:20:00Z</time>
      </trkpt>
      <trkpt lat="47.69368" lon="-2.22696">
        <ele>67.3</ele>
        <time>2021-05-27T14:20:01Z</time>
      </trkpt>
      <trkpt lat="47.69368" lon="-2.22696">
        <ele>67.3</ele>
        <time>2021-05-27T14:20:02Z</time>
      </trkpt>
      <trkpt lat="47.69368" lon="-2.22696">
        <ele>67.3</ele>
        <time>2021-05-27T14:20:03Z</time>
      </trkpt>
      <trkpt lat="47.69368" lon="-2.22696">
        <ele>67.3</ele>
        <time>2021-05-27T14:20:04Z</time>
      </trkpt>
      <trkpt lat="47.69368" lon="-2.22696">
        <ele>67.3</ele>
        <time>2021-05-27T14:20:05Z</time>
      </trkpt>
      <trkpt lat="47.69368" lon="-2.22696">
        <ele>67.3</ele>
        <time>2021-05-27T14:20:06Z</time>
      </trkpt>
      <trkpt lat="47.69368" lon="-2.22696">
        <ele>67.3</ele>
        <time>2021-05-27T14:20:07Z</time>
      </trkpt>
      <trkpt lat="47.69368" lon="-2.22696">
        <ele>67.3</ele>
        <time>2021-05-27T14:20:08Z</time>
      </trkpt>
      <trkpt lat="47.69368" lon="-2.22696">
        <ele>67.3</ele>
        <time>2021-05-27T14:20:09Z</time>
      </trkpt>
      <trkpt lat="47.69368" lon="-2.22696">
        <ele>67.3</ele>
        <time>2021-05-27T14:20:10Z</time>
      </trkpt>
      <trkpt lat="47.69368" lon="-2.22696">
        <ele>67.3</ele>
        <time>2021-05-27T14:20:11Z</time>
      </trkpt>
      <trkpt lat="47.69368" lon="-2.22696">
        <ele>67.3</ele>
        <time>2021-05-27T14:20:12Z</time>
      </trkpt>
      <trkpt lat="47.69368" lon="-2.22696">
        <ele>67.3</ele>
        <time>2021-05-27T14:20:13Z</time>
      </trkpt>
      <trkpt lat="47.69368" lon="-2.22696">
        <ele>67.3</ele>
        <time>2021-05-27T14:20:14Z</time>
      </trkpt>
      <trkpt lat="47.69368" lon="-2.22696">
        <ele>67.3</ele>
        <time>2021-05-27T14:20:15Z</time>
      </trkpt>
      <trkpt lat="47.69368" lon="-2.22696">
        <ele>67.3</ele>
        <time>2021-05-27T14:20:16Z</time>
      </trkpt>
      <trkpt lat="47.69368" lon="-2.22696">
        <ele>67.3</ele>
        <time>2021-05-27T14:20:17Z</time>
      </trkpt>
      <trkpt lat="47.69368" lon="-2.22696">
        <ele>67.3</ele>
        <time>2021-05-27T14:20:18Z</time>
      </trkpt>
      <trkpt lat="47.69368" lon="-2.22696">
        <ele>67.3</ele>
        <time>2021-05-27T14:20:19Z</time>
      </trkpt>
      <trkpt lat="47.69368" lon="-2.22696">
        <ele>67.3</ele>
        <time>2021-05-27T14:20:20Z</time>
      </trkpt>
      <trkpt lat="47.69368" lon="-2.22696">
        <ele>67.3</ele>
        <time>2021-05-27T14:20:21Z</time>
      </trkpt>
      <trkpt lat="47.69368" lon="-2.22696">
        <ele>67.3</ele>
        <time>2021-05-27T14:20:22Z</time>
      </trkpt>
      <trkpt lat="47.69368" lon="-2.22696">
        <ele>67.3</ele>
        <time>2021-05-27T14:20:23Z</time>
      </trkpt>
      <trkpt lat="47.69368" lon="-2.22696">
        <ele>67.3</ele>
        <time>2021-05-27T14:20:24Z</time>
      </trkpt>
      <trkpt lat="47.69368" lon="-2.22696">
        <ele>67.3</ele>
        <time>2021-05-27T14:20:25Z</time>
      </trkpt>
      <trkpt lat="47.69368" lon="-2.22696">
        <ele>67.3</ele>
        <time>2021-05-27T14:20:26Z</time>
      </trkpt>
      <trkpt lat="47.69368" lon="-2.22696">
        <ele>67.3</ele>
        <time>2021-05-27T14:20:27Z</time>
      </trkpt>
      <trkpt lat="47.69368" lon="-2.22696">
        <ele>67.3</ele>
        <time>2021-05-27T14:20:28Z</time>
      </trkpt>
      <trkpt lat="47.69368" lon="-2.22696">
        <ele>67.3</ele>
        <time>2021-05-27T14:20:29Z</time>
      </trkpt>
      <trkpt lat="47.69368" lon="-2.22696">
        <ele>67.3</ele>
        <time>2021-05-27T14:20:30Z</time>
      </trkpt>
      <trkpt lat="47.69368" lon="-2.22696">
        <ele>67.3</ele>
        <time>2021-05-27T14:20:31Z</time>
      </trkpt>
      <trkpt lat="47.69368" lon="-2.22696">
        <ele>67.3</ele>
        <time>2021-05-27T14:20:32Z</time>
      </trkpt>
      <trkpt lat="47.69368" lon="-2.22696">
        <ele>67.3</ele>
        <time>2021-05-27T14:20:33Z</time>
      </trkpt>
      <trkpt lat="47.69368" lon="-2.22696">
        <ele>67.3</ele>
        <time>2021-05-27T14:20:34Z</time>
      </trkpt>
      <trkpt lat="47.69368" lon="-2.22696">
        <ele>67.3</ele>
        <time>2021-05-27T14:20:35Z</time>
      </trkpt>
      <trkpt lat="47.69368" lon="-2.22696">
        <ele>67.3</ele>
        <time>2021-05-27T14:20:36Z</time>
      </trkpt>
      <trkpt lat="47.69368" lon="-2.22696">
        <ele>67.3</ele>
        <time>2021-05-27T14:20:37Z</time>
      </trkpt>
      <trkpt lat="47.69368" lon="-2.22696">
        <ele>67.3</ele>
        <time>2021-05-27T14:20:38Z</time>
      </trkpt>
      <trkpt lat="47.69368" lon="-2.22696">
        <ele>67.3</ele>
        <time>2021-05-27T14:20:39Z</time>
      </trkpt>
      <trkpt lat="47.69368" lon="-2.22696">
        <ele>67.3</ele>
        <time>2021-05-27T14:20:40Z</time>
      </trkpt>
      <trkpt lat="47.69368" lon="-2.22696">
        <ele>67.3</ele>
        <time>2021-05-27T14:20:41Z</time>
      </trkpt>
      <trkpt lat="47.69368" lon="-2.22696">
        <ele>67.3</ele>
        <time>2021-05-27T14:20:42Z</time>
      </trkpt>
      <trkpt lat="47.69368" lon="-2.22696">
        <ele>67.3</ele>
        <time>2021-05-27T14:20:43Z</time>
      </trkpt>
      <trkpt lat="47.69368" lon="-2.22696">
        <ele>67.3</ele>
        <time>2021-05-27T14:20:44Z</time>
      </trkpt>
      <trkpt lat="47.69368" lon="-2.22696">
        <ele>67.3</ele>
        <time>2021-05-27T14:20:45Z</time>
      </trkpt>
      <trkpt lat="47.69368" lon="-2.22696">
        <ele>67.3</ele>
        <time>2021-05-27T14:20:46Z</time>
      </trkpt>
      <trkpt lat="47.69368" lon="-2.22696">
        <ele>67.3</ele>
        <time>2021-05-27T14:20:47Z</time>
      </trkpt>
      <trkpt lat="47.69368" lon="-2.22696">
        <ele>67.3</ele>
        <time>2021-05-27T14:20:48Z</time>
      </trkpt>
      <trkpt lat="47.69368" lon="-2.22696">
        <ele>67.3</ele>
        <time>2021-05-27T14:20:49Z</time>
      </trkpt>
      <trkpt lat="47.69368" lon="-2.22696">
        <ele>67.3</ele>
        <time>2021-05-27T14:20:50Z</time>
      </trkpt>
      <trkpt lat="47.69368" lon="-2.22696">
        <ele>67.3</ele>
        <time>2021-05-27T14:20:51Z</time>
      </trkpt>
      <trkpt lat="47.69368" lon="-2.22696">
        <ele>67.3</ele>
        <time>2021-05-27T14:20:52Z</time>
      </trkpt>
      <trkpt lat="47.69368" lon="-2.22696">
        <ele>67.3</ele>
        <time>2021-05-27T14:20:53Z</time>
      </trkpt>
      <trkpt lat="47.69368" lon="-2.22696">
        <ele>67.3</ele>
        <time>2021-05-27T14:20:54Z</time>
      </trkpt>
      <trkpt lat="47.69368" lon="-2.22696">
        <ele>67.3</ele>
        <time>2021-05-27T14:20:55Z</time>
      </trkpt>
      <trkpt lat="47.69368" lon="-2.22696">
        <ele>67.3</ele>
        <time>2021-05-27T14:20:56Z</time>
      </trkpt>
      <trkpt lat="47.69368" lon="-2.22696">
        <ele>67.3</ele>
        <time>2021-05-27T14:20:57Z</time>
      </trkpt>
      <trkpt lat="47.69368" lon="-2.22696">
        <ele>67.3</ele>
        <time>2021-05-27T14:20:58Z</time>
      </trkpt>
      <trkpt lat="47.69368" lon="-2.22696">
        <ele>67.3</ele>
        <time>2021-05-27T14:20:59Z</time>
      </trkpt>
      <trkpt lat="47.69368" lon="-2.22696">
        <ele>67.3</ele>
        <time>2021-05-27T14:21:00Z</time>
      </trkpt>
      <trkpt lat="47.69368" lon="-2.22696">
        <ele>67.3</ele>
        <time>2021-05-27T14:21:01Z</time>
      </trkpt>
      <trkpt lat="47.69368" lon="-2.22696">
        <ele>67.3</ele>
        <time>2021-05-27T14:21:02Z</time>
      </trkpt>
      <trkpt lat="47.69368" lon="-2.22696">
        <ele>67.3</ele>
        <time>2021-05-27T14:21:03Z</time>
      </trkpt>
      <trkpt lat="47.69368" lon="-2.22696">
        <ele>67.3</ele>
        <time>2021-05-27T14:21:04Z</time>
      </trkpt>
      <trkpt lat="47.69368" lon="-2.22696">
        <ele>67.3</ele>
        <time>2021-05-27T14:21:05Z</time>
      </trkpt>
      <trkpt lat="47.69368" lon="-2.22696">
        <ele>67.3</ele>
        <time>2021-05-27T14:21:06Z</time>
      </trkpt>
      <trkpt lat="47.69368" lon="-2.22696">
        <ele>67.3</ele>
        <time>2021-05-27T14:21:07Z</time>
      </trkpt>
      <trkpt lat="47.69368" lon="-2.22696">
        <ele>67.3</ele>
        <time>2021-05-27T14:21:08Z</time>
      </trkpt>
      <trkpt lat="47.69368" lon="-2.22696">
        <ele>67.3</ele>
        <time>2021-05-27T14:21:09Z</time>
      </trkpt>
      <trkpt lat="47.69368" lon="-2.22696">
        <ele>67.3</ele>
        <time>2021-05-27T14:21:10Z</time>
      </trkpt>
      <trkpt lat="47.69368" lon="-2.22696">
        <ele>67.3</ele>
        <time>2021-05-27T14:21:11Z</time>
      </trkpt>
      <trkpt lat="47.69368" lon="-2.22696">
        <ele>67.3</ele>
        <time>2021-05-27T14:21:12Z</time>
      </trkpt>
      <trkpt lat="47.69368" lon="-2.22696">
        <ele>67.3</ele>
        <time>2021-05-27T14:21:13Z</time>
      </trkpt>
      <trkpt lat="47.69368" lon="-2.22696">
        <ele>67.3</ele>
        <time>2021-05-27T14:21:14Z</time>
      </trkpt>
      <trkpt lat="47.69368" lon="-2.22696">
        <ele>67.3</ele>
        <time>2021-05-27T14:21:15Z</time>
      </trkpt>
      <trkpt lat="47.69368" lon="-2.22696">
        <ele>67.3</ele>
        <time>2021-05-27T14:21:16Z</time>
      </trkpt>
      <trkpt lat="47.69368" lon="-2.22696">
        <ele>67.3</ele>
        <time>2021-05-27T14:21:17Z</time>
      </trkpt>
      <trkpt lat="47.69368" lon="-2.22696">
        <ele>67.3</ele>
        <time>2021-05-27T14:21:18Z</time>
      </trkpt>
      <trkpt lat="47.69368" lon="-2.22696">
        <ele>67.3</ele>
        <time>2021-05-27T14:21:19Z</time>
      </trkpt>
      <trkpt lat="47.69368" lon="-2.22696">
        <ele>67.3</ele>
        <time>2021-05-27T14:21:20Z</time>
      </trkpt>
      <trkpt lat="47.69368" lon="-2.22696">
        <ele>67.3</ele>
        <time>2021-05-27T14:21:21Z</time>
      </trkpt>
      <trkpt lat="47.69368" lon="-2.22696">
        <ele>67.3</ele>
        <time>2021-05-27T14:21:22Z</time>
      </trkpt>
      <trkpt lat="47.69368" lon="-2.22696">
        <ele>67.3</ele>
        <time>2021-05-27T14:21:23Z</time>
      </trkpt>
      <trkpt lat="47.69368" lon="-2.22696">
        <ele>67.3</ele>
        <time>2021-05-27T14:21:24Z</time>
      </trkpt>
      <trkpt lat="47.69368" lon="-2.22696">
        <ele>67.3</ele>
        <time>2021-05-27T14:21:25Z</time>
      </trkpt>
      <trkpt lat="47.69368" lon="-2.22696">
        <ele>67.3</ele>
        <time>2021-05-27T14:21:26Z</time>
      </trkpt>
      <trkpt lat="47.69368" lon="-2.22696">
        <ele>67.3</ele>
        <time>2021-05-27T14:21:27Z</time>
      </trkpt>
      <trkpt lat="47.69368" lon="-2.22696">
        <ele>67.3</ele>
        <time>2021-05-27T14:21:28Z</time>
      </trkpt>
      <trkpt lat="47.69368" lon="-2.22696">
        <ele>67.3</ele>
        <time>2021-05-27T14:21:29Z</time>
      </trkpt>
      <trkpt lat="47.69368" lon="-2.22696">
        <ele>67.3</ele>
        <time>2021-05-27T14:21:30Z</time>
      </trkpt>
      <trkpt lat="47.69368" lon="-2.22696">
        <ele>67.3</ele>
        <time>2021-05-27T14:21:31Z</time>
      </trkpt>
      <trkpt lat="47.69368" lon="-2.22696">
        <ele>67.3</ele>
        <time>2021-05-27T14:21:32Z</time>
      </trkpt>
      <trkpt lat="47.69368" lon="-2.22696">
        <ele>67.3</ele>
        <time>2021-05-27T14:21:33Z</time>
      </trkpt>
      <trkpt lat="47.69368" lon="-2.22696">
        <ele>67.3</ele>
        <time>2021-05-27T14:21:34Z</time>
      </trkpt>
      <trkpt lat="47.69368" lon="-2.22696">
        <ele>67.3</ele>
        <time>2021-05-27T14:21:35Z</time>
      </trkpt>
      <trkpt lat="47.69368" lon="-2.22696">
        <ele>67.3</ele>
        <time>2021-05-27T14:21:36Z</time>
      </trkpt>
      <trkpt lat="47.69368" lon="-2.22696">
        <ele>67.3</ele>
        <time>2021-05-27T14:21:37Z</time>
      </trkpt>
      <trkpt lat="47.69368" lon="-2.22696">
        <ele>67.3</ele>
        <time>2021-05-27T14:21:38Z</time>
      </trkpt>
      <trkpt lat="47.69368" lon="-2.22696">
        <ele>67.3</ele>
        <time>2021-05-27T14:21:39Z</time>
      </trkpt>
      <trkpt lat="47.69368" lon="-2.22696">
        <ele>67.3</ele>
        <time>2021-05-27T14:21:40Z</time>
      </trkpt>
      <trkpt lat="47.69368" lon="-2.22696">
        <ele>67.3</ele>
        <time>2021-05-27T14:21:41Z</time>
      </trkpt>
      <trkpt lat="47.69368" lon="-2.22696">
        <ele>67.3</ele>
        <time>2021-05-27T14:21:42Z</time>
      </trkpt>
      <trkpt lat="47.69368" lon="-2.22696">
        <ele>67.3</ele>
        <time>2021-05-27T14:21:43Z</time>
      </trkpt>
      <trkpt lat="47.69368" lon="-2.22696">
        <ele>67.3</ele>
        <time>2021-05-27T14:21:44Z</time>
      </trkpt>
      <trkpt lat="47.69368" lon="-2.22696">
        <ele>67.3</ele>
        <time>2021-05-27T14:21:45Z</time>
      </trkpt>
      <trkpt lat="47.69368" lon="-2.22696">
        <ele>67.3</ele>
        <time>2021-05-27T14:21:46Z</time>
      </trkpt>
      <trkpt lat="47.69368" lon="-2.22696">
        <ele>67.3</ele>
        <time>2021-05-27T14:21:47Z</time>
      </trkpt>
      <trkpt lat="47.69368" lon="-2.22696">
        <ele>67.3</ele>
        <time>2021-05-27T14:21:48Z</time>
      </trkpt>
      <trkpt lat="47.69368" lon="-2.22696">
        <ele>67.3</ele>
        <time>2021-05-27T14:21:49Z</time>
      </trkpt>
      <trkpt lat="47.69368" lon="-2.22696">
        <ele>67.3</ele>
        <time>2021-05-27T14:21:50Z</time>
      </trkpt>
      <trkpt lat="47.69368" lon="-2.22696">
        <ele>67.3</ele>
        <time>2021-05-27T14:21:51Z</time>
      </trkpt>
      <trkpt lat="47.69368" lon="-2.22696">
        <ele>67.3</ele>
        <time>2021-05-27T14:21:52Z</time>
      </trkpt>
      <trkpt lat="47.69368" lon="-2.22696">
        <ele>67.3</ele>
        <time>2021-05-27T14:21:53Z</time>
      </trkpt>
      <trkpt lat="47.69368" lon="-2.22696">
        <ele>67.3</ele>
        <time>2021-05-27T14:21:54Z</time>
      </trkpt>
      <trkpt lat="47.69368" lon="-2.22696">
        <ele>67.3</ele>
        <time>2021-05-27T14:21:55Z</time>
      </trkpt>
      <trkpt lat="47.69368" lon="-2.22696">
        <ele>67.3</ele>
        <time>2021-05-27T14:21:56Z</time>
      </trkpt>
      <trkpt lat="47.69368" lon="-2.22696">
        <ele>67.3</ele>
        <time>2021-05-27T14:21:57Z</time>
      </trkpt>
      <trkpt lat="47.69368" lon="-2.22696">
        <ele>67.3</ele>
        <time>2021-05-27T14:21:58Z</time>
      </trkpt>
      <trkpt lat="47.69368" lon="-2.22696">
        <ele>67.3</ele>
        <time>2021-05-27T14:21:59Z</time>
      </trkpt>
      <trkpt lat="47.69368" lon="-2.22696">
        <ele>67.3</ele>
        <time>2021-05-27T14:22:00Z</time>
      </trkpt>
      <trkpt lat="47.69368" lon="-2.22696">
        <ele>67.3</ele>
        <time>2021-05-27T14:22:01Z</time>
      </trkpt>
      <trkpt lat="47.69368" lon="-2.22696">
        <ele>67.3</ele>
        <time>2021-05-27T14:22:02Z</time>
      </trkpt>
      <trkpt lat="47.69368" lon="-2.22696">
        <ele>67.3</ele>
        <time>2021-05-27T14:22:03Z</time>
      </trkpt>
      <trkpt lat="47.69368" lon="-2.22696">
        <ele>67.3</ele>
        <time>2021-05-27T14:22:04Z</time>
      </trkpt>
      <trkpt lat="47.69368" lon="-2.22696">
        <ele>67.3</ele>
        <time>2021-05-27T14:22:05Z</time>
      </trkpt>
      <trkpt lat="47.69368" lon="-2.22696">
        <ele>67.3</ele>
        <time>2021-05-27T14:22:06Z</time>
      </trkpt>
      <trkpt lat="47.69368" lon="-2.22696">
        <ele>67.3</ele>
        <time>2021-05-27T14:22:07Z</time>
      </trkpt>
      <trkpt lat="47.69368" lon="-2.22696">
        <ele>67.3</ele>
        <time>2021-05-27T14:22:08Z</time>
      </trkpt>
      <trkpt lat="47.69368" lon="-2.22696">
        <ele>67.3</ele>
        <time>2021-05-27T14:22:09Z</time>
      </trkpt>
      <trkpt lat="47.69368" lon="-2.22696">
        <ele>67.3</ele>
        <time>2021-05-27T14:22:10Z</time>
      </trkpt>
      <trkpt lat="47.69368" lon="-2.22696">
        <ele>67.3</ele>
        <time>2021-05-27T14:22:11Z</time>
      </trkpt>
      <trkpt lat="47.69368" lon="-2.22696">
        <ele>67.3</ele>
        <time>2021-05-27T14:22:12Z</time>
      </trkpt>
      <trkpt lat="47.69368" lon="-2.22696">
        <ele>67.3</ele>
        <time>2021-05-27T14:22:13Z</time>
      </trkpt>
      <trkpt lat="47.69368" lon="-2.22696">
        <ele>67.3</ele>
        <time>2021-05-27T14:22:14Z</time>
      </trkpt>
      <trkpt lat="47.69368" lon="-2.22696">
        <ele>67.3</ele>
        <time>2021-05-27T14:22:15Z</time>
      </trkpt>
      <trkpt lat="47.69368" lon="-2.22696">
        <ele>67.3</ele>
        <time>2021-05-27T14:22:16Z</time>
      </trkpt>
      <trkpt lat="47.69368" lon="-2.22696">
        <ele>67.3</ele>
        <time>2021-05-27T14:22:17Z</time>
      </trkpt>
      <trkpt lat="47.69368" lon="-2.22696">
        <ele>67.3</ele>
        <time>2021-05-27T14:22:18Z</time>
      </trkpt>
      <trkpt lat="47.69368" lon="-2.22696">
        <ele>67.3</ele>
        <time>2021-05-27T14:22:19Z</time>
      </trkpt>
      <trkpt lat="47.69368" lon="-2.22696">
        <ele>67.3</ele>
        <time>2021-05-27T14:22:20Z</time>
      </trkpt>
      <trkpt lat="47.69368" lon="-2.22696">
        <ele>67.3</ele>
        <time>2021-05-27T14:22:21Z</time>
      </trkpt>
      <trkpt lat="47.69368" lon="-2.22696">
        <ele>67.3</ele>
        <time>2021-05-27T14:22:22Z</time>
      </trkpt>
      <trkpt lat="47.69368" lon="-2.22696">
        <ele>67.3</ele>
        <time>2021-05-27T14:22:23Z</time>
      </trkpt>
      <trkpt lat="47.69368" lon="-2.22696">
        <ele>67.3</ele>
        <time>2021-05-27T14:22:24Z</time>
      </trkpt>
      <trkpt lat="47.69368" lon="-2.22696">
        <ele>67.3</ele>
        <time>2021-05-27T14:22:25Z</time>
      </trkpt>
      <trkpt lat="47.69368" lon="-2.22696">
        <ele>67.3</ele>
        <time>2021-05-27T14:22:26Z</time>
      </trkpt>
      <trkpt lat="47.69368" lon="-2.22696">
        <ele>67.3</ele>
        <time>2021-05-27T14:22:27Z</time>
      </trkpt>
      <trkpt lat="47.69368" lon="-2.22696">
        <ele>67.3</ele>
        <time>2021-05-27T14:22:28Z</time>
      </trkpt>
      <trkpt lat="47.69368" lon="-2.22696">
        <ele>67.3</ele>
        <time>2021-05-27T14:22:29Z</time>
      </trkpt>
      <trkpt lat="47.69368" lon="-2.22696">
        <ele>67.3</ele>
        <time>2021-05-27T14:22:30Z</time>
      </trkpt>
      <trkpt lat="47.69368" lon="-2.22696">
        <ele>67.3</ele>
        <time>2021-05-27T14:22:31Z</time>
      </trkpt>
      <trkpt lat="47.69368" lon="-2.22696">
        <ele>67.3</ele>
        <time>2021-05-27T14:22:32Z</time>
      </trkpt>
      <trkpt lat="47.69368" lon="-2.22696">
        <ele>67.3</ele>
        <time>2021-05-27T14:22:33Z</time>
      </trkpt>
      <trkpt lat="47.69368" lon="-2.22696">
        <ele>67.3</ele>
        <time>2021-05-27T14:22:34Z</time>
      </trkpt>
      <trkpt lat="47.69368" lon="-2.22696">
        <ele>67.3</ele>
        <time>2021-05-27T14:22:35Z</time>
      </trkpt>
      <trkpt lat="47.69368" lon="-2.22696">
        <ele>67.3</ele>
        <time>2021-05-27T14:22:36Z</time>
      </trkpt>
      <trkpt lat="47.69368" lon="-2.22696">
        <ele>67.3</ele>
        <time>2021-05-27T14:22:37Z</time>
      </trkpt>
      <trkpt lat="47.69368" lon="-2.22696">
        <ele>67.3</ele>
        <time>2021-05-27T14:22:38Z</time>
      </trkpt>
      <trkpt lat="47.69368" lon="-2.22696">
        <ele>67.3</ele>
        <time>2021-05-27T14:22:39Z</time>
      </trkpt>
      <trkpt lat="47.69368" lon="-2.22696">
        <ele>67.3</ele>
        <time>2021-05-27T14:22:40Z</time>
      </trkpt>
      <trkpt lat="47.69368" lon="-2.22696">
        <ele>67.3</ele>
        <time>2021-05-27T14:22:41Z</time>
      </trkpt>
      <trkpt lat="47.69368" lon="-2.22696">
        <ele>67.3</ele>
        <time>2021-05-27T14:22:42Z</time>
      </trkpt>
      <trkpt lat="47.69368" lon="-2.22696">
        <ele>67.3</ele>
        <time>2021-05-27T14:22:43Z</time>
      </trkpt>
      <trkpt lat="47.69368" lon="-2.22696">
        <ele>67.3</ele>
        <time>2021-05-27T14:22:44Z</time>
      </trkpt>
      <trkpt lat="47.69368" lon="-2.22696">
        <ele>67.3</ele>
        <time>2021-05-27T14:22:45Z</time>
      </trkpt>
      <trkpt lat="47.69368" lon="-2.22696">
        <ele>67.3</ele>
        <time>2021-05-27T14:22:46Z</time>
      </trkpt>
      <trkpt lat="47.69368" lon="-2.22696">
        <ele>67.3</ele>
        <time>2021-05-27T14:22:47Z</time>
      </trkpt>
      <trkpt lat="47.69368" lon="-2.22696">
        <ele>67.3</ele>
        <time>2021-05-27T14:22:48Z</time>
      </trkpt>
      <trkpt lat="47.69368" lon="-2.22696">
        <ele>67.3</ele>
        <time>2021-05-27T14:22:49Z</time>
      </trkpt>
      <trkpt lat="47.69368" lon="-2.22696">
        <ele>67.3</ele>
        <time>2021-05-27T14:22:50Z</time>
      </trkpt>
      <trkpt lat="47.69368" lon="-2.22696">
        <ele>67.3</ele>
        <time>2021-05-27T14:22:51Z</time>
      </trkpt>
      <trkpt lat="47.69368" lon="-2.22696">
        <ele>67.3</ele>
        <time>2021-05-27T14:22:52Z</time>
      </trkpt>
      <trkpt lat="47.69368" lon="-2.22696">
        <ele>67.3</ele>
        <time>2021-05-27T14:22:53Z</time>
      </trkpt>
      <trkpt lat="47.69368" lon="-2.22696">
        <ele>67.3</ele>
        <time>2021-05-27T14:22:54Z</time>
      </trkpt>
      <trkpt lat="47.69368" lon="-2.22696">
        <ele>67.3</ele>
        <time>2021-05-27T14:22:55Z</time>
      </trkpt>
      <trkpt lat="47.69368" lon="-2.22696">
        <ele>67.3</ele>
        <time>2021-05-27T14:22:56Z</time>
      </trkpt>
      <trkpt lat="47.69368" lon="-2.22696">
        <ele>67.3</ele>
        <time>2021-05-27T14:22:57Z</time>
      </trkpt>
      <trkpt lat="47.69368" lon="-2.22696">
        <ele>67.3</ele>
        <time>2021-05-27T14:22:58Z</time>
      </trkpt>
      <trkpt lat="47.69368" lon="-2.22696">
        <ele>67.3</ele>
        <time>2021-05-27T14:22:59Z</time>
      </trkpt>
      <trkpt lat="47.69368" lon="-2.22696">
        <ele>67.3</ele>
        <time>2021-05-27T14:23:00Z</time>
      </trkpt>
      <trkpt lat="47.69368" lon="-2.22696">
        <ele>67.3</ele>
        <time>2021-05-27T14:23:01Z</time>
      </trkpt>
      <trkpt lat="47.69368" lon="-2.22696">
        <ele>67.3</ele>
        <time>2021-05-27T14:23:02Z</time>
      </trkpt>
      <trkpt lat="47.69368" lon="-2.22696">
        <ele>67.3</ele>
        <time>2021-05-27T14:23:03Z</time>
      </trkpt>
      <trkpt lat="47.69368" lon="-2.22696">
        <ele>67.3</ele>
        <time>2021-05-27T14:23:04Z</time>
      </trkpt>
      <trkpt lat="47.69368" lon="-2.22696">
        <ele>67.3</ele>
        <time>2021-05-27T14:23:05Z</time>
      </trkpt>
      <trkpt lat="47.69368" lon="-2.22696">
        <ele>67.3</ele>
        <time>2021-05-27T14:23:06Z</time>
      </trkpt>
      <trkpt lat="47.69368" lon="-2.22696">
        <ele>67.3</ele>
        <time>2021-05-27T14:23:07Z</time>
      </trkpt>
      <trkpt lat="47.69368" lon="-2.22696">
        <ele>67.3</ele>
        <time>2021-05-27T14:23:08Z</time>
      </trkpt>
      <trkpt lat="47.69368" lon="-2.22696">
        <ele>67.3</ele>
        <time>2021-05-27T14:23:09Z</time>
      </trkpt>
      <trkpt lat="47.69368" lon="-2.22696">
        <ele>67.3</ele>
        <time>2021-05-27T14:23:10Z</time>
      </trkpt>
      <trkpt lat="47.69368" lon="-2.22696">
        <ele>67.3</ele>
        <time>2021-05-27T14:23:11Z</time>
      </trkpt>
      <trkpt lat="47.69368" lon="-2.22696">
        <ele>67.3</ele>
        <time>2021-05-27T14:23:12Z</time>
      </trkpt>
      <trkpt lat="47.69368" lon="-2.22696">
        <ele>67.3</ele>
        <time>2021-05-27T14:23:13Z</time>
      </trkpt>
      <trkpt lat="47.69368" lon="-2.22696">
        <ele>67.3</ele>
        <time>2021-05-27T14:23:14Z</time>
      </trkpt>
      <trkpt lat="47.69368" lon="-2.22696">
        <ele>67.3</ele>
        <time>2021-05-27T14:23:15Z</time>
      </trkpt>
      <trkpt lat="47.69368" lon="-2.22696">
        <ele>67.3</ele>
        <time>2021-05-27T14:23:16Z</time>
      </trkpt>
      <trkpt lat="47.69368" lon="-2.22696">
        <ele>67.3</ele>
        <time>2021-05-27T14:23:17Z</time>
      </trkpt>
      <trkpt lat="47.69368" lon="-2.22696">
        <ele>67.3</ele>
        <time>2021-05-27T14:23:18Z</time>
      </trkpt>
      <trkpt lat="47.69368" lon="-2.22696">
        <ele>67.3</ele>
        <time>2021-05-27T14:23:19Z</time>
      </trkpt>
      <trkpt lat="47.69368" lon="-2.22696">
        <ele>67.3</ele>
        <time>2021-05-27T14:23:20Z</time>
      </trkpt>
      <trkpt lat="47.69368" lon="-2.22696">
        <ele>67.3</ele>
        <time>2021-05-27T14:23:21Z</time>
      </trkpt>
      <trkpt lat="47.69368" lon="-2.22696">
        <ele>67.3</ele>
        <time>2021-05-27T14:23:22Z</time>
      </trkpt>
      <trkpt lat="47.69368" lon="-2.22696">
        <ele>67.3</ele>
        <time>2021-05-27T14:23:23Z</time>
      </trkpt>
      <trkpt lat="47.69368" lon="-2.22696">
        <ele>67.3</ele>
        <time>2021-05-27T14:23:24Z</time>
      </trkpt>
      <trkpt lat="47.69368" lon="-2.22696">
        <ele>67.3</ele>
        <time>2021-05-27T14:23:25Z</time>
      </trkpt>
      <trkpt lat="47.69368" lon="-2.22696">
        <ele>67.3</ele>
        <time>2021-05-27T14:23:26Z</time>
      </trkpt>
      <trkpt lat="47.69368" lon="-2.22696">
        <ele>67.3</ele>
        <time>2021-05-27T14:23:27Z</time>
      </trkpt>
      <trkpt lat="47.69368" lon="-2.22696">
        <ele>67.3</ele>
        <time>2021-05-27T14:23:28Z</time>
      </trkpt>
      <trkpt lat="47.69368" lon="-2.22696">
        <ele>67.3</ele>
        <time>2021-05-27T14:23:29Z</time>
      </trkpt>
      <trkpt lat="47.69368" lon="-2.22696">
        <ele>67.3</ele>
        <time>2021-05-27T14:23:30Z</time>
      </trkpt>
      <trkpt lat="47.69368" lon="-2.22696">
        <ele>67.3</ele>
        <time>2021-05-27T14:23:31Z</time>
      </trkpt>
      <trkpt lat="47.69368" lon="-2.22696">
        <ele>67.3</ele>
        <time>2021-05-27T14:23:32Z</time>
      </trkpt>
      <trkpt lat="47.69368" lon="-2.22696">
        <ele>67.3</ele>
        <time>2021-05-27T14:23:33Z</time>
      </trkpt>
      <trkpt lat="47.69368" lon="-2.22696">
        <ele>67.3</ele>
        <time>2021-05-27T14:23:34Z</time>
      </trkpt>
      <trkpt lat="47.69368" lon="-2.22696">
        <ele>67.3</ele>
        <time>2021-05-27T14:23:35Z</time>
      </trkpt>
      <trkpt lat="47.69368" lon="-2.22696">
        <ele>67.3</ele>
        <time>2021-05-27T14:23:36Z</time>
      </trkpt>
      <trkpt lat="47.69368" lon="-2.22696">
        <ele>67.3</ele>
        <time>2021-05-27T14:23:37Z</time>
      </trkpt>
      <trkpt lat="47.69368" lon="-2.22696">
        <ele>67.3</ele>
        <time>2021-05-27T14:23:38Z</time>
      </trkpt>
      <trkpt lat="47.69368" lon="-2.22696">
        <ele>67.3</ele>
        <time>2021-05-27T14:23:39Z</time>
      </trkpt>
      <trkpt lat="47.69368" lon="-2.22696">
        <ele>67.3</ele>
        <time>2021-05-27T14:23:40Z</time>
      </trkpt>
      <trkpt lat="47.69368" lon="-2.22696">
        <ele>67.3</ele>
        <time>2021-05-27T14:23:41Z</time>
      </trkpt>
      <trkpt lat="47.69368" lon="-2.22696">
        <ele>67.3</ele>
        <time>2021-05-27T14:23:42Z</time>
      </trkpt>
      <trkpt lat="47.69368" lon="-2.22696">
        <ele>67.3</ele>
        <time>2021-05-27T14:23:43Z</time>
      </trkpt>
      <trkpt lat="47.69368" lon="-2.22696">
        <ele>67.3</ele>
        <time>2021-05-27T14:23:44Z</time>
      </trkpt>
      <trkpt lat="47.69368" lon="-2.22696">
        <ele>67.3</ele>
        <time>2021-05-27T14:23:45Z</time>
      </trkpt>
      <trkpt lat="47.69368" lon="-2.22696">
        <ele>67.3</ele>
        <time>2021-05-27T14:23:46Z</time>
      </trkpt>
      <trkpt lat="47.69368" lon="-2.22696">
        <ele>67.3</ele>
        <time>2021-05-27T14:23:47Z</time>
      </trkpt>
      <trkpt lat="47.69368" lon="-2.22696">
        <ele>67.3</ele>
        <time>2021-05-27T14:23:48Z</time>
      </trkpt>
      <trkpt lat="47.69368" lon="-2.22696">
        <ele>67.3</ele>
        <time>2021-05-27T14:23:49Z</time>
      </trkpt>
      <trkpt lat="47.69368" lon="-2.22696">
        <ele>67.3</ele>
        <time>2021-05-27T14:23:50Z</time>
      </trkpt>
      <trkpt lat="47.69368" lon="-2.22696">
        <ele>67.3</ele>
        <time>2021-05-27T14:23:51Z</time>
      </trkpt>
      <trkpt lat="47.69368" lon="-2.22696">
        <ele>67.3</ele>
        <time>2021-05-27T14:23:52Z</time>
      </trkpt>
      <trkpt lat="47.69368" lon="-2.22696">
        <ele>67.3</ele>
        <time>2021-05-27T14:23:53Z</time>
      </trkpt>
      <trkpt lat="47.69368" lon="-2.22696">
        <ele>67.3</ele>
        <time>2021-05-27T14:23:54Z</time>
      </trkpt>
      <trkpt lat="47.69368" lon="-2.22696">
        <ele>67.3</ele>
        <time>2021-05-27T14:23:55Z</time>
      </trkpt>
      <trkpt lat="47.69368" lon="-2.22696">
        <ele>67.3</ele>
        <time>2021-05-27T14:23:56Z</time>
      </trkpt>
      <trkpt lat="47.69368" lon="-2.22696">
        <ele>67.3</ele>
        <time>2021-05-27T14:23:57Z</time>
      </trkpt>
      <trkpt lat="47.69368" lon="-2.22696">
        <ele>67.3</ele>
        <time>2021-05-27T14:23:58Z</time>
      </trkpt>
      <trkpt lat="47.69368" lon="-2.22696">
        <ele>67.3</ele>
        <time>2021-05-27T14:23:59Z</time>
      </trkpt>
      <trkpt lat="47.69368" lon="-2.22696">
        <ele>67.3</ele>
        <time>2021-05-27T14:24:00Z</time>
      </trkpt>
      <trkpt lat="47.69368" lon="-2.22696">
        <ele>67.3</ele>
        <time>2021-05-27T14:24:01Z</time>
      </trkpt>
      <trkpt lat="47.69368" lon="-2.22696">
        <ele>67.3</ele>
        <time>2021-05-27T14:24:02Z</time>
      </trkpt>
      <trkpt lat="47.69368" lon="-2.22696">
        <ele>67.3</ele>
        <time>2021-05-27T14:24:03Z</time>
      </trkpt>
      <trkpt lat="47.69368" lon="-2.22696">
        <ele>67.3</ele>
        <time>2021-05-27T14:24:04Z</time>
      </trkpt>
      <trkpt lat="47.69368" lon="-2.22696">
        <ele>67.3</ele>
        <time>2021-05-27T14:24:05Z</time>
      </trkpt>
      <trkpt lat="47.69368" lon="-2.22696">
        <ele>67.3</ele>
        <time>2021-05-27T14:24:06Z</time>
      </trkpt>
      <trkpt lat="47.69368" lon="-2.22696">
        <ele>67.3</ele>
        <time>2021-05-27T14:24:07Z</time>
      </trkpt>
      <trkpt lat="47.69368" lon="-2.22696">
        <ele>67.3</ele>
        <time>2021-05-27T14:24:08Z</time>
      </trkpt>
      <trkpt lat="47.69368" lon="-2.22696">
        <ele>67.3</ele>
        <time>2021-05-27T14:24:09Z</time>
      </trkpt>
      <trkpt lat="47.69368" lon="-2.22696">
        <ele>67.3</ele>
        <time>2021-05-27T14:24:10Z</time>
      </trkpt>
      <trkpt lat="47.69368" lon="-2.22696">
        <ele>67.3</ele>
        <time>2021-05-27T14:24:11Z</time>
      </trkpt>
      <trkpt lat="47.69368" lon="-2.22696">
        <ele>67.3</ele>
        <time>2021-05-27T14:24:12Z</time>
      </trkpt>
      <trkpt lat="47.69368" lon="-2.22696">
        <ele>67.3</ele>
        <time>2021-05-27T14:24:13Z</time>
      </trkpt>
      <trkpt lat="47.69368" lon="-2.22696">
        <ele>67.3</ele>
        <time>2021-05-27T14:24:14Z</time>
      </trkpt>
      <trkpt lat="47.69368" lon="-2.22696">
        <ele>67.3</ele>
        <time>2021-05-27T14:24:15Z</time>
      </trkpt>
      <trkpt lat="47.69368" lon="-2.22696">
        <ele>67.3</ele>
        <time>2021-05-27T14:24:16Z</time>
      </trkpt>
      <trkpt lat="47.69368" lon="-2.22696">
        <ele>67.3</ele>
        <time>2021-05-27T14:24:17Z</time>
      </trkpt>
      <trkpt lat="47.69368" lon="-2.22696">
        <ele>67.3</ele>
        <time>2021-05-27T14:24:18Z</time>
      </trkpt>
      <trkpt lat="47.69368" lon="-2.22696">
        <ele>67.3</ele>
        <time>2021-05-27T14:24:19Z</time>
      </trkpt>
      <trkpt lat="47.69368" lon="-2.22696">
        <ele>67.3</ele>
        <time>2021-05-27T14:24:20Z</time>
      </trkpt>
      <trkpt lat="47.69368" lon="-2.22696">
        <ele>67.3</ele>
        <time>2021-05-27T14:24:21Z</time>
      </trkpt>
      <trkpt lat="47.69368" lon="-2.22696">
        <ele>67.3</ele>
        <time>2021-05-27T14:24:22Z</time>
      </trkpt>
      <trkpt lat="47.69368" lon="-2.22696">
        <ele>67.3</ele>
        <time>2021-05-27T14:24:23Z</time>
      </trkpt>
      <trkpt lat="47.69368" lon="-2.22696">
        <ele>67.3</ele>
        <time>2021-05-27T14:24:24Z</time>
      </trkpt>
      <trkpt lat="47.69368" lon="-2.22696">
        <ele>67.3</ele>
        <time>2021-05-27T14:24:25Z</time>
      </trkpt>
      <trkpt lat="47.69368" lon="-2.22696">
        <ele>67.3</ele>
        <time>2021-05-27T14:24:26Z</time>
      </trkpt>
      <trkpt lat="47.69368" lon="-2.22696">
        <ele>67.3</ele>
        <time>2021-05-27T14:24:27Z</time>
      </trkpt>
      <trkpt lat="47.69368" lon="-2.22696">
        <ele>67.3</ele>
        <time>2021-05-27T14:24:28Z</time>
      </trkpt>
      <trkpt lat="47.69368" lon="-2.22696">
        <ele>67.3</ele>
        <time>2021-05-27T14:24:29Z</time>
      </trkpt>
      <trkpt lat="47.69368" lon="-2.22696">
        <ele>67.3</ele>
        <time>2021-05-27T14:24:30Z</time>
      </trkpt>
      <trkpt lat="47.69368" lon="-2.22696">
        <ele>67.3</ele>
        <time>2021-05-27T14:24:31Z</time>
      </trkpt>
      <trkpt lat="47.69368" lon="-2.22696">
        <ele>67.3</ele>
        <time>2021-05-27T14:24:32Z</time>
      </trkpt>
      <trkpt lat="47.69368" lon="-2.22696">
        <ele>67.3</ele>
        <time>2021-05-27T14:24:33Z</time>
      </trkpt>
      <trkpt lat="47.69368" lon="-2.22696">
        <ele>67.3</ele>
        <time>2021-05-27T14:24:34Z</time>
      </trkpt>
      <trkpt lat="47.69368" lon="-2.22696">
        <ele>67.3</ele>
        <time>2021-05-27T14:24:35Z</time>
      </trkpt>
      <trkpt lat="47.69368" lon="-2.22696">
        <ele>67.3</ele>
        <time>2021-05-27T14:24:36Z</time>
      </trkpt>
      <trkpt lat="47.69368" lon="-2.22696">
        <ele>67.3</ele>
        <time>2021-05-27T14:24:37Z</time>
      </trkpt>
      <trkpt lat="47.69368" lon="-2.22696">
        <ele>67.3</ele>
        <time>2021-05-27T14:24:38Z</time>
      </trkpt>
      <trkpt lat="47.69368" lon="-2.22696">
        <ele>67.3</ele>
        <time>2021-05-27T14:24:39Z</time>
      </trkpt>
      <trkpt lat="47.69368" lon="-2.22696">
        <ele>67.3</ele>
        <time>2021-05-27T14:24:40Z</time>
      </trkpt>
      <trkpt lat="47.69368" lon="-2.22696">
        <ele>67.3</ele>
        <time>2021-05-27T14:24:41Z</time>
      </trkpt>
      <trkpt lat="47.69368" lon="-2.22696">
        <ele>67.3</ele>
        <time>2021-05-27T14:24:42Z</time>
      </trkpt>
      <trkpt lat="47.69368" lon="-2.22696">
        <ele>67.3</ele>
        <time>2021-05-27T14:24:43Z</time>
      </trkpt>
      <trkpt lat="47.69368" lon="-2.22696">
        <ele>67.3</ele>
        <time>2021-05-27T14:24:44Z</time>
      </trkpt>
      <trkpt lat="47.69368" lon="-2.22696">
        <ele>67.3</ele>
        <time>2021-05-27T14:24:45Z</time>
      </trkpt>
      <trkpt lat="47.69368" lon="-2.22696">
        <ele>67.3</ele>
        <time>2021-05-27T14:24:46Z</time>
      </trkpt>
      <trkpt lat="47.69368" lon="-2.22696">
        <ele>67.3</ele>
        <time>2021-05-27T14:24:47Z</time>
      </trkpt>
      <trkpt lat="47.69368" lon="-2.22696">
        <ele>67.3</ele>
        <time>2021-05-27T14:24:48Z</time>
      </trkpt>
      <trkpt lat="47.69368" lon="-2.22696">
        <ele>67.3</ele>
        <time>2021-05-27T14:24:49Z</time>
      </trkpt>
      <trkpt lat="47.69368" lon="-2.22696">
        <ele>67.3</ele>
        <time>2021-05-27T14:24:50Z</time>
      </trkpt>
      <trkpt lat="47.69368" lon="-2.22696">
        <ele>67.3</ele>
        <time>2021-05-27T14:24:51Z</time>
      </trkpt>
      <trkpt lat="47.69368" lon="-2.22696">
        <ele>67.3</ele>
        <time>2021-05-27T14:24:52Z</time>
      </trkpt>
      <trkpt lat="47.69368" lon="-2.22696">
        <ele>67.3</ele>
        <time>2021-05-27T14:24:53Z</time>
      </trkpt>
      <trkpt lat="47.69368" lon="-2.22696">
        <ele>67.3</ele>
        <time>2021-05-27T14:24:54Z</time>
      </trkpt>
      <trkpt lat="47.69368" lon="-2.22696">
        <ele>67.3</ele>
        <time>2021-05-27T14:24:55Z</time>
      </trkpt>
      <trkpt lat="47.69368" lon="-2.22696">
        <ele>67.3</ele>
        <time>2021-05-27T14:24:56Z</time>
      </trkpt>
      <trkpt lat="47.69368" lon="-2.22696">
        <ele>67.3</ele>
        <time>2021-05-27T14:24:57Z</time>
      </trkpt>
      <trkpt lat="47.69368" lon="-2.22696">
        <ele>67.3</ele>
        <time>2021-05-27T14:24:58Z</time>
      </trkpt>
      <trkpt lat="47.69368" lon="-2.22696">
        <ele>67.3</ele>
        <time>2021-05-27T14:24:59Z</time>
      </trkpt>
      <trkpt lat="47.69368" lon="-2.22696">
        <ele>67.3</ele>
        <time>2021-05-27T14:25:00Z</time>
      </trkpt>
      <trkpt lat="47.69368" lon="-2.22696">
        <ele>67.3</ele>
        <time>2021-05-27T14:25:01Z</time>
      </trkpt>
      <trkpt lat="47.69368" lon="-2.22696">
        <ele>67.3</ele>
        <time>2021-05-27T14:25:02Z</time>
      </trkpt>
      <trkpt lat="47.69368" lon="-2.22696">
        <ele>67.3</ele>
        <time>2021-05-27T14:25:03Z</time>
      </trkpt>
      <trkpt lat="47.69368" lon="-2.22696">
        <ele>67.3</ele>
        <time>2021-05-27T14:25:04Z</time>
      </trkpt>
      <trkpt lat="47.69368" lon="-2.22696">
        <ele>67.3</ele>
        <time>2021-05-27T14:25:05Z</time>
      </trkpt>
      <trkpt lat="47.69368" lon="-2.22696">
        <ele>67.3</ele>
        <time>2021-05-27T14:25:06Z</time>
      </trkpt>
      <trkpt lat="47.69368" lon="-2.22696">
        <ele>67.3</ele>
        <time>2021-05-27T14:25:07Z</time>
      </trkpt>
      <trkpt lat="47.69368" lon="-2.22696">
        <ele>67.3</ele>
        <time>2021-05-27T14:25:08Z</time>
      </trkpt>
      <trkpt lat="47.69368" lon="-2.22696">
        <ele>67.3</ele>
        <time>2021-05-27T14:25:09Z</time>
      </trkpt>
      <trkpt lat="47.69368" lon="-2.22696">
        <ele>67.3</ele>
        <time>2021-05-27T14:25:10Z</time>
      </trkpt>
      <trkpt lat="47.69368" lon="-2.22696">
        <ele>67.3</ele>
        <time>2021-05-27T14:25:11Z</time>
      </trkpt>
      <trkpt lat="47.69368" lon="-2.22696">
        <ele>67.3</ele>
        <time>2021-05-27T14:25:12Z</time>
      </trkpt>
      <trkpt lat="47.69368" lon="-2.22696">
        <ele>67.3</ele>
        <time>2021-05-27T14:25:13Z</time>
      </trkpt>
      <trkpt lat="47.69368" lon="-2.22696">
        <ele>67.3</ele>
        <time>2021-05-27T14:25:14Z</time>
      </trkpt>
      <trkpt lat="47.69368" lon="-2.22696">
        <ele>67.3</ele>
        <time>2021-05-27T14:25:15Z</time>
      </trkpt>
      <trkpt lat="47.69368" lon="-2.22696">
        <ele>67.3</ele>
        <time>2021-05-27T14:25:16Z</time>
      </trkpt>
      <trkpt lat="47.69368" lon="-2.22696">
        <ele>67.3</ele>
        <time>2021-05-27T14:25:17Z</time>
      </trkpt>
      <trkpt lat="47.69368" lon="-2.22696">
        <ele>67.3</ele>
        <time>2021-05-27T14:25:18Z</time>
      </trkpt>
      <trkpt lat="47.69368" lon="-2.22696">
        <ele>67.3</ele>
        <time>2021-05-27T14:25:19Z</time>
      </trkpt>
      <trkpt lat="47.69368" lon="-2.22696">
        <ele>67.3</ele>
        <time>2021-05-27T14:25:20Z</time>
      </trkpt>
      <trkpt lat="47.69368" lon="-2.22696">
        <ele>67.3</ele>
        <time>2021-05-27T14:25:21Z</time>
      </trkpt>
      <trkpt lat="47.69368" lon="-2.22696">
        <ele>67.3</ele>
        <time>2021-05-27T14:25:22Z</time>
      </trkpt>
      <trkpt lat="47.69368" lon="-2.22696">
        <ele>67.3</ele>
        <time>2021-05-27T14:25:23Z</time>
      </trkpt>
      <trkpt lat="47.69368" lon="-2.22696">
        <ele>67.3</ele>
        <time>2021-05-27T14:25:24Z</time>
      </trkpt>
      <trkpt lat="47.69368" lon="-2.22696">
        <ele>67.3</ele>
        <time>2021-05-27T14:25:25Z</time>
      </trkpt>
      <trkpt lat="47.69368" lon="-2.22696">
        <ele>67.3</ele>
        <time>2021-05-27T14:25:26Z</time>
      </trkpt>
      <trkpt lat="47.69368" lon="-2.22696">
        <ele>67.3</ele>
        <time>2021-05-27T14:25:27Z</time>
      </trkpt>
      <trkpt lat="47.69368" lon="-2.22696">
        <ele>67.3</ele>
        <time>2021-05-27T14:25:28Z</time>
      </trkpt>
      <trkpt lat="47.69368" lon="-2.22696">
        <ele>67.3</ele>
        <time>2021-05-27T14:25:29Z</time>
      </trkpt>
      <trkpt lat="47.69368" lon="-2.22696">
        <ele>67.3</ele>
        <time>2021-05-27T14:25:30Z</time>
      </trkpt>
      <trkpt lat="47.69368" lon="-2.22696">
        <ele>67.3</ele>
        <time>2021-05-27T14:25:31Z</time>
      </trkpt>
      <trkpt lat="47.69368" lon="-2.22696">
        <ele>67.3</ele>
        <time>2021-05-27T14:25:32Z</time>
      </trkpt>
      <trkpt lat="47.69368" lon="-2.22696">
        <ele>67.3</ele>
        <time>2021-05-27T14:25:33Z</time>
      </trkpt>
      <trkpt lat="47.69368" lon="-2.22696">
        <ele>67.3</ele>
        <time>2021-05-27T14:25:34Z</time>
      </trkpt>
      <trkpt lat="47.69368" lon="-2.22696">
        <ele>67.3</ele>
        <time>2021-05-27T14:25:35Z</time>
      </trkpt>
      <trkpt lat="47.69368" lon="-2.22696">
        <ele>67.3</ele>
        <time>2021-05-27T14:25:36Z</time>
      </trkpt>
      <trkpt lat="47.69368" lon="-2.22696">
        <ele>67.3</ele>
        <time>2021-05-27T14:25:37Z</time>
      </trkpt>
      <trkpt lat="47.69368" lon="-2.22696">
        <ele>67.3</ele>
        <time>2021-05-27T14:25:38Z</time>
      </trkpt>
      <trkpt lat="47.69368" lon="-2.22696">
        <ele>67.3</ele>
        <time>2021-05-27T14:25:39Z</time>
      </trkpt>
      <trkpt lat="47.69368" lon="-2.22696">
        <ele>67.3</ele>
        <time>2021-05-27T14:25:40Z</time>
      </trkpt>
      <trkpt lat="47.69368" lon="-2.22696">
        <ele>67.3</ele>
        <time>2021-05-27T14:25:41Z</time>
      </trkpt>
      <trkpt lat="47.69368" lon="-2.22696">
        <ele>67.3</ele>
        <time>2021-05-27T14:25:42Z</time>
      </trkpt>
      <trkpt lat="47.69368" lon="-2.22696">
        <ele>67.3</ele>
        <time>2021-05-27T14:25:43Z</time>
      </trkpt>
      <trkpt lat="47.69368" lon="-2.22696">
        <ele>67.3</ele>
        <time>2021-05-27T14:25:44Z</time>
      </trkpt>
      <trkpt lat="47.69368" lon="-2.22696">
        <ele>67.3</ele>
        <time>2021-05-27T14:25:45Z</time>
      </trkpt>
      <trkpt lat="47.69368" lon="-2.22696">
        <ele>67.3</ele>
        <time>2021-05-27T14:25:46Z</time>
      </trkpt>
      <trkpt lat="47.69368" lon="-2.22696">
        <ele>67.3</ele>
        <time>2021-05-27T14:25:47Z</time>
      </trkpt>
      <trkpt lat="47.69368" lon="-2.22696">
        <ele>67.3</ele>
        <time>2021-05-27T14:25:48Z</time>
      </trkpt>
      <trkpt lat="47.69368" lon="-2.22696">
        <ele>67.3</ele>
        <time>2021-05-27T14:25:49Z</time>
      </trkpt>
      <trkpt lat="47.69368" lon="-2.22696">
        <ele>67.3</ele>
        <time>2021-05-27T14:25:50Z</time>
      </trkpt>
      <trkpt lat="47.69368" lon="-2.22696">
        <ele>67.3</ele>
        <time>2021-05-27T14:25:51Z</time>
      </trkpt>
      <trkpt lat="47.69368" lon="-2.22696">
        <ele>67.3</ele>
        <time>2021-05-27T14:25:52Z</time>
      </trkpt>
      <trkpt lat="47.69368" lon="-2.22696">
        <ele>67.3</ele>
        <time>2021-05-27T14:25:53Z</time>
      </trkpt>
      <trkpt lat="47.69368" lon="-2.22696">
        <ele>67.3</ele>
        <time>2021-05-27T14:25:54Z</time>
      </trkpt>
      <trkpt lat="47.69368" lon="-2.22696">
        <ele>67.3</ele>
        <time>2021-05-27T14:25:55Z</time>
      </trkpt>
      <trkpt lat="47.69368" lon="-2.22696">
        <ele>67.3</ele>
        <time>2021-05-27T14:25:56Z</time>
      </trkpt>
      <trkpt lat="47.69368" lon="-2.22696">
        <ele>67.3</ele>
        <time>2021-05-27T14:25:57Z</time>
      </trkpt>
      <trkpt lat="47.69368" lon="-2.22696">
        <ele>67.3</ele>
        <time>2021-05-27T14:25:58Z</time>
      </trkpt>
      <trkpt lat="47.69368" lon="-2.22696">
        <ele>67.3</ele>
        <time>2021-05-27T14:25:59Z</time>
      </trkpt>
      <trkpt lat="47.69368" lon="-2.22696">
        <ele>67.3</ele>
        <time>2021-05-27T14:26:00Z</time>
      </trkpt>
      <trkpt lat="47.69368" lon="-2.22696">
        <ele>67.3</ele>
        <time>2021-05-27T14:26:01Z</time>
      </trkpt>
      <trkpt lat="47.69368" lon="-2.22696">
        <ele>67.3</ele>
        <time>2021-05-27T14:26:02Z</time>
      </trkpt>
      <trkpt lat="47.69368" lon="-2.22696">
        <ele>67.3</ele>
        <time>2021-05-27T14:26:03Z</time>
      </trkpt>
      <trkpt lat="47.69368" lon="-2.22696">
        <ele>67.3</ele>
        <time>2021-05-27T14:26:04Z</time>
      </trkpt>
      <trkpt lat="47.69368" lon="-2.22696">
        <ele>67.3</ele>
        <time>2021-05-27T14:26:05Z</time>
      </trkpt>
      <trkpt lat="47.69368" lon="-2.22696">
        <ele>67.3</ele>
        <time>2021-05-27T14:26:06Z</time>
      </trkpt>
      <trkpt lat="47.69368" lon="-2.22696">
        <ele>67.3</ele>
        <time>2021-05-27T14:26:07Z</time>
      </trkpt>
      <trkpt lat="47.69368" lon="-2.22696">
        <ele>67.3</ele>
        <time>2021-05-27T14:26:08Z</time>
      </trkpt>
      <trkpt lat="47.69368" lon="-2.22696">
        <ele>67.3</ele>
        <time>2021-05-27T14:26:09Z</time>
      </trkpt>
      <trkpt lat="47.69368" lon="-2.22696">
        <ele>67.3</ele>
        <time>2021-05-27T14:26:10Z</time>
      </trkpt>
      <trkpt lat="47.69368" lon="-2.22696">
        <ele>67.3</ele>
        <time>2021-05-27T14:26:11Z</time>
      </trkpt>
      <trkpt lat="47.69368" lon="-2.22696">
        <ele>67.3</ele>
        <time>2021-05-27T14:26:12Z</time>
      </trkpt>
      <trkpt lat="47.69368" lon="-2.22696">
        <ele>67.3</ele>
        <time>2021-05-27T14:26:13Z</time>
      </trkpt>
      <trkpt lat="47.69368" lon="-2.22696">
        <ele>67.3</ele>
        <time>2021-05-27T14:26:14Z</time>
      </trkpt>
      <trkpt lat="47.69368" lon="-2.22696">
        <ele>67.3</ele>
        <time>2021-05-27T14:26:15Z</time>
      </trkpt>
      <trkpt lat="47.69368" lon="-2.22696">
        <ele>67.3</ele>
        <time>2021-05-27T14:26:16Z</time>
      </trkpt>
      <trkpt lat="47.69368" lon="-2.22696">
        <ele>67.3</ele>
        <time>2021-05-27T14:26:17Z</time>
      </trkpt>
      <trkpt lat="47.69368" lon="-2.22696">
        <ele>67.3</ele>
        <time>2021-05-27T14:26:18Z</time>
      </trkpt>
      <trkpt lat="47.69368" lon="-2.22696">
        <ele>67.3</ele>
        <time>2021-05-27T14:26:19Z</time>
      </trkpt>
      <trkpt lat="47.69368" lon="-2.22696">
        <ele>67.3</ele>
        <time>2021-05-27T14:26:20Z</time>
      </trkpt>
      <trkpt lat="47.69368" lon="-2.22696">
        <ele>67.3</ele>
        <time>2021-05-27T14:26:21Z</time>
      </trkpt>
      <trkpt lat="47.69368" lon="-2.22696">
        <ele>67.3</ele>
        <time>2021-05-27T14:26:22Z</time>
      </trkpt>
      <trkpt lat="47.69368" lon="-2.22696">
        <ele>67.3</ele>
        <time>2021-05-27T14:26:23Z</time>
      </trkpt>
      <trkpt lat="47.69368" lon="-2.22696">
        <ele>67.3</ele>
        <time>2021-05-27T14:26:24Z</time>
      </trkpt>
      <trkpt lat="47.69368" lon="-2.22696">
        <ele>67.3</ele>
        <time>2021-05-27T14:26:25Z</time>
      </trkpt>
      <trkpt lat="47.69368" lon="-2.22696">
        <ele>67.3</ele>
        <time>2021-05-27T14:26:26Z</time>
      </trkpt>
      <trkpt lat="47.69368" lon="-2.22696">
        <ele>67.3</ele>
        <time>2021-05-27T14:26:27Z</time>
      </trkpt>
      <trkpt lat="47.69368" lon="-2.22696">
        <ele>67.3</ele>
        <time>2021-05-27T14:26:28Z</time>
      </trkpt>
      <trkpt lat="47.69368" lon="-2.22696">
        <ele>67.3</ele>
        <time>2021-05-27T14:26:29Z</time>
      </trkpt>
      <trkpt lat="47.69368" lon="-2.22696">
        <ele>67.3</ele>
        <time>2021-05-27T14:26:30Z</time>
      </trkpt>
      <trkpt lat="47.69368" lon="-2.22696">
        <ele>67.3</ele>
        <time>2021-05-27T14:26:31Z</time>
      </trkpt>
      <trkpt lat="47.69368" lon="-2.22696">
        <ele>67.3</ele>
        <time>2021-05-27T14:26:32Z</time>
      </trkpt>
      <trkpt lat="47.69368" lon="-2.22696">
        <ele>67.3</ele>
        <time>2021-05-27T14:26:33Z</time>
      </trkpt>
      <trkpt lat="47.69368" lon="-2.22696">
        <ele>67.3</ele>
        <time>2021-05-27T14:26:34Z</time>
      </trkpt>
      <trkpt lat="47.69368" lon="-2.22696">
        <ele>67.3</ele>
        <time>2021-05-27T14:26:35Z</time>
      </trkpt>
      <trkpt lat="47.69368" lon="-2.22696">
        <ele>67.3</ele>
        <time>2021-05-27T14:26:36Z</time>
      </trkpt>
      <trkpt lat="47.69368" lon="-2.22696">
        <ele>67.3</ele>
        <time>2021-05-27T14:26:37Z</time>
      </trkpt>
      <trkpt lat="47.69368" lon="-2.22696">
        <ele>67.3</ele>
        <time>2021-05-27T14:26:38Z</time>
      </trkpt>
      <trkpt lat="47.69368" lon="-2.22696">
        <ele>67.3</ele>
        <time>2021-05-27T14:26:39Z</time>
      </trkpt>
      <trkpt lat="47.69368" lon="-2.22696">
        <ele>67.3</ele>
        <time>2021-05-27T14:26:40Z</time>
      </trkpt>
      <trkpt lat="47.69368" lon="-2.22696">
        <ele>67.3</ele>
        <time>2021-05-27T14:26:41Z</time>
      </trkpt>
      <trkpt lat="47.69368" lon="-2.22696">
        <ele>67.3</ele>
        <time>2021-05-27T14:26:42Z</time>
      </trkpt>
      <trkpt lat="47.69368" lon="-2.22696">
        <ele>67.3</ele>
        <time>2021-05-27T14:26:43Z</time>
      </trkpt>
      <trkpt lat="47.69368" lon="-2.22696">
        <ele>67.3</ele>
        <time>2021-05-27T14:26:44Z</time>
      </trkpt>
      <trkpt lat="47.69368" lon="-2.22696">
        <ele>67.3</ele>
        <time>2021-05-27T14:26:45Z</time>
      </trkpt>
      <trkpt lat="47.69368" lon="-2.22696">
        <ele>67.3</ele>
        <time>2021-05-27T14:26:46Z</time>
      </trkpt>
      <trkpt lat="47.69368" lon="-2.22696">
        <ele>67.3</ele>
        <time>2021-05-27T14:26:47Z</time>
      </trkpt>
      <trkpt lat="47.69368" lon="-2.22696">
        <ele>67.3</ele>
        <time>2021-05-27T14:26:48Z</time>
      </trkpt>
      <trkpt lat="47.69368" lon="-2.22696">
        <ele>67.3</ele>
        <time>2021-05-27T14:26:49Z</time>
      </trkpt>
      <trkpt lat="47.69368" lon="-2.22696">
        <ele>67.3</ele>
        <time>2021-05-27T14:26:50Z</time>
      </trkpt>
      <trkpt lat="47.69368" lon="-2.22696">
        <ele>67.3</ele>
        <time>2021-05-27T14:26:51Z</time>
      </trkpt>
      <trkpt lat="47.69368" lon="-2.22696">
        <ele>67.3</ele>
        <time>2021-05-27T14:26:52Z</time>
      </trkpt>
      <trkpt lat="47.69368" lon="-2.22696">
        <ele>67.3</ele>
        <time>2021-05-27T14:26:53Z</time>
      </trkpt>
      <trkpt lat="47.69368" lon="-2.22696">
        <ele>67.3</ele>
        <time>2021-05-27T14:26:54Z</time>
      </trkpt>
      <trkpt lat="47.69368" lon="-2.22696">
        <ele>67.3</ele>
        <time>2021-05-27T14:26:55Z</time>
      </trkpt>
      <trkpt lat="47.69368" lon="-2.22696">
        <ele>67.3</ele>
        <time>2021-05-27T14:26:56Z</time>
      </trkpt>
      <trkpt lat="47.69368" lon="-2.22696">
        <ele>67.3</ele>
        <time>2021-05-27T14:26:57Z</time>
      </trkpt>
      <trkpt lat="47.69368" lon="-2.22696">
        <ele>67.3</ele>
        <time>2021-05-27T14:26:58Z</time>
      </trkpt>
      <trkpt lat="47.69368" lon="-2.22696">
        <ele>67.3</ele>
        <time>2021-05-27T14:26:59Z</time>
      </trkpt>
      <trkpt lat="47.69368" lon="-2.22696">
        <ele>67.3</ele>
        <time>2021-05-27T14:27:00Z</time>
      </trkpt>
      <trkpt lat="47.69368" lon="-2.22696">
        <ele>67.3</ele>
        <time>2021-05-27T14:27:01Z</time>
      </trkpt>
      <trkpt lat="47.69368" lon="-2.22696">
        <ele>67.3</ele>
        <time>2021-05-27T14:27:02Z</time>
      </trkpt>
      <trkpt lat="47.69368" lon="-2.22696">
        <ele>67.3</ele>
        <time>2021-05-27T14:27:03Z</time>
      </trkpt>
      <trkpt lat="47.69368" lon="-2.22696">
        <ele>67.3</ele>
        <time>2021-05-27T14:27:04Z</time>
      </trkpt>
      <trkpt lat="47.69368" lon="-2.22696">
        <ele>67.3</ele>
        <time>2021-05-27T14:27:05Z</time>
      </trkpt>
      <trkpt lat="47.69368" lon="-2.22696">
        <ele>67.3</ele>
        <time>2021-05-27T14:27:06Z</time>
      </trkpt>
      <trkpt lat="47.69368" lon="-2.22696">
        <ele>67.3</ele>
        <time>2021-05-27T14:27:07Z</time>
      </trkpt>
      <trkpt lat="47.69368" lon="-2.22696">
        <ele>67.3</ele>
        <time>2021-05-27T14:27:08Z</time>
      </trkpt>
      <trkpt lat="47.69368" lon="-2.22696">
        <ele>67.3</ele>
        <time>2021-05-27T14:27:09Z</time>
      </trkpt>
      <trkpt lat="47.69368" lon="-2.22696">
        <ele>67.3</ele>
        <time>2021-05-27T14:27:10Z</time>
      </trkpt>
      <trkpt lat="47.69368" lon="-2.22696">
        <ele>67.3</ele>
        <time>2021-05-27T14:27:11Z</time>
      </trkpt>
      <trkpt lat="47.69368" lon="-2.22696">
        <ele>67.3</ele>
        <time>2021-05-27T14:27:12Z</time>
      </trkpt>
      <trkpt lat="47.69368" lon="-2.22696">
        <ele>67.3</ele>
        <time>2021-05-27T14:27:13Z</time>
      </trkpt>
      <trkpt lat="47.69368" lon="-2.22696">
        <ele>67.3</ele>
        <time>2021-05-27T14:27:14Z</time>
      </trkpt>
      <trkpt lat="47.69368" lon="-2.22696">
        <ele>67.3</ele>
        <time>2021-05-27T14:27:15Z</time>
      </trkpt>
      <trkpt lat="47.69368" lon="-2.22696">
        <ele>67.3</ele>
        <time>2021-05-27T14:27:16Z</time>
      </trkpt>
      <trkpt lat="47.69368" lon="-2.22696">
        <ele>67.3</ele>
        <time>2021-05-27T14:27:17Z</time>
      </trkpt>
      <trkpt lat="47.69368" lon="-2.22696">
        <ele>67.3</ele>
        <time>2021-05-27T14:27:18Z</time>
      </trkpt>
      <trkpt lat="47.69368" lon="-2.22696">
        <ele>67.3</ele>
        <time>2021-05-27T14:27:19Z</time>
      </trkpt>
      <trkpt lat="47.69368" lon="-2.22696">
        <ele>67.3</ele>
        <time>2021-05-27T14:27:20Z</time>
      </trkpt>
      <trkpt lat="47.69368" lon="-2.22696">
        <ele>67.3</ele>
        <time>2021-05-27T14:27:21Z</time>
      </trkpt>
      <trkpt lat="47.69368" lon="-2.22696">
        <ele>67.3</ele>
        <time>2021-05-27T14:27:22Z</time>
      </trkpt>
      <trkpt lat="47.69368" lon="-2.22696">
        <ele>67.3</ele>
        <time>2021-05-27T14:27:23Z</time>
      </trkpt>
      <trkpt lat="47.69368" lon="-2.22696">
        <ele>67.3</ele>
        <time>2021-05-27T14:27:24Z</time>
      </trkpt>
      <trkpt lat="47.69368" lon="-2.22696">
        <ele>67.3</ele>
        <time>2021-05-27T14:27:25Z</time>
      </trkpt>
      <trkpt lat="47.69368" lon="-2.22696">
        <ele>67.3</ele>
        <time>2021-05-27T14:27:26Z</time>
      </trkpt>
      <trkpt lat="47.69368" lon="-2.22696">
        <ele>67.3</ele>
        <time>2021-05-27T14:27:27Z</time>
      </trkpt>
      <trkpt lat="47.69368" lon="-2.22696">
        <ele>67.3</ele>
        <time>2021-05-27T14:27:28Z</time>
      </trkpt>
      <trkpt lat="47.69368" lon="-2.22696">
        <ele>67.3</ele>
        <time>2021-05-27T14:27:29Z</time>
      </trkpt>
      <trkpt lat="47.69368" lon="-2.22696">
        <ele>67.3</ele>
        <time>2021-05-27T14:27:30Z</time>
      </trkpt>
      <trkpt lat="47.69368" lon="-2.22696">
        <ele>67.3</ele>
        <time>2021-05-27T14:27:31Z</time>
      </trkpt>
      <trkpt lat="47.69368" lon="-2.22696">
        <ele>67.3</ele>
        <time>2021-05-27T14:27:32Z</time>
      </trkpt>
      <trkpt lat="47.69368" lon="-2.22696">
        <ele>67.3</ele>
        <time>2021-05-27T14:27:33Z</time>
      </trkpt>
      <trkpt lat="47.69368" lon="-2.22696">
        <ele>67.3</ele>
        <time>2021-05-27T14:27:34Z</time>
      </trkpt>
      <trkpt lat="47.69368" lon="-2.22696">
        <ele>67.3</ele>
        <time>2021-05-27T14:27:35Z</time>
      </trkpt>
      <trkpt lat="47.69368" lon="-2.22696">
        <ele>67.3</ele>
        <time>2021-05-27T14:27:36Z</time>
      </trkpt>
      <trkpt lat="47.69368" lon="-2.22696">
        <ele>67.3</ele>
        <time>2021-05-27T14:27:37Z</time>
      </trkpt>
      <trkpt lat="47.69368" lon="-2.22696">
        <ele>67.3</ele>
        <time>2021-05-27T14:27:38Z</time>
      </trkpt>
      <trkpt lat="47.69368" lon="-2.22696">
        <ele>67.3</ele>
        <time>2021-05-27T14:27:39Z</time>
      </trkpt>
      <trkpt lat="47.69368" lon="-2.22696">
        <ele>67.3</ele>
        <time>2021-05-27T14:27:40Z</time>
      </trkpt>
      <trkpt lat="47.69368" lon="-2.22696">
        <ele>67.3</ele>
        <time>2021-05-27T14:27:41Z</time>
      </trkpt>
      <trkpt lat="47.69368" lon="-2.22696">
        <ele>67.3</ele>
        <time>2021-05-27T14:27:42Z</time>
      </trkpt>
      <trkpt lat="47.69368" lon="-2.22696">
        <ele>67.3</ele>
        <time>2021-05-27T14:27:43Z</time>
      </trkpt>
      <trkpt lat="47.69368" lon="-2.22696">
        <ele>67.3</ele>
        <time>2021-05-27T14:27:44Z</time>
      </trkpt>
      <trkpt lat="47.69368" lon="-2.22696">
        <ele>67.3</ele>
        <time>2021-05-27T14:27:45Z</time>
      </trkpt>
      <trkpt lat="47.69368" lon="-2.22696">
        <ele>67.3</ele>
        <time>2021-05-27T14:27:46Z</time>
      </trkpt>
      <trkpt lat="47.69368" lon="-2.22696">
        <ele>67.3</ele>
        <time>2021-05-27T14:27:47Z</time>
      </trkpt>
      <trkpt lat="47.69368" lon="-2.22696">
        <ele>67.3</ele>
        <time>2021-05-27T14:27:48Z</time>
      </trkpt>
      <trkpt lat="47.69368" lon="-2.22696">
        <ele>67.3</ele>
        <time>2021-05-27T14:27:49Z</time>
      </trkpt>
      <trkpt lat="47.69368" lon="-2.22696">
        <ele>67.3</ele>
        <time>2021-05-27T14:27:50Z</time>
      </trkpt>
      <trkpt lat="47.69368" lon="-2.22696">
        <ele>67.3</ele>
        <time>2021-05-27T14:27:51Z</time>
      </trkpt>
      <trkpt lat="47.69368" lon="-2.22696">
        <ele>67.3</ele>
        <time>2021-05-27T14:27:52Z</time>
      </trkpt>
      <trkpt lat="47.69368" lon="-2.22696">
        <ele>67.3</ele>
        <time>2021-05-27T14:27:53Z</time>
      </trkpt>
      <trkpt lat="47.69368" lon="-2.22696">
        <ele>67.3</ele>
        <time>2021-05-27T14:27:54Z</time>
      </trkpt>
      <trkpt lat="47.69368" lon="-2.22696">
        <ele>67.3</ele>
        <time>2021-05-27T14:27:55Z</time>
      </trkpt>
      <trkpt lat="47.69368" lon="-2.22696">
        <ele>67.3</ele>
        <time>2021-05-27T14:27:56Z</time>
      </trkpt>
      <trkpt lat="47.69368" lon="-2.22696">
        <ele>67.3</ele>
        <time>2021-05-27T14:27:57Z</time>
      </trkpt>
      <trkpt lat="47.69368" lon="-2.22696">
        <ele>67.3</ele>
        <time>2021-05-27T14:27:58Z</time>
      </trkpt>
      <trkpt lat="47.69368" lon="-2.22696">
        <ele>67.3</ele>
        <time>2021-05-27T14:27:59Z</time>
      </trkpt>
      <trkpt lat="47.69368" lon="-2.22696">
        <ele>67.3</ele>
        <time>2021-05-27T14:28:00Z</time>
      </trkpt>
      <trkpt lat="47.69368" lon="-2.22696">
        <ele>67.3</ele>
        <time>2021-05-27T14:28:01Z</time>
      </trkpt>
      <trkpt lat="47.69368" lon="-2.22696">
        <ele>67.3</ele>
        <time>2021-05-27T14:28:02Z</time>
      </trkpt>
      <trkpt lat="47.69368" lon="-2.22696">
        <ele>67.3</ele>
        <time>2021-05-27T14:28:03Z</time>
      </trkpt>
      <trkpt lat="47.69368" lon="-2.22696">
        <ele>67.3</ele>
        <time>2021-05-27T14:28:04Z</time>
      </trkpt>
      <trkpt lat="47.69368" lon="-2.22696">
        <ele>67.3</ele>
        <time>2021-05-27T14:28:05Z</time>
      </trkpt>
      <trkpt lat="47.69368" lon="-2.22696">
        <ele>67.3</ele>
        <time>2021-05-27T14:28:06Z</time>
      </trkpt>
      <trkpt lat="47.69368" lon="-2.22696">
        <ele>67.3</ele>
        <time>2021-05-27T14:28:07Z</time>
      </trkpt>
      <trkpt lat="47.69368" lon="-2.22696">
        <ele>67.3</ele>
        <time>2021-05-27T14:28:08Z</time>
      </trkpt>
      <trkpt lat="47.69368" lon="-2.22696">
        <ele>67.3</ele>
        <time>2021-05-27T14:28:09Z</time>
      </trkpt>
      <trkpt lat="47.69368" lon="-2.22696">
        <ele>67.3</ele>
        <time>2021-05-27T14:28:10Z</time>
      </trkpt>
      <trkpt lat="47.69368" lon="-2.22696">
        <ele>67.3</ele>
        <time>2021-05-27T14:28:11Z</time>
      </trkpt>
      <trkpt lat="47.69368" lon="-2.22696">
        <ele>67.3</ele>
        <time>2021-05-27T14:28:12Z</time>
      </trkpt>
      <trkpt lat="47.69368" lon="-2.22696">
        <ele>67.3</ele>
        <time>2021-05-27T14:28:13Z</time>
      </trkpt>
      <trkpt lat="47.69368" lon="-2.22696">
        <ele>67.3</ele>
        <time>2021-05-27T14:28:14Z</time>
      </trkpt>
      <trkpt lat="47.69368" lon="-2.22696">
        <ele>67.3</ele>
        <time>2021-05-27T14:28:15Z</time>
      </trkpt>
      <trkpt lat="47.69368" lon="-2.22696">
        <ele>67.3</ele>
        <time>2021-05-27T14:28:16Z</time>
      </trkpt>
      <trkpt lat="47.69368" lon="-2.22696">
        <ele>67.3</ele>
        <time>2021-05-27T14:28:17Z</time>
      </trkpt>
      <trkpt lat="47.69368" lon="-2.22696">
        <ele>67.3</ele>
        <time>2021-05-27T14:28:18Z</time>
      </trkpt>
      <trkpt lat="47.69368" lon="-2.22696">
        <ele>67.3</ele>
        <time>2021-05-27T14:28:19Z</time>
      </trkpt>
      <trkpt lat="47.69368" lon="-2.22696">
        <ele>67.3</ele>
        <time>2021-05-27T14:28:20Z</time>
      </trkpt>
      <trkpt lat="47.69368" lon="-2.22696">
        <ele>67.3</ele>
        <time>2021-05-27T14:28:21Z</time>
      </trkpt>
      <trkpt lat="47.69368" lon="-2.22696">
        <ele>67.3</ele>
        <time>2021-05-27T14:28:22Z</time>
      </trkpt>
      <trkpt lat="47.69368" lon="-2.22696">
        <ele>67.3</ele>
        <time>2021-05-27T14:28:23Z</time>
      </trkpt>
      <trkpt lat="47.69368" lon="-2.22696">
        <ele>67.3</ele>
        <time>2021-05-27T14:28:24Z</time>
      </trkpt>
      <trkpt lat="47.69368" lon="-2.22696">
        <ele>67.3</ele>
        <time>2021-05-27T14:28:25Z</time>
      </trkpt>
      <trkpt lat="47.69368" lon="-2.22696">
        <ele>67.3</ele>
        <time>2021-05-27T14:28:26Z</time>
      </trkpt>
      <trkpt lat="47.69368" lon="-2.22696">
        <ele>67.3</ele>
        <time>2021-05-27T14:28:27Z</time>
      </trkpt>
      <trkpt lat="47.69368" lon="-2.22696">
        <ele>67.3</ele>
        <time>2021-05-27T14:28:28Z</time>
      </trkpt>
      <trkpt lat="47.69368" lon="-2.22696">
        <ele>67.3</ele>
        <time>2021-05-27T14:28:29Z</time>
      </trkpt>
      <trkpt lat="47.69368" lon="-2.22696">
        <ele>67.3</ele>
        <time>2021-05-27T14:28:30Z</time>
      </trkpt>
      <trkpt lat="47.69368" lon="-2.22696">
        <ele>67.3</ele>
        <time>2021-05-27T14:28:31Z</time>
      </trkpt>
      <trkpt lat="47.69368" lon="-2.22696">
        <ele>67.3</ele>
        <time>2021-05-27T14:28:32Z</time>
      </trkpt>
      <trkpt lat="47.69368" lon="-2.22696">
        <ele>67.3</ele>
        <time>2021-05-27T14:28:33Z</time>
      </trkpt>
      <trkpt lat="47.69368" lon="-2.22696">
        <ele>67.3</ele>
        <time>2021-05-27T14:28:34Z</time>
      </trkpt>
      <trkpt lat="47.69368" lon="-2.22696">
        <ele>67.3</ele>
        <time>2021-05-27T14:28:35Z</time>
      </trkpt>
      <trkpt lat="47.69368" lon="-2.22696">
        <ele>67.3</ele>
        <time>2021-05-27T14:28:36Z</time>
      </trkpt>
      <trkpt lat="47.69368" lon="-2.22696">
        <ele>67.3</ele>
        <time>2021-05-27T14:28:37Z</time>
      </trkpt>
      <trkpt lat="47.69368" lon="-2.22696">
        <ele>67.3</ele>
        <time>2021-05-27T14:28:38Z</time>
      </trkpt>
      <trkpt lat="47.69368" lon="-2.22696">
        <ele>67.3</ele>
        <time>2021-05-27T14:28:39Z</time>
      </trkpt>
      <trkpt lat="47.69368" lon="-2.22696">
        <ele>67.3</ele>
        <time>2021-05-27T14:28:40Z</time>
      </trkpt>
      <trkpt lat="47.69368" lon="-2.22696">
        <ele>67.3</ele>
        <time>2021-05-27T14:28:41Z</time>
      </trkpt>
      <trkpt lat="47.69368" lon="-2.22696">
        <ele>67.3</ele>
        <time>2021-05-27T14:28:42Z</time>
      </trkpt>
      <trkpt lat="47.69368" lon="-2.22696">
        <ele>67.3</ele>
        <time>2021-05-27T14:28:43Z</time>
      </trkpt>
      <trkpt lat="47.69368" lon="-2.22696">
        <ele>67.3</ele>
        <time>2021-05-27T14:28:44Z</time>
      </trkpt>
      <trkpt lat="47.69368" lon="-2.22696">
        <ele>67.3</ele>
        <time>2021-05-27T14:28:45Z</time>
      </trkpt>
      <trkpt lat="47.69368" lon="-2.22696">
        <ele>67.3</ele>
        <time>2021-05-27T14:28:46Z</time>
      </trkpt>
      <trkpt lat="47.69368" lon="-2.22696">
        <ele>67.3</ele>
        <time>2021-05-27T14:28:47Z</time>
      </trkpt>
      <trkpt lat="47.69368" lon="-2.22696">
        <ele>67.3</ele>
        <time>2021-05-27T14:28:48Z</time>
      </trkpt>
      <trkpt lat="47.69368" lon="-2.22696">
        <ele>67.3</ele>
        <time>2021-05-27T14:28:49Z</time>
      </trkpt>
      <trkpt lat="47.69368" lon="-2.22696">
        <ele>67.3</ele>
        <time>2021-05-27T14:28:50Z</time>
      </trkpt>
      <trkpt lat="47.69368" lon="-2.22696">
        <ele>67.3</ele>
        <time>2021-05-27T14:28:51Z</time>
      </trkpt>
      <trkpt lat="47.69368" lon="-2.22696">
        <ele>67.3</ele>
        <time>2021-05-27T14:28:52Z</time>
      </trkpt>
      <trkpt lat="47.69368" lon="-2.22696">
        <ele>67.3</ele>
        <time>2021-05-27T14:28:53Z</time>
      </trkpt>
      <trkpt lat="47.69368" lon="-2.22696">
        <ele>67.3</ele>
        <time>2021-05-27T14:28:54Z</time>
      </trkpt>
      <trkpt lat="47.69368" lon="-2.22696">
        <ele>67.3</ele>
        <time>2021-05-27T14:28:55Z</time>
      </trkpt>
      <trkpt lat="47.69368" lon="-2.22696">
        <ele>67.3</ele>
        <time>2021-05-27T14:28:56Z</time>
      </trkpt>
      <trkpt lat="47.69368" lon="-2.22696">
        <ele>67.3</ele>
        <time>2021-05-27T14:28:57Z</time>
      </trkpt>
      <trkpt lat="47.69368" lon="-2.22696">
        <ele>67.3</ele>
        <time>2021-05-27T14:28:58Z</time>
      </trkpt>
      <trkpt lat="47.69368" lon="-2.22696">
        <ele>67.3</ele>
        <time>2021-05-27T14:28:59Z</time>
      </trkpt>
      <trkpt lat="47.69368" lon="-2.22696">
        <ele>67.3</ele>
        <time>2021-05-27T14:29:00Z</time>
      </trkpt>
      <trkpt lat="47.69368" lon="-2.22696">
        <ele>67.3</ele>
        <time>2021-05-27T14:29:01Z</time>
      </trkpt>
      <trkpt lat="47.69368" lon="-2.22696">
        <ele>67.3</ele>
        <time>2021-05-27T14:29:02Z</time>
      </trkpt>
      <trkpt lat="47.69368" lon="-2.22696">
        <ele>67.3</ele>
        <time>2021-05-27T14:29:03Z</time>
      </trkpt>
      <trkpt lat="47.69368" lon="-2.22696">
        <ele>67.3</ele>
        <time>2021-05-27T14:29:04Z</time>
      </trkpt>
      <trkpt lat="47.69368" lon="-2.22696">
        <ele>67.3</ele>
        <time>2021-05-27T14:29:05Z</time>
      </trkpt>
      <trkpt lat="47.69368" lon="-2.22696">
        <ele>67.3</ele>
        <time>2021-05-27T14:29:06Z</time>
      </trkpt>
      <trkpt lat="47.69368" lon="-2.22696">
        <ele>67.3</ele>
        <time>2021-05-27T14:29:07Z</time>
      </trkpt>
      <trkpt lat="47.69368" lon="-2.22696">
        <ele>67.3</ele>
        <time>2021-05-27T14:29:08Z</time>
      </trkpt>
      <trkpt lat="47.69368" lon="-2.22696">
        <ele>67.3</ele>
        <time>2021-05-27T14:29:09Z</time>
      </trkpt>
      <trkpt lat="47.69368" lon="-2.22696">
        <ele>67.3</ele>
        <time>2021-05-27T14:29:10Z</time>
      </trkpt>
      <trkpt lat="47.69368" lon="-2.22696">
        <ele>67.3</ele>
        <time>2021-05-27T14:29:11Z</time>
      </trkpt>
      <trkpt lat="47.69368" lon="-2.22696">
        <ele>67.3</ele>
        <time>2021-05-27T14:29:12Z</time>
      </trkpt>
      <trkpt lat="47.69368" lon="-2.22696">
        <ele>67.3</ele>
        <time>2021-05-27T14:29:13Z</time>
      </trkpt>
      <trkpt lat="47.69368" lon="-2.22696">
        <ele>67.3</ele>
        <time>2021-05-27T14:29:14Z</time>
      </trkpt>
      <trkpt lat="47.69368" lon="-2.22696">
        <ele>67.3</ele>
        <time>2021-05-27T14:29:15Z</time>
      </trkpt>
      <trkpt lat="47.69368" lon="-2.22696">
        <ele>67.3</ele>
        <time>2021-05-27T14:29:16Z</time>
      </trkpt>
      <trkpt lat="47.69368" lon="-2.22696">
        <ele>67.3</ele>
        <time>2021-05-27T14:29:17Z</time>
      </trkpt>
      <trkpt lat="47.69368" lon="-2.22696">
        <ele>67.3</ele>
        <time>2021-05-27T14:29:18Z</time>
      </trkpt>
      <trkpt lat="47.69368" lon="-2.22696">
        <ele>67.3</ele>
        <time>2021-05-27T14:29:19Z</time>
      </trkpt>
      <trkpt lat="47.69368" lon="-2.22696">
        <ele>67.3</ele>
        <time>2021-05-27T14:29:20Z</time>
      </trkpt>
      <trkpt lat="47.69368" lon="-2.22696">
        <ele>67.3</ele>
        <time>2021-05-27T14:29:21Z</time>
      </trkpt>
      <trkpt lat="47.69368" lon="-2.22696">
        <ele>67.3</ele>
        <time>2021-05-27T14:29:22Z</time>
      </trkpt>
      <trkpt lat="47.69368" lon="-2.22696">
        <ele>67.3</ele>
        <time>2021-05-27T14:29:23Z</time>
      </trkpt>
      <trkpt lat="47.69368" lon="-2.22696">
        <ele>67.3</ele>
        <time>2021-05-27T14:29:24Z</time>
      </trkpt>
      <trkpt lat="47.69368" lon="-2.22696">
        <ele>67.3</ele>
        <time>2021-05-27T14:29:25Z</time>
      </trkpt>
      <trkpt lat="47.69368" lon="-2.22696">
        <ele>67.3</ele>
        <time>2021-05-27T14:29:26Z</time>
      </trkpt>
      <trkpt lat="47.69368" lon="-2.22696">
        <ele>67.3</ele>
        <time>2021-05-27T14:29:27Z</time>
      </trkpt>
      <trkpt lat="47.69368" lon="-2.22696">
        <ele>67.3</ele>
        <time>2021-05-27T14:29:28Z</time>
      </trkpt>
      <trkpt lat="47.69368" lon="-2.22696">
        <ele>67.3</ele>
        <time>2021-05-27T14:29:29Z</time>
      </trkpt>
      <trkpt lat="47.69368" lon="-2.22696">
        <ele>67.3</ele>
        <time>2021-05-27T14:29:30Z</time>
      </trkpt>
      <trkpt lat="47.69368" lon="-2.22696">
        <ele>67.3</ele>
        <time>2021-05-27T14:29:31Z</time>
      </trkpt>
      <trkpt lat="47.69368" lon="-2.22696">
        <ele>67.3</ele>
        <time>2021-05-27T14:29:32Z</time>
      </trkpt>
      <trkpt lat="47.69368" lon="-2.22696">
        <ele>67.3</ele>
        <time>2021-05-27T14:29:33Z</time>
      </trkpt>
      <trkpt lat="47.69368" lon="-2.22696">
        <ele>67.3</ele>
        <time>2021-05-27T14:29:34Z</time>
      </trkpt>
      <trkpt lat="47.69368" lon="-2.22696">
        <ele>67.3</ele>
        <time>2021-05-27T14:29:35Z</time>
      </trkpt>
      <trkpt lat="47.69368" lon="-2.22696">
        <ele>67.3</ele>
        <time>2021-05-27T14:29:36Z</time>
      </trkpt>
      <trkpt lat="47.69368" lon="-2.22696">
        <ele>67.3</ele>
        <time>2021-05-27T14:29:37Z</time>
      </trkpt>
      <trkpt lat="47.69368" lon="-2.22696">
        <ele>67.3</ele>
        <time>2021-05-27T14:29:38Z</time>
      </trkpt>
      <trkpt lat="47.69368" lon="-2.22696">
        <ele>67.3</ele>
        <time>2021-05-27T14:29:39Z</time>
      </trkpt>
      <trkpt lat="47.69368" lon="-2.22696">
        <ele>67.3</ele>
        <time>2021-05-27T14:29:40Z</time>
      </trkpt>
      <trkpt lat="47.69368" lon="-2.22696">
        <ele>67.3</ele>
        <time>2021-05-27T14:29:41Z</time>
      </trkpt>
      <trkpt lat="47.69368" lon="-2.22696">
        <ele>67.3</ele>
        <time>2021-05-27T14:29:42Z</time>
      </trkpt>
      <trkpt lat="47.69368" lon="-2.22696">
        <ele>67.3</ele>
        <time>2021-05-27T14:29:43Z</time>
      </trkpt>
      <trkpt lat="47.69368" lon="-2.22696">
        <ele>67.3</ele>
        <time>2021-05-27T14:29:44Z</time>
      </trkpt>
      <trkpt lat="47.69368" lon="-2.22696">
        <ele>67.3</ele>
        <time>2021-05-27T14:29:45Z</time>
      </trkpt>
      <trkpt lat="47.69368" lon="-2.22696">
        <ele>67.3</ele>
        <time>2021-05-27T14:29:46Z</time>
      </trkpt>
      <trkpt lat="47.69368" lon="-2.22696">
        <ele>67.3</ele>
        <time>2021-05-27T14:29:47Z</time>
      </trkpt>
      <trkpt lat="47.69368" lon="-2.22696">
        <ele>67.3</ele>
        <time>2021-05-27T14:29:48Z</time>
      </trkpt>
      <trkpt lat="47.69368" lon="-2.22696">
        <ele>67.3</ele>
        <time>2021-05-27T14:29:49Z</time>
      </trkpt>
      <trkpt lat="47.69368" lon="-2.22696">
        <ele>67.3</ele>
        <time>2021-05-27T14:29:50Z</time>
      </trkpt>
      <trkpt lat="47.69368" lon="-2.22696">
        <ele>67.3</ele>
        <time>2021-05-27T14:29:51Z</time>
      </trkpt>
      <trkpt lat="47.69368" lon="-2.22696">
        <ele>67.3</ele>
        <time>2021-05-27T14:29:52Z</time>
      </trkpt>
      <trkpt lat="47.69368" lon="-2.22696">
        <ele>67.3</ele>
        <time>2021-05-27T14:29:53Z</time>
      </trkpt>
      <trkpt lat="47.69368" lon="-2.22696">
        <ele>67.3</ele>
        <time>2021-05-27T14:29:54Z</time>
      </trkpt>
      <trkpt lat="47.69368" lon="-2.22696">
        <ele>67.3</ele>
        <time>2021-05-27T14:29:55Z</time>
      </trkpt>
      <trkpt lat="47.69368" lon="-2.22696">
        <ele>67.3</ele>
        <time>2021-05-27T14:29:56Z</time>
      </trkpt>
      <trkpt lat="47.69368" lon="-2.22696">
        <ele>67.3</ele>
        <time>2021-05-27T14:29:57Z</time>
      </trkpt>
      <trkpt lat="47.69368" lon="-2.22696">
        <ele>67.3</ele>
        <time>2021-05-27T14:29:58Z</time>
      </trkpt>
      <trkpt lat="47.69368" lon="-2.22696">
        <ele>67.3</ele>
        <time>2021-05-27T14:29:59Z</time>
      </trkpt>
      <trkpt lat="47.69368" lon="-2.22696">
        <ele>67.3</ele>
        <time>2021-05-27T14:30:00Z</time>
      </trkpt>
      <trkpt lat="47.69368" lon="-2.22696">
        <ele>67.3</ele>
        <time>2021-05-27T14:30:01Z</time>
      </trkpt>
      <trkpt lat="47.69368" lon="-2.22696">
        <ele>67.3</ele>
        <time>2021-05-27T14:30:02Z</time>
      </trkpt>
      <trkpt lat="47.69368" lon="-2.22696">
        <ele>67.3</ele>
        <time>2021-05-27T14:30:03Z</time>
      </trkpt>
      <trkpt lat="47.69368" lon="-2.22696">
        <ele>67.3</ele>
        <time>2021-05-27T14:30:04Z</time>
      </trkpt>
      <trkpt lat="47.69368" lon="-2.22696">
        <ele>67.3</ele>
        <time>2021-05-27T14:30:05Z</time>
      </trkpt>
      <trkpt lat="47.69368" lon="-2.22696">
        <ele>67.3</ele>
        <time>2021-05-27T14:30:06Z</time>
      </trkpt>
      <trkpt lat="47.69368" lon="-2.22696">
        <ele>67.3</ele>
        <time>2021-05-27T14:30:07Z</time>
      </trkpt>
      <trkpt lat="47.69371" lon="-2.22695">
        <ele>67.3</ele>
        <time>2021-05-27T14:30:08Z</time>
      </trkpt>
      <trkpt lat="47.6937" lon="-2.22693">
        <ele>67.3</ele>
        <time>2021-05-27T14:30:09Z</time>
      </trkpt>
      <trkpt lat="47.69369" lon="-2.22691">
        <ele>67.3</ele>
        <time>2021-05-27T14:30:10Z</time>
      </trkpt>
      <trkpt lat="47.69367" lon="-2.22689">
        <ele>67.2</ele>
        <time>2021-05-27T14:30:11Z</time>
      </trkpt>
      <trkpt lat="47.69363" lon="-2.22684">
        <ele>67.1</ele>
        <time>2021-05-27T14:30:12Z</time>
      </trkpt>
      <trkpt lat="47.69359" lon="-2.22678">
        <ele>67.1</ele>
        <time>2021-05-27T14:30:13Z</time>
      </trkpt>
      <trkpt lat="47.69355" lon="-2.22672">
        <ele>67</ele>
        <time>2021-05-27T14:30:14Z</time>
      </trkpt>
      <trkpt lat="47.69352" lon="-2.22666">
        <ele>67</ele>
        <time>2021-05-27T14:30:15Z</time>
      </trkpt>
      <trkpt lat="47.69348" lon="-2.2266">
        <ele>67.1</ele>
        <time>2021-05-27T14:30:16Z</time>
      </trkpt>
      <trkpt lat="47.69346" lon="-2.22656">
        <ele>67.1</ele>
        <time>2021-05-27T14:30:17Z</time>
      </trkpt>
      <trkpt lat="47.69346" lon="-2.22652">
        <ele>67.1</ele>
        <time>2021-05-27T14:30:18Z</time>
      </trkpt>
      <trkpt lat="47.69348" lon="-2.2265">
        <ele>67.2</ele>
        <time>2021-05-27T14:30:19Z</time>
      </trkpt>
      <trkpt lat="47.6935" lon="-2.22648">
        <ele>67.2</ele>
        <time>2021-05-27T14:30:20Z</time>
      </trkpt>
      <trkpt lat="47.69354" lon="-2.22647">
        <ele>67.2</ele>
        <time>2021-05-27T14:30:21Z</time>
      </trkpt>
      <trkpt lat="47.69356" lon="-2.22647">
        <ele>67.2</ele>
        <time>2021-05-27T14:30:22Z</time>
      </trkpt>
      <trkpt lat="47.69358" lon="-2.22644">
        <ele>67.2</ele>
        <time>2021-05-27T14:30:23Z</time>
      </trkpt>
      <trkpt lat="47.6936" lon="-2.2264">
        <ele>67.2</ele>
        <time>2021-05-27T14:30:24Z</time>
      </trkpt>
      <trkpt lat="47.6936" lon="-2.22636">
        <ele>67.2</ele>
        <time>2021-05-27T14:30:25Z</time>
      </trkpt>
      <trkpt lat="47.69359" lon="-2.22633">
        <ele>67.3</ele>
        <time>2021-05-27T14:30:26Z</time>
      </trkpt>
      <trkpt lat="47.69357" lon="-2.22629">
        <ele>67.3</ele>
        <time>2021-05-27T14:30:27Z</time>
      </trkpt>
      <trkpt lat="47.69355" lon="-2.22625">
        <ele>67.4</ele>
        <time>2021-05-27T14:30:28Z</time>
      </trkpt>
      <trkpt lat="47.69353" lon="-2.22622">
        <ele>67.4</ele>
        <time>2021-05-27T14:30:29Z</time>
      </trkpt>
      <trkpt lat="47.6935" lon="-2.22618">
        <ele>67.5</ele>
        <time>2021-05-27T14:30:30Z</time>
      </trkpt>
      <trkpt lat="47.69348" lon="-2.22614">
        <ele>67.5</ele>
        <time>2021-05-27T14:30:31Z</time>
      </trkpt>
      <trkpt lat="47.69346" lon="-2.22611">
        <ele>67.6</ele>
        <time>2021-05-27T14:30:32Z</time>
      </trkpt>
      <trkpt lat="47.69343" lon="-2.22607">
        <ele>67.6</ele>
        <time>2021-05-27T14:30:33Z</time>
      </trkpt>
      <trkpt lat="47.69342" lon="-2.22604">
        <ele>67.7</ele>
        <time>2021-05-27T14:30:34Z</time>
      </trkpt>
      <trkpt lat="47.69342" lon="-2.22601">
        <ele>67.7</ele>
        <time>2021-05-27T14:30:35Z</time>
      </trkpt>
      <trkpt lat="47.69341" lon="-2.22597">
        <ele>67.8</ele>
        <time>2021-05-27T14:30:36Z</time>
      </trkpt>
      <trkpt lat="47.69339" lon="-2.22594">
        <ele>67.8</ele>
        <time>2021-05-27T14:30:37Z</time>
      </trkpt>
      <trkpt lat="47.69339" lon="-2.22589">
        <ele>67.9</ele>
        <time>2021-05-27T14:30:38Z</time>
      </trkpt>
      <trkpt lat="47.69338" lon="-2.22585">
        <ele>67.9</ele>
        <time>2021-05-27T14:30:39Z</time>
      </trkpt>
      <trkpt lat="47.69338" lon="-2.2258">
        <ele>68</ele>
        <time>2021-05-27T14:30:40Z</time>
      </trkpt>
      <trkpt lat="47.69337" lon="-2.22574">
        <ele>68.1</ele>
        <time>2021-05-27T14:30:41Z</time>
      </trkpt>
      <trkpt lat="47.69336" lon="-2.2257">
        <ele>68.1</ele>
        <time>2021-05-27T14:30:42Z</time>
      </trkpt>
      <trkpt lat="47.69335" lon="-2.22566">
        <ele>68.2</ele>
        <time>2021-05-27T14:30:43Z</time>
      </trkpt>
      <trkpt lat="47.69334" lon="-2.22562">
        <ele>68.2</ele>
        <time>2021-05-27T14:30:44Z</time>
      </trkpt>
      <trkpt lat="47.69334" lon="-2.22558">
        <ele>68.3</ele>
        <time>2021-05-27T14:30:45Z</time>
      </trkpt>
      <trkpt lat="47.69333" lon="-2.22553">
        <ele>68.4</ele>
        <time>2021-05-27T14:30:46Z</time>
      </trkpt>
      <trkpt lat="47.69333" lon="-2.22549">
        <ele>68.4</ele>
        <time>2021-05-27T14:30:47Z</time>
      </trkpt>
      <trkpt lat="47.69332" lon="-2.22545">
        <ele>68.4</ele>
        <time>2021-05-27T14:30:48Z</time>
      </trkpt>
      <trkpt lat="47.69332" lon="-2.22541">
        <ele>68.4</ele>
        <time>2021-05-27T14:30:49Z</time>
      </trkpt>
      <trkpt lat="47.69331" lon="-2.22536">
        <ele>68.4</ele>
        <time>2021-05-27T14:30:50Z</time>
      </trkpt>
      <trkpt lat="47.6933" lon="-2.22531">
        <ele>68.4</ele>
        <time>2021-05-27T14:30:51Z</time>
      </trkpt>
      <trkpt lat="47.69329" lon="-2.22526">
        <ele>68.4</ele>
        <time>2021-05-27T14:30:52Z</time>
      </trkpt>
      <trkpt lat="47.69329" lon="-2.2252">
        <ele>68.5</ele>
        <time>2021-05-27T14:30:53Z</time>
      </trkpt>
      <trkpt lat="47.6933" lon="-2.22515">
        <ele>68.6</ele>
        <time>2021-05-27T14:30:54Z</time>
      </trkpt>
      <trkpt lat="47.6933" lon="-2.2251">
        <ele>68.6</ele>
        <time>2021-05-27T14:30:55Z</time>
      </trkpt>
      <trkpt lat="47.69329" lon="-2.22506">
        <ele>68.6</ele>
        <time>2021-05-27T14:30:56Z</time>
      </trkpt>
      <trkpt lat="47.69329" lon="-2.22502">
        <ele>68.7</ele>
        <time>2021-05-27T14:30:57Z</time>
      </trkpt>
      <trkpt lat="47.69329" lon="-2.22497">
        <ele>68.7</ele>
        <time>2021-05-27T14:30:58Z</time>
      </trkpt>
      <trkpt lat="47.69329" lon="-2.22492">
        <ele>68.8</ele>
        <time>2021-05-27T14:30:59Z</time>
      </trkpt>
      <trkpt lat="47.6933" lon="-2.22489">
        <ele>68.9</ele>
        <time>2021-05-27T14:31:00Z</time>
      </trkpt>
      <trkpt lat="47.6933" lon="-2.22485">
        <ele>68.9</ele>
        <time>2021-05-27T14:31:01Z</time>
      </trkpt>
      <trkpt lat="47.69329" lon="-2.2248">
        <ele>68.9</ele>
        <time>2021-05-27T14:31:02Z</time>
      </trkpt>
      <trkpt lat="47.69328" lon="-2.22476">
        <ele>68.9</ele>
        <time>2021-05-27T14:31:03Z</time>
      </trkpt>
      <trkpt lat="47.69328" lon="-2.22472">
        <ele>68.9</ele>
        <time>2021-05-27T14:31:04Z</time>
      </trkpt>
      <trkpt lat="47.69328" lon="-2.22469">
        <ele>69</ele>
        <time>2021-05-27T14:31:05Z</time>
      </trkpt>
      <trkpt lat="47.69327" lon="-2.22466">
        <ele>69</ele>
        <time>2021-05-27T14:31:06Z</time>
      </trkpt>
      <trkpt lat="47.69327" lon="-2.22464">
        <ele>69</ele>
        <time>2021-05-27T14:31:07Z</time>
      </trkpt>
      <trkpt lat="47.69327" lon="-2.22462">
        <ele>69</ele>
        <time>2021-05-27T14:31:08Z</time>
      </trkpt>
      <trkpt lat="47.69327" lon="-2.2246">
        <ele>69.1</ele>
        <time>2021-05-27T14:31:09Z</time>
      </trkpt>
      <trkpt lat="47.69327" lon="-2.22459">
        <ele>69</ele>
        <time>2021-05-27T14:31:10Z</time>
      </trkpt>
      <trkpt lat="47.69327" lon="-2.22459">
        <ele>69</ele>
        <time>2021-05-27T14:31:11Z</time>
      </trkpt>
      <trkpt lat="47.69327" lon="-2.22458">
        <ele>69</ele>
        <time>2021-05-27T14:31:12Z</time>
      </trkpt>
      <trkpt lat="47.69327" lon="-2.22458">
        <ele>69</ele>
        <time>2021-05-27T14:31:13Z</time>
      </trkpt>
      <trkpt lat="47.69327" lon="-2.22458">
        <ele>69</ele>
        <time>2021-05-27T14:31:14Z</time>
      </trkpt>
      <trkpt lat="47.69327" lon="-2.22458">
        <ele>69</ele>
        <time>2021-05-27T14:31:15Z</time>
      </trkpt>
      <trkpt lat="47.69327" lon="-2.22458">
        <ele>69</ele>
        <time>2021-05-27T14:31:16Z</time>
      </trkpt>
      <trkpt lat="47.69327" lon="-2.22458">
        <ele>69</ele>
        <time>2021-05-27T14:31:17Z</time>
      </trkpt>
      <trkpt lat="47.69327" lon="-2.22458">
        <ele>69</ele>
        <time>2021-05-27T14:31:18Z</time>
      </trkpt>
      <trkpt lat="47.69327" lon="-2.22458">
        <ele>69</ele>
        <time>2021-05-27T14:31:19Z</time>
      </trkpt>
      <trkpt lat="47.69327" lon="-2.22458">
        <ele>69</ele>
        <time>2021-05-27T14:31:20Z</time>
      </trkpt>
      <trkpt lat="47.69326" lon="-2.22449">
        <ele>69.1</ele>
        <time>2021-05-27T14:31:21Z</time>
      </trkpt>
      <trkpt lat="47.69326" lon="-2.22446">
        <ele>69.1</ele>
        <time>2021-05-27T14:31:22Z</time>
      </trkpt>
      <trkpt lat="47.69326" lon="-2.22442">
        <ele>69.1</ele>
        <time>2021-05-27T14:31:23Z</time>
      </trkpt>
      <trkpt lat="47.69326" lon="-2.22437">
        <ele>69.2</ele>
        <time>2021-05-27T14:31:24Z</time>
      </trkpt>
      <trkpt lat="47.69326" lon="-2.22433">
        <ele>69.2</ele>
        <time>2021-05-27T14:31:25Z</time>
      </trkpt>
      <trkpt lat="47.69326" lon="-2.22429">
        <ele>69.3</ele>
        <time>2021-05-27T14:31:26Z</time>
      </trkpt>
      <trkpt lat="47.69326" lon="-2.22425">
        <ele>69.4</ele>
        <time>2021-05-27T14:31:27Z</time>
      </trkpt>
      <trkpt lat="47.69327" lon="-2.22421">
        <ele>69.5</ele>
        <time>2021-05-27T14:31:28Z</time>
      </trkpt>
      <trkpt lat="47.69326" lon="-2.22417">
        <ele>69.5</ele>
        <time>2021-05-27T14:31:29Z</time>
      </trkpt>
      <trkpt lat="47.69325" lon="-2.22413">
        <ele>69.5</ele>
        <time>2021-05-27T14:31:30Z</time>
      </trkpt>
      <trkpt lat="47.69325" lon="-2.22409">
        <ele>69.5</ele>
        <time>2021-05-27T14:31:31Z</time>
      </trkpt>
      <trkpt lat="47.69325" lon="-2.22405">
        <ele>69.5</ele>
        <time>2021-05-27T14:31:32Z</time>
      </trkpt>
      <trkpt lat="47.69325" lon="-2.22401">
        <ele>69.6</ele>
        <time>2021-05-27T14:31:33Z</time>
      </trkpt>
      <trkpt lat="47.69326" lon="-2.22398">
        <ele>69.7</ele>
        <time>2021-05-27T14:31:34Z</time>
      </trkpt>
      <trkpt lat="47.69326" lon="-2.22396">
        <ele>69.8</ele>
        <time>2021-05-27T14:31:35Z</time>
      </trkpt>
      <trkpt lat="47.69327" lon="-2.22394">
        <ele>69.8</ele>
        <time>2021-05-27T14:31:36Z</time>
      </trkpt>
      <trkpt lat="47.69326" lon="-2.22391">
        <ele>69.8</ele>
        <time>2021-05-27T14:31:37Z</time>
      </trkpt>
      <trkpt lat="47.69326" lon="-2.22389">
        <ele>69.8</ele>
        <time>2021-05-27T14:31:38Z</time>
      </trkpt>
      <trkpt lat="47.69325" lon="-2.22387">
        <ele>69.8</ele>
        <time>2021-05-27T14:31:39Z</time>
      </trkpt>
      <trkpt lat="47.69324" lon="-2.22384">
        <ele>69.7</ele>
        <time>2021-05-27T14:31:40Z</time>
      </trkpt>
      <trkpt lat="47.69322" lon="-2.22382">
        <ele>69.6</ele>
        <time>2021-05-27T14:31:41Z</time>
      </trkpt>
      <trkpt lat="47.6932" lon="-2.2238">
        <ele>69.5</ele>
        <time>2021-05-27T14:31:42Z</time>
      </trkpt>
      <trkpt lat="47.6932" lon="-2.22376">
        <ele>69.5</ele>
        <time>2021-05-27T14:31:43Z</time>
      </trkpt>
      <trkpt lat="47.6932" lon="-2.22372">
        <ele>69.6</ele>
        <time>2021-05-27T14:31:44Z</time>
      </trkpt>
      <trkpt lat="47.69319" lon="-2.22368">
        <ele>69.5</ele>
        <time>2021-05-27T14:31:45Z</time>
      </trkpt>
      <trkpt lat="47.69318" lon="-2.22364">
        <ele>69.5</ele>
        <time>2021-05-27T14:31:46Z</time>
      </trkpt>
      <trkpt lat="47.69316" lon="-2.22361">
        <ele>69.4</ele>
        <time>2021-05-27T14:31:47Z</time>
      </trkpt>
      <trkpt lat="47.69314" lon="-2.22357">
        <ele>69.3</ele>
        <time>2021-05-27T14:31:48Z</time>
      </trkpt>
      <trkpt lat="47.69312" lon="-2.22353">
        <ele>69.3</ele>
        <time>2021-05-27T14:31:49Z</time>
      </trkpt>
      <trkpt lat="47.69311" lon="-2.22348">
        <ele>69.2</ele>
        <time>2021-05-27T14:31:50Z</time>
      </trkpt>
      <trkpt lat="47.6931" lon="-2.22344">
        <ele>69.2</ele>
        <time>2021-05-27T14:31:51Z</time>
      </trkpt>
      <trkpt lat="47.6931" lon="-2.2234">
        <ele>69.2</ele>
        <time>2021-05-27T14:31:52Z</time>
      </trkpt>
      <trkpt lat="47.69309" lon="-2.22335">
        <ele>69.2</ele>
        <time>2021-05-27T14:31:53Z</time>
      </trkpt>
      <trkpt lat="47.69307" lon="-2.22331">
        <ele>69.1</ele>
        <time>2021-05-27T14:31:54Z</time>
      </trkpt>
      <trkpt lat="47.69305" lon="-2.22326">
        <ele>68.9</ele>
        <time>2021-05-27T14:31:55Z</time>
      </trkpt>
      <trkpt lat="47.69304" lon="-2.22322">
        <ele>68.8</ele>
        <time>2021-05-27T14:31:56Z</time>
      </trkpt>
      <trkpt lat="47.69303" lon="-2.22317">
        <ele>68.6</ele>
        <time>2021-05-27T14:31:57Z</time>
      </trkpt>
      <trkpt lat="47.69301" lon="-2.22312">
        <ele>68.5</ele>
        <time>2021-05-27T14:31:58Z</time>
      </trkpt>
      <trkpt lat="47.69299" lon="-2.22307">
        <ele>68.3</ele>
        <time>2021-05-27T14:31:59Z</time>
      </trkpt>
      <trkpt lat="47.69297" lon="-2.22303">
        <ele>68.1</ele>
        <time>2021-05-27T14:32:00Z</time>
      </trkpt>
      <trkpt lat="47.69296" lon="-2.22299">
        <ele>68</ele>
        <time>2021-05-27T14:32:01Z</time>
      </trkpt>
      <trkpt lat="47.69294" lon="-2.22296">
        <ele>67.9</ele>
        <time>2021-05-27T14:32:02Z</time>
      </trkpt>
      <trkpt lat="47.69292" lon="-2.22293">
        <ele>67.8</ele>
        <time>2021-05-27T14:32:03Z</time>
      </trkpt>
      <trkpt lat="47.69291" lon="-2.22288">
        <ele>67.7</ele>
        <time>2021-05-27T14:32:04Z</time>
      </trkpt>
      <trkpt lat="47.6929" lon="-2.22281">
        <ele>67.6</ele>
        <time>2021-05-27T14:32:05Z</time>
      </trkpt>
      <trkpt lat="47.6929" lon="-2.22276">
        <ele>67.6</ele>
        <time>2021-05-27T14:32:06Z</time>
      </trkpt>
      <trkpt lat="47.69289" lon="-2.22272">
        <ele>67.5</ele>
        <time>2021-05-27T14:32:07Z</time>
      </trkpt>
      <trkpt lat="47.69288" lon="-2.22268">
        <ele>67.4</ele>
        <time>2021-05-27T14:32:08Z</time>
      </trkpt>
      <trkpt lat="47.69287" lon="-2.22263">
        <ele>67.4</ele>
        <time>2021-05-27T14:32:09Z</time>
      </trkpt>
      <trkpt lat="47.69286" lon="-2.22259">
        <ele>67.3</ele>
        <time>2021-05-27T14:32:10Z</time>
      </trkpt>
      <trkpt lat="47.69284" lon="-2.22254">
        <ele>67.3</ele>
        <time>2021-05-27T14:32:11Z</time>
      </trkpt>
      <trkpt lat="47.69283" lon="-2.22249">
        <ele>67.2</ele>
        <time>2021-05-27T14:32:12Z</time>
      </trkpt>
      <trkpt lat="47.69281" lon="-2.22245">
        <ele>67</ele>
        <time>2021-05-27T14:32:13Z</time>
      </trkpt>
      <trkpt lat="47.69279" lon="-2.2224">
        <ele>66.9</ele>
        <time>2021-05-27T14:32:14Z</time>
      </trkpt>
      <trkpt lat="47.69277" lon="-2.22236">
        <ele>66.7</ele>
        <time>2021-05-27T14:32:15Z</time>
      </trkpt>
      <trkpt lat="47.69274" lon="-2.22232">
        <ele>66.5</ele>
        <time>2021-05-27T14:32:16Z</time>
      </trkpt>
      <trkpt lat="47.69273" lon="-2.22227">
        <ele>66.3</ele>
        <time>2021-05-27T14:32:17Z</time>
      </trkpt>
      <trkpt lat="47.69271" lon="-2.22221">
        <ele>66.2</ele>
        <time>2021-05-27T14:32:18Z</time>
      </trkpt>
      <trkpt lat="47.69271" lon="-2.22216">
        <ele>66</ele>
        <time>2021-05-27T14:32:19Z</time>
      </trkpt>
      <trkpt lat="47.6927" lon="-2.22211">
        <ele>65.9</ele>
        <time>2021-05-27T14:32:20Z</time>
      </trkpt>
      <trkpt lat="47.69269" lon="-2.22206">
        <ele>65.8</ele>
        <time>2021-05-27T14:32:21Z</time>
      </trkpt>
      <trkpt lat="47.69268" lon="-2.22202">
        <ele>65.6</ele>
        <time>2021-05-27T14:32:22Z</time>
      </trkpt>
      <trkpt lat="47.69268" lon="-2.22199">
        <ele>65.5</ele>
        <time>2021-05-27T14:32:23Z</time>
      </trkpt>
      <trkpt lat="47.69267" lon="-2.22196">
        <ele>65.4</ele>
        <time>2021-05-27T14:32:24Z</time>
      </trkpt>
      <trkpt lat="47.69266" lon="-2.22194">
        <ele>65.4</ele>
        <time>2021-05-27T14:32:25Z</time>
      </trkpt>
      <trkpt lat="47.69265" lon="-2.22193">
        <ele>65.3</ele>
        <time>2021-05-27T14:32:26Z</time>
      </trkpt>
      <trkpt lat="47.69265" lon="-2.22193">
        <ele>65.3</ele>
        <time>2021-05-27T14:32:27Z</time>
      </trkpt>
      <trkpt lat="47.69265" lon="-2.22193">
        <ele>65.3</ele>
        <time>2021-05-27T14:32:28Z</time>
      </trkpt>
      <trkpt lat="47.69265" lon="-2.22193">
        <ele>65.3</ele>
        <time>2021-05-27T14:32:29Z</time>
      </trkpt>
      <trkpt lat="47.69265" lon="-2.22193">
        <ele>65.3</ele>
        <time>2021-05-27T14:32:30Z</time>
      </trkpt>
      <trkpt lat="47.69265" lon="-2.22193">
        <ele>65.3</ele>
        <time>2021-05-27T14:32:31Z</time>
      </trkpt>
      <trkpt lat="47.69265" lon="-2.22193">
        <ele>65.3</ele>
        <time>2021-05-27T14:32:32Z</time>
      </trkpt>
      <trkpt lat="47.69265" lon="-2.22193">
        <ele>65.3</ele>
        <time>2021-05-27T14:32:33Z</time>
      </trkpt>
      <trkpt lat="47.69265" lon="-2.22193">
        <ele>65.3</ele>
        <time>2021-05-27T14:32:34Z</time>
      </trkpt>
      <trkpt lat="47.69265" lon="-2.22193">
        <ele>65.3</ele>
        <time>2021-05-27T14:32:35Z</time>
      </trkpt>
      <trkpt lat="47.69265" lon="-2.22193">
        <ele>65.3</ele>
        <time>2021-05-27T14:32:36Z</time>
      </trkpt>
      <trkpt lat="47.69265" lon="-2.22193">
        <ele>65.3</ele>
        <time>2021-05-27T14:32:37Z</time>
      </trkpt>
      <trkpt lat="47.69265" lon="-2.22193">
        <ele>65.3</ele>
        <time>2021-05-27T14:32:38Z</time>
      </trkpt>
      <trkpt lat="47.69265" lon="-2.22193">
        <ele>65.3</ele>
        <time>2021-05-27T14:32:39Z</time>
      </trkpt>
      <trkpt lat="47.69265" lon="-2.22193">
        <ele>65.3</ele>
        <time>2021-05-27T14:32:40Z</time>
      </trkpt>
      <trkpt lat="47.69265" lon="-2.22193">
        <ele>65.3</ele>
        <time>2021-05-27T14:32:41Z</time>
      </trkpt>
      <trkpt lat="47.69265" lon="-2.22193">
        <ele>65.3</ele>
        <time>2021-05-27T14:32:42Z</time>
      </trkpt>
      <trkpt lat="47.69265" lon="-2.22193">
        <ele>65.3</ele>
        <time>2021-05-27T14:32:43Z</time>
      </trkpt>
      <trkpt lat="47.69265" lon="-2.22193">
        <ele>65.3</ele>
        <time>2021-05-27T14:32:44Z</time>
      </trkpt>
      <trkpt lat="47.69265" lon="-2.22193">
        <ele>65.3</ele>
        <time>2021-05-27T14:32:45Z</time>
      </trkpt>
      <trkpt lat="47.69265" lon="-2.22193">
        <ele>65.3</ele>
        <time>2021-05-27T14:32:46Z</time>
      </trkpt>
      <trkpt lat="47.69264" lon="-2.22184">
        <ele>65</ele>
        <time>2021-05-27T14:32:47Z</time>
      </trkpt>
      <trkpt lat="47.69265" lon="-2.22183">
        <ele>65.1</ele>
        <time>2021-05-27T14:32:48Z</time>
      </trkpt>
      <trkpt lat="47.69267" lon="-2.22181">
        <ele>65.1</ele>
        <time>2021-05-27T14:32:49Z</time>
      </trkpt>
      <trkpt lat="47.69269" lon="-2.2218">
        <ele>65.2</ele>
        <time>2021-05-27T14:32:50Z</time>
      </trkpt>
      <trkpt lat="47.69272" lon="-2.22179">
        <ele>65.3</ele>
        <time>2021-05-27T14:32:51Z</time>
      </trkpt>
      <trkpt lat="47.69274" lon="-2.22179">
        <ele>65.4</ele>
        <time>2021-05-27T14:32:52Z</time>
      </trkpt>
      <trkpt lat="47.69276" lon="-2.22177">
        <ele>65.5</ele>
        <time>2021-05-27T14:32:53Z</time>
      </trkpt>
      <trkpt lat="47.69279" lon="-2.22173">
        <ele>65.5</ele>
        <time>2021-05-27T14:32:54Z</time>
      </trkpt>
      <trkpt lat="47.6928" lon="-2.2217">
        <ele>65.5</ele>
        <time>2021-05-27T14:32:55Z</time>
      </trkpt>
      <trkpt lat="47.69281" lon="-2.22166">
        <ele>65.5</ele>
        <time>2021-05-27T14:32:56Z</time>
      </trkpt>
      <trkpt lat="47.69281" lon="-2.22162">
        <ele>65.4</ele>
        <time>2021-05-27T14:32:57Z</time>
      </trkpt>
      <trkpt lat="47.6928" lon="-2.22159">
        <ele>65.3</ele>
        <time>2021-05-27T14:32:58Z</time>
      </trkpt>
      <trkpt lat="47.69278" lon="-2.22156">
        <ele>65.2</ele>
        <time>2021-05-27T14:32:59Z</time>
      </trkpt>
      <trkpt lat="47.69277" lon="-2.22156">
        <ele>65.1</ele>
        <time>2021-05-27T14:33:00Z</time>
      </trkpt>
      <trkpt lat="47.69276" lon="-2.22154">
        <ele>65.1</ele>
        <time>2021-05-27T14:33:01Z</time>
      </trkpt>
      <trkpt lat="47.69277" lon="-2.22152">
        <ele>65</ele>
        <time>2021-05-27T14:33:02Z</time>
      </trkpt>
      <trkpt lat="47.69277" lon="-2.22149">
        <ele>65</ele>
        <time>2021-05-27T14:33:03Z</time>
      </trkpt>
      <trkpt lat="47.69277" lon="-2.22145">
        <ele>65</ele>
        <time>2021-05-27T14:33:04Z</time>
      </trkpt>
      <trkpt lat="47.69277" lon="-2.22141">
        <ele>64.9</ele>
        <time>2021-05-27T14:33:05Z</time>
      </trkpt>
      <trkpt lat="47.69277" lon="-2.22135">
        <ele>64.8</ele>
        <time>2021-05-27T14:33:06Z</time>
      </trkpt>
      <trkpt lat="47.69277" lon="-2.2213">
        <ele>64.7</ele>
        <time>2021-05-27T14:33:07Z</time>
      </trkpt>
      <trkpt lat="47.69277" lon="-2.22125">
        <ele>64.6</ele>
        <time>2021-05-27T14:33:08Z</time>
      </trkpt>
      <trkpt lat="47.69277" lon="-2.22121">
        <ele>64.6</ele>
        <time>2021-05-27T14:33:09Z</time>
      </trkpt>
      <trkpt lat="47.69279" lon="-2.22118">
        <ele>64.6</ele>
        <time>2021-05-27T14:33:10Z</time>
      </trkpt>
      <trkpt lat="47.69281" lon="-2.22116">
        <ele>64.7</ele>
        <time>2021-05-27T14:33:11Z</time>
      </trkpt>
      <trkpt lat="47.69283" lon="-2.22116">
        <ele>64.7</ele>
        <time>2021-05-27T14:33:12Z</time>
      </trkpt>
      <trkpt lat="47.69285" lon="-2.22119">
        <ele>64.8</ele>
        <time>2021-05-27T14:33:13Z</time>
      </trkpt>
      <trkpt lat="47.69287" lon="-2.22122">
        <ele>65</ele>
        <time>2021-05-27T14:33:14Z</time>
      </trkpt>
      <trkpt lat="47.69289" lon="-2.22125">
        <ele>65.1</ele>
        <time>2021-05-27T14:33:15Z</time>
      </trkpt>
      <trkpt lat="47.69291" lon="-2.22129">
        <ele>65.3</ele>
        <time>2021-05-27T14:33:16Z</time>
      </trkpt>
      <trkpt lat="47.69292" lon="-2.22133">
        <ele>65.4</ele>
        <time>2021-05-27T14:33:17Z</time>
      </trkpt>
      <trkpt lat="47.69293" lon="-2.22136">
        <ele>65.5</ele>
        <time>2021-05-27T14:33:18Z</time>
      </trkpt>
      <trkpt lat="47.69294" lon="-2.22139">
        <ele>65.6</ele>
        <time>2021-05-27T14:33:19Z</time>
      </trkpt>
      <trkpt lat="47.69295" lon="-2.22142">
        <ele>65.7</ele>
        <time>2021-05-27T14:33:20Z</time>
      </trkpt>
      <trkpt lat="47.69297" lon="-2.22145">
        <ele>65.9</ele>
        <time>2021-05-27T14:33:21Z</time>
      </trkpt>
      <trkpt lat="47.69298" lon="-2.22148">
        <ele>66</ele>
        <time>2021-05-27T14:33:22Z</time>
      </trkpt>
      <trkpt lat="47.69299" lon="-2.22151">
        <ele>66.1</ele>
        <time>2021-05-27T14:33:23Z</time>
      </trkpt>
      <trkpt lat="47.69301" lon="-2.22154">
        <ele>66.2</ele>
        <time>2021-05-27T14:33:24Z</time>
      </trkpt>
      <trkpt lat="47.69303" lon="-2.22155">
        <ele>66.3</ele>
        <time>2021-05-27T14:33:25Z</time>
      </trkpt>
      <trkpt lat="47.69305" lon="-2.22156">
        <ele>66.4</ele>
        <time>2021-05-27T14:33:26Z</time>
      </trkpt>
      <trkpt lat="47.69307" lon="-2.22157">
        <ele>66.5</ele>
        <time>2021-05-27T14:33:27Z</time>
      </trkpt>
      <trkpt lat="47.69308" lon="-2.22159">
        <ele>66.6</ele>
        <time>2021-05-27T14:33:28Z</time>
      </trkpt>
      <trkpt lat="47.69308" lon="-2.2216">
        <ele>66.6</ele>
        <time>2021-05-27T14:33:29Z</time>
      </trkpt>
      <trkpt lat="47.69307" lon="-2.22159">
        <ele>66.6</ele>
        <time>2021-05-27T14:33:30Z</time>
      </trkpt>
      <trkpt lat="47.69307" lon="-2.22157">
        <ele>66.5</ele>
        <time>2021-05-27T14:33:31Z</time>
      </trkpt>
      <trkpt lat="47.69306" lon="-2.22153">
        <ele>66.4</ele>
        <time>2021-05-27T14:33:32Z</time>
      </trkpt>
      <trkpt lat="47.69304" lon="-2.2215">
        <ele>66.3</ele>
        <time>2021-05-27T14:33:33Z</time>
      </trkpt>
      <trkpt lat="47.69303" lon="-2.22146">
        <ele>66.2</ele>
        <time>2021-05-27T14:33:34Z</time>
      </trkpt>
      <trkpt lat="47.69302" lon="-2.22142">
        <ele>66</ele>
        <time>2021-05-27T14:33:35Z</time>
      </trkpt>
      <trkpt lat="47.693" lon="-2.22137">
        <ele>65.8</ele>
        <time>2021-05-27T14:33:36Z</time>
      </trkpt>
      <trkpt lat="47.69299" lon="-2.22132">
        <ele>65.7</ele>
        <time>2021-05-27T14:33:37Z</time>
      </trkpt>
      <trkpt lat="47.69298" lon="-2.22127">
        <ele>65.5</ele>
        <time>2021-05-27T14:33:38Z</time>
      </trkpt>
      <trkpt lat="47.69297" lon="-2.22122">
        <ele>65.4</ele>
        <time>2021-05-27T14:33:39Z</time>
      </trkpt>
      <trkpt lat="47.69296" lon="-2.22118">
        <ele>65.3</ele>
        <time>2021-05-27T14:33:40Z</time>
      </trkpt>
      <trkpt lat="47.69294" lon="-2.22114">
        <ele>65.1</ele>
        <time>2021-05-27T14:33:41Z</time>
      </trkpt>
      <trkpt lat="47.69292" lon="-2.2211">
        <ele>65</ele>
        <time>2021-05-27T14:33:42Z</time>
      </trkpt>
      <trkpt lat="47.69289" lon="-2.22106">
        <ele>64.8</ele>
        <time>2021-05-27T14:33:43Z</time>
      </trkpt>
      <trkpt lat="47.69286" lon="-2.22101">
        <ele>64.6</ele>
        <time>2021-05-27T14:33:44Z</time>
      </trkpt>
      <trkpt lat="47.69285" lon="-2.22098">
        <ele>64.5</ele>
        <time>2021-05-27T14:33:45Z</time>
      </trkpt>
      <trkpt lat="47.69284" lon="-2.22097">
        <ele>64.4</ele>
        <time>2021-05-27T14:33:46Z</time>
      </trkpt>
      <trkpt lat="47.69284" lon="-2.22095">
        <ele>64.4</ele>
        <time>2021-05-27T14:33:47Z</time>
      </trkpt>
      <trkpt lat="47.69284" lon="-2.22095">
        <ele>64.4</ele>
        <time>2021-05-27T14:33:48Z</time>
      </trkpt>
      <trkpt lat="47.69284" lon="-2.22095">
        <ele>64.4</ele>
        <time>2021-05-27T14:33:49Z</time>
      </trkpt>
      <trkpt lat="47.69284" lon="-2.22095">
        <ele>64.4</ele>
        <time>2021-05-27T14:33:50Z</time>
      </trkpt>
      <trkpt lat="47.69284" lon="-2.22095">
        <ele>64.4</ele>
        <time>2021-05-27T14:33:51Z</time>
      </trkpt>
      <trkpt lat="47.69284" lon="-2.22095">
        <ele>64.4</ele>
        <time>2021-05-27T14:33:52Z</time>
      </trkpt>
      <trkpt lat="47.69284" lon="-2.22095">
        <ele>64.4</ele>
        <time>2021-05-27T14:33:53Z</time>
      </trkpt>
      <trkpt lat="47.69284" lon="-2.22095">
        <ele>64.4</ele>
        <time>2021-05-27T14:33:54Z</time>
      </trkpt>
      <trkpt lat="47.69284" lon="-2.22095">
        <ele>64.4</ele>
        <time>2021-05-27T14:33:55Z</time>
      </trkpt>
      <trkpt lat="47.69284" lon="-2.22095">
        <ele>64.4</ele>
        <time>2021-05-27T14:33:56Z</time>
      </trkpt>
      <trkpt lat="47.69284" lon="-2.22095">
        <ele>64.4</ele>
        <time>2021-05-27T14:33:57Z</time>
      </trkpt>
      <trkpt lat="47.69284" lon="-2.22095">
        <ele>64.4</ele>
        <time>2021-05-27T14:33:58Z</time>
      </trkpt>
      <trkpt lat="47.69284" lon="-2.22095">
        <ele>64.4</ele>
        <time>2021-05-27T14:33:59Z</time>
      </trkpt>
      <trkpt lat="47.69284" lon="-2.22095">
        <ele>64.4</ele>
        <time>2021-05-27T14:34:00Z</time>
      </trkpt>
      <trkpt lat="47.69289" lon="-2.22097">
        <ele>64.6</ele>
        <time>2021-05-27T14:34:01Z</time>
      </trkpt>
      <trkpt lat="47.69291" lon="-2.22096">
        <ele>64.7</ele>
        <time>2021-05-27T14:34:02Z</time>
      </trkpt>
      <trkpt lat="47.69294" lon="-2.22096">
        <ele>64.8</ele>
        <time>2021-05-27T14:34:03Z</time>
      </trkpt>
      <trkpt lat="47.69296" lon="-2.22095">
        <ele>64.9</ele>
        <time>2021-05-27T14:34:04Z</time>
      </trkpt>
      <trkpt lat="47.69299" lon="-2.22095">
        <ele>65</ele>
        <time>2021-05-27T14:34:05Z</time>
      </trkpt>
      <trkpt lat="47.69301" lon="-2.22096">
        <ele>65.1</ele>
        <time>2021-05-27T14:34:06Z</time>
      </trkpt>
      <trkpt lat="47.69304" lon="-2.22098">
        <ele>65.2</ele>
        <time>2021-05-27T14:34:07Z</time>
      </trkpt>
      <trkpt lat="47.69307" lon="-2.22101">
        <ele>65.4</ele>
        <time>2021-05-27T14:34:08Z</time>
      </trkpt>
      <trkpt lat="47.6931" lon="-2.22105">
        <ele>65.6</ele>
        <time>2021-05-27T14:34:09Z</time>
      </trkpt>
      <trkpt lat="47.69311" lon="-2.22107">
        <ele>65.7</ele>
        <time>2021-05-27T14:34:10Z</time>
      </trkpt>
      <trkpt lat="47.69313" lon="-2.2211">
        <ele>65.8</ele>
        <time>2021-05-27T14:34:11Z</time>
      </trkpt>
      <trkpt lat="47.69316" lon="-2.22112">
        <ele>66</ele>
        <time>2021-05-27T14:34:12Z</time>
      </trkpt>
      <trkpt lat="47.69318" lon="-2.22115">
        <ele>66.1</ele>
        <time>2021-05-27T14:34:13Z</time>
      </trkpt>
      <trkpt lat="47.69321" lon="-2.22117">
        <ele>66.3</ele>
        <time>2021-05-27T14:34:14Z</time>
      </trkpt>
      <trkpt lat="47.69323" lon="-2.22118">
        <ele>66.4</ele>
        <time>2021-05-27T14:34:15Z</time>
      </trkpt>
      <trkpt lat="47.69326" lon="-2.22119">
        <ele>66.5</ele>
        <time>2021-05-27T14:34:16Z</time>
      </trkpt>
      <trkpt lat="47.69328" lon="-2.22121">
        <ele>66.7</ele>
        <time>2021-05-27T14:34:17Z</time>
      </trkpt>
      <trkpt lat="47.6933" lon="-2.22122">
        <ele>66.8</ele>
        <time>2021-05-27T14:34:18Z</time>
      </trkpt>
      <trkpt lat="47.69332" lon="-2.22123">
        <ele>66.9</ele>
        <time>2021-05-27T14:34:19Z</time>
      </trkpt>
      <trkpt lat="47.69333" lon="-2.22126">
        <ele>67</ele>
        <time>2021-05-27T14:34:20Z</time>
      </trkpt>
      <trkpt lat="47.69335" lon="-2.2213">
        <ele>66.8</ele>
        <time>2021-05-27T14:34:21Z</time>
      </trkpt>
      <trkpt lat="47.69336" lon="-2.22134">
        <ele>66.7</ele>
        <time>2021-05-27T14:34:22Z</time>
      </trkpt>
      <trkpt lat="47.69338" lon="-2.22139">
        <ele>66.5</ele>
        <time>2021-05-27T14:34:23Z</time>
      </trkpt>
      <trkpt lat="47.6934" lon="-2.22144">
        <ele>66.3</ele>
        <time>2021-05-27T14:34:24Z</time>
      </trkpt>
      <trkpt lat="47.69342" lon="-2.22147">
        <ele>66.1</ele>
        <time>2021-05-27T14:34:25Z</time>
      </trkpt>
      <trkpt lat="47.69345" lon="-2.22151">
        <ele>65.8</ele>
        <time>2021-05-27T14:34:26Z</time>
      </trkpt>
      <trkpt lat="47.69347" lon="-2.22153">
        <ele>65.5</ele>
        <time>2021-05-27T14:34:27Z</time>
      </trkpt>
      <trkpt lat="47.69349" lon="-2.22156">
        <ele>65.4</ele>
        <time>2021-05-27T14:34:28Z</time>
      </trkpt>
      <trkpt lat="47.6935" lon="-2.22158">
        <ele>65.3</ele>
        <time>2021-05-27T14:34:29Z</time>
      </trkpt>
      <trkpt lat="47.6935" lon="-2.2216">
        <ele>65.4</ele>
        <time>2021-05-27T14:34:30Z</time>
      </trkpt>
      <trkpt lat="47.6935" lon="-2.2216">
        <ele>65.3</ele>
        <time>2021-05-27T14:34:31Z</time>
      </trkpt>
      <trkpt lat="47.6935" lon="-2.22158">
        <ele>65.3</ele>
        <time>2021-05-27T14:34:32Z</time>
      </trkpt>
      <trkpt lat="47.6935" lon="-2.22156">
        <ele>65.2</ele>
        <time>2021-05-27T14:34:33Z</time>
      </trkpt>
      <trkpt lat="47.69349" lon="-2.22154">
        <ele>65.2</ele>
        <time>2021-05-27T14:34:34Z</time>
      </trkpt>
      <trkpt lat="47.69349" lon="-2.2215">
        <ele>65.1</ele>
        <time>2021-05-27T14:34:35Z</time>
      </trkpt>
      <trkpt lat="47.69348" lon="-2.22147">
        <ele>65.2</ele>
        <time>2021-05-27T14:34:36Z</time>
      </trkpt>
      <trkpt lat="47.69347" lon="-2.22144">
        <ele>65.2</ele>
        <time>2021-05-27T14:34:37Z</time>
      </trkpt>
      <trkpt lat="47.69346" lon="-2.2214">
        <ele>65.3</ele>
        <time>2021-05-27T14:34:38Z</time>
      </trkpt>
      <trkpt lat="47.69344" lon="-2.22136">
        <ele>65.4</ele>
        <time>2021-05-27T14:34:39Z</time>
      </trkpt>
      <trkpt lat="47.69343" lon="-2.22132">
        <ele>65.4</ele>
        <time>2021-05-27T14:34:40Z</time>
      </trkpt>
      <trkpt lat="47.69342" lon="-2.22129">
        <ele>65.6</ele>
        <time>2021-05-27T14:34:41Z</time>
      </trkpt>
      <trkpt lat="47.6934" lon="-2.22126">
        <ele>65.8</ele>
        <time>2021-05-27T14:34:42Z</time>
      </trkpt>
      <trkpt lat="47.69339" lon="-2.22123">
        <ele>66</ele>
        <time>2021-05-27T14:34:43Z</time>
      </trkpt>
      <trkpt lat="47.69337" lon="-2.2212">
        <ele>66.2</ele>
        <time>2021-05-27T14:34:44Z</time>
      </trkpt>
      <trkpt lat="47.69336" lon="-2.22116">
        <ele>66.2</ele>
        <time>2021-05-27T14:34:45Z</time>
      </trkpt>
      <trkpt lat="47.69336" lon="-2.22115">
        <ele>66.2</ele>
        <time>2021-05-27T14:34:46Z</time>
      </trkpt>
      <trkpt lat="47.69337" lon="-2.22115">
        <ele>66.1</ele>
        <time>2021-05-27T14:34:47Z</time>
      </trkpt>
      <trkpt lat="47.69337" lon="-2.22116">
        <ele>66</ele>
        <time>2021-05-27T14:34:48Z</time>
      </trkpt>
      <trkpt lat="47.69337" lon="-2.22116">
        <ele>66</ele>
        <time>2021-05-27T14:34:49Z</time>
      </trkpt>
      <trkpt lat="47.6934" lon="-2.2212">
        <ele>65.5</ele>
        <time>2021-05-27T14:34:50Z</time>
      </trkpt>
      <trkpt lat="47.69343" lon="-2.22124">
        <ele>65.1</ele>
        <time>2021-05-27T14:34:51Z</time>
      </trkpt>
      <trkpt lat="47.69346" lon="-2.22127">
        <ele>64.7</ele>
        <time>2021-05-27T14:34:52Z</time>
      </trkpt>
      <trkpt lat="47.69349" lon="-2.22129">
        <ele>64.3</ele>
        <time>2021-05-27T14:34:53Z</time>
      </trkpt>
      <trkpt lat="47.69351" lon="-2.22131">
        <ele>64</ele>
        <time>2021-05-27T14:34:54Z</time>
      </trkpt>
      <trkpt lat="47.69353" lon="-2.22133">
        <ele>63.6</ele>
        <time>2021-05-27T14:34:55Z</time>
      </trkpt>
      <trkpt lat="47.69357" lon="-2.22135">
        <ele>63.1</ele>
        <time>2021-05-27T14:34:56Z</time>
      </trkpt>
      <trkpt lat="47.69359" lon="-2.22135">
        <ele>62.7</ele>
        <time>2021-05-27T14:34:57Z</time>
      </trkpt>
      <trkpt lat="47.69361" lon="-2.22136">
        <ele>62.4</ele>
        <time>2021-05-27T14:34:58Z</time>
      </trkpt>
      <trkpt lat="47.69364" lon="-2.22136">
        <ele>62</ele>
        <time>2021-05-27T14:34:59Z</time>
      </trkpt>
      <trkpt lat="47.69366" lon="-2.22136">
        <ele>61.6</ele>
        <time>2021-05-27T14:35:00Z</time>
      </trkpt>
      <trkpt lat="47.69367" lon="-2.22135">
        <ele>61.3</ele>
        <time>2021-05-27T14:35:01Z</time>
      </trkpt>
      <trkpt lat="47.69368" lon="-2.22134">
        <ele>61.1</ele>
        <time>2021-05-27T14:35:02Z</time>
      </trkpt>
      <trkpt lat="47.69368" lon="-2.22135">
        <ele>61.1</ele>
        <time>2021-05-27T14:35:03Z</time>
      </trkpt>
      <trkpt lat="47.69368" lon="-2.22135">
        <ele>61.1</ele>
        <time>2021-05-27T14:35:04Z</time>
      </trkpt>
      <trkpt lat="47.69368" lon="-2.22135">
        <ele>61.1</ele>
        <time>2021-05-27T14:35:05Z</time>
      </trkpt>
      <trkpt lat="47.69368" lon="-2.22135">
        <ele>61.1</ele>
        <time>2021-05-27T14:35:06Z</time>
      </trkpt>
      <trkpt lat="47.69368" lon="-2.22135">
        <ele>61.1</ele>
        <time>2021-05-27T14:35:07Z</time>
      </trkpt>
      <trkpt lat="47.69368" lon="-2.22135">
        <ele>61.1</ele>
        <time>2021-05-27T14:35:08Z</time>
      </trkpt>
      <trkpt lat="47.69368" lon="-2.22135">
        <ele>61.1</ele>
        <time>2021-05-27T14:35:09Z</time>
      </trkpt>
      <trkpt lat="47.69368" lon="-2.22135">
        <ele>61.1</ele>
        <time>2021-05-27T14:35:10Z</time>
      </trkpt>
      <trkpt lat="47.69368" lon="-2.22135">
        <ele>61.1</ele>
        <time>2021-05-27T14:35:11Z</time>
      </trkpt>
      <trkpt lat="47.69377" lon="-2.22124">
        <ele>58.8</ele>
        <time>2021-05-27T14:35:12Z</time>
      </trkpt>
      <trkpt lat="47.69378" lon="-2.22121">
        <ele>58.4</ele>
        <time>2021-05-27T14:35:13Z</time>
      </trkpt>
      <trkpt lat="47.69379" lon="-2.22118">
        <ele>57.9</ele>
        <time>2021-05-27T14:35:14Z</time>
      </trkpt>
      <trkpt lat="47.6938" lon="-2.22114">
        <ele>57.5</ele>
        <time>2021-05-27T14:35:15Z</time>
      </trkpt>
      <trkpt lat="47.69382" lon="-2.22111">
        <ele>57</ele>
        <time>2021-05-27T14:35:16Z</time>
      </trkpt>
      <trkpt lat="47.69384" lon="-2.22108">
        <ele>56.3</ele>
        <time>2021-05-27T14:35:17Z</time>
      </trkpt>
      <trkpt lat="47.69385" lon="-2.22107">
        <ele>55.9</ele>
        <time>2021-05-27T14:35:18Z</time>
      </trkpt>
      <trkpt lat="47.69387" lon="-2.22107">
        <ele>55.6</ele>
        <time>2021-05-27T14:35:19Z</time>
      </trkpt>
      <trkpt lat="47.69388" lon="-2.22107">
        <ele>55.4</ele>
        <time>2021-05-27T14:35:20Z</time>
      </trkpt>
      <trkpt lat="47.69388" lon="-2.22107">
        <ele>55.4</ele>
        <time>2021-05-27T14:35:21Z</time>
      </trkpt>
      <trkpt lat="47.69388" lon="-2.22107">
        <ele>55.4</ele>
        <time>2021-05-27T14:35:22Z</time>
      </trkpt>
      <trkpt lat="47.69388" lon="-2.22107">
        <ele>55.4</ele>
        <time>2021-05-27T14:35:23Z</time>
      </trkpt>
      <trkpt lat="47.69388" lon="-2.22107">
        <ele>55.4</ele>
        <time>2021-05-27T14:35:24Z</time>
      </trkpt>
      <trkpt lat="47.69388" lon="-2.22107">
        <ele>55.4</ele>
        <time>2021-05-27T14:35:25Z</time>
      </trkpt>
      <trkpt lat="47.69388" lon="-2.22107">
        <ele>55.4</ele>
        <time>2021-05-27T14:35:26Z</time>
      </trkpt>
      <trkpt lat="47.69388" lon="-2.22107">
        <ele>55.4</ele>
        <time>2021-05-27T14:35:27Z</time>
      </trkpt>
      <trkpt lat="47.69388" lon="-2.22107">
        <ele>55.4</ele>
        <time>2021-05-27T14:35:28Z</time>
      </trkpt>
      <trkpt lat="47.69388" lon="-2.22107">
        <ele>55.4</ele>
        <time>2021-05-27T14:35:29Z</time>
      </trkpt>
      <trkpt lat="47.69388" lon="-2.22107">
        <ele>55.4</ele>
        <time>2021-05-27T14:35:30Z</time>
      </trkpt>
      <trkpt lat="47.69388" lon="-2.22107">
        <ele>55.4</ele>
        <time>2021-05-27T14:35:31Z</time>
      </trkpt>
      <trkpt lat="47.69388" lon="-2.22107">
        <ele>55.4</ele>
        <time>2021-05-27T14:35:32Z</time>
      </trkpt>
      <trkpt lat="47.69388" lon="-2.22107">
        <ele>55.4</ele>
        <time>2021-05-27T14:35:33Z</time>
      </trkpt>
      <trkpt lat="47.69388" lon="-2.22107">
        <ele>55.4</ele>
        <time>2021-05-27T14:35:34Z</time>
      </trkpt>
      <trkpt lat="47.69388" lon="-2.22107">
        <ele>55.4</ele>
        <time>2021-05-27T14:35:35Z</time>
      </trkpt>
      <trkpt lat="47.69388" lon="-2.22107">
        <ele>55.4</ele>
        <time>2021-05-27T14:35:36Z</time>
      </trkpt>
      <trkpt lat="47.69388" lon="-2.22107">
        <ele>55.4</ele>
        <time>2021-05-27T14:35:37Z</time>
      </trkpt>
      <trkpt lat="47.69388" lon="-2.22107">
        <ele>55.4</ele>
        <time>2021-05-27T14:35:38Z</time>
      </trkpt>
      <trkpt lat="47.6939" lon="-2.22116">
        <ele>55.7</ele>
        <time>2021-05-27T14:35:39Z</time>
      </trkpt>
      <trkpt lat="47.6939" lon="-2.22119">
        <ele>56</ele>
        <time>2021-05-27T14:35:40Z</time>
      </trkpt>
      <trkpt lat="47.6939" lon="-2.22124">
        <ele>56.3</ele>
        <time>2021-05-27T14:35:41Z</time>
      </trkpt>
      <trkpt lat="47.6939" lon="-2.22127">
        <ele>56.7</ele>
        <time>2021-05-27T14:35:42Z</time>
      </trkpt>
      <trkpt lat="47.6939" lon="-2.2213">
        <ele>56.8</ele>
        <time>2021-05-27T14:35:43Z</time>
      </trkpt>
      <trkpt lat="47.69391" lon="-2.22131">
        <ele>56.8</ele>
        <time>2021-05-27T14:35:44Z</time>
      </trkpt>
      <trkpt lat="47.69391" lon="-2.22131">
        <ele>56.9</ele>
        <time>2021-05-27T14:35:45Z</time>
      </trkpt>
      <trkpt lat="47.69391" lon="-2.22131">
        <ele>56.8</ele>
        <time>2021-05-27T14:35:46Z</time>
      </trkpt>
      <trkpt lat="47.69391" lon="-2.22131">
        <ele>56.8</ele>
        <time>2021-05-27T14:35:47Z</time>
      </trkpt>
      <trkpt lat="47.69391" lon="-2.22131">
        <ele>56.8</ele>
        <time>2021-05-27T14:35:48Z</time>
      </trkpt>
      <trkpt lat="47.69391" lon="-2.22131">
        <ele>56.8</ele>
        <time>2021-05-27T14:35:49Z</time>
      </trkpt>
      <trkpt lat="47.69391" lon="-2.22131">
        <ele>56.8</ele>
        <time>2021-05-27T14:35:50Z</time>
      </trkpt>
      <trkpt lat="47.69391" lon="-2.22131">
        <ele>56.8</ele>
        <time>2021-05-27T14:35:51Z</time>
      </trkpt>
      <trkpt lat="47.69391" lon="-2.22131">
        <ele>56.8</ele>
        <time>2021-05-27T14:35:52Z</time>
      </trkpt>
      <trkpt lat="47.69391" lon="-2.22131">
        <ele>56.8</ele>
        <time>2021-05-27T14:35:53Z</time>
      </trkpt>
      <trkpt lat="47.69391" lon="-2.22131">
        <ele>56.8</ele>
        <time>2021-05-27T14:35:54Z</time>
      </trkpt>
      <trkpt lat="47.69391" lon="-2.22131">
        <ele>56.8</ele>
        <time>2021-05-27T14:35:55Z</time>
      </trkpt>
      <trkpt lat="47.69391" lon="-2.22131">
        <ele>56.8</ele>
        <time>2021-05-27T14:35:56Z</time>
      </trkpt>
      <trkpt lat="47.69391" lon="-2.22131">
        <ele>56.8</ele>
        <time>2021-05-27T14:35:57Z</time>
      </trkpt>
      <trkpt lat="47.69391" lon="-2.22131">
        <ele>56.8</ele>
        <time>2021-05-27T14:35:58Z</time>
      </trkpt>
      <trkpt lat="47.69391" lon="-2.22131">
        <ele>56.8</ele>
        <time>2021-05-27T14:35:59Z</time>
      </trkpt>
      <trkpt lat="47.69391" lon="-2.22131">
        <ele>56.8</ele>
        <time>2021-05-27T14:36:00Z</time>
      </trkpt>
      <trkpt lat="47.69391" lon="-2.22131">
        <ele>56.8</ele>
        <time>2021-05-27T14:36:01Z</time>
      </trkpt>
      <trkpt lat="47.69391" lon="-2.22131">
        <ele>56.8</ele>
        <time>2021-05-27T14:36:02Z</time>
      </trkpt>
      <trkpt lat="47.69391" lon="-2.22131">
        <ele>56.8</ele>
        <time>2021-05-27T14:36:03Z</time>
      </trkpt>
      <trkpt lat="47.69391" lon="-2.22131">
        <ele>56.8</ele>
        <time>2021-05-27T14:36:04Z</time>
      </trkpt>
      <trkpt lat="47.69391" lon="-2.22131">
        <ele>56.8</ele>
        <time>2021-05-27T14:36:05Z</time>
      </trkpt>
      <trkpt lat="47.69391" lon="-2.22131">
        <ele>56.8</ele>
        <time>2021-05-27T14:36:06Z</time>
      </trkpt>
      <trkpt lat="47.69391" lon="-2.22134">
        <ele>57</ele>
        <time>2021-05-27T14:36:07Z</time>
      </trkpt>
      <trkpt lat="47.69392" lon="-2.22135">
        <ele>56.9</ele>
        <time>2021-05-27T14:36:08Z</time>
      </trkpt>
      <trkpt lat="47.69394" lon="-2.22134">
        <ele>56.4</ele>
        <time>2021-05-27T14:36:09Z</time>
      </trkpt>
      <trkpt lat="47.69396" lon="-2.22132">
        <ele>55.9</ele>
        <time>2021-05-27T14:36:10Z</time>
      </trkpt>
      <trkpt lat="47.69399" lon="-2.2213">
        <ele>55.3</ele>
        <time>2021-05-27T14:36:11Z</time>
      </trkpt>
      <trkpt lat="47.694" lon="-2.22126">
        <ele>54.7</ele>
        <time>2021-05-27T14:36:12Z</time>
      </trkpt>
      <trkpt lat="47.69401" lon="-2.22122">
        <ele>54.2</ele>
        <time>2021-05-27T14:36:13Z</time>
      </trkpt>
      <trkpt lat="47.69402" lon="-2.22118">
        <ele>53.6</ele>
        <time>2021-05-27T14:36:14Z</time>
      </trkpt>
      <trkpt lat="47.69404" lon="-2.2211">
        <ele>52.4</ele>
        <time>2021-05-27T14:36:15Z</time>
      </trkpt>
      <trkpt lat="47.69405" lon="-2.22102">
        <ele>51.4</ele>
        <time>2021-05-27T14:36:16Z</time>
      </trkpt>
      <trkpt lat="47.69407" lon="-2.22094">
        <ele>50.2</ele>
        <time>2021-05-27T14:36:17Z</time>
      </trkpt>
      <trkpt lat="47.69409" lon="-2.22087">
        <ele>49.1</ele>
        <time>2021-05-27T14:36:18Z</time>
      </trkpt>
      <trkpt lat="47.6941" lon="-2.22082">
        <ele>48.5</ele>
        <time>2021-05-27T14:36:19Z</time>
      </trkpt>
      <trkpt lat="47.6941" lon="-2.22079">
        <ele>48.3</ele>
        <time>2021-05-27T14:36:20Z</time>
      </trkpt>
      <trkpt lat="47.6941" lon="-2.22076">
        <ele>48</ele>
        <time>2021-05-27T14:36:21Z</time>
      </trkpt>
      <trkpt lat="47.6941" lon="-2.22073">
        <ele>47.9</ele>
        <time>2021-05-27T14:36:22Z</time>
      </trkpt>
      <trkpt lat="47.69409" lon="-2.22069">
        <ele>47.8</ele>
        <time>2021-05-27T14:36:23Z</time>
      </trkpt>
      <trkpt lat="47.69409" lon="-2.22065">
        <ele>47.8</ele>
        <time>2021-05-27T14:36:24Z</time>
      </trkpt>
      <trkpt lat="47.69407" lon="-2.22061">
        <ele>47.8</ele>
        <time>2021-05-27T14:36:25Z</time>
      </trkpt>
      <trkpt lat="47.69406" lon="-2.22056">
        <ele>47.9</ele>
        <time>2021-05-27T14:36:26Z</time>
      </trkpt>
      <trkpt lat="47.69403" lon="-2.22052">
        <ele>48.3</ele>
        <time>2021-05-27T14:36:27Z</time>
      </trkpt>
      <trkpt lat="47.69402" lon="-2.22049">
        <ele>48.4</ele>
        <time>2021-05-27T14:36:28Z</time>
      </trkpt>
      <trkpt lat="47.69401" lon="-2.22046">
        <ele>48.5</ele>
        <time>2021-05-27T14:36:29Z</time>
      </trkpt>
      <trkpt lat="47.694" lon="-2.22045">
        <ele>48.7</ele>
        <time>2021-05-27T14:36:30Z</time>
      </trkpt>
      <trkpt lat="47.69399" lon="-2.22043">
        <ele>48.9</ele>
        <time>2021-05-27T14:36:31Z</time>
      </trkpt>
      <trkpt lat="47.69398" lon="-2.2204">
        <ele>48.9</ele>
        <time>2021-05-27T14:36:32Z</time>
      </trkpt>
      <trkpt lat="47.69397" lon="-2.22038">
        <ele>49.1</ele>
        <time>2021-05-27T14:36:33Z</time>
      </trkpt>
      <trkpt lat="47.69395" lon="-2.22034">
        <ele>49.2</ele>
        <time>2021-05-27T14:36:34Z</time>
      </trkpt>
      <trkpt lat="47.69394" lon="-2.22032">
        <ele>49.4</ele>
        <time>2021-05-27T14:36:35Z</time>
      </trkpt>
      <trkpt lat="47.69394" lon="-2.2203">
        <ele>49.3</ele>
        <time>2021-05-27T14:36:36Z</time>
      </trkpt>
      <trkpt lat="47.69393" lon="-2.22026">
        <ele>49.2</ele>
        <time>2021-05-27T14:36:37Z</time>
      </trkpt>
      <trkpt lat="47.69393" lon="-2.22024">
        <ele>49.2</ele>
        <time>2021-05-27T14:36:38Z</time>
      </trkpt>
      <trkpt lat="47.69393" lon="-2.22024">
        <ele>49.3</ele>
        <time>2021-05-27T14:36:39Z</time>
      </trkpt>
      <trkpt lat="47.69392" lon="-2.22023">
        <ele>49.4</ele>
        <time>2021-05-27T14:36:40Z</time>
      </trkpt>
      <trkpt lat="47.69392" lon="-2.22023">
        <ele>49.4</ele>
        <time>2021-05-27T14:36:41Z</time>
      </trkpt>
      <trkpt lat="47.69392" lon="-2.22023">
        <ele>49.4</ele>
        <time>2021-05-27T14:36:42Z</time>
      </trkpt>
      <trkpt lat="47.69392" lon="-2.22019">
        <ele>49.3</ele>
        <time>2021-05-27T14:36:43Z</time>
      </trkpt>
      <trkpt lat="47.69392" lon="-2.22016">
        <ele>49.2</ele>
        <time>2021-05-27T14:36:44Z</time>
      </trkpt>
      <trkpt lat="47.69391" lon="-2.22013">
        <ele>49.2</ele>
        <time>2021-05-27T14:36:45Z</time>
      </trkpt>
      <trkpt lat="47.6939" lon="-2.2201">
        <ele>49.1</ele>
        <time>2021-05-27T14:36:46Z</time>
      </trkpt>
      <trkpt lat="47.69391" lon="-2.22008">
        <ele>48.9</ele>
        <time>2021-05-27T14:36:47Z</time>
      </trkpt>
      <trkpt lat="47.69392" lon="-2.22005">
        <ele>48.6</ele>
        <time>2021-05-27T14:36:48Z</time>
      </trkpt>
      <trkpt lat="47.69392" lon="-2.22001">
        <ele>48.2</ele>
        <time>2021-05-27T14:36:49Z</time>
      </trkpt>
      <trkpt lat="47.69394" lon="-2.21998">
        <ele>47.6</ele>
        <time>2021-05-27T14:36:50Z</time>
      </trkpt>
      <trkpt lat="47.69395" lon="-2.21993">
        <ele>47</ele>
        <time>2021-05-27T14:36:51Z</time>
      </trkpt>
      <trkpt lat="47.69395" lon="-2.21987">
        <ele>46.6</ele>
        <time>2021-05-27T14:36:52Z</time>
      </trkpt>
      <trkpt lat="47.69395" lon="-2.21982">
        <ele>46.1</ele>
        <time>2021-05-27T14:36:53Z</time>
      </trkpt>
      <trkpt lat="47.69394" lon="-2.21977">
        <ele>46</ele>
        <time>2021-05-27T14:36:54Z</time>
      </trkpt>
      <trkpt lat="47.69393" lon="-2.21973">
        <ele>45.8</ele>
        <time>2021-05-27T14:36:55Z</time>
      </trkpt>
      <trkpt lat="47.69392" lon="-2.21969">
        <ele>45.8</ele>
        <time>2021-05-27T14:36:56Z</time>
      </trkpt>
      <trkpt lat="47.69392" lon="-2.21964">
        <ele>45.5</ele>
        <time>2021-05-27T14:36:57Z</time>
      </trkpt>
      <trkpt lat="47.69392" lon="-2.21959">
        <ele>45</ele>
        <time>2021-05-27T14:36:58Z</time>
      </trkpt>
      <trkpt lat="47.69392" lon="-2.21954">
        <ele>44.6</ele>
        <time>2021-05-27T14:36:59Z</time>
      </trkpt>
      <trkpt lat="47.69392" lon="-2.21949">
        <ele>44.4</ele>
        <time>2021-05-27T14:37:00Z</time>
      </trkpt>
      <trkpt lat="47.69392" lon="-2.21945">
        <ele>44.2</ele>
        <time>2021-05-27T14:37:01Z</time>
      </trkpt>
      <trkpt lat="47.69392" lon="-2.21941">
        <ele>43.9</ele>
        <time>2021-05-27T14:37:02Z</time>
      </trkpt>
      <trkpt lat="47.69391" lon="-2.21935">
        <ele>43.5</ele>
        <time>2021-05-27T14:37:03Z</time>
      </trkpt>
      <trkpt lat="47.69391" lon="-2.21931">
        <ele>43.3</ele>
        <time>2021-05-27T14:37:04Z</time>
      </trkpt>
      <trkpt lat="47.6939" lon="-2.21926">
        <ele>43.2</ele>
        <time>2021-05-27T14:37:05Z</time>
      </trkpt>
      <trkpt lat="47.69389" lon="-2.21921">
        <ele>43.1</ele>
        <time>2021-05-27T14:37:06Z</time>
      </trkpt>
      <trkpt lat="47.69386" lon="-2.21916">
        <ele>44.1</ele>
        <time>2021-05-27T14:37:07Z</time>
      </trkpt>
      <trkpt lat="47.69383" lon="-2.21911">
        <ele>44.5</ele>
        <time>2021-05-27T14:37:08Z</time>
      </trkpt>
      <trkpt lat="47.69382" lon="-2.21907">
        <ele>44.5</ele>
        <time>2021-05-27T14:37:09Z</time>
      </trkpt>
      <trkpt lat="47.6938" lon="-2.21903">
        <ele>44.8</ele>
        <time>2021-05-27T14:37:10Z</time>
      </trkpt>
      <trkpt lat="47.69379" lon="-2.219">
        <ele>45.1</ele>
        <time>2021-05-27T14:37:11Z</time>
      </trkpt>
      <trkpt lat="47.69377" lon="-2.21895">
        <ele>45.5</ele>
        <time>2021-05-27T14:37:12Z</time>
      </trkpt>
      <trkpt lat="47.69375" lon="-2.21891">
        <ele>45.8</ele>
        <time>2021-05-27T14:37:13Z</time>
      </trkpt>
      <trkpt lat="47.69374" lon="-2.21886">
        <ele>45.8</ele>
        <time>2021-05-27T14:37:14Z</time>
      </trkpt>
      <trkpt lat="47.69373" lon="-2.21882">
        <ele>45.8</ele>
        <time>2021-05-27T14:37:15Z</time>
      </trkpt>
      <trkpt lat="47.69373" lon="-2.21877">
        <ele>45.4</ele>
        <time>2021-05-27T14:37:16Z</time>
      </trkpt>
      <trkpt lat="47.69372" lon="-2.21871">
        <ele>45.2</ele>
        <time>2021-05-27T14:37:17Z</time>
      </trkpt>
      <trkpt lat="47.69372" lon="-2.21865">
        <ele>44.9</ele>
        <time>2021-05-27T14:37:18Z</time>
      </trkpt>
      <trkpt lat="47.69372" lon="-2.21858">
        <ele>44.4</ele>
        <time>2021-05-27T14:37:19Z</time>
      </trkpt>
      <trkpt lat="47.6937" lon="-2.21852">
        <ele>44.4</ele>
        <time>2021-05-27T14:37:20Z</time>
      </trkpt>
      <trkpt lat="47.6937" lon="-2.21846">
        <ele>44.2</ele>
        <time>2021-05-27T14:37:21Z</time>
      </trkpt>
      <trkpt lat="47.69369" lon="-2.21842">
        <ele>44.2</ele>
        <time>2021-05-27T14:37:22Z</time>
      </trkpt>
      <trkpt lat="47.69368" lon="-2.21839">
        <ele>44.5</ele>
        <time>2021-05-27T14:37:23Z</time>
      </trkpt>
      <trkpt lat="47.69366" lon="-2.21837">
        <ele>45</ele>
        <time>2021-05-27T14:37:24Z</time>
      </trkpt>
      <trkpt lat="47.69365" lon="-2.21834">
        <ele>45.4</ele>
        <time>2021-05-27T14:37:25Z</time>
      </trkpt>
      <trkpt lat="47.69365" lon="-2.21832">
        <ele>45.3</ele>
        <time>2021-05-27T14:37:26Z</time>
      </trkpt>
      <trkpt lat="47.69365" lon="-2.2183">
        <ele>45.2</ele>
        <time>2021-05-27T14:37:27Z</time>
      </trkpt>
      <trkpt lat="47.69364" lon="-2.21827">
        <ele>45.2</ele>
        <time>2021-05-27T14:37:28Z</time>
      </trkpt>
      <trkpt lat="47.69363" lon="-2.21825">
        <ele>45.3</ele>
        <time>2021-05-27T14:37:29Z</time>
      </trkpt>
      <trkpt lat="47.69363" lon="-2.21822">
        <ele>45.2</ele>
        <time>2021-05-27T14:37:30Z</time>
      </trkpt>
      <trkpt lat="47.69363" lon="-2.2182">
        <ele>45</ele>
        <time>2021-05-27T14:37:31Z</time>
      </trkpt>
      <trkpt lat="47.69362" lon="-2.21816">
        <ele>44.7</ele>
        <time>2021-05-27T14:37:32Z</time>
      </trkpt>
      <trkpt lat="47.69362" lon="-2.21811">
        <ele>44.2</ele>
        <time>2021-05-27T14:37:33Z</time>
      </trkpt>
      <trkpt lat="47.69362" lon="-2.21808">
        <ele>44</ele>
        <time>2021-05-27T14:37:34Z</time>
      </trkpt>
      <trkpt lat="47.69362" lon="-2.21804">
        <ele>43.9</ele>
        <time>2021-05-27T14:37:35Z</time>
      </trkpt>
      <trkpt lat="47.69362" lon="-2.21802">
        <ele>43.5</ele>
        <time>2021-05-27T14:37:36Z</time>
      </trkpt>
      <trkpt lat="47.69362" lon="-2.21798">
        <ele>43.3</ele>
        <time>2021-05-27T14:37:37Z</time>
      </trkpt>
      <trkpt lat="47.69362" lon="-2.21794">
        <ele>42.9</ele>
        <time>2021-05-27T14:37:38Z</time>
      </trkpt>
      <trkpt lat="47.6936" lon="-2.21789">
        <ele>43</ele>
        <time>2021-05-27T14:37:39Z</time>
      </trkpt>
      <trkpt lat="47.69359" lon="-2.21784">
        <ele>43</ele>
        <time>2021-05-27T14:37:40Z</time>
      </trkpt>
      <trkpt lat="47.69359" lon="-2.2178">
        <ele>42.6</ele>
        <time>2021-05-27T14:37:41Z</time>
      </trkpt>
      <trkpt lat="47.69359" lon="-2.21776">
        <ele>42.3</ele>
        <time>2021-05-27T14:37:42Z</time>
      </trkpt>
      <trkpt lat="47.69359" lon="-2.21773">
        <ele>41.8</ele>
        <time>2021-05-27T14:37:43Z</time>
      </trkpt>
      <trkpt lat="47.6936" lon="-2.21768">
        <ele>41</ele>
        <time>2021-05-27T14:37:44Z</time>
      </trkpt>
      <trkpt lat="47.6936" lon="-2.21765">
        <ele>40.5</ele>
        <time>2021-05-27T14:37:45Z</time>
      </trkpt>
      <trkpt lat="47.69362" lon="-2.21762">
        <ele>39.5</ele>
        <time>2021-05-27T14:37:46Z</time>
      </trkpt>
      <trkpt lat="47.69362" lon="-2.21758">
        <ele>39.1</ele>
        <time>2021-05-27T14:37:47Z</time>
      </trkpt>
      <trkpt lat="47.69362" lon="-2.21753">
        <ele>38.5</ele>
        <time>2021-05-27T14:37:48Z</time>
      </trkpt>
      <trkpt lat="47.69363" lon="-2.21746">
        <ele>37.5</ele>
        <time>2021-05-27T14:37:49Z</time>
      </trkpt>
      <trkpt lat="47.69364" lon="-2.21738">
        <ele>36.6</ele>
        <time>2021-05-27T14:37:50Z</time>
      </trkpt>
      <trkpt lat="47.69365" lon="-2.2173">
        <ele>35.9</ele>
        <time>2021-05-27T14:37:51Z</time>
      </trkpt>
      <trkpt lat="47.69366" lon="-2.21723">
        <ele>35.1</ele>
        <time>2021-05-27T14:37:52Z</time>
      </trkpt>
      <trkpt lat="47.69366" lon="-2.21718">
        <ele>34.8</ele>
        <time>2021-05-27T14:37:53Z</time>
      </trkpt>
      <trkpt lat="47.69365" lon="-2.21714">
        <ele>35</ele>
        <time>2021-05-27T14:37:54Z</time>
      </trkpt>
      <trkpt lat="47.69363" lon="-2.2171">
        <ele>35.4</ele>
        <time>2021-05-27T14:37:55Z</time>
      </trkpt>
      <trkpt lat="47.6936" lon="-2.21706">
        <ele>36.4</ele>
        <time>2021-05-27T14:37:56Z</time>
      </trkpt>
      <trkpt lat="47.6936" lon="-2.21703">
        <ele>36.4</ele>
        <time>2021-05-27T14:37:57Z</time>
      </trkpt>
      <trkpt lat="47.6936" lon="-2.217">
        <ele>36.2</ele>
        <time>2021-05-27T14:37:58Z</time>
      </trkpt>
      <trkpt lat="47.69361" lon="-2.21695">
        <ele>35.5</ele>
        <time>2021-05-27T14:37:59Z</time>
      </trkpt>
      <trkpt lat="47.69362" lon="-2.21691">
        <ele>34.9</ele>
        <time>2021-05-27T14:38:00Z</time>
      </trkpt>
      <trkpt lat="47.69362" lon="-2.21686">
        <ele>34.3</ele>
        <time>2021-05-27T14:38:01Z</time>
      </trkpt>
      <trkpt lat="47.69363" lon="-2.21681">
        <ele>33.9</ele>
        <time>2021-05-27T14:38:02Z</time>
      </trkpt>
      <trkpt lat="47.69363" lon="-2.21675">
        <ele>33.4</ele>
        <time>2021-05-27T14:38:03Z</time>
      </trkpt>
      <trkpt lat="47.69364" lon="-2.21669">
        <ele>32.7</ele>
        <time>2021-05-27T14:38:04Z</time>
      </trkpt>
      <trkpt lat="47.69365" lon="-2.21662">
        <ele>32</ele>
        <time>2021-05-27T14:38:05Z</time>
      </trkpt>
      <trkpt lat="47.69367" lon="-2.21655">
        <ele>31.1</ele>
        <time>2021-05-27T14:38:06Z</time>
      </trkpt>
      <trkpt lat="47.69368" lon="-2.21648">
        <ele>30.6</ele>
        <time>2021-05-27T14:38:07Z</time>
      </trkpt>
      <trkpt lat="47.69369" lon="-2.21638">
        <ele>30</ele>
        <time>2021-05-27T14:38:08Z</time>
      </trkpt>
      <trkpt lat="47.6937" lon="-2.21631">
        <ele>29.5</ele>
        <time>2021-05-27T14:38:09Z</time>
      </trkpt>
      <trkpt lat="47.69371" lon="-2.21622">
        <ele>29</ele>
        <time>2021-05-27T14:38:10Z</time>
      </trkpt>
      <trkpt lat="47.69372" lon="-2.21615">
        <ele>28.5</ele>
        <time>2021-05-27T14:38:11Z</time>
      </trkpt>
      <trkpt lat="47.69372" lon="-2.21607">
        <ele>28.3</ele>
        <time>2021-05-27T14:38:12Z</time>
      </trkpt>
      <trkpt lat="47.69373" lon="-2.216">
        <ele>28.1</ele>
        <time>2021-05-27T14:38:13Z</time>
      </trkpt>
      <trkpt lat="47.69373" lon="-2.21595">
        <ele>28</ele>
        <time>2021-05-27T14:38:14Z</time>
      </trkpt>
      <trkpt lat="47.69375" lon="-2.2159">
        <ele>27</ele>
        <time>2021-05-27T14:38:15Z</time>
      </trkpt>
      <trkpt lat="47.69377" lon="-2.21584">
        <ele>26.1</ele>
        <time>2021-05-27T14:38:16Z</time>
      </trkpt>
      <trkpt lat="47.69379" lon="-2.21579">
        <ele>25.2</ele>
        <time>2021-05-27T14:38:17Z</time>
      </trkpt>
      <trkpt lat="47.69381" lon="-2.21575">
        <ele>24.5</ele>
        <time>2021-05-27T14:38:18Z</time>
      </trkpt>
      <trkpt lat="47.69382" lon="-2.21571">
        <ele>24.1</ele>
        <time>2021-05-27T14:38:19Z</time>
      </trkpt>
      <trkpt lat="47.69383" lon="-2.21567">
        <ele>24</ele>
        <time>2021-05-27T14:38:20Z</time>
      </trkpt>
      <trkpt lat="47.69382" lon="-2.21562">
        <ele>24.1</ele>
        <time>2021-05-27T14:38:21Z</time>
      </trkpt>
      <trkpt lat="47.69382" lon="-2.21558">
        <ele>24.4</ele>
        <time>2021-05-27T14:38:22Z</time>
      </trkpt>
      <trkpt lat="47.69382" lon="-2.21554">
        <ele>24.6</ele>
        <time>2021-05-27T14:38:23Z</time>
      </trkpt>
      <trkpt lat="47.69381" lon="-2.2155">
        <ele>24.8</ele>
        <time>2021-05-27T14:38:24Z</time>
      </trkpt>
      <trkpt lat="47.69382" lon="-2.21546">
        <ele>24.6</ele>
        <time>2021-05-27T14:38:25Z</time>
      </trkpt>
      <trkpt lat="47.69382" lon="-2.21542">
        <ele>24.3</ele>
        <time>2021-05-27T14:38:26Z</time>
      </trkpt>
      <trkpt lat="47.69384" lon="-2.21538">
        <ele>23.8</ele>
        <time>2021-05-27T14:38:27Z</time>
      </trkpt>
      <trkpt lat="47.69385" lon="-2.21533">
        <ele>23.6</ele>
        <time>2021-05-27T14:38:28Z</time>
      </trkpt>
      <trkpt lat="47.69385" lon="-2.21528">
        <ele>23.6</ele>
        <time>2021-05-27T14:38:29Z</time>
      </trkpt>
      <trkpt lat="47.69384" lon="-2.21523">
        <ele>23.9</ele>
        <time>2021-05-27T14:38:30Z</time>
      </trkpt>
      <trkpt lat="47.69383" lon="-2.21518">
        <ele>24.2</ele>
        <time>2021-05-27T14:38:31Z</time>
      </trkpt>
      <trkpt lat="47.69383" lon="-2.21513">
        <ele>24.5</ele>
        <time>2021-05-27T14:38:32Z</time>
      </trkpt>
      <trkpt lat="47.69381" lon="-2.21509">
        <ele>25.2</ele>
        <time>2021-05-27T14:38:33Z</time>
      </trkpt>
      <trkpt lat="47.6938" lon="-2.21503">
        <ele>25.5</ele>
        <time>2021-05-27T14:38:34Z</time>
      </trkpt>
      <trkpt lat="47.6938" lon="-2.21498">
        <ele>25.7</ele>
        <time>2021-05-27T14:38:35Z</time>
      </trkpt>
      <trkpt lat="47.69379" lon="-2.21493">
        <ele>25.6</ele>
        <time>2021-05-27T14:38:36Z</time>
      </trkpt>
      <trkpt lat="47.69378" lon="-2.21489">
        <ele>25.7</ele>
        <time>2021-05-27T14:38:37Z</time>
      </trkpt>
      <trkpt lat="47.69377" lon="-2.21483">
        <ele>25.8</ele>
        <time>2021-05-27T14:38:38Z</time>
      </trkpt>
      <trkpt lat="47.69377" lon="-2.21477">
        <ele>25.7</ele>
        <time>2021-05-27T14:38:39Z</time>
      </trkpt>
      <trkpt lat="47.69376" lon="-2.2147">
        <ele>25.6</ele>
        <time>2021-05-27T14:38:40Z</time>
      </trkpt>
      <trkpt lat="47.69376" lon="-2.21464">
        <ele>25.5</ele>
        <time>2021-05-27T14:38:41Z</time>
      </trkpt>
      <trkpt lat="47.69376" lon="-2.21458">
        <ele>25.3</ele>
        <time>2021-05-27T14:38:42Z</time>
      </trkpt>
      <trkpt lat="47.69375" lon="-2.21454">
        <ele>25.3</ele>
        <time>2021-05-27T14:38:43Z</time>
      </trkpt>
      <trkpt lat="47.69375" lon="-2.21448">
        <ele>25.1</ele>
        <time>2021-05-27T14:38:44Z</time>
      </trkpt>
      <trkpt lat="47.69374" lon="-2.21443">
        <ele>25</ele>
        <time>2021-05-27T14:38:45Z</time>
      </trkpt>
      <trkpt lat="47.69374" lon="-2.21436">
        <ele>24.9</ele>
        <time>2021-05-27T14:38:46Z</time>
      </trkpt>
      <trkpt lat="47.69373" lon="-2.2143">
        <ele>24.9</ele>
        <time>2021-05-27T14:38:47Z</time>
      </trkpt>
      <trkpt lat="47.69373" lon="-2.21424">
        <ele>24.7</ele>
        <time>2021-05-27T14:38:48Z</time>
      </trkpt>
      <trkpt lat="47.69371" lon="-2.21417">
        <ele>25.1</ele>
        <time>2021-05-27T14:38:49Z</time>
      </trkpt>
      <trkpt lat="47.69369" lon="-2.2141">
        <ele>25.1</ele>
        <time>2021-05-27T14:38:50Z</time>
      </trkpt>
      <trkpt lat="47.69368" lon="-2.21404">
        <ele>25</ele>
        <time>2021-05-27T14:38:51Z</time>
      </trkpt>
      <trkpt lat="47.69367" lon="-2.21398">
        <ele>24.9</ele>
        <time>2021-05-27T14:38:52Z</time>
      </trkpt>
      <trkpt lat="47.69367" lon="-2.21392">
        <ele>24.7</ele>
        <time>2021-05-27T14:38:53Z</time>
      </trkpt>
      <trkpt lat="47.69366" lon="-2.21386">
        <ele>24.4</ele>
        <time>2021-05-27T14:38:54Z</time>
      </trkpt>
      <trkpt lat="47.69366" lon="-2.21381">
        <ele>24.1</ele>
        <time>2021-05-27T14:38:55Z</time>
      </trkpt>
      <trkpt lat="47.69366" lon="-2.21375">
        <ele>23.6</ele>
        <time>2021-05-27T14:38:56Z</time>
      </trkpt>
      <trkpt lat="47.69366" lon="-2.21369">
        <ele>23.2</ele>
        <time>2021-05-27T14:38:57Z</time>
      </trkpt>
      <trkpt lat="47.69366" lon="-2.21364">
        <ele>22.8</ele>
        <time>2021-05-27T14:38:58Z</time>
      </trkpt>
      <trkpt lat="47.69365" lon="-2.21358">
        <ele>22.5</ele>
        <time>2021-05-27T14:38:59Z</time>
      </trkpt>
      <trkpt lat="47.69365" lon="-2.21352">
        <ele>22.3</ele>
        <time>2021-05-27T14:39:00Z</time>
      </trkpt>
      <trkpt lat="47.69364" lon="-2.21346">
        <ele>22.1</ele>
        <time>2021-05-27T14:39:01Z</time>
      </trkpt>
      <trkpt lat="47.69363" lon="-2.2134">
        <ele>21.8</ele>
        <time>2021-05-27T14:39:02Z</time>
      </trkpt>
      <trkpt lat="47.69363" lon="-2.21334">
        <ele>21.3</ele>
        <time>2021-05-27T14:39:03Z</time>
      </trkpt>
      <trkpt lat="47.69363" lon="-2.21328">
        <ele>21.4</ele>
        <time>2021-05-27T14:39:04Z</time>
      </trkpt>
      <trkpt lat="47.69362" lon="-2.21322">
        <ele>21.7</ele>
        <time>2021-05-27T14:39:05Z</time>
      </trkpt>
      <trkpt lat="47.6936" lon="-2.21316">
        <ele>22</ele>
        <time>2021-05-27T14:39:06Z</time>
      </trkpt>
      <trkpt lat="47.69359" lon="-2.21311">
        <ele>22.3</ele>
        <time>2021-05-27T14:39:07Z</time>
      </trkpt>
      <trkpt lat="47.69359" lon="-2.21305">
        <ele>22.4</ele>
        <time>2021-05-27T14:39:08Z</time>
      </trkpt>
      <trkpt lat="47.69357" lon="-2.213">
        <ele>22.7</ele>
        <time>2021-05-27T14:39:09Z</time>
      </trkpt>
      <trkpt lat="47.69357" lon="-2.21294">
        <ele>22.9</ele>
        <time>2021-05-27T14:39:10Z</time>
      </trkpt>
      <trkpt lat="47.69356" lon="-2.2129">
        <ele>22.9</ele>
        <time>2021-05-27T14:39:11Z</time>
      </trkpt>
      <trkpt lat="47.69356" lon="-2.21285">
        <ele>23.1</ele>
        <time>2021-05-27T14:39:12Z</time>
      </trkpt>
      <trkpt lat="47.69355" lon="-2.2128">
        <ele>23.3</ele>
        <time>2021-05-27T14:39:13Z</time>
      </trkpt>
      <trkpt lat="47.69354" lon="-2.21274">
        <ele>23.4</ele>
        <time>2021-05-27T14:39:14Z</time>
      </trkpt>
      <trkpt lat="47.69353" lon="-2.21268">
        <ele>23.5</ele>
        <time>2021-05-27T14:39:15Z</time>
      </trkpt>
      <trkpt lat="47.69353" lon="-2.21263">
        <ele>23.6</ele>
        <time>2021-05-27T14:39:16Z</time>
      </trkpt>
      <trkpt lat="47.69352" lon="-2.21257">
        <ele>23.7</ele>
        <time>2021-05-27T14:39:17Z</time>
      </trkpt>
      <trkpt lat="47.6935" lon="-2.21252">
        <ele>24.2</ele>
        <time>2021-05-27T14:39:18Z</time>
      </trkpt>
      <trkpt lat="47.69348" lon="-2.21248">
        <ele>24.6</ele>
        <time>2021-05-27T14:39:19Z</time>
      </trkpt>
      <trkpt lat="47.69348" lon="-2.21243">
        <ele>24.4</ele>
        <time>2021-05-27T14:39:20Z</time>
      </trkpt>
      <trkpt lat="47.69347" lon="-2.21237">
        <ele>24.2</ele>
        <time>2021-05-27T14:39:21Z</time>
      </trkpt>
      <trkpt lat="47.69346" lon="-2.21231">
        <ele>24.3</ele>
        <time>2021-05-27T14:39:22Z</time>
      </trkpt>
      <trkpt lat="47.69344" lon="-2.21225">
        <ele>24.3</ele>
        <time>2021-05-27T14:39:23Z</time>
      </trkpt>
      <trkpt lat="47.69343" lon="-2.21219">
        <ele>24.2</ele>
        <time>2021-05-27T14:39:24Z</time>
      </trkpt>
      <trkpt lat="47.69342" lon="-2.21213">
        <ele>24.1</ele>
        <time>2021-05-27T14:39:25Z</time>
      </trkpt>
      <trkpt lat="47.6934" lon="-2.21207">
        <ele>24.1</ele>
        <time>2021-05-27T14:39:26Z</time>
      </trkpt>
      <trkpt lat="47.6934" lon="-2.21201">
        <ele>23.8</ele>
        <time>2021-05-27T14:39:27Z</time>
      </trkpt>
      <trkpt lat="47.6934" lon="-2.21195">
        <ele>23.5</ele>
        <time>2021-05-27T14:39:28Z</time>
      </trkpt>
      <trkpt lat="47.69339" lon="-2.21189">
        <ele>23.2</ele>
        <time>2021-05-27T14:39:29Z</time>
      </trkpt>
      <trkpt lat="47.69339" lon="-2.21183">
        <ele>23</ele>
        <time>2021-05-27T14:39:30Z</time>
      </trkpt>
      <trkpt lat="47.69338" lon="-2.21178">
        <ele>22.7</ele>
        <time>2021-05-27T14:39:31Z</time>
      </trkpt>
      <trkpt lat="47.69337" lon="-2.21172">
        <ele>22.4</ele>
        <time>2021-05-27T14:39:32Z</time>
      </trkpt>
      <trkpt lat="47.69337" lon="-2.21167">
        <ele>22.1</ele>
        <time>2021-05-27T14:39:33Z</time>
      </trkpt>
      <trkpt lat="47.69337" lon="-2.21162">
        <ele>22</ele>
        <time>2021-05-27T14:39:34Z</time>
      </trkpt>
      <trkpt lat="47.69337" lon="-2.21156">
        <ele>22</ele>
        <time>2021-05-27T14:39:35Z</time>
      </trkpt>
      <trkpt lat="47.69337" lon="-2.2115">
        <ele>21.9</ele>
        <time>2021-05-27T14:39:36Z</time>
      </trkpt>
      <trkpt lat="47.69336" lon="-2.21144">
        <ele>21.8</ele>
        <time>2021-05-27T14:39:37Z</time>
      </trkpt>
      <trkpt lat="47.69337" lon="-2.21139">
        <ele>21.6</ele>
        <time>2021-05-27T14:39:38Z</time>
      </trkpt>
      <trkpt lat="47.69336" lon="-2.21133">
        <ele>21.5</ele>
        <time>2021-05-27T14:39:39Z</time>
      </trkpt>
      <trkpt lat="47.69336" lon="-2.21128">
        <ele>21.6</ele>
        <time>2021-05-27T14:39:40Z</time>
      </trkpt>
      <trkpt lat="47.69335" lon="-2.21123">
        <ele>21.6</ele>
        <time>2021-05-27T14:39:41Z</time>
      </trkpt>
      <trkpt lat="47.69335" lon="-2.21118">
        <ele>21.5</ele>
        <time>2021-05-27T14:39:42Z</time>
      </trkpt>
      <trkpt lat="47.69335" lon="-2.21113">
        <ele>21.4</ele>
        <time>2021-05-27T14:39:43Z</time>
      </trkpt>
      <trkpt lat="47.69334" lon="-2.21107">
        <ele>21.4</ele>
        <time>2021-05-27T14:39:44Z</time>
      </trkpt>
      <trkpt lat="47.69334" lon="-2.21102">
        <ele>21.3</ele>
        <time>2021-05-27T14:39:45Z</time>
      </trkpt>
      <trkpt lat="47.69334" lon="-2.21097">
        <ele>21.3</ele>
        <time>2021-05-27T14:39:46Z</time>
      </trkpt>
      <trkpt lat="47.69333" lon="-2.21093">
        <ele>21.2</ele>
        <time>2021-05-27T14:39:47Z</time>
      </trkpt>
      <trkpt lat="47.69333" lon="-2.21089">
        <ele>21.3</ele>
        <time>2021-05-27T14:39:48Z</time>
      </trkpt>
      <trkpt lat="47.69332" lon="-2.21084">
        <ele>21.5</ele>
        <time>2021-05-27T14:39:49Z</time>
      </trkpt>
      <trkpt lat="47.69332" lon="-2.21078">
        <ele>21.4</ele>
        <time>2021-05-27T14:39:50Z</time>
      </trkpt>
      <trkpt lat="47.69332" lon="-2.21073">
        <ele>21.4</ele>
        <time>2021-05-27T14:39:51Z</time>
      </trkpt>
      <trkpt lat="47.69331" lon="-2.21068">
        <ele>21.5</ele>
        <time>2021-05-27T14:39:52Z</time>
      </trkpt>
      <trkpt lat="47.6933" lon="-2.21062">
        <ele>21.8</ele>
        <time>2021-05-27T14:39:53Z</time>
      </trkpt>
      <trkpt lat="47.69328" lon="-2.21056">
        <ele>22.3</ele>
        <time>2021-05-27T14:39:54Z</time>
      </trkpt>
      <trkpt lat="47.69327" lon="-2.21051">
        <ele>22.6</ele>
        <time>2021-05-27T14:39:55Z</time>
      </trkpt>
      <trkpt lat="47.69326" lon="-2.21047">
        <ele>22.9</ele>
        <time>2021-05-27T14:39:56Z</time>
      </trkpt>
      <trkpt lat="47.69324" lon="-2.21044">
        <ele>23.5</ele>
        <time>2021-05-27T14:39:57Z</time>
      </trkpt>
      <trkpt lat="47.69323" lon="-2.2104">
        <ele>23.7</ele>
        <time>2021-05-27T14:39:58Z</time>
      </trkpt>
      <trkpt lat="47.69323" lon="-2.21039">
        <ele>23.8</ele>
        <time>2021-05-27T14:39:59Z</time>
      </trkpt>
      <trkpt lat="47.69323" lon="-2.21038">
        <ele>23.8</ele>
        <time>2021-05-27T14:40:00Z</time>
      </trkpt>
      <trkpt lat="47.69323" lon="-2.21038">
        <ele>23.8</ele>
        <time>2021-05-27T14:40:01Z</time>
      </trkpt>
      <trkpt lat="47.69323" lon="-2.21038">
        <ele>23.8</ele>
        <time>2021-05-27T14:40:02Z</time>
      </trkpt>
      <trkpt lat="47.69323" lon="-2.21038">
        <ele>23.8</ele>
        <time>2021-05-27T14:40:03Z</time>
      </trkpt>
      <trkpt lat="47.69323" lon="-2.21038">
        <ele>23.8</ele>
        <time>2021-05-27T14:40:04Z</time>
      </trkpt>
      <trkpt lat="47.69323" lon="-2.21038">
        <ele>23.8</ele>
        <time>2021-05-27T14:40:05Z</time>
      </trkpt>
      <trkpt lat="47.69323" lon="-2.21038">
        <ele>23.8</ele>
        <time>2021-05-27T14:40:06Z</time>
      </trkpt>
      <trkpt lat="47.69323" lon="-2.21038">
        <ele>23.8</ele>
        <time>2021-05-27T14:40:07Z</time>
      </trkpt>
      <trkpt lat="47.69323" lon="-2.21038">
        <ele>23.8</ele>
        <time>2021-05-27T14:40:08Z</time>
      </trkpt>
      <trkpt lat="47.69323" lon="-2.21038">
        <ele>23.8</ele>
        <time>2021-05-27T14:40:09Z</time>
      </trkpt>
      <trkpt lat="47.6932" lon="-2.21043">
        <ele>25.2</ele>
        <time>2021-05-27T14:40:10Z</time>
      </trkpt>
      <trkpt lat="47.69318" lon="-2.21046">
        <ele>25.9</ele>
        <time>2021-05-27T14:40:11Z</time>
      </trkpt>
      <trkpt lat="47.69317" lon="-2.21047">
        <ele>26.3</ele>
        <time>2021-05-27T14:40:12Z</time>
      </trkpt>
      <trkpt lat="47.69316" lon="-2.21049">
        <ele>26.5</ele>
        <time>2021-05-27T14:40:13Z</time>
      </trkpt>
      <trkpt lat="47.69316" lon="-2.2105">
        <ele>26.8</ele>
        <time>2021-05-27T14:40:14Z</time>
      </trkpt>
      <trkpt lat="47.69314" lon="-2.21052">
        <ele>27.3</ele>
        <time>2021-05-27T14:40:15Z</time>
      </trkpt>
      <trkpt lat="47.69314" lon="-2.21054">
        <ele>27.6</ele>
        <time>2021-05-27T14:40:16Z</time>
      </trkpt>
      <trkpt lat="47.69313" lon="-2.21055">
        <ele>27.8</ele>
        <time>2021-05-27T14:40:17Z</time>
      </trkpt>
      <trkpt lat="47.69311" lon="-2.21057">
        <ele>28.6</ele>
        <time>2021-05-27T14:40:18Z</time>
      </trkpt>
      <trkpt lat="47.69311" lon="-2.21059">
        <ele>28.8</ele>
        <time>2021-05-27T14:40:19Z</time>
      </trkpt>
      <trkpt lat="47.6931" lon="-2.21061">
        <ele>29</ele>
        <time>2021-05-27T14:40:20Z</time>
      </trkpt>
      <trkpt lat="47.69311" lon="-2.21063">
        <ele>29</ele>
        <time>2021-05-27T14:40:21Z</time>
      </trkpt>
      <trkpt lat="47.6931" lon="-2.21065">
        <ele>29.1</ele>
        <time>2021-05-27T14:40:22Z</time>
      </trkpt>
      <trkpt lat="47.69309" lon="-2.2107">
        <ele>29.6</ele>
        <time>2021-05-27T14:40:24Z</time>
      </trkpt>
      <trkpt lat="47.69309" lon="-2.21073">
        <ele>29.9</ele>
        <time>2021-05-27T14:40:25Z</time>
      </trkpt>
      <trkpt lat="47.69308" lon="-2.21075">
        <ele>30.2</ele>
        <time>2021-05-27T14:40:26Z</time>
      </trkpt>
      <trkpt lat="47.69307" lon="-2.21078">
        <ele>30.6</ele>
        <time>2021-05-27T14:40:27Z</time>
      </trkpt>
      <trkpt lat="47.69307" lon="-2.2108">
        <ele>30.9</ele>
        <time>2021-05-27T14:40:28Z</time>
      </trkpt>
      <trkpt lat="47.69305" lon="-2.21082">
        <ele>31.4</ele>
        <time>2021-05-27T14:40:29Z</time>
      </trkpt>
      <trkpt lat="47.69305" lon="-2.21084">
        <ele>31.6</ele>
        <time>2021-05-27T14:40:30Z</time>
      </trkpt>
      <trkpt lat="47.69304" lon="-2.21087">
        <ele>32</ele>
        <time>2021-05-27T14:40:31Z</time>
      </trkpt>
      <trkpt lat="47.69304" lon="-2.21089">
        <ele>32.1</ele>
        <time>2021-05-27T14:40:32Z</time>
      </trkpt>
      <trkpt lat="47.69303" lon="-2.21091">
        <ele>32.3</ele>
        <time>2021-05-27T14:40:33Z</time>
      </trkpt>
      <trkpt lat="47.69303" lon="-2.21093">
        <ele>32.5</ele>
        <time>2021-05-27T14:40:34Z</time>
      </trkpt>
      <trkpt lat="47.69303" lon="-2.21095">
        <ele>32.6</ele>
        <time>2021-05-27T14:40:35Z</time>
      </trkpt>
      <trkpt lat="47.69302" lon="-2.21097">
        <ele>33</ele>
        <time>2021-05-27T14:40:36Z</time>
      </trkpt>
      <trkpt lat="47.69301" lon="-2.21099">
        <ele>33.4</ele>
        <time>2021-05-27T14:40:37Z</time>
      </trkpt>
      <trkpt lat="47.693" lon="-2.21101">
        <ele>33.8</ele>
        <time>2021-05-27T14:40:38Z</time>
      </trkpt>
      <trkpt lat="47.693" lon="-2.21103">
        <ele>33.9</ele>
        <time>2021-05-27T14:40:39Z</time>
      </trkpt>
      <trkpt lat="47.693" lon="-2.21105">
        <ele>34</ele>
        <time>2021-05-27T14:40:40Z</time>
      </trkpt>
      <trkpt lat="47.693" lon="-2.21107">
        <ele>34.1</ele>
        <time>2021-05-27T14:40:41Z</time>
      </trkpt>
      <trkpt lat="47.693" lon="-2.2111">
        <ele>34.2</ele>
        <time>2021-05-27T14:40:42Z</time>
      </trkpt>
      <trkpt lat="47.69299" lon="-2.21113">
        <ele>34.4</ele>
        <time>2021-05-27T14:40:43Z</time>
      </trkpt>
      <trkpt lat="47.69299" lon="-2.21116">
        <ele>34.5</ele>
        <time>2021-05-27T14:40:44Z</time>
      </trkpt>
      <trkpt lat="47.69299" lon="-2.21118">
        <ele>34.5</ele>
        <time>2021-05-27T14:40:45Z</time>
      </trkpt>
      <trkpt lat="47.69299" lon="-2.2112">
        <ele>34.7</ele>
        <time>2021-05-27T14:40:46Z</time>
      </trkpt>
      <trkpt lat="47.69299" lon="-2.21123">
        <ele>34.8</ele>
        <time>2021-05-27T14:40:47Z</time>
      </trkpt>
      <trkpt lat="47.69299" lon="-2.21126">
        <ele>34.7</ele>
        <time>2021-05-27T14:40:48Z</time>
      </trkpt>
      <trkpt lat="47.693" lon="-2.2113">
        <ele>34.6</ele>
        <time>2021-05-27T14:40:49Z</time>
      </trkpt>
      <trkpt lat="47.693" lon="-2.21132">
        <ele>34.6</ele>
        <time>2021-05-27T14:40:50Z</time>
      </trkpt>
      <trkpt lat="47.693" lon="-2.21135">
        <ele>34.6</ele>
        <time>2021-05-27T14:40:51Z</time>
      </trkpt>
      <trkpt lat="47.693" lon="-2.21137">
        <ele>34.7</ele>
        <time>2021-05-27T14:40:52Z</time>
      </trkpt>
      <trkpt lat="47.693" lon="-2.21141">
        <ele>34.8</ele>
        <time>2021-05-27T14:40:53Z</time>
      </trkpt>
      <trkpt lat="47.69299" lon="-2.21144">
        <ele>35.2</ele>
        <time>2021-05-27T14:40:54Z</time>
      </trkpt>
      <trkpt lat="47.69299" lon="-2.21147">
        <ele>35.3</ele>
        <time>2021-05-27T14:40:55Z</time>
      </trkpt>
      <trkpt lat="47.69299" lon="-2.2115">
        <ele>35.4</ele>
        <time>2021-05-27T14:40:56Z</time>
      </trkpt>
      <trkpt lat="47.69299" lon="-2.21154">
        <ele>35.5</ele>
        <time>2021-05-27T14:40:57Z</time>
      </trkpt>
      <trkpt lat="47.69298" lon="-2.21157">
        <ele>35.8</ele>
        <time>2021-05-27T14:40:58Z</time>
      </trkpt>
      <trkpt lat="47.69299" lon="-2.2116">
        <ele>35.6</ele>
        <time>2021-05-27T14:40:59Z</time>
      </trkpt>
      <trkpt lat="47.69299" lon="-2.21164">
        <ele>35.8</ele>
        <time>2021-05-27T14:41:00Z</time>
      </trkpt>
      <trkpt lat="47.69299" lon="-2.21167">
        <ele>35.7</ele>
        <time>2021-05-27T14:41:01Z</time>
      </trkpt>
      <trkpt lat="47.69299" lon="-2.2117">
        <ele>36.1</ele>
        <time>2021-05-27T14:41:02Z</time>
      </trkpt>
      <trkpt lat="47.69299" lon="-2.21174">
        <ele>36.2</ele>
        <time>2021-05-27T14:41:03Z</time>
      </trkpt>
      <trkpt lat="47.69299" lon="-2.21177">
        <ele>36.4</ele>
        <time>2021-05-27T14:41:04Z</time>
      </trkpt>
      <trkpt lat="47.693" lon="-2.21181">
        <ele>36.3</ele>
        <time>2021-05-27T14:41:05Z</time>
      </trkpt>
      <trkpt lat="47.69301" lon="-2.21185">
        <ele>36</ele>
        <time>2021-05-27T14:41:06Z</time>
      </trkpt>
      <trkpt lat="47.69303" lon="-2.21189">
        <ele>35.9</ele>
        <time>2021-05-27T14:41:07Z</time>
      </trkpt>
      <trkpt lat="47.69304" lon="-2.21192">
        <ele>35.7</ele>
        <time>2021-05-27T14:41:08Z</time>
      </trkpt>
      <trkpt lat="47.69304" lon="-2.21196">
        <ele>35.9</ele>
        <time>2021-05-27T14:41:09Z</time>
      </trkpt>
      <trkpt lat="47.69304" lon="-2.21198">
        <ele>35.9</ele>
        <time>2021-05-27T14:41:10Z</time>
      </trkpt>
      <trkpt lat="47.69304" lon="-2.21203">
        <ele>36.2</ele>
        <time>2021-05-27T14:41:11Z</time>
      </trkpt>
      <trkpt lat="47.69304" lon="-2.21207">
        <ele>36.3</ele>
        <time>2021-05-27T14:41:12Z</time>
      </trkpt>
      <trkpt lat="47.69304" lon="-2.2121">
        <ele>36.7</ele>
        <time>2021-05-27T14:41:13Z</time>
      </trkpt>
      <trkpt lat="47.69304" lon="-2.21213">
        <ele>37</ele>
        <time>2021-05-27T14:41:14Z</time>
      </trkpt>
      <trkpt lat="47.69304" lon="-2.21216">
        <ele>37.1</ele>
        <time>2021-05-27T14:41:15Z</time>
      </trkpt>
      <trkpt lat="47.69304" lon="-2.21219">
        <ele>37.3</ele>
        <time>2021-05-27T14:41:16Z</time>
      </trkpt>
      <trkpt lat="47.69303" lon="-2.21222">
        <ele>37.7</ele>
        <time>2021-05-27T14:41:17Z</time>
      </trkpt>
      <trkpt lat="47.69303" lon="-2.21225">
        <ele>37.9</ele>
        <time>2021-05-27T14:41:18Z</time>
      </trkpt>
      <trkpt lat="47.69303" lon="-2.21228">
        <ele>38.2</ele>
        <time>2021-05-27T14:41:19Z</time>
      </trkpt>
      <trkpt lat="47.69303" lon="-2.2123">
        <ele>38.5</ele>
        <time>2021-05-27T14:41:20Z</time>
      </trkpt>
      <trkpt lat="47.69303" lon="-2.21232">
        <ele>38.6</ele>
        <time>2021-05-27T14:41:21Z</time>
      </trkpt>
      <trkpt lat="47.69303" lon="-2.21235">
        <ele>38.5</ele>
        <time>2021-05-27T14:41:22Z</time>
      </trkpt>
      <trkpt lat="47.69303" lon="-2.21237">
        <ele>38.6</ele>
        <time>2021-05-27T14:41:23Z</time>
      </trkpt>
      <trkpt lat="47.69303" lon="-2.2124">
        <ele>38.8</ele>
        <time>2021-05-27T14:41:24Z</time>
      </trkpt>
      <trkpt lat="47.69303" lon="-2.21243">
        <ele>39</ele>
        <time>2021-05-27T14:41:25Z</time>
      </trkpt>
      <trkpt lat="47.69303" lon="-2.21246">
        <ele>39.1</ele>
        <time>2021-05-27T14:41:26Z</time>
      </trkpt>
      <trkpt lat="47.69304" lon="-2.21248">
        <ele>39.1</ele>
        <time>2021-05-27T14:41:27Z</time>
      </trkpt>
      <trkpt lat="47.69305" lon="-2.21252">
        <ele>38.9</ele>
        <time>2021-05-27T14:41:28Z</time>
      </trkpt>
      <trkpt lat="47.69306" lon="-2.21257">
        <ele>38.8</ele>
        <time>2021-05-27T14:41:29Z</time>
      </trkpt>
      <trkpt lat="47.69307" lon="-2.21261">
        <ele>38.7</ele>
        <time>2021-05-27T14:41:30Z</time>
      </trkpt>
      <trkpt lat="47.69306" lon="-2.21264">
        <ele>39</ele>
        <time>2021-05-27T14:41:31Z</time>
      </trkpt>
      <trkpt lat="47.69306" lon="-2.21267">
        <ele>39.2</ele>
        <time>2021-05-27T14:41:32Z</time>
      </trkpt>
      <trkpt lat="47.69306" lon="-2.21271">
        <ele>39.2</ele>
        <time>2021-05-27T14:41:33Z</time>
      </trkpt>
      <trkpt lat="47.69306" lon="-2.21274">
        <ele>39.4</ele>
        <time>2021-05-27T14:41:34Z</time>
      </trkpt>
      <trkpt lat="47.69305" lon="-2.21276">
        <ele>39.8</ele>
        <time>2021-05-27T14:41:35Z</time>
      </trkpt>
      <trkpt lat="47.69304" lon="-2.21278">
        <ele>40</ele>
        <time>2021-05-27T14:41:36Z</time>
      </trkpt>
      <trkpt lat="47.69304" lon="-2.21281">
        <ele>40.3</ele>
        <time>2021-05-27T14:41:37Z</time>
      </trkpt>
      <trkpt lat="47.69303" lon="-2.21284">
        <ele>40.7</ele>
        <time>2021-05-27T14:41:38Z</time>
      </trkpt>
      <trkpt lat="47.69302" lon="-2.21287">
        <ele>41.1</ele>
        <time>2021-05-27T14:41:39Z</time>
      </trkpt>
      <trkpt lat="47.69302" lon="-2.2129">
        <ele>41.2</ele>
        <time>2021-05-27T14:41:40Z</time>
      </trkpt>
      <trkpt lat="47.69302" lon="-2.21293">
        <ele>41.3</ele>
        <time>2021-05-27T14:41:41Z</time>
      </trkpt>
      <trkpt lat="47.69301" lon="-2.21297">
        <ele>41.6</ele>
        <time>2021-05-27T14:41:42Z</time>
      </trkpt>
      <trkpt lat="47.69301" lon="-2.213">
        <ele>41.9</ele>
        <time>2021-05-27T14:41:43Z</time>
      </trkpt>
      <trkpt lat="47.69301" lon="-2.21304">
        <ele>42.1</ele>
        <time>2021-05-27T14:41:44Z</time>
      </trkpt>
      <trkpt lat="47.69301" lon="-2.21307">
        <ele>42.1</ele>
        <time>2021-05-27T14:41:45Z</time>
      </trkpt>
      <trkpt lat="47.69302" lon="-2.21311">
        <ele>41.9</ele>
        <time>2021-05-27T14:41:46Z</time>
      </trkpt>
      <trkpt lat="47.69303" lon="-2.21316">
        <ele>41.5</ele>
        <time>2021-05-27T14:41:47Z</time>
      </trkpt>
      <trkpt lat="47.69304" lon="-2.2132">
        <ele>41.5</ele>
        <time>2021-05-27T14:41:48Z</time>
      </trkpt>
      <trkpt lat="47.69304" lon="-2.21323">
        <ele>41.4</ele>
        <time>2021-05-27T14:41:49Z</time>
      </trkpt>
      <trkpt lat="47.69304" lon="-2.21326">
        <ele>41.5</ele>
        <time>2021-05-27T14:41:50Z</time>
      </trkpt>
      <trkpt lat="47.69305" lon="-2.2133">
        <ele>41.6</ele>
        <time>2021-05-27T14:41:51Z</time>
      </trkpt>
      <trkpt lat="47.69304" lon="-2.21333">
        <ele>41.8</ele>
        <time>2021-05-27T14:41:52Z</time>
      </trkpt>
      <trkpt lat="47.69305" lon="-2.21337">
        <ele>41.9</ele>
        <time>2021-05-27T14:41:53Z</time>
      </trkpt>
      <trkpt lat="47.69305" lon="-2.21341">
        <ele>42.2</ele>
        <time>2021-05-27T14:41:54Z</time>
      </trkpt>
      <trkpt lat="47.69306" lon="-2.21344">
        <ele>42.1</ele>
        <time>2021-05-27T14:41:55Z</time>
      </trkpt>
      <trkpt lat="47.69306" lon="-2.21347">
        <ele>42.1</ele>
        <time>2021-05-27T14:41:56Z</time>
      </trkpt>
      <trkpt lat="47.69307" lon="-2.2135">
        <ele>42</ele>
        <time>2021-05-27T14:41:57Z</time>
      </trkpt>
      <trkpt lat="47.69307" lon="-2.21353">
        <ele>42.5</ele>
        <time>2021-05-27T14:41:58Z</time>
      </trkpt>
      <trkpt lat="47.69307" lon="-2.21356">
        <ele>42.6</ele>
        <time>2021-05-27T14:41:59Z</time>
      </trkpt>
      <trkpt lat="47.69306" lon="-2.21361">
        <ele>43.1</ele>
        <time>2021-05-27T14:42:00Z</time>
      </trkpt>
      <trkpt lat="47.69307" lon="-2.21365">
        <ele>43.1</ele>
        <time>2021-05-27T14:42:01Z</time>
      </trkpt>
      <trkpt lat="47.69309" lon="-2.21369">
        <ele>43</ele>
        <time>2021-05-27T14:42:02Z</time>
      </trkpt>
      <trkpt lat="47.69309" lon="-2.21373">
        <ele>43.3</ele>
        <time>2021-05-27T14:42:03Z</time>
      </trkpt>
      <trkpt lat="47.6931" lon="-2.21377">
        <ele>43.3</ele>
        <time>2021-05-27T14:42:04Z</time>
      </trkpt>
      <trkpt lat="47.6931" lon="-2.21382">
        <ele>43.4</ele>
        <time>2021-05-27T14:42:05Z</time>
      </trkpt>
      <trkpt lat="47.69311" lon="-2.21387">
        <ele>43.6</ele>
        <time>2021-05-27T14:42:06Z</time>
      </trkpt>
      <trkpt lat="47.69311" lon="-2.21391">
        <ele>43.8</ele>
        <time>2021-05-27T14:42:07Z</time>
      </trkpt>
      <trkpt lat="47.69312" lon="-2.21395">
        <ele>44</ele>
        <time>2021-05-27T14:42:08Z</time>
      </trkpt>
      <trkpt lat="47.69311" lon="-2.21398">
        <ele>44.4</ele>
        <time>2021-05-27T14:42:09Z</time>
      </trkpt>
      <trkpt lat="47.69312" lon="-2.21401">
        <ele>44.4</ele>
        <time>2021-05-27T14:42:10Z</time>
      </trkpt>
      <trkpt lat="47.69313" lon="-2.21404">
        <ele>44.4</ele>
        <time>2021-05-27T14:42:11Z</time>
      </trkpt>
      <trkpt lat="47.69313" lon="-2.21408">
        <ele>44.5</ele>
        <time>2021-05-27T14:42:12Z</time>
      </trkpt>
      <trkpt lat="47.69313" lon="-2.21411">
        <ele>44.7</ele>
        <time>2021-05-27T14:42:13Z</time>
      </trkpt>
      <trkpt lat="47.69314" lon="-2.21413">
        <ele>44.8</ele>
        <time>2021-05-27T14:42:14Z</time>
      </trkpt>
      <trkpt lat="47.69313" lon="-2.21416">
        <ele>45.2</ele>
        <time>2021-05-27T14:42:15Z</time>
      </trkpt>
      <trkpt lat="47.69313" lon="-2.21419">
        <ele>45.3</ele>
        <time>2021-05-27T14:42:16Z</time>
      </trkpt>
      <trkpt lat="47.69313" lon="-2.21423">
        <ele>45.6</ele>
        <time>2021-05-27T14:42:17Z</time>
      </trkpt>
      <trkpt lat="47.69313" lon="-2.21427">
        <ele>45.7</ele>
        <time>2021-05-27T14:42:18Z</time>
      </trkpt>
      <trkpt lat="47.69313" lon="-2.21431">
        <ele>45.9</ele>
        <time>2021-05-27T14:42:19Z</time>
      </trkpt>
      <trkpt lat="47.69312" lon="-2.21435">
        <ele>46.2</ele>
        <time>2021-05-27T14:42:20Z</time>
      </trkpt>
      <trkpt lat="47.69312" lon="-2.21438">
        <ele>46.4</ele>
        <time>2021-05-27T14:42:21Z</time>
      </trkpt>
      <trkpt lat="47.69312" lon="-2.21443">
        <ele>46.4</ele>
        <time>2021-05-27T14:42:22Z</time>
      </trkpt>
      <trkpt lat="47.69312" lon="-2.21447">
        <ele>46.6</ele>
        <time>2021-05-27T14:42:23Z</time>
      </trkpt>
      <trkpt lat="47.69311" lon="-2.21451">
        <ele>46.9</ele>
        <time>2021-05-27T14:42:24Z</time>
      </trkpt>
      <trkpt lat="47.69311" lon="-2.21455">
        <ele>47.1</ele>
        <time>2021-05-27T14:42:25Z</time>
      </trkpt>
      <trkpt lat="47.69311" lon="-2.21458">
        <ele>47.3</ele>
        <time>2021-05-27T14:42:26Z</time>
      </trkpt>
      <trkpt lat="47.6931" lon="-2.21463">
        <ele>47.5</ele>
        <time>2021-05-27T14:42:27Z</time>
      </trkpt>
      <trkpt lat="47.6931" lon="-2.21468">
        <ele>47.7</ele>
        <time>2021-05-27T14:42:28Z</time>
      </trkpt>
      <trkpt lat="47.6931" lon="-2.21474">
        <ele>47.9</ele>
        <time>2021-05-27T14:42:29Z</time>
      </trkpt>
      <trkpt lat="47.6931" lon="-2.21479">
        <ele>48.1</ele>
        <time>2021-05-27T14:42:30Z</time>
      </trkpt>
      <trkpt lat="47.69309" lon="-2.21483">
        <ele>48.4</ele>
        <time>2021-05-27T14:42:31Z</time>
      </trkpt>
      <trkpt lat="47.69309" lon="-2.21486">
        <ele>48.5</ele>
        <time>2021-05-27T14:42:32Z</time>
      </trkpt>
      <trkpt lat="47.69309" lon="-2.2149">
        <ele>48.6</ele>
        <time>2021-05-27T14:42:33Z</time>
      </trkpt>
      <trkpt lat="47.69309" lon="-2.21495">
        <ele>48.7</ele>
        <time>2021-05-27T14:42:34Z</time>
      </trkpt>
      <trkpt lat="47.69309" lon="-2.21498">
        <ele>48.8</ele>
        <time>2021-05-27T14:42:35Z</time>
      </trkpt>
      <trkpt lat="47.69309" lon="-2.21501">
        <ele>48.9</ele>
        <time>2021-05-27T14:42:36Z</time>
      </trkpt>
      <trkpt lat="47.69309" lon="-2.21506">
        <ele>48.8</ele>
        <time>2021-05-27T14:42:37Z</time>
      </trkpt>
      <trkpt lat="47.69309" lon="-2.21509">
        <ele>48.9</ele>
        <time>2021-05-27T14:42:38Z</time>
      </trkpt>
      <trkpt lat="47.69309" lon="-2.21512">
        <ele>48.8</ele>
        <time>2021-05-27T14:42:39Z</time>
      </trkpt>
      <trkpt lat="47.69309" lon="-2.21516">
        <ele>48.8</ele>
        <time>2021-05-27T14:42:40Z</time>
      </trkpt>
      <trkpt lat="47.69309" lon="-2.21518">
        <ele>48.9</ele>
        <time>2021-05-27T14:42:41Z</time>
      </trkpt>
      <trkpt lat="47.69308" lon="-2.2152">
        <ele>48.9</ele>
        <time>2021-05-27T14:42:42Z</time>
      </trkpt>
      <trkpt lat="47.69307" lon="-2.21521">
        <ele>49.3</ele>
        <time>2021-05-27T14:42:43Z</time>
      </trkpt>
      <trkpt lat="47.69305" lon="-2.21524">
        <ele>49.5</ele>
        <time>2021-05-27T14:42:44Z</time>
      </trkpt>
      <trkpt lat="47.69305" lon="-2.21527">
        <ele>49.6</ele>
        <time>2021-05-27T14:42:45Z</time>
      </trkpt>
      <trkpt lat="47.69304" lon="-2.21529">
        <ele>49.7</ele>
        <time>2021-05-27T14:42:46Z</time>
      </trkpt>
      <trkpt lat="47.69304" lon="-2.21531">
        <ele>49.7</ele>
        <time>2021-05-27T14:42:47Z</time>
      </trkpt>
      <trkpt lat="47.69304" lon="-2.21533">
        <ele>49.7</ele>
        <time>2021-05-27T14:42:48Z</time>
      </trkpt>
      <trkpt lat="47.69303" lon="-2.21535">
        <ele>49.9</ele>
        <time>2021-05-27T14:42:49Z</time>
      </trkpt>
      <trkpt lat="47.69303" lon="-2.21536">
        <ele>50</ele>
        <time>2021-05-27T14:42:50Z</time>
      </trkpt>
      <trkpt lat="47.69302" lon="-2.21538">
        <ele>50.2</ele>
        <time>2021-05-27T14:42:51Z</time>
      </trkpt>
      <trkpt lat="47.69301" lon="-2.2154">
        <ele>50.3</ele>
        <time>2021-05-27T14:42:52Z</time>
      </trkpt>
      <trkpt lat="47.693" lon="-2.21541">
        <ele>50.5</ele>
        <time>2021-05-27T14:42:53Z</time>
      </trkpt>
      <trkpt lat="47.693" lon="-2.21543">
        <ele>50.5</ele>
        <time>2021-05-27T14:42:54Z</time>
      </trkpt>
      <trkpt lat="47.693" lon="-2.21543">
        <ele>50.5</ele>
        <time>2021-05-27T14:42:55Z</time>
      </trkpt>
      <trkpt lat="47.693" lon="-2.21543">
        <ele>50.5</ele>
        <time>2021-05-27T14:42:56Z</time>
      </trkpt>
      <trkpt lat="47.693" lon="-2.21543">
        <ele>50.5</ele>
        <time>2021-05-27T14:42:57Z</time>
      </trkpt>
      <trkpt lat="47.693" lon="-2.21543">
        <ele>50.5</ele>
        <time>2021-05-27T14:42:58Z</time>
      </trkpt>
      <trkpt lat="47.693" lon="-2.21543">
        <ele>50.5</ele>
        <time>2021-05-27T14:42:59Z</time>
      </trkpt>
      <trkpt lat="47.693" lon="-2.21543">
        <ele>50.5</ele>
        <time>2021-05-27T14:43:00Z</time>
      </trkpt>
      <trkpt lat="47.693" lon="-2.21543">
        <ele>50.5</ele>
        <time>2021-05-27T14:43:01Z</time>
      </trkpt>
      <trkpt lat="47.693" lon="-2.21543">
        <ele>50.5</ele>
        <time>2021-05-27T14:43:02Z</time>
      </trkpt>
      <trkpt lat="47.693" lon="-2.21543">
        <ele>50.5</ele>
        <time>2021-05-27T14:43:03Z</time>
      </trkpt>
      <trkpt lat="47.693" lon="-2.21543">
        <ele>50.5</ele>
        <time>2021-05-27T14:43:04Z</time>
      </trkpt>
      <trkpt lat="47.693" lon="-2.21543">
        <ele>50.5</ele>
        <time>2021-05-27T14:43:05Z</time>
      </trkpt>
      <trkpt lat="47.693" lon="-2.21543">
        <ele>50.5</ele>
        <time>2021-05-27T14:43:06Z</time>
      </trkpt>
      <trkpt lat="47.693" lon="-2.21543">
        <ele>50.5</ele>
        <time>2021-05-27T14:43:07Z</time>
      </trkpt>
      <trkpt lat="47.693" lon="-2.21543">
        <ele>50.5</ele>
        <time>2021-05-27T14:43:08Z</time>
      </trkpt>
      <trkpt lat="47.69299" lon="-2.21542">
        <ele>50.8</ele>
        <time>2021-05-27T14:43:09Z</time>
      </trkpt>
      <trkpt lat="47.69298" lon="-2.2154">
        <ele>50.9</ele>
        <time>2021-05-27T14:43:10Z</time>
      </trkpt>
      <trkpt lat="47.69298" lon="-2.21539">
        <ele>51</ele>
        <time>2021-05-27T14:43:11Z</time>
      </trkpt>
      <trkpt lat="47.69297" lon="-2.21539">
        <ele>51.2</ele>
        <time>2021-05-27T14:43:12Z</time>
      </trkpt>
      <trkpt lat="47.69296" lon="-2.21539">
        <ele>51.3</ele>
        <time>2021-05-27T14:43:13Z</time>
      </trkpt>
      <trkpt lat="47.69296" lon="-2.21539">
        <ele>51.3</ele>
        <time>2021-05-27T14:43:14Z</time>
      </trkpt>
      <trkpt lat="47.69296" lon="-2.21539">
        <ele>51.3</ele>
        <time>2021-05-27T14:43:15Z</time>
      </trkpt>
      <trkpt lat="47.69296" lon="-2.21539">
        <ele>51.3</ele>
        <time>2021-05-27T14:43:16Z</time>
      </trkpt>
      <trkpt lat="47.69296" lon="-2.21539">
        <ele>51.3</ele>
        <time>2021-05-27T14:43:17Z</time>
      </trkpt>
      <trkpt lat="47.69296" lon="-2.21539">
        <ele>51.3</ele>
        <time>2021-05-27T14:43:18Z</time>
      </trkpt>
      <trkpt lat="47.69296" lon="-2.21539">
        <ele>51.3</ele>
        <time>2021-05-27T14:43:19Z</time>
      </trkpt>
      <trkpt lat="47.69296" lon="-2.21539">
        <ele>51.3</ele>
        <time>2021-05-27T14:43:20Z</time>
      </trkpt>
      <trkpt lat="47.69296" lon="-2.21539">
        <ele>51.3</ele>
        <time>2021-05-27T14:43:21Z</time>
      </trkpt>
      <trkpt lat="47.69296" lon="-2.21539">
        <ele>51.3</ele>
        <time>2021-05-27T14:43:22Z</time>
      </trkpt>
      <trkpt lat="47.69296" lon="-2.21539">
        <ele>51.3</ele>
        <time>2021-05-27T14:43:23Z</time>
      </trkpt>
      <trkpt lat="47.69296" lon="-2.21539">
        <ele>51.3</ele>
        <time>2021-05-27T14:43:24Z</time>
      </trkpt>
      <trkpt lat="47.69296" lon="-2.21539">
        <ele>51.3</ele>
        <time>2021-05-27T14:43:25Z</time>
      </trkpt>
      <trkpt lat="47.69296" lon="-2.21539">
        <ele>51.3</ele>
        <time>2021-05-27T14:43:26Z</time>
      </trkpt>
      <trkpt lat="47.69296" lon="-2.21539">
        <ele>51.3</ele>
        <time>2021-05-27T14:43:27Z</time>
      </trkpt>
      <trkpt lat="47.69296" lon="-2.21539">
        <ele>51.3</ele>
        <time>2021-05-27T14:43:28Z</time>
      </trkpt>
      <trkpt lat="47.69296" lon="-2.21539">
        <ele>51.3</ele>
        <time>2021-05-27T14:43:29Z</time>
      </trkpt>
      <trkpt lat="47.69296" lon="-2.21539">
        <ele>51.3</ele>
        <time>2021-05-27T14:43:30Z</time>
      </trkpt>
      <trkpt lat="47.69296" lon="-2.21539">
        <ele>51.3</ele>
        <time>2021-05-27T14:43:31Z</time>
      </trkpt>
      <trkpt lat="47.69296" lon="-2.21539">
        <ele>51.3</ele>
        <time>2021-05-27T14:43:32Z</time>
      </trkpt>
      <trkpt lat="47.69296" lon="-2.21539">
        <ele>51.3</ele>
        <time>2021-05-27T14:43:33Z</time>
      </trkpt>
      <trkpt lat="47.69296" lon="-2.21539">
        <ele>51.3</ele>
        <time>2021-05-27T14:43:34Z</time>
      </trkpt>
      <trkpt lat="47.69296" lon="-2.21539">
        <ele>51.3</ele>
        <time>2021-05-27T14:43:35Z</time>
      </trkpt>
      <trkpt lat="47.69296" lon="-2.21539">
        <ele>51.3</ele>
        <time>2021-05-27T14:43:36Z</time>
      </trkpt>
      <trkpt lat="47.69296" lon="-2.21539">
        <ele>51.3</ele>
        <time>2021-05-27T14:43:37Z</time>
      </trkpt>
      <trkpt lat="47.69296" lon="-2.21539">
        <ele>51.3</ele>
        <time>2021-05-27T14:43:38Z</time>
      </trkpt>
      <trkpt lat="47.69293" lon="-2.21529">
        <ele>52.3</ele>
        <time>2021-05-27T14:43:39Z</time>
      </trkpt>
      <trkpt lat="47.69294" lon="-2.21527">
        <ele>52</ele>
        <time>2021-05-27T14:43:40Z</time>
      </trkpt>
      <trkpt lat="47.69294" lon="-2.21526">
        <ele>51.9</ele>
        <time>2021-05-27T14:43:41Z</time>
      </trkpt>
      <trkpt lat="47.69294" lon="-2.21525">
        <ele>52</ele>
        <time>2021-05-27T14:43:42Z</time>
      </trkpt>
      <trkpt lat="47.69293" lon="-2.21524">
        <ele>52.2</ele>
        <time>2021-05-27T14:43:43Z</time>
      </trkpt>
      <trkpt lat="47.69292" lon="-2.21524">
        <ele>52.5</ele>
        <time>2021-05-27T14:43:44Z</time>
      </trkpt>
      <trkpt lat="47.69291" lon="-2.21523">
        <ele>52.7</ele>
        <time>2021-05-27T14:43:45Z</time>
      </trkpt>
      <trkpt lat="47.6929" lon="-2.21522">
        <ele>52.9</ele>
        <time>2021-05-27T14:43:46Z</time>
      </trkpt>
      <trkpt lat="47.6929" lon="-2.21522">
        <ele>53.1</ele>
        <time>2021-05-27T14:43:47Z</time>
      </trkpt>
      <trkpt lat="47.69289" lon="-2.21523">
        <ele>53.3</ele>
        <time>2021-05-27T14:43:48Z</time>
      </trkpt>
      <trkpt lat="47.69287" lon="-2.21524">
        <ele>53.6</ele>
        <time>2021-05-27T14:43:49Z</time>
      </trkpt>
      <trkpt lat="47.69285" lon="-2.21526">
        <ele>54</ele>
        <time>2021-05-27T14:43:50Z</time>
      </trkpt>
      <trkpt lat="47.69283" lon="-2.21527">
        <ele>54.4</ele>
        <time>2021-05-27T14:43:51Z</time>
      </trkpt>
      <trkpt lat="47.69281" lon="-2.21527">
        <ele>54.8</ele>
        <time>2021-05-27T14:43:52Z</time>
      </trkpt>
      <trkpt lat="47.6928" lon="-2.21526">
        <ele>55.1</ele>
        <time>2021-05-27T14:43:53Z</time>
      </trkpt>
      <trkpt lat="47.6928" lon="-2.21524">
        <ele>55.3</ele>
        <time>2021-05-27T14:43:54Z</time>
      </trkpt>
      <trkpt lat="47.69279" lon="-2.21521">
        <ele>55.4</ele>
        <time>2021-05-27T14:43:55Z</time>
      </trkpt>
      <trkpt lat="47.6928" lon="-2.21518">
        <ele>55.4</ele>
        <time>2021-05-27T14:43:56Z</time>
      </trkpt>
      <trkpt lat="47.6928" lon="-2.21516">
        <ele>55.3</ele>
        <time>2021-05-27T14:43:57Z</time>
      </trkpt>
      <trkpt lat="47.69281" lon="-2.21512">
        <ele>55.2</ele>
        <time>2021-05-27T14:43:58Z</time>
      </trkpt>
      <trkpt lat="47.69282" lon="-2.21508">
        <ele>55.1</ele>
        <time>2021-05-27T14:43:59Z</time>
      </trkpt>
      <trkpt lat="47.69282" lon="-2.21504">
        <ele>55.2</ele>
        <time>2021-05-27T14:44:00Z</time>
      </trkpt>
      <trkpt lat="47.69281" lon="-2.21501">
        <ele>55.5</ele>
        <time>2021-05-27T14:44:01Z</time>
      </trkpt>
      <trkpt lat="47.6928" lon="-2.21499">
        <ele>55.9</ele>
        <time>2021-05-27T14:44:02Z</time>
      </trkpt>
      <trkpt lat="47.69279" lon="-2.21497">
        <ele>56</ele>
        <time>2021-05-27T14:44:03Z</time>
      </trkpt>
      <trkpt lat="47.69279" lon="-2.21495">
        <ele>56</ele>
        <time>2021-05-27T14:44:04Z</time>
      </trkpt>
      <trkpt lat="47.6928" lon="-2.21492">
        <ele>55.8</ele>
        <time>2021-05-27T14:44:05Z</time>
      </trkpt>
      <trkpt lat="47.69281" lon="-2.2149">
        <ele>55.6</ele>
        <time>2021-05-27T14:44:06Z</time>
      </trkpt>
      <trkpt lat="47.69281" lon="-2.21487">
        <ele>55.4</ele>
        <time>2021-05-27T14:44:07Z</time>
      </trkpt>
      <trkpt lat="47.69282" lon="-2.21484">
        <ele>55.2</ele>
        <time>2021-05-27T14:44:08Z</time>
      </trkpt>
      <trkpt lat="47.69282" lon="-2.2148">
        <ele>55.2</ele>
        <time>2021-05-27T14:44:09Z</time>
      </trkpt>
      <trkpt lat="47.69281" lon="-2.21479">
        <ele>55.4</ele>
        <time>2021-05-27T14:44:10Z</time>
      </trkpt>
      <trkpt lat="47.69281" lon="-2.21477">
        <ele>55.4</ele>
        <time>2021-05-27T14:44:11Z</time>
      </trkpt>
      <trkpt lat="47.6928" lon="-2.21476">
        <ele>55.6</ele>
        <time>2021-05-27T14:44:12Z</time>
      </trkpt>
      <trkpt lat="47.6928" lon="-2.21473">
        <ele>55.7</ele>
        <time>2021-05-27T14:44:13Z</time>
      </trkpt>
      <trkpt lat="47.6928" lon="-2.21471">
        <ele>55.7</ele>
        <time>2021-05-27T14:44:14Z</time>
      </trkpt>
      <trkpt lat="47.6928" lon="-2.21468">
        <ele>55.6</ele>
        <time>2021-05-27T14:44:15Z</time>
      </trkpt>
      <trkpt lat="47.6928" lon="-2.21466">
        <ele>55.8</ele>
        <time>2021-05-27T14:44:16Z</time>
      </trkpt>
      <trkpt lat="47.69279" lon="-2.21463">
        <ele>56</ele>
        <time>2021-05-27T14:44:17Z</time>
      </trkpt>
      <trkpt lat="47.69278" lon="-2.2146">
        <ele>56.1</ele>
        <time>2021-05-27T14:44:18Z</time>
      </trkpt>
      <trkpt lat="47.69279" lon="-2.21456">
        <ele>56</ele>
        <time>2021-05-27T14:44:19Z</time>
      </trkpt>
      <trkpt lat="47.69279" lon="-2.21452">
        <ele>55.9</ele>
        <time>2021-05-27T14:44:20Z</time>
      </trkpt>
      <trkpt lat="47.6928" lon="-2.21449">
        <ele>55.6</ele>
        <time>2021-05-27T14:44:21Z</time>
      </trkpt>
      <trkpt lat="47.69282" lon="-2.21447">
        <ele>55.1</ele>
        <time>2021-05-27T14:44:22Z</time>
      </trkpt>
      <trkpt lat="47.69284" lon="-2.21445">
        <ele>54.7</ele>
        <time>2021-05-27T14:44:23Z</time>
      </trkpt>
      <trkpt lat="47.69284" lon="-2.21441">
        <ele>54.4</ele>
        <time>2021-05-27T14:44:24Z</time>
      </trkpt>
      <trkpt lat="47.69285" lon="-2.21437">
        <ele>54.2</ele>
        <time>2021-05-27T14:44:25Z</time>
      </trkpt>
      <trkpt lat="47.69286" lon="-2.21432">
        <ele>53.9</ele>
        <time>2021-05-27T14:44:26Z</time>
      </trkpt>
      <trkpt lat="47.69286" lon="-2.21428">
        <ele>53.8</ele>
        <time>2021-05-27T14:44:27Z</time>
      </trkpt>
      <trkpt lat="47.69286" lon="-2.21425">
        <ele>54</ele>
        <time>2021-05-27T14:44:28Z</time>
      </trkpt>
      <trkpt lat="47.69285" lon="-2.21423">
        <ele>54.2</ele>
        <time>2021-05-27T14:44:29Z</time>
      </trkpt>
      <trkpt lat="47.69284" lon="-2.21422">
        <ele>54.4</ele>
        <time>2021-05-27T14:44:30Z</time>
      </trkpt>
      <trkpt lat="47.69284" lon="-2.21422">
        <ele>54.5</ele>
        <time>2021-05-27T14:44:31Z</time>
      </trkpt>
      <trkpt lat="47.69283" lon="-2.21421">
        <ele>54.7</ele>
        <time>2021-05-27T14:44:32Z</time>
      </trkpt>
      <trkpt lat="47.69283" lon="-2.21421">
        <ele>54.7</ele>
        <time>2021-05-27T14:44:33Z</time>
      </trkpt>
      <trkpt lat="47.69283" lon="-2.21421">
        <ele>54.7</ele>
        <time>2021-05-27T14:44:34Z</time>
      </trkpt>
      <trkpt lat="47.69283" lon="-2.21421">
        <ele>54.7</ele>
        <time>2021-05-27T14:44:35Z</time>
      </trkpt>
      <trkpt lat="47.69283" lon="-2.21421">
        <ele>54.7</ele>
        <time>2021-05-27T14:44:36Z</time>
      </trkpt>
      <trkpt lat="47.69283" lon="-2.21421">
        <ele>54.7</ele>
        <time>2021-05-27T14:44:37Z</time>
      </trkpt>
      <trkpt lat="47.69283" lon="-2.21421">
        <ele>54.7</ele>
        <time>2021-05-27T14:44:38Z</time>
      </trkpt>
      <trkpt lat="47.69283" lon="-2.21421">
        <ele>54.7</ele>
        <time>2021-05-27T14:44:39Z</time>
      </trkpt>
      <trkpt lat="47.69283" lon="-2.21421">
        <ele>54.7</ele>
        <time>2021-05-27T14:44:40Z</time>
      </trkpt>
      <trkpt lat="47.69275" lon="-2.21421">
        <ele>57.3</ele>
        <time>2021-05-27T14:44:41Z</time>
      </trkpt>
      <trkpt lat="47.69274" lon="-2.21421">
        <ele>57.6</ele>
        <time>2021-05-27T14:44:42Z</time>
      </trkpt>
      <trkpt lat="47.69273" lon="-2.2142">
        <ele>57.8</ele>
        <time>2021-05-27T14:44:43Z</time>
      </trkpt>
      <trkpt lat="47.69273" lon="-2.2142">
        <ele>58</ele>
        <time>2021-05-27T14:44:44Z</time>
      </trkpt>
      <trkpt lat="47.69273" lon="-2.2142">
        <ele>58</ele>
        <time>2021-05-27T14:44:45Z</time>
      </trkpt>
      <trkpt lat="47.69273" lon="-2.2142">
        <ele>58</ele>
        <time>2021-05-27T14:44:46Z</time>
      </trkpt>
      <trkpt lat="47.69273" lon="-2.2142">
        <ele>58</ele>
        <time>2021-05-27T14:44:47Z</time>
      </trkpt>
      <trkpt lat="47.69273" lon="-2.2142">
        <ele>58</ele>
        <time>2021-05-27T14:44:48Z</time>
      </trkpt>
      <trkpt lat="47.69273" lon="-2.2142">
        <ele>58</ele>
        <time>2021-05-27T14:44:49Z</time>
      </trkpt>
      <trkpt lat="47.69273" lon="-2.2142">
        <ele>58</ele>
        <time>2021-05-27T14:44:50Z</time>
      </trkpt>
      <trkpt lat="47.69273" lon="-2.2142">
        <ele>58</ele>
        <time>2021-05-27T14:44:51Z</time>
      </trkpt>
      <trkpt lat="47.69273" lon="-2.2142">
        <ele>58</ele>
        <time>2021-05-27T14:44:52Z</time>
      </trkpt>
      <trkpt lat="47.69273" lon="-2.2142">
        <ele>58</ele>
        <time>2021-05-27T14:44:53Z</time>
      </trkpt>
      <trkpt lat="47.69273" lon="-2.2142">
        <ele>58</ele>
        <time>2021-05-27T14:44:54Z</time>
      </trkpt>
      <trkpt lat="47.69273" lon="-2.2142">
        <ele>58</ele>
        <time>2021-05-27T14:44:55Z</time>
      </trkpt>
      <trkpt lat="47.69273" lon="-2.2142">
        <ele>58</ele>
        <time>2021-05-27T14:44:56Z</time>
      </trkpt>
      <trkpt lat="47.69273" lon="-2.2142">
        <ele>58</ele>
        <time>2021-05-27T14:44:57Z</time>
      </trkpt>
      <trkpt lat="47.69269" lon="-2.21407">
        <ele>58.6</ele>
        <time>2021-05-27T14:44:58Z</time>
      </trkpt>
      <trkpt lat="47.69269" lon="-2.21405">
        <ele>58.6</ele>
        <time>2021-05-27T14:44:59Z</time>
      </trkpt>
      <trkpt lat="47.69269" lon="-2.21403">
        <ele>58.4</ele>
        <time>2021-05-27T14:45:00Z</time>
      </trkpt>
      <trkpt lat="47.69271" lon="-2.21401">
        <ele>57.8</ele>
        <time>2021-05-27T14:45:01Z</time>
      </trkpt>
      <trkpt lat="47.69271" lon="-2.214">
        <ele>57.5</ele>
        <time>2021-05-27T14:45:02Z</time>
      </trkpt>
      <trkpt lat="47.69271" lon="-2.21399">
        <ele>57.5</ele>
        <time>2021-05-27T14:45:03Z</time>
      </trkpt>
      <trkpt lat="47.69272" lon="-2.21398">
        <ele>57.3</ele>
        <time>2021-05-27T14:45:04Z</time>
      </trkpt>
      <trkpt lat="47.69272" lon="-2.21398">
        <ele>57.3</ele>
        <time>2021-05-27T14:45:05Z</time>
      </trkpt>
      <trkpt lat="47.69272" lon="-2.21398">
        <ele>57.3</ele>
        <time>2021-05-27T14:45:06Z</time>
      </trkpt>
      <trkpt lat="47.69272" lon="-2.21398">
        <ele>57.3</ele>
        <time>2021-05-27T14:45:07Z</time>
      </trkpt>
      <trkpt lat="47.69272" lon="-2.21398">
        <ele>57.3</ele>
        <time>2021-05-27T14:45:08Z</time>
      </trkpt>
      <trkpt lat="47.69272" lon="-2.21398">
        <ele>57.3</ele>
        <time>2021-05-27T14:45:09Z</time>
      </trkpt>
      <trkpt lat="47.69272" lon="-2.21398">
        <ele>57.3</ele>
        <time>2021-05-27T14:45:10Z</time>
      </trkpt>
      <trkpt lat="47.69272" lon="-2.21398">
        <ele>57.3</ele>
        <time>2021-05-27T14:45:11Z</time>
      </trkpt>
      <trkpt lat="47.69272" lon="-2.21398">
        <ele>57.3</ele>
        <time>2021-05-27T14:45:12Z</time>
      </trkpt>
      <trkpt lat="47.69272" lon="-2.21398">
        <ele>57.3</ele>
        <time>2021-05-27T14:45:13Z</time>
      </trkpt>
      <trkpt lat="47.69272" lon="-2.21398">
        <ele>57.3</ele>
        <time>2021-05-27T14:45:14Z</time>
      </trkpt>
      <trkpt lat="47.69272" lon="-2.21398">
        <ele>57.3</ele>
        <time>2021-05-27T14:45:15Z</time>
      </trkpt>
      <trkpt lat="47.69272" lon="-2.21398">
        <ele>57.3</ele>
        <time>2021-05-27T14:45:16Z</time>
      </trkpt>
      <trkpt lat="47.69272" lon="-2.21398">
        <ele>57.3</ele>
        <time>2021-05-27T14:45:17Z</time>
      </trkpt>
      <trkpt lat="47.69271" lon="-2.21388">
        <ele>57</ele>
        <time>2021-05-27T14:45:18Z</time>
      </trkpt>
      <trkpt lat="47.6927" lon="-2.21387">
        <ele>57.3</ele>
        <time>2021-05-27T14:45:19Z</time>
      </trkpt>
      <trkpt lat="47.69268" lon="-2.21386">
        <ele>57.7</ele>
        <time>2021-05-27T14:45:20Z</time>
      </trkpt>
      <trkpt lat="47.69267" lon="-2.21386">
        <ele>58.3</ele>
        <time>2021-05-27T14:45:21Z</time>
      </trkpt>
      <trkpt lat="47.69266" lon="-2.21385">
        <ele>58.4</ele>
        <time>2021-05-27T14:45:22Z</time>
      </trkpt>
      <trkpt lat="47.69266" lon="-2.21385">
        <ele>58.4</ele>
        <time>2021-05-27T14:45:23Z</time>
      </trkpt>
      <trkpt lat="47.69266" lon="-2.21383">
        <ele>58.5</ele>
        <time>2021-05-27T14:45:24Z</time>
      </trkpt>
      <trkpt lat="47.69265" lon="-2.21383">
        <ele>58.7</ele>
        <time>2021-05-27T14:45:25Z</time>
      </trkpt>
      <trkpt lat="47.69265" lon="-2.21383">
        <ele>58.7</ele>
        <time>2021-05-27T14:45:26Z</time>
      </trkpt>
      <trkpt lat="47.69265" lon="-2.21383">
        <ele>58.7</ele>
        <time>2021-05-27T14:45:27Z</time>
      </trkpt>
      <trkpt lat="47.69265" lon="-2.21383">
        <ele>58.7</ele>
        <time>2021-05-27T14:45:28Z</time>
      </trkpt>
      <trkpt lat="47.69265" lon="-2.21383">
        <ele>58.7</ele>
        <time>2021-05-27T14:45:29Z</time>
      </trkpt>
      <trkpt lat="47.69265" lon="-2.21383">
        <ele>58.7</ele>
        <time>2021-05-27T14:45:30Z</time>
      </trkpt>
      <trkpt lat="47.69265" lon="-2.21383">
        <ele>58.7</ele>
        <time>2021-05-27T14:45:31Z</time>
      </trkpt>
      <trkpt lat="47.69265" lon="-2.21383">
        <ele>58.7</ele>
        <time>2021-05-27T14:45:32Z</time>
      </trkpt>
      <trkpt lat="47.69265" lon="-2.21383">
        <ele>58.7</ele>
        <time>2021-05-27T14:45:33Z</time>
      </trkpt>
      <trkpt lat="47.69265" lon="-2.21383">
        <ele>58.7</ele>
        <time>2021-05-27T14:45:34Z</time>
      </trkpt>
      <trkpt lat="47.69265" lon="-2.21383">
        <ele>58.7</ele>
        <time>2021-05-27T14:45:35Z</time>
      </trkpt>
      <trkpt lat="47.69265" lon="-2.21383">
        <ele>58.7</ele>
        <time>2021-05-27T14:45:36Z</time>
      </trkpt>
      <trkpt lat="47.69265" lon="-2.21383">
        <ele>58.7</ele>
        <time>2021-05-27T14:45:37Z</time>
      </trkpt>
      <trkpt lat="47.69265" lon="-2.21383">
        <ele>58.7</ele>
        <time>2021-05-27T14:45:38Z</time>
      </trkpt>
      <trkpt lat="47.69265" lon="-2.21383">
        <ele>58.7</ele>
        <time>2021-05-27T14:45:39Z</time>
      </trkpt>
      <trkpt lat="47.69263" lon="-2.21368">
        <ele>58.7</ele>
        <time>2021-05-27T14:45:40Z</time>
      </trkpt>
      <trkpt lat="47.69263" lon="-2.21366">
        <ele>58.7</ele>
        <time>2021-05-27T14:45:41Z</time>
      </trkpt>
      <trkpt lat="47.69263" lon="-2.21363">
        <ele>58.7</ele>
        <time>2021-05-27T14:45:42Z</time>
      </trkpt>
      <trkpt lat="47.69263" lon="-2.21359">
        <ele>58.3</ele>
        <time>2021-05-27T14:45:43Z</time>
      </trkpt>
      <trkpt lat="47.69263" lon="-2.21356">
        <ele>58.3</ele>
        <time>2021-05-27T14:45:44Z</time>
      </trkpt>
      <trkpt lat="47.69263" lon="-2.21352">
        <ele>58.2</ele>
        <time>2021-05-27T14:45:45Z</time>
      </trkpt>
      <trkpt lat="47.69263" lon="-2.21349">
        <ele>58</ele>
        <time>2021-05-27T14:45:46Z</time>
      </trkpt>
      <trkpt lat="47.69263" lon="-2.21346">
        <ele>57.6</ele>
        <time>2021-05-27T14:45:47Z</time>
      </trkpt>
      <trkpt lat="47.69265" lon="-2.21344">
        <ele>56.8</ele>
        <time>2021-05-27T14:45:48Z</time>
      </trkpt>
      <trkpt lat="47.69267" lon="-2.21342">
        <ele>56.3</ele>
        <time>2021-05-27T14:45:49Z</time>
      </trkpt>
      <trkpt lat="47.69267" lon="-2.21339">
        <ele>55.8</ele>
        <time>2021-05-27T14:45:50Z</time>
      </trkpt>
      <trkpt lat="47.69268" lon="-2.21335">
        <ele>55.4</ele>
        <time>2021-05-27T14:45:51Z</time>
      </trkpt>
      <trkpt lat="47.69267" lon="-2.21332">
        <ele>55.4</ele>
        <time>2021-05-27T14:45:52Z</time>
      </trkpt>
      <trkpt lat="47.69267" lon="-2.21328">
        <ele>55.6</ele>
        <time>2021-05-27T14:45:53Z</time>
      </trkpt>
      <trkpt lat="47.69267" lon="-2.21324">
        <ele>55.2</ele>
        <time>2021-05-27T14:45:54Z</time>
      </trkpt>
      <trkpt lat="47.69268" lon="-2.2132">
        <ele>54.8</ele>
        <time>2021-05-27T14:45:55Z</time>
      </trkpt>
      <trkpt lat="47.69268" lon="-2.21315">
        <ele>54.4</ele>
        <time>2021-05-27T14:45:56Z</time>
      </trkpt>
      <trkpt lat="47.69268" lon="-2.21311">
        <ele>54.3</ele>
        <time>2021-05-27T14:45:57Z</time>
      </trkpt>
      <trkpt lat="47.69267" lon="-2.21308">
        <ele>54.8</ele>
        <time>2021-05-27T14:45:58Z</time>
      </trkpt>
      <trkpt lat="47.69266" lon="-2.21306">
        <ele>54.8</ele>
        <time>2021-05-27T14:45:59Z</time>
      </trkpt>
      <trkpt lat="47.69265" lon="-2.21304">
        <ele>55</ele>
        <time>2021-05-27T14:46:00Z</time>
      </trkpt>
      <trkpt lat="47.69264" lon="-2.21303">
        <ele>55.3</ele>
        <time>2021-05-27T14:46:01Z</time>
      </trkpt>
      <trkpt lat="47.69264" lon="-2.21302">
        <ele>55.5</ele>
        <time>2021-05-27T14:46:02Z</time>
      </trkpt>
      <trkpt lat="47.69262" lon="-2.21303">
        <ele>56.1</ele>
        <time>2021-05-27T14:46:03Z</time>
      </trkpt>
      <trkpt lat="47.6926" lon="-2.21303">
        <ele>57</ele>
        <time>2021-05-27T14:46:04Z</time>
      </trkpt>
      <trkpt lat="47.69258" lon="-2.21303">
        <ele>57.5</ele>
        <time>2021-05-27T14:46:05Z</time>
      </trkpt>
      <trkpt lat="47.69258" lon="-2.21304">
        <ele>57.7</ele>
        <time>2021-05-27T14:46:06Z</time>
      </trkpt>
      <trkpt lat="47.69257" lon="-2.21304">
        <ele>57.8</ele>
        <time>2021-05-27T14:46:07Z</time>
      </trkpt>
      <trkpt lat="47.69257" lon="-2.21303">
        <ele>57.9</ele>
        <time>2021-05-27T14:46:08Z</time>
      </trkpt>
      <trkpt lat="47.69257" lon="-2.21303">
        <ele>57.9</ele>
        <time>2021-05-27T14:46:09Z</time>
      </trkpt>
      <trkpt lat="47.69257" lon="-2.21303">
        <ele>57.9</ele>
        <time>2021-05-27T14:46:10Z</time>
      </trkpt>
      <trkpt lat="47.69257" lon="-2.21303">
        <ele>57.9</ele>
        <time>2021-05-27T14:46:11Z</time>
      </trkpt>
      <trkpt lat="47.69257" lon="-2.21303">
        <ele>57.9</ele>
        <time>2021-05-27T14:46:12Z</time>
      </trkpt>
      <trkpt lat="47.69257" lon="-2.21303">
        <ele>57.9</ele>
        <time>2021-05-27T14:46:13Z</time>
      </trkpt>
      <trkpt lat="47.69257" lon="-2.21303">
        <ele>57.9</ele>
        <time>2021-05-27T14:46:14Z</time>
      </trkpt>
      <trkpt lat="47.69257" lon="-2.21303">
        <ele>57.9</ele>
        <time>2021-05-27T14:46:15Z</time>
      </trkpt>
      <trkpt lat="47.69257" lon="-2.21303">
        <ele>57.9</ele>
        <time>2021-05-27T14:46:16Z</time>
      </trkpt>
      <trkpt lat="47.69257" lon="-2.21303">
        <ele>57.9</ele>
        <time>2021-05-27T14:46:17Z</time>
      </trkpt>
      <trkpt lat="47.69257" lon="-2.21303">
        <ele>57.9</ele>
        <time>2021-05-27T14:46:18Z</time>
      </trkpt>
      <trkpt lat="47.69257" lon="-2.21303">
        <ele>57.9</ele>
        <time>2021-05-27T14:46:19Z</time>
      </trkpt>
      <trkpt lat="47.69257" lon="-2.21291">
        <ele>57.4</ele>
        <time>2021-05-27T14:46:20Z</time>
      </trkpt>
      <trkpt lat="47.69256" lon="-2.2129">
        <ele>57.8</ele>
        <time>2021-05-27T14:46:21Z</time>
      </trkpt>
      <trkpt lat="47.69254" lon="-2.21289">
        <ele>58.3</ele>
        <time>2021-05-27T14:46:22Z</time>
      </trkpt>
      <trkpt lat="47.69252" lon="-2.21288">
        <ele>59</ele>
        <time>2021-05-27T14:46:23Z</time>
      </trkpt>
      <trkpt lat="47.69252" lon="-2.21286">
        <ele>59.1</ele>
        <time>2021-05-27T14:46:24Z</time>
      </trkpt>
      <trkpt lat="47.69251" lon="-2.21283">
        <ele>59.2</ele>
        <time>2021-05-27T14:46:25Z</time>
      </trkpt>
      <trkpt lat="47.69251" lon="-2.2128">
        <ele>59.1</ele>
        <time>2021-05-27T14:46:26Z</time>
      </trkpt>
      <trkpt lat="47.69251" lon="-2.21276">
        <ele>58.7</ele>
        <time>2021-05-27T14:46:27Z</time>
      </trkpt>
      <trkpt lat="47.69253" lon="-2.21274">
        <ele>58</ele>
        <time>2021-05-27T14:46:28Z</time>
      </trkpt>
      <trkpt lat="47.69255" lon="-2.2127">
        <ele>57.3</ele>
        <time>2021-05-27T14:46:29Z</time>
      </trkpt>
      <trkpt lat="47.69256" lon="-2.21266">
        <ele>56.6</ele>
        <time>2021-05-27T14:46:30Z</time>
      </trkpt>
      <trkpt lat="47.69258" lon="-2.21261">
        <ele>55.7</ele>
        <time>2021-05-27T14:46:31Z</time>
      </trkpt>
      <trkpt lat="47.6926" lon="-2.21257">
        <ele>55</ele>
        <time>2021-05-27T14:46:32Z</time>
      </trkpt>
      <trkpt lat="47.6926" lon="-2.21254">
        <ele>54.8</ele>
        <time>2021-05-27T14:46:33Z</time>
      </trkpt>
      <trkpt lat="47.6926" lon="-2.21252">
        <ele>54.5</ele>
        <time>2021-05-27T14:46:34Z</time>
      </trkpt>
      <trkpt lat="47.69261" lon="-2.21247">
        <ele>54.2</ele>
        <time>2021-05-27T14:46:35Z</time>
      </trkpt>
      <trkpt lat="47.69261" lon="-2.21242">
        <ele>53.7</ele>
        <time>2021-05-27T14:46:36Z</time>
      </trkpt>
      <trkpt lat="47.69261" lon="-2.21236">
        <ele>53.6</ele>
        <time>2021-05-27T14:46:37Z</time>
      </trkpt>
      <trkpt lat="47.6926" lon="-2.21232">
        <ele>53.5</ele>
        <time>2021-05-27T14:46:38Z</time>
      </trkpt>
      <trkpt lat="47.6926" lon="-2.21228">
        <ele>53.4</ele>
        <time>2021-05-27T14:46:39Z</time>
      </trkpt>
      <trkpt lat="47.6926" lon="-2.21224">
        <ele>53.3</ele>
        <time>2021-05-27T14:46:40Z</time>
      </trkpt>
      <trkpt lat="47.6926" lon="-2.2122">
        <ele>53.1</ele>
        <time>2021-05-27T14:46:41Z</time>
      </trkpt>
      <trkpt lat="47.69259" lon="-2.21215">
        <ele>53.2</ele>
        <time>2021-05-27T14:46:42Z</time>
      </trkpt>
      <trkpt lat="47.69258" lon="-2.21212">
        <ele>53.4</ele>
        <time>2021-05-27T14:46:43Z</time>
      </trkpt>
      <trkpt lat="47.69257" lon="-2.21209">
        <ele>53.4</ele>
        <time>2021-05-27T14:46:44Z</time>
      </trkpt>
      <trkpt lat="47.69257" lon="-2.21205">
        <ele>53.2</ele>
        <time>2021-05-27T14:46:45Z</time>
      </trkpt>
      <trkpt lat="47.69258" lon="-2.21201">
        <ele>52.6</ele>
        <time>2021-05-27T14:46:46Z</time>
      </trkpt>
      <trkpt lat="47.6926" lon="-2.21196">
        <ele>52</ele>
        <time>2021-05-27T14:46:47Z</time>
      </trkpt>
      <trkpt lat="47.69261" lon="-2.21192">
        <ele>51.3</ele>
        <time>2021-05-27T14:46:48Z</time>
      </trkpt>
      <trkpt lat="47.69262" lon="-2.21185">
        <ele>50.6</ele>
        <time>2021-05-27T14:46:49Z</time>
      </trkpt>
      <trkpt lat="47.69262" lon="-2.2118">
        <ele>50.4</ele>
        <time>2021-05-27T14:46:50Z</time>
      </trkpt>
      <trkpt lat="47.69262" lon="-2.21176">
        <ele>50.1</ele>
        <time>2021-05-27T14:46:51Z</time>
      </trkpt>
      <trkpt lat="47.69262" lon="-2.21171">
        <ele>49.8</ele>
        <time>2021-05-27T14:46:52Z</time>
      </trkpt>
      <trkpt lat="47.69262" lon="-2.21166">
        <ele>49.5</ele>
        <time>2021-05-27T14:46:53Z</time>
      </trkpt>
      <trkpt lat="47.69263" lon="-2.21161">
        <ele>49.1</ele>
        <time>2021-05-27T14:46:54Z</time>
      </trkpt>
      <trkpt lat="47.69263" lon="-2.21154">
        <ele>48.9</ele>
        <time>2021-05-27T14:46:55Z</time>
      </trkpt>
      <trkpt lat="47.69262" lon="-2.21147">
        <ele>49.1</ele>
        <time>2021-05-27T14:46:56Z</time>
      </trkpt>
      <trkpt lat="47.69261" lon="-2.21143">
        <ele>49.3</ele>
        <time>2021-05-27T14:46:57Z</time>
      </trkpt>
      <trkpt lat="47.6926" lon="-2.21139">
        <ele>49.7</ele>
        <time>2021-05-27T14:46:58Z</time>
      </trkpt>
      <trkpt lat="47.69258" lon="-2.21136">
        <ele>50.1</ele>
        <time>2021-05-27T14:46:59Z</time>
      </trkpt>
      <trkpt lat="47.69257" lon="-2.21133">
        <ele>50.5</ele>
        <time>2021-05-27T14:47:00Z</time>
      </trkpt>
      <trkpt lat="47.69256" lon="-2.21131">
        <ele>51</ele>
        <time>2021-05-27T14:47:01Z</time>
      </trkpt>
      <trkpt lat="47.69255" lon="-2.21129">
        <ele>51.1</ele>
        <time>2021-05-27T14:47:02Z</time>
      </trkpt>
      <trkpt lat="47.69256" lon="-2.21126">
        <ele>50.7</ele>
        <time>2021-05-27T14:47:03Z</time>
      </trkpt>
      <trkpt lat="47.69258" lon="-2.21122">
        <ele>50</ele>
        <time>2021-05-27T14:47:04Z</time>
      </trkpt>
      <trkpt lat="47.69258" lon="-2.21116">
        <ele>49.7</ele>
        <time>2021-05-27T14:47:05Z</time>
      </trkpt>
      <trkpt lat="47.69258" lon="-2.2111">
        <ele>49.8</ele>
        <time>2021-05-27T14:47:06Z</time>
      </trkpt>
      <trkpt lat="47.69257" lon="-2.21106">
        <ele>49.8</ele>
        <time>2021-05-27T14:47:07Z</time>
      </trkpt>
      <trkpt lat="47.69257" lon="-2.21102">
        <ele>50</ele>
        <time>2021-05-27T14:47:08Z</time>
      </trkpt>
      <trkpt lat="47.69256" lon="-2.21098">
        <ele>50.1</ele>
        <time>2021-05-27T14:47:09Z</time>
      </trkpt>
      <trkpt lat="47.69256" lon="-2.21095">
        <ele>50.2</ele>
        <time>2021-05-27T14:47:10Z</time>
      </trkpt>
      <trkpt lat="47.69255" lon="-2.21092">
        <ele>50.3</ele>
        <time>2021-05-27T14:47:11Z</time>
      </trkpt>
      <trkpt lat="47.69254" lon="-2.21089">
        <ele>50.5</ele>
        <time>2021-05-27T14:47:12Z</time>
      </trkpt>
      <trkpt lat="47.69254" lon="-2.21085">
        <ele>50.5</ele>
        <time>2021-05-27T14:47:13Z</time>
      </trkpt>
      <trkpt lat="47.69254" lon="-2.21081">
        <ele>50.5</ele>
        <time>2021-05-27T14:47:14Z</time>
      </trkpt>
      <trkpt lat="47.69254" lon="-2.21076">
        <ele>50.5</ele>
        <time>2021-05-27T14:47:15Z</time>
      </trkpt>
      <trkpt lat="47.69253" lon="-2.21071">
        <ele>50.7</ele>
        <time>2021-05-27T14:47:16Z</time>
      </trkpt>
      <trkpt lat="47.69252" lon="-2.21066">
        <ele>51</ele>
        <time>2021-05-27T14:47:17Z</time>
      </trkpt>
      <trkpt lat="47.69251" lon="-2.21062">
        <ele>51.3</ele>
        <time>2021-05-27T14:47:18Z</time>
      </trkpt>
      <trkpt lat="47.6925" lon="-2.21058">
        <ele>51.4</ele>
        <time>2021-05-27T14:47:19Z</time>
      </trkpt>
      <trkpt lat="47.6925" lon="-2.21054">
        <ele>51.3</ele>
        <time>2021-05-27T14:47:20Z</time>
      </trkpt>
      <trkpt lat="47.69248" lon="-2.21051">
        <ele>51.4</ele>
        <time>2021-05-27T14:47:21Z</time>
      </trkpt>
      <trkpt lat="47.69248" lon="-2.21047">
        <ele>51.3</ele>
        <time>2021-05-27T14:47:22Z</time>
      </trkpt>
      <trkpt lat="47.69247" lon="-2.21043">
        <ele>51.3</ele>
        <time>2021-05-27T14:47:23Z</time>
      </trkpt>
      <trkpt lat="47.69246" lon="-2.2104">
        <ele>51.4</ele>
        <time>2021-05-27T14:47:24Z</time>
      </trkpt>
      <trkpt lat="47.69245" lon="-2.21036">
        <ele>51.4</ele>
        <time>2021-05-27T14:47:25Z</time>
      </trkpt>
      <trkpt lat="47.69244" lon="-2.21034">
        <ele>51.4</ele>
        <time>2021-05-27T14:47:26Z</time>
      </trkpt>
      <trkpt lat="47.69244" lon="-2.21031">
        <ele>51.4</ele>
        <time>2021-05-27T14:47:27Z</time>
      </trkpt>
      <trkpt lat="47.69245" lon="-2.21027">
        <ele>51.2</ele>
        <time>2021-05-27T14:47:28Z</time>
      </trkpt>
      <trkpt lat="47.69244" lon="-2.21023">
        <ele>51.2</ele>
        <time>2021-05-27T14:47:29Z</time>
      </trkpt>
      <trkpt lat="47.69244" lon="-2.21018">
        <ele>51.1</ele>
        <time>2021-05-27T14:47:30Z</time>
      </trkpt>
      <trkpt lat="47.69244" lon="-2.21015">
        <ele>51</ele>
        <time>2021-05-27T14:47:31Z</time>
      </trkpt>
      <trkpt lat="47.69244" lon="-2.21011">
        <ele>51</ele>
        <time>2021-05-27T14:47:32Z</time>
      </trkpt>
      <trkpt lat="47.69244" lon="-2.21007">
        <ele>50.9</ele>
        <time>2021-05-27T14:47:33Z</time>
      </trkpt>
      <trkpt lat="47.69243" lon="-2.21005">
        <ele>50.9</ele>
        <time>2021-05-27T14:47:34Z</time>
      </trkpt>
      <trkpt lat="47.69243" lon="-2.21003">
        <ele>50.9</ele>
        <time>2021-05-27T14:47:35Z</time>
      </trkpt>
      <trkpt lat="47.69241" lon="-2.21001">
        <ele>51.1</ele>
        <time>2021-05-27T14:47:36Z</time>
      </trkpt>
      <trkpt lat="47.69241" lon="-2.20999">
        <ele>51</ele>
        <time>2021-05-27T14:47:37Z</time>
      </trkpt>
      <trkpt lat="47.69241" lon="-2.20997">
        <ele>50.9</ele>
        <time>2021-05-27T14:47:38Z</time>
      </trkpt>
      <trkpt lat="47.69241" lon="-2.20995">
        <ele>50.9</ele>
        <time>2021-05-27T14:47:39Z</time>
      </trkpt>
      <trkpt lat="47.6924" lon="-2.20994">
        <ele>50.9</ele>
        <time>2021-05-27T14:47:40Z</time>
      </trkpt>
      <trkpt lat="47.6924" lon="-2.20992">
        <ele>50.8</ele>
        <time>2021-05-27T14:47:41Z</time>
      </trkpt>
      <trkpt lat="47.6924" lon="-2.20991">
        <ele>50.8</ele>
        <time>2021-05-27T14:47:42Z</time>
      </trkpt>
      <trkpt lat="47.6924" lon="-2.20991">
        <ele>50.8</ele>
        <time>2021-05-27T14:47:43Z</time>
      </trkpt>
      <trkpt lat="47.6924" lon="-2.20991">
        <ele>50.8</ele>
        <time>2021-05-27T14:47:44Z</time>
      </trkpt>
      <trkpt lat="47.6924" lon="-2.20991">
        <ele>50.8</ele>
        <time>2021-05-27T14:47:45Z</time>
      </trkpt>
      <trkpt lat="47.6924" lon="-2.20991">
        <ele>50.8</ele>
        <time>2021-05-27T14:47:46Z</time>
      </trkpt>
      <trkpt lat="47.6924" lon="-2.20991">
        <ele>50.8</ele>
        <time>2021-05-27T14:47:47Z</time>
      </trkpt>
      <trkpt lat="47.6924" lon="-2.20991">
        <ele>50.8</ele>
        <time>2021-05-27T14:47:48Z</time>
      </trkpt>
      <trkpt lat="47.6924" lon="-2.20991">
        <ele>50.8</ele>
        <time>2021-05-27T14:47:49Z</time>
      </trkpt>
      <trkpt lat="47.6924" lon="-2.20991">
        <ele>50.8</ele>
        <time>2021-05-27T14:47:50Z</time>
      </trkpt>
      <trkpt lat="47.6924" lon="-2.20991">
        <ele>50.8</ele>
        <time>2021-05-27T14:47:51Z</time>
      </trkpt>
      <trkpt lat="47.6924" lon="-2.20991">
        <ele>50.8</ele>
        <time>2021-05-27T14:47:52Z</time>
      </trkpt>
      <trkpt lat="47.6924" lon="-2.20991">
        <ele>50.8</ele>
        <time>2021-05-27T14:47:53Z</time>
      </trkpt>
      <trkpt lat="47.6924" lon="-2.20991">
        <ele>50.8</ele>
        <time>2021-05-27T14:47:54Z</time>
      </trkpt>
      <trkpt lat="47.6924" lon="-2.20991">
        <ele>50.8</ele>
        <time>2021-05-27T14:47:55Z</time>
      </trkpt>
      <trkpt lat="47.6924" lon="-2.20991">
        <ele>50.8</ele>
        <time>2021-05-27T14:47:56Z</time>
      </trkpt>
      <trkpt lat="47.6924" lon="-2.20991">
        <ele>50.8</ele>
        <time>2021-05-27T14:47:57Z</time>
      </trkpt>
      <trkpt lat="47.6924" lon="-2.20991">
        <ele>50.8</ele>
        <time>2021-05-27T14:47:58Z</time>
      </trkpt>
      <trkpt lat="47.6924" lon="-2.20991">
        <ele>50.8</ele>
        <time>2021-05-27T14:47:59Z</time>
      </trkpt>
      <trkpt lat="47.6924" lon="-2.20991">
        <ele>50.8</ele>
        <time>2021-05-27T14:48:00Z</time>
      </trkpt>
      <trkpt lat="47.6924" lon="-2.20991">
        <ele>50.8</ele>
        <time>2021-05-27T14:48:01Z</time>
      </trkpt>
      <trkpt lat="47.6924" lon="-2.20991">
        <ele>50.8</ele>
        <time>2021-05-27T14:48:02Z</time>
      </trkpt>
      <trkpt lat="47.6924" lon="-2.20991">
        <ele>50.8</ele>
        <time>2021-05-27T14:48:03Z</time>
      </trkpt>
      <trkpt lat="47.6924" lon="-2.20991">
        <ele>50.8</ele>
        <time>2021-05-27T14:48:04Z</time>
      </trkpt>
      <trkpt lat="47.6924" lon="-2.20991">
        <ele>50.8</ele>
        <time>2021-05-27T14:48:05Z</time>
      </trkpt>
      <trkpt lat="47.6924" lon="-2.20991">
        <ele>50.8</ele>
        <time>2021-05-27T14:48:06Z</time>
      </trkpt>
      <trkpt lat="47.6924" lon="-2.20991">
        <ele>50.8</ele>
        <time>2021-05-27T14:48:07Z</time>
      </trkpt>
      <trkpt lat="47.6924" lon="-2.20991">
        <ele>50.8</ele>
        <time>2021-05-27T14:48:08Z</time>
      </trkpt>
      <trkpt lat="47.6924" lon="-2.20991">
        <ele>50.8</ele>
        <time>2021-05-27T14:48:09Z</time>
      </trkpt>
      <trkpt lat="47.6924" lon="-2.20991">
        <ele>50.8</ele>
        <time>2021-05-27T14:48:10Z</time>
      </trkpt>
      <trkpt lat="47.6924" lon="-2.20991">
        <ele>50.8</ele>
        <time>2021-05-27T14:48:11Z</time>
      </trkpt>
      <trkpt lat="47.6924" lon="-2.20991">
        <ele>50.8</ele>
        <time>2021-05-27T14:48:12Z</time>
      </trkpt>
      <trkpt lat="47.69239" lon="-2.20993">
        <ele>51</ele>
        <time>2021-05-27T14:48:13Z</time>
      </trkpt>
      <trkpt lat="47.69238" lon="-2.20994">
        <ele>51.2</ele>
        <time>2021-05-27T14:48:14Z</time>
      </trkpt>
      <trkpt lat="47.69238" lon="-2.20996">
        <ele>51.3</ele>
        <time>2021-05-27T14:48:15Z</time>
      </trkpt>
      <trkpt lat="47.69237" lon="-2.20998">
        <ele>51.5</ele>
        <time>2021-05-27T14:48:16Z</time>
      </trkpt>
      <trkpt lat="47.69236" lon="-2.21002">
        <ele>51.7</ele>
        <time>2021-05-27T14:48:17Z</time>
      </trkpt>
      <trkpt lat="47.69235" lon="-2.21004">
        <ele>51.9</ele>
        <time>2021-05-27T14:48:18Z</time>
      </trkpt>
      <trkpt lat="47.69233" lon="-2.21007">
        <ele>52.1</ele>
        <time>2021-05-27T14:48:19Z</time>
      </trkpt>
      <trkpt lat="47.69232" lon="-2.21009">
        <ele>52.3</ele>
        <time>2021-05-27T14:48:20Z</time>
      </trkpt>
      <trkpt lat="47.69231" lon="-2.21011">
        <ele>52.5</ele>
        <time>2021-05-27T14:48:21Z</time>
      </trkpt>
      <trkpt lat="47.69231" lon="-2.21013">
        <ele>52.6</ele>
        <time>2021-05-27T14:48:22Z</time>
      </trkpt>
      <trkpt lat="47.6923" lon="-2.21015">
        <ele>52.6</ele>
        <time>2021-05-27T14:48:23Z</time>
      </trkpt>
      <trkpt lat="47.69231" lon="-2.21019">
        <ele>52.7</ele>
        <time>2021-05-27T14:48:24Z</time>
      </trkpt>
      <trkpt lat="47.69231" lon="-2.21021">
        <ele>52.7</ele>
        <time>2021-05-27T14:48:25Z</time>
      </trkpt>
      <trkpt lat="47.69232" lon="-2.21023">
        <ele>52.6</ele>
        <time>2021-05-27T14:48:26Z</time>
      </trkpt>
      <trkpt lat="47.69232" lon="-2.21025">
        <ele>52.6</ele>
        <time>2021-05-27T14:48:27Z</time>
      </trkpt>
      <trkpt lat="47.69232" lon="-2.21027">
        <ele>52.6</ele>
        <time>2021-05-27T14:48:28Z</time>
      </trkpt>
      <trkpt lat="47.69232" lon="-2.21029">
        <ele>52.6</ele>
        <time>2021-05-27T14:48:29Z</time>
      </trkpt>
      <trkpt lat="47.69233" lon="-2.2103">
        <ele>52.6</ele>
        <time>2021-05-27T14:48:30Z</time>
      </trkpt>
      <trkpt lat="47.69233" lon="-2.21031">
        <ele>52.6</ele>
        <time>2021-05-27T14:48:31Z</time>
      </trkpt>
      <trkpt lat="47.69234" lon="-2.21033">
        <ele>52.6</ele>
        <time>2021-05-27T14:48:32Z</time>
      </trkpt>
      <trkpt lat="47.69233" lon="-2.21035">
        <ele>52.7</ele>
        <time>2021-05-27T14:48:33Z</time>
      </trkpt>
      <trkpt lat="47.69232" lon="-2.21037">
        <ele>52.8</ele>
        <time>2021-05-27T14:48:34Z</time>
      </trkpt>
      <trkpt lat="47.69231" lon="-2.21039">
        <ele>53.1</ele>
        <time>2021-05-27T14:48:35Z</time>
      </trkpt>
      <trkpt lat="47.69229" lon="-2.21041">
        <ele>53.2</ele>
        <time>2021-05-27T14:48:36Z</time>
      </trkpt>
      <trkpt lat="47.69228" lon="-2.21044">
        <ele>53.4</ele>
        <time>2021-05-27T14:48:37Z</time>
      </trkpt>
      <trkpt lat="47.69228" lon="-2.21047">
        <ele>53.5</ele>
        <time>2021-05-27T14:48:38Z</time>
      </trkpt>
      <trkpt lat="47.69227" lon="-2.21049">
        <ele>53.6</ele>
        <time>2021-05-27T14:48:39Z</time>
      </trkpt>
      <trkpt lat="47.69225" lon="-2.21051">
        <ele>53.8</ele>
        <time>2021-05-27T14:48:40Z</time>
      </trkpt>
      <trkpt lat="47.69224" lon="-2.21053">
        <ele>54</ele>
        <time>2021-05-27T14:48:41Z</time>
      </trkpt>
      <trkpt lat="47.69223" lon="-2.21054">
        <ele>54.1</ele>
        <time>2021-05-27T14:48:42Z</time>
      </trkpt>
      <trkpt lat="47.69222" lon="-2.21055">
        <ele>54.2</ele>
        <time>2021-05-27T14:48:43Z</time>
      </trkpt>
      <trkpt lat="47.69223" lon="-2.21057">
        <ele>54.2</ele>
        <time>2021-05-27T14:48:44Z</time>
      </trkpt>
      <trkpt lat="47.69223" lon="-2.21058">
        <ele>54.2</ele>
        <time>2021-05-27T14:48:45Z</time>
      </trkpt>
      <trkpt lat="47.69222" lon="-2.2106">
        <ele>54.3</ele>
        <time>2021-05-27T14:48:46Z</time>
      </trkpt>
      <trkpt lat="47.69222" lon="-2.2106">
        <ele>54.3</ele>
        <time>2021-05-27T14:48:47Z</time>
      </trkpt>
      <trkpt lat="47.69222" lon="-2.2106">
        <ele>54.3</ele>
        <time>2021-05-27T14:48:48Z</time>
      </trkpt>
      <trkpt lat="47.69222" lon="-2.2106">
        <ele>54.3</ele>
        <time>2021-05-27T14:48:49Z</time>
      </trkpt>
      <trkpt lat="47.69222" lon="-2.2106">
        <ele>54.3</ele>
        <time>2021-05-27T14:48:50Z</time>
      </trkpt>
      <trkpt lat="47.69222" lon="-2.2106">
        <ele>54.3</ele>
        <time>2021-05-27T14:48:51Z</time>
      </trkpt>
      <trkpt lat="47.69224" lon="-2.21065">
        <ele>54.2</ele>
        <time>2021-05-27T14:48:52Z</time>
      </trkpt>
      <trkpt lat="47.69224" lon="-2.21068">
        <ele>54.2</ele>
        <time>2021-05-27T14:48:53Z</time>
      </trkpt>
      <trkpt lat="47.69225" lon="-2.21071">
        <ele>54.2</ele>
        <time>2021-05-27T14:48:54Z</time>
      </trkpt>
      <trkpt lat="47.69225" lon="-2.21074">
        <ele>54.3</ele>
        <time>2021-05-27T14:48:55Z</time>
      </trkpt>
      <trkpt lat="47.69226" lon="-2.21078">
        <ele>54.2</ele>
        <time>2021-05-27T14:48:56Z</time>
      </trkpt>
      <trkpt lat="47.69226" lon="-2.2108">
        <ele>54.2</ele>
        <time>2021-05-27T14:48:57Z</time>
      </trkpt>
      <trkpt lat="47.69227" lon="-2.21083">
        <ele>54.2</ele>
        <time>2021-05-27T14:48:58Z</time>
      </trkpt>
      <trkpt lat="47.69227" lon="-2.21086">
        <ele>54.2</ele>
        <time>2021-05-27T14:48:59Z</time>
      </trkpt>
      <trkpt lat="47.69227" lon="-2.2109">
        <ele>54.3</ele>
        <time>2021-05-27T14:49:00Z</time>
      </trkpt>
      <trkpt lat="47.69227" lon="-2.21093">
        <ele>54.4</ele>
        <time>2021-05-27T14:49:01Z</time>
      </trkpt>
      <trkpt lat="47.69227" lon="-2.21096">
        <ele>54.4</ele>
        <time>2021-05-27T14:49:02Z</time>
      </trkpt>
      <trkpt lat="47.69227" lon="-2.21099">
        <ele>54.5</ele>
        <time>2021-05-27T14:49:03Z</time>
      </trkpt>
      <trkpt lat="47.69227" lon="-2.21102">
        <ele>54.5</ele>
        <time>2021-05-27T14:49:04Z</time>
      </trkpt>
      <trkpt lat="47.69228" lon="-2.21104">
        <ele>54.5</ele>
        <time>2021-05-27T14:49:05Z</time>
      </trkpt>
      <trkpt lat="47.69228" lon="-2.21107">
        <ele>54.5</ele>
        <time>2021-05-27T14:49:06Z</time>
      </trkpt>
      <trkpt lat="47.69228" lon="-2.2111">
        <ele>54.6</ele>
        <time>2021-05-27T14:49:07Z</time>
      </trkpt>
      <trkpt lat="47.69228" lon="-2.21113">
        <ele>54.7</ele>
        <time>2021-05-27T14:49:08Z</time>
      </trkpt>
      <trkpt lat="47.69228" lon="-2.21117">
        <ele>54.8</ele>
        <time>2021-05-27T14:49:09Z</time>
      </trkpt>
      <trkpt lat="47.69227" lon="-2.21121">
        <ele>54.8</ele>
        <time>2021-05-27T14:49:10Z</time>
      </trkpt>
      <trkpt lat="47.69228" lon="-2.21125">
        <ele>54.9</ele>
        <time>2021-05-27T14:49:11Z</time>
      </trkpt>
      <trkpt lat="47.69229" lon="-2.21129">
        <ele>54.8</ele>
        <time>2021-05-27T14:49:12Z</time>
      </trkpt>
      <trkpt lat="47.6923" lon="-2.21131">
        <ele>54.8</ele>
        <time>2021-05-27T14:49:13Z</time>
      </trkpt>
      <trkpt lat="47.69231" lon="-2.21133">
        <ele>54.7</ele>
        <time>2021-05-27T14:49:14Z</time>
      </trkpt>
      <trkpt lat="47.69232" lon="-2.21133">
        <ele>54.7</ele>
        <time>2021-05-27T14:49:15Z</time>
      </trkpt>
      <trkpt lat="47.69233" lon="-2.21134">
        <ele>54.6</ele>
        <time>2021-05-27T14:49:16Z</time>
      </trkpt>
      <trkpt lat="47.69233" lon="-2.21134">
        <ele>54.6</ele>
        <time>2021-05-27T14:49:17Z</time>
      </trkpt>
      <trkpt lat="47.69233" lon="-2.21134">
        <ele>54.6</ele>
        <time>2021-05-27T14:49:18Z</time>
      </trkpt>
      <trkpt lat="47.69233" lon="-2.21134">
        <ele>54.6</ele>
        <time>2021-05-27T14:49:19Z</time>
      </trkpt>
      <trkpt lat="47.69233" lon="-2.21134">
        <ele>54.6</ele>
        <time>2021-05-27T14:49:20Z</time>
      </trkpt>
      <trkpt lat="47.69233" lon="-2.21134">
        <ele>54.6</ele>
        <time>2021-05-27T14:49:21Z</time>
      </trkpt>
      <trkpt lat="47.69233" lon="-2.21134">
        <ele>54.6</ele>
        <time>2021-05-27T14:49:22Z</time>
      </trkpt>
      <trkpt lat="47.69233" lon="-2.21134">
        <ele>54.6</ele>
        <time>2021-05-27T14:49:23Z</time>
      </trkpt>
      <trkpt lat="47.69233" lon="-2.21134">
        <ele>54.6</ele>
        <time>2021-05-27T14:49:24Z</time>
      </trkpt>
      <trkpt lat="47.69233" lon="-2.21134">
        <ele>54.6</ele>
        <time>2021-05-27T14:49:25Z</time>
      </trkpt>
      <trkpt lat="47.69233" lon="-2.21134">
        <ele>54.6</ele>
        <time>2021-05-27T14:49:26Z</time>
      </trkpt>
      <trkpt lat="47.69233" lon="-2.21134">
        <ele>54.6</ele>
        <time>2021-05-27T14:49:27Z</time>
      </trkpt>
      <trkpt lat="47.6924" lon="-2.21141">
        <ele>54.2</ele>
        <time>2021-05-27T14:49:28Z</time>
      </trkpt>
      <trkpt lat="47.6924" lon="-2.21144">
        <ele>54.2</ele>
        <time>2021-05-27T14:49:29Z</time>
      </trkpt>
      <trkpt lat="47.69241" lon="-2.21148">
        <ele>54.3</ele>
        <time>2021-05-27T14:49:30Z</time>
      </trkpt>
      <trkpt lat="47.69241" lon="-2.2115">
        <ele>54.3</ele>
        <time>2021-05-27T14:49:31Z</time>
      </trkpt>
      <trkpt lat="47.6924" lon="-2.21154">
        <ele>54.4</ele>
        <time>2021-05-27T14:49:32Z</time>
      </trkpt>
      <trkpt lat="47.69239" lon="-2.21156">
        <ele>54.6</ele>
        <time>2021-05-27T14:49:33Z</time>
      </trkpt>
      <trkpt lat="47.69238" lon="-2.21158">
        <ele>54.7</ele>
        <time>2021-05-27T14:49:34Z</time>
      </trkpt>
      <trkpt lat="47.69236" lon="-2.2116">
        <ele>54.9</ele>
        <time>2021-05-27T14:49:35Z</time>
      </trkpt>
      <trkpt lat="47.69235" lon="-2.21163">
        <ele>55</ele>
        <time>2021-05-27T14:49:36Z</time>
      </trkpt>
      <trkpt lat="47.69234" lon="-2.21166">
        <ele>55.2</ele>
        <time>2021-05-27T14:49:37Z</time>
      </trkpt>
      <trkpt lat="47.69233" lon="-2.2117">
        <ele>55.4</ele>
        <time>2021-05-27T14:49:38Z</time>
      </trkpt>
      <trkpt lat="47.69232" lon="-2.21175">
        <ele>55.6</ele>
        <time>2021-05-27T14:49:39Z</time>
      </trkpt>
      <trkpt lat="47.69231" lon="-2.21179">
        <ele>55.8</ele>
        <time>2021-05-27T14:49:40Z</time>
      </trkpt>
      <trkpt lat="47.69231" lon="-2.21182">
        <ele>55.9</ele>
        <time>2021-05-27T14:49:41Z</time>
      </trkpt>
      <trkpt lat="47.6923" lon="-2.21186">
        <ele>56.1</ele>
        <time>2021-05-27T14:49:42Z</time>
      </trkpt>
      <trkpt lat="47.6923" lon="-2.2119">
        <ele>56.2</ele>
        <time>2021-05-27T14:49:43Z</time>
      </trkpt>
      <trkpt lat="47.6923" lon="-2.21193">
        <ele>56.3</ele>
        <time>2021-05-27T14:49:44Z</time>
      </trkpt>
      <trkpt lat="47.6923" lon="-2.21197">
        <ele>56.4</ele>
        <time>2021-05-27T14:49:45Z</time>
      </trkpt>
      <trkpt lat="47.6923" lon="-2.212">
        <ele>56.6</ele>
        <time>2021-05-27T14:49:46Z</time>
      </trkpt>
      <trkpt lat="47.69231" lon="-2.21204">
        <ele>56.7</ele>
        <time>2021-05-27T14:49:47Z</time>
      </trkpt>
      <trkpt lat="47.69231" lon="-2.21208">
        <ele>56.8</ele>
        <time>2021-05-27T14:49:48Z</time>
      </trkpt>
      <trkpt lat="47.69231" lon="-2.21211">
        <ele>56.9</ele>
        <time>2021-05-27T14:49:49Z</time>
      </trkpt>
      <trkpt lat="47.69231" lon="-2.21214">
        <ele>57</ele>
        <time>2021-05-27T14:49:50Z</time>
      </trkpt>
      <trkpt lat="47.69232" lon="-2.21216">
        <ele>57</ele>
        <time>2021-05-27T14:49:51Z</time>
      </trkpt>
      <trkpt lat="47.69233" lon="-2.21221">
        <ele>57.1</ele>
        <time>2021-05-27T14:49:52Z</time>
      </trkpt>
      <trkpt lat="47.69234" lon="-2.21225">
        <ele>57.3</ele>
        <time>2021-05-27T14:49:53Z</time>
      </trkpt>
      <trkpt lat="47.69234" lon="-2.2123">
        <ele>57.5</ele>
        <time>2021-05-27T14:49:54Z</time>
      </trkpt>
      <trkpt lat="47.69233" lon="-2.21233">
        <ele>57.6</ele>
        <time>2021-05-27T14:49:55Z</time>
      </trkpt>
      <trkpt lat="47.69233" lon="-2.21237">
        <ele>57.7</ele>
        <time>2021-05-27T14:49:56Z</time>
      </trkpt>
      <trkpt lat="47.69233" lon="-2.21241">
        <ele>57.9</ele>
        <time>2021-05-27T14:49:57Z</time>
      </trkpt>
      <trkpt lat="47.69232" lon="-2.21245">
        <ele>58</ele>
        <time>2021-05-27T14:49:58Z</time>
      </trkpt>
      <trkpt lat="47.69232" lon="-2.21248">
        <ele>58.1</ele>
        <time>2021-05-27T14:49:59Z</time>
      </trkpt>
      <trkpt lat="47.69232" lon="-2.21251">
        <ele>58.3</ele>
        <time>2021-05-27T14:50:00Z</time>
      </trkpt>
      <trkpt lat="47.69231" lon="-2.21255">
        <ele>58.4</ele>
        <time>2021-05-27T14:50:01Z</time>
      </trkpt>
      <trkpt lat="47.69231" lon="-2.21259">
        <ele>58.6</ele>
        <time>2021-05-27T14:50:02Z</time>
      </trkpt>
      <trkpt lat="47.69231" lon="-2.21264">
        <ele>58.8</ele>
        <time>2021-05-27T14:50:03Z</time>
      </trkpt>
      <trkpt lat="47.69231" lon="-2.21269">
        <ele>59</ele>
        <time>2021-05-27T14:50:04Z</time>
      </trkpt>
      <trkpt lat="47.69232" lon="-2.21274">
        <ele>59.2</ele>
        <time>2021-05-27T14:50:05Z</time>
      </trkpt>
      <trkpt lat="47.69232" lon="-2.21278">
        <ele>59.3</ele>
        <time>2021-05-27T14:50:06Z</time>
      </trkpt>
      <trkpt lat="47.69232" lon="-2.21281">
        <ele>59.5</ele>
        <time>2021-05-27T14:50:07Z</time>
      </trkpt>
      <trkpt lat="47.69232" lon="-2.21283">
        <ele>59.5</ele>
        <time>2021-05-27T14:50:08Z</time>
      </trkpt>
      <trkpt lat="47.69232" lon="-2.21287">
        <ele>59.7</ele>
        <time>2021-05-27T14:50:09Z</time>
      </trkpt>
      <trkpt lat="47.69232" lon="-2.2129">
        <ele>59.8</ele>
        <time>2021-05-27T14:50:10Z</time>
      </trkpt>
      <trkpt lat="47.69233" lon="-2.21296">
        <ele>60.1</ele>
        <time>2021-05-27T14:50:11Z</time>
      </trkpt>
      <trkpt lat="47.69233" lon="-2.21301">
        <ele>60.3</ele>
        <time>2021-05-27T14:50:12Z</time>
      </trkpt>
      <trkpt lat="47.69234" lon="-2.21306">
        <ele>60.5</ele>
        <time>2021-05-27T14:50:13Z</time>
      </trkpt>
      <trkpt lat="47.69234" lon="-2.21312">
        <ele>60.7</ele>
        <time>2021-05-27T14:50:14Z</time>
      </trkpt>
      <trkpt lat="47.69236" lon="-2.21317">
        <ele>61</ele>
        <time>2021-05-27T14:50:15Z</time>
      </trkpt>
      <trkpt lat="47.69237" lon="-2.21323">
        <ele>61.2</ele>
        <time>2021-05-27T14:50:16Z</time>
      </trkpt>
      <trkpt lat="47.69238" lon="-2.21327">
        <ele>61.4</ele>
        <time>2021-05-27T14:50:17Z</time>
      </trkpt>
      <trkpt lat="47.69239" lon="-2.21332">
        <ele>61.7</ele>
        <time>2021-05-27T14:50:18Z</time>
      </trkpt>
      <trkpt lat="47.6924" lon="-2.21338">
        <ele>61.9</ele>
        <time>2021-05-27T14:50:19Z</time>
      </trkpt>
      <trkpt lat="47.69241" lon="-2.21343">
        <ele>62.1</ele>
        <time>2021-05-27T14:50:20Z</time>
      </trkpt>
      <trkpt lat="47.69242" lon="-2.21347">
        <ele>62.3</ele>
        <time>2021-05-27T14:50:21Z</time>
      </trkpt>
      <trkpt lat="47.69243" lon="-2.21351">
        <ele>62.4</ele>
        <time>2021-05-27T14:50:22Z</time>
      </trkpt>
      <trkpt lat="47.69244" lon="-2.21355">
        <ele>62.6</ele>
        <time>2021-05-27T14:50:23Z</time>
      </trkpt>
      <trkpt lat="47.69244" lon="-2.21359">
        <ele>62.7</ele>
        <time>2021-05-27T14:50:24Z</time>
      </trkpt>
      <trkpt lat="47.69244" lon="-2.21362">
        <ele>62.8</ele>
        <time>2021-05-27T14:50:25Z</time>
      </trkpt>
      <trkpt lat="47.69245" lon="-2.21366">
        <ele>63</ele>
        <time>2021-05-27T14:50:26Z</time>
      </trkpt>
      <trkpt lat="47.69245" lon="-2.21369">
        <ele>63.1</ele>
        <time>2021-05-27T14:50:27Z</time>
      </trkpt>
      <trkpt lat="47.69245" lon="-2.21373">
        <ele>63.3</ele>
        <time>2021-05-27T14:50:28Z</time>
      </trkpt>
      <trkpt lat="47.69245" lon="-2.21378">
        <ele>63.4</ele>
        <time>2021-05-27T14:50:29Z</time>
      </trkpt>
      <trkpt lat="47.69246" lon="-2.21382">
        <ele>63.6</ele>
        <time>2021-05-27T14:50:30Z</time>
      </trkpt>
      <trkpt lat="47.69246" lon="-2.21387">
        <ele>63.8</ele>
        <time>2021-05-27T14:50:31Z</time>
      </trkpt>
      <trkpt lat="47.69246" lon="-2.21392">
        <ele>64</ele>
        <time>2021-05-27T14:50:32Z</time>
      </trkpt>
      <trkpt lat="47.69246" lon="-2.21398">
        <ele>64.2</ele>
        <time>2021-05-27T14:50:33Z</time>
      </trkpt>
      <trkpt lat="47.69246" lon="-2.21404">
        <ele>64.4</ele>
        <time>2021-05-27T14:50:34Z</time>
      </trkpt>
      <trkpt lat="47.69246" lon="-2.21411">
        <ele>64.6</ele>
        <time>2021-05-27T14:50:35Z</time>
      </trkpt>
      <trkpt lat="47.69247" lon="-2.21416">
        <ele>64.8</ele>
        <time>2021-05-27T14:50:36Z</time>
      </trkpt>
      <trkpt lat="47.69248" lon="-2.21422">
        <ele>64.8</ele>
        <time>2021-05-27T14:50:37Z</time>
      </trkpt>
      <trkpt lat="47.69249" lon="-2.21429">
        <ele>64.7</ele>
        <time>2021-05-27T14:50:38Z</time>
      </trkpt>
      <trkpt lat="47.6925" lon="-2.21435">
        <ele>64.5</ele>
        <time>2021-05-27T14:50:39Z</time>
      </trkpt>
      <trkpt lat="47.69252" lon="-2.21441">
        <ele>63.9</ele>
        <time>2021-05-27T14:50:40Z</time>
      </trkpt>
      <trkpt lat="47.69253" lon="-2.21447">
        <ele>63.4</ele>
        <time>2021-05-27T14:50:41Z</time>
      </trkpt>
      <trkpt lat="47.69254" lon="-2.21452">
        <ele>63.1</ele>
        <time>2021-05-27T14:50:42Z</time>
      </trkpt>
      <trkpt lat="47.69255" lon="-2.21459">
        <ele>62.5</ele>
        <time>2021-05-27T14:50:43Z</time>
      </trkpt>
      <trkpt lat="47.69257" lon="-2.21465">
        <ele>61.9</ele>
        <time>2021-05-27T14:50:44Z</time>
      </trkpt>
      <trkpt lat="47.69258" lon="-2.21471">
        <ele>61.4</ele>
        <time>2021-05-27T14:50:45Z</time>
      </trkpt>
      <trkpt lat="47.69259" lon="-2.21477">
        <ele>61.1</ele>
        <time>2021-05-27T14:50:46Z</time>
      </trkpt>
      <trkpt lat="47.69261" lon="-2.21483">
        <ele>60.7</ele>
        <time>2021-05-27T14:50:47Z</time>
      </trkpt>
      <trkpt lat="47.69262" lon="-2.21488">
        <ele>60.3</ele>
        <time>2021-05-27T14:50:48Z</time>
      </trkpt>
      <trkpt lat="47.69263" lon="-2.21493">
        <ele>59.9</ele>
        <time>2021-05-27T14:50:49Z</time>
      </trkpt>
      <trkpt lat="47.69265" lon="-2.215">
        <ele>59.4</ele>
        <time>2021-05-27T14:50:50Z</time>
      </trkpt>
      <trkpt lat="47.69266" lon="-2.21507">
        <ele>58.9</ele>
        <time>2021-05-27T14:50:51Z</time>
      </trkpt>
      <trkpt lat="47.69267" lon="-2.21513">
        <ele>58.4</ele>
        <time>2021-05-27T14:50:52Z</time>
      </trkpt>
      <trkpt lat="47.69268" lon="-2.21518">
        <ele>58</ele>
        <time>2021-05-27T14:50:53Z</time>
      </trkpt>
      <trkpt lat="47.6927" lon="-2.21522">
        <ele>57.6</ele>
        <time>2021-05-27T14:50:54Z</time>
      </trkpt>
      <trkpt lat="47.6927" lon="-2.21525">
        <ele>57.3</ele>
        <time>2021-05-27T14:50:55Z</time>
      </trkpt>
      <trkpt lat="47.69271" lon="-2.21527">
        <ele>57.2</ele>
        <time>2021-05-27T14:50:56Z</time>
      </trkpt>
      <trkpt lat="47.6927" lon="-2.21528">
        <ele>57.2</ele>
        <time>2021-05-27T14:50:57Z</time>
      </trkpt>
      <trkpt lat="47.6927" lon="-2.21528">
        <ele>57.3</ele>
        <time>2021-05-27T14:50:58Z</time>
      </trkpt>
      <trkpt lat="47.6927" lon="-2.21528">
        <ele>57.3</ele>
        <time>2021-05-27T14:50:59Z</time>
      </trkpt>
      <trkpt lat="47.6927" lon="-2.21528">
        <ele>57.3</ele>
        <time>2021-05-27T14:51:00Z</time>
      </trkpt>
      <trkpt lat="47.6927" lon="-2.21528">
        <ele>57.3</ele>
        <time>2021-05-27T14:51:01Z</time>
      </trkpt>
      <trkpt lat="47.6927" lon="-2.21528">
        <ele>57.3</ele>
        <time>2021-05-27T14:51:02Z</time>
      </trkpt>
      <trkpt lat="47.6927" lon="-2.21528">
        <ele>57.3</ele>
        <time>2021-05-27T14:51:03Z</time>
      </trkpt>
      <trkpt lat="47.69264" lon="-2.21523">
        <ele>58.9</ele>
        <time>2021-05-27T14:51:04Z</time>
      </trkpt>
      <trkpt lat="47.69262" lon="-2.21522">
        <ele>59.3</ele>
        <time>2021-05-27T14:51:05Z</time>
      </trkpt>
      <trkpt lat="47.6926" lon="-2.21521">
        <ele>59.7</ele>
        <time>2021-05-27T14:51:06Z</time>
      </trkpt>
      <trkpt lat="47.69258" lon="-2.21521">
        <ele>60.2</ele>
        <time>2021-05-27T14:51:07Z</time>
      </trkpt>
      <trkpt lat="47.69256" lon="-2.2152">
        <ele>60.8</ele>
        <time>2021-05-27T14:51:08Z</time>
      </trkpt>
      <trkpt lat="47.69254" lon="-2.2152">
        <ele>61</ele>
        <time>2021-05-27T14:51:09Z</time>
      </trkpt>
      <trkpt lat="47.69253" lon="-2.21517">
        <ele>61.4</ele>
        <time>2021-05-27T14:51:10Z</time>
      </trkpt>
      <trkpt lat="47.69252" lon="-2.21515">
        <ele>61.7</ele>
        <time>2021-05-27T14:51:11Z</time>
      </trkpt>
      <trkpt lat="47.69251" lon="-2.21513">
        <ele>62.1</ele>
        <time>2021-05-27T14:51:12Z</time>
      </trkpt>
      <trkpt lat="47.6925" lon="-2.2151">
        <ele>62.5</ele>
        <time>2021-05-27T14:51:13Z</time>
      </trkpt>
      <trkpt lat="47.6925" lon="-2.21506">
        <ele>62.7</ele>
        <time>2021-05-27T14:51:14Z</time>
      </trkpt>
      <trkpt lat="47.6925" lon="-2.21503">
        <ele>62.8</ele>
        <time>2021-05-27T14:51:15Z</time>
      </trkpt>
      <trkpt lat="47.6925" lon="-2.21498">
        <ele>63</ele>
        <time>2021-05-27T14:51:16Z</time>
      </trkpt>
      <trkpt lat="47.6925" lon="-2.21495">
        <ele>63.1</ele>
        <time>2021-05-27T14:51:17Z</time>
      </trkpt>
      <trkpt lat="47.6925" lon="-2.21491">
        <ele>63.2</ele>
        <time>2021-05-27T14:51:18Z</time>
      </trkpt>
      <trkpt lat="47.69248" lon="-2.21488">
        <ele>63.2</ele>
        <time>2021-05-27T14:51:19Z</time>
      </trkpt>
      <trkpt lat="47.69247" lon="-2.21485">
        <ele>63.3</ele>
        <time>2021-05-27T14:51:20Z</time>
      </trkpt>
      <trkpt lat="47.69246" lon="-2.21481">
        <ele>63.3</ele>
        <time>2021-05-27T14:51:21Z</time>
      </trkpt>
      <trkpt lat="47.69245" lon="-2.21478">
        <ele>63.3</ele>
        <time>2021-05-27T14:51:22Z</time>
      </trkpt>
      <trkpt lat="47.69244" lon="-2.21475">
        <ele>63.4</ele>
        <time>2021-05-27T14:51:23Z</time>
      </trkpt>
      <trkpt lat="47.69242" lon="-2.21471">
        <ele>63.4</ele>
        <time>2021-05-27T14:51:24Z</time>
      </trkpt>
      <trkpt lat="47.69241" lon="-2.21468">
        <ele>63.4</ele>
        <time>2021-05-27T14:51:25Z</time>
      </trkpt>
      <trkpt lat="47.6924" lon="-2.21464">
        <ele>63.5</ele>
        <time>2021-05-27T14:51:26Z</time>
      </trkpt>
      <trkpt lat="47.6924" lon="-2.21462">
        <ele>63.5</ele>
        <time>2021-05-27T14:51:27Z</time>
      </trkpt>
      <trkpt lat="47.6924" lon="-2.21458">
        <ele>63.6</ele>
        <time>2021-05-27T14:51:28Z</time>
      </trkpt>
      <trkpt lat="47.69239" lon="-2.21454">
        <ele>63.6</ele>
        <time>2021-05-27T14:51:29Z</time>
      </trkpt>
      <trkpt lat="47.69239" lon="-2.21451">
        <ele>63.7</ele>
        <time>2021-05-27T14:51:30Z</time>
      </trkpt>
      <trkpt lat="47.69238" lon="-2.21447">
        <ele>63.8</ele>
        <time>2021-05-27T14:51:31Z</time>
      </trkpt>
      <trkpt lat="47.69238" lon="-2.21442">
        <ele>63.9</ele>
        <time>2021-05-27T14:51:32Z</time>
      </trkpt>
      <trkpt lat="47.69238" lon="-2.21438">
        <ele>63.9</ele>
        <time>2021-05-27T14:51:33Z</time>
      </trkpt>
      <trkpt lat="47.69238" lon="-2.21433">
        <ele>64</ele>
        <time>2021-05-27T14:51:34Z</time>
      </trkpt>
      <trkpt lat="47.69237" lon="-2.21429">
        <ele>64.1</ele>
        <time>2021-05-27T14:51:35Z</time>
      </trkpt>
      <trkpt lat="47.69235" lon="-2.21426">
        <ele>64.1</ele>
        <time>2021-05-27T14:51:36Z</time>
      </trkpt>
      <trkpt lat="47.69235" lon="-2.21423">
        <ele>64.1</ele>
        <time>2021-05-27T14:51:37Z</time>
      </trkpt>
      <trkpt lat="47.69235" lon="-2.21419">
        <ele>64.2</ele>
        <time>2021-05-27T14:51:38Z</time>
      </trkpt>
      <trkpt lat="47.69235" lon="-2.21415">
        <ele>64.2</ele>
        <time>2021-05-27T14:51:39Z</time>
      </trkpt>
      <trkpt lat="47.69236" lon="-2.2141">
        <ele>64.1</ele>
        <time>2021-05-27T14:51:40Z</time>
      </trkpt>
      <trkpt lat="47.69236" lon="-2.21404">
        <ele>63.9</ele>
        <time>2021-05-27T14:51:41Z</time>
      </trkpt>
      <trkpt lat="47.69237" lon="-2.21399">
        <ele>63.8</ele>
        <time>2021-05-27T14:51:42Z</time>
      </trkpt>
      <trkpt lat="47.69237" lon="-2.21395">
        <ele>63.6</ele>
        <time>2021-05-27T14:51:43Z</time>
      </trkpt>
      <trkpt lat="47.69235" lon="-2.21389">
        <ele>63.4</ele>
        <time>2021-05-27T14:51:44Z</time>
      </trkpt>
      <trkpt lat="47.69234" lon="-2.21385">
        <ele>63.2</ele>
        <time>2021-05-27T14:51:45Z</time>
      </trkpt>
      <trkpt lat="47.69234" lon="-2.21381">
        <ele>63.1</ele>
        <time>2021-05-27T14:51:46Z</time>
      </trkpt>
      <trkpt lat="47.69235" lon="-2.21378">
        <ele>63.1</ele>
        <time>2021-05-27T14:51:47Z</time>
      </trkpt>
      <trkpt lat="47.69236" lon="-2.21374">
        <ele>63</ele>
        <time>2021-05-27T14:51:48Z</time>
      </trkpt>
      <trkpt lat="47.69235" lon="-2.21369">
        <ele>62.8</ele>
        <time>2021-05-27T14:51:49Z</time>
      </trkpt>
      <trkpt lat="47.69235" lon="-2.21364">
        <ele>62.6</ele>
        <time>2021-05-27T14:51:50Z</time>
      </trkpt>
      <trkpt lat="47.69234" lon="-2.21361">
        <ele>62.5</ele>
        <time>2021-05-27T14:51:51Z</time>
      </trkpt>
      <trkpt lat="47.69231" lon="-2.21357">
        <ele>62.3</ele>
        <time>2021-05-27T14:51:52Z</time>
      </trkpt>
      <trkpt lat="47.69228" lon="-2.21353">
        <ele>62.1</ele>
        <time>2021-05-27T14:51:53Z</time>
      </trkpt>
      <trkpt lat="47.69226" lon="-2.21348">
        <ele>61.9</ele>
        <time>2021-05-27T14:51:54Z</time>
      </trkpt>
      <trkpt lat="47.69225" lon="-2.21343">
        <ele>61.7</ele>
        <time>2021-05-27T14:51:55Z</time>
      </trkpt>
      <trkpt lat="47.69224" lon="-2.21338">
        <ele>61.5</ele>
        <time>2021-05-27T14:51:56Z</time>
      </trkpt>
      <trkpt lat="47.69223" lon="-2.21333">
        <ele>61.4</ele>
        <time>2021-05-27T14:51:57Z</time>
      </trkpt>
      <trkpt lat="47.69223" lon="-2.21329">
        <ele>61.2</ele>
        <time>2021-05-27T14:51:58Z</time>
      </trkpt>
      <trkpt lat="47.69222" lon="-2.21324">
        <ele>61</ele>
        <time>2021-05-27T14:51:59Z</time>
      </trkpt>
      <trkpt lat="47.69222" lon="-2.21321">
        <ele>60.9</ele>
        <time>2021-05-27T14:52:00Z</time>
      </trkpt>
      <trkpt lat="47.69222" lon="-2.21318">
        <ele>60.8</ele>
        <time>2021-05-27T14:52:01Z</time>
      </trkpt>
      <trkpt lat="47.69223" lon="-2.21313">
        <ele>60.6</ele>
        <time>2021-05-27T14:52:02Z</time>
      </trkpt>
      <trkpt lat="47.69224" lon="-2.21309">
        <ele>60.5</ele>
        <time>2021-05-27T14:52:03Z</time>
      </trkpt>
      <trkpt lat="47.69225" lon="-2.21306">
        <ele>60.4</ele>
        <time>2021-05-27T14:52:04Z</time>
      </trkpt>
      <trkpt lat="47.69224" lon="-2.213">
        <ele>60.2</ele>
        <time>2021-05-27T14:52:05Z</time>
      </trkpt>
      <trkpt lat="47.69223" lon="-2.21295">
        <ele>60</ele>
        <time>2021-05-27T14:52:06Z</time>
      </trkpt>
      <trkpt lat="47.69222" lon="-2.21291">
        <ele>59.8</ele>
        <time>2021-05-27T14:52:07Z</time>
      </trkpt>
      <trkpt lat="47.69222" lon="-2.21287">
        <ele>59.7</ele>
        <time>2021-05-27T14:52:08Z</time>
      </trkpt>
      <trkpt lat="47.6922" lon="-2.21283">
        <ele>59.5</ele>
        <time>2021-05-27T14:52:09Z</time>
      </trkpt>
      <trkpt lat="47.69219" lon="-2.21276">
        <ele>59.3</ele>
        <time>2021-05-27T14:52:10Z</time>
      </trkpt>
      <trkpt lat="47.69219" lon="-2.21272">
        <ele>59.1</ele>
        <time>2021-05-27T14:52:11Z</time>
      </trkpt>
      <trkpt lat="47.69221" lon="-2.2127">
        <ele>59.1</ele>
        <time>2021-05-27T14:52:12Z</time>
      </trkpt>
      <trkpt lat="47.69221" lon="-2.21265">
        <ele>58.9</ele>
        <time>2021-05-27T14:52:13Z</time>
      </trkpt>
      <trkpt lat="47.69221" lon="-2.21261">
        <ele>58.7</ele>
        <time>2021-05-27T14:52:14Z</time>
      </trkpt>
      <trkpt lat="47.69221" lon="-2.21258">
        <ele>58.6</ele>
        <time>2021-05-27T14:52:15Z</time>
      </trkpt>
      <trkpt lat="47.69221" lon="-2.21255">
        <ele>58.5</ele>
        <time>2021-05-27T14:52:16Z</time>
      </trkpt>
      <trkpt lat="47.69221" lon="-2.21251">
        <ele>58.4</ele>
        <time>2021-05-27T14:52:17Z</time>
      </trkpt>
      <trkpt lat="47.6922" lon="-2.21249">
        <ele>58.3</ele>
        <time>2021-05-27T14:52:18Z</time>
      </trkpt>
      <trkpt lat="47.6922" lon="-2.21245">
        <ele>58.2</ele>
        <time>2021-05-27T14:52:19Z</time>
      </trkpt>
      <trkpt lat="47.69219" lon="-2.21241">
        <ele>58.1</ele>
        <time>2021-05-27T14:52:20Z</time>
      </trkpt>
      <trkpt lat="47.69218" lon="-2.21238">
        <ele>58.1</ele>
        <time>2021-05-27T14:52:21Z</time>
      </trkpt>
      <trkpt lat="47.69217" lon="-2.21233">
        <ele>58</ele>
        <time>2021-05-27T14:52:22Z</time>
      </trkpt>
      <trkpt lat="47.69215" lon="-2.21229">
        <ele>57.9</ele>
        <time>2021-05-27T14:52:23Z</time>
      </trkpt>
      <trkpt lat="47.69214" lon="-2.21226">
        <ele>57.9</ele>
        <time>2021-05-27T14:52:24Z</time>
      </trkpt>
      <trkpt lat="47.69212" lon="-2.21224">
        <ele>57.9</ele>
        <time>2021-05-27T14:52:25Z</time>
      </trkpt>
      <trkpt lat="47.6921" lon="-2.21222">
        <ele>57.9</ele>
        <time>2021-05-27T14:52:26Z</time>
      </trkpt>
      <trkpt lat="47.69208" lon="-2.2122">
        <ele>58</ele>
        <time>2021-05-27T14:52:27Z</time>
      </trkpt>
      <trkpt lat="47.69206" lon="-2.21219">
        <ele>58</ele>
        <time>2021-05-27T14:52:28Z</time>
      </trkpt>
      <trkpt lat="47.69204" lon="-2.21217">
        <ele>58.1</ele>
        <time>2021-05-27T14:52:29Z</time>
      </trkpt>
      <trkpt lat="47.69201" lon="-2.21216">
        <ele>58.1</ele>
        <time>2021-05-27T14:52:30Z</time>
      </trkpt>
      <trkpt lat="47.692" lon="-2.21215">
        <ele>58.2</ele>
        <time>2021-05-27T14:52:31Z</time>
      </trkpt>
      <trkpt lat="47.69198" lon="-2.21214">
        <ele>58.2</ele>
        <time>2021-05-27T14:52:32Z</time>
      </trkpt>
      <trkpt lat="47.69198" lon="-2.21213">
        <ele>58.3</ele>
        <time>2021-05-27T14:52:33Z</time>
      </trkpt>
      <trkpt lat="47.69196" lon="-2.21212">
        <ele>58.3</ele>
        <time>2021-05-27T14:52:34Z</time>
      </trkpt>
      <trkpt lat="47.69195" lon="-2.21209">
        <ele>58.3</ele>
        <time>2021-05-27T14:52:35Z</time>
      </trkpt>
      <trkpt lat="47.69195" lon="-2.21205">
        <ele>58.3</ele>
        <time>2021-05-27T14:52:36Z</time>
      </trkpt>
      <trkpt lat="47.69195" lon="-2.21202">
        <ele>58.3</ele>
        <time>2021-05-27T14:52:37Z</time>
      </trkpt>
      <trkpt lat="47.69195" lon="-2.21199">
        <ele>58.2</ele>
        <time>2021-05-27T14:52:38Z</time>
      </trkpt>
      <trkpt lat="47.69195" lon="-2.21196">
        <ele>58.2</ele>
        <time>2021-05-27T14:52:39Z</time>
      </trkpt>
      <trkpt lat="47.69197" lon="-2.21193">
        <ele>58.1</ele>
        <time>2021-05-27T14:52:40Z</time>
      </trkpt>
      <trkpt lat="47.69199" lon="-2.2119">
        <ele>57.9</ele>
        <time>2021-05-27T14:52:41Z</time>
      </trkpt>
      <trkpt lat="47.692" lon="-2.21187">
        <ele>57.9</ele>
        <time>2021-05-27T14:52:42Z</time>
      </trkpt>
      <trkpt lat="47.692" lon="-2.21183">
        <ele>57.8</ele>
        <time>2021-05-27T14:52:43Z</time>
      </trkpt>
      <trkpt lat="47.69201" lon="-2.2118">
        <ele>57.7</ele>
        <time>2021-05-27T14:52:44Z</time>
      </trkpt>
      <trkpt lat="47.69202" lon="-2.21177">
        <ele>57.6</ele>
        <time>2021-05-27T14:52:45Z</time>
      </trkpt>
      <trkpt lat="47.69202" lon="-2.21173">
        <ele>57.5</ele>
        <time>2021-05-27T14:52:46Z</time>
      </trkpt>
      <trkpt lat="47.69204" lon="-2.21169">
        <ele>57.4</ele>
        <time>2021-05-27T14:52:47Z</time>
      </trkpt>
      <trkpt lat="47.69205" lon="-2.21165">
        <ele>57.2</ele>
        <time>2021-05-27T14:52:48Z</time>
      </trkpt>
      <trkpt lat="47.69206" lon="-2.21162">
        <ele>57.1</ele>
        <time>2021-05-27T14:52:49Z</time>
      </trkpt>
      <trkpt lat="47.69208" lon="-2.21158">
        <ele>56.9</ele>
        <time>2021-05-27T14:52:50Z</time>
      </trkpt>
      <trkpt lat="47.69209" lon="-2.21153">
        <ele>56.8</ele>
        <time>2021-05-27T14:52:51Z</time>
      </trkpt>
      <trkpt lat="47.6921" lon="-2.21148">
        <ele>56.6</ele>
        <time>2021-05-27T14:52:52Z</time>
      </trkpt>
      <trkpt lat="47.69211" lon="-2.21143">
        <ele>56.5</ele>
        <time>2021-05-27T14:52:53Z</time>
      </trkpt>
      <trkpt lat="47.69211" lon="-2.21139">
        <ele>56.5</ele>
        <time>2021-05-27T14:52:54Z</time>
      </trkpt>
      <trkpt lat="47.6921" lon="-2.21134">
        <ele>56.5</ele>
        <time>2021-05-27T14:52:55Z</time>
      </trkpt>
      <trkpt lat="47.6921" lon="-2.2113">
        <ele>56.4</ele>
        <time>2021-05-27T14:52:56Z</time>
      </trkpt>
      <trkpt lat="47.69209" lon="-2.21125">
        <ele>56.4</ele>
        <time>2021-05-27T14:52:57Z</time>
      </trkpt>
      <trkpt lat="47.69208" lon="-2.2112">
        <ele>56.4</ele>
        <time>2021-05-27T14:52:58Z</time>
      </trkpt>
      <trkpt lat="47.69208" lon="-2.21114">
        <ele>56.4</ele>
        <time>2021-05-27T14:52:59Z</time>
      </trkpt>
      <trkpt lat="47.69208" lon="-2.2111">
        <ele>56.4</ele>
        <time>2021-05-27T14:53:00Z</time>
      </trkpt>
      <trkpt lat="47.69207" lon="-2.21104">
        <ele>56.4</ele>
        <time>2021-05-27T14:53:01Z</time>
      </trkpt>
      <trkpt lat="47.69206" lon="-2.211">
        <ele>56.4</ele>
        <time>2021-05-27T14:53:02Z</time>
      </trkpt>
      <trkpt lat="47.69205" lon="-2.21096">
        <ele>56.5</ele>
        <time>2021-05-27T14:53:03Z</time>
      </trkpt>
      <trkpt lat="47.69203" lon="-2.21091">
        <ele>56.6</ele>
        <time>2021-05-27T14:53:04Z</time>
      </trkpt>
      <trkpt lat="47.69203" lon="-2.21087">
        <ele>56.6</ele>
        <time>2021-05-27T14:53:05Z</time>
      </trkpt>
      <trkpt lat="47.69202" lon="-2.21082">
        <ele>56.6</ele>
        <time>2021-05-27T14:53:06Z</time>
      </trkpt>
      <trkpt lat="47.69202" lon="-2.21078">
        <ele>56.6</ele>
        <time>2021-05-27T14:53:07Z</time>
      </trkpt>
      <trkpt lat="47.69203" lon="-2.21075">
        <ele>56.4</ele>
        <time>2021-05-27T14:53:08Z</time>
      </trkpt>
      <trkpt lat="47.69205" lon="-2.21072">
        <ele>56.2</ele>
        <time>2021-05-27T14:53:09Z</time>
      </trkpt>
      <trkpt lat="47.69206" lon="-2.21068">
        <ele>56</ele>
        <time>2021-05-27T14:53:10Z</time>
      </trkpt>
      <trkpt lat="47.69208" lon="-2.21064">
        <ele>55.8</ele>
        <time>2021-05-27T14:53:11Z</time>
      </trkpt>
      <trkpt lat="47.69209" lon="-2.2106">
        <ele>55.7</ele>
        <time>2021-05-27T14:53:12Z</time>
      </trkpt>
      <trkpt lat="47.6921" lon="-2.21055">
        <ele>55.5</ele>
        <time>2021-05-27T14:53:13Z</time>
      </trkpt>
      <trkpt lat="47.69211" lon="-2.21051">
        <ele>55.4</ele>
        <time>2021-05-27T14:53:14Z</time>
      </trkpt>
      <trkpt lat="47.69211" lon="-2.21048">
        <ele>55.3</ele>
        <time>2021-05-27T14:53:15Z</time>
      </trkpt>
      <trkpt lat="47.69213" lon="-2.21047">
        <ele>55.1</ele>
        <time>2021-05-27T14:53:16Z</time>
      </trkpt>
      <trkpt lat="47.69214" lon="-2.21045">
        <ele>55</ele>
        <time>2021-05-27T14:53:17Z</time>
      </trkpt>
      <trkpt lat="47.69215" lon="-2.21045">
        <ele>54.8</ele>
        <time>2021-05-27T14:53:18Z</time>
      </trkpt>
      <trkpt lat="47.69217" lon="-2.21044">
        <ele>54.6</ele>
        <time>2021-05-27T14:53:19Z</time>
      </trkpt>
      <trkpt lat="47.69218" lon="-2.21041">
        <ele>54.4</ele>
        <time>2021-05-27T14:53:20Z</time>
      </trkpt>
      <trkpt lat="47.69218" lon="-2.21038">
        <ele>54.3</ele>
        <time>2021-05-27T14:53:21Z</time>
      </trkpt>
      <trkpt lat="47.69219" lon="-2.21035">
        <ele>54.3</ele>
        <time>2021-05-27T14:53:22Z</time>
      </trkpt>
      <trkpt lat="47.69219" lon="-2.21032">
        <ele>54.2</ele>
        <time>2021-05-27T14:53:23Z</time>
      </trkpt>
      <trkpt lat="47.69219" lon="-2.21027">
        <ele>54.1</ele>
        <time>2021-05-27T14:53:24Z</time>
      </trkpt>
      <trkpt lat="47.69219" lon="-2.21022">
        <ele>54</ele>
        <time>2021-05-27T14:53:25Z</time>
      </trkpt>
      <trkpt lat="47.69219" lon="-2.21015">
        <ele>53.9</ele>
        <time>2021-05-27T14:53:26Z</time>
      </trkpt>
      <trkpt lat="47.69219" lon="-2.2101">
        <ele>53.8</ele>
        <time>2021-05-27T14:53:27Z</time>
      </trkpt>
      <trkpt lat="47.6922" lon="-2.21006">
        <ele>53.7</ele>
        <time>2021-05-27T14:53:28Z</time>
      </trkpt>
      <trkpt lat="47.6922" lon="-2.21002">
        <ele>53.7</ele>
        <time>2021-05-27T14:53:29Z</time>
      </trkpt>
      <trkpt lat="47.6922" lon="-2.20999">
        <ele>53.6</ele>
        <time>2021-05-27T14:53:30Z</time>
      </trkpt>
      <trkpt lat="47.69219" lon="-2.20995">
        <ele>53.6</ele>
        <time>2021-05-27T14:53:31Z</time>
      </trkpt>
      <trkpt lat="47.69219" lon="-2.20992">
        <ele>53.5</ele>
        <time>2021-05-27T14:53:32Z</time>
      </trkpt>
      <trkpt lat="47.69218" lon="-2.20987">
        <ele>53.3</ele>
        <time>2021-05-27T14:53:33Z</time>
      </trkpt>
      <trkpt lat="47.69218" lon="-2.20982">
        <ele>53.2</ele>
        <time>2021-05-27T14:53:34Z</time>
      </trkpt>
      <trkpt lat="47.69217" lon="-2.20977">
        <ele>53.2</ele>
        <time>2021-05-27T14:53:35Z</time>
      </trkpt>
      <trkpt lat="47.69216" lon="-2.20973">
        <ele>53.2</ele>
        <time>2021-05-27T14:53:36Z</time>
      </trkpt>
      <trkpt lat="47.69215" lon="-2.20968">
        <ele>53.2</ele>
        <time>2021-05-27T14:53:37Z</time>
      </trkpt>
      <trkpt lat="47.69215" lon="-2.20962">
        <ele>52.9</ele>
        <time>2021-05-27T14:53:38Z</time>
      </trkpt>
      <trkpt lat="47.69216" lon="-2.20956">
        <ele>52.6</ele>
        <time>2021-05-27T14:53:39Z</time>
      </trkpt>
      <trkpt lat="47.69217" lon="-2.20949">
        <ele>52.2</ele>
        <time>2021-05-27T14:53:40Z</time>
      </trkpt>
      <trkpt lat="47.69218" lon="-2.20943">
        <ele>51.9</ele>
        <time>2021-05-27T14:53:41Z</time>
      </trkpt>
      <trkpt lat="47.69219" lon="-2.20936">
        <ele>51.5</ele>
        <time>2021-05-27T14:53:42Z</time>
      </trkpt>
      <trkpt lat="47.69219" lon="-2.2093">
        <ele>51.3</ele>
        <time>2021-05-27T14:53:43Z</time>
      </trkpt>
      <trkpt lat="47.69219" lon="-2.20925">
        <ele>51.1</ele>
        <time>2021-05-27T14:53:44Z</time>
      </trkpt>
      <trkpt lat="47.69219" lon="-2.2092">
        <ele>51</ele>
        <time>2021-05-27T14:53:45Z</time>
      </trkpt>
      <trkpt lat="47.69218" lon="-2.20916">
        <ele>51</ele>
        <time>2021-05-27T14:53:46Z</time>
      </trkpt>
      <trkpt lat="47.69216" lon="-2.20912">
        <ele>51.1</ele>
        <time>2021-05-27T14:53:47Z</time>
      </trkpt>
      <trkpt lat="47.69214" lon="-2.20908">
        <ele>51.3</ele>
        <time>2021-05-27T14:53:48Z</time>
      </trkpt>
      <trkpt lat="47.69211" lon="-2.20906">
        <ele>51.7</ele>
        <time>2021-05-27T14:53:49Z</time>
      </trkpt>
      <trkpt lat="47.69208" lon="-2.20902">
        <ele>52</ele>
        <time>2021-05-27T14:53:50Z</time>
      </trkpt>
      <trkpt lat="47.69206" lon="-2.20899">
        <ele>52.3</ele>
        <time>2021-05-27T14:53:51Z</time>
      </trkpt>
      <trkpt lat="47.69204" lon="-2.20894">
        <ele>52.6</ele>
        <time>2021-05-27T14:53:52Z</time>
      </trkpt>
      <trkpt lat="47.69202" lon="-2.20889">
        <ele>52.9</ele>
        <time>2021-05-27T14:53:53Z</time>
      </trkpt>
      <trkpt lat="47.69199" lon="-2.20884">
        <ele>53.2</ele>
        <time>2021-05-27T14:53:54Z</time>
      </trkpt>
      <trkpt lat="47.69197" lon="-2.2088">
        <ele>53.5</ele>
        <time>2021-05-27T14:53:55Z</time>
      </trkpt>
      <trkpt lat="47.69195" lon="-2.20876">
        <ele>53.9</ele>
        <time>2021-05-27T14:53:56Z</time>
      </trkpt>
      <trkpt lat="47.69192" lon="-2.20872">
        <ele>54.4</ele>
        <time>2021-05-27T14:53:57Z</time>
      </trkpt>
      <trkpt lat="47.69191" lon="-2.20868">
        <ele>54.6</ele>
        <time>2021-05-27T14:53:58Z</time>
      </trkpt>
      <trkpt lat="47.6919" lon="-2.20866">
        <ele>54.7</ele>
        <time>2021-05-27T14:53:59Z</time>
      </trkpt>
      <trkpt lat="47.6919" lon="-2.20864">
        <ele>54.7</ele>
        <time>2021-05-27T14:54:00Z</time>
      </trkpt>
      <trkpt lat="47.69191" lon="-2.20861">
        <ele>54.5</ele>
        <time>2021-05-27T14:54:01Z</time>
      </trkpt>
      <trkpt lat="47.69192" lon="-2.20856">
        <ele>54.2</ele>
        <time>2021-05-27T14:54:02Z</time>
      </trkpt>
      <trkpt lat="47.69192" lon="-2.20852">
        <ele>54.1</ele>
        <time>2021-05-27T14:54:03Z</time>
      </trkpt>
      <trkpt lat="47.69192" lon="-2.2085">
        <ele>54.2</ele>
        <time>2021-05-27T14:54:04Z</time>
      </trkpt>
      <trkpt lat="47.69191" lon="-2.20845">
        <ele>54.2</ele>
        <time>2021-05-27T14:54:05Z</time>
      </trkpt>
      <trkpt lat="47.69191" lon="-2.20843">
        <ele>54.4</ele>
        <time>2021-05-27T14:54:06Z</time>
      </trkpt>
      <trkpt lat="47.69189" lon="-2.20841">
        <ele>54.6</ele>
        <time>2021-05-27T14:54:07Z</time>
      </trkpt>
      <trkpt lat="47.69188" lon="-2.2084">
        <ele>55.1</ele>
        <time>2021-05-27T14:54:08Z</time>
      </trkpt>
      <trkpt lat="47.69186" lon="-2.20839">
        <ele>55.5</ele>
        <time>2021-05-27T14:54:09Z</time>
      </trkpt>
      <trkpt lat="47.69183" lon="-2.20837">
        <ele>56</ele>
        <time>2021-05-27T14:54:10Z</time>
      </trkpt>
      <trkpt lat="47.69181" lon="-2.20834">
        <ele>56.6</ele>
        <time>2021-05-27T14:54:11Z</time>
      </trkpt>
      <trkpt lat="47.69179" lon="-2.20832">
        <ele>57</ele>
        <time>2021-05-27T14:54:12Z</time>
      </trkpt>
      <trkpt lat="47.69177" lon="-2.2083">
        <ele>57.1</ele>
        <time>2021-05-27T14:54:13Z</time>
      </trkpt>
      <trkpt lat="47.69177" lon="-2.20827">
        <ele>56.9</ele>
        <time>2021-05-27T14:54:14Z</time>
      </trkpt>
      <trkpt lat="47.69176" lon="-2.20824">
        <ele>56.8</ele>
        <time>2021-05-27T14:54:15Z</time>
      </trkpt>
      <trkpt lat="47.69176" lon="-2.20823">
        <ele>56.8</ele>
        <time>2021-05-27T14:54:16Z</time>
      </trkpt>
      <trkpt lat="47.69176" lon="-2.20823">
        <ele>56.8</ele>
        <time>2021-05-27T14:54:17Z</time>
      </trkpt>
      <trkpt lat="47.69176" lon="-2.20822">
        <ele>56.7</ele>
        <time>2021-05-27T14:54:18Z</time>
      </trkpt>
      <trkpt lat="47.69176" lon="-2.20822">
        <ele>56.7</ele>
        <time>2021-05-27T14:54:19Z</time>
      </trkpt>
      <trkpt lat="47.69176" lon="-2.20822">
        <ele>56.7</ele>
        <time>2021-05-27T14:54:20Z</time>
      </trkpt>
      <trkpt lat="47.69176" lon="-2.20822">
        <ele>56.7</ele>
        <time>2021-05-27T14:54:21Z</time>
      </trkpt>
      <trkpt lat="47.69176" lon="-2.20822">
        <ele>56.7</ele>
        <time>2021-05-27T14:54:22Z</time>
      </trkpt>
      <trkpt lat="47.69176" lon="-2.20822">
        <ele>56.7</ele>
        <time>2021-05-27T14:54:23Z</time>
      </trkpt>
      <trkpt lat="47.69176" lon="-2.20822">
        <ele>56.7</ele>
        <time>2021-05-27T14:54:24Z</time>
      </trkpt>
      <trkpt lat="47.69172" lon="-2.20816">
        <ele>57</ele>
        <time>2021-05-27T14:54:25Z</time>
      </trkpt>
      <trkpt lat="47.69172" lon="-2.20815">
        <ele>57</ele>
        <time>2021-05-27T14:54:26Z</time>
      </trkpt>
      <trkpt lat="47.69171" lon="-2.20813">
        <ele>57</ele>
        <time>2021-05-27T14:54:27Z</time>
      </trkpt>
      <trkpt lat="47.69169" lon="-2.20811">
        <ele>57.2</ele>
        <time>2021-05-27T14:54:28Z</time>
      </trkpt>
      <trkpt lat="47.69168" lon="-2.20809">
        <ele>57.5</ele>
        <time>2021-05-27T14:54:29Z</time>
      </trkpt>
      <trkpt lat="47.69165" lon="-2.20809">
        <ele>57.6</ele>
        <time>2021-05-27T14:54:30Z</time>
      </trkpt>
      <trkpt lat="47.69162" lon="-2.20809">
        <ele>57.6</ele>
        <time>2021-05-27T14:54:31Z</time>
      </trkpt>
      <trkpt lat="47.69158" lon="-2.20811">
        <ele>57.6</ele>
        <time>2021-05-27T14:54:32Z</time>
      </trkpt>
      <trkpt lat="47.69155" lon="-2.20811">
        <ele>57.6</ele>
        <time>2021-05-27T14:54:33Z</time>
      </trkpt>
      <trkpt lat="47.69153" lon="-2.20812">
        <ele>57.6</ele>
        <time>2021-05-27T14:54:34Z</time>
      </trkpt>
      <trkpt lat="47.69151" lon="-2.20813">
        <ele>57.6</ele>
        <time>2021-05-27T14:54:35Z</time>
      </trkpt>
      <trkpt lat="47.69149" lon="-2.20812">
        <ele>57.5</ele>
        <time>2021-05-27T14:54:36Z</time>
      </trkpt>
      <trkpt lat="47.69146" lon="-2.20809">
        <ele>57.2</ele>
        <time>2021-05-27T14:54:37Z</time>
      </trkpt>
      <trkpt lat="47.69144" lon="-2.20806">
        <ele>57</ele>
        <time>2021-05-27T14:54:38Z</time>
      </trkpt>
      <trkpt lat="47.69142" lon="-2.20802">
        <ele>56.7</ele>
        <time>2021-05-27T14:54:39Z</time>
      </trkpt>
      <trkpt lat="47.6914" lon="-2.20797">
        <ele>56.5</ele>
        <time>2021-05-27T14:54:40Z</time>
      </trkpt>
      <trkpt lat="47.69139" lon="-2.20792">
        <ele>56.2</ele>
        <time>2021-05-27T14:54:41Z</time>
      </trkpt>
      <trkpt lat="47.69137" lon="-2.20788">
        <ele>56</ele>
        <time>2021-05-27T14:54:42Z</time>
      </trkpt>
      <trkpt lat="47.69135" lon="-2.20785">
        <ele>55.9</ele>
        <time>2021-05-27T14:54:43Z</time>
      </trkpt>
      <trkpt lat="47.69134" lon="-2.20781">
        <ele>55.7</ele>
        <time>2021-05-27T14:54:44Z</time>
      </trkpt>
      <trkpt lat="47.69133" lon="-2.20776">
        <ele>55.5</ele>
        <time>2021-05-27T14:54:45Z</time>
      </trkpt>
      <trkpt lat="47.69131" lon="-2.20771">
        <ele>55.4</ele>
        <time>2021-05-27T14:54:46Z</time>
      </trkpt>
      <trkpt lat="47.6913" lon="-2.20765">
        <ele>55.2</ele>
        <time>2021-05-27T14:54:47Z</time>
      </trkpt>
      <trkpt lat="47.69128" lon="-2.20761">
        <ele>55.2</ele>
        <time>2021-05-27T14:54:48Z</time>
      </trkpt>
      <trkpt lat="47.69126" lon="-2.20757">
        <ele>55.1</ele>
        <time>2021-05-27T14:54:49Z</time>
      </trkpt>
      <trkpt lat="47.69124" lon="-2.20753">
        <ele>55.1</ele>
        <time>2021-05-27T14:54:50Z</time>
      </trkpt>
      <trkpt lat="47.69121" lon="-2.20749">
        <ele>55.2</ele>
        <time>2021-05-27T14:54:51Z</time>
      </trkpt>
      <trkpt lat="47.69119" lon="-2.20746">
        <ele>55.2</ele>
        <time>2021-05-27T14:54:52Z</time>
      </trkpt>
      <trkpt lat="47.69117" lon="-2.20744">
        <ele>55.3</ele>
        <time>2021-05-27T14:54:53Z</time>
      </trkpt>
      <trkpt lat="47.69114" lon="-2.20743">
        <ele>55.3</ele>
        <time>2021-05-27T14:54:54Z</time>
      </trkpt>
      <trkpt lat="47.69112" lon="-2.20741">
        <ele>55.4</ele>
        <time>2021-05-27T14:54:55Z</time>
      </trkpt>
      <trkpt lat="47.69111" lon="-2.20738">
        <ele>55.4</ele>
        <time>2021-05-27T14:54:56Z</time>
      </trkpt>
      <trkpt lat="47.6911" lon="-2.20736">
        <ele>55.3</ele>
        <time>2021-05-27T14:54:57Z</time>
      </trkpt>
      <trkpt lat="47.6911" lon="-2.20732">
        <ele>55.1</ele>
        <time>2021-05-27T14:54:58Z</time>
      </trkpt>
      <trkpt lat="47.69109" lon="-2.2073">
        <ele>55</ele>
        <time>2021-05-27T14:54:59Z</time>
      </trkpt>
      <trkpt lat="47.69107" lon="-2.20727">
        <ele>55.1</ele>
        <time>2021-05-27T14:55:00Z</time>
      </trkpt>
      <trkpt lat="47.69104" lon="-2.20725">
        <ele>55.2</ele>
        <time>2021-05-27T14:55:01Z</time>
      </trkpt>
      <trkpt lat="47.69102" lon="-2.20723">
        <ele>55.4</ele>
        <time>2021-05-27T14:55:02Z</time>
      </trkpt>
      <trkpt lat="47.691" lon="-2.20722">
        <ele>55.5</ele>
        <time>2021-05-27T14:55:03Z</time>
      </trkpt>
      <trkpt lat="47.69099" lon="-2.2072">
        <ele>55.5</ele>
        <time>2021-05-27T14:55:04Z</time>
      </trkpt>
      <trkpt lat="47.69097" lon="-2.20718">
        <ele>55.5</ele>
        <time>2021-05-27T14:55:05Z</time>
      </trkpt>
      <trkpt lat="47.69096" lon="-2.20715">
        <ele>55.5</ele>
        <time>2021-05-27T14:55:06Z</time>
      </trkpt>
      <trkpt lat="47.69094" lon="-2.20712">
        <ele>55.6</ele>
        <time>2021-05-27T14:55:07Z</time>
      </trkpt>
      <trkpt lat="47.69093" lon="-2.20709">
        <ele>55.5</ele>
        <time>2021-05-27T14:55:08Z</time>
      </trkpt>
      <trkpt lat="47.69092" lon="-2.20706">
        <ele>55.5</ele>
        <time>2021-05-27T14:55:09Z</time>
      </trkpt>
      <trkpt lat="47.69091" lon="-2.20704">
        <ele>55.5</ele>
        <time>2021-05-27T14:55:10Z</time>
      </trkpt>
      <trkpt lat="47.6909" lon="-2.207">
        <ele>55.5</ele>
        <time>2021-05-27T14:55:11Z</time>
      </trkpt>
      <trkpt lat="47.69088" lon="-2.20697">
        <ele>55.5</ele>
        <time>2021-05-27T14:55:12Z</time>
      </trkpt>
      <trkpt lat="47.69086" lon="-2.20694">
        <ele>55.7</ele>
        <time>2021-05-27T14:55:13Z</time>
      </trkpt>
      <trkpt lat="47.69084" lon="-2.20691">
        <ele>55.8</ele>
        <time>2021-05-27T14:55:14Z</time>
      </trkpt>
      <trkpt lat="47.69082" lon="-2.20689">
        <ele>55.6</ele>
        <time>2021-05-27T14:55:15Z</time>
      </trkpt>
      <trkpt lat="47.69081" lon="-2.20688">
        <ele>55.3</ele>
        <time>2021-05-27T14:55:16Z</time>
      </trkpt>
      <trkpt lat="47.6908" lon="-2.20688">
        <ele>55.3</ele>
        <time>2021-05-27T14:55:17Z</time>
      </trkpt>
      <trkpt lat="47.6908" lon="-2.20688">
        <ele>55.3</ele>
        <time>2021-05-27T14:55:18Z</time>
      </trkpt>
      <trkpt lat="47.6908" lon="-2.20688">
        <ele>55.3</ele>
        <time>2021-05-27T14:55:19Z</time>
      </trkpt>
      <trkpt lat="47.6908" lon="-2.20688">
        <ele>55.3</ele>
        <time>2021-05-27T14:55:20Z</time>
      </trkpt>
      <trkpt lat="47.6908" lon="-2.20688">
        <ele>55.3</ele>
        <time>2021-05-27T14:55:21Z</time>
      </trkpt>
      <trkpt lat="47.6908" lon="-2.20688">
        <ele>55.3</ele>
        <time>2021-05-27T14:55:22Z</time>
      </trkpt>
      <trkpt lat="47.6908" lon="-2.20688">
        <ele>55.3</ele>
        <time>2021-05-27T14:55:23Z</time>
      </trkpt>
      <trkpt lat="47.6908" lon="-2.20688">
        <ele>55.3</ele>
        <time>2021-05-27T14:55:24Z</time>
      </trkpt>
      <trkpt lat="47.6908" lon="-2.20688">
        <ele>55.3</ele>
        <time>2021-05-27T14:55:25Z</time>
      </trkpt>
      <trkpt lat="47.69074" lon="-2.20685">
        <ele>54.2</ele>
        <time>2021-05-27T14:55:26Z</time>
      </trkpt>
      <trkpt lat="47.69071" lon="-2.20685">
        <ele>53.8</ele>
        <time>2021-05-27T14:55:27Z</time>
      </trkpt>
      <trkpt lat="47.69068" lon="-2.20683">
        <ele>53.3</ele>
        <time>2021-05-27T14:55:28Z</time>
      </trkpt>
      <trkpt lat="47.69065" lon="-2.20682">
        <ele>52.8</ele>
        <time>2021-05-27T14:55:29Z</time>
      </trkpt>
      <trkpt lat="47.69061" lon="-2.20681">
        <ele>52.2</ele>
        <time>2021-05-27T14:55:30Z</time>
      </trkpt>
      <trkpt lat="47.69058" lon="-2.20681">
        <ele>51.6</ele>
        <time>2021-05-27T14:55:31Z</time>
      </trkpt>
      <trkpt lat="47.69055" lon="-2.2068">
        <ele>51.2</ele>
        <time>2021-05-27T14:55:32Z</time>
      </trkpt>
      <trkpt lat="47.69052" lon="-2.20678">
        <ele>50.7</ele>
        <time>2021-05-27T14:55:33Z</time>
      </trkpt>
      <trkpt lat="47.6905" lon="-2.20675">
        <ele>50.4</ele>
        <time>2021-05-27T14:55:34Z</time>
      </trkpt>
      <trkpt lat="47.69049" lon="-2.2067">
        <ele>50.1</ele>
        <time>2021-05-27T14:55:35Z</time>
      </trkpt>
      <trkpt lat="47.69047" lon="-2.20664">
        <ele>49.7</ele>
        <time>2021-05-27T14:55:36Z</time>
      </trkpt>
      <trkpt lat="47.69046" lon="-2.20658">
        <ele>49.4</ele>
        <time>2021-05-27T14:55:37Z</time>
      </trkpt>
      <trkpt lat="47.69045" lon="-2.20653">
        <ele>49.3</ele>
        <time>2021-05-27T14:55:38Z</time>
      </trkpt>
      <trkpt lat="47.69044" lon="-2.20647">
        <ele>49.1</ele>
        <time>2021-05-27T14:55:39Z</time>
      </trkpt>
      <trkpt lat="47.69042" lon="-2.20641">
        <ele>48.8</ele>
        <time>2021-05-27T14:55:40Z</time>
      </trkpt>
      <trkpt lat="47.69039" lon="-2.20634">
        <ele>48.3</ele>
        <time>2021-05-27T14:55:41Z</time>
      </trkpt>
      <trkpt lat="47.69036" lon="-2.2063">
        <ele>48</ele>
        <time>2021-05-27T14:55:42Z</time>
      </trkpt>
      <trkpt lat="47.69032" lon="-2.20627">
        <ele>47.5</ele>
        <time>2021-05-27T14:55:43Z</time>
      </trkpt>
      <trkpt lat="47.69028" lon="-2.20627">
        <ele>47</ele>
        <time>2021-05-27T14:55:44Z</time>
      </trkpt>
      <trkpt lat="47.69024" lon="-2.20625">
        <ele>46.6</ele>
        <time>2021-05-27T14:55:45Z</time>
      </trkpt>
      <trkpt lat="47.6902" lon="-2.20624">
        <ele>46.1</ele>
        <time>2021-05-27T14:55:46Z</time>
      </trkpt>
      <trkpt lat="47.69015" lon="-2.2062">
        <ele>45.6</ele>
        <time>2021-05-27T14:55:47Z</time>
      </trkpt>
      <trkpt lat="47.69011" lon="-2.20616">
        <ele>45.3</ele>
        <time>2021-05-27T14:55:48Z</time>
      </trkpt>
      <trkpt lat="47.69008" lon="-2.20611">
        <ele>45.1</ele>
        <time>2021-05-27T14:55:49Z</time>
      </trkpt>
      <trkpt lat="47.69006" lon="-2.20607">
        <ele>45</ele>
        <time>2021-05-27T14:55:50Z</time>
      </trkpt>
      <trkpt lat="47.69005" lon="-2.20602">
        <ele>45</ele>
        <time>2021-05-27T14:55:51Z</time>
      </trkpt>
      <trkpt lat="47.69002" lon="-2.20597">
        <ele>44.8</ele>
        <time>2021-05-27T14:55:52Z</time>
      </trkpt>
      <trkpt lat="47.69" lon="-2.20594">
        <ele>44.8</ele>
        <time>2021-05-27T14:55:53Z</time>
      </trkpt>
      <trkpt lat="47.68997" lon="-2.2059">
        <ele>44.3</ele>
        <time>2021-05-27T14:55:54Z</time>
      </trkpt>
      <trkpt lat="47.68995" lon="-2.20587">
        <ele>44</ele>
        <time>2021-05-27T14:55:55Z</time>
      </trkpt>
      <trkpt lat="47.68994" lon="-2.20584">
        <ele>43.9</ele>
        <time>2021-05-27T14:55:56Z</time>
      </trkpt>
      <trkpt lat="47.68993" lon="-2.20581">
        <ele>43.8</ele>
        <time>2021-05-27T14:55:57Z</time>
      </trkpt>
      <trkpt lat="47.68992" lon="-2.20578">
        <ele>43.8</ele>
        <time>2021-05-27T14:55:58Z</time>
      </trkpt>
      <trkpt lat="47.68992" lon="-2.20574">
        <ele>43.9</ele>
        <time>2021-05-27T14:55:59Z</time>
      </trkpt>
      <trkpt lat="47.68992" lon="-2.20569">
        <ele>44</ele>
        <time>2021-05-27T14:56:00Z</time>
      </trkpt>
      <trkpt lat="47.68992" lon="-2.20564">
        <ele>44.1</ele>
        <time>2021-05-27T14:56:01Z</time>
      </trkpt>
      <trkpt lat="47.68993" lon="-2.20561">
        <ele>44.3</ele>
        <time>2021-05-27T14:56:02Z</time>
      </trkpt>
      <trkpt lat="47.68994" lon="-2.20558">
        <ele>44.5</ele>
        <time>2021-05-27T14:56:03Z</time>
      </trkpt>
      <trkpt lat="47.68995" lon="-2.20556">
        <ele>44.7</ele>
        <time>2021-05-27T14:56:04Z</time>
      </trkpt>
      <trkpt lat="47.68996" lon="-2.20555">
        <ele>45</ele>
        <time>2021-05-27T14:56:05Z</time>
      </trkpt>
      <trkpt lat="47.68997" lon="-2.20553">
        <ele>45.3</ele>
        <time>2021-05-27T14:56:06Z</time>
      </trkpt>
      <trkpt lat="47.68998" lon="-2.20551">
        <ele>45.4</ele>
        <time>2021-05-27T14:56:07Z</time>
      </trkpt>
      <trkpt lat="47.68999" lon="-2.20548">
        <ele>45.7</ele>
        <time>2021-05-27T14:56:08Z</time>
      </trkpt>
      <trkpt lat="47.69001" lon="-2.20546">
        <ele>45.9</ele>
        <time>2021-05-27T14:56:09Z</time>
      </trkpt>
      <trkpt lat="47.69002" lon="-2.20544">
        <ele>46.1</ele>
        <time>2021-05-27T14:56:10Z</time>
      </trkpt>
      <trkpt lat="47.69004" lon="-2.20544">
        <ele>46.2</ele>
        <time>2021-05-27T14:56:11Z</time>
      </trkpt>
      <trkpt lat="47.69006" lon="-2.20543">
        <ele>46.3</ele>
        <time>2021-05-27T14:56:12Z</time>
      </trkpt>
      <trkpt lat="47.69008" lon="-2.20541">
        <ele>46.5</ele>
        <time>2021-05-27T14:56:13Z</time>
      </trkpt>
      <trkpt lat="47.69009" lon="-2.20537">
        <ele>46.6</ele>
        <time>2021-05-27T14:56:14Z</time>
      </trkpt>
      <trkpt lat="47.69009" lon="-2.20534">
        <ele>46.7</ele>
        <time>2021-05-27T14:56:15Z</time>
      </trkpt>
      <trkpt lat="47.6901" lon="-2.20529">
        <ele>46.9</ele>
        <time>2021-05-27T14:56:16Z</time>
      </trkpt>
      <trkpt lat="47.6901" lon="-2.20525">
        <ele>47</ele>
        <time>2021-05-27T14:56:17Z</time>
      </trkpt>
      <trkpt lat="47.69011" lon="-2.20523">
        <ele>47.1</ele>
        <time>2021-05-27T14:56:18Z</time>
      </trkpt>
      <trkpt lat="47.69012" lon="-2.2052">
        <ele>47.2</ele>
        <time>2021-05-27T14:56:19Z</time>
      </trkpt>
      <trkpt lat="47.69011" lon="-2.20516">
        <ele>47.2</ele>
        <time>2021-05-27T14:56:20Z</time>
      </trkpt>
      <trkpt lat="47.6901" lon="-2.20513">
        <ele>47.2</ele>
        <time>2021-05-27T14:56:21Z</time>
      </trkpt>
      <trkpt lat="47.69009" lon="-2.2051">
        <ele>47.2</ele>
        <time>2021-05-27T14:56:22Z</time>
      </trkpt>
      <trkpt lat="47.69008" lon="-2.20506">
        <ele>47.3</ele>
        <time>2021-05-27T14:56:23Z</time>
      </trkpt>
      <trkpt lat="47.69008" lon="-2.20506">
        <ele>47.3</ele>
        <time>2021-05-27T14:56:24Z</time>
      </trkpt>
      <trkpt lat="47.69008" lon="-2.20505">
        <ele>47.3</ele>
        <time>2021-05-27T14:56:25Z</time>
      </trkpt>
      <trkpt lat="47.69006" lon="-2.20505">
        <ele>47.2</ele>
        <time>2021-05-27T14:56:26Z</time>
      </trkpt>
      <trkpt lat="47.69004" lon="-2.20506">
        <ele>47.1</ele>
        <time>2021-05-27T14:56:27Z</time>
      </trkpt>
      <trkpt lat="47.69002" lon="-2.20506">
        <ele>47</ele>
        <time>2021-05-27T14:56:28Z</time>
      </trkpt>
      <trkpt lat="47.69001" lon="-2.20504">
        <ele>47</ele>
        <time>2021-05-27T14:56:29Z</time>
      </trkpt>
      <trkpt lat="47.69001" lon="-2.20504">
        <ele>46.9</ele>
        <time>2021-05-27T14:56:30Z</time>
      </trkpt>
      <trkpt lat="47.69" lon="-2.20502">
        <ele>47</ele>
        <time>2021-05-27T14:56:31Z</time>
      </trkpt>
      <trkpt lat="47.69" lon="-2.20498">
        <ele>47</ele>
        <time>2021-05-27T14:56:32Z</time>
      </trkpt>
      <trkpt lat="47.69" lon="-2.20496">
        <ele>47</ele>
        <time>2021-05-27T14:56:33Z</time>
      </trkpt>
      <trkpt lat="47.68999" lon="-2.20495">
        <ele>46.8</ele>
        <time>2021-05-27T14:56:34Z</time>
      </trkpt>
      <trkpt lat="47.68998" lon="-2.20494">
        <ele>46.6</ele>
        <time>2021-05-27T14:56:35Z</time>
      </trkpt>
      <trkpt lat="47.68996" lon="-2.20492">
        <ele>46.3</ele>
        <time>2021-05-27T14:56:36Z</time>
      </trkpt>
      <trkpt lat="47.68995" lon="-2.20492">
        <ele>46.1</ele>
        <time>2021-05-27T14:56:37Z</time>
      </trkpt>
      <trkpt lat="47.68994" lon="-2.20491">
        <ele>45.9</ele>
        <time>2021-05-27T14:56:38Z</time>
      </trkpt>
      <trkpt lat="47.68992" lon="-2.20489">
        <ele>45.5</ele>
        <time>2021-05-27T14:56:39Z</time>
      </trkpt>
      <trkpt lat="47.6899" lon="-2.20487">
        <ele>45.2</ele>
        <time>2021-05-27T14:56:40Z</time>
      </trkpt>
      <trkpt lat="47.68988" lon="-2.20484">
        <ele>44.9</ele>
        <time>2021-05-27T14:56:41Z</time>
      </trkpt>
      <trkpt lat="47.68986" lon="-2.20479">
        <ele>44.6</ele>
        <time>2021-05-27T14:56:42Z</time>
      </trkpt>
      <trkpt lat="47.68986" lon="-2.20474">
        <ele>44.5</ele>
        <time>2021-05-27T14:56:43Z</time>
      </trkpt>
      <trkpt lat="47.68984" lon="-2.20469">
        <ele>44.2</ele>
        <time>2021-05-27T14:56:44Z</time>
      </trkpt>
      <trkpt lat="47.68983" lon="-2.20465">
        <ele>44.1</ele>
        <time>2021-05-27T14:56:45Z</time>
      </trkpt>
      <trkpt lat="47.68982" lon="-2.20461">
        <ele>43.8</ele>
        <time>2021-05-27T14:56:46Z</time>
      </trkpt>
      <trkpt lat="47.68981" lon="-2.20458">
        <ele>43.7</ele>
        <time>2021-05-27T14:56:47Z</time>
      </trkpt>
      <trkpt lat="47.68981" lon="-2.20456">
        <ele>43.6</ele>
        <time>2021-05-27T14:56:48Z</time>
      </trkpt>
      <trkpt lat="47.68981" lon="-2.20453">
        <ele>43.6</ele>
        <time>2021-05-27T14:56:49Z</time>
      </trkpt>
      <trkpt lat="47.6898" lon="-2.20451">
        <ele>43.5</ele>
        <time>2021-05-27T14:56:50Z</time>
      </trkpt>
      <trkpt lat="47.68978" lon="-2.20449">
        <ele>43.3</ele>
        <time>2021-05-27T14:56:51Z</time>
      </trkpt>
      <trkpt lat="47.68977" lon="-2.20446">
        <ele>43</ele>
        <time>2021-05-27T14:56:52Z</time>
      </trkpt>
      <trkpt lat="47.68975" lon="-2.20444">
        <ele>42.8</ele>
        <time>2021-05-27T14:56:53Z</time>
      </trkpt>
      <trkpt lat="47.68973" lon="-2.20442">
        <ele>42.4</ele>
        <time>2021-05-27T14:56:54Z</time>
      </trkpt>
      <trkpt lat="47.68971" lon="-2.2044">
        <ele>42</ele>
        <time>2021-05-27T14:56:55Z</time>
      </trkpt>
      <trkpt lat="47.68969" lon="-2.20438">
        <ele>41.7</ele>
        <time>2021-05-27T14:56:56Z</time>
      </trkpt>
      <trkpt lat="47.68968" lon="-2.20436">
        <ele>41.6</ele>
        <time>2021-05-27T14:56:57Z</time>
      </trkpt>
      <trkpt lat="47.68968" lon="-2.20434">
        <ele>41.5</ele>
        <time>2021-05-27T14:56:58Z</time>
      </trkpt>
      <trkpt lat="47.68968" lon="-2.2043">
        <ele>41.5</ele>
        <time>2021-05-27T14:56:59Z</time>
      </trkpt>
      <trkpt lat="47.68968" lon="-2.20427">
        <ele>41.6</ele>
        <time>2021-05-27T14:57:00Z</time>
      </trkpt>
      <trkpt lat="47.68969" lon="-2.20423">
        <ele>41.8</ele>
        <time>2021-05-27T14:57:01Z</time>
      </trkpt>
      <trkpt lat="47.68971" lon="-2.20421">
        <ele>42</ele>
        <time>2021-05-27T14:57:02Z</time>
      </trkpt>
      <trkpt lat="47.68972" lon="-2.2042">
        <ele>42.3</ele>
        <time>2021-05-27T14:57:03Z</time>
      </trkpt>
      <trkpt lat="47.68973" lon="-2.20418">
        <ele>42.5</ele>
        <time>2021-05-27T14:57:04Z</time>
      </trkpt>
      <trkpt lat="47.68974" lon="-2.20416">
        <ele>42.6</ele>
        <time>2021-05-27T14:57:05Z</time>
      </trkpt>
      <trkpt lat="47.68975" lon="-2.20412">
        <ele>42.9</ele>
        <time>2021-05-27T14:57:06Z</time>
      </trkpt>
      <trkpt lat="47.68974" lon="-2.20408">
        <ele>42.9</ele>
        <time>2021-05-27T14:57:07Z</time>
      </trkpt>
      <trkpt lat="47.68973" lon="-2.20405">
        <ele>42.9</ele>
        <time>2021-05-27T14:57:08Z</time>
      </trkpt>
      <trkpt lat="47.68973" lon="-2.20402">
        <ele>43</ele>
        <time>2021-05-27T14:57:09Z</time>
      </trkpt>
      <trkpt lat="47.68974" lon="-2.20401">
        <ele>43.1</ele>
        <time>2021-05-27T14:57:10Z</time>
      </trkpt>
      <trkpt lat="47.68973" lon="-2.20398">
        <ele>43.1</ele>
        <time>2021-05-27T14:57:11Z</time>
      </trkpt>
      <trkpt lat="47.68974" lon="-2.20396">
        <ele>43.3</ele>
        <time>2021-05-27T14:57:12Z</time>
      </trkpt>
      <trkpt lat="47.68975" lon="-2.20395">
        <ele>43.5</ele>
        <time>2021-05-27T14:57:13Z</time>
      </trkpt>
      <trkpt lat="47.68975" lon="-2.20393">
        <ele>43.6</ele>
        <time>2021-05-27T14:57:14Z</time>
      </trkpt>
      <trkpt lat="47.68976" lon="-2.20391">
        <ele>43.7</ele>
        <time>2021-05-27T14:57:15Z</time>
      </trkpt>
      <trkpt lat="47.68977" lon="-2.20389">
        <ele>43.9</ele>
        <time>2021-05-27T14:57:16Z</time>
      </trkpt>
      <trkpt lat="47.68978" lon="-2.20387">
        <ele>44.2</ele>
        <time>2021-05-27T14:57:17Z</time>
      </trkpt>
      <trkpt lat="47.6898" lon="-2.20385">
        <ele>44.5</ele>
        <time>2021-05-27T14:57:18Z</time>
      </trkpt>
      <trkpt lat="47.68981" lon="-2.20383">
        <ele>44.8</ele>
        <time>2021-05-27T14:57:19Z</time>
      </trkpt>
      <trkpt lat="47.68982" lon="-2.20382">
        <ele>45</ele>
        <time>2021-05-27T14:57:20Z</time>
      </trkpt>
      <trkpt lat="47.68984" lon="-2.20383">
        <ele>45.3</ele>
        <time>2021-05-27T14:57:21Z</time>
      </trkpt>
      <trkpt lat="47.68985" lon="-2.20384">
        <ele>45.5</ele>
        <time>2021-05-27T14:57:22Z</time>
      </trkpt>
      <trkpt lat="47.68987" lon="-2.20384">
        <ele>45.7</ele>
        <time>2021-05-27T14:57:23Z</time>
      </trkpt>
      <trkpt lat="47.68989" lon="-2.20385">
        <ele>46</ele>
        <time>2021-05-27T14:57:24Z</time>
      </trkpt>
      <trkpt lat="47.6899" lon="-2.20384">
        <ele>46.2</ele>
        <time>2021-05-27T14:57:25Z</time>
      </trkpt>
      <trkpt lat="47.68992" lon="-2.20383">
        <ele>46.5</ele>
        <time>2021-05-27T14:57:26Z</time>
      </trkpt>
      <trkpt lat="47.68994" lon="-2.20381">
        <ele>46.8</ele>
        <time>2021-05-27T14:57:27Z</time>
      </trkpt>
      <trkpt lat="47.68995" lon="-2.20379">
        <ele>47</ele>
        <time>2021-05-27T14:57:28Z</time>
      </trkpt>
      <trkpt lat="47.68996" lon="-2.20376">
        <ele>47.4</ele>
        <time>2021-05-27T14:57:29Z</time>
      </trkpt>
      <trkpt lat="47.68998" lon="-2.20374">
        <ele>47.6</ele>
        <time>2021-05-27T14:57:30Z</time>
      </trkpt>
      <trkpt lat="47.68998" lon="-2.20371">
        <ele>47.8</ele>
        <time>2021-05-27T14:57:31Z</time>
      </trkpt>
      <trkpt lat="47.68999" lon="-2.20368">
        <ele>48.1</ele>
        <time>2021-05-27T14:57:32Z</time>
      </trkpt>
      <trkpt lat="47.69002" lon="-2.20367">
        <ele>48</ele>
      </trkpt>
      <trkpt lat="47.69007" lon="-2.20377">
        <ele>47.5</ele>
      </trkpt>
      <trkpt lat="47.69013" lon="-2.2038">
        <ele>47</ele>
      </trkpt>
      <trkpt lat="47.69016" lon="-2.20384">
        <ele>46.8</ele>
      </trkpt>
      <trkpt lat="47.69015" lon="-2.20391">
        <ele>46.8</ele>
      </trkpt>
      <trkpt lat="47.69015" lon="-2.20398">
        <ele>46.8</ele>
      </trkpt>
      <trkpt lat="47.69016" lon="-2.20404">
        <ele>46.7</ele>
      </trkpt>
      <trkpt lat="47.69013" lon="-2.2041">
        <ele>46.7</ele>
      </trkpt>
      <trkpt lat="47.69012" lon="-2.20414">
        <ele>46.7</ele>
      </trkpt>
      <trkpt lat="47.69011" lon="-2.20421">
        <ele>46.8</ele>
      </trkpt>
      <trkpt lat="47.69014" lon="-2.20432">
        <ele>46.8</ele>
      </trkpt>
      <trkpt lat="47.69015" lon="-2.20436">
        <ele>46.9</ele>
      </trkpt>
      <trkpt lat="47.69016" lon="-2.2044">
        <ele>46.9</ele>
      </trkpt>
      <trkpt lat="47.69017" lon="-2.20444">
        <ele>47</ele>
      </trkpt>
      <trkpt lat="47.69019" lon="-2.2045">
        <ele>47.1</ele>
      </trkpt>
      <trkpt lat="47.69017" lon="-2.20459">
        <ele>47.2</ele>
      </trkpt>
      <trkpt lat="47.69016" lon="-2.20464">
        <ele>47.3</ele>
      </trkpt>
      <trkpt lat="47.69016" lon="-2.20468">
        <ele>47.3</ele>
      </trkpt>
      <trkpt lat="47.69016" lon="-2.20471">
        <ele>47.4</ele>
      </trkpt>
      <trkpt lat="47.69016" lon="-2.20485">
        <ele>47.6</ele>
      </trkpt>
      <trkpt lat="47.69017" lon="-2.20489">
        <ele>47.7</ele>
      </trkpt>
      <trkpt lat="47.69018" lon="-2.20493">
        <ele>47.8</ele>
      </trkpt>
      <trkpt lat="47.69027" lon="-2.20501">
        <ele>48.3</ele>
      </trkpt>
      <trkpt lat="47.69032" lon="-2.20508">
        <ele>48.4</ele>
      </trkpt>
      <trkpt lat="47.69035" lon="-2.20515">
        <ele>48.5</ele>
      </trkpt>
      <trkpt lat="47.69037" lon="-2.20518">
        <ele>48.5</ele>
      </trkpt>
      <trkpt lat="47.69041" lon="-2.2052">
        <ele>48.7</ele>
      </trkpt>
      <trkpt lat="47.69046" lon="-2.20521">
        <ele>49</ele>
      </trkpt>
      <trkpt lat="47.69049" lon="-2.20517">
        <ele>49.2</ele>
      </trkpt>
      <trkpt lat="47.6905" lon="-2.20511">
        <ele>49.3</ele>
      </trkpt>
      <trkpt lat="47.69048" lon="-2.20508">
        <ele>49.2</ele>
      </trkpt>
      <trkpt lat="47.69045" lon="-2.20506">
        <ele>49.1</ele>
      </trkpt>
      <trkpt lat="47.69042" lon="-2.20501">
        <ele>49</ele>
      </trkpt>
      <trkpt lat="47.6904" lon="-2.20497">
        <ele>48.8</ele>
      </trkpt>
      <trkpt lat="47.69041" lon="-2.20491">
        <ele>48.7</ele>
      </trkpt>
      <trkpt lat="47.69037" lon="-2.20483">
        <ele>48.2</ele>
      </trkpt>
      <trkpt lat="47.69037" lon="-2.20475">
        <ele>48</ele>
      </trkpt>
      <trkpt lat="47.69038" lon="-2.20471">
        <ele>47.9</ele>
      </trkpt>
      <trkpt lat="47.69038" lon="-2.20468">
        <ele>47.8</ele>
      </trkpt>
      <trkpt lat="47.69039" lon="-2.20458">
        <ele>47.4</ele>
      </trkpt>
      <trkpt lat="47.69038" lon="-2.20454">
        <ele>47.3</ele>
      </trkpt>
      <trkpt lat="47.69037" lon="-2.20448">
        <ele>47.1</ele>
      </trkpt>
      <trkpt lat="47.69033" lon="-2.20436">
        <ele>46.8</ele>
      </trkpt>
      <trkpt lat="47.69035" lon="-2.20426">
        <ele>46.4</ele>
      </trkpt>
      <trkpt lat="47.69036" lon="-2.20422">
        <ele>46.3</ele>
      </trkpt>
      <trkpt lat="47.69038" lon="-2.20412">
        <ele>46</ele>
      </trkpt>
      <trkpt lat="47.6904" lon="-2.20398">
        <ele>45.6</ele>
      </trkpt>
      <trkpt lat="47.69039" lon="-2.2039">
        <ele>45.5</ele>
      </trkpt>
      <trkpt lat="47.69038" lon="-2.20386">
        <ele>45.5</ele>
      </trkpt>
      <trkpt lat="47.69036" lon="-2.2038">
        <ele>45.5</ele>
      </trkpt>
      <trkpt lat="47.69034" lon="-2.20378">
        <ele>45.6</ele>
      </trkpt>
      <trkpt lat="47.6903" lon="-2.20373">
        <ele>45.9</ele>
      </trkpt>
      <trkpt lat="47.69027" lon="-2.20371">
        <ele>46</ele>
      </trkpt>
      <trkpt lat="47.69024" lon="-2.20369">
        <ele>46.3</ele>
      </trkpt>
      <trkpt lat="47.6902" lon="-2.20365">
        <ele>46.6</ele>
      </trkpt>
      <trkpt lat="47.69016" lon="-2.20354">
        <ele>46.9</ele>
      </trkpt>
      <trkpt lat="47.69014" lon="-2.20349">
        <ele>47.2</ele>
      </trkpt>
      <trkpt lat="47.69008" lon="-2.20348">
        <ele>47.8</ele>
        <time>2021-05-27T14:57:52Z</time>
      </trkpt>
      <trkpt lat="47.69007" lon="-2.20347">
        <ele>48</ele>
        <time>2021-05-27T14:57:53Z</time>
      </trkpt>
      <trkpt lat="47.69005" lon="-2.20347">
        <ele>48.2</ele>
        <time>2021-05-27T14:57:54Z</time>
      </trkpt>
      <trkpt lat="47.69003" lon="-2.20347">
        <ele>48.3</ele>
        <time>2021-05-27T14:57:55Z</time>
      </trkpt>
      <trkpt lat="47.69001" lon="-2.20347">
        <ele>48.5</ele>
        <time>2021-05-27T14:57:56Z</time>
      </trkpt>
      <trkpt lat="47.68999" lon="-2.20348">
        <ele>48.5</ele>
        <time>2021-05-27T14:57:57Z</time>
      </trkpt>
      <trkpt lat="47.68997" lon="-2.20349">
        <ele>48.2</ele>
        <time>2021-05-27T14:57:58Z</time>
      </trkpt>
      <trkpt lat="47.68994" lon="-2.20349">
        <ele>47.8</ele>
        <time>2021-05-27T14:57:59Z</time>
      </trkpt>
      <trkpt lat="47.68992" lon="-2.20349">
        <ele>47.4</ele>
        <time>2021-05-27T14:58:00Z</time>
      </trkpt>
      <trkpt lat="47.68989" lon="-2.20349">
        <ele>47</ele>
        <time>2021-05-27T14:58:01Z</time>
      </trkpt>
      <trkpt lat="47.68986" lon="-2.20349">
        <ele>46.6</ele>
        <time>2021-05-27T14:58:02Z</time>
      </trkpt>
      <trkpt lat="47.68983" lon="-2.2035">
        <ele>46.1</ele>
        <time>2021-05-27T14:58:03Z</time>
      </trkpt>
      <trkpt lat="47.68981" lon="-2.20351">
        <ele>45.7</ele>
        <time>2021-05-27T14:58:04Z</time>
      </trkpt>
      <trkpt lat="47.68976" lon="-2.20352">
        <ele>45</ele>
        <time>2021-05-27T14:58:05Z</time>
      </trkpt>
      <trkpt lat="47.68973" lon="-2.20351">
        <ele>44.5</ele>
        <time>2021-05-27T14:58:06Z</time>
      </trkpt>
      <trkpt lat="47.68969" lon="-2.20352">
        <ele>44</ele>
        <time>2021-05-27T14:58:07Z</time>
      </trkpt>
      <trkpt lat="47.68966" lon="-2.20353">
        <ele>43.5</ele>
        <time>2021-05-27T14:58:08Z</time>
      </trkpt>
      <trkpt lat="47.68965" lon="-2.20352">
        <ele>43.3</ele>
        <time>2021-05-27T14:58:09Z</time>
      </trkpt>
      <trkpt lat="47.68965" lon="-2.2035">
        <ele>43.3</ele>
        <time>2021-05-27T14:58:10Z</time>
      </trkpt>
      <trkpt lat="47.68967" lon="-2.20347">
        <ele>43.8</ele>
        <time>2021-05-27T14:58:11Z</time>
      </trkpt>
      <trkpt lat="47.68971" lon="-2.20343">
        <ele>44.5</ele>
        <time>2021-05-27T14:58:12Z</time>
      </trkpt>
      <trkpt lat="47.68972" lon="-2.20342">
        <ele>44.7</ele>
        <time>2021-05-27T14:58:13Z</time>
      </trkpt>
      <trkpt lat="47.68972" lon="-2.2034">
        <ele>44.7</ele>
        <time>2021-05-27T14:58:14Z</time>
      </trkpt>
      <trkpt lat="47.68971" lon="-2.20338">
        <ele>44.6</ele>
        <time>2021-05-27T14:58:15Z</time>
      </trkpt>
      <trkpt lat="47.68969" lon="-2.20334">
        <ele>44.6</ele>
        <time>2021-05-27T14:58:16Z</time>
      </trkpt>
      <trkpt lat="47.68969" lon="-2.20331">
        <ele>44.6</ele>
        <time>2021-05-27T14:58:17Z</time>
      </trkpt>
      <trkpt lat="47.68969" lon="-2.20326">
        <ele>44.5</ele>
        <time>2021-05-27T14:58:18Z</time>
      </trkpt>
      <trkpt lat="47.68969" lon="-2.20323">
        <ele>44.4</ele>
        <time>2021-05-27T14:58:19Z</time>
      </trkpt>
      <trkpt lat="47.68969" lon="-2.20319">
        <ele>44.3</ele>
        <time>2021-05-27T14:58:20Z</time>
      </trkpt>
      <trkpt lat="47.6897" lon="-2.20319">
        <ele>44.5</ele>
        <time>2021-05-27T14:58:21Z</time>
      </trkpt>
      <trkpt lat="47.68972" lon="-2.2032">
        <ele>44.7</ele>
        <time>2021-05-27T14:58:22Z</time>
      </trkpt>
      <trkpt lat="47.68972" lon="-2.20322">
        <ele>44.8</ele>
        <time>2021-05-27T14:58:23Z</time>
      </trkpt>
      <trkpt lat="47.68972" lon="-2.20326">
        <ele>44.9</ele>
        <time>2021-05-27T14:58:24Z</time>
      </trkpt>
      <trkpt lat="47.68972" lon="-2.20329">
        <ele>44.9</ele>
        <time>2021-05-27T14:58:25Z</time>
      </trkpt>
      <trkpt lat="47.68972" lon="-2.20332">
        <ele>44.9</ele>
        <time>2021-05-27T14:58:26Z</time>
      </trkpt>
      <trkpt lat="47.68972" lon="-2.20335">
        <ele>45</ele>
        <time>2021-05-27T14:58:27Z</time>
      </trkpt>
      <trkpt lat="47.68974" lon="-2.20336">
        <ele>45.2</ele>
        <time>2021-05-27T14:58:28Z</time>
      </trkpt>
      <trkpt lat="47.68976" lon="-2.20335">
        <ele>45.5</ele>
        <time>2021-05-27T14:58:29Z</time>
      </trkpt>
      <trkpt lat="47.68978" lon="-2.20334">
        <ele>45.8</ele>
        <time>2021-05-27T14:58:30Z</time>
      </trkpt>
      <trkpt lat="47.6898" lon="-2.20332">
        <ele>46.1</ele>
        <time>2021-05-27T14:58:31Z</time>
      </trkpt>
      <trkpt lat="47.68981" lon="-2.2033">
        <ele>46.1</ele>
        <time>2021-05-27T14:58:32Z</time>
      </trkpt>
      <trkpt lat="47.68981" lon="-2.20326">
        <ele>46.1</ele>
        <time>2021-05-27T14:58:33Z</time>
      </trkpt>
      <trkpt lat="47.6898" lon="-2.20323">
        <ele>45.9</ele>
        <time>2021-05-27T14:58:34Z</time>
      </trkpt>
      <trkpt lat="47.68979" lon="-2.20319">
        <ele>45.7</ele>
        <time>2021-05-27T14:58:35Z</time>
      </trkpt>
      <trkpt lat="47.68979" lon="-2.20315">
        <ele>45.6</ele>
        <time>2021-05-27T14:58:36Z</time>
      </trkpt>
      <trkpt lat="47.68978" lon="-2.20311">
        <ele>45.4</ele>
        <time>2021-05-27T14:58:37Z</time>
      </trkpt>
      <trkpt lat="47.68978" lon="-2.20309">
        <ele>45.3</ele>
        <time>2021-05-27T14:58:38Z</time>
      </trkpt>
      <trkpt lat="47.68977" lon="-2.20308">
        <ele>45.2</ele>
        <time>2021-05-27T14:58:39Z</time>
      </trkpt>
      <trkpt lat="47.68975" lon="-2.20306">
        <ele>45</ele>
        <time>2021-05-27T14:58:40Z</time>
      </trkpt>
      <trkpt lat="47.68973" lon="-2.20306">
        <ele>44.6</ele>
        <time>2021-05-27T14:58:41Z</time>
      </trkpt>
      <trkpt lat="47.68969" lon="-2.20304">
        <ele>44.2</ele>
        <time>2021-05-27T14:58:42Z</time>
      </trkpt>
      <trkpt lat="47.68965" lon="-2.20304">
        <ele>43.6</ele>
        <time>2021-05-27T14:58:43Z</time>
      </trkpt>
      <trkpt lat="47.68962" lon="-2.20304">
        <ele>43.3</ele>
        <time>2021-05-27T14:58:44Z</time>
      </trkpt>
      <trkpt lat="47.6896" lon="-2.20303">
        <ele>43</ele>
        <time>2021-05-27T14:58:45Z</time>
      </trkpt>
      <trkpt lat="47.68957" lon="-2.20301">
        <ele>42.7</ele>
        <time>2021-05-27T14:58:46Z</time>
      </trkpt>
      <trkpt lat="47.68955" lon="-2.20299">
        <ele>42.3</ele>
        <time>2021-05-27T14:58:47Z</time>
      </trkpt>
      <trkpt lat="47.68952" lon="-2.20297">
        <ele>42</ele>
        <time>2021-05-27T14:58:48Z</time>
      </trkpt>
      <trkpt lat="47.6895" lon="-2.20293">
        <ele>41.9</ele>
        <time>2021-05-27T14:58:49Z</time>
      </trkpt>
      <trkpt lat="47.6895" lon="-2.2029">
        <ele>41.8</ele>
        <time>2021-05-27T14:58:50Z</time>
      </trkpt>
      <trkpt lat="47.68949" lon="-2.20287">
        <ele>41.7</ele>
        <time>2021-05-27T14:58:51Z</time>
      </trkpt>
      <trkpt lat="47.68947" lon="-2.20283">
        <ele>41.5</ele>
        <time>2021-05-27T14:58:52Z</time>
      </trkpt>
      <trkpt lat="47.68946" lon="-2.2028">
        <ele>41.4</ele>
        <time>2021-05-27T14:58:53Z</time>
      </trkpt>
      <trkpt lat="47.68945" lon="-2.20278">
        <ele>41.3</ele>
        <time>2021-05-27T14:58:54Z</time>
      </trkpt>
      <trkpt lat="47.68944" lon="-2.20276">
        <ele>41.2</ele>
        <time>2021-05-27T14:58:55Z</time>
      </trkpt>
      <trkpt lat="47.68944" lon="-2.20273">
        <ele>41.2</ele>
        <time>2021-05-27T14:58:56Z</time>
      </trkpt>
      <trkpt lat="47.68944" lon="-2.20271">
        <ele>41.2</ele>
        <time>2021-05-27T14:58:57Z</time>
      </trkpt>
      <trkpt lat="47.68945" lon="-2.20268">
        <ele>41.3</ele>
        <time>2021-05-27T14:58:58Z</time>
      </trkpt>
      <trkpt lat="47.68945" lon="-2.20266">
        <ele>41.4</ele>
        <time>2021-05-27T14:58:59Z</time>
      </trkpt>
      <trkpt lat="47.68946" lon="-2.20264">
        <ele>41.4</ele>
        <time>2021-05-27T14:59:00Z</time>
      </trkpt>
      <trkpt lat="47.68947" lon="-2.20262">
        <ele>41.5</ele>
        <time>2021-05-27T14:59:01Z</time>
      </trkpt>
      <trkpt lat="47.68947" lon="-2.20261">
        <ele>41.5</ele>
        <time>2021-05-27T14:59:02Z</time>
      </trkpt>
      <trkpt lat="47.68947" lon="-2.20261">
        <ele>41.6</ele>
        <time>2021-05-27T14:59:03Z</time>
      </trkpt>
      <trkpt lat="47.68948" lon="-2.20261">
        <ele>41.6</ele>
        <time>2021-05-27T14:59:04Z</time>
      </trkpt>
      <trkpt lat="47.68948" lon="-2.20261">
        <ele>41.6</ele>
        <time>2021-05-27T14:59:05Z</time>
      </trkpt>
      <trkpt lat="47.68948" lon="-2.20261">
        <ele>41.6</ele>
        <time>2021-05-27T14:59:06Z</time>
      </trkpt>
      <trkpt lat="47.68948" lon="-2.20261">
        <ele>41.6</ele>
        <time>2021-05-27T14:59:07Z</time>
      </trkpt>
      <trkpt lat="47.68948" lon="-2.20261">
        <ele>41.6</ele>
        <time>2021-05-27T14:59:08Z</time>
      </trkpt>
      <trkpt lat="47.68948" lon="-2.20261">
        <ele>41.6</ele>
        <time>2021-05-27T14:59:09Z</time>
      </trkpt>
      <trkpt lat="47.68948" lon="-2.20261">
        <ele>41.6</ele>
        <time>2021-05-27T14:59:10Z</time>
      </trkpt>
      <trkpt lat="47.68948" lon="-2.20261">
        <ele>41.6</ele>
        <time>2021-05-27T14:59:11Z</time>
      </trkpt>
      <trkpt lat="47.68948" lon="-2.20261">
        <ele>41.6</ele>
        <time>2021-05-27T14:59:12Z</time>
      </trkpt>
      <trkpt lat="47.68948" lon="-2.20261">
        <ele>41.6</ele>
        <time>2021-05-27T14:59:13Z</time>
      </trkpt>
      <trkpt lat="47.68948" lon="-2.20261">
        <ele>41.6</ele>
        <time>2021-05-27T14:59:14Z</time>
      </trkpt>
      <trkpt lat="47.68948" lon="-2.20261">
        <ele>41.6</ele>
        <time>2021-05-27T14:59:15Z</time>
      </trkpt>
      <trkpt lat="47.68948" lon="-2.20261">
        <ele>41.6</ele>
        <time>2021-05-27T14:59:16Z</time>
      </trkpt>
      <trkpt lat="47.68948" lon="-2.20261">
        <ele>41.6</ele>
        <time>2021-05-27T14:59:17Z</time>
      </trkpt>
      <trkpt lat="47.68948" lon="-2.20261">
        <ele>41.6</ele>
        <time>2021-05-27T14:59:18Z</time>
      </trkpt>
      <trkpt lat="47.68953" lon="-2.20249">
        <ele>42.1</ele>
        <time>2021-05-27T14:59:19Z</time>
      </trkpt>
      <trkpt lat="47.68954" lon="-2.20245">
        <ele>42.2</ele>
        <time>2021-05-27T14:59:20Z</time>
      </trkpt>
      <trkpt lat="47.68955" lon="-2.20243">
        <ele>42.4</ele>
        <time>2021-05-27T14:59:21Z</time>
      </trkpt>
      <trkpt lat="47.68955" lon="-2.2024">
        <ele>42.4</ele>
        <time>2021-05-27T14:59:22Z</time>
      </trkpt>
      <trkpt lat="47.68954" lon="-2.20238">
        <ele>42.4</ele>
        <time>2021-05-27T14:59:23Z</time>
      </trkpt>
      <trkpt lat="47.68954" lon="-2.20235">
        <ele>42.4</ele>
        <time>2021-05-27T14:59:24Z</time>
      </trkpt>
      <trkpt lat="47.68953" lon="-2.2023">
        <ele>42.5</ele>
        <time>2021-05-27T14:59:25Z</time>
      </trkpt>
      <trkpt lat="47.68953" lon="-2.20226">
        <ele>42.6</ele>
        <time>2021-05-27T14:59:26Z</time>
      </trkpt>
      <trkpt lat="47.68953" lon="-2.20223">
        <ele>42.7</ele>
        <time>2021-05-27T14:59:27Z</time>
      </trkpt>
      <trkpt lat="47.68954" lon="-2.2022">
        <ele>42.8</ele>
        <time>2021-05-27T14:59:28Z</time>
      </trkpt>
      <trkpt lat="47.68954" lon="-2.20216">
        <ele>42.8</ele>
        <time>2021-05-27T14:59:29Z</time>
      </trkpt>
      <trkpt lat="47.68954" lon="-2.20213">
        <ele>42.9</ele>
        <time>2021-05-27T14:59:30Z</time>
      </trkpt>
      <trkpt lat="47.68954" lon="-2.2021">
        <ele>43</ele>
        <time>2021-05-27T14:59:31Z</time>
      </trkpt>
      <trkpt lat="47.68955" lon="-2.20207">
        <ele>43.1</ele>
        <time>2021-05-27T14:59:32Z</time>
      </trkpt>
      <trkpt lat="47.68956" lon="-2.20204">
        <ele>43.2</ele>
        <time>2021-05-27T14:59:33Z</time>
      </trkpt>
      <trkpt lat="47.68957" lon="-2.202">
        <ele>43.3</ele>
        <time>2021-05-27T14:59:34Z</time>
      </trkpt>
      <trkpt lat="47.68957" lon="-2.20197">
        <ele>43.4</ele>
        <time>2021-05-27T14:59:35Z</time>
      </trkpt>
      <trkpt lat="47.68957" lon="-2.20194">
        <ele>43.5</ele>
        <time>2021-05-27T14:59:36Z</time>
      </trkpt>
      <trkpt lat="47.68957" lon="-2.20191">
        <ele>43.5</ele>
        <time>2021-05-27T14:59:37Z</time>
      </trkpt>
      <trkpt lat="47.68957" lon="-2.20187">
        <ele>43.6</ele>
        <time>2021-05-27T14:59:38Z</time>
      </trkpt>
      <trkpt lat="47.68956" lon="-2.20185">
        <ele>43.6</ele>
        <time>2021-05-27T14:59:39Z</time>
      </trkpt>
      <trkpt lat="47.68955" lon="-2.20184">
        <ele>43.6</ele>
        <time>2021-05-27T14:59:40Z</time>
      </trkpt>
      <trkpt lat="47.68953" lon="-2.20183">
        <ele>43.5</ele>
        <time>2021-05-27T14:59:41Z</time>
      </trkpt>
      <trkpt lat="47.68952" lon="-2.2018">
        <ele>43.5</ele>
        <time>2021-05-27T14:59:42Z</time>
      </trkpt>
      <trkpt lat="47.68949" lon="-2.20178">
        <ele>43.5</ele>
        <time>2021-05-27T14:59:43Z</time>
      </trkpt>
      <trkpt lat="47.68947" lon="-2.20174">
        <ele>43.5</ele>
        <time>2021-05-27T14:59:44Z</time>
      </trkpt>
      <trkpt lat="47.68944" lon="-2.20172">
        <ele>43.5</ele>
        <time>2021-05-27T14:59:45Z</time>
      </trkpt>
      <trkpt lat="47.68941" lon="-2.20169">
        <ele>43.5</ele>
        <time>2021-05-27T14:59:46Z</time>
      </trkpt>
      <trkpt lat="47.6894" lon="-2.20166">
        <ele>43.5</ele>
        <time>2021-05-27T14:59:47Z</time>
      </trkpt>
      <trkpt lat="47.68939" lon="-2.20161">
        <ele>43.3</ele>
        <time>2021-05-27T14:59:48Z</time>
      </trkpt>
      <trkpt lat="47.68937" lon="-2.20157">
        <ele>43</ele>
        <time>2021-05-27T14:59:49Z</time>
      </trkpt>
      <trkpt lat="47.68936" lon="-2.20152">
        <ele>42.8</ele>
        <time>2021-05-27T14:59:50Z</time>
      </trkpt>
      <trkpt lat="47.68935" lon="-2.20148">
        <ele>42.5</ele>
        <time>2021-05-27T14:59:51Z</time>
      </trkpt>
      <trkpt lat="47.68935" lon="-2.20143">
        <ele>42.3</ele>
        <time>2021-05-27T14:59:52Z</time>
      </trkpt>
      <trkpt lat="47.68934" lon="-2.20139">
        <ele>42.1</ele>
        <time>2021-05-27T14:59:53Z</time>
      </trkpt>
      <trkpt lat="47.68933" lon="-2.20134">
        <ele>41.8</ele>
        <time>2021-05-27T14:59:54Z</time>
      </trkpt>
      <trkpt lat="47.68931" lon="-2.2013">
        <ele>41.6</ele>
        <time>2021-05-27T14:59:55Z</time>
      </trkpt>
      <trkpt lat="47.68929" lon="-2.20125">
        <ele>41.4</ele>
        <time>2021-05-27T14:59:56Z</time>
      </trkpt>
      <trkpt lat="47.68929" lon="-2.20121">
        <ele>41.3</ele>
        <time>2021-05-27T14:59:57Z</time>
      </trkpt>
      <trkpt lat="47.68929" lon="-2.20118">
        <ele>41.1</ele>
        <time>2021-05-27T14:59:58Z</time>
      </trkpt>
      <trkpt lat="47.6893" lon="-2.20116">
        <ele>41</ele>
        <time>2021-05-27T14:59:59Z</time>
      </trkpt>
      <trkpt lat="47.6893" lon="-2.20114">
        <ele>40.9</ele>
        <time>2021-05-27T15:00:00Z</time>
      </trkpt>
      <trkpt lat="47.6893" lon="-2.20111">
        <ele>40.8</ele>
        <time>2021-05-27T15:00:01Z</time>
      </trkpt>
      <trkpt lat="47.68929" lon="-2.20107">
        <ele>40.6</ele>
        <time>2021-05-27T15:00:02Z</time>
      </trkpt>
      <trkpt lat="47.68929" lon="-2.20104">
        <ele>40.5</ele>
        <time>2021-05-27T15:00:03Z</time>
      </trkpt>
      <trkpt lat="47.68929" lon="-2.20102">
        <ele>40.4</ele>
        <time>2021-05-27T15:00:04Z</time>
      </trkpt>
      <trkpt lat="47.68929" lon="-2.20102">
        <ele>40.4</ele>
        <time>2021-05-27T15:00:05Z</time>
      </trkpt>
      <trkpt lat="47.68929" lon="-2.20101">
        <ele>40.4</ele>
        <time>2021-05-27T15:00:06Z</time>
      </trkpt>
      <trkpt lat="47.68929" lon="-2.20101">
        <ele>40.4</ele>
        <time>2021-05-27T15:00:07Z</time>
      </trkpt>
      <trkpt lat="47.68929" lon="-2.20101">
        <ele>40.4</ele>
        <time>2021-05-27T15:00:08Z</time>
      </trkpt>
      <trkpt lat="47.68929" lon="-2.20101">
        <ele>40.4</ele>
        <time>2021-05-27T15:00:09Z</time>
      </trkpt>
      <trkpt lat="47.68929" lon="-2.20101">
        <ele>40.4</ele>
        <time>2021-05-27T15:00:10Z</time>
      </trkpt>
      <trkpt lat="47.68929" lon="-2.20101">
        <ele>40.4</ele>
        <time>2021-05-27T15:00:11Z</time>
      </trkpt>
      <trkpt lat="47.68929" lon="-2.20101">
        <ele>40.4</ele>
        <time>2021-05-27T15:00:12Z</time>
      </trkpt>
      <trkpt lat="47.68929" lon="-2.20101">
        <ele>40.4</ele>
        <time>2021-05-27T15:00:13Z</time>
      </trkpt>
      <trkpt lat="47.68929" lon="-2.20101">
        <ele>40.4</ele>
        <time>2021-05-27T15:00:14Z</time>
      </trkpt>
      <trkpt lat="47.68929" lon="-2.20101">
        <ele>40.4</ele>
        <time>2021-05-27T15:00:15Z</time>
      </trkpt>
      <trkpt lat="47.68929" lon="-2.20101">
        <ele>40.4</ele>
        <time>2021-05-27T15:00:16Z</time>
      </trkpt>
      <trkpt lat="47.68929" lon="-2.20101">
        <ele>40.4</ele>
        <time>2021-05-27T15:00:17Z</time>
      </trkpt>
      <trkpt lat="47.68929" lon="-2.20101">
        <ele>40.4</ele>
        <time>2021-05-27T15:00:18Z</time>
      </trkpt>
      <trkpt lat="47.68929" lon="-2.20101">
        <ele>40.4</ele>
        <time>2021-05-27T15:00:19Z</time>
      </trkpt>
      <trkpt lat="47.68929" lon="-2.20101">
        <ele>40.4</ele>
        <time>2021-05-27T15:00:20Z</time>
      </trkpt>
      <trkpt lat="47.68929" lon="-2.20101">
        <ele>40.4</ele>
        <time>2021-05-27T15:00:21Z</time>
      </trkpt>
      <trkpt lat="47.68929" lon="-2.20101">
        <ele>40.4</ele>
        <time>2021-05-27T15:00:22Z</time>
      </trkpt>
      <trkpt lat="47.68929" lon="-2.20101">
        <ele>40.4</ele>
        <time>2021-05-27T15:00:23Z</time>
      </trkpt>
      <trkpt lat="47.68929" lon="-2.20101">
        <ele>40.4</ele>
        <time>2021-05-27T15:00:24Z</time>
      </trkpt>
      <trkpt lat="47.68929" lon="-2.20101">
        <ele>40.4</ele>
        <time>2021-05-27T15:00:25Z</time>
      </trkpt>
      <trkpt lat="47.68929" lon="-2.20101">
        <ele>40.4</ele>
        <time>2021-05-27T15:00:26Z</time>
      </trkpt>
      <trkpt lat="47.68929" lon="-2.20101">
        <ele>40.4</ele>
        <time>2021-05-27T15:00:27Z</time>
      </trkpt>
      <trkpt lat="47.68929" lon="-2.20101">
        <ele>40.4</ele>
        <time>2021-05-27T15:00:28Z</time>
      </trkpt>
      <trkpt lat="47.68929" lon="-2.20101">
        <ele>40.4</ele>
        <time>2021-05-27T15:00:29Z</time>
      </trkpt>
      <trkpt lat="47.68922" lon="-2.20093">
        <ele>40.2</ele>
        <time>2021-05-27T15:00:30Z</time>
      </trkpt>
      <trkpt lat="47.68919" lon="-2.20092">
        <ele>40.2</ele>
        <time>2021-05-27T15:00:31Z</time>
      </trkpt>
      <trkpt lat="47.68916" lon="-2.20092">
        <ele>40.3</ele>
        <time>2021-05-27T15:00:32Z</time>
      </trkpt>
      <trkpt lat="47.68914" lon="-2.20091">
        <ele>40</ele>
        <time>2021-05-27T15:00:33Z</time>
      </trkpt>
      <trkpt lat="47.68912" lon="-2.20089">
        <ele>39.8</ele>
        <time>2021-05-27T15:00:34Z</time>
      </trkpt>
      <trkpt lat="47.68909" lon="-2.20089">
        <ele>39.5</ele>
        <time>2021-05-27T15:00:35Z</time>
      </trkpt>
      <trkpt lat="47.68907" lon="-2.20088">
        <ele>39.3</ele>
        <time>2021-05-27T15:00:36Z</time>
      </trkpt>
      <trkpt lat="47.68904" lon="-2.20086">
        <ele>39</ele>
        <time>2021-05-27T15:00:37Z</time>
      </trkpt>
      <trkpt lat="47.68902" lon="-2.20085">
        <ele>38.8</ele>
        <time>2021-05-27T15:00:38Z</time>
      </trkpt>
      <trkpt lat="47.68899" lon="-2.20084">
        <ele>38.5</ele>
        <time>2021-05-27T15:00:39Z</time>
      </trkpt>
      <trkpt lat="47.68895" lon="-2.20085">
        <ele>38.2</ele>
        <time>2021-05-27T15:00:40Z</time>
      </trkpt>
      <trkpt lat="47.68892" lon="-2.20086">
        <ele>38</ele>
        <time>2021-05-27T15:00:41Z</time>
      </trkpt>
      <trkpt lat="47.6889" lon="-2.20088">
        <ele>37.8</ele>
        <time>2021-05-27T15:00:42Z</time>
      </trkpt>
      <trkpt lat="47.68887" lon="-2.20089">
        <ele>37.6</ele>
        <time>2021-05-27T15:00:43Z</time>
      </trkpt>
      <trkpt lat="47.68884" lon="-2.20091">
        <ele>37.4</ele>
        <time>2021-05-27T15:00:44Z</time>
      </trkpt>
      <trkpt lat="47.68883" lon="-2.20092">
        <ele>37.2</ele>
        <time>2021-05-27T15:00:45Z</time>
      </trkpt>
      <trkpt lat="47.68881" lon="-2.20092">
        <ele>37.1</ele>
        <time>2021-05-27T15:00:46Z</time>
      </trkpt>
      <trkpt lat="47.68878" lon="-2.2009">
        <ele>36.8</ele>
        <time>2021-05-27T15:00:47Z</time>
      </trkpt>
      <trkpt lat="47.68876" lon="-2.20086">
        <ele>36.6</ele>
        <time>2021-05-27T15:00:48Z</time>
      </trkpt>
      <trkpt lat="47.68874" lon="-2.20083">
        <ele>36.4</ele>
        <time>2021-05-27T15:00:49Z</time>
      </trkpt>
      <trkpt lat="47.68873" lon="-2.20078">
        <ele>35.7</ele>
        <time>2021-05-27T15:00:50Z</time>
      </trkpt>
      <trkpt lat="47.68872" lon="-2.20074">
        <ele>35.3</ele>
        <time>2021-05-27T15:00:51Z</time>
      </trkpt>
      <trkpt lat="47.68872" lon="-2.20069">
        <ele>34.8</ele>
        <time>2021-05-27T15:00:52Z</time>
      </trkpt>
      <trkpt lat="47.68873" lon="-2.20065">
        <ele>34.4</ele>
        <time>2021-05-27T15:00:53Z</time>
      </trkpt>
      <trkpt lat="47.68871" lon="-2.20061">
        <ele>34</ele>
        <time>2021-05-27T15:00:54Z</time>
      </trkpt>
      <trkpt lat="47.6887" lon="-2.20057">
        <ele>33.5</ele>
        <time>2021-05-27T15:00:55Z</time>
      </trkpt>
      <trkpt lat="47.68867" lon="-2.20055">
        <ele>33.2</ele>
        <time>2021-05-27T15:00:56Z</time>
      </trkpt>
      <trkpt lat="47.68864" lon="-2.20053">
        <ele>32.8</ele>
        <time>2021-05-27T15:00:57Z</time>
      </trkpt>
      <trkpt lat="47.68861" lon="-2.20052">
        <ele>32.5</ele>
        <time>2021-05-27T15:00:58Z</time>
      </trkpt>
      <trkpt lat="47.68856" lon="-2.2005">
        <ele>32.2</ele>
        <time>2021-05-27T15:00:59Z</time>
      </trkpt>
      <trkpt lat="47.68848" lon="-2.2005">
        <ele>31.8</ele>
        <time>2021-05-27T15:01:00Z</time>
      </trkpt>
      <trkpt lat="47.68844" lon="-2.20051">
        <ele>31.6</ele>
        <time>2021-05-27T15:01:01Z</time>
      </trkpt>
      <trkpt lat="47.6884" lon="-2.20052">
        <ele>31.5</ele>
        <time>2021-05-27T15:01:02Z</time>
      </trkpt>
      <trkpt lat="47.68837" lon="-2.20053">
        <ele>31.3</ele>
        <time>2021-05-27T15:01:03Z</time>
      </trkpt>
      <trkpt lat="47.68833" lon="-2.20053">
        <ele>31.2</ele>
        <time>2021-05-27T15:01:04Z</time>
      </trkpt>
      <trkpt lat="47.68831" lon="-2.20051">
        <ele>30.9</ele>
        <time>2021-05-27T15:01:05Z</time>
      </trkpt>
      <trkpt lat="47.68829" lon="-2.20049">
        <ele>30.7</ele>
        <time>2021-05-27T15:01:06Z</time>
      </trkpt>
      <trkpt lat="47.68828" lon="-2.20045">
        <ele>30.4</ele>
        <time>2021-05-27T15:01:07Z</time>
      </trkpt>
      <trkpt lat="47.68825" lon="-2.20042">
        <ele>30.1</ele>
        <time>2021-05-27T15:01:08Z</time>
      </trkpt>
      <trkpt lat="47.68824" lon="-2.2004">
        <ele>29.9</ele>
        <time>2021-05-27T15:01:09Z</time>
      </trkpt>
      <trkpt lat="47.68821" lon="-2.20039">
        <ele>29.7</ele>
        <time>2021-05-27T15:01:10Z</time>
      </trkpt>
      <trkpt lat="47.68819" lon="-2.20038">
        <ele>29.6</ele>
        <time>2021-05-27T15:01:11Z</time>
      </trkpt>
      <trkpt lat="47.68816" lon="-2.20037">
        <ele>29.3</ele>
        <time>2021-05-27T15:01:12Z</time>
      </trkpt>
      <trkpt lat="47.68813" lon="-2.20037">
        <ele>29.2</ele>
        <time>2021-05-27T15:01:13Z</time>
      </trkpt>
      <trkpt lat="47.68808" lon="-2.20037">
        <ele>29</ele>
        <time>2021-05-27T15:01:14Z</time>
      </trkpt>
      <trkpt lat="47.68805" lon="-2.20038">
        <ele>28.8</ele>
        <time>2021-05-27T15:01:15Z</time>
      </trkpt>
      <trkpt lat="47.68803" lon="-2.20039">
        <ele>28.7</ele>
        <time>2021-05-27T15:01:16Z</time>
      </trkpt>
      <trkpt lat="47.68801" lon="-2.2004">
        <ele>28.7</ele>
        <time>2021-05-27T15:01:17Z</time>
      </trkpt>
      <trkpt lat="47.68798" lon="-2.20041">
        <ele>28.6</ele>
        <time>2021-05-27T15:01:18Z</time>
      </trkpt>
      <trkpt lat="47.68795" lon="-2.20042">
        <ele>28.4</ele>
        <time>2021-05-27T15:01:19Z</time>
      </trkpt>
      <trkpt lat="47.68792" lon="-2.20044">
        <ele>28.4</ele>
        <time>2021-05-27T15:01:20Z</time>
      </trkpt>
      <trkpt lat="47.68789" lon="-2.20047">
        <ele>28.3</ele>
        <time>2021-05-27T15:01:21Z</time>
      </trkpt>
      <trkpt lat="47.68786" lon="-2.20049">
        <ele>28.1</ele>
        <time>2021-05-27T15:01:22Z</time>
      </trkpt>
      <trkpt lat="47.68782" lon="-2.2005">
        <ele>27.9</ele>
        <time>2021-05-27T15:01:23Z</time>
      </trkpt>
      <trkpt lat="47.68778" lon="-2.20052">
        <ele>27.8</ele>
        <time>2021-05-27T15:01:24Z</time>
      </trkpt>
      <trkpt lat="47.68775" lon="-2.20053">
        <ele>27.6</ele>
        <time>2021-05-27T15:01:25Z</time>
      </trkpt>
      <trkpt lat="47.68774" lon="-2.20053">
        <ele>27.5</ele>
        <time>2021-05-27T15:01:26Z</time>
      </trkpt>
      <trkpt lat="47.68773" lon="-2.20053">
        <ele>27.4</ele>
        <time>2021-05-27T15:01:27Z</time>
      </trkpt>
      <trkpt lat="47.68773" lon="-2.20053">
        <ele>27.4</ele>
        <time>2021-05-27T15:01:28Z</time>
      </trkpt>
      <trkpt lat="47.68774" lon="-2.20053">
        <ele>27.5</ele>
        <time>2021-05-27T15:01:29Z</time>
      </trkpt>
      <trkpt lat="47.68774" lon="-2.20053">
        <ele>27.5</ele>
        <time>2021-05-27T15:01:30Z</time>
      </trkpt>
      <trkpt lat="47.68774" lon="-2.20053">
        <ele>27.5</ele>
        <time>2021-05-27T15:01:31Z</time>
      </trkpt>
      <trkpt lat="47.68774" lon="-2.20053">
        <ele>27.5</ele>
        <time>2021-05-27T15:01:32Z</time>
      </trkpt>
      <trkpt lat="47.68774" lon="-2.20053">
        <ele>27.5</ele>
        <time>2021-05-27T15:01:33Z</time>
      </trkpt>
      <trkpt lat="47.68774" lon="-2.20053">
        <ele>27.5</ele>
        <time>2021-05-27T15:01:34Z</time>
      </trkpt>
      <trkpt lat="47.68774" lon="-2.20053">
        <ele>27.5</ele>
        <time>2021-05-27T15:01:35Z</time>
      </trkpt>
      <trkpt lat="47.68774" lon="-2.20053">
        <ele>27.5</ele>
        <time>2021-05-27T15:01:36Z</time>
      </trkpt>
      <trkpt lat="47.68774" lon="-2.20053">
        <ele>27.5</ele>
        <time>2021-05-27T15:01:37Z</time>
      </trkpt>
      <trkpt lat="47.68774" lon="-2.20053">
        <ele>27.5</ele>
        <time>2021-05-27T15:01:38Z</time>
      </trkpt>
      <trkpt lat="47.68774" lon="-2.20053">
        <ele>27.5</ele>
        <time>2021-05-27T15:01:39Z</time>
      </trkpt>
      <trkpt lat="47.68774" lon="-2.20053">
        <ele>27.5</ele>
        <time>2021-05-27T15:01:40Z</time>
      </trkpt>
      <trkpt lat="47.68774" lon="-2.20053">
        <ele>27.5</ele>
        <time>2021-05-27T15:01:41Z</time>
      </trkpt>
      <trkpt lat="47.68774" lon="-2.20053">
        <ele>27.5</ele>
        <time>2021-05-27T15:01:42Z</time>
      </trkpt>
      <trkpt lat="47.68774" lon="-2.20053">
        <ele>27.5</ele>
        <time>2021-05-27T15:01:43Z</time>
      </trkpt>
      <trkpt lat="47.68774" lon="-2.20053">
        <ele>27.5</ele>
        <time>2021-05-27T15:01:44Z</time>
      </trkpt>
      <trkpt lat="47.68774" lon="-2.20053">
        <ele>27.5</ele>
        <time>2021-05-27T15:01:45Z</time>
      </trkpt>
      <trkpt lat="47.68774" lon="-2.20053">
        <ele>27.5</ele>
        <time>2021-05-27T15:01:46Z</time>
      </trkpt>
      <trkpt lat="47.68774" lon="-2.20053">
        <ele>27.5</ele>
        <time>2021-05-27T15:01:47Z</time>
      </trkpt>
      <trkpt lat="47.68774" lon="-2.20053">
        <ele>27.5</ele>
        <time>2021-05-27T15:01:48Z</time>
      </trkpt>
      <trkpt lat="47.68774" lon="-2.20053">
        <ele>27.5</ele>
        <time>2021-05-27T15:01:49Z</time>
      </trkpt>
      <trkpt lat="47.68774" lon="-2.20053">
        <ele>27.5</ele>
        <time>2021-05-27T15:01:50Z</time>
      </trkpt>
      <trkpt lat="47.68774" lon="-2.20053">
        <ele>27.5</ele>
        <time>2021-05-27T15:01:51Z</time>
      </trkpt>
      <trkpt lat="47.68774" lon="-2.20053">
        <ele>27.5</ele>
        <time>2021-05-27T15:01:52Z</time>
      </trkpt>
      <trkpt lat="47.68774" lon="-2.20053">
        <ele>27.5</ele>
        <time>2021-05-27T15:01:53Z</time>
      </trkpt>
      <trkpt lat="47.68774" lon="-2.20053">
        <ele>27.5</ele>
        <time>2021-05-27T15:01:54Z</time>
      </trkpt>
      <trkpt lat="47.68774" lon="-2.20053">
        <ele>27.5</ele>
        <time>2021-05-27T15:01:55Z</time>
      </trkpt>
      <trkpt lat="47.68774" lon="-2.20053">
        <ele>27.5</ele>
        <time>2021-05-27T15:01:56Z</time>
      </trkpt>
      <trkpt lat="47.68774" lon="-2.20053">
        <ele>27.5</ele>
        <time>2021-05-27T15:01:57Z</time>
      </trkpt>
      <trkpt lat="47.68774" lon="-2.20053">
        <ele>27.5</ele>
        <time>2021-05-27T15:01:58Z</time>
      </trkpt>
      <trkpt lat="47.68774" lon="-2.20053">
        <ele>27.5</ele>
        <time>2021-05-27T15:01:59Z</time>
      </trkpt>
      <trkpt lat="47.68774" lon="-2.20053">
        <ele>27.5</ele>
        <time>2021-05-27T15:02:00Z</time>
      </trkpt>
      <trkpt lat="47.68774" lon="-2.20053">
        <ele>27.5</ele>
        <time>2021-05-27T15:02:01Z</time>
      </trkpt>
      <trkpt lat="47.68774" lon="-2.20053">
        <ele>27.5</ele>
        <time>2021-05-27T15:02:02Z</time>
      </trkpt>
      <trkpt lat="47.68774" lon="-2.20053">
        <ele>27.5</ele>
        <time>2021-05-27T15:02:03Z</time>
      </trkpt>
      <trkpt lat="47.68774" lon="-2.20053">
        <ele>27.5</ele>
        <time>2021-05-27T15:02:04Z</time>
      </trkpt>
      <trkpt lat="47.68774" lon="-2.20053">
        <ele>27.5</ele>
        <time>2021-05-27T15:02:05Z</time>
      </trkpt>
      <trkpt lat="47.68774" lon="-2.20053">
        <ele>27.5</ele>
        <time>2021-05-27T15:02:06Z</time>
      </trkpt>
      <trkpt lat="47.68774" lon="-2.20053">
        <ele>27.5</ele>
        <time>2021-05-27T15:02:07Z</time>
      </trkpt>
      <trkpt lat="47.68774" lon="-2.20053">
        <ele>27.5</ele>
        <time>2021-05-27T15:02:08Z</time>
      </trkpt>
      <trkpt lat="47.68774" lon="-2.20053">
        <ele>27.5</ele>
        <time>2021-05-27T15:02:09Z</time>
      </trkpt>
      <trkpt lat="47.68774" lon="-2.20053">
        <ele>27.5</ele>
        <time>2021-05-27T15:02:10Z</time>
      </trkpt>
      <trkpt lat="47.68774" lon="-2.20053">
        <ele>27.5</ele>
        <time>2021-05-27T15:02:11Z</time>
      </trkpt>
      <trkpt lat="47.68774" lon="-2.20053">
        <ele>27.5</ele>
        <time>2021-05-27T15:02:12Z</time>
      </trkpt>
      <trkpt lat="47.68774" lon="-2.20053">
        <ele>27.5</ele>
        <time>2021-05-27T15:02:13Z</time>
      </trkpt>
      <trkpt lat="47.68774" lon="-2.20053">
        <ele>27.5</ele>
        <time>2021-05-27T15:02:14Z</time>
      </trkpt>
      <trkpt lat="47.68774" lon="-2.20053">
        <ele>27.5</ele>
        <time>2021-05-27T15:02:15Z</time>
      </trkpt>
      <trkpt lat="47.68774" lon="-2.20053">
        <ele>27.5</ele>
        <time>2021-05-27T15:02:16Z</time>
      </trkpt>
      <trkpt lat="47.68774" lon="-2.20053">
        <ele>27.5</ele>
        <time>2021-05-27T15:02:17Z</time>
      </trkpt>
      <trkpt lat="47.68774" lon="-2.20053">
        <ele>27.5</ele>
        <time>2021-05-27T15:02:18Z</time>
      </trkpt>
      <trkpt lat="47.68774" lon="-2.20053">
        <ele>27.5</ele>
        <time>2021-05-27T15:02:19Z</time>
      </trkpt>
      <trkpt lat="47.68774" lon="-2.20053">
        <ele>27.5</ele>
        <time>2021-05-27T15:02:20Z</time>
      </trkpt>
      <trkpt lat="47.68774" lon="-2.20053">
        <ele>27.5</ele>
        <time>2021-05-27T15:02:21Z</time>
      </trkpt>
      <trkpt lat="47.68774" lon="-2.20053">
        <ele>27.5</ele>
        <time>2021-05-27T15:02:22Z</time>
      </trkpt>
      <trkpt lat="47.68774" lon="-2.20053">
        <ele>27.5</ele>
        <time>2021-05-27T15:02:23Z</time>
      </trkpt>
      <trkpt lat="47.68774" lon="-2.20053">
        <ele>27.5</ele>
        <time>2021-05-27T15:02:24Z</time>
      </trkpt>
      <trkpt lat="47.68774" lon="-2.20053">
        <ele>27.5</ele>
        <time>2021-05-27T15:02:25Z</time>
      </trkpt>
      <trkpt lat="47.68774" lon="-2.20053">
        <ele>27.5</ele>
        <time>2021-05-27T15:02:26Z</time>
      </trkpt>
      <trkpt lat="47.68774" lon="-2.20053">
        <ele>27.5</ele>
        <time>2021-05-27T15:02:27Z</time>
      </trkpt>
      <trkpt lat="47.68774" lon="-2.20053">
        <ele>27.5</ele>
        <time>2021-05-27T15:02:28Z</time>
      </trkpt>
      <trkpt lat="47.68774" lon="-2.20053">
        <ele>27.5</ele>
        <time>2021-05-27T15:02:29Z</time>
      </trkpt>
      <trkpt lat="47.68774" lon="-2.20053">
        <ele>27.5</ele>
        <time>2021-05-27T15:02:30Z</time>
      </trkpt>
      <trkpt lat="47.68774" lon="-2.20053">
        <ele>27.5</ele>
        <time>2021-05-27T15:02:31Z</time>
      </trkpt>
      <trkpt lat="47.68774" lon="-2.20053">
        <ele>27.5</ele>
        <time>2021-05-27T15:02:32Z</time>
      </trkpt>
      <trkpt lat="47.68774" lon="-2.20053">
        <ele>27.5</ele>
        <time>2021-05-27T15:02:33Z</time>
      </trkpt>
      <trkpt lat="47.68774" lon="-2.20053">
        <ele>27.5</ele>
        <time>2021-05-27T15:02:34Z</time>
      </trkpt>
      <trkpt lat="47.68774" lon="-2.20053">
        <ele>27.5</ele>
        <time>2021-05-27T15:02:35Z</time>
      </trkpt>
      <trkpt lat="47.68765" lon="-2.2006">
        <ele>27</ele>
        <time>2021-05-27T15:02:36Z</time>
      </trkpt>
      <trkpt lat="47.68765" lon="-2.20061">
        <ele>27</ele>
        <time>2021-05-27T15:02:37Z</time>
      </trkpt>
      <trkpt lat="47.68764" lon="-2.20062">
        <ele>26.9</ele>
        <time>2021-05-27T15:02:38Z</time>
      </trkpt>
      <trkpt lat="47.68764" lon="-2.20061">
        <ele>26.9</ele>
        <time>2021-05-27T15:02:39Z</time>
      </trkpt>
      <trkpt lat="47.68764" lon="-2.20061">
        <ele>26.9</ele>
        <time>2021-05-27T15:02:40Z</time>
      </trkpt>
      <trkpt lat="47.68764" lon="-2.20061">
        <ele>26.9</ele>
        <time>2021-05-27T15:02:41Z</time>
      </trkpt>
      <trkpt lat="47.68764" lon="-2.20061">
        <ele>26.9</ele>
        <time>2021-05-27T15:02:42Z</time>
      </trkpt>
      <trkpt lat="47.68764" lon="-2.20061">
        <ele>26.9</ele>
        <time>2021-05-27T15:02:43Z</time>
      </trkpt>
      <trkpt lat="47.68764" lon="-2.20061">
        <ele>26.9</ele>
        <time>2021-05-27T15:02:44Z</time>
      </trkpt>
      <trkpt lat="47.68764" lon="-2.20061">
        <ele>26.9</ele>
        <time>2021-05-27T15:02:45Z</time>
      </trkpt>
      <trkpt lat="47.68764" lon="-2.20061">
        <ele>26.9</ele>
        <time>2021-05-27T15:02:46Z</time>
      </trkpt>
      <trkpt lat="47.68764" lon="-2.20061">
        <ele>26.9</ele>
        <time>2021-05-27T15:02:47Z</time>
      </trkpt>
      <trkpt lat="47.68764" lon="-2.20061">
        <ele>26.9</ele>
        <time>2021-05-27T15:02:48Z</time>
      </trkpt>
      <trkpt lat="47.68764" lon="-2.20061">
        <ele>26.9</ele>
        <time>2021-05-27T15:02:49Z</time>
      </trkpt>
      <trkpt lat="47.68764" lon="-2.20061">
        <ele>26.9</ele>
        <time>2021-05-27T15:02:50Z</time>
      </trkpt>
      <trkpt lat="47.68764" lon="-2.20061">
        <ele>26.9</ele>
        <time>2021-05-27T15:02:51Z</time>
      </trkpt>
      <trkpt lat="47.68764" lon="-2.20061">
        <ele>26.9</ele>
        <time>2021-05-27T15:02:52Z</time>
      </trkpt>
      <trkpt lat="47.68764" lon="-2.20061">
        <ele>26.9</ele>
        <time>2021-05-27T15:02:53Z</time>
      </trkpt>
      <trkpt lat="47.68764" lon="-2.20061">
        <ele>26.9</ele>
        <time>2021-05-27T15:02:54Z</time>
      </trkpt>
      <trkpt lat="47.68764" lon="-2.20061">
        <ele>26.9</ele>
        <time>2021-05-27T15:02:55Z</time>
      </trkpt>
      <trkpt lat="47.68764" lon="-2.20061">
        <ele>26.9</ele>
        <time>2021-05-27T15:02:56Z</time>
      </trkpt>
      <trkpt lat="47.68764" lon="-2.20061">
        <ele>26.9</ele>
        <time>2021-05-27T15:02:57Z</time>
      </trkpt>
      <trkpt lat="47.68764" lon="-2.20061">
        <ele>26.9</ele>
        <time>2021-05-27T15:02:58Z</time>
      </trkpt>
      <trkpt lat="47.68764" lon="-2.20061">
        <ele>26.9</ele>
        <time>2021-05-27T15:02:59Z</time>
      </trkpt>
      <trkpt lat="47.68764" lon="-2.20061">
        <ele>26.9</ele>
        <time>2021-05-27T15:03:00Z</time>
      </trkpt>
      <trkpt lat="47.68764" lon="-2.20061">
        <ele>26.9</ele>
        <time>2021-05-27T15:03:01Z</time>
      </trkpt>
      <trkpt lat="47.68764" lon="-2.20061">
        <ele>26.9</ele>
        <time>2021-05-27T15:03:02Z</time>
      </trkpt>
      <trkpt lat="47.68764" lon="-2.20061">
        <ele>26.9</ele>
        <time>2021-05-27T15:03:03Z</time>
      </trkpt>
      <trkpt lat="47.68764" lon="-2.20061">
        <ele>26.9</ele>
        <time>2021-05-27T15:03:04Z</time>
      </trkpt>
      <trkpt lat="47.68764" lon="-2.20061">
        <ele>26.9</ele>
        <time>2021-05-27T15:03:05Z</time>
      </trkpt>
      <trkpt lat="47.68764" lon="-2.20061">
        <ele>26.9</ele>
        <time>2021-05-27T15:03:06Z</time>
      </trkpt>
      <trkpt lat="47.68764" lon="-2.20061">
        <ele>26.9</ele>
        <time>2021-05-27T15:03:07Z</time>
      </trkpt>
      <trkpt lat="47.68764" lon="-2.20061">
        <ele>26.9</ele>
        <time>2021-05-27T15:03:08Z</time>
      </trkpt>
      <trkpt lat="47.68764" lon="-2.20061">
        <ele>26.9</ele>
        <time>2021-05-27T15:03:09Z</time>
      </trkpt>
      <trkpt lat="47.68764" lon="-2.20061">
        <ele>26.9</ele>
        <time>2021-05-27T15:03:10Z</time>
      </trkpt>
      <trkpt lat="47.68764" lon="-2.20061">
        <ele>26.9</ele>
        <time>2021-05-27T15:03:11Z</time>
      </trkpt>
      <trkpt lat="47.68764" lon="-2.20061">
        <ele>26.9</ele>
        <time>2021-05-27T15:03:12Z</time>
      </trkpt>
      <trkpt lat="47.68764" lon="-2.20061">
        <ele>26.9</ele>
        <time>2021-05-27T15:03:13Z</time>
      </trkpt>
      <trkpt lat="47.68764" lon="-2.20061">
        <ele>26.9</ele>
        <time>2021-05-27T15:03:14Z</time>
      </trkpt>
      <trkpt lat="47.68764" lon="-2.20061">
        <ele>26.9</ele>
        <time>2021-05-27T15:03:15Z</time>
      </trkpt>
      <trkpt lat="47.68764" lon="-2.20061">
        <ele>26.9</ele>
        <time>2021-05-27T15:03:16Z</time>
      </trkpt>
      <trkpt lat="47.68764" lon="-2.20061">
        <ele>26.9</ele>
        <time>2021-05-27T15:03:17Z</time>
      </trkpt>
      <trkpt lat="47.68764" lon="-2.20061">
        <ele>26.9</ele>
        <time>2021-05-27T15:03:18Z</time>
      </trkpt>
      <trkpt lat="47.68764" lon="-2.20061">
        <ele>26.9</ele>
        <time>2021-05-27T15:03:19Z</time>
      </trkpt>
      <trkpt lat="47.68764" lon="-2.20061">
        <ele>26.9</ele>
        <time>2021-05-27T15:03:20Z</time>
      </trkpt>
      <trkpt lat="47.68764" lon="-2.20061">
        <ele>26.9</ele>
        <time>2021-05-27T15:03:21Z</time>
      </trkpt>
      <trkpt lat="47.68764" lon="-2.20061">
        <ele>26.9</ele>
        <time>2021-05-27T15:03:22Z</time>
      </trkpt>
      <trkpt lat="47.68764" lon="-2.20061">
        <ele>26.9</ele>
        <time>2021-05-27T15:03:23Z</time>
      </trkpt>
      <trkpt lat="47.68764" lon="-2.20061">
        <ele>26.9</ele>
        <time>2021-05-27T15:03:24Z</time>
      </trkpt>
      <trkpt lat="47.68764" lon="-2.20061">
        <ele>26.9</ele>
        <time>2021-05-27T15:03:25Z</time>
      </trkpt>
      <trkpt lat="47.68764" lon="-2.20061">
        <ele>26.9</ele>
        <time>2021-05-27T15:03:26Z</time>
      </trkpt>
      <trkpt lat="47.68764" lon="-2.20061">
        <ele>26.9</ele>
        <time>2021-05-27T15:03:27Z</time>
      </trkpt>
      <trkpt lat="47.68764" lon="-2.20061">
        <ele>26.9</ele>
        <time>2021-05-27T15:03:28Z</time>
      </trkpt>
      <trkpt lat="47.68764" lon="-2.20061">
        <ele>26.9</ele>
        <time>2021-05-27T15:03:29Z</time>
      </trkpt>
      <trkpt lat="47.68764" lon="-2.20061">
        <ele>26.9</ele>
        <time>2021-05-27T15:03:30Z</time>
      </trkpt>
      <trkpt lat="47.68764" lon="-2.20061">
        <ele>26.9</ele>
        <time>2021-05-27T15:03:31Z</time>
      </trkpt>
      <trkpt lat="47.68764" lon="-2.20061">
        <ele>26.9</ele>
        <time>2021-05-27T15:03:32Z</time>
      </trkpt>
      <trkpt lat="47.68764" lon="-2.20061">
        <ele>26.9</ele>
        <time>2021-05-27T15:03:33Z</time>
      </trkpt>
      <trkpt lat="47.68764" lon="-2.20061">
        <ele>26.9</ele>
        <time>2021-05-27T15:03:34Z</time>
      </trkpt>
      <trkpt lat="47.68764" lon="-2.20061">
        <ele>26.9</ele>
        <time>2021-05-27T15:03:35Z</time>
      </trkpt>
      <trkpt lat="47.68764" lon="-2.20061">
        <ele>26.9</ele>
        <time>2021-05-27T15:03:36Z</time>
      </trkpt>
      <trkpt lat="47.68764" lon="-2.20061">
        <ele>26.9</ele>
        <time>2021-05-27T15:03:37Z</time>
      </trkpt>
      <trkpt lat="47.68764" lon="-2.20061">
        <ele>26.9</ele>
        <time>2021-05-27T15:03:38Z</time>
      </trkpt>
      <trkpt lat="47.68764" lon="-2.20061">
        <ele>26.9</ele>
        <time>2021-05-27T15:03:39Z</time>
      </trkpt>
      <trkpt lat="47.68764" lon="-2.20061">
        <ele>26.9</ele>
        <time>2021-05-27T15:03:40Z</time>
      </trkpt>
      <trkpt lat="47.68764" lon="-2.20061">
        <ele>26.9</ele>
        <time>2021-05-27T15:03:41Z</time>
      </trkpt>
      <trkpt lat="47.68764" lon="-2.20061">
        <ele>26.9</ele>
        <time>2021-05-27T15:03:42Z</time>
      </trkpt>
      <trkpt lat="47.68764" lon="-2.20061">
        <ele>26.9</ele>
        <time>2021-05-27T15:03:43Z</time>
      </trkpt>
      <trkpt lat="47.68764" lon="-2.20061">
        <ele>26.9</ele>
        <time>2021-05-27T15:03:44Z</time>
      </trkpt>
      <trkpt lat="47.68764" lon="-2.20061">
        <ele>26.9</ele>
        <time>2021-05-27T15:03:45Z</time>
      </trkpt>
      <trkpt lat="47.68764" lon="-2.20061">
        <ele>26.9</ele>
        <time>2021-05-27T15:03:46Z</time>
      </trkpt>
      <trkpt lat="47.68764" lon="-2.20061">
        <ele>26.9</ele>
        <time>2021-05-27T15:03:47Z</time>
      </trkpt>
      <trkpt lat="47.68764" lon="-2.20061">
        <ele>26.9</ele>
        <time>2021-05-27T15:03:48Z</time>
      </trkpt>
      <trkpt lat="47.68764" lon="-2.20061">
        <ele>26.9</ele>
        <time>2021-05-27T15:03:49Z</time>
      </trkpt>
      <trkpt lat="47.68764" lon="-2.20061">
        <ele>26.9</ele>
        <time>2021-05-27T15:03:50Z</time>
      </trkpt>
      <trkpt lat="47.68764" lon="-2.20061">
        <ele>26.9</ele>
        <time>2021-05-27T15:03:51Z</time>
      </trkpt>
      <trkpt lat="47.68764" lon="-2.20061">
        <ele>26.9</ele>
        <time>2021-05-27T15:03:52Z</time>
      </trkpt>
      <trkpt lat="47.68764" lon="-2.20061">
        <ele>26.9</ele>
        <time>2021-05-27T15:03:53Z</time>
      </trkpt>
      <trkpt lat="47.68764" lon="-2.20061">
        <ele>26.9</ele>
        <time>2021-05-27T15:03:54Z</time>
      </trkpt>
      <trkpt lat="47.68764" lon="-2.20061">
        <ele>26.9</ele>
        <time>2021-05-27T15:03:55Z</time>
      </trkpt>
      <trkpt lat="47.68764" lon="-2.20061">
        <ele>26.9</ele>
        <time>2021-05-27T15:03:56Z</time>
      </trkpt>
      <trkpt lat="47.68764" lon="-2.20061">
        <ele>26.9</ele>
        <time>2021-05-27T15:03:57Z</time>
      </trkpt>
      <trkpt lat="47.68764" lon="-2.20061">
        <ele>26.9</ele>
        <time>2021-05-27T15:03:58Z</time>
      </trkpt>
      <trkpt lat="47.68763" lon="-2.20057">
        <ele>26.9</ele>
        <time>2021-05-27T15:03:59Z</time>
      </trkpt>
      <trkpt lat="47.68763" lon="-2.20055">
        <ele>26.8</ele>
        <time>2021-05-27T15:04:00Z</time>
      </trkpt>
      <trkpt lat="47.68762" lon="-2.20053">
        <ele>26.7</ele>
        <time>2021-05-27T15:04:01Z</time>
      </trkpt>
      <trkpt lat="47.6876" lon="-2.20051">
        <ele>26.6</ele>
        <time>2021-05-27T15:04:02Z</time>
      </trkpt>
      <trkpt lat="47.68759" lon="-2.20048">
        <ele>26.5</ele>
        <time>2021-05-27T15:04:03Z</time>
      </trkpt>
      <trkpt lat="47.68758" lon="-2.20046">
        <ele>26.5</ele>
        <time>2021-05-27T15:04:04Z</time>
      </trkpt>
      <trkpt lat="47.68758" lon="-2.20042">
        <ele>26.4</ele>
        <time>2021-05-27T15:04:05Z</time>
      </trkpt>
      <trkpt lat="47.68757" lon="-2.20037">
        <ele>26.4</ele>
        <time>2021-05-27T15:04:06Z</time>
      </trkpt>
      <trkpt lat="47.68756" lon="-2.20033">
        <ele>26.3</ele>
        <time>2021-05-27T15:04:07Z</time>
      </trkpt>
      <trkpt lat="47.68756" lon="-2.20029">
        <ele>26.3</ele>
        <time>2021-05-27T15:04:08Z</time>
      </trkpt>
      <trkpt lat="47.68755" lon="-2.20024">
        <ele>26.2</ele>
        <time>2021-05-27T15:04:09Z</time>
      </trkpt>
      <trkpt lat="47.68755" lon="-2.20019">
        <ele>26.2</ele>
        <time>2021-05-27T15:04:10Z</time>
      </trkpt>
      <trkpt lat="47.68754" lon="-2.20014">
        <ele>26.1</ele>
        <time>2021-05-27T15:04:11Z</time>
      </trkpt>
      <trkpt lat="47.68753" lon="-2.20009">
        <ele>26.1</ele>
        <time>2021-05-27T15:04:12Z</time>
      </trkpt>
      <trkpt lat="47.68752" lon="-2.20004">
        <ele>26.1</ele>
        <time>2021-05-27T15:04:13Z</time>
      </trkpt>
      <trkpt lat="47.68751" lon="-2.19999">
        <ele>26</ele>
        <time>2021-05-27T15:04:14Z</time>
      </trkpt>
      <trkpt lat="47.68749" lon="-2.19993">
        <ele>25.9</ele>
        <time>2021-05-27T15:04:15Z</time>
      </trkpt>
      <trkpt lat="47.68748" lon="-2.19987">
        <ele>25.8</ele>
        <time>2021-05-27T15:04:16Z</time>
      </trkpt>
      <trkpt lat="47.68746" lon="-2.19983">
        <ele>25.8</ele>
        <time>2021-05-27T15:04:17Z</time>
      </trkpt>
      <trkpt lat="47.68743" lon="-2.1998">
        <ele>25.8</ele>
        <time>2021-05-27T15:04:18Z</time>
      </trkpt>
      <trkpt lat="47.68741" lon="-2.19979">
        <ele>25.9</ele>
        <time>2021-05-27T15:04:19Z</time>
      </trkpt>
      <trkpt lat="47.68739" lon="-2.1998">
        <ele>26</ele>
        <time>2021-05-27T15:04:20Z</time>
      </trkpt>
      <trkpt lat="47.68737" lon="-2.19981">
        <ele>26.1</ele>
        <time>2021-05-27T15:04:21Z</time>
      </trkpt>
      <trkpt lat="47.68734" lon="-2.19984">
        <ele>26.3</ele>
        <time>2021-05-27T15:04:22Z</time>
      </trkpt>
      <trkpt lat="47.68732" lon="-2.19987">
        <ele>26.5</ele>
        <time>2021-05-27T15:04:23Z</time>
      </trkpt>
      <trkpt lat="47.68729" lon="-2.1999">
        <ele>26.6</ele>
        <time>2021-05-27T15:04:24Z</time>
      </trkpt>
      <trkpt lat="47.68726" lon="-2.19994">
        <ele>26.8</ele>
        <time>2021-05-27T15:04:25Z</time>
      </trkpt>
      <trkpt lat="47.68723" lon="-2.19996">
        <ele>26.9</ele>
        <time>2021-05-27T15:04:26Z</time>
      </trkpt>
      <trkpt lat="47.6872" lon="-2.19997">
        <ele>27</ele>
        <time>2021-05-27T15:04:27Z</time>
      </trkpt>
      <trkpt lat="47.68717" lon="-2.19997">
        <ele>27.2</ele>
        <time>2021-05-27T15:04:28Z</time>
      </trkpt>
      <trkpt lat="47.68714" lon="-2.19997">
        <ele>27.3</ele>
        <time>2021-05-27T15:04:29Z</time>
      </trkpt>
      <trkpt lat="47.68711" lon="-2.19994">
        <ele>27.4</ele>
        <time>2021-05-27T15:04:30Z</time>
      </trkpt>
      <trkpt lat="47.68709" lon="-2.19992">
        <ele>27.4</ele>
        <time>2021-05-27T15:04:31Z</time>
      </trkpt>
      <trkpt lat="47.68707" lon="-2.19989">
        <ele>27.5</ele>
        <time>2021-05-27T15:04:32Z</time>
      </trkpt>
      <trkpt lat="47.68706" lon="-2.19985">
        <ele>27.5</ele>
        <time>2021-05-27T15:04:33Z</time>
      </trkpt>
      <trkpt lat="47.68704" lon="-2.1998">
        <ele>27.6</ele>
        <time>2021-05-27T15:04:34Z</time>
      </trkpt>
      <trkpt lat="47.68703" lon="-2.19976">
        <ele>27.6</ele>
        <time>2021-05-27T15:04:35Z</time>
      </trkpt>
      <trkpt lat="47.68701" lon="-2.19971">
        <ele>27.7</ele>
        <time>2021-05-27T15:04:36Z</time>
      </trkpt>
      <trkpt lat="47.68699" lon="-2.19967">
        <ele>27.7</ele>
        <time>2021-05-27T15:04:37Z</time>
      </trkpt>
      <trkpt lat="47.68698" lon="-2.19962">
        <ele>27.8</ele>
        <time>2021-05-27T15:04:38Z</time>
      </trkpt>
      <trkpt lat="47.68697" lon="-2.19958">
        <ele>27.9</ele>
        <time>2021-05-27T15:04:39Z</time>
      </trkpt>
      <trkpt lat="47.68696" lon="-2.19954">
        <ele>27.9</ele>
        <time>2021-05-27T15:04:40Z</time>
      </trkpt>
      <trkpt lat="47.68696" lon="-2.19949">
        <ele>27.9</ele>
        <time>2021-05-27T15:04:41Z</time>
      </trkpt>
      <trkpt lat="47.68695" lon="-2.19945">
        <ele>28</ele>
        <time>2021-05-27T15:04:42Z</time>
      </trkpt>
      <trkpt lat="47.68694" lon="-2.19942">
        <ele>28</ele>
        <time>2021-05-27T15:04:43Z</time>
      </trkpt>
      <trkpt lat="47.68693" lon="-2.19938">
        <ele>28.1</ele>
        <time>2021-05-27T15:04:44Z</time>
      </trkpt>
      <trkpt lat="47.6869" lon="-2.19934">
        <ele>28.3</ele>
        <time>2021-05-27T15:04:45Z</time>
      </trkpt>
      <trkpt lat="47.68689" lon="-2.19928">
        <ele>28.4</ele>
        <time>2021-05-27T15:04:46Z</time>
      </trkpt>
      <trkpt lat="47.68686" lon="-2.19922">
        <ele>28.6</ele>
        <time>2021-05-27T15:04:47Z</time>
      </trkpt>
      <trkpt lat="47.68686" lon="-2.19917">
        <ele>28.6</ele>
        <time>2021-05-27T15:04:48Z</time>
      </trkpt>
      <trkpt lat="47.68684" lon="-2.19912">
        <ele>28.9</ele>
        <time>2021-05-27T15:04:49Z</time>
      </trkpt>
      <trkpt lat="47.68683" lon="-2.19908">
        <ele>29.2</ele>
        <time>2021-05-27T15:04:50Z</time>
      </trkpt>
      <trkpt lat="47.68683" lon="-2.19904">
        <ele>29.5</ele>
        <time>2021-05-27T15:04:51Z</time>
      </trkpt>
      <trkpt lat="47.68682" lon="-2.199">
        <ele>29.8</ele>
        <time>2021-05-27T15:04:52Z</time>
      </trkpt>
      <trkpt lat="47.68681" lon="-2.19896">
        <ele>30</ele>
        <time>2021-05-27T15:04:53Z</time>
      </trkpt>
      <trkpt lat="47.68681" lon="-2.19892">
        <ele>30.3</ele>
        <time>2021-05-27T15:04:54Z</time>
      </trkpt>
      <trkpt lat="47.6868" lon="-2.19888">
        <ele>30.6</ele>
        <time>2021-05-27T15:04:55Z</time>
      </trkpt>
      <trkpt lat="47.68678" lon="-2.19883">
        <ele>31</ele>
        <time>2021-05-27T15:04:56Z</time>
      </trkpt>
      <trkpt lat="47.68676" lon="-2.19878">
        <ele>31.4</ele>
        <time>2021-05-27T15:04:57Z</time>
      </trkpt>
      <trkpt lat="47.68675" lon="-2.19873">
        <ele>31.8</ele>
        <time>2021-05-27T15:04:58Z</time>
      </trkpt>
      <trkpt lat="47.68674" lon="-2.19867">
        <ele>32.2</ele>
        <time>2021-05-27T15:04:59Z</time>
      </trkpt>
      <trkpt lat="47.68672" lon="-2.19862">
        <ele>32.7</ele>
        <time>2021-05-27T15:05:00Z</time>
      </trkpt>
      <trkpt lat="47.68671" lon="-2.19858">
        <ele>33</ele>
        <time>2021-05-27T15:05:01Z</time>
      </trkpt>
      <trkpt lat="47.6867" lon="-2.19854">
        <ele>33.3</ele>
        <time>2021-05-27T15:05:02Z</time>
      </trkpt>
      <trkpt lat="47.68668" lon="-2.1985">
        <ele>33.8</ele>
        <time>2021-05-27T15:05:03Z</time>
      </trkpt>
      <trkpt lat="47.68666" lon="-2.19847">
        <ele>34.2</ele>
        <time>2021-05-27T15:05:04Z</time>
      </trkpt>
      <trkpt lat="47.68665" lon="-2.19843">
        <ele>34.4</ele>
        <time>2021-05-27T15:05:05Z</time>
      </trkpt>
      <trkpt lat="47.68664" lon="-2.19838">
        <ele>34.7</ele>
        <time>2021-05-27T15:05:06Z</time>
      </trkpt>
      <trkpt lat="47.68663" lon="-2.19834">
        <ele>35</ele>
        <time>2021-05-27T15:05:07Z</time>
      </trkpt>
      <trkpt lat="47.68662" lon="-2.1983">
        <ele>35.2</ele>
        <time>2021-05-27T15:05:08Z</time>
      </trkpt>
      <trkpt lat="47.68661" lon="-2.19826">
        <ele>35.4</ele>
        <time>2021-05-27T15:05:09Z</time>
      </trkpt>
      <trkpt lat="47.68659" lon="-2.19821">
        <ele>35.7</ele>
        <time>2021-05-27T15:05:10Z</time>
      </trkpt>
      <trkpt lat="47.68658" lon="-2.19816">
        <ele>36</ele>
        <time>2021-05-27T15:05:11Z</time>
      </trkpt>
      <trkpt lat="47.68657" lon="-2.19812">
        <ele>36.2</ele>
        <time>2021-05-27T15:05:12Z</time>
      </trkpt>
      <trkpt lat="47.68656" lon="-2.19807">
        <ele>36.4</ele>
        <time>2021-05-27T15:05:13Z</time>
      </trkpt>
      <trkpt lat="47.68656" lon="-2.19803">
        <ele>36.7</ele>
        <time>2021-05-27T15:05:14Z</time>
      </trkpt>
      <trkpt lat="47.68654" lon="-2.19799">
        <ele>36.9</ele>
        <time>2021-05-27T15:05:15Z</time>
      </trkpt>
      <trkpt lat="47.68653" lon="-2.19796">
        <ele>37.1</ele>
        <time>2021-05-27T15:05:16Z</time>
      </trkpt>
      <trkpt lat="47.68652" lon="-2.19793">
        <ele>37.2</ele>
        <time>2021-05-27T15:05:17Z</time>
      </trkpt>
      <trkpt lat="47.68651" lon="-2.19789">
        <ele>37.4</ele>
        <time>2021-05-27T15:05:18Z</time>
      </trkpt>
      <trkpt lat="47.6865" lon="-2.19785">
        <ele>37.6</ele>
        <time>2021-05-27T15:05:19Z</time>
      </trkpt>
      <trkpt lat="47.6865" lon="-2.19781">
        <ele>37.7</ele>
        <time>2021-05-27T15:05:20Z</time>
      </trkpt>
      <trkpt lat="47.6865" lon="-2.19778">
        <ele>37.9</ele>
        <time>2021-05-27T15:05:21Z</time>
      </trkpt>
      <trkpt lat="47.68648" lon="-2.19775">
        <ele>38</ele>
        <time>2021-05-27T15:05:22Z</time>
      </trkpt>
      <trkpt lat="47.68648" lon="-2.19772">
        <ele>38.2</ele>
        <time>2021-05-27T15:05:23Z</time>
      </trkpt>
      <trkpt lat="47.68647" lon="-2.19768">
        <ele>38.4</ele>
        <time>2021-05-27T15:05:24Z</time>
      </trkpt>
      <trkpt lat="47.68647" lon="-2.19763">
        <ele>38.6</ele>
        <time>2021-05-27T15:05:25Z</time>
      </trkpt>
      <trkpt lat="47.68645" lon="-2.19758">
        <ele>38.8</ele>
        <time>2021-05-27T15:05:26Z</time>
      </trkpt>
      <trkpt lat="47.68644" lon="-2.19753">
        <ele>39</ele>
        <time>2021-05-27T15:05:27Z</time>
      </trkpt>
      <trkpt lat="47.68643" lon="-2.19749">
        <ele>39.1</ele>
        <time>2021-05-27T15:05:28Z</time>
      </trkpt>
      <trkpt lat="47.68641" lon="-2.19746">
        <ele>39</ele>
        <time>2021-05-27T15:05:29Z</time>
      </trkpt>
      <trkpt lat="47.68638" lon="-2.19743">
        <ele>38.9</ele>
        <time>2021-05-27T15:05:30Z</time>
      </trkpt>
      <trkpt lat="47.68636" lon="-2.19741">
        <ele>38.8</ele>
        <time>2021-05-27T15:05:31Z</time>
      </trkpt>
      <trkpt lat="47.68634" lon="-2.19741">
        <ele>38.7</ele>
        <time>2021-05-27T15:05:32Z</time>
      </trkpt>
      <trkpt lat="47.68633" lon="-2.1974">
        <ele>38.7</ele>
        <time>2021-05-27T15:05:33Z</time>
      </trkpt>
      <trkpt lat="47.68631" lon="-2.19739">
        <ele>38.6</ele>
        <time>2021-05-27T15:05:34Z</time>
      </trkpt>
      <trkpt lat="47.68628" lon="-2.19737">
        <ele>38.5</ele>
        <time>2021-05-27T15:05:35Z</time>
      </trkpt>
      <trkpt lat="47.68625" lon="-2.19736">
        <ele>38.3</ele>
        <time>2021-05-27T15:05:36Z</time>
      </trkpt>
      <trkpt lat="47.68621" lon="-2.19736">
        <ele>38.2</ele>
        <time>2021-05-27T15:05:37Z</time>
      </trkpt>
      <trkpt lat="47.68618" lon="-2.19735">
        <ele>38.1</ele>
        <time>2021-05-27T15:05:38Z</time>
      </trkpt>
      <trkpt lat="47.68615" lon="-2.19734">
        <ele>38</ele>
        <time>2021-05-27T15:05:39Z</time>
      </trkpt>
      <trkpt lat="47.68612" lon="-2.19734">
        <ele>37.8</ele>
        <time>2021-05-27T15:05:40Z</time>
      </trkpt>
      <trkpt lat="47.68609" lon="-2.19734">
        <ele>37.7</ele>
        <time>2021-05-27T15:05:41Z</time>
      </trkpt>
      <trkpt lat="47.68606" lon="-2.19732">
        <ele>37.6</ele>
        <time>2021-05-27T15:05:42Z</time>
      </trkpt>
      <trkpt lat="47.68604" lon="-2.19729">
        <ele>37.5</ele>
        <time>2021-05-27T15:05:43Z</time>
      </trkpt>
      <trkpt lat="47.68601" lon="-2.19727">
        <ele>37.4</ele>
        <time>2021-05-27T15:05:44Z</time>
      </trkpt>
      <trkpt lat="47.68599" lon="-2.19724">
        <ele>37.2</ele>
        <time>2021-05-27T15:05:45Z</time>
      </trkpt>
      <trkpt lat="47.68596" lon="-2.19721">
        <ele>37.1</ele>
        <time>2021-05-27T15:05:46Z</time>
      </trkpt>
      <trkpt lat="47.68594" lon="-2.1972">
        <ele>37</ele>
        <time>2021-05-27T15:05:47Z</time>
      </trkpt>
      <trkpt lat="47.6859" lon="-2.19721">
        <ele>36.9</ele>
        <time>2021-05-27T15:05:48Z</time>
      </trkpt>
      <trkpt lat="47.68586" lon="-2.19722">
        <ele>36.8</ele>
        <time>2021-05-27T15:05:49Z</time>
      </trkpt>
      <trkpt lat="47.68582" lon="-2.19726">
        <ele>36.5</ele>
        <time>2021-05-27T15:05:50Z</time>
      </trkpt>
      <trkpt lat="47.68577" lon="-2.19728">
        <ele>35.9</ele>
        <time>2021-05-27T15:05:51Z</time>
      </trkpt>
      <trkpt lat="47.68574" lon="-2.19728">
        <ele>35.5</ele>
        <time>2021-05-27T15:05:52Z</time>
      </trkpt>
      <trkpt lat="47.68571" lon="-2.19727">
        <ele>35</ele>
        <time>2021-05-27T15:05:53Z</time>
      </trkpt>
      <trkpt lat="47.68569" lon="-2.19724">
        <ele>34.8</ele>
        <time>2021-05-27T15:05:54Z</time>
      </trkpt>
      <trkpt lat="47.68568" lon="-2.1972">
        <ele>34.6</ele>
        <time>2021-05-27T15:05:55Z</time>
      </trkpt>
      <trkpt lat="47.68567" lon="-2.19715">
        <ele>34.4</ele>
        <time>2021-05-27T15:05:56Z</time>
      </trkpt>
      <trkpt lat="47.68566" lon="-2.19709">
        <ele>34.1</ele>
        <time>2021-05-27T15:05:57Z</time>
      </trkpt>
      <trkpt lat="47.68564" lon="-2.19703">
        <ele>33.7</ele>
        <time>2021-05-27T15:05:58Z</time>
      </trkpt>
      <trkpt lat="47.68561" lon="-2.19701">
        <ele>33.3</ele>
        <time>2021-05-27T15:05:59Z</time>
      </trkpt>
      <trkpt lat="47.68558" lon="-2.19697">
        <ele>32.8</ele>
        <time>2021-05-27T15:06:00Z</time>
      </trkpt>
      <trkpt lat="47.68556" lon="-2.19692">
        <ele>32.5</ele>
        <time>2021-05-27T15:06:01Z</time>
      </trkpt>
      <trkpt lat="47.68556" lon="-2.19687">
        <ele>32.4</ele>
        <time>2021-05-27T15:06:02Z</time>
      </trkpt>
      <trkpt lat="47.68557" lon="-2.19682">
        <ele>32.5</ele>
        <time>2021-05-27T15:06:03Z</time>
      </trkpt>
      <trkpt lat="47.68558" lon="-2.19676">
        <ele>32.5</ele>
        <time>2021-05-27T15:06:04Z</time>
      </trkpt>
      <trkpt lat="47.68559" lon="-2.19671">
        <ele>32.6</ele>
        <time>2021-05-27T15:06:05Z</time>
      </trkpt>
      <trkpt lat="47.68558" lon="-2.19666">
        <ele>32.4</ele>
        <time>2021-05-27T15:06:06Z</time>
      </trkpt>
      <trkpt lat="47.68556" lon="-2.19662">
        <ele>31.9</ele>
        <time>2021-05-27T15:06:07Z</time>
      </trkpt>
      <trkpt lat="47.68552" lon="-2.19657">
        <ele>31.3</ele>
        <time>2021-05-27T15:06:08Z</time>
      </trkpt>
      <trkpt lat="47.68548" lon="-2.19654">
        <ele>30.7</ele>
        <time>2021-05-27T15:06:09Z</time>
      </trkpt>
      <trkpt lat="47.68545" lon="-2.1965">
        <ele>30.2</ele>
        <time>2021-05-27T15:06:10Z</time>
      </trkpt>
      <trkpt lat="47.68541" lon="-2.19647">
        <ele>29.6</ele>
        <time>2021-05-27T15:06:11Z</time>
      </trkpt>
      <trkpt lat="47.68536" lon="-2.19644">
        <ele>28.9</ele>
        <time>2021-05-27T15:06:12Z</time>
      </trkpt>
      <trkpt lat="47.6853" lon="-2.19642">
        <ele>28.1</ele>
        <time>2021-05-27T15:06:13Z</time>
      </trkpt>
      <trkpt lat="47.68525" lon="-2.19642">
        <ele>27.4</ele>
        <time>2021-05-27T15:06:14Z</time>
      </trkpt>
      <trkpt lat="47.68519" lon="-2.19643">
        <ele>26.5</ele>
        <time>2021-05-27T15:06:15Z</time>
      </trkpt>
      <trkpt lat="47.68512" lon="-2.19645">
        <ele>25.7</ele>
        <time>2021-05-27T15:06:16Z</time>
      </trkpt>
      <trkpt lat="47.68506" lon="-2.19647">
        <ele>24.8</ele>
        <time>2021-05-27T15:06:17Z</time>
      </trkpt>
      <trkpt lat="47.68499" lon="-2.1965">
        <ele>23.9</ele>
        <time>2021-05-27T15:06:18Z</time>
      </trkpt>
      <trkpt lat="47.68493" lon="-2.19653">
        <ele>23.4</ele>
        <time>2021-05-27T15:06:19Z</time>
      </trkpt>
      <trkpt lat="47.68486" lon="-2.19656">
        <ele>22.9</ele>
        <time>2021-05-27T15:06:20Z</time>
      </trkpt>
      <trkpt lat="47.68479" lon="-2.19658">
        <ele>22.5</ele>
        <time>2021-05-27T15:06:21Z</time>
      </trkpt>
      <trkpt lat="47.68474" lon="-2.1966">
        <ele>22.1</ele>
        <time>2021-05-27T15:06:22Z</time>
      </trkpt>
      <trkpt lat="47.6847" lon="-2.19663">
        <ele>21.8</ele>
        <time>2021-05-27T15:06:23Z</time>
      </trkpt>
      <trkpt lat="47.68467" lon="-2.19667">
        <ele>21.6</ele>
        <time>2021-05-27T15:06:24Z</time>
      </trkpt>
      <trkpt lat="47.68466" lon="-2.19672">
        <ele>21.7</ele>
        <time>2021-05-27T15:06:25Z</time>
      </trkpt>
      <trkpt lat="47.68466" lon="-2.19677">
        <ele>21.9</ele>
        <time>2021-05-27T15:06:26Z</time>
      </trkpt>
      <trkpt lat="47.68465" lon="-2.19682">
        <ele>22</ele>
        <time>2021-05-27T15:06:27Z</time>
      </trkpt>
      <trkpt lat="47.68464" lon="-2.19688">
        <ele>22.2</ele>
        <time>2021-05-27T15:06:28Z</time>
      </trkpt>
      <trkpt lat="47.68463" lon="-2.19693">
        <ele>22.3</ele>
        <time>2021-05-27T15:06:29Z</time>
      </trkpt>
      <trkpt lat="47.68462" lon="-2.19697">
        <ele>22.3</ele>
        <time>2021-05-27T15:06:30Z</time>
      </trkpt>
      <trkpt lat="47.68461" lon="-2.19702">
        <ele>22.4</ele>
        <time>2021-05-27T15:06:31Z</time>
      </trkpt>
      <trkpt lat="47.6846" lon="-2.19706">
        <ele>22.6</ele>
        <time>2021-05-27T15:06:32Z</time>
      </trkpt>
      <trkpt lat="47.68459" lon="-2.19711">
        <ele>22.6</ele>
        <time>2021-05-27T15:06:33Z</time>
      </trkpt>
      <trkpt lat="47.68458" lon="-2.19715">
        <ele>22.7</ele>
        <time>2021-05-27T15:06:34Z</time>
      </trkpt>
      <trkpt lat="47.68456" lon="-2.19719">
        <ele>22.7</ele>
        <time>2021-05-27T15:06:35Z</time>
      </trkpt>
      <trkpt lat="47.68453" lon="-2.19723">
        <ele>22.7</ele>
        <time>2021-05-27T15:06:36Z</time>
      </trkpt>
      <trkpt lat="47.68451" lon="-2.19728">
        <ele>22.8</ele>
        <time>2021-05-27T15:06:37Z</time>
      </trkpt>
      <trkpt lat="47.68448" lon="-2.19733">
        <ele>22.8</ele>
        <time>2021-05-27T15:06:38Z</time>
      </trkpt>
      <trkpt lat="47.68444" lon="-2.19737">
        <ele>22.8</ele>
        <time>2021-05-27T15:06:39Z</time>
      </trkpt>
      <trkpt lat="47.68441" lon="-2.19742">
        <ele>22.9</ele>
        <time>2021-05-27T15:06:40Z</time>
      </trkpt>
      <trkpt lat="47.68438" lon="-2.19748">
        <ele>22.9</ele>
        <time>2021-05-27T15:06:41Z</time>
      </trkpt>
      <trkpt lat="47.68435" lon="-2.19753">
        <ele>23.2</ele>
        <time>2021-05-27T15:06:42Z</time>
      </trkpt>
      <trkpt lat="47.68432" lon="-2.19758">
        <ele>23.5</ele>
        <time>2021-05-27T15:06:43Z</time>
      </trkpt>
      <trkpt lat="47.68429" lon="-2.19763">
        <ele>23.8</ele>
        <time>2021-05-27T15:06:44Z</time>
      </trkpt>
      <trkpt lat="47.68426" lon="-2.19768">
        <ele>24.1</ele>
        <time>2021-05-27T15:06:45Z</time>
      </trkpt>
      <trkpt lat="47.68423" lon="-2.19773">
        <ele>24.4</ele>
        <time>2021-05-27T15:06:46Z</time>
      </trkpt>
      <trkpt lat="47.6842" lon="-2.19777">
        <ele>24.8</ele>
        <time>2021-05-27T15:06:47Z</time>
      </trkpt>
      <trkpt lat="47.68417" lon="-2.19782">
        <ele>25.1</ele>
        <time>2021-05-27T15:06:48Z</time>
      </trkpt>
      <trkpt lat="47.68414" lon="-2.19786">
        <ele>25.4</ele>
        <time>2021-05-27T15:06:49Z</time>
      </trkpt>
      <trkpt lat="47.68411" lon="-2.1979">
        <ele>25.7</ele>
        <time>2021-05-27T15:06:50Z</time>
      </trkpt>
      <trkpt lat="47.68409" lon="-2.19795">
        <ele>26.1</ele>
        <time>2021-05-27T15:06:51Z</time>
      </trkpt>
      <trkpt lat="47.68406" lon="-2.198">
        <ele>26.4</ele>
        <time>2021-05-27T15:06:52Z</time>
      </trkpt>
      <trkpt lat="47.68403" lon="-2.19803">
        <ele>26.6</ele>
        <time>2021-05-27T15:06:53Z</time>
      </trkpt>
      <trkpt lat="47.684" lon="-2.19807">
        <ele>26.9</ele>
        <time>2021-05-27T15:06:54Z</time>
      </trkpt>
      <trkpt lat="47.68397" lon="-2.19809">
        <ele>26.9</ele>
        <time>2021-05-27T15:06:55Z</time>
      </trkpt>
      <trkpt lat="47.68394" lon="-2.19809">
        <ele>26.8</ele>
        <time>2021-05-27T15:06:56Z</time>
      </trkpt>
      <trkpt lat="47.68391" lon="-2.19809">
        <ele>26.7</ele>
        <time>2021-05-27T15:06:57Z</time>
      </trkpt>
      <trkpt lat="47.68389" lon="-2.19807">
        <ele>26.5</ele>
        <time>2021-05-27T15:06:58Z</time>
      </trkpt>
      <trkpt lat="47.68387" lon="-2.19806">
        <ele>26.3</ele>
        <time>2021-05-27T15:06:59Z</time>
      </trkpt>
      <trkpt lat="47.68383" lon="-2.19803">
        <ele>26</ele>
        <time>2021-05-27T15:07:00Z</time>
      </trkpt>
      <trkpt lat="47.6838" lon="-2.198">
        <ele>25.6</ele>
        <time>2021-05-27T15:07:01Z</time>
      </trkpt>
      <trkpt lat="47.68376" lon="-2.19796">
        <ele>25.1</ele>
        <time>2021-05-27T15:07:02Z</time>
      </trkpt>
      <trkpt lat="47.68372" lon="-2.19792">
        <ele>24.7</ele>
        <time>2021-05-27T15:07:03Z</time>
      </trkpt>
      <trkpt lat="47.68367" lon="-2.19788">
        <ele>24.2</ele>
        <time>2021-05-27T15:07:04Z</time>
      </trkpt>
      <trkpt lat="47.68362" lon="-2.19782">
        <ele>23.7</ele>
        <time>2021-05-27T15:07:05Z</time>
      </trkpt>
      <trkpt lat="47.68357" lon="-2.19777">
        <ele>23.2</ele>
        <time>2021-05-27T15:07:06Z</time>
      </trkpt>
      <trkpt lat="47.68352" lon="-2.19771">
        <ele>22.6</ele>
        <time>2021-05-27T15:07:07Z</time>
      </trkpt>
      <trkpt lat="47.68346" lon="-2.19765">
        <ele>22.1</ele>
        <time>2021-05-27T15:07:08Z</time>
      </trkpt>
      <trkpt lat="47.6834" lon="-2.19759">
        <ele>21.6</ele>
        <time>2021-05-27T15:07:09Z</time>
      </trkpt>
      <trkpt lat="47.68334" lon="-2.19753">
        <ele>21.2</ele>
        <time>2021-05-27T15:07:10Z</time>
      </trkpt>
      <trkpt lat="47.68327" lon="-2.19746">
        <ele>20.3</ele>
        <time>2021-05-27T15:07:11Z</time>
      </trkpt>
      <trkpt lat="47.6832" lon="-2.19739">
        <ele>19.5</ele>
        <time>2021-05-27T15:07:12Z</time>
      </trkpt>
      <trkpt lat="47.68313" lon="-2.19733">
        <ele>18.7</ele>
        <time>2021-05-27T15:07:13Z</time>
      </trkpt>
      <trkpt lat="47.68306" lon="-2.19726">
        <ele>18</ele>
        <time>2021-05-27T15:07:14Z</time>
      </trkpt>
      <trkpt lat="47.68299" lon="-2.1972">
        <ele>17.3</ele>
        <time>2021-05-27T15:07:15Z</time>
      </trkpt>
      <trkpt lat="47.68293" lon="-2.19713">
        <ele>16.7</ele>
        <time>2021-05-27T15:07:16Z</time>
      </trkpt>
      <trkpt lat="47.68285" lon="-2.19707">
        <ele>16.1</ele>
        <time>2021-05-27T15:07:17Z</time>
      </trkpt>
      <trkpt lat="47.68277" lon="-2.197">
        <ele>15.6</ele>
        <time>2021-05-27T15:07:18Z</time>
      </trkpt>
      <trkpt lat="47.68269" lon="-2.1969">
        <ele>15</ele>
        <time>2021-05-27T15:07:19Z</time>
      </trkpt>
      <trkpt lat="47.68262" lon="-2.19684">
        <ele>14.6</ele>
        <time>2021-05-27T15:07:20Z</time>
      </trkpt>
      <trkpt lat="47.68256" lon="-2.19678">
        <ele>14.3</ele>
        <time>2021-05-27T15:07:21Z</time>
      </trkpt>
      <trkpt lat="47.68251" lon="-2.19672">
        <ele>14.1</ele>
        <time>2021-05-27T15:07:22Z</time>
      </trkpt>
      <trkpt lat="47.68248" lon="-2.19669">
        <ele>14</ele>
        <time>2021-05-27T15:07:23Z</time>
      </trkpt>
      <trkpt lat="47.68245" lon="-2.19666">
        <ele>13.9</ele>
        <time>2021-05-27T15:07:24Z</time>
      </trkpt>
      <trkpt lat="47.68243" lon="-2.19662">
        <ele>13.8</ele>
        <time>2021-05-27T15:07:25Z</time>
      </trkpt>
      <trkpt lat="47.6824" lon="-2.19658">
        <ele>13.7</ele>
        <time>2021-05-27T15:07:26Z</time>
      </trkpt>
      <trkpt lat="47.68238" lon="-2.19653">
        <ele>13.6</ele>
        <time>2021-05-27T15:07:27Z</time>
      </trkpt>
      <trkpt lat="47.68237" lon="-2.19646">
        <ele>13.5</ele>
        <time>2021-05-27T15:07:28Z</time>
      </trkpt>
      <trkpt lat="47.68236" lon="-2.19639">
        <ele>13.5</ele>
        <time>2021-05-27T15:07:29Z</time>
      </trkpt>
      <trkpt lat="47.68236" lon="-2.19633">
        <ele>13.5</ele>
        <time>2021-05-27T15:07:30Z</time>
      </trkpt>
      <trkpt lat="47.68236" lon="-2.19626">
        <ele>13.4</ele>
        <time>2021-05-27T15:07:31Z</time>
      </trkpt>
      <trkpt lat="47.68236" lon="-2.19619">
        <ele>13.4</ele>
        <time>2021-05-27T15:07:32Z</time>
      </trkpt>
      <trkpt lat="47.68236" lon="-2.19613">
        <ele>13.3</ele>
        <time>2021-05-27T15:07:33Z</time>
      </trkpt>
      <trkpt lat="47.68237" lon="-2.19606">
        <ele>13.3</ele>
        <time>2021-05-27T15:07:34Z</time>
      </trkpt>
      <trkpt lat="47.68238" lon="-2.196">
        <ele>13.3</ele>
        <time>2021-05-27T15:07:35Z</time>
      </trkpt>
      <trkpt lat="47.68238" lon="-2.19594">
        <ele>13.2</ele>
        <time>2021-05-27T15:07:36Z</time>
      </trkpt>
      <trkpt lat="47.68238" lon="-2.19587">
        <ele>13.2</ele>
        <time>2021-05-27T15:07:37Z</time>
      </trkpt>
      <trkpt lat="47.68238" lon="-2.19581">
        <ele>13.2</ele>
        <time>2021-05-27T15:07:38Z</time>
      </trkpt>
      <trkpt lat="47.68239" lon="-2.19575">
        <ele>13.3</ele>
        <time>2021-05-27T15:07:39Z</time>
      </trkpt>
      <trkpt lat="47.68239" lon="-2.1957">
        <ele>13.4</ele>
        <time>2021-05-27T15:07:40Z</time>
      </trkpt>
      <trkpt lat="47.6824" lon="-2.19566">
        <ele>13.4</ele>
        <time>2021-05-27T15:07:41Z</time>
      </trkpt>
      <trkpt lat="47.6824" lon="-2.19563">
        <ele>13.5</ele>
        <time>2021-05-27T15:07:42Z</time>
      </trkpt>
      <trkpt lat="47.68239" lon="-2.19561">
        <ele>13.5</ele>
        <time>2021-05-27T15:07:43Z</time>
      </trkpt>
      <trkpt lat="47.68238" lon="-2.19561">
        <ele>13.6</ele>
        <time>2021-05-27T15:07:44Z</time>
      </trkpt>
      <trkpt lat="47.68236" lon="-2.19561">
        <ele>13.6</ele>
        <time>2021-05-27T15:07:45Z</time>
      </trkpt>
      <trkpt lat="47.68234" lon="-2.19562">
        <ele>13.6</ele>
        <time>2021-05-27T15:07:46Z</time>
      </trkpt>
      <trkpt lat="47.6823" lon="-2.19564">
        <ele>13.7</ele>
        <time>2021-05-27T15:07:47Z</time>
      </trkpt>
      <trkpt lat="47.68227" lon="-2.19565">
        <ele>13.7</ele>
        <time>2021-05-27T15:07:48Z</time>
      </trkpt>
      <trkpt lat="47.68225" lon="-2.19566">
        <ele>13.8</ele>
        <time>2021-05-27T15:07:49Z</time>
      </trkpt>
      <trkpt lat="47.68222" lon="-2.19566">
        <ele>13.8</ele>
        <time>2021-05-27T15:07:50Z</time>
      </trkpt>
      <trkpt lat="47.6822" lon="-2.19565">
        <ele>13.9</ele>
        <time>2021-05-27T15:07:51Z</time>
      </trkpt>
      <trkpt lat="47.68217" lon="-2.19564">
        <ele>14</ele>
        <time>2021-05-27T15:07:52Z</time>
      </trkpt>
      <trkpt lat="47.68215" lon="-2.19565">
        <ele>14</ele>
        <time>2021-05-27T15:07:53Z</time>
      </trkpt>
      <trkpt lat="47.68214" lon="-2.19566">
        <ele>14</ele>
        <time>2021-05-27T15:07:54Z</time>
      </trkpt>
      <trkpt lat="47.68212" lon="-2.19568">
        <ele>14</ele>
        <time>2021-05-27T15:07:55Z</time>
      </trkpt>
      <trkpt lat="47.68211" lon="-2.1957">
        <ele>13.9</ele>
        <time>2021-05-27T15:07:56Z</time>
      </trkpt>
      <trkpt lat="47.68208" lon="-2.19573">
        <ele>13.9</ele>
        <time>2021-05-27T15:07:57Z</time>
      </trkpt>
      <trkpt lat="47.68206" lon="-2.19575">
        <ele>13.8</ele>
        <time>2021-05-27T15:07:58Z</time>
      </trkpt>
      <trkpt lat="47.68204" lon="-2.19577">
        <ele>13.8</ele>
        <time>2021-05-27T15:07:59Z</time>
      </trkpt>
      <trkpt lat="47.68201" lon="-2.1958">
        <ele>13.7</ele>
        <time>2021-05-27T15:08:00Z</time>
      </trkpt>
      <trkpt lat="47.68199" lon="-2.19582">
        <ele>13.7</ele>
        <time>2021-05-27T15:08:01Z</time>
      </trkpt>
      <trkpt lat="47.68195" lon="-2.19581">
        <ele>13.8</ele>
        <time>2021-05-27T15:08:02Z</time>
      </trkpt>
      <trkpt lat="47.68193" lon="-2.19583">
        <ele>13.7</ele>
        <time>2021-05-27T15:08:03Z</time>
      </trkpt>
      <trkpt lat="47.6819" lon="-2.19583">
        <ele>13.7</ele>
        <time>2021-05-27T15:08:04Z</time>
      </trkpt>
      <trkpt lat="47.68189" lon="-2.19584">
        <ele>13.7</ele>
        <time>2021-05-27T15:08:05Z</time>
      </trkpt>
      <trkpt lat="47.68187" lon="-2.19583">
        <ele>13.8</ele>
        <time>2021-05-27T15:08:06Z</time>
      </trkpt>
      <trkpt lat="47.68185" lon="-2.19581">
        <ele>13.9</ele>
        <time>2021-05-27T15:08:07Z</time>
      </trkpt>
      <trkpt lat="47.68183" lon="-2.19579">
        <ele>14</ele>
        <time>2021-05-27T15:08:08Z</time>
      </trkpt>
      <trkpt lat="47.68181" lon="-2.19578">
        <ele>14.1</ele>
        <time>2021-05-27T15:08:09Z</time>
      </trkpt>
      <trkpt lat="47.68178" lon="-2.19579">
        <ele>14.1</ele>
        <time>2021-05-27T15:08:10Z</time>
      </trkpt>
      <trkpt lat="47.68176" lon="-2.19578">
        <ele>14.2</ele>
        <time>2021-05-27T15:08:11Z</time>
      </trkpt>
      <trkpt lat="47.68175" lon="-2.19578">
        <ele>14.2</ele>
        <time>2021-05-27T15:08:12Z</time>
      </trkpt>
      <trkpt lat="47.68174" lon="-2.19577">
        <ele>14.3</ele>
        <time>2021-05-27T15:08:13Z</time>
      </trkpt>
      <trkpt lat="47.68173" lon="-2.19576">
        <ele>14.3</ele>
        <time>2021-05-27T15:08:14Z</time>
      </trkpt>
      <trkpt lat="47.68172" lon="-2.19576">
        <ele>14.4</ele>
        <time>2021-05-27T15:08:15Z</time>
      </trkpt>
      <trkpt lat="47.68171" lon="-2.19576">
        <ele>14.3</ele>
        <time>2021-05-27T15:08:16Z</time>
      </trkpt>
      <trkpt lat="47.6817" lon="-2.19576">
        <ele>14.4</ele>
        <time>2021-05-27T15:08:17Z</time>
      </trkpt>
      <trkpt lat="47.68169" lon="-2.19576">
        <ele>14.4</ele>
        <time>2021-05-27T15:08:18Z</time>
      </trkpt>
      <trkpt lat="47.68169" lon="-2.19576">
        <ele>14.4</ele>
        <time>2021-05-27T15:08:19Z</time>
      </trkpt>
      <trkpt lat="47.68169" lon="-2.19576">
        <ele>14.4</ele>
        <time>2021-05-27T15:08:20Z</time>
      </trkpt>
      <trkpt lat="47.68169" lon="-2.19576">
        <ele>14.4</ele>
        <time>2021-05-27T15:08:21Z</time>
      </trkpt>
      <trkpt lat="47.68167" lon="-2.19571">
        <ele>14.8</ele>
        <time>2021-05-27T15:08:22Z</time>
      </trkpt>
      <trkpt lat="47.68166" lon="-2.19568">
        <ele>14.9</ele>
        <time>2021-05-27T15:08:23Z</time>
      </trkpt>
      <trkpt lat="47.68164" lon="-2.19567">
        <ele>15</ele>
        <time>2021-05-27T15:08:24Z</time>
      </trkpt>
      <trkpt lat="47.68162" lon="-2.19565">
        <ele>15.1</ele>
        <time>2021-05-27T15:08:25Z</time>
      </trkpt>
      <trkpt lat="47.68161" lon="-2.19564">
        <ele>15.1</ele>
        <time>2021-05-27T15:08:26Z</time>
      </trkpt>
      <trkpt lat="47.6816" lon="-2.19561">
        <ele>15.3</ele>
        <time>2021-05-27T15:08:27Z</time>
      </trkpt>
      <trkpt lat="47.6816" lon="-2.1956">
        <ele>15.3</ele>
        <time>2021-05-27T15:08:28Z</time>
      </trkpt>
      <trkpt lat="47.68159" lon="-2.19557">
        <ele>15.5</ele>
        <time>2021-05-27T15:08:29Z</time>
      </trkpt>
      <trkpt lat="47.68158" lon="-2.19556">
        <ele>15.5</ele>
        <time>2021-05-27T15:08:30Z</time>
      </trkpt>
      <trkpt lat="47.68155" lon="-2.19554">
        <ele>15.6</ele>
        <time>2021-05-27T15:08:31Z</time>
      </trkpt>
      <trkpt lat="47.68152" lon="-2.19552">
        <ele>15.7</ele>
        <time>2021-05-27T15:08:32Z</time>
      </trkpt>
      <trkpt lat="47.68149" lon="-2.1955">
        <ele>15.8</ele>
        <time>2021-05-27T15:08:33Z</time>
      </trkpt>
      <trkpt lat="47.68146" lon="-2.19547">
        <ele>15.9</ele>
        <time>2021-05-27T15:08:34Z</time>
      </trkpt>
      <trkpt lat="47.68144" lon="-2.19544">
        <ele>16.1</ele>
        <time>2021-05-27T15:08:35Z</time>
      </trkpt>
      <trkpt lat="47.68143" lon="-2.19542">
        <ele>16.2</ele>
        <time>2021-05-27T15:08:36Z</time>
      </trkpt>
      <trkpt lat="47.68142" lon="-2.19541">
        <ele>16.2</ele>
        <time>2021-05-27T15:08:37Z</time>
      </trkpt>
      <trkpt lat="47.68141" lon="-2.1954">
        <ele>16.3</ele>
        <time>2021-05-27T15:08:38Z</time>
      </trkpt>
      <trkpt lat="47.6814" lon="-2.19539">
        <ele>16.3</ele>
        <time>2021-05-27T15:08:39Z</time>
      </trkpt>
      <trkpt lat="47.6814" lon="-2.19539">
        <ele>16.3</ele>
        <time>2021-05-27T15:08:40Z</time>
      </trkpt>
      <trkpt lat="47.68136" lon="-2.19537">
        <ele>16.4</ele>
        <time>2021-05-27T15:08:41Z</time>
      </trkpt>
      <trkpt lat="47.68134" lon="-2.19534">
        <ele>16.6</ele>
        <time>2021-05-27T15:08:42Z</time>
      </trkpt>
      <trkpt lat="47.68132" lon="-2.19531">
        <ele>16.7</ele>
        <time>2021-05-27T15:08:43Z</time>
      </trkpt>
      <trkpt lat="47.68132" lon="-2.1953">
        <ele>16.8</ele>
        <time>2021-05-27T15:08:44Z</time>
      </trkpt>
      <trkpt lat="47.68131" lon="-2.1953">
        <ele>16.8</ele>
        <time>2021-05-27T15:08:45Z</time>
      </trkpt>
      <trkpt lat="47.68131" lon="-2.1953">
        <ele>16.8</ele>
        <time>2021-05-27T15:08:46Z</time>
      </trkpt>
      <trkpt lat="47.68131" lon="-2.1953">
        <ele>16.8</ele>
        <time>2021-05-27T15:08:47Z</time>
      </trkpt>
      <trkpt lat="47.68131" lon="-2.1953">
        <ele>16.8</ele>
        <time>2021-05-27T15:08:48Z</time>
      </trkpt>
      <trkpt lat="47.68131" lon="-2.1953">
        <ele>16.8</ele>
        <time>2021-05-27T15:08:49Z</time>
      </trkpt>
      <trkpt lat="47.68131" lon="-2.1953">
        <ele>16.8</ele>
        <time>2021-05-27T15:08:50Z</time>
      </trkpt>
      <trkpt lat="47.68131" lon="-2.1953">
        <ele>16.8</ele>
        <time>2021-05-27T15:08:51Z</time>
      </trkpt>
      <trkpt lat="47.68131" lon="-2.1953">
        <ele>16.8</ele>
        <time>2021-05-27T15:08:52Z</time>
      </trkpt>
      <trkpt lat="47.68131" lon="-2.1953">
        <ele>16.8</ele>
        <time>2021-05-27T15:08:53Z</time>
      </trkpt>
      <trkpt lat="47.68131" lon="-2.1953">
        <ele>16.8</ele>
        <time>2021-05-27T15:08:54Z</time>
      </trkpt>
      <trkpt lat="47.68131" lon="-2.1953">
        <ele>16.8</ele>
        <time>2021-05-27T15:08:55Z</time>
      </trkpt>
      <trkpt lat="47.68131" lon="-2.1953">
        <ele>16.8</ele>
        <time>2021-05-27T15:08:56Z</time>
      </trkpt>
      <trkpt lat="47.68131" lon="-2.1953">
        <ele>16.8</ele>
        <time>2021-05-27T15:08:57Z</time>
      </trkpt>
      <trkpt lat="47.68131" lon="-2.1953">
        <ele>16.8</ele>
        <time>2021-05-27T15:08:58Z</time>
      </trkpt>
      <trkpt lat="47.68131" lon="-2.1953">
        <ele>16.8</ele>
        <time>2021-05-27T15:08:59Z</time>
      </trkpt>
      <trkpt lat="47.68131" lon="-2.1953">
        <ele>16.8</ele>
        <time>2021-05-27T15:09:00Z</time>
      </trkpt>
      <trkpt lat="47.68131" lon="-2.1953">
        <ele>16.8</ele>
        <time>2021-05-27T15:09:01Z</time>
      </trkpt>
      <trkpt lat="47.68131" lon="-2.1953">
        <ele>16.8</ele>
        <time>2021-05-27T15:09:02Z</time>
      </trkpt>
      <trkpt lat="47.68128" lon="-2.19521">
        <ele>17.3</ele>
        <time>2021-05-27T15:09:03Z</time>
      </trkpt>
      <trkpt lat="47.68128" lon="-2.19519">
        <ele>17.4</ele>
        <time>2021-05-27T15:09:04Z</time>
      </trkpt>
      <trkpt lat="47.68127" lon="-2.19517">
        <ele>17.5</ele>
        <time>2021-05-27T15:09:05Z</time>
      </trkpt>
      <trkpt lat="47.68127" lon="-2.19512">
        <ele>17.8</ele>
        <time>2021-05-27T15:09:06Z</time>
      </trkpt>
      <trkpt lat="47.68128" lon="-2.1951">
        <ele>17.9</ele>
        <time>2021-05-27T15:09:07Z</time>
      </trkpt>
      <trkpt lat="47.68127" lon="-2.19507">
        <ele>18.1</ele>
        <time>2021-05-27T15:09:08Z</time>
      </trkpt>
      <trkpt lat="47.68127" lon="-2.19504">
        <ele>18.3</ele>
        <time>2021-05-27T15:09:09Z</time>
      </trkpt>
      <trkpt lat="47.68125" lon="-2.195">
        <ele>18.5</ele>
        <time>2021-05-27T15:09:10Z</time>
      </trkpt>
      <trkpt lat="47.68124" lon="-2.19494">
        <ele>18.6</ele>
        <time>2021-05-27T15:09:11Z</time>
      </trkpt>
      <trkpt lat="47.68123" lon="-2.19491">
        <ele>18.7</ele>
        <time>2021-05-27T15:09:12Z</time>
      </trkpt>
      <trkpt lat="47.68119" lon="-2.19486">
        <ele>18.8</ele>
        <time>2021-05-27T15:09:13Z</time>
      </trkpt>
      <trkpt lat="47.68118" lon="-2.19483">
        <ele>18.8</ele>
        <time>2021-05-27T15:09:14Z</time>
      </trkpt>
      <trkpt lat="47.68116" lon="-2.19482">
        <ele>18.8</ele>
        <time>2021-05-27T15:09:15Z</time>
      </trkpt>
      <trkpt lat="47.68113" lon="-2.19483">
        <ele>18.8</ele>
        <time>2021-05-27T15:09:16Z</time>
      </trkpt>
      <trkpt lat="47.68111" lon="-2.19485">
        <ele>18.7</ele>
        <time>2021-05-27T15:09:17Z</time>
      </trkpt>
      <trkpt lat="47.68108" lon="-2.19486">
        <ele>18.6</ele>
        <time>2021-05-27T15:09:18Z</time>
      </trkpt>
      <trkpt lat="47.68106" lon="-2.19489">
        <ele>18.5</ele>
        <time>2021-05-27T15:09:19Z</time>
      </trkpt>
      <trkpt lat="47.68104" lon="-2.19493">
        <ele>18.4</ele>
        <time>2021-05-27T15:09:20Z</time>
      </trkpt>
      <trkpt lat="47.68103" lon="-2.19496">
        <ele>18.3</ele>
        <time>2021-05-27T15:09:21Z</time>
      </trkpt>
      <trkpt lat="47.68102" lon="-2.19499">
        <ele>18.2</ele>
        <time>2021-05-27T15:09:22Z</time>
      </trkpt>
      <trkpt lat="47.68101" lon="-2.19503">
        <ele>18</ele>
        <time>2021-05-27T15:09:23Z</time>
      </trkpt>
      <trkpt lat="47.68098" lon="-2.19505">
        <ele>17.9</ele>
        <time>2021-05-27T15:09:24Z</time>
      </trkpt>
      <trkpt lat="47.68096" lon="-2.19507">
        <ele>17.7</ele>
        <time>2021-05-27T15:09:25Z</time>
      </trkpt>
      <trkpt lat="47.68094" lon="-2.19508">
        <ele>17.7</ele>
        <time>2021-05-27T15:09:26Z</time>
      </trkpt>
      <trkpt lat="47.68093" lon="-2.19507">
        <ele>17.7</ele>
        <time>2021-05-27T15:09:27Z</time>
      </trkpt>
      <trkpt lat="47.68092" lon="-2.19506">
        <ele>17.7</ele>
        <time>2021-05-27T15:09:28Z</time>
      </trkpt>
      <trkpt lat="47.6809" lon="-2.19504">
        <ele>17.8</ele>
        <time>2021-05-27T15:09:29Z</time>
      </trkpt>
      <trkpt lat="47.68088" lon="-2.19503">
        <ele>17.9</ele>
        <time>2021-05-27T15:09:30Z</time>
      </trkpt>
      <trkpt lat="47.68086" lon="-2.19501">
        <ele>18</ele>
        <time>2021-05-27T15:09:31Z</time>
      </trkpt>
      <trkpt lat="47.68085" lon="-2.19499">
        <ele>18</ele>
        <time>2021-05-27T15:09:32Z</time>
      </trkpt>
      <trkpt lat="47.68084" lon="-2.19496">
        <ele>18.1</ele>
        <time>2021-05-27T15:09:33Z</time>
      </trkpt>
      <trkpt lat="47.68083" lon="-2.19494">
        <ele>18.2</ele>
        <time>2021-05-27T15:09:34Z</time>
      </trkpt>
      <trkpt lat="47.68082" lon="-2.19491">
        <ele>18.2</ele>
        <time>2021-05-27T15:09:35Z</time>
      </trkpt>
      <trkpt lat="47.68082" lon="-2.19489">
        <ele>18.2</ele>
        <time>2021-05-27T15:09:36Z</time>
      </trkpt>
      <trkpt lat="47.68081" lon="-2.19486">
        <ele>18.3</ele>
        <time>2021-05-27T15:09:37Z</time>
      </trkpt>
      <trkpt lat="47.6808" lon="-2.19482">
        <ele>18.4</ele>
        <time>2021-05-27T15:09:38Z</time>
      </trkpt>
      <trkpt lat="47.68079" lon="-2.1948">
        <ele>18.4</ele>
        <time>2021-05-27T15:09:39Z</time>
      </trkpt>
      <trkpt lat="47.68078" lon="-2.19478">
        <ele>18.4</ele>
        <time>2021-05-27T15:09:40Z</time>
      </trkpt>
      <trkpt lat="47.68078" lon="-2.19475">
        <ele>18.5</ele>
        <time>2021-05-27T15:09:41Z</time>
      </trkpt>
      <trkpt lat="47.68077" lon="-2.19473">
        <ele>18.5</ele>
        <time>2021-05-27T15:09:42Z</time>
      </trkpt>
      <trkpt lat="47.68077" lon="-2.19471">
        <ele>18.5</ele>
        <time>2021-05-27T15:09:43Z</time>
      </trkpt>
      <trkpt lat="47.68077" lon="-2.19468">
        <ele>18.6</ele>
        <time>2021-05-27T15:09:44Z</time>
      </trkpt>
      <trkpt lat="47.68077" lon="-2.19466">
        <ele>18.6</ele>
        <time>2021-05-27T15:09:45Z</time>
      </trkpt>
      <trkpt lat="47.68075" lon="-2.19463">
        <ele>18.7</ele>
        <time>2021-05-27T15:09:46Z</time>
      </trkpt>
      <trkpt lat="47.68074" lon="-2.19461">
        <ele>18.7</ele>
        <time>2021-05-27T15:09:47Z</time>
      </trkpt>
      <trkpt lat="47.68073" lon="-2.19458">
        <ele>18.7</ele>
        <time>2021-05-27T15:09:48Z</time>
      </trkpt>
      <trkpt lat="47.68071" lon="-2.19455">
        <ele>18.7</ele>
        <time>2021-05-27T15:09:49Z</time>
      </trkpt>
      <trkpt lat="47.6807" lon="-2.19452">
        <ele>18.7</ele>
        <time>2021-05-27T15:09:50Z</time>
      </trkpt>
      <trkpt lat="47.68069" lon="-2.19449">
        <ele>18.7</ele>
        <time>2021-05-27T15:09:51Z</time>
      </trkpt>
      <trkpt lat="47.68068" lon="-2.19446">
        <ele>18.8</ele>
        <time>2021-05-27T15:09:52Z</time>
      </trkpt>
      <trkpt lat="47.68067" lon="-2.19444">
        <ele>18.7</ele>
        <time>2021-05-27T15:09:53Z</time>
      </trkpt>
      <trkpt lat="47.68066" lon="-2.19443">
        <ele>18.7</ele>
        <time>2021-05-27T15:09:54Z</time>
      </trkpt>
      <trkpt lat="47.68066" lon="-2.19443">
        <ele>18.7</ele>
        <time>2021-05-27T15:09:55Z</time>
      </trkpt>
      <trkpt lat="47.68066" lon="-2.19443">
        <ele>18.7</ele>
        <time>2021-05-27T15:09:56Z</time>
      </trkpt>
      <trkpt lat="47.68066" lon="-2.19443">
        <ele>18.7</ele>
        <time>2021-05-27T15:09:57Z</time>
      </trkpt>
      <trkpt lat="47.68066" lon="-2.19443">
        <ele>18.7</ele>
        <time>2021-05-27T15:09:58Z</time>
      </trkpt>
      <trkpt lat="47.68066" lon="-2.19443">
        <ele>18.7</ele>
        <time>2021-05-27T15:09:59Z</time>
      </trkpt>
      <trkpt lat="47.68066" lon="-2.19443">
        <ele>18.7</ele>
        <time>2021-05-27T15:10:00Z</time>
      </trkpt>
      <trkpt lat="47.68066" lon="-2.19443">
        <ele>18.7</ele>
        <time>2021-05-27T15:10:01Z</time>
      </trkpt>
      <trkpt lat="47.68066" lon="-2.19443">
        <ele>18.7</ele>
        <time>2021-05-27T15:10:02Z</time>
      </trkpt>
      <trkpt lat="47.68066" lon="-2.19443">
        <ele>18.7</ele>
        <time>2021-05-27T15:10:03Z</time>
      </trkpt>
      <trkpt lat="47.68066" lon="-2.19443">
        <ele>18.7</ele>
        <time>2021-05-27T15:10:04Z</time>
      </trkpt>
      <trkpt lat="47.68066" lon="-2.19448">
        <ele>18.7</ele>
        <time>2021-05-27T15:10:05Z</time>
      </trkpt>
      <trkpt lat="47.68064" lon="-2.1945">
        <ele>18.6</ele>
        <time>2021-05-27T15:10:06Z</time>
      </trkpt>
      <trkpt lat="47.68063" lon="-2.19452">
        <ele>18.5</ele>
        <time>2021-05-27T15:10:07Z</time>
      </trkpt>
      <trkpt lat="47.68063" lon="-2.19452">
        <ele>18.5</ele>
        <time>2021-05-27T15:10:08Z</time>
      </trkpt>
      <trkpt lat="47.68061" lon="-2.19452">
        <ele>18.4</ele>
        <time>2021-05-27T15:10:09Z</time>
      </trkpt>
      <trkpt lat="47.6806" lon="-2.19451">
        <ele>18.4</ele>
        <time>2021-05-27T15:10:10Z</time>
      </trkpt>
      <trkpt lat="47.68059" lon="-2.19452">
        <ele>18.4</ele>
        <time>2021-05-27T15:10:11Z</time>
      </trkpt>
      <trkpt lat="47.68058" lon="-2.19454">
        <ele>18.3</ele>
        <time>2021-05-27T15:10:12Z</time>
      </trkpt>
      <trkpt lat="47.68057" lon="-2.19455">
        <ele>18.3</ele>
        <time>2021-05-27T15:10:13Z</time>
      </trkpt>
      <trkpt lat="47.68056" lon="-2.19456">
        <ele>18.2</ele>
        <time>2021-05-27T15:10:14Z</time>
      </trkpt>
      <trkpt lat="47.68055" lon="-2.19457">
        <ele>18.2</ele>
        <time>2021-05-27T15:10:15Z</time>
      </trkpt>
      <trkpt lat="47.68054" lon="-2.19458">
        <ele>18.1</ele>
        <time>2021-05-27T15:10:16Z</time>
      </trkpt>
      <trkpt lat="47.68054" lon="-2.19458">
        <ele>18.1</ele>
        <time>2021-05-27T15:10:17Z</time>
      </trkpt>
      <trkpt lat="47.68053" lon="-2.19458">
        <ele>18.1</ele>
        <time>2021-05-27T15:10:18Z</time>
      </trkpt>
      <trkpt lat="47.68053" lon="-2.19459">
        <ele>18.1</ele>
        <time>2021-05-27T15:10:19Z</time>
      </trkpt>
      <trkpt lat="47.68053" lon="-2.19459">
        <ele>18.1</ele>
        <time>2021-05-27T15:10:20Z</time>
      </trkpt>
      <trkpt lat="47.68053" lon="-2.19459">
        <ele>18.1</ele>
        <time>2021-05-27T15:10:21Z</time>
      </trkpt>
      <trkpt lat="47.68053" lon="-2.19459">
        <ele>18.1</ele>
        <time>2021-05-27T15:10:22Z</time>
      </trkpt>
      <trkpt lat="47.68053" lon="-2.19459">
        <ele>18.1</ele>
        <time>2021-05-27T15:10:23Z</time>
      </trkpt>
      <trkpt lat="47.68053" lon="-2.19459">
        <ele>18.1</ele>
        <time>2021-05-27T15:10:24Z</time>
      </trkpt>
      <trkpt lat="47.68053" lon="-2.19459">
        <ele>18.1</ele>
        <time>2021-05-27T15:10:25Z</time>
      </trkpt>
      <trkpt lat="47.68053" lon="-2.19459">
        <ele>18.1</ele>
        <time>2021-05-27T15:10:26Z</time>
      </trkpt>
      <trkpt lat="47.68048" lon="-2.19455">
        <ele>18</ele>
        <time>2021-05-27T15:10:27Z</time>
      </trkpt>
      <trkpt lat="47.68047" lon="-2.19453">
        <ele>18</ele>
        <time>2021-05-27T15:10:28Z</time>
      </trkpt>
      <trkpt lat="47.68047" lon="-2.19452">
        <ele>18</ele>
        <time>2021-05-27T15:10:29Z</time>
      </trkpt>
      <trkpt lat="47.68046" lon="-2.19449">
        <ele>18</ele>
        <time>2021-05-27T15:10:30Z</time>
      </trkpt>
      <trkpt lat="47.68046" lon="-2.19447">
        <ele>18</ele>
        <time>2021-05-27T15:10:31Z</time>
      </trkpt>
      <trkpt lat="47.68045" lon="-2.19444">
        <ele>18</ele>
        <time>2021-05-27T15:10:32Z</time>
      </trkpt>
      <trkpt lat="47.68044" lon="-2.1944">
        <ele>18</ele>
        <time>2021-05-27T15:10:33Z</time>
      </trkpt>
      <trkpt lat="47.68043" lon="-2.19437">
        <ele>17.9</ele>
        <time>2021-05-27T15:10:34Z</time>
      </trkpt>
      <trkpt lat="47.68041" lon="-2.19433">
        <ele>17.9</ele>
        <time>2021-05-27T15:10:35Z</time>
      </trkpt>
      <trkpt lat="47.68039" lon="-2.19428">
        <ele>17.8</ele>
        <time>2021-05-27T15:10:36Z</time>
      </trkpt>
      <trkpt lat="47.68038" lon="-2.19424">
        <ele>17.8</ele>
        <time>2021-05-27T15:10:37Z</time>
      </trkpt>
      <trkpt lat="47.68036" lon="-2.1942">
        <ele>17.7</ele>
        <time>2021-05-27T15:10:38Z</time>
      </trkpt>
      <trkpt lat="47.68034" lon="-2.19416">
        <ele>17.7</ele>
        <time>2021-05-27T15:10:39Z</time>
      </trkpt>
      <trkpt lat="47.68033" lon="-2.19411">
        <ele>17.5</ele>
        <time>2021-05-27T15:10:40Z</time>
      </trkpt>
      <trkpt lat="47.6803" lon="-2.19406">
        <ele>17.4</ele>
        <time>2021-05-27T15:10:41Z</time>
      </trkpt>
      <trkpt lat="47.68028" lon="-2.19401">
        <ele>17.2</ele>
        <time>2021-05-27T15:10:42Z</time>
      </trkpt>
      <trkpt lat="47.68026" lon="-2.19397">
        <ele>17.1</ele>
        <time>2021-05-27T15:10:43Z</time>
      </trkpt>
      <trkpt lat="47.68024" lon="-2.19391">
        <ele>17</ele>
        <time>2021-05-27T15:10:44Z</time>
      </trkpt>
      <trkpt lat="47.68022" lon="-2.19387">
        <ele>16.8</ele>
        <time>2021-05-27T15:10:45Z</time>
      </trkpt>
      <trkpt lat="47.6802" lon="-2.19382">
        <ele>16.6</ele>
        <time>2021-05-27T15:10:46Z</time>
      </trkpt>
      <trkpt lat="47.68018" lon="-2.19377">
        <ele>16.5</ele>
        <time>2021-05-27T15:10:47Z</time>
      </trkpt>
      <trkpt lat="47.68016" lon="-2.19372">
        <ele>16.3</ele>
        <time>2021-05-27T15:10:48Z</time>
      </trkpt>
      <trkpt lat="47.68014" lon="-2.19368">
        <ele>16.2</ele>
        <time>2021-05-27T15:10:49Z</time>
      </trkpt>
      <trkpt lat="47.68012" lon="-2.19363">
        <ele>16</ele>
        <time>2021-05-27T15:10:50Z</time>
      </trkpt>
      <trkpt lat="47.6801" lon="-2.19358">
        <ele>15.9</ele>
        <time>2021-05-27T15:10:51Z</time>
      </trkpt>
      <trkpt lat="47.68009" lon="-2.19354">
        <ele>15.7</ele>
        <time>2021-05-27T15:10:52Z</time>
      </trkpt>
      <trkpt lat="47.68007" lon="-2.1935">
        <ele>15.6</ele>
        <time>2021-05-27T15:10:53Z</time>
      </trkpt>
      <trkpt lat="47.68005" lon="-2.19345">
        <ele>15.4</ele>
        <time>2021-05-27T15:10:54Z</time>
      </trkpt>
      <trkpt lat="47.68003" lon="-2.1934">
        <ele>15.2</ele>
        <time>2021-05-27T15:10:55Z</time>
      </trkpt>
      <trkpt lat="47.68001" lon="-2.19335">
        <ele>15.1</ele>
        <time>2021-05-27T15:10:56Z</time>
      </trkpt>
      <trkpt lat="47.67998" lon="-2.1933">
        <ele>15.1</ele>
        <time>2021-05-27T15:10:57Z</time>
      </trkpt>
      <trkpt lat="47.67996" lon="-2.19324">
        <ele>15.3</ele>
        <time>2021-05-27T15:10:58Z</time>
      </trkpt>
      <trkpt lat="47.67994" lon="-2.19318">
        <ele>15.4</ele>
        <time>2021-05-27T15:10:59Z</time>
      </trkpt>
      <trkpt lat="47.67992" lon="-2.19312">
        <ele>15.6</ele>
        <time>2021-05-27T15:11:00Z</time>
      </trkpt>
      <trkpt lat="47.67989" lon="-2.19307">
        <ele>15.7</ele>
        <time>2021-05-27T15:11:01Z</time>
      </trkpt>
      <trkpt lat="47.67987" lon="-2.19302">
        <ele>15.9</ele>
        <time>2021-05-27T15:11:02Z</time>
      </trkpt>
      <trkpt lat="47.67985" lon="-2.19297">
        <ele>16.1</ele>
        <time>2021-05-27T15:11:03Z</time>
      </trkpt>
      <trkpt lat="47.67983" lon="-2.19292">
        <ele>16.2</ele>
        <time>2021-05-27T15:11:04Z</time>
      </trkpt>
      <trkpt lat="47.67981" lon="-2.19287">
        <ele>16.4</ele>
        <time>2021-05-27T15:11:05Z</time>
      </trkpt>
      <trkpt lat="47.67978" lon="-2.19282">
        <ele>16.5</ele>
        <time>2021-05-27T15:11:06Z</time>
      </trkpt>
      <trkpt lat="47.67977" lon="-2.19278">
        <ele>16.7</ele>
        <time>2021-05-27T15:11:07Z</time>
      </trkpt>
      <trkpt lat="47.67976" lon="-2.19274">
        <ele>16.8</ele>
        <time>2021-05-27T15:11:08Z</time>
      </trkpt>
      <trkpt lat="47.67976" lon="-2.19271">
        <ele>16.8</ele>
        <time>2021-05-27T15:11:09Z</time>
      </trkpt>
      <trkpt lat="47.67976" lon="-2.19269">
        <ele>16.9</ele>
        <time>2021-05-27T15:11:10Z</time>
      </trkpt>
      <trkpt lat="47.67976" lon="-2.19266">
        <ele>16.9</ele>
        <time>2021-05-27T15:11:11Z</time>
      </trkpt>
      <trkpt lat="47.67977" lon="-2.19264">
        <ele>16.9</ele>
        <time>2021-05-27T15:11:12Z</time>
      </trkpt>
      <trkpt lat="47.67977" lon="-2.19261">
        <ele>16.9</ele>
        <time>2021-05-27T15:11:13Z</time>
      </trkpt>
      <trkpt lat="47.6798" lon="-2.19253">
        <ele>16.9</ele>
        <time>2021-05-27T15:11:15Z</time>
      </trkpt>
      <trkpt lat="47.67991" lon="-2.19235">
        <ele>17.3</ele>
        <time>2021-05-27T15:12:16Z</time>
      </trkpt>
      <trkpt lat="47.67995" lon="-2.19232">
        <ele>17.3</ele>
        <time>2021-05-27T15:12:17Z</time>
      </trkpt>
      <trkpt lat="47.67998" lon="-2.19229">
        <ele>17.3</ele>
        <time>2021-05-27T15:12:18Z</time>
      </trkpt>
      <trkpt lat="47.68001" lon="-2.19226">
        <ele>17.5</ele>
        <time>2021-05-27T15:12:19Z</time>
      </trkpt>
      <trkpt lat="47.68004" lon="-2.19223">
        <ele>17.8</ele>
        <time>2021-05-27T15:12:20Z</time>
      </trkpt>
      <trkpt lat="47.68007" lon="-2.19219">
        <ele>18.1</ele>
        <time>2021-05-27T15:12:21Z</time>
      </trkpt>
      <trkpt lat="47.6801" lon="-2.19216">
        <ele>18.4</ele>
        <time>2021-05-27T15:12:22Z</time>
      </trkpt>
      <trkpt lat="47.68014" lon="-2.19214">
        <ele>18.6</ele>
        <time>2021-05-27T15:12:23Z</time>
      </trkpt>
      <trkpt lat="47.68017" lon="-2.19211">
        <ele>18.9</ele>
        <time>2021-05-27T15:12:24Z</time>
      </trkpt>
      <trkpt lat="47.6802" lon="-2.19209">
        <ele>19.1</ele>
        <time>2021-05-27T15:12:25Z</time>
      </trkpt>
      <trkpt lat="47.68023" lon="-2.19206">
        <ele>19.3</ele>
        <time>2021-05-27T15:12:26Z</time>
      </trkpt>
      <trkpt lat="47.68026" lon="-2.19203">
        <ele>19.5</ele>
        <time>2021-05-27T15:12:27Z</time>
      </trkpt>
      <trkpt lat="47.68028" lon="-2.19201">
        <ele>19.6</ele>
        <time>2021-05-27T15:12:28Z</time>
      </trkpt>
      <trkpt lat="47.68031" lon="-2.19199">
        <ele>19.8</ele>
        <time>2021-05-27T15:12:29Z</time>
      </trkpt>
      <trkpt lat="47.68034" lon="-2.19196">
        <ele>19.9</ele>
        <time>2021-05-27T15:12:30Z</time>
      </trkpt>
      <trkpt lat="47.68037" lon="-2.19194">
        <ele>20.1</ele>
        <time>2021-05-27T15:12:31Z</time>
      </trkpt>
      <trkpt lat="47.6804" lon="-2.19192">
        <ele>20.2</ele>
        <time>2021-05-27T15:12:32Z</time>
      </trkpt>
      <trkpt lat="47.68043" lon="-2.19189">
        <ele>20.3</ele>
        <time>2021-05-27T15:12:33Z</time>
      </trkpt>
      <trkpt lat="47.68046" lon="-2.19186">
        <ele>20.5</ele>
        <time>2021-05-27T15:12:34Z</time>
      </trkpt>
      <trkpt lat="47.68049" lon="-2.19184">
        <ele>20.6</ele>
        <time>2021-05-27T15:12:35Z</time>
      </trkpt>
      <trkpt lat="47.68052" lon="-2.19182">
        <ele>20.7</ele>
        <time>2021-05-27T15:12:36Z</time>
      </trkpt>
      <trkpt lat="47.68056" lon="-2.1918">
        <ele>20.7</ele>
        <time>2021-05-27T15:12:37Z</time>
      </trkpt>
      <trkpt lat="47.68059" lon="-2.19178">
        <ele>20.8</ele>
        <time>2021-05-27T15:12:38Z</time>
      </trkpt>
      <trkpt lat="47.68062" lon="-2.19175">
        <ele>20.9</ele>
        <time>2021-05-27T15:12:39Z</time>
      </trkpt>
      <trkpt lat="47.68065" lon="-2.19173">
        <ele>20.9</ele>
        <time>2021-05-27T15:12:40Z</time>
      </trkpt>
      <trkpt lat="47.68068" lon="-2.19169">
        <ele>21</ele>
        <time>2021-05-27T15:12:41Z</time>
      </trkpt>
      <trkpt lat="47.68071" lon="-2.19165">
        <ele>21</ele>
        <time>2021-05-27T15:12:42Z</time>
      </trkpt>
      <trkpt lat="47.68074" lon="-2.19161">
        <ele>21</ele>
        <time>2021-05-27T15:12:43Z</time>
      </trkpt>
      <trkpt lat="47.68076" lon="-2.19156">
        <ele>21</ele>
        <time>2021-05-27T15:12:44Z</time>
      </trkpt>
      <trkpt lat="47.68078" lon="-2.1915">
        <ele>21</ele>
        <time>2021-05-27T15:12:45Z</time>
      </trkpt>
      <trkpt lat="47.68077" lon="-2.19144">
        <ele>21.1</ele>
        <time>2021-05-27T15:12:46Z</time>
      </trkpt>
      <trkpt lat="47.68076" lon="-2.19139">
        <ele>21.1</ele>
        <time>2021-05-27T15:12:47Z</time>
      </trkpt>
      <trkpt lat="47.68074" lon="-2.19134">
        <ele>21.1</ele>
        <time>2021-05-27T15:12:48Z</time>
      </trkpt>
      <trkpt lat="47.68071" lon="-2.1913">
        <ele>21.2</ele>
        <time>2021-05-27T15:12:49Z</time>
      </trkpt>
      <trkpt lat="47.68068" lon="-2.19125">
        <ele>21.3</ele>
        <time>2021-05-27T15:12:50Z</time>
      </trkpt>
      <trkpt lat="47.68065" lon="-2.19121">
        <ele>21.4</ele>
        <time>2021-05-27T15:12:51Z</time>
      </trkpt>
      <trkpt lat="47.68062" lon="-2.19116">
        <ele>21.5</ele>
        <time>2021-05-27T15:12:52Z</time>
      </trkpt>
      <trkpt lat="47.68059" lon="-2.19111">
        <ele>21.6</ele>
        <time>2021-05-27T15:12:53Z</time>
      </trkpt>
      <trkpt lat="47.68056" lon="-2.19107">
        <ele>21.7</ele>
        <time>2021-05-27T15:12:54Z</time>
      </trkpt>
      <trkpt lat="47.68053" lon="-2.19103">
        <ele>21.8</ele>
        <time>2021-05-27T15:12:55Z</time>
      </trkpt>
      <trkpt lat="47.6805" lon="-2.19098">
        <ele>22</ele>
        <time>2021-05-27T15:12:56Z</time>
      </trkpt>
      <trkpt lat="47.68048" lon="-2.19094">
        <ele>22.1</ele>
        <time>2021-05-27T15:12:57Z</time>
      </trkpt>
      <trkpt lat="47.68045" lon="-2.19089">
        <ele>22.3</ele>
        <time>2021-05-27T15:12:58Z</time>
      </trkpt>
      <trkpt lat="47.68043" lon="-2.19085">
        <ele>22.4</ele>
        <time>2021-05-27T15:12:59Z</time>
      </trkpt>
      <trkpt lat="47.6804" lon="-2.19081">
        <ele>22.6</ele>
        <time>2021-05-27T15:13:00Z</time>
      </trkpt>
      <trkpt lat="47.68037" lon="-2.19077">
        <ele>22.8</ele>
        <time>2021-05-27T15:13:01Z</time>
      </trkpt>
      <trkpt lat="47.68034" lon="-2.19072">
        <ele>23</ele>
        <time>2021-05-27T15:13:02Z</time>
      </trkpt>
      <trkpt lat="47.68031" lon="-2.19068">
        <ele>23.1</ele>
        <time>2021-05-27T15:13:03Z</time>
      </trkpt>
      <trkpt lat="47.68028" lon="-2.19064">
        <ele>23.3</ele>
        <time>2021-05-27T15:13:04Z</time>
      </trkpt>
      <trkpt lat="47.68024" lon="-2.19059">
        <ele>23.5</ele>
        <time>2021-05-27T15:13:05Z</time>
      </trkpt>
      <trkpt lat="47.68021" lon="-2.19055">
        <ele>23.7</ele>
        <time>2021-05-27T15:13:06Z</time>
      </trkpt>
      <trkpt lat="47.68017" lon="-2.19049">
        <ele>23.9</ele>
        <time>2021-05-27T15:13:07Z</time>
      </trkpt>
      <trkpt lat="47.68013" lon="-2.19045">
        <ele>24.1</ele>
        <time>2021-05-27T15:13:08Z</time>
      </trkpt>
      <trkpt lat="47.6801" lon="-2.1904">
        <ele>24.2</ele>
        <time>2021-05-27T15:13:09Z</time>
      </trkpt>
      <trkpt lat="47.68007" lon="-2.19035">
        <ele>24.4</ele>
        <time>2021-05-27T15:13:10Z</time>
      </trkpt>
      <trkpt lat="47.68003" lon="-2.19031">
        <ele>24.5</ele>
        <time>2021-05-27T15:13:11Z</time>
      </trkpt>
      <trkpt lat="47.67999" lon="-2.19026">
        <ele>24.7</ele>
        <time>2021-05-27T15:13:12Z</time>
      </trkpt>
      <trkpt lat="47.67996" lon="-2.19022">
        <ele>24.7</ele>
        <time>2021-05-27T15:13:13Z</time>
      </trkpt>
      <trkpt lat="47.67992" lon="-2.19017">
        <ele>24.8</ele>
        <time>2021-05-27T15:13:14Z</time>
      </trkpt>
      <trkpt lat="47.67989" lon="-2.19013">
        <ele>24.8</ele>
        <time>2021-05-27T15:13:15Z</time>
      </trkpt>
      <trkpt lat="47.67985" lon="-2.19009">
        <ele>24.9</ele>
        <time>2021-05-27T15:13:16Z</time>
      </trkpt>
      <trkpt lat="47.67982" lon="-2.19005">
        <ele>24.9</ele>
        <time>2021-05-27T15:13:17Z</time>
      </trkpt>
      <trkpt lat="47.67978" lon="-2.19">
        <ele>25</ele>
        <time>2021-05-27T15:13:18Z</time>
      </trkpt>
      <trkpt lat="47.67975" lon="-2.18996">
        <ele>25.1</ele>
        <time>2021-05-27T15:13:19Z</time>
      </trkpt>
      <trkpt lat="47.67972" lon="-2.18992">
        <ele>25.2</ele>
        <time>2021-05-27T15:13:20Z</time>
      </trkpt>
      <trkpt lat="47.67968" lon="-2.18987">
        <ele>25.3</ele>
        <time>2021-05-27T15:13:21Z</time>
      </trkpt>
      <trkpt lat="47.67965" lon="-2.18983">
        <ele>25.4</ele>
        <time>2021-05-27T15:13:22Z</time>
      </trkpt>
      <trkpt lat="47.67961" lon="-2.18978">
        <ele>25.5</ele>
        <time>2021-05-27T15:13:23Z</time>
      </trkpt>
      <trkpt lat="47.67958" lon="-2.18974">
        <ele>25.6</ele>
        <time>2021-05-27T15:13:24Z</time>
      </trkpt>
      <trkpt lat="47.67955" lon="-2.1897">
        <ele>25.7</ele>
        <time>2021-05-27T15:13:25Z</time>
      </trkpt>
      <trkpt lat="47.67951" lon="-2.18966">
        <ele>25.8</ele>
        <time>2021-05-27T15:13:26Z</time>
      </trkpt>
      <trkpt lat="47.67948" lon="-2.18961">
        <ele>25.9</ele>
        <time>2021-05-27T15:13:27Z</time>
      </trkpt>
      <trkpt lat="47.67945" lon="-2.18957">
        <ele>26</ele>
        <time>2021-05-27T15:13:28Z</time>
      </trkpt>
      <trkpt lat="47.67942" lon="-2.18953">
        <ele>26.1</ele>
        <time>2021-05-27T15:13:29Z</time>
      </trkpt>
      <trkpt lat="47.6794" lon="-2.18949">
        <ele>26.2</ele>
        <time>2021-05-27T15:13:30Z</time>
      </trkpt>
      <trkpt lat="47.67937" lon="-2.18945">
        <ele>26.3</ele>
        <time>2021-05-27T15:13:31Z</time>
      </trkpt>
      <trkpt lat="47.67935" lon="-2.18941">
        <ele>26.4</ele>
        <time>2021-05-27T15:13:32Z</time>
      </trkpt>
      <trkpt lat="47.67932" lon="-2.18938">
        <ele>26.5</ele>
        <time>2021-05-27T15:13:33Z</time>
      </trkpt>
      <trkpt lat="47.6793" lon="-2.18934">
        <ele>26.6</ele>
        <time>2021-05-27T15:13:34Z</time>
      </trkpt>
      <trkpt lat="47.67927" lon="-2.18931">
        <ele>26.7</ele>
        <time>2021-05-27T15:13:35Z</time>
      </trkpt>
      <trkpt lat="47.67924" lon="-2.18928">
        <ele>26.7</ele>
        <time>2021-05-27T15:13:36Z</time>
      </trkpt>
      <trkpt lat="47.67921" lon="-2.18926">
        <ele>26.8</ele>
        <time>2021-05-27T15:13:37Z</time>
      </trkpt>
      <trkpt lat="47.67918" lon="-2.18924">
        <ele>26.8</ele>
        <time>2021-05-27T15:13:38Z</time>
      </trkpt>
      <trkpt lat="47.67914" lon="-2.18923">
        <ele>26.9</ele>
        <time>2021-05-27T15:13:39Z</time>
      </trkpt>
      <trkpt lat="47.67909" lon="-2.18923">
        <ele>26.8</ele>
        <time>2021-05-27T15:13:40Z</time>
      </trkpt>
      <trkpt lat="47.67904" lon="-2.18925">
        <ele>26.8</ele>
        <time>2021-05-27T15:13:41Z</time>
      </trkpt>
      <trkpt lat="47.67899" lon="-2.18928">
        <ele>26.7</ele>
        <time>2021-05-27T15:13:42Z</time>
      </trkpt>
      <trkpt lat="47.67895" lon="-2.18931">
        <ele>26.7</ele>
        <time>2021-05-27T15:13:43Z</time>
      </trkpt>
      <trkpt lat="47.67891" lon="-2.18935">
        <ele>26.6</ele>
        <time>2021-05-27T15:13:44Z</time>
      </trkpt>
      <trkpt lat="47.67887" lon="-2.18939">
        <ele>26.5</ele>
        <time>2021-05-27T15:13:45Z</time>
      </trkpt>
      <trkpt lat="47.67882" lon="-2.18945">
        <ele>26.3</ele>
        <time>2021-05-27T15:13:46Z</time>
      </trkpt>
      <trkpt lat="47.67879" lon="-2.18951">
        <ele>26.2</ele>
        <time>2021-05-27T15:13:47Z</time>
      </trkpt>
      <trkpt lat="47.67876" lon="-2.18958">
        <ele>26</ele>
        <time>2021-05-27T15:13:48Z</time>
      </trkpt>
      <trkpt lat="47.67874" lon="-2.18966">
        <ele>25.8</ele>
        <time>2021-05-27T15:13:49Z</time>
      </trkpt>
      <trkpt lat="47.67872" lon="-2.18973">
        <ele>25.6</ele>
        <time>2021-05-27T15:13:50Z</time>
      </trkpt>
      <trkpt lat="47.67871" lon="-2.18982">
        <ele>25.4</ele>
        <time>2021-05-27T15:13:51Z</time>
      </trkpt>
      <trkpt lat="47.67869" lon="-2.1899">
        <ele>25.2</ele>
        <time>2021-05-27T15:13:52Z</time>
      </trkpt>
      <trkpt lat="47.67867" lon="-2.18999">
        <ele>25</ele>
        <time>2021-05-27T15:13:53Z</time>
      </trkpt>
      <trkpt lat="47.67866" lon="-2.19008">
        <ele>24.9</ele>
        <time>2021-05-27T15:13:54Z</time>
      </trkpt>
      <trkpt lat="47.67865" lon="-2.19017">
        <ele>24.8</ele>
        <time>2021-05-27T15:13:55Z</time>
      </trkpt>
      <trkpt lat="47.67864" lon="-2.19027">
        <ele>24.8</ele>
        <time>2021-05-27T15:13:56Z</time>
      </trkpt>
      <trkpt lat="47.67863" lon="-2.19038">
        <ele>24.7</ele>
        <time>2021-05-27T15:13:57Z</time>
      </trkpt>
      <trkpt lat="47.67863" lon="-2.19049">
        <ele>24.6</ele>
        <time>2021-05-27T15:13:58Z</time>
      </trkpt>
      <trkpt lat="47.67862" lon="-2.19059">
        <ele>24.5</ele>
        <time>2021-05-27T15:13:59Z</time>
      </trkpt>
      <trkpt lat="47.67863" lon="-2.19069">
        <ele>24.4</ele>
        <time>2021-05-27T15:14:00Z</time>
      </trkpt>
      <trkpt lat="47.67862" lon="-2.19079">
        <ele>24.3</ele>
        <time>2021-05-27T15:14:01Z</time>
      </trkpt>
      <trkpt lat="47.6786" lon="-2.19089">
        <ele>24.4</ele>
        <time>2021-05-27T15:14:02Z</time>
      </trkpt>
      <trkpt lat="47.67857" lon="-2.19097">
        <ele>24.5</ele>
        <time>2021-05-27T15:14:03Z</time>
      </trkpt>
      <trkpt lat="47.67855" lon="-2.19104">
        <ele>24.7</ele>
        <time>2021-05-27T15:14:04Z</time>
      </trkpt>
      <trkpt lat="47.6785" lon="-2.19106">
        <ele>24.8</ele>
        <time>2021-05-27T15:14:05Z</time>
      </trkpt>
      <trkpt lat="47.67846" lon="-2.19108">
        <ele>24.9</ele>
        <time>2021-05-27T15:14:06Z</time>
      </trkpt>
      <trkpt lat="47.67842" lon="-2.19109">
        <ele>25.1</ele>
        <time>2021-05-27T15:14:07Z</time>
      </trkpt>
      <trkpt lat="47.67835" lon="-2.19106">
        <ele>25.2</ele>
        <time>2021-05-27T15:14:08Z</time>
      </trkpt>
      <trkpt lat="47.67826" lon="-2.1911">
        <ele>25.2</ele>
        <time>2021-05-27T15:14:09Z</time>
      </trkpt>
      <trkpt lat="47.6782" lon="-2.19113">
        <ele>25.2</ele>
        <time>2021-05-27T15:14:10Z</time>
      </trkpt>
      <trkpt lat="47.67814" lon="-2.19117">
        <ele>25.2</ele>
        <time>2021-05-27T15:14:11Z</time>
      </trkpt>
      <trkpt lat="47.67811" lon="-2.19123">
        <ele>25.2</ele>
        <time>2021-05-27T15:14:12Z</time>
      </trkpt>
      <trkpt lat="47.6781" lon="-2.19128">
        <ele>25.3</ele>
        <time>2021-05-27T15:14:13Z</time>
      </trkpt>
      <trkpt lat="47.67809" lon="-2.19133">
        <ele>25.3</ele>
        <time>2021-05-27T15:14:14Z</time>
      </trkpt>
      <trkpt lat="47.67807" lon="-2.19138">
        <ele>25.3</ele>
        <time>2021-05-27T15:14:15Z</time>
      </trkpt>
      <trkpt lat="47.67806" lon="-2.19143">
        <ele>25.4</ele>
        <time>2021-05-27T15:14:16Z</time>
      </trkpt>
      <trkpt lat="47.67804" lon="-2.19148">
        <ele>25.4</ele>
        <time>2021-05-27T15:14:17Z</time>
      </trkpt>
      <trkpt lat="47.67802" lon="-2.19153">
        <ele>25.5</ele>
        <time>2021-05-27T15:14:18Z</time>
      </trkpt>
      <trkpt lat="47.678" lon="-2.19156">
        <ele>25.5</ele>
        <time>2021-05-27T15:14:19Z</time>
      </trkpt>
      <trkpt lat="47.67798" lon="-2.19159">
        <ele>25.5</ele>
        <time>2021-05-27T15:14:20Z</time>
      </trkpt>
      <trkpt lat="47.67796" lon="-2.19163">
        <ele>25.5</ele>
        <time>2021-05-27T15:14:21Z</time>
      </trkpt>
      <trkpt lat="47.67795" lon="-2.19168">
        <ele>25.5</ele>
        <time>2021-05-27T15:14:22Z</time>
      </trkpt>
      <trkpt lat="47.67795" lon="-2.19172">
        <ele>25.6</ele>
        <time>2021-05-27T15:14:23Z</time>
      </trkpt>
      <trkpt lat="47.67794" lon="-2.19176">
        <ele>25.6</ele>
        <time>2021-05-27T15:14:24Z</time>
      </trkpt>
      <trkpt lat="47.67794" lon="-2.19179">
        <ele>25.6</ele>
        <time>2021-05-27T15:14:25Z</time>
      </trkpt>
      <trkpt lat="47.67794" lon="-2.19181">
        <ele>25.6</ele>
        <time>2021-05-27T15:14:26Z</time>
      </trkpt>
      <trkpt lat="47.67797" lon="-2.19252">
        <ele>26</ele>
        <time>2021-05-27T15:18:23Z</time>
      </trkpt>
      <trkpt lat="47.67798" lon="-2.19255">
        <ele>26</ele>
        <time>2021-05-27T15:18:24Z</time>
      </trkpt>
      <trkpt lat="47.67798" lon="-2.19257">
        <ele>26</ele>
        <time>2021-05-27T15:18:25Z</time>
      </trkpt>
      <trkpt lat="47.67798" lon="-2.1926">
        <ele>26</ele>
        <time>2021-05-27T15:18:26Z</time>
      </trkpt>
      <trkpt lat="47.67799" lon="-2.19263">
        <ele>26</ele>
        <time>2021-05-27T15:18:27Z</time>
      </trkpt>
      <trkpt lat="47.67799" lon="-2.19266">
        <ele>26</ele>
        <time>2021-05-27T15:18:28Z</time>
      </trkpt>
      <trkpt lat="47.678" lon="-2.1927">
        <ele>26</ele>
        <time>2021-05-27T15:18:29Z</time>
      </trkpt>
      <trkpt lat="47.678" lon="-2.19274">
        <ele>25.9</ele>
        <time>2021-05-27T15:18:30Z</time>
      </trkpt>
      <trkpt lat="47.67801" lon="-2.19278">
        <ele>25.9</ele>
        <time>2021-05-27T15:18:31Z</time>
      </trkpt>
      <trkpt lat="47.67801" lon="-2.19282">
        <ele>25.9</ele>
        <time>2021-05-27T15:18:32Z</time>
      </trkpt>
      <trkpt lat="47.67801" lon="-2.19286">
        <ele>25.9</ele>
        <time>2021-05-27T15:18:33Z</time>
      </trkpt>
      <trkpt lat="47.67801" lon="-2.1929">
        <ele>25.9</ele>
        <time>2021-05-27T15:18:34Z</time>
      </trkpt>
      <trkpt lat="47.67801" lon="-2.19293">
        <ele>25.9</ele>
        <time>2021-05-27T15:18:35Z</time>
      </trkpt>
      <trkpt lat="47.67802" lon="-2.19296">
        <ele>25.9</ele>
        <time>2021-05-27T15:18:36Z</time>
      </trkpt>
      <trkpt lat="47.67802" lon="-2.193">
        <ele>25.9</ele>
        <time>2021-05-27T15:18:37Z</time>
      </trkpt>
      <trkpt lat="47.67802" lon="-2.19304">
        <ele>25.8</ele>
        <time>2021-05-27T15:18:38Z</time>
      </trkpt>
      <trkpt lat="47.67802" lon="-2.19309">
        <ele>25.8</ele>
        <time>2021-05-27T15:18:39Z</time>
      </trkpt>
      <trkpt lat="47.67803" lon="-2.19313">
        <ele>25.8</ele>
        <time>2021-05-27T15:18:40Z</time>
      </trkpt>
      <trkpt lat="47.67803" lon="-2.19319">
        <ele>25.8</ele>
        <time>2021-05-27T15:18:41Z</time>
      </trkpt>
      <trkpt lat="47.67802" lon="-2.19325">
        <ele>25.8</ele>
        <time>2021-05-27T15:18:42Z</time>
      </trkpt>
      <trkpt lat="47.67803" lon="-2.1933">
        <ele>25.7</ele>
        <time>2021-05-27T15:18:43Z</time>
      </trkpt>
      <trkpt lat="47.67803" lon="-2.19336">
        <ele>25.8</ele>
        <time>2021-05-27T15:18:44Z</time>
      </trkpt>
      <trkpt lat="47.67803" lon="-2.19342">
        <ele>25.9</ele>
        <time>2021-05-27T15:18:45Z</time>
      </trkpt>
      <trkpt lat="47.67803" lon="-2.19348">
        <ele>26</ele>
        <time>2021-05-27T15:18:46Z</time>
      </trkpt>
      <trkpt lat="47.67803" lon="-2.19355">
        <ele>26.1</ele>
        <time>2021-05-27T15:18:47Z</time>
      </trkpt>
      <trkpt lat="47.67803" lon="-2.19361">
        <ele>26.2</ele>
        <time>2021-05-27T15:18:48Z</time>
      </trkpt>
      <trkpt lat="47.67804" lon="-2.19368">
        <ele>26.3</ele>
        <time>2021-05-27T15:18:49Z</time>
      </trkpt>
      <trkpt lat="47.67804" lon="-2.19374">
        <ele>26.4</ele>
        <time>2021-05-27T15:18:50Z</time>
      </trkpt>
      <trkpt lat="47.67805" lon="-2.1938">
        <ele>26.4</ele>
        <time>2021-05-27T15:18:51Z</time>
      </trkpt>
      <trkpt lat="47.67806" lon="-2.19387">
        <ele>26.5</ele>
        <time>2021-05-27T15:18:52Z</time>
      </trkpt>
      <trkpt lat="47.67807" lon="-2.19394">
        <ele>26.6</ele>
        <time>2021-05-27T15:18:53Z</time>
      </trkpt>
      <trkpt lat="47.67808" lon="-2.19402">
        <ele>26.7</ele>
        <time>2021-05-27T15:18:54Z</time>
      </trkpt>
      <trkpt lat="47.67809" lon="-2.19409">
        <ele>26.8</ele>
        <time>2021-05-27T15:18:55Z</time>
      </trkpt>
      <trkpt lat="47.67809" lon="-2.19415">
        <ele>26.9</ele>
        <time>2021-05-27T15:18:56Z</time>
      </trkpt>
      <trkpt lat="47.6781" lon="-2.19422">
        <ele>26.9</ele>
        <time>2021-05-27T15:18:57Z</time>
      </trkpt>
      <trkpt lat="47.6781" lon="-2.19429">
        <ele>27</ele>
        <time>2021-05-27T15:18:58Z</time>
      </trkpt>
      <trkpt lat="47.67811" lon="-2.19435">
        <ele>27.1</ele>
        <time>2021-05-27T15:18:59Z</time>
      </trkpt>
      <trkpt lat="47.6781" lon="-2.19441">
        <ele>27.3</ele>
        <time>2021-05-27T15:19:00Z</time>
      </trkpt>
      <trkpt lat="47.67811" lon="-2.19447">
        <ele>27.4</ele>
        <time>2021-05-27T15:19:01Z</time>
      </trkpt>
      <trkpt lat="47.67812" lon="-2.19453">
        <ele>27.4</ele>
        <time>2021-05-27T15:19:02Z</time>
      </trkpt>
      <trkpt lat="47.67812" lon="-2.19459">
        <ele>27.5</ele>
        <time>2021-05-27T15:19:03Z</time>
      </trkpt>
      <trkpt lat="47.67811" lon="-2.19465">
        <ele>27.7</ele>
        <time>2021-05-27T15:19:04Z</time>
      </trkpt>
      <trkpt lat="47.67812" lon="-2.19471">
        <ele>27.8</ele>
        <time>2021-05-27T15:19:05Z</time>
      </trkpt>
      <trkpt lat="47.67812" lon="-2.19478">
        <ele>27.9</ele>
        <time>2021-05-27T15:19:06Z</time>
      </trkpt>
      <trkpt lat="47.67813" lon="-2.19484">
        <ele>28</ele>
        <time>2021-05-27T15:19:07Z</time>
      </trkpt>
      <trkpt lat="47.67813" lon="-2.1949">
        <ele>28.1</ele>
        <time>2021-05-27T15:19:08Z</time>
      </trkpt>
      <trkpt lat="47.67813" lon="-2.19496">
        <ele>28.2</ele>
        <time>2021-05-27T15:19:09Z</time>
      </trkpt>
      <trkpt lat="47.67813" lon="-2.19503">
        <ele>28.3</ele>
        <time>2021-05-27T15:19:10Z</time>
      </trkpt>
      <trkpt lat="47.67814" lon="-2.1951">
        <ele>28.4</ele>
        <time>2021-05-27T15:19:11Z</time>
      </trkpt>
      <trkpt lat="47.67815" lon="-2.19516">
        <ele>28.5</ele>
        <time>2021-05-27T15:19:12Z</time>
      </trkpt>
      <trkpt lat="47.67816" lon="-2.19522">
        <ele>28.7</ele>
        <time>2021-05-27T15:19:13Z</time>
      </trkpt>
      <trkpt lat="47.67816" lon="-2.19529">
        <ele>28.8</ele>
        <time>2021-05-27T15:19:14Z</time>
      </trkpt>
      <trkpt lat="47.67817" lon="-2.19535">
        <ele>28.9</ele>
        <time>2021-05-27T15:19:15Z</time>
      </trkpt>
      <trkpt lat="47.67817" lon="-2.19542">
        <ele>29.1</ele>
        <time>2021-05-27T15:19:16Z</time>
      </trkpt>
      <trkpt lat="47.67818" lon="-2.19548">
        <ele>29.2</ele>
        <time>2021-05-27T15:19:17Z</time>
      </trkpt>
      <trkpt lat="47.67818" lon="-2.19554">
        <ele>29.3</ele>
        <time>2021-05-27T15:19:18Z</time>
      </trkpt>
      <trkpt lat="47.67818" lon="-2.19559">
        <ele>29.4</ele>
        <time>2021-05-27T15:19:19Z</time>
      </trkpt>
      <trkpt lat="47.67818" lon="-2.19564">
        <ele>29.6</ele>
        <time>2021-05-27T15:19:20Z</time>
      </trkpt>
      <trkpt lat="47.67818" lon="-2.1957">
        <ele>29.7</ele>
        <time>2021-05-27T15:19:21Z</time>
      </trkpt>
      <trkpt lat="47.67819" lon="-2.19575">
        <ele>29.9</ele>
        <time>2021-05-27T15:19:22Z</time>
      </trkpt>
      <trkpt lat="47.67819" lon="-2.19581">
        <ele>30</ele>
        <time>2021-05-27T15:19:23Z</time>
      </trkpt>
      <trkpt lat="47.67819" lon="-2.19587">
        <ele>30.2</ele>
        <time>2021-05-27T15:19:24Z</time>
      </trkpt>
      <trkpt lat="47.67819" lon="-2.19593">
        <ele>30.4</ele>
        <time>2021-05-27T15:19:25Z</time>
      </trkpt>
      <trkpt lat="47.6782" lon="-2.19599">
        <ele>30.6</ele>
        <time>2021-05-27T15:19:26Z</time>
      </trkpt>
      <trkpt lat="47.6782" lon="-2.19605">
        <ele>30.8</ele>
        <time>2021-05-27T15:19:27Z</time>
      </trkpt>
      <trkpt lat="47.67821" lon="-2.1961">
        <ele>31</ele>
        <time>2021-05-27T15:19:28Z</time>
      </trkpt>
      <trkpt lat="47.67821" lon="-2.19616">
        <ele>31.2</ele>
        <time>2021-05-27T15:19:29Z</time>
      </trkpt>
      <trkpt lat="47.67822" lon="-2.19622">
        <ele>31.3</ele>
        <time>2021-05-27T15:19:30Z</time>
      </trkpt>
      <trkpt lat="47.67823" lon="-2.19627">
        <ele>31.5</ele>
        <time>2021-05-27T15:19:31Z</time>
      </trkpt>
      <trkpt lat="47.67823" lon="-2.19633">
        <ele>31.6</ele>
        <time>2021-05-27T15:19:32Z</time>
      </trkpt>
      <trkpt lat="47.67824" lon="-2.19639">
        <ele>31.8</ele>
        <time>2021-05-27T15:19:33Z</time>
      </trkpt>
      <trkpt lat="47.67826" lon="-2.19645">
        <ele>31.9</ele>
        <time>2021-05-27T15:19:34Z</time>
      </trkpt>
      <trkpt lat="47.67827" lon="-2.19651">
        <ele>32</ele>
        <time>2021-05-27T15:19:35Z</time>
      </trkpt>
      <trkpt lat="47.67827" lon="-2.19657">
        <ele>32.2</ele>
        <time>2021-05-27T15:19:36Z</time>
      </trkpt>
      <trkpt lat="47.67829" lon="-2.19663">
        <ele>32.3</ele>
        <time>2021-05-27T15:19:37Z</time>
      </trkpt>
      <trkpt lat="47.6783" lon="-2.19669">
        <ele>32.4</ele>
        <time>2021-05-27T15:19:38Z</time>
      </trkpt>
      <trkpt lat="47.67831" lon="-2.19675">
        <ele>32.3</ele>
        <time>2021-05-27T15:19:39Z</time>
      </trkpt>
      <trkpt lat="47.67832" lon="-2.19681">
        <ele>32.3</ele>
        <time>2021-05-27T15:19:40Z</time>
      </trkpt>
      <trkpt lat="47.67832" lon="-2.19686">
        <ele>32.3</ele>
        <time>2021-05-27T15:19:41Z</time>
      </trkpt>
      <trkpt lat="47.67833" lon="-2.19693">
        <ele>32.3</ele>
        <time>2021-05-27T15:19:42Z</time>
      </trkpt>
      <trkpt lat="47.67834" lon="-2.19699">
        <ele>32.4</ele>
        <time>2021-05-27T15:19:43Z</time>
      </trkpt>
      <trkpt lat="47.67835" lon="-2.19705">
        <ele>32.4</ele>
        <time>2021-05-27T15:19:44Z</time>
      </trkpt>
      <trkpt lat="47.67836" lon="-2.19711">
        <ele>32.4</ele>
        <time>2021-05-27T15:19:45Z</time>
      </trkpt>
      <trkpt lat="47.67837" lon="-2.19717">
        <ele>32.4</ele>
        <time>2021-05-27T15:19:46Z</time>
      </trkpt>
      <trkpt lat="47.67837" lon="-2.19723">
        <ele>32.4</ele>
        <time>2021-05-27T15:19:47Z</time>
      </trkpt>
      <trkpt lat="47.67838" lon="-2.1973">
        <ele>32.5</ele>
        <time>2021-05-27T15:19:48Z</time>
      </trkpt>
      <trkpt lat="47.67838" lon="-2.19736">
        <ele>32.6</ele>
        <time>2021-05-27T15:19:49Z</time>
      </trkpt>
      <trkpt lat="47.67837" lon="-2.19743">
        <ele>32.7</ele>
        <time>2021-05-27T15:19:50Z</time>
      </trkpt>
      <trkpt lat="47.67836" lon="-2.19749">
        <ele>32.8</ele>
        <time>2021-05-27T15:19:51Z</time>
      </trkpt>
      <trkpt lat="47.67836" lon="-2.19756">
        <ele>33.2</ele>
        <time>2021-05-27T15:19:52Z</time>
      </trkpt>
      <trkpt lat="47.67834" lon="-2.19763">
        <ele>33.6</ele>
        <time>2021-05-27T15:19:53Z</time>
      </trkpt>
      <trkpt lat="47.67832" lon="-2.19769">
        <ele>34</ele>
        <time>2021-05-27T15:19:54Z</time>
      </trkpt>
      <trkpt lat="47.6783" lon="-2.19774">
        <ele>34.5</ele>
        <time>2021-05-27T15:19:55Z</time>
      </trkpt>
      <trkpt lat="47.67828" lon="-2.1978">
        <ele>34.9</ele>
        <time>2021-05-27T15:19:56Z</time>
      </trkpt>
      <trkpt lat="47.67826" lon="-2.19786">
        <ele>35.3</ele>
        <time>2021-05-27T15:19:57Z</time>
      </trkpt>
      <trkpt lat="47.67824" lon="-2.19791">
        <ele>35.7</ele>
        <time>2021-05-27T15:19:58Z</time>
      </trkpt>
      <trkpt lat="47.67822" lon="-2.19797">
        <ele>36.1</ele>
        <time>2021-05-27T15:19:59Z</time>
      </trkpt>
      <trkpt lat="47.6782" lon="-2.19802">
        <ele>36.5</ele>
        <time>2021-05-27T15:20:00Z</time>
      </trkpt>
      <trkpt lat="47.67819" lon="-2.19807">
        <ele>36.8</ele>
        <time>2021-05-27T15:20:01Z</time>
      </trkpt>
      <trkpt lat="47.67817" lon="-2.19813">
        <ele>37.2</ele>
        <time>2021-05-27T15:20:02Z</time>
      </trkpt>
      <trkpt lat="47.67815" lon="-2.19818">
        <ele>37.5</ele>
        <time>2021-05-27T15:20:03Z</time>
      </trkpt>
      <trkpt lat="47.67813" lon="-2.19823">
        <ele>37.8</ele>
        <time>2021-05-27T15:20:04Z</time>
      </trkpt>
      <trkpt lat="47.67812" lon="-2.19829">
        <ele>38.1</ele>
        <time>2021-05-27T15:20:05Z</time>
      </trkpt>
      <trkpt lat="47.67812" lon="-2.19834">
        <ele>38.3</ele>
        <time>2021-05-27T15:20:06Z</time>
      </trkpt>
      <trkpt lat="47.67811" lon="-2.19839">
        <ele>38.4</ele>
        <time>2021-05-27T15:20:07Z</time>
      </trkpt>
      <trkpt lat="47.67811" lon="-2.19844">
        <ele>38.4</ele>
        <time>2021-05-27T15:20:08Z</time>
      </trkpt>
      <trkpt lat="47.67812" lon="-2.19849">
        <ele>38.5</ele>
        <time>2021-05-27T15:20:09Z</time>
      </trkpt>
      <trkpt lat="47.67812" lon="-2.19854">
        <ele>38.5</ele>
        <time>2021-05-27T15:20:10Z</time>
      </trkpt>
      <trkpt lat="47.67812" lon="-2.1986">
        <ele>38.6</ele>
        <time>2021-05-27T15:20:11Z</time>
      </trkpt>
      <trkpt lat="47.67812" lon="-2.19865">
        <ele>38.6</ele>
        <time>2021-05-27T15:20:12Z</time>
      </trkpt>
      <trkpt lat="47.67813" lon="-2.19871">
        <ele>38.7</ele>
        <time>2021-05-27T15:20:13Z</time>
      </trkpt>
      <trkpt lat="47.67813" lon="-2.19876">
        <ele>38.7</ele>
        <time>2021-05-27T15:20:14Z</time>
      </trkpt>
      <trkpt lat="47.67813" lon="-2.19882">
        <ele>38.8</ele>
        <time>2021-05-27T15:20:15Z</time>
      </trkpt>
      <trkpt lat="47.67814" lon="-2.19887">
        <ele>38.8</ele>
        <time>2021-05-27T15:20:16Z</time>
      </trkpt>
      <trkpt lat="47.67814" lon="-2.19893">
        <ele>38.9</ele>
        <time>2021-05-27T15:20:17Z</time>
      </trkpt>
      <trkpt lat="47.67815" lon="-2.19899">
        <ele>38.9</ele>
        <time>2021-05-27T15:20:18Z</time>
      </trkpt>
      <trkpt lat="47.67816" lon="-2.19905">
        <ele>38.9</ele>
        <time>2021-05-27T15:20:19Z</time>
      </trkpt>
      <trkpt lat="47.67816" lon="-2.19911">
        <ele>38.9</ele>
        <time>2021-05-27T15:20:20Z</time>
      </trkpt>
      <trkpt lat="47.67817" lon="-2.19918">
        <ele>39</ele>
        <time>2021-05-27T15:20:21Z</time>
      </trkpt>
      <trkpt lat="47.67818" lon="-2.19924">
        <ele>39</ele>
        <time>2021-05-27T15:20:22Z</time>
      </trkpt>
      <trkpt lat="47.67819" lon="-2.1993">
        <ele>39</ele>
        <time>2021-05-27T15:20:23Z</time>
      </trkpt>
      <trkpt lat="47.6782" lon="-2.19936">
        <ele>39</ele>
        <time>2021-05-27T15:20:24Z</time>
      </trkpt>
      <trkpt lat="47.67822" lon="-2.19942">
        <ele>39</ele>
        <time>2021-05-27T15:20:25Z</time>
      </trkpt>
      <trkpt lat="47.67823" lon="-2.19948">
        <ele>39</ele>
        <time>2021-05-27T15:20:26Z</time>
      </trkpt>
      <trkpt lat="47.67823" lon="-2.19954">
        <ele>39</ele>
        <time>2021-05-27T15:20:27Z</time>
      </trkpt>
      <trkpt lat="47.67824" lon="-2.19961">
        <ele>39.1</ele>
        <time>2021-05-27T15:20:28Z</time>
      </trkpt>
      <trkpt lat="47.67824" lon="-2.19966">
        <ele>39.1</ele>
        <time>2021-05-27T15:20:29Z</time>
      </trkpt>
      <trkpt lat="47.67825" lon="-2.19971">
        <ele>39.2</ele>
        <time>2021-05-27T15:20:30Z</time>
      </trkpt>
      <trkpt lat="47.67825" lon="-2.19977">
        <ele>39.2</ele>
        <time>2021-05-27T15:20:31Z</time>
      </trkpt>
      <trkpt lat="47.67826" lon="-2.19981">
        <ele>39.2</ele>
        <time>2021-05-27T15:20:32Z</time>
      </trkpt>
      <trkpt lat="47.67826" lon="-2.19984">
        <ele>39.3</ele>
        <time>2021-05-27T15:20:33Z</time>
      </trkpt>
      <trkpt lat="47.67826" lon="-2.19987">
        <ele>39.3</ele>
        <time>2021-05-27T15:20:34Z</time>
      </trkpt>
      <trkpt lat="47.67827" lon="-2.19989">
        <ele>39.2</ele>
        <time>2021-05-27T15:20:35Z</time>
      </trkpt>
      <trkpt lat="47.67829" lon="-2.19989">
        <ele>39.1</ele>
        <time>2021-05-27T15:20:36Z</time>
      </trkpt>
      <trkpt lat="47.67832" lon="-2.19989">
        <ele>39</ele>
        <time>2021-05-27T15:20:37Z</time>
      </trkpt>
      <trkpt lat="47.67836" lon="-2.19988">
        <ele>38.6</ele>
        <time>2021-05-27T15:20:38Z</time>
      </trkpt>
      <trkpt lat="47.67839" lon="-2.19987">
        <ele>38.2</ele>
        <time>2021-05-27T15:20:39Z</time>
      </trkpt>
      <trkpt lat="47.67843" lon="-2.19985">
        <ele>37.8</ele>
        <time>2021-05-27T15:20:40Z</time>
      </trkpt>
      <trkpt lat="47.67846" lon="-2.19984">
        <ele>37.4</ele>
        <time>2021-05-27T15:20:41Z</time>
      </trkpt>
      <trkpt lat="47.67849" lon="-2.19985">
        <ele>37.1</ele>
        <time>2021-05-27T15:20:42Z</time>
      </trkpt>
      <trkpt lat="47.67853" lon="-2.19987">
        <ele>36.7</ele>
        <time>2021-05-27T15:20:43Z</time>
      </trkpt>
      <trkpt lat="47.67856" lon="-2.19989">
        <ele>36.4</ele>
        <time>2021-05-27T15:20:44Z</time>
      </trkpt>
      <trkpt lat="47.6786" lon="-2.19992">
        <ele>36</ele>
        <time>2021-05-27T15:20:45Z</time>
      </trkpt>
      <trkpt lat="47.67864" lon="-2.19995">
        <ele>35.6</ele>
        <time>2021-05-27T15:20:46Z</time>
      </trkpt>
      <trkpt lat="47.6787" lon="-2.19997">
        <ele>35</ele>
        <time>2021-05-27T15:20:47Z</time>
      </trkpt>
      <trkpt lat="47.67875" lon="-2.20002">
        <ele>34.4</ele>
        <time>2021-05-27T15:20:48Z</time>
      </trkpt>
      <trkpt lat="47.67879" lon="-2.20007">
        <ele>33.7</ele>
        <time>2021-05-27T15:20:49Z</time>
      </trkpt>
      <trkpt lat="47.67881" lon="-2.20013">
        <ele>33.1</ele>
        <time>2021-05-27T15:20:50Z</time>
      </trkpt>
      <trkpt lat="47.67881" lon="-2.20021">
        <ele>32.7</ele>
        <time>2021-05-27T15:20:51Z</time>
      </trkpt>
      <trkpt lat="47.67883" lon="-2.2003">
        <ele>32.1</ele>
        <time>2021-05-27T15:20:52Z</time>
      </trkpt>
      <trkpt lat="47.67883" lon="-2.20037">
        <ele>31.7</ele>
        <time>2021-05-27T15:20:53Z</time>
      </trkpt>
      <trkpt lat="47.67886" lon="-2.20045">
        <ele>31</ele>
        <time>2021-05-27T15:20:54Z</time>
      </trkpt>
      <trkpt lat="47.67889" lon="-2.20053">
        <ele>30.2</ele>
        <time>2021-05-27T15:20:55Z</time>
      </trkpt>
      <trkpt lat="47.67892" lon="-2.20059">
        <ele>29.6</ele>
        <time>2021-05-27T15:20:56Z</time>
      </trkpt>
      <trkpt lat="47.67894" lon="-2.20065">
        <ele>29.1</ele>
        <time>2021-05-27T15:20:57Z</time>
      </trkpt>
      <trkpt lat="47.67894" lon="-2.2007">
        <ele>28.9</ele>
        <time>2021-05-27T15:20:58Z</time>
      </trkpt>
      <trkpt lat="47.67893" lon="-2.20074">
        <ele>28.7</ele>
        <time>2021-05-27T15:20:59Z</time>
      </trkpt>
      <trkpt lat="47.67892" lon="-2.20078">
        <ele>28.7</ele>
        <time>2021-05-27T15:21:00Z</time>
      </trkpt>
      <trkpt lat="47.67889" lon="-2.20083">
        <ele>28.7</ele>
        <time>2021-05-27T15:21:01Z</time>
      </trkpt>
      <trkpt lat="47.67886" lon="-2.20086">
        <ele>28.7</ele>
        <time>2021-05-27T15:21:02Z</time>
      </trkpt>
      <trkpt lat="47.67883" lon="-2.2009">
        <ele>28.8</ele>
        <time>2021-05-27T15:21:03Z</time>
      </trkpt>
      <trkpt lat="47.67879" lon="-2.20094">
        <ele>28.9</ele>
        <time>2021-05-27T15:21:04Z</time>
      </trkpt>
      <trkpt lat="47.67876" lon="-2.20099">
        <ele>28.8</ele>
        <time>2021-05-27T15:21:05Z</time>
      </trkpt>
      <trkpt lat="47.67875" lon="-2.20106">
        <ele>28.5</ele>
        <time>2021-05-27T15:21:06Z</time>
      </trkpt>
      <trkpt lat="47.67872" lon="-2.20113">
        <ele>28.3</ele>
        <time>2021-05-27T15:21:07Z</time>
      </trkpt>
      <trkpt lat="47.6787" lon="-2.20122">
        <ele>28</ele>
        <time>2021-05-27T15:21:08Z</time>
      </trkpt>
      <trkpt lat="47.67868" lon="-2.2013">
        <ele>27.8</ele>
        <time>2021-05-27T15:21:09Z</time>
      </trkpt>
      <trkpt lat="47.67865" lon="-2.20139">
        <ele>27.6</ele>
        <time>2021-05-27T15:21:10Z</time>
      </trkpt>
      <trkpt lat="47.67862" lon="-2.20149">
        <ele>27.6</ele>
        <time>2021-05-27T15:21:11Z</time>
      </trkpt>
      <trkpt lat="47.67862" lon="-2.20161">
        <ele>26.9</ele>
        <time>2021-05-27T15:21:12Z</time>
      </trkpt>
      <trkpt lat="47.67862" lon="-2.20172">
        <ele>26.2</ele>
        <time>2021-05-27T15:21:13Z</time>
      </trkpt>
      <trkpt lat="47.67861" lon="-2.20182">
        <ele>25.8</ele>
        <time>2021-05-27T15:21:14Z</time>
      </trkpt>
      <trkpt lat="47.6786" lon="-2.2019">
        <ele>25.5</ele>
        <time>2021-05-27T15:21:15Z</time>
      </trkpt>
      <trkpt lat="47.67859" lon="-2.20196">
        <ele>25.2</ele>
        <time>2021-05-27T15:21:16Z</time>
      </trkpt>
      <trkpt lat="47.67858" lon="-2.20201">
        <ele>25.1</ele>
        <time>2021-05-27T15:21:17Z</time>
      </trkpt>
      <trkpt lat="47.67858" lon="-2.20206">
        <ele>24.8</ele>
        <time>2021-05-27T15:21:18Z</time>
      </trkpt>
      <trkpt lat="47.67857" lon="-2.2021">
        <ele>24.7</ele>
        <time>2021-05-27T15:21:19Z</time>
      </trkpt>
      <trkpt lat="47.67855" lon="-2.20216">
        <ele>24.5</ele>
        <time>2021-05-27T15:21:20Z</time>
      </trkpt>
      <trkpt lat="47.67853" lon="-2.2022">
        <ele>24.5</ele>
        <time>2021-05-27T15:21:21Z</time>
      </trkpt>
      <trkpt lat="47.67851" lon="-2.20225">
        <ele>24.4</ele>
        <time>2021-05-27T15:21:22Z</time>
      </trkpt>
      <trkpt lat="47.67847" lon="-2.20229">
        <ele>24.5</ele>
        <time>2021-05-27T15:21:23Z</time>
      </trkpt>
      <trkpt lat="47.67845" lon="-2.20234">
        <ele>24.3</ele>
        <time>2021-05-27T15:21:24Z</time>
      </trkpt>
      <trkpt lat="47.67843" lon="-2.20238">
        <ele>24.2</ele>
        <time>2021-05-27T15:21:25Z</time>
      </trkpt>
      <trkpt lat="47.67842" lon="-2.20241">
        <ele>24.1</ele>
        <time>2021-05-27T15:21:26Z</time>
      </trkpt>
      <trkpt lat="47.67839" lon="-2.20244">
        <ele>24</ele>
        <time>2021-05-27T15:21:27Z</time>
      </trkpt>
      <trkpt lat="47.67838" lon="-2.20248">
        <ele>23.9</ele>
        <time>2021-05-27T15:21:28Z</time>
      </trkpt>
      <trkpt lat="47.67836" lon="-2.2025">
        <ele>23.9</ele>
        <time>2021-05-27T15:21:29Z</time>
      </trkpt>
      <trkpt lat="47.67834" lon="-2.20252">
        <ele>23.7</ele>
        <time>2021-05-27T15:21:30Z</time>
      </trkpt>
      <trkpt lat="47.67832" lon="-2.20255">
        <ele>23.7</ele>
        <time>2021-05-27T15:21:31Z</time>
      </trkpt>
      <trkpt lat="47.67829" lon="-2.20257">
        <ele>23.9</ele>
        <time>2021-05-27T15:21:32Z</time>
      </trkpt>
      <trkpt lat="47.67827" lon="-2.2026">
        <ele>23.9</ele>
        <time>2021-05-27T15:21:33Z</time>
      </trkpt>
      <trkpt lat="47.67824" lon="-2.20262">
        <ele>24.2</ele>
        <time>2021-05-27T15:21:34Z</time>
      </trkpt>
      <trkpt lat="47.67821" lon="-2.20262">
        <ele>24.5</ele>
        <time>2021-05-27T15:21:35Z</time>
      </trkpt>
      <trkpt lat="47.67819" lon="-2.20262">
        <ele>24.8</ele>
        <time>2021-05-27T15:21:36Z</time>
      </trkpt>
      <trkpt lat="47.67817" lon="-2.20262">
        <ele>25.1</ele>
        <time>2021-05-27T15:21:37Z</time>
      </trkpt>
      <trkpt lat="47.67815" lon="-2.20261">
        <ele>25.5</ele>
        <time>2021-05-27T15:21:38Z</time>
      </trkpt>
      <trkpt lat="47.67812" lon="-2.20261">
        <ele>25.9</ele>
        <time>2021-05-27T15:21:39Z</time>
      </trkpt>
      <trkpt lat="47.6781" lon="-2.20262">
        <ele>26.2</ele>
        <time>2021-05-27T15:21:40Z</time>
      </trkpt>
      <trkpt lat="47.67808" lon="-2.20262">
        <ele>26.4</ele>
        <time>2021-05-27T15:21:41Z</time>
      </trkpt>
      <trkpt lat="47.67806" lon="-2.20263">
        <ele>26.6</ele>
        <time>2021-05-27T15:21:42Z</time>
      </trkpt>
      <trkpt lat="47.67804" lon="-2.20264">
        <ele>26.8</ele>
        <time>2021-05-27T15:21:43Z</time>
      </trkpt>
      <trkpt lat="47.67802" lon="-2.20264">
        <ele>27</ele>
        <time>2021-05-27T15:21:44Z</time>
      </trkpt>
      <trkpt lat="47.67799" lon="-2.20264">
        <ele>27.4</ele>
        <time>2021-05-27T15:21:45Z</time>
      </trkpt>
      <trkpt lat="47.67797" lon="-2.20263">
        <ele>27.9</ele>
        <time>2021-05-27T15:21:46Z</time>
      </trkpt>
      <trkpt lat="47.67795" lon="-2.20263">
        <ele>28.1</ele>
        <time>2021-05-27T15:21:47Z</time>
      </trkpt>
      <trkpt lat="47.67792" lon="-2.20263">
        <ele>28.6</ele>
        <time>2021-05-27T15:21:48Z</time>
      </trkpt>
      <trkpt lat="47.6779" lon="-2.20263">
        <ele>28.9</ele>
        <time>2021-05-27T15:21:49Z</time>
      </trkpt>
      <trkpt lat="47.67788" lon="-2.20263">
        <ele>29.1</ele>
        <time>2021-05-27T15:21:50Z</time>
      </trkpt>
      <trkpt lat="47.67786" lon="-2.20264">
        <ele>29.3</ele>
        <time>2021-05-27T15:21:51Z</time>
      </trkpt>
      <trkpt lat="47.67785" lon="-2.20265">
        <ele>29.3</ele>
        <time>2021-05-27T15:21:52Z</time>
      </trkpt>
      <trkpt lat="47.67783" lon="-2.20266">
        <ele>29.4</ele>
        <time>2021-05-27T15:21:53Z</time>
      </trkpt>
      <trkpt lat="47.67781" lon="-2.20269">
        <ele>29.2</ele>
        <time>2021-05-27T15:21:54Z</time>
      </trkpt>
      <trkpt lat="47.67778" lon="-2.20273">
        <ele>29.2</ele>
        <time>2021-05-27T15:21:55Z</time>
      </trkpt>
      <trkpt lat="47.67775" lon="-2.20274">
        <ele>29.3</ele>
        <time>2021-05-27T15:21:56Z</time>
      </trkpt>
      <trkpt lat="47.67773" lon="-2.20275">
        <ele>29.5</ele>
        <time>2021-05-27T15:21:57Z</time>
      </trkpt>
      <trkpt lat="47.6777" lon="-2.20276">
        <ele>29.7</ele>
        <time>2021-05-27T15:21:58Z</time>
      </trkpt>
      <trkpt lat="47.67767" lon="-2.20276">
        <ele>29.9</ele>
        <time>2021-05-27T15:21:59Z</time>
      </trkpt>
      <trkpt lat="47.67764" lon="-2.20277">
        <ele>30.2</ele>
        <time>2021-05-27T15:22:00Z</time>
      </trkpt>
      <trkpt lat="47.67761" lon="-2.20277">
        <ele>30.6</ele>
        <time>2021-05-27T15:22:01Z</time>
      </trkpt>
      <trkpt lat="47.67755" lon="-2.20279">
        <ele>31</ele>
        <time>2021-05-27T15:22:02Z</time>
      </trkpt>
      <trkpt lat="47.67753" lon="-2.2028">
        <ele>31.3</ele>
        <time>2021-05-27T15:22:03Z</time>
      </trkpt>
      <trkpt lat="47.67751" lon="-2.2028">
        <ele>31.5</ele>
        <time>2021-05-27T15:22:04Z</time>
      </trkpt>
      <trkpt lat="47.67749" lon="-2.2028">
        <ele>31.8</ele>
        <time>2021-05-27T15:22:05Z</time>
      </trkpt>
      <trkpt lat="47.67747" lon="-2.20279">
        <ele>32</ele>
        <time>2021-05-27T15:22:06Z</time>
      </trkpt>
      <trkpt lat="47.67746" lon="-2.2028">
        <ele>32</ele>
        <time>2021-05-27T15:22:07Z</time>
      </trkpt>
      <trkpt lat="47.67745" lon="-2.2028">
        <ele>32</ele>
        <time>2021-05-27T15:22:08Z</time>
      </trkpt>
      <trkpt lat="47.67744" lon="-2.20282">
        <ele>31.9</ele>
        <time>2021-05-27T15:22:09Z</time>
      </trkpt>
      <trkpt lat="47.67743" lon="-2.20283">
        <ele>31.8</ele>
        <time>2021-05-27T15:22:10Z</time>
      </trkpt>
      <trkpt lat="47.67743" lon="-2.20284">
        <ele>31.5</ele>
        <time>2021-05-27T15:22:11Z</time>
      </trkpt>
      <trkpt lat="47.67742" lon="-2.20287">
        <ele>31.2</ele>
        <time>2021-05-27T15:22:12Z</time>
      </trkpt>
      <trkpt lat="47.67741" lon="-2.20289">
        <ele>30.8</ele>
        <time>2021-05-27T15:22:13Z</time>
      </trkpt>
      <trkpt lat="47.67741" lon="-2.20293">
        <ele>30.3</ele>
        <time>2021-05-27T15:22:14Z</time>
      </trkpt>
      <trkpt lat="47.67738" lon="-2.20296">
        <ele>30.1</ele>
        <time>2021-05-27T15:22:15Z</time>
      </trkpt>
      <trkpt lat="47.67735" lon="-2.203">
        <ele>29.6</ele>
        <time>2021-05-27T15:22:16Z</time>
      </trkpt>
      <trkpt lat="47.67732" lon="-2.20304">
        <ele>29.3</ele>
        <time>2021-05-27T15:22:17Z</time>
      </trkpt>
      <trkpt lat="47.67729" lon="-2.20307">
        <ele>29.1</ele>
        <time>2021-05-27T15:22:18Z</time>
      </trkpt>
      <trkpt lat="47.67725" lon="-2.20309">
        <ele>29</ele>
        <time>2021-05-27T15:22:19Z</time>
      </trkpt>
      <trkpt lat="47.67722" lon="-2.20311">
        <ele>29</ele>
        <time>2021-05-27T15:22:20Z</time>
      </trkpt>
      <trkpt lat="47.6772" lon="-2.20313">
        <ele>28.9</ele>
        <time>2021-05-27T15:22:21Z</time>
      </trkpt>
      <trkpt lat="47.67718" lon="-2.20316">
        <ele>28.7</ele>
        <time>2021-05-27T15:22:22Z</time>
      </trkpt>
      <trkpt lat="47.67715" lon="-2.20317">
        <ele>28.8</ele>
        <time>2021-05-27T15:22:23Z</time>
      </trkpt>
      <trkpt lat="47.67712" lon="-2.20318">
        <ele>29.1</ele>
        <time>2021-05-27T15:22:24Z</time>
      </trkpt>
      <trkpt lat="47.6771" lon="-2.20318">
        <ele>29.3</ele>
        <time>2021-05-27T15:22:25Z</time>
      </trkpt>
      <trkpt lat="47.67708" lon="-2.20318">
        <ele>29.4</ele>
        <time>2021-05-27T15:22:26Z</time>
      </trkpt>
      <trkpt lat="47.67707" lon="-2.20319">
        <ele>29.6</ele>
        <time>2021-05-27T15:22:27Z</time>
      </trkpt>
      <trkpt lat="47.67705" lon="-2.20318">
        <ele>29.8</ele>
        <time>2021-05-27T15:22:28Z</time>
      </trkpt>
      <trkpt lat="47.67704" lon="-2.20318">
        <ele>30</ele>
        <time>2021-05-27T15:22:29Z</time>
      </trkpt>
      <trkpt lat="47.67703" lon="-2.20317">
        <ele>30.3</ele>
        <time>2021-05-27T15:22:30Z</time>
      </trkpt>
      <trkpt lat="47.67703" lon="-2.20317">
        <ele>30.3</ele>
        <time>2021-05-27T15:22:31Z</time>
      </trkpt>
      <trkpt lat="47.67703" lon="-2.20317">
        <ele>30.3</ele>
        <time>2021-05-27T15:22:32Z</time>
      </trkpt>
      <trkpt lat="47.677" lon="-2.20319">
        <ele>30.3</ele>
        <time>2021-05-27T15:22:33Z</time>
      </trkpt>
      <trkpt lat="47.67699" lon="-2.20321">
        <ele>30</ele>
        <time>2021-05-27T15:22:34Z</time>
      </trkpt>
      <trkpt lat="47.67698" lon="-2.20322">
        <ele>30.1</ele>
        <time>2021-05-27T15:22:35Z</time>
      </trkpt>
      <trkpt lat="47.67696" lon="-2.20321">
        <ele>30.4</ele>
        <time>2021-05-27T15:22:36Z</time>
      </trkpt>
      <trkpt lat="47.67693" lon="-2.20321">
        <ele>30.7</ele>
        <time>2021-05-27T15:22:37Z</time>
      </trkpt>
      <trkpt lat="47.67692" lon="-2.2032">
        <ele>31</ele>
        <time>2021-05-27T15:22:38Z</time>
      </trkpt>
      <trkpt lat="47.67692" lon="-2.2032">
        <ele>31</ele>
        <time>2021-05-27T15:22:39Z</time>
      </trkpt>
      <trkpt lat="47.67691" lon="-2.20321">
        <ele>31.1</ele>
        <time>2021-05-27T15:22:40Z</time>
      </trkpt>
      <trkpt lat="47.67691" lon="-2.20321">
        <ele>31.1</ele>
        <time>2021-05-27T15:22:41Z</time>
      </trkpt>
      <trkpt lat="47.67687" lon="-2.20322">
        <ele>31.2</ele>
        <time>2021-05-27T15:22:42Z</time>
      </trkpt>
      <trkpt lat="47.67685" lon="-2.20323">
        <ele>31.5</ele>
        <time>2021-05-27T15:22:43Z</time>
      </trkpt>
      <trkpt lat="47.67682" lon="-2.20321">
        <ele>32</ele>
        <time>2021-05-27T15:22:44Z</time>
      </trkpt>
      <trkpt lat="47.6768" lon="-2.2032">
        <ele>32.3</ele>
        <time>2021-05-27T15:22:45Z</time>
      </trkpt>
      <trkpt lat="47.67678" lon="-2.20319">
        <ele>32.8</ele>
        <time>2021-05-27T15:22:46Z</time>
      </trkpt>
      <trkpt lat="47.67676" lon="-2.20318">
        <ele>33.1</ele>
        <time>2021-05-27T15:22:47Z</time>
      </trkpt>
      <trkpt lat="47.67675" lon="-2.20317">
        <ele>33.4</ele>
        <time>2021-05-27T15:22:48Z</time>
      </trkpt>
      <trkpt lat="47.67673" lon="-2.20316">
        <ele>33.7</ele>
        <time>2021-05-27T15:22:49Z</time>
      </trkpt>
      <trkpt lat="47.67671" lon="-2.20315">
        <ele>34.2</ele>
        <time>2021-05-27T15:22:50Z</time>
      </trkpt>
      <trkpt lat="47.67669" lon="-2.20313">
        <ele>34.7</ele>
        <time>2021-05-27T15:22:51Z</time>
      </trkpt>
      <trkpt lat="47.67667" lon="-2.20312">
        <ele>35</ele>
        <time>2021-05-27T15:22:52Z</time>
      </trkpt>
      <trkpt lat="47.67665" lon="-2.20311">
        <ele>35.2</ele>
        <time>2021-05-27T15:22:53Z</time>
      </trkpt>
      <trkpt lat="47.67664" lon="-2.20312">
        <ele>35.2</ele>
        <time>2021-05-27T15:22:54Z</time>
      </trkpt>
      <trkpt lat="47.67665" lon="-2.20311">
        <ele>35.3</ele>
        <time>2021-05-27T15:22:55Z</time>
      </trkpt>
      <trkpt lat="47.67665" lon="-2.2031">
        <ele>35.4</ele>
        <time>2021-05-27T15:22:56Z</time>
      </trkpt>
      <trkpt lat="47.67666" lon="-2.20309">
        <ele>35.6</ele>
        <time>2021-05-27T15:22:57Z</time>
      </trkpt>
      <trkpt lat="47.67666" lon="-2.20307">
        <ele>35.8</ele>
        <time>2021-05-27T15:22:58Z</time>
      </trkpt>
      <trkpt lat="47.67667" lon="-2.20306">
        <ele>35.9</ele>
        <time>2021-05-27T15:22:59Z</time>
      </trkpt>
      <trkpt lat="47.67667" lon="-2.20305">
        <ele>36.1</ele>
        <time>2021-05-27T15:23:00Z</time>
      </trkpt>
      <trkpt lat="47.67667" lon="-2.20304">
        <ele>36.2</ele>
        <time>2021-05-27T15:23:01Z</time>
      </trkpt>
      <trkpt lat="47.67666" lon="-2.20303">
        <ele>36.3</ele>
        <time>2021-05-27T15:23:02Z</time>
      </trkpt>
      <trkpt lat="47.67657" lon="-2.20302">
        <ele>36.8</ele>
        <time>2021-05-27T15:23:31Z</time>
      </trkpt>
      <trkpt lat="47.67657" lon="-2.20301">
        <ele>36.9</ele>
        <time>2021-05-27T15:23:32Z</time>
      </trkpt>
      <trkpt lat="47.67656" lon="-2.20301">
        <ele>37</ele>
        <time>2021-05-27T15:23:33Z</time>
      </trkpt>
      <trkpt lat="47.6765" lon="-2.20302">
        <ele>37</ele>
        <time>2021-05-27T15:29:46Z</time>
      </trkpt>
      <trkpt lat="47.6765" lon="-2.20302">
        <ele>37</ele>
        <time>2021-05-27T15:29:47Z</time>
      </trkpt>
      <trkpt lat="47.6765" lon="-2.20302">
        <ele>37</ele>
        <time>2021-05-27T15:29:48Z</time>
      </trkpt>
      <trkpt lat="47.6765" lon="-2.20302">
        <ele>37</ele>
        <time>2021-05-27T15:29:49Z</time>
      </trkpt>
      <trkpt lat="47.6765" lon="-2.20302">
        <ele>37</ele>
        <time>2021-05-27T15:29:50Z</time>
      </trkpt>
      <trkpt lat="47.6765" lon="-2.20302">
        <ele>37</ele>
        <time>2021-05-27T15:29:51Z</time>
      </trkpt>
      <trkpt lat="47.6765" lon="-2.20302">
        <ele>37</ele>
        <time>2021-05-27T15:29:52Z</time>
      </trkpt>
      <trkpt lat="47.6765" lon="-2.20302">
        <ele>37</ele>
        <time>2021-05-27T15:29:53Z</time>
      </trkpt>
      <trkpt lat="47.6765" lon="-2.20302">
        <ele>37</ele>
        <time>2021-05-27T15:29:54Z</time>
      </trkpt>
      <trkpt lat="47.6765" lon="-2.20302">
        <ele>37</ele>
        <time>2021-05-27T15:29:55Z</time>
      </trkpt>
      <trkpt lat="47.67657" lon="-2.20305">
        <ele>36.5</ele>
        <time>2021-05-27T15:29:56Z</time>
      </trkpt>
      <trkpt lat="47.67656" lon="-2.20306">
        <ele>36.2</ele>
        <time>2021-05-27T15:29:57Z</time>
      </trkpt>
      <trkpt lat="47.67655" lon="-2.2031">
        <ele>35.7</ele>
        <time>2021-05-27T15:29:59Z</time>
      </trkpt>
      <trkpt lat="47.67655" lon="-2.20312">
        <ele>35.6</ele>
        <time>2021-05-27T15:30:00Z</time>
      </trkpt>
      <trkpt lat="47.67653" lon="-2.20315">
        <ele>35.2</ele>
        <time>2021-05-27T15:30:01Z</time>
      </trkpt>
      <trkpt lat="47.67651" lon="-2.20319">
        <ele>34.7</ele>
        <time>2021-05-27T15:30:02Z</time>
      </trkpt>
      <trkpt lat="47.67648" lon="-2.20324">
        <ele>34.1</ele>
        <time>2021-05-27T15:30:03Z</time>
      </trkpt>
      <trkpt lat="47.67644" lon="-2.20331">
        <ele>33.4</ele>
        <time>2021-05-27T15:30:04Z</time>
      </trkpt>
      <trkpt lat="47.67641" lon="-2.20336">
        <ele>32.8</ele>
        <time>2021-05-27T15:30:05Z</time>
      </trkpt>
      <trkpt lat="47.67638" lon="-2.20343">
        <ele>32.1</ele>
        <time>2021-05-27T15:30:06Z</time>
      </trkpt>
      <trkpt lat="47.67633" lon="-2.20351">
        <ele>31.3</ele>
        <time>2021-05-27T15:30:07Z</time>
      </trkpt>
      <trkpt lat="47.67629" lon="-2.2036">
        <ele>30.2</ele>
        <time>2021-05-27T15:30:08Z</time>
      </trkpt>
      <trkpt lat="47.67624" lon="-2.20369">
        <ele>29</ele>
        <time>2021-05-27T15:30:09Z</time>
      </trkpt>
      <trkpt lat="47.67619" lon="-2.20379">
        <ele>27.9</ele>
        <time>2021-05-27T15:30:10Z</time>
      </trkpt>
      <trkpt lat="47.67614" lon="-2.20389">
        <ele>26.7</ele>
        <time>2021-05-27T15:30:11Z</time>
      </trkpt>
      <trkpt lat="47.67609" lon="-2.204">
        <ele>25.5</ele>
        <time>2021-05-27T15:30:12Z</time>
      </trkpt>
      <trkpt lat="47.67602" lon="-2.20409">
        <ele>24.4</ele>
        <time>2021-05-27T15:30:13Z</time>
      </trkpt>
      <trkpt lat="47.67595" lon="-2.20419">
        <ele>23.4</ele>
        <time>2021-05-27T15:30:14Z</time>
      </trkpt>
      <trkpt lat="47.67589" lon="-2.20431">
        <ele>22.9</ele>
        <time>2021-05-27T15:30:15Z</time>
      </trkpt>
      <trkpt lat="47.67583" lon="-2.20441">
        <ele>22.6</ele>
        <time>2021-05-27T15:30:16Z</time>
      </trkpt>
      <trkpt lat="47.67577" lon="-2.2045">
        <ele>22.3</ele>
        <time>2021-05-27T15:30:17Z</time>
      </trkpt>
      <trkpt lat="47.67574" lon="-2.20456">
        <ele>22.1</ele>
        <time>2021-05-27T15:30:18Z</time>
      </trkpt>
      <trkpt lat="47.6757" lon="-2.20462">
        <ele>21.9</ele>
        <time>2021-05-27T15:30:19Z</time>
      </trkpt>
      <trkpt lat="47.67568" lon="-2.20467">
        <ele>21.7</ele>
        <time>2021-05-27T15:30:20Z</time>
      </trkpt>
      <trkpt lat="47.67567" lon="-2.20473">
        <ele>21.4</ele>
        <time>2021-05-27T15:30:21Z</time>
      </trkpt>
      <trkpt lat="47.67568" lon="-2.20478">
        <ele>21</ele>
        <time>2021-05-27T15:30:22Z</time>
      </trkpt>
      <trkpt lat="47.6757" lon="-2.20483">
        <ele>20.6</ele>
        <time>2021-05-27T15:30:23Z</time>
      </trkpt>
      <trkpt lat="47.67576" lon="-2.20486">
        <ele>20.2</ele>
        <time>2021-05-27T15:30:24Z</time>
      </trkpt>
      <trkpt lat="47.67581" lon="-2.20488">
        <ele>19.9</ele>
        <time>2021-05-27T15:30:25Z</time>
      </trkpt>
      <trkpt lat="47.67586" lon="-2.2049">
        <ele>19.4</ele>
        <time>2021-05-27T15:30:26Z</time>
      </trkpt>
      <trkpt lat="47.67593" lon="-2.20493">
        <ele>18.8</ele>
        <time>2021-05-27T15:30:27Z</time>
      </trkpt>
      <trkpt lat="47.676" lon="-2.20497">
        <ele>18</ele>
        <time>2021-05-27T15:30:28Z</time>
      </trkpt>
      <trkpt lat="47.67607" lon="-2.20501">
        <ele>17.3</ele>
        <time>2021-05-27T15:30:29Z</time>
      </trkpt>
      <trkpt lat="47.67613" lon="-2.20506">
        <ele>17</ele>
        <time>2021-05-27T15:30:30Z</time>
      </trkpt>
      <trkpt lat="47.6762" lon="-2.20511">
        <ele>16.8</ele>
        <time>2021-05-27T15:30:31Z</time>
      </trkpt>
      <trkpt lat="47.67625" lon="-2.20516">
        <ele>16.6</ele>
        <time>2021-05-27T15:30:32Z</time>
      </trkpt>
      <trkpt lat="47.6763" lon="-2.20522">
        <ele>16.4</ele>
        <time>2021-05-27T15:30:33Z</time>
      </trkpt>
      <trkpt lat="47.67635" lon="-2.20528">
        <ele>16.3</ele>
        <time>2021-05-27T15:30:34Z</time>
      </trkpt>
      <trkpt lat="47.6764" lon="-2.20534">
        <ele>16.2</ele>
        <time>2021-05-27T15:30:35Z</time>
      </trkpt>
      <trkpt lat="47.67644" lon="-2.20539">
        <ele>16</ele>
        <time>2021-05-27T15:30:36Z</time>
      </trkpt>
      <trkpt lat="47.67648" lon="-2.20544">
        <ele>15.9</ele>
        <time>2021-05-27T15:30:37Z</time>
      </trkpt>
      <trkpt lat="47.67651" lon="-2.20549">
        <ele>15.9</ele>
        <time>2021-05-27T15:30:38Z</time>
      </trkpt>
      <trkpt lat="47.67653" lon="-2.20556">
        <ele>16</ele>
        <time>2021-05-27T15:30:39Z</time>
      </trkpt>
      <trkpt lat="47.67657" lon="-2.20557">
        <ele>15.7</ele>
        <time>2021-05-27T15:35:32Z</time>
      </trkpt>
      <trkpt lat="47.67659" lon="-2.20558">
        <ele>15.6</ele>
        <time>2021-05-27T15:35:33Z</time>
      </trkpt>
      <trkpt lat="47.67661" lon="-2.20559">
        <ele>15.6</ele>
        <time>2021-05-27T15:35:34Z</time>
      </trkpt>
      <trkpt lat="47.67662" lon="-2.20561">
        <ele>15.5</ele>
        <time>2021-05-27T15:35:35Z</time>
      </trkpt>
      <trkpt lat="47.67664" lon="-2.20563">
        <ele>15.5</ele>
        <time>2021-05-27T15:35:36Z</time>
      </trkpt>
      <trkpt lat="47.67665" lon="-2.20565">
        <ele>15.4</ele>
        <time>2021-05-27T15:35:37Z</time>
      </trkpt>
      <trkpt lat="47.67667" lon="-2.20567">
        <ele>15.4</ele>
        <time>2021-05-27T15:35:38Z</time>
      </trkpt>
      <trkpt lat="47.67669" lon="-2.20569">
        <ele>15.5</ele>
        <time>2021-05-27T15:35:39Z</time>
      </trkpt>
      <trkpt lat="47.67672" lon="-2.20572">
        <ele>15.5</ele>
        <time>2021-05-27T15:35:40Z</time>
      </trkpt>
      <trkpt lat="47.67675" lon="-2.20574">
        <ele>15.6</ele>
        <time>2021-05-27T15:35:41Z</time>
      </trkpt>
      <trkpt lat="47.67679" lon="-2.20576">
        <ele>15.6</ele>
        <time>2021-05-27T15:35:42Z</time>
      </trkpt>
      <trkpt lat="47.67682" lon="-2.20579">
        <ele>15.7</ele>
        <time>2021-05-27T15:35:43Z</time>
      </trkpt>
      <trkpt lat="47.67684" lon="-2.20583">
        <ele>15.8</ele>
        <time>2021-05-27T15:35:44Z</time>
      </trkpt>
      <trkpt lat="47.67686" lon="-2.20586">
        <ele>15.9</ele>
        <time>2021-05-27T15:35:45Z</time>
      </trkpt>
      <trkpt lat="47.67688" lon="-2.20589">
        <ele>15.9</ele>
        <time>2021-05-27T15:35:46Z</time>
      </trkpt>
      <trkpt lat="47.67691" lon="-2.20591">
        <ele>16</ele>
        <time>2021-05-27T15:35:47Z</time>
      </trkpt>
      <trkpt lat="47.67694" lon="-2.20594">
        <ele>16</ele>
        <time>2021-05-27T15:35:48Z</time>
      </trkpt>
      <trkpt lat="47.67696" lon="-2.20597">
        <ele>16.1</ele>
        <time>2021-05-27T15:35:49Z</time>
      </trkpt>
      <trkpt lat="47.67699" lon="-2.20599">
        <ele>16.1</ele>
        <time>2021-05-27T15:35:50Z</time>
      </trkpt>
      <trkpt lat="47.67702" lon="-2.20602">
        <ele>16.2</ele>
        <time>2021-05-27T15:35:51Z</time>
      </trkpt>
      <trkpt lat="47.67705" lon="-2.20605">
        <ele>16.2</ele>
        <time>2021-05-27T15:35:52Z</time>
      </trkpt>
      <trkpt lat="47.67708" lon="-2.20608">
        <ele>16.3</ele>
        <time>2021-05-27T15:35:53Z</time>
      </trkpt>
      <trkpt lat="47.67711" lon="-2.20612">
        <ele>16.3</ele>
        <time>2021-05-27T15:35:54Z</time>
      </trkpt>
      <trkpt lat="47.67715" lon="-2.20615">
        <ele>16.3</ele>
        <time>2021-05-27T15:35:55Z</time>
      </trkpt>
      <trkpt lat="47.67719" lon="-2.20618">
        <ele>16.3</ele>
        <time>2021-05-27T15:35:56Z</time>
      </trkpt>
      <trkpt lat="47.67723" lon="-2.2062">
        <ele>16.3</ele>
        <time>2021-05-27T15:35:57Z</time>
      </trkpt>
      <trkpt lat="47.67726" lon="-2.20621">
        <ele>16.3</ele>
        <time>2021-05-27T15:35:58Z</time>
      </trkpt>
      <trkpt lat="47.6773" lon="-2.20623">
        <ele>16.3</ele>
        <time>2021-05-27T15:35:59Z</time>
      </trkpt>
      <trkpt lat="47.67733" lon="-2.20624">
        <ele>16.3</ele>
        <time>2021-05-27T15:36:00Z</time>
      </trkpt>
      <trkpt lat="47.67737" lon="-2.20625">
        <ele>16.2</ele>
        <time>2021-05-27T15:36:01Z</time>
      </trkpt>
      <trkpt lat="47.67741" lon="-2.20625">
        <ele>16.2</ele>
        <time>2021-05-27T15:36:02Z</time>
      </trkpt>
      <trkpt lat="47.67744" lon="-2.20627">
        <ele>16.1</ele>
        <time>2021-05-27T15:36:03Z</time>
      </trkpt>
      <trkpt lat="47.67747" lon="-2.20628">
        <ele>16.1</ele>
        <time>2021-05-27T15:36:04Z</time>
      </trkpt>
      <trkpt lat="47.67751" lon="-2.20629">
        <ele>16.1</ele>
        <time>2021-05-27T15:36:05Z</time>
      </trkpt>
      <trkpt lat="47.67754" lon="-2.2063">
        <ele>16.1</ele>
        <time>2021-05-27T15:36:06Z</time>
      </trkpt>
      <trkpt lat="47.67758" lon="-2.20631">
        <ele>16.1</ele>
        <time>2021-05-27T15:36:07Z</time>
      </trkpt>
      <trkpt lat="47.67761" lon="-2.20631">
        <ele>16.1</ele>
        <time>2021-05-27T15:36:08Z</time>
      </trkpt>
      <trkpt lat="47.67765" lon="-2.20632">
        <ele>16.1</ele>
        <time>2021-05-27T15:36:09Z</time>
      </trkpt>
      <trkpt lat="47.67769" lon="-2.20633">
        <ele>16.1</ele>
        <time>2021-05-27T15:36:10Z</time>
      </trkpt>
      <trkpt lat="47.67773" lon="-2.20633">
        <ele>16.1</ele>
        <time>2021-05-27T15:36:11Z</time>
      </trkpt>
      <trkpt lat="47.67777" lon="-2.20634">
        <ele>16.1</ele>
        <time>2021-05-27T15:36:12Z</time>
      </trkpt>
      <trkpt lat="47.6778" lon="-2.20634">
        <ele>16.1</ele>
        <time>2021-05-27T15:36:13Z</time>
      </trkpt>
      <trkpt lat="47.67783" lon="-2.20634">
        <ele>16.1</ele>
        <time>2021-05-27T15:36:14Z</time>
      </trkpt>
      <trkpt lat="47.67787" lon="-2.20634">
        <ele>16.1</ele>
        <time>2021-05-27T15:36:15Z</time>
      </trkpt>
      <trkpt lat="47.67791" lon="-2.20635">
        <ele>16.1</ele>
        <time>2021-05-27T15:36:16Z</time>
      </trkpt>
      <trkpt lat="47.67796" lon="-2.20636">
        <ele>16.1</ele>
        <time>2021-05-27T15:36:17Z</time>
      </trkpt>
      <trkpt lat="47.678" lon="-2.20638">
        <ele>16.1</ele>
        <time>2021-05-27T15:36:18Z</time>
      </trkpt>
      <trkpt lat="47.67804" lon="-2.20639">
        <ele>16.1</ele>
        <time>2021-05-27T15:36:19Z</time>
      </trkpt>
      <trkpt lat="47.6781" lon="-2.20641">
        <ele>16.1</ele>
        <time>2021-05-27T15:36:20Z</time>
      </trkpt>
      <trkpt lat="47.67814" lon="-2.20641">
        <ele>16.2</ele>
        <time>2021-05-27T15:36:21Z</time>
      </trkpt>
      <trkpt lat="47.67819" lon="-2.20642">
        <ele>16.2</ele>
        <time>2021-05-27T15:36:22Z</time>
      </trkpt>
      <trkpt lat="47.67823" lon="-2.20643">
        <ele>16.2</ele>
        <time>2021-05-27T15:36:23Z</time>
      </trkpt>
      <trkpt lat="47.67828" lon="-2.20644">
        <ele>16.2</ele>
        <time>2021-05-27T15:36:24Z</time>
      </trkpt>
      <trkpt lat="47.67833" lon="-2.20646">
        <ele>16.2</ele>
        <time>2021-05-27T15:36:25Z</time>
      </trkpt>
      <trkpt lat="47.67838" lon="-2.20646">
        <ele>16.1</ele>
        <time>2021-05-27T15:36:26Z</time>
      </trkpt>
      <trkpt lat="47.67843" lon="-2.20647">
        <ele>16</ele>
        <time>2021-05-27T15:36:27Z</time>
      </trkpt>
      <trkpt lat="47.67849" lon="-2.20649">
        <ele>15.9</ele>
        <time>2021-05-27T15:36:28Z</time>
      </trkpt>
      <trkpt lat="47.67854" lon="-2.2065">
        <ele>15.8</ele>
        <time>2021-05-27T15:36:29Z</time>
      </trkpt>
      <trkpt lat="47.67859" lon="-2.20651">
        <ele>15.7</ele>
        <time>2021-05-27T15:36:30Z</time>
      </trkpt>
      <trkpt lat="47.67864" lon="-2.20653">
        <ele>15.6</ele>
        <time>2021-05-27T15:36:31Z</time>
      </trkpt>
      <trkpt lat="47.67869" lon="-2.20653">
        <ele>15.4</ele>
        <time>2021-05-27T15:36:32Z</time>
      </trkpt>
      <trkpt lat="47.67875" lon="-2.20654">
        <ele>15.3</ele>
        <time>2021-05-27T15:36:33Z</time>
      </trkpt>
      <trkpt lat="47.6788" lon="-2.20654">
        <ele>15.1</ele>
        <time>2021-05-27T15:36:34Z</time>
      </trkpt>
      <trkpt lat="47.67886" lon="-2.20654">
        <ele>14.9</ele>
        <time>2021-05-27T15:36:35Z</time>
      </trkpt>
      <trkpt lat="47.67892" lon="-2.20654">
        <ele>14.7</ele>
        <time>2021-05-27T15:36:36Z</time>
      </trkpt>
      <trkpt lat="47.67899" lon="-2.20653">
        <ele>14.5</ele>
        <time>2021-05-27T15:36:37Z</time>
      </trkpt>
      <trkpt lat="47.67906" lon="-2.20653">
        <ele>14.3</ele>
        <time>2021-05-27T15:36:38Z</time>
      </trkpt>
      <trkpt lat="47.67913" lon="-2.20653">
        <ele>14.1</ele>
        <time>2021-05-27T15:36:39Z</time>
      </trkpt>
      <trkpt lat="47.6792" lon="-2.20654">
        <ele>14.2</ele>
        <time>2021-05-27T15:36:40Z</time>
      </trkpt>
      <trkpt lat="47.67927" lon="-2.20654">
        <ele>14.8</ele>
        <time>2021-05-27T15:36:41Z</time>
      </trkpt>
      <trkpt lat="47.67933" lon="-2.20655">
        <ele>15.3</ele>
        <time>2021-05-27T15:36:42Z</time>
      </trkpt>
      <trkpt lat="47.67939" lon="-2.20655">
        <ele>15.8</ele>
        <time>2021-05-27T15:36:43Z</time>
      </trkpt>
      <trkpt lat="47.67945" lon="-2.20656">
        <ele>16.3</ele>
        <time>2021-05-27T15:36:44Z</time>
      </trkpt>
      <trkpt lat="47.6795" lon="-2.20656">
        <ele>16.7</ele>
        <time>2021-05-27T15:36:45Z</time>
      </trkpt>
      <trkpt lat="47.67955" lon="-2.20656">
        <ele>17</ele>
        <time>2021-05-27T15:36:46Z</time>
      </trkpt>
      <trkpt lat="47.67959" lon="-2.20657">
        <ele>17.3</ele>
        <time>2021-05-27T15:36:47Z</time>
      </trkpt>
      <trkpt lat="47.67963" lon="-2.20657">
        <ele>17.6</ele>
        <time>2021-05-27T15:36:48Z</time>
      </trkpt>
      <trkpt lat="47.67966" lon="-2.20657">
        <ele>17.9</ele>
        <time>2021-05-27T15:36:49Z</time>
      </trkpt>
      <trkpt lat="47.6797" lon="-2.20657">
        <ele>18.2</ele>
        <time>2021-05-27T15:36:50Z</time>
      </trkpt>
      <trkpt lat="47.67974" lon="-2.20657">
        <ele>18.6</ele>
        <time>2021-05-27T15:36:51Z</time>
      </trkpt>
      <trkpt lat="47.67978" lon="-2.20657">
        <ele>18.9</ele>
        <time>2021-05-27T15:36:52Z</time>
      </trkpt>
      <trkpt lat="47.67983" lon="-2.20657">
        <ele>19.2</ele>
        <time>2021-05-27T15:36:53Z</time>
      </trkpt>
      <trkpt lat="47.67987" lon="-2.20657">
        <ele>19.6</ele>
        <time>2021-05-27T15:36:54Z</time>
      </trkpt>
      <trkpt lat="47.67991" lon="-2.20656">
        <ele>19.9</ele>
        <time>2021-05-27T15:36:55Z</time>
      </trkpt>
      <trkpt lat="47.67995" lon="-2.20656">
        <ele>20.2</ele>
        <time>2021-05-27T15:36:56Z</time>
      </trkpt>
      <trkpt lat="47.67999" lon="-2.20656">
        <ele>20.6</ele>
        <time>2021-05-27T15:36:57Z</time>
      </trkpt>
      <trkpt lat="47.68003" lon="-2.20656">
        <ele>20.8</ele>
        <time>2021-05-27T15:36:58Z</time>
      </trkpt>
      <trkpt lat="47.68007" lon="-2.20656">
        <ele>21</ele>
        <time>2021-05-27T15:36:59Z</time>
      </trkpt>
      <trkpt lat="47.6801" lon="-2.20656">
        <ele>21.2</ele>
        <time>2021-05-27T15:37:00Z</time>
      </trkpt>
      <trkpt lat="47.68014" lon="-2.20656">
        <ele>21.5</ele>
        <time>2021-05-27T15:37:01Z</time>
      </trkpt>
      <trkpt lat="47.68017" lon="-2.20656">
        <ele>21.7</ele>
        <time>2021-05-27T15:37:02Z</time>
      </trkpt>
      <trkpt lat="47.68021" lon="-2.20657">
        <ele>21.9</ele>
        <time>2021-05-27T15:37:03Z</time>
      </trkpt>
      <trkpt lat="47.68024" lon="-2.20658">
        <ele>22</ele>
        <time>2021-05-27T15:37:04Z</time>
      </trkpt>
      <trkpt lat="47.68028" lon="-2.20658">
        <ele>22.2</ele>
        <time>2021-05-27T15:37:05Z</time>
      </trkpt>
      <trkpt lat="47.68033" lon="-2.20657">
        <ele>22.6</ele>
        <time>2021-05-27T15:37:06Z</time>
      </trkpt>
      <trkpt lat="47.68037" lon="-2.20657">
        <ele>22.9</ele>
        <time>2021-05-27T15:37:07Z</time>
      </trkpt>
      <trkpt lat="47.68041" lon="-2.20657">
        <ele>23.1</ele>
        <time>2021-05-27T15:37:08Z</time>
      </trkpt>
      <trkpt lat="47.68046" lon="-2.20657">
        <ele>23.4</ele>
        <time>2021-05-27T15:37:09Z</time>
      </trkpt>
      <trkpt lat="47.6805" lon="-2.20657">
        <ele>23.6</ele>
        <time>2021-05-27T15:37:10Z</time>
      </trkpt>
      <trkpt lat="47.68054" lon="-2.20658">
        <ele>23.8</ele>
        <time>2021-05-27T15:37:11Z</time>
      </trkpt>
      <trkpt lat="47.68059" lon="-2.20658">
        <ele>24.1</ele>
        <time>2021-05-27T15:37:12Z</time>
      </trkpt>
      <trkpt lat="47.68063" lon="-2.20659">
        <ele>24.4</ele>
        <time>2021-05-27T15:37:13Z</time>
      </trkpt>
      <trkpt lat="47.68068" lon="-2.2066">
        <ele>24.5</ele>
        <time>2021-05-27T15:37:14Z</time>
      </trkpt>
      <trkpt lat="47.68072" lon="-2.20662">
        <ele>24.7</ele>
        <time>2021-05-27T15:37:15Z</time>
      </trkpt>
      <trkpt lat="47.68076" lon="-2.20664">
        <ele>24.7</ele>
        <time>2021-05-27T15:37:16Z</time>
      </trkpt>
      <trkpt lat="47.6808" lon="-2.20667">
        <ele>24.8</ele>
        <time>2021-05-27T15:37:17Z</time>
      </trkpt>
      <trkpt lat="47.68083" lon="-2.2067">
        <ele>25.1</ele>
        <time>2021-05-27T15:37:18Z</time>
      </trkpt>
      <trkpt lat="47.68087" lon="-2.20673">
        <ele>25.4</ele>
        <time>2021-05-27T15:37:19Z</time>
      </trkpt>
      <trkpt lat="47.68091" lon="-2.20675">
        <ele>25.7</ele>
        <time>2021-05-27T15:37:20Z</time>
      </trkpt>
      <trkpt lat="47.68095" lon="-2.20678">
        <ele>26</ele>
        <time>2021-05-27T15:37:21Z</time>
      </trkpt>
      <trkpt lat="47.68099" lon="-2.2068">
        <ele>26.3</ele>
        <time>2021-05-27T15:37:22Z</time>
      </trkpt>
      <trkpt lat="47.68103" lon="-2.20683">
        <ele>26.6</ele>
        <time>2021-05-27T15:37:23Z</time>
      </trkpt>
      <trkpt lat="47.68108" lon="-2.20685">
        <ele>26.9</ele>
        <time>2021-05-27T15:37:24Z</time>
      </trkpt>
      <trkpt lat="47.68111" lon="-2.20687">
        <ele>27.1</ele>
        <time>2021-05-27T15:37:25Z</time>
      </trkpt>
      <trkpt lat="47.68115" lon="-2.20689">
        <ele>27.3</ele>
        <time>2021-05-27T15:37:26Z</time>
      </trkpt>
      <trkpt lat="47.68117" lon="-2.2069">
        <ele>27.4</ele>
        <time>2021-05-27T15:37:27Z</time>
      </trkpt>
      <trkpt lat="47.68121" lon="-2.20691">
        <ele>27.6</ele>
        <time>2021-05-27T15:37:28Z</time>
      </trkpt>
      <trkpt lat="47.68124" lon="-2.20692">
        <ele>27.8</ele>
        <time>2021-05-27T15:37:29Z</time>
      </trkpt>
      <trkpt lat="47.68128" lon="-2.20693">
        <ele>27.9</ele>
        <time>2021-05-27T15:37:30Z</time>
      </trkpt>
      <trkpt lat="47.68132" lon="-2.20694">
        <ele>28.1</ele>
        <time>2021-05-27T15:37:31Z</time>
      </trkpt>
      <trkpt lat="47.68136" lon="-2.20694">
        <ele>28.3</ele>
        <time>2021-05-27T15:37:32Z</time>
      </trkpt>
      <trkpt lat="47.6814" lon="-2.20697">
        <ele>28.5</ele>
        <time>2021-05-27T15:37:33Z</time>
      </trkpt>
      <trkpt lat="47.68145" lon="-2.207">
        <ele>28.7</ele>
        <time>2021-05-27T15:37:34Z</time>
      </trkpt>
      <trkpt lat="47.68149" lon="-2.20703">
        <ele>28.9</ele>
        <time>2021-05-27T15:37:35Z</time>
      </trkpt>
      <trkpt lat="47.68153" lon="-2.207">
        <ele>29</ele>
        <time>2021-05-27T15:37:36Z</time>
      </trkpt>
      <trkpt lat="47.68158" lon="-2.207">
        <ele>29.3</ele>
        <time>2021-05-27T15:37:37Z</time>
      </trkpt>
      <trkpt lat="47.68161" lon="-2.20703">
        <ele>29.3</ele>
        <time>2021-05-27T15:37:38Z</time>
      </trkpt>
      <trkpt lat="47.68161" lon="-2.20707">
        <ele>29.3</ele>
        <time>2021-05-27T15:37:39Z</time>
      </trkpt>
      <trkpt lat="47.68162" lon="-2.20712">
        <ele>29.3</ele>
        <time>2021-05-27T15:37:40Z</time>
      </trkpt>
      <trkpt lat="47.68162" lon="-2.20717">
        <ele>29.3</ele>
        <time>2021-05-27T15:37:41Z</time>
      </trkpt>
      <trkpt lat="47.68162" lon="-2.20722">
        <ele>29.2</ele>
        <time>2021-05-27T15:37:42Z</time>
      </trkpt>
      <trkpt lat="47.68162" lon="-2.20727">
        <ele>29.2</ele>
        <time>2021-05-27T15:37:43Z</time>
      </trkpt>
      <trkpt lat="47.68162" lon="-2.20733">
        <ele>29.1</ele>
        <time>2021-05-27T15:37:44Z</time>
      </trkpt>
      <trkpt lat="47.68162" lon="-2.20739">
        <ele>29.1</ele>
        <time>2021-05-27T15:37:45Z</time>
      </trkpt>
      <trkpt lat="47.68162" lon="-2.20745">
        <ele>29</ele>
        <time>2021-05-27T15:37:46Z</time>
      </trkpt>
      <trkpt lat="47.68162" lon="-2.2075">
        <ele>28.9</ele>
        <time>2021-05-27T15:37:47Z</time>
      </trkpt>
      <trkpt lat="47.68162" lon="-2.20756">
        <ele>29.1</ele>
        <time>2021-05-27T15:37:48Z</time>
      </trkpt>
      <trkpt lat="47.68162" lon="-2.20762">
        <ele>29.3</ele>
        <time>2021-05-27T15:37:49Z</time>
      </trkpt>
      <trkpt lat="47.68162" lon="-2.20768">
        <ele>29.6</ele>
        <time>2021-05-27T15:37:50Z</time>
      </trkpt>
      <trkpt lat="47.68162" lon="-2.20774">
        <ele>29.8</ele>
        <time>2021-05-27T15:37:51Z</time>
      </trkpt>
      <trkpt lat="47.68163" lon="-2.20779">
        <ele>30</ele>
        <time>2021-05-27T15:37:52Z</time>
      </trkpt>
      <trkpt lat="47.68163" lon="-2.20785">
        <ele>30.2</ele>
        <time>2021-05-27T15:37:53Z</time>
      </trkpt>
      <trkpt lat="47.68164" lon="-2.20791">
        <ele>30.4</ele>
        <time>2021-05-27T15:37:54Z</time>
      </trkpt>
      <trkpt lat="47.68164" lon="-2.20798">
        <ele>30.7</ele>
        <time>2021-05-27T15:37:55Z</time>
      </trkpt>
      <trkpt lat="47.68164" lon="-2.20804">
        <ele>30.9</ele>
        <time>2021-05-27T15:37:56Z</time>
      </trkpt>
      <trkpt lat="47.68164" lon="-2.20809">
        <ele>31.1</ele>
        <time>2021-05-27T15:37:57Z</time>
      </trkpt>
      <trkpt lat="47.68164" lon="-2.20815">
        <ele>31.3</ele>
        <time>2021-05-27T15:37:58Z</time>
      </trkpt>
      <trkpt lat="47.68164" lon="-2.20821">
        <ele>31.5</ele>
        <time>2021-05-27T15:37:59Z</time>
      </trkpt>
      <trkpt lat="47.68164" lon="-2.20827">
        <ele>31.7</ele>
        <time>2021-05-27T15:38:00Z</time>
      </trkpt>
      <trkpt lat="47.68165" lon="-2.20833">
        <ele>31.9</ele>
        <time>2021-05-27T15:38:01Z</time>
      </trkpt>
      <trkpt lat="47.68165" lon="-2.20839">
        <ele>32.2</ele>
        <time>2021-05-27T15:38:02Z</time>
      </trkpt>
      <trkpt lat="47.68165" lon="-2.20845">
        <ele>32.4</ele>
        <time>2021-05-27T15:38:03Z</time>
      </trkpt>
      <trkpt lat="47.68165" lon="-2.20852">
        <ele>32.6</ele>
        <time>2021-05-27T15:38:04Z</time>
      </trkpt>
      <trkpt lat="47.68165" lon="-2.20858">
        <ele>32.8</ele>
        <time>2021-05-27T15:38:05Z</time>
      </trkpt>
      <trkpt lat="47.68166" lon="-2.20864">
        <ele>33.1</ele>
        <time>2021-05-27T15:38:06Z</time>
      </trkpt>
      <trkpt lat="47.68166" lon="-2.2087">
        <ele>33.3</ele>
        <time>2021-05-27T15:38:07Z</time>
      </trkpt>
      <trkpt lat="47.68166" lon="-2.20877">
        <ele>33.5</ele>
        <time>2021-05-27T15:38:08Z</time>
      </trkpt>
      <trkpt lat="47.68167" lon="-2.20882">
        <ele>33.8</ele>
        <time>2021-05-27T15:38:09Z</time>
      </trkpt>
      <trkpt lat="47.68168" lon="-2.20889">
        <ele>34</ele>
        <time>2021-05-27T15:38:10Z</time>
      </trkpt>
      <trkpt lat="47.68168" lon="-2.20894">
        <ele>34.3</ele>
        <time>2021-05-27T15:38:11Z</time>
      </trkpt>
      <trkpt lat="47.68169" lon="-2.209">
        <ele>34.5</ele>
        <time>2021-05-27T15:38:12Z</time>
      </trkpt>
      <trkpt lat="47.68169" lon="-2.20906">
        <ele>34.7</ele>
        <time>2021-05-27T15:38:13Z</time>
      </trkpt>
      <trkpt lat="47.6817" lon="-2.20911">
        <ele>34.9</ele>
        <time>2021-05-27T15:38:14Z</time>
      </trkpt>
      <trkpt lat="47.68171" lon="-2.20916">
        <ele>35.1</ele>
        <time>2021-05-27T15:38:15Z</time>
      </trkpt>
      <trkpt lat="47.68172" lon="-2.20922">
        <ele>35.3</ele>
        <time>2021-05-27T15:38:16Z</time>
      </trkpt>
      <trkpt lat="47.68173" lon="-2.20928">
        <ele>35.5</ele>
        <time>2021-05-27T15:38:17Z</time>
      </trkpt>
      <trkpt lat="47.68174" lon="-2.20935">
        <ele>35.7</ele>
        <time>2021-05-27T15:38:18Z</time>
      </trkpt>
      <trkpt lat="47.68175" lon="-2.20941">
        <ele>35.9</ele>
        <time>2021-05-27T15:38:19Z</time>
      </trkpt>
      <trkpt lat="47.68177" lon="-2.20947">
        <ele>36.1</ele>
        <time>2021-05-27T15:38:20Z</time>
      </trkpt>
      <trkpt lat="47.68178" lon="-2.20953">
        <ele>36.3</ele>
        <time>2021-05-27T15:38:21Z</time>
      </trkpt>
      <trkpt lat="47.68179" lon="-2.20959">
        <ele>36.5</ele>
        <time>2021-05-27T15:38:22Z</time>
      </trkpt>
      <trkpt lat="47.6818" lon="-2.20965">
        <ele>36.7</ele>
        <time>2021-05-27T15:38:23Z</time>
      </trkpt>
      <trkpt lat="47.68181" lon="-2.20971">
        <ele>36.8</ele>
        <time>2021-05-27T15:38:24Z</time>
      </trkpt>
      <trkpt lat="47.68182" lon="-2.20978">
        <ele>37</ele>
        <time>2021-05-27T15:38:25Z</time>
      </trkpt>
      <trkpt lat="47.68183" lon="-2.20983">
        <ele>37.2</ele>
        <time>2021-05-27T15:38:26Z</time>
      </trkpt>
      <trkpt lat="47.68184" lon="-2.20989">
        <ele>37.4</ele>
        <time>2021-05-27T15:38:27Z</time>
      </trkpt>
      <trkpt lat="47.68186" lon="-2.20995">
        <ele>37.6</ele>
        <time>2021-05-27T15:38:28Z</time>
      </trkpt>
      <trkpt lat="47.68188" lon="-2.21001">
        <ele>37.8</ele>
        <time>2021-05-27T15:38:29Z</time>
      </trkpt>
      <trkpt lat="47.6819" lon="-2.21007">
        <ele>37.9</ele>
        <time>2021-05-27T15:38:30Z</time>
      </trkpt>
      <trkpt lat="47.68191" lon="-2.21013">
        <ele>38.1</ele>
        <time>2021-05-27T15:38:31Z</time>
      </trkpt>
      <trkpt lat="47.68192" lon="-2.21018">
        <ele>38.2</ele>
        <time>2021-05-27T15:38:32Z</time>
      </trkpt>
      <trkpt lat="47.68193" lon="-2.21024">
        <ele>38.3</ele>
        <time>2021-05-27T15:38:33Z</time>
      </trkpt>
      <trkpt lat="47.68194" lon="-2.2103">
        <ele>38.5</ele>
        <time>2021-05-27T15:38:34Z</time>
      </trkpt>
      <trkpt lat="47.68196" lon="-2.21036">
        <ele>38.6</ele>
        <time>2021-05-27T15:38:35Z</time>
      </trkpt>
      <trkpt lat="47.68197" lon="-2.21042">
        <ele>38.8</ele>
        <time>2021-05-27T15:38:36Z</time>
      </trkpt>
      <trkpt lat="47.68199" lon="-2.21048">
        <ele>39.1</ele>
        <time>2021-05-27T15:38:37Z</time>
      </trkpt>
      <trkpt lat="47.68201" lon="-2.21054">
        <ele>39.3</ele>
        <time>2021-05-27T15:38:38Z</time>
      </trkpt>
      <trkpt lat="47.68203" lon="-2.2106">
        <ele>39.5</ele>
        <time>2021-05-27T15:38:39Z</time>
      </trkpt>
      <trkpt lat="47.68204" lon="-2.21065">
        <ele>39.8</ele>
        <time>2021-05-27T15:38:40Z</time>
      </trkpt>
      <trkpt lat="47.68206" lon="-2.21071">
        <ele>40</ele>
        <time>2021-05-27T15:38:41Z</time>
      </trkpt>
      <trkpt lat="47.68207" lon="-2.21076">
        <ele>40.2</ele>
        <time>2021-05-27T15:38:42Z</time>
      </trkpt>
      <trkpt lat="47.68208" lon="-2.21082">
        <ele>40.5</ele>
        <time>2021-05-27T15:38:43Z</time>
      </trkpt>
      <trkpt lat="47.6821" lon="-2.21087">
        <ele>40.7</ele>
        <time>2021-05-27T15:38:44Z</time>
      </trkpt>
      <trkpt lat="47.68211" lon="-2.21092">
        <ele>41</ele>
        <time>2021-05-27T15:38:45Z</time>
      </trkpt>
      <trkpt lat="47.68213" lon="-2.21098">
        <ele>41.2</ele>
        <time>2021-05-27T15:38:46Z</time>
      </trkpt>
      <trkpt lat="47.68214" lon="-2.21104">
        <ele>41.5</ele>
        <time>2021-05-27T15:38:47Z</time>
      </trkpt>
      <trkpt lat="47.68216" lon="-2.2111">
        <ele>41.8</ele>
        <time>2021-05-27T15:38:48Z</time>
      </trkpt>
      <trkpt lat="47.68218" lon="-2.21116">
        <ele>42.1</ele>
        <time>2021-05-27T15:38:49Z</time>
      </trkpt>
      <trkpt lat="47.68221" lon="-2.21121">
        <ele>42.4</ele>
        <time>2021-05-27T15:38:50Z</time>
      </trkpt>
      <trkpt lat="47.68223" lon="-2.21127">
        <ele>42.8</ele>
        <time>2021-05-27T15:38:51Z</time>
      </trkpt>
      <trkpt lat="47.68226" lon="-2.21132">
        <ele>43.1</ele>
        <time>2021-05-27T15:38:52Z</time>
      </trkpt>
      <trkpt lat="47.68229" lon="-2.21137">
        <ele>43.5</ele>
        <time>2021-05-27T15:38:53Z</time>
      </trkpt>
      <trkpt lat="47.68231" lon="-2.21142">
        <ele>43.8</ele>
        <time>2021-05-27T15:38:54Z</time>
      </trkpt>
      <trkpt lat="47.68234" lon="-2.21146">
        <ele>44.2</ele>
        <time>2021-05-27T15:38:55Z</time>
      </trkpt>
      <trkpt lat="47.68237" lon="-2.21151">
        <ele>44.6</ele>
        <time>2021-05-27T15:38:56Z</time>
      </trkpt>
      <trkpt lat="47.6824" lon="-2.21155">
        <ele>44.9</ele>
        <time>2021-05-27T15:38:57Z</time>
      </trkpt>
      <trkpt lat="47.68244" lon="-2.21159">
        <ele>45.3</ele>
        <time>2021-05-27T15:38:58Z</time>
      </trkpt>
      <trkpt lat="47.68247" lon="-2.21163">
        <ele>45.7</ele>
        <time>2021-05-27T15:38:59Z</time>
      </trkpt>
      <trkpt lat="47.6825" lon="-2.21168">
        <ele>46</ele>
        <time>2021-05-27T15:39:00Z</time>
      </trkpt>
      <trkpt lat="47.68253" lon="-2.21172">
        <ele>46.1</ele>
        <time>2021-05-27T15:39:01Z</time>
      </trkpt>
      <trkpt lat="47.68256" lon="-2.21176">
        <ele>46.1</ele>
        <time>2021-05-27T15:39:02Z</time>
      </trkpt>
      <trkpt lat="47.6826" lon="-2.21181">
        <ele>46.2</ele>
        <time>2021-05-27T15:39:03Z</time>
      </trkpt>
      <trkpt lat="47.68263" lon="-2.21185">
        <ele>46.4</ele>
        <time>2021-05-27T15:39:04Z</time>
      </trkpt>
      <trkpt lat="47.68267" lon="-2.21189">
        <ele>46.5</ele>
        <time>2021-05-27T15:39:05Z</time>
      </trkpt>
      <trkpt lat="47.6827" lon="-2.21193">
        <ele>46.6</ele>
        <time>2021-05-27T15:39:06Z</time>
      </trkpt>
      <trkpt lat="47.68273" lon="-2.21198">
        <ele>46.8</ele>
        <time>2021-05-27T15:39:07Z</time>
      </trkpt>
      <trkpt lat="47.68277" lon="-2.21202">
        <ele>47</ele>
        <time>2021-05-27T15:39:08Z</time>
      </trkpt>
      <trkpt lat="47.6828" lon="-2.21207">
        <ele>47.1</ele>
        <time>2021-05-27T15:39:09Z</time>
      </trkpt>
      <trkpt lat="47.68284" lon="-2.21211">
        <ele>47.3</ele>
        <time>2021-05-27T15:39:10Z</time>
      </trkpt>
      <trkpt lat="47.68288" lon="-2.21215">
        <ele>47.6</ele>
        <time>2021-05-27T15:39:11Z</time>
      </trkpt>
      <trkpt lat="47.68291" lon="-2.21219">
        <ele>47.8</ele>
        <time>2021-05-27T15:39:12Z</time>
      </trkpt>
      <trkpt lat="47.68295" lon="-2.21224">
        <ele>48</ele>
        <time>2021-05-27T15:39:13Z</time>
      </trkpt>
      <trkpt lat="47.68298" lon="-2.21228">
        <ele>48.3</ele>
        <time>2021-05-27T15:39:14Z</time>
      </trkpt>
      <trkpt lat="47.68302" lon="-2.21231">
        <ele>48.5</ele>
        <time>2021-05-27T15:39:15Z</time>
      </trkpt>
      <trkpt lat="47.68305" lon="-2.21235">
        <ele>48.8</ele>
        <time>2021-05-27T15:39:16Z</time>
      </trkpt>
      <trkpt lat="47.68308" lon="-2.21239">
        <ele>49</ele>
        <time>2021-05-27T15:39:17Z</time>
      </trkpt>
      <trkpt lat="47.68312" lon="-2.21243">
        <ele>49.3</ele>
        <time>2021-05-27T15:39:18Z</time>
      </trkpt>
      <trkpt lat="47.68316" lon="-2.21247">
        <ele>49.7</ele>
        <time>2021-05-27T15:39:19Z</time>
      </trkpt>
      <trkpt lat="47.68321" lon="-2.2125">
        <ele>50.1</ele>
        <time>2021-05-27T15:39:20Z</time>
      </trkpt>
      <trkpt lat="47.68325" lon="-2.21254">
        <ele>50.4</ele>
        <time>2021-05-27T15:39:21Z</time>
      </trkpt>
      <trkpt lat="47.6833" lon="-2.21258">
        <ele>50.7</ele>
        <time>2021-05-27T15:39:22Z</time>
      </trkpt>
      <trkpt lat="47.68334" lon="-2.21261">
        <ele>50.9</ele>
        <time>2021-05-27T15:39:23Z</time>
      </trkpt>
      <trkpt lat="47.68338" lon="-2.21264">
        <ele>51.1</ele>
        <time>2021-05-27T15:39:24Z</time>
      </trkpt>
      <trkpt lat="47.68342" lon="-2.21267">
        <ele>51.2</ele>
        <time>2021-05-27T15:39:25Z</time>
      </trkpt>
      <trkpt lat="47.68346" lon="-2.21271">
        <ele>51.4</ele>
        <time>2021-05-27T15:39:26Z</time>
      </trkpt>
      <trkpt lat="47.6835" lon="-2.21274">
        <ele>51.5</ele>
        <time>2021-05-27T15:39:27Z</time>
      </trkpt>
      <trkpt lat="47.68353" lon="-2.21277">
        <ele>51.6</ele>
        <time>2021-05-27T15:39:28Z</time>
      </trkpt>
      <trkpt lat="47.68357" lon="-2.2128">
        <ele>51.8</ele>
        <time>2021-05-27T15:39:29Z</time>
      </trkpt>
      <trkpt lat="47.68361" lon="-2.21283">
        <ele>51.9</ele>
        <time>2021-05-27T15:39:30Z</time>
      </trkpt>
      <trkpt lat="47.68364" lon="-2.21286">
        <ele>52.1</ele>
        <time>2021-05-27T15:39:31Z</time>
      </trkpt>
      <trkpt lat="47.68368" lon="-2.21289">
        <ele>52.2</ele>
        <time>2021-05-27T15:39:32Z</time>
      </trkpt>
      <trkpt lat="47.68371" lon="-2.21291">
        <ele>52.3</ele>
        <time>2021-05-27T15:39:33Z</time>
      </trkpt>
      <trkpt lat="47.68375" lon="-2.21293">
        <ele>52.5</ele>
        <time>2021-05-27T15:39:34Z</time>
      </trkpt>
      <trkpt lat="47.68378" lon="-2.21295">
        <ele>52.6</ele>
        <time>2021-05-27T15:39:35Z</time>
      </trkpt>
      <trkpt lat="47.68381" lon="-2.21297">
        <ele>52.7</ele>
        <time>2021-05-27T15:39:36Z</time>
      </trkpt>
      <trkpt lat="47.68384" lon="-2.21299">
        <ele>52.8</ele>
        <time>2021-05-27T15:39:37Z</time>
      </trkpt>
      <trkpt lat="47.68387" lon="-2.21302">
        <ele>52.9</ele>
        <time>2021-05-27T15:39:38Z</time>
      </trkpt>
      <trkpt lat="47.6839" lon="-2.21306">
        <ele>53.1</ele>
        <time>2021-05-27T15:39:39Z</time>
      </trkpt>
      <trkpt lat="47.68394" lon="-2.2131">
        <ele>53.2</ele>
        <time>2021-05-27T15:39:40Z</time>
      </trkpt>
      <trkpt lat="47.68398" lon="-2.21316">
        <ele>53.3</ele>
        <time>2021-05-27T15:39:41Z</time>
      </trkpt>
      <trkpt lat="47.68401" lon="-2.21321">
        <ele>53.4</ele>
        <time>2021-05-27T15:39:42Z</time>
      </trkpt>
      <trkpt lat="47.68403" lon="-2.21327">
        <ele>53.4</ele>
        <time>2021-05-27T15:39:43Z</time>
      </trkpt>
      <trkpt lat="47.68405" lon="-2.21334">
        <ele>53.4</ele>
        <time>2021-05-27T15:39:44Z</time>
      </trkpt>
      <trkpt lat="47.68408" lon="-2.21342">
        <ele>53.3</ele>
        <time>2021-05-27T15:39:45Z</time>
      </trkpt>
      <trkpt lat="47.6841" lon="-2.21349">
        <ele>53.1</ele>
        <time>2021-05-27T15:39:46Z</time>
      </trkpt>
      <trkpt lat="47.68411" lon="-2.21355">
        <ele>53</ele>
        <time>2021-05-27T15:39:47Z</time>
      </trkpt>
      <trkpt lat="47.68413" lon="-2.21361">
        <ele>52.8</ele>
        <time>2021-05-27T15:39:48Z</time>
      </trkpt>
      <trkpt lat="47.68414" lon="-2.21367">
        <ele>52.7</ele>
        <time>2021-05-27T15:39:49Z</time>
      </trkpt>
      <trkpt lat="47.68416" lon="-2.21374">
        <ele>52.5</ele>
        <time>2021-05-27T15:39:50Z</time>
      </trkpt>
      <trkpt lat="47.68416" lon="-2.2138">
        <ele>52.3</ele>
        <time>2021-05-27T15:39:51Z</time>
      </trkpt>
      <trkpt lat="47.68418" lon="-2.21386">
        <ele>52.1</ele>
        <time>2021-05-27T15:39:52Z</time>
      </trkpt>
      <trkpt lat="47.6842" lon="-2.2139">
        <ele>52.1</ele>
        <time>2021-05-27T15:39:53Z</time>
      </trkpt>
      <trkpt lat="47.68422" lon="-2.21395">
        <ele>52</ele>
        <time>2021-05-27T15:39:54Z</time>
      </trkpt>
      <trkpt lat="47.68423" lon="-2.21399">
        <ele>51.9</ele>
        <time>2021-05-27T15:39:55Z</time>
      </trkpt>
      <trkpt lat="47.68423" lon="-2.21404">
        <ele>51.8</ele>
        <time>2021-05-27T15:39:56Z</time>
      </trkpt>
      <trkpt lat="47.68423" lon="-2.21409">
        <ele>51.6</ele>
        <time>2021-05-27T15:39:57Z</time>
      </trkpt>
      <trkpt lat="47.68421" lon="-2.21413">
        <ele>51.4</ele>
        <time>2021-05-27T15:39:58Z</time>
      </trkpt>
      <trkpt lat="47.68419" lon="-2.21416">
        <ele>51.1</ele>
        <time>2021-05-27T15:39:59Z</time>
      </trkpt>
      <trkpt lat="47.68416" lon="-2.21417">
        <ele>51</ele>
        <time>2021-05-27T15:40:00Z</time>
      </trkpt>
      <trkpt lat="47.68412" lon="-2.21416">
        <ele>50.9</ele>
        <time>2021-05-27T15:40:01Z</time>
      </trkpt>
      <trkpt lat="47.68409" lon="-2.21413">
        <ele>51</ele>
        <time>2021-05-27T15:40:02Z</time>
      </trkpt>
      <trkpt lat="47.68406" lon="-2.2141">
        <ele>51</ele>
        <time>2021-05-27T15:40:03Z</time>
      </trkpt>
      <trkpt lat="47.68404" lon="-2.21407">
        <ele>51</ele>
        <time>2021-05-27T15:40:04Z</time>
      </trkpt>
      <trkpt lat="47.68402" lon="-2.21405">
        <ele>51</ele>
        <time>2021-05-27T15:40:05Z</time>
      </trkpt>
      <trkpt lat="47.684" lon="-2.21403">
        <ele>51</ele>
        <time>2021-05-27T15:40:06Z</time>
      </trkpt>
      <trkpt lat="47.68399" lon="-2.21402">
        <ele>51</ele>
        <time>2021-05-27T15:40:07Z</time>
      </trkpt>
      <trkpt lat="47.68399" lon="-2.21402">
        <ele>51</ele>
        <time>2021-05-27T15:40:08Z</time>
      </trkpt>
      <trkpt lat="47.68399" lon="-2.21402">
        <ele>51</ele>
        <time>2021-05-27T15:40:09Z</time>
      </trkpt>
      <trkpt lat="47.68399" lon="-2.21402">
        <ele>51</ele>
        <time>2021-05-27T15:40:10Z</time>
      </trkpt>
      <trkpt lat="47.68399" lon="-2.21402">
        <ele>51</ele>
        <time>2021-05-27T15:40:11Z</time>
      </trkpt>
      <trkpt lat="47.68399" lon="-2.21402">
        <ele>51</ele>
        <time>2021-05-27T15:40:12Z</time>
      </trkpt>
    </trkseg>
  </trk>
</gpx>